{
  "fields": [{"id":"_id","type":"int"},{"id":"Fecha & Hora","type":"timestamp"},{"id":"PM10 (ug/m3)","type":"text"},{"id":"PM2,5 (ug/m3)","type":"text"},{"id":"O3  (ug/m3)","type":"text"},{"id":"Vel Viento  (m/s)","type":"text"},{"id":"Dir Viento (Grados)","type":"text"},{"id":"Temperatura (C°)","type":"text"},{"id":"Humedad (%)","type":"text"},{"id":"Radiacion Solar (Watt/M2)","type":"text"},{"id":"Lluvia (mm)","type":"text"}],
  "records": [
    [1,"2014-01-30T11:00:00","ND","ND","61,4","ND","ND","ND","ND","ND","ND"],
    [2,"2014-01-30T12:00:00","ND","ND","69,04","ND","ND","27,1","61,9","501,4","0"],
    [3,"2014-01-30T13:00:00","ND","ND","93,19","ND","ND","27,4","59,9","326,6","0"],
    [4,"2014-01-30T14:00:00","ND","ND","85,03","ND","ND","28,5","54,1","541","0"],
    [5,"2014-01-30T15:00:00","ND","ND","52,98","ND","ND","28,4","56,4","248,8","0"],
    [6,"2014-01-30T16:00:00","ND","ND","42,37","ND","ND","28,1","52,5","262,1","0"],
    [7,"2014-01-30T17:00:00","ND","ND","26,2","ND","ND","27,9","52,4","129","0"],
    [8,"2014-01-30T18:00:00","ND","ND","26,63","ND","ND","27,1","53,2","42,4","0"],
    [9,"2014-01-30T19:00:00","ND","ND","26,26","ND","ND","24,2","74","0","0"],
    [10,"2014-01-30T20:00:00","ND","ND","28,34","ND","ND","23,6","78,2","0","0"],
    [11,"2014-01-30T21:00:00","ND","ND","16,39","ND","ND","23","81,6","0","0"],
    [12,"2014-01-30T22:00:00","ND","ND","13,54","ND","ND","23,1","79,4","0","0"],
    [13,"2014-01-30T23:00:00","ND","ND","1,81","ND","ND","22,8","82,2","0","0"],
    [14,"2014-01-31T00:00:00","ND","ND","1,79","ND","ND","22,1","86,2","0","0"],
    [15,"2014-01-31T01:00:00","ND","ND","3,22","ND","ND","22,1","86,5","0","0"],
    [16,"2014-01-31T02:00:00","ND","ND","4,83","ND","ND","22,1","86,8","0","0"],
    [17,"2014-01-31T03:00:00","ND","ND","2,47","ND","ND","21,8","88,5","0","0"],
    [18,"2014-01-31T04:00:00","ND","ND","0","ND","ND","21,3","89,8","0","0"],
    [19,"2014-01-31T05:00:00","ND","ND","0","ND","ND","21,4","88,4","0","0"],
    [20,"2014-01-31T06:00:00","ND","ND","0,1","ND","ND","21,4","88,1","0","0"],
    [21,"2014-01-31T07:00:00","ND","ND","0,04","ND","ND","21,1","88,8","27,5","0"],
    [22,"2014-01-31T08:00:00","ND","ND","2,3","ND","ND","21,7","85,3","78,7","0"],
    [23,"2014-01-31T09:00:00","ND","ND","8,85","ND","ND","22,5","81,8","218,8","0"],
    [24,"2014-01-31T10:00:00","ND","ND","16,94","ND","ND","23,8","77,4","339,8","0"],
    [25,"2014-01-31T11:00:00","ND","ND","31,4","ND","ND","24,7","70,9","316,7","0"],
    [26,"2014-01-31T12:00:00","ND","ND","50,57","ND","ND","25,7","66,9","532,4","0"],
    [27,"2014-01-31T13:00:00","ND","ND","62,78","ND","ND","27,2","58,5","678,5","0"],
    [28,"2014-01-31T14:00:00","ND","ND","77,73","ND","ND","28,4","53","706","0"],
    [29,"2014-01-31T15:00:00","ND","ND","89,29","ND","ND","29","48,5","461,8","0"],
    [30,"2014-01-31T16:00:00","ND","ND","97,41","ND","ND","29,1","48,1","380,1","0"],
    [31,"2014-01-31T17:00:00","ND","ND","69,39","ND","ND","29,2","48,2","257,5","0"],
    [32,"2014-01-31T18:00:00","ND","ND","35,81","ND","ND","28,3","50,6","68,6","0"],
    [33,"2014-01-31T19:00:00","ND","ND","16,05","ND","ND","27,4","53,4","18,7","0"],
    [34,"2014-01-31T20:00:00","ND","ND","1,63","ND","ND","27","55,3","0","0"],
    [35,"2014-01-31T21:00:00","ND","ND","0,71","ND","ND","25,2","65,6","0","0"],
    [36,"2014-01-31T22:00:00","ND","ND","1,06","ND","ND","23,6","73,8","0","0"],
    [37,"2014-01-31T23:00:00","ND","ND","3,92","ND","ND","23,7","71,7","0","0"],
    [38,"2014-02-01T00:00:00","ND","ND","8,38","ND","ND","23,8","71,2","0","0"],
    [39,"2014-02-01T01:00:00","ND","ND","8,12","ND","ND","23,6","72","0","0"],
    [40,"2014-02-01T02:00:00","ND","ND","10,89","ND","ND","23,4","73,1","0","0"],
    [41,"2014-02-01T03:00:00","ND","ND","10,73","ND","ND","23,3","73,1","0","0"],
    [42,"2014-02-01T04:00:00","ND","ND","0,55","ND","ND","22,9","78,9","0","0"],
    [43,"2014-02-01T05:00:00","ND","ND","0,04","ND","ND","22,7","80,6","0","0"],
    [44,"2014-02-01T06:00:00","ND","ND","0,04","ND","ND","22,7","80,9","0","0"],
    [45,"2014-02-01T07:00:00","ND","ND","0,1","ND","ND","22,3","82,8","30,6","0"],
    [46,"2014-02-01T08:00:00","ND","ND","3,87","ND","ND","22,8","78,8","110,1","0"],
    [47,"2014-02-01T09:00:00","ND","ND","16,72","ND","ND","23,7","74,1","194,1","0"],
    [48,"2014-02-01T10:00:00","ND","ND","32,44","ND","ND","25,1","67,9","508,5","0"],
    [49,"2014-02-01T11:00:00","ND","ND","59,19","ND","ND","26,9","60,9","687,6","0"],
    [50,"2014-02-01T12:00:00","ND","ND","86,48","ND","ND","28,5","53,3","790,1","0"],
    [51,"2014-02-01T13:00:00","ND","ND","83,99","ND","ND","29,8","47,8","755,2","0"],
    [52,"2014-02-01T14:00:00","ND","ND","120,02","ND","ND","30,5","45,7","658,7","0"],
    [53,"2014-02-01T15:00:00","ND","ND","135,29","ND","ND","30,6","46,2","347,3","0"],
    [54,"2014-02-01T16:00:00","ND","ND","79,34","ND","ND","30,6","45,1","391,8","0"],
    [55,"2014-02-01T17:00:00","ND","ND","40,8","ND","ND","29,8","46","275,9","0"],
    [56,"2014-02-01T18:00:00","ND","ND","27,06","ND","ND","28,7","48,5","52,3","0"],
    [57,"2014-02-01T19:00:00","ND","ND","8,22","ND","ND","27,7","52,2","19,3","0"],
    [58,"2014-02-01T20:00:00","ND","ND","3,55","ND","ND","26,5","59,2","0","0"],
    [59,"2014-02-01T21:00:00","ND","ND","0,67","ND","ND","24,6","69,4","0","0"],
    [60,"2014-02-01T22:00:00","ND","ND","0,27","ND","ND","25","68","0","0"],
    [61,"2014-02-01T23:00:00","ND","ND","1,35","ND","ND","24,5","70,7","0","0"],
    [62,"2014-02-02T00:00:00","ND","ND","0,73","ND","ND","24,3","71,7","0","0"],
    [63,"2014-02-02T01:00:00","ND","ND","1,92","ND","ND","23,7","74,8","0","0"],
    [64,"2014-02-02T02:00:00","ND","ND","7,79","ND","ND","23,7","74,2","0","0"],
    [65,"2014-02-02T03:00:00","ND","ND","5,18","ND","ND","23,7","74,3","0","0"],
    [66,"2014-02-02T04:00:00","ND","ND","2,51","ND","ND","23,4","77,6","0","0"],
    [67,"2014-02-02T05:00:00","ND","ND","6,16","ND","ND","23,2","80","0","0"],
    [68,"2014-02-02T06:00:00","ND","ND","5,77","ND","ND","22,3","85,8","0","0"],
    [69,"2014-02-02T07:00:00","ND","ND","1","ND","ND","22,5","85,3","23,9","0"],
    [70,"2014-02-02T08:00:00","ND","ND","4,53","ND","ND","23,1","82,2","85,4","0"],
    [71,"2014-02-02T09:00:00","ND","ND","5,4","ND","ND","23,3","82,3","70,7","0"],
    [72,"2014-02-02T10:00:00","ND","ND","24,06","ND","ND","24,2","80,8","331,3","0"],
    [73,"2014-02-02T11:00:00","ND","ND","61,6","ND","ND","26,3","67,4","659,9","0"],
    [74,"2014-02-02T12:00:00","ND","ND","102,14","ND","ND","28,2","57,5","801,5","0"],
    [75,"2014-02-02T13:00:00","ND","ND","111,07","ND","ND","29,4","51,1","538,8","0"],
    [76,"2014-02-02T14:00:00","ND","ND","57,75","ND","ND","29,1","50,6","192","0"],
    [77,"2014-02-02T15:00:00","ND","ND","40,54","ND","ND","29,3","49,7","307,4","0"],
    [78,"2014-02-02T16:00:00","ND","ND","40,03","ND","ND","29,3","48,4","319,2","0"],
    [79,"2014-02-02T17:00:00","ND","ND","33,07","ND","ND","28,4","50,9","173,4","0"],
    [80,"2014-02-02T18:00:00","ND","ND","31,03","ND","ND","27,6","52","72,5","0"],
    [81,"2014-02-02T19:00:00","ND","ND","22,39","ND","ND","25,1","67","18,4","0"],
    [82,"2014-02-02T20:00:00","ND","ND","27,1","ND","ND","23,7","73,8","0","0"],
    [83,"2014-02-02T21:00:00","ND","ND","26,51","ND","ND","23,1","78,2","0","0"],
    [84,"2014-02-02T22:00:00","ND","ND","25,57","ND","ND","23,5","73,5","0","0"],
    [85,"2014-02-02T23:00:00","ND","ND","5,61","ND","ND","23,6","74,4","0","0"],
    [86,"2014-02-03T00:00:00","ND","ND","3,47","ND","ND","22,5","81,9","0","0"],
    [87,"2014-02-03T01:00:00","ND","ND","7,56","ND","ND","22,4","81,3","0","0"],
    [88,"2014-02-03T02:00:00","ND","ND","1,28","ND","ND","21,6","85,6","0","0"],
    [89,"2014-02-03T03:00:00","ND","ND","5,06","ND","ND","21,5","87,1","0","0"],
    [90,"2014-02-03T04:00:00","ND","ND","3,18","ND","ND","21,5","87,2","0","0"],
    [91,"2014-02-03T05:00:00","ND","ND","0,27","ND","ND","21,5","87,3","0","0"],
    [92,"2014-02-03T06:00:00","ND","ND","0,02","ND","ND","21,2","88,3","0","0"],
    [93,"2014-02-03T07:00:00","ND","ND","0,73","ND","ND","20,3","89,7","29,9","0"],
    [94,"2014-02-03T08:00:00","ND","ND","0,98","ND","ND","21,3","87,6","137,4","0"],
    [95,"2014-02-03T09:00:00","ND","ND","6,38","ND","ND","22,7","81,7","161,3","0"],
    [96,"2014-02-03T10:00:00","ND","ND","25,88","ND","ND","24,4","72,6","454,3","0"],
    [97,"2014-02-03T11:00:00","ND","ND","56,52","ND","ND","26,8","60,7","673,6","0"],
    [98,"2014-02-03T12:00:00","ND","ND","ND","ND","ND","28,3","53,4","696,9","0"],
    [99,"2014-02-03T13:00:00","ND","ND","5,75","ND","ND","29","50,8","635,3","0"],
    [100,"2014-02-03T14:00:00","ND","ND","6,81","ND","ND","29,6","49,1","516,9","0"],
    [101,"2014-02-03T15:00:00","ND","ND","11,3","ND","ND","30,2","47,1","437,9","0"],
    [102,"2014-02-03T16:00:00","ND","ND","6,06","ND","ND","30,7","45,3","366","0"],
    [103,"2014-02-03T17:00:00","ND","ND","3,55","ND","ND","30,3","43,9","264,3","0"],
    [104,"2014-02-03T18:00:00","ND","ND","1,65","ND","ND","29,2","46,7","88,7","0"],
    [105,"2014-02-03T19:00:00","ND","ND","0,57","ND","ND","27,9","51,2","19,3","0"],
    [106,"2014-02-03T20:00:00","ND","ND","0,27","ND","ND","27,1","54,9","0","0"],
    [107,"2014-02-03T21:00:00","ND","ND","0,18","ND","ND","24,5","69,8","0","0"],
    [108,"2014-02-03T22:00:00","ND","ND","0,18","ND","ND","23,8","72,9","0","0"],
    [109,"2014-02-03T23:00:00","ND","ND","0,2","ND","ND","24,4","69,4","0","0"],
    [110,"2014-02-04T00:00:00","ND","16","0,18","ND","ND","23,3","78,6","16,3","0"],
    [111,"2014-02-04T01:00:00","ND","ND","0,14","ND","ND","22,5","78,7","0","0"],
    [112,"2014-02-04T02:00:00","ND","ND","0,12","ND","ND","23,3","76,4","0","0"],
    [113,"2014-02-04T03:00:00","ND","ND","0,2","ND","ND","23,6","76,2","0","0"],
    [114,"2014-02-04T04:00:00","ND","ND","0,24","ND","ND","22,8","79,6","0","0"],
    [115,"2014-02-04T05:00:00","ND","ND","0,12","ND","ND","22,9","78,9","0","0"],
    [116,"2014-02-04T06:00:00","ND","ND","0,16","ND","ND","23","78,2","0","0"],
    [117,"2014-02-04T07:00:00","ND","ND","0,2","ND","ND","22,9","79,9","27,4","0"],
    [118,"2014-02-04T08:00:00","ND","ND","0,22","ND","ND","23","80","109,8","0"],
    [119,"2014-02-04T09:00:00","ND","ND","0,27","ND","ND","24","75","279,3","0"],
    [120,"2014-02-04T10:00:00","ND","ND","0,75","ND","ND","25,7","67,8","506,4","0"],
    [121,"2014-02-04T11:00:00","ND","ND","1,49","ND","ND","27,1","61,2","651,2","0"],
    [122,"2014-02-04T12:00:00","ND","ND","3,39","ND","ND","28,7","55,3","807,2","0"],
    [123,"2014-02-04T13:00:00","ND","ND","4,65","ND","ND","29,1","52,1","361,7","0"],
    [124,"2014-02-04T14:00:00","ND","ND","10,3","ND","ND","29,6","49,2","495,1","0"],
    [125,"2014-02-04T15:00:00","ND","ND","ND","ND","ND","ND","ND","ND","ND"],
    [126,"2014-02-04T16:00:00","ND","5","ND","ND","ND","30,7","42,3","447,2","0"],
    [127,"2014-02-04T17:00:00","ND","ND","ND","ND","ND","30,1","44,7","303,8","0"],
    [128,"2014-02-04T18:00:00","ND","21","ND","ND","ND","28","56,6","42,6","0"],
    [129,"2014-02-04T19:00:00","ND","13","ND","ND","ND","26,6","62,7","18,1","0"],
    [130,"2014-02-04T20:00:00","ND","21","ND","ND","ND","25,4","68,2","16,3","0"],
    [131,"2014-02-04T21:00:00","ND","8","ND","ND","ND","24,1","73,1","16,3","0"],
    [132,"2014-02-04T22:00:00","ND","10","ND","ND","ND","24,1","73,1","16,3","0"],
    [133,"2014-02-04T23:00:00","ND","27","ND","ND","ND","23,4","79,5","16,3","0"],
    [134,"2014-02-05T00:00:00","ND","49","ND","ND","ND","20,7","85,9","16,3","0"],
    [135,"2014-02-05T01:00:00","ND","17","ND","ND","ND","23,3","78,2","16,3","0"],
    [136,"2014-02-05T02:00:00","ND","18","ND","ND","ND","23,3","78,4","16,3","0"],
    [137,"2014-02-05T03:00:00","ND","12","ND","ND","ND","22,8","82,2","16,3","0"],
    [138,"2014-02-05T04:00:00","ND","15","ND","ND","ND","22","87,8","16,3","0"],
    [139,"2014-02-05T05:00:00","ND","6","ND","ND","ND","21,8","87,7","16,3","0"],
    [140,"2014-02-05T06:00:00","ND","3","ND","ND","ND","21,6","84,2","16,3","0"],
    [141,"2014-02-05T07:00:00","ND","3","ND","ND","ND","21,6","84,4","23,8","0"],
    [142,"2014-02-05T08:00:00","ND","8","ND","ND","ND","22,1","83,1","108","0"],
    [143,"2014-02-05T09:00:00","ND","6","ND","ND","ND","23","80,8","166,7","0"],
    [144,"2014-02-05T10:00:00","ND","5","ND","ND","ND","24,1","74,1","202,3","0"],
    [145,"2014-02-05T11:00:00","ND","11","ND","ND","ND","24,9","70,2","352,3","0"],
    [146,"2014-02-05T12:00:00","ND","5","ND","ND","ND","26,2","64,2","618,3","0"],
    [147,"2014-02-05T13:00:00","ND","2","ND","ND","ND","27,8","57,7","748,6","0"],
    [148,"2014-02-05T14:00:00","ND","1","ND","ND","ND","29","52","738,1","0"],
    [149,"2014-02-05T15:00:00","ND","ND","ND","ND","ND","29,1","50,5","529,7","0"],
    [150,"2014-02-05T16:00:00","ND","ND","ND","ND","ND","27","61,3","136,2","0"],
    [151,"2014-02-05T17:00:00","ND","9","ND","ND","ND","23,8","73,9","71,3","0"],
    [152,"2014-02-05T18:00:00","ND","11","ND","ND","ND","22,5","80,2","24,7","0"],
    [153,"2014-02-05T19:00:00","ND","11","ND","ND","ND","22,1","80,9","17,1","0"],
    [154,"2014-02-05T20:00:00","ND","15","ND","ND","ND","21,7","82,9","16,2","0"],
    [155,"2014-02-05T21:00:00","ND","18","ND","ND","ND","21,8","81,3","16,3","0"],
    [156,"2014-02-05T22:00:00","ND","26","ND","ND","ND","21,6","81,9","16,3","0"],
    [157,"2014-02-05T23:00:00","ND","24","ND","ND","ND","21,2","84,2","16,4","0"],
    [158,"2014-02-06T00:00:00","ND","18","ND","ND","ND","21,9","79,8","16,3","0"],
    [159,"2014-02-06T01:00:00","ND","20","ND","ND","ND","19,7","90,2","16,3","0"],
    [160,"2014-02-06T02:00:00","ND","27","ND","ND","ND","19,9","90,4","16,3","0"],
    [161,"2014-02-06T03:00:00","ND","21","ND","ND","ND","20,2","89","16,3","0"],
    [162,"2014-02-06T04:00:00","ND","22","ND","ND","ND","20,3","87,7","16,3","0"],
    [163,"2014-02-06T05:00:00","ND","11","ND","ND","ND","20,1","88,4","16,3","0"],
    [164,"2014-02-06T06:00:00","ND","29","ND","ND","ND","19,5","91,3","16,3","0"],
    [165,"2014-02-06T07:00:00","ND","21","ND","ND","ND","18,9","91,4","27,1","0"],
    [166,"2014-02-06T08:00:00","ND","28","ND","ND","ND","19,5","88,3","107,4","0"],
    [167,"2014-02-06T09:00:00","ND","17","ND","ND","ND","20,8","83,5","386,9","0"],
    [168,"2014-02-06T10:00:00","ND","28","ND","ND","ND","22,7","76,6","354,3","0"],
    [169,"2014-02-06T11:00:00","ND","20","ND","ND","ND","24","70,1","585,6","0"],
    [170,"2014-02-06T12:00:00","ND","17","ND","ND","ND","25","64,5","600,1","0"],
    [171,"2014-02-06T13:00:00","ND","13","ND","ND","ND","26","59,7","707,2","0"],
    [172,"2014-02-06T14:00:00","ND","11","ND","ND","ND","26,2","58,7","356,3","0"],
    [173,"2014-02-06T15:00:00","ND","8","ND","ND","ND","26,6","57,2","506,4","0"],
    [174,"2014-02-06T16:00:00","ND","15","ND","ND","ND","27,1","54,3","198,1","0"],
    [175,"2014-02-06T17:00:00","ND","27","ND","ND","ND","27,2","54,3","120,1","0"],
    [176,"2014-02-06T18:00:00","ND","51","ND","ND","ND","27,3","55,2","51,2","0"],
    [177,"2014-02-06T19:00:00","ND","ND","ND","ND","ND","26,6","58,4","18,6","0"],
    [178,"2014-02-06T20:00:00","ND","ND","ND","ND","ND","25,8","62,7","16,2","0"],
    [179,"2014-02-06T21:00:00","ND","ND","ND","ND","ND","25,1","66,6","16,2","0"],
    [180,"2014-02-06T22:00:00","ND","58","ND","ND","ND","24,2","68,1","16,2","0"],
    [181,"2014-02-06T23:00:00","ND","30","ND","ND","ND","23,8","68,8","16,3","0"],
    [182,"2014-02-07T00:00:00","ND","20","ND","ND","ND","23,5","72","16,2","0"],
    [183,"2014-02-07T01:00:00","ND","30","ND","ND","ND","21,3","83,1","16,3","0"],
    [184,"2014-02-07T02:00:00","ND","26","ND","ND","ND","21","84,4","16,3","0"],
    [185,"2014-02-07T03:00:00","ND","32","ND","ND","ND","21,1","83,7","16,3","0"],
    [186,"2014-02-07T04:00:00","ND","32","ND","ND","ND","20,4","87,1","16,3","0"],
    [187,"2014-02-07T05:00:00","ND","35","ND","ND","ND","20,1","90,7","16,3","0"],
    [188,"2014-02-07T06:00:00","ND","42","ND","ND","ND","20,4","86,8","16,2","0"],
    [189,"2014-02-07T07:00:00","ND","48","ND","ND","ND","19,6","89,4","35,2","0"],
    [190,"2014-02-07T08:00:00","ND","44","ND","ND","ND","20,5","85,5","186,1","0"],
    [191,"2014-02-07T09:00:00","ND","42","ND","ND","ND","22,7","77,2","372,6","0"],
    [192,"2014-02-07T10:00:00","ND","33","ND","ND","ND","24,8","67,5","508,4","0"],
    [193,"2014-02-07T11:00:00","ND","19","ND","ND","ND","26,2","61,3","615,7","0"],
    [194,"2014-02-07T12:00:00","ND","12","ND","ND","ND","27,8","52,3","729,2","0"],
    [195,"2014-02-07T13:00:00","ND","7","ND","ND","ND","29","46,4","756","0"],
    [196,"2014-02-07T14:00:00","ND","4","ND","ND","ND","29,8","41,3","625,5","0"],
    [197,"2014-02-07T15:00:00","ND","19","ND","ND","ND","30,6","40,3","702,7","0"],
    [198,"2014-02-07T16:00:00","ND","18","ND","ND","ND","31,1","37,8","379,1","0"],
    [199,"2014-02-07T17:00:00","ND","26","ND","ND","ND","30,7","40,6","151,8","0"],
    [200,"2014-02-07T18:00:00","ND","9","ND","ND","ND","29,5","47","98","0"],
    [201,"2014-02-07T19:00:00","ND","11","ND","ND","ND","27,8","51,7","21,1","0"],
    [202,"2014-02-07T20:00:00","ND","21","ND","ND","ND","27,2","53,8","16,2","0"],
    [203,"2014-02-07T21:00:00","ND","27","ND","ND","ND","24,7","67,3","16,2","0"],
    [204,"2014-02-07T22:00:00","ND","19","ND","ND","ND","23,6","72,3","16,2","0"],
    [205,"2014-02-07T23:00:00","ND","3","ND","ND","ND","23,1","74,2","16,3","0"],
    [206,"2014-02-08T00:00:00","ND","8","ND","ND","ND","24,9","65,6","16,2","0"],
    [207,"2014-02-08T01:00:00","ND","15","ND","ND","ND","23,4","73,8","16,2","0"],
    [208,"2014-02-08T02:00:00","ND","12","ND","ND","ND","22,3","79,7","16,2","0"],
    [209,"2014-02-08T03:00:00","ND","11","ND","ND","ND","21,8","80,7","16,3","0"],
    [210,"2014-02-08T04:00:00","ND","13","ND","ND","ND","21,7","80,5","16,2","0"],
    [211,"2014-02-08T05:00:00","ND","17","ND","ND","ND","21,4","81,6","16,3","0"],
    [212,"2014-02-08T06:00:00","ND","17","ND","ND","ND","21,3","81,9","16,3","0"],
    [213,"2014-02-08T07:00:00","ND","22","ND","ND","ND","21,9","79,8","26,6","0"],
    [214,"2014-02-08T08:00:00","ND","19","ND","ND","ND","22,4","78,4","138,4","0"],
    [215,"2014-02-08T09:00:00","ND","25","ND","ND","ND","23,7","72,3","232,5","0"],
    [216,"2014-02-08T10:00:00","ND","15","ND","ND","ND","24,5","69,4","404","0"],
    [217,"2014-02-08T11:00:00","ND","20","ND","ND","ND","26,7","59,3","659,8","0"],
    [218,"2014-02-08T12:00:00","ND","23","ND","ND","ND","28","53,7","743,4","0"],
    [219,"2014-02-08T13:00:00","ND","ND","ND","ND","ND","29,5","48,1","790,1","0"],
    [220,"2014-02-08T14:00:00","ND","32","ND","ND","ND","30,4","44,8","687,9","0"],
    [221,"2014-02-08T15:00:00","ND","21","ND","ND","ND","31,3","42,4","659,8","0"],
    [222,"2014-02-08T16:00:00","ND","23","ND","ND","ND","31,1","41,9","243,1","0"],
    [223,"2014-02-08T17:00:00","ND","14","ND","ND","ND","29,7","44,8","166,9","0"],
    [224,"2014-02-08T18:00:00","ND","8","ND","ND","ND","28,4","48,1","53,5","0"],
    [225,"2014-02-08T19:00:00","ND","13","ND","ND","ND","27,5","50,7","18,9","0"],
    [226,"2014-02-08T20:00:00","ND","21","ND","ND","ND","26,6","57,8","16,2","0"],
    [227,"2014-02-08T21:00:00","ND","9","ND","ND","ND","26,3","58,2","16,2","0"],
    [228,"2014-02-08T22:00:00","ND","6","ND","ND","ND","26,3","56,1","16,2","0"],
    [229,"2014-02-08T23:00:00","ND","12","ND","ND","ND","24,8","66,8","16,2","0"],
    [230,"2014-02-09T00:00:00","ND","7","ND","ND","ND","24,4","70,5","16,3","0"],
    [231,"2014-02-09T01:00:00","ND","7","ND","ND","ND","24,2","69,9","16,3","0"],
    [232,"2014-02-09T02:00:00","ND","8","ND","ND","ND","23,6","73,5","16,2","0"],
    [233,"2014-02-09T03:00:00","ND","13","ND","ND","ND","23,4","78,1","16,2","0"],
    [234,"2014-02-09T04:00:00","ND","12","ND","ND","ND","22,9","81,2","16,2","0"],
    [235,"2014-02-09T05:00:00","ND","8","ND","ND","ND","22,9","80,4","16,2","0"],
    [236,"2014-02-09T06:00:00","ND","13","ND","ND","ND","22,9","80,7","16,2","0"],
    [237,"2014-02-09T07:00:00","ND","14","ND","ND","ND","22,4","84,3","20,9","0"],
    [238,"2014-02-09T08:00:00","ND","16","ND","ND","ND","22,9","82,5","127","0"],
    [239,"2014-02-09T09:00:00","ND","12","ND","ND","ND","24,3","74,4","288,8","0"],
    [240,"2014-02-09T10:00:00","ND","14","ND","ND","ND","25,9","65,2","542,9","0"],
    [241,"2014-02-09T11:00:00","ND","15","ND","ND","ND","27,6","57,5","667,5","0"],
    [242,"2014-02-09T12:00:00","ND","10","ND","ND","ND","28,9","51,6","787,7","0"],
    [243,"2014-02-09T13:00:00","ND","13","ND","ND","ND","29,5","48,9","438","0"],
    [244,"2014-02-09T14:00:00","ND","17","ND","ND","ND","30,3","46,4","588,2","0"],
    [245,"2014-02-09T15:00:00","ND","20","ND","ND","ND","31,1","43","632,2","0"],
    [246,"2014-02-09T16:00:00","ND","20","ND","ND","ND","31,3","40,9","360,9","0"],
    [247,"2014-02-09T17:00:00","ND","2","ND","ND","ND","31","41,5","287,4","0"],
    [248,"2014-02-09T18:00:00","ND","3","ND","ND","ND","29,1","46,8","53,1","0"],
    [249,"2014-02-09T19:00:00","ND","3","ND","ND","ND","28,2","49,5","19,8","0"],
    [250,"2014-02-09T20:00:00","ND","21","ND","ND","ND","27,1","55,4","16,2","0"],
    [251,"2014-02-09T21:00:00","ND","17","ND","ND","ND","26,3","59,7","16,2","0"],
    [252,"2014-02-09T22:00:00","ND","13","ND","ND","ND","25,1","65,9","16,2","0"],
    [253,"2014-02-09T23:00:00","ND","10","ND","ND","ND","24,8","67,3","16,2","0"],
    [254,"2014-02-10T00:00:00","ND","ND","ND","ND","ND","24,2","72","16,2","0"],
    [255,"2014-02-10T01:00:00","ND","9","ND","ND","ND","23,7","73,6","16,2","0"],
    [256,"2014-02-10T02:00:00","ND","6","ND","ND","ND","23","76,4","16,2","0"],
    [257,"2014-02-10T03:00:00","ND","2","ND","ND","ND","22,5","79,1","16,2","0"],
    [258,"2014-02-10T04:00:00","ND","8","ND","ND","ND","22,7","78,5","16,2","0"],
    [259,"2014-02-10T05:00:00","ND","13","ND","ND","ND","22,2","80,3","16,2","0"],
    [260,"2014-02-10T06:00:00","ND","19","ND","ND","ND","22,6","78,5","16,2","0"],
    [261,"2014-02-10T07:00:00","ND","25","ND","ND","ND","22,5","79,7","23,2","0"],
    [262,"2014-02-10T08:00:00","ND","19","ND","ND","ND","22,9","79,3","115,8","0"],
    [263,"2014-02-10T09:00:00","ND","10","ND","ND","ND","24,6","70,7","345,9","0"],
    [264,"2014-02-10T10:00:00","ND","7","ND","ND","ND","26,5","61,4","551,5","0"],
    [265,"2014-02-10T11:00:00","ND","11","ND","ND","ND","28","55,9","702","0"],
    [266,"2014-02-10T12:00:00","ND","9","ND","ND","ND","28,8","52,6","650","0"],
    [267,"2014-02-10T13:00:00","ND","15","ND","ND","ND","29,5","50,1","403,9","0"],
    [268,"2014-02-10T14:00:00","ND","14","ND","ND","ND","30,8","45,2","724","0"],
    [269,"2014-02-10T15:00:00","ND","17","ND","ND","ND","31,8","41,5","492,5","0"],
    [270,"2014-02-10T16:00:00","ND","17","ND","ND","ND","31,4","42,8","337,3","0"],
    [271,"2014-02-10T17:00:00","ND","4","ND","ND","ND","30,9","44,1","318,2","0"],
    [272,"2014-02-10T18:00:00","ND","5","ND","ND","ND","29,5","47,3","77,9","0"],
    [273,"2014-02-10T19:00:00","ND","9","ND","ND","ND","28,3","51,3","19,6","0"],
    [274,"2014-02-10T20:00:00","ND","37","ND","ND","ND","27,1","56,6","16,2","0"],
    [275,"2014-02-10T21:00:00","ND","ND","ND","ND","ND","25,5","64,6","16,2","0"],
    [276,"2014-02-10T22:00:00","ND","ND","ND","ND","ND","25,3","66,5","16,2","0"],
    [277,"2014-02-10T23:00:00","ND","34","ND","ND","ND","24,4","70,6","16,2","0"],
    [278,"2014-02-11T00:00:00","ND","9","ND","ND","ND","25,8","61,4","16,2","0"],
    [279,"2014-02-11T01:00:00","ND","26","ND","ND","ND","23,9","74,4","16,2","0"],
    [280,"2014-02-11T02:00:00","ND","15","ND","ND","ND","23,7","76,5","16,2","0"],
    [281,"2014-02-11T03:00:00","ND","14","ND","ND","ND","23","78,7","16,2","0"],
    [282,"2014-02-11T04:00:00","ND","9","ND","ND","ND","22,5","80,8","16,2","0"],
    [283,"2014-02-11T05:00:00","ND","12","ND","ND","ND","22,3","82","16,2","0"],
    [284,"2014-02-11T06:00:00","ND","20","ND","ND","ND","22,7","81","16,2","0"],
    [285,"2014-02-11T07:00:00","ND","35","ND","ND","ND","21,9","83,3","36,8","0"],
    [286,"2014-02-11T08:00:00","ND","26","ND","ND","ND","22,9","79","146,5","0"],
    [287,"2014-02-11T09:00:00","ND","51","ND","ND","ND","24,6","73,5","211,9","0"],
    [288,"2014-02-11T10:00:00","ND","ND","ND","ND","ND","25,4","69,4","304,7","0"],
    [289,"2014-02-11T11:00:00","ND","30","ND","ND","ND","26,6","63,7","640,7","0"],
    [290,"2014-02-11T12:00:00","ND","25","ND","ND","ND","28,3","56,2","802,5","0"],
    [291,"2014-02-11T13:00:00","ND","21","ND","ND","ND","29,3","52,5","712,1","0"],
    [292,"2014-02-11T14:00:00","ND","25","ND","ND","ND","30,4","47,7","678,9","0"],
    [293,"2014-02-11T15:00:00","ND","25","ND","ND","ND","30,6","47,5","418,8","0"],
    [294,"2014-02-11T16:00:00","ND","24","ND","ND","ND","31","45,3","376,9","0"],
    [295,"2014-02-11T17:00:00","ND","29","ND","ND","ND","30,8","45,4","169,9","0"],
    [296,"2014-02-11T18:00:00","ND","20","ND","ND","ND","30","48,9","56,8","0"],
    [297,"2014-02-11T19:00:00","ND","12","ND","ND","ND","28,7","52,1","18,1","0"],
    [298,"2014-02-11T20:00:00","ND","17","ND","ND","ND","27,4","59,2","16,1","0"],
    [299,"2014-02-11T21:00:00","ND","33","ND","ND","ND","27","60,6","16,1","0"],
    [300,"2014-02-11T22:00:00","ND","10","ND","ND","ND","25,7","66,1","16,2","0"],
    [301,"2014-02-11T23:00:00","ND","13","ND","ND","ND","26,6","61,4","16,1","0"],
    [302,"2014-02-12T00:00:00","ND","4","ND","ND","ND","24,9","69,5","16,1","0"],
    [303,"2014-02-12T01:00:00","ND","2","ND","ND","ND","23,6","75,9","16,2","0"],
    [304,"2014-02-12T02:00:00","ND","ND","ND","ND","ND","22,2","81,6","16,2","0"],
    [305,"2014-02-12T03:00:00","ND","ND","ND","ND","ND","21,6","85,2","16,2","0"],
    [306,"2014-02-12T04:00:00","ND","ND","ND","ND","ND","21,5","85,6","16,2","0"],
    [307,"2014-02-12T05:00:00","ND","ND","ND","ND","ND","21,5","85,9","16,2","0"],
    [308,"2014-02-12T06:00:00","ND","ND","ND","ND","ND","21,4","87,8","16,2","0"],
    [309,"2014-02-12T07:00:00","ND","4","ND","ND","ND","21,7","84,7","25,4","0"],
    [310,"2014-02-12T08:00:00","ND","7","ND","ND","ND","22,8","81,2","168,9","0"],
    [311,"2014-02-12T09:00:00","ND","5","ND","ND","ND","23,7","77,8","339,2","0"],
    [312,"2014-02-12T10:00:00","ND","6","ND","ND","ND","25,7","67,8","572","0"],
    [313,"2014-02-12T11:00:00","ND","7","ND","ND","ND","27,4","58,2","748,4","0"],
    [314,"2014-02-12T12:00:00","ND","4","ND","ND","ND","28,7","52,4","659,7","0"],
    [315,"2014-02-12T13:00:00","ND","6","ND","ND","ND","29,8","48,8","832,5","0"],
    [316,"2014-02-12T14:00:00","ND","12","ND","ND","ND","30,8","44,2","796,5","0"],
    [317,"2014-02-12T15:00:00","ND","18","ND","ND","ND","31,4","41,5","431,3","0"],
    [318,"2014-02-12T16:00:00","ND","13","ND","ND","ND","31,7","40,2","364,1","0"],
    [319,"2014-02-12T17:00:00","ND","6","ND","ND","ND","31,6","40,3","333,4","0"],
    [320,"2014-02-12T18:00:00","ND","2","ND","ND","ND","29,4","47,7","77,9","0"],
    [321,"2014-02-12T19:00:00","ND","2","ND","ND","ND","28,5","50,6","18,6","0"],
    [322,"2014-02-12T20:00:00","ND","8","ND","ND","ND","27,9","54,9","16,1","0"],
    [323,"2014-02-12T21:00:00","ND","7","ND","ND","ND","26,5","61,2","16,2","0"],
    [324,"2014-02-12T22:00:00","ND","3","ND","ND","ND","27,1","56,7","16,1","0"],
    [325,"2014-02-12T23:00:00","ND","2","ND","ND","ND","25,2","68,5","16,1","0"],
    [326,"2014-02-13T00:00:00","ND","4","ND","ND","ND","22,1","87,4","16,2","0"],
    [327,"2014-02-13T01:00:00","ND","3","ND","ND","ND","24,4","73","16,2","0"],
    [328,"2014-02-13T02:00:00","ND","8","ND","ND","ND","24","77,2","16,1","0"],
    [329,"2014-02-13T03:00:00","ND","7","ND","ND","ND","23,5","80,8","16,2","0"],
    [330,"2014-02-13T04:00:00","ND","10","ND","ND","ND","22,4","87,7","16,2","0"],
    [331,"2014-02-13T05:00:00","ND","5","ND","ND","ND","22,2","88,7","16,2","0"],
    [332,"2014-02-13T06:00:00","ND","10","ND","ND","ND","21,6","87,1","16,2","0"],
    [333,"2014-02-13T07:00:00","ND","12","ND","ND","ND","21,5","87,2","29,6","0"],
    [334,"2014-02-13T08:00:00","ND","12","ND","ND","ND","21,9","87,4","100,4","0"],
    [335,"2014-02-13T09:00:00","ND","9","ND","ND","ND","23,2","81,9","341,8","0"],
    [336,"2014-02-13T10:00:00","ND","6","ND","ND","ND","24,6","75,1","309,6","0"],
    [337,"2014-02-13T11:00:00","ND","7","ND","ND","ND","26,3","68,5","683","0"],
    [338,"2014-02-13T12:00:00","ND","6","ND","ND","ND","27,7","62,3","773,3","0"],
    [339,"2014-02-13T13:00:00","ND","7","ND","ND","ND","29,1","55,4","786,3","0"],
    [340,"2014-02-13T14:00:00","ND","15","ND","ND","ND","29,4","51,2","544,9","0"],
    [341,"2014-02-13T15:00:00","ND","9","ND","ND","ND","29,5","49,6","350,8","0"],
    [342,"2014-02-13T16:00:00","ND","3","ND","ND","ND","30,1","47,4","337,7","0"],
    [343,"2014-02-13T17:00:00","ND","9","ND","ND","ND","27,1","61,6","135,2","0"],
    [344,"2014-02-13T18:00:00","ND","17","ND","ND","ND","24,6","71,6","20,1","0"],
    [345,"2014-02-13T19:00:00","ND","12","ND","ND","ND","23,7","77,1","16,5","0"],
    [346,"2014-02-13T20:00:00","ND","15","ND","ND","ND","23,7","77,5","16,2","0"],
    [347,"2014-02-13T21:00:00","ND","3","ND","ND","ND","22,8","81,4","16,2","0"],
    [348,"2014-02-13T22:00:00","ND","7","ND","ND","ND","22,6","83,4","16,2","0"],
    [349,"2014-02-13T23:00:00","ND","5","ND","ND","ND","22,1","87,3","16,2","0"],
    [350,"2014-02-14T00:00:00","ND","18","ND","ND","ND","22,7","80,4","16,2","0"],
    [351,"2014-02-14T01:00:00","ND","4","ND","ND","ND","21,8","87,6","16,2","0"],
    [352,"2014-02-14T02:00:00","ND","13","ND","ND","ND","21,9","87,2","16,2","0"],
    [353,"2014-02-14T03:00:00","ND","20","ND","ND","ND","21,6","89,3","16,2","0"],
    [354,"2014-02-14T04:00:00","ND","2","ND","ND","ND","21,3","87,9","16,2","0"],
    [355,"2014-02-14T05:00:00","ND","6","ND","ND","ND","21,4","87,5","16,2","0"],
    [356,"2014-02-14T06:00:00","ND","17","ND","ND","ND","21,7","86,5","16,1","0"],
    [357,"2014-02-14T07:00:00","ND","14","ND","ND","ND","21,3","89,1","22,8","0"],
    [358,"2014-02-14T08:00:00","ND","25","ND","ND","ND","21,9","86,1","69,2","0"],
    [359,"2014-02-14T09:00:00","ND","16","ND","ND","ND","22,3","84,5","119,5","0"],
    [360,"2014-02-14T10:00:00","ND","17","ND","ND","ND","23,2","80,8","379,8","0"],
    [361,"2014-02-14T11:00:00","ND","12","ND","ND","ND","24,9","70,7","383,9","0"],
    [362,"2014-02-14T12:00:00","ND","19","ND","ND","ND","26,1","65,2","662,9","0"],
    [363,"2014-02-14T13:00:00","ND","18","ND","ND","ND","27,8","57,1","699,4","0"],
    [364,"2014-02-14T14:00:00","ND","16","ND","ND","ND","29,2","50,9","759,7","0"],
    [365,"2014-02-14T15:00:00","ND","17","ND","ND","ND","30","48,8","539,7","0"],
    [366,"2014-02-14T16:00:00","ND","12","ND","ND","ND","29,3","49,7","193","0"],
    [367,"2014-02-14T17:00:00","ND","22","ND","ND","ND","28,1","58","147,6","0"],
    [368,"2014-02-14T18:00:00","ND","10","ND","ND","ND","27,7","58,7","80,7","0"],
    [369,"2014-02-14T19:00:00","ND","35","ND","ND","ND","26,5","65,4","18,5","0"],
    [370,"2014-02-14T20:00:00","ND","25","ND","ND","ND","25,5","69,4","16,2","0"],
    [371,"2014-02-14T21:00:00","ND","27","ND","ND","ND","24,6","73,8","16,2","0"],
    [372,"2014-02-14T22:00:00","ND","24","ND","ND","ND","23,8","76,9","16,2","0"],
    [373,"2014-02-14T23:00:00","ND","25","ND","ND","ND","23,3","78,9","16,2","0"],
    [374,"2014-02-15T00:00:00","ND","ND","ND","ND","ND","24,5","69,5","16","0"],
    [375,"2014-02-15T01:00:00","ND","5","ND","ND","ND","22,7","78,9","16,2","0"],
    [376,"2014-02-15T02:00:00","ND","11","ND","ND","ND","22,5","79,3","16,2","0"],
    [377,"2014-02-15T03:00:00","ND","6","ND","ND","ND","22","82,3","16,1","0"],
    [378,"2014-02-15T04:00:00","ND","10","ND","ND","ND","21,4","85,6","16,2","0"],
    [379,"2014-02-15T05:00:00","ND","8","ND","ND","ND","21,7","84,5","16,2","0"],
    [380,"2014-02-15T06:00:00","ND","23","ND","ND","ND","21,7","83,8","16,2","0"],
    [381,"2014-02-15T07:00:00","ND","41","ND","ND","ND","21,3","85,9","29,7","0"],
    [382,"2014-02-15T08:00:00","ND","23","ND","ND","ND","22","81,5","159,4","0"],
    [383,"2014-02-15T09:00:00","ND","26","ND","ND","ND","23,7","75","357,9","0"],
    [384,"2014-02-15T10:00:00","ND","ND","ND","ND","ND","25,4","66,9","436","0"],
    [385,"2014-02-15T11:00:00","ND","18","ND","ND","ND","27","60,8","566,8","0"],
    [386,"2014-02-15T12:00:00","ND","9","ND","ND","ND","28,2","55,6","771,7","0"],
    [387,"2014-02-15T13:00:00","ND","15","ND","ND","ND","29,4","50,3","777,4","0"],
    [388,"2014-02-15T14:00:00","ND","15","ND","ND","ND","32,8","40,3","688,5","0"],
    [389,"2014-02-15T15:00:00","ND","ND","ND","ND","ND","33,7","37,7","505","0"],
    [390,"2014-02-15T16:00:00","ND","ND","ND","ND","ND","33,2","38,5","208,9","0"],
    [391,"2014-02-15T17:00:00","ND","ND","ND","ND","ND","32,5","38","273,6","0"],
    [392,"2014-02-15T18:00:00","ND","ND","ND","ND","ND","31,7","39,1","101,5","0"],
    [393,"2014-02-15T19:00:00","ND","ND","ND","ND","ND","29","47","17,8","0"],
    [394,"2014-02-15T20:00:00","ND","ND","ND","ND","ND","27,8","52,2","16","0"],
    [395,"2014-02-15T21:00:00","ND","ND","ND","ND","ND","26","63,8","16","0"],
    [396,"2014-02-15T22:00:00","ND","ND","ND","ND","ND","24,7","70,3","16","0"],
    [397,"2014-02-15T23:00:00","ND","ND","ND","ND","ND","24","72,4","16","0"],
    [398,"2014-02-16T00:00:00","ND","7","ND","ND","ND","22,8","82,1","16","0"],
    [399,"2014-02-16T01:00:00","ND","ND","ND","ND","ND","23,9","73,5","16","0"],
    [400,"2014-02-16T02:00:00","ND","ND","ND","ND","ND","23,1","76,5","16","0"],
    [401,"2014-02-16T03:00:00","ND","ND","ND","ND","ND","22,6","79","16","0"],
    [402,"2014-02-16T04:00:00","ND","ND","ND","ND","ND","22,9","78,3","16","0"],
    [403,"2014-02-16T05:00:00","ND","ND","ND","ND","ND","22,8","79,3","16","0"],
    [404,"2014-02-16T06:00:00","ND","ND","ND","ND","ND","22,5","81,9","16","0"],
    [405,"2014-02-16T07:00:00","ND","ND","ND","ND","ND","22,3","83,9","22,1","0"],
    [406,"2014-02-16T08:00:00","ND","ND","ND","ND","ND","23,4","79,7","102,5","0"],
    [407,"2014-02-16T09:00:00","ND","ND","ND","ND","ND","26,5","64,9","369,6","0"],
    [408,"2014-02-16T10:00:00","ND","ND","ND","ND","ND","29,5","53,1","513,2","0"],
    [409,"2014-02-16T11:00:00","ND","ND","ND","ND","ND","30,1","50,4","453,5","0"],
    [410,"2014-02-16T12:00:00","ND","ND","ND","ND","ND","32,3","43,1","765,3","0"],
    [411,"2014-02-16T13:00:00","ND","ND","ND","ND","ND","31,3","46","717","0"],
    [412,"2014-02-16T14:00:00","ND","ND","ND","ND","ND","30,6","46,7","759,6","0"],
    [413,"2014-02-16T15:00:00","ND","2","ND","ND","ND","31,5","43","529,5","0"],
    [414,"2014-02-16T16:00:00","ND","5","ND","ND","ND","30,7","45,9","116,1","0"],
    [415,"2014-02-16T17:00:00","ND","5","ND","ND","ND","28,3","56,3","90,8","0"],
    [416,"2014-02-16T18:00:00","ND","15","ND","ND","ND","26","71","23,7","0"],
    [417,"2014-02-16T19:00:00","ND","8","ND","ND","ND","24,8","71,6","16,9","0"],
    [418,"2014-02-16T20:00:00","ND","13","ND","ND","ND","23,9","74,4","16","0"],
    [419,"2014-02-16T21:00:00","ND","12","ND","ND","ND","23,9","73,7","16","0"],
    [420,"2014-02-16T22:00:00","ND","13","ND","ND","ND","23,7","75,1","16","0"],
    [421,"2014-02-16T23:00:00","ND","9","ND","ND","ND","23,3","78","16","0"],
    [422,"2014-02-17T00:00:00","ND","ND","ND","ND","ND","22,6","78,1","16","0"],
    [423,"2014-02-17T01:00:00","ND","7","ND","ND","ND","22,9","81,3","16","0"],
    [424,"2014-02-17T02:00:00","ND","10","ND","ND","ND","22,4","83,8","16","0"],
    [425,"2014-02-17T03:00:00","ND","15","ND","ND","ND","22,5","82,8","16","0"],
    [426,"2014-02-17T04:00:00","ND","13","ND","ND","ND","22,5","83,2","16","0"],
    [427,"2014-02-17T05:00:00","ND","14","ND","ND","ND","22,7","82,1","16","0"],
    [428,"2014-02-17T06:00:00","ND","26","ND","ND","ND","22,8","82,4","16","0"],
    [429,"2014-02-17T07:00:00","ND","22","ND","ND","ND","22,5","85,1","21,7","0"],
    [430,"2014-02-17T08:00:00","ND","11","ND","ND","ND","22,6","82,5","65,1","0"],
    [431,"2014-02-17T09:00:00","ND","7","ND","ND","ND","23,7","73,6","102","0"],
    [432,"2014-02-17T10:00:00","ND","12","ND","ND","ND","24,6","71,2","421,2","0"],
    [433,"2014-02-17T11:00:00","ND","11","ND","ND","ND","26,9","61,1","695,3","0"],
    [434,"2014-02-17T12:00:00","ND","11","ND","ND","ND","30,9","47","755,1","0"],
    [435,"2014-02-17T13:00:00","ND","ND","ND","ND","ND","32,4","41,6","612,5","0"],
    [436,"2014-02-17T14:00:00","ND","ND","ND","ND","ND","33","39,8","399,9","0"],
    [437,"2014-02-17T15:00:00","ND","ND","ND","ND","ND","32,8","40,4","436,9","0"],
    [438,"2014-02-17T16:00:00","ND","ND","ND","ND","ND","32,6","38,7","434,1","0"],
    [439,"2014-02-17T17:00:00","ND","ND","ND","ND","ND","32,8","37,5","233,6","0"],
    [440,"2014-02-17T18:00:00","ND","ND","ND","ND","ND","30,6","49,2","88,1","0"],
    [441,"2014-02-17T19:00:00","ND","ND","ND","ND","ND","28,1","57","18,9","0"],
    [442,"2014-02-17T20:00:00","ND","ND","ND","ND","ND","26,2","63,8","16","0"],
    [443,"2014-02-17T21:00:00","ND","ND","ND","ND","ND","24,8","69,4","16","0"],
    [444,"2014-02-17T22:00:00","ND","ND","ND","ND","ND","23,8","74,2","16","0"],
    [445,"2014-02-17T23:00:00","ND","ND","ND","ND","ND","23","77","16","0"],
    [446,"2014-02-18T00:00:00","ND","27","ND","ND","ND","22,2","87,3","16","0"],
    [447,"2014-02-18T01:00:00","ND","ND","ND","ND","ND","22,3","79,3","16","0"],
    [448,"2014-02-18T02:00:00","ND","ND","ND","ND","ND","22,2","79,5","16","0"],
    [449,"2014-02-18T03:00:00","ND","ND","ND","ND","ND","22,2","78,6","16","0"],
    [450,"2014-02-18T04:00:00","ND","ND","ND","ND","ND","21,6","81,3","16","0"],
    [451,"2014-02-18T05:00:00","ND","ND","ND","ND","ND","21,4","81,1","16","0"],
    [452,"2014-02-18T06:00:00","ND","ND","ND","ND","ND","21,7","79,8","16","0"],
    [453,"2014-02-18T07:00:00","ND","ND","ND","ND","ND","21,9","78,9","36,4","0"],
    [454,"2014-02-18T08:00:00","ND","ND","ND","ND","ND","23,6","73,4","154,2","0"],
    [455,"2014-02-18T09:00:00","ND","ND","ND","ND","ND","25,8","65,4","330,2","0"],
    [456,"2014-02-18T10:00:00","ND","ND","ND","ND","ND","27,9","57,6","465","0"],
    [457,"2014-02-18T11:00:00","ND","ND","ND","ND","ND","30,2","49","750,1","0"],
    [458,"2014-02-18T12:00:00","ND","ND","ND","ND","ND","32,4","41,5","702,2","0"],
    [459,"2014-02-18T13:00:00","ND","ND","ND","ND","ND","29,3","49,9","661,4","0"],
    [460,"2014-02-18T14:00:00","ND","12","ND","ND","ND","30,1","47,8","310,8","0"],
    [461,"2014-02-18T15:00:00","ND","12","ND","ND","ND","28,3","54,1","81,4","0"],
    [462,"2014-02-18T16:00:00","ND","7","ND","ND","ND","23,5","75,1","34","0"],
    [463,"2014-02-18T17:00:00","ND","14","ND","ND","ND","24,4","76,5","43,1","0"],
    [464,"2014-02-18T18:00:00","ND","23","ND","ND","ND","24,5","79,3","64,6","0"],
    [465,"2014-02-18T19:00:00","ND","32","ND","ND","ND","23,7","80,3","18,6","0"],
    [466,"2014-02-18T20:00:00","ND","23","ND","ND","ND","24","78,8","16","0"],
    [467,"2014-02-18T21:00:00","ND","35","ND","ND","ND","23,9","81,6","16","0"],
    [468,"2014-02-18T22:00:00","ND","37","ND","ND","ND","23,4","83,2","16","0"],
    [469,"2014-02-18T23:00:00","ND","22","ND","ND","ND","23,3","81,9","16","0"],
    [470,"2014-02-19T00:00:00","ND","ND","ND","ND","ND","24","76,9","16","0"],
    [471,"2014-02-19T01:00:00","ND","33","ND","ND","ND","22,2","87,5","16","0"],
    [472,"2014-02-19T02:00:00","ND","27","ND","ND","ND","22,5","85,2","16","0"],
    [473,"2014-02-19T03:00:00","ND","14","ND","ND","ND","22,5","85,3","16","0"],
    [474,"2014-02-19T04:00:00","ND","12","ND","ND","ND","22,1","85,7","16","0"],
    [475,"2014-02-19T05:00:00","ND","12","ND","ND","ND","21,9","88,9","16","0"],
    [476,"2014-02-19T06:00:00","ND","10","ND","ND","ND","21,9","88,4","16","0"],
    [477,"2014-02-19T07:00:00","ND","16","ND","ND","ND","22,2","84,9","25,9","0"],
    [478,"2014-02-19T08:00:00","ND","19","ND","ND","ND","22,3","84,7","53,9","0"],
    [479,"2014-02-19T09:00:00","ND","12","ND","ND","ND","23,2","78,6","196,7","0"],
    [480,"2014-02-19T10:00:00","ND","19","ND","ND","ND","24,6","71,9","448,4","0"],
    [481,"2014-02-19T11:00:00","ND","22","ND","ND","ND","26","67","467,2","0"],
    [482,"2014-02-19T12:00:00","ND","22","ND","ND","ND","29,8","51,8","670,8","0"],
    [483,"2014-02-19T13:00:00","ND","ND","ND","ND","ND","32,5","41,7","781,3","0"],
    [484,"2014-02-19T14:00:00","ND","ND","ND","ND","ND","33,6","37,8","601,7","0"],
    [485,"2014-02-19T15:00:00","ND","ND","ND","ND","ND","32,3","40,3","341","0"],
    [486,"2014-02-19T16:00:00","ND","ND","ND","ND","ND","33,8","36,2","444,7","0"],
    [487,"2014-02-19T17:00:00","ND","ND","ND","ND","ND","33,1","37,7","328,9","0"],
    [488,"2014-02-19T18:00:00","ND","ND","ND","ND","ND","30,7","43,6","95,8","0"],
    [489,"2014-02-19T19:00:00","ND","ND","ND","ND","ND","28","54","17,7","0"],
    [490,"2014-02-19T20:00:00","ND","ND","ND","ND","ND","26,6","58,5","16","0"],
    [491,"2014-02-19T21:00:00","ND","ND","ND","ND","ND","25,9","62,3","16","0"],
    [492,"2014-02-19T22:00:00","ND","ND","ND","ND","ND","25","70,4","16","0"],
    [493,"2014-02-19T23:00:00","ND","ND","ND","ND","ND","24,5","74,2","16","0"],
    [494,"2014-02-20T00:00:00","ND","5","ND","ND","ND","23,7","73,7","16","0"],
    [495,"2014-02-20T01:00:00","ND","ND","ND","ND","ND","23,7","79","16","0"],
    [496,"2014-02-20T02:00:00","ND","ND","ND","ND","ND","23,3","81,5","16","0"],
    [497,"2014-02-20T03:00:00","ND","ND","ND","ND","ND","23,1","82,4","16","0"],
    [498,"2014-02-20T04:00:00","ND","ND","ND","ND","ND","23","82,8","16","0"],
    [499,"2014-02-20T05:00:00","ND","ND","ND","ND","ND","22,6","85,2","16","0"],
    [500,"2014-02-20T06:00:00","ND","ND","ND","ND","ND","22,2","87","16","0"],
    [501,"2014-02-20T07:00:00","ND","ND","ND","ND","ND","22,3","87,2","29,4","0"],
    [502,"2014-02-20T08:00:00","ND","ND","ND","ND","ND","23,6","81,3","186,8","0"],
    [503,"2014-02-20T09:00:00","ND","ND","ND","ND","ND","25,9","68,5","158,3","0"],
    [504,"2014-02-20T10:00:00","ND","ND","ND","ND","ND","26,2","67,7","264","0"],
    [505,"2014-02-20T11:00:00","ND","ND","ND","ND","ND","27,9","60,9","396,1","0"],
    [506,"2014-02-20T12:00:00","ND","ND","ND","ND","ND","29,3","54,6","443,4","0"],
    [507,"2014-02-20T13:00:00","ND","ND","ND","ND","ND","30,3","50,8","531,3","0"],
    [508,"2014-02-20T14:00:00","ND","ND","ND","ND","ND","30,4","48,8","542,5","0"],
    [509,"2014-02-20T15:00:00","ND","ND","ND","ND","ND","28,5","54,9","359","0"],
    [510,"2014-02-20T16:00:00","ND","2","ND","ND","ND","29,1","53,3","298,8","0"],
    [511,"2014-02-20T17:00:00","ND","5","ND","ND","ND","29,1","52","163,6","0"],
    [512,"2014-02-20T18:00:00","ND","2","ND","ND","ND","28,5","50","81,3","0"],
    [513,"2014-02-20T19:00:00","ND","ND","ND","ND","ND","27,3","54","19,5","0"],
    [514,"2014-02-20T20:00:00","ND","13","ND","ND","ND","26,5","58,5","16","0"],
    [515,"2014-02-20T21:00:00","ND","12","ND","ND","ND","24,5","71,1","16","0"],
    [516,"2014-02-20T22:00:00","ND","14","ND","ND","ND","24,2","71,6","16","0"],
    [517,"2014-02-20T23:00:00","ND","8","ND","ND","ND","23,7","74,4","16","0"],
    [518,"2014-02-21T00:00:00","ND","ND","ND","ND","ND","21,3","84,4","16","0"],
    [519,"2014-02-21T01:00:00","ND","2","ND","ND","ND","23,4","76","16","0"],
    [520,"2014-02-21T02:00:00","ND","3","ND","ND","ND","23,2","77,4","16","0"],
    [521,"2014-02-21T03:00:00","ND","3","ND","ND","ND","23,4","76,4","16","0"],
    [522,"2014-02-21T04:00:00","ND","3","ND","ND","ND","23","79,4","16","0"],
    [523,"2014-02-21T05:00:00","ND","3","ND","ND","ND","22,8","81,9","16","0"],
    [524,"2014-02-21T06:00:00","ND","4","ND","ND","ND","22,8","82,8","16","0"],
    [525,"2014-02-21T07:00:00","ND","15","ND","ND","ND","22,4","85,5","20,8","0"],
    [526,"2014-02-21T08:00:00","ND","14","ND","ND","ND","22,5","84,9","45,9","0"],
    [527,"2014-02-21T09:00:00","ND","9","ND","ND","ND","22,8","85,5","75,4","0"],
    [528,"2014-02-21T10:00:00","ND","10","ND","ND","ND","22,8","88","193,9","0"],
    [529,"2014-02-21T11:00:00","ND","12","ND","ND","ND","24","80,9","425,3","0"],
    [530,"2014-02-21T12:00:00","ND","12","ND","ND","ND","26,3","68,8","687,8","0"],
    [531,"2014-02-21T13:00:00","ND","ND","ND","ND","ND","30,4","52,9","549,8","0"],
    [532,"2014-02-21T14:00:00","ND","ND","ND","ND","ND","30,6","49,1","475,9","0"],
    [533,"2014-02-21T15:00:00","ND","ND","ND","ND","ND","30,7","46,4","434,8","0"],
    [534,"2014-02-21T16:00:00","ND","ND","ND","ND","ND","30","48,5","259,4","0"],
    [535,"2014-02-21T17:00:00","ND","ND","ND","ND","ND","28,4","54,3","76,4","0"],
    [536,"2014-02-21T18:00:00","ND","ND","ND","ND","ND","23,6","68,4","22,2","0"],
    [537,"2014-02-21T19:00:00","ND","ND","ND","ND","ND","21,9","79,7","16,9","0"],
    [538,"2014-02-21T20:00:00","ND","ND","ND","ND","ND","22","78,5","16","0"],
    [539,"2014-02-21T21:00:00","ND","ND","ND","ND","ND","22,2","79,3","16","0"],
    [540,"2014-02-21T22:00:00","ND","ND","ND","ND","ND","21,6","83,1","16","0"],
    [541,"2014-02-21T23:00:00","ND","ND","ND","ND","ND","21,4","84,3","16","0"],
    [542,"2014-02-22T00:00:00","ND","4","ND","ND","ND","23,3","79","16","0"],
    [543,"2014-02-22T01:00:00","ND","ND","ND","ND","ND","21,3","83,8","16","0"],
    [544,"2014-02-22T02:00:00","ND","ND","ND","ND","ND","21,4","83,3","16","0"],
    [545,"2014-02-22T03:00:00","ND","ND","ND","ND","ND","21,2","83","16","0"],
    [546,"2014-02-22T04:00:00","ND","ND","ND","ND","ND","21,3","84,4","16","0"],
    [547,"2014-02-22T05:00:00","ND","ND","ND","ND","ND","21,2","86,1","16","0"],
    [548,"2014-02-22T06:00:00","ND","ND","ND","ND","ND","21,2","87,5","16","0"],
    [549,"2014-02-22T07:00:00","ND","ND","ND","ND","ND","21","88,9","24,3","0"],
    [550,"2014-02-22T08:00:00","ND","ND","ND","ND","ND","21,5","89,8","97,5","0"],
    [551,"2014-02-22T09:00:00","ND","ND","ND","ND","ND","24","77,6","333,4","0"],
    [552,"2014-02-22T10:00:00","ND","ND","ND","ND","ND","28","58,2","544,4","0"],
    [553,"2014-02-22T11:00:00","ND","ND","ND","ND","ND","30,2","50,6","656,3","0"],
    [554,"2014-02-22T12:00:00","ND","ND","ND","ND","ND","30,8","47,8","639,5","0"],
    [555,"2014-02-22T13:00:00","ND","ND","ND","ND","ND","31","45,6","795,1","0"],
    [556,"2014-02-22T14:00:00","ND","ND","ND","ND","ND","29,7","49,7","507,5","0"],
    [557,"2014-02-22T15:00:00","ND","8","ND","ND","ND","30,2","48,5","390,2","0"],
    [558,"2014-02-22T16:00:00","ND","7","ND","ND","ND","29,7","48,1","132,5","0"],
    [559,"2014-02-22T17:00:00","ND","3","ND","ND","ND","29,5","48,1","141,6","0"],
    [560,"2014-02-22T18:00:00","ND","6","ND","ND","ND","28,4","54,3","73,5","0"],
    [561,"2014-02-22T19:00:00","ND","14","ND","ND","ND","26,9","62,5","19,5","0"],
    [562,"2014-02-22T20:00:00","ND","11","ND","ND","ND","26,3","62","16","0"],
    [563,"2014-02-22T21:00:00","ND","9","ND","ND","ND","24,9","72,1","16","0"],
    [564,"2014-02-22T22:00:00","ND","6","ND","ND","ND","23,8","77,3","16","0"],
    [565,"2014-02-22T23:00:00","ND","6","ND","ND","ND","23,4","79,6","16","0"],
    [566,"2014-02-23T00:00:00","ND","ND","ND","ND","ND","23,5","77","16","0"],
    [567,"2014-02-23T01:00:00","ND","ND","ND","ND","ND","23,4","77,6","16","0"],
    [568,"2014-02-23T02:00:00","ND","ND","ND","ND","ND","23,3","79,1","16","0"],
    [569,"2014-02-23T03:00:00","ND","3","ND","ND","ND","22,1","87,7","16","0"],
    [570,"2014-02-23T04:00:00","ND","2","ND","ND","ND","21,9","88,3","16","0"],
    [571,"2014-02-23T05:00:00","ND","6","ND","ND","ND","22","87,9","16","0"],
    [572,"2014-02-23T06:00:00","ND","6","ND","ND","ND","21,9","88,7","16","0"],
    [573,"2014-02-23T07:00:00","ND","10","ND","ND","ND","22,1","87","22,8","0"],
    [574,"2014-02-23T08:00:00","ND","12","ND","ND","ND","22,8","83,5","61,3","0"],
    [575,"2014-02-23T09:00:00","ND","18","ND","ND","ND","23,3","83,1","120,9","0"],
    [576,"2014-02-23T10:00:00","ND","4","ND","ND","ND","24,8","73,8","444","0"],
    [577,"2014-02-23T11:00:00","ND","4","ND","ND","ND","26,7","64,5","688,7","0"],
    [578,"2014-02-23T12:00:00","ND","ND","ND","ND","ND","31,6","46","742,1","0"],
    [579,"2014-02-23T13:00:00","ND","ND","ND","ND","ND","32,7","41,2","677,6","0"],
    [580,"2014-02-23T14:00:00","ND","ND","ND","ND","ND","34,2","37,3","602,3","0"],
    [581,"2014-02-23T15:00:00","ND","ND","ND","ND","ND","32,8","39,8","399","0"],
    [582,"2014-02-23T16:00:00","ND","ND","ND","ND","ND","32,6","39,3","198,3","0"],
    [583,"2014-02-23T17:00:00","ND","ND","ND","ND","ND","31,6","40,4","142,3","0"],
    [584,"2014-02-23T18:00:00","ND","ND","ND","ND","ND","30,5","43,2","73,9","0"],
    [585,"2014-02-23T19:00:00","ND","ND","ND","ND","ND","28,7","51,9","17,9","0"],
    [586,"2014-02-23T20:00:00","ND","ND","ND","ND","ND","25,4","68,8","16","0"],
    [587,"2014-02-23T21:00:00","ND","ND","ND","ND","ND","24,5","72,2","16","0"],
    [588,"2014-02-23T22:00:00","ND","ND","ND","ND","ND","23,8","77,1","16","0"],
    [589,"2014-02-23T23:00:00","ND","ND","ND","ND","ND","23,3","79,3","16","0"],
    [590,"2014-02-24T00:00:00","ND","6","ND","ND","ND","22,4","87,8","16","0"],
    [591,"2014-02-24T01:00:00","ND","ND","ND","ND","ND","23,2","80,3","16","0"],
    [592,"2014-02-24T02:00:00","ND","ND","ND","ND","ND","22,5","84","16","0"],
    [593,"2014-02-24T03:00:00","ND","ND","ND","ND","ND","22,5","84,8","16","0"],
    [594,"2014-02-24T04:00:00","ND","ND","ND","ND","ND","22,5","84,9","16","0"],
    [595,"2014-02-24T05:00:00","ND","ND","ND","ND","ND","22,2","85,4","16","0"],
    [596,"2014-02-24T06:00:00","ND","ND","ND","ND","ND","22","86,6","16","0"],
    [597,"2014-02-24T07:00:00","ND","ND","ND","ND","ND","22","86,8","23","0"],
    [598,"2014-02-24T08:00:00","ND","ND","ND","ND","ND","23,1","82,6","165,5","0"],
    [599,"2014-02-24T09:00:00","ND","ND","ND","ND","ND","26,4","66,4","353,4","0"],
    [600,"2014-02-24T10:00:00","ND","ND","ND","ND","ND","29,5","54,4","585","0"],
    [601,"2014-02-24T11:00:00","ND","ND","ND","ND","ND","30,9","48,6","683,3","0"],
    [602,"2014-02-24T12:00:00","ND","ND","ND","ND","ND","31,2","46,9","594,7","0"],
    [603,"2014-02-24T13:00:00","ND","1","ND","ND","ND","29,6","52","639,5","0"],
    [604,"2014-02-24T14:00:00","ND","4","ND","ND","ND","30,2","49,8","601,4","0"],
    [605,"2014-02-24T15:00:00","ND","14","ND","ND","ND","30,8","47,9","359,7","0"],
    [606,"2014-02-24T16:00:00","ND","12","ND","ND","ND","29,6","51,8","118,4","0"],
    [607,"2014-02-24T17:00:00","ND","7","ND","ND","ND","27","61,7","196,5","0"],
    [608,"2014-02-24T18:00:00","ND","1","ND","ND","ND","28,5","54,5","86,8","0"],
    [609,"2014-02-24T19:00:00","ND","ND","ND","ND","ND","27,7","54,2","17,6","0"],
    [610,"2014-02-24T20:00:00","ND","16","ND","ND","ND","26,6","62,4","16","0"],
    [611,"2014-02-24T21:00:00","ND","9","ND","ND","ND","24,9","71,9","16","0"],
    [612,"2014-02-24T22:00:00","ND","11","ND","ND","ND","24,5","73,9","16","0"],
    [613,"2014-02-24T23:00:00","ND","7","ND","ND","ND","23,7","79,2","16","0"],
    [614,"2014-02-25T00:00:00","ND","ND","ND","ND","ND","23,7","74,3","16","0"],
    [615,"2014-02-25T01:00:00","ND","4","ND","ND","ND","22,3","88,5","16","0"],
    [616,"2014-02-25T02:00:00","ND","6","ND","ND","ND","21,9","91,7","16","0"],
    [617,"2014-02-25T03:00:00","ND","6","ND","ND","ND","22,1","88,8","16","0"],
    [618,"2014-02-25T04:00:00","ND","2","ND","ND","ND","22,3","87","16","0"],
    [619,"2014-02-25T05:00:00","ND","5","ND","ND","ND","22,4","88","16","0"],
    [620,"2014-02-25T06:00:00","ND","24","ND","ND","ND","22","90,4","16","0"],
    [621,"2014-02-25T07:00:00","ND","17","ND","ND","ND","22","90,5","32,4","0"],
    [622,"2014-02-25T08:00:00","ND","21","ND","ND","ND","22,9","87,9","167,9","0"],
    [623,"2014-02-25T09:00:00","ND","27","ND","ND","ND","23,6","83,7","192,5","0"],
    [624,"2014-02-25T10:00:00","ND","15","ND","ND","ND","25,1","76","427,2","0"],
    [625,"2014-02-25T11:00:00","ND","15","ND","ND","ND","27","67,4","522,2","0"],
    [626,"2014-02-25T12:00:00","ND","ND","ND","ND","ND","30,1","54,9","503,5","0"],
    [627,"2014-02-25T13:00:00","ND","ND","ND","ND","ND","31,2","48,5","444,5","0"],
    [628,"2014-02-25T14:00:00","ND","ND","ND","ND","ND","31","49,9","374,6","0"],
    [629,"2014-02-25T15:00:00","ND","ND","ND","ND","ND","30,8","47,6","179,7","0"],
    [630,"2014-02-25T16:00:00","ND","ND","ND","ND","ND","29,6","47,9","251,8","0"],
    [631,"2014-02-25T17:00:00","ND","ND","ND","ND","ND","31,4","46","282,8","0"],
    [632,"2014-02-25T18:00:00","ND","ND","ND","ND","ND","29,3","57,8","73,2","0"],
    [633,"2014-02-25T19:00:00","ND","ND","ND","ND","ND","27,6","59","18,2","0"],
    [634,"2014-02-25T20:00:00","ND","ND","ND","ND","ND","26,8","56,1","16","0"],
    [635,"2014-02-25T21:00:00","ND","ND","ND","ND","ND","26,5","56,7","16","0"],
    [636,"2014-02-25T22:00:00","ND","ND","ND","ND","ND","25,9","62","16","0"],
    [637,"2014-02-25T23:00:00","ND","ND","ND","ND","ND","24,5","72,7","16","0"],
    [638,"2014-02-26T00:00:00","ND","10","ND","ND","ND","25","72,2","16","0"],
    [639,"2014-02-26T01:00:00","ND","ND","ND","ND","ND","23,7","73,8","16","0"],
    [640,"2014-02-26T02:00:00","ND","ND","ND","ND","ND","23,9","73,1","16","0"],
    [641,"2014-02-26T03:00:00","ND","ND","ND","ND","ND","23,9","76,2","16","0"],
    [642,"2014-02-26T04:00:00","ND","ND","ND","ND","ND","23,6","77,5","16","0"],
    [643,"2014-02-26T05:00:00","ND","ND","ND","ND","ND","23,1","81,8","16","0"],
    [644,"2014-02-26T06:00:00","ND","ND","ND","ND","ND","22,4","85,3","16","0"],
    [645,"2014-02-26T07:00:00","ND","ND","ND","ND","ND","22","85,4","31,8","0"],
    [646,"2014-02-26T08:00:00","ND","ND","ND","ND","ND","22,7","82,8","74","0"],
    [647,"2014-02-26T09:00:00","ND","ND","ND","ND","ND","24,3","78,6","148,9","0"],
    [648,"2014-02-26T10:00:00","ND","ND","ND","ND","ND","26,3","68,1","454,7","0"],
    [649,"2014-02-26T11:00:00","ND","ND","ND","ND","ND","28,7","58,1","498,1","0"],
    [650,"2014-02-26T12:00:00","ND","ND","ND","ND","ND","30,7","49,6","776,2","0"],
    [651,"2014-02-26T13:00:00","ND","ND","ND","ND","ND","31,5","45,9","709","0"],
    [652,"2014-02-26T14:00:00","ND","5","ND","ND","ND","30,1","49,4","772,7","0"],
    [653,"2014-02-26T15:00:00","ND","7","ND","ND","ND","30,9","45,8","549,1","0"],
    [654,"2014-02-26T16:00:00","ND","7","ND","ND","ND","30,8","47,2","405,4","0"],
    [655,"2014-02-26T17:00:00","ND","18","ND","ND","ND","30,5","49,2","109,9","0"],
    [656,"2014-02-26T18:00:00","ND","8","ND","ND","ND","29,6","49,4","92,7","0"],
    [657,"2014-02-26T19:00:00","ND","7","ND","ND","ND","28,1","54","19,4","0"],
    [658,"2014-02-26T20:00:00","ND","5","ND","ND","ND","27,6","56,2","16","0"],
    [659,"2014-02-26T21:00:00","ND","17","ND","ND","ND","26,1","67,4","16","0"],
    [660,"2014-02-26T22:00:00","ND","16","ND","ND","ND","25,5","70,1","16","0"],
    [661,"2014-02-26T23:00:00","ND","15","ND","ND","ND","25,3","70,1","16","0"],
    [662,"2014-02-27T00:00:00","ND","ND","ND","ND","ND","20,2","95,1","16,1","0"],
    [663,"2014-02-27T01:00:00","ND","13","ND","ND","ND","24,4","75,1","16","0"],
    [664,"2014-02-27T02:00:00","ND","15","ND","ND","ND","24,2","77,7","16","0"],
    [665,"2014-02-27T03:00:00","ND","13","ND","ND","ND","23,9","78,3","16","0"],
    [666,"2014-02-27T04:00:00","ND","ND","ND","ND","ND","23,4","81,9","16","0"],
    [667,"2014-02-27T05:00:00","ND","8","ND","ND","ND","22,9","85,1","16","0"],
    [668,"2014-02-27T06:00:00","ND","12","ND","ND","ND","23,1","84,3","16","0"],
    [669,"2014-02-27T07:00:00","ND","16","ND","ND","ND","22,9","86,1","27,8","0"],
    [670,"2014-02-27T08:00:00","ND","10","ND","ND","ND","23,1","84,3","54,7","0"],
    [671,"2014-02-27T09:00:00","ND","14","ND","ND","ND","23,2","85,2","78,6","0"],
    [672,"2014-02-27T10:00:00","ND","9","ND","ND","ND","24","81,2","156,9","0"],
    [673,"2014-02-27T11:00:00","ND","15","ND","ND","ND","25,1","77,8","368,1","0"],
    [674,"2014-02-27T12:00:00","ND","15","ND","ND","ND","26,1","72,2","373,1","0"],
    [675,"2014-02-27T13:00:00","ND","ND","ND","ND","ND","28,7","58","476,9","0"],
    [676,"2014-02-27T14:00:00","ND","ND","ND","ND","ND","31,5","48,4","631,9","0"],
    [677,"2014-02-27T15:00:00","ND","ND","ND","ND","ND","31,6","45,6","360,5","0"],
    [678,"2014-02-27T16:00:00","ND","ND","ND","ND","ND","27,2","66,5","143,2","0"],
    [679,"2014-02-27T17:00:00","ND","ND","ND","ND","ND","23,2","75,1","24,3","0"],
    [680,"2014-02-27T18:00:00","ND","ND","ND","ND","ND","20,1","90,8","17,8","0"],
    [681,"2014-02-27T19:00:00","ND","ND","ND","ND","ND","19,6","94,3","16,1","0"],
    [682,"2014-02-27T20:00:00","ND","ND","ND","ND","ND","20","94,8","16","0"],
    [683,"2014-02-27T21:00:00","ND","ND","ND","ND","ND","20,2","95","16","0"],
    [684,"2014-02-27T22:00:00","ND","ND","ND","ND","ND","20,4","95,1","16,1","0"],
    [685,"2014-02-27T23:00:00","ND","ND","ND","ND","ND","20,4","95,2","16,1","0"],
    [686,"2014-02-28T00:00:00","ND","ND","ND","ND","ND","21,4","89,8","16,2","0"],
    [687,"2014-02-28T01:00:00","ND","ND","ND","ND","ND","20,1","95,2","16,1","0"],
    [688,"2014-02-28T02:00:00","ND","ND","ND","ND","ND","20,1","95,2","16,1","0"],
    [689,"2014-02-28T03:00:00","ND","ND","ND","ND","ND","20,1","95,2","16,1","0"],
    [690,"2014-02-28T04:00:00","ND","ND","ND","ND","ND","20,1","95,2","16,1","0"],
    [691,"2014-02-28T05:00:00","ND","ND","ND","ND","ND","19,7","95,2","16,1","0"],
    [692,"2014-02-28T06:00:00","ND","ND","ND","ND","ND","19,6","95,3","16,1","0"],
    [693,"2014-02-28T07:00:00","ND","ND","ND","ND","ND","19,4","95,3","25,1","0"],
    [694,"2014-02-28T08:00:00","ND","ND","ND","ND","ND","19,9","95,5","73,1","0"],
    [695,"2014-02-28T09:00:00","ND","ND","ND","ND","ND","21,4","95,2","224,9","0"],
    [696,"2014-02-28T10:00:00","ND","ND","ND","ND","ND","22,8","93,7","515,9","0"],
    [697,"2014-02-28T11:00:00","ND","ND","ND","ND","ND","24,8","74,5","535,8","0"],
    [698,"2014-02-28T12:00:00","ND","ND","ND","ND","ND","27,7","57,4","594","0"],
    [699,"2014-02-28T13:00:00","ND","ND","ND","ND","ND","29,7","52,3","683,4","0"],
    [700,"2014-02-28T14:00:00","ND","ND","ND","ND","ND","31,1","46,7","816,2","0"],
    [701,"2014-02-28T15:00:00","ND","ND","ND","ND","ND","31,5","44","628,8","0"],
    [702,"2014-02-28T16:00:00","ND","ND","ND","ND","ND","31,8","42,9","327,2","0"],
    [703,"2014-02-28T17:00:00","ND","ND","ND","ND","ND","30","49,8","103,4","0"],
    [704,"2014-02-28T18:00:00","ND","ND","ND","ND","ND","26,8","60,7","29,6","0"],
    [705,"2014-02-28T19:00:00","ND","ND","ND","ND","ND","25,9","60,9","18","0"],
    [706,"2014-02-28T20:00:00","ND","ND","ND","ND","ND","25,7","60,9","16,1","0"],
    [707,"2014-02-28T21:00:00","ND","ND","ND","ND","ND","23,1","80","16,1","0"],
    [708,"2014-02-28T22:00:00","ND","ND","ND","ND","ND","21,6","87,9","16,1","0"],
    [709,"2014-02-28T23:00:00","ND","ND","ND","ND","ND","21,7","89,4","16,1","0"],
    [710,"2014-03-01T00:00:00","ND","ND","ND","ND","ND","ND","ND","ND","ND"],
    [711,"2014-03-01T01:00:00","ND","ND","ND","ND","ND","ND","ND","ND","ND"],
    [712,"2014-03-01T02:00:00","ND","ND","ND","ND","ND","ND","ND","ND","ND"],
    [713,"2014-03-01T03:00:00","ND","ND","ND","ND","ND","ND","ND","ND","ND"],
    [714,"2014-03-01T04:00:00","ND","ND","ND","ND","ND","ND","ND","ND","ND"],
    [715,"2014-03-01T05:00:00","ND","ND","ND","ND","ND","ND","ND","ND","ND"],
    [716,"2014-03-01T06:00:00","ND","ND","ND","ND","ND","ND","ND","ND","ND"],
    [717,"2014-03-01T07:00:00","ND","ND","ND","ND","ND","ND","ND","ND","ND"],
    [718,"2014-03-01T08:00:00","ND","ND","ND","ND","ND","ND","ND","ND","ND"],
    [719,"2014-03-01T09:00:00","ND","ND","ND","ND","ND","ND","ND","ND","ND"],
    [720,"2014-03-01T10:00:00","ND","ND","ND","ND","ND","ND","ND","ND","ND"],
    [721,"2014-03-01T11:00:00","ND","ND","ND","ND","ND","ND","ND","ND","ND"],
    [722,"2014-03-01T12:00:00","ND","ND","ND","ND","ND","ND","ND","ND","ND"],
    [723,"2014-03-01T13:00:00","ND","ND","ND","ND","ND","ND","ND","ND","ND"],
    [724,"2014-03-01T14:00:00","ND","ND","ND","ND","ND","ND","ND","ND","ND"],
    [725,"2014-03-01T15:00:00","ND","ND","ND","ND","ND","ND","ND","ND","ND"],
    [726,"2014-03-01T16:00:00","ND","ND","ND","ND","ND","ND","ND","ND","ND"],
    [727,"2014-03-01T17:00:00","ND","ND","ND","ND","ND","ND","ND","ND","ND"],
    [728,"2014-03-01T18:00:00","ND","ND","ND","ND","ND","ND","ND","ND","ND"],
    [729,"2014-03-01T19:00:00","ND","ND","ND","ND","ND","ND","ND","ND","ND"],
    [730,"2014-03-01T20:00:00","ND","ND","ND","ND","ND","ND","ND","ND","ND"],
    [731,"2014-03-01T21:00:00","ND","ND","ND","ND","ND","ND","ND","ND","ND"],
    [732,"2014-03-01T22:00:00","ND","ND","ND","ND","ND","ND","ND","ND","ND"],
    [733,"2014-03-01T23:00:00","ND","ND","ND","ND","ND","ND","ND","ND","ND"],
    [734,"2014-03-02T00:00:00","ND","ND","ND","ND","ND","ND","ND","ND","ND"],
    [735,"2014-03-02T01:00:00","ND","ND","ND","ND","ND","ND","ND","ND","ND"],
    [736,"2014-03-02T02:00:00","ND","ND","ND","ND","ND","ND","ND","ND","ND"],
    [737,"2014-03-02T03:00:00","ND","ND","ND","ND","ND","ND","ND","ND","ND"],
    [738,"2014-03-02T04:00:00","ND","ND","ND","ND","ND","ND","ND","ND","ND"],
    [739,"2014-03-02T05:00:00","ND","ND","ND","ND","ND","ND","ND","ND","ND"],
    [740,"2014-03-02T06:00:00","ND","ND","ND","ND","ND","ND","ND","ND","ND"],
    [741,"2014-03-02T07:00:00","ND","ND","ND","ND","ND","ND","ND","ND","ND"],
    [742,"2014-03-02T08:00:00","ND","ND","ND","ND","ND","ND","ND","ND","ND"],
    [743,"2014-03-02T09:00:00","ND","ND","ND","ND","ND","ND","ND","ND","ND"],
    [744,"2014-03-02T10:00:00","ND","ND","ND","ND","ND","ND","ND","ND","ND"],
    [745,"2014-03-02T11:00:00","ND","ND","ND","ND","ND","ND","ND","ND","ND"],
    [746,"2014-03-02T12:00:00","ND","ND","ND","ND","ND","ND","ND","ND","ND"],
    [747,"2014-03-02T13:00:00","ND","ND","ND","ND","ND","ND","ND","ND","ND"],
    [748,"2014-03-02T14:00:00","ND","ND","ND","ND","ND","ND","ND","ND","ND"],
    [749,"2014-03-02T15:00:00","ND","ND","ND","ND","ND","ND","ND","ND","ND"],
    [750,"2014-03-02T16:00:00","ND","ND","ND","ND","ND","ND","ND","ND","ND"],
    [751,"2014-03-02T17:00:00","ND","ND","ND","ND","ND","ND","ND","ND","ND"],
    [752,"2014-03-02T18:00:00","ND","ND","ND","ND","ND","ND","ND","ND","ND"],
    [753,"2014-03-02T19:00:00","ND","ND","ND","ND","ND","ND","ND","ND","ND"],
    [754,"2014-03-02T20:00:00","ND","ND","ND","ND","ND","ND","ND","ND","ND"],
    [755,"2014-03-02T21:00:00","ND","ND","ND","ND","ND","ND","ND","ND","ND"],
    [756,"2014-03-02T22:00:00","ND","ND","ND","ND","ND","ND","ND","ND","ND"],
    [757,"2014-03-02T23:00:00","ND","ND","ND","ND","ND","ND","ND","ND","ND"],
    [758,"2014-03-03T00:00:00","ND","ND","ND","ND","ND","ND","ND","ND","ND"],
    [759,"2014-03-03T01:00:00","ND","ND","ND","ND","ND","ND","ND","ND","ND"],
    [760,"2014-03-03T02:00:00","ND","ND","ND","ND","ND","ND","ND","ND","ND"],
    [761,"2014-03-03T03:00:00","ND","ND","ND","ND","ND","ND","ND","ND","ND"],
    [762,"2014-03-03T04:00:00","ND","ND","ND","ND","ND","ND","ND","ND","ND"],
    [763,"2014-03-03T05:00:00","ND","ND","ND","ND","ND","ND","ND","ND","ND"],
    [764,"2014-03-03T06:00:00","ND","ND","ND","ND","ND","ND","ND","ND","ND"],
    [765,"2014-03-03T07:00:00","ND","ND","ND","ND","ND","ND","ND","ND","ND"],
    [766,"2014-03-03T08:00:00","ND","ND","ND","ND","ND","ND","ND","ND","ND"],
    [767,"2014-03-03T09:00:00","ND","ND","ND","ND","ND","ND","ND","ND","ND"],
    [768,"2014-03-03T10:00:00","ND","ND","ND","ND","ND","ND","ND","ND","ND"],
    [769,"2014-03-03T11:00:00","ND","ND","ND","ND","ND","ND","ND","ND","ND"],
    [770,"2014-03-03T12:00:00","ND","ND","ND","ND","ND","ND","ND","ND","ND"],
    [771,"2014-03-03T13:00:00","ND","ND","ND","ND","ND","ND","ND","ND","ND"],
    [772,"2014-03-03T14:00:00","ND","ND","ND","ND","ND","ND","ND","ND","ND"],
    [773,"2014-03-03T15:00:00","ND","ND","ND","ND","ND","ND","ND","ND","ND"],
    [774,"2014-03-03T16:00:00","ND","ND","ND","ND","ND","ND","ND","ND","ND"],
    [775,"2014-03-03T17:00:00","ND","ND","ND","ND","ND","ND","ND","ND","ND"],
    [776,"2014-03-03T18:00:00","ND","ND","ND","ND","ND","ND","ND","ND","ND"],
    [777,"2014-03-03T19:00:00","ND","ND","ND","ND","ND","ND","ND","ND","ND"],
    [778,"2014-03-03T20:00:00","ND","ND","ND","ND","ND","ND","ND","ND","ND"],
    [779,"2014-03-03T21:00:00","ND","ND","ND","ND","ND","ND","ND","ND","ND"],
    [780,"2014-03-03T22:00:00","ND","ND","ND","ND","ND","ND","ND","ND","ND"],
    [781,"2014-03-03T23:00:00","ND","ND","ND","ND","ND","ND","ND","ND","ND"],
    [782,"2014-03-04T00:00:00","ND","ND","ND","ND","ND","ND","ND","ND","ND"],
    [783,"2014-03-04T01:00:00","ND","ND","ND","ND","ND","ND","ND","ND","ND"],
    [784,"2014-03-04T02:00:00","ND","ND","ND","ND","ND","ND","ND","ND","ND"],
    [785,"2014-03-04T03:00:00","ND","ND","ND","ND","ND","ND","ND","ND","ND"],
    [786,"2014-03-04T04:00:00","ND","ND","ND","ND","ND","ND","ND","ND","ND"],
    [787,"2014-03-04T05:00:00","ND","ND","ND","ND","ND","ND","ND","ND","ND"],
    [788,"2014-03-04T06:00:00","ND","ND","ND","ND","ND","ND","ND","ND","ND"],
    [789,"2014-03-04T07:00:00","ND","ND","ND","ND","ND","ND","ND","ND","ND"],
    [790,"2014-03-04T08:00:00","ND","ND","ND","ND","ND","ND","ND","ND","ND"],
    [791,"2014-03-04T09:00:00","ND","ND","ND","ND","ND","ND","ND","ND","ND"],
    [792,"2014-03-04T10:00:00","ND","ND","ND","ND","ND","ND","ND","ND","ND"],
    [793,"2014-03-04T11:00:00","ND","ND","ND","ND","ND","ND","ND","ND","ND"],
    [794,"2014-03-04T12:00:00","ND","ND","ND","ND","ND","ND","ND","ND","ND"],
    [795,"2014-03-04T13:00:00","ND","ND","ND","ND","ND","ND","ND","ND","ND"],
    [796,"2014-03-04T14:00:00","ND","ND","ND","ND","ND","ND","ND","ND","ND"],
    [797,"2014-03-04T15:00:00","ND","ND","ND","ND","ND","ND","ND","ND","ND"],
    [798,"2014-03-04T16:00:00","ND","ND","ND","ND","ND","ND","ND","ND","ND"],
    [799,"2014-03-04T17:00:00","ND","ND","ND","ND","ND","ND","ND","ND","ND"],
    [800,"2014-03-04T18:00:00","ND","ND","ND","ND","ND","ND","ND","ND","ND"],
    [801,"2014-03-04T19:00:00","ND","ND","ND","ND","ND","ND","ND","ND","ND"],
    [802,"2014-03-04T20:00:00","ND","ND","ND","ND","ND","ND","ND","ND","ND"],
    [803,"2014-03-04T21:00:00","ND","ND","ND","ND","ND","ND","ND","ND","ND"],
    [804,"2014-03-04T22:00:00","ND","ND","ND","ND","ND","ND","ND","ND","ND"],
    [805,"2014-03-04T23:00:00","ND","ND","ND","ND","ND","ND","ND","ND","ND"],
    [806,"2014-03-05T00:00:00","ND","ND","ND","ND","ND","ND","ND","ND","ND"],
    [807,"2014-03-05T01:00:00","ND","ND","ND","ND","ND","ND","ND","ND","ND"],
    [808,"2014-03-05T02:00:00","ND","ND","ND","ND","ND","ND","ND","ND","ND"],
    [809,"2014-03-05T03:00:00","ND","ND","ND","ND","ND","ND","ND","ND","ND"],
    [810,"2014-03-05T04:00:00","ND","ND","ND","ND","ND","ND","ND","ND","ND"],
    [811,"2014-03-05T05:00:00","ND","ND","ND","ND","ND","ND","ND","ND","ND"],
    [812,"2014-03-05T06:00:00","ND","ND","ND","ND","ND","ND","ND","ND","ND"],
    [813,"2014-03-05T07:00:00","ND","ND","ND","ND","ND","ND","ND","ND","ND"],
    [814,"2014-03-05T08:00:00","ND","ND","ND","ND","ND","ND","ND","ND","ND"],
    [815,"2014-03-05T09:00:00","ND","ND","ND","ND","ND","ND","ND","ND","ND"],
    [816,"2014-03-05T10:00:00","ND","ND","ND","ND","ND","ND","ND","ND","ND"],
    [817,"2014-03-05T11:00:00","ND","ND","ND","ND","ND","ND","ND","ND","ND"],
    [818,"2014-03-05T12:00:00","ND","ND","ND","ND","ND","ND","ND","ND","ND"],
    [819,"2014-03-05T13:00:00","ND","ND","ND","ND","ND","ND","ND","ND","ND"],
    [820,"2014-03-05T14:00:00","ND","ND","ND","ND","ND","ND","ND","ND","ND"],
    [821,"2014-03-05T15:00:00","ND","ND","ND","ND","ND","ND","ND","ND","ND"],
    [822,"2014-03-05T16:00:00","ND","ND","ND","ND","ND","ND","ND","ND","ND"],
    [823,"2014-03-05T17:00:00","ND","ND","ND","ND","ND","ND","ND","ND","ND"],
    [824,"2014-03-05T18:00:00","ND","ND","ND","ND","ND","ND","ND","ND","ND"],
    [825,"2014-03-05T19:00:00","ND","ND","ND","ND","ND","ND","ND","ND","ND"],
    [826,"2014-03-05T20:00:00","ND","ND","ND","ND","ND","ND","ND","ND","ND"],
    [827,"2014-03-05T21:00:00","ND","ND","ND","ND","ND","ND","ND","ND","ND"],
    [828,"2014-03-05T22:00:00","ND","ND","ND","ND","ND","ND","ND","ND","ND"],
    [829,"2014-03-05T23:00:00","ND","ND","ND","ND","ND","ND","ND","ND","ND"],
    [830,"2014-03-06T00:00:00","ND","ND","ND","ND","ND","ND","ND","ND","ND"],
    [831,"2014-03-06T01:00:00","ND","ND","ND","ND","ND","ND","ND","ND","ND"],
    [832,"2014-03-06T02:00:00","ND","ND","ND","ND","ND","ND","ND","ND","ND"],
    [833,"2014-03-06T03:00:00","ND","ND","ND","ND","ND","ND","ND","ND","ND"],
    [834,"2014-03-06T04:00:00","ND","ND","ND","ND","ND","ND","ND","ND","ND"],
    [835,"2014-03-06T05:00:00","ND","ND","ND","ND","ND","ND","ND","ND","ND"],
    [836,"2014-03-06T06:00:00","ND","ND","ND","ND","ND","ND","ND","ND","ND"],
    [837,"2014-03-06T07:00:00","ND","ND","ND","ND","ND","ND","ND","ND","ND"],
    [838,"2014-03-06T08:00:00","ND","ND","ND","ND","ND","ND","ND","ND","ND"],
    [839,"2014-03-06T09:00:00","ND","ND","ND","ND","ND","ND","ND","ND","ND"],
    [840,"2014-03-06T10:00:00","ND","ND","ND","ND","ND","ND","ND","ND","ND"],
    [841,"2014-03-06T11:00:00","ND","ND","ND","ND","ND","ND","ND","ND","ND"],
    [842,"2014-03-06T12:00:00","ND","ND","ND","ND","ND","ND","ND","ND","ND"],
    [843,"2014-03-06T13:00:00","ND","ND","ND","ND","ND","ND","ND","ND","ND"],
    [844,"2014-03-06T14:00:00","ND","ND","ND","ND","ND","ND","ND","ND","ND"],
    [845,"2014-03-06T15:00:00","ND","ND","ND","ND","ND","ND","ND","ND","ND"],
    [846,"2014-03-06T16:00:00","ND","ND","ND","ND","ND","ND","ND","ND","ND"],
    [847,"2014-03-06T17:00:00","ND","ND","ND","ND","ND","ND","ND","ND","ND"],
    [848,"2014-03-06T18:00:00","ND","ND","ND","ND","ND","ND","ND","ND","ND"],
    [849,"2014-03-06T19:00:00","ND","ND","ND","ND","ND","ND","ND","ND","ND"],
    [850,"2014-03-06T20:00:00","ND","ND","ND","ND","ND","ND","ND","ND","ND"],
    [851,"2014-03-06T21:00:00","ND","ND","ND","ND","ND","ND","ND","ND","ND"],
    [852,"2014-03-06T22:00:00","ND","ND","ND","ND","ND","ND","ND","ND","ND"],
    [853,"2014-03-06T23:00:00","ND","ND","ND","ND","ND","ND","ND","ND","ND"],
    [854,"2014-03-07T00:00:00","ND","ND","ND","ND","ND","ND","ND","ND","ND"],
    [855,"2014-03-07T01:00:00","ND","ND","ND","ND","ND","ND","ND","ND","ND"],
    [856,"2014-03-07T02:00:00","ND","ND","ND","ND","ND","ND","ND","ND","ND"],
    [857,"2014-03-07T03:00:00","ND","ND","ND","ND","ND","ND","ND","ND","ND"],
    [858,"2014-03-07T04:00:00","ND","ND","ND","ND","ND","ND","ND","ND","ND"],
    [859,"2014-03-07T05:00:00","ND","ND","ND","ND","ND","ND","ND","ND","ND"],
    [860,"2014-03-07T06:00:00","ND","ND","ND","ND","ND","ND","ND","ND","ND"],
    [861,"2014-03-07T07:00:00","ND","ND","ND","ND","ND","ND","ND","ND","ND"],
    [862,"2014-03-07T08:00:00","ND","ND","ND","ND","ND","ND","ND","ND","ND"],
    [863,"2014-03-07T09:00:00","ND","ND","ND","ND","ND","ND","ND","ND","ND"],
    [864,"2014-03-07T10:00:00","ND","ND","ND","ND","ND","ND","ND","ND","ND"],
    [865,"2014-03-07T11:00:00","ND","ND","ND","ND","ND","ND","ND","ND","ND"],
    [866,"2014-03-07T12:00:00","ND","ND","ND","ND","ND","ND","ND","ND","ND"],
    [867,"2014-03-07T13:00:00","ND","ND","ND","ND","ND","ND","ND","ND","ND"],
    [868,"2014-03-07T14:00:00","ND","ND","ND","ND","ND","ND","ND","ND","ND"],
    [869,"2014-03-07T15:00:00","ND","ND","ND","ND","ND","ND","ND","ND","ND"],
    [870,"2014-03-07T16:00:00","ND","ND","ND","ND","ND","ND","ND","ND","ND"],
    [871,"2014-03-07T17:00:00","ND","ND","ND","ND","ND","ND","ND","ND","ND"],
    [872,"2014-03-07T18:00:00","ND","ND","ND","ND","ND","ND","ND","ND","ND"],
    [873,"2014-03-07T19:00:00","ND","ND","ND","ND","ND","ND","ND","ND","ND"],
    [874,"2014-03-07T20:00:00","ND","ND","ND","ND","ND","ND","ND","ND","ND"],
    [875,"2014-03-07T21:00:00","ND","ND","ND","ND","ND","ND","ND","ND","ND"],
    [876,"2014-03-07T22:00:00","ND","ND","ND","ND","ND","ND","ND","ND","ND"],
    [877,"2014-03-07T23:00:00","ND","ND","ND","ND","ND","ND","ND","ND","ND"],
    [878,"2014-03-08T00:00:00","ND","ND","ND","ND","ND","ND","ND","ND","ND"],
    [879,"2014-03-08T01:00:00","ND","ND","ND","ND","ND","ND","ND","ND","ND"],
    [880,"2014-03-08T02:00:00","ND","ND","ND","ND","ND","ND","ND","ND","ND"],
    [881,"2014-03-08T03:00:00","ND","ND","ND","ND","ND","ND","ND","ND","ND"],
    [882,"2014-03-08T04:00:00","ND","ND","ND","ND","ND","ND","ND","ND","ND"],
    [883,"2014-03-08T05:00:00","ND","ND","ND","ND","ND","ND","ND","ND","ND"],
    [884,"2014-03-08T06:00:00","ND","ND","ND","ND","ND","ND","ND","ND","ND"],
    [885,"2014-03-08T07:00:00","ND","ND","ND","ND","ND","ND","ND","ND","ND"],
    [886,"2014-03-08T08:00:00","ND","ND","ND","ND","ND","ND","ND","ND","ND"],
    [887,"2014-03-08T09:00:00","ND","ND","ND","ND","ND","ND","ND","ND","ND"],
    [888,"2014-03-08T10:00:00","ND","ND","ND","ND","ND","ND","ND","ND","ND"],
    [889,"2014-03-08T11:00:00","ND","ND","ND","ND","ND","ND","ND","ND","ND"],
    [890,"2014-03-08T12:00:00","ND","ND","ND","ND","ND","ND","ND","ND","ND"],
    [891,"2014-03-08T13:00:00","ND","ND","ND","ND","ND","ND","ND","ND","ND"],
    [892,"2014-03-08T14:00:00","ND","ND","ND","ND","ND","ND","ND","ND","ND"],
    [893,"2014-03-08T15:00:00","ND","ND","ND","ND","ND","ND","ND","ND","ND"],
    [894,"2014-03-08T16:00:00","ND","ND","ND","ND","ND","ND","ND","ND","ND"],
    [895,"2014-03-08T17:00:00","ND","ND","ND","ND","ND","ND","ND","ND","ND"],
    [896,"2014-03-08T18:00:00","ND","ND","ND","ND","ND","ND","ND","ND","ND"],
    [897,"2014-03-08T19:00:00","ND","ND","ND","ND","ND","ND","ND","ND","ND"],
    [898,"2014-03-08T20:00:00","ND","ND","ND","ND","ND","ND","ND","ND","ND"],
    [899,"2014-03-08T21:00:00","ND","ND","ND","ND","ND","ND","ND","ND","ND"],
    [900,"2014-03-08T22:00:00","ND","ND","ND","ND","ND","ND","ND","ND","ND"],
    [901,"2014-03-08T23:00:00","ND","ND","ND","ND","ND","ND","ND","ND","ND"],
    [902,"2014-03-09T00:00:00","ND","ND","ND","ND","ND","ND","ND","ND","ND"],
    [903,"2014-03-09T01:00:00","ND","ND","ND","ND","ND","ND","ND","ND","ND"],
    [904,"2014-03-09T02:00:00","ND","ND","ND","ND","ND","ND","ND","ND","ND"],
    [905,"2014-03-09T03:00:00","ND","ND","ND","ND","ND","ND","ND","ND","ND"],
    [906,"2014-03-09T04:00:00","ND","ND","ND","ND","ND","ND","ND","ND","ND"],
    [907,"2014-03-09T05:00:00","ND","ND","ND","ND","ND","ND","ND","ND","ND"],
    [908,"2014-03-09T06:00:00","ND","ND","ND","ND","ND","ND","ND","ND","ND"],
    [909,"2014-03-09T07:00:00","ND","ND","ND","ND","ND","ND","ND","ND","ND"],
    [910,"2014-03-09T08:00:00","ND","ND","ND","ND","ND","ND","ND","ND","ND"],
    [911,"2014-03-09T09:00:00","ND","ND","ND","ND","ND","ND","ND","ND","ND"],
    [912,"2014-03-09T10:00:00","ND","ND","ND","ND","ND","ND","ND","ND","ND"],
    [913,"2014-03-09T11:00:00","ND","ND","ND","ND","ND","ND","ND","ND","ND"],
    [914,"2014-03-09T12:00:00","ND","ND","ND","ND","ND","ND","ND","ND","ND"],
    [915,"2014-03-09T13:00:00","ND","ND","ND","ND","ND","ND","ND","ND","ND"],
    [916,"2014-03-09T14:00:00","ND","ND","ND","ND","ND","ND","ND","ND","ND"],
    [917,"2014-03-09T15:00:00","ND","ND","ND","ND","ND","ND","ND","ND","ND"],
    [918,"2014-03-09T16:00:00","ND","ND","ND","ND","ND","ND","ND","ND","ND"],
    [919,"2014-03-09T17:00:00","ND","ND","ND","ND","ND","ND","ND","ND","ND"],
    [920,"2014-03-09T18:00:00","ND","ND","ND","ND","ND","ND","ND","ND","ND"],
    [921,"2014-03-09T19:00:00","ND","ND","ND","ND","ND","ND","ND","ND","ND"],
    [922,"2014-03-09T20:00:00","ND","ND","ND","ND","ND","ND","ND","ND","ND"],
    [923,"2014-03-09T21:00:00","ND","ND","ND","ND","ND","ND","ND","ND","ND"],
    [924,"2014-03-09T22:00:00","ND","ND","ND","ND","ND","ND","ND","ND","ND"],
    [925,"2014-03-09T23:00:00","ND","ND","ND","ND","ND","ND","ND","ND","ND"],
    [926,"2014-03-10T00:00:00","ND","ND","ND","ND","ND","ND","ND","ND","ND"],
    [927,"2014-03-10T01:00:00","ND","ND","ND","ND","ND","ND","ND","ND","ND"],
    [928,"2014-03-10T02:00:00","ND","ND","ND","ND","ND","ND","ND","ND","ND"],
    [929,"2014-03-10T03:00:00","ND","ND","ND","ND","ND","ND","ND","ND","ND"],
    [930,"2014-03-10T04:00:00","ND","ND","ND","ND","ND","ND","ND","ND","ND"],
    [931,"2014-03-10T05:00:00","ND","ND","ND","ND","ND","ND","ND","ND","ND"],
    [932,"2014-03-10T06:00:00","ND","ND","ND","ND","ND","ND","ND","ND","ND"],
    [933,"2014-03-10T07:00:00","ND","ND","ND","ND","ND","ND","ND","ND","ND"],
    [934,"2014-03-10T08:00:00","ND","ND","ND","ND","ND","ND","ND","ND","ND"],
    [935,"2014-03-10T09:00:00","ND","ND","ND","ND","ND","ND","ND","ND","ND"],
    [936,"2014-03-10T10:00:00","ND","ND","ND","ND","ND","ND","ND","ND","ND"],
    [937,"2014-03-10T11:00:00","ND","ND","ND","ND","ND","ND","ND","ND","ND"],
    [938,"2014-03-10T12:00:00","ND","ND","ND","ND","ND","ND","ND","ND","ND"],
    [939,"2014-03-10T13:00:00","ND","ND","ND","ND","ND","ND","ND","ND","ND"],
    [940,"2014-03-10T14:00:00","ND","ND","ND","ND","ND","ND","ND","ND","ND"],
    [941,"2014-03-10T15:00:00","ND","ND","ND","ND","ND","ND","ND","ND","ND"],
    [942,"2014-03-10T16:00:00","ND","ND","ND","ND","ND","ND","ND","ND","ND"],
    [943,"2014-03-10T17:00:00","ND","ND","ND","ND","ND","ND","ND","ND","ND"],
    [944,"2014-03-10T18:00:00","ND","ND","ND","ND","ND","ND","ND","ND","ND"],
    [945,"2014-03-10T19:00:00","ND","ND","ND","ND","ND","ND","ND","ND","ND"],
    [946,"2014-03-10T20:00:00","ND","ND","ND","ND","ND","ND","ND","ND","ND"],
    [947,"2014-03-10T21:00:00","ND","ND","ND","ND","ND","ND","ND","ND","ND"],
    [948,"2014-03-10T22:00:00","ND","ND","ND","ND","ND","ND","ND","ND","ND"],
    [949,"2014-03-10T23:00:00","ND","ND","ND","ND","ND","ND","ND","ND","ND"],
    [950,"2014-03-11T00:00:00","ND","ND","ND","ND","ND","ND","ND","ND","ND"],
    [951,"2014-03-11T01:00:00","ND","ND","ND","ND","ND","ND","ND","ND","ND"],
    [952,"2014-03-11T02:00:00","ND","ND","ND","ND","ND","ND","ND","ND","ND"],
    [953,"2014-03-11T03:00:00","ND","ND","ND","ND","ND","ND","ND","ND","ND"],
    [954,"2014-03-11T04:00:00","ND","ND","ND","ND","ND","ND","ND","ND","ND"],
    [955,"2014-03-11T05:00:00","ND","ND","ND","ND","ND","ND","ND","ND","ND"],
    [956,"2014-03-11T06:00:00","ND","ND","ND","ND","ND","ND","ND","ND","ND"],
    [957,"2014-03-11T07:00:00","ND","ND","ND","ND","ND","ND","ND","ND","ND"],
    [958,"2014-03-11T08:00:00","ND","ND","ND","ND","ND","ND","ND","ND","ND"],
    [959,"2014-03-11T09:00:00","ND","ND","ND","ND","ND","ND","ND","ND","ND"],
    [960,"2014-03-11T10:00:00","ND","ND","ND","ND","ND","ND","ND","ND","ND"],
    [961,"2014-03-11T11:00:00","ND","ND","ND","ND","ND","ND","ND","ND","ND"],
    [962,"2014-03-11T12:00:00","ND","ND","ND","ND","ND","ND","ND","ND","ND"],
    [963,"2014-03-11T13:00:00","ND","ND","ND","ND","ND","ND","ND","ND","ND"],
    [964,"2014-03-11T14:00:00","ND","ND","ND","ND","ND","ND","ND","ND","ND"],
    [965,"2014-03-11T15:00:00","ND","ND","ND","ND","ND","ND","ND","ND","ND"],
    [966,"2014-03-11T16:00:00","ND","ND","ND","ND","ND","ND","ND","ND","ND"],
    [967,"2014-03-11T17:00:00","ND","ND","ND","ND","ND","ND","ND","ND","ND"],
    [968,"2014-03-11T18:00:00","ND","ND","ND","ND","ND","ND","ND","ND","ND"],
    [969,"2014-03-11T19:00:00","ND","ND","ND","ND","ND","ND","ND","ND","ND"],
    [970,"2014-03-11T20:00:00","ND","ND","ND","ND","ND","ND","ND","ND","ND"],
    [971,"2014-03-11T21:00:00","ND","ND","ND","ND","ND","ND","ND","ND","ND"],
    [972,"2014-03-11T22:00:00","ND","ND","ND","ND","ND","ND","ND","ND","ND"],
    [973,"2014-03-11T23:00:00","ND","ND","ND","ND","ND","ND","ND","ND","ND"],
    [974,"2014-03-12T00:00:00","ND","ND","ND","ND","ND","ND","ND","ND","ND"],
    [975,"2014-03-12T01:00:00","ND","ND","ND","ND","ND","ND","ND","ND","ND"],
    [976,"2014-03-12T02:00:00","ND","ND","ND","ND","ND","ND","ND","ND","ND"],
    [977,"2014-03-12T03:00:00","ND","ND","ND","ND","ND","ND","ND","ND","ND"],
    [978,"2014-03-12T04:00:00","ND","ND","ND","ND","ND","ND","ND","ND","ND"],
    [979,"2014-03-12T05:00:00","ND","ND","ND","ND","ND","ND","ND","ND","ND"],
    [980,"2014-03-12T06:00:00","ND","ND","ND","ND","ND","ND","ND","ND","ND"],
    [981,"2014-03-12T07:00:00","ND","ND","ND","ND","ND","ND","ND","ND","ND"],
    [982,"2014-03-12T08:00:00","ND","ND","ND","ND","ND","ND","ND","ND","ND"],
    [983,"2014-03-12T09:00:00","ND","ND","ND","ND","ND","ND","ND","ND","ND"],
    [984,"2014-03-12T10:00:00","ND","ND","ND","ND","ND","ND","ND","ND","ND"],
    [985,"2014-03-12T11:00:00","ND","ND","ND","ND","ND","ND","ND","ND","ND"],
    [986,"2014-03-12T12:00:00","ND","ND","ND","ND","ND","ND","ND","ND","ND"],
    [987,"2014-03-12T13:00:00","ND","ND","ND","ND","ND","ND","ND","ND","ND"],
    [988,"2014-03-12T14:00:00","ND","ND","ND","ND","ND","ND","ND","ND","ND"],
    [989,"2014-03-12T15:00:00","ND","ND","ND","ND","ND","ND","ND","ND","ND"],
    [990,"2014-03-12T16:00:00","ND","ND","ND","ND","ND","ND","ND","ND","ND"],
    [991,"2014-03-12T17:00:00","ND","ND","ND","ND","ND","ND","ND","ND","ND"],
    [992,"2014-03-12T18:00:00","ND","ND","ND","ND","ND","ND","ND","ND","ND"],
    [993,"2014-03-12T19:00:00","ND","ND","ND","ND","ND","ND","ND","ND","ND"],
    [994,"2014-03-12T20:00:00","ND","ND","ND","ND","ND","ND","ND","ND","ND"],
    [995,"2014-03-12T21:00:00","ND","ND","ND","ND","ND","ND","ND","ND","ND"],
    [996,"2014-03-12T22:00:00","ND","ND","ND","ND","ND","ND","ND","ND","ND"],
    [997,"2014-03-12T23:00:00","ND","ND","ND","ND","ND","ND","ND","ND","ND"],
    [998,"2014-03-13T00:00:00","ND","ND","ND","ND","ND","ND","ND","ND","ND"],
    [999,"2014-03-13T01:00:00","ND","ND","ND","ND","ND","ND","ND","ND","ND"],
    [1000,"2014-03-13T02:00:00","ND","ND","ND","ND","ND","ND","ND","ND","ND"],
    [1001,"2014-03-13T03:00:00","ND","ND","ND","ND","ND","ND","ND","ND","ND"],
    [1002,"2014-03-13T04:00:00","ND","ND","ND","ND","ND","ND","ND","ND","ND"],
    [1003,"2014-03-13T05:00:00","ND","ND","ND","ND","ND","ND","ND","ND","ND"],
    [1004,"2014-03-13T06:00:00","ND","ND","ND","ND","ND","ND","ND","ND","ND"],
    [1005,"2014-03-13T07:00:00","ND","ND","ND","ND","ND","ND","ND","ND","ND"],
    [1006,"2014-03-13T08:00:00","ND","ND","ND","ND","ND","ND","ND","ND","ND"],
    [1007,"2014-03-13T09:00:00","ND","ND","ND","ND","ND","ND","ND","ND","ND"],
    [1008,"2014-03-13T10:00:00","ND","ND","ND","ND","ND","ND","ND","ND","ND"],
    [1009,"2014-03-13T11:00:00","ND","ND","ND","ND","ND","ND","ND","ND","ND"],
    [1010,"2014-03-13T12:00:00","ND","ND","ND","ND","ND","ND","ND","ND","ND"],
    [1011,"2014-03-13T13:00:00","ND","ND","ND","ND","ND","ND","ND","ND","ND"],
    [1012,"2014-03-13T14:00:00","ND","ND","ND","ND","ND","ND","ND","ND","ND"],
    [1013,"2014-03-13T15:00:00","ND","ND","ND","ND","ND","ND","ND","ND","ND"],
    [1014,"2014-03-13T16:00:00","ND","ND","ND","ND","ND","ND","ND","ND","ND"],
    [1015,"2014-03-13T17:00:00","ND","ND","ND","ND","ND","ND","ND","ND","ND"],
    [1016,"2014-03-13T18:00:00","ND","ND","ND","ND","ND","ND","ND","ND","ND"],
    [1017,"2014-03-13T19:00:00","ND","ND","ND","ND","ND","ND","ND","ND","ND"],
    [1018,"2014-03-13T20:00:00","ND","ND","ND","ND","ND","ND","ND","ND","ND"],
    [1019,"2014-03-13T21:00:00","ND","ND","ND","ND","ND","ND","ND","ND","ND"],
    [1020,"2014-03-13T22:00:00","ND","ND","ND","ND","ND","ND","ND","ND","ND"],
    [1021,"2014-03-13T23:00:00","ND","ND","ND","ND","ND","ND","ND","ND","ND"],
    [1022,"2014-03-14T00:00:00","ND","ND","ND","ND","ND","ND","ND","ND","ND"],
    [1023,"2014-03-14T01:00:00","ND","ND","ND","ND","ND","ND","ND","ND","ND"],
    [1024,"2014-03-14T02:00:00","ND","ND","ND","ND","ND","ND","ND","ND","ND"],
    [1025,"2014-03-14T03:00:00","ND","ND","ND","ND","ND","ND","ND","ND","ND"],
    [1026,"2014-03-14T04:00:00","ND","ND","ND","ND","ND","ND","ND","ND","ND"],
    [1027,"2014-03-14T05:00:00","ND","ND","ND","ND","ND","ND","ND","ND","ND"],
    [1028,"2014-03-14T06:00:00","ND","ND","ND","ND","ND","ND","ND","ND","ND"],
    [1029,"2014-03-14T07:00:00","ND","ND","ND","ND","ND","ND","ND","ND","ND"],
    [1030,"2014-03-14T08:00:00","ND","ND","ND","ND","ND","ND","ND","ND","ND"],
    [1031,"2014-03-14T09:00:00","ND","ND","ND","ND","ND","ND","ND","ND","ND"],
    [1032,"2014-03-14T10:00:00","ND","ND","ND","ND","ND","ND","ND","ND","ND"],
    [1033,"2014-03-14T11:00:00","ND","ND","ND","ND","ND","ND","ND","ND","ND"],
    [1034,"2014-03-14T12:00:00","ND","ND","ND","ND","ND","ND","ND","ND","ND"],
    [1035,"2014-03-14T13:00:00","ND","ND","ND","ND","ND","ND","ND","ND","ND"],
    [1036,"2014-03-14T14:00:00","ND","ND","ND","ND","ND","ND","ND","ND","ND"],
    [1037,"2014-03-14T15:00:00","ND","ND","ND","ND","ND","ND","ND","ND","ND"],
    [1038,"2014-03-14T16:00:00","ND","ND","ND","ND","ND","ND","ND","ND","ND"],
    [1039,"2014-03-14T17:00:00","ND","ND","ND","ND","ND","ND","ND","ND","ND"],
    [1040,"2014-03-14T18:00:00","ND","ND","ND","ND","ND","ND","ND","ND","ND"],
    [1041,"2014-03-14T19:00:00","ND","ND","ND","ND","ND","ND","ND","ND","ND"],
    [1042,"2014-03-14T20:00:00","ND","ND","ND","ND","ND","ND","ND","ND","ND"],
    [1043,"2014-03-14T21:00:00","ND","ND","ND","ND","ND","ND","ND","ND","ND"],
    [1044,"2014-03-14T22:00:00","ND","ND","ND","ND","ND","ND","ND","ND","ND"],
    [1045,"2014-03-14T23:00:00","ND","ND","ND","ND","ND","ND","ND","ND","ND"],
    [1046,"2014-03-15T00:00:00","ND","ND","ND","ND","ND","ND","ND","ND","ND"],
    [1047,"2014-03-15T01:00:00","ND","ND","ND","ND","ND","ND","ND","ND","ND"],
    [1048,"2014-03-15T02:00:00","ND","ND","ND","ND","ND","ND","ND","ND","ND"],
    [1049,"2014-03-15T03:00:00","ND","ND","ND","ND","ND","ND","ND","ND","ND"],
    [1050,"2014-03-15T04:00:00","ND","ND","ND","ND","ND","ND","ND","ND","ND"],
    [1051,"2014-03-15T05:00:00","ND","ND","ND","ND","ND","ND","ND","ND","ND"],
    [1052,"2014-03-15T06:00:00","ND","ND","ND","ND","ND","ND","ND","ND","ND"],
    [1053,"2014-03-15T07:00:00","ND","ND","ND","ND","ND","ND","ND","ND","ND"],
    [1054,"2014-03-15T08:00:00","ND","ND","ND","ND","ND","ND","ND","ND","ND"],
    [1055,"2014-03-15T09:00:00","ND","ND","ND","ND","ND","ND","ND","ND","ND"],
    [1056,"2014-03-15T10:00:00","ND","ND","ND","ND","ND","ND","ND","ND","ND"],
    [1057,"2014-03-15T11:00:00","ND","ND","ND","ND","ND","ND","ND","ND","ND"],
    [1058,"2014-03-15T12:00:00","ND","ND","ND","ND","ND","ND","ND","ND","ND"],
    [1059,"2014-03-15T13:00:00","ND","ND","ND","ND","ND","ND","ND","ND","ND"],
    [1060,"2014-03-15T14:00:00","ND","ND","ND","ND","ND","ND","ND","ND","ND"],
    [1061,"2014-03-15T15:00:00","ND","ND","ND","ND","ND","ND","ND","ND","ND"],
    [1062,"2014-03-15T16:00:00","ND","ND","ND","ND","ND","ND","ND","ND","ND"],
    [1063,"2014-03-15T17:00:00","ND","ND","ND","ND","ND","ND","ND","ND","ND"],
    [1064,"2014-03-15T18:00:00","ND","ND","ND","ND","ND","ND","ND","ND","ND"],
    [1065,"2014-03-15T19:00:00","ND","ND","ND","ND","ND","ND","ND","ND","ND"],
    [1066,"2014-03-15T20:00:00","ND","ND","ND","ND","ND","ND","ND","ND","ND"],
    [1067,"2014-03-15T21:00:00","ND","ND","ND","ND","ND","ND","ND","ND","ND"],
    [1068,"2014-03-15T22:00:00","ND","ND","ND","ND","ND","ND","ND","ND","ND"],
    [1069,"2014-03-15T23:00:00","ND","ND","ND","ND","ND","ND","ND","ND","ND"],
    [1070,"2014-03-16T00:00:00","ND","ND","ND","ND","ND","ND","ND","ND","ND"],
    [1071,"2014-03-16T01:00:00","ND","ND","ND","ND","ND","ND","ND","ND","ND"],
    [1072,"2014-03-16T02:00:00","ND","ND","ND","ND","ND","ND","ND","ND","ND"],
    [1073,"2014-03-16T03:00:00","ND","ND","ND","ND","ND","ND","ND","ND","ND"],
    [1074,"2014-03-16T04:00:00","ND","ND","ND","ND","ND","ND","ND","ND","ND"],
    [1075,"2014-03-16T05:00:00","ND","ND","ND","ND","ND","ND","ND","ND","ND"],
    [1076,"2014-03-16T06:00:00","ND","ND","ND","ND","ND","ND","ND","ND","ND"],
    [1077,"2014-03-16T07:00:00","ND","ND","ND","ND","ND","ND","ND","ND","ND"],
    [1078,"2014-03-16T08:00:00","ND","ND","ND","ND","ND","ND","ND","ND","ND"],
    [1079,"2014-03-16T09:00:00","ND","ND","ND","ND","ND","ND","ND","ND","ND"],
    [1080,"2014-03-16T10:00:00","ND","ND","ND","ND","ND","ND","ND","ND","ND"],
    [1081,"2014-03-16T11:00:00","ND","ND","ND","ND","ND","ND","ND","ND","ND"],
    [1082,"2014-03-16T12:00:00","ND","ND","ND","ND","ND","ND","ND","ND","ND"],
    [1083,"2014-03-16T13:00:00","ND","ND","ND","ND","ND","ND","ND","ND","ND"],
    [1084,"2014-03-16T14:00:00","ND","ND","ND","ND","ND","ND","ND","ND","ND"],
    [1085,"2014-03-16T15:00:00","ND","ND","ND","ND","ND","ND","ND","ND","ND"],
    [1086,"2014-03-16T16:00:00","ND","ND","ND","ND","ND","ND","ND","ND","ND"],
    [1087,"2014-03-16T17:00:00","ND","ND","ND","ND","ND","ND","ND","ND","ND"],
    [1088,"2014-03-16T18:00:00","ND","ND","ND","ND","ND","ND","ND","ND","ND"],
    [1089,"2014-03-16T19:00:00","ND","ND","ND","ND","ND","ND","ND","ND","ND"],
    [1090,"2014-03-16T20:00:00","ND","ND","ND","ND","ND","ND","ND","ND","ND"],
    [1091,"2014-03-16T21:00:00","ND","ND","ND","ND","ND","ND","ND","ND","ND"],
    [1092,"2014-03-16T22:00:00","ND","ND","ND","ND","ND","ND","ND","ND","ND"],
    [1093,"2014-03-16T23:00:00","ND","ND","ND","ND","ND","ND","ND","ND","ND"],
    [1094,"2014-03-17T00:00:00","ND","ND","ND","ND","ND","ND","ND","ND","ND"],
    [1095,"2014-03-17T01:00:00","ND","ND","ND","ND","ND","ND","ND","ND","ND"],
    [1096,"2014-03-17T02:00:00","ND","ND","ND","ND","ND","ND","ND","ND","ND"],
    [1097,"2014-03-17T03:00:00","ND","ND","ND","ND","ND","ND","ND","ND","ND"],
    [1098,"2014-03-17T04:00:00","ND","ND","ND","ND","ND","ND","ND","ND","ND"],
    [1099,"2014-03-17T05:00:00","ND","ND","ND","ND","ND","ND","ND","ND","ND"],
    [1100,"2014-03-17T06:00:00","ND","ND","ND","ND","ND","ND","ND","ND","ND"],
    [1101,"2014-03-17T07:00:00","ND","ND","ND","ND","ND","ND","ND","ND","ND"],
    [1102,"2014-03-17T08:00:00","ND","ND","ND","ND","ND","ND","ND","ND","ND"],
    [1103,"2014-03-17T09:00:00","ND","ND","ND","ND","ND","ND","ND","ND","ND"],
    [1104,"2014-03-17T10:00:00","ND","ND","ND","ND","ND","ND","ND","ND","ND"],
    [1105,"2014-03-17T11:00:00","ND","ND","ND","ND","ND","ND","ND","ND","ND"],
    [1106,"2014-03-17T12:00:00","ND","ND","ND","ND","ND","ND","ND","ND","ND"],
    [1107,"2014-03-17T13:00:00","ND","ND","ND","ND","ND","ND","ND","ND","ND"],
    [1108,"2014-03-17T14:00:00","ND","ND","ND","ND","ND","ND","ND","ND","ND"],
    [1109,"2014-03-17T15:00:00","ND","ND","ND","ND","ND","ND","ND","ND","ND"],
    [1110,"2014-03-17T16:00:00","ND","ND","ND","ND","ND","ND","ND","ND","ND"],
    [1111,"2014-03-17T17:00:00","ND","ND","ND","ND","ND","ND","ND","ND","ND"],
    [1112,"2014-03-17T18:00:00","ND","ND","ND","ND","ND","ND","ND","ND","ND"],
    [1113,"2014-03-17T19:00:00","ND","ND","ND","ND","ND","ND","ND","ND","ND"],
    [1114,"2014-03-17T20:00:00","ND","ND","ND","ND","ND","ND","ND","ND","ND"],
    [1115,"2014-03-17T21:00:00","ND","ND","ND","ND","ND","ND","ND","ND","ND"],
    [1116,"2014-03-17T22:00:00","ND","ND","ND","ND","ND","ND","ND","ND","ND"],
    [1117,"2014-03-17T23:00:00","ND","ND","ND","ND","ND","ND","ND","ND","ND"],
    [1118,"2014-03-18T00:00:00","ND","ND","ND","ND","ND","ND","ND","ND","ND"],
    [1119,"2014-03-18T01:00:00","ND","ND","ND","ND","ND","ND","ND","ND","ND"],
    [1120,"2014-03-18T02:00:00","ND","ND","ND","ND","ND","ND","ND","ND","ND"],
    [1121,"2014-03-18T03:00:00","ND","ND","ND","ND","ND","ND","ND","ND","ND"],
    [1122,"2014-03-18T04:00:00","ND","ND","ND","ND","ND","ND","ND","ND","ND"],
    [1123,"2014-03-18T05:00:00","ND","ND","ND","ND","ND","ND","ND","ND","ND"],
    [1124,"2014-03-18T06:00:00","ND","ND","ND","ND","ND","ND","ND","ND","ND"],
    [1125,"2014-03-18T07:00:00","ND","ND","ND","ND","ND","ND","ND","ND","ND"],
    [1126,"2014-03-18T08:00:00","ND","ND","ND","ND","ND","ND","ND","ND","ND"],
    [1127,"2014-03-18T09:00:00","ND","ND","ND","ND","ND","ND","ND","ND","ND"],
    [1128,"2014-03-18T10:00:00","ND","ND","ND","ND","ND","ND","ND","ND","ND"],
    [1129,"2014-03-18T11:00:00","ND","ND","ND","ND","ND","ND","ND","ND","ND"],
    [1130,"2014-03-18T12:00:00","ND","ND","ND","ND","ND","ND","ND","ND","ND"],
    [1131,"2014-03-18T13:00:00","ND","ND","ND","ND","ND","ND","ND","ND","ND"],
    [1132,"2014-03-18T14:00:00","ND","ND","ND","ND","ND","ND","ND","ND","ND"],
    [1133,"2014-03-18T15:00:00","ND","ND","ND","ND","ND","ND","ND","ND","ND"],
    [1134,"2014-03-18T16:00:00","ND","ND","ND","ND","ND","ND","ND","ND","ND"],
    [1135,"2014-03-18T17:00:00","ND","ND","ND","ND","ND","ND","ND","ND","ND"],
    [1136,"2014-03-18T18:00:00","ND","ND","ND","ND","ND","ND","ND","ND","ND"],
    [1137,"2014-03-18T19:00:00","ND","ND","ND","ND","ND","ND","ND","ND","ND"],
    [1138,"2014-03-18T20:00:00","ND","ND","ND","ND","ND","ND","ND","ND","ND"],
    [1139,"2014-03-18T21:00:00","ND","ND","ND","ND","ND","ND","ND","ND","ND"],
    [1140,"2014-03-18T22:00:00","ND","ND","ND","ND","ND","ND","ND","ND","ND"],
    [1141,"2014-03-18T23:00:00","ND","ND","ND","ND","ND","ND","ND","ND","ND"],
    [1142,"2014-03-19T00:00:00","ND","ND","ND","ND","ND","ND","ND","ND","ND"],
    [1143,"2014-03-19T01:00:00","ND","ND","ND","ND","ND","ND","ND","ND","ND"],
    [1144,"2014-03-19T02:00:00","ND","ND","ND","ND","ND","ND","ND","ND","ND"],
    [1145,"2014-03-19T03:00:00","ND","ND","ND","ND","ND","ND","ND","ND","ND"],
    [1146,"2014-03-19T04:00:00","ND","ND","ND","ND","ND","ND","ND","ND","ND"],
    [1147,"2014-03-19T05:00:00","ND","ND","ND","ND","ND","ND","ND","ND","ND"],
    [1148,"2014-03-19T06:00:00","ND","ND","ND","ND","ND","ND","ND","ND","ND"],
    [1149,"2014-03-19T07:00:00","ND","ND","ND","ND","ND","ND","ND","ND","ND"],
    [1150,"2014-03-19T08:00:00","ND","ND","ND","ND","ND","ND","ND","ND","ND"],
    [1151,"2014-03-19T09:00:00","ND","ND","ND","ND","ND","ND","ND","ND","ND"],
    [1152,"2014-03-19T10:00:00","ND","ND","ND","ND","ND","ND","ND","ND","ND"],
    [1153,"2014-03-19T11:00:00","ND","ND","ND","ND","ND","ND","ND","ND","ND"],
    [1154,"2014-03-19T12:00:00","ND","ND","ND","ND","ND","ND","ND","ND","ND"],
    [1155,"2014-03-19T13:00:00","ND","ND","ND","ND","ND","ND","ND","ND","ND"],
    [1156,"2014-03-19T14:00:00","ND","ND","ND","ND","ND","ND","ND","ND","ND"],
    [1157,"2014-03-19T15:00:00","ND","ND","ND","ND","ND","ND","ND","ND","ND"],
    [1158,"2014-03-19T16:00:00","ND","ND","ND","ND","ND","ND","ND","ND","ND"],
    [1159,"2014-03-19T17:00:00","ND","ND","ND","ND","ND","ND","ND","ND","ND"],
    [1160,"2014-03-19T18:00:00","ND","ND","ND","ND","ND","ND","ND","ND","ND"],
    [1161,"2014-03-19T19:00:00","ND","ND","ND","ND","ND","ND","ND","ND","ND"],
    [1162,"2014-03-19T20:00:00","ND","ND","ND","ND","ND","ND","ND","ND","ND"],
    [1163,"2014-03-19T21:00:00","ND","ND","ND","ND","ND","ND","ND","ND","ND"],
    [1164,"2014-03-19T22:00:00","ND","ND","ND","ND","ND","ND","ND","ND","ND"],
    [1165,"2014-03-19T23:00:00","ND","ND","ND","ND","ND","ND","ND","ND","ND"],
    [1166,"2014-03-20T00:00:00","ND","ND","ND","ND","ND","ND","ND","ND","ND"],
    [1167,"2014-03-20T01:00:00","ND","ND","ND","ND","ND","ND","ND","ND","ND"],
    [1168,"2014-03-20T02:00:00","ND","ND","ND","ND","ND","ND","ND","ND","ND"],
    [1169,"2014-03-20T03:00:00","ND","ND","ND","ND","ND","ND","ND","ND","ND"],
    [1170,"2014-03-20T04:00:00","ND","ND","ND","ND","ND","ND","ND","ND","ND"],
    [1171,"2014-03-20T05:00:00","ND","ND","ND","ND","ND","ND","ND","ND","ND"],
    [1172,"2014-03-20T06:00:00","ND","ND","ND","ND","ND","ND","ND","ND","ND"],
    [1173,"2014-03-20T07:00:00","ND","ND","ND","ND","ND","ND","ND","ND","ND"],
    [1174,"2014-03-20T08:00:00","ND","ND","ND","ND","ND","ND","ND","ND","ND"],
    [1175,"2014-03-20T09:00:00","ND","ND","ND","ND","ND","ND","ND","ND","ND"],
    [1176,"2014-03-20T10:00:00","ND","ND","ND","ND","ND","ND","ND","ND","ND"],
    [1177,"2014-03-20T11:00:00","ND","ND","ND","ND","ND","ND","ND","ND","ND"],
    [1178,"2014-03-20T12:00:00","ND","ND","ND","ND","ND","ND","ND","ND","ND"],
    [1179,"2014-03-20T13:00:00","ND","ND","ND","ND","ND","ND","ND","ND","ND"],
    [1180,"2014-03-20T14:00:00","ND","ND","ND","ND","ND","ND","ND","ND","ND"],
    [1181,"2014-03-20T15:00:00","ND","ND","ND","ND","ND","ND","ND","ND","ND"],
    [1182,"2014-03-20T16:00:00","ND","ND","ND","ND","ND","ND","ND","ND","ND"],
    [1183,"2014-03-20T17:00:00","ND","ND","ND","ND","ND","ND","ND","ND","ND"],
    [1184,"2014-03-20T18:00:00","ND","ND","ND","ND","ND","ND","ND","ND","ND"],
    [1185,"2014-03-20T19:00:00","ND","ND","ND","ND","ND","ND","ND","ND","ND"],
    [1186,"2014-03-20T20:00:00","ND","ND","ND","ND","ND","ND","ND","ND","ND"],
    [1187,"2014-03-20T21:00:00","ND","ND","ND","ND","ND","ND","ND","ND","ND"],
    [1188,"2014-03-20T22:00:00","ND","ND","ND","ND","ND","ND","ND","ND","ND"],
    [1189,"2014-03-20T23:00:00","ND","ND","ND","ND","ND","ND","ND","ND","ND"],
    [1190,"2014-03-21T00:00:00","ND","ND","ND","ND","ND","ND","ND","ND","ND"],
    [1191,"2014-03-21T01:00:00","ND","ND","ND","ND","ND","ND","ND","ND","ND"],
    [1192,"2014-03-21T02:00:00","ND","ND","ND","ND","ND","ND","ND","ND","ND"],
    [1193,"2014-03-21T03:00:00","ND","ND","ND","ND","ND","ND","ND","ND","ND"],
    [1194,"2014-03-21T04:00:00","ND","ND","ND","ND","ND","ND","ND","ND","ND"],
    [1195,"2014-03-21T05:00:00","ND","ND","ND","ND","ND","ND","ND","ND","ND"],
    [1196,"2014-03-21T06:00:00","ND","ND","ND","ND","ND","ND","ND","ND","ND"],
    [1197,"2014-03-21T07:00:00","ND","ND","ND","ND","ND","ND","ND","ND","ND"],
    [1198,"2014-03-21T08:00:00","ND","ND","ND","ND","ND","ND","ND","ND","ND"],
    [1199,"2014-03-21T09:00:00","ND","ND","ND","ND","ND","ND","ND","ND","ND"],
    [1200,"2014-03-21T10:00:00","ND","ND","ND","ND","ND","ND","ND","ND","ND"],
    [1201,"2014-03-21T11:00:00","ND","ND","ND","ND","ND","ND","ND","ND","ND"],
    [1202,"2014-03-21T12:00:00","ND","ND","ND","ND","ND","ND","ND","ND","ND"],
    [1203,"2014-03-21T13:00:00","ND","ND","ND","ND","ND","ND","ND","ND","ND"],
    [1204,"2014-03-21T14:00:00","ND","ND","ND","ND","ND","ND","ND","ND","ND"],
    [1205,"2014-03-21T15:00:00","ND","ND","ND","ND","ND","ND","ND","ND","ND"],
    [1206,"2014-03-21T16:00:00","ND","ND","ND","ND","ND","ND","ND","ND","ND"],
    [1207,"2014-03-21T17:00:00","ND","ND","ND","ND","ND","ND","ND","ND","ND"],
    [1208,"2014-03-21T18:00:00","ND","ND","ND","ND","ND","ND","ND","ND","ND"],
    [1209,"2014-03-21T19:00:00","ND","ND","ND","ND","ND","ND","ND","ND","ND"],
    [1210,"2014-03-21T20:00:00","ND","ND","ND","ND","ND","ND","ND","ND","ND"],
    [1211,"2014-03-21T21:00:00","ND","ND","ND","ND","ND","ND","ND","ND","ND"],
    [1212,"2014-03-21T22:00:00","ND","ND","ND","ND","ND","ND","ND","ND","ND"],
    [1213,"2014-03-21T23:00:00","ND","ND","ND","ND","ND","ND","ND","ND","ND"],
    [1214,"2014-03-22T00:00:00","ND","ND","ND","ND","ND","ND","ND","ND","ND"],
    [1215,"2014-03-22T01:00:00","ND","ND","ND","ND","ND","ND","ND","ND","ND"],
    [1216,"2014-03-22T02:00:00","ND","ND","ND","ND","ND","ND","ND","ND","ND"],
    [1217,"2014-03-22T03:00:00","ND","ND","ND","ND","ND","ND","ND","ND","ND"],
    [1218,"2014-03-22T04:00:00","ND","ND","ND","ND","ND","ND","ND","ND","ND"],
    [1219,"2014-03-22T05:00:00","ND","ND","ND","ND","ND","ND","ND","ND","ND"],
    [1220,"2014-03-22T06:00:00","ND","ND","ND","ND","ND","ND","ND","ND","ND"],
    [1221,"2014-03-22T07:00:00","ND","ND","ND","ND","ND","ND","ND","ND","ND"],
    [1222,"2014-03-22T08:00:00","ND","ND","ND","ND","ND","ND","ND","ND","ND"],
    [1223,"2014-03-22T09:00:00","ND","ND","ND","ND","ND","ND","ND","ND","ND"],
    [1224,"2014-03-22T10:00:00","ND","ND","ND","ND","ND","ND","ND","ND","ND"],
    [1225,"2014-03-22T11:00:00","ND","ND","ND","ND","ND","ND","ND","ND","ND"],
    [1226,"2014-03-22T12:00:00","ND","ND","ND","ND","ND","ND","ND","ND","ND"],
    [1227,"2014-03-22T13:00:00","ND","ND","ND","ND","ND","ND","ND","ND","ND"],
    [1228,"2014-03-22T14:00:00","ND","ND","ND","ND","ND","ND","ND","ND","ND"],
    [1229,"2014-03-22T15:00:00","ND","ND","ND","ND","ND","ND","ND","ND","ND"],
    [1230,"2014-03-22T16:00:00","ND","ND","ND","ND","ND","ND","ND","ND","ND"],
    [1231,"2014-03-22T17:00:00","ND","ND","ND","ND","ND","ND","ND","ND","ND"],
    [1232,"2014-03-22T18:00:00","ND","ND","ND","ND","ND","ND","ND","ND","ND"],
    [1233,"2014-03-22T19:00:00","ND","ND","ND","ND","ND","ND","ND","ND","ND"],
    [1234,"2014-03-22T20:00:00","ND","ND","ND","ND","ND","ND","ND","ND","ND"],
    [1235,"2014-03-22T21:00:00","ND","ND","ND","ND","ND","ND","ND","ND","ND"],
    [1236,"2014-03-22T22:00:00","ND","ND","ND","ND","ND","ND","ND","ND","ND"],
    [1237,"2014-03-22T23:00:00","ND","ND","ND","ND","ND","ND","ND","ND","ND"],
    [1238,"2014-03-23T00:00:00","ND","ND","ND","ND","ND","ND","ND","ND","ND"],
    [1239,"2014-03-23T01:00:00","ND","ND","ND","ND","ND","ND","ND","ND","ND"],
    [1240,"2014-03-23T02:00:00","ND","ND","ND","ND","ND","ND","ND","ND","ND"],
    [1241,"2014-03-23T03:00:00","ND","ND","ND","ND","ND","ND","ND","ND","ND"],
    [1242,"2014-03-23T04:00:00","ND","ND","ND","ND","ND","ND","ND","ND","ND"],
    [1243,"2014-03-23T05:00:00","ND","ND","ND","ND","ND","ND","ND","ND","ND"],
    [1244,"2014-03-23T06:00:00","ND","ND","ND","ND","ND","ND","ND","ND","ND"],
    [1245,"2014-03-23T07:00:00","ND","ND","ND","ND","ND","ND","ND","ND","ND"],
    [1246,"2014-03-23T08:00:00","ND","ND","ND","ND","ND","ND","ND","ND","ND"],
    [1247,"2014-03-23T09:00:00","ND","ND","ND","ND","ND","ND","ND","ND","ND"],
    [1248,"2014-03-23T10:00:00","ND","ND","ND","ND","ND","ND","ND","ND","ND"],
    [1249,"2014-03-23T11:00:00","ND","ND","ND","ND","ND","ND","ND","ND","ND"],
    [1250,"2014-03-23T12:00:00","ND","ND","ND","ND","ND","ND","ND","ND","ND"],
    [1251,"2014-03-23T13:00:00","ND","ND","ND","ND","ND","ND","ND","ND","ND"],
    [1252,"2014-03-23T14:00:00","ND","ND","ND","ND","ND","ND","ND","ND","ND"],
    [1253,"2014-03-23T15:00:00","ND","ND","ND","ND","ND","ND","ND","ND","ND"],
    [1254,"2014-03-23T16:00:00","ND","ND","ND","ND","ND","ND","ND","ND","ND"],
    [1255,"2014-03-23T17:00:00","ND","ND","ND","ND","ND","ND","ND","ND","ND"],
    [1256,"2014-03-23T18:00:00","ND","ND","ND","ND","ND","ND","ND","ND","ND"],
    [1257,"2014-03-23T19:00:00","ND","ND","ND","ND","ND","ND","ND","ND","ND"],
    [1258,"2014-03-23T20:00:00","ND","ND","ND","ND","ND","ND","ND","ND","ND"],
    [1259,"2014-03-23T21:00:00","ND","ND","ND","ND","ND","ND","ND","ND","ND"],
    [1260,"2014-03-23T22:00:00","ND","ND","ND","ND","ND","ND","ND","ND","ND"],
    [1261,"2014-03-23T23:00:00","ND","ND","ND","ND","ND","ND","ND","ND","ND"],
    [1262,"2014-03-24T00:00:00","ND","ND","ND","ND","ND","ND","ND","ND","ND"],
    [1263,"2014-03-24T01:00:00","ND","ND","ND","ND","ND","ND","ND","ND","ND"],
    [1264,"2014-03-24T02:00:00","ND","ND","ND","ND","ND","ND","ND","ND","ND"],
    [1265,"2014-03-24T03:00:00","ND","ND","ND","ND","ND","ND","ND","ND","ND"],
    [1266,"2014-03-24T04:00:00","ND","ND","ND","ND","ND","ND","ND","ND","ND"],
    [1267,"2014-03-24T05:00:00","ND","ND","ND","ND","ND","ND","ND","ND","ND"],
    [1268,"2014-03-24T06:00:00","ND","ND","ND","ND","ND","ND","ND","ND","ND"],
    [1269,"2014-03-24T07:00:00","ND","ND","ND","ND","ND","ND","ND","ND","ND"],
    [1270,"2014-03-24T08:00:00","ND","ND","ND","ND","ND","ND","ND","ND","ND"],
    [1271,"2014-03-24T09:00:00","ND","ND","ND","ND","ND","ND","ND","ND","ND"],
    [1272,"2014-03-24T10:00:00","ND","ND","ND","ND","ND","ND","ND","ND","ND"],
    [1273,"2014-03-24T11:00:00","ND","ND","ND","ND","ND","ND","ND","ND","ND"],
    [1274,"2014-03-24T12:00:00","ND","ND","ND","ND","ND","ND","ND","ND","ND"],
    [1275,"2014-03-24T13:00:00","ND","ND","ND","ND","ND","ND","ND","ND","ND"],
    [1276,"2014-03-24T14:00:00","ND","ND","ND","ND","ND","ND","ND","ND","ND"],
    [1277,"2014-03-24T15:00:00","ND","ND","ND","ND","ND","ND","ND","ND","ND"],
    [1278,"2014-03-24T16:00:00","ND","ND","ND","ND","ND","ND","ND","ND","ND"],
    [1279,"2014-03-24T17:00:00","ND","ND","ND","ND","ND","ND","ND","ND","ND"],
    [1280,"2014-03-24T18:00:00","ND","ND","ND","ND","ND","ND","ND","ND","ND"],
    [1281,"2014-03-24T19:00:00","ND","ND","ND","ND","ND","ND","ND","ND","ND"],
    [1282,"2014-03-24T20:00:00","ND","ND","ND","ND","ND","ND","ND","ND","ND"],
    [1283,"2014-03-24T21:00:00","ND","ND","ND","ND","ND","ND","ND","ND","ND"],
    [1284,"2014-03-24T22:00:00","ND","ND","ND","ND","ND","ND","ND","ND","ND"],
    [1285,"2014-03-24T23:00:00","ND","ND","ND","ND","ND","ND","ND","ND","ND"],
    [1286,"2014-03-25T00:00:00","ND","ND","ND","ND","ND","ND","ND","ND","ND"],
    [1287,"2014-03-25T01:00:00","ND","ND","ND","ND","ND","ND","ND","ND","ND"],
    [1288,"2014-03-25T02:00:00","ND","ND","ND","ND","ND","ND","ND","ND","ND"],
    [1289,"2014-03-25T03:00:00","ND","ND","ND","ND","ND","ND","ND","ND","ND"],
    [1290,"2014-03-25T04:00:00","ND","ND","ND","ND","ND","ND","ND","ND","ND"],
    [1291,"2014-03-25T05:00:00","ND","ND","ND","ND","ND","ND","ND","ND","ND"],
    [1292,"2014-03-25T06:00:00","ND","ND","ND","ND","ND","ND","ND","ND","ND"],
    [1293,"2014-03-25T07:00:00","ND","ND","ND","ND","ND","ND","ND","ND","ND"],
    [1294,"2014-03-25T08:00:00","ND","ND","ND","ND","ND","ND","ND","ND","ND"],
    [1295,"2014-03-25T09:00:00","ND","ND","ND","ND","ND","ND","ND","ND","ND"],
    [1296,"2014-03-25T10:00:00","ND","ND","ND","ND","ND","ND","ND","ND","ND"],
    [1297,"2014-03-25T11:00:00","ND","ND","ND","ND","ND","ND","ND","ND","ND"],
    [1298,"2014-03-25T12:00:00","ND","ND","ND","ND","ND","ND","ND","ND","ND"],
    [1299,"2014-03-25T13:00:00","ND","ND","ND","ND","ND","ND","ND","ND","ND"],
    [1300,"2014-03-25T14:00:00","ND","ND","ND","ND","ND","ND","ND","ND","ND"],
    [1301,"2014-03-25T15:00:00","ND","ND","ND","ND","ND","ND","ND","ND","ND"],
    [1302,"2014-03-25T16:00:00","ND","ND","ND","ND","ND","ND","ND","ND","ND"],
    [1303,"2014-03-25T17:00:00","ND","ND","ND","ND","ND","ND","ND","ND","ND"],
    [1304,"2014-03-25T18:00:00","ND","ND","ND","ND","ND","ND","ND","ND","ND"],
    [1305,"2014-03-25T19:00:00","ND","ND","ND","ND","ND","ND","ND","ND","ND"],
    [1306,"2014-03-25T20:00:00","ND","ND","ND","ND","ND","ND","ND","ND","ND"],
    [1307,"2014-03-25T21:00:00","ND","ND","ND","ND","ND","ND","ND","ND","ND"],
    [1308,"2014-03-25T22:00:00","ND","ND","ND","ND","ND","ND","ND","ND","ND"],
    [1309,"2014-03-25T23:00:00","ND","ND","ND","ND","ND","ND","ND","ND","ND"],
    [1310,"2014-03-26T00:00:00","ND","ND","ND","ND","ND","ND","ND","ND","ND"],
    [1311,"2014-03-26T01:00:00","ND","ND","ND","ND","ND","ND","ND","ND","ND"],
    [1312,"2014-03-26T02:00:00","ND","ND","ND","ND","ND","ND","ND","ND","ND"],
    [1313,"2014-03-26T03:00:00","ND","ND","ND","ND","ND","ND","ND","ND","ND"],
    [1314,"2014-03-26T04:00:00","ND","ND","ND","ND","ND","ND","ND","ND","ND"],
    [1315,"2014-03-26T05:00:00","ND","ND","ND","ND","ND","ND","ND","ND","ND"],
    [1316,"2014-03-26T06:00:00","ND","ND","ND","ND","ND","ND","ND","ND","ND"],
    [1317,"2014-03-26T07:00:00","ND","ND","ND","ND","ND","ND","ND","ND","ND"],
    [1318,"2014-03-26T08:00:00","ND","ND","ND","ND","ND","ND","ND","ND","ND"],
    [1319,"2014-03-26T09:00:00","ND","ND","ND","ND","ND","ND","ND","ND","ND"],
    [1320,"2014-03-26T10:00:00","ND","ND","ND","ND","ND","ND","ND","ND","ND"],
    [1321,"2014-03-26T11:00:00","ND","ND","ND","ND","ND","ND","ND","ND","ND"],
    [1322,"2014-03-26T12:00:00","ND","ND","ND","ND","ND","ND","ND","ND","ND"],
    [1323,"2014-03-26T13:00:00","ND","ND","ND","ND","ND","ND","ND","ND","ND"],
    [1324,"2014-03-26T14:00:00","ND","ND","ND","ND","ND","ND","ND","ND","ND"],
    [1325,"2014-03-26T15:00:00","ND","ND","ND","ND","ND","ND","ND","ND","ND"],
    [1326,"2014-03-26T16:00:00","ND","ND","ND","ND","ND","ND","ND","ND","ND"],
    [1327,"2014-03-26T17:00:00","ND","ND","ND","ND","ND","ND","ND","ND","ND"],
    [1328,"2014-03-26T18:00:00","ND","ND","ND","ND","ND","ND","ND","ND","ND"],
    [1329,"2014-03-26T19:00:00","ND","ND","ND","ND","ND","ND","ND","ND","ND"],
    [1330,"2014-03-26T20:00:00","ND","ND","ND","ND","ND","ND","ND","ND","ND"],
    [1331,"2014-03-26T21:00:00","ND","ND","ND","ND","ND","ND","ND","ND","ND"],
    [1332,"2014-03-26T22:00:00","ND","ND","ND","ND","ND","ND","ND","ND","ND"],
    [1333,"2014-03-26T23:00:00","ND","ND","ND","ND","ND","ND","ND","ND","ND"],
    [1334,"2014-03-27T00:00:00","ND","ND","ND","ND","ND","ND","ND","ND","ND"],
    [1335,"2014-03-27T01:00:00","ND","ND","ND","ND","ND","ND","ND","ND","ND"],
    [1336,"2014-03-27T02:00:00","ND","ND","ND","ND","ND","ND","ND","ND","ND"],
    [1337,"2014-03-27T03:00:00","ND","ND","ND","ND","ND","ND","ND","ND","ND"],
    [1338,"2014-03-27T04:00:00","ND","ND","ND","ND","ND","ND","ND","ND","ND"],
    [1339,"2014-03-27T05:00:00","ND","ND","ND","ND","ND","ND","ND","ND","ND"],
    [1340,"2014-03-27T06:00:00","ND","ND","ND","ND","ND","ND","ND","ND","ND"],
    [1341,"2014-03-27T07:00:00","ND","ND","ND","ND","ND","ND","ND","ND","ND"],
    [1342,"2014-03-27T08:00:00","ND","ND","ND","ND","ND","ND","ND","ND","ND"],
    [1343,"2014-03-27T09:00:00","ND","ND","ND","ND","ND","ND","ND","ND","ND"],
    [1344,"2014-03-27T10:00:00","ND","ND","ND","ND","ND","ND","ND","ND","ND"],
    [1345,"2014-03-27T11:00:00","ND","ND","ND","ND","ND","ND","ND","ND","ND"],
    [1346,"2014-03-27T12:00:00","ND","ND","ND","ND","ND","ND","ND","ND","ND"],
    [1347,"2014-03-27T13:00:00","ND","ND","ND","ND","ND","ND","ND","ND","ND"],
    [1348,"2014-03-27T14:00:00","ND","ND","ND","ND","ND","ND","ND","ND","ND"],
    [1349,"2014-03-27T15:00:00","ND","ND","ND","ND","ND","ND","ND","ND","ND"],
    [1350,"2014-03-27T16:00:00","ND","ND","ND","ND","ND","ND","ND","ND","ND"],
    [1351,"2014-03-27T17:00:00","ND","ND","ND","ND","ND","ND","ND","ND","ND"],
    [1352,"2014-03-27T18:00:00","ND","ND","ND","ND","ND","ND","ND","ND","ND"],
    [1353,"2014-03-27T19:00:00","ND","ND","ND","ND","ND","ND","ND","ND","ND"],
    [1354,"2014-03-27T20:00:00","ND","ND","ND","ND","ND","ND","ND","ND","ND"],
    [1355,"2014-03-27T21:00:00","ND","ND","ND","ND","ND","ND","ND","ND","ND"],
    [1356,"2014-03-27T22:00:00","ND","ND","ND","ND","ND","ND","ND","ND","ND"],
    [1357,"2014-03-27T23:00:00","ND","ND","ND","ND","ND","ND","ND","ND","ND"],
    [1358,"2014-03-28T00:00:00","ND","ND","ND","ND","ND","ND","ND","ND","ND"],
    [1359,"2014-03-28T01:00:00","ND","ND","ND","ND","ND","ND","ND","ND","ND"],
    [1360,"2014-03-28T02:00:00","ND","ND","ND","ND","ND","ND","ND","ND","ND"],
    [1361,"2014-03-28T03:00:00","ND","ND","ND","ND","ND","ND","ND","ND","ND"],
    [1362,"2014-03-28T04:00:00","ND","ND","ND","ND","ND","ND","ND","ND","ND"],
    [1363,"2014-03-28T05:00:00","ND","ND","ND","ND","ND","ND","ND","ND","ND"],
    [1364,"2014-03-28T06:00:00","ND","ND","ND","ND","ND","ND","ND","ND","ND"],
    [1365,"2014-03-28T07:00:00","ND","ND","ND","ND","ND","ND","ND","ND","ND"],
    [1366,"2014-03-28T08:00:00","ND","ND","ND","ND","ND","ND","ND","ND","ND"],
    [1367,"2014-03-28T09:00:00","ND","ND","ND","ND","ND","ND","ND","ND","ND"],
    [1368,"2014-03-28T10:00:00","ND","ND","ND","ND","ND","ND","ND","ND","ND"],
    [1369,"2014-03-28T11:00:00","ND","ND","ND","ND","ND","ND","ND","ND","ND"],
    [1370,"2014-03-28T12:00:00","ND","ND","ND","ND","ND","ND","ND","ND","ND"],
    [1371,"2014-03-28T13:00:00","ND","ND","ND","ND","ND","ND","ND","ND","ND"],
    [1372,"2014-03-28T14:00:00","ND","ND","ND","ND","ND","ND","ND","ND","ND"],
    [1373,"2014-03-28T15:00:00","ND","ND","ND","ND","ND","ND","ND","ND","ND"],
    [1374,"2014-03-28T16:00:00","ND","ND","ND","ND","ND","ND","ND","ND","ND"],
    [1375,"2014-03-28T17:00:00","ND","ND","ND","ND","ND","ND","ND","ND","ND"],
    [1376,"2014-03-28T18:00:00","ND","ND","ND","ND","ND","ND","ND","ND","ND"],
    [1377,"2014-03-28T19:00:00","ND","ND","ND","ND","ND","ND","ND","ND","ND"],
    [1378,"2014-03-28T20:00:00","ND","ND","ND","ND","ND","ND","ND","ND","ND"],
    [1379,"2014-03-28T21:00:00","ND","ND","ND","ND","ND","ND","ND","ND","ND"],
    [1380,"2014-03-28T22:00:00","ND","ND","ND","ND","ND","ND","ND","ND","ND"],
    [1381,"2014-03-28T23:00:00","ND","ND","ND","ND","ND","ND","ND","ND","ND"],
    [1382,"2014-03-29T00:00:00","ND","ND","ND","ND","ND","ND","ND","ND","ND"],
    [1383,"2014-03-29T01:00:00","ND","ND","ND","ND","ND","ND","ND","ND","ND"],
    [1384,"2014-03-29T02:00:00","ND","ND","ND","ND","ND","ND","ND","ND","ND"],
    [1385,"2014-03-29T03:00:00","ND","ND","ND","ND","ND","ND","ND","ND","ND"],
    [1386,"2014-03-29T04:00:00","ND","ND","ND","ND","ND","ND","ND","ND","ND"],
    [1387,"2014-03-29T05:00:00","ND","ND","ND","ND","ND","ND","ND","ND","ND"],
    [1388,"2014-03-29T06:00:00","ND","ND","ND","ND","ND","ND","ND","ND","ND"],
    [1389,"2014-03-29T07:00:00","ND","ND","ND","ND","ND","ND","ND","ND","ND"],
    [1390,"2014-03-29T08:00:00","ND","ND","ND","ND","ND","ND","ND","ND","ND"],
    [1391,"2014-03-29T09:00:00","ND","ND","ND","ND","ND","ND","ND","ND","ND"],
    [1392,"2014-03-29T10:00:00","ND","ND","ND","ND","ND","ND","ND","ND","ND"],
    [1393,"2014-03-29T11:00:00","ND","ND","ND","ND","ND","ND","ND","ND","ND"],
    [1394,"2014-03-29T12:00:00","ND","ND","ND","ND","ND","ND","ND","ND","ND"],
    [1395,"2014-03-29T13:00:00","ND","ND","ND","ND","ND","ND","ND","ND","ND"],
    [1396,"2014-03-29T14:00:00","ND","ND","ND","ND","ND","ND","ND","ND","ND"],
    [1397,"2014-03-29T15:00:00","ND","ND","ND","ND","ND","ND","ND","ND","ND"],
    [1398,"2014-03-29T16:00:00","ND","ND","ND","ND","ND","ND","ND","ND","ND"],
    [1399,"2014-03-29T17:00:00","ND","ND","ND","ND","ND","ND","ND","ND","ND"],
    [1400,"2014-03-29T18:00:00","ND","ND","ND","ND","ND","ND","ND","ND","ND"],
    [1401,"2014-03-29T19:00:00","ND","ND","ND","ND","ND","ND","ND","ND","ND"],
    [1402,"2014-03-29T20:00:00","ND","ND","ND","ND","ND","ND","ND","ND","ND"],
    [1403,"2014-03-29T21:00:00","ND","ND","ND","ND","ND","ND","ND","ND","ND"],
    [1404,"2014-03-29T22:00:00","ND","ND","ND","ND","ND","ND","ND","ND","ND"],
    [1405,"2014-03-29T23:00:00","ND","ND","ND","ND","ND","ND","ND","ND","ND"],
    [1406,"2014-03-30T00:00:00","ND","ND","ND","ND","ND","ND","ND","ND","ND"],
    [1407,"2014-03-30T01:00:00","ND","ND","ND","ND","ND","ND","ND","ND","ND"],
    [1408,"2014-03-30T02:00:00","ND","ND","ND","ND","ND","ND","ND","ND","ND"],
    [1409,"2014-03-30T03:00:00","ND","ND","ND","ND","ND","ND","ND","ND","ND"],
    [1410,"2014-03-30T04:00:00","ND","ND","ND","ND","ND","ND","ND","ND","ND"],
    [1411,"2014-03-30T05:00:00","ND","ND","ND","ND","ND","ND","ND","ND","ND"],
    [1412,"2014-03-30T06:00:00","ND","ND","ND","ND","ND","ND","ND","ND","ND"],
    [1413,"2014-03-30T07:00:00","ND","ND","ND","ND","ND","ND","ND","ND","ND"],
    [1414,"2014-03-30T08:00:00","ND","ND","ND","ND","ND","ND","ND","ND","ND"],
    [1415,"2014-03-30T09:00:00","ND","ND","ND","ND","ND","ND","ND","ND","ND"],
    [1416,"2014-03-30T10:00:00","ND","ND","ND","ND","ND","ND","ND","ND","ND"],
    [1417,"2014-03-30T11:00:00","ND","ND","ND","ND","ND","ND","ND","ND","ND"],
    [1418,"2014-03-30T12:00:00","ND","ND","ND","ND","ND","ND","ND","ND","ND"],
    [1419,"2014-03-30T13:00:00","ND","ND","ND","ND","ND","ND","ND","ND","ND"],
    [1420,"2014-03-30T14:00:00","ND","ND","ND","ND","ND","ND","ND","ND","ND"],
    [1421,"2014-03-30T15:00:00","ND","ND","ND","ND","ND","ND","ND","ND","ND"],
    [1422,"2014-03-30T16:00:00","ND","ND","ND","ND","ND","ND","ND","ND","ND"],
    [1423,"2014-03-30T17:00:00","ND","ND","ND","ND","ND","ND","ND","ND","ND"],
    [1424,"2014-03-30T18:00:00","ND","ND","ND","ND","ND","ND","ND","ND","ND"],
    [1425,"2014-03-30T19:00:00","ND","ND","ND","ND","ND","ND","ND","ND","ND"],
    [1426,"2014-03-30T20:00:00","ND","ND","ND","ND","ND","ND","ND","ND","ND"],
    [1427,"2014-03-30T21:00:00","ND","ND","ND","ND","ND","ND","ND","ND","ND"],
    [1428,"2014-03-30T22:00:00","ND","ND","ND","ND","ND","ND","ND","ND","ND"],
    [1429,"2014-03-30T23:00:00","ND","ND","ND","ND","ND","ND","ND","ND","ND"],
    [1430,"2014-03-31T00:00:00","ND","ND","ND","ND","ND","ND","ND","ND","ND"],
    [1431,"2014-03-31T01:00:00","ND","ND","ND","ND","ND","ND","ND","ND","ND"],
    [1432,"2014-03-31T02:00:00","ND","ND","ND","ND","ND","ND","ND","ND","ND"],
    [1433,"2014-03-31T03:00:00","ND","ND","ND","ND","ND","ND","ND","ND","ND"],
    [1434,"2014-03-31T04:00:00","ND","ND","ND","ND","ND","ND","ND","ND","ND"],
    [1435,"2014-03-31T05:00:00","ND","ND","ND","ND","ND","ND","ND","ND","ND"],
    [1436,"2014-03-31T06:00:00","ND","ND","ND","ND","ND","ND","ND","ND","ND"],
    [1437,"2014-03-31T07:00:00","ND","ND","ND","ND","ND","ND","ND","ND","ND"],
    [1438,"2014-03-31T08:00:00","ND","ND","ND","ND","ND","ND","ND","ND","ND"],
    [1439,"2014-03-31T09:00:00","ND","ND","ND","ND","ND","ND","ND","ND","ND"],
    [1440,"2014-03-31T10:00:00","ND","ND","ND","ND","ND","ND","ND","ND","ND"],
    [1441,"2014-03-31T11:00:00","ND","ND","ND","ND","ND","ND","ND","ND","ND"],
    [1442,"2014-03-31T12:00:00","ND","ND","ND","ND","ND","ND","ND","ND","ND"],
    [1443,"2014-03-31T13:00:00","ND","ND","ND","ND","ND","ND","ND","ND","ND"],
    [1444,"2014-03-31T14:00:00","ND","ND","ND","ND","ND","ND","ND","ND","ND"],
    [1445,"2014-03-31T15:00:00","ND","ND","ND","ND","ND","ND","ND","ND","ND"],
    [1446,"2014-03-31T16:00:00","ND","ND","ND","ND","ND","ND","ND","ND","ND"],
    [1447,"2014-03-31T17:00:00","ND","ND","ND","ND","ND","ND","ND","ND","ND"],
    [1448,"2014-03-31T18:00:00","ND","ND","ND","ND","ND","ND","ND","ND","ND"],
    [1449,"2014-03-31T19:00:00","ND","ND","ND","ND","ND","ND","ND","ND","ND"],
    [1450,"2014-03-31T20:00:00","ND","ND","ND","ND","ND","ND","ND","ND","ND"],
    [1451,"2014-03-31T21:00:00","ND","ND","ND","ND","ND","ND","ND","ND","ND"],
    [1452,"2014-03-31T22:00:00","ND","ND","ND","ND","ND","ND","ND","ND","ND"],
    [1453,"2014-03-31T23:00:00","ND","ND","ND","ND","ND","ND","ND","ND","ND"],
    [1454,"2014-04-01T00:00:00","ND","ND","ND","ND","ND","ND","ND","ND","ND"],
    [1455,"2014-04-01T01:00:00","ND","ND","ND","ND","ND","ND","ND","ND","ND"],
    [1456,"2014-04-01T02:00:00","ND","ND","ND","ND","ND","ND","ND","ND","ND"],
    [1457,"2014-04-01T03:00:00","ND","ND","ND","ND","ND","ND","ND","ND","ND"],
    [1458,"2014-04-01T04:00:00","ND","ND","ND","ND","ND","ND","ND","ND","ND"],
    [1459,"2014-04-01T05:00:00","ND","ND","ND","ND","ND","ND","ND","ND","ND"],
    [1460,"2014-04-01T06:00:00","ND","ND","ND","ND","ND","ND","ND","ND","ND"],
    [1461,"2014-04-01T07:00:00","ND","ND","ND","ND","ND","ND","ND","ND","ND"],
    [1462,"2014-04-01T08:00:00","ND","ND","ND","ND","ND","ND","ND","ND","ND"],
    [1463,"2014-04-01T09:00:00","ND","ND","ND","ND","ND","ND","ND","ND","ND"],
    [1464,"2014-04-01T10:00:00","ND","ND","ND","ND","ND","ND","ND","ND","ND"],
    [1465,"2014-04-01T11:00:00","ND","ND","ND","ND","ND","ND","ND","ND","ND"],
    [1466,"2014-04-01T12:00:00","ND","ND","ND","ND","ND","ND","ND","ND","ND"],
    [1467,"2014-04-01T13:00:00","ND","ND","ND","ND","ND","ND","ND","ND","ND"],
    [1468,"2014-04-01T14:00:00","ND","ND","ND","ND","ND","ND","ND","ND","ND"],
    [1469,"2014-04-01T15:00:00","ND","ND","ND","ND","ND","ND","ND","ND","ND"],
    [1470,"2014-04-01T16:00:00","ND","ND","ND","ND","ND","ND","ND","ND","ND"],
    [1471,"2014-04-01T17:00:00","ND","ND","ND","ND","ND","ND","ND","ND","ND"],
    [1472,"2014-04-01T18:00:00","ND","ND","ND","ND","ND","ND","ND","ND","ND"],
    [1473,"2014-04-01T19:00:00","ND","ND","ND","ND","ND","ND","ND","ND","ND"],
    [1474,"2014-04-01T20:00:00","ND","ND","ND","ND","ND","ND","ND","ND","ND"],
    [1475,"2014-04-01T21:00:00","ND","ND","ND","ND","ND","ND","ND","ND","ND"],
    [1476,"2014-04-01T22:00:00","ND","ND","ND","ND","ND","ND","ND","ND","ND"],
    [1477,"2014-04-01T23:00:00","ND","ND","ND","ND","ND","ND","ND","ND","ND"],
    [1478,"2014-04-02T00:00:00","ND","ND","ND","ND","ND","ND","ND","ND","ND"],
    [1479,"2014-04-02T01:00:00","ND","ND","ND","ND","ND","ND","ND","ND","ND"],
    [1480,"2014-04-02T02:00:00","ND","ND","ND","ND","ND","ND","ND","ND","ND"],
    [1481,"2014-04-02T03:00:00","ND","ND","ND","ND","ND","ND","ND","ND","ND"],
    [1482,"2014-04-02T04:00:00","ND","ND","ND","ND","ND","ND","ND","ND","ND"],
    [1483,"2014-04-02T05:00:00","ND","ND","ND","ND","ND","ND","ND","ND","ND"],
    [1484,"2014-04-02T06:00:00","ND","ND","ND","ND","ND","ND","ND","ND","ND"],
    [1485,"2014-04-02T07:00:00","ND","ND","ND","ND","ND","ND","ND","ND","ND"],
    [1486,"2014-04-02T08:00:00","ND","ND","ND","ND","ND","ND","ND","ND","ND"],
    [1487,"2014-04-02T09:00:00","ND","ND","ND","ND","ND","ND","ND","ND","ND"],
    [1488,"2014-04-02T10:00:00","ND","ND","ND","ND","ND","ND","ND","ND","ND"],
    [1489,"2014-04-02T11:00:00","ND","ND","ND","ND","ND","ND","ND","ND","ND"],
    [1490,"2014-04-02T12:00:00","ND","ND","ND","ND","ND","ND","ND","ND","ND"],
    [1491,"2014-04-02T13:00:00","ND","ND","ND","ND","ND","ND","ND","ND","ND"],
    [1492,"2014-04-02T14:00:00","ND","ND","ND","ND","ND","ND","ND","ND","ND"],
    [1493,"2014-04-02T15:00:00","ND","ND","ND","ND","ND","ND","ND","ND","ND"],
    [1494,"2014-04-02T16:00:00","ND","ND","ND","ND","ND","ND","ND","ND","ND"],
    [1495,"2014-04-02T17:00:00","ND","ND","ND","ND","ND","ND","ND","ND","ND"],
    [1496,"2014-04-02T18:00:00","ND","ND","ND","ND","ND","ND","ND","ND","ND"],
    [1497,"2014-04-02T19:00:00","ND","ND","ND","ND","ND","ND","ND","ND","ND"],
    [1498,"2014-04-02T20:00:00","ND","ND","ND","ND","ND","ND","ND","ND","ND"],
    [1499,"2014-04-02T21:00:00","ND","ND","ND","ND","ND","ND","ND","ND","ND"],
    [1500,"2014-04-02T22:00:00","ND","ND","ND","ND","ND","ND","ND","ND","ND"],
    [1501,"2014-04-02T23:00:00","ND","ND","ND","ND","ND","ND","ND","ND","ND"],
    [1502,"2014-04-03T00:00:00","ND","ND","ND","ND","ND","ND","ND","ND","ND"],
    [1503,"2014-04-03T01:00:00","ND","ND","ND","ND","ND","ND","ND","ND","ND"],
    [1504,"2014-04-03T02:00:00","ND","ND","ND","ND","ND","ND","ND","ND","ND"],
    [1505,"2014-04-03T03:00:00","ND","ND","ND","ND","ND","ND","ND","ND","ND"],
    [1506,"2014-04-03T04:00:00","ND","ND","ND","ND","ND","ND","ND","ND","ND"],
    [1507,"2014-04-03T05:00:00","ND","ND","ND","ND","ND","ND","ND","ND","ND"],
    [1508,"2014-04-03T06:00:00","ND","ND","ND","ND","ND","ND","ND","ND","ND"],
    [1509,"2014-04-03T07:00:00","ND","ND","ND","ND","ND","ND","ND","ND","ND"],
    [1510,"2014-04-03T08:00:00","ND","ND","ND","ND","ND","ND","ND","ND","ND"],
    [1511,"2014-04-03T09:00:00","ND","ND","ND","ND","ND","ND","ND","ND","ND"],
    [1512,"2014-04-03T10:00:00","ND","ND","ND","ND","ND","ND","ND","ND","ND"],
    [1513,"2014-04-03T11:00:00","ND","ND","ND","ND","ND","ND","ND","ND","ND"],
    [1514,"2014-04-03T12:00:00","ND","ND","ND","4,4","91,8","27,3","61","272","ND"],
    [1515,"2014-04-03T13:00:00","ND","9","ND","2","119,9","28,4","56,9","399,7","ND"],
    [1516,"2014-04-03T14:00:00","ND","14","ND","4,2","125","29,3","53,3","315,2","ND"],
    [1517,"2014-04-03T15:00:00","ND","14","ND","6,8","152,8","28,7","57","146,1","ND"],
    [1518,"2014-04-03T16:00:00","ND","9","ND","7,3","221,6","25,6","61,6","37,6","ND"],
    [1519,"2014-04-03T17:00:00","ND","10","ND","1,4","258","25,6","59,3","27,9","ND"],
    [1520,"2014-04-03T18:00:00","ND","23","ND","2,8","96,6","25,5","64,6","25,2","ND"],
    [1521,"2014-04-03T19:00:00","ND","31","ND","2,5","52,9","25,1","68","9,8","ND"],
    [1522,"2014-04-03T20:00:00","ND","14","ND","1,8","279,6","24,8","68,6","0","ND"],
    [1523,"2014-04-03T21:00:00","ND","24","ND","2,6","204,8","24,2","74,2","0","ND"],
    [1524,"2014-04-03T22:00:00","ND","27","ND","1,9","113","23,4","78,1","0","ND"],
    [1525,"2014-04-03T23:00:00","ND","16","ND","3,1","105,5","22,3","82,3","0","ND"],
    [1526,"2014-04-04T00:00:00","ND","24","ND","2,7","222,5","22,1","83,1","0","ND"],
    [1527,"2014-04-04T01:00:00","ND","14","ND","2,5","238,9","22,1","83","0","ND"],
    [1528,"2014-04-04T02:00:00","ND","7","ND","2,5","240,6","22,3","81,9","0","ND"],
    [1529,"2014-04-04T03:00:00","ND","14","ND","1,5","200,9","22,1","79,2","0","ND"],
    [1530,"2014-04-04T04:00:00","ND","10","ND","2,2","124,4","20,9","84","0","ND"],
    [1531,"2014-04-04T05:00:00","ND","31","ND","2,3","81","19,9","90,1","0","ND"],
    [1532,"2014-04-04T06:00:00","ND","41","ND","0,7","303,1","20,5","88,7","0","ND"],
    [1533,"2014-04-04T07:00:00","ND","37","ND","2,5","221,2","20,9","87,1","35,8","ND"],
    [1534,"2014-04-04T08:00:00","ND","13","ND","1,5","233,4","21,7","82,8","142,3","ND"],
    [1535,"2014-04-04T09:00:00","ND","18","ND","1,4","102,3","23,9","73,7","275,1","ND"],
    [1536,"2014-04-04T10:00:00","ND","17","ND","1,7","151","25,8","64","395,9","ND"],
    [1537,"2014-04-04T11:00:00","ND","9","ND","2,2","95,7","27,8","55,8","485,3","ND"],
    [1538,"2014-04-04T12:00:00","ND","5","ND","2,3","84","29","48,9","537,5","ND"],
    [1539,"2014-04-04T13:00:00","ND","8","ND","3,4","90,1","30,7","44,2","535,8","ND"],
    [1540,"2014-04-04T14:00:00","ND","7","ND","3,7","79,5","31,7","40,6","494,4","ND"],
    [1541,"2014-04-04T15:00:00","ND","19","ND","4,3","44","32,5","40,3","327","ND"],
    [1542,"2014-04-04T16:00:00","ND","10","ND","4,8","331","31,7","42,9","151","ND"],
    [1543,"2014-04-04T17:00:00","ND","6","ND","8,2","291,4","30,8","44,5","138,9","ND"],
    [1544,"2014-04-04T18:00:00","ND","2","ND","6,1","296,5","30,3","45,6","47","ND"],
    [1545,"2014-04-04T19:00:00","ND","4","ND","3,6","303,6","28,8","51,9","10,2","ND"],
    [1546,"2014-04-04T20:00:00","ND","32","ND","4,8","82,9","27,4","57,8","0","ND"],
    [1547,"2014-04-04T21:00:00","ND","25","ND","3,3","108,2","26,4","60,3","0","ND"],
    [1548,"2014-04-04T22:00:00","ND","17","ND","2,7","188,9","25,8","62,2","0","ND"],
    [1549,"2014-04-04T23:00:00","ND","10","ND","3","197","25,7","61,9","0","ND"],
    [1550,"2014-04-05T00:00:00","ND","6","ND","2,5","200,9","25,3","63,8","0","ND"],
    [1551,"2014-04-05T01:00:00","ND","34","ND","2","167,2","24,1","72","0","ND"],
    [1552,"2014-04-05T02:00:00","ND","9","ND","3,3","200,7","23,7","75","0","ND"],
    [1553,"2014-04-05T03:00:00","ND","9","ND","1,9","131,6","23","79,1","0","ND"],
    [1554,"2014-04-05T04:00:00","ND","11","ND","2,4","149,4","23","79,3","0","ND"],
    [1555,"2014-04-05T05:00:00","ND","10","ND","1,4","173,2","22,8","81,1","0","ND"],
    [1556,"2014-04-05T06:00:00","ND","9","ND","2,2","131,4","22,8","81,3","0","ND"],
    [1557,"2014-04-05T07:00:00","ND","25","ND","1,5","65,1","22,7","81,6","23,5","ND"],
    [1558,"2014-04-05T08:00:00","ND","26","ND","1,6","158,8","23,7","77,3","132,5","ND"],
    [1559,"2014-04-05T09:00:00","ND","11","ND","2,9","168,9","25,6","68","218,9","ND"],
    [1560,"2014-04-05T10:00:00","ND","17","ND","1,7","177,4","26,3","66","298","ND"],
    [1561,"2014-04-05T11:00:00","ND","13","ND","1,8","121","28,6","56,4","479,6","ND"],
    [1562,"2014-04-05T12:00:00","ND","10","ND","2,3","114,8","30","48,6","530,2","ND"],
    [1563,"2014-04-05T13:00:00","ND","14","ND","2,9","110","31,3","43,1","534,4","ND"],
    [1564,"2014-04-05T14:00:00","ND","19","ND","3,4","91","32,3","40,2","459,3","ND"],
    [1565,"2014-04-05T15:00:00","ND","19","ND","3,5","73,6","33","39","375,6","ND"],
    [1566,"2014-04-05T16:00:00","ND","16","ND","2,5","339,7","32,8","41","183,6","ND"],
    [1567,"2014-04-05T17:00:00","ND","7","ND","8,3","319","30,9","46,5","137,8","ND"],
    [1568,"2014-04-05T18:00:00","ND","3","ND","8,8","310,8","29,8","50,6","48","ND"],
    [1569,"2014-04-05T19:00:00","ND","1","ND","5,1","323,4","29,1","52,1","10,5","ND"],
    [1570,"2014-04-05T20:00:00","ND","19","ND","4,4","78,2","27,3","61,8","0","ND"],
    [1571,"2014-04-05T21:00:00","ND","5","ND","2,2","146,6","26,9","64,3","0","ND"],
    [1572,"2014-04-05T22:00:00","ND","4","ND","4,6","198,5","26,3","66,1","0","ND"],
    [1573,"2014-04-05T23:00:00","ND","10","ND","2,5","142,2","25,9","66,5","0","ND"],
    [1574,"2014-04-06T00:00:00","ND","9","ND","2,3","78,6","25,7","68,3","0","ND"],
    [1575,"2014-04-06T01:00:00","ND","21","ND","1,6","62,6","25,1","73,4","0","ND"],
    [1576,"2014-04-06T02:00:00","ND","11","ND","2,1","170,9","24,7","72,1","0","ND"],
    [1577,"2014-04-06T03:00:00","ND","5","ND","2,5","137,2","23,2","78,4","0","ND"],
    [1578,"2014-04-06T04:00:00","ND","ND","ND","2,1","143,6","22,5","82","0","ND"],
    [1579,"2014-04-06T05:00:00","ND","2","ND","1,8","164,5","22,6","82,2","0","ND"],
    [1580,"2014-04-06T06:00:00","ND","8","ND","2,6","157,5","21,8","84,3","0","ND"],
    [1581,"2014-04-06T07:00:00","ND","6","ND","1,6","249,5","21,8","84,6","45,6","ND"],
    [1582,"2014-04-06T08:00:00","ND","9","ND","0,9","138,5","24,4","74,1","156,2","ND"],
    [1583,"2014-04-06T09:00:00","ND","9","ND","3,6","173,9","26,1","66,4","292,4","ND"],
    [1584,"2014-04-06T10:00:00","ND","8","ND","2,3","133,9","27,5","60,9","402","ND"],
    [1585,"2014-04-06T11:00:00","ND","4","ND","2,6","80,6","28,7","56,3","435,3","ND"],
    [1586,"2014-04-06T12:00:00","ND","1","ND","1,5","101,1","29,9","49,8","520,3","ND"],
    [1587,"2014-04-06T13:00:00","ND","4","ND","3,2","46,7","31,3","44,4","510,9","ND"],
    [1588,"2014-04-06T14:00:00","ND","8","ND","4,9","108,9","32,2","40,5","382,1","ND"],
    [1589,"2014-04-06T15:00:00","ND","8","ND","4,2","98,1","32,8","39,3","373,7","ND"],
    [1590,"2014-04-06T16:00:00","ND","7","ND","3,3","85,4","32,7","40,3","211,6","ND"],
    [1591,"2014-04-06T17:00:00","ND","5","ND","4,4","357,2","32,3","42,9","169,2","ND"],
    [1592,"2014-04-06T18:00:00","ND","5","ND","5,4","313,5","30,6","47,3","48,3","ND"],
    [1593,"2014-04-06T19:00:00","ND","5","ND","5","301,3","29,3","50,9","10,8","ND"],
    [1594,"2014-04-06T20:00:00","ND","5","ND","3,7","312,6","28,9","51,7","0","ND"],
    [1595,"2014-04-06T21:00:00","ND","10","ND","3,1","105,1","27,4","60,1","0","ND"],
    [1596,"2014-04-06T22:00:00","ND","7","ND","3,3","110,4","26,3","67,1","0","ND"],
    [1597,"2014-04-06T23:00:00","ND","13","ND","4,3","64,7","26,2","66,2","0","ND"],
    [1598,"2014-04-07T00:00:00","ND","6","ND","2,2","100,8","25,7","67,3","0","ND"],
    [1599,"2014-04-07T01:00:00","ND","ND","ND","2,1","113,4","24,8","72","0","ND"],
    [1600,"2014-04-07T02:00:00","ND","ND","ND","3,4","98","24,3","72,8","0","ND"],
    [1601,"2014-04-07T03:00:00","ND","ND","ND","3,3","92,9","23,7","79","0","ND"],
    [1602,"2014-04-07T04:00:00","ND","ND","ND","1,2","102,6","23,8","77,1","0","ND"],
    [1603,"2014-04-07T05:00:00","ND","4","ND","1,4","171,9","24,1","76,2","0","ND"],
    [1604,"2014-04-07T06:00:00","ND","11","ND","2,3","80,7","23,7","80,1","0","ND"],
    [1605,"2014-04-07T07:00:00","ND","6","ND","1,5","17,8","22,1","89,8","31,6","ND"],
    [1606,"2014-04-07T08:00:00","ND","2","ND","0,6","313,3","23,6","83,1","156,6","ND"],
    [1607,"2014-04-07T09:00:00","ND","9","ND","1,6","125,2","24,4","81","197,6","ND"],
    [1608,"2014-04-07T10:00:00","ND","8","ND","2,5","105","25,7","75,9","232,1","ND"],
    [1609,"2014-04-07T11:00:00","ND","5","ND","3,1","108,7","27,4","65,1","479,4","ND"],
    [1610,"2014-04-07T12:00:00","ND","2","ND","3,2","105,4","28,6","58,2","455,2","ND"],
    [1611,"2014-04-07T13:00:00","ND","7","ND","4","115","29,2","58,1","370,1","ND"],
    [1612,"2014-04-07T14:00:00","ND","15","ND","4","97,3","30,2","53,9","477,5","ND"],
    [1613,"2014-04-07T15:00:00","ND","3","ND","5,4","8,2","30,1","53","261,3","ND"],
    [1614,"2014-04-07T16:00:00","ND","6","65,27","3,5","3,1","30,1","52","223,2","0"],
    [1615,"2014-04-07T17:00:00","ND","7","115,84","1,5","323,3","30,5","49,7","180,2","0"],
    [1616,"2014-04-07T18:00:00","ND","5","49,88","6","293,4","29,8","47,8","37,4","0"],
    [1617,"2014-04-07T19:00:00","ND","2","24,84","5,3","302,6","28,5","51,9","10,8","0"],
    [1618,"2014-04-07T20:00:00","ND","17","6,77","1,6","61,5","27,3","59,8","0","0"],
    [1619,"2014-04-07T21:00:00","ND","11","3,85","3,7","85,1","25,9","68,4","0","0"],
    [1620,"2014-04-07T22:00:00","ND","8","8,85","2,5","64,4","25","69,4","0","0"],
    [1621,"2014-04-07T23:00:00","ND","6","7,01","3,4","63","24,1","72,7","0","0"],
    [1622,"2014-04-08T00:00:00","ND","4","5,48","0,4","47","24,1","72","0","0"],
    [1623,"2014-04-08T01:00:00","ND","3","4,14","1,9","144,4","23,7","75,2","0","0"],
    [1624,"2014-04-08T02:00:00","ND","9","5,08","1,6","163,3","23,7","74,6","0","0"],
    [1625,"2014-04-08T03:00:00","ND","6","8,07","1,6","216,8","24","74,1","0","0"],
    [1626,"2014-04-08T04:00:00","ND","ND","3,1","2","146,1","23,4","80,2","0","0"],
    [1627,"2014-04-08T05:00:00","ND","ND","0,75","1,4","185,2","23","82,4","0","0"],
    [1628,"2014-04-08T06:00:00","ND","15","0,35","2,1","86,3","22,8","83,5","0","0"],
    [1629,"2014-04-08T07:00:00","ND","23","0,57","2,1","92,7","22,5","83,6","17,5","0"],
    [1630,"2014-04-08T08:00:00","ND","12","3,63","1,3","39,9","23","81","95,1","0"],
    [1631,"2014-04-08T09:00:00","ND","10","12,09","2,6","95,8","24,4","75,7","247,1","0"],
    [1632,"2014-04-08T10:00:00","ND","7","36,77","2,3","177,8","26,5","66,4","345,6","0"],
    [1633,"2014-04-08T11:00:00","ND","4","61,15","4,2","185,6","28,3","57,9","471,8","0"],
    [1634,"2014-04-08T12:00:00","ND","2","81,91","3,8","185,5","29,7","52,9","516","0"],
    [1635,"2014-04-08T13:00:00","ND","6","100,83","4,1","156,2","30,7","50,4","411,7","0"],
    [1636,"2014-04-08T14:00:00","ND","15","114,03","2,6","143,3","30,9","50","519,1","0"],
    [1637,"2014-04-08T15:00:00","ND","14","129,99","2,9","78,1","31,5","47,2","364,5","0"],
    [1638,"2014-04-08T16:00:00","ND","14","102,38","7,1","53,5","28,9","57,5","99,1","1,02"],
    [1639,"2014-04-08T17:00:00","ND","8","43,03","6,7","347,5","23,6","77,2","23,6","0,51"],
    [1640,"2014-04-08T18:00:00","ND","10","23,71","2,7","135,8","23,9","78,2","14,4","0"],
    [1641,"2014-04-08T19:00:00","ND","13","35,64","3,4","209,8","24,5","71,1","0","0"],
    [1642,"2014-04-08T20:00:00","ND","19","30,61","2,9","200,3","24,8","67,8","0","0"],
    [1643,"2014-04-08T21:00:00","ND","17","16,88","2,8","151","23,4","75,2","0","0"],
    [1644,"2014-04-08T22:00:00","ND","23","6,73","1,3","108","22,8","79,3","0","0"],
    [1645,"2014-04-08T23:00:00","ND","35","1,94","2,1","52,7","22,7","81,2","0","0"],
    [1646,"2014-04-09T00:00:00","ND","16","4,83","0,7","155,2","22,3","82,1","0","0"],
    [1647,"2014-04-09T01:00:00","ND","19","8,54","2,9","112,9","22,3","81,9","0","0"],
    [1648,"2014-04-09T02:00:00","ND","33","4,38","1,6","191,9","21,8","84,1","0","0"],
    [1649,"2014-04-09T03:00:00","ND","17","4,77","1,5","189,1","21,9","84,3","0","0"],
    [1650,"2014-04-09T04:00:00","ND","8","1,47","0,5","168,5","22","84,3","0","0"],
    [1651,"2014-04-09T05:00:00","ND","17","0,73","1,4","91,3","21,8","85,9","0","0"],
    [1652,"2014-04-09T06:00:00","ND","34","0,92","2,1","89","21,2","88,1","0","0"],
    [1653,"2014-04-09T07:00:00","ND","40","1,33","2","121,6","21,6","87,2","42,3","0"],
    [1654,"2014-04-09T08:00:00","ND","26","4,4","2","117,3","22,6","83,4","123,6","0"],
    [1655,"2014-04-09T09:00:00","ND","27","23,2","2,3","89,8","24,5","76","311,4","0"],
    [1656,"2014-04-09T10:00:00","ND","33","60,28","2,1","119,8","25,9","68,6","388","0"],
    [1657,"2014-04-09T11:00:00","ND","20","90,09","1,7","131,8","27,6","61,3","506","0"],
    [1658,"2014-04-09T12:00:00","ND","12","99,37","1,9","95,4","29,1","53,8","540,7","0"],
    [1659,"2014-04-09T13:00:00","ND","17","91,01","4,9","96,5","29,6","50,7","246,4","0"],
    [1660,"2014-04-09T14:00:00","ND","ND","95,21","4,5","102,8","30","51,1","289,7","0"],
    [1661,"2014-04-09T15:00:00","ND","9","86,78","3,6","349","30","50,1","307,8","0"],
    [1662,"2014-04-09T16:00:00","ND","4","76,08","6,1","299,2","30,5","46,5","310,9","0"],
    [1663,"2014-04-09T17:00:00","ND","1","58,97","3,6","315,5","29,5","48,9","87,5","0"],
    [1664,"2014-04-09T18:00:00","ND","20","33,07","4,5","75,5","25,6","75,9","17,9","0"],
    [1665,"2014-04-09T19:00:00","ND","19","17,41","2,8","112,5","25,9","67,6","0","0"],
    [1666,"2014-04-09T20:00:00","ND","15","24,47","3,6","165,7","25,1","70,9","0","0"],
    [1667,"2014-04-09T21:00:00","ND","7","23,21","3,8","200,8","24,1","79,3","0","0"],
    [1668,"2014-04-09T22:00:00","ND","17","37,91","3,3","210,2","23,4","79,5","0","0"],
    [1669,"2014-04-09T23:00:00","ND","6","36,68","3,2","214,6","23,8","77,3","0","0"],
    [1670,"2014-04-10T00:00:00","ND","3","30,46","1,5","185,7","23,5","79,4","0","0"],
    [1671,"2014-04-10T01:00:00","ND","6","13,27","1,8","115,5","22,2","86,4","0","0"],
    [1672,"2014-04-10T02:00:00","ND","19","11,3","1,9","71,1","22,3","85,8","0","0"],
    [1673,"2014-04-10T03:00:00","ND","13","15,7","1,7","70,9","22","86,2","0","0"],
    [1674,"2014-04-10T04:00:00","ND","6","17,88","1,1","177,6","22,2","85","0","0"],
    [1675,"2014-04-10T05:00:00","ND","20","13,21","0,7","107,5","22,1","85,8","0","0"],
    [1676,"2014-04-10T06:00:00","ND","28","2,41","2,3","36,6","21,7","87,1","0","0"],
    [1677,"2014-04-10T07:00:00","ND","23","2,37","2,7","58,5","21,6","87,2","15,8","0"],
    [1678,"2014-04-10T08:00:00","ND","ND","9,52","3","17,1","21,9","85,2","74,8","0"],
    [1679,"2014-04-10T09:00:00","ND","2","26,53","2,9","31,7","23,7","77,7","283,7","0"],
    [1680,"2014-04-10T10:00:00","ND","5","42,82","2,8","93,4","25,4","70,1","406,3","0"],
    [1681,"2014-04-10T11:00:00","ND","ND","65,43","3,1","122,2","27,1","63","459,9","0"],
    [1682,"2014-04-10T12:00:00","ND","ND","90,74","1,7","179,8","28,6","55,4","494,1","0"],
    [1683,"2014-04-10T13:00:00","ND","ND","93,84","2","204","30,3","46,4","538,3","0"],
    [1684,"2014-04-10T14:00:00","ND","5","87,09","3,4","99","31,2","43,5","498,3","0"],
    [1685,"2014-04-10T15:00:00","ND","20","91,8","4,9","74,2","31,9","43,1","422,2","0"],
    [1686,"2014-04-10T16:00:00","ND","21","120,06","4,4","53,3","32,1","42,9","297,9","0"],
    [1687,"2014-04-10T17:00:00","ND","22","108,95","4,5","28,9","32","43,8","158","0"],
    [1688,"2014-04-10T18:00:00","ND","11","48,27","4,2","323,9","30,7","45,4","54,5","0"],
    [1689,"2014-04-10T19:00:00","ND","11","26,85","5,4","304","29","50,5","10,2","0"],
    [1690,"2014-04-10T20:00:00","ND","65","12,11","2,9","38,3","27,9","55,8","0","0"],
    [1691,"2014-04-10T21:00:00","ND","35","5,87","2,8","84,6","25,9","67,9","0","0"],
    [1692,"2014-04-10T22:00:00","ND","17","7,1","2,3","96,5","25,6","68,1","0","0"],
    [1693,"2014-04-10T23:00:00","ND","9","7,34","2","124,9","24,7","72,3","0","0"],
    [1694,"2014-04-11T00:00:00","ND","17","3,94","2,1","140,5","24,5","74","0","0"],
    [1695,"2014-04-11T01:00:00","ND","33","4,95","2,9","136,1","23,9","76,9","0","0"],
    [1696,"2014-04-11T02:00:00","ND","14","5,22","2","118,6","23,1","79,8","0","0"],
    [1697,"2014-04-11T03:00:00","ND","16","7,52","1,8","93,3","23,3","78,7","0","0"],
    [1698,"2014-04-11T04:00:00","ND","11","9,77","2,1","116,9","23,2","79,4","0","0"],
    [1699,"2014-04-11T05:00:00","ND","20","6,71","1,6","198,9","23","81","0","0"],
    [1700,"2014-04-11T06:00:00","ND","25","2,59","1,9","180,1","22,9","81","0","0"],
    [1701,"2014-04-11T07:00:00","ND","38","2,87","1,6","143,3","22,8","82","31,9","0"],
    [1702,"2014-04-11T08:00:00","ND","23","12,34","1,9","162,6","24","76,7","110,3","0"],
    [1703,"2014-04-11T09:00:00","ND","16","30,48","3,3","179,4","25,2","70,9","241,9","0"],
    [1704,"2014-04-11T10:00:00","ND","20","55,5","3","207","26,7","65,7","323","0"],
    [1705,"2014-04-11T11:00:00","ND","20","82,67","0,5","199,1","28,1","59,5","369,2","0"],
    [1706,"2014-04-11T12:00:00","ND","17","100,04","1,7","107,1","29,2","54,7","416","0"],
    [1707,"2014-04-11T13:00:00","ND","20","95,94","3,6","92,3","30,3","49,2","465,8","0"],
    [1708,"2014-04-11T14:00:00","ND","17","102,85","3,8","94,6","31,6","44,7","474,4","0"],
    [1709,"2014-04-11T15:00:00","ND","17","142,27","2,4","95,3","32,6","41","402","0"],
    [1710,"2014-04-11T16:00:00","ND","27","143,14","3,7","349,8","32,7","41,7","240,6","0"],
    [1711,"2014-04-11T17:00:00","ND","14","77,65","6,6","316,8","32","42,3","185","0"],
    [1712,"2014-04-11T18:00:00","ND","20","50,24","5,9","311,4","30,9","44,2","66,2","0"],
    [1713,"2014-04-11T19:00:00","ND","11","35,48","5,9","309,4","29,1","49,9","10,4","0"],
    [1714,"2014-04-11T20:00:00","ND","30","11,17","1,8","56,5","28","56,1","0","0"],
    [1715,"2014-04-11T21:00:00","ND","25","7,97","3,2","104,7","26,1","66","0","0"],
    [1716,"2014-04-11T22:00:00","ND","15","12,09","3,4","105,3","25,5","68,3","0","0"],
    [1717,"2014-04-11T23:00:00","ND","13","16,92","4","82,3","25","70,7","0","0"],
    [1718,"2014-04-12T00:00:00","ND","13","16,41","2","85,1","24,8","71,4","0","0"],
    [1719,"2014-04-12T01:00:00","ND","10","17,99","3,1","185","24,6","72,8","0","0"],
    [1720,"2014-04-12T02:00:00","ND","13","10,87","2,6","190,4","24,2","75,9","0","0"],
    [1721,"2014-04-12T03:00:00","ND","16","7,95","1,6","155,8","23,8","78,1","0","0"],
    [1722,"2014-04-12T04:00:00","ND","23","7,81","1,9","176,5","23,6","78,9","0","0"],
    [1723,"2014-04-12T05:00:00","ND","26","1,49","1,8","141","22,7","84,2","0","0"],
    [1724,"2014-04-12T06:00:00","ND","25","2,39","1,7","190,4","23,1","81,6","9,9","0"],
    [1725,"2014-04-12T07:00:00","ND","28","3,3","2,7","118,2","22,7","80,8","32,9","0"],
    [1726,"2014-04-12T08:00:00","ND","27","7,01","2,3","164,7","23,4","78,7","87,5","0"],
    [1727,"2014-04-12T09:00:00","ND","23","11,22","0,9","153","24,2","75,6","134,4","0"],
    [1728,"2014-04-12T10:00:00","ND","26","38,76","3,5","82,1","26,5","66,5","357,7","0"],
    [1729,"2014-04-12T11:00:00","ND","20","58,26","3,7","86,2","27,6","60,2","335,9","0"],
    [1730,"2014-04-12T12:00:00","ND","24","83,58","3,2","94,5","28,5","56,1","266,5","0"],
    [1731,"2014-04-12T13:00:00","ND","25","92,64","3,2","108","29,1","53,5","278,1","0"],
    [1732,"2014-04-12T14:00:00","ND","26","118,68","2,9","99,9","29,9","50,2","302,7","0"],
    [1733,"2014-04-12T15:00:00","ND","16","86,66","3,7","35,7","29,7","50,9","82,1","0"],
    [1734,"2014-04-12T16:00:00","ND","13","60,87","5,8","305,2","27,2","59,6","88,8","0"],
    [1735,"2014-04-12T17:00:00","ND","12","39,95","4,8","299,5","27,9","56,3","82,1","0"],
    [1736,"2014-04-12T18:00:00","ND","8","27,38","4,3","307,5","28,1","53,4","42,9","0"],
    [1737,"2014-04-12T19:00:00","ND","12","7,91","3,4","317,4","27,4","54,6","10,3","0"],
    [1738,"2014-04-12T20:00:00","ND","27","7,36","1,4","61,3","26,4","61","0","0"],
    [1739,"2014-04-12T21:00:00","ND","14","12,25","3,6","63,5","24,8","68,7","0","0"],
    [1740,"2014-04-12T22:00:00","ND","15","9,79","1","37,5","24,8","66,4","0","0"],
    [1741,"2014-04-12T23:00:00","ND","14","9,99","0,5","88","24,4","67,8","0","0"],
    [1742,"2014-04-13T00:00:00","ND","31","4,71","1,9","129,5","23,4","73,4","0","0"],
    [1743,"2014-04-13T01:00:00","ND","24","3,38","1,3","123,3","22,7","77,1","0","0"],
    [1744,"2014-04-13T02:00:00","ND","22","2,41","2,6","236,1","22,6","77,9","0","0"],
    [1745,"2014-04-13T03:00:00","ND","32","4,16","2,1","191,9","22,5","80,2","0","0"],
    [1746,"2014-04-13T04:00:00","ND","19","1,88","1,6","91","21,4","84,1","0","0"],
    [1747,"2014-04-13T05:00:00","ND","18","1,79","1,6","59,5","20,6","87,2","0","0"],
    [1748,"2014-04-13T06:00:00","ND","46","2,22","2","63,7","20,7","86,8","0","0"],
    [1749,"2014-04-13T07:00:00","ND","24","1,98","1,7","73,6","20,6","86,4","36,5","0"],
    [1750,"2014-04-13T08:00:00","ND","27","12,09","1,1","42,8","22,2","80,9","143,9","0"],
    [1751,"2014-04-13T09:00:00","ND","27","25,77","2,2","119,9","24","74,4","276,3","0"],
    [1752,"2014-04-13T10:00:00","ND","19","54,18","1,7","134,4","26,1","63,9","401,9","0"],
    [1753,"2014-04-13T11:00:00","ND","17","83,44","1,7","62,1","27,8","56,9","490,3","0"],
    [1754,"2014-04-13T12:00:00","ND","17","116,17","4,2","103,1","29","52,4","530,6","0"],
    [1755,"2014-04-13T13:00:00","ND","23","143,27","4,3","84,7","30,3","49,2","497,6","0"],
    [1756,"2014-04-13T14:00:00","ND","14","127,79","3,7","55,2","31,4","45,2","484,8","0"],
    [1757,"2014-04-13T15:00:00","ND","14","96,73","3,6","21","31,6","43,9","197,4","0"],
    [1758,"2014-04-13T16:00:00","ND","8","78,81","5,4","328,6","31,4","42,1","244,9","0"],
    [1759,"2014-04-13T17:00:00","ND","5","65,8","5,9","313,1","30,8","42,7","147,5","0"],
    [1760,"2014-04-13T18:00:00","ND","6","52,65","6,5","306,2","29,2","47,2","41,1","0"],
    [1761,"2014-04-13T19:00:00","ND","8","39,62","4,5","304,2","28,7","48","10,3","0"],
    [1762,"2014-04-13T20:00:00","ND","12","16,99","1,3","351,6","28,1","51,1","0","0"],
    [1763,"2014-04-13T21:00:00","ND","18","13,48","3,3","104,5","26,5","60,7","0","0"],
    [1764,"2014-04-13T22:00:00","ND","30","9,44","2,8","81,2","25,1","67,5","0","0"],
    [1765,"2014-04-13T23:00:00","ND","8","9,71","2,3","56","24,7","69,4","0","0"],
    [1766,"2014-04-14T00:00:00","ND","26","11,34","0,9","213,7","24,6","69,4","0","0"],
    [1767,"2014-04-14T01:00:00","ND","14","11,15","1,2","277,1","24","72,4","0","0"],
    [1768,"2014-04-14T02:00:00","ND","29","7,81","1,6","218,9","24,3","72","0","0"],
    [1769,"2014-04-14T03:00:00","ND","14","3,22","2,7","107,8","22,6","80,2","0","0"],
    [1770,"2014-04-14T04:00:00","ND","17","5,99","0,5","49,6","23","78,2","0","0"],
    [1771,"2014-04-14T05:00:00","ND","17","2,9","1,2","155,5","22,9","79","0","0"],
    [1772,"2014-04-14T06:00:00","ND","27","2,98","1,2","125,7","23,1","77,4","0","0"],
    [1773,"2014-04-14T07:00:00","ND","28","3,38","1,6","171,4","22,9","79,8","15,1","0"],
    [1774,"2014-04-14T08:00:00","ND","22","7,83","1,4","165,2","23,4","78,2","81,9","0"],
    [1775,"2014-04-14T09:00:00","ND","19","23,59","2,2","118,3","24,7","72,2","230,9","0"],
    [1776,"2014-04-14T10:00:00","ND","16","52,57","1,3","137,5","27","61,9","392,3","0"],
    [1777,"2014-04-14T11:00:00","ND","15","67,35","4","112,3","27,8","58,5","311,4","0"],
    [1778,"2014-04-14T12:00:00","ND","19","87,15","2,5","106,3","29,4","51,7","532,7","0"],
    [1779,"2014-04-14T13:00:00","ND","15","ND","2","33,4","30,8","44,5","519,2","0"],
    [1780,"2014-04-14T14:00:00","ND","23","ND","3,5","80,3","32","42,5","459,7","0"],
    [1781,"2014-04-14T15:00:00","ND","12","ND","4,7","34,3","32,4","41,7","261","0"],
    [1782,"2014-04-14T16:00:00","ND","12","ND","5,5","304,4","31,7","41,8","224,9","0"],
    [1783,"2014-04-14T17:00:00","ND","12","ND","7,2","308,6","29,8","46,1","53","0"],
    [1784,"2014-04-14T18:00:00","ND","8","ND","6,7","305,5","29,4","47,8","52,5","0"],
    [1785,"2014-04-14T19:00:00","ND","14","ND","1,9","326,7","28,6","52","12,5","0"],
    [1786,"2014-04-14T20:00:00","ND","47","ND","3,8","139,6","27,3","60,4","0","0"],
    [1787,"2014-04-14T21:00:00","ND","30","ND","4,1","221,6","26,1","68,9","0","0"],
    [1788,"2014-04-14T22:00:00","ND","25","ND","3,1","220,3","26,3","65,2","0","0"],
    [1789,"2014-04-14T23:00:00","ND","30","ND","2","145,1","25,4","70,5","0","0"],
    [1790,"2014-04-15T00:00:00","ND","26","ND","0,9","202,7","24,7","74,7","0","0"],
    [1791,"2014-04-15T01:00:00","ND","21","ND","3","170,5","24,6","74","0","0"],
    [1792,"2014-04-15T02:00:00","ND","18","ND","2,5","176,1","24,2","76,7","0","0"],
    [1793,"2014-04-15T03:00:00","ND","18","ND","1,6","178,7","24,1","76,7","0","0"],
    [1794,"2014-04-15T04:00:00","ND","17","ND","2,1","232,8","24","77,6","0","0"],
    [1795,"2014-04-15T05:00:00","ND","20","ND","3","75,5","23,8","79,7","0","0"],
    [1796,"2014-04-15T06:00:00","ND","5","ND","3","307,5","21,4","87,1","0","68,58"],
    [1797,"2014-04-15T07:00:00","ND","9","ND","1,4","260,1","21","86,5","11,1","16,26"],
    [1798,"2014-04-15T08:00:00","ND","11","ND","2,8","25,1","21,1","87,7","31,8","3,81"],
    [1799,"2014-04-15T09:00:00","ND","11","ND","3,7","109,1","21,6","89,2","80,5","0"],
    [1800,"2014-04-15T10:00:00","ND","10","ND","2,3","182,7","21,5","89,7","47","5,59"],
    [1801,"2014-04-15T11:00:00","ND","9","ND","1,1","291,5","22,1","86,9","221,7","0,51"],
    [1802,"2014-04-15T12:00:00","ND","11","70,68","1,7","33,4","24,4","74,6","441","0"],
    [1803,"2014-04-15T13:00:00","ND","7","61,91","4,8","77,2","26,1","65,9","491,2","0"],
    [1804,"2014-04-15T14:00:00","ND","4","66,76","4,3","95","27,5","59,2","400,1","0"],
    [1805,"2014-04-15T15:00:00","ND","5","68,17","4,5","93","27,9","57,1","318,2","0"],
    [1806,"2014-04-15T16:00:00","ND","7","ND","5,4","34,4","26,7","59,7","172,2","0"],
    [1807,"2014-04-15T17:00:00","ND","7","ND","4,8","34,3","24,6","67,2","34,1","0"],
    [1808,"2014-04-15T18:00:00","ND","15","ND","1,2","282,2","23,2","79","12,5","1,78"],
    [1809,"2014-04-15T19:00:00","ND","14","ND","2,2","194,6","21,7","85,2","0","1,78"],
    [1810,"2014-04-15T20:00:00","ND","9","ND","2,5","165","21,3","88,3","0","4,32"],
    [1811,"2014-04-15T21:00:00","ND","7","ND","2,5","174","21,3","88,4","0","3,05"],
    [1812,"2014-04-15T22:00:00","ND","7","ND","3,2","222,2","21,1","88,6","0","1,27"],
    [1813,"2014-04-15T23:00:00","ND","7","ND","2","226,1","21,3","88,4","0","0"],
    [1814,"2014-04-16T00:00:00","ND","10","ND","2,3","170,2","21,3","88,4","0","0,25"],
    [1815,"2014-04-16T01:00:00","ND","7","ND","2,3","166,5","20,8","91","0","0"],
    [1816,"2014-04-16T02:00:00","ND","5","ND","2,3","157,1","20,8","91,6","0","0"],
    [1817,"2014-04-16T03:00:00","ND","4","ND","1,6","228,9","21","90,1","0","0"],
    [1818,"2014-04-16T04:00:00","ND","7","ND","1,7","185,3","20,9","90,5","0","0,51"],
    [1819,"2014-04-16T05:00:00","ND","6","ND","2,2","146,2","20,8","91,6","0","0"],
    [1820,"2014-04-16T06:00:00","ND","11","ND","1,4","160,4","20,8","91,5","0","0"],
    [1821,"2014-04-16T07:00:00","ND","16","ND","2,2","175,9","20,9","91","20,2","0"],
    [1822,"2014-04-16T08:00:00","ND","11","ND","2,3","206,2","21,3","89,5","52,6","0"],
    [1823,"2014-04-16T09:00:00","ND","19","ND","2,1","189,4","22,1","84,9","146,8","0"],
    [1824,"2014-04-16T10:00:00","ND","20","39,07","0,5","35,9","23,4","78,5","276,6","0"],
    [1825,"2014-04-16T11:00:00","ND","14","64,48","2","52,1","24,7","71,1","325,1","0"],
    [1826,"2014-04-16T12:00:00","ND","21","88,03","2,8","94,5","26,2","63,4","522,9","0"],
    [1827,"2014-04-16T13:00:00","ND","17","96,37","3,2","74,2","27,3","58,7","417,4","0"],
    [1828,"2014-04-16T14:00:00","ND","14","87,29","2,9","75","27,9","56,4","391,2","0"],
    [1829,"2014-04-16T15:00:00","ND","12","95,78","2,1","72,4","28,9","51,1","331","0"],
    [1830,"2014-04-16T16:00:00","ND","7","103,02","2,5","24,2","29,3","50,1","282,8","0"],
    [1831,"2014-04-16T17:00:00","ND","16","122,86","2,7","0,7","29,5","48,4","174,1","0"],
    [1832,"2014-04-16T18:00:00","ND","33","107,24","2,6","33,8","29,4","45,9","50,5","0"],
    [1833,"2014-04-16T19:00:00","ND","40","31,01","2,2","337","28,4","52,5","10,1","0"],
    [1834,"2014-04-16T20:00:00","ND","11","24,88","3,1","299,1","27,2","58,9","0","0"],
    [1835,"2014-04-16T21:00:00","ND","44","5,61","2,1","100,9","26","68","0","0"],
    [1836,"2014-04-16T22:00:00","ND","23","6,61","3,8","87,3","24,6","75,2","0","0"],
    [1837,"2014-04-16T23:00:00","ND","7","10,01","2,7","12,5","24,5","75,5","0","0"],
    [1838,"2014-04-17T00:00:00","ND","11","13,52","2,5","48,5","24,5","75,5","0","0"],
    [1839,"2014-04-17T01:00:00","ND","14","13,03","2,2","32,2","24","78,5","0","0"],
    [1840,"2014-04-17T02:00:00","ND","15","14,72","1,4","79,8","23,6","80","0","0"],
    [1841,"2014-04-17T03:00:00","ND","8","12,58","0,7","195,3","23,4","81,1","0","0"],
    [1842,"2014-04-17T04:00:00","ND","10","8,01","2,5","164,4","23,1","83,5","0","0"],
    [1843,"2014-04-17T05:00:00","ND","15","4,49","1,1","168,7","22,7","85,8","0","0"],
    [1844,"2014-04-17T06:00:00","ND","46","2,87","0,8","61,5","23,1","83,6","0","0"],
    [1845,"2014-04-17T07:00:00","ND","27","3,91","2,2","119,5","23,1","83,1","20,3","0"],
    [1846,"2014-04-17T08:00:00","ND","ND","9,01","1,6","157,9","23,3","81,5","72","0"],
    [1847,"2014-04-17T09:00:00","ND","ND","19,76","2,9","183,8","24,5","77,5","182,6","0"],
    [1848,"2014-04-17T10:00:00","ND","ND","42,88","4,1","206,8","25,9","69,9","220,2","0"],
    [1849,"2014-04-17T11:00:00","ND","ND","58,69","1,4","160,9","26,4","65","234,2","0"],
    [1850,"2014-04-17T12:00:00","ND","ND","73,35","2,1","69,7","27,5","61,9","331,4","0"],
    [1851,"2014-04-17T13:00:00","ND","12","86,87","1,9","43,4","28,7","55,5","564,5","0"],
    [1852,"2014-04-17T14:00:00","ND","10","76,87","3,1","55,6","30,2","47,8","482,4","0"],
    [1853,"2014-04-17T15:00:00","ND","5","86,11","3","39,2","30,9","45,6","435,2","0"],
    [1854,"2014-04-17T16:00:00","ND","25","100,47","6,3","1,5","30,4","47,6","261,7","0"],
    [1855,"2014-04-17T17:00:00","ND","7","89,37","5,2","10,8","30,1","48,9","175,7","0"],
    [1856,"2014-04-17T18:00:00","ND","14","76,36","4,9","1,1","29,5","53,2","71,7","0"],
    [1857,"2014-04-17T19:00:00","ND","11","38,36","3,2","344,5","28,6","55,1","0","0"],
    [1858,"2014-04-17T20:00:00","ND","22","17,76","1,6","17","27,7","58,9","0","0"],
    [1859,"2014-04-17T21:00:00","ND","15","10,83","4,2","109,2","25,5","71,3","0","0"],
    [1860,"2014-04-17T22:00:00","ND","19","10,2","3,4","85","24,5","77,3","0","0"],
    [1861,"2014-04-17T23:00:00","ND","8","17,7","2,6","18,1","25,1","73","0","0"],
    [1862,"2014-04-18T00:00:00","ND","8","10,18","1,8","240,3","24,9","74,6","0","0"],
    [1863,"2014-04-18T01:00:00","ND","6","8,65","2,2","183,4","24,4","77,7","0","0"],
    [1864,"2014-04-18T02:00:00","ND","3","9,62","1,8","177,7","23,7","80,7","0","0"],
    [1865,"2014-04-18T03:00:00","ND","35","8,89","2,5","214,6","23,4","82,1","0","0"],
    [1866,"2014-04-18T04:00:00","ND","26","9,46","1,9","179,1","23,4","81,3","0","0"],
    [1867,"2014-04-18T05:00:00","ND","22","8,07","2,2","167,8","23,3","81,3","0","0"],
    [1868,"2014-04-18T06:00:00","ND","12","6,83","2","183,7","23","81,2","0","0"],
    [1869,"2014-04-18T07:00:00","ND","18","5,61","1,8","171,8","23,2","80,6","14,3","0"],
    [1870,"2014-04-18T08:00:00","ND","15","7,28","2,2","133,9","23,4","80,9","61,1","0"],
    [1871,"2014-04-18T09:00:00","ND","17","22,76","0,9","104,4","24,7","73,7","232,2","0"],
    [1872,"2014-04-18T10:00:00","ND","13","41,76","2,5","98,4","26,3","67,5","377","0"],
    [1873,"2014-04-18T11:00:00","ND","10","65,88","2","77","27,9","60,7","500,8","0"],
    [1874,"2014-04-18T12:00:00","ND","14","83,15","3,1","62,3","29,2","55,4","445,1","0"],
    [1875,"2014-04-18T13:00:00","ND","16","88,03","3,9","45,2","30,2","50,7","419,6","0"],
    [1876,"2014-04-18T14:00:00","ND","10","101,98","4,2","38,4","31","47,3","440,4","0"],
    [1877,"2014-04-18T15:00:00","ND","10","81,4","4,2","9,1","31,3","44,9","289,5","0"],
    [1878,"2014-04-18T16:00:00","ND","10","57,12","3,9","326","30,4","44,7","89,9","0"],
    [1879,"2014-04-18T17:00:00","ND","19","46,39","5,9","165,1","26,1","61,4","9,8","0"],
    [1880,"2014-04-18T18:00:00","ND","ND","ND","ND","ND","ND","ND","ND","ND"],
    [1881,"2014-04-18T19:00:00","ND","ND","ND","ND","ND","ND","ND","ND","ND"],
    [1882,"2014-04-18T20:00:00","ND","ND","ND","ND","ND","ND","ND","ND","ND"],
    [1883,"2014-04-18T21:00:00","ND","ND","ND","ND","ND","ND","ND","ND","ND"],
    [1884,"2014-04-18T22:00:00","ND","ND","ND","ND","ND","ND","ND","ND","ND"],
    [1885,"2014-04-18T23:00:00","ND","ND","ND","ND","ND","ND","ND","ND","ND"],
    [1886,"2014-04-19T00:00:00","ND","ND","ND","ND","ND","ND","ND","ND","ND"],
    [1887,"2014-04-19T01:00:00","ND","ND","ND","ND","ND","ND","ND","ND","ND"],
    [1888,"2014-04-19T02:00:00","ND","ND","ND","ND","ND","ND","ND","ND","ND"],
    [1889,"2014-04-19T03:00:00","ND","ND","ND","ND","ND","ND","ND","ND","ND"],
    [1890,"2014-04-19T04:00:00","ND","ND","ND","ND","ND","ND","ND","ND","ND"],
    [1891,"2014-04-19T05:00:00","ND","ND","ND","ND","ND","ND","ND","ND","ND"],
    [1892,"2014-04-19T06:00:00","ND","ND","ND","ND","ND","ND","ND","ND","ND"],
    [1893,"2014-04-19T07:00:00","ND","ND","ND","ND","ND","ND","ND","ND","ND"],
    [1894,"2014-04-19T08:00:00","ND","ND","ND","ND","ND","ND","ND","ND","ND"],
    [1895,"2014-04-19T09:00:00","ND","ND","ND","ND","ND","ND","ND","ND","ND"],
    [1896,"2014-04-19T10:00:00","ND","ND","ND","ND","ND","ND","ND","ND","ND"],
    [1897,"2014-04-19T11:00:00","ND","ND","ND","ND","ND","ND","ND","ND","ND"],
    [1898,"2014-04-19T12:00:00","ND","ND","ND","ND","ND","ND","ND","ND","ND"],
    [1899,"2014-04-19T13:00:00","ND","ND","ND","ND","ND","ND","ND","ND","ND"],
    [1900,"2014-04-19T14:00:00","ND","ND","ND","ND","ND","ND","ND","ND","ND"],
    [1901,"2014-04-19T15:00:00","ND","ND","ND","ND","ND","ND","ND","ND","ND"],
    [1902,"2014-04-19T16:00:00","ND","ND","ND","ND","ND","ND","ND","ND","ND"],
    [1903,"2014-04-19T17:00:00","ND","ND","ND","ND","ND","ND","ND","ND","ND"],
    [1904,"2014-04-19T18:00:00","ND","ND","ND","ND","ND","ND","ND","ND","ND"],
    [1905,"2014-04-19T19:00:00","ND","ND","ND","ND","ND","ND","ND","ND","ND"],
    [1906,"2014-04-19T20:00:00","ND","ND","ND","ND","ND","ND","ND","ND","ND"],
    [1907,"2014-04-19T21:00:00","ND","ND","ND","ND","ND","ND","ND","ND","ND"],
    [1908,"2014-04-19T22:00:00","ND","ND","ND","ND","ND","ND","ND","ND","ND"],
    [1909,"2014-04-19T23:00:00","ND","ND","ND","ND","ND","ND","ND","ND","ND"],
    [1910,"2014-04-20T00:00:00","ND","ND","ND","ND","ND","ND","ND","ND","ND"],
    [1911,"2014-04-20T01:00:00","ND","ND","ND","ND","ND","ND","ND","ND","ND"],
    [1912,"2014-04-20T02:00:00","ND","ND","ND","ND","ND","ND","ND","ND","ND"],
    [1913,"2014-04-20T03:00:00","ND","ND","ND","ND","ND","ND","ND","ND","ND"],
    [1914,"2014-04-20T04:00:00","ND","ND","ND","ND","ND","ND","ND","ND","ND"],
    [1915,"2014-04-20T05:00:00","ND","ND","ND","ND","ND","ND","ND","ND","ND"],
    [1916,"2014-04-20T06:00:00","ND","ND","ND","ND","ND","ND","ND","ND","ND"],
    [1917,"2014-04-20T07:00:00","ND","ND","ND","ND","ND","ND","ND","ND","ND"],
    [1918,"2014-04-20T08:00:00","ND","ND","ND","ND","ND","ND","ND","ND","ND"],
    [1919,"2014-04-20T09:00:00","ND","ND","ND","ND","ND","ND","ND","ND","ND"],
    [1920,"2014-04-20T10:00:00","ND","ND","ND","ND","ND","ND","ND","ND","ND"],
    [1921,"2014-04-20T11:00:00","ND","ND","ND","ND","ND","ND","ND","ND","ND"],
    [1922,"2014-04-20T12:00:00","ND","ND","ND","ND","ND","ND","ND","ND","ND"],
    [1923,"2014-04-20T13:00:00","ND","ND","ND","ND","ND","ND","ND","ND","ND"],
    [1924,"2014-04-20T14:00:00","ND","ND","ND","ND","ND","ND","ND","ND","ND"],
    [1925,"2014-04-20T15:00:00","ND","ND","ND","ND","ND","ND","ND","ND","ND"],
    [1926,"2014-04-20T16:00:00","ND","ND","ND","ND","ND","ND","ND","ND","ND"],
    [1927,"2014-04-20T17:00:00","ND","ND","ND","ND","ND","ND","ND","ND","ND"],
    [1928,"2014-04-20T18:00:00","ND","ND","ND","ND","ND","ND","ND","ND","ND"],
    [1929,"2014-04-20T19:00:00","ND","ND","ND","ND","ND","ND","ND","ND","ND"],
    [1930,"2014-04-20T20:00:00","ND","ND","ND","ND","ND","ND","ND","ND","ND"],
    [1931,"2014-04-20T21:00:00","ND","ND","ND","ND","ND","ND","ND","ND","ND"],
    [1932,"2014-04-20T22:00:00","ND","ND","ND","ND","ND","ND","ND","ND","ND"],
    [1933,"2014-04-20T23:00:00","ND","ND","ND","ND","ND","ND","ND","ND","ND"],
    [1934,"2014-04-21T00:00:00","ND","ND","ND","ND","ND","ND","ND","ND","ND"],
    [1935,"2014-04-21T01:00:00","ND","ND","ND","ND","ND","ND","ND","ND","ND"],
    [1936,"2014-04-21T02:00:00","ND","ND","ND","ND","ND","ND","ND","ND","ND"],
    [1937,"2014-04-21T03:00:00","ND","ND","ND","ND","ND","ND","ND","ND","ND"],
    [1938,"2014-04-21T04:00:00","ND","ND","ND","ND","ND","ND","ND","ND","ND"],
    [1939,"2014-04-21T05:00:00","ND","ND","ND","ND","ND","ND","ND","ND","ND"],
    [1940,"2014-04-21T06:00:00","ND","ND","ND","ND","ND","ND","ND","ND","ND"],
    [1941,"2014-04-21T07:00:00","ND","ND","ND","ND","ND","ND","ND","ND","ND"],
    [1942,"2014-04-21T08:00:00","ND","ND","ND","ND","ND","ND","ND","ND","ND"],
    [1943,"2014-04-21T09:00:00","ND","ND","ND","ND","ND","ND","ND","ND","ND"],
    [1944,"2014-04-21T10:00:00","ND","ND","ND","ND","ND","ND","ND","ND","ND"],
    [1945,"2014-04-21T11:00:00","ND","ND","ND","ND","ND","ND","ND","ND","ND"],
    [1946,"2014-04-21T12:00:00","ND","ND","ND","ND","ND","ND","ND","ND","ND"],
    [1947,"2014-04-21T13:00:00","ND","ND","ND","ND","ND","ND","ND","ND","ND"],
    [1948,"2014-04-21T14:00:00","ND","ND","ND","ND","ND","ND","ND","ND","ND"],
    [1949,"2014-04-21T15:00:00","ND","ND","ND","ND","ND","ND","ND","ND","ND"],
    [1950,"2014-04-21T16:00:00","ND","ND","ND","ND","ND","ND","ND","ND","ND"],
    [1951,"2014-04-21T17:00:00","ND","ND","ND","ND","ND","ND","ND","ND","ND"],
    [1952,"2014-04-21T18:00:00","ND","ND","ND","ND","ND","ND","ND","ND","ND"],
    [1953,"2014-04-21T19:00:00","ND","ND","ND","ND","ND","ND","ND","ND","ND"],
    [1954,"2014-04-21T20:00:00","ND","ND","ND","ND","ND","ND","ND","ND","ND"],
    [1955,"2014-04-21T21:00:00","ND","ND","ND","ND","ND","ND","ND","ND","ND"],
    [1956,"2014-04-21T22:00:00","ND","ND","ND","ND","ND","ND","ND","ND","ND"],
    [1957,"2014-04-21T23:00:00","ND","ND","ND","ND","ND","ND","ND","ND","ND"],
    [1958,"2014-04-22T00:00:00","ND","ND","ND","ND","ND","ND","ND","ND","ND"],
    [1959,"2014-04-22T01:00:00","ND","ND","ND","ND","ND","ND","ND","ND","ND"],
    [1960,"2014-04-22T02:00:00","ND","ND","ND","ND","ND","ND","ND","ND","ND"],
    [1961,"2014-04-22T03:00:00","ND","ND","ND","ND","ND","ND","ND","ND","ND"],
    [1962,"2014-04-22T04:00:00","ND","ND","ND","ND","ND","ND","ND","ND","ND"],
    [1963,"2014-04-22T05:00:00","ND","ND","ND","ND","ND","ND","ND","ND","ND"],
    [1964,"2014-04-22T06:00:00","ND","ND","ND","ND","ND","ND","ND","ND","ND"],
    [1965,"2014-04-22T07:00:00","ND","ND","ND","ND","ND","ND","ND","ND","ND"],
    [1966,"2014-04-22T08:00:00","ND","ND","ND","ND","ND","ND","ND","ND","ND"],
    [1967,"2014-04-22T09:00:00","ND","ND","ND","ND","ND","ND","ND","ND","ND"],
    [1968,"2014-04-22T10:00:00","ND","ND","ND","ND","ND","ND","ND","ND","ND"],
    [1969,"2014-04-22T11:00:00","ND","ND","ND","ND","ND","ND","ND","ND","ND"],
    [1970,"2014-04-22T12:00:00","ND","ND","ND","ND","ND","ND","ND","ND","ND"],
    [1971,"2014-04-22T13:00:00","ND","ND","ND","ND","ND","ND","ND","ND","ND"],
    [1972,"2014-04-22T14:00:00","ND","ND","ND","ND","ND","ND","ND","ND","ND"],
    [1973,"2014-04-22T15:00:00","ND","ND","ND","ND","ND","ND","ND","ND","ND"],
    [1974,"2014-04-22T16:00:00","ND","ND","ND","ND","ND","ND","ND","ND","ND"],
    [1975,"2014-04-22T17:00:00","ND","ND","ND","ND","ND","ND","ND","ND","ND"],
    [1976,"2014-04-22T18:00:00","ND","ND","ND","ND","ND","ND","ND","ND","ND"],
    [1977,"2014-04-22T19:00:00","ND","ND","ND","ND","ND","ND","ND","ND","ND"],
    [1978,"2014-04-22T20:00:00","ND","ND","ND","ND","ND","ND","ND","ND","ND"],
    [1979,"2014-04-22T21:00:00","ND","ND","ND","ND","ND","ND","ND","ND","ND"],
    [1980,"2014-04-22T22:00:00","ND","ND","ND","ND","ND","ND","ND","ND","ND"],
    [1981,"2014-04-22T23:00:00","ND","ND","ND","ND","ND","ND","ND","ND","ND"],
    [1982,"2014-04-23T00:00:00","ND","ND","ND","ND","ND","ND","ND","ND","ND"],
    [1983,"2014-04-23T01:00:00","ND","ND","ND","ND","ND","ND","ND","ND","ND"],
    [1984,"2014-04-23T02:00:00","ND","ND","ND","ND","ND","ND","ND","ND","ND"],
    [1985,"2014-04-23T03:00:00","ND","ND","ND","ND","ND","ND","ND","ND","ND"],
    [1986,"2014-04-23T04:00:00","ND","ND","ND","ND","ND","ND","ND","ND","ND"],
    [1987,"2014-04-23T05:00:00","ND","ND","ND","ND","ND","ND","ND","ND","ND"],
    [1988,"2014-04-23T06:00:00","ND","ND","ND","ND","ND","ND","ND","ND","ND"],
    [1989,"2014-04-23T07:00:00","ND","ND","ND","ND","ND","ND","ND","ND","ND"],
    [1990,"2014-04-23T08:00:00","ND","ND","ND","ND","ND","ND","ND","ND","ND"],
    [1991,"2014-04-23T09:00:00","ND","ND","ND","ND","ND","ND","ND","ND","ND"],
    [1992,"2014-04-23T10:00:00","ND","ND","ND","2,7","226,5","26,1","67,5","351,9","0"],
    [1993,"2014-04-23T11:00:00","ND","ND","ND","2,1","214,4","27,4","62,9","425","0"],
    [1994,"2014-04-23T12:00:00","ND","ND","ND","3,1","89,2","28,7","58,9","872,9","0"],
    [1995,"2014-04-23T13:00:00","ND","ND","79,81","4,6","52,9","30","54,2","490,8","0"],
    [1996,"2014-04-23T14:00:00","ND","ND","59,28","8,1","56,5","29,9","53,1","264,8","0"],
    [1997,"2014-04-23T15:00:00","ND","2","33,44","6,3","42,6","24,1","78,9","49,9","18,29"],
    [1998,"2014-04-23T16:00:00","ND","5","22,08","4","217,3","23,8","81,6","28,5","0,25"],
    [1999,"2014-04-23T17:00:00","ND","7","28,43","5,5","192","22,1","86,3","25,4","3,56"],
    [2000,"2014-04-23T18:00:00","ND","5","23,37","4,9","193,4","21,5","86,3","21,4","0"],
    [2001,"2014-04-23T19:00:00","ND","3","19,04","5,2","231","21,5","85,4","8,9","0"],
    [2002,"2014-04-23T20:00:00","ND","3","17,23","2,7","224,7","22","81,6","0","0"],
    [2003,"2014-04-23T21:00:00","ND","9","6,24","1,7","96,7","22,1","83,6","0","0"],
    [2004,"2014-04-23T22:00:00","ND","15","4,4","2,8","73,5","21,7","87,1","0","0"],
    [2005,"2014-04-23T23:00:00","ND","13","4,71","2,1","97,1","21,6","87,7","0","0"],
    [2006,"2014-04-24T00:00:00","ND","13","2,49","0,6","51","21,7","87,6","0","0"],
    [2007,"2014-04-24T01:00:00","ND","9","6,79","2,2","250,3","22","84,9","0","0"],
    [2008,"2014-04-24T02:00:00","ND","13","6,44","1,1","264,6","21,8","86","0","0,76"],
    [2009,"2014-04-24T03:00:00","ND","9","2,83","1,5","91","21,6","88,7","0","0"],
    [2010,"2014-04-24T04:00:00","ND","9","1,94","2,7","54,4","21,2","91,8","0","0"],
    [2011,"2014-04-24T05:00:00","ND","14","1,84","1,7","50,1","21,3","90,9","0","0"],
    [2012,"2014-04-24T06:00:00","ND","17","1,57","1,8","12,5","21,4","89,5","0","0"],
    [2013,"2014-04-24T07:00:00","ND","15","2,24","1,8","6,8","21,6","88,7","0","0,76"],
    [2014,"2014-04-24T08:00:00","ND","19","4,16","1,6","77,7","21,7","88,6","26,2","0,76"],
    [2015,"2014-04-24T09:00:00","ND","12","8,71","2,1","91","22","87","62,8","0,76"],
    [2016,"2014-04-24T10:00:00","ND","14","12,83","1,7","177","22,5","86","85,4","0"],
    [2017,"2014-04-24T11:00:00","ND","21","17,09","2,7","188,3","22,9","84,5","95","0"],
    [2018,"2014-04-24T12:00:00","ND","13","22,63","3,2","156,2","23,4","81,7","159,7","0,51"],
    [2019,"2014-04-24T13:00:00","ND","15","28,57","2,7","165,7","24","78,9","175,4","0,25"],
    [2020,"2014-04-24T14:00:00","ND","15","38,5","4,2","194,3","24,5","75,5","146,2","0"],
    [2021,"2014-04-24T15:00:00","ND","ND","35,48","4","176,2","24,3","74,2","88,3","0"],
    [2022,"2014-04-24T16:00:00","ND","7","29,65","2,4","155,4","24,1","75,6","72,1","0"],
    [2023,"2014-04-24T17:00:00","ND","14","28,55","1,3","50,1","24","76,9","51,3","0"],
    [2024,"2014-04-24T18:00:00","ND","17","22,61","2,5","18,5","23,9","76,8","11,5","0"],
    [2025,"2014-04-24T19:00:00","ND","37","8,6","2,3","53,3","23,7","78,6","0","0"],
    [2026,"2014-04-24T20:00:00","ND","29","4,63","2","21,8","23,2","79,4","0","0"],
    [2027,"2014-04-24T21:00:00","ND","32","3,91","2,3","3,4","22,7","82,3","0","0"],
    [2028,"2014-04-24T22:00:00","ND","34","1,79","2,5","23,5","22,3","84,4","0","0"],
    [2029,"2014-04-24T23:00:00","ND","38","1,79","1,2","53,7","22","84,4","0","0"],
    [2030,"2014-04-25T00:00:00","ND","36","2,08","1,1","135,7","21,7","85,7","0","0"],
    [2031,"2014-04-25T01:00:00","ND","18","1,59","2,7","203,8","21,2","88,4","0","0"],
    [2032,"2014-04-25T02:00:00","ND","20","1,45","2,5","209","20,9","90,4","0","0"],
    [2033,"2014-04-25T03:00:00","ND","19","1,84","2","220,7","21,1","89,8","0","0"],
    [2034,"2014-04-25T04:00:00","ND","18","2,02","1,5","173,2","20,9","89,9","0","0"],
    [2035,"2014-04-25T05:00:00","ND","18","1,96","2","156,6","20,2","92,1","0","0"],
    [2036,"2014-04-25T06:00:00","ND","28","1,84","1,5","112,9","20","92,5","0","0"],
    [2037,"2014-04-25T07:00:00","ND","32","2,75","1,6","28,9","19,9","92,2","12,4","0"],
    [2038,"2014-04-25T08:00:00","ND","32","4,14","2,2","35,5","20,8","90,1","83,9","0"],
    [2039,"2014-04-25T09:00:00","ND","32","16,19","0,7","201,6","22,5","83,4","237,6","0"],
    [2040,"2014-04-25T10:00:00","ND","30","46,76","1,4","146,9","24,6","71,3","364,2","0"],
    [2041,"2014-04-25T11:00:00","ND","19","66,27","1,9","94,8","26,1","65","459,2","0"],
    [2042,"2014-04-25T12:00:00","ND","13","69,33","3,2","92,7","27,5","60,4","461,1","0"],
    [2043,"2014-04-25T13:00:00","ND","12","76,73","3","68,3","28,9","54,3","509","0"],
    [2044,"2014-04-25T14:00:00","ND","16","104,59","2,9","67,6","29,6","52,7","467,9","0"],
    [2045,"2014-04-25T15:00:00","ND","20","125,81","3","70,1","30,3","52,2","382,3","0"],
    [2046,"2014-04-25T16:00:00","ND","15","94,23","3,4","346","30,9","48,7","233","0"],
    [2047,"2014-04-25T17:00:00","ND","8","41,15","3,7","321,7","31,2","44,3","166,1","0"],
    [2048,"2014-04-25T18:00:00","ND","4","20,21","7","304","29,2","51,6","22,7","0"],
    [2049,"2014-04-25T19:00:00","ND","5","9,81","5,8","303,8","27,7","57","0","0"],
    [2050,"2014-04-25T20:00:00","ND","10","7,16","1,5","41,2","26,8","62,1","0","0"],
    [2051,"2014-04-25T21:00:00","ND","10","11,21","0,8","239,2","26,3","63,9","0","0"],
    [2052,"2014-04-25T22:00:00","ND","5","28,69","5,6","226,1","24,1","79,8","0","0,25"],
    [2053,"2014-04-25T23:00:00","ND","15","23,61","4,5","216,4","23,4","82,1","0","0"],
    [2054,"2014-04-26T00:00:00","ND","1","19,56","2,9","217,8","22,9","82,6","0","10,41"],
    [2055,"2014-04-26T01:00:00","ND","3","21,25","0,7","9,4","21,3","90,4","0","89,15"],
    [2056,"2014-04-26T02:00:00","ND","2","21,8","1,6","129,4","21,1","92,1","0","17,27"],
    [2057,"2014-04-26T03:00:00","ND","ND","19,88","1,6","97,3","21,3","89,4","0","6,86"],
    [2058,"2014-04-26T04:00:00","ND","ND","18,76","2,1","87,3","21","92,1","0","14,48"],
    [2059,"2014-04-26T05:00:00","ND","ND","16,8","2,3","39,8","21","92","0","4,57"],
    [2060,"2014-04-26T06:00:00","ND","4","9,34","2,4","359,2","21,1","91,5","0","0"],
    [2061,"2014-04-26T07:00:00","ND","18","4,77","1,8","349,3","21,2","90,2","4,2","0"],
    [2062,"2014-04-26T08:00:00","ND","26","5,75","1,4","90,7","21,6","89","51,6","0,51"],
    [2063,"2014-04-26T09:00:00","ND","12","12,66","2","89,8","22,3","85,5","117,1","0"],
    [2064,"2014-04-26T10:00:00","ND","8","22,86","2,3","107,1","23,1","81,2","206,2","0"],
    [2065,"2014-04-26T11:00:00","ND","7","42,49","1,7","72","24,6","72,7","456,8","0"],
    [2066,"2014-04-26T12:00:00","ND","7","60,5","2,6","57,7","26,3","66,5","604,1","0"],
    [2067,"2014-04-26T13:00:00","ND","7","56,2","3,9","93","27,2","62,2","424,5","0"],
    [2068,"2014-04-26T14:00:00","ND","4","61,42","4,2","88,2","28,1","58,3","542,8","0"],
    [2069,"2014-04-26T15:00:00","ND","8","54,53","5,4","89,8","28,2","57,7","280,1","0"],
    [2070,"2014-04-26T16:00:00","ND","8","67,96","4,2","40,2","28,7","56,6","279,9","0"],
    [2071,"2014-04-26T17:00:00","ND","7","48,45","4,3","16,5","28,3","57,6","108","0"],
    [2072,"2014-04-26T18:00:00","ND","4","29,08","4,3","24","28,2","58,9","46,5","0"],
    [2073,"2014-04-26T19:00:00","ND","17","9,81","2,8","54,5","27,1","61,2","0","0"],
    [2074,"2014-04-26T20:00:00","ND","6","9,18","3,7","49,5","25,7","68,3","0","0"],
    [2075,"2014-04-26T21:00:00","ND","4","6,87","2","39,2","24,7","72,4","0","0"],
    [2076,"2014-04-26T22:00:00","ND","8","4,4","2,8","98,5","23,9","76,5","0","0"],
    [2077,"2014-04-26T23:00:00","ND","5","6,26","3,7","207,6","23,8","78,4","0","0"],
    [2078,"2014-04-27T00:00:00","ND","5","5,99","3,1","153,1","23,4","81","0","0"],
    [2079,"2014-04-27T01:00:00","ND","5","10,81","4,1","179,5","22,5","83,8","0","0"],
    [2080,"2014-04-27T02:00:00","ND","2","19","4,6","215","22","84,4","0","0"],
    [2081,"2014-04-27T03:00:00","ND","ND","20,94","3,6","202","21,7","85,7","0","0"],
    [2082,"2014-04-27T04:00:00","ND","ND","15,78","2,6","176,4","21,6","86,4","0","0"],
    [2083,"2014-04-27T05:00:00","ND","ND","14,01","2,9","198,3","21,5","87,4","0","0,76"],
    [2084,"2014-04-27T06:00:00","ND","ND","12,83","1,5","211,7","21,4","88,5","0","1,52"],
    [2085,"2014-04-27T07:00:00","ND","18","10,38","1,9","226,4","21,8","86,7","7,4","0"],
    [2086,"2014-04-27T08:00:00","ND","6","12,11","1,5","194","22,3","84,5","46,3","0"],
    [2087,"2014-04-27T09:00:00","ND","8","16,37","2,5","128","23,1","83,3","208,6","0"],
    [2088,"2014-04-27T10:00:00","ND","4","28,26","2,2","184,7","24,5","75,8","300","0"],
    [2089,"2014-04-27T11:00:00","ND","4","44,88","1,5","164,6","25,8","68,4","336,4","0"],
    [2090,"2014-04-27T12:00:00","ND","5","52,55","1,5","89,6","26,7","64","338","0"],
    [2091,"2014-04-27T13:00:00","ND","9","59,52","4,3","88,5","27,1","63,3","310,8","0"],
    [2092,"2014-04-27T14:00:00","ND","14","63,82","4,1","92,4","28,1","60,7","390,5","0"],
    [2093,"2014-04-27T15:00:00","ND","11","66,5","3,9","84,7","29,2","56,4","373","0"],
    [2094,"2014-04-27T16:00:00","ND","8","75","3,5","62,2","30,1","53","288,8","0"],
    [2095,"2014-04-27T17:00:00","ND","8","66,94","5,5","14,7","30,2","50,3","133,4","0"],
    [2096,"2014-04-27T18:00:00","ND","6","32,73","4,4","330,4","29","54,1","35,6","0"],
    [2097,"2014-04-27T19:00:00","ND","10","15,46","2,9","7,9","27,6","58,2","0","0"],
    [2098,"2014-04-27T20:00:00","ND","14","7,4","2,4","64,7","26,5","63,4","0","0"],
    [2099,"2014-04-27T21:00:00","ND","16","5,04","3,6","79,1","25","70,2","0","0"],
    [2100,"2014-04-27T22:00:00","ND","10","5,34","3,1","94","24","75,6","0","0"],
    [2101,"2014-04-27T23:00:00","ND","14","5,32","0,6","50,2","24","75,3","0","0"],
    [2102,"2014-04-28T00:00:00","ND","13","3,67","2,3","216,1","24","77","0","0"],
    [2103,"2014-04-28T01:00:00","ND","7","5,91","2,9","153,2","23,4","81,3","0","0"],
    [2104,"2014-04-28T02:00:00","ND","3","9,44","1,2","176,3","23,1","83,3","0","0"],
    [2105,"2014-04-28T03:00:00","ND","6","8,18","2,3","131,6","22,6","84,8","0","0"],
    [2106,"2014-04-28T04:00:00","ND","5","13,91","1,6","196,5","22,4","82,8","0","0"],
    [2107,"2014-04-28T05:00:00","ND","5","8,03","1,3","155,6","22","83,3","0","0"],
    [2108,"2014-04-28T06:00:00","ND","6","3,75","0,7","113,3","21,6","85,9","0","0"],
    [2109,"2014-04-28T07:00:00","ND","28","2,96","2,2","89,8","21,3","87,4","13,3","0"],
    [2110,"2014-04-28T08:00:00","ND","20","6,04","2,3","90,8","22","86","100,5","0"],
    [2111,"2014-04-28T09:00:00","ND","15","13,76","3,4","82,1","23,9","79,6","248,3","0"],
    [2112,"2014-04-28T10:00:00","ND","8","34,54","3,3","78,6","26,2","68,3","388,7","0"],
    [2113,"2014-04-28T11:00:00","ND","3","55,95","2,7","77,3","27,9","60,5","491,3","0"],
    [2114,"2014-04-28T12:00:00","ND","9","74,63","2,7","93,6","29,2","55,2","499,4","0"],
    [2115,"2014-04-28T13:00:00","ND","13","88,76","2,4","50,9","30,2","51,5","498,1","0"],
    [2116,"2014-04-28T14:00:00","ND","10","94","3,8","84,3","31,2","47,2","467,7","0"],
    [2117,"2014-04-28T15:00:00","ND","17","108,93","3,3","73,4","31,8","46,3","389,1","0"],
    [2118,"2014-04-28T16:00:00","ND","13","84,23","3,9","18,3","31,6","47,6","99,5","0"],
    [2119,"2014-04-28T17:00:00","ND","12","40,11","3,9","2,5","31,3","46,7","96,8","0"],
    [2120,"2014-04-28T18:00:00","ND","11","36,44","4","269,8","28,6","54,9","0","1,78"],
    [2121,"2014-04-28T19:00:00","ND","ND","46,98","9,5","229,1","22,2","86,5","0","79,5"],
    [2122,"2014-04-28T20:00:00","ND","3","31,03","6,2","257","22,3","85,5","0","1,78"],
    [2123,"2014-04-28T21:00:00","ND","5","21,98","2,8","149,5","22,8","83,7","0","0,25"],
    [2124,"2014-04-28T22:00:00","ND","5","25,26","1,6","179,5","21,9","89,6","0","0,76"],
    [2125,"2014-04-28T23:00:00","ND","5","29,3","2,9","202,1","21,8","88,7","0","0"],
    [2126,"2014-04-29T00:00:00","ND","2","34,22","3,5","229,3","21,6","89,3","0","0"],
    [2127,"2014-04-29T01:00:00","ND","3","33,89","2,3","203,3","21,3","89,4","0","0"],
    [2128,"2014-04-29T02:00:00","ND","1","35,81","3,6","209,6","21,3","89,3","0","0"],
    [2129,"2014-04-29T03:00:00","ND","1","26,69","3,6","217,8","21,3","90,4","0","0,76"],
    [2130,"2014-04-29T04:00:00","ND","1","18,64","1,7","109","21,1","91","0","0"],
    [2131,"2014-04-29T05:00:00","ND","3","10,97","2,3","59,8","21","91,8","0","0"],
    [2132,"2014-04-29T06:00:00","ND","11","6,36","2,1","36,8","21,2","91","0","0,25"],
    [2133,"2014-04-29T07:00:00","ND","11","5,24","2,3","8,9","21,1","91,4","7,1","1,02"],
    [2134,"2014-04-29T08:00:00","ND","13","8,77","3,1","34,9","21,5","90,4","49,8","0"],
    [2135,"2014-04-29T09:00:00","ND","10","18,31","3,3","350,8","22,3","86","104,9","0"],
    [2136,"2014-04-29T10:00:00","ND","9","28,81","1,1","20,9","23,3","79,5","186,1","0"],
    [2137,"2014-04-29T11:00:00","ND","6","39,72","2,6","145,4","24,9","70,5","340,9","0"],
    [2138,"2014-04-29T12:00:00","ND","ND","44,41","4,1","156,3","25,8","67,8","383,5","0"],
    [2139,"2014-04-29T13:00:00","ND","2","54,85","2","131,1","26,9","60,3","421,7","0"],
    [2140,"2014-04-29T14:00:00","ND","2","53,98","3","101,2","28,1","53,1","436,7","0"],
    [2141,"2014-04-29T15:00:00","ND","1","57,24","2,9","91,7","28,8","53,1","308,4","0"],
    [2142,"2014-04-29T16:00:00","ND","9","73,43","3,3","62,4","29,3","54,6","265,1","0"],
    [2143,"2014-04-29T17:00:00","ND","13","57,67","3,1","68,7","29,3","56,2","99,3","0"],
    [2144,"2014-04-29T18:00:00","ND","21","24,45","2,3","80,6","28,7","58,7","16,3","0"],
    [2145,"2014-04-29T19:00:00","ND","1","17,96","4,8","289","27,8","55,1","0","0"],
    [2146,"2014-04-29T20:00:00","ND","17","7,69","2,9","334,3","26,9","59","0","0"],
    [2147,"2014-04-29T21:00:00","ND","15","9,83","3,8","69,9","24,9","72,1","0","0"],
    [2148,"2014-04-29T22:00:00","ND","16","9,22","2,8","61,7","23,9","77,2","0","0"],
    [2149,"2014-04-29T23:00:00","ND","11","9,13","1,5","29,2","23,5","79,7","0","0"],
    [2150,"2014-04-30T00:00:00","ND","8","7,18","3,2","82","22,8","82,6","0","0"],
    [2151,"2014-04-30T01:00:00","ND","6","8,63","0,7","16,7","22,8","81,6","0","0"],
    [2152,"2014-04-30T02:00:00","ND","8","5,16","0,7","250,2","23","81,1","0","0"],
    [2153,"2014-04-30T03:00:00","ND","5","3,18","1,3","227,2","23","83,1","0","0"],
    [2154,"2014-04-30T04:00:00","ND","7","4,18","0,9","122,8","22,7","84,2","0","0"],
    [2155,"2014-04-30T05:00:00","ND","13","3,51","0,2","211,8","22,5","84,9","0","0"],
    [2156,"2014-04-30T06:00:00","ND","19","3,2","1,4","130,8","22,6","85,1","0","0"],
    [2157,"2014-04-30T07:00:00","ND","19","3,39","0,7","103,5","22,5","84,7","25,4","0"],
    [2158,"2014-04-30T08:00:00","ND","28","7,56","2,9","142,6","23,4","82,8","139,4","0"],
    [2159,"2014-04-30T09:00:00","ND","15","19,41","3,1","208,5","24,6","76,4","170,8","0"],
    [2160,"2014-04-30T10:00:00","ND","ND","33,2","2,8","177,6","26,1","69,3","379,5","0"],
    [2161,"2014-04-30T11:00:00","ND","ND","57,09","2","164,7","27,4","63,1","335,3","0"],
    [2162,"2014-04-30T12:00:00","ND","13","72,27","2,4","151,3","27,9","61,5","192,6","0"],
    [2163,"2014-04-30T13:00:00","ND","17","76,65","2,7","101","28,8","58,7","426","0"],
    [2164,"2014-04-30T14:00:00","ND","11","82,91","3,1","2,2","29,5","53,4","305,6","0"],
    [2165,"2014-04-30T15:00:00","ND","10","42,92","6,2","21,5","29,3","54,7","228,3","0"],
    [2166,"2014-04-30T16:00:00","ND","11","30,99","4,3","60,5","28,5","58,7","92,9","0"],
    [2167,"2014-04-30T17:00:00","ND","23","18,15","2,8","100","28,2","59,3","55","0"],
    [2168,"2014-04-30T18:00:00","ND","13","35,26","3,5","185,4","26,6","63,2","21,8","0"],
    [2169,"2014-04-30T19:00:00","ND","19","38,29","3,8","214,5","24,1","76,5","0","0"],
    [2170,"2014-04-30T20:00:00","ND","22","15,17","2,9","166,6","23,9","79","0","0"],
    [2171,"2014-04-30T21:00:00","ND","14","11,22","2,3","160,2","23,3","81,3","0","0"],
    [2172,"2014-04-30T22:00:00","ND","14","10,38","1,7","173,7","23,1","82","0","0"],
    [2173,"2014-04-30T23:00:00","ND","13","13,23","0,9","185,5","23,3","80,5","0","0"],
    [2174,"2014-05-01T00:00:00","ND","22","5,22","2,8","94,9","22,7","83,3","0","0"],
    [2175,"2014-05-01T01:00:00","ND","27","4,57","1,1","266,3","22,9","82,7","0","0"],
    [2176,"2014-05-01T02:00:00","ND","23","5,97","2","100","22,6","84,6","0","0"],
    [2177,"2014-05-01T03:00:00","ND","26","4,96","1,2","170,9","22,6","84,7","0","0"],
    [2178,"2014-05-01T04:00:00","ND","41","3,53","0,8","248,9","22,5","87,2","0","0"],
    [2179,"2014-05-01T05:00:00","ND","10","2,67","2,2","83,3","22,2","88,3","0","0"],
    [2180,"2014-05-01T06:00:00","ND","13","2,9","1,2","152,8","22,1","88,4","0","0"],
    [2181,"2014-05-01T07:00:00","ND","27","3,49","1,5","83,2","22,5","86,9","17,2","0"],
    [2182,"2014-05-01T08:00:00","ND","26","8,22","1,6","116,7","22,9","84,7","75,3","0"],
    [2183,"2014-05-01T09:00:00","ND","16","22,57","1,9","97,3","24,3","77,2","249,8","0"],
    [2184,"2014-05-01T10:00:00","ND","11","31,04","3,7","105","25,6","70,6","214,4","0"],
    [2185,"2014-05-01T11:00:00","ND","12","56,38","2,7","130,7","26,8","65,1","434,3","0"],
    [2186,"2014-05-01T12:00:00","ND","13","74,1","2,1","97,4","28,4","58,6","456,6","0"],
    [2187,"2014-05-01T13:00:00","ND","10","83,56","2,1","148,4","29,4","54,7","421,6","0"],
    [2188,"2014-05-01T14:00:00","ND","20","94,53","3,4","109,5","30","50,8","420,4","0"],
    [2189,"2014-05-01T15:00:00","ND","20","84,4","2,8","100","30,2","49,9","126,3","0"],
    [2190,"2014-05-01T16:00:00","ND","10","56,87","3,1","317,2","29,3","52","80,7","0"],
    [2191,"2014-05-01T17:00:00","ND","6","34,36","4,5","316,8","28,1","54,6","43,4","0"],
    [2192,"2014-05-01T18:00:00","ND","10","24,2","4,3","55,7","27,6","57,8","7,3","0"],
    [2193,"2014-05-01T19:00:00","ND","18","18,51","3,9","73","26,3","64,2","0","0"],
    [2194,"2014-05-01T20:00:00","ND","11","17,72","2,3","187","24,5","77","0","4,57"],
    [2195,"2014-05-01T21:00:00","ND","7","22,88","2,9","180","23","84,2","0","0,51"],
    [2196,"2014-05-01T22:00:00","ND","3","19,55","2,9","185,9","22,8","83,9","0","0"],
    [2197,"2014-05-01T23:00:00","ND","ND","18,15","2,6","192,3","22,5","84,7","0","1,02"],
    [2198,"2014-05-02T00:00:00","ND","ND","17,11","1,4","256,9","22,3","86,5","0","1,78"],
    [2199,"2014-05-02T01:00:00","ND","12","24,2","2,9","245,1","22,3","86,1","0","0"],
    [2200,"2014-05-02T02:00:00","ND","5","16,09","1,8","144,8","21,7","88,9","0","0"],
    [2201,"2014-05-02T03:00:00","ND","ND","15,54","2,3","159,6","21,7","88,5","0","0,25"],
    [2202,"2014-05-02T04:00:00","ND","3","11,32","0,7","177,1","21,6","88,4","0","0"],
    [2203,"2014-05-02T05:00:00","ND","8","8,63","1,5","181,1","21,9","87,8","0","0"],
    [2204,"2014-05-02T06:00:00","ND","9","4,18","0,6","227,6","21,9","88,4","0","0,76"],
    [2205,"2014-05-02T07:00:00","ND","15","4,67","0,6","186,5","22,3","87","16,4","0,25"],
    [2206,"2014-05-02T08:00:00","ND","17","6,26","2,8","159,7","22,7","87,6","67,5","0"],
    [2207,"2014-05-02T09:00:00","ND","6","16,84","2,2","176,5","23,6","82,6","128,8","0"],
    [2208,"2014-05-02T10:00:00","ND","7","31,55","1,8","122,7","25,1","74,8","343,6","0"],
    [2209,"2014-05-02T11:00:00","ND","11","45,47","2,3","106,9","26,2","69,1","383,5","0"],
    [2210,"2014-05-02T12:00:00","ND","14","59,15","2,1","139,5","27,4","63,3","425","0"],
    [2211,"2014-05-02T13:00:00","ND","14","74","2,8","118,1","28,4","58,3","287,8","0"],
    [2212,"2014-05-02T14:00:00","ND","18","89,99","1","166,8","28,5","58","142,7","0"],
    [2213,"2014-05-02T15:00:00","ND","15","69,55","2,1","273,3","27,5","63","76,3","4,32"],
    [2214,"2014-05-02T16:00:00","ND","8","30,24","3,9","36,4","25,2","76","128,3","2,54"],
    [2215,"2014-05-02T17:00:00","ND","11","18,86","5,1","78,2","25","79,8","92,6","0"],
    [2216,"2014-05-02T18:00:00","ND","9","16,41","4,5","48,5","25,5","73","38,5","0"],
    [2217,"2014-05-02T19:00:00","ND","16","8,85","3,5","57,3","25,3","70,9","0","0"],
    [2218,"2014-05-02T20:00:00","ND","18","9,34","3,4","59,4","24,4","73","0","0"],
    [2219,"2014-05-02T21:00:00","ND","13","7,77","2,7","76","23,7","79,2","0","0"],
    [2220,"2014-05-02T22:00:00","ND","8","9,5","2,8","50,3","23,5","78,6","0","0"],
    [2221,"2014-05-02T23:00:00","ND","8","7,59","1,3","114,6","23,2","80,2","0","0"],
    [2222,"2014-05-03T00:00:00","ND","5","9,6","3,5","204,7","22,7","87,6","0","0"],
    [2223,"2014-05-03T01:00:00","ND","8","9,2","2,4","162,5","22,3","88,6","0","0"],
    [2224,"2014-05-03T02:00:00","ND","4","13,3","2,7","195,2","22,2","88,3","0","0"],
    [2225,"2014-05-03T03:00:00","ND","ND","14,21","2,4","189,5","22","88,6","0","0"],
    [2226,"2014-05-03T04:00:00","ND","ND","12,62","1,8","176,4","22","87,1","0","0"],
    [2227,"2014-05-03T05:00:00","ND","ND","9,6","2","154","22","87,9","0","0"],
    [2228,"2014-05-03T06:00:00","ND","9","5,75","1,4","122,2","21,9","88,6","0","0"],
    [2229,"2014-05-03T07:00:00","ND","9","6,93","1,5","190,5","22,1","86,6","0","0"],
    [2230,"2014-05-03T08:00:00","ND","7","7,83","2,3","144,9","22,4","85,3","41,5","0"],
    [2231,"2014-05-03T09:00:00","ND","4","15,66","1,3","198,2","23,2","81,5","146,7","0"],
    [2232,"2014-05-03T10:00:00","ND","6","34,07","2,8","219,3","24,8","73,6","359,5","0"],
    [2233,"2014-05-03T11:00:00","ND","6","48,9","2,9","192","26,2","66,1","409,6","0"],
    [2234,"2014-05-03T12:00:00","ND","8","56,75","2,8","142,4","27,5","59,5","424","0"],
    [2235,"2014-05-03T13:00:00","ND","11","62,03","3","128,9","27,9","58,5","271,6","0"],
    [2236,"2014-05-03T14:00:00","ND","14","70,27","3,3","142,9","28,3","57,2","296,3","0"],
    [2237,"2014-05-03T15:00:00","ND","16","94,29","2,2","155,7","28,9","55,6","419,4","0"],
    [2238,"2014-05-03T16:00:00","ND","29","93,09","2,7","73,5","29,4","54,1","173,1","0"],
    [2239,"2014-05-03T17:00:00","ND","29","87,7","3,6","59,5","29,4","55,8","96","0"],
    [2240,"2014-05-03T18:00:00","ND","8","28,12","3,8","312","28,5","54,9","9","0"],
    [2241,"2014-05-03T19:00:00","ND","7","14,66","4,1","296","27,4","57,9","0","0"],
    [2242,"2014-05-03T20:00:00","ND","8","6,89","0,9","320,2","26,7","60,8","0","0"],
    [2243,"2014-05-03T21:00:00","ND","19","7,28","3,5","104","24,6","74,8","0","0"],
    [2244,"2014-05-03T22:00:00","ND","15","8,52","3,1","142,5","24,5","75,1","0","0"],
    [2245,"2014-05-03T23:00:00","ND","22","11,4","2,6","150,8","24,2","76,2","0","0"],
    [2246,"2014-05-04T00:00:00","ND","7","17,98","3,7","174,3","23,6","79,2","0","0"],
    [2247,"2014-05-04T01:00:00","ND","12","13,01","2,1","127,8","22,8","82,4","0","0"],
    [2248,"2014-05-04T02:00:00","ND","10","12,32","1,8","242,6","22,8","80,9","0","0"],
    [2249,"2014-05-04T03:00:00","ND","7","16,97","0,7","237,9","22,7","81","0","0"],
    [2250,"2014-05-04T04:00:00","ND","9","8,14","1,2","84,6","22,8","81,6","0","0"],
    [2251,"2014-05-04T05:00:00","ND","9","6,16","3,2","109,9","22,1","86","0","0"],
    [2252,"2014-05-04T06:00:00","ND","12","4,83","0,5","62,1","22,2","85,4","0","0"],
    [2253,"2014-05-04T07:00:00","ND","20","6,18","0,5","158,6","22,5","83,9","12,3","0"],
    [2254,"2014-05-04T08:00:00","ND","23","11,52","1,6","151,4","23,2","81,6","71,3","0"],
    [2255,"2014-05-04T09:00:00","ND","11","20,17","2,6","114,7","24,1","78,6","163,2","0"],
    [2256,"2014-05-04T10:00:00","ND","10","28,89","2,9","134,9","25,1","72,8","217,9","0"],
    [2257,"2014-05-04T11:00:00","ND","7","45,25","2,4","134,2","26,1","67,1","384,7","0"],
    [2258,"2014-05-04T12:00:00","ND","6","54,67","3,8","120,7","27,3","61,2","319","0"],
    [2259,"2014-05-04T13:00:00","ND","8","69,11","4","123,4","27,8","59,8","269,7","0"],
    [2260,"2014-05-04T14:00:00","ND","10","71,67","3,8","92,5","28,8","56,9","322,4","0"],
    [2261,"2014-05-04T15:00:00","ND","10","74,79","2,7","76","28,8","56,9","155,3","0"],
    [2262,"2014-05-04T16:00:00","ND","9","63,58","2,9","354,2","28,9","55,3","101,8","0"],
    [2263,"2014-05-04T17:00:00","ND","8","34,46","3,6","306,7","27,5","59,7","48,3","4,32"],
    [2264,"2014-05-04T18:00:00","ND","11","19,04","2","202,4","25,7","72,3","17,9","1,52"],
    [2265,"2014-05-04T19:00:00","ND","10","9,03","0,4","59,4","25,6","71,5","0","0"],
    [2266,"2014-05-04T20:00:00","ND","11","21,74","3,3","170,6","24","75,7","0","0"],
    [2267,"2014-05-04T21:00:00","ND","8","25,08","3,9","203,8","22,9","80,9","0","0"],
    [2268,"2014-05-04T22:00:00","ND","ND","23,39","3,6","201","22,6","81,9","0","0"],
    [2269,"2014-05-04T23:00:00","ND","3","19,02","3,4","220,7","21,9","85,4","0","0"],
    [2270,"2014-05-05T00:00:00","ND","6","11,52","3,3","224,1","21,8","86,3","0","0"],
    [2271,"2014-05-05T01:00:00","ND","5","12,68","1,9","154,5","21,6","86,6","0","0"],
    [2272,"2014-05-05T02:00:00","ND","5","10,89","2,9","116,6","20,7","90,7","0","0"],
    [2273,"2014-05-05T03:00:00","ND","5","11,21","1,5","0,9","20,5","91,2","0","0"],
    [2274,"2014-05-05T04:00:00","ND","6","8,3","1,4","7,8","20,7","90,1","0","0"],
    [2275,"2014-05-05T05:00:00","ND","19","5,22","1,1","87,3","20,9","89,6","0","0"],
    [2276,"2014-05-05T06:00:00","ND","29","4,45","0,6","94,3","20,8","89,8","0","0"],
    [2277,"2014-05-05T07:00:00","ND","24","4,77","1,3","212,2","20,7","90,5","34,5","0"],
    [2278,"2014-05-05T08:00:00","ND","30","11,21","2","135,8","21,8","87,8","158,7","0"],
    [2279,"2014-05-05T09:00:00","ND","37","19,68","4,1","123,1","22","87,2","216,7","0"],
    [2280,"2014-05-05T10:00:00","ND","52","36,26","2,8","110,6","23,6","80,5","349,5","0"],
    [2281,"2014-05-05T11:00:00","ND","17","55,65","2,2","61,9","25,9","68,3","438,6","0"],
    [2282,"2014-05-05T12:00:00","ND","ND","24,43","3,8","76,7","27,8","59,6","497,6","0"],
    [2283,"2014-05-05T13:00:00","ND","7","9,5","3,2","79,2","29,1","54","487,2","0"],
    [2284,"2014-05-05T14:00:00","ND","18","9,81","4","90,6","30,2","50,7","459","0"],
    [2285,"2014-05-05T15:00:00","ND","12","13,83","4","50,9","30,9","48,9","317,6","0"],
    [2286,"2014-05-05T16:00:00","ND","9","12,23","4,8","16,4","30,8","48,5","189,9","0"],
    [2287,"2014-05-05T17:00:00","ND","12","9,56","4,9","319,4","29,7","48,9","52,1","0"],
    [2288,"2014-05-05T18:00:00","ND","7","7,91","4,9","301,9","28,9","50","14,1","0"],
    [2289,"2014-05-05T19:00:00","ND","3","3,1","4,7","304,9","27,9","53,2","0","0"],
    [2290,"2014-05-05T20:00:00","ND","4","7,56","4,6","300,9","27,6","53,2","0","0"],
    [2291,"2014-05-05T21:00:00","ND","5","21,04","4,7","168,3","26","62,4","0","0"],
    [2292,"2014-05-05T22:00:00","ND","6","17,35","4,1","155","24,4","69,5","0","0"],
    [2293,"2014-05-05T23:00:00","ND","8","24,14","2","236,3","23,7","71","0","0"],
    [2294,"2014-05-06T00:00:00","ND","25","12,17","1,4","105,8","23,1","76","0","0"],
    [2295,"2014-05-06T01:00:00","ND","7","15,62","2,8","147,7","22,8","77,9","0","0"],
    [2296,"2014-05-06T02:00:00","ND","5","14,4","2,1","138,5","22,3","82,2","0","0"],
    [2297,"2014-05-06T03:00:00","ND","14","15,23","0,8","3,4","22,3","81,3","0","0"],
    [2298,"2014-05-06T04:00:00","ND","11","13,48","0,6","210","22,6","79,9","0","0"],
    [2299,"2014-05-06T05:00:00","ND","14","9,54","1,8","134,6","22,3","82,7","0","0"],
    [2300,"2014-05-06T06:00:00","ND","11","5,85","2,1","157,5","22,1","84,9","0","0"],
    [2301,"2014-05-06T07:00:00","ND","21","5,44","1,9","156,6","22,3","84,7","4,6","0"],
    [2302,"2014-05-06T08:00:00","ND","30","8,95","1,5","153,8","22,9","82,6","53,1","0"],
    [2303,"2014-05-06T09:00:00","ND","21","17,7","1","155,3","23,7","78,2","90,8","0"],
    [2304,"2014-05-06T10:00:00","ND","24","33,79","1,5","117,6","25,1","72,1","260,1","0"],
    [2305,"2014-05-06T11:00:00","ND","15","62,05","1,6","108,8","26,5","65,4","389,3","0"],
    [2306,"2014-05-06T12:00:00","ND","12","69,08","3,3","100","27,7","58,8","345,8","0"],
    [2307,"2014-05-06T13:00:00","ND","9","74,73","2,6","74,9","28,9","55,5","420,8","0"],
    [2308,"2014-05-06T14:00:00","ND","11","66,64","4,4","329,2","28,4","56,7","118,1","0"],
    [2309,"2014-05-06T15:00:00","ND","11","41,72","3","40,4","27","65,9","128,5","1,52"],
    [2310,"2014-05-06T16:00:00","ND","9","35,3","6,6","82,2","25,9","74,6","197,4","0"],
    [2311,"2014-05-06T17:00:00","ND","10","27,96","6,1","84,8","24,5","80,4","17,2","0"],
    [2312,"2014-05-06T18:00:00","ND","12","25,63","0,7","235,8","25,3","72,2","7,7","0"],
    [2313,"2014-05-06T19:00:00","ND","27","25,73","3,9","199,6","25,2","73,1","0","0"],
    [2314,"2014-05-06T20:00:00","ND","23","30,14","4,7","212,6","24,2","77,1","0","0"],
    [2315,"2014-05-06T21:00:00","ND","17","27","3,8","211,8","23,8","76,9","0","0"],
    [2316,"2014-05-06T22:00:00","ND","13","9,16","2,7","112,6","23,2","82,2","0","0"],
    [2317,"2014-05-06T23:00:00","ND","28","9,46","0,7","70,6","22,8","84,9","0","0"],
    [2318,"2014-05-07T00:00:00","ND","13","11,79","2,8","67,1","22,7","85,5","0","0"],
    [2319,"2014-05-07T01:00:00","ND","9","13,32","1,2","53,4","22,4","86,5","0","0"],
    [2320,"2014-05-07T02:00:00","ND","18","13,23","0,4","354,6","22,5","85,5","0","0"],
    [2321,"2014-05-07T03:00:00","ND","18","8,63","0,7","66,4","22,6","86","0","0"],
    [2322,"2014-05-07T04:00:00","ND","18","7,57","2","145,6","22,3","87,6","0","0"],
    [2323,"2014-05-07T05:00:00","ND","12","5,02","1,3","135,1","22,1","90","0","0,25"],
    [2324,"2014-05-07T06:00:00","ND","27","4,69","2,1","99,9","22,1","90,4","0","2,03"],
    [2325,"2014-05-07T07:00:00","ND","22","5,44","3,5","57,2","21,8","91,1","0","16"],
    [2326,"2014-05-07T08:00:00","ND","10","11,72","2,2","55,1","21,4","91,4","0","27,69"],
    [2327,"2014-05-07T09:00:00","ND","12","15,88","2,6","73,2","21,3","91","21,2","9,4"],
    [2328,"2014-05-07T10:00:00","ND","6","20,45","0,5","84,7","21,4","89,6","60,1","0,25"],
    [2329,"2014-05-07T11:00:00","ND","2","37,19","1,4","32,9","23,2","83,1","396,6","0"],
    [2330,"2014-05-07T12:00:00","ND","2","55,22","2,5","209,7","25","73,5","426,4","0"],
    [2331,"2014-05-07T13:00:00","ND","2","55,08","4","218,2","25,9","68,2","466,5","0"],
    [2332,"2014-05-07T14:00:00","ND","1","61,5","2,7","160,6","27,2","64,1","485,7","0"],
    [2333,"2014-05-07T15:00:00","ND","1","70,68","1,2","145,3","28","60,7","311,5","0"],
    [2334,"2014-05-07T16:00:00","ND","3","78,75","1,9","184,2","28,4","59,7","222,3","0"],
    [2335,"2014-05-07T17:00:00","ND","11","70,06","3,4","96,7","27,1","63,1","42,9","0"],
    [2336,"2014-05-07T18:00:00","ND","10","47,69","4,1","176,2","23,3","80","19,8","57,15"],
    [2337,"2014-05-07T19:00:00","ND","13","11,17","1,7","302,3","24,2","80,5","0","0,25"],
    [2338,"2014-05-07T20:00:00","ND","28","8,3","2,1","79,9","23,8","82,9","0","0"],
    [2339,"2014-05-07T21:00:00","ND","28","7,26","2,4","80,6","23,8","82,6","0","0"],
    [2340,"2014-05-07T22:00:00","ND","24","6,69","2,8","71,8","23,5","84,1","0","0"],
    [2341,"2014-05-07T23:00:00","ND","10","9,67","1,3","23,7","23,4","84,5","0","0"],
    [2342,"2014-05-08T00:00:00","ND","9","7,79","0,7","323,7","23,5","82,6","0","0"],
    [2343,"2014-05-08T01:00:00","ND","12","6,04","1,4","148,7","23,3","84,2","0","0"],
    [2344,"2014-05-08T02:00:00","ND","11","9,99","2,2","194,8","22,6","87,9","0","0"],
    [2345,"2014-05-08T03:00:00","ND","6","6,95","2,8","216,5","22,2","89,7","0","0"],
    [2346,"2014-05-08T04:00:00","ND","9","10,11","2,1","210,5","22,2","89,1","0","0"],
    [2347,"2014-05-08T05:00:00","ND","7","8,63","1,3","179,3","22,3","87,7","0","0"],
    [2348,"2014-05-08T06:00:00","ND","12","5,87","1,1","110,8","22,3","88","0","0"],
    [2349,"2014-05-08T07:00:00","ND","24","4,91","1,1","118,2","22,1","89,4","12,1","0"],
    [2350,"2014-05-08T08:00:00","ND","29","6,85","2,3","102,3","22,5","88,7","60","0"],
    [2351,"2014-05-08T09:00:00","ND","28","13,91","1,9","71,6","23,7","83,8","161,1","0"],
    [2352,"2014-05-08T10:00:00","ND","15","29,04","3,6","38,9","24,6","78,1","233,9","0"],
    [2353,"2014-05-08T11:00:00","ND","12","31,85","4,9","19,7","25,2","76","411,5","0"],
    [2354,"2014-05-08T12:00:00","ND","16","43,07","3","50,6","26,4","67","520,2","0"],
    [2355,"2014-05-08T13:00:00","ND","2","53,02","4","55,8","28,1","59,5","484,7","0"],
    [2356,"2014-05-08T14:00:00","ND","5","60,5","4,1","33,1","28,7","52,6","405,9","0"],
    [2357,"2014-05-08T15:00:00","ND","5","52,16","4","39,2","29,3","49,1","255,1","0"],
    [2358,"2014-05-08T16:00:00","ND","4","51,96","0,8","157,5","28,7","53,1","131,6","0"],
    [2359,"2014-05-08T17:00:00","ND","15","71,82","6,2","205,1","25,8","69,3","47,2","0"],
    [2360,"2014-05-08T18:00:00","ND","10","39,48","5,2","153,3","24","79,5","7,6","0"],
    [2361,"2014-05-08T19:00:00","ND","21","23,92","3,9","135,2","22,5","86","0","0,51"],
    [2362,"2014-05-08T20:00:00","ND","8","27,57","1,4","178,9","21,9","86,6","0","0"],
    [2363,"2014-05-08T21:00:00","ND","10","29,4","3","253,8","22,2","85,6","0","0"],
    [2364,"2014-05-08T22:00:00","ND","7","18,29","3,5","251,9","22,5","83,8","0","0"],
    [2365,"2014-05-08T23:00:00","ND","6","22,14","3,6","211,1","22,4","84,6","0","0"],
    [2366,"2014-05-09T00:00:00","ND","3","35,58","4,4","238,7","21,6","87,9","0","1,02"],
    [2367,"2014-05-09T01:00:00","ND","2","39,93","3,4","230,2","21","90,7","0","7,11"],
    [2368,"2014-05-09T02:00:00","ND","1","38,68","1,7","308,3","20,9","91,4","0","20,07"],
    [2369,"2014-05-09T03:00:00","ND","ND","34,62","2,6","91,7","20,6","92,2","0","22,35"],
    [2370,"2014-05-09T04:00:00","ND","ND","35,72","3,3","93,9","20","92,9","0","9,65"],
    [2371,"2014-05-09T05:00:00","ND","1","21,35","2,7","96,3","20,3","93,4","0","5,33"],
    [2372,"2014-05-09T06:00:00","ND","3","19,64","0,7","270,7","20,4","92,2","0","1,78"],
    [2373,"2014-05-09T07:00:00","ND","5","11,17","3","284,7","20,8","90,3","8,9","0,51"],
    [2374,"2014-05-09T08:00:00","ND","3","14,07","1,8","287,3","21,3","87,9","34,7","0,25"],
    [2375,"2014-05-09T09:00:00","ND","19","15,42","2,5","101,9","21,8","87","78,7","0"],
    [2376,"2014-05-09T10:00:00","ND","12","25","2,2","100,2","22,6","82,8","180,9","0"],
    [2377,"2014-05-09T11:00:00","ND","9","38,19","1,6","95,1","23,7","76,4","299,7","0"],
    [2378,"2014-05-09T12:00:00","ND","4","48,67","2,1","103,9","25,4","67,9","408,2","0"],
    [2379,"2014-05-09T13:00:00","ND","5","59,26","1,9","18,2","26,7","63,4","445,3","0"],
    [2380,"2014-05-09T14:00:00","ND","5","51,06","3,6","73,3","27,7","57,3","446","0"],
    [2381,"2014-05-09T15:00:00","ND","5","69,92","4,1","51,5","28,2","57,4","151,7","0"],
    [2382,"2014-05-09T16:00:00","ND","8","53,42","4,3","22,3","28,4","55","194,3","0"],
    [2383,"2014-05-09T17:00:00","ND","5","28,65","6,9","308","27,3","55,9","54,4","0"],
    [2384,"2014-05-09T18:00:00","ND","3","19,23","6,6","315,1","26,1","59,2","12,4","0"],
    [2385,"2014-05-09T19:00:00","ND","5","23,94","2,2","234,4","25,3","63,9","0","0"],
    [2386,"2014-05-09T20:00:00","ND","5","35,7","4,7","214,1","22,3","83,4","0","6,1"],
    [2387,"2014-05-09T21:00:00","ND","10","17,33","3,7","289,2","21,8","86,8","0","1,78"],
    [2388,"2014-05-09T22:00:00","ND","7","20,66","3,2","290,5","21,5","87,8","0","6,6"],
    [2389,"2014-05-09T23:00:00","ND","7","17,41","1,4","333,8","21,2","89,7","0","10,41"],
    [2390,"2014-05-10T00:00:00","ND","6","19,6","1,3","199,6","21,4","89","0","0,25"],
    [2391,"2014-05-10T01:00:00","ND","8","15,03","2","234,6","21,4","89,1","0","0"],
    [2392,"2014-05-10T02:00:00","ND","10","15,78","2,2","216,6","21,3","89,9","0","0"],
    [2393,"2014-05-10T03:00:00","ND","5","24,8","2,3","215,8","21,1","89,3","0","0"],
    [2394,"2014-05-10T04:00:00","ND","1","21,37","1,3","157,9","21,2","89,1","0","0"],
    [2395,"2014-05-10T05:00:00","ND","3","16,95","1,3","170,1","21,3","88,8","0","0"],
    [2396,"2014-05-10T06:00:00","ND","16","9,6","1,3","92,1","21,3","89,3","0","0"],
    [2397,"2014-05-10T07:00:00","ND","31","8,38","1,2","39,1","21,4","89,1","7,2","0"],
    [2398,"2014-05-10T08:00:00","ND","38","11,13","0,8","102,6","21,8","87,1","65,4","0"],
    [2399,"2014-05-10T09:00:00","ND","18","24,67","1,2","130,8","22,9","80,4","156,4","0"],
    [2400,"2014-05-10T10:00:00","ND","14","33,89","1,9","126,9","23,6","76,6","212,6","0"],
    [2401,"2014-05-10T11:00:00","ND","11","48,49","1,6","43,4","24,6","71,8","320,9","0"],
    [2402,"2014-05-10T12:00:00","ND","15","62,17","2,5","76,4","25,8","65,5","409,2","0"],
    [2403,"2014-05-10T13:00:00","ND","15","70","2,1","105,9","26,9","60,8","327,8","0"],
    [2404,"2014-05-10T14:00:00","ND","17","89,54","2,6","89,4","27,7","57,9","376,7","0"],
    [2405,"2014-05-10T15:00:00","ND","20","122,41","2,2","27","28,1","56,8","185,3","0"],
    [2406,"2014-05-10T16:00:00","ND","17","88,5","3,9","0,2","27,8","57,9","85,8","0"],
    [2407,"2014-05-10T17:00:00","ND","ND","21,82","7,2","301,3","27","56,6","50,5","0"],
    [2408,"2014-05-10T18:00:00","ND","ND","16,74","6,8","311","26,3","58,3","21,5","0"],
    [2409,"2014-05-10T19:00:00","ND","10","8,52","4,4","328,4","26,1","58,1","0","0"],
    [2410,"2014-05-10T20:00:00","ND","11","7,75","2,2","62,2","25,1","64,8","0","0"],
    [2411,"2014-05-10T21:00:00","ND","8","7,42","2,1","51,5","24,2","71,3","0","0"],
    [2412,"2014-05-10T22:00:00","ND","9","6,79","3,2","253,6","24,2","71","0","0"],
    [2413,"2014-05-10T23:00:00","ND","7","5,83","4,5","211,7","23","82,6","0","0"],
    [2414,"2014-05-11T00:00:00","ND","5","7,03","4,6","214,8","22,7","83,3","0","0"],
    [2415,"2014-05-11T01:00:00","ND","5","8,58","3,5","227","22","86,5","0","11,18"],
    [2416,"2014-05-11T02:00:00","ND","3","12,28","1,9","196","21,7","86,6","0","0"],
    [2417,"2014-05-11T03:00:00","ND","4","11,24","1,5","190,8","21,4","89","0","0,25"],
    [2418,"2014-05-11T04:00:00","ND","3","11,26","2,6","181,5","21,4","89,6","0","0"],
    [2419,"2014-05-11T05:00:00","ND","4","14,6","3,7","212,2","21,1","90,1","0","0"],
    [2420,"2014-05-11T06:00:00","ND","6","13,19","3,9","225,1","20,9","89,3","0","1,52"],
    [2421,"2014-05-11T07:00:00","ND","7","13,85","2,5","242,7","20,6","90,9","9","12,95"],
    [2422,"2014-05-11T08:00:00","ND","9","16,29","1,8","237,3","21,2","88,6","83,9","3,05"],
    [2423,"2014-05-11T09:00:00","ND","7","20,43","1,8","196,5","22,2","83,6","118,3","0"],
    [2424,"2014-05-11T10:00:00","ND","5","28,16","1,5","198,5","23,1","77,9","193,5","0"],
    [2425,"2014-05-11T11:00:00","ND","8","42,03","2,2","193,2","24,5","71,4","431,3","0"],
    [2426,"2014-05-11T12:00:00","ND","4","54,53","1,9","151,5","26,1","62,1","547,6","0"],
    [2427,"2014-05-11T13:00:00","ND","1","51,71","2,7","142,7","27,3","54,9","515,6","0"],
    [2428,"2014-05-11T14:00:00","ND","2","51,9","0,6","49,2","28,1","50,1","481","0"],
    [2429,"2014-05-11T15:00:00","ND","5","58,38","2,2","115,6","29","47,7","355,8","0"],
    [2430,"2014-05-11T16:00:00","ND","9","103,75","2,8","327,7","29,1","49","222,1","0"],
    [2431,"2014-05-11T17:00:00","ND","6","38,19","4,8","358,7","28,2","54,6","68,4","0"],
    [2432,"2014-05-11T18:00:00","ND","5","19,82","3,7","37","28,3","54,6","39,8","0"],
    [2433,"2014-05-11T19:00:00","ND","6","12,32","2,6","42,3","26,6","61","0","0"],
    [2434,"2014-05-11T20:00:00","ND","10","7,42","1,5","312,6","25,8","62,4","0","0"],
    [2435,"2014-05-11T21:00:00","ND","14","5,4","0,9","9,4","24,9","66,3","0","0"],
    [2436,"2014-05-11T22:00:00","ND","7","7,01","1,3","77,9","23,7","73,3","0","0"],
    [2437,"2014-05-11T23:00:00","ND","7","7,89","1,6","39","23,8","72,9","0","0"],
    [2438,"2014-05-12T00:00:00","ND","8","6,28","2","91,3","23","76,7","0","0"],
    [2439,"2014-05-12T01:00:00","ND","6","5,12","1,5","133,1","21,8","82,5","0","0"],
    [2440,"2014-05-12T02:00:00","ND","2","5,2","1,4","109,9","21,4","84,1","0","0"],
    [2441,"2014-05-12T03:00:00","ND","4","6,34","1","354,8","21,3","83,7","0","0"],
    [2442,"2014-05-12T04:00:00","ND","8","4,51","0,4","217,4","21,8","82","0","0"],
    [2443,"2014-05-12T05:00:00","ND","6","4,61","1,9","200,6","21,6","83,6","0","0"],
    [2444,"2014-05-12T06:00:00","ND","12","4,57","1,5","230","21,2","84,8","0","0"],
    [2445,"2014-05-12T07:00:00","ND","9","5,34","1,4","281,6","21,8","82,6","36","0"],
    [2446,"2014-05-12T08:00:00","ND","11","11,58","2,7","208,4","22,9","78,3","115,9","0"],
    [2447,"2014-05-12T09:00:00","ND","12","22,57","4,4","208,3","24,1","75,2","252","0"],
    [2448,"2014-05-12T10:00:00","ND","9","39,66","3,1","173,2","25,9","66,5","273,4","0"],
    [2449,"2014-05-12T11:00:00","ND","6","57,32","2,3","114","27,2","58,6","470,3","0"],
    [2450,"2014-05-12T12:00:00","ND","8","66,03","2,9","102,3","28,3","54,9","499,7","0"],
    [2451,"2014-05-12T13:00:00","ND","9","65,03","2","108,1","29,5","49,5","495,6","0"],
    [2452,"2014-05-12T14:00:00","ND","8","67,11","3,7","107,4","30,1","46,3","456,5","0"],
    [2453,"2014-05-12T15:00:00","ND","ND","90,29","2,6","83,3","30,5","46,8","358,3","0"],
    [2454,"2014-05-12T16:00:00","ND","11","66,98","4,3","356,9","29,9","49,6","60,7","0"],
    [2455,"2014-05-12T17:00:00","ND","ND","35,99","4,7","298,2","29,9","47,1","105,4","0"],
    [2456,"2014-05-12T18:00:00","ND","ND","21,98","5,4","297,7","29","49","26,2","0"],
    [2457,"2014-05-12T19:00:00","ND","13","10,07","1,4","21,6","27,7","55,8","0","0"],
    [2458,"2014-05-12T20:00:00","ND","20","7,32","2,1","142,9","26,4","65,7","0","0"],
    [2459,"2014-05-12T21:00:00","ND","24","9,2","1,2","193,4","25,5","69,3","0","0"],
    [2460,"2014-05-12T22:00:00","ND","26","8,03","2,4","165,9","24,9","72,7","0","0"],
    [2461,"2014-05-12T23:00:00","ND","16","8,24","2,3","165,9","24,1","76,9","0","0"],
    [2462,"2014-05-13T00:00:00","ND","13","10,2","2,1","204,3","23,9","78,2","0","0"],
    [2463,"2014-05-13T01:00:00","ND","9","10,07","1,9","246,5","23,4","81","0","0"],
    [2464,"2014-05-13T02:00:00","ND","7","10,01","1,9","124,7","23,4","80,6","0","0"],
    [2465,"2014-05-13T03:00:00","ND","4","9,14","1,4","133,9","22,8","83,4","0","0"],
    [2466,"2014-05-13T04:00:00","ND","16","6,77","1,3","46,7","22,4","84,6","0","0"],
    [2467,"2014-05-13T05:00:00","ND","21","4,73","1,8","78,2","21,5","87,4","0","0"],
    [2468,"2014-05-13T06:00:00","ND","26","5,06","1,6","44,2","21,6","85,2","0","0"],
    [2469,"2014-05-13T07:00:00","ND","19","5,89","2,5","30,6","21,5","85,1","21,9","0"],
    [2470,"2014-05-13T08:00:00","ND","29","15,86","2,3","58,9","22,8","80,4","159,6","0"],
    [2471,"2014-05-13T09:00:00","ND","18","31,18","2,4","62,8","24,3","74,8","259,6","0"],
    [2472,"2014-05-13T10:00:00","ND","11","42,25","3,1","81,7","25,8","68,2","368","0"],
    [2473,"2014-05-13T11:00:00","ND","8","70,04","1,3","122,2","27,3","61,7","447","0"],
    [2474,"2014-05-13T12:00:00","ND","19","77,81","2,6","151,5","28,8","57,1","489,8","0"],
    [2475,"2014-05-13T13:00:00","ND","17","74,32","3,3","77,3","30","52,3","488","0"],
    [2476,"2014-05-13T14:00:00","ND","14","82,97","3,5","72,3","30,8","50,3","449,2","0"],
    [2477,"2014-05-13T15:00:00","ND","19","103,67","3,2","60","31,4","48,6","370,2","0"],
    [2478,"2014-05-13T16:00:00","ND","17","106,34","4,9","62,1","32,1","46,8","267,9","0"],
    [2479,"2014-05-13T17:00:00","ND","17","80,36","3,6","19,6","31,7","48","137,7","0"],
    [2480,"2014-05-13T18:00:00","ND","7","36,72","7,1","314,8","30,1","49,1","36,9","0"],
    [2481,"2014-05-13T19:00:00","ND","7","18,23","6,5","305","28,7","55,3","0","0"],
    [2482,"2014-05-13T20:00:00","ND","19","12,42","2,7","74,5","27,2","62,8","0","0"],
    [2483,"2014-05-13T21:00:00","ND","15","12,89","2,1","129,1","26","67,6","0","0"],
    [2484,"2014-05-13T22:00:00","ND","16","17,66","2,7","189,1","26,2","67","0","0"],
    [2485,"2014-05-13T23:00:00","ND","10","19,35","1,7","261,2","25,6","70,8","0","0"],
    [2486,"2014-05-14T00:00:00","ND","11","20,9","1,8","166,6","25,3","71,9","0","0"],
    [2487,"2014-05-14T01:00:00","ND","10","15,56","3,1","127","24,4","76,6","0","0"],
    [2488,"2014-05-14T02:00:00","ND","9","16,8","0,5","219,6","24,7","73,9","0","0"],
    [2489,"2014-05-14T03:00:00","ND","12","21,39","2,2","146,9","24,2","76,8","0","0"],
    [2490,"2014-05-14T04:00:00","ND","10","13,99","1,6","171,8","24,1","78,4","0","0"],
    [2491,"2014-05-14T05:00:00","ND","8","9,4","2,7","170,1","23,9","80,1","0","0"],
    [2492,"2014-05-14T06:00:00","ND","10","7,89","0,3","163,4","23,5","82,7","0","0"],
    [2493,"2014-05-14T07:00:00","ND","23","6,57","2,2","136,9","23,3","83,9","0","0"],
    [2494,"2014-05-14T08:00:00","ND","19","9,46","1,7","123,7","23,7","82,4","31","0"],
    [2495,"2014-05-14T09:00:00","ND","19","19,86","2,1","169,3","24,4","81,7","192","0"],
    [2496,"2014-05-14T10:00:00","ND","7","23","4,3","209,4","24,8","77,9","108,3","0"],
    [2497,"2014-05-14T11:00:00","ND","13","21,29","3,3","136,3","25,2","77,2","136,3","0"],
    [2498,"2014-05-14T12:00:00","ND","25","31,42","3,6","99,8","26","74,2","324,2","0"],
    [2499,"2014-05-14T13:00:00","ND","20","56,08","3,4","100,9","27,1","68","255","0"],
    [2500,"2014-05-14T14:00:00","ND","18","61,68","5,4","110,3","27,5","67,6","171","0"],
    [2501,"2014-05-14T15:00:00","ND","23","64,82","4,7","101,8","27,7","66,2","133,3","0"],
    [2502,"2014-05-14T16:00:00","ND","15","41,46","3,7","67,8","28,1","61,3","104,9","0"],
    [2503,"2014-05-14T17:00:00","ND","8","35,44","1,5","340","27,9","58,2","64,3","0"],
    [2504,"2014-05-14T18:00:00","ND","27","15,84","2,3","74,5","27,8","59,7","17,3","0"],
    [2505,"2014-05-14T19:00:00","ND","15","6,87","0,6","264,5","26,7","65,1","0","0"],
    [2506,"2014-05-14T20:00:00","ND","11","5,46","2,5","277,3","26,3","62,2","0","0"],
    [2507,"2014-05-14T21:00:00","ND","34","5,77","3,1","135,2","24,7","74,7","0","0"],
    [2508,"2014-05-14T22:00:00","ND","17","5,57","2,9","114,7","24","75,7","0","0"],
    [2509,"2014-05-14T23:00:00","ND","15","7,54","2,2","134,2","23,9","74,7","0","0"],
    [2510,"2014-05-15T00:00:00","ND","13","7,56","1,2","74,6","23,3","77,6","0","0"],
    [2511,"2014-05-15T01:00:00","ND","9","8,1","2","87,8","23,1","79,3","0","0"],
    [2512,"2014-05-15T02:00:00","ND","18","8,46","1,6","92,6","23","79,2","0","0"],
    [2513,"2014-05-15T03:00:00","ND","1","5,69","1,1","175,7","22,6","81,5","0","0"],
    [2514,"2014-05-15T04:00:00","ND","6","6,97","0,9","143,3","22,4","83,4","0","0"],
    [2515,"2014-05-15T05:00:00","ND","17","5,2","1,3","122,5","22","86,2","0","0"],
    [2516,"2014-05-15T06:00:00","ND","18","4,71","1,3","119,7","21,8","87,3","0","0"],
    [2517,"2014-05-15T07:00:00","ND","19","5,71","0,1","335,2","22,1","85,8","18,7","0"],
    [2518,"2014-05-15T08:00:00","ND","29","7,32","2,6","130,6","22,9","82,6","84,6","0"],
    [2519,"2014-05-15T09:00:00","ND","12","18,25","2","154,1","24,5","75,3","232,1","0"],
    [2520,"2014-05-15T10:00:00","ND","8","36,93","2,6","170,5","26,1","67,4","381,8","0"],
    [2521,"2014-05-15T11:00:00","ND","12","58,44","2,1","150,2","27,5","61","458,1","0"],
    [2522,"2014-05-15T12:00:00","ND","10","75,96","2,8","68,3","28,8","55,1","485","0"],
    [2523,"2014-05-15T13:00:00","ND","17","86,87","3,3","71,6","29,9","51,1","433,9","0"],
    [2524,"2014-05-15T14:00:00","ND","17","72,65","4,9","78,4","30,1","50,2","297","0"],
    [2525,"2014-05-15T15:00:00","ND","8","72,9","3,6","45,7","30,7","48,5","312,9","0"],
    [2526,"2014-05-15T16:00:00","ND","8","ND","4","31,1","30,6","45,3","135,6","0"],
    [2527,"2014-05-15T17:00:00","ND","5","ND","5,9","305,8","30,5","44,2","147,1","0"],
    [2528,"2014-05-15T18:00:00","ND","16","ND","3,8","350,2","28,2","55,7","4,9","1,27"],
    [2529,"2014-05-15T19:00:00","ND","22","5,79","2,3","110,4","25,6","74","0","0,25"],
    [2530,"2014-05-15T20:00:00","ND","10","4,69","2,1","208,4","25,5","72,1","0","0"],
    [2531,"2014-05-15T21:00:00","ND","11","24,51","4,6","196,9","23,5","80,6","0","0"],
    [2532,"2014-05-15T22:00:00","ND","7","19,21","3,3","162,7","22,6","83,2","0","0"],
    [2533,"2014-05-15T23:00:00","ND","7","19,6","2,4","188,6","22,2","84,5","0","0"],
    [2534,"2014-05-16T00:00:00","ND","5","15,29","1,7","156,3","22,4","83,6","0","0"],
    [2535,"2014-05-16T01:00:00","ND","3","13,6","0,3","92,3","22,2","86,1","0","0"],
    [2536,"2014-05-16T02:00:00","ND","4","10,71","3,2","94,7","21,9","87,9","0","0"],
    [2537,"2014-05-16T03:00:00","ND","6","12,09","0,8","208,5","22","86,6","0","0"],
    [2538,"2014-05-16T04:00:00","ND","9","10,79","1,3","181,5","22","87","0","0"],
    [2539,"2014-05-16T05:00:00","ND","11","4,12","1,2","115,4","22","87,7","0","0"],
    [2540,"2014-05-16T06:00:00","ND","17","2,81","1,2","111,3","21,9","88,9","0","0"],
    [2541,"2014-05-16T07:00:00","ND","25","3,3","2,7","93,1","21,8","89,3","10,1","0"],
    [2542,"2014-05-16T08:00:00","ND","18","5,87","0,8","202,1","22,6","87,1","82,7","0"],
    [2543,"2014-05-16T09:00:00","ND","39","9,67","2,9","97,6","23,6","83,4","114,2","0"],
    [2544,"2014-05-16T10:00:00","ND","21","ND","2,7","104,4","25,1","74,1","345,8","0"],
    [2545,"2014-05-16T11:00:00","ND","23","ND","3","114,3","26,7","65,5","301","0"],
    [2546,"2014-05-16T12:00:00","ND","8","54,02","2","131,7","27,8","59,8","371,3","0"],
    [2547,"2014-05-16T13:00:00","ND","5","52,32","3,4","144,4","29","54,4","436,3","0"],
    [2548,"2014-05-16T14:00:00","ND","7","53,73","3,6","151,9","29,5","50,4","315,6","0"],
    [2549,"2014-05-16T15:00:00","ND","9","58,62","4","169,1","29,3","51,1","193,1","0"],
    [2550,"2014-05-16T16:00:00","ND","21","56,28","2,5","140,3","28,6","54,3","76,8","0"],
    [2551,"2014-05-16T17:00:00","ND","16","27,38","5,4","345,3","27,2","59,2","60,1","0"],
    [2552,"2014-05-16T18:00:00","ND","16","15,76","4,1","36,9","26,6","62,6","24,5","0"],
    [2553,"2014-05-16T19:00:00","ND","25","12,89","3,4","71,2","25,1","71,4","0","0"],
    [2554,"2014-05-16T20:00:00","ND","30","8,6","2,9","88,4","24,2","76,2","0","0"],
    [2555,"2014-05-16T21:00:00","ND","16","5,55","3,6","75,9","23,4","77,6","0","0"],
    [2556,"2014-05-16T22:00:00","ND","6","7,26","1,3","55,7","23,6","74,8","0","0"],
    [2557,"2014-05-16T23:00:00","ND","11","9,13","1,4","261,5","23,8","74","0","0"],
    [2558,"2014-05-17T00:00:00","ND","22","4,36","2,6","199,7","23,5","78,9","0","0"],
    [2559,"2014-05-17T01:00:00","ND","8","4,06","1,9","171","23","80,4","0","0"],
    [2560,"2014-05-17T02:00:00","ND","6","4,63","1,1","119,2","22,7","81,7","0","0"],
    [2561,"2014-05-17T03:00:00","ND","2","11,01","2,2","287,9","22,6","83,4","0","0"],
    [2562,"2014-05-17T04:00:00","ND","6","11,22","2,3","233,1","22,6","84,4","0","0"],
    [2563,"2014-05-17T05:00:00","ND","6","6,4","2,1","183,2","22,5","84,2","0","0"],
    [2564,"2014-05-17T06:00:00","ND","33","4,71","1,8","133,4","22,2","85","0","0"],
    [2565,"2014-05-17T07:00:00","ND","12","4,53","1,4","261,2","21,9","85,4","9,8","0"],
    [2566,"2014-05-17T08:00:00","ND","21","7,26","0,4","84,8","22,7","83","67,9","0"],
    [2567,"2014-05-17T09:00:00","ND","20","11,75","2,2","132,5","23,5","79,2","102","0"],
    [2568,"2014-05-17T10:00:00","ND","22","21,43","0,7","207,4","24","75,2","130,6","0"],
    [2569,"2014-05-17T11:00:00","ND","27","28,85","1,4","108","24,7","73,1","166,7","0"],
    [2570,"2014-05-17T12:00:00","ND","23","55,42","1,1","41,8","25,8","68,2","318,4","0"],
    [2571,"2014-05-17T13:00:00","ND","25","85,28","2","81,6","27,2","61,1","406","0"],
    [2572,"2014-05-17T14:00:00","ND","14","81,12","2,6","97,3","28","57,3","285,8","0"],
    [2573,"2014-05-17T15:00:00","ND","10","69,66","3","126,1","29,1","52,6","381,5","0"],
    [2574,"2014-05-17T16:00:00","ND","8","62,31","2,5","88","29,6","50,5","265,4","0"],
    [2575,"2014-05-17T17:00:00","ND","9","54,5","2,5","93,8","29,7","49,5","107,9","0"],
    [2576,"2014-05-17T18:00:00","ND","11","51,85","1,1","304,5","29,3","50,3","19,6","0"],
    [2577,"2014-05-17T19:00:00","ND","19","22,39","2,4","68,4","27,7","58,9","0","0"],
    [2578,"2014-05-17T20:00:00","ND","16","18,01","1,6","9,7","26","66,7","0","0"],
    [2579,"2014-05-17T21:00:00","ND","11","10,66","2,9","274,7","26","65,2","0","0"],
    [2580,"2014-05-17T22:00:00","ND","12","15,64","4","268,3","25,5","67,1","0","0"],
    [2581,"2014-05-17T23:00:00","ND","8","16,21","1,2","230,4","24,9","70,2","0","0"],
    [2582,"2014-05-18T00:00:00","ND","9","9,05","2,1","124,3","23,9","78,2","0","0"],
    [2583,"2014-05-18T01:00:00","ND","13","16,58","2,6","222,6","23,6","78,5","0","0"],
    [2584,"2014-05-18T02:00:00","ND","15","15,23","1,6","218,3","23,6","78,3","0","0"],
    [2585,"2014-05-18T03:00:00","ND","14","21,64","1,3","216,3","23,6","76,7","0","0"],
    [2586,"2014-05-18T04:00:00","ND","13","12,38","1,2","162,5","23,5","77,6","0","0"],
    [2587,"2014-05-18T05:00:00","ND","14","8,56","1,9","146,1","22,8","81,1","0","0"],
    [2588,"2014-05-18T06:00:00","ND","9","6,97","1","158,3","22,7","82,5","0","0"],
    [2589,"2014-05-18T07:00:00","ND","16","6,14","0,8","96,9","22,9","81,8","17,5","0"],
    [2590,"2014-05-18T08:00:00","ND","15","12,44","0,6","175,8","23,5","79,4","73,8","0"],
    [2591,"2014-05-18T09:00:00","ND","15","25,22","2,9","83,2","24,6","74","207,5","0"],
    [2592,"2014-05-18T10:00:00","ND","12","43,62","2,2","123,6","26","67,8","317,9","0"],
    [2593,"2014-05-18T11:00:00","ND","11","56,69","2,5","148","26,9","62,5","279,9","0"],
    [2594,"2014-05-18T12:00:00","ND","12","67,27","2,5","117,6","28,1","59,9","464,8","0"],
    [2595,"2014-05-18T13:00:00","ND","18","77,63","3,3","111,4","29,1","56,5","375,7","0"],
    [2596,"2014-05-18T14:00:00","ND","12","86,54","3,1","115","29,7","52,9","374,3","0"],
    [2597,"2014-05-18T15:00:00","ND","19","97,77","2,9","62,8","30,7","49,3","385,1","0"],
    [2598,"2014-05-18T16:00:00","ND","11","73,33","5,4","9,8","30,1","51,4","145,4","0"],
    [2599,"2014-05-18T17:00:00","ND","9","66,8","4,4","17,6","29,8","51,5","138,8","0"],
    [2600,"2014-05-18T18:00:00","ND","12","34,87","3,5","352,3","28,7","52,3","10,5","0"],
    [2601,"2014-05-18T19:00:00","ND","8","22,04","3,9","318,4","27,7","54,1","0","0"],
    [2602,"2014-05-18T20:00:00","ND","25","9,83","2,2","86,8","26,5","61,4","0","0"],
    [2603,"2014-05-18T21:00:00","ND","12","8,5","3","101,5","24,4","73,1","0","0"],
    [2604,"2014-05-18T22:00:00","ND","7","10,13","1,4","42,1","24,3","72,7","0","0"],
    [2605,"2014-05-18T23:00:00","ND","14","11,91","2,2","23,2","24,9","69,2","0","0"],
    [2606,"2014-05-19T00:00:00","ND","21","6,81","3,1","221,4","24,1","74,6","0","0"],
    [2607,"2014-05-19T01:00:00","ND","6","22,49","3,1","200,2","23,6","75,3","0","0"],
    [2608,"2014-05-19T02:00:00","ND","5","26,35","2,6","151,3","22,8","79,5","0","0"],
    [2609,"2014-05-19T03:00:00","ND","5","21,06","2,1","122,9","21,9","84","0","0"],
    [2610,"2014-05-19T04:00:00","ND","5","16,27","1,5","106,6","21,8","84,6","0","0"],
    [2611,"2014-05-19T05:00:00","ND","12","9,71","1,6","81,2","21,3","87,4","0","0"],
    [2612,"2014-05-19T06:00:00","ND","38","5,81","1,9","82,2","21,4","87,5","0","0"],
    [2613,"2014-05-19T07:00:00","ND","30","5,61","1","148,8","21,3","87,9","22,9","0"],
    [2614,"2014-05-19T08:00:00","ND","19","11,83","2,1","225,6","22","85,4","72,2","0"],
    [2615,"2014-05-19T09:00:00","ND","45","28,43","1","325,1","23,8","78,5","178,9","0"],
    [2616,"2014-05-19T10:00:00","ND","48","53,06","2,3","82","25,4","72","291,8","0"],
    [2617,"2014-05-19T11:00:00","ND","17","71,37","1,8","37,8","26,6","64,8","436,9","0"],
    [2618,"2014-05-19T12:00:00","ND","15","88,93","2,4","112,4","28,4","58,8","471,7","0"],
    [2619,"2014-05-19T13:00:00","ND","17","75,37","3,1","105,1","29,7","52,8","431,2","0"],
    [2620,"2014-05-19T14:00:00","ND","15","82,4","3,2","79,4","30,6","48,7","379,3","0"],
    [2621,"2014-05-19T15:00:00","ND","13","90,8","3,8","99,4","31,3","45,2","388,4","0"],
    [2622,"2014-05-19T16:00:00","ND","20","94,53","3,8","96,9","31,2","46,1","138,3","0"],
    [2623,"2014-05-19T17:00:00","ND","ND","81,12","1,5","299,2","30,7","47,6","49,3","0"],
    [2624,"2014-05-19T18:00:00","ND","21","53,1","6,2","289,7","27,7","54,5","0","0"],
    [2625,"2014-05-19T19:00:00","ND","15","17,41","4,1","305,4","26,9","59,7","0","0"],
    [2626,"2014-05-19T20:00:00","ND","21","18,03","6,4","76,9","24,7","75,2","0","0,25"],
    [2627,"2014-05-19T21:00:00","ND","14","23,53","3,8","30,1","23,4","83,5","0","0"],
    [2628,"2014-05-19T22:00:00","ND","13","13,52","2,5","67,8","23,3","83,3","0","0"],
    [2629,"2014-05-19T23:00:00","ND","8","14,52","1","5,2","23,4","82","0","0"],
    [2630,"2014-05-20T00:00:00","ND","5","14,31","3,5","181,5","23,3","82,6","0","0"],
    [2631,"2014-05-20T01:00:00","ND","10","17,5","3,7","209","23","83,6","0","0"],
    [2632,"2014-05-20T02:00:00","ND","13","21,27","1,9","219,8","23,4","81,1","0","0"],
    [2633,"2014-05-20T03:00:00","ND","14","20,04","0,3","223,3","23,7","79,2","0","0"],
    [2634,"2014-05-20T04:00:00","ND","10","6,06","2,9","90,1","22,4","87,3","0","0,51"],
    [2635,"2014-05-20T05:00:00","ND","20","6,87","1,8","139,6","22,3","88,6","0","0,25"],
    [2636,"2014-05-20T06:00:00","ND","15","6,57","1,4","186,5","22,5","86,8","0","0"],
    [2637,"2014-05-20T07:00:00","ND","18","5,49","1,7","213","22,6","85,9","9,5","0"],
    [2638,"2014-05-20T08:00:00","ND","36","6,73","2,1","93,3","23,1","85,4","77,3","0"],
    [2639,"2014-05-20T09:00:00","ND","19","17,48","2,1","81,8","24,2","80,2","194","0"],
    [2640,"2014-05-20T10:00:00","ND","26","36,4","2,6","109,1","25,5","73,9","344,8","0"],
    [2641,"2014-05-20T11:00:00","ND","19","56,03","2,1","179,2","26,7","67,4","287,5","0"],
    [2642,"2014-05-20T12:00:00","ND","15","52,3","3,4","120,4","27,6","62,2","227,5","0"],
    [2643,"2014-05-20T13:00:00","ND","16","53,61","4,2","110","27,9","61,2","191,9","0"],
    [2644,"2014-05-20T14:00:00","ND","24","65,07","4","90,7","28,2","60,5","265,9","0"],
    [2645,"2014-05-20T15:00:00","ND","22","80,32","3,6","79,1","28,5","58,8","143,2","0"],
    [2646,"2014-05-20T16:00:00","ND","9","41,9","3,4","19,2","27,9","59,3","61,1","0"],
    [2647,"2014-05-20T17:00:00","ND","7","16,41","3,8","293,5","27,5","56,2","59,4","0"],
    [2648,"2014-05-20T18:00:00","ND","14","12,19","2,7","37","27,1","59,5","19,9","0"],
    [2649,"2014-05-20T19:00:00","ND","24","8,22","1,3","8,1","26,2","60,7","0","0"],
    [2650,"2014-05-20T20:00:00","ND","25","8,3","3,7","59,2","24,7","69","0","0"],
    [2651,"2014-05-20T21:00:00","ND","25","10,85","4","58,9","23,8","72,4","0","0"],
    [2652,"2014-05-20T22:00:00","ND","13","9,93","4,1","60,9","23,4","73,3","0","0"],
    [2653,"2014-05-20T23:00:00","ND","8","7,71","2,3","91,3","22,8","77,6","0","0"],
    [2654,"2014-05-21T00:00:00","ND","10","8,03","2,2","82,1","22,6","80,3","0","0"],
    [2655,"2014-05-21T01:00:00","ND","8","11,15","1,2","19,6","22,4","79,5","0","0"],
    [2656,"2014-05-21T02:00:00","ND","13","8,44","1,1","25,1","22,6","79","0","0"],
    [2657,"2014-05-21T03:00:00","ND","19","7,24","1,1","81,7","22,3","80,9","0","0"],
    [2658,"2014-05-21T04:00:00","ND","31","8,83","1,9","58,4","22,1","81,5","0","0"],
    [2659,"2014-05-21T05:00:00","ND","34","6,87","1,9","352,2","22,1","82","0","0"],
    [2660,"2014-05-21T06:00:00","ND","25","4,49","0,9","97,7","22,5","80,9","0","0"],
    [2661,"2014-05-21T07:00:00","ND","31","4,93","1,5","100,6","22,2","82,8","18,6","0"],
    [2662,"2014-05-21T08:00:00","ND","21","5,49","2,9","81,8","22,2","84,1","53","0"],
    [2663,"2014-05-21T09:00:00","ND","15","15,37","0,4","36,1","23,3","78,9","158,4","0"],
    [2664,"2014-05-21T10:00:00","ND","27","30,91","1,1","173,3","24,8","71,1","241,3","0"],
    [2665,"2014-05-21T11:00:00","ND","ND","53,91","2,9","85,1","26,7","60,3","459,2","0"],
    [2666,"2014-05-21T12:00:00","ND","16","70,51","3","84","28,3","53,2","496,8","0"],
    [2667,"2014-05-21T13:00:00","ND","13","70,19","3,2","91,3","29,2","49,9","495,9","0"],
    [2668,"2014-05-21T14:00:00","ND","20","79,65","2,8","122","30,1","47","454,8","0"],
    [2669,"2014-05-21T15:00:00","ND","17","90,27","3,2","107,4","30,6","43,8","357,9","0"],
    [2670,"2014-05-21T16:00:00","ND","18","83,24","4,6","96,4","31","43,8","276,1","0"],
    [2671,"2014-05-21T17:00:00","ND","15","69,45","5","115,2","30,5","44,9","88,7","0"],
    [2672,"2014-05-21T18:00:00","ND","18","48","2,9","87,5","29,9","47,6","9,1","0"],
    [2673,"2014-05-21T19:00:00","ND","20","35,5","2,5","4,8","29,3","49,6","0","0"],
    [2674,"2014-05-21T20:00:00","ND","25","9,91","1,2","93,7","27,6","58,9","0","0"],
    [2675,"2014-05-21T21:00:00","ND","26","11,72","0,6","173,9","27,3","59,7","0","0"],
    [2676,"2014-05-21T22:00:00","ND","37","8,63","2,7","92,2","25,8","66,7","0","0"],
    [2677,"2014-05-21T23:00:00","ND","23","6,59","2","165,7","24,7","71,1","0","0"],
    [2678,"2014-05-22T00:00:00","ND","16","8,75","2,4","133,6","23,7","74,4","0","0"],
    [2679,"2014-05-22T01:00:00","ND","10","12,13","1,5","189,1","23,6","73,9","0","0"],
    [2680,"2014-05-22T02:00:00","ND","17","7,4","1,8","354,7","23,6","74,7","0","0"],
    [2681,"2014-05-22T03:00:00","ND","36","5,06","2,4","93,9","22,6","79,7","0","0"],
    [2682,"2014-05-22T04:00:00","ND","22","4,36","2,7","145,1","22","82,7","0","0"],
    [2683,"2014-05-22T05:00:00","ND","17","5,22","2,3","209,5","21,6","83,8","0","0"],
    [2684,"2014-05-22T06:00:00","ND","21","4,98","1,3","290,3","22,1","83","0","0"],
    [2685,"2014-05-22T07:00:00","ND","46","5,85","1,6","69,9","22,2","82,2","24,3","0"],
    [2686,"2014-05-22T08:00:00","ND","31","7,63","2,9","104,9","22,6","81,6","104,5","0"],
    [2687,"2014-05-22T09:00:00","ND","34","23,69","2,6","198,9","24,2","77,3","183,7","0"],
    [2688,"2014-05-22T10:00:00","ND","26","54,04","1,1","201,6","26,1","66,9","331,5","0"],
    [2689,"2014-05-22T11:00:00","ND","15","74,71","2,9","110,8","27,8","60,9","451,4","0"],
    [2690,"2014-05-22T12:00:00","ND","22","79,75","3,5","103,9","28,8","56,6","525","0"],
    [2691,"2014-05-22T13:00:00","ND","23","98,55","3,4","21,9","29,7","53,6","508,9","0"],
    [2692,"2014-05-22T14:00:00","ND","27","134,44","4,7","2,8","30,8","48","308","0"],
    [2693,"2014-05-22T15:00:00","ND","16","85,79","6,4","16,8","31,2","44,5","283,8","0"],
    [2694,"2014-05-22T16:00:00","ND","16","71,19","5,5","14,1","31,2","42,6","275,1","0"],
    [2695,"2014-05-22T17:00:00","ND","13","53,65","5,6","311,5","30","44,9","65,9","0"],
    [2696,"2014-05-22T18:00:00","ND","10","39,31","6,2","296,7","29,4","45,9","49,4","0"],
    [2697,"2014-05-22T19:00:00","ND","34","17,82","1,2","48","28","53,5","0","0"],
    [2698,"2014-05-22T20:00:00","ND","20","17,68","4,5","121,1","26,5","60,1","0","0"],
    [2699,"2014-05-22T21:00:00","ND","21","25,94","2,5","201,5","25,3","62,9","0","0"],
    [2700,"2014-05-22T22:00:00","ND","16","14,8","3","238,1","25,6","61,2","0","0"],
    [2701,"2014-05-22T23:00:00","ND","28","13,09","2,3","138,1","23,8","71,4","0","0"],
    [2702,"2014-05-23T00:00:00","ND","15","16,92","2,4","202,5","23,3","74,7","0","0"],
    [2703,"2014-05-23T01:00:00","ND","25","11,93","0,9","263,2","23,8","71,4","0","0"],
    [2704,"2014-05-23T02:00:00","ND","20","9,81","3,4","67,7","22,3","81,3","0","0"],
    [2705,"2014-05-23T03:00:00","ND","10","13,17","2,1","74,1","22,6","78,5","0","0"],
    [2706,"2014-05-23T04:00:00","ND","16","12,89","2","171,1","22,3","80,3","0","0"],
    [2707,"2014-05-23T05:00:00","ND","20","6,52","2","188,1","22,1","82,4","0","0"],
    [2708,"2014-05-23T06:00:00","ND","19","4,38","2,7","233,3","21,9","83,6","0","0"],
    [2709,"2014-05-23T07:00:00","ND","37","6,02","1,3","42,3","22,7","79,5","34,6","0"],
    [2710,"2014-05-23T08:00:00","ND","31","9,73","3","46,3","22,7","80,7","86,2","0"],
    [2711,"2014-05-23T09:00:00","ND","16","18,41","2,5","117,4","23,3","78","168,9","0"],
    [2712,"2014-05-23T10:00:00","ND","17","39,93","2,3","179,7","25,3","68,1","349,3","0"],
    [2713,"2014-05-23T11:00:00","ND","15","70,33","1,9","223,3","26,8","61","347,3","0"],
    [2714,"2014-05-23T12:00:00","ND","17","74,98","3","99,9","27,8","56,7","253,4","0"],
    [2715,"2014-05-23T13:00:00","ND","11","69,61","3","101,4","28,6","52,6","379,8","0"],
    [2716,"2014-05-23T14:00:00","ND","8","73,84","3,7","104,2","29,1","50,5","274,4","0"],
    [2717,"2014-05-23T15:00:00","ND","17","88,82","3,3","74,9","30,2","48,4","362,1","0"],
    [2718,"2014-05-23T16:00:00","ND","14","95,37","4","18,1","30,5","46,6","159,8","0"],
    [2719,"2014-05-23T17:00:00","ND","8","42,31","5,6","339,1","29,8","48,9","94,2","0"],
    [2720,"2014-05-23T18:00:00","ND","17","21,82","4,3","24","28,6","54,8","15,3","0"],
    [2721,"2014-05-23T19:00:00","ND","29","14,15","3,2","73,5","26,9","63","0","0"],
    [2722,"2014-05-23T20:00:00","ND","33","13,3","3,3","81,2","25,8","69,8","0","0"],
    [2723,"2014-05-23T21:00:00","ND","17","10,77","2","143,5","24,8","73,5","0","0"],
    [2724,"2014-05-23T22:00:00","ND","24","18,6","3,3","188,7","24,6","73,3","0","0"],
    [2725,"2014-05-23T23:00:00","ND","17","30,53","2,3","207,4","24,3","72,5","0","0"],
    [2726,"2014-05-24T00:00:00","ND","14","25","3","120,6","23,2","77,6","0","0"],
    [2727,"2014-05-24T01:00:00","ND","17","19,25","4,2","110,7","22,3","80,7","0","0"],
    [2728,"2014-05-24T02:00:00","ND","17","22,65","2","214,3","22,1","81,4","0","0"],
    [2729,"2014-05-24T03:00:00","ND","17","31,01","2,2","228,2","22,2","79,6","0","0"],
    [2730,"2014-05-24T04:00:00","ND","12","24,96","1","63,4","22,6","78,4","0","0"],
    [2731,"2014-05-24T05:00:00","ND","13","16,07","2,7","169,2","22,4","80,6","0","0"],
    [2732,"2014-05-24T06:00:00","ND","13","8,58","3,1","164","22","83,9","0","0"],
    [2733,"2014-05-24T07:00:00","ND","10","20,23","3,8","199,9","21,6","84,6","22,7","0"],
    [2734,"2014-05-24T08:00:00","ND","9","28,32","3,8","218,5","22,5","80,2","103,5","0"],
    [2735,"2014-05-24T09:00:00","ND","12","35,79","3,1","174,2","24,5","71,7","163,7","0"],
    [2736,"2014-05-24T10:00:00","ND","9","46,65","1,8","115,6","25,7","67,3","347,8","0"],
    [2737,"2014-05-24T11:00:00","ND","20","66,35","3,6","73,2","27,3","60,4","433,3","0"],
    [2738,"2014-05-24T12:00:00","ND","19","81,91","4,2","75,7","28,6","56,7","456,2","0"],
    [2739,"2014-05-24T13:00:00","ND","13","89,39","2,6","56,4","29,4","54","468","0"],
    [2740,"2014-05-24T14:00:00","ND","12","90,37","3,6","77,9","30,5","49,8","420,1","0"],
    [2741,"2014-05-24T15:00:00","ND","18","90,64","3,6","61,6","31,1","47,6","295,8","0"],
    [2742,"2014-05-24T16:00:00","ND","18","70,57","3,3","20,1","30,7","48,9","47,7","0"],
    [2743,"2014-05-24T17:00:00","ND","4","42,33","6,4","301,8","30,3","47,4","130,8","0"],
    [2744,"2014-05-24T18:00:00","ND","6","32,14","7,4","299,6","28,7","51,9","24","0"],
    [2745,"2014-05-24T19:00:00","ND","6","24,75","5,2","299,9","28,3","52,7","0","0"],
    [2746,"2014-05-24T20:00:00","ND","15","47,47","4,6","253","27","61,1","0","0"],
    [2747,"2014-05-24T21:00:00","ND","20","25,31","2,9","166,2","26,8","62,4","0","0"],
    [2748,"2014-05-24T22:00:00","ND","19","23,29","2,7","208,5","25,8","67,8","0","0"],
    [2749,"2014-05-24T23:00:00","ND","19","23,8","2,1","159","24,6","74,5","0","0"],
    [2750,"2014-05-25T00:00:00","ND","14","19,15","2,1","144,6","24,1","77,1","0","0"],
    [2751,"2014-05-25T01:00:00","ND","14","23","1,6","193,2","24,4","74,2","0","0"],
    [2752,"2014-05-25T02:00:00","ND","13","15,01","2,3","116,8","23,6","79,4","0","0"],
    [2753,"2014-05-25T03:00:00","ND","19","14,54","1","143,5","23,4","80,2","0","0"],
    [2754,"2014-05-25T04:00:00","ND","4","18,66","3,1","205,6","23,5","78,6","0","0"],
    [2755,"2014-05-25T05:00:00","ND","7","10,17","2,3","145,5","22,6","84,6","0","0"],
    [2756,"2014-05-25T06:00:00","ND","14","6,2","0,9","125,9","22,5","84,8","0","0"],
    [2757,"2014-05-25T07:00:00","ND","15","6,99","0,9","133,3","22,7","83,3","13,5","0"],
    [2758,"2014-05-25T08:00:00","ND","18","11,75","1,6","165,7","23,6","78,4","64,9","0"],
    [2759,"2014-05-25T09:00:00","ND","13","24,08","1,9","150,9","24,9","71,8","220,7","0"],
    [2760,"2014-05-25T10:00:00","ND","15","46,02","1,6","148,8","26,6","65,1","344,1","0"],
    [2761,"2014-05-25T11:00:00","ND","12","67,8","2,3","116","27,8","60,4","305","0"],
    [2762,"2014-05-25T12:00:00","ND","25","86,54","1,7","150,7","28,6","57,3","340,7","0"],
    [2763,"2014-05-25T13:00:00","ND","15","91,31","3,5","85,8","29,8","51,7","410","0"],
    [2764,"2014-05-25T14:00:00","ND","20","116,7","2,7","48,4","30,6","49,2","405","0"],
    [2765,"2014-05-25T15:00:00","ND","18","99,53","4,5","47,9","31,3","46,2","312,7","0"],
    [2766,"2014-05-25T16:00:00","ND","11","75,12","4,1","43,6","31,3","44,2","178,8","0"],
    [2767,"2014-05-25T17:00:00","ND","8","50,51","4,4","356,9","31","43,5","143,2","0"],
    [2768,"2014-05-25T18:00:00","ND","9","37,48","5","298,7","29,5","46,6","27,5","0"],
    [2769,"2014-05-25T19:00:00","ND","8","29,91","4,3","300,9","28,5","49,3","0","0"],
    [2770,"2014-05-25T20:00:00","ND","20","12,17","2,8","98,6","26,5","61,2","0","0"],
    [2771,"2014-05-25T21:00:00","ND","15","8,6","3","102,4","24,9","70,7","0","0"],
    [2772,"2014-05-25T22:00:00","ND","12","11,24","3","70,2","24,7","71,1","0","0"],
    [2773,"2014-05-25T23:00:00","ND","10","8,79","2,4","93,1","24,5","71,4","0","0"],
    [2774,"2014-05-26T00:00:00","ND","5","11,11","1,8","105,6","24,1","73,2","0","0"],
    [2775,"2014-05-26T01:00:00","ND","ND","9,77","2,7","121,7","23,5","75,9","0","0"],
    [2776,"2014-05-26T02:00:00","ND","3","8,89","1,5","78,2","23,4","77,1","0","0"],
    [2777,"2014-05-26T03:00:00","ND","13","12,07","1,5","33,9","23","78,1","0","0"],
    [2778,"2014-05-26T04:00:00","ND","8","11,24","0,4","197,8","23,3","77,1","0","0"],
    [2779,"2014-05-26T05:00:00","ND","10","7,22","1,7","155,6","23,2","78,1","0","0"],
    [2780,"2014-05-26T06:00:00","ND","20","5,36","2,2","130,4","22,5","82","0","0"],
    [2781,"2014-05-26T07:00:00","ND","17","6,16","1,1","222","23","80,6","28,8","0"],
    [2782,"2014-05-26T08:00:00","ND","31","10,26","3,2","96,1","23,6","79,7","131,4","0"],
    [2783,"2014-05-26T09:00:00","ND","23","19,84","3,2","88,5","24,9","74","155","0"],
    [2784,"2014-05-26T10:00:00","ND","20","33,95","2","69,1","25,7","70,6","200","0"],
    [2785,"2014-05-26T11:00:00","ND","31","60,26","2,2","45,5","26,5","66,3","151,9","0"],
    [2786,"2014-05-26T12:00:00","ND","38","59,28","3,1","97","26,6","65,4","116,8","0"],
    [2787,"2014-05-26T13:00:00","ND","35","64,41","1,9","101,4","27,2","63,1","113,9","0"],
    [2788,"2014-05-26T14:00:00","ND","40","91,15","3","176,2","27,6","62,8","157,9","0"],
    [2789,"2014-05-26T15:00:00","ND","28","105,26","2,8","151,3","28","60,2","169,5","0"],
    [2790,"2014-05-26T16:00:00","ND","27","108,52","2,9","101,8","28,5","57,8","147,2","0"],
    [2791,"2014-05-26T17:00:00","ND","39","94,49","2,8","83,2","28,7","58","65,3","0"],
    [2792,"2014-05-26T18:00:00","ND","38","74,92","2,9","41,8","28,2","59,5","10,1","0"],
    [2793,"2014-05-26T19:00:00","ND","23","9,6","1,7","7,9","27,1","58,7","0","0"],
    [2794,"2014-05-26T20:00:00","ND","20","6,22","1,1","351,5","26,7","58,8","0","0"],
    [2795,"2014-05-26T21:00:00","ND","38","6","2,9","99","24,7","70,9","0","0"],
    [2796,"2014-05-26T22:00:00","ND","10","5,55","2,2","110,8","23,6","77,4","0","0"],
    [2797,"2014-05-26T23:00:00","ND","9","5,49","1,7","85,2","23,1","78,6","0","0"],
    [2798,"2014-05-27T00:00:00","ND","22","5,3","1,7","166,8","23,4","77,5","0","0"],
    [2799,"2014-05-27T01:00:00","ND","20","5,22","1,4","166,6","23,2","79,5","0","0"],
    [2800,"2014-05-27T02:00:00","ND","25","5,71","0,7","248,4","23,1","79,9","0","0"],
    [2801,"2014-05-27T03:00:00","ND","21","5,44","2,1","136,2","22,6","81,7","0","0"],
    [2802,"2014-05-27T04:00:00","ND","15","5,49","1,2","212,7","22,4","82,6","0","0"],
    [2803,"2014-05-27T05:00:00","ND","37","5,95","2,1","167,7","22,7","81,5","0","0"],
    [2804,"2014-05-27T06:00:00","ND","29","5,69","1,5","176,5","22,2","83,5","0","0"],
    [2805,"2014-05-27T07:00:00","ND","39","6,14","1,6","134,7","22,5","81,9","10,5","0"],
    [2806,"2014-05-27T08:00:00","ND","32","7,73","1","135,4","22,9","79,6","50,6","0"],
    [2807,"2014-05-27T09:00:00","ND","35","10,6","2,8","120,8","23,9","77,8","103,2","0"],
    [2808,"2014-05-27T10:00:00","ND","37","27,94","2","156,2","24,9","72,5","207,8","0"],
    [2809,"2014-05-27T11:00:00","ND","47","66,41","1,4","179","26,5","64,8","377,8","0"],
    [2810,"2014-05-27T12:00:00","ND","16","78,95","2,1","155,2","27,8","60","301,5","0"],
    [2811,"2014-05-27T13:00:00","ND","31","73,98","3,8","86,9","28,3","58,2","203,9","0"],
    [2812,"2014-05-27T14:00:00","ND","24","74,24","3","68,9","29,3","52,9","281,9","0"],
    [2813,"2014-05-27T15:00:00","ND","22","103,77","2,8","38,2","30","51,7","334,9","0"],
    [2814,"2014-05-27T16:00:00","ND","25","111,25","4,7","36,8","30,3","51,3","243,6","0"],
    [2815,"2014-05-27T17:00:00","ND","20","53,22","3,7","42,4","29,8","52,7","81,2","0"],
    [2816,"2014-05-27T18:00:00","ND","19","27,83","3,2","35,7","29,1","53,3","29,7","0"],
    [2817,"2014-05-27T19:00:00","ND","10","17,72","3,3","25,8","27,3","61,3","0","0"],
    [2818,"2014-05-27T20:00:00","ND","19","38,72","6,3","220,2","25,3","67,3","0","0"],
    [2819,"2014-05-27T21:00:00","ND","18","24,88","3,2","139,2","24,1","71,5","0","0"],
    [2820,"2014-05-27T22:00:00","ND","11","27","3,5","200,3","23,5","75","0","0"],
    [2821,"2014-05-27T23:00:00","ND","7","24,18","0,9","260,5","23,8","73,6","0","0"],
    [2822,"2014-05-28T00:00:00","ND","13","19,17","2","145,6","23,4","77","0","0"],
    [2823,"2014-05-28T01:00:00","ND","18","17,27","1,4","148,9","22,8","80,9","0","0"],
    [2824,"2014-05-28T02:00:00","ND","24","15,68","1,7","174","22,6","82,2","0","0"],
    [2825,"2014-05-28T03:00:00","ND","18","14,89","2,1","138,1","22,3","83,7","0","0"],
    [2826,"2014-05-28T04:00:00","ND","18","9,42","1,7","188,6","22,1","85","0","0"],
    [2827,"2014-05-28T05:00:00","ND","12","8,46","1,5","183,2","22,3","84,1","0","0"],
    [2828,"2014-05-28T06:00:00","ND","26","5,24","0,8","160,5","22,1","85,1","0","0"],
    [2829,"2014-05-28T07:00:00","ND","40","6,1","1,8","63,3","22,5","84","22,9","0"],
    [2830,"2014-05-28T08:00:00","ND","46","13,34","2,9","21,6","23,7","77,4","97,8","0"],
    [2831,"2014-05-28T09:00:00","ND","44","15,95","2,2","49,3","25,2","70,6","196,6","0"],
    [2832,"2014-05-28T10:00:00","ND","26","31,18","3,6","95,6","26,2","66,3","282","0"],
    [2833,"2014-05-28T11:00:00","ND","27","68,51","1,9","108,5","27,3","61,6","372,8","0"],
    [2834,"2014-05-28T12:00:00","ND","30","104,95","3,2","136,6","28,8","55,7","396,2","0"],
    [2835,"2014-05-28T13:00:00","ND","34","103,1","4","101,7","29,9","51,6","435,2","0"],
    [2836,"2014-05-28T14:00:00","ND","54","104,28","2,6","143,1","30,2","49,5","231,7","0"],
    [2837,"2014-05-28T15:00:00","ND","33","78,04","2,3","333,7","28,8","53,5","67,7","0"],
    [2838,"2014-05-28T16:00:00","ND","11","48,1","5,3","301,9","26,8","55,6","68,1","0"],
    [2839,"2014-05-28T17:00:00","ND","12","38,64","4,8","300","28","52,1","87,5","0"],
    [2840,"2014-05-28T18:00:00","ND","10","25,28","5,2","305,8","28,1","51,8","19,4","0"],
    [2841,"2014-05-28T19:00:00","ND","7","14,31","3,9","315,4","27,4","53","0","0"],
    [2842,"2014-05-28T20:00:00","ND","ND","9,52","2,8","76,7","26,4","61,6","0","0"],
    [2843,"2014-05-28T21:00:00","ND","ND","9,34","1,6","90,4","25,2","68,6","0","0"],
    [2844,"2014-05-28T22:00:00","ND","ND","ND","ND","ND","ND","ND","ND","ND"],
    [2845,"2014-05-28T23:00:00","ND","ND","ND","ND","ND","ND","ND","ND","ND"],
    [2846,"2014-05-29T00:00:00","ND","ND","ND","ND","ND","ND","ND","ND","ND"],
    [2847,"2014-05-29T01:00:00","ND","ND","ND","ND","ND","ND","ND","ND","ND"],
    [2848,"2014-05-29T02:00:00","ND","ND","ND","ND","ND","ND","ND","ND","ND"],
    [2849,"2014-05-29T03:00:00","ND","ND","ND","ND","ND","ND","ND","ND","ND"],
    [2850,"2014-05-29T04:00:00","ND","ND","ND","ND","ND","ND","ND","ND","ND"],
    [2851,"2014-05-29T05:00:00","ND","ND","ND","ND","ND","ND","ND","ND","ND"],
    [2852,"2014-05-29T06:00:00","ND","ND","ND","ND","ND","ND","ND","ND","ND"],
    [2853,"2014-05-29T07:00:00","ND","ND","ND","ND","ND","ND","ND","ND","ND"],
    [2854,"2014-05-29T08:00:00","ND","ND","ND","ND","ND","ND","ND","ND","ND"],
    [2855,"2014-05-29T09:00:00","ND","ND","ND","ND","ND","ND","ND","ND","ND"],
    [2856,"2014-05-29T10:00:00","ND","ND","ND","ND","ND","ND","ND","ND","ND"],
    [2857,"2014-05-29T11:00:00","ND","ND","ND","ND","ND","ND","ND","ND","ND"],
    [2858,"2014-05-29T12:00:00","ND","9","ND","ND","ND","ND","ND","ND","ND"],
    [2859,"2014-05-29T13:00:00","ND","6","32,4","3,9","48","25,7","72,6","397,4","0"],
    [2860,"2014-05-29T14:00:00","ND","8","41,11","4,4","54,9","26,9","65","330,8","0"],
    [2861,"2014-05-29T15:00:00","ND","23","36,7","5,9","65,5","27,2","63,6","159,3","0"],
    [2862,"2014-05-29T16:00:00","ND","14","29,44","6,5","70","26,8","64,8","100,9","0"],
    [2863,"2014-05-29T17:00:00","ND","11","23,63","2,1","37,2","26,6","61,8","51,9","0"],
    [2864,"2014-05-29T18:00:00","ND","12","12,85","3,2","271,7","25,7","62,3","9,7","0"],
    [2865,"2014-05-29T19:00:00","ND","12","14,46","4,8","203,8","23,6","73,7","0","0"],
    [2866,"2014-05-29T20:00:00","ND","7","16,82","4,4","197,2","21,9","82,2","0","0"],
    [2867,"2014-05-29T21:00:00","ND","6","16,66","4,7","170,9","21,2","85,5","0","0"],
    [2868,"2014-05-29T22:00:00","ND","4","16,9","3,7","195,5","20,9","87,6","0","0"],
    [2869,"2014-05-29T23:00:00","ND","4","15,48","3,1","209","20,8","88,5","0","0"],
    [2870,"2014-05-30T00:00:00","ND","5","11,17","1,9","153,9","20,7","88,7","0","0"],
    [2871,"2014-05-30T01:00:00","ND","3","12,7","1,4","219,5","20,9","87,3","0","0"],
    [2872,"2014-05-30T02:00:00","ND","1","11,19","2,4","89,8","20,5","89,4","0","0"],
    [2873,"2014-05-30T03:00:00","ND","4","9,6","2,7","103,6","20,5","90,3","0","0"],
    [2874,"2014-05-30T04:00:00","ND","6","10,15","1,4","188,1","20,7","89,3","0","0"],
    [2875,"2014-05-30T05:00:00","ND","6","9,77","1,4","194,8","20,7","88,8","0","0"],
    [2876,"2014-05-30T06:00:00","ND","18","5,55","0,3","321","20,8","88,3","0","0"],
    [2877,"2014-05-30T07:00:00","ND","24","5,4","2,1","113,5","20,5","89,8","7,8","0"],
    [2878,"2014-05-30T08:00:00","ND","38","7,97","1,1","222,7","21,1","88,4","52,7","0"],
    [2879,"2014-05-30T09:00:00","ND","46","16,76","1,3","92,9","22,5","83","231,1","0"],
    [2880,"2014-05-30T10:00:00","ND","19","45,43","1,3","321,9","24,7","70","317,9","0"],
    [2881,"2014-05-30T11:00:00","ND","25","43,84","2,3","78,3","25,5","65,5","214,1","0"],
    [2882,"2014-05-30T12:00:00","ND","8","59,56","3,8","69,7","26,9","59,8","509,3","0"],
    [2883,"2014-05-30T13:00:00","ND","15","69,53","2,8","76,6","27,8","55,3","371,1","0"],
    [2884,"2014-05-30T14:00:00","ND","12","77,69","3,4","91,6","28,7","53","417,9","0"],
    [2885,"2014-05-30T15:00:00","ND","16","82,26","3,7","96,8","28,9","52,5","297,8","0"],
    [2886,"2014-05-30T16:00:00","ND","17","70,35","4,1","89,4","29,1","52,5","136,1","0"],
    [2887,"2014-05-30T17:00:00","ND","22","64,17","2,8","92,5","28,9","52,7","72,2","0"],
    [2888,"2014-05-30T18:00:00","ND","24","44,17","2,1","102,4","28,7","55,9","17,5","0,25"],
    [2889,"2014-05-30T19:00:00","ND","22","16,8","2,4","240,7","27,6","60,4","0","0"],
    [2890,"2014-05-30T20:00:00","ND","13","6,04","2,3","281,7","26,9","60,2","0","0"],
    [2891,"2014-05-30T21:00:00","ND","28","26,63","2,7","175,2","25,3","74,2","0","0"],
    [2892,"2014-05-30T22:00:00","ND","40","18,64","1,7","103,7","24,8","75,4","0","0"],
    [2893,"2014-05-30T23:00:00","ND","22","8,6","2,1","82,3","24,6","75,5","0","0,25"],
    [2894,"2014-05-31T00:00:00","ND","10","6,93","1,6","58,9","23,9","79,2","0","1,27"],
    [2895,"2014-05-31T01:00:00","ND","11","7,38","1,4","45,2","23","84,2","0","3,81"],
    [2896,"2014-05-31T02:00:00","ND","8","7,63","0,9","9,2","22,5","86,7","0","1,52"],
    [2897,"2014-05-31T03:00:00","ND","9","6,02","0,7","145,1","22,5","87,5","0","0"],
    [2898,"2014-05-31T04:00:00","ND","12","5,28","0,8","152,8","22,5","88,4","0","0,25"],
    [2899,"2014-05-31T05:00:00","ND","16","5,02","2,3","116,3","22,2","89,8","0","0"],
    [2900,"2014-05-31T06:00:00","ND","23","5,04","0,8","173,8","22,3","88,7","0","0"],
    [2901,"2014-05-31T07:00:00","ND","42","6,1","1,5","69,7","22,3","88,6","18,4","0"],
    [2902,"2014-05-31T08:00:00","ND","26","7,67","1,6","125,2","22,9","85,1","61,8","0,25"],
    [2903,"2014-05-31T09:00:00","ND","25","17,03","1,3","160,2","23,7","82,2","144,7","0"],
    [2904,"2014-05-31T10:00:00","ND","25","51,45","2,2","153,2","25,3","74,4","292,3","0"],
    [2905,"2014-05-31T11:00:00","ND","25","57,54","2,2","102,5","26,4","69,4","250,9","0"],
    [2906,"2014-05-31T12:00:00","ND","25","72,61","1,5","69,9","27,7","62,7","399,4","0"],
    [2907,"2014-05-31T13:00:00","ND","24","88,88","2,6","50","29","57","446,1","0"],
    [2908,"2014-05-31T14:00:00","ND","28","97,31","2,3","66,9","29,8","52,5","333,2","0"],
    [2909,"2014-05-31T15:00:00","ND","15","96,92","2,6","115,6","30,7","48,2","356,1","0"],
    [2910,"2014-05-31T16:00:00","ND","16","88,13","4","99,6","31,2","45","256,5","0"],
    [2911,"2014-05-31T17:00:00","ND","14","70,1","3,9","82,5","31,2","44,3","115,1","0"],
    [2912,"2014-05-31T18:00:00","ND","11","43,8","1,3","305,3","30,2","48,7","40,5","0"],
    [2913,"2014-05-31T19:00:00","ND","5","18,01","5,8","301,8","28,2","54,3","0","0"],
    [2914,"2014-05-31T20:00:00","ND","4","10,36","4","325,4","27,6","56,3","0","0"],
    [2915,"2014-05-31T21:00:00","ND","19","8,5","3,5","84,7","25,2","71,2","0","0"],
    [2916,"2014-05-31T22:00:00","ND","25","7,28","3,2","92,1","24,2","75,1","0","0"],
    [2917,"2014-05-31T23:00:00","ND","17","7,57","2,5","93,2","23,7","76,9","0","0"],
    [2918,"2014-06-01T00:00:00","ND","11","6,04","1,6","137,4","24,1","75,2","0","0"],
    [2919,"2014-06-01T01:00:00","ND","12","5,63","2,3","164,6","24","76,9","0","0"],
    [2920,"2014-06-01T02:00:00","ND","17","6,53","1,6","201,2","23,8","78,6","0","0"],
    [2921,"2014-06-01T03:00:00","ND","14","5,32","1,4","188,6","23,5","81,1","0","0"],
    [2922,"2014-06-01T04:00:00","ND","10","5,73","1,5","354,6","22,7","83,2","0","0"],
    [2923,"2014-06-01T05:00:00","ND","11","5","2,1","79,5","22,8","82,7","0","0"],
    [2924,"2014-06-01T06:00:00","ND","7","5,08","1,9","95,2","22,3","84,8","0","0"],
    [2925,"2014-06-01T07:00:00","ND","12","6,34","1,3","174,9","22,8","83,7","13,7","0"],
    [2926,"2014-06-01T08:00:00","ND","16","11,34","2,5","180,5","23,4","81,9","80,4","0"],
    [2927,"2014-06-01T09:00:00","ND","8","23,21","4,3","221,9","24,9","74","214","0"],
    [2928,"2014-06-01T10:00:00","ND","16","37,7","3,6","234,2","25,9","68,7","241,1","0"],
    [2929,"2014-06-01T11:00:00","ND","13","54,55","2,1","159,1","27","65","257,6","0"],
    [2930,"2014-06-01T12:00:00","ND","20","80,1","2,8","130,8","28,3","58,8","461,3","0"],
    [2931,"2014-06-01T13:00:00","ND","20","87,42","3,7","114,5","29,2","55,7","320","0"],
    [2932,"2014-06-01T14:00:00","ND","17","90,74","2,5","82,6","29,8","53,1","255,8","0"],
    [2933,"2014-06-01T15:00:00","ND","19","113,01","3,4","14,6","30,4","51,7","301","0"],
    [2934,"2014-06-01T16:00:00","ND","10","72","3,6","14,7","30,9","47","216,1","0"],
    [2935,"2014-06-01T17:00:00","ND","6","50,51","3,4","16,3","30,8","45,7","136,3","0"],
    [2936,"2014-06-01T18:00:00","ND","4","39,74","5,2","294,6","29,8","47,1","43,2","0"],
    [2937,"2014-06-01T19:00:00","ND","9","29,79","2,1","205,9","26,8","65,3","0","1,02"],
    [2938,"2014-06-01T20:00:00","ND","16","17,94","2,9","157,9","25,7","71,8","0","0,25"],
    [2939,"2014-06-01T21:00:00","ND","14","17,76","2,8","150,7","24,4","74,4","0","0"],
    [2940,"2014-06-01T22:00:00","ND","11","15,37","2,8","149,5","23,6","78","0","0"],
    [2941,"2014-06-01T23:00:00","ND","9","18,86","2","199,8","23,8","75,7","0","0"],
    [2942,"2014-06-02T00:00:00","ND","6","16,41","2,8","226,2","23,6","77,5","0","0"],
    [2943,"2014-06-02T01:00:00","ND","6","11,81","2,6","155,5","23,4","80,4","0","0"],
    [2944,"2014-06-02T02:00:00","ND","4","11,83","2,5","151,8","22,9","82,7","0","0"],
    [2945,"2014-06-02T03:00:00","ND","6","7,69","3,1","118,3","22,6","85,4","0","0"],
    [2946,"2014-06-02T04:00:00","ND","3","10,71","1,5","162,4","22,5","85,1","0","0"],
    [2947,"2014-06-02T05:00:00","ND","3","9,85","1","113,9","22,6","84,6","0","0"],
    [2948,"2014-06-02T06:00:00","ND","3","9,58","1,5","162,2","22","89,2","0","1,78"],
    [2949,"2014-06-02T07:00:00","ND","7","14,38","0,4","120,4","21,4","90,4","0","84,07"],
    [2950,"2014-06-02T08:00:00","ND","5","10,05","2,9","240","21,4","90,8","12,3","8,38"],
    [2951,"2014-06-02T09:00:00","ND","2","6,18","4","246,4","22","88,8","35,7","0,25"],
    [2952,"2014-06-02T10:00:00","ND","2","10,32","2","227,3","22,9","85,2","93,2","0"],
    [2953,"2014-06-02T11:00:00","ND","4","20,45","1","141,6","24","82","288,4","0"],
    [2954,"2014-06-02T12:00:00","ND","7","46,76","1,6","194,4","25,7","71,6","301,9","0"],
    [2955,"2014-06-02T13:00:00","ND","8","63,78","1,6","147","27,2","63,3","420","0"],
    [2956,"2014-06-02T14:00:00","ND","8","59,95","2,5","137,7","27,8","60,6","176,4","0"],
    [2957,"2014-06-02T15:00:00","ND","8","55,79","2,8","75,5","28","60,7","122,3","0"],
    [2958,"2014-06-02T16:00:00","ND","9","43,74","1,7","47,6","28,5","57","169,9","0"],
    [2959,"2014-06-02T17:00:00","ND","10","22,39","2","112,4","28,8","54,1","110,8","0"],
    [2960,"2014-06-02T18:00:00","ND","9","36,54","3,7","184,7","27,1","67,4","41,8","0"],
    [2961,"2014-06-02T19:00:00","ND","12","17,52","3,4","155,1","25,7","76,4","0","1,02"],
    [2962,"2014-06-02T20:00:00","ND","16","14,78","2,8","215,5","24,3","80,2","0","3,56"],
    [2963,"2014-06-02T21:00:00","ND","14","2,96","2,5","215,9","24,3","76","0","0"],
    [2964,"2014-06-02T22:00:00","ND","14","14,62","3,5","212,6","23,6","82,5","0","0"],
    [2965,"2014-06-02T23:00:00","ND","15","15,15","2,6","204,9","23,3","86","0","0"],
    [2966,"2014-06-03T00:00:00","ND","7","10,97","2,1","173,1","23,1","87,3","0","0"],
    [2967,"2014-06-03T01:00:00","ND","4","11,58","1,4","156,4","22,8","88","0","0"],
    [2968,"2014-06-03T02:00:00","ND","8","9,2","2,7","136","22,3","90,2","0","0"],
    [2969,"2014-06-03T03:00:00","ND","14","9,89","1","234,8","22,2","88,3","0","0"],
    [2970,"2014-06-03T04:00:00","ND","ND","7,44","1,8","162,6","22,3","87,4","0","0"],
    [2971,"2014-06-03T05:00:00","ND","16","5,75","0,2","285,8","22,4","86,3","0","0"],
    [2972,"2014-06-03T06:00:00","ND","17","3,34","2,5","159,2","22,4","87,1","0","0"],
    [2973,"2014-06-03T07:00:00","ND","9","3,32","1,8","225,8","22,1","89,4","14,3","0"],
    [2974,"2014-06-03T08:00:00","ND","25","5,42","1,9","76,6","23","87,1","98,2","0"],
    [2975,"2014-06-03T09:00:00","ND","28","15,84","3,8","77,1","24","81,3","234,5","0,25"],
    [2976,"2014-06-03T10:00:00","ND","13","30,06","3","101,8","25,4","72,2","362,4","0"],
    [2977,"2014-06-03T11:00:00","ND","12","48,24","2,9","95,4","26,6","67,1","299,3","0"],
    [2978,"2014-06-03T12:00:00","ND","15","57,34","2,8","75,7","27,6","62,5","387","0"],
    [2979,"2014-06-03T13:00:00","ND","18","57,07","3,3","92,7","28,4","60,2","332,7","0"],
    [2980,"2014-06-03T14:00:00","ND","7","66,64","5,1","37,9","29,8","53,9","390,2","0"],
    [2981,"2014-06-03T15:00:00","ND","ND","42,41","4,4","27,7","29,8","50,9","343,2","0"],
    [2982,"2014-06-03T16:00:00","ND","9","32,81","3,6","67,2","30","49,7","187,2","0"],
    [2983,"2014-06-03T17:00:00","ND","10","23,84","3,7","64,8","30,3","48,7","108,4","0"],
    [2984,"2014-06-03T18:00:00","ND","6","20,19","5,2","301,9","29,5","47,4","45,9","0"],
    [2985,"2014-06-03T19:00:00","ND","4","9,56","5,7","301,8","28","51,9","0","0"],
    [2986,"2014-06-03T20:00:00","ND","6","5,02","3","333,7","27,2","55,1","0","0"],
    [2987,"2014-06-03T21:00:00","ND","13","5,2","2,3","111,6","24,9","69,8","0","0"],
    [2988,"2014-06-03T22:00:00","ND","20","4,42","2,2","29","24,8","69","0","0"],
    [2989,"2014-06-03T23:00:00","ND","19","3","0,8","48,3","24,7","69,6","0","0"],
    [2990,"2014-06-04T00:00:00","ND","4","3,36","0,3","35,6","24,4","70,7","0","0"],
    [2991,"2014-06-04T01:00:00","ND","30","4,75","2,5","107,4","23,7","75,4","0","0"],
    [2992,"2014-06-04T02:00:00","ND","4","2,92","0,9","143,1","23,1","78,5","0","0"],
    [2993,"2014-06-04T03:00:00","ND","14","2,9","1,3","238","23,1","79,2","0","0"],
    [2994,"2014-06-04T04:00:00","ND","13","2,75","1,6","199,5","23,2","78,8","0","0"],
    [2995,"2014-06-04T05:00:00","ND","11","3,18","1,4","168,5","23,1","79,9","0","0"],
    [2996,"2014-06-04T06:00:00","ND","17","2,57","1,6","178,5","23,1","82","0","0"],
    [2997,"2014-06-04T07:00:00","ND","25","3,45","2,8","147,6","23","81,8","12,7","0"],
    [2998,"2014-06-04T08:00:00","ND","20","4,36","1,6","148,9","23,7","80,3","81,3","0"],
    [2999,"2014-06-04T09:00:00","ND","11","17,39","2","208,2","25","71,4","190,7","0"],
    [3000,"2014-06-04T10:00:00","ND","11","27,79","2,6","131,2","25,9","68,2","246,3","0"],
    [3001,"2014-06-04T11:00:00","ND","22","47,33","1,7","120,1","27,1","65","375,3","0"],
    [3002,"2014-06-04T12:00:00","ND","22","58,22","2,1","112,4","27,6","61,7","259","0"],
    [3003,"2014-06-04T13:00:00","ND","17","64,66","3,3","84,6","29,1","54,6","416,4","0"],
    [3004,"2014-06-04T14:00:00","ND","23","87,66","2,6","55,1","29,5","52,3","335,5","0"],
    [3005,"2014-06-04T15:00:00","ND","22","105,01","3,1","60,2","30,1","52,1","321,3","0"],
    [3006,"2014-06-04T16:00:00","ND","21","90,8","3,3","53,6","30,3","51,3","177,7","0"],
    [3007,"2014-06-04T17:00:00","ND","16","50,9","3,2","106,5","30","52,1","81,1","0"],
    [3008,"2014-06-04T18:00:00","ND","8","35,34","3,6","262,7","29,3","52,6","30,4","0"],
    [3009,"2014-06-04T19:00:00","ND","15","23,35","5,6","254,9","27,9","57,2","0","0"],
    [3010,"2014-06-04T20:00:00","ND","9","14,7","4,4","292,5","27,4","56,6","0","0"],
    [3011,"2014-06-04T21:00:00","ND","26","9,28","1,7","23,5","26,9","59,9","0","0"],
    [3012,"2014-06-04T22:00:00","ND","15","4,38","3,9","95,9","24,5","75,7","0","0"],
    [3013,"2014-06-04T23:00:00","ND","15","4,69","2,6","100,3","23,6","78,1","0","0"],
    [3014,"2014-06-05T00:00:00","ND","9","4,71","0,3","113","23,4","77,6","0","0"],
    [3015,"2014-06-05T01:00:00","ND","6","6,26","2","131,4","24","73,9","0","0"],
    [3016,"2014-06-05T02:00:00","ND","7","4,67","1,2","164,7","23,4","77,8","0","0"],
    [3017,"2014-06-05T03:00:00","ND","6","3,26","1,7","89","23,5","76,8","0","0"],
    [3018,"2014-06-05T04:00:00","ND","10","2,94","1,7","134,4","23,1","81","0","0"],
    [3019,"2014-06-05T05:00:00","ND","14","2,45","1,7","124,6","22,7","83,5","0","0"],
    [3020,"2014-06-05T06:00:00","ND","10","3,12","1,8","176,9","22,7","82,6","0","0"],
    [3021,"2014-06-05T07:00:00","ND","7","2,9","1,3","171,5","22,3","84","9,3","0"],
    [3022,"2014-06-05T08:00:00","ND","32","3,94","2,5","86,9","22,4","84,1","42,1","0"],
    [3023,"2014-06-05T09:00:00","ND","30","8,48","3","64,4","23,8","79,3","116,6","0"],
    [3024,"2014-06-05T10:00:00","ND","17","14,5","2,9","83,1","25","74,1","190,6","0"],
    [3025,"2014-06-05T11:00:00","ND","17","29,08","2,2","92,1","26,4","64,6","358,1","0"],
    [3026,"2014-06-05T12:00:00","ND","15","59,26","2,4","119,1","28,2","57,7","505,2","0"],
    [3027,"2014-06-05T13:00:00","ND","17","70,17","4","119,4","29,7","53,3","437,7","0"],
    [3028,"2014-06-05T14:00:00","ND","17","92,92","3,3","131,8","30,2","51","488","0"],
    [3029,"2014-06-05T15:00:00","ND","17","87,11","3,7","121","30,5","49,9","169,5","0"],
    [3030,"2014-06-05T16:00:00","ND","24","82,87","3,5","193,1","30,1","51,3","67,9","0"],
    [3031,"2014-06-05T17:00:00","ND","10","56,67","3,7","247,8","30","48,6","53","0"],
    [3032,"2014-06-05T18:00:00","ND","7","22,9","5,8","288,4","29,5","48","17,2","0"],
    [3033,"2014-06-05T19:00:00","ND","6","13,21","5,7","297,3","28,5","51,9","0","0"],
    [3034,"2014-06-05T20:00:00","ND","15","15,13","4,2","22,1","26,1","67,9","0","0"],
    [3035,"2014-06-05T21:00:00","ND","43","12,68","3,5","74,2","24,4","79","0","0"],
    [3036,"2014-06-05T22:00:00","ND","32","10,4","2,7","60,3","24,4","75,6","0","0"],
    [3037,"2014-06-05T23:00:00","ND","22","7,83","1,9","47","24,4","76,8","0","0"],
    [3038,"2014-06-06T00:00:00","ND","6","5,32","1,6","195,8","24,1","78,7","0","0"],
    [3039,"2014-06-06T01:00:00","ND","26","7,1","2,4","217,1","24,2","77,8","0","0"],
    [3040,"2014-06-06T02:00:00","ND","31","12,85","1,9","164,5","24,3","77","0","0"],
    [3041,"2014-06-06T03:00:00","ND","22","15,35","1,1","204,1","24,3","74,4","0","0"],
    [3042,"2014-06-06T04:00:00","ND","25","9,93","1,3","119,6","23,8","78,7","0","0"],
    [3043,"2014-06-06T05:00:00","ND","37","4,73","1,5","166,5","23,2","83,3","0","0"],
    [3044,"2014-06-06T06:00:00","ND","39","2,88","1,2","116,6","22,8","84,9","0","0"],
    [3045,"2014-06-06T07:00:00","ND","36","4,2","2,4","206,5","23,2","81,5","21,4","0"],
    [3046,"2014-06-06T08:00:00","ND","31","3,92","2,5","131,2","23,4","81,7","32,1","0"],
    [3047,"2014-06-06T09:00:00","ND","18","7,93","2,7","131,4","24,5","75,1","124","0"],
    [3048,"2014-06-06T10:00:00","ND","2","13,09","3,3","137,2","25,6","67,5","153,2","0"],
    [3049,"2014-06-06T11:00:00","ND","19","28,06","2,9","116,1","26,1","67,4","222,6","0"],
    [3050,"2014-06-06T12:00:00","ND","ND","53,14","2,8","115,2","27,6","61,7","363,7","0"],
    [3051,"2014-06-06T13:00:00","ND","ND","74,1","3,7","97,4","29","56,1","436,2","0"],
    [3052,"2014-06-06T14:00:00","ND","25","83,68","3,8","94","29,6","52,1","342,7","0"],
    [3053,"2014-06-06T15:00:00","ND","19","103,83","2,5","66","30,2","50,8","285,8","0"],
    [3054,"2014-06-06T16:00:00","ND","23","100,98","3,3","55,1","30,3","51,2","173,1","0"],
    [3055,"2014-06-06T17:00:00","ND","34","66,78","3,1","137,8","29,2","57,3","49,6","0"],
    [3056,"2014-06-06T18:00:00","ND","7","40,76","4,5","255,3","28,2","56,7","10","0"],
    [3057,"2014-06-06T19:00:00","ND","7","7,87","4,8","282,2","26,9","60,7","0","0"],
    [3058,"2014-06-06T20:00:00","ND","3","6,04","5,2","281,2","26,8","59,9","0","0"],
    [3059,"2014-06-06T21:00:00","ND","18","7,81","1,2","227,8","26,4","64,1","0","0"],
    [3060,"2014-06-06T22:00:00","ND","15","4,36","1,5","202,8","26,1","64,6","0","0"],
    [3061,"2014-06-06T23:00:00","ND","27","7,46","1,9","135,3","25,5","71,2","0","0"],
    [3062,"2014-06-07T00:00:00","ND","10","3,83","1,4","135,4","24,5","76,1","0","0"],
    [3063,"2014-06-07T01:00:00","ND","22","11,36","2,3","176,2","24,5","74,2","0","0"],
    [3064,"2014-06-07T02:00:00","ND","14","11,28","2,3","178,9","24","76,9","0","0"],
    [3065,"2014-06-07T03:00:00","ND","8","8,12","2,1","174,1","23,4","80,6","0","0"],
    [3066,"2014-06-07T04:00:00","ND","5","7,24","2,4","168,6","23,1","82,6","0","0"],
    [3067,"2014-06-07T05:00:00","ND","17","9,77","1,9","225,8","22,6","84,4","0","0,25"],
    [3068,"2014-06-07T06:00:00","ND","14","5,93","1,2","196,2","22,9","83,9","0","0"],
    [3069,"2014-06-07T07:00:00","ND","14","4,63","2,5","183,8","22,5","86,9","6,8","0"],
    [3070,"2014-06-07T08:00:00","ND","12","7,89","3,3","207,1","22,9","86","63,9","0"],
    [3071,"2014-06-07T09:00:00","ND","12","14,95","3,3","201,7","23,9","81,2","201,8","0"],
    [3072,"2014-06-07T10:00:00","ND","8","23,16","3,5","148,3","25,4","71,7","334","0"],
    [3073,"2014-06-07T11:00:00","ND","6","42,43","3,3","161,7","27","62,2","373","0"],
    [3074,"2014-06-07T12:00:00","ND","7","57,48","2,6","127,3","28,1","58,5","350,4","0"],
    [3075,"2014-06-07T13:00:00","ND","16","71,35","3,3","92,2","28,8","55","292,2","0"],
    [3076,"2014-06-07T14:00:00","ND","22","92,49","3,1","62,1","29,5","53,5","287,7","0"],
    [3077,"2014-06-07T15:00:00","ND","26","76,61","4,5","71,3","29,5","54","147","0"],
    [3078,"2014-06-07T16:00:00","ND","17","44,53","5,6","51,1","28,6","57,7","130,9","0"],
    [3079,"2014-06-07T17:00:00","ND","6","25","5,1","300,9","26,1","64,8","25,9","0"],
    [3080,"2014-06-07T18:00:00","ND","16","14,66","1,8","80,4","25,6","66,7","0","0,51"],
    [3081,"2014-06-07T19:00:00","ND","15","4,95","3,2","68","23,5","84,4","0","2,54"],
    [3082,"2014-06-07T20:00:00","ND","14","5,14","3","90,1","22,8","87,4","0","0,76"],
    [3083,"2014-06-07T21:00:00","ND","8","4,57","1,6","145,2","22,7","87,8","0","0"],
    [3084,"2014-06-07T22:00:00","ND","12","5,22","2,8","226,7","22,7","87,3","0","0"],
    [3085,"2014-06-07T23:00:00","ND","7","6,46","2,5","232,3","22,8","85,9","0","0,25"],
    [3086,"2014-06-08T00:00:00","ND","7","8,71","2,4","225,4","22,9","84,5","0","0"],
    [3087,"2014-06-08T01:00:00","ND","10","9,97","2,8","215,4","22,8","86,2","0","0"],
    [3088,"2014-06-08T02:00:00","ND","9","9,13","2","194,7","22,7","86,8","0","0"],
    [3089,"2014-06-08T03:00:00","ND","23","6,95","1,5","187,6","22,5","88,2","0","0"],
    [3090,"2014-06-08T04:00:00","ND","13","4,59","1,7","143,1","22,4","88,5","0","0"],
    [3091,"2014-06-08T05:00:00","ND","9","4,55","2,6","169,9","22,4","88,2","0","0"],
    [3092,"2014-06-08T06:00:00","ND","4","7,42","2,5","221","22,2","87,2","0","0"],
    [3093,"2014-06-08T07:00:00","ND","2","8,32","1,8","191,5","22,2","87,1","0","0"],
    [3094,"2014-06-08T08:00:00","ND","10","6,71","2,5","128,4","22,4","87,6","22","0"],
    [3095,"2014-06-08T09:00:00","ND","12","8,6","2,4","105,8","22,6","87,1","81,5","0"],
    [3096,"2014-06-08T10:00:00","ND","14","14,95","2","90,6","23,7","81,7","206,8","0"],
    [3097,"2014-06-08T11:00:00","ND","16","32,73","2","105,3","25,4","72,6","311,8","0"],
    [3098,"2014-06-08T12:00:00","ND","11","47,12","2,2","118,7","26,8","65,1","435,5","0"],
    [3099,"2014-06-08T13:00:00","ND","10","53,65","3","98,7","28,2","60,1","507,2","0"],
    [3100,"2014-06-08T14:00:00","ND","11","59,15","3,2","84,5","29,1","56,2","399,1","0"],
    [3101,"2014-06-08T15:00:00","ND","11","51,47","4,2","83,3","29,3","53,6","175,7","0"],
    [3102,"2014-06-08T16:00:00","ND","11","48,08","3,5","91,2","29,3","53,4","127,9","0"],
    [3103,"2014-06-08T17:00:00","ND","12","48,88","3,1","101,2","29,2","53,7","89,8","0"],
    [3104,"2014-06-08T18:00:00","ND","7","32,58","3,4","289,4","28,8","53,3","43,3","0"],
    [3105,"2014-06-08T19:00:00","ND","3","16,35","5,7","287","27,7","55,1","0","0"],
    [3106,"2014-06-08T20:00:00","ND","6","14,17","5,2","295,4","27","56,5","0","0"],
    [3107,"2014-06-08T21:00:00","ND","16","6,99","4","96","25,6","67,8","0","0"],
    [3108,"2014-06-08T22:00:00","ND","7","4,08","3,6","71,6","24,5","75,1","0","0"],
    [3109,"2014-06-08T23:00:00","ND","9","5,46","2,9","90","24","75,4","0","0"],
    [3110,"2014-06-09T00:00:00","ND","7","7,16","2,8","68,2","23,4","76,7","0","0"],
    [3111,"2014-06-09T01:00:00","ND","4","11,46","1","44,2","23,6","74,1","0","0"],
    [3112,"2014-06-09T02:00:00","ND","1","8,26","2,4","128,2","23,1","78,5","0","0"],
    [3113,"2014-06-09T03:00:00","ND","ND","11,17","2,3","3,7","22,3","86,9","0","0"],
    [3114,"2014-06-09T04:00:00","ND","16","7,2","2,1","53,5","21,9","89","0","1,52"],
    [3115,"2014-06-09T05:00:00","ND","3","4,87","1,5","0,3","21,9","87,3","0","0"],
    [3116,"2014-06-09T06:00:00","ND","12","2,71","0,2","246","22,3","85,4","0","0"],
    [3117,"2014-06-09T07:00:00","ND","9","3,32","1,3","171,6","22,5","84,3","18,3","0"],
    [3118,"2014-06-09T08:00:00","ND","19","7,63","1,4","106,1","23,5","79,1","96,9","0"],
    [3119,"2014-06-09T09:00:00","ND","14","15,21","1,4","167,1","24,3","76","154,4","0"],
    [3120,"2014-06-09T10:00:00","ND","12","27,55","2,7","231,7","25,6","71,5","233,4","0"],
    [3121,"2014-06-09T11:00:00","ND","11","46,67","1,6","158,1","26,7","65,4","281","0"],
    [3122,"2014-06-09T12:00:00","ND","13","61,15","2,1","51,7","27,7","61,4","219,6","0"],
    [3123,"2014-06-09T13:00:00","ND","16","77,38","3,6","68","28,5","57,7","409,3","0"],
    [3124,"2014-06-09T14:00:00","ND","14","92,92","4,3","66,8","29,3","55","442,7","0"],
    [3125,"2014-06-09T15:00:00","ND","13","78,32","4,9","51,7","30,3","52,2","286,9","0"],
    [3126,"2014-06-09T16:00:00","ND","11","41,64","4,6","51,1","30,2","50,4","120","0"],
    [3127,"2014-06-09T17:00:00","ND","7","27,67","4","354,3","30","48,2","95,4","0"],
    [3128,"2014-06-09T18:00:00","ND","7","24,98","3,2","341,7","29,2","49,7","47,6","0"],
    [3129,"2014-06-09T19:00:00","ND","10","10,62","4,1","300,9","27,8","53,1","0","0"],
    [3130,"2014-06-09T20:00:00","ND","17","5,3","1,7","342,1","26,6","60,1","0","0"],
    [3131,"2014-06-09T21:00:00","ND","22","3,63","3,7","93,4","24,4","72,9","0","0"],
    [3132,"2014-06-09T22:00:00","ND","5","4,4","3,1","94,2","23,1","78,9","0","0"],
    [3133,"2014-06-09T23:00:00","ND","4","5,97","2,6","64,2","23,1","77,2","0","0"],
    [3134,"2014-06-10T00:00:00","ND","6","4,55","0,6","168,2","23,3","76,2","0","0"],
    [3135,"2014-06-10T01:00:00","ND","19","2,85","1,4","182,8","23,2","78,2","0","0"],
    [3136,"2014-06-10T02:00:00","ND","6","2,35","2,9","171,1","22,5","82,1","0","0"],
    [3137,"2014-06-10T03:00:00","ND","6","2,55","1,3","137,1","22,3","82,1","0","0"],
    [3138,"2014-06-10T04:00:00","ND","12","3,71","1,9","298,8","22,6","80,5","0","0"],
    [3139,"2014-06-10T05:00:00","ND","12","2,81","1,6","166,4","22,9","79,6","0","0"],
    [3140,"2014-06-10T06:00:00","ND","17","2,92","1,8","124,4","22,5","82","0","0"],
    [3141,"2014-06-10T07:00:00","ND","31","3,41","1,5","201,4","22,6","82,2","16,6","0"],
    [3142,"2014-06-10T08:00:00","ND","18","6,3","2","194,9","23,5","77,3","45,2","0"],
    [3143,"2014-06-10T09:00:00","ND","17","13,56","1,6","122,5","24,3","74,1","142,8","0"],
    [3144,"2014-06-10T10:00:00","ND","20","32,1","2,2","160,7","26,2","66,3","290,7","0"],
    [3145,"2014-06-10T11:00:00","ND","12","50,67","2,2","141,4","27,6","60,8","431,8","0"],
    [3146,"2014-06-10T12:00:00","ND","17","72,06","1,1","143,6","28,5","56,7","374,8","0"],
    [3147,"2014-06-10T13:00:00","ND","20","94,27","3,4","74,6","29,7","52,4","452,3","0"],
    [3148,"2014-06-10T14:00:00","ND","21","120,35","3,8","62,8","30,6","48,7","378,3","0"],
    [3149,"2014-06-10T15:00:00","ND","14","91,68","3,8","78,1","30,9","47,8","293","0"],
    [3150,"2014-06-10T16:00:00","ND","12","67,33","4","99,1","31,1","47,3","210,8","0"],
    [3151,"2014-06-10T17:00:00","ND","12","55,12","3,7","96","31","48,8","84,6","0"],
    [3152,"2014-06-10T18:00:00","ND","19","33,73","2,4","107,2","30,2","51,6","12,8","0"],
    [3153,"2014-06-10T19:00:00","ND","14","19,76","3","25,7","27,5","54,2","0","0"],
    [3154,"2014-06-10T20:00:00","ND","17","11,72","2","112,9","27,3","53,8","0","0"],
    [3155,"2014-06-10T21:00:00","ND","23","9,6","3","83,1","26,6","62,4","0","0"],
    [3156,"2014-06-10T22:00:00","ND","29","7,42","2,5","144,8","25,8","65,6","0","0"],
    [3157,"2014-06-10T23:00:00","ND","16","10,03","2,6","157,9","24,5","70,3","0","0"],
    [3158,"2014-06-11T00:00:00","ND","7","7,01","0,5","176,4","23,9","74,5","0","0"],
    [3159,"2014-06-11T01:00:00","ND","11","6,42","1,2","53,1","23,8","75,3","0","0"],
    [3160,"2014-06-11T02:00:00","ND","29","5,73","1,9","40,5","23,4","76,8","0","0"],
    [3161,"2014-06-11T03:00:00","ND","16","7,22","1,2","352,4","23,3","75,3","0","0"],
    [3162,"2014-06-11T04:00:00","ND","14","4,26","1,7","107,8","22,9","78,8","0","0"],
    [3163,"2014-06-11T05:00:00","ND","19","2,61","1,9","196,2","22,1","84,3","0","0"],
    [3164,"2014-06-11T06:00:00","ND","23","2,71","2,3","247,9","22","83,1","0","0"],
    [3165,"2014-06-11T07:00:00","ND","42","3,79","0,5","200","22,6","80,4","24,7","0"],
    [3166,"2014-06-11T08:00:00","ND","32","5,36","2,9","147,7","22,5","81,7","95,5","0"],
    [3167,"2014-06-11T09:00:00","ND","24","16,05","1,9","155,3","24","75,6","234,5","0"],
    [3168,"2014-06-11T10:00:00","ND","18","50,75","3,1","45","26,2","65,4","389,3","0"],
    [3169,"2014-06-11T11:00:00","ND","16","63,74","4,4","63,4","27,9","58,2","432,5","0"],
    [3170,"2014-06-11T12:00:00","ND","14","74,04","4,4","82,6","28,8","54,7","359,3","0"],
    [3171,"2014-06-11T13:00:00","ND","19","90,86","3,8","84,6","30,2","49,5","465,3","0"],
    [3172,"2014-06-11T14:00:00","ND","11","102","3,2","74,7","31,4","46,4","423,5","0"],
    [3173,"2014-06-11T15:00:00","ND","10","107,56","4,1","65,8","32,4","43,6","369,4","0"],
    [3174,"2014-06-11T16:00:00","ND","19","93,15","5","69,4","32,6","42,3","203,9","0"],
    [3175,"2014-06-11T17:00:00","ND","20","55,54","4","28,5","32,3","42,1","153,7","0"],
    [3176,"2014-06-11T18:00:00","ND","13","40,78","6","312,1","30,8","45,1","49,2","0"],
    [3177,"2014-06-11T19:00:00","ND","11","19,98","5,1","298,4","29,3","49,3","0","0"],
    [3178,"2014-06-11T20:00:00","ND","26","7,65","3,6","88,9","27,5","59,4","0","0"],
    [3179,"2014-06-11T21:00:00","ND","17","5,24","3,3","74,1","25,4","70,9","0","0"],
    [3180,"2014-06-11T22:00:00","ND","11","5,77","2,1","110,5","25,2","70,9","0","0"],
    [3181,"2014-06-11T23:00:00","ND","9","5,16","2,1","125,3","24,7","73,6","0","0"],
    [3182,"2014-06-12T00:00:00","ND","7","5,75","2,2","103,1","23,9","77,3","0","0"],
    [3183,"2014-06-12T01:00:00","ND","8","4,79","1","152,6","23,9","77,2","0","0"],
    [3184,"2014-06-12T02:00:00","ND","13","4,24","1,5","208,3","23,7","77,9","0","0"],
    [3185,"2014-06-12T03:00:00","ND","13","5,16","2,3","185,2","23,4","79","0","0"],
    [3186,"2014-06-12T04:00:00","ND","13","3,38","1,9","201,3","23,1","79,7","0","0"],
    [3187,"2014-06-12T05:00:00","ND","16","2,85","1,7","155,6","22,6","82,9","0","0"],
    [3188,"2014-06-12T06:00:00","ND","27","2,88","2,9","119,8","22","85,3","0","0"],
    [3189,"2014-06-12T07:00:00","ND","21","3,34","1,5","181,1","22,1","82,9","16,6","0"],
    [3190,"2014-06-12T08:00:00","ND","27","8,14","1,6","12,8","23,7","77,8","165","0"],
    [3191,"2014-06-12T09:00:00","ND","27","18,76","2,8","79,9","25,3","72","226,6","0"],
    [3192,"2014-06-12T10:00:00","ND","11","35,7","2,6","85,2","26,8","64,3","333,4","0"],
    [3193,"2014-06-12T11:00:00","ND","9","59,34","3,2","119,5","28,2","57,9","410,7","0"],
    [3194,"2014-06-12T12:00:00","ND","8","75,12","2,2","106,8","29,6","51,9","449","0"],
    [3195,"2014-06-12T13:00:00","ND","11","85,27","3,7","44,7","31,2","45,5","451,1","0"],
    [3196,"2014-06-12T14:00:00","ND","22","103,44","5,5","51","32,4","43","406,1","0"],
    [3197,"2014-06-12T15:00:00","ND","12","67,02","5,4","54,7","32,4","43,8","212,1","0"],
    [3198,"2014-06-12T16:00:00","ND","7","42,92","5,2","29","32,3","42,4","217,5","0"],
    [3199,"2014-06-12T17:00:00","ND","6","36,11","4","35,6","31,9","42,8","110,2","0"],
    [3200,"2014-06-12T18:00:00","ND","8","21,61","5,1","309,2","30,3","48,1","12,8","0"],
    [3201,"2014-06-12T19:00:00","ND","7","15,35","5,7","304,2","29","52,1","0","0"],
    [3202,"2014-06-12T20:00:00","ND","8","12,25","1,5","309,6","27,8","58,3","0","0"],
    [3203,"2014-06-12T21:00:00","ND","15","5,08","2,9","132,8","27,2","62,7","0","0"],
    [3204,"2014-06-12T22:00:00","ND","10","6,22","2,6","99,7","26","68","0","0"],
    [3205,"2014-06-12T23:00:00","ND","7","8,77","1,1","72,2","25,8","67","0","0"],
    [3206,"2014-06-13T00:00:00","ND","7","8,3","2,1","126,1","25,7","67,9","0","0"],
    [3207,"2014-06-13T01:00:00","ND","15","7,57","1,6","66","25","70,8","0","0"],
    [3208,"2014-06-13T02:00:00","ND","8","7,5","1,7","90","24,5","71,6","0","0"],
    [3209,"2014-06-13T03:00:00","ND","8","8,16","0,5","232,2","24,6","70,2","0","0"],
    [3210,"2014-06-13T04:00:00","ND","17","3,14","2,9","160,5","23,3","79,2","0","0"],
    [3211,"2014-06-13T05:00:00","ND","26","2,71","1,6","193,1","23,2","81","0","0"],
    [3212,"2014-06-13T06:00:00","ND","17","3,16","0,9","158,1","23,3","80,5","0","0"],
    [3213,"2014-06-13T07:00:00","ND","33","3,49","2,6","116,1","23,2","81,6","10,9","0"],
    [3214,"2014-06-13T08:00:00","ND","27","6,67","2,1","183,3","23,4","80,1","53,5","0"],
    [3215,"2014-06-13T09:00:00","ND","21","12,4","2,6","141,4","24,6","74,1","174,2","0"],
    [3216,"2014-06-13T10:00:00","ND","11","29,36","4,5","197,3","26","65,9","262,6","0"],
    [3217,"2014-06-13T11:00:00","ND","9","51,37","3,1","152,4","27,8","57,9","392,8","0"],
    [3218,"2014-06-13T12:00:00","ND","13","65,94","3,6","110,7","28,4","57","232,9","0"],
    [3219,"2014-06-13T13:00:00","ND","14","62,76","4,5","104,3","29,1","56,1","251","0"],
    [3220,"2014-06-13T14:00:00","ND","16","64,35","3,8","88,6","29,8","51","189,1","0"],
    [3221,"2014-06-13T15:00:00","ND","22","84,5","4,1","85,8","30,1","52,2","209,9","0"],
    [3222,"2014-06-13T16:00:00","ND","19","94,06","4,1","79,7","30,5","51,6","156,8","0"],
    [3223,"2014-06-13T17:00:00","ND","5","41,35","5","304,1","30","49,2","63,1","0"],
    [3224,"2014-06-13T18:00:00","ND","11","17,01","4,4","324,9","29,4","50,6","22,8","0"],
    [3225,"2014-06-13T19:00:00","ND","7","10,71","4,5","301,6","28,3","52,2","0","0"],
    [3226,"2014-06-13T20:00:00","ND","18","6,42","1,8","33,9","27","58,9","0","0"],
    [3227,"2014-06-13T21:00:00","ND","16","5,38","3,1","77,1","24,8","73,1","0","0"],
    [3228,"2014-06-13T22:00:00","ND","20","6,61","2,3","96,4","24,7","72","0","0"],
    [3229,"2014-06-13T23:00:00","ND","11","5,48","2,3","108,1","24,2","74,1","0","0"],
    [3230,"2014-06-14T00:00:00","ND","11","4,45","2,5","89","23,6","76","0","0"],
    [3231,"2014-06-14T01:00:00","ND","9","9,01","2,5","92,8","23,6","75,1","0","0"],
    [3232,"2014-06-14T02:00:00","ND","5","9,46","1,5","61","23,3","77,2","0","0"],
    [3233,"2014-06-14T03:00:00","ND","5","8,14","1,2","234","23,5","75,5","0","0"],
    [3234,"2014-06-14T04:00:00","ND","13","3,16","2,4","175,5","23,5","77,5","0","0"],
    [3235,"2014-06-14T05:00:00","ND","10","2,67","3,1","105","22,5","82,5","0","0"],
    [3236,"2014-06-14T06:00:00","ND","27","3,1","1,9","111,7","22,4","82,7","0","0"],
    [3237,"2014-06-14T07:00:00","ND","18","3,89","1,5","208,6","22,8","80,7","9,3","0"],
    [3238,"2014-06-14T08:00:00","ND","26","5,32","1,5","141,3","23,1","80,4","39,4","0"],
    [3239,"2014-06-14T09:00:00","ND","15","19,39","2","197,8","24,7","73,2","243","0"],
    [3240,"2014-06-14T10:00:00","ND","13","33,62","2,1","200,5","26,2","66,3","248,2","0"],
    [3241,"2014-06-14T11:00:00","ND","27","58,52","2,6","108,9","27,9","61,1","437,5","0"],
    [3242,"2014-06-14T12:00:00","ND","19","78","1,8","169,7","29,1","54,9","358","0"],
    [3243,"2014-06-14T13:00:00","ND","20","84,81","3,8","84,7","29,8","52,4","323,6","0"],
    [3244,"2014-06-14T14:00:00","ND","24","100,77","2,4","65,8","30,6","50,3","411,6","0"],
    [3245,"2014-06-14T15:00:00","ND","23","104,75","4,8","90,5","30,9","48,2","223,7","0"],
    [3246,"2014-06-14T16:00:00","ND","29","116,94","3,2","87,5","30,8","48,5","119,7","0"],
    [3247,"2014-06-14T17:00:00","ND","11","49,29","2,7","100,5","29,5","51,8","28,7","0"],
    [3248,"2014-06-14T18:00:00","ND","15","27,2","1,5","61,2","27,3","60,6","7,3","0"],
    [3249,"2014-06-14T19:00:00","ND","9","29,61","3,8","283,1","25,5","62,5","0","0"],
    [3250,"2014-06-14T20:00:00","ND","24","9,58","2,4","123,1","25,3","64,7","0","0"],
    [3251,"2014-06-14T21:00:00","ND","16","11,44","2,5","170,9","23,9","72,2","0","0"],
    [3252,"2014-06-14T22:00:00","ND","17","10,69","1,8","231,4","23,9","71,8","0","0"],
    [3253,"2014-06-14T23:00:00","ND","19","4,79","2,1","346","24,1","72,4","0","0"],
    [3254,"2014-06-15T00:00:00","ND","24","3,67","2,2","3,6","23,7","77,3","0","0"],
    [3255,"2014-06-15T01:00:00","ND","16","3,02","1,2","135,3","22,6","82,6","0","0"],
    [3256,"2014-06-15T02:00:00","ND","24","3,43","2,6","181,4","22,2","83,4","0","0"],
    [3257,"2014-06-15T03:00:00","ND","17","3,45","3","216,5","21,7","84,6","0","0"],
    [3258,"2014-06-15T04:00:00","ND","4","3,51","1,6","194,4","22,3","79,3","0","0"],
    [3259,"2014-06-15T05:00:00","ND","5","2,79","1,4","96,2","21,8","82,8","0","0"],
    [3260,"2014-06-15T06:00:00","ND","20","3,26","1,7","111,4","22","80,8","0","0"],
    [3261,"2014-06-15T07:00:00","ND","28","3,91","2","168,7","21,9","82,7","8,4","0"],
    [3262,"2014-06-15T08:00:00","ND","40","11,44","2,4","207,4","22,3","79,9","70,7","0"],
    [3263,"2014-06-15T09:00:00","ND","24","18,33","2,1","205,7","23,5","77,1","144,2","0"],
    [3264,"2014-06-15T10:00:00","ND","22","33,24","2,5","171,2","24,8","73,1","281,3","0"],
    [3265,"2014-06-15T11:00:00","ND","19","42,6","1,9","126,6","26","67,4","276,6","0"],
    [3266,"2014-06-15T12:00:00","ND","19","55,87","2","96,9","27,6","60,7","380,6","0"],
    [3267,"2014-06-15T13:00:00","ND","19","66,15","3,3","114","28,7","55,5","413,8","0"],
    [3268,"2014-06-15T14:00:00","ND","14","72,94","3,1","89,2","29,8","52","435","0"],
    [3269,"2014-06-15T15:00:00","ND","14","68,43","4,1","88,9","30,8","48,5","356,3","0"],
    [3270,"2014-06-15T16:00:00","ND","14","69,88","4,3","100,9","31,5","45,7","267,3","0"],
    [3271,"2014-06-15T17:00:00","ND","13","65,05","4","118,9","31,8","44","153,3","0"],
    [3272,"2014-06-15T18:00:00","ND","16","53,53","4,6","92,7","30,6","50,3","45,2","0"],
    [3273,"2014-06-15T19:00:00","ND","19","36,5","1,5","349,8","29,4","53,5","0","0"],
    [3274,"2014-06-15T20:00:00","ND","3","23,35","4,9","309,5","28","54,1","0","0"],
    [3275,"2014-06-15T21:00:00","ND","8","15,35","1,7","344,4","27","58","0","0"],
    [3276,"2014-06-15T22:00:00","ND","14","8,67","3,7","115,2","24,8","73,2","0","0"],
    [3277,"2014-06-15T23:00:00","ND","14","9,64","2,3","119,5","24,5","73,3","0","0"],
    [3278,"2014-06-16T00:00:00","ND","12","5,51","2,2","195,3","24,4","72,2","0","0"],
    [3279,"2014-06-16T01:00:00","ND","16","8,95","2,4","120,7","24,2","70,2","0","0"],
    [3280,"2014-06-16T02:00:00","ND","12","13,54","0,6","83,7","24,3","65,4","0","0"],
    [3281,"2014-06-16T03:00:00","ND","13","8,3","1,5","124,6","23,6","68,6","0","0"],
    [3282,"2014-06-16T04:00:00","ND","15","7,97","1,7","157,8","23,1","66,9","0","0"],
    [3283,"2014-06-16T05:00:00","ND","25","6,53","1,6","195,9","22,9","65,4","0","0"],
    [3284,"2014-06-16T06:00:00","ND","19","3,36","1,1","160,4","22,2","70,8","0","0"],
    [3285,"2014-06-16T07:00:00","ND","31","4,1","2,6","123,8","22","72","8,2","0"],
    [3286,"2014-06-16T08:00:00","ND","16","8,85","2,3","166,7","22,4","70,7","122,8","0"],
    [3287,"2014-06-16T09:00:00","ND","22","22,9","2,2","90,7","24,6","63,4","234,9","0"],
    [3288,"2014-06-16T10:00:00","ND","10","40,6","2,6","112,5","26,7","53,5","338,2","0"],
    [3289,"2014-06-16T11:00:00","ND","10","57,12","2,9","140,8","28,4","46,3","416,3","0"],
    [3290,"2014-06-16T12:00:00","ND","11","67,11","3,4","85,7","29,6","42,8","486,4","0"],
    [3291,"2014-06-16T13:00:00","ND","10","63,58","4","82","30,3","40,6","323,7","0"],
    [3292,"2014-06-16T14:00:00","ND","10","65,62","4,8","80,3","30,5","41,2","271,2","0"],
    [3293,"2014-06-16T15:00:00","ND","17","63,09","4,3","95,4","30,3","43","215,3","0"],
    [3294,"2014-06-16T16:00:00","ND","9","80,42","4,8","81,5","31","40,1","280,4","0"],
    [3295,"2014-06-16T17:00:00","ND","11","67,53","4,7","77,4","31","43,5","145,7","0"],
    [3296,"2014-06-16T18:00:00","ND","13","37,78","3,3","79,7","30,3","48,3","36,3","0"],
    [3297,"2014-06-16T19:00:00","ND","9","28,24","3,7","299,1","29","49,2","0","0"],
    [3298,"2014-06-16T20:00:00","ND","30","10,75","2","1,9","27,4","55,9","0","0"],
    [3299,"2014-06-16T21:00:00","ND","4","11,32","2,4","320,7","27,2","55,7","0","0"],
    [3300,"2014-06-16T22:00:00","ND","18","5,36","3,2","117,1","25,3","68,5","0","0"],
    [3301,"2014-06-16T23:00:00","ND","19","6,42","2,2","112,8","24,5","72,1","0","0"],
    [3302,"2014-06-17T00:00:00","ND","11","5,91","1,6","153,4","24,5","71,4","0","0"],
    [3303,"2014-06-17T01:00:00","ND","21","6,26","0,7","178,3","24,3","71,5","0","0"],
    [3304,"2014-06-17T02:00:00","ND","18","6,18","2,2","136,9","23,8","73,8","0","0"],
    [3305,"2014-06-17T03:00:00","ND","13","4,91","2,1","177,5","22,4","78,1","0","0"],
    [3306,"2014-06-17T04:00:00","ND","17","5,38","1,8","167,6","22,2","76,9","0","0"],
    [3307,"2014-06-17T05:00:00","ND","18","3,81","2,1","157,3","22","76","0","0"],
    [3308,"2014-06-17T06:00:00","ND","11","2,96","0,9","162,9","21,9","75,2","0","0"],
    [3309,"2014-06-17T07:00:00","ND","22","3,55","2","156","22,1","74,9","21","0"],
    [3310,"2014-06-17T08:00:00","ND","22","5,16","2,7","99,8","22,6","74,2","64,5","0"],
    [3311,"2014-06-17T09:00:00","ND","34","12,03","1,6","97,9","24","69,7","138,3","0"],
    [3312,"2014-06-17T10:00:00","ND","25","29,26","2,4","62,8","25,5","62,3","233,1","0"],
    [3313,"2014-06-17T11:00:00","ND","31","52,3","3","97,5","26,7","57,3","275,8","0"],
    [3314,"2014-06-17T12:00:00","ND","22","79,75","2,7","114,4","28,3","49,6","448,6","0"],
    [3315,"2014-06-17T13:00:00","ND","11","76,04","2,8","186,2","29,9","42,5","371,3","0"],
    [3316,"2014-06-17T14:00:00","ND","11","72,16","2,5","169,8","30,8","39,4","405,1","0"],
    [3317,"2014-06-17T15:00:00","ND","10","68,33","2,9","141","31,5","37","364,1","0"],
    [3318,"2014-06-17T16:00:00","ND","11","59,22","3,4","156,1","31,9","35,5","227,6","0"],
    [3319,"2014-06-17T17:00:00","ND","15","56,81","4,3","178,1","31,2","39,7","99,2","0"],
    [3320,"2014-06-17T18:00:00","ND","19","62,76","4,3","212,9","29,6","44,2","23,6","0"],
    [3321,"2014-06-17T19:00:00","ND","36","56,83","3","236,8","29,7","44,1","0","0"],
    [3322,"2014-06-17T20:00:00","ND","14","18,41","1,3","290,8","28,5","52,7","0","0"],
    [3323,"2014-06-17T21:00:00","ND","20","14,07","1,8","116","27,6","56,6","0","0"],
    [3324,"2014-06-17T22:00:00","ND","25","8,77","3,6","108,4","26,3","64,5","0","0"],
    [3325,"2014-06-17T23:00:00","ND","17","8,12","2,7","102,1","25,3","71,7","0","0"],
    [3326,"2014-06-18T00:00:00","ND","11","11,97","1,7","122,6","25,4","70,2","0","0"],
    [3327,"2014-06-18T01:00:00","ND","10","15,23","2,7","85,6","25,2","70,3","0","0"],
    [3328,"2014-06-18T02:00:00","ND","9","16,48","3","95,1","24,9","71,1","0","0"],
    [3329,"2014-06-18T03:00:00","ND","11","14,01","1,7","149,9","24,5","72,8","0","0"],
    [3330,"2014-06-18T04:00:00","ND","21","5,2","2,3","174,9","24","76,2","0","0"],
    [3331,"2014-06-18T05:00:00","ND","17","3,39","1,8","148,1","23,5","76,7","0","0"],
    [3332,"2014-06-18T06:00:00","ND","21","2,88","1,6","172,1","22,9","78,6","0","0"],
    [3333,"2014-06-18T07:00:00","ND","26","3,83","2,6","158,1","23","76,2","15,3","0"],
    [3334,"2014-06-18T08:00:00","ND","24","5,38","1,4","109","23,6","73,3","74,6","0"],
    [3335,"2014-06-18T09:00:00","ND","36","9,42","2,5","86,2","24,8","68,8","128,5","0"],
    [3336,"2014-06-18T10:00:00","ND","16","26,22","2,9","80,3","26,1","64,5","257,7","0"],
    [3337,"2014-06-18T11:00:00","ND","17","52,67","2,3","86,9","27,8","55,2","354,9","0"],
    [3338,"2014-06-18T12:00:00","ND","ND","ND","4","82,3","28,7","49,3","289,6","0"],
    [3339,"2014-06-18T13:00:00","ND","22","54,44","4,2","78","28,9","48,9","187,2","0"],
    [3340,"2014-06-18T14:00:00","ND","10","61,85","3,2","70,5","29,7","45,7","249,2","0"],
    [3341,"2014-06-18T15:00:00","ND","13","80,99","3","52,6","30,5","43,8","273,7","0"],
    [3342,"2014-06-18T16:00:00","ND","15","80,73","4,8","81,7","31","41,8","244,7","0"],
    [3343,"2014-06-18T17:00:00","ND","ND","67,13","4,2","95","30,8","41,7","110,2","0"],
    [3344,"2014-06-18T18:00:00","ND","ND","53,91","2,5","93,5","30,5","42,5","17,9","0"],
    [3345,"2014-06-18T19:00:00","ND","ND","32,52","3,2","169,7","28,3","53,1","0","0"],
    [3346,"2014-06-18T20:00:00","ND","ND","24,39","2,6","185,7","27,8","55,1","0","0"],
    [3347,"2014-06-18T21:00:00","ND","ND","17,31","2","211,6","27,5","57,5","0","0"],
    [3348,"2014-06-18T22:00:00","ND","ND","9,97","1,6","176,7","27","60,3","0","0"],
    [3349,"2014-06-18T23:00:00","ND","ND","7,52","2,5","174,6","26,1","65,2","0","0"],
    [3350,"2014-06-19T00:00:00","ND","ND","5,18","1,6","185,3","25,3","66,5","0","0"],
    [3351,"2014-06-19T01:00:00","ND","ND","6,67","1,8","149,3","24,7","67,2","0","0"],
    [3352,"2014-06-19T02:00:00","ND","ND","3,38","2,4","145,1","23,3","76,2","0","0"],
    [3353,"2014-06-19T03:00:00","ND","ND","4,34","2,3","175,5","22,4","82,1","0","0"],
    [3354,"2014-06-19T04:00:00","ND","ND","5,28","1,8","195,3","22,4","80,9","0","0"],
    [3355,"2014-06-19T05:00:00","ND","ND","4,87","1,3","152","22,3","78,6","0","0"],
    [3356,"2014-06-19T06:00:00","ND","ND","4,18","2,1","170,2","21,2","78,1","0","0"],
    [3357,"2014-06-19T07:00:00","ND","ND","3,85","1,2","122,6","21,1","77,6","14,9","0"],
    [3358,"2014-06-19T08:00:00","ND","ND","7,2","2,3","104,4","21,8","76,3","123,8","0"],
    [3359,"2014-06-19T09:00:00","ND","ND","24,04","2,3","39,2","23,9","71,7","193,5","0"],
    [3360,"2014-06-19T10:00:00","ND","ND","36,62","2,5","63,6","26","61","248,2","0"],
    [3361,"2014-06-19T11:00:00","ND","ND","51,22","2","164,9","27,5","47,6","275,2","0"],
    [3362,"2014-06-19T12:00:00","ND","ND","65,68","2,9","190,1","28,6","42,9","304,6","0"],
    [3363,"2014-06-19T13:00:00","ND","ND","69,55","2,6","103","29,2","42,6","255,3","0"],
    [3364,"2014-06-19T14:00:00","ND","ND","56,01","4,7","68,1","29,8","41,5","233,9","0"],
    [3365,"2014-06-19T15:00:00","ND","ND","59,4","4,2","51,2","30,7","38,8","324,9","0"],
    [3366,"2014-06-19T16:00:00","ND","ND","67,15","4,3","60,4","31,1","38","269,4","0"],
    [3367,"2014-06-19T17:00:00","ND","ND","62,82","4","72,7","31,4","36,7","145,3","0"],
    [3368,"2014-06-19T18:00:00","ND","ND","44,15","3","65,7","31,1","37","31","0"],
    [3369,"2014-06-19T19:00:00","ND","ND","33,89","1,7","25,5","30,4","40,9","0","0"],
    [3370,"2014-06-19T20:00:00","ND","ND","25,37","2,2","181,6","30,1","36,4","0","0"],
    [3371,"2014-06-19T21:00:00","ND","ND","14,8","3,5","209,2","28,9","34,7","0","0"],
    [3372,"2014-06-19T22:00:00","ND","ND","9,97","3,4","224,8","28,4","37,6","0","0"],
    [3373,"2014-06-19T23:00:00","ND","ND","11,79","2,4","187","27,7","38,1","0","0"],
    [3374,"2014-06-20T00:00:00","ND","ND","5,81","1,8","57,6","25,3","50,1","0","0"],
    [3375,"2014-06-20T01:00:00","ND","ND","6,75","2,3","37,6","24,5","54","0","0"],
    [3376,"2014-06-20T02:00:00","ND","ND","4,91","1,6","61,2","23,9","55,5","0","0"],
    [3377,"2014-06-20T03:00:00","ND","ND","3,98","0,6","146,9","23,8","55,8","0","0"],
    [3378,"2014-06-20T04:00:00","ND","ND","3,94","1,1","40,6","23,6","58,8","0","0"],
    [3379,"2014-06-20T05:00:00","ND","ND","3,75","1,7","148,1","22,9","61","0","0"],
    [3380,"2014-06-20T06:00:00","ND","ND","3,38","1,3","196,5","22,7","60","0","0"],
    [3381,"2014-06-20T07:00:00","ND","ND","4,02","1,3","90,3","22,9","61,7","15,5","0"],
    [3382,"2014-06-20T08:00:00","ND","ND","4,89","3","87,4","23,6","61,3","64,6","0"],
    [3383,"2014-06-20T09:00:00","ND","ND","13,99","1,7","158,8","24,6","54,7","146,5","0"],
    [3384,"2014-06-20T10:00:00","ND","ND","28,51","1,1","326,3","26,2","47,8","274,4","0"],
    [3385,"2014-06-20T11:00:00","ND","ND","35,34","3,3","163,9","27,6","39,4","292,9","0"],
    [3386,"2014-06-20T12:00:00","ND","ND","52,87","1,8","187,1","29","38,8","369,3","0"],
    [3387,"2014-06-20T13:00:00","ND","ND","74,08","2,9","157,4","29,9","38,3","353,1","0"],
    [3388,"2014-06-20T14:00:00","ND","ND","60,46","3,8","139,3","30,2","36,9","245,4","0"],
    [3389,"2014-06-20T15:00:00","ND","ND","56,2","5","113,9","30,6","35,9","297,7","0"],
    [3390,"2014-06-20T16:00:00","ND","ND","41,21","5,4","109,3","30,5","37,4","157,4","0"],
    [3391,"2014-06-20T17:00:00","ND","ND","28,42","5,1","102","29,6","43","53,3","0"],
    [3392,"2014-06-20T18:00:00","ND","ND","12,48","3,3","112,5","28,2","48,6","25,9","0"],
    [3393,"2014-06-20T19:00:00","ND","ND","13,15","0,8","329,8","28,3","43,6","0","0"],
    [3394,"2014-06-20T20:00:00","ND","ND","8,03","3,6","213,4","27,9","45,5","0","0"],
    [3395,"2014-06-20T21:00:00","ND","ND","6,14","1,9","212","27,6","47,8","0","0"],
    [3396,"2014-06-20T22:00:00","ND","ND","6,3","1,3","174,2","26,6","52","0","0"],
    [3397,"2014-06-20T23:00:00","ND","ND","6,02","2,8","152","26,1","49,9","0","0"],
    [3398,"2014-06-21T00:00:00","ND","ND","8,93","2,7","197","25,1","53,5","0","0"],
    [3399,"2014-06-21T01:00:00","ND","ND","6,95","1,7","197","25,2","52,5","0","0"],
    [3400,"2014-06-21T02:00:00","ND","ND","9,73","2","200,1","24,6","54,8","0","0"],
    [3401,"2014-06-21T03:00:00","ND","ND","12,28","1,8","193,1","24,2","54,3","0","0"],
    [3402,"2014-06-21T04:00:00","ND","ND","8,16","0,6","13,2","23,7","58,6","0","0"],
    [3403,"2014-06-21T05:00:00","ND","ND","3,24","2,2","55,1","22,4","66,9","0","0"],
    [3404,"2014-06-21T06:00:00","ND","ND","3,34","0,5","325,9","22,2","64,8","0","0"],
    [3405,"2014-06-21T07:00:00","ND","ND","4,95","1,1","184,9","22,8","58,9","21,4","0"],
    [3406,"2014-06-21T08:00:00","ND","ND","7,04","2,5","125","23,2","59,7","80","0"],
    [3407,"2014-06-21T09:00:00","ND","ND","14,87","1,9","101,5","24,7","57,4","168,5","0"],
    [3408,"2014-06-21T10:00:00","ND","ND","29,24","3,3","82","25,8","55,5","200,6","0"],
    [3409,"2014-06-21T11:00:00","ND","ND","49,41","3","92,6","27","51,9","408,8","0"],
    [3410,"2014-06-21T12:00:00","ND","ND","77,3","2,7","114","28,5","45,8","406,6","0"],
    [3411,"2014-06-21T13:00:00","ND","ND","65,88","2,3","140,7","29,5","38,7","228,3","0"],
    [3412,"2014-06-21T14:00:00","ND","ND","57,67","3,3","114","29,8","38,7","269,6","0"],
    [3413,"2014-06-21T15:00:00","ND","ND","63,95","4,9","92,6","29,4","44,8","185,6","0"],
    [3414,"2014-06-21T16:00:00","ND","ND","62,78","4,8","107,8","29,4","43,8","115,6","0"],
    [3415,"2014-06-21T17:00:00","ND","ND","40,84","4,1","108,5","28,9","46,3","50,4","0"],
    [3416,"2014-06-21T18:00:00","ND","ND","27,3","3,4","108,2","28,5","49,1","28,7","0"],
    [3417,"2014-06-21T19:00:00","ND","ND","17,43","1,7","103,2","28,1","48,5","0","0"],
    [3418,"2014-06-21T20:00:00","ND","ND","11,91","1,9","174,3","27,6","51,1","0","0"],
    [3419,"2014-06-21T21:00:00","ND","ND","5,79","3,4","141,6","26,9","53,8","0","0"],
    [3420,"2014-06-21T22:00:00","ND","ND","5,75","2,1","176,3","25,9","59,5","0","0"],
    [3421,"2014-06-21T23:00:00","ND","ND","3,39","1,4","173,8","25,3","64,4","0","0"],
    [3422,"2014-06-22T00:00:00","ND","ND","3,71","1,9","150,1","25,5","63,9","0","0"],
    [3423,"2014-06-22T01:00:00","ND","ND","9,75","2,5","158,2","24,7","67,8","0","0"],
    [3424,"2014-06-22T02:00:00","ND","ND","7,61","1","175,4","24,2","69,3","0","0"],
    [3425,"2014-06-22T03:00:00","ND","ND","4,65","1,9","182,9","23,7","71","0","0"],
    [3426,"2014-06-22T04:00:00","ND","ND","3,22","2","133,1","22,7","77,7","0","0"],
    [3427,"2014-06-22T05:00:00","ND","ND","2,69","1,1","111,3","22,9","77,4","0","0"],
    [3428,"2014-06-22T06:00:00","ND","ND","2,94","2","105,5","22,8","78,2","0","0"],
    [3429,"2014-06-22T07:00:00","ND","ND","4,34","1,8","170,8","22,4","79,2","15,6","0"],
    [3430,"2014-06-22T08:00:00","ND","ND","10,75","1,5","150,7","22,8","78,5","86,4","0"],
    [3431,"2014-06-22T09:00:00","ND","ND","30,44","2,7","91,8","24,5","71,1","191,2","0"],
    [3432,"2014-06-22T10:00:00","ND","ND","60,05","3,2","122,5","26","63,4","244,7","0"],
    [3433,"2014-06-22T11:00:00","ND","ND","84,68","2,3","99","27,4","56,7","278,2","0"],
    [3434,"2014-06-22T12:00:00","ND","ND","93,82","3,5","87,4","28,3","52,7","308,8","0"],
    [3435,"2014-06-22T13:00:00","ND","ND","83,28","3","104,8","29,6","44,5","387,7","0"],
    [3436,"2014-06-22T14:00:00","ND","ND","83,77","3,4","98,3","30,5","44,3","321,3","0"],
    [3437,"2014-06-22T15:00:00","ND","ND","106,01","3,8","75,7","30,8","43,9","199,3","0"],
    [3438,"2014-06-22T16:00:00","ND","ND","103,2","4,4","77,3","30,7","43,9","120,7","0"],
    [3439,"2014-06-22T17:00:00","ND","ND","73,75","3,4","86,2","30,5","44,2","50,1","0"],
    [3440,"2014-06-22T18:00:00","ND","ND","58,07","0,9","17,6","30","46,9","8,4","0"],
    [3441,"2014-06-22T19:00:00","ND","ND","30,06","4,3","291,7","29,2","49,7","0","0"],
    [3442,"2014-06-22T20:00:00","ND","ND","19,13","2,2","312,1","28,3","54,8","0","0"],
    [3443,"2014-06-22T21:00:00","ND","ND","6,06","3,1","113,3","26,7","65,7","0","0"],
    [3444,"2014-06-22T22:00:00","ND","ND","5,42","2,2","83,4","26,6","65,1","0","0"],
    [3445,"2014-06-22T23:00:00","ND","ND","4,53","3","207","25,8","69","0","0"],
    [3446,"2014-06-23T00:00:00","ND","ND","14,33","3,8","226,7","25,6","68","0","0"],
    [3447,"2014-06-23T01:00:00","ND","ND","15,9","2,4","167,8","25,1","70,5","0","0"],
    [3448,"2014-06-23T02:00:00","ND","ND","11,24","2,7","181","24","75,6","0","0"],
    [3449,"2014-06-23T03:00:00","ND","ND","9,18","2,1","167,8","23,4","78,4","0","0"],
    [3450,"2014-06-23T04:00:00","ND","ND","6,4","1,9","156,7","23","79,5","0","0"],
    [3451,"2014-06-23T05:00:00","ND","ND","8,4","2,6","198,4","22,6","79,6","0","0"],
    [3452,"2014-06-23T06:00:00","ND","ND","3,98","2,3","208","22","81,3","0","0"],
    [3453,"2014-06-23T07:00:00","ND","ND","4,02","2","116,6","21,6","82,2","15,7","0"],
    [3454,"2014-06-23T08:00:00","ND","ND","5,65","1,8","89,7","21,9","81","54,8","0"],
    [3455,"2014-06-23T09:00:00","ND","ND","19,76","0,7","65,6","23,9","73,7","186,3","0"],
    [3456,"2014-06-23T10:00:00","ND","ND","40,74","2","137,2","25,6","66","149,4","0"],
    [3457,"2014-06-23T11:00:00","ND","ND","59,83","2,9","93,3","27,2","58,8","321,4","0"],
    [3458,"2014-06-23T12:00:00","ND","ND","62,03","3,3","59,7","28","56,1","258,4","0"],
    [3459,"2014-06-23T13:00:00","ND","ND","62,99","3,7","85,1","28,7","55,8","216","0"],
    [3460,"2014-06-23T14:00:00","ND","ND","53,2","3,9","94,3","29,6","52,7","197,8","0"],
    [3461,"2014-06-23T15:00:00","ND","ND","45,72","5,3","83,4","29,8","53,1","136,8","0"],
    [3462,"2014-06-23T16:00:00","ND","ND","45,98","4,8","82,7","29,7","52,4","106","0"],
    [3463,"2014-06-23T17:00:00","ND","ND","40,94","4,1","271,1","29,6","47,6","46,9","0"],
    [3464,"2014-06-23T18:00:00","ND","ND","23,84","0,9","339,2","29,1","49,7","8,5","0"],
    [3465,"2014-06-23T19:00:00","ND","ND","8,46","1,9","35,2","27,8","55,9","0","0"],
    [3466,"2014-06-23T20:00:00","ND","ND","5,73","1,4","23,2","27,1","56,9","0","0"],
    [3467,"2014-06-23T21:00:00","ND","ND","4,16","1,9","114,7","26,3","63,7","0","0"],
    [3468,"2014-06-23T22:00:00","ND","ND","4,02","2,9","100,1","25,4","69,6","0","0"],
    [3469,"2014-06-23T23:00:00","ND","ND","6,57","3,3","69,4","24,8","71,6","0","0"],
    [3470,"2014-06-24T00:00:00","ND","ND","9,65","1,7","21,4","24,6","71,4","0","0"],
    [3471,"2014-06-24T01:00:00","ND","ND","6,67","0,5","251,3","24,5","72,2","0","0"],
    [3472,"2014-06-24T02:00:00","ND","ND","5,63","2,1","189,9","24,4","75","0","0"],
    [3473,"2014-06-24T03:00:00","ND","ND","6,18","2,6","185,6","23,6","79,1","0","0"],
    [3474,"2014-06-24T04:00:00","ND","ND","3,16","1,4","213,9","22,6","82,5","0","0"],
    [3475,"2014-06-24T05:00:00","ND","ND","5,63","1,7","218,9","23,3","80,1","0","0"],
    [3476,"2014-06-24T06:00:00","ND","ND","3,53","2,4","108,4","22,5","84,3","0","0"],
    [3477,"2014-06-24T07:00:00","ND","ND","3,1","1,7","98,1","22,7","82,5","6","0"],
    [3478,"2014-06-24T08:00:00","ND","ND","3,83","2","110,3","23,2","81,1","40,7","0"],
    [3479,"2014-06-24T09:00:00","ND","ND","9,32","3,5","188,7","24","78,6","68,2","0"],
    [3480,"2014-06-24T10:00:00","ND","ND","16,76","3,1","193,8","24,7","73,9","128,7","0"],
    [3481,"2014-06-24T11:00:00","ND","ND","22,72","2,5","160,8","25,6","68,4","164,5","0"],
    [3482,"2014-06-24T12:00:00","ND","ND","27,47","2,5","130,5","26,2","67,5","197,3","0"],
    [3483,"2014-06-24T13:00:00","ND","ND","43,74","3,3","139,2","26,8","64,9","213,1","0"],
    [3484,"2014-06-24T14:00:00","ND","ND","58,64","2,9","146,2","27,6","59,4","175,8","0"],
    [3485,"2014-06-24T15:00:00","ND","ND","63,48","3,3","151,1","28","57,8","127,3","0"],
    [3486,"2014-06-24T16:00:00","ND","ND","44,41","1,5","191,9","26,7","63,5","17,4","9,14"],
    [3487,"2014-06-24T17:00:00","ND","ND","22,67","3,2","289","25,5","69,9","22","0"],
    [3488,"2014-06-24T18:00:00","ND","ND","9,79","2,4","310,5","25,4","68,3","0","1,27"],
    [3489,"2014-06-24T19:00:00","ND","ND","5,12","1,8","349,1","23,7","79,3","0","7,11"],
    [3490,"2014-06-24T20:00:00","ND","ND","10,97","1,9","222,5","22,6","82,6","0","9,4"],
    [3491,"2014-06-24T21:00:00","ND","ND","12,15","3,1","211,2","21,8","87,5","0","6,35"],
    [3492,"2014-06-24T22:00:00","ND","ND","12,3","0,6","116,9","21,3","90,2","0","39,88"],
    [3493,"2014-06-24T23:00:00","ND","ND","9,54","0,6","324,8","21,4","90,3","0","3,3"],
    [3494,"2014-06-25T00:00:00","ND","ND","9,73","2,3","98,4","20,8","91,3","0","0"],
    [3495,"2014-06-25T01:00:00","ND","ND","9,22","1,9","298,1","21,3","89,7","0","0"],
    [3496,"2014-06-25T02:00:00","ND","ND","6,79","1,6","219,5","21,6","89","0","0"],
    [3497,"2014-06-25T03:00:00","ND","ND","6,55","1,2","138,3","21,4","89,4","0","0"],
    [3498,"2014-06-25T04:00:00","ND","ND","7,08","1,7","125,9","21,1","90,5","0","0"],
    [3499,"2014-06-25T05:00:00","ND","ND","4,42","1,7","122,7","21,1","91,1","0","0"],
    [3500,"2014-06-25T06:00:00","ND","ND","3,32","1,5","153,6","21,2","90,4","0","0"],
    [3501,"2014-06-25T07:00:00","ND","ND","3,1","0,9","147,3","21,2","89,9","10,7","0"],
    [3502,"2014-06-25T08:00:00","ND","ND","3,41","0,8","170,6","21,6","88,8","33,8","0"],
    [3503,"2014-06-25T09:00:00","ND","ND","10,97","1,3","208,3","22,4","83,6","109,8","0"],
    [3504,"2014-06-25T10:00:00","ND","ND","25,84","1,2","203","23,6","77","264,1","0"],
    [3505,"2014-06-25T11:00:00","ND","ND","32,89","2,1","136,2","25,1","70,2","229,9","0"],
    [3506,"2014-06-25T12:00:00","ND","ND","31,28","3,3","117,6","25,5","67,9","180,4","0"],
    [3507,"2014-06-25T13:00:00","ND","ND","47","2,7","85,1","26,5","63,3","381","0"],
    [3508,"2014-06-25T14:00:00","ND","ND","62,17","3,6","55,5","27,5","60,8","298","0"],
    [3509,"2014-06-25T15:00:00","ND","ND","60,26","5,4","72,7","27,8","59,8","312,6","0"],
    [3510,"2014-06-25T16:00:00","ND","ND","46,47","5,3","43,9","26,9","63,5","142,2","0"],
    [3511,"2014-06-25T17:00:00","ND","ND","22,7","3,8","53,9","26,7","64,1","83,4","0"],
    [3512,"2014-06-25T18:00:00","ND","ND","13,21","4,4","48,4","26","65,8","13,5","0"],
    [3513,"2014-06-25T19:00:00","ND","ND","15,5","4,9","39","24,2","75,5","0","0,25"],
    [3514,"2014-06-25T20:00:00","ND","ND","13,38","2,5","52,2","23,1","83,9","0","0"],
    [3515,"2014-06-25T21:00:00","ND","ND","7,61","1,6","43,7","22,7","85","0","0"],
    [3516,"2014-06-25T22:00:00","ND","ND","12,26","2,2","343,7","22,8","83,4","0","0"],
    [3517,"2014-06-25T23:00:00","ND","ND","10,09","1,4","70,3","22,6","84,1","0","0"],
    [3518,"2014-06-26T00:00:00","ND","ND","9,89","2,6","120,4","22,1","86","0","0,25"],
    [3519,"2014-06-26T01:00:00","ND","ND","11,34","1,7","103,9","21,9","86,1","0","0"],
    [3520,"2014-06-26T02:00:00","ND","ND","9,09","1,4","33,7","21,6","87,8","0","0"],
    [3521,"2014-06-26T03:00:00","ND","ND","9,14","1,5","305,6","21,8","87","0","0"],
    [3522,"2014-06-26T04:00:00","ND","ND","4,57","1,2","160,5","21,8","87","0","0"],
    [3523,"2014-06-26T05:00:00","ND","ND","3,38","1,6","159,1","21,4","89,2","0","0"],
    [3524,"2014-06-26T06:00:00","ND","ND","2,92","1,4","139,3","21,5","88,4","0","0"],
    [3525,"2014-06-26T07:00:00","ND","ND","2,75","2,5","86,5","21,3","89,5","4,7","0"],
    [3526,"2014-06-26T08:00:00","ND","ND","2,92","1,1","47","21,6","88,1","12,8","0"],
    [3527,"2014-06-26T09:00:00","ND","ND","6,55","2,7","46","22,2","85,7","46,9","0"],
    [3528,"2014-06-26T10:00:00","ND","ND","14,89","3","29,5","23","81,4","156,5","0"],
    [3529,"2014-06-26T11:00:00","ND","ND","29,3","2,6","28","24,3","74,4","224,4","0"],
    [3530,"2014-06-26T12:00:00","ND","ND","56,08","1,6","11,3","25,6","67,8","399,9","0"],
    [3531,"2014-06-26T13:00:00","ND","ND","73,26","2,7","73,5","27,4","58,8","413,1","0"],
    [3532,"2014-06-26T14:00:00","ND","ND","76,53","2,5","86,1","27,9","57,7","305,5","0"],
    [3533,"2014-06-26T15:00:00","ND","ND","87,66","3,3","100,1","28,4","55","281,3","0"],
    [3534,"2014-06-26T16:00:00","ND","ND","92,13","3,8","95,8","28,8","53","187,7","0"],
    [3535,"2014-06-26T17:00:00","ND","ND","79,69","3,6","78,4","28,8","53,9","80,7","0"],
    [3536,"2014-06-26T18:00:00","ND","ND","60,07","1","49,4","28,6","53,9","27,7","0"],
    [3537,"2014-06-26T19:00:00","ND","ND","14,01","4,2","304","27,5","52,7","0","0"],
    [3538,"2014-06-26T20:00:00","ND","ND","5,38","2","338","26,8","56,3","0","0"],
    [3539,"2014-06-26T21:00:00","ND","ND","9,05","3,4","67","25,1","65,3","0","0"],
    [3540,"2014-06-26T22:00:00","ND","ND","8,6","2,6","75,3","23,6","72,6","0","0"],
    [3541,"2014-06-26T23:00:00","ND","ND","7,28","3,2","95,6","22,9","75,8","0","0"],
    [3542,"2014-06-27T00:00:00","ND","ND","7,77","1,7","51,9","22,5","76,7","0","0"],
    [3543,"2014-06-27T01:00:00","ND","ND","7,63","0,6","316,3","22,6","75,8","0","0"],
    [3544,"2014-06-27T02:00:00","ND","ND","5,26","1,2","180,4","22,6","77,1","0","0"],
    [3545,"2014-06-27T03:00:00","ND","ND","3,39","2,8","133,4","22","81","0","0"],
    [3546,"2014-06-27T04:00:00","ND","ND","3,79","0,5","164,3","21,6","81,1","0","0"],
    [3547,"2014-06-27T05:00:00","ND","ND","3,06","1,9","250,1","21,6","82,2","0","0"],
    [3548,"2014-06-27T06:00:00","ND","ND","3,47","2,1","225,2","21,8","81,5","0","0"],
    [3549,"2014-06-27T07:00:00","ND","ND","3,61","1,1","134,9","21,8","82,4","12,8","0"],
    [3550,"2014-06-27T08:00:00","ND","ND","4,45","0,9","82,1","22,3","80,8","43,3","0"],
    [3551,"2014-06-27T09:00:00","ND","ND","6,55","3,2","105,5","22,7","80,6","76,6","0"],
    [3552,"2014-06-27T10:00:00","ND","ND","25,94","0,9","79,8","23,9","73,5","274,8","0"],
    [3553,"2014-06-27T11:00:00","ND","ND","59,6","1,5","147,2","25,8","66,1","376,3","0"],
    [3554,"2014-06-27T12:00:00","ND","ND","73,1","3","124,9","27,6","57,2","345,9","0"],
    [3555,"2014-06-27T13:00:00","ND","ND","71,33","3,5","107,3","28","56,2","189,8","0"],
    [3556,"2014-06-27T14:00:00","ND","ND","71,14","4,2","88,3","28,2","55,7","163","0"],
    [3557,"2014-06-27T15:00:00","ND","ND","100,81","2,8","96,3","28,7","52,6","226,6","0"],
    [3558,"2014-06-27T16:00:00","ND","ND","104,91","2,4","35,7","29,4","50,7","194","0"],
    [3559,"2014-06-27T17:00:00","ND","ND","70,35","4,1","313,5","28,9","50,1","76,6","0"],
    [3560,"2014-06-27T18:00:00","ND","ND","34,16","5,7","317,7","28,2","49,1","33,4","0"],
    [3561,"2014-06-27T19:00:00","ND","ND","13,17","4,2","305,5","27,1","52,3","0","0"],
    [3562,"2014-06-27T20:00:00","ND","ND","10,24","1,5","11,8","25,3","61,1","0","0"],
    [3563,"2014-06-27T21:00:00","ND","ND","4,95","3,6","83,2","23,4","72,6","0","0"],
    [3564,"2014-06-27T22:00:00","ND","ND","5,67","2,6","71,1","22,7","74,6","0","0"],
    [3565,"2014-06-27T23:00:00","ND","ND","7,01","1,9","88,9","22,5","73,6","0","0"],
    [3566,"2014-06-28T00:00:00","ND","ND","5","2,5","227,2","22,4","74,9","0","0"],
    [3567,"2014-06-28T01:00:00","ND","ND","3,87","1,9","190,7","22,1","77,5","0","0"],
    [3568,"2014-06-28T02:00:00","ND","ND","3,73","1,8","143,8","21,5","80,4","0","0"],
    [3569,"2014-06-28T03:00:00","ND","ND","3,79","0,2","234,9","21,5","80,2","0","0"],
    [3570,"2014-06-28T04:00:00","ND","ND","2,98","1,7","129,5","21,7","80,7","0","0"],
    [3571,"2014-06-28T05:00:00","ND","ND","3,38","1,7","186,3","21,9","80,8","0","0"],
    [3572,"2014-06-28T06:00:00","ND","ND","3,51","1,7","221,4","21,6","81,9","0","0,25"],
    [3573,"2014-06-28T07:00:00","ND","ND","4,02","1,8","143,3","21,3","84,4","4,2","0"],
    [3574,"2014-06-28T08:00:00","ND","ND","5,99","1,6","177,5","21,6","83,2","69,4","0"],
    [3575,"2014-06-28T09:00:00","ND","ND","15,64","1,9","160,4","23,5","75,7","230,1","0"],
    [3576,"2014-06-28T10:00:00","ND","ND","35,36","2,2","179,9","25,1","66,1","306","0"],
    [3577,"2014-06-28T11:00:00","ND","ND","57,07","3,1","152","26,7","59,3","408,6","0"],
    [3578,"2014-06-28T12:00:00","ND","ND","75,32","2,2","89,1","27,9","55,4","469,6","0"],
    [3579,"2014-06-28T13:00:00","ND","ND","80,48","2,9","118,6","28,9","50,9","365,7","0"],
    [3580,"2014-06-28T14:00:00","ND","ND","69,19","3,9","60,9","29,8","46,5","378,4","0"],
    [3581,"2014-06-28T15:00:00","ND","ND","69","3,9","75,9","30,6","41,7","351,4","0"],
    [3582,"2014-06-28T16:00:00","ND","ND","79,81","3,2","64,7","31,2","39,8","270,1","0"],
    [3583,"2014-06-28T17:00:00","ND","ND","84,87","3,8","70,6","31,6","37,3","164,3","0"],
    [3584,"2014-06-28T18:00:00","ND","ND","71,35","4,1","72,2","31,1","40,8","48,3","0"],
    [3585,"2014-06-28T19:00:00","ND","ND","35,79","2,7","23,5","30","43,6","0","0"],
    [3586,"2014-06-28T20:00:00","ND","ND","18,7","0,8","4,3","28,6","52,8","0","0"],
    [3587,"2014-06-28T21:00:00","ND","ND","6,28","2,5","87,2","26,6","64","0","0"],
    [3588,"2014-06-28T22:00:00","ND","ND","5,81","2,3","111,3","26,2","65,7","0","0"],
    [3589,"2014-06-28T23:00:00","ND","ND","4,53","1,4","128,1","25","70,3","0","0"],
    [3590,"2014-06-29T00:00:00","ND","ND","5,89","2,1","263","25,5","68,3","0","0"],
    [3591,"2014-06-29T01:00:00","ND","ND","9,2","1,5","165,6","25,6","67,7","0","0"],
    [3592,"2014-06-29T02:00:00","ND","ND","9,42","2","150,7","24,9","70,9","0","0"],
    [3593,"2014-06-29T03:00:00","ND","ND","8,46","2","204,1","24,7","72,5","0","0"],
    [3594,"2014-06-29T04:00:00","ND","ND","12,48","1,8","200","24,3","74,6","0","0"],
    [3595,"2014-06-29T05:00:00","ND","ND","5,26","1,9","145,9","23,3","82,2","0","0"],
    [3596,"2014-06-29T06:00:00","ND","ND","5,99","2,6","192,4","23,1","81,8","0","0"],
    [3597,"2014-06-29T07:00:00","ND","ND","6,36","1,9","163,5","22,8","82,8","10,8","0"],
    [3598,"2014-06-29T08:00:00","ND","ND","10,28","1,1","66,9","23,6","74,1","46,3","0"],
    [3599,"2014-06-29T09:00:00","ND","ND","16,8","3,3","95,6","24,4","69,7","146,7","0"],
    [3600,"2014-06-29T10:00:00","ND","ND","32,75","1,8","90","26,1","58,3","187,7","0"],
    [3601,"2014-06-29T11:00:00","ND","ND","59,87","1,9","37,7","27,3","53,3","279,6","0"],
    [3602,"2014-06-29T12:00:00","ND","ND","69,98","3,3","96,5","29","48,4","384,8","0"],
    [3603,"2014-06-29T13:00:00","ND","ND","83,3","3,5","89","29,9","47,3","322,8","0"],
    [3604,"2014-06-29T14:00:00","ND","ND","91,29","3,2","75,2","31,6","43,2","429,9","0"],
    [3605,"2014-06-29T15:00:00","ND","ND","93,59","3,3","97,2","32,1","40,9","285,1","0"],
    [3606,"2014-06-29T16:00:00","ND","ND","87,05","4,3","87,7","32,9","39,8","313,9","0"],
    [3607,"2014-06-29T17:00:00","ND","ND","52,41","4,6","14,6","32,3","41,6","81,8","0"],
    [3608,"2014-06-29T18:00:00","ND","ND","39,4","7,5","297,2","30,4","47,7","48,4","0"],
    [3609,"2014-06-29T19:00:00","ND","ND","22,61","5,1","316,9","29","51,6","0","0"],
    [3610,"2014-06-29T20:00:00","ND","ND","11,07","2","9,7","28,2","56","0","0"],
    [3611,"2014-06-29T21:00:00","ND","ND","8,16","3,4","111,1","26,4","65,2","0","0"],
    [3612,"2014-06-29T22:00:00","ND","ND","6,36","3,1","95,4","25,2","71,5","0","0"],
    [3613,"2014-06-29T23:00:00","ND","ND","5,65","2,6","100,4","25","71,4","0","0"],
    [3614,"2014-06-30T00:00:00","ND","ND","4,02","1,6","144,5","24,9","72,9","0","0"],
    [3615,"2014-06-30T01:00:00","ND","ND","4,43","2,1","171,2","24,7","74,4","0","0"],
    [3616,"2014-06-30T02:00:00","ND","ND","4,96","2,9","125,1","24,2","76,7","0","0"],
    [3617,"2014-06-30T03:00:00","ND","ND","5,44","2,3","131,2","24,3","76","0","0"],
    [3618,"2014-06-30T04:00:00","ND","ND","4,42","1,9","145,8","23,9","78,2","0","0"],
    [3619,"2014-06-30T05:00:00","ND","ND","3,71","2,6","166,9","23,6","79,4","0","0"],
    [3620,"2014-06-30T06:00:00","ND","ND","6,65","1,9","212,6","23,2","80,2","0","0"],
    [3621,"2014-06-30T07:00:00","ND","ND","4,61","1,8","114","23,1","81,1","13,4","0"],
    [3622,"2014-06-30T08:00:00","ND","ND","8,71","2,4","154,8","23,2","81,6","68,5","0"],
    [3623,"2014-06-30T09:00:00","ND","ND","19,78","3,9","187,4","23,9","75,6","119,4","0"],
    [3624,"2014-06-30T10:00:00","ND","ND","29,08","1,4","262,3","24,8","71,4","197,6","0"],
    [3625,"2014-06-30T11:00:00","ND","ND","50,02","1,4","107,1","26,6","62,6","367,2","0"],
    [3626,"2014-06-30T12:00:00","ND","ND","68,53","2","158,2","28","57,1","299,5","0"],
    [3627,"2014-06-30T13:00:00","ND","ND","58,69","3,3","106,2","28,7","54","352,7","0"],
    [3628,"2014-06-30T14:00:00","ND","ND","67,03","2,2","162","29,8","49,5","423,4","0"],
    [3629,"2014-06-30T15:00:00","ND","ND","69,76","4","185,2","30,5","47,1","290,6","0"],
    [3630,"2014-06-30T16:00:00","ND","ND","67,94","3,7","175,5","30,2","47,4","112,3","0"],
    [3631,"2014-06-30T17:00:00","ND","ND","61,97","2,4","173,3","29,9","48,6","63","0"],
    [3632,"2014-06-30T18:00:00","ND","ND","48,75","4,6","292,9","29,1","51,7","25,8","0"],
    [3633,"2014-06-30T19:00:00","ND","ND","28,26","5","297,3","28,1","53,8","0","0"],
    [3634,"2014-06-30T20:00:00","ND","ND","15,66","4,8","314,3","27,5","55,1","0","0"],
    [3635,"2014-06-30T21:00:00","ND","ND","12,38","1,1","26,6","26,7","60,2","0","0"],
    [3636,"2014-06-30T22:00:00","ND","ND","10,56","3,3","100,5","25","70","0","0"],
    [3637,"2014-06-30T23:00:00","ND","ND","15,38","3,1","63,4","24,6","68,7","0","0"],
    [3638,"2014-07-01T00:00:00","ND","ND","16,56","1,2","28,9","24,4","70","0","0"],
    [3639,"2014-07-01T01:00:00","ND","ND","12,07","1,3","140","24","72,4","0","0"],
    [3640,"2014-07-01T02:00:00","ND","ND","10,34","2,5","180,2","23,4","76,7","0","0"],
    [3641,"2014-07-01T03:00:00","ND","ND","5,4","1,3","212,7","23,1","79","0","0"],
    [3642,"2014-07-01T04:00:00","ND","ND","6,1","2,5","153,4","22,8","78,2","0","0"],
    [3643,"2014-07-01T05:00:00","ND","ND","3,39","2,6","116,1","21,9","81,6","0","0"],
    [3644,"2014-07-01T06:00:00","ND","ND","3,41","1,8","173,4","21,8","80,5","0","0"],
    [3645,"2014-07-01T07:00:00","ND","ND","3,67","2,1","130,7","21,5","81","5,6","0"],
    [3646,"2014-07-01T08:00:00","ND","ND","5,22","1,3","130,1","22","79,1","80,4","0"],
    [3647,"2014-07-01T09:00:00","ND","ND","14,6","1,6","164,1","24","71,9","223,8","0"],
    [3648,"2014-07-01T10:00:00","ND","ND","36,77","2,3","171,2","26,1","61","341,6","0"],
    [3649,"2014-07-01T11:00:00","ND","ND","55,55","2,1","108","27,5","56,6","408,7","0"],
    [3650,"2014-07-01T12:00:00","ND","ND","62,4","2,8","79,6","28,5","53,1","389,2","0"],
    [3651,"2014-07-01T13:00:00","ND","ND","73,88","2,9","90","29,4","49,8","439,6","0"],
    [3652,"2014-07-01T14:00:00","ND","ND","74,94","3,4","101","30,3","46,9","381,2","0"],
    [3653,"2014-07-01T15:00:00","ND","ND","94,02","3,6","66,9","30,9","45,4","327,3","0"],
    [3654,"2014-07-01T16:00:00","ND","ND","86,64","4,1","45,7","31,5","44,4","255,7","0"],
    [3655,"2014-07-01T17:00:00","ND","ND","55,57","7,3","301,2","30,7","46,2","151,5","0"],
    [3656,"2014-07-01T18:00:00","ND","3","39,97","6,9","298,5","29,7","47,8","23,7","0"],
    [3657,"2014-07-01T19:00:00","ND","11","22,31","5,2","304,2","28,5","51,9","0","0"],
    [3658,"2014-07-01T20:00:00","ND","23","7,73","1,7","58,9","27,2","58,9","0","0"],
    [3659,"2014-07-01T21:00:00","ND","16","6,36","2,5","102,5","25,3","68,2","0","0"],
    [3660,"2014-07-01T22:00:00","ND","10","5,12","2,8","120,7","24,6","71,1","0","0"],
    [3661,"2014-07-01T23:00:00","ND","12","5,4","2,3","130,2","25","68,9","0","0"],
    [3662,"2014-07-02T00:00:00","ND","7","7,73","3,1","120,2","24,3","72,4","0","0"],
    [3663,"2014-07-02T01:00:00","ND","2","13,01","2,5","121,1","23,7","77,3","0","0,76"],
    [3664,"2014-07-02T02:00:00","ND","4","17,31","3,9","64,6","22,6","84,2","0","9,65"],
    [3665,"2014-07-02T03:00:00","ND","4","17,01","2,7","8,7","22,2","86,1","0","0,51"],
    [3666,"2014-07-02T04:00:00","ND","4","13,56","2,8","97,7","21,9","87,3","0","0"],
    [3667,"2014-07-02T05:00:00","ND","3","10,44","1,4","105,9","21,7","88","0","0,25"],
    [3668,"2014-07-02T06:00:00","ND","7","7,73","1,3","5,5","21,8","86,7","0","0"],
    [3669,"2014-07-02T07:00:00","ND","10","4,65","0,9","47","22,3","84,1","4,2","0"],
    [3670,"2014-07-02T08:00:00","ND","14","8,6","3,4","89,3","22","85,7","50,3","0"],
    [3671,"2014-07-02T09:00:00","ND","8","13,56","2,8","103,8","22,8","82,3","144,2","0"],
    [3672,"2014-07-02T10:00:00","ND","2","26,14","3,1","188,1","24,2","75,3","206","0"],
    [3673,"2014-07-02T11:00:00","ND","1","33,11","3,1","163,5","25,1","71,3","230,6","0"],
    [3674,"2014-07-02T12:00:00","ND","7","53,71","2,6","174","26,4","65,4","355,6","0"],
    [3675,"2014-07-02T13:00:00","ND","5","63,7","2,4","171,2","27,7","58,2","477,6","0"],
    [3676,"2014-07-02T14:00:00","ND","9","59,22","3,3","156,1","28,5","53,6","250,8","0"],
    [3677,"2014-07-02T15:00:00","ND","7","63,48","2,1","114,4","29,2","51,3","363,1","0"],
    [3678,"2014-07-02T16:00:00","ND","4","69,43","2,1","141,3","29,8","49,5","256,8","0"],
    [3679,"2014-07-02T17:00:00","ND","12","57,81","3,5","123,1","29,7","49,5","92,6","0"],
    [3680,"2014-07-02T18:00:00","ND","13","52,83","3","169,4","29,4","50,2","11,1","0"],
    [3681,"2014-07-02T19:00:00","ND","11","37,25","2,1","208,8","28,8","52,2","0","0"],
    [3682,"2014-07-02T20:00:00","ND","8","10,58","4,1","282","27,7","54","0","0"],
    [3683,"2014-07-02T21:00:00","ND","7","10,17","1","10,1","26,2","62,1","0","0"],
    [3684,"2014-07-02T22:00:00","ND","17","4,73","2,6","88,5","24,1","74,8","0","0"],
    [3685,"2014-07-02T23:00:00","ND","12","6,5","1,6","329,5","24,2","71,6","0","0"],
    [3686,"2014-07-03T00:00:00","ND","17","6,93","0,8","237,4","24,2","71,9","0","0"],
    [3687,"2014-07-03T01:00:00","ND","12","3,69","1,5","179,2","23,8","76,4","0","0"],
    [3688,"2014-07-03T02:00:00","ND","13","3,71","0,8","93,3","23,2","77,3","0","0"],
    [3689,"2014-07-03T03:00:00","ND","15","3,81","2,2","92","23","76,6","0","0"],
    [3690,"2014-07-03T04:00:00","ND","12","3,53","1,6","99,4","22,3","78,8","0","0"],
    [3691,"2014-07-03T05:00:00","ND","17","3,28","2,2","213,4","21,9","84,2","0","0"],
    [3692,"2014-07-03T06:00:00","ND","14","3,65","1,9","350,9","21,8","84,9","0","0"],
    [3693,"2014-07-03T07:00:00","ND","38","4,14","1,9","41,9","21,3","85,4","6,3","0"],
    [3694,"2014-07-03T08:00:00","ND","31","4,34","2,1","108,3","21,8","84,1","46,8","0"],
    [3695,"2014-07-03T09:00:00","ND","32","6,48","2,5","100,8","22,9","81,7","96,9","0"],
    [3696,"2014-07-03T10:00:00","ND","18","26,92","1,9","88,8","25,2","69,3","320,2","0"],
    [3697,"2014-07-03T11:00:00","ND","6","50,55","2,5","79,6","27","61,9","409,7","0"],
    [3698,"2014-07-03T12:00:00","ND","11","75,94","2,2","145,2","28,5","56,7","455,1","0"],
    [3699,"2014-07-03T13:00:00","ND","17","92,15","3,5","94,1","29,8","51,5","448,5","0"],
    [3700,"2014-07-03T14:00:00","ND","22","133,05","2,4","80,2","30,6","49,5","415,6","0"],
    [3701,"2014-07-03T15:00:00","ND","29","132,3","3,3","66,5","31,3","48,1","340,1","0"],
    [3702,"2014-07-03T16:00:00","ND","14","99,1","3,5","319,2","31,6","43,8","187,7","0"],
    [3703,"2014-07-03T17:00:00","ND","10","56,2","6,7","291,1","31,5","41,8","162","0"],
    [3704,"2014-07-03T18:00:00","ND","5","27,26","7,7","301,8","29,7","47,8","48,9","0"],
    [3705,"2014-07-03T19:00:00","ND","7","14,64","5,5","311,2","28,4","52,7","0","0"],
    [3706,"2014-07-03T20:00:00","ND","ND","18,88","5,7","283,9","27,6","55,8","0","0"],
    [3707,"2014-07-03T21:00:00","ND","9","12,64","2,7","163,3","26,9","58,1","0","0"],
    [3708,"2014-07-03T22:00:00","ND","13","13,85","1,4","18,9","25,7","65,5","0","0"],
    [3709,"2014-07-03T23:00:00","ND","17","12,4","2,4","220,9","25,4","65,9","0","0"],
    [3710,"2014-07-04T00:00:00","ND","8","12,48","3,3","170,6","24,2","72,2","0","0"],
    [3711,"2014-07-04T01:00:00","ND","12","18,54","2,4","189,7","23,8","72,1","0","0"],
    [3712,"2014-07-04T02:00:00","ND","9","16,33","2,3","161,9","23,5","74,4","0","0"],
    [3713,"2014-07-04T03:00:00","ND","7","11,28","1,7","191,8","22,8","78,3","0","0"],
    [3714,"2014-07-04T04:00:00","ND","5","9,3","1,5","110","23","78,2","0","0"],
    [3715,"2014-07-04T05:00:00","ND","15","3,83","1","141,5","22,5","80,8","0","0"],
    [3716,"2014-07-04T06:00:00","ND","22","3,14","1","117,1","22,5","81,1","0","0"],
    [3717,"2014-07-04T07:00:00","ND","28","3,57","2,3","127,1","22,3","82,4","0","0"],
    [3718,"2014-07-04T08:00:00","ND","20","5,81","1,4","180,8","23,1","78,4","44,5","0"],
    [3719,"2014-07-04T09:00:00","ND","24","10,62","2,6","143,4","24","74,8","84,6","0"],
    [3720,"2014-07-04T10:00:00","ND","12","29,46","2,6","219","25,4","68,3","266,3","0"],
    [3721,"2014-07-04T11:00:00","ND","18","45,63","1,7","180,7","26,7","62,2","290,8","0"],
    [3722,"2014-07-04T12:00:00","ND","4","48,51","2,6","151,1","28,3","53,7","387,8","0"],
    [3723,"2014-07-04T13:00:00","ND","26","60,79","4,2","114,9","28,8","53,1","259,3","0"],
    [3724,"2014-07-04T14:00:00","ND","11","66,54","3,9","112,3","29,4","50,3","314,8","0"],
    [3725,"2014-07-04T15:00:00","ND","21","88,88","2,2","54,5","29,6","50,4","231,9","0"],
    [3726,"2014-07-04T16:00:00","ND","18","113,56","1,2","202,1","29,5","51,8","114,8","0"],
    [3727,"2014-07-04T17:00:00","ND","2","65,64","3,5","284,8","29,9","47,2","174,5","0"],
    [3728,"2014-07-04T18:00:00","ND","2","43,66","4,9","289","29,7","46,2","44,1","0"],
    [3729,"2014-07-04T19:00:00","ND","2","25","4,9","296,5","28,4","49,9","0","0"],
    [3730,"2014-07-04T20:00:00","ND","2","23,37","3,9","295,3","27,7","53","0","0"],
    [3731,"2014-07-04T21:00:00","ND","10","10,62","5","117,6","24,6","77,6","0","4,83"],
    [3732,"2014-07-04T22:00:00","ND","8","10,4","2,4","19,1","23,7","81,1","0","0,25"],
    [3733,"2014-07-04T23:00:00","ND","8","6,69","2,5","24,6","23,7","80,7","0","0"],
    [3734,"2014-07-05T00:00:00","ND","17","3,18","1,4","330,2","23,6","81,4","0","0"],
    [3735,"2014-07-05T01:00:00","ND","15","3,61","1,7","131,6","23,3","83,5","0","0"],
    [3736,"2014-07-05T02:00:00","ND","10","7,04","2","172,8","22,7","86,2","0","0"],
    [3737,"2014-07-05T03:00:00","ND","12","8,36","2","206,8","22,5","84,8","0","0"],
    [3738,"2014-07-05T04:00:00","ND","14","5,71","1,3","86,8","22,3","85","0","0"],
    [3739,"2014-07-05T05:00:00","ND","15","4","1,5","48,7","21,9","87,5","0","0"],
    [3740,"2014-07-05T06:00:00","ND","17","3,89","2,4","23,2","21,9","88,2","0","0"],
    [3741,"2014-07-05T07:00:00","ND","11","4,53","2,5","31,2","22,4","85","4,7","0"],
    [3742,"2014-07-05T08:00:00","ND","14","6,4","2,4","108,2","22,5","85,7","42,6","0"],
    [3743,"2014-07-05T09:00:00","ND","16","10,62","2,2","232","23","83,8","100,1","0"],
    [3744,"2014-07-05T10:00:00","ND","17","33,83","1,4","282,4","24,9","73,3","362,8","0"],
    [3745,"2014-07-05T11:00:00","ND","25","56,06","0,7","163,3","26,2","66","295","0"],
    [3746,"2014-07-05T12:00:00","ND","24","100,41","0,3","126,9","27,6","59,2","402,8","0"],
    [3747,"2014-07-05T13:00:00","ND","23","120,06","3,1","76,3","29,1","54","494,9","0"],
    [3748,"2014-07-05T14:00:00","ND","24","125,28","3,2","70,4","29,6","51","287,3","0"],
    [3749,"2014-07-05T15:00:00","ND","23","105,83","3,4","85","30,1","50,3","281,9","0"],
    [3750,"2014-07-05T16:00:00","ND","16","98,31","3,2","31,4","30,6","49,1","202,4","0"],
    [3751,"2014-07-05T17:00:00","ND","8","64,29","4,3","11,7","30,5","48,5","92,4","0"],
    [3752,"2014-07-05T18:00:00","ND","10","40,94","5,5","324,2","29,5","48,5","32,4","0"],
    [3753,"2014-07-05T19:00:00","ND","5","29,95","6,6","299,4","27,8","54,4","0","0"],
    [3754,"2014-07-05T20:00:00","ND","18","13,07","1,2","344,5","27","57,9","0","0"],
    [3755,"2014-07-05T21:00:00","ND","14","7,22","4,6","95,1","24,6","71,7","0","0"],
    [3756,"2014-07-05T22:00:00","ND","18","6,4","3,1","77,5","24","74","0","0"],
    [3757,"2014-07-05T23:00:00","ND","11","7,67","3,2","83,7","24,2","72,1","0","0"],
    [3758,"2014-07-06T00:00:00","ND","7","13,85","2","30,7","24,3","70,9","0","0"],
    [3759,"2014-07-06T01:00:00","ND","6","9,65","0,8","191,9","24,2","71,2","0","0"],
    [3760,"2014-07-06T02:00:00","ND","13","6,73","3","164,1","23,2","77,6","0","0"],
    [3761,"2014-07-06T03:00:00","ND","12","5,42","0,9","207,2","23,1","77,6","0","0"],
    [3762,"2014-07-06T04:00:00","ND","10","4,24","1,7","114,8","22,8","79,1","0","0"],
    [3763,"2014-07-06T05:00:00","ND","21","3,39","2,2","111,5","22,6","80,8","0","0"],
    [3764,"2014-07-06T06:00:00","ND","26","3,69","0,7","117,7","22,7","80","0","0"],
    [3765,"2014-07-06T07:00:00","ND","22","4,71","1,6","178,2","23,2","78,6","6,8","0"],
    [3766,"2014-07-06T08:00:00","ND","21","6,24","2,1","170,9","23,2","79,6","15,7","0"],
    [3767,"2014-07-06T09:00:00","ND","36","8,24","2,1","165,4","23,3","80,9","39,3","0,25"],
    [3768,"2014-07-06T10:00:00","ND","18","19,78","1,2","206,4","24,3","76,3","162,7","0"],
    [3769,"2014-07-06T11:00:00","ND","14","45,53","0,7","121,2","25,8","67,9","329,9","0"],
    [3770,"2014-07-06T12:00:00","ND","14","75","2","98,6","27,5","59,6","392,5","0"],
    [3771,"2014-07-06T13:00:00","ND","12","87,31","2,5","129,4","29","54,3","342,6","0"],
    [3772,"2014-07-06T14:00:00","ND","16","87,68","2,7","101,1","29,8","49,6","260,8","0"],
    [3773,"2014-07-06T15:00:00","ND","17","81,24","3,3","89,8","29,8","49,9","179,6","0"],
    [3774,"2014-07-06T16:00:00","ND","16","94,86","2,7","60,2","30,5","47,5","212,3","0"],
    [3775,"2014-07-06T17:00:00","ND","16","73,67","2,8","88,5","30,4","48,7","93,3","0"],
    [3776,"2014-07-06T18:00:00","ND","10","49","2,4","285,6","29,8","47,6","21,4","0"],
    [3777,"2014-07-06T19:00:00","ND","9","32,89","3,8","312,2","28,4","50","0","0"],
    [3778,"2014-07-06T20:00:00","ND","7","15,35","0,3","52,3","27","56,5","0","0"],
    [3779,"2014-07-06T21:00:00","ND","5","7,79","3,1","85,5","24,6","71,8","0","0"],
    [3780,"2014-07-06T22:00:00","ND","6","6,44","2,8","78,2","23,8","74,4","0","0"],
    [3781,"2014-07-06T23:00:00","ND","12","5,91","2,9","75,9","23,9","72,6","0","0"],
    [3782,"2014-07-07T00:00:00","ND","7","8,5","1,8","75","23,2","74,6","0","0"],
    [3783,"2014-07-07T01:00:00","ND","1","8,5","0,7","175,3","23","75,5","0","0"],
    [3784,"2014-07-07T02:00:00","ND","3","6,18","1,4","129,7","22,7","78","0","0"],
    [3785,"2014-07-07T03:00:00","ND","6","4,83","1,1","156,8","22,7","77,9","0","0"],
    [3786,"2014-07-07T04:00:00","ND","7","3,65","1,6","124,6","22,2","80,5","0","0"],
    [3787,"2014-07-07T05:00:00","ND","15","3,59","0,6","110,8","21,8","82","0","0"],
    [3788,"2014-07-07T06:00:00","ND","10","3,39","2,2","158,4","21,6","81,6","0","0"],
    [3789,"2014-07-07T07:00:00","ND","10","3,47","1,3","183,6","21,6","82,1","4,5","0"],
    [3790,"2014-07-07T08:00:00","ND","10","6,12","1,9","203,1","22,4","80,6","66,5","0"],
    [3791,"2014-07-07T09:00:00","ND","30","11,22","2,6","102,3","23,8","76,4","147,2","0"],
    [3792,"2014-07-07T10:00:00","ND","8","25,86","2,9","194,2","25,2","67,5","288,9","0"],
    [3793,"2014-07-07T11:00:00","ND","8","42,17","2,6","186,5","26,5","62,6","324,4","0"],
    [3794,"2014-07-07T12:00:00","ND","13","58,54","3,2","166,6","27,4","58,2","280,8","0"],
    [3795,"2014-07-07T13:00:00","ND","21","91,94","3,3","95,6","28,5","54,6","431,9","0"],
    [3796,"2014-07-07T14:00:00","ND","24","130,69","2,7","93,9","29,7","50,9","423,7","0"],
    [3797,"2014-07-07T15:00:00","ND","23","143,61","2,9","101,5","30,5","45,9","351,9","0"],
    [3798,"2014-07-07T16:00:00","ND","33","161,88","2,3","102","31,1","45,4","210,1","0"],
    [3799,"2014-07-07T17:00:00","ND","38","133,19","3,5","72","31","48","105,1","0"],
    [3800,"2014-07-07T18:00:00","ND","17","71,61","2,4","342,9","30,6","45,3","50,1","0"],
    [3801,"2014-07-07T19:00:00","ND","29","24,67","2,6","331,1","28,8","50,2","0","0"],
    [3802,"2014-07-07T20:00:00","ND","33","11,58","2","66,1","26,8","59,4","0","0"],
    [3803,"2014-07-07T21:00:00","ND","16","8,67","3,3","115,4","25,2","68,1","0","0"],
    [3804,"2014-07-07T22:00:00","ND","12","7,89","3,9","98,1","24,9","70,4","0","0,25"],
    [3805,"2014-07-07T23:00:00","ND","8","8,89","1,5","45,3","24,1","77,7","0","1,27"],
    [3806,"2014-07-08T00:00:00","ND","6","8,12","2,9","80,8","23,9","79","0","0"],
    [3807,"2014-07-08T01:00:00","ND","8","9,5","1","347,9","23,7","79,2","0","0"],
    [3808,"2014-07-08T02:00:00","ND","17","5,83","1,7","120,7","23,7","80","0","0"],
    [3809,"2014-07-08T03:00:00","ND","5","3,75","2,4","87,6","22,7","85,6","0","0"],
    [3810,"2014-07-08T04:00:00","ND","15","5,65","1,9","254","23,2","82","0","0"],
    [3811,"2014-07-08T05:00:00","ND","13","3,92","1,1","185,1","22,8","84","0","0"],
    [3812,"2014-07-08T06:00:00","ND","26","3,87","2,1","98","22,6","85,1","0","0"],
    [3813,"2014-07-08T07:00:00","ND","37","4,02","1,4","79,2","22,4","85,8","18,4","0"],
    [3814,"2014-07-08T08:00:00","ND","26","7,79","1,6","149,4","23,5","81,8","121,2","0"],
    [3815,"2014-07-08T09:00:00","ND","14","21,27","3,1","168,8","24,7","76,6","227,8","0"],
    [3816,"2014-07-08T10:00:00","ND","13","46,29","2,5","219,3","25,9","68,7","309,1","0"],
    [3817,"2014-07-08T11:00:00","ND","10","63,7","2,2","156,6","27,4","60,2","430,8","0"],
    [3818,"2014-07-08T12:00:00","ND","8","68,74","2,3","126,3","28,7","52,3","466,2","0"],
    [3819,"2014-07-08T13:00:00","ND","12","81,81","1,6","54,8","29,8","48,9","453,5","0"],
    [3820,"2014-07-08T14:00:00","ND","9","78,71","3,1","91,8","31,1","43","429,3","0"],
    [3821,"2014-07-08T15:00:00","ND","10","84,24","3,6","57,7","31,8","40","332,7","0"],
    [3822,"2014-07-08T16:00:00","ND","16","88,5","5,4","62,4","32,1","39,6","175","0"],
    [3823,"2014-07-08T17:00:00","ND","16","63,36","5,4","72,8","31,7","42,6","125,3","0"],
    [3824,"2014-07-08T18:00:00","ND","13","41,7","4","45,8","31,1","44,3","28,8","0"],
    [3825,"2014-07-08T19:00:00","ND","24","28,04","2,1","337,7","29,9","49,8","0","0"],
    [3826,"2014-07-08T20:00:00","ND","16","31,91","4,2","300,1","29,4","48,3","0","0"],
    [3827,"2014-07-08T21:00:00","ND","35","19,11","0,7","13,4","28,3","53,9","0","0"],
    [3828,"2014-07-08T22:00:00","ND","16","7,73","3,1","126,9","26,3","63,9","0","0"],
    [3829,"2014-07-08T23:00:00","ND","13","10,2","1,7","108,4","26,5","62,5","0","0"],
    [3830,"2014-07-09T00:00:00","ND","22","8,48","2,4","170,3","26","67,5","0","0"],
    [3831,"2014-07-09T01:00:00","ND","23","8,56","1,6","174,6","25,3","70,5","0","0"],
    [3832,"2014-07-09T02:00:00","ND","21","17,72","2,4","192,1","25,2","69","0","0"],
    [3833,"2014-07-09T03:00:00","ND","24","14,05","2,8","140,7","24,3","72,4","0","0"],
    [3834,"2014-07-09T04:00:00","ND","9","19,02","1,7","209,3","23,8","69,6","0","0"],
    [3835,"2014-07-09T05:00:00","ND","14","10,62","1,5","149","23,3","72,1","0","0"],
    [3836,"2014-07-09T06:00:00","ND","25","4,34","1,7","155,2","22,8","74,9","0","0"],
    [3837,"2014-07-09T07:00:00","ND","25","4,2","0,9","120","22,2","77,4","11","0"],
    [3838,"2014-07-09T08:00:00","ND","31","7,3","2,9","85,9","22,3","77,6","108,7","0"],
    [3839,"2014-07-09T09:00:00","ND","23","17,6","2,4","92,9","24,6","69,2","231,7","0"],
    [3840,"2014-07-09T10:00:00","ND","31","51,14","1,9","109,3","26,7","61,3","325,6","0"],
    [3841,"2014-07-09T11:00:00","ND","19","81,63","2,6","175,3","28,6","51,7","401,6","0"],
    [3842,"2014-07-09T12:00:00","ND","20","99,08","1,4","128,1","29,9","45","446,1","0"],
    [3843,"2014-07-09T13:00:00","ND","19","105,4","3,5","83,4","31,7","39,1","466,3","0"],
    [3844,"2014-07-09T14:00:00","ND","13","99,08","3,4","112","33,1","33,8","455,3","0"],
    [3845,"2014-07-09T15:00:00","ND","14","91,07","4,6","74,3","33,5","33,3","356,9","0"],
    [3846,"2014-07-09T16:00:00","ND","10","80,28","4","31,4","32,6","37,1","136","0"],
    [3847,"2014-07-09T17:00:00","ND","18","71,84","5,6","17,2","32,3","40,5","144","0"],
    [3848,"2014-07-09T18:00:00","ND","18","58,07","5,4","318,5","30,7","44,7","45","0"],
    [3849,"2014-07-09T19:00:00","ND","24","24,04","3,5","346,3","29,2","49,5","0","0"],
    [3850,"2014-07-09T20:00:00","ND","50","13,11","2,4","87,6","27,5","57,3","0","0"],
    [3851,"2014-07-09T21:00:00","ND","18","12,56","3,2","117,3","26","65,6","0","0"],
    [3852,"2014-07-09T22:00:00","ND","23","10,11","1,6","165,3","26,1","65","0","0"],
    [3853,"2014-07-09T23:00:00","ND","21","8,56","2,6","176,6","25,6","68,8","0","0"],
    [3854,"2014-07-10T00:00:00","ND","43","7,01","0,8","185,7","25,2","70,5","0","0"],
    [3855,"2014-07-10T01:00:00","ND","20","8,18","2,4","191,4","25,2","70,7","0","0"],
    [3856,"2014-07-10T02:00:00","ND","25","6,16","2,3","183,6","24,4","74,5","0","0"],
    [3857,"2014-07-10T03:00:00","ND","19","7,89","2,1","191,1","24,2","73,8","0","0"],
    [3858,"2014-07-10T04:00:00","ND","18","5,36","2,6","146,6","23","78,2","0","0"],
    [3859,"2014-07-10T05:00:00","ND","15","5,32","2,1","156","22,4","76","0","0"],
    [3860,"2014-07-10T06:00:00","ND","16","3,96","2,3","118,8","21,7","75,6","0","0"],
    [3861,"2014-07-10T07:00:00","ND","25","4,2","1,2","98,2","22,1","72,9","7,4","0"],
    [3862,"2014-07-10T08:00:00","ND","37","5,77","3","99,6","22,2","74,4","45,2","0"],
    [3863,"2014-07-10T09:00:00","ND","24","12,34","1,9","178,8","22,8","72,7","133,3","0"],
    [3864,"2014-07-10T10:00:00","ND","24","30,12","2,7","90,1","25,5","62,7","325,9","0"],
    [3865,"2014-07-10T11:00:00","ND","20","57,67","2,9","97,8","27,3","55,9","402,3","0"],
    [3866,"2014-07-10T12:00:00","ND","30","88,46","2,8","135,5","28,2","53,5","409,5","0"],
    [3867,"2014-07-10T13:00:00","ND","22","100,75","3","161,8","29,5","49,2","299,9","0"],
    [3868,"2014-07-10T14:00:00","ND","24","89,92","3,4","104,1","29,9","46,4","238,9","0"],
    [3869,"2014-07-10T15:00:00","ND","20","79,91","4,1","91","30,4","43,2","163,5","0"],
    [3870,"2014-07-10T16:00:00","ND","23","77,24","4,1","63,6","30,6","44","141,1","0"],
    [3871,"2014-07-10T17:00:00","ND","30","75,51","3,7","40,6","30,6","43","71,7","0"],
    [3872,"2014-07-10T18:00:00","ND","25","44,31","3,7","39,2","29,7","52,2","24,6","0"],
    [3873,"2014-07-10T19:00:00","ND","25","17,86","2,5","349,3","28,7","52,6","0","0"],
    [3874,"2014-07-10T20:00:00","ND","19","17,56","1,2","321,9","27,8","55","0","0"],
    [3875,"2014-07-10T21:00:00","ND","18","7,08","3","122,9","25,5","69,9","0","0"],
    [3876,"2014-07-10T22:00:00","ND","21","6,55","2,4","73,4","25,2","70,3","0","0"],
    [3877,"2014-07-10T23:00:00","ND","18","8,08","2,7","89,3","24,8","71","0","0"],
    [3878,"2014-07-11T00:00:00","ND","18","12,25","1,6","110,5","24,6","71,5","0","0"],
    [3879,"2014-07-11T01:00:00","ND","11","10,18","0,9","82,5","24,1","73,4","0","0"],
    [3880,"2014-07-11T02:00:00","ND","15","10,77","1,9","97,7","23,9","74,9","0","0"],
    [3881,"2014-07-11T03:00:00","ND","10","6,52","2,1","129,8","22,9","79,2","0","0"],
    [3882,"2014-07-11T04:00:00","ND","22","3,47","2,3","163,7","22,3","82","0","0"],
    [3883,"2014-07-11T05:00:00","ND","36","4,2","2,5","209,5","22,1","81,8","0","0"],
    [3884,"2014-07-11T06:00:00","ND","31","3,67","0,5","161","22,2","80,9","0","0"],
    [3885,"2014-07-11T07:00:00","ND","40","4,08","1,2","140,4","22,2","81,2","16,3","0"],
    [3886,"2014-07-11T08:00:00","ND","50","5,87","2,3","97,5","22,5","80,8","131,4","0"],
    [3887,"2014-07-11T09:00:00","ND","31","23,04","2,2","134,7","25","70,7","226,1","0"],
    [3888,"2014-07-11T10:00:00","ND","ND","ND","1,9","148,9","26,3","65,4","313,9","0"],
    [3889,"2014-07-11T11:00:00","ND","32","75,98","2,9","114,1","27,8","60,7","372,4","0"],
    [3890,"2014-07-11T12:00:00","ND","28","91,03","4,1","87","28,6","56,5","277,2","0"],
    [3891,"2014-07-11T13:00:00","ND","27","109,09","1,4","43,9","29,7","50,4","447,8","0"],
    [3892,"2014-07-11T14:00:00","ND","24","103,16","3,4","94,5","31","43,9","422,5","0"],
    [3893,"2014-07-11T15:00:00","ND","22","98,2","2,7","98,4","32,1","39,3","359,6","0"],
    [3894,"2014-07-11T16:00:00","ND","21","82,26","2,7","88,1","32,6","36,7","250,5","0"],
    [3895,"2014-07-11T17:00:00","ND","23","65,74","3,2","113,7","32,2","37,4","71,3","0"],
    [3896,"2014-07-11T18:00:00","ND","34","51,16","1,1","162,7","31,2","39,9","19,7","0"],
    [3897,"2014-07-11T19:00:00","ND","39","21,45","0,8","152,2","29,3","50,7","0","0"],
    [3898,"2014-07-11T20:00:00","ND","25","26,85","2,7","236,8","29","51","0","0"],
    [3899,"2014-07-11T21:00:00","ND","28","14,8","1,4","244,1","28,9","51,1","0","0"],
    [3900,"2014-07-11T22:00:00","ND","31","12,5","1,5","109,1","27,5","57,6","0","0"],
    [3901,"2014-07-11T23:00:00","ND","35","3,73","0,8","93","26,2","60,1","0","0"],
    [3902,"2014-07-12T00:00:00","ND","34","6,57","1","217,3","26,1","61,7","0","0"],
    [3903,"2014-07-12T01:00:00","ND","37","4,59","2","142,6","25,1","65,2","0","0"],
    [3904,"2014-07-12T02:00:00","ND","25","7,93","0,3","182,4","24,2","73,2","0","0"],
    [3905,"2014-07-12T03:00:00","ND","37","5,12","0,7","166","23,8","73,6","0","0"],
    [3906,"2014-07-12T04:00:00","ND","25","5,4","0,9","191,8","23,3","73,1","0","0"],
    [3907,"2014-07-12T05:00:00","ND","35","4,47","1","205","23,2","69,4","0","0"],
    [3908,"2014-07-12T06:00:00","ND","24","3,55","0,7","150,1","22,5","72,9","0","0"],
    [3909,"2014-07-12T07:00:00","ND","25","4,61","1,1","168,5","21,5","76,2","19,2","0"],
    [3910,"2014-07-12T08:00:00","ND","20","9,44","0,9","145,6","22,6","70","122,6","0"],
    [3911,"2014-07-12T09:00:00","ND","29","24,12","0,3","102,4","25,1","60,4","230,9","0"],
    [3912,"2014-07-12T10:00:00","ND","8","38,87","1,5","188,1","27,1","47","333,8","0"],
    [3913,"2014-07-12T11:00:00","ND","9","64,41","1,9","177,6","28,2","44,5","410,8","0"],
    [3914,"2014-07-12T12:00:00","ND","11","72,22","0,9","212,4","29,7","40,9","450,8","0"],
    [3915,"2014-07-12T13:00:00","ND","12","80,03","1,5","132,5","31","38,2","466,6","0"],
    [3916,"2014-07-12T14:00:00","ND","13","78","1,6","140,4","32,3","34,2","429,1","0"],
    [3917,"2014-07-12T15:00:00","ND","10","81,75","2,2","106,3","33,2","33","371,3","0"],
    [3918,"2014-07-12T16:00:00","ND","16","75,63","3,7","130,4","33,3","32,7","205,8","0"],
    [3919,"2014-07-12T17:00:00","ND","23","67,51","4,3","119,1","32,7","34","110","0"],
    [3920,"2014-07-12T18:00:00","ND","28","24,73","3","100,9","31,7","35,5","11,9","0"],
    [3921,"2014-07-12T19:00:00","ND","24","13,27","1,4","119","29","45,6","0","0"],
    [3922,"2014-07-12T20:00:00","ND","21","12,36","0,7","77,4","28","55,1","0","0"],
    [3923,"2014-07-12T21:00:00","ND","27","15,33","1,7","63,3","26,7","63,2","0","0"],
    [3924,"2014-07-12T22:00:00","ND","29","11,03","0,9","75,2","26,7","62,7","0","0"],
    [3925,"2014-07-12T23:00:00","ND","26","9,89","2,1","75,4","25,3","68,8","0","0"],
    [3926,"2014-07-13T00:00:00","ND","21","13,13","0,9","50,4","24,7","71,1","0","0"],
    [3927,"2014-07-13T01:00:00","ND","14","14,27","0,8","52,4","24,6","71","0","0"],
    [3928,"2014-07-13T02:00:00","ND","21","7,2","0,4","192,3","24","72,9","0","0"],
    [3929,"2014-07-13T03:00:00","ND","22","6","0,5","186,4","23,6","71,7","0","0"],
    [3930,"2014-07-13T04:00:00","ND","26","4,18","0,7","115,1","23,1","73,6","0","0"],
    [3931,"2014-07-13T05:00:00","ND","25","3,59","0,7","73","22,3","79,3","0","0"],
    [3932,"2014-07-13T06:00:00","ND","28","3,49","0,4","227,3","22,8","76,5","0","0"],
    [3933,"2014-07-13T07:00:00","ND","29","4,1","0,9","187,7","23,2","71,2","12","0"],
    [3934,"2014-07-13T08:00:00","ND","24","8,1","1,6","143","23,7","66,2","60,2","0"],
    [3935,"2014-07-13T09:00:00","ND","11","18,43","2,4","156,9","25","55,6","154,9","0"],
    [3936,"2014-07-13T10:00:00","ND","14","33,14","1,2","119,3","26,1","55,1","246,7","0"],
    [3937,"2014-07-13T11:00:00","ND","10","50,55","1,8","77,5","27,3","47,9","303","0"],
    [3938,"2014-07-13T12:00:00","ND","11","70,17","1,7","79,4","28,4","45,4","306,5","0"],
    [3939,"2014-07-13T13:00:00","ND","15","69,7","2","88,2","29,4","41,9","308,8","0"],
    [3940,"2014-07-13T14:00:00","ND","9","65,25","2,1","104,3","30,2","40,5","385,2","0"],
    [3941,"2014-07-13T15:00:00","ND","10","59,54","2,8","87,8","30,9","38,1","221,3","0"],
    [3942,"2014-07-13T16:00:00","ND","14","66,23","3,5","106,2","31,2","37,5","201,2","0"],
    [3943,"2014-07-13T17:00:00","ND","15","55,08","3,1","106,5","30,9","38","66,4","0"],
    [3944,"2014-07-13T18:00:00","ND","18","21,59","2,5","108","29,7","43","13,5","0"],
    [3945,"2014-07-13T19:00:00","ND","19","7,99","2,2","117,4","28,7","44,7","0","0"],
    [3946,"2014-07-13T20:00:00","ND","31","6,14","0,8","243,1","28","45,5","0","0"],
    [3947,"2014-07-13T21:00:00","ND","38","4,2","0,4","155,8","27,8","48,3","0","0"],
    [3948,"2014-07-13T22:00:00","ND","17","10,5","2","263,9","27","56,4","0","0"],
    [3949,"2014-07-13T23:00:00","ND","35","3,32","1,5","93,4","25,4","62,3","0","0"],
    [3950,"2014-07-14T00:00:00","ND","15","3,96","1,4","97,2","24,8","70,6","0","0"],
    [3951,"2014-07-14T01:00:00","ND","24","8,32","0,7","176","24,3","73,4","0","0"],
    [3952,"2014-07-14T02:00:00","ND","28","4,47","0,5","207,6","24,4","71,6","0","0"],
    [3953,"2014-07-14T03:00:00","ND","26","3,1","0,4","120,2","24,4","69,7","0","0"],
    [3954,"2014-07-14T04:00:00","ND","16","5,36","0,2","171,9","24,5","67,3","0","0"],
    [3955,"2014-07-14T05:00:00","ND","20","3,94","2,1","105,5","23,5","74,5","0","0"],
    [3956,"2014-07-14T06:00:00","ND","18","3,2","0,5","203,8","23,1","75,8","0","0"],
    [3957,"2014-07-14T07:00:00","ND","39","3,39","0,7","181,2","22,9","76,7","10,1","0"],
    [3958,"2014-07-14T08:00:00","ND","30","8,32","0,8","147,9","24","72","74,1","0"],
    [3959,"2014-07-14T09:00:00","ND","22","18,56","1,7","126,5","24,9","69","139,3","0"],
    [3960,"2014-07-14T10:00:00","ND","13","35,7","1,3","181,2","26,1","63,9","245,6","0"],
    [3961,"2014-07-14T11:00:00","ND","18","51,67","1,7","111,4","27,8","55,2","267,9","0"],
    [3962,"2014-07-14T12:00:00","ND","11","68,57","1,4","124","28,8","50,7","381,2","0"],
    [3963,"2014-07-14T13:00:00","ND","16","81,14","1,8","53,9","30,2","44,7","403","0"],
    [3964,"2014-07-14T14:00:00","ND","23","83,66","2,7","45,3","30,8","42,1","361,3","0"],
    [3965,"2014-07-14T15:00:00","ND","17","87,62","4","61,8","31,5","39,4","252","0"],
    [3966,"2014-07-14T16:00:00","ND","23","82,66","4,9","64,3","31,4","41,3","154,1","0"],
    [3967,"2014-07-14T17:00:00","ND","30","56,24","2,6","63,6","30,9","44,7","57,4","0"],
    [3968,"2014-07-14T18:00:00","ND","19","25,77","1,9","338,2","30,1","46,9","17","0"],
    [3969,"2014-07-14T19:00:00","ND","12","18,62","3,9","281,7","29","49,2","0","0"],
    [3970,"2014-07-14T20:00:00","ND","9","24,61","5,7","286,1","27,9","53","0","0"],
    [3971,"2014-07-14T21:00:00","ND","16","11,77","1,3","349,7","27,4","56,7","0","0"],
    [3972,"2014-07-14T22:00:00","ND","ND","6,22","1,4","109","25,9","68,3","0","0"],
    [3973,"2014-07-14T23:00:00","ND","17","5,67","0,8","110,8","25,8","67,9","0","0"],
    [3974,"2014-07-15T00:00:00","ND","5","6,26","1,3","113,3","25","71,4","0","0"],
    [3975,"2014-07-15T01:00:00","ND","2","11,6","0,7","118","24,6","72,5","0","0"],
    [3976,"2014-07-15T02:00:00","ND","3","8,56","0,3","154,9","24,7","72,2","0","0"],
    [3977,"2014-07-15T03:00:00","ND","18","7,63","0,4","148,9","24,8","71,6","0","0"],
    [3978,"2014-07-15T04:00:00","ND","7","8,83","0,6","82,5","24,1","74,3","0","0"],
    [3979,"2014-07-15T05:00:00","ND","23","4,14","0,8","183,3","23,7","75,9","0","0"],
    [3980,"2014-07-15T06:00:00","ND","28","3,51","0,8","125,6","23,7","74,3","0","0"],
    [3981,"2014-07-15T07:00:00","ND","32","3,53","1,5","111,9","23,1","81,6","11,6","0,25"],
    [3982,"2014-07-15T08:00:00","ND","41","11,85","0,9","166,6","24,3","75,3","132,1","0"],
    [3983,"2014-07-15T09:00:00","ND","18","29,71","3,3","212,4","25,6","66,2","220,4","0"],
    [3984,"2014-07-15T10:00:00","ND","18","44","1","185,7","26,5","61,5","220,7","0"],
    [3985,"2014-07-15T11:00:00","ND","22","58,07","0,2","93,4","27,7","57,2","290,2","0"],
    [3986,"2014-07-15T12:00:00","ND","45","72,9","2,2","61,4","28,6","53,1","325","0"],
    [3987,"2014-07-15T13:00:00","ND","21","65,72","2,6","69,7","29,1","47,4","268,5","0"],
    [3988,"2014-07-15T14:00:00","ND","18","60,95","2,9","69,4","29,6","44,8","220,7","0"],
    [3989,"2014-07-15T15:00:00","ND","18","68,04","4,4","69,8","30","44,8","149,1","0"],
    [3990,"2014-07-15T16:00:00","ND","13","69,8","2","40,9","30,1","43,6","183,6","0"],
    [3991,"2014-07-15T17:00:00","ND","18","59,19","3,5","69,2","30,3","47,1","143,1","0"],
    [3992,"2014-07-15T18:00:00","ND","22","30,77","3,3","74,9","29,8","51,9","37,8","0"],
    [3993,"2014-07-15T19:00:00","ND","23","26,06","0,8","258,6","29","52,1","0","0"],
    [3994,"2014-07-15T20:00:00","ND","8","26,71","4,1","287,4","28","52,8","0","0"],
    [3995,"2014-07-15T21:00:00","ND","12","22,63","2,4","290,7","27,5","55,5","0","0"],
    [3996,"2014-07-15T22:00:00","ND","13","5,71","2,4","85,8","25,6","67,8","0","0"],
    [3997,"2014-07-15T23:00:00","ND","14","7,36","1,5","85,7","24,7","70,8","0","0"],
    [3998,"2014-07-16T00:00:00","ND","10","9,87","1,4","74,5","24,6","69,9","0","0"],
    [3999,"2014-07-16T01:00:00","ND","6","12,07","0,8","116,6","24,3","70,8","0","0"],
    [4000,"2014-07-16T02:00:00","ND","7","11,72","0,7","144","23,9","72,7","0","0"],
    [4001,"2014-07-16T03:00:00","ND","20","7,69","0,9","182,1","23,9","74","0","0"],
    [4002,"2014-07-16T04:00:00","ND","27","4,83","1,4","140,2","24","75,6","0","0"],
    [4003,"2014-07-16T05:00:00","ND","34","3,32","1,1","98,7","23,1","79,5","0","0"],
    [4004,"2014-07-16T06:00:00","ND","29","3,16","1,3","193,6","23,1","79,3","0","0"],
    [4005,"2014-07-16T07:00:00","ND","32","5,4","1,5","231,1","23,3","77,2","12,5","0"],
    [4006,"2014-07-16T08:00:00","ND","41","8,03","1,5","131,8","24,2","73,5","46,8","0"],
    [4007,"2014-07-16T09:00:00","ND","40","12,17","3,4","103,3","24,4","73,8","94,9","0"],
    [4008,"2014-07-16T10:00:00","ND","27","31,69","0,8","100,3","25,9","65,7","228,6","0"],
    [4009,"2014-07-16T11:00:00","ND","17","52,63","1,2","103,4","27,5","60,1","263,8","0"],
    [4010,"2014-07-16T12:00:00","ND","10","67,9","1,4","75,1","29","55,6","468,2","0"],
    [4011,"2014-07-16T13:00:00","ND","21","91,15","1,4","109,4","30,3","50,8","412,8","0"],
    [4012,"2014-07-16T14:00:00","ND","16","106,58","1,2","128","31,2","46,8","409,9","0"],
    [4013,"2014-07-16T15:00:00","ND","17","111,48","1,8","105,5","32","42,7","316,2","0"],
    [4014,"2014-07-16T16:00:00","ND","24","124,69","2,1","165,7","32,4","43,6","220,2","0"],
    [4015,"2014-07-16T17:00:00","ND","19","109,4","2,1","235,7","31,7","45,4","56,1","0"],
    [4016,"2014-07-16T18:00:00","ND","17","74,24","4,5","282,9","31,1","46","49,7","0"],
    [4017,"2014-07-16T19:00:00","ND","14","33,11","2","303","29,9","47,9","0","0"],
    [4018,"2014-07-16T20:00:00","ND","22","18,03","1","301,5","28,9","51,1","0","0"],
    [4019,"2014-07-16T21:00:00","ND","32","7,03","1,3","113,5","26,8","63,5","0","0"],
    [4020,"2014-07-16T22:00:00","ND","21","6,52","2,3","93,2","26","66,5","0","0"],
    [4021,"2014-07-16T23:00:00","ND","27","9,87","2,1","109,9","24,7","72","0","0"],
    [4022,"2014-07-17T00:00:00","ND","12","6,99","1,6","124,7","25","70,3","0","0"],
    [4023,"2014-07-17T01:00:00","ND","8","9,18","1","107,6","24,6","72,3","0","0"],
    [4024,"2014-07-17T02:00:00","ND","17","11,75","0,5","202,4","25","70,9","0","0"],
    [4025,"2014-07-17T03:00:00","ND","19","9,77","2","137,1","24,6","71,3","0","0"],
    [4026,"2014-07-17T04:00:00","ND","25","10,4","1,3","200,6","24","72,9","0","0"],
    [4027,"2014-07-17T05:00:00","ND","29","5,93","2,2","166,5","23","76,8","0","0"],
    [4028,"2014-07-17T06:00:00","ND","31","4,51","2,3","221,3","22,7","77,3","0","0"],
    [4029,"2014-07-17T07:00:00","ND","46","3,47","1,9","110,3","22,5","78,2","18,3","0"],
    [4030,"2014-07-17T08:00:00","ND","37","12,01","2,8","168","23,3","74,5","113,1","0"],
    [4031,"2014-07-17T09:00:00","ND","20","29,77","1,7","158,8","25","60,9","183,7","0"],
    [4032,"2014-07-17T10:00:00","ND","20","56,87","2,4","99,3","26,5","57,8","301,2","0"],
    [4033,"2014-07-17T11:00:00","ND","23","71,35","3","92,1","28,2","54","378,5","0"],
    [4034,"2014-07-17T12:00:00","ND","19","83,22","3,1","94,4","29,4","49,5","406,2","0"],
    [4035,"2014-07-17T13:00:00","ND","25","108,28","2,7","50,2","30,6","46,4","391","0"],
    [4036,"2014-07-17T14:00:00","ND","22","114,23","3,5","66,4","31,4","43,1","330,9","0"],
    [4037,"2014-07-17T15:00:00","ND","24","131,71","3,8","111,2","32,3","39,3","312,4","0"],
    [4038,"2014-07-17T16:00:00","ND","20","94,1","3,6","58,1","32,1","41,4","112,4","0"],
    [4039,"2014-07-17T17:00:00","ND","22","55,55","4,1","7,1","31,3","45,4","56,5","0"],
    [4040,"2014-07-17T18:00:00","ND","23","38,05","3,1","356,1","30,4","48,5","25,9","0"],
    [4041,"2014-07-17T19:00:00","ND","13","35,56","4,4","289,3","29,3","49,6","0","0"],
    [4042,"2014-07-17T20:00:00","ND","41","14,66","1,2","56,9","27,5","57,7","0","0"],
    [4043,"2014-07-17T21:00:00","ND","47","6,95","1,5","84,4","26,1","66,2","0","0"],
    [4044,"2014-07-17T22:00:00","ND","22","4,59","2,1","80,5","25,9","67,1","0","0"],
    [4045,"2014-07-17T23:00:00","ND","12","4,02","1,8","98,2","25,2","69,6","0","0"],
    [4046,"2014-07-18T00:00:00","ND","8","9,05","0,9","138,4","25,1","69","0","0"],
    [4047,"2014-07-18T01:00:00","ND","9","11,17","0,3","163,6","25,4","67","0","0"],
    [4048,"2014-07-18T02:00:00","ND","12","8,07","0,9","224,7","24,8","72","0","0"],
    [4049,"2014-07-18T03:00:00","ND","20","4,47","1,1","155,5","23,7","79,5","0","11,94"],
    [4050,"2014-07-18T04:00:00","ND","14","2,63","0,9","104,6","23,2","85,4","0","0"],
    [4051,"2014-07-18T05:00:00","ND","21","2,24","1,4","105,9","22,7","86,2","0","0"],
    [4052,"2014-07-18T06:00:00","ND","35","3,34","0,5","133,9","23,1","82,4","0","0"],
    [4053,"2014-07-18T07:00:00","ND","36","3,67","1,4","181,4","23,4","81,5","20,7","0"],
    [4054,"2014-07-18T08:00:00","ND","22","9,01","2,1","217,7","24,1","77,7","83","0"],
    [4055,"2014-07-18T09:00:00","ND","16","23,2","1,2","115,4","25,5","71,4","224,9","0"],
    [4056,"2014-07-18T10:00:00","ND","24","47,92","2,2","151,3","26,8","64,3","322","0"],
    [4057,"2014-07-18T11:00:00","ND","15","61,4","3","134,6","28,5","52,6","426,4","0"],
    [4058,"2014-07-18T12:00:00","ND","14","73,65","2,2","81,5","29,8","45,5","451","0"],
    [4059,"2014-07-18T13:00:00","ND","11","79,14","3,1","83,8","30,8","41","405,5","0"],
    [4060,"2014-07-18T14:00:00","ND","9","84,21","2,4","54","32,4","32,5","449,2","0"],
    [4061,"2014-07-18T15:00:00","ND","11","80,65","3,5","103,7","33,3","30,3","352,3","0"],
    [4062,"2014-07-18T16:00:00","ND","11","85,44","2,5","117,6","33,4","31,3","222,4","0"],
    [4063,"2014-07-18T17:00:00","ND","15","79,36","2","126","33,3","30,3","138,6","0"],
    [4064,"2014-07-18T18:00:00","ND","14","60,23","2,7","321,1","32","37,9","49,8","0"],
    [4065,"2014-07-18T19:00:00","ND","13","31,54","4,8","316,4","30,1","44,4","0","0"],
    [4066,"2014-07-18T20:00:00","ND","35","21,08","1,3","30,4","27,7","55,3","0","0"],
    [4067,"2014-07-18T21:00:00","ND","27","7,36","1,6","101","26,3","63,8","0","0"],
    [4068,"2014-07-18T22:00:00","ND","24","6,79","2,6","100,4","25,6","66,9","0","0"],
    [4069,"2014-07-18T23:00:00","ND","9","7,18","2,2","120,5","24,7","70,2","0","0"],
    [4070,"2014-07-19T00:00:00","ND","11","9,77","0,4","41,1","24,1","72,1","0","0"],
    [4071,"2014-07-19T01:00:00","ND","46","10,87","1,6","50,7","23,7","73,4","0","0"],
    [4072,"2014-07-19T02:00:00","ND","15","6,59","1,8","88,4","22,8","77,1","0","0"],
    [4073,"2014-07-19T03:00:00","ND","14","6,61","0,9","123,8","22,5","78,4","0","0"],
    [4074,"2014-07-19T04:00:00","ND","23","3,79","0,9","161,7","21,7","79,4","0","0"],
    [4075,"2014-07-19T05:00:00","ND","38","4,3","1,7","168,4","21,8","74,5","0","0"],
    [4076,"2014-07-19T06:00:00","ND","31","4,43","2,9","179,2","20,6","78,9","0","0"],
    [4077,"2014-07-19T07:00:00","ND","30","3,89","1,6","141,7","20,2","78,1","21,1","0"],
    [4078,"2014-07-19T08:00:00","ND","44","7,36","2,6","107,1","21","74,9","117,4","0"],
    [4079,"2014-07-19T09:00:00","ND","28","26,83","2,2","126,9","23,7","67,1","230,7","0"],
    [4080,"2014-07-19T10:00:00","ND","38","52,38","2,8","91,6","25,8","61,3","330,2","0"],
    [4081,"2014-07-19T11:00:00","ND","26","75,88","2,7","77,1","27,7","53,8","409,2","0"],
    [4082,"2014-07-19T12:00:00","ND","16","86,4","2,1","84,6","29,4","45,4","455,1","0"],
    [4083,"2014-07-19T13:00:00","ND","11","90,01","2","145,1","31,3","37,4","466,3","0"],
    [4084,"2014-07-19T14:00:00","ND","11","95,69","2,1","190,6","33","30,5","435,6","0"],
    [4085,"2014-07-19T15:00:00","ND","10","71,43","1,6","148,4","34,2","25,8","368","0"],
    [4086,"2014-07-19T16:00:00","ND","11","77,24","2","294","34,2","28,5","238,7","0"],
    [4087,"2014-07-19T17:00:00","ND","10","75,87","6","303,5","33,5","33,2","181,9","0"],
    [4088,"2014-07-19T18:00:00","ND","10","45,82","4,9","316","31,7","37,6","38,3","0"],
    [4089,"2014-07-19T19:00:00","ND","16","20,57","3,5","327","29,7","44,3","0","0"],
    [4090,"2014-07-19T20:00:00","ND","24","12,17","1","28,5","28","52,5","0","0"],
    [4091,"2014-07-19T21:00:00","ND","21","9,79","2,7","106,3","26,1","61,8","0","0"],
    [4092,"2014-07-19T22:00:00","ND","19","11,24","1,3","129,8","26","62,3","0","0"],
    [4093,"2014-07-19T23:00:00","ND","21","11,21","2,1","201,9","26,1","61,1","0","0"],
    [4094,"2014-07-20T00:00:00","ND","27","19,74","0,6","172,9","24,7","67,9","0","0"],
    [4095,"2014-07-20T01:00:00","ND","ND","16,03","1,4","97,6","24,6","69,1","0","0"],
    [4096,"2014-07-20T02:00:00","ND","72","8,73","2,2","105,6","24,3","70","0","0"],
    [4097,"2014-07-20T03:00:00","ND","33","7,75","1,9","161,1","24,1","68,9","0","0"],
    [4098,"2014-07-20T04:00:00","ND","27","7,69","2,6","171,4","23,2","68,9","0","0"],
    [4099,"2014-07-20T05:00:00","ND","20","4,91","2","171,7","22,7","71,5","0","0"],
    [4100,"2014-07-20T06:00:00","ND","21","3,02","0,6","220,2","22,4","69,3","0","0"],
    [4101,"2014-07-20T07:00:00","ND","25","3,53","2","141,8","22,3","70,5","24,8","0"],
    [4102,"2014-07-20T08:00:00","ND","20","9,91","1,2","158,6","22,9","67,5","105","0"],
    [4103,"2014-07-20T09:00:00","ND","36","25,16","3,4","93,5","24,7","65","206,7","0"],
    [4104,"2014-07-20T10:00:00","ND","25","61,97","3","102,1","26,9","56,3","317,3","0"],
    [4105,"2014-07-20T11:00:00","ND","19","82,64","3","96","28,5","51,1","384,2","0"],
    [4106,"2014-07-20T12:00:00","ND","13","93,66","3","118,3","29,5","48,1","397,5","0"],
    [4107,"2014-07-20T13:00:00","ND","25","119,76","3","73,5","30,8","43,1","444,3","0"],
    [4108,"2014-07-20T14:00:00","ND","26","122,75","1,6","62","31,9","40,2","380,3","0"],
    [4109,"2014-07-20T15:00:00","ND","21","95,16","4,8","62","32,5","39,5","286,6","0"],
    [4110,"2014-07-20T16:00:00","ND","9","46","5,6","24,2","32","40,8","183,8","0"],
    [4111,"2014-07-20T17:00:00","ND","10","47,33","4,6","359,6","31,7","40,1","136,6","0"],
    [4112,"2014-07-20T18:00:00","ND","13","38,15","3,4","357,2","31","41,8","30,2","0"],
    [4113,"2014-07-20T19:00:00","ND","7","31,46","5,5","293,1","29,4","46,6","0","0"],
    [4114,"2014-07-20T20:00:00","ND","9","16,8","2,1","337,8","28,5","50,7","0","0"],
    [4115,"2014-07-20T21:00:00","ND","22","4,49","3,7","81,1","26,7","61,7","0","0"],
    [4116,"2014-07-20T22:00:00","ND","13","5,59","1,4","64,1","25,8","65,7","0","0"],
    [4117,"2014-07-20T23:00:00","ND","14","5,26","2,9","91,8","25,2","68,3","0","0"],
    [4118,"2014-07-21T00:00:00","ND","11","7,28","2","82,8","24,4","71,5","0","0"],
    [4119,"2014-07-21T01:00:00","ND","7","5,99","1,3","129,5","24","73,4","0","0"],
    [4120,"2014-07-21T02:00:00","ND","10","3,79","3","207,6","23,9","74,8","0","0"],
    [4121,"2014-07-21T03:00:00","ND","9","5,69","1,8","143","23,9","74,2","0","0"],
    [4122,"2014-07-21T04:00:00","ND","15","3,47","3,7","96,5","22,8","78,2","0","0"],
    [4123,"2014-07-21T05:00:00","ND","22","5,48","2,7","167,8","23","72,3","0","0"],
    [4124,"2014-07-21T06:00:00","ND","19","3,77","2,8","209,4","22,9","73,3","0","0"],
    [4125,"2014-07-21T07:00:00","ND","23","3,43","2,8","152,4","22,3","77","12,7","0"],
    [4126,"2014-07-21T08:00:00","ND","19","7,46","2,7","182,4","22,5","77,1","55,5","0"],
    [4127,"2014-07-21T09:00:00","ND","17","19,02","2,9","158,7","24,3","68,2","175,4","0"],
    [4128,"2014-07-21T10:00:00","ND","16","40,6","2,5","192,2","26,3","59,4","276,5","0"],
    [4129,"2014-07-21T11:00:00","ND","18","54,57","3","107,7","27,5","57","340,1","0"],
    [4130,"2014-07-21T12:00:00","ND","12","62,05","3,3","84","28,7","53","282,4","0"],
    [4131,"2014-07-21T13:00:00","ND","14","72,8","2,5","75,6","29,3","51","277,9","0"],
    [4132,"2014-07-21T14:00:00","ND","10","90,33","1,8","174,5","30,5","45,7","356,5","0"],
    [4133,"2014-07-21T15:00:00","ND","ND","80,75","2,6","146,9","31,6","39,6","313,3","0"],
    [4134,"2014-07-21T16:00:00","ND","16","69,8","3,5","42,6","31,8","41,4","181,3","0"],
    [4135,"2014-07-21T17:00:00","ND","17","53,59","5","20,6","30,6","47","60,8","0"],
    [4136,"2014-07-21T18:00:00","ND","17","32,08","3,6","1,8","30","49,1","17,9","0"],
    [4137,"2014-07-21T19:00:00","ND","18","15,82","2,8","329","29,1","50,6","0","0"],
    [4138,"2014-07-21T20:00:00","ND","13","14,25","2,2","310,7","27,7","54,6","0","0"],
    [4139,"2014-07-21T21:00:00","ND","35","7,63","3,8","99","25,7","66,5","0","0"],
    [4140,"2014-07-21T22:00:00","ND","21","6,34","2,6","100","24,6","71,5","0","0"],
    [4141,"2014-07-21T23:00:00","ND","20","9,93","2,4","83,2","24,2","72,1","0","0"],
    [4142,"2014-07-22T00:00:00","ND","29","12,32","2","13,1","24,2","71,1","0","0"],
    [4143,"2014-07-22T01:00:00","ND","8","13,72","0,5","100,6","24,3","70,8","0","0"],
    [4144,"2014-07-22T02:00:00","ND","11","10,5","1,5","144,1","24,1","73,2","0","0"],
    [4145,"2014-07-22T03:00:00","ND","30","6,26","2,8","175","23,6","77","0","0"],
    [4146,"2014-07-22T04:00:00","ND","29","4,69","2,9","193,5","23,1","78,6","0","0"],
    [4147,"2014-07-22T05:00:00","ND","25","4,06","1,2","149,7","23,4","76,9","0","0"],
    [4148,"2014-07-22T06:00:00","ND","34","3,47","3,2","178,8","22,7","79,9","0","0"],
    [4149,"2014-07-22T07:00:00","ND","35","4,65","1,4","235,8","22,6","79","15,2","0"],
    [4150,"2014-07-22T08:00:00","ND","46","6,99","2,7","156,2","24,3","73","87,8","0"],
    [4151,"2014-07-22T09:00:00","ND","21","22,19","3,4","156","25,1","68,7","179,3","0"],
    [4152,"2014-07-22T10:00:00","ND","22","50,75","2,7","177","26,6","62,8","323,1","0"],
    [4153,"2014-07-22T11:00:00","ND","12","65,13","2,9","136,7","28,2","55,5","350,1","0"],
    [4154,"2014-07-22T12:00:00","ND","14","73,96","2,9","167,4","29,4","48,2","355","0"],
    [4155,"2014-07-22T13:00:00","ND","13","87,01","3,8","153,5","30,6","44,4","451,3","0"],
    [4156,"2014-07-22T14:00:00","ND","ND","81,69","3,3","159,7","31,1","42,6","336,9","0"],
    [4157,"2014-07-22T15:00:00","ND","18","64,35","4,4","85,7","31,2","39,5","232,6","0"],
    [4158,"2014-07-22T16:00:00","ND","41","74","5,6","58,6","31,9","39,3","221,6","0"],
    [4159,"2014-07-22T17:00:00","ND","18","62,64","5,1","60,1","31,2","43,5","93,4","0"],
    [4160,"2014-07-22T18:00:00","ND","18","46,59","4,6","53,2","30,5","47,3","47,1","0"],
    [4161,"2014-07-22T19:00:00","ND","22","30,1","2,9","336,5","29,1","51,6","0","0"],
    [4162,"2014-07-22T20:00:00","ND","35","22,78","3,3","295,3","28,4","51,8","0","0"],
    [4163,"2014-07-22T21:00:00","ND","12","28,94","4,6","298,6","27,8","53","0","0"],
    [4164,"2014-07-22T22:00:00","ND","25","12,48","2,7","102,7","25,5","65,3","0","0"],
    [4165,"2014-07-22T23:00:00","ND","17","9,77","2,3","71,9","25","67,7","0","0"],
    [4166,"2014-07-23T00:00:00","ND","22","10,24","3,3","197,6","25,2","67,7","0","0"],
    [4167,"2014-07-23T01:00:00","ND","40","8,65","3","171,5","24,5","71,4","0","0"],
    [4168,"2014-07-23T02:00:00","ND","40","9,05","2,4","141,8","24,2","72,1","0","0"],
    [4169,"2014-07-23T03:00:00","ND","23","6,61","1,2","114,8","23,5","74,9","0","0"],
    [4170,"2014-07-23T04:00:00","ND","21","8,22","3","205,6","22,9","75,3","0","0"],
    [4171,"2014-07-23T05:00:00","ND","27","4,85","1,7","158,8","22,7","75,6","0","0"],
    [4172,"2014-07-23T06:00:00","ND","27","2,47","1,8","90,2","22,4","77,4","0","0"],
    [4173,"2014-07-23T07:00:00","ND","31","2,51","1,5","159,5","22,4","76,1","11,7","0"],
    [4174,"2014-07-23T08:00:00","ND","24","5,46","2,5","167,6","23,1","71,2","55,6","0"],
    [4175,"2014-07-23T09:00:00","ND","29","15,38","1,9","115,7","25,1","64,6","204","0"],
    [4176,"2014-07-23T10:00:00","ND","18","37,25","2,4","169,1","26,5","57,3","232,3","0"],
    [4177,"2014-07-23T11:00:00","ND","21","62,87","1,8","153,3","28,3","52,1","409","0"],
    [4178,"2014-07-23T12:00:00","ND","15","84,23","1,4","142,8","29,6","47,5","451,1","0"],
    [4179,"2014-07-23T13:00:00","ND","19","93,78","2,3","77,1","31,1","41,3","462,9","0"],
    [4180,"2014-07-23T14:00:00","ND","14","113,86","2","62,5","32,6","37,1","400,3","0"],
    [4181,"2014-07-23T15:00:00","ND","18","100,16","3,4","87,1","32,8","37","245,2","0"],
    [4182,"2014-07-23T16:00:00","ND","15","84,32","4,8","343,8","32,4","40,8","103,9","0"],
    [4183,"2014-07-23T17:00:00","ND","19","68,6","5,3","304,8","31,3","43,7","72,4","0"],
    [4184,"2014-07-23T18:00:00","ND","16","55,52","5,4","308,4","30,7","45,1","34,7","0"],
    [4185,"2014-07-23T19:00:00","ND","13","25,61","4,7","294,1","29,4","48,7","0","0"],
    [4186,"2014-07-23T20:00:00","ND","33","5,75","1,9","55,3","28,1","54,2","0","0"],
    [4187,"2014-07-23T21:00:00","ND","20","6,06","3,5","120,1","26,5","62,3","0","0"],
    [4188,"2014-07-23T22:00:00","ND","10","5,91","2,7","104,6","25,6","66,7","0","0"],
    [4189,"2014-07-23T23:00:00","ND","18","6,57","1,7","84,3","25,2","67,9","0","0"],
    [4190,"2014-07-24T00:00:00","ND","9","9,99","2,2","90,5","24,8","69,3","0","0"],
    [4191,"2014-07-24T01:00:00","ND","10","8,18","1,4","114,2","24","72,9","0","0"],
    [4192,"2014-07-24T02:00:00","ND","21","4,79","2,7","214","23,6","75,6","0","0"],
    [4193,"2014-07-24T03:00:00","ND","28","2,94","2,3","153,1","23","78,2","0","0"],
    [4194,"2014-07-24T04:00:00","ND","29","2,65","2,5","188,3","22,4","80,6","0","0"],
    [4195,"2014-07-24T05:00:00","ND","23","3,32","1,6","168,1","22,4","79,2","0","0"],
    [4196,"2014-07-24T06:00:00","ND","36","1,98","1,9","136,6","21,5","83,5","0","0"],
    [4197,"2014-07-24T07:00:00","ND","51","2,65","2,9","126,1","20,8","84,1","18,9","0"],
    [4198,"2014-07-24T08:00:00","ND","33","8,03","2,2","173,7","22,2","78,4","111,9","0"],
    [4199,"2014-07-24T09:00:00","ND","27","26,16","1,7","136,2","24,4","70,8","222","0"],
    [4200,"2014-07-24T10:00:00","ND","25","54,5","2,7","108,9","26,2","63,7","325,1","0"],
    [4201,"2014-07-24T11:00:00","ND","25","82,6","2,4","83,7","28","56,1","405,8","0"],
    [4202,"2014-07-24T12:00:00","ND","20","101,12","1,9","63,3","29,7","47,6","447,6","0"],
    [4203,"2014-07-24T13:00:00","ND","27","131,42","2,1","38,5","31,2","43,1","449,6","0"],
    [4204,"2014-07-24T14:00:00","ND","25","119,1","3,4","80,5","32,7","35,5","429,9","0"],
    [4205,"2014-07-24T15:00:00","ND","19","115,72","2,9","37,7","33,5","31,9","377,7","0"],
    [4206,"2014-07-24T16:00:00","ND","16","97,27","4,3","49","34","32,8","274,4","0"],
    [4207,"2014-07-24T17:00:00","ND","22","82,79","4,6","23,4","33,5","36,5","158,6","0"],
    [4208,"2014-07-24T18:00:00","ND","15","67,15","4,9","325,1","32,1","39,5","51,5","0"],
    [4209,"2014-07-24T19:00:00","ND","25","46,59","5,7","309,7","30,2","44,9","0","0"],
    [4210,"2014-07-24T20:00:00","ND","20","26,49","3,7","328,1","29,3","48,3","0","0"],
    [4211,"2014-07-24T21:00:00","ND","25","12,01","3,2","116","27","58,5","0","0"],
    [4212,"2014-07-24T22:00:00","ND","21","10,75","2,3","111,9","26,1","63,3","0","0"],
    [4213,"2014-07-24T23:00:00","ND","18","9,52","2,7","102,8","25,3","67,5","0","0"],
    [4214,"2014-07-25T00:00:00","ND","16","10,6","3,9","84,5","24,4","71,7","0","0"],
    [4215,"2014-07-25T01:00:00","ND","12","11,28","1","120","24,3","72,5","0","0"],
    [4216,"2014-07-25T02:00:00","ND","11","8,42","1,3","176,2","24,7","70,7","0","0"],
    [4217,"2014-07-25T03:00:00","ND","27","8,52","2,5","202,5","24,1","72,1","0","0"],
    [4218,"2014-07-25T04:00:00","ND","21","8,12","1,8","170","23,3","74,2","0","0"],
    [4219,"2014-07-25T05:00:00","ND","24","2,28","1,6","178,1","22,7","77,3","0","0"],
    [4220,"2014-07-25T06:00:00","ND","28","0,75","2,5","146,4","22,2","76,4","0","0"],
    [4221,"2014-07-25T07:00:00","ND","24","2,02","2,4","161,7","21,3","77,4","18,4","0"],
    [4222,"2014-07-25T08:00:00","ND","28","9,64","0,8","157,6","23,4","69,7","119,2","0"],
    [4223,"2014-07-25T09:00:00","ND","25","28,38","3,2","95,8","25,7","63,3","230,2","0"],
    [4224,"2014-07-25T10:00:00","ND","22","50,41","3,1","126,3","27,1","58,1","283,6","0"],
    [4225,"2014-07-25T11:00:00","ND","24","67,19","2,3","91,6","28,8","53,2","404,4","0"],
    [4226,"2014-07-25T12:00:00","ND","31","86,54","2,9","90,6","30","47,8","462,4","0"],
    [4227,"2014-07-25T13:00:00","ND","16","89,46","2,7","68,1","31,7","39,2","435,2","0"],
    [4228,"2014-07-25T14:00:00","ND","15","75,43","3,6","61,5","33,2","32,1","452,4","0"],
    [4229,"2014-07-25T15:00:00","ND","13","68,31","3,1","34,1","34,1","26,7","376,6","0"],
    [4230,"2014-07-25T16:00:00","ND","9","78,42","4,5","322,7","33,8","29,7","241,7","0"],
    [4231,"2014-07-25T17:00:00","ND","19","73,35","8,2","292,2","32,9","34,8","160,6","0"],
    [4232,"2014-07-25T18:00:00","ND","14","48,98","7","300,2","31,3","38,2","51,4","0"],
    [4233,"2014-07-25T19:00:00","ND","17","32,71","6,5","302,6","29,3","44,7","0","0"],
    [4234,"2014-07-25T20:00:00","ND","21","15,78","3,1","45,6","27,8","51,6","0","0"],
    [4235,"2014-07-25T21:00:00","ND","17","11,56","0,3","108","26,5","59,6","0","0"],
    [4236,"2014-07-25T22:00:00","ND","35","12,89","2,6","239,6","26,8","57,8","0","0"],
    [4237,"2014-07-25T23:00:00","ND","14","11,6","0,5","177,7","25,5","63,9","0","0"],
    [4238,"2014-07-26T00:00:00","ND","7","11,32","3,1","95,8","24,5","69,3","0","0"],
    [4239,"2014-07-26T01:00:00","ND","17","9,13","2,4","113,9","23,6","73,1","0","0"],
    [4240,"2014-07-26T02:00:00","ND","10","12,01","1,1","88","23,3","74,4","0","0"],
    [4241,"2014-07-26T03:00:00","ND","11","13,66","2,7","93,6","23,3","74,1","0","0"],
    [4242,"2014-07-26T04:00:00","ND","7","8,48","1,6","122,3","22,5","78,2","0","0"],
    [4243,"2014-07-26T05:00:00","ND","17","5,57","2","170,2","22,9","76,7","0","0"],
    [4244,"2014-07-26T06:00:00","ND","21","3,1","2,9","201,3","22,6","76,2","0","0"],
    [4245,"2014-07-26T07:00:00","ND","33","2,34","1,9","123,1","22,6","76,1","8,9","0"],
    [4246,"2014-07-26T08:00:00","ND","25","7,48","3,6","162,6","23","72,4","68,1","0"],
    [4247,"2014-07-26T09:00:00","ND","18","16,66","2,2","193,6","23,7","68,9","87,7","0"],
    [4248,"2014-07-26T10:00:00","ND","16","26,86","3,3","174,6","25,2","62,8","158,6","0"],
    [4249,"2014-07-26T11:00:00","ND","19","49,77","2,3","132,2","26,5","58,2","276,5","0"],
    [4250,"2014-07-26T12:00:00","ND","18","72,61","1,7","154,9","28,5","52","387,5","0"],
    [4251,"2014-07-26T13:00:00","ND","27","79,36","2,7","163,4","29,6","45,6","361,8","0"],
    [4252,"2014-07-26T14:00:00","ND","18","79,61","4,3","161,8","30,2","43,6","248,7","0"],
    [4253,"2014-07-26T15:00:00","ND","13","86,91","3,3","168,4","30,4","41,2","209,6","0"],
    [4254,"2014-07-26T16:00:00","ND","24","68,6","3,6","81,8","30,4","43","131,4","0"],
    [4255,"2014-07-26T17:00:00","ND","27","70,23","2,9","41,4","30","45","70,4","0"],
    [4256,"2014-07-26T18:00:00","ND","5","60,46","4,9","294,7","29,3","45,3","49,8","0"],
    [4257,"2014-07-26T19:00:00","ND","12","36,38","6,3","292,4","27,7","50,1","0","0"],
    [4258,"2014-07-26T20:00:00","ND","10","25,65","5,1","311","26,9","52,5","0","0"],
    [4259,"2014-07-26T21:00:00","ND","17","9,67","2,9","85,2","25","63,2","0","0"],
    [4260,"2014-07-26T22:00:00","ND","24","7,52","3","76,2","24","68,6","0","0"],
    [4261,"2014-07-26T23:00:00","ND","18","10,36","2,9","75,7","23,5","69,1","0","0"],
    [4262,"2014-07-27T00:00:00","ND","4","17,78","1,7","83,1","23,6","66,9","0","0"],
    [4263,"2014-07-27T01:00:00","ND","10","18,94","2,2","83,6","23,2","67,8","0","0"],
    [4264,"2014-07-27T02:00:00","ND","10","19,45","1,7","135,5","23,4","68,5","0","0"],
    [4265,"2014-07-27T03:00:00","ND","14","14,76","1,8","183,2","23","74,2","0","2,03"],
    [4266,"2014-07-27T04:00:00","ND","ND","7,75","1,3","132,1","22,2","81,7","0","0,76"],
    [4267,"2014-07-27T05:00:00","ND","19","4,83","2,2","93,8","22,1","82,4","0","0"],
    [4268,"2014-07-27T06:00:00","ND","19","5,48","1,9","117,7","22,3","79","0","0"],
    [4269,"2014-07-27T07:00:00","ND","21","4,16","0,6","5,9","22,5","77,5","0","0"],
    [4270,"2014-07-27T08:00:00","ND","25","7,04","2,7","59,8","22,7","77,6","41,4","0"],
    [4271,"2014-07-27T09:00:00","ND","23","22,76","1,9","63,5","23,4","73,4","109,1","0"],
    [4272,"2014-07-27T10:00:00","ND","15","42,23","1,9","77,4","25,1","66,1","308,5","0"],
    [4273,"2014-07-27T11:00:00","ND","4","50,12","3,6","75,9","26,6","56,7","301,5","0"],
    [4274,"2014-07-27T12:00:00","ND","5","60,09","2,2","74,3","27,8","51,6","330,5","0"],
    [4275,"2014-07-27T13:00:00","ND","21","68,33","3,6","101,1","28,6","49,8","272,9","0"],
    [4276,"2014-07-27T14:00:00","ND","13","82,03","3,1","98,7","29,5","46,8","294,5","0"],
    [4277,"2014-07-27T15:00:00","ND","16","84,52","3,3","39,5","30,2","45,6","204,2","0"],
    [4278,"2014-07-27T16:00:00","ND","22","67,72","4,9","64","30,5","45,5","143,5","0"],
    [4279,"2014-07-27T17:00:00","ND","17","50,35","3,7","29,5","30,5","43,3","70","0"],
    [4280,"2014-07-27T18:00:00","ND","13","42,41","3,4","316,8","29,7","44,2","24,7","0"],
    [4281,"2014-07-27T19:00:00","ND","9","34,64","4,6","293","28,4","49","0","0"],
    [4282,"2014-07-27T20:00:00","ND","9","22,47","2,9","315,4","27,6","51,7","0","0"],
    [4283,"2014-07-27T21:00:00","ND","14","8,18","1,7","64,2","26,2","58,5","0","0"],
    [4284,"2014-07-27T22:00:00","ND","20","9,3","2,9","98,3","24,7","66,7","0","0"],
    [4285,"2014-07-27T23:00:00","ND","27","7,18","1,2","19,3","24,4","67,7","0","0"],
    [4286,"2014-07-28T00:00:00","ND","14","6,61","1,5","346,6","24,2","68,2","0","0"],
    [4287,"2014-07-28T01:00:00","ND","13","8,97","1,2","124,6","24,1","68,5","0","0"],
    [4288,"2014-07-28T02:00:00","ND","16","5,1","1,7","156,1","23","74,4","0","0"],
    [4289,"2014-07-28T03:00:00","ND","19","8,4","2,4","181,4","22,7","75,3","0","0"],
    [4290,"2014-07-28T04:00:00","ND","22","5,4","1","176,5","22,2","78,6","0","0"],
    [4291,"2014-07-28T05:00:00","ND","20","1,47","2,7","105,5","21,6","80,9","0","0"],
    [4292,"2014-07-28T06:00:00","ND","17","1,86","1,6","182,5","21,2","82,1","0","0"],
    [4293,"2014-07-28T07:00:00","ND","41","2,39","2","167,3","21,3","81,7","12,8","0"],
    [4294,"2014-07-28T08:00:00","ND","35","4,59","1,5","87,8","21,7","79,8","57,8","0"],
    [4295,"2014-07-28T09:00:00","ND","38","16,95","2,6","76,2","23,3","74,4","165,9","0"],
    [4296,"2014-07-28T10:00:00","ND","31","41,66","2,6","141,5","25,9","62,2","296,7","0"],
    [4297,"2014-07-28T11:00:00","ND","14","65,84","2,7","177,8","27,8","54,5","403,3","0"],
    [4298,"2014-07-28T12:00:00","ND","21","85,74","0,4","146","29,8","47,5","454","0"],
    [4299,"2014-07-28T13:00:00","ND","12","89,84","2,1","88,7","31,3","41,7","465","0"],
    [4300,"2014-07-28T14:00:00","ND","11","82,11","2,8","73,5","33","34","438,8","0"],
    [4301,"2014-07-28T15:00:00","ND","8","78,87","2,5","57,4","34","27,3","377,8","0"],
    [4302,"2014-07-28T16:00:00","ND","18","103,24","5,1","297,4","33,7","31,8","215,3","0"],
    [4303,"2014-07-28T17:00:00","ND","10","80,58","7,7","290,4","32,8","35,3","162,2","0"],
    [4304,"2014-07-28T18:00:00","ND","11","51,18","6,6","298,5","31","39,6","51,8","0"],
    [4305,"2014-07-28T19:00:00","ND","16","22,31","4,8","335,1","29,4","44,3","0","0"],
    [4306,"2014-07-28T20:00:00","ND","24","17,27","1,2","315,6","28,1","49,5","0","0"],
    [4307,"2014-07-28T21:00:00","ND","16","13,36","2,7","108,3","26,2","58,7","0","0"],
    [4308,"2014-07-28T22:00:00","ND","14","25,86","4,4","267,8","27,1","53,3","0","0"],
    [4309,"2014-07-28T23:00:00","ND","20","14,99","1,5","99,5","24,3","68,9","0","0"],
    [4310,"2014-07-29T00:00:00","ND","14","11,79","1,9","121,5","24,3","69,1","0","0"],
    [4311,"2014-07-29T01:00:00","ND","16","15,84","0,9","173,8","24,1","69,7","0","0"],
    [4312,"2014-07-29T02:00:00","ND","11","16,86","1,7","70,6","23,8","71,4","0","0"],
    [4313,"2014-07-29T03:00:00","ND","14","13,62","1,7","246,3","23,2","74,1","0","0"],
    [4314,"2014-07-29T04:00:00","ND","16","10,42","2","163,6","22,9","74,9","0","0"],
    [4315,"2014-07-29T05:00:00","ND","21","3,91","3,1","179,7","22,1","78","0","0"],
    [4316,"2014-07-29T06:00:00","ND","21","5,18","2,7","206,3","22,2","75,8","0","0"],
    [4317,"2014-07-29T07:00:00","ND","29","2,92","1,6","87,7","21,5","79,5","23","0"],
    [4318,"2014-07-29T08:00:00","ND","45","6,3","2,7","97","22,6","75,9","89,4","0"],
    [4319,"2014-07-29T09:00:00","ND","36","25,86","3,5","125,6","25","67,6","170,8","0"],
    [4320,"2014-07-29T10:00:00","ND","20","57,14","0,3","274,6","26,2","60","246,1","0"],
    [4321,"2014-07-29T11:00:00","ND","20","77,44","2,1","104,6","27,9","53,7","418,7","0"],
    [4322,"2014-07-29T12:00:00","ND","13","81,1","2,6","108,7","29,6","47,9","453,8","0"],
    [4323,"2014-07-29T13:00:00","ND","16","102,83","2","160,6","31,1","41","379,3","0"],
    [4324,"2014-07-29T14:00:00","ND","10","94,68","2,1","193,2","32,1","35,4","427,5","0"],
    [4325,"2014-07-29T15:00:00","ND","11","83,54","2,9","133,7","33,3","32,1","381,6","0"],
    [4326,"2014-07-29T16:00:00","ND","13","77,51","3,6","94","33,4","31,7","228,7","0"],
    [4327,"2014-07-29T17:00:00","ND","15","78,26","3,4","27","33","33,8","87,6","0"],
    [4328,"2014-07-29T18:00:00","ND","17","68,76","3","23,5","32,5","37","51,2","0"],
    [4329,"2014-07-29T19:00:00","ND","12","43,7","5,6","295","30","42,9","0","0"],
    [4330,"2014-07-29T20:00:00","ND","12","22,84","3","334,2","28,6","47,5","0","0"],
    [4331,"2014-07-29T21:00:00","ND","32","12,64","2,1","97,4","26,9","55,3","0","0"],
    [4332,"2014-07-29T22:00:00","ND","16","10,17","3,7","73,3","25,6","61,3","0","0"],
    [4333,"2014-07-29T23:00:00","ND","20","12,6","3,2","80,2","24,6","65,8","0","0"],
    [4334,"2014-07-30T00:00:00","ND","15","13,03","1,8","71,8","24,2","67,1","0","0"],
    [4335,"2014-07-30T01:00:00","ND","19","8,99","2","100,7","24","68,5","0","0"],
    [4336,"2014-07-30T02:00:00","ND","11","16,35","1,5","95,4","23,1","72,2","0","0"],
    [4337,"2014-07-30T03:00:00","ND","8","22,31","1,7","128","23,6","70,1","0","0"],
    [4338,"2014-07-30T04:00:00","ND","11","10,64","1,9","187,6","23,4","71,5","0","0"],
    [4339,"2014-07-30T05:00:00","ND","23","3,18","2,9","173,7","22,4","75,1","0","0"],
    [4340,"2014-07-30T06:00:00","ND","14","2,65","1,8","188,7","22,2","69,5","0","0"],
    [4341,"2014-07-30T07:00:00","ND","42","2,73","1,4","144","22,3","68,8","14,2","0"],
    [4342,"2014-07-30T08:00:00","ND","25","9,99","2,8","154,4","22,9","67,6","130,3","0"],
    [4343,"2014-07-30T09:00:00","ND","18","35,81","3,2","159,5","25","60,8","254,7","0"],
    [4344,"2014-07-30T10:00:00","ND","16","56,46","2,5","162,6","26,9","55","368,6","0"],
    [4345,"2014-07-30T11:00:00","ND","11","83,24","1,7","155,7","28,1","50,7","411,7","0"],
    [4346,"2014-07-30T12:00:00","ND","17","86,42","2,7","113,9","30,1","45,1","448","0"],
    [4347,"2014-07-30T13:00:00","ND","12","91,11","1,8","96,6","31,1","39,3","444,6","0"],
    [4348,"2014-07-30T14:00:00","ND","23","89,25","2,7","70,4","32,9","33","435,1","0"],
    [4349,"2014-07-30T15:00:00","ND","21","97,41","2","136,5","33,5","30,2","311,6","0"],
    [4350,"2014-07-30T16:00:00","ND","34","80,42","1,4","175,7","33,5","28,6","116,5","0"],
    [4351,"2014-07-30T17:00:00","ND","17","66,21","4,5","341,4","32,3","38,1","44,6","0"],
    [4352,"2014-07-30T18:00:00","ND","25","50,77","5,5","291","30,4","45,6","15,6","0"],
    [4353,"2014-07-30T19:00:00","ND","21","36,44","4,1","295,1","29,2","48,7","0","0"],
    [4354,"2014-07-30T20:00:00","ND","25","12,01","3,5","98,8","27,2","58,2","0","0"],
    [4355,"2014-07-30T21:00:00","ND","20","8,05","2,7","117,3","26","64,4","0","0"],
    [4356,"2014-07-30T22:00:00","ND","18","8,12","2,7","104,5","25,7","65,2","0","0"],
    [4357,"2014-07-30T23:00:00","ND","9","9,11","2,4","91,9","24,6","70,4","0","0"],
    [4358,"2014-07-31T00:00:00","ND","16","10,62","1,7","87,1","24,1","72,2","0","0"],
    [4359,"2014-07-31T01:00:00","ND","23","6,12","0,4","278,1","24","72,9","0","0"],
    [4360,"2014-07-31T02:00:00","ND","22","4,67","2,2","102,4","23,2","76","0","0"],
    [4361,"2014-07-31T03:00:00","ND","28","3,61","1,6","160,5","22,6","78,3","0","0"],
    [4362,"2014-07-31T04:00:00","ND","26","1,98","1","224,4","22,6","78,3","0","0"],
    [4363,"2014-07-31T05:00:00","ND","27","2,39","1,6","156,1","22,3","79,6","0","0"],
    [4364,"2014-07-31T06:00:00","ND","35","1,67","2,5","183,5","21,6","80,1","0","0"],
    [4365,"2014-07-31T07:00:00","ND","35","2,61","1,5","117,5","20,9","77,9","4,2","0"],
    [4366,"2014-07-31T08:00:00","ND","57","3,18","2,8","98,7","20,5","80,6","25,4","0"],
    [4367,"2014-07-31T09:00:00","ND","53","9,65","0,9","52,7","21,8","74,6","136,1","0"],
    [4368,"2014-07-31T10:00:00","ND","25","37,36","2,4","180,4","25","58,6","324,9","0"],
    [4369,"2014-07-31T11:00:00","ND","18","70,76","1,5","176,2","27,2","48,5","411,7","0"],
    [4370,"2014-07-31T12:00:00","ND","14","92,29","1,3","186,1","29,2","42,7","456,4","0"],
    [4371,"2014-07-31T13:00:00","ND","14","86,34","1,8","157,1","31,3","37,5","464,8","0"],
    [4372,"2014-07-31T14:00:00","ND","18","84,42","2,3","65,7","32,8","33,5","425","0"],
    [4373,"2014-07-31T15:00:00","ND","10","73,86","3,8","64,7","33,7","30","292,2","0"],
    [4374,"2014-07-31T16:00:00","ND","12","73,77","3,4","25,6","33,8","29,7","167,9","0"],
    [4375,"2014-07-31T17:00:00","ND","17","60,66","8,4","296,5","30,9","42,1","52,6","0"],
    [4376,"2014-07-31T18:00:00","ND","12","37,56","7","304","29,3","46,5","22","0"],
    [4377,"2014-07-31T19:00:00","ND","ND","11,81","2,5","40","28,5","49,3","0","0"],
    [4378,"2014-07-31T20:00:00","ND","ND","10,11","3,4","95,8","26,5","60,6","0","0"],
    [4379,"2014-07-31T21:00:00","ND","17","13,17","2,8","55,8","26","60,9","0","0"],
    [4380,"2014-07-31T22:00:00","ND","28","9,07","2,1","69,6","25,6","62","0","0"],
    [4381,"2014-07-31T23:00:00","ND","22","7,67","1,2","161,1","25,1","64,8","0","0"],
    [4382,"2014-08-01T00:00:00","ND","18","4,3","1","173,1","25,2","64,6","0","0"],
    [4383,"2014-08-01T01:00:00","ND","27","3,02","2,2","148,2","23,5","72,7","0","0"],
    [4384,"2014-08-01T02:00:00","ND","34","2,9","2","172,8","23,1","73,8","0","0"],
    [4385,"2014-08-01T03:00:00","ND","32","2,43","1,9","172","22,5","74,6","0","0"],
    [4386,"2014-08-01T04:00:00","ND","29","1,96","1,9","109,4","21,6","77,6","0","0"],
    [4387,"2014-08-01T05:00:00","ND","55","4","0,6","100,5","21,2","78","0","0"],
    [4388,"2014-08-01T06:00:00","ND","64","4,53","1,5","48","21,3","77,2","0","0"],
    [4389,"2014-08-01T07:00:00","ND","46","3,22","1,7","135","20,9","77,4","27,2","0"],
    [4390,"2014-08-01T08:00:00","ND","57","8,56","2,1","158,7","21,7","73,3","80,4","0"],
    [4391,"2014-08-01T09:00:00","ND","55","16,05","5,2","117","23","72,1","169,3","0"],
    [4392,"2014-08-01T10:00:00","ND","40","43,07","0,8","334,5","25","63,3","228,9","0"],
    [4393,"2014-08-01T11:00:00","ND","39","61,66","2,2","65,8","26,7","55,5","279,2","0"],
    [4394,"2014-08-01T12:00:00","ND","30","69,13","3,2","61,1","28,3","49,1","278,6","0"],
    [4395,"2014-08-01T13:00:00","ND","27","84,15","2","12,2","29,3","46,8","278,9","0"],
    [4396,"2014-08-01T14:00:00","ND","21","94,92","2,7","68,7","30,3","42,4","300,1","0"],
    [4397,"2014-08-01T15:00:00","ND","19","84,54","3,9","87,8","30,5","41,1","195,3","0"],
    [4398,"2014-08-01T16:00:00","ND","17","67,88","4","100,5","30,8","37,5","210,7","0"],
    [4399,"2014-08-01T17:00:00","ND","17","58,99","3,8","53,6","30,9","38,3","97,3","0"],
    [4400,"2014-08-01T18:00:00","ND","16","35,81","4,8","322,9","29,6","45,6","29,6","0"],
    [4401,"2014-08-01T19:00:00","ND","8","21,7","5,1","290,6","28,3","49,9","0","0"],
    [4402,"2014-08-01T20:00:00","ND","8","20,45","3,1","306,3","27,1","55,3","0","0"],
    [4403,"2014-08-01T21:00:00","ND","33","4,95","3,7","76,1","25,2","65","0","0"],
    [4404,"2014-08-01T22:00:00","ND","11","4,18","2,9","88,1","24,4","68,4","0","0"],
    [4405,"2014-08-01T23:00:00","ND","13","6,34","1,2","199,9","24,5","66,5","0","0"],
    [4406,"2014-08-02T00:00:00","ND","22","2,71","4,1","222,9","24,1","70,2","0","0"],
    [4407,"2014-08-02T01:00:00","ND","22","4,43","4,3","187,6","23,5","72,5","0","0"],
    [4408,"2014-08-02T02:00:00","ND","15","4,65","1,2","201,3","23,1","73,8","0","0"],
    [4409,"2014-08-02T03:00:00","ND","48","4,75","1,3","122","22,7","75,9","0","0"],
    [4410,"2014-08-02T04:00:00","ND","30","2,18","2,2","116,7","22,1","78","0","0"],
    [4411,"2014-08-02T05:00:00","ND","33","2,34","0,9","120","21,8","79","0","0"],
    [4412,"2014-08-02T06:00:00","ND","44","2,04","3,1","133,3","21,1","81,5","0","0"],
    [4413,"2014-08-02T07:00:00","ND","36","2,24","1,7","184,5","20,6","82,5","12,2","0"],
    [4414,"2014-08-02T08:00:00","ND","46","4,81","1,8","81,6","22,2","75","56,8","0"],
    [4415,"2014-08-02T09:00:00","ND","46","11,73","2,3","42,1","23,5","71,3","101,5","0"],
    [4416,"2014-08-02T10:00:00","ND","42","29,4","1,6","105,6","24,7","67","218,1","0"],
    [4417,"2014-08-02T11:00:00","ND","33","76,14","1,8","122,1","26,5","58,6","321,6","0"],
    [4418,"2014-08-02T12:00:00","ND","29","84,64","3,1","92,4","27,5","54,8","202,6","0"],
    [4419,"2014-08-02T13:00:00","ND","23","87,35","3,5","103,6","28,2","52,2","349,3","0"],
    [4420,"2014-08-02T14:00:00","ND","21","82,13","3,1","95,2","29,1","48,5","281,9","0"],
    [4421,"2014-08-02T15:00:00","ND","29","72,8","3,9","102,1","29,5","45,8","143,2","0"],
    [4422,"2014-08-02T16:00:00","ND","23","61,48","3,4","109,8","29,4","45,6","78,2","0"],
    [4423,"2014-08-02T17:00:00","ND","20","56,59","2,5","95,4","29,3","45,2","34,4","0"],
    [4424,"2014-08-02T18:00:00","ND","38","33,73","3,1","81","29,1","47,1","15,6","0"],
    [4425,"2014-08-02T19:00:00","ND","21","23,47","1,3","59,4","28,1","53,2","0","0"],
    [4426,"2014-08-02T20:00:00","ND","45","6,18","2,1","81,9","27","60,7","0","0"],
    [4427,"2014-08-02T21:00:00","ND","31","5,49","1","312,6","26,1","59","0","0"],
    [4428,"2014-08-02T22:00:00","ND","26","9,26","0,5","57,5","25,4","60,4","0","0"],
    [4429,"2014-08-02T23:00:00","ND","20","3,77","3,3","101,5","23,2","73,7","0","0"],
    [4430,"2014-08-03T00:00:00","ND","15","3,81","2,7","70,3","22,7","74,4","0","0"],
    [4431,"2014-08-03T01:00:00","ND","16","2,16","1,3","139,4","22,6","73,6","0","0"],
    [4432,"2014-08-03T02:00:00","ND","21","4,1","2","172,2","22,3","68,9","0","0"],
    [4433,"2014-08-03T03:00:00","ND","20","3,04","1,9","153,7","21,9","67,2","0","0"],
    [4434,"2014-08-03T04:00:00","ND","22","3,06","2,2","193,1","21,1","70,2","0","0"],
    [4435,"2014-08-03T05:00:00","ND","25","2,92","0,3","124,9","21","71,8","0","0"],
    [4436,"2014-08-03T06:00:00","ND","32","1,9","2,2","119,9","19,6","76,3","0","0"],
    [4437,"2014-08-03T07:00:00","ND","21","4,1","2,2","174,8","19,6","72,6","10,6","0"],
    [4438,"2014-08-03T08:00:00","ND","28","6,91","2,2","161","20,5","68,5","65,8","0"],
    [4439,"2014-08-03T09:00:00","ND","21","12,05","2,2","124,4","21,6","67","105,4","0"],
    [4440,"2014-08-03T10:00:00","ND","25","37,3","1,8","196,8","24,2","58,8","260,5","0"],
    [4441,"2014-08-03T11:00:00","ND","24","62,13","2","204,2","26","54,3","297,5","0"],
    [4442,"2014-08-03T12:00:00","ND","6","74,24","1,6","51,9","27,7","49,4","475,9","0"],
    [4443,"2014-08-03T13:00:00","ND","12","79,71","1,3","186,3","29,5","38,3","425,7","0"],
    [4444,"2014-08-03T14:00:00","ND","25","77,55","1,2","146,2","30,9","33,9","337,2","0"],
    [4445,"2014-08-03T15:00:00","ND","13","70,82","2,8","101,5","31,6","32,7","309","0"],
    [4446,"2014-08-03T16:00:00","ND","19","66,84","5,1","50,6","31,2","35,6","92,9","0"],
    [4447,"2014-08-03T17:00:00","ND","34","65,35","4,3","39,7","30,7","39,4","121,3","0"],
    [4448,"2014-08-03T18:00:00","ND","16","59,79","3,7","347,5","30,1","41,1","56,4","0"],
    [4449,"2014-08-03T19:00:00","ND","7","40,17","5,1","297","28,2","45","0","0"],
    [4450,"2014-08-03T20:00:00","ND","32","16,5","2,2","20,5","26,8","50,9","0","0"],
    [4451,"2014-08-03T21:00:00","ND","19","9,83","3,8","105,7","24,7","60,9","0","0"],
    [4452,"2014-08-03T22:00:00","ND","21","9,69","3,3","84,4","23,7","67","0","0"],
    [4453,"2014-08-03T23:00:00","ND","15","15,48","1,3","134,7","24","64,7","0","0"],
    [4454,"2014-08-04T00:00:00","ND","21","12,09","2,4","158","23,4","67,3","0","0"],
    [4455,"2014-08-04T01:00:00","ND","22","12,56","3,9","211","22,8","70,9","0","0"],
    [4456,"2014-08-04T02:00:00","ND","26","12,34","2,4","198,8","22,4","72,6","0","0"],
    [4457,"2014-08-04T03:00:00","ND","24","6,5","1,2","132,9","22,1","73,8","0","0"],
    [4458,"2014-08-04T04:00:00","ND","25","4,57","1,5","139,6","22","73,9","0","0"],
    [4459,"2014-08-04T05:00:00","ND","29","2,63","2,4","96,1","21","78,7","0","0"],
    [4460,"2014-08-04T06:00:00","ND","42","3,18","1,1","121","21,1","77,7","0","0"],
    [4461,"2014-08-04T07:00:00","ND","31","3,79","2,4","165,3","21,1","77,1","13,5","0"],
    [4462,"2014-08-04T08:00:00","ND","36","7,89","1,6","166,6","21,9","74,4","91,7","0"],
    [4463,"2014-08-04T09:00:00","ND","32","29,75","2,8","169,4","24,3","65,2","220,1","0"],
    [4464,"2014-08-04T10:00:00","ND","28","52,24","3","181,8","26","57,8","321,7","0"],
    [4465,"2014-08-04T11:00:00","ND","21","67,21","2,2","133,6","27,8","51,5","403,1","0"],
    [4466,"2014-08-04T12:00:00","ND","19","94,74","2","142,8","29,2","44,7","451,8","0"],
    [4467,"2014-08-04T13:00:00","ND","24","110,09","2,7","95,5","30,5","40,2","398,3","0"],
    [4468,"2014-08-04T14:00:00","ND","27","116","3,9","79,7","31,5","38,1","445,5","0"],
    [4469,"2014-08-04T15:00:00","ND","26","131,16","4,3","51,8","32","37,9","352,5","0"],
    [4470,"2014-08-04T16:00:00","ND","ND","ND","2,5","88,5","31,9","38,2","185,8","0"],
    [4471,"2014-08-04T17:00:00","ND","ND","62,19","7,9","293,2","31,1","39,2","123,9","0"],
    [4472,"2014-08-04T18:00:00","ND","14","56,71","6,1","299,6","30,3","41,5","54,4","0"],
    [4473,"2014-08-04T19:00:00","ND","16","39,15","5,7","299,6","28,7","46,4","0","0"],
    [4474,"2014-08-04T20:00:00","ND","23","18,43","1,7","77,1","27,2","53,1","0","0"],
    [4475,"2014-08-04T21:00:00","ND","27","8,16","3,1","82,3","25,4","62","0","0"],
    [4476,"2014-08-04T22:00:00","ND","17","9,48","3,2","90,4","24,4","65,5","0","0"],
    [4477,"2014-08-04T23:00:00","ND","9","8,93","2,6","76,1","23,9","68,2","0","0"],
    [4478,"2014-08-05T00:00:00","ND","6","12,56","3","95,9","23,3","71,5","0","0"],
    [4479,"2014-08-05T01:00:00","ND","4","17,74","2,4","89,5","23,1","72,7","0","0"],
    [4480,"2014-08-05T02:00:00","ND","18","14,38","1,6","119,4","23,3","71,8","0","0"],
    [4481,"2014-08-05T03:00:00","ND","2","17,8","1,5","105,2","22,8","73,7","0","0"],
    [4482,"2014-08-05T04:00:00","ND","15","10,03","2,3","135,1","22,8","74,2","0","0"],
    [4483,"2014-08-05T05:00:00","ND","9","8,89","0,9","169,4","22,4","75,8","0","0"],
    [4484,"2014-08-05T06:00:00","ND","24","3","1,4","109,2","22,4","76,3","0","0"],
    [4485,"2014-08-05T07:00:00","ND","31","2,69","0,6","78,9","22,5","75,8","8,8","0"],
    [4486,"2014-08-05T08:00:00","ND","30","5,63","3,4","144,9","22,7","75,8","77,7","0"],
    [4487,"2014-08-05T09:00:00","ND","19","20,6","3,7","184","24,2","66,5","181,1","0"],
    [4488,"2014-08-05T10:00:00","ND","22","37,13","4,5","198,7","25,6","61,9","286,7","0"],
    [4489,"2014-08-05T11:00:00","ND","25","46,92","4","178,3","26,5","58,8","146,7","0"],
    [4490,"2014-08-05T12:00:00","ND","18","53,71","2,8","139,7","27,3","55,9","266,9","0"],
    [4491,"2014-08-05T13:00:00","ND","17","71,57","2,8","178,5","27,9","52,6","181,5","0"],
    [4492,"2014-08-05T14:00:00","ND","22","61,64","3,3","107,7","28","52,5","135,9","0"],
    [4493,"2014-08-05T15:00:00","ND","23","62,66","3,7","91,5","27,9","53,6","112","0"],
    [4494,"2014-08-05T16:00:00","ND","27","62,87","2,2","41,8","28,2","52,5","103","0"],
    [4495,"2014-08-05T17:00:00","ND","23","87,33","2,8","9,5","28,4","52,2","114,6","0"],
    [4496,"2014-08-05T18:00:00","ND","29","54,59","3,1","36,7","28,1","54,4","21,7","0"],
    [4497,"2014-08-05T19:00:00","ND","37","16,13","2,1","42,9","27,3","59,7","0","0"],
    [4498,"2014-08-05T20:00:00","ND","28","13,25","1,9","312","26,9","56","0","0"],
    [4499,"2014-08-05T21:00:00","ND","36","6,79","2,4","79,8","25,4","63,5","0","0"],
    [4500,"2014-08-05T22:00:00","ND","26","5,83","2,9","90,5","24,5","67,5","0","0"],
    [4501,"2014-08-05T23:00:00","ND","12","8,93","3,3","83,8","23,9","69,3","0","0"],
    [4502,"2014-08-06T00:00:00","ND","8","13,11","2,6","81,8","23,5","69,8","0","0"],
    [4503,"2014-08-06T01:00:00","ND","12","12,3","0,8","169,6","23,4","70,2","0","0"],
    [4504,"2014-08-06T02:00:00","ND","12","13,4","1,7","193,3","22,9","73,2","0","0"],
    [4505,"2014-08-06T03:00:00","ND","25","10,38","1,8","185,8","23,3","74,3","0","0"],
    [4506,"2014-08-06T04:00:00","ND","31","5,26","2,5","98,7","22,4","78,2","0","0"],
    [4507,"2014-08-06T05:00:00","ND","21","4,26","1,7","144,3","22,3","77,5","0","0"],
    [4508,"2014-08-06T06:00:00","ND","23","4,06","1,6","213,3","22,4","77","0","0"],
    [4509,"2014-08-06T07:00:00","ND","33","2,69","2,9","119,9","22,5","76,8","8,8","0"],
    [4510,"2014-08-06T08:00:00","ND","23","7,01","2,4","171","22,3","78,8","29,2","0,25"],
    [4511,"2014-08-06T09:00:00","ND","23","20,29","3,8","196,8","22,9","78","192,8","0"],
    [4512,"2014-08-06T10:00:00","ND","29","49,92","3,6","193,6","25,3","65,6","331,8","0"],
    [4513,"2014-08-06T11:00:00","ND","32","77,53","3,1","188,6","26,9","58,8","349,4","0"],
    [4514,"2014-08-06T12:00:00","ND","37","94,92","3,4","96,7","28,5","52,3","423,2","0"],
    [4515,"2014-08-06T13:00:00","ND","35","98,47","2,9","160,8","29,5","45,9","267,4","0"],
    [4516,"2014-08-06T14:00:00","ND","36","86,5","5,7","54,3","29,7","48,8","334,9","0"],
    [4517,"2014-08-06T15:00:00","ND","29","110,19","4","10,2","29,7","48,3","227,5","0"],
    [4518,"2014-08-06T16:00:00","ND","24","107,15","1,7","237,6","29,7","47,7","202,2","0"],
    [4519,"2014-08-06T17:00:00","ND","10","56,12","5,9","284,2","29,5","43,3","72,5","0"],
    [4520,"2014-08-06T18:00:00","ND","ND","43,31","5,5","283,6","28,9","44,3","36,2","0"],
    [4521,"2014-08-06T19:00:00","ND","ND","19,76","2,7","323,9","28,2","47,5","0","0"],
    [4522,"2014-08-06T20:00:00","ND","12","17,45","4,6","301,1","27","52","0","0"],
    [4523,"2014-08-06T21:00:00","ND","45","8,85","2,6","65,5","25,4","60,3","0","0"],
    [4524,"2014-08-06T22:00:00","ND","14","4,91","3","76,8","23,9","68,3","0","0"],
    [4525,"2014-08-06T23:00:00","ND","9","8,61","1,8","82,7","23,4","69,5","0","0"],
    [4526,"2014-08-07T00:00:00","ND","7","11,83","2,7","96,6","23,3","69,4","0","0"],
    [4527,"2014-08-07T01:00:00","ND","7","9,71","1,1","152,1","23,1","70,7","0","0"],
    [4528,"2014-08-07T02:00:00","ND","11","9,71","1,6","87,6","22,4","77,1","0","22,1"],
    [4529,"2014-08-07T03:00:00","ND","14","13,8","2","210,3","21,5","86,4","0","26,92"],
    [4530,"2014-08-07T04:00:00","ND","12","16,56","1,9","215,5","21,4","86,3","0","19,3"],
    [4531,"2014-08-07T05:00:00","ND","9","7,46","1","29,7","21,4","86,8","0","0"],
    [4532,"2014-08-07T06:00:00","ND","12","2,32","1,4","165,2","21,3","87,9","0","0"],
    [4533,"2014-08-07T07:00:00","ND","17","1,31","2,2","135,7","21,3","87,1","0","0"],
    [4534,"2014-08-07T08:00:00","ND","26","3,65","1,8","151,5","21,4","83,9","41,4","0"],
    [4535,"2014-08-07T09:00:00","ND","19","18,6","2","172,2","23","76,1","198,5","0"],
    [4536,"2014-08-07T10:00:00","ND","22","42,05","2,2","159,1","25","67,6","351","0"],
    [4537,"2014-08-07T11:00:00","ND","13","55,1","2","109,2","26,2","61,2","420,4","0"],
    [4538,"2014-08-07T12:00:00","ND","16","70,23","1,8","66,3","27,5","56","441,9","0"],
    [4539,"2014-08-07T13:00:00","ND","13","76,14","1,9","64,5","28,9","49,3","464","0"],
    [4540,"2014-08-07T14:00:00","ND","15","92,88","2,8","73,2","30,1","43,4","424","0"],
    [4541,"2014-08-07T15:00:00","ND","14","83,09","3,7","131,8","30,7","40,1","262,6","0"],
    [4542,"2014-08-07T16:00:00","ND","12","76,96","3","94,5","31,2","37","201,6","0"],
    [4543,"2014-08-07T17:00:00","ND","9","75,18","6,5","285,9","30,7","42,8","179,2","0"],
    [4544,"2014-08-07T18:00:00","ND","8","47,57","5","274,6","26,9","59,9","17,8","24,13"],
    [4545,"2014-08-07T19:00:00","ND","8","34,68","5,3","323,5","23,8","74,3","0","4,32"],
    [4546,"2014-08-07T20:00:00","ND","27","12,66","1,5","45,1","23,9","75,8","0","0"],
    [4547,"2014-08-07T21:00:00","ND","15","9,65","3,5","116,1","23,2","77,1","0","0"],
    [4548,"2014-08-07T22:00:00","ND","18","5,1","1,6","93","23,1","76,4","0","0"],
    [4549,"2014-08-07T23:00:00","ND","19","4,85","0,7","164,1","22,9","75,9","0","0"],
    [4550,"2014-08-08T00:00:00","ND","16","4,71","2,9","213,1","22,1","79,5","0","0"],
    [4551,"2014-08-08T01:00:00","ND","15","4,75","2,1","130,7","21,9","80,5","0","0"],
    [4552,"2014-08-08T02:00:00","ND","19","4,77","2,6","135,2","21,6","81,5","0","0"],
    [4553,"2014-08-08T03:00:00","ND","12","6,14","2,1","170,8","21,6","79,8","0","0"],
    [4554,"2014-08-08T04:00:00","ND","12","6,06","2","159,8","21,3","78,8","0","0"],
    [4555,"2014-08-08T05:00:00","ND","19","3,73","2,5","165,6","21,4","78,3","0","0"],
    [4556,"2014-08-08T06:00:00","ND","22","2,51","0,7","180,3","21,6","77,7","0","0"],
    [4557,"2014-08-08T07:00:00","ND","38","2,57","1,8","140,4","21,1","81","16,7","0"],
    [4558,"2014-08-08T08:00:00","ND","27","6,34","0,4","153,8","22,1","77,4","69,5","0"],
    [4559,"2014-08-08T09:00:00","ND","27","12,74","2,2","138,4","23,1","74,6","135,3","0"],
    [4560,"2014-08-08T10:00:00","ND","23","35,26","2,5","158,9","24,6","66,4","283,9","0"],
    [4561,"2014-08-08T11:00:00","ND","21","59,17","1,9","143,9","25,9","60,4","388,3","0"],
    [4562,"2014-08-08T12:00:00","ND","20","72,29","2,3","121,2","27,4","53,6","378,6","0"],
    [4563,"2014-08-08T13:00:00","ND","24","67,7","3,9","108,5","28,6","46,9","257,3","0"],
    [4564,"2014-08-08T14:00:00","ND","21","81,42","2,5","77","29,4","45,9","390,4","0"],
    [4565,"2014-08-08T15:00:00","ND","28","95,08","4,8","48,9","30,2","43,4","374,3","0"],
    [4566,"2014-08-08T16:00:00","ND","19","87,01","5","57,1","30,6","44,1","176,3","0"],
    [4567,"2014-08-08T17:00:00","ND","17","49,63","2,7","1,1","30,2","45,6","89,3","0"],
    [4568,"2014-08-08T18:00:00","ND","14","40,46","3,6","341,2","29,9","44,8","52,6","0"],
    [4569,"2014-08-08T19:00:00","ND","11","29,26","5","296,7","28,5","48,8","0","0"],
    [4570,"2014-08-08T20:00:00","ND","8","32,81","4,9","292,1","27,7","51,1","0","0"],
    [4571,"2014-08-08T21:00:00","ND","22","13,07","2,7","85,2","26,4","59,2","0","0"],
    [4572,"2014-08-08T22:00:00","ND","12","7,57","2,9","77,4","25,3","66,4","0","0"],
    [4573,"2014-08-08T23:00:00","ND","29","7,59","1,4","56,9","25,1","66,8","0","0"],
    [4574,"2014-08-09T00:00:00","ND","11","7,71","2,4","79,3","24,3","70,6","0","0"],
    [4575,"2014-08-09T01:00:00","ND","7","10,17","2,4","89,2","23,8","72,2","0","0"],
    [4576,"2014-08-09T02:00:00","ND","8","6,61","0,5","160,8","23,6","73,7","0","0"],
    [4577,"2014-08-09T03:00:00","ND","11","5,48","1,8","112,3","23,5","75,7","0","4,06"],
    [4578,"2014-08-09T04:00:00","ND","14","15,33","2,4","303,7","22,8","80,6","0","0,76"],
    [4579,"2014-08-09T05:00:00","ND","23","3,47","1,3","121,8","22,8","82,8","0","0,76"],
    [4580,"2014-08-09T06:00:00","ND","25","1,73","1,4","45,5","22,1","86,1","0","4,06"],
    [4581,"2014-08-09T07:00:00","ND","22","2,77","1","314","22,3","83,9","8,7","0"],
    [4582,"2014-08-09T08:00:00","ND","27","6,93","0,4","174,1","22,9","81,9","49,2","0"],
    [4583,"2014-08-09T09:00:00","ND","39","13,93","1,6","75,7","23,7","79,8","144,9","0"],
    [4584,"2014-08-09T10:00:00","ND","22","26,14","3","87,3","24,9","70,7","189","0"],
    [4585,"2014-08-09T11:00:00","ND","19","41,17","2,7","71,4","26","63,1","222,8","0"],
    [4586,"2014-08-09T12:00:00","ND","11","47,57","3,9","86,4","27,1","56,5","226,4","0"],
    [4587,"2014-08-09T13:00:00","ND","16","61,58","3,2","97,4","28","52,1","261,3","0"],
    [4588,"2014-08-09T14:00:00","ND","11","85,25","3,2","64,5","28,9","49,7","422,4","0"],
    [4589,"2014-08-09T15:00:00","ND","ND","120,61","2,1","68,6","30,1","45,5","356,9","0"],
    [4590,"2014-08-09T16:00:00","ND","20","106,11","4","105,3","30,7","41,6","238,6","0"],
    [4591,"2014-08-09T17:00:00","ND","22","120,18","1,7","90,6","30,8","40,8","146,9","0"],
    [4592,"2014-08-09T18:00:00","ND","10","70,72","3","261,6","30","43,1","31,3","0"],
    [4593,"2014-08-09T19:00:00","ND","9","26,1","5","301,1","27,9","50,6","0","0"],
    [4594,"2014-08-09T20:00:00","ND","10","20,53","4,6","301,2","26,9","54","0","0"],
    [4595,"2014-08-09T21:00:00","ND","17","7,75","2,5","83,1","25,1","64","0","0"],
    [4596,"2014-08-09T22:00:00","ND","18","7,42","3,5","87","24,4","67,9","0","0"],
    [4597,"2014-08-09T23:00:00","ND","6","6,44","1,7","87,6","24,2","69,4","0","0"],
    [4598,"2014-08-10T00:00:00","ND","26","5,36","1,9","166,7","24,1","69,7","0","0"],
    [4599,"2014-08-10T01:00:00","ND","11","3,96","1,4","135,3","23,6","72,5","0","0"],
    [4600,"2014-08-10T02:00:00","ND","8","6,99","2,2","126,3","23,6","72,8","0","0"],
    [4601,"2014-08-10T03:00:00","ND","5","7,38","1,8","85,4","23,2","74,2","0","0"],
    [4602,"2014-08-10T04:00:00","ND","6","4,42","1,9","160,5","22,9","75,8","0","0"],
    [4603,"2014-08-10T05:00:00","ND","8","2,98","1,7","152,1","22,7","76,7","0","0"],
    [4604,"2014-08-10T06:00:00","ND","16","2,2","2,1","106,4","22,2","77,6","0","0"],
    [4605,"2014-08-10T07:00:00","ND","11","7,24","2,1","165,4","22","77,1","11,9","0"],
    [4606,"2014-08-10T08:00:00","ND","16","14,64","2,3","193","22,5","75,1","49,3","0"],
    [4607,"2014-08-10T09:00:00","ND","12","31,12","3,6","192,2","24,2","68,2","232,1","0"],
    [4608,"2014-08-10T10:00:00","ND","13","41,64","3,4","172","25,7","63,6","335,7","0"],
    [4609,"2014-08-10T11:00:00","ND","9","60,26","2,2","87,3","27","57,3","406","0"],
    [4610,"2014-08-10T12:00:00","ND","11","72,88","3,5","68,1","28,2","53,4","468,1","0"],
    [4611,"2014-08-10T13:00:00","ND","15","84,07","4,3","58,5","28,8","50,9","356,3","0"],
    [4612,"2014-08-10T14:00:00","ND","22","82,24","3","56,9","29,9","46,8","417,1","0"],
    [4613,"2014-08-10T15:00:00","ND","13","82,13","3,6","37,5","30,6","43,8","320,1","0"],
    [4614,"2014-08-10T16:00:00","ND","15","67,45","3,6","44,5","30,5","43,8","124","0"],
    [4615,"2014-08-10T17:00:00","ND","11","60,66","4,9","301","30,3","42,7","143,2","0"],
    [4616,"2014-08-10T18:00:00","ND","8","45,78","6,7","298,4","29,4","43,6","62,4","0"],
    [4617,"2014-08-10T19:00:00","ND","6","36,17","6,6","309,8","28","47,7","0","0"],
    [4618,"2014-08-10T20:00:00","ND","8","23,21","4,6","327,3","27,5","50,4","0","0"],
    [4619,"2014-08-10T21:00:00","ND","16","13,78","2,7","80,7","26,2","58,6","0","0"],
    [4620,"2014-08-10T22:00:00","ND","5","18,98","3,3","184,7","24,6","67,5","0","0"],
    [4621,"2014-08-10T23:00:00","ND","7","24,8","3,2","190,1","24,1","68,8","0","0"],
    [4622,"2014-08-11T00:00:00","ND","8","25,79","3,7","191,1","22,5","78,3","0","0"],
    [4623,"2014-08-11T01:00:00","ND","8","26,32","2,9","210,3","22,2","80,6","0","0"],
    [4624,"2014-08-11T02:00:00","ND","6","22,88","1,2","171,5","22,5","79,3","0","0"],
    [4625,"2014-08-11T03:00:00","ND","13","19,74","3,1","148,2","22,3","80,2","0","0"],
    [4626,"2014-08-11T04:00:00","ND","8","17,11","1,7","133,8","21,8","81,8","0","0"],
    [4627,"2014-08-11T05:00:00","ND","9","12,01","1,6","125,9","22,1","81","0","0"],
    [4628,"2014-08-11T06:00:00","ND","21","4,12","0,9","177,6","21,8","82,4","0","0"],
    [4629,"2014-08-11T07:00:00","ND","14","2,2","2,2","176,5","22","82,7","4,2","0"],
    [4630,"2014-08-11T08:00:00","ND","12","8,28","3,6","185,2","22,6","79,6","31,4","0"],
    [4631,"2014-08-11T09:00:00","ND","11","19,58","2,8","174,9","23,3","76","109,3","0"],
    [4632,"2014-08-11T10:00:00","ND","10","32,07","3,5","143,3","24,7","69,9","299,3","0"],
    [4633,"2014-08-11T11:00:00","ND","6","53,69","1,9","177,3","26","63,4","305,5","0"],
    [4634,"2014-08-11T12:00:00","ND","7","59,36","2,6","127,2","27,2","57,5","251,3","0"],
    [4635,"2014-08-11T13:00:00","ND","7","78,61","0,9","184,4","28,8","51","480,8","0"],
    [4636,"2014-08-11T14:00:00","ND","19","116,09","3,4","10,5","30,2","46,4","417","0"],
    [4637,"2014-08-11T15:00:00","ND","26","114,31","2,6","34,3","30,5","43,2","255,7","0"],
    [4638,"2014-08-11T16:00:00","ND","16","80,85","2","58,3","30,8","42,6","141","0"],
    [4639,"2014-08-11T17:00:00","ND","7","40,78","7,1","285,9","29,6","45","49,5","0"],
    [4640,"2014-08-11T18:00:00","ND","4","32,73","5,3","304,5","28,5","47,5","38,8","0"],
    [4641,"2014-08-11T19:00:00","ND","6","21,96","5,9","297,4","27,7","49","0","0"],
    [4642,"2014-08-11T20:00:00","ND","17","13,3","1,4","11,1","27,2","52","0","0"],
    [4643,"2014-08-11T21:00:00","ND","16","10,17","1,7","67,1","26","58,7","0","0"],
    [4644,"2014-08-11T22:00:00","ND","7","13,72","2,1","164,5","25,5","62,4","0","0"],
    [4645,"2014-08-11T23:00:00","ND","18","7,5","2,7","117,8","24,5","67,9","0","0"],
    [4646,"2014-08-12T00:00:00","ND","6","15,74","1,1","148,3","24,2","69,6","0","0"],
    [4647,"2014-08-12T01:00:00","ND","7","13,76","1,9","123,2","23,7","72","0","0"],
    [4648,"2014-08-12T02:00:00","ND","22","14,17","2,3","99,4","23,3","74,1","0","0"],
    [4649,"2014-08-12T03:00:00","ND","16","6,02","2,2","141,6","22,6","78,3","0","0"],
    [4650,"2014-08-12T04:00:00","ND","7","2,26","3,4","92,1","22","81,9","0","0"],
    [4651,"2014-08-12T05:00:00","ND","14","2,71","1,2","159,2","21,9","81,5","0","0"],
    [4652,"2014-08-12T06:00:00","ND","17","2,04","1,7","74,2","22","81","0","0"],
    [4653,"2014-08-12T07:00:00","ND","31","2,34","2","55,2","22,1","81","0","0"],
    [4654,"2014-08-12T08:00:00","ND","49","5,61","2,2","51,6","22,8","76,7","42,2","0"],
    [4655,"2014-08-12T09:00:00","ND","15","14,78","3,6","97,6","23,5","72,2","149,1","0"],
    [4656,"2014-08-12T10:00:00","ND","17","29,46","2,9","97","24,6","67,4","257","0"],
    [4657,"2014-08-12T11:00:00","ND","18","51,92","2,6","118,6","26,3","59,7","379,4","0"],
    [4658,"2014-08-12T12:00:00","ND","22","69,64","2,9","138,8","27,6","56","408,7","0"],
    [4659,"2014-08-12T13:00:00","ND","24","91,66","2,3","140,5","28,5","52,3","280,5","0"],
    [4660,"2014-08-12T14:00:00","ND","23","83,7","4","66,1","28,9","51,4","217,6","0"],
    [4661,"2014-08-12T15:00:00","ND","22","78,2","3,5","57,6","28,6","52,2","94,8","0"],
    [4662,"2014-08-12T16:00:00","ND","25","104,28","1,1","52","28,9","51,6","238,9","0"],
    [4663,"2014-08-12T17:00:00","ND","26","104,4","2,3","18","29,6","48","138,9","0"],
    [4664,"2014-08-12T18:00:00","ND","15","52,2","2,3","285,3","29,1","47,8","13,7","0"],
    [4665,"2014-08-12T19:00:00","ND","8","17,5","4,6","288,3","28","50","0","0"],
    [4666,"2014-08-12T20:00:00","ND","15","12,13","1,3","287,4","27,2","53,2","0","0"],
    [4667,"2014-08-12T21:00:00","ND","25","22,33","3,9","146,9","26","63","0","0"],
    [4668,"2014-08-12T22:00:00","ND","34","20,51","3,2","102,7","24,9","68,3","0","0"],
    [4669,"2014-08-12T23:00:00","ND","28","24,8","1,9","106,1","24,6","66,4","0","0"],
    [4670,"2014-08-13T00:00:00","ND","17","27,85","2,9","116","24,2","67,5","0","0"],
    [4671,"2014-08-13T01:00:00","ND","13","28,12","2,6","151","23,8","68,9","0","0"],
    [4672,"2014-08-13T02:00:00","ND","16","26,92","1,4","155,6","23,5","69,3","0","0"],
    [4673,"2014-08-13T03:00:00","ND","10","20,25","1,8","162","22,8","73,6","0","0"],
    [4674,"2014-08-13T04:00:00","ND","11","9,77","2,5","93,3","22,1","76,7","0","0"],
    [4675,"2014-08-13T05:00:00","ND","14","4,63","1,8","72,3","21,3","78,1","0","0"],
    [4676,"2014-08-13T06:00:00","ND","21","4,34","1,2","150,3","21,5","75,1","0","0"],
    [4677,"2014-08-13T07:00:00","ND","27","2,81","0,9","100,9","21,6","74,8","11,4","0"],
    [4678,"2014-08-13T08:00:00","ND","33","3,61","2,9","101,5","21,2","78,4","33,3","0"],
    [4679,"2014-08-13T09:00:00","ND","30","6,83","2,4","145,1","21,9","76,4","91,1","0"],
    [4680,"2014-08-13T10:00:00","ND","15","30,77","0,4","170,6","24,7","66,3","361,8","0"],
    [4681,"2014-08-13T11:00:00","ND","14","51,39","4,7","96,1","26,6","58,3","391,9","0"],
    [4682,"2014-08-13T12:00:00","ND","21","66,35","5","109","27,8","53,2","396,2","0"],
    [4683,"2014-08-13T13:00:00","ND","21","82,85","3,5","115,1","28,9","49,1","484,9","0"],
    [4684,"2014-08-13T14:00:00","ND","15","109,72","2,2","114","29,7","45,4","447,8","0"],
    [4685,"2014-08-13T15:00:00","ND","20","100,75","4,6","98,5","30,6","41,5","325,4","0"],
    [4686,"2014-08-13T16:00:00","ND","18","95,21","5,3","78,3","30,8","41","267,7","0"],
    [4687,"2014-08-13T17:00:00","ND","15","79,61","0,7","97,1","30,8","42,2","118,2","0"],
    [4688,"2014-08-13T18:00:00","ND","9","58,93","5,3","284,8","29,7","43,8","23,7","0"],
    [4689,"2014-08-13T19:00:00","ND","12","38,23","5,2","295,8","28,3","47,5","0","0"],
    [4690,"2014-08-13T20:00:00","ND","10","32,56","3","310,8","27,7","50,3","0","0"],
    [4691,"2014-08-13T21:00:00","ND","14","11,3","4,3","88,6","24,7","71,7","0","0,25"],
    [4692,"2014-08-13T22:00:00","ND","11","12,15","2,6","36,6","24,2","73,4","0","0"],
    [4693,"2014-08-13T23:00:00","ND","11","10,52","3,9","80,1","23,2","77,8","0","0"],
    [4694,"2014-08-14T00:00:00","ND","12","9,67","2","46,3","22,6","80,4","0","0"],
    [4695,"2014-08-14T01:00:00","ND","10","11,07","1","52,9","22,9","78","0","0"],
    [4696,"2014-08-14T02:00:00","ND","12","9,95","1","173,5","22,9","78,4","0","0"],
    [4697,"2014-08-14T03:00:00","ND","11","7,97","1,1","273,4","22,7","79,3","0","0"],
    [4698,"2014-08-14T04:00:00","ND","13","8,65","1,6","165","22,9","78","0","0"],
    [4699,"2014-08-14T05:00:00","ND","20","2,57","2,5","108,2","21,8","84,2","0","0"],
    [4700,"2014-08-14T06:00:00","ND","21","2,39","1,4","192,4","21,9","82,3","0","0"],
    [4701,"2014-08-14T07:00:00","ND","41","3,55","0,9","44,9","21,9","83,1","11,9","0"],
    [4702,"2014-08-14T08:00:00","ND","36","4,85","2,4","98,5","21,9","84,5","102","0"],
    [4703,"2014-08-14T09:00:00","ND","34","22,43","2,3","92,4","23,7","75,1","244,3","0"],
    [4704,"2014-08-14T10:00:00","ND","29","51,89","1,8","143,2","25,4","66,6","299,4","0"],
    [4705,"2014-08-14T11:00:00","ND","18","75,37","2,8","82","27","58,2","389,4","0"],
    [4706,"2014-08-14T12:00:00","ND","22","94,66","2,3","115,5","28,5","51,5","442,8","0"],
    [4707,"2014-08-14T13:00:00","ND","23","108,32","2,5","25,6","29,4","46,2","331,8","0"],
    [4708,"2014-08-14T14:00:00","ND","30","106,67","2,8","67,6","30,6","42,3","386,6","0"],
    [4709,"2014-08-14T15:00:00","ND","22","91","3,1","120,5","31,4","36,8","235,2","0"],
    [4710,"2014-08-14T16:00:00","ND","11","89,5","3","125,1","32,5","31,7","291,1","0"],
    [4711,"2014-08-14T17:00:00","ND","14","73,49","3,1","99","33,3","27,6","175,6","0"],
    [4712,"2014-08-14T18:00:00","ND","22","47,82","3,8","66,6","32,8","31,9","51,1","0"],
    [4713,"2014-08-14T19:00:00","ND","34","25,06","2","353,4","30,5","41,6","0","0"],
    [4714,"2014-08-14T20:00:00","ND","36","19,74","1,8","339,8","28,8","47,6","0","0"],
    [4715,"2014-08-14T21:00:00","ND","32","15,74","2,3","106,4","26,4","59,4","0","0"],
    [4716,"2014-08-14T22:00:00","ND","25","22,51","2,8","268,3","27,1","55,6","0","0"],
    [4717,"2014-08-14T23:00:00","ND","36","9,34","2,1","182","25,6","61,7","0","0"],
    [4718,"2014-08-15T00:00:00","ND","10","11,73","2","80,1","23,7","72,2","0","0"],
    [4719,"2014-08-15T01:00:00","ND","15","14,23","2,3","98","23,3","73,8","0","0"],
    [4720,"2014-08-15T02:00:00","ND","15","14,36","1,1","359,5","23,2","72,7","0","0"],
    [4721,"2014-08-15T03:00:00","ND","20","6,81","0,8","157,8","23","74","0","0"],
    [4722,"2014-08-15T04:00:00","ND","25","4,93","1,2","152,5","22,1","75,9","0","0"],
    [4723,"2014-08-15T05:00:00","ND","45","4,81","1,8","160,6","22,2","74,6","0","0"],
    [4724,"2014-08-15T06:00:00","ND","34","3,02","2,1","137,1","21,1","76,4","0","0"],
    [4725,"2014-08-15T07:00:00","ND","26","4,18","2,4","187","20,9","74","22,4","0"],
    [4726,"2014-08-15T08:00:00","ND","31","12,76","2,4","181,7","22,3","66,8","121,1","0"],
    [4727,"2014-08-15T09:00:00","ND","21","28,65","3","172,6","24,3","59","239,2","0"],
    [4728,"2014-08-15T10:00:00","ND","17","50,83","2,9","86,9","26,5","52,3","344,5","0"],
    [4729,"2014-08-15T11:00:00","ND","18","80,93","1,8","132,8","28","50,4","424,4","0"],
    [4730,"2014-08-15T12:00:00","ND","12","102,83","1,6","141","29,8","44,6","467,4","0"],
    [4731,"2014-08-15T13:00:00","ND","11","105,36","1,8","145,9","31,4","37,8","476","0"],
    [4732,"2014-08-15T14:00:00","ND","16","88,64","2","141,1","32,8","32,7","438,2","0"],
    [4733,"2014-08-15T15:00:00","ND","8","78,14","1,9","135,9","33,8","29,2","392,8","0"],
    [4734,"2014-08-15T16:00:00","ND","15","72,1","1","342,8","34,3","28,9","253,9","0"],
    [4735,"2014-08-15T17:00:00","ND","11","79,48","7","287,8","33,1","35,2","146,2","0"],
    [4736,"2014-08-15T18:00:00","ND","12","46,19","7,3","296","30,8","40,8","18,1","0"],
    [4737,"2014-08-15T19:00:00","ND","ND","19,25","3,9","329,8","29,2","46,6","0","0"],
    [4738,"2014-08-15T20:00:00","ND","ND","17,45","0,8","351,8","27,8","53,2","0","0"],
    [4739,"2014-08-15T21:00:00","ND","15","11,68","2,6","334,8","27,8","53,3","0","0"],
    [4740,"2014-08-15T22:00:00","ND","42","5,93","2,8","112,8","26,1","62,6","0","0"],
    [4741,"2014-08-15T23:00:00","ND","13","8,48","2,4","55,2","24,9","68,3","0","0"],
    [4742,"2014-08-16T00:00:00","ND","8","14,11","2,6","53","25","67,3","0","0"],
    [4743,"2014-08-16T01:00:00","ND","7","8,69","2,8","76,9","23,8","72,8","0","0"],
    [4744,"2014-08-16T02:00:00","ND","8","5,18","1,8","146,4","23,4","75,1","0","0"],
    [4745,"2014-08-16T03:00:00","ND","30","4,93","2,9","185,8","23,3","75,5","0","0"],
    [4746,"2014-08-16T04:00:00","ND","30","3,77","3,5","168,6","23,2","73,6","0","0"],
    [4747,"2014-08-16T05:00:00","ND","23","3,3","1,4","162,3","23","73,7","0","0"],
    [4748,"2014-08-16T06:00:00","ND","29","2,04","2,4","107,4","22,4","78,6","0","0"],
    [4749,"2014-08-16T07:00:00","ND","57","3,53","2,3","141,7","22,4","77,2","18","0"],
    [4750,"2014-08-16T08:00:00","ND","36","6,34","2,8","137,1","23","70,1","94,2","0"],
    [4751,"2014-08-16T09:00:00","ND","45","16,23","1,9","144,3","24,5","66","218,8","0"],
    [4752,"2014-08-16T10:00:00","ND","25","39,97","2,2","122,6","26,6","57,4","297,1","0"],
    [4753,"2014-08-16T11:00:00","ND","22","61,17","3,4","86,3","27,9","53,5","402,4","0"],
    [4754,"2014-08-16T12:00:00","ND","24","68","3,3","94,1","29","48,8","308,4","0"],
    [4755,"2014-08-16T13:00:00","ND","19","87,89","2,3","89,1","30,2","43,9","488,6","0"],
    [4756,"2014-08-16T14:00:00","ND","22","92,84","3,6","119,6","31,8","37,8","439,4","0"],
    [4757,"2014-08-16T15:00:00","ND","16","90,58","2,4","136,7","32,8","32,9","378,5","0"],
    [4758,"2014-08-16T16:00:00","ND","13","73,82","3,2","131,3","33,5","30","160,4","0"],
    [4759,"2014-08-16T17:00:00","ND","22","51,61","4,7","72,2","32,9","34,2","77,6","0"],
    [4760,"2014-08-16T18:00:00","ND","25","55,28","4","2,7","31,4","41,8","23,4","0"],
    [4761,"2014-08-16T19:00:00","ND","22","41,8","3,9","297,1","30,1","45,5","0","0"],
    [4762,"2014-08-16T20:00:00","ND","21","21,41","2,6","329,5","29,1","49,1","0","0"],
    [4763,"2014-08-16T21:00:00","ND","37","10,64","3,2","96,7","27","60,3","0","0"],
    [4764,"2014-08-16T22:00:00","ND","19","15,37","2,2","203,6","26,8","59,7","0","0"],
    [4765,"2014-08-16T23:00:00","ND","41","7,81","3","191,3","25,5","66,8","0","0"],
    [4766,"2014-08-17T00:00:00","ND","29","5,04","2,4","166,6","25,1","68,8","0","0"],
    [4767,"2014-08-17T01:00:00","ND","45","5,85","2","145,9","24,7","69","0","0"],
    [4768,"2014-08-17T02:00:00","ND","40","7,93","2,5","102,5","24,3","71,3","0","0"],
    [4769,"2014-08-17T03:00:00","ND","70","15,74","1,4","107,7","24,3","72,4","0","0"],
    [4770,"2014-08-17T04:00:00","ND","60","11,24","2,2","163,7","24,1","71,6","0","0"],
    [4771,"2014-08-17T05:00:00","ND","32","4,67","2,4","153,3","23,5","72,1","0","0"],
    [4772,"2014-08-17T06:00:00","ND","30","5,67","2,1","169,2","23,5","67,2","0","0"],
    [4773,"2014-08-17T07:00:00","ND","27","9,28","2,2","199,4","23,4","68,8","28,5","0"],
    [4774,"2014-08-17T08:00:00","ND","39","16,95","2,1","159,2","24,3","67,3","106,2","0"],
    [4775,"2014-08-17T09:00:00","ND","29","40,33","2,8","149,7","25,6","61,5","180,9","0"],
    [4776,"2014-08-17T10:00:00","ND","25","57,05","2,8","144,7","26,5","59,1","172,7","0"],
    [4777,"2014-08-17T11:00:00","ND","14","72,49","2,8","143,9","27,8","52","208,8","0"],
    [4778,"2014-08-17T12:00:00","ND","23","88,07","2,1","129","28,6","48,2","224,9","0"],
    [4779,"2014-08-17T13:00:00","ND","28","103,34","3,7","98,8","29,4","46,2","222,7","0"],
    [4780,"2014-08-17T14:00:00","ND","43","98,41","4,6","85,6","29,6","46,4","186,8","0"],
    [4781,"2014-08-17T15:00:00","ND","25","87,62","5,2","90,5","30","44,2","238,2","0"],
    [4782,"2014-08-17T16:00:00","ND","19","81,2","3,1","96,3","30,5","39","220,5","0"],
    [4783,"2014-08-17T17:00:00","ND","17","79,55","3,3","63,5","30,8","38,1","145,9","0"],
    [4784,"2014-08-17T18:00:00","ND","26","73,53","2,8","39,4","30,4","40,1","33,4","0"],
    [4785,"2014-08-17T19:00:00","ND","13","30,2","4,4","323,5","29","46,2","0","0"],
    [4786,"2014-08-17T20:00:00","ND","15","29,69","5","291,8","27,8","50,6","0","0"],
    [4787,"2014-08-17T21:00:00","ND","23","14,36","3,1","79,8","25,9","60,9","0","0"],
    [4788,"2014-08-17T22:00:00","ND","11","8,22","1,6","66,8","24,3","69,5","0","0"],
    [4789,"2014-08-17T23:00:00","ND","16","9,09","3,6","74,6","24,1","69,9","0","0"],
    [4790,"2014-08-18T00:00:00","ND","23","10,91","2,4","43,3","24,4","67,8","0","0"],
    [4791,"2014-08-18T01:00:00","ND","7","10,42","1,7","74,6","23,6","71,7","0","0"],
    [4792,"2014-08-18T02:00:00","ND","15","6,16","2,3","209,9","23,3","73,5","0","0"],
    [4793,"2014-08-18T03:00:00","ND","14","4,85","2,1","138,1","23,1","74,4","0","0"],
    [4794,"2014-08-18T04:00:00","ND","24","2,98","3","115,8","22,4","77,8","0","0"],
    [4795,"2014-08-18T05:00:00","ND","13","3,47","1,9","200,7","22,6","76,7","0","0"],
    [4796,"2014-08-18T06:00:00","ND","22","3,57","0,7","226,5","22,7","69,8","0","0"],
    [4797,"2014-08-18T07:00:00","ND","26","7,14","0,8","157,4","23,1","64,5","11,7","0"],
    [4798,"2014-08-18T08:00:00","ND","22","9,38","3","136,6","23,6","64,3","77,2","0"],
    [4799,"2014-08-18T09:00:00","ND","20","25,86","2,8","170,8","24,6","56,4","143,6","0"],
    [4800,"2014-08-18T10:00:00","ND","16","45,78","2,9","206,4","25,9","57,3","315,3","0"],
    [4801,"2014-08-18T11:00:00","ND","14","67,41","2,5","164,7","27,3","50,7","310","0"],
    [4802,"2014-08-18T12:00:00","ND","29","84,46","1,9","100,1","28,9","43,1","448,2","0"],
    [4803,"2014-08-18T13:00:00","ND","13","105,75","1,7","43,1","30,2","39,6","440,3","0"],
    [4804,"2014-08-18T14:00:00","ND","17","101,61","3,3","93","30,9","36,8","355,6","0"],
    [4805,"2014-08-18T15:00:00","ND","11","101,06","1,9","72,1","31,7","35,1","342,5","0"],
    [4806,"2014-08-18T16:00:00","ND","18","95,49","1,8","53","31,9","34,4","183,9","0"],
    [4807,"2014-08-18T17:00:00","ND","11","83,05","4,9","59,7","32","35,1","135,1","0"],
    [4808,"2014-08-18T18:00:00","ND","11","58,89","4,6","347,5","30,6","42,2","20,6","0"],
    [4809,"2014-08-18T19:00:00","ND","17","45,9","5,3","294,3","29,3","44,7","0","0"],
    [4810,"2014-08-18T20:00:00","ND","13","30,83","3,3","302,7","27,9","52,6","0","0,25"],
    [4811,"2014-08-18T21:00:00","ND","29","22,04","3,2","329,1","25,4","61,3","0","0"],
    [4812,"2014-08-18T22:00:00","ND","25","9,07","3,6","74,2","25","65,2","0","0"],
    [4813,"2014-08-18T23:00:00","ND","16","13,36","3","83,8","24,1","67,2","0","0"],
    [4814,"2014-08-19T00:00:00","ND","13","12,72","2,8","7,4","24,2","66,6","0","0"],
    [4815,"2014-08-19T01:00:00","ND","28","3,89","1,6","9,3","24,3","67,9","0","0"],
    [4816,"2014-08-19T02:00:00","ND","20","2,04","2,1","36,4","23,8","70,8","0","0"],
    [4817,"2014-08-19T03:00:00","ND","3","3,24","2","109,9","23,2","75,2","0","0"],
    [4818,"2014-08-19T04:00:00","ND","11","5,81","2,9","191,8","22,9","75,8","0","0"],
    [4819,"2014-08-19T05:00:00","ND","18","3,92","2,8","212,4","22,5","75,2","0","0"],
    [4820,"2014-08-19T06:00:00","ND","28","3,59","1,8","203,7","22,6","72,9","0","0"],
    [4821,"2014-08-19T07:00:00","ND","27","6,81","1,9","210,9","22,9","65,8","9,3","0"],
    [4822,"2014-08-19T08:00:00","ND","33","17,29","2,1","188,7","23,6","62,9","87,1","0"],
    [4823,"2014-08-19T09:00:00","ND","14","29,26","2,8","110","24,9","63,8","248,6","0"],
    [4824,"2014-08-19T10:00:00","ND","17","50,67","2,9","66,3","26,5","57,3","347,5","0"],
    [4825,"2014-08-19T11:00:00","ND","26","75,87","2,5","180,7","28,8","41,1","432,8","0"],
    [4826,"2014-08-19T12:00:00","ND","7","73,82","4,9","164,7","31,2","29,2","478,5","0"],
    [4827,"2014-08-19T13:00:00","ND","10","87,29","5","188,6","32,1","27,1","481,3","0"],
    [4828,"2014-08-19T14:00:00","ND","18","90,88","3,2","171,8","32,8","25,5","438,5","0"],
    [4829,"2014-08-19T15:00:00","ND","21","92,07","2,9","159,2","33,4","22,9","405,7","0"],
    [4830,"2014-08-19T16:00:00","ND","7","91,11","3,2","157,8","33,8","22","308,5","0"],
    [4831,"2014-08-19T17:00:00","ND","21","72,61","8,7","217,3","32,7","23,6","59,7","0"],
    [4832,"2014-08-19T18:00:00","ND","40","58,66","6,1","227","31,4","27,4","20,3","0"],
    [4833,"2014-08-19T19:00:00","ND","22","34,91","5,7","288,2","29,1","43","0","0"],
    [4834,"2014-08-19T20:00:00","ND","19","19,04","1,7","311,9","28,4","44,5","0","0"],
    [4835,"2014-08-19T21:00:00","ND","29","11,07","2,4","95,7","26,6","54,7","0","0"],
    [4836,"2014-08-19T22:00:00","ND","24","10,07","3,7","113,4","24,7","64,9","0","0"],
    [4837,"2014-08-19T23:00:00","ND","18","9,69","2,8","98,6","23,7","70,1","0","0"],
    [4838,"2014-08-20T00:00:00","ND","14","12,32","2,4","84,5","23,6","70,5","0","0"],
    [4839,"2014-08-20T01:00:00","ND","12","15,9","1,7","190,1","23,6","70","0","0"],
    [4840,"2014-08-20T02:00:00","ND","34","14,21","3,9","211,5","22,5","68,7","0","0"],
    [4841,"2014-08-20T03:00:00","ND","27","10,95","1,7","169","22,2","65,5","0","0"],
    [4842,"2014-08-20T04:00:00","ND","29","20,06","1,7","172,3","23","55,2","0","0"],
    [4843,"2014-08-20T05:00:00","ND","28","8,95","1,5","155,8","22,3","60,4","0","0"],
    [4844,"2014-08-20T06:00:00","ND","29","5,38","1,3","149,8","21,6","62,9","0","0"],
    [4845,"2014-08-20T07:00:00","ND","38","5,22","1,1","166,2","21,4","63,1","16,4","0"],
    [4846,"2014-08-20T08:00:00","ND","51","7,52","2,5","139,1","21,6","64,9","94,5","0"],
    [4847,"2014-08-20T09:00:00","ND","32","38,19","1,9","170,5","23,8","54,1","238,7","0"],
    [4848,"2014-08-20T10:00:00","ND","23","68,51","1","158,5","26,2","42,3","339,3","0"],
    [4849,"2014-08-20T11:00:00","ND","47","83,36","2,2","124,9","27,8","39","405,9","0"],
    [4850,"2014-08-20T12:00:00","ND","23","100,85","3","180,5","29,3","34,9","475,2","0"],
    [4851,"2014-08-20T13:00:00","ND","16","103,28","1,4","97,9","30,8","32,8","498,6","0"],
    [4852,"2014-08-20T14:00:00","ND","18","95,12","3","116,7","32,2","29,4","420,9","0"],
    [4853,"2014-08-20T15:00:00","ND","ND","ND","4,7","81,2","32,1","30,9","176,9","0"],
    [4854,"2014-08-20T16:00:00","ND","20","ND","5,2","82,1","31,9","30,9","166,9","0"],
    [4855,"2014-08-20T17:00:00","ND","17","ND","3,8","76,5","32","30,2","134,3","0"],
    [4856,"2014-08-20T18:00:00","ND","11","ND","6,2","288,2","29,8","41,8","9,4","0"],
    [4857,"2014-08-20T19:00:00","ND","17","ND","6,3","303,9","28,7","45,5","0,2","0"],
    [4858,"2014-08-20T20:00:00","ND","17","ND","4,3","314,9","27,7","48,5","0","0"],
    [4859,"2014-08-20T21:00:00","ND","38","ND","3,2","82,4","25,7","61,4","0","0"],
    [4860,"2014-08-20T22:00:00","ND","17","ND","0,9","36,5","25,4","61,8","0","0"],
    [4861,"2014-08-20T23:00:00","ND","15","ND","2,2","94,7","25,1","63,6","0","0"],
    [4862,"2014-08-21T00:00:00","ND","18","ND","3,1","89,6","24,5","66,7","0","0"],
    [4863,"2014-08-21T01:00:00","ND","11","ND","2,9","121,9","24","69,7","0","0"],
    [4864,"2014-08-21T02:00:00","ND","11","ND","1,5","126,2","24","67,7","0","0"],
    [4865,"2014-08-21T03:00:00","ND","27","ND","2,9","169,4","24,1","59,2","0","0"],
    [4866,"2014-08-21T04:00:00","ND","41","ND","1,7","100,2","23,4","64,2","0","0"],
    [4867,"2014-08-21T05:00:00","ND","32","ND","1,5","126,2","22,6","72,1","0","0"],
    [4868,"2014-08-21T06:00:00","ND","36","ND","3,1","149,1","21,9","67,4","0","0"],
    [4869,"2014-08-21T07:00:00","ND","41","ND","2,4","105,9","20,8","71,1","21,5","0"],
    [4870,"2014-08-21T08:00:00","ND","42","ND","3,7","115,3","21,4","66,2","110,4","0"],
    [4871,"2014-08-21T09:00:00","ND","20","ND","3,3","167,7","24,1","49,4","239,6","0"],
    [4872,"2014-08-21T10:00:00","ND","16","ND","2,8","176,8","25,5","46,6","305,8","0"],
    [4873,"2014-08-21T11:00:00","ND","14","ND","2,9","203,2","27,5","44","424,4","0"],
    [4874,"2014-08-21T12:00:00","ND","16","ND","2,7","176","29,5","33,9","477,9","0"],
    [4875,"2014-08-21T13:00:00","ND","16","ND","2,2","99,9","30,7","32,9","337,4","0"],
    [4876,"2014-08-21T14:00:00","ND","28","ND","5","70,3","31,2","35,4","321,8","0"],
    [4877,"2014-08-21T15:00:00","ND","27","ND","5,5","48,2","31,2","33,7","194,3","0"],
    [4878,"2014-08-21T16:00:00","ND","23","ND","4,9","26,2","31","37,3","164,3","0"],
    [4879,"2014-08-21T17:00:00","ND","45","ND","4,1","20,6","30,9","39,4","131,7","0"],
    [4880,"2014-08-21T18:00:00","ND","14","ND","5,8","302,7","29,8","42,6","35","0"],
    [4881,"2014-08-21T19:00:00","ND","11","ND","6,3","296","28,3","46,7","0","0"],
    [4882,"2014-08-21T20:00:00","ND","10","ND","4,5","300","27,7","48,5","0","0"],
    [4883,"2014-08-21T21:00:00","ND","21","ND","4,5","75,6","25,4","59,7","0","0"],
    [4884,"2014-08-21T22:00:00","ND","12","ND","2,7","75,8","24,3","64,9","0","0"],
    [4885,"2014-08-21T23:00:00","ND","12","ND","3,3","104,6","23,4","69,6","0","0"],
    [4886,"2014-08-22T00:00:00","ND","7","ND","2,9","71,3","22,8","72,5","0","0"],
    [4887,"2014-08-22T01:00:00","ND","13","ND","1,6","226,7","23,1","71,2","0","0"],
    [4888,"2014-08-22T02:00:00","ND","13","ND","1,9","191,8","22,7","72,6","0","0"],
    [4889,"2014-08-22T03:00:00","ND","14","ND","2,4","181,3","22,4","74,1","0","0"],
    [4890,"2014-08-22T04:00:00","ND","20","ND","2,2","179,5","21,9","76,6","0","0"],
    [4891,"2014-08-22T05:00:00","ND","52","ND","3,2","210,3","22","74,8","0","0"],
    [4892,"2014-08-22T06:00:00","ND","52","ND","2,1","136,3","21,7","75,1","0","0"],
    [4893,"2014-08-22T07:00:00","ND","56","ND","2,8","110,4","20,4","81,4","12","0"],
    [4894,"2014-08-22T08:00:00","ND","45","ND","2,6","171,2","21,4","78,2","103,7","0"],
    [4895,"2014-08-22T09:00:00","ND","26","ND","2,7","164,7","23,4","69,1","168,8","0"],
    [4896,"2014-08-22T10:00:00","ND","36","ND","3,4","118,3","24,9","62,8","238,8","0"],
    [4897,"2014-08-22T11:00:00","ND","31","ND","0,6","65,8","26,5","57","355,9","0"],
    [4898,"2014-08-22T12:00:00","ND","31","ND","2,7","21,2","28,5","49,3","433,2","0"],
    [4899,"2014-08-22T13:00:00","ND","41","ND","3,6","89,8","29,6","44","369,7","0"],
    [4900,"2014-08-22T14:00:00","ND","41","ND","4,1","57,1","30,4","42","244,4","0"],
    [4901,"2014-08-22T15:00:00","ND","21","ND","4,5","306,4","30,7","40,1","236,5","0"],
    [4902,"2014-08-22T16:00:00","ND","14","69,19","6,3","303,4","30,3","40,2","170,2","0"],
    [4903,"2014-08-22T17:00:00","ND","17","69,33","7","285,3","30,1","41,1","137,1","0"],
    [4904,"2014-08-22T18:00:00","ND","11","51,43","8","287,6","28,7","45,7","58,6","0"],
    [4905,"2014-08-22T19:00:00","ND","13","28,43","6,1","314,2","27,8","47,8","0","0"],
    [4906,"2014-08-22T20:00:00","ND","22","17,03","3,5","336,2","27,1","50,6","0","0"],
    [4907,"2014-08-22T21:00:00","ND","23","13,19","3","80,1","25,7","57,7","0","0"],
    [4908,"2014-08-22T22:00:00","ND","17","11,68","3,1","84,5","24,9","62,3","0","0"],
    [4909,"2014-08-22T23:00:00","ND","9","16,5","3","60,4","24,5","63,8","0","0"],
    [4910,"2014-08-23T00:00:00","ND","6","20,17","2,9","83,2","23,8","66,4","0","0"],
    [4911,"2014-08-23T01:00:00","ND","7","20,78","0,8","148,3","23,8","66,8","0","0"],
    [4912,"2014-08-23T02:00:00","ND","8","14,25","2,1","199,4","23,8","68,1","0","0"],
    [4913,"2014-08-23T03:00:00","ND","6","17,45","2,8","146,3","23,5","68,7","0","0"],
    [4914,"2014-08-23T04:00:00","ND","7","8,81","3","131,1","23,1","72,1","0","0"],
    [4915,"2014-08-23T05:00:00","ND","9","8,22","1","146,7","22,2","78,5","0","0"],
    [4916,"2014-08-23T06:00:00","ND","19","6,75","2,6","205,2","22,5","75,3","0","0"],
    [4917,"2014-08-23T07:00:00","ND","25","5,02","1,3","179","22,6","75,2","8,5","0"],
    [4918,"2014-08-23T08:00:00","ND","30","5,91","3","83,7","22,8","77,2","48,9","0"],
    [4919,"2014-08-23T09:00:00","ND","34","14,54","3,1","100,6","23,4","73,4","86,7","0"],
    [4920,"2014-08-23T10:00:00","ND","28","29,02","3,1","80","24,9","66,1","279,9","0"],
    [4921,"2014-08-23T11:00:00","ND","23","59,71","2","36,7","26,7","56,9","441,6","0"],
    [4922,"2014-08-23T12:00:00","ND","20","87,88","2","78,8","28,3","50,2","513,9","0"],
    [4923,"2014-08-23T13:00:00","ND","28","94,35","2,9","100,3","29,5","46,7","386,6","0"],
    [4924,"2014-08-23T14:00:00","ND","23","81,77","4,2","77,8","29,6","45,9","274,1","0"],
    [4925,"2014-08-23T15:00:00","ND","18","72,84","6,8","66,6","29,7","46,7","179,9","0"],
    [4926,"2014-08-23T16:00:00","ND","20","48,76","6,2","67,5","30","45,2","218,5","0"],
    [4927,"2014-08-23T17:00:00","ND","13","60,5","2,2","341,9","30,1","42,5","129,5","0"],
    [4928,"2014-08-23T18:00:00","ND","ND","49,79","6,5","290,7","29","44,1","21,1","0"],
    [4929,"2014-08-23T19:00:00","ND","ND","34,71","4,9","297,2","27,6","48,6","0","0"],
    [4930,"2014-08-23T20:00:00","ND","51","31,44","4,8","296,8","26,9","50,8","0","0"],
    [4931,"2014-08-23T21:00:00","ND","30","11,36","2,6","100,6","25","62,1","0","0"],
    [4932,"2014-08-23T22:00:00","ND","21","10,66","2,3","70,8","24","67,9","0","0"],
    [4933,"2014-08-23T23:00:00","ND","17","16,78","1,3","358,6","24,2","65,1","0","0"],
    [4934,"2014-08-24T00:00:00","ND","16","11,19","3,2","95,3","23,7","68","0","0"],
    [4935,"2014-08-24T01:00:00","ND","12","9,71","1,4","103,1","23,5","69,2","0","0"],
    [4936,"2014-08-24T02:00:00","ND","20","8,46","2,4","162,6","23,1","71,4","0","0"],
    [4937,"2014-08-24T03:00:00","ND","27","6,18","2,6","166,5","22,7","73,5","0","0"],
    [4938,"2014-08-24T04:00:00","ND","35","12,13","1,9","183,7","22,8","72,3","0","0"],
    [4939,"2014-08-24T05:00:00","ND","37","6,55","2,4","180,8","22,7","73,3","0","0"],
    [4940,"2014-08-24T06:00:00","ND","23","3,94","1,6","161,4","22,5","75,3","0","0"],
    [4941,"2014-08-24T07:00:00","ND","36","7,87","2,2","201,6","22,9","72,7","12","0"],
    [4942,"2014-08-24T08:00:00","ND","35","18,8","1,8","163,9","23,5","69,5","87,2","0"],
    [4943,"2014-08-24T09:00:00","ND","23","37,11","2,3","127,6","24,9","64,7","238,5","0"],
    [4944,"2014-08-24T10:00:00","ND","20","64,25","1,7","175,6","26,3","58","332,5","0"],
    [4945,"2014-08-24T11:00:00","ND","16","76,91","1,1","55,2","27,9","51,9","420,1","0"],
    [4946,"2014-08-24T12:00:00","ND","8","79,24","3,4","67,2","29,1","47,7","349,9","0"],
    [4947,"2014-08-24T13:00:00","ND","11","89,7","3,9","74,4","30,3","43,8","343,9","0"],
    [4948,"2014-08-24T14:00:00","ND","18","89,43","4","89,8","31,2","40,7","251,2","0"],
    [4949,"2014-08-24T15:00:00","ND","10","74,61","4,1","18,4","31,8","39,5","262,6","0"],
    [4950,"2014-08-24T16:00:00","ND","11","56,4","4","26,7","31,6","40","152,5","0"],
    [4951,"2014-08-24T17:00:00","ND","14","56,18","5,4","295","30,6","42","74,4","0"],
    [4952,"2014-08-24T18:00:00","ND","7","45,53","6,3","292,1","29,1","46,3","19,8","0"],
    [4953,"2014-08-24T19:00:00","ND","10","33,2","5,8","303,8","28","49","0","0"],
    [4954,"2014-08-24T20:00:00","ND","7","25,57","5,6","318","27,4","51,6","0","0"],
    [4955,"2014-08-24T21:00:00","ND","18","9,73","4,1","85,2","25,4","61,6","0","0"],
    [4956,"2014-08-24T22:00:00","ND","24","10,24","4,2","71,7","24,5","67,6","0","0"],
    [4957,"2014-08-24T23:00:00","ND","11","17,11","2,9","49,4","24,3","67,5","0","0"],
    [4958,"2014-08-25T00:00:00","ND","9","12,44","1,8","84,9","23,3","71,1","0","0"],
    [4959,"2014-08-25T01:00:00","ND","12","12,11","2,5","150,9","23","72,9","0","0"],
    [4960,"2014-08-25T02:00:00","ND","17","5,71","2,9","208,3","22,6","75,1","0","0"],
    [4961,"2014-08-25T03:00:00","ND","20","4,49","1,3","114,9","22,5","75,8","0","0"],
    [4962,"2014-08-25T04:00:00","ND","17","3,61","0,4","276,4","22,6","75,8","0","0"],
    [4963,"2014-08-25T05:00:00","ND","13","2,98","2,3","102,3","22,4","76,8","0","0"],
    [4964,"2014-08-25T06:00:00","ND","22","2,53","1,1","172","22,4","76,7","0","0"],
    [4965,"2014-08-25T07:00:00","ND","28","3,08","0,9","168","22,9","75","4,5","0"],
    [4966,"2014-08-25T08:00:00","ND","19","7,26","3,1","167,7","23,4","72","15,3","0,25"],
    [4967,"2014-08-25T09:00:00","ND","20","6,89","1,8","112,4","22,7","79","37,6","0,51"],
    [4968,"2014-08-25T10:00:00","ND","26","23,9","2,8","238","24,2","71","159,1","0"],
    [4969,"2014-08-25T11:00:00","ND","38","33,58","2","115,8","25,4","66,3","176,3","0"],
    [4970,"2014-08-25T12:00:00","ND","31","56,16","1,8","165,7","26,4","61,1","237,9","0"],
    [4971,"2014-08-25T13:00:00","ND","20","78,89","1,7","127,2","27,4","56,5","249,4","0"],
    [4972,"2014-08-25T14:00:00","ND","40","81,91","2,5","80","27,9","55,6","175,4","0"],
    [4973,"2014-08-25T15:00:00","ND","14","71,72","4,6","305,7","28,2","50","188,9","0"],
    [4974,"2014-08-25T16:00:00","ND","9","64,84","3,4","304,8","28,7","45,4","130,7","0"],
    [4975,"2014-08-25T17:00:00","ND","14","31,91","4,3","30,1","28,2","47,8","33","0"],
    [4976,"2014-08-25T18:00:00","ND","20","19,64","6,2","67,1","25,8","62,5","14,8","0"],
    [4977,"2014-08-25T19:00:00","ND","18","19,21","4,2","31,8","25,2","64,8","0","0"],
    [4978,"2014-08-25T20:00:00","ND","28","12,34","2,8","45,7","24,5","69,5","0","0"],
    [4979,"2014-08-25T21:00:00","ND","20","11,09","2,5","118,4","24,1","71,7","0","0"],
    [4980,"2014-08-25T22:00:00","ND","25","8,05","2,8","112,8","23,8","73,9","0","0"],
    [4981,"2014-08-25T23:00:00","ND","22","7,5","2,7","71,6","23,5","75,3","0","0"],
    [4982,"2014-08-26T00:00:00","ND","10","8,67","2","33,9","23","77,7","0","0"],
    [4983,"2014-08-26T01:00:00","ND","13","7,97","1,7","33,9","22,5","80,6","0","0"],
    [4984,"2014-08-26T02:00:00","ND","15","8,26","2,4","359,1","22,4","81,2","0","0"],
    [4985,"2014-08-26T03:00:00","ND","17","3,63","2,4","40,3","22","83,3","0","0"],
    [4986,"2014-08-26T04:00:00","ND","15","3,02","2,2","25,4","21,7","84,4","0","0"],
    [4987,"2014-08-26T05:00:00","ND","19","2,24","1,3","123,3","21,3","85,5","0","0"],
    [4988,"2014-08-26T06:00:00","ND","25","2,2","1,6","179,9","21,2","85,5","0","0"],
    [4989,"2014-08-26T07:00:00","ND","36","3,1","1,1","40,4","21,6","83,1","5,7","0"],
    [4990,"2014-08-26T08:00:00","ND","23","5,34","2,6","357,9","22","80,7","38,6","0"],
    [4991,"2014-08-26T09:00:00","ND","30","11,4","2,9","56,7","23","76,8","105,1","0"],
    [4992,"2014-08-26T10:00:00","ND","36","33,71","2,1","91,1","24,5","70,8","254,2","0"],
    [4993,"2014-08-26T11:00:00","ND","34","67,11","2","94,4","26,1","62,1","378,6","0"],
    [4994,"2014-08-26T12:00:00","ND","19","88,88","2,5","41,3","28,2","53,7","457,1","0"],
    [4995,"2014-08-26T13:00:00","ND","21","97,73","2,6","107,5","29,3","47","295,6","0"],
    [4996,"2014-08-26T14:00:00","ND","38","103,89","2,4","315,3","29,4","45,9","230,7","0"],
    [4997,"2014-08-26T15:00:00","ND","48","99,39","2,5","17,9","29,6","45,3","208,8","0"],
    [4998,"2014-08-26T16:00:00","ND","40","90,82","2,8","70","30","44,3","166,9","0"],
    [4999,"2014-08-26T17:00:00","ND","4","55,4","8","286,3","29","44,9","130,7","0"],
    [5000,"2014-08-26T18:00:00","ND","ND","40,74","7,5","297,5","27,9","47,1","26,2","0"],
    [5001,"2014-08-26T19:00:00","ND","9","22,76","7,3","326,8","26,9","49,8","0","0"],
    [5002,"2014-08-26T20:00:00","ND","26","11,58","2,8","32,9","26,1","55,1","0","0"],
    [5003,"2014-08-26T21:00:00","ND","18","10,75","3,1","103,2","25","62","0","0"],
    [5004,"2014-08-26T22:00:00","ND","14","15,09","4,4","51,7","23,1","74,6","0","1,78"],
    [5005,"2014-08-26T23:00:00","ND","18","11,03","1,7","349,1","21,9","83,5","0","0,51"],
    [5006,"2014-08-27T00:00:00","ND","8","13,05","0,9","51,3","21,5","85,1","0","0,76"],
    [5007,"2014-08-27T01:00:00","ND","14","9,44","0,3","316,2","21,8","84,4","0","0"],
    [5008,"2014-08-27T02:00:00","ND","19","10,95","2,8","223,2","21,7","85,4","0","0"],
    [5009,"2014-08-27T03:00:00","ND","10","19,35","3","217,7","21,6","83,8","0","0"],
    [5010,"2014-08-27T04:00:00","ND","18","6,63","2","123,4","21,2","87,8","0","0"],
    [5011,"2014-08-27T05:00:00","ND","20","11,19","1,6","162,5","21,3","86,7","0","0"],
    [5012,"2014-08-27T06:00:00","ND","16","6,04","1,4","161,5","21,4","86,3","0","0"],
    [5013,"2014-08-27T07:00:00","ND","21","3,83","1,9","126,7","21,6","85,1","0","0"],
    [5014,"2014-08-27T08:00:00","ND","32","4,59","1,9","98,3","21,5","86,8","21","0"],
    [5015,"2014-08-27T09:00:00","ND","30","12,72","1,3","147,9","22,2","82,4","85,6","0"],
    [5016,"2014-08-27T10:00:00","ND","20","25,61","1,2","96,6","23,3","76,1","173","0"],
    [5017,"2014-08-27T11:00:00","ND","30","33,62","2,6","113","24,3","71,4","227,2","0"],
    [5018,"2014-08-27T12:00:00","ND","25","63,6","2,2","165,4","25,8","64,4","318,3","0"],
    [5019,"2014-08-27T13:00:00","ND","28","74,02","2","111,9","26,6","59,4","273,3","0"],
    [5020,"2014-08-27T14:00:00","ND","24","90,78","2,6","118,1","27,5","54,7","267","0"],
    [5021,"2014-08-27T15:00:00","ND","26","82,54","4,2","85,8","27,9","52,3","203,6","0"],
    [5022,"2014-08-27T16:00:00","ND","23","59,54","1,6","20,7","28,2","50,2","167,4","0"],
    [5023,"2014-08-27T17:00:00","ND","15","52,2","2,6","34,7","28,2","51","56,1","0"],
    [5024,"2014-08-27T18:00:00","ND","14","41,05","4,3","341,2","27,8","52,1","42,8","0"],
    [5025,"2014-08-27T19:00:00","ND","7","20,68","5,3","292,5","26,3","54,4","0","0"],
    [5026,"2014-08-27T20:00:00","ND","19","6,5","1,8","358,2","25,6","58,3","0","0"],
    [5027,"2014-08-27T21:00:00","ND","10","11,91","1,9","2,9","25,3","58","0","0"],
    [5028,"2014-08-27T22:00:00","ND","22","8,26","2,9","63,8","23,8","63,3","0","0"],
    [5029,"2014-08-27T23:00:00","ND","10","6,97","2,3","81,1","22,6","70","0","0"],
    [5030,"2014-08-28T00:00:00","ND","6","5,73","2,5","155,5","22,4","72","0","0"],
    [5031,"2014-08-28T01:00:00","ND","6","8,5","2,3","131,6","22,3","72,7","0","0"],
    [5032,"2014-08-28T02:00:00","ND","12","8,85","0,9","227,2","22,2","73,1","0","0"],
    [5033,"2014-08-28T03:00:00","ND","12","7,99","1,1","168","22,5","73,2","0","0"],
    [5034,"2014-08-28T04:00:00","ND","10","7,52","1,1","160","22,4","74,4","0","0"],
    [5035,"2014-08-28T05:00:00","ND","13","5,18","1","108,5","22","75,4","0","0"],
    [5036,"2014-08-28T06:00:00","ND","19","4,61","2","214,8","22,1","76,8","0","0"],
    [5037,"2014-08-28T07:00:00","ND","22","3,67","2,5","193","22,1","78,5","10","0"],
    [5038,"2014-08-28T08:00:00","ND","29","4,89","2,7","121,2","22,3","80,1","67,3","0"],
    [5039,"2014-08-28T09:00:00","ND","26","20,55","1,7","178,8","23,5","72,2","193,2","0"],
    [5040,"2014-08-28T10:00:00","ND","18","37,89","2,4","195","25","63,9","244,2","0"],
    [5041,"2014-08-28T11:00:00","ND","22","56,38","2,3","165,2","26,3","58,3","290,1","0"],
    [5042,"2014-08-28T12:00:00","ND","76","71,55","2,5","65,6","28,1","50,4","439","0"],
    [5043,"2014-08-28T13:00:00","ND","32","83,36","2,5","105,4","28,9","48,1","354,2","0"],
    [5044,"2014-08-28T14:00:00","ND","52","93,62","3,7","77","29,2","47,5","266,9","0"],
    [5045,"2014-08-28T15:00:00","ND","36","106,16","2,5","82,6","29,3","46,3","171,5","0"],
    [5046,"2014-08-28T16:00:00","ND","51","100,28","1,2","4,8","29,5","45,8","111","0"],
    [5047,"2014-08-28T17:00:00","ND","26","47,8","6,9","282,8","27","53","13,9","0"],
    [5048,"2014-08-28T18:00:00","ND","23","35,07","6,2","331,6","23,9","71","5","0"],
    [5049,"2014-08-28T19:00:00","ND","32","12,34","3,7","68,6","23,4","72,3","0","0"],
    [5050,"2014-08-28T20:00:00","ND","23","14,86","2,7","41,7","23,1","75,7","0","0"],
    [5051,"2014-08-28T21:00:00","ND","17","9,91","1,7","27,6","23,1","75,8","0","0"],
    [5052,"2014-08-28T22:00:00","ND","22","8,3","1,8","20,2","22,8","77,2","0","0"],
    [5053,"2014-08-28T23:00:00","ND","18","3,38","1,1","203,9","22,5","78,3","0","0"],
    [5054,"2014-08-29T00:00:00","ND","75","11,13","2,9","201,1","22,4","77,8","0","0"],
    [5055,"2014-08-29T01:00:00","ND","95","10,64","2,4","167,6","22,1","79","0","0"],
    [5056,"2014-08-29T02:00:00","ND","16","5,77","1,9","166,7","21,7","81,1","0","0"],
    [5057,"2014-08-29T03:00:00","ND","19","3,1","1,8","114,3","20,7","84,6","0","0"],
    [5058,"2014-08-29T04:00:00","ND","34","5,2","0,7","187,9","20,4","86,2","0","0"],
    [5059,"2014-08-29T05:00:00","ND","20","1,96","2,2","97,9","20,1","86,6","0","0"],
    [5060,"2014-08-29T06:00:00","ND","39","2,98","2,1","57,2","19,8","87,6","0","0"],
    [5061,"2014-08-29T07:00:00","ND","42","3,18","1,3","55","19,9","87","18,2","0"],
    [5062,"2014-08-29T08:00:00","ND","39","7,03","0,9","79,5","21,1","82,4","120,7","0"],
    [5063,"2014-08-29T09:00:00","ND","37","24,59","2,6","51,2","23,4","73,3","269,3","0"],
    [5064,"2014-08-29T10:00:00","ND","22","46,35","2,2","71","25,1","64,5","352,2","0"],
    [5065,"2014-08-29T11:00:00","ND","15","78,08","1,4","265,4","27,1","54","439","0"],
    [5066,"2014-08-29T12:00:00","ND","19","95,29","1,6","126,5","28,9","48,6","474,1","0"],
    [5067,"2014-08-29T13:00:00","ND","17","117,66","2","158,9","30,3","43,1","500,5","0"],
    [5068,"2014-08-29T14:00:00","ND","26","107,54","2,9","72,3","31,5","39,8","388,7","0"],
    [5069,"2014-08-29T15:00:00","ND","17","105,69","1","100,9","32,6","32,4","387,4","0"],
    [5070,"2014-08-29T16:00:00","ND","21","96,31","2,1","78,7","33,1","33,1","203,2","0"],
    [5071,"2014-08-29T17:00:00","ND","15","87,97","3,8","358,4","32,8","34,3","170,7","0"],
    [5072,"2014-08-29T18:00:00","ND","16","66,92","6,8","292,1","30,9","40,4","37","0"],
    [5073,"2014-08-29T19:00:00","ND","14","27,67","3,9","333,6","28,7","46,6","0","0"],
    [5074,"2014-08-29T20:00:00","ND","28","18,43","3","61,4","26,9","56","0","0"],
    [5075,"2014-08-29T21:00:00","ND","24","10,81","3,3","115,7","25,1","64,7","0","0"],
    [5076,"2014-08-29T22:00:00","ND","24","7,87","1,5","105,6","25","64,2","0","0"],
    [5077,"2014-08-29T23:00:00","ND","15","9,07","4,3","92","23,6","71,1","0","0"],
    [5078,"2014-08-30T00:00:00","ND","9","8,58","3,3","97,7","23,2","73,3","0","0"],
    [5079,"2014-08-30T01:00:00","ND","11","13,42","1,4","111,4","23,1","73,3","0","0"],
    [5080,"2014-08-30T02:00:00","ND","16","6,83","1,6","198,4","22,9","73,6","0","0"],
    [5081,"2014-08-30T03:00:00","ND","22","5,57","1,8","194,5","22,5","75,2","0","0"],
    [5082,"2014-08-30T04:00:00","ND","15","7,63","1,9","216,4","22,1","74,3","0","0"],
    [5083,"2014-08-30T05:00:00","ND","21","5,06","3","130","21","76,8","0","0"],
    [5084,"2014-08-30T06:00:00","ND","21","2,59","2","157,1","20","78,4","0","0"],
    [5085,"2014-08-30T07:00:00","ND","21","3,77","1,6","201,8","20,1","77,6","6,7","0"],
    [5086,"2014-08-30T08:00:00","ND","42","5,69","2,5","114","20,2","78,1","75,4","0"],
    [5087,"2014-08-30T09:00:00","ND","45","13,44","2,7","108,2","22,5","72,4","192,4","0"],
    [5088,"2014-08-30T10:00:00","ND","44","48,18","2,2","166,3","25,9","59,1","353,2","0"],
    [5089,"2014-08-30T11:00:00","ND","5","69,82","1,8","164,4","28","50","434,4","0"],
    [5090,"2014-08-30T12:00:00","ND","10","87,07","2","98,7","29,6","43,2","469,8","0"],
    [5091,"2014-08-30T13:00:00","ND","42","87,46","3,4","67,9","31,2","38,2","486,6","0"],
    [5092,"2014-08-30T14:00:00","ND","12","91,92","2,6","48,8","32,6","31,3","455,5","0"],
    [5093,"2014-08-30T15:00:00","ND","9","90,48","2,2","123,2","33,9","26","383,4","0"],
    [5094,"2014-08-30T16:00:00","ND","8","88,07","1,7","133,9","34,8","21,4","279,2","0"],
    [5095,"2014-08-30T17:00:00","ND","13","79,04","2,9","355,4","34,3","25,7","155,6","0"],
    [5096,"2014-08-30T18:00:00","ND","13","70,25","5,3","310,4","31,9","36,8","43","0"],
    [5097,"2014-08-30T19:00:00","ND","14","39,25","4,5","308,5","29,8","41,9","0","0"],
    [5098,"2014-08-30T20:00:00","ND","27","24,55","0,7","352,9","28","48,8","0","0"],
    [5099,"2014-08-30T21:00:00","ND","23","12,05","3,1","113","25,7","60,6","0","0"],
    [5100,"2014-08-30T22:00:00","ND","23","11,24","2,6","105,6","24,7","66,1","0","0"],
    [5101,"2014-08-30T23:00:00","ND","25","8,18","2,5","116,6","24,5","66,4","0","0"],
    [5102,"2014-08-31T00:00:00","ND","22","10,32","2,6","179,9","23,9","67,8","0","0"],
    [5103,"2014-08-31T01:00:00","ND","27","7,69","1,8","149,7","23,1","71,9","0","0"],
    [5104,"2014-08-31T02:00:00","ND","27","5,08","2,2","108,6","22,1","75,9","0","0"],
    [5105,"2014-08-31T03:00:00","ND","38","3,06","1,6","189,7","21,8","77,3","0","0"],
    [5106,"2014-08-31T04:00:00","ND","25","4,02","3","209,3","21,6","75,1","0","0"],
    [5107,"2014-08-31T05:00:00","ND","26","5,2","2,5","168,7","20,2","73,6","0","0"],
    [5108,"2014-08-31T06:00:00","ND","39","3,41","1,6","204,3","19,6","74,7","0","0"],
    [5109,"2014-08-31T07:00:00","ND","28","4,3","1,5","171,3","20,2","73","28,7","0"],
    [5110,"2014-08-31T08:00:00","ND","46","11,54","3,2","158,4","20,7","70,9","108,4","0"],
    [5111,"2014-08-31T09:00:00","ND","39","34,44","2,2","124,5","22,8","62,7","247,5","0"],
    [5112,"2014-08-31T10:00:00","ND","47","70,57","2,5","142,5","25,9","54,5","362,2","0"],
    [5113,"2014-08-31T11:00:00","ND","15","87,78","1,5","73,2","28","47,3","440,1","0"],
    [5114,"2014-08-31T12:00:00","ND","12","97,39","1,9","88,7","29,8","40,3","481,2","0"],
    [5115,"2014-08-31T13:00:00","ND","13","110,7","3","147,8","31,6","34,1","487,9","0"],
    [5116,"2014-08-31T14:00:00","ND","10","112,6","3","41,6","33,4","29,1","455,5","0"],
    [5117,"2014-08-31T15:00:00","ND","24","120,59","3,9","13,5","34,1","28,4","329,4","0"],
    [5118,"2014-08-31T16:00:00","ND","12","94,86","5,3","4,7","33,8","33,3","257,2","0"],
    [5119,"2014-08-31T17:00:00","ND","12","85,38","5,3","315,6","33,2","33,8","154,3","0"],
    [5120,"2014-08-31T18:00:00","ND","12","58,18","6,7","291,3","31,4","37,9","43,1","0"],
    [5121,"2014-08-31T19:00:00","ND","11","41,17","5,4","298,9","29,3","44,4","0","0"],
    [5122,"2014-08-31T20:00:00","ND","29","16,03","1,2","105,6","27,8","51,2","0","0"],
    [5123,"2014-08-31T21:00:00","ND","30","11,15","1,1","94,1","26,9","55,3","0","0"],
    [5124,"2014-08-31T22:00:00","ND","18","8,03","2,2","113,5","25,3","63,8","0","0"],
    [5125,"2014-08-31T23:00:00","ND","18","7,59","3,2","85,6","24,1","70,4","0","0"],
    [5126,"2014-09-01T00:00:00","ND","10","10,3","3,5","103,4","23,6","72,2","0","0"],
    [5127,"2014-09-01T01:00:00","ND","10","11,52","2,3","125,8","23,4","73,4","0","0"],
    [5128,"2014-09-01T02:00:00","ND","12","6,69","2,2","185,3","23,2","73,6","0","0"],
    [5129,"2014-09-01T03:00:00","ND","21","8,63","3,1","220,2","22,6","75","0","0"],
    [5130,"2014-09-01T04:00:00","ND","13","6,5","2,2","152,1","22,2","75,9","0","0"],
    [5131,"2014-09-01T05:00:00","ND","21","2,71","2,3","173,9","21,2","77,9","0","0"],
    [5132,"2014-09-01T06:00:00","ND","29","2,35","2,9","125,4","20,4","78,9","0","0"],
    [5133,"2014-09-01T07:00:00","ND","27","4,75","1,4","182,4","20","76,8","23,5","0"],
    [5134,"2014-09-01T08:00:00","ND","35","12,13","1,9","155,2","21,7","68,9","127,6","0"],
    [5135,"2014-09-01T09:00:00","ND","26","24,45","2,9","136,4","24,3","63,4","247,8","0"],
    [5136,"2014-09-01T10:00:00","ND","36","57,18","1,4","224,3","26,3","58,5","353,2","0"],
    [5137,"2014-09-01T11:00:00","ND","53","87,05","1,1","253,9","28","52,1","402,3","0"],
    [5138,"2014-09-01T12:00:00","ND","28","98,81","2,9","43,7","29,9","45,8","455,7","0"],
    [5139,"2014-09-01T13:00:00","ND","26","126,47","3,4","27,9","31,6","40,2","457,1","0"],
    [5140,"2014-09-01T14:00:00","ND","18","108,93","4,9","38,4","32,9","39,4","434","0"],
    [5141,"2014-09-01T15:00:00","ND","9","78,14","7,6","306,3","33,1","36,2","361,4","0"],
    [5142,"2014-09-01T16:00:00","ND","11","72,61","6","347,8","32,9","35,1","266","0"],
    [5143,"2014-09-01T17:00:00","ND","12","58,99","7,2","313,4","31,8","37,9","118,5","0"],
    [5144,"2014-09-01T18:00:00","ND","23","37,91","6,8","309,8","30","42,6","28,1","0"],
    [5145,"2014-09-01T19:00:00","ND","14","21,43","5,3","306,9","28,9","46,5","0","0"],
    [5146,"2014-09-01T20:00:00","ND","17","13,83","1,4","16,3","27,5","53,1","0","0"],
    [5147,"2014-09-01T21:00:00","ND","23","8,28","3,4","92,1","25,9","62,4","0","0"],
    [5148,"2014-09-01T22:00:00","ND","18","5,75","2,3","69,2","25,5","64,6","0","0"],
    [5149,"2014-09-01T23:00:00","ND","8","13,78","4,3","69,7","25,2","65,6","0","0"],
    [5150,"2014-09-02T00:00:00","ND","6","9,48","2","110","24,6","68,6","0","0"],
    [5151,"2014-09-02T01:00:00","ND","11","9,83","0,7","216,7","24,4","69,2","0","0"],
    [5152,"2014-09-02T02:00:00","ND","16","5,48","1,1","111,1","23,9","71,3","0","0"],
    [5153,"2014-09-02T03:00:00","ND","17","6,06","1,5","131,5","23,2","74,8","0","0"],
    [5154,"2014-09-02T04:00:00","ND","9","5,2","2,1","153,5","23","75,4","0","0"],
    [5155,"2014-09-02T05:00:00","ND","24","3,18","1,6","116","22,5","77,5","0","0"],
    [5156,"2014-09-02T06:00:00","ND","38","3,63","1,5","113,2","22,6","77,4","0","0"],
    [5157,"2014-09-02T07:00:00","ND","27","4,08","2","175,2","23","74,8","17,9","0"],
    [5158,"2014-09-02T08:00:00","ND","30","9,73","2,6","176,3","23,7","71,5","84,5","0"],
    [5159,"2014-09-02T09:00:00","ND","30","20,98","3,3","180,4","25","67,2","124,3","0"],
    [5160,"2014-09-02T10:00:00","ND","34","35,6","2,4","205,6","26,1","61,8","218,9","0"],
    [5161,"2014-09-02T11:00:00","ND","32","78,32","1,8","53,9","27,8","55,4","404,8","0"],
    [5162,"2014-09-02T12:00:00","ND","17","80,16","3,9","36,1","29,1","50,6","304,6","0"],
    [5163,"2014-09-02T13:00:00","ND","18","65,05","5,1","65,6","29,8","48,4","231,5","0"],
    [5164,"2014-09-02T14:00:00","ND","18","57,5","6,2","87,7","30,2","47","291,7","0"],
    [5165,"2014-09-02T15:00:00","ND","20","72,08","5,9","83,1","30,4","46,8","225,4","0"],
    [5166,"2014-09-02T16:00:00","ND","6","43,86","7","321,2","28,1","53,3","81,9","0"],
    [5167,"2014-09-02T17:00:00","ND","7","34,11","5,5","303,7","27,8","53,6","63,7","0"],
    [5168,"2014-09-02T18:00:00","ND","7","17,8","4,4","312,7","27,6","53","7,2","0"],
    [5169,"2014-09-02T19:00:00","ND","8","20,47","2,5","217,9","27","54","0","5,08"],
    [5170,"2014-09-02T20:00:00","ND","21","26,77","4,4","188,5","22,9","79,9","0","17,53"],
    [5171,"2014-09-02T21:00:00","ND","26","16,74","1,2","119,5","22,6","83,8","0","1,02"],
    [5172,"2014-09-02T22:00:00","ND","29","13,19","1,6","53,6","22,6","83,1","0","0,25"],
    [5173,"2014-09-02T23:00:00","ND","49","16,31","1,5","30,3","22,4","82,3","0","0"],
    [5174,"2014-09-03T00:00:00","ND","50","14,07","2,3","169,6","22,3","83,2","0","0"],
    [5175,"2014-09-03T01:00:00","ND","59","13,56","2","216,5","22","84,1","0","0"],
    [5176,"2014-09-03T02:00:00","ND","43","12,36","0,2","162,4","22","84,3","0","0"],
    [5177,"2014-09-03T03:00:00","ND","42","6,24","0,3","155","22","85,6","0","0"],
    [5178,"2014-09-03T04:00:00","ND","36","2,12","2,3","153,6","21,5","87,3","0","0"],
    [5179,"2014-09-03T05:00:00","ND","21","1,69","2,7","200,9","21","88,7","0","0"],
    [5180,"2014-09-03T06:00:00","ND","23","1,96","1,5","104,4","21,1","88,1","0","0"],
    [5181,"2014-09-03T07:00:00","ND","59","3,28","3,1","53,4","20,8","88,9","10,3","0"],
    [5182,"2014-09-03T08:00:00","ND","60","5,02","2,8","351,5","21,1","87,8","39","0"],
    [5183,"2014-09-03T09:00:00","ND","56","20,8","3,4","35,4","22,6","81,9","188,2","0"],
    [5184,"2014-09-03T10:00:00","ND","41","39,01","2,2","87,7","24,1","73,5","238","0"],
    [5185,"2014-09-03T11:00:00","ND","36","76,12","2,1","174,5","26,1","64,2","418","0"],
    [5186,"2014-09-03T12:00:00","ND","25","99,63","1,3","177,6","27,7","55,9","516,5","0"],
    [5187,"2014-09-03T13:00:00","ND","34","102,85","2,2","121,3","29","49,9","348,1","0"],
    [5188,"2014-09-03T14:00:00","ND","29","89,31","3,5","92,9","29,5","47,6","191,3","0"],
    [5189,"2014-09-03T15:00:00","ND","31","83,26","4,7","89,2","29,7","48","181,3","0"],
    [5190,"2014-09-03T16:00:00","ND","ND","82,54","3","91,5","29,8","47,8","185,4","0"],
    [5191,"2014-09-03T17:00:00","ND","12","71,29","4,9","295,5","30,3","43,6","143,1","0"],
    [5192,"2014-09-03T18:00:00","ND","10","47,63","5,5","297,1","29,4","44,2","20,7","0"],
    [5193,"2014-09-03T19:00:00","ND","14","24,86","4,2","298,5","28,3","48","0","0"],
    [5194,"2014-09-03T20:00:00","ND","31","7,5","1,3","78,5","27,1","55","0","0"],
    [5195,"2014-09-03T21:00:00","ND","31","6,34","2,8","87","25,9","61,3","0","0"],
    [5196,"2014-09-03T22:00:00","ND","10","9,89","3,2","83,1","24,8","67,7","0","0"],
    [5197,"2014-09-03T23:00:00","ND","10","16,97","3,4","58,3","24,7","67,9","0","0"],
    [5198,"2014-09-04T00:00:00","ND","5","19,9","3,1","65,7","24,5","68,3","0","0"],
    [5199,"2014-09-04T01:00:00","ND","5","15,5","2,9","51,7","23,6","74,4","0","0"],
    [5200,"2014-09-04T02:00:00","ND","11","14,21","1,8","351,1","23,3","77,5","0","0"],
    [5201,"2014-09-04T03:00:00","ND","16","9,69","2,8","86,9","22,9","79","0","0"],
    [5202,"2014-09-04T04:00:00","ND","9","9,03","1,8","22,6","22,7","79,6","0","0"],
    [5203,"2014-09-04T05:00:00","ND","11","6,52","2,3","1,8","23","77,6","0","0"],
    [5204,"2014-09-04T06:00:00","ND","22","6,65","2","345,8","22,7","78,5","0","0"],
    [5205,"2014-09-04T07:00:00","ND","29","4,93","2,4","96,1","22,8","78,8","12","0"],
    [5206,"2014-09-04T08:00:00","ND","17","8,71","3,3","65","22,9","79,2","72,6","0"],
    [5207,"2014-09-04T09:00:00","ND","20","23,16","1,2","53,1","24","73,9","166,6","0"],
    [5208,"2014-09-04T10:00:00","ND","26","46,9","1,2","114,6","25,9","65,9","315","0"],
    [5209,"2014-09-04T11:00:00","ND","16","62,89","2,2","115,5","27,5","58","375,9","0"],
    [5210,"2014-09-04T12:00:00","ND","24","70,19","2,2","105,4","28,8","52,4","310,7","0"],
    [5211,"2014-09-04T13:00:00","ND","14","72,59","3,3","83,5","30,1","47,4","429,8","0"],
    [5212,"2014-09-04T14:00:00","ND","26","96,23","3,1","63,1","30,8","44,8","396,6","0"],
    [5213,"2014-09-04T15:00:00","ND","27","112,01","4,8","82,2","31,2","43,3","241,9","0"],
    [5214,"2014-09-04T16:00:00","ND","13","72,39","7,5","75,9","30,8","44,5","170,3","0"],
    [5215,"2014-09-04T17:00:00","ND","10","61,56","2,8","20,9","31,1","43,1","155,8","0"],
    [5216,"2014-09-04T18:00:00","ND","11","48,14","5,8","297,5","29,9","44,9","19,6","0"],
    [5217,"2014-09-04T19:00:00","ND","13","21,29","3,3","298,2","28,7","46,6","0","0"],
    [5218,"2014-09-04T20:00:00","ND","15","20,66","4,5","298,7","28,2","46,8","0","0"],
    [5219,"2014-09-04T21:00:00","ND","27","12,79","2,5","93,2","26,2","56,9","0","0"],
    [5220,"2014-09-04T22:00:00","ND","37","10,85","3","87,2","24,4","66,2","0","0"],
    [5221,"2014-09-04T23:00:00","ND","48","11,56","1,9","93,5","23,9","66,7","0","0"],
    [5222,"2014-09-05T00:00:00","ND","43","14,36","4,3","84,2","23,1","70,5","0","0"],
    [5223,"2014-09-05T01:00:00","ND","88","17,13","2,4","73,3","22,8","72,9","0","0"],
    [5224,"2014-09-05T02:00:00","ND","36","13,32","1","223,7","23,4","70,8","0","0"],
    [5225,"2014-09-05T03:00:00","ND","31","7,34","2,4","192,4","22,6","74,2","0","0"],
    [5226,"2014-09-05T04:00:00","ND","19","7,5","2,3","199,7","22,6","74,1","0","0"],
    [5227,"2014-09-05T05:00:00","ND","21","3,34","2","173","22,2","76,8","0","0"],
    [5228,"2014-09-05T06:00:00","ND","32","3,49","2,4","106,5","21,7","79,2","0","0"],
    [5229,"2014-09-05T07:00:00","ND","51","3,63","2","110,9","21,2","82,3","28,4","0"],
    [5230,"2014-09-05T08:00:00","ND","48","11,26","2,4","154","22,7","77,3","125,7","0"],
    [5231,"2014-09-05T09:00:00","ND","31","33,38","1,4","132,3","24,8","67,1","234,4","0"],
    [5232,"2014-09-05T10:00:00","ND","48","52,73","2,2","137,3","26,4","59,7","324,1","0"],
    [5233,"2014-09-05T11:00:00","ND","34","65,43","3,1","102,5","27,8","54,5","339,8","0"],
    [5234,"2014-09-05T12:00:00","ND","17","80,08","1,5","57,2","29,1","49,4","473,1","0"],
    [5235,"2014-09-05T13:00:00","ND","21","103,5","2","34,1","30,6","43,4","494,9","0"],
    [5236,"2014-09-05T14:00:00","ND","8","80,2","5,4","47,5","32,1","38,6","471,3","0"],
    [5237,"2014-09-05T15:00:00","ND","23","73,71","6,3","16,9","32,3","39,1","378,5","0"],
    [5238,"2014-09-05T16:00:00","ND","17","63,07","5,7","35,5","32,5","37,9","276,4","0"],
    [5239,"2014-09-05T17:00:00","ND","8","56,08","4,8","24,2","32,5","36,4","153,4","0"],
    [5240,"2014-09-05T18:00:00","ND","10","56,87","5,5","295,9","30,6","42,5","35,9","0"],
    [5241,"2014-09-05T19:00:00","ND","13","38,99","5,6","295,3","29","46,4","0","0"],
    [5242,"2014-09-05T20:00:00","ND","17","30,83","2,7","293,3","27,8","50,3","0","0"],
    [5243,"2014-09-05T21:00:00","ND","26","11,19","3,8","86","25,1","63,5","0","0"],
    [5244,"2014-09-05T22:00:00","ND","20","13,58","2,1","111,8","25,1","64,2","0","0"],
    [5245,"2014-09-05T23:00:00","ND","21","11,42","1,5","167,7","25,4","62,9","0","0"],
    [5246,"2014-09-06T00:00:00","ND","26","11,01","1,7","99,3","24,9","65,2","0","0"],
    [5247,"2014-09-06T01:00:00","ND","17","11,15","1,3","128,4","24,3","68,3","0","0"],
    [5248,"2014-09-06T02:00:00","ND","27","10,81","2,4","171,5","24,3","68,5","0","0"],
    [5249,"2014-09-06T03:00:00","ND","30","7,03","2","155,7","23,9","70,8","0","0"],
    [5250,"2014-09-06T04:00:00","ND","26","4,45","2,2","148,5","23,7","71,8","0","0"],
    [5251,"2014-09-06T05:00:00","ND","39","2,87","1,7","186,5","22,9","75,8","0","0"],
    [5252,"2014-09-06T06:00:00","ND","48","2,9","2,1","115,3","22,7","76,8","0","0"],
    [5253,"2014-09-06T07:00:00","ND","45","3,98","2,8","122,4","21,7","80,3","24,1","0"],
    [5254,"2014-09-06T08:00:00","ND","54","14,25","1,3","196,7","23,3","71,2","133,9","0"],
    [5255,"2014-09-06T09:00:00","ND","57","30,44","2,8","106,1","25,4","60,5","208,9","0"],
    [5256,"2014-09-06T10:00:00","ND","26","59,38","2,7","109,3","27,1","50,8","338,5","0"],
    [5257,"2014-09-06T11:00:00","ND","50","82,38","1,7","57,2","28,9","46,3","458,1","0"],
    [5258,"2014-09-06T12:00:00","ND","36","92,39","3,9","70,2","30,3","41,7","478","0"],
    [5259,"2014-09-06T13:00:00","ND","15","91,92","5,6","75,8","31,3","40","420,5","0"],
    [5260,"2014-09-06T14:00:00","ND","14","82,07","4,8","86,3","31,6","39,4","351,2","0"],
    [5261,"2014-09-06T15:00:00","ND","13","73,57","4","38,5","32","40,1","248,9","0"],
    [5262,"2014-09-06T16:00:00","ND","11","64,6","3,1","25,4","31,6","40,5","129,3","0"],
    [5263,"2014-09-06T17:00:00","ND","9","49,12","4,7","45,8","31,6","40,3","81,6","0"],
    [5264,"2014-09-06T18:00:00","ND","12","52,98","5,3","292,3","29,9","44,5","19,5","0"],
    [5265,"2014-09-06T19:00:00","ND","10","35,24","5,2","299,5","29","47","0","0"],
    [5266,"2014-09-06T20:00:00","ND","6","26,22","4","309,7","28,1","51,4","0","0"],
    [5267,"2014-09-06T21:00:00","ND","21","10,58","3,2","79,9","26,5","59,4","0","0"],
    [5268,"2014-09-06T22:00:00","ND","18","9,22","2,8","102,5","25,5","64,2","0","0"],
    [5269,"2014-09-06T23:00:00","ND","13","8,26","0,4","139,5","25,5","64,2","0","0"],
    [5270,"2014-09-07T00:00:00","ND","14","7,61","2,6","91,3","24,9","67,4","0","0"],
    [5271,"2014-09-07T01:00:00","ND","7","11,75","2,2","102,4","24","71,3","0","0"],
    [5272,"2014-09-07T02:00:00","ND","2","15,19","1,9","91","23,8","72,2","0","0"],
    [5273,"2014-09-07T03:00:00","ND","7","10,93","2,3","196,3","23,7","72,9","0","0"],
    [5274,"2014-09-07T04:00:00","ND","16","6,65","1,6","154,3","23,1","75,1","0","0"],
    [5275,"2014-09-07T05:00:00","ND","19","5,36","2","140,2","22,9","75,7","0","0"],
    [5276,"2014-09-07T06:00:00","ND","18","4,65","1,7","165,2","22,9","75,2","0","0"],
    [5277,"2014-09-07T07:00:00","ND","27","5,18","2","134,4","22,8","75,6","12,1","0"],
    [5278,"2014-09-07T08:00:00","ND","31","10,28","3,2","117,6","23","74,8","65,9","0"],
    [5279,"2014-09-07T09:00:00","ND","30","27,98","1,9","139,7","24,7","67,3","145","0"],
    [5280,"2014-09-07T10:00:00","ND","23","39,97","2,7","185,3","25,9","62,9","205,9","0"],
    [5281,"2014-09-07T11:00:00","ND","33","61,03","1","73,2","27,2","57,9","271,2","0"],
    [5282,"2014-09-07T12:00:00","ND","23","73,57","3,6","49,9","28,9","51,8","361,9","0"],
    [5283,"2014-09-07T13:00:00","ND","32","88,74","2,1","39,7","29,3","49","286,8","0"],
    [5284,"2014-09-07T14:00:00","ND","31","79,85","4,6","80,8","30,9","44","414,7","0"],
    [5285,"2014-09-07T15:00:00","ND","10","79,2","4,8","86,3","31,3","41,6","247,9","0"],
    [5286,"2014-09-07T16:00:00","ND","11","68,09","5,5","83,1","31,5","40,1","123,7","0"],
    [5287,"2014-09-07T17:00:00","ND","15","57,73","4,5","38,8","31,1","42,9","66,7","0"],
    [5288,"2014-09-07T18:00:00","ND","14","53,83","4,4","306,5","30","45,6","16,6","0"],
    [5289,"2014-09-07T19:00:00","ND","13","44,9","4,8","288,2","29","48,1","0","0"],
    [5290,"2014-09-07T20:00:00","ND","19","32,18","3,1","288,9","28,6","48,7","0","0"],
    [5291,"2014-09-07T21:00:00","ND","21","8,58","2,9","125,9","26,5","60,5","0","0"],
    [5292,"2014-09-07T22:00:00","ND","17","9,36","2,2","63,7","26,2","62,8","0","0"],
    [5293,"2014-09-07T23:00:00","ND","29","4,75","2,3","91","25,6","65,9","0","0"],
    [5294,"2014-09-08T00:00:00","ND","10","9,48","2,4","99,9","25,3","67,7","0","1,02"],
    [5295,"2014-09-08T01:00:00","ND","7","18,68","3,3","63,7","24,9","70","0","0"],
    [5296,"2014-09-08T02:00:00","ND","16","17,27","0,8","64,2","24,7","70,4","0","0"],
    [5297,"2014-09-08T03:00:00","ND","23","9,65","2,1","157,6","24,3","73,1","0","0"],
    [5298,"2014-09-08T04:00:00","ND","23","7,95","2","116","23,9","74,9","0","0"],
    [5299,"2014-09-08T05:00:00","ND","11","5,73","1,9","184","23,5","76,4","0","0"],
    [5300,"2014-09-08T06:00:00","ND","19","4,14","3,1","211,2","22,9","78","0","0"],
    [5301,"2014-09-08T07:00:00","ND","24","4,49","2,4","163,9","23,4","74,9","12,6","0"],
    [5302,"2014-09-08T08:00:00","ND","35","6,12","2,3","140,8","23,5","75,2","40,1","0"],
    [5303,"2014-09-08T09:00:00","ND","43","15,09","2,9","143,3","24,6","66,3","91,7","0"],
    [5304,"2014-09-08T10:00:00","ND","26","30,1","3,2","130,9","25,3","66,6","194,5","0"],
    [5305,"2014-09-08T11:00:00","ND","42","58,44","1,3","176,4","27,1","59","299,5","0"],
    [5306,"2014-09-08T12:00:00","ND","40","71,63","2,6","91,8","29","48,6","338,3","0"],
    [5307,"2014-09-08T13:00:00","ND","32","83,15","1,8","71,1","30","44","370,9","0"],
    [5308,"2014-09-08T14:00:00","ND","38","79,16","3,2","98,2","31,5","40,2","431,5","0"],
    [5309,"2014-09-08T15:00:00","ND","32","88,33","2,1","80,3","32,4","36,2","350,4","0"],
    [5310,"2014-09-08T16:00:00","ND","29","78,55","5,8","44,4","32,3","39","230","0"],
    [5311,"2014-09-08T17:00:00","ND","22","58,11","6,2","20","31,1","44,3","110,5","0"],
    [5312,"2014-09-08T18:00:00","ND","25","49,22","4,3","333,4","29,9","46,7","30,7","0"],
    [5313,"2014-09-08T19:00:00","ND","17","25,86","3,8","297,1","28,4","51,2","0","0"],
    [5314,"2014-09-08T20:00:00","ND","16","21,86","2,8","302,2","27,6","53,9","0","0"],
    [5315,"2014-09-08T21:00:00","ND","28","9,11","2,8","82,4","25,9","62,9","0","0"],
    [5316,"2014-09-08T22:00:00","ND","31","9,09","2,9","81,6","25,1","66,4","0","0"],
    [5317,"2014-09-08T23:00:00","ND","15","9,95","2,4","80,3","24,7","67,7","0","0"],
    [5318,"2014-09-09T00:00:00","ND","9","13,09","1,4","58,8","24,4","68,1","0","0"],
    [5319,"2014-09-09T01:00:00","ND","12","10,52","1,6","116,6","24,2","68,6","0","0"],
    [5320,"2014-09-09T02:00:00","ND","7","13,23","1","110,8","23,4","72,7","0","0"],
    [5321,"2014-09-09T03:00:00","ND","12","16,66","1,8","92,3","23,4","72,8","0","0"],
    [5322,"2014-09-09T04:00:00","ND","10","6,87","2,4","141,2","22,7","75,4","0","0"],
    [5323,"2014-09-09T05:00:00","ND","19","4,47","2,5","158,7","22,3","72,1","0","0"],
    [5324,"2014-09-09T06:00:00","ND","27","3,34","2,7","125,7","21","76,6","0","0"],
    [5325,"2014-09-09T07:00:00","ND","35","4,69","2,4","165,2","20,8","75,1","31,5","0"],
    [5326,"2014-09-09T08:00:00","ND","35","18,19","2","176,2","22,5","65,5","134,1","0"],
    [5327,"2014-09-09T09:00:00","ND","37","42,62","2,4","157,2","24,7","61,3","249,7","0"],
    [5328,"2014-09-09T10:00:00","ND","30","67,68","1,8","152","26,7","55,8","355,2","0"],
    [5329,"2014-09-09T11:00:00","ND","20","79,91","1,7","109,8","28,4","49,2","435,3","0"],
    [5330,"2014-09-09T12:00:00","ND","20","94,76","2,2","61,1","30,4","42,6","465,7","0"],
    [5331,"2014-09-09T13:00:00","ND","14","127,42","2,1","88,7","31,6","38,4","476,4","0"],
    [5332,"2014-09-09T14:00:00","ND","21","128,95","2,6","109,1","32,6","36,1","261,1","0"],
    [5333,"2014-09-09T15:00:00","ND","17","97,92","6","292,7","32,1","37,4","224,2","0"],
    [5334,"2014-09-09T16:00:00","ND","14","91,68","8","285,9","32,6","35,7","250,3","0"],
    [5335,"2014-09-09T17:00:00","ND","19","61,85","6,8","305,9","31,4","37,3","81,6","0"],
    [5336,"2014-09-09T18:00:00","ND","18","45,66","7","307,1","29,8","42,4","8,1","0"],
    [5337,"2014-09-09T19:00:00","ND","15","22,94","5,1","324,6","28,6","47,3","0","0"],
    [5338,"2014-09-09T20:00:00","ND","28","15,82","1,6","77,5","27,5","52,3","0","0"],
    [5339,"2014-09-09T21:00:00","ND","18","15,15","1,2","55,3","25,9","60,1","0","0"],
    [5340,"2014-09-09T22:00:00","ND","27","14,86","2,7","225,2","25,1","65,2","0","0"],
    [5341,"2014-09-09T23:00:00","ND","21","9,52","3,6","77,3","24,5","67,8","0","0"],
    [5342,"2014-09-10T00:00:00","ND","8","20,78","1,6","36,4","24,1","69,3","0","0"],
    [5343,"2014-09-10T01:00:00","ND","5","22,98","1,3","98,7","24","70,3","0","0"],
    [5344,"2014-09-10T02:00:00","ND","3","19,35","2,2","183,3","23,4","72,6","0","0"],
    [5345,"2014-09-10T03:00:00","ND","19","15,35","2,7","214,5","23,2","72,7","0","0"],
    [5346,"2014-09-10T04:00:00","ND","23","16,8","2,4","206,1","23,6","70,8","0","0"],
    [5347,"2014-09-10T05:00:00","ND","34","8,83","2,4","150,9","22,6","75,5","0","0"],
    [5348,"2014-09-10T06:00:00","ND","30","6,38","1,5","164","22,3","76,2","0","0"],
    [5349,"2014-09-10T07:00:00","ND","31","7,52","2,8","138,1","22,4","75,2","19","0"],
    [5350,"2014-09-10T08:00:00","ND","35","10,18","2,3","138,7","23,2","71,5","62,4","0"],
    [5351,"2014-09-10T09:00:00","ND","35","ND","3,6","101,3","24,5","66,4","147,6","0"],
    [5352,"2014-09-10T10:00:00","ND","ND","ND","2,1","135,7","27,8","52,3","203,2","0"],
    [5353,"2014-09-10T11:00:00","ND","13","70,49","0,2","6,7","27,6","54,6","350,3","0"],
    [5354,"2014-09-10T12:00:00","ND","17","72,96","2,7","125,7","28,7","51,7","241,2","0"],
    [5355,"2014-09-10T13:00:00","ND","20","68,84","3,4","93,7","29,2","49,7","211,5","0"],
    [5356,"2014-09-10T14:00:00","ND","27","70,57","4,5","105,6","29,6","49,4","174,8","0"],
    [5357,"2014-09-10T15:00:00","ND","29","ND","4,3","100,4","29,8","49,2","123,7","0"],
    [5358,"2014-09-10T16:00:00","ND","25","ND","0,8","135,9","29,5","48,9","76,7","0"],
    [5359,"2014-09-10T17:00:00","ND","6","ND","6,1","286","29,2","46","72,4","0"],
    [5360,"2014-09-10T18:00:00","ND","6","ND","5,5","292,1","28,4","48","14,4","0"],
    [5361,"2014-09-10T19:00:00","ND","7","ND","4,5","306,2","27,7","50","0","0"],
    [5362,"2014-09-10T20:00:00","ND","24","ND","1,9","5,4","26,9","54,2","0","0"],
    [5363,"2014-09-10T21:00:00","ND","27","ND","3,8","78,6","25,6","62,1","0","0"],
    [5364,"2014-09-10T22:00:00","ND","14","ND","2,7","80,4","25","65,5","0","0"],
    [5365,"2014-09-10T23:00:00","ND","12","ND","2,8","92,5","24,6","66,8","0","0"],
    [5366,"2014-09-11T00:00:00","ND","12","ND","1,9","78,9","24,4","67,5","0","0"],
    [5367,"2014-09-11T01:00:00","ND","13","ND","1,9","178,3","24,5","68","0","0"],
    [5368,"2014-09-11T02:00:00","ND","11","ND","1,7","162,5","23,6","72,1","0","0"],
    [5369,"2014-09-11T03:00:00","ND","15","ND","3,5","224,8","23,5","72,5","0","0"],
    [5370,"2014-09-11T04:00:00","ND","20","ND","3","214,2","23,4","73,3","0","0"],
    [5371,"2014-09-11T05:00:00","ND","25","ND","2,2","111,7","22,8","78","0","0"],
    [5372,"2014-09-11T06:00:00","ND","35","ND","0,9","359,2","22,8","78,1","0","0"],
    [5373,"2014-09-11T07:00:00","ND","55","ND","2","109,8","23,1","77,1","19","0"],
    [5374,"2014-09-11T08:00:00","ND","37","ND","2,4","121,9","23,3","75,9","43,3","0"],
    [5375,"2014-09-11T09:00:00","ND","47","ND","1,9","172,4","24","70,8","57,1","0"],
    [5376,"2014-09-11T10:00:00","ND","51","ND","1,2","191,6","25,1","66,4","180,5","0"],
    [5377,"2014-09-11T11:00:00","ND","37","61,27","1","49,6","27,3","57,3","369,4","0"],
    [5378,"2014-09-11T12:00:00","ND","17","58,36","3,2","86,9","27,6","55,5","167,6","0"],
    [5379,"2014-09-11T13:00:00","ND","14","65,07","3","71,2","28,5","52","310,4","0"],
    [5380,"2014-09-11T14:00:00","ND","25","67,21","3,7","45,3","29,6","46,9","263,8","0"],
    [5381,"2014-09-11T15:00:00","ND","25","42,8","5","61,4","29,3","48,7","189,8","0"],
    [5382,"2014-09-11T16:00:00","ND","4","41,98","8","293,6","29,3","43,9","160,2","0"],
    [5383,"2014-09-11T17:00:00","ND","ND","44,13","7,8","300,2","28,8","43,3","130,4","0"],
    [5384,"2014-09-11T18:00:00","ND","ND","38,87","8,6","300,2","27,4","47,3","38,6","0"],
    [5385,"2014-09-11T19:00:00","ND","3","20,68","7,3","319,4","26,6","49,8","0","0"],
    [5386,"2014-09-11T20:00:00","ND","24","11,42","2,4","17,4","26,2","52,7","0","0"],
    [5387,"2014-09-11T21:00:00","ND","27","8,22","2,8","63,1","25,2","57,4","0","0"],
    [5388,"2014-09-11T22:00:00","ND","20","8,71","0,7","92,2","24,8","59,6","0","0"],
    [5389,"2014-09-11T23:00:00","ND","15","10,5","3,3","240","24,4","63,1","0","0"],
    [5390,"2014-09-12T00:00:00","ND","11","13,11","3,5","226,2","23,7","67","0","0"],
    [5391,"2014-09-12T01:00:00","ND","13","14,97","1,7","222,6","23,7","68,7","0","0"],
    [5392,"2014-09-12T02:00:00","ND","7","14,11","2","75,2","23,5","68,6","0","0"],
    [5393,"2014-09-12T03:00:00","ND","4","21,7","3","27,1","22,4","77,6","0","19,81"],
    [5394,"2014-09-12T04:00:00","ND","3","17,7","0,8","90,8","21,3","85,6","0","16,51"],
    [5395,"2014-09-12T05:00:00","ND","9","9,67","2,1","291,4","21,1","84,8","0","0,51"],
    [5396,"2014-09-12T06:00:00","ND","9","6,38","0,7","333,6","21,5","80,3","0","0"],
    [5397,"2014-09-12T07:00:00","ND","23","5,63","1,7","46,6","21,9","81,5","0","0"],
    [5398,"2014-09-12T08:00:00","ND","14","6,57","1,8","68,8","21,8","83,7","43","0"],
    [5399,"2014-09-12T09:00:00","ND","17","16,44","1,7","186","22,7","79,6","116,6","0"],
    [5400,"2014-09-12T10:00:00","ND","18","28,1","2,3","185,7","24","73,3","194,4","0"],
    [5401,"2014-09-12T11:00:00","ND","21","54,34","2,2","128,4","25,7","63,1","404,5","0"],
    [5402,"2014-09-12T12:00:00","ND","13","88,44","0,9","224","27,5","55,3","484,8","0"],
    [5403,"2014-09-12T13:00:00","ND","19","116,78","0,7","334,4","28,5","49,7","489,8","0"],
    [5404,"2014-09-12T14:00:00","ND","20","140,96","1,6","351,6","30,1","43,4","449,9","0"],
    [5405,"2014-09-12T15:00:00","ND","22","142,78","1,8","39,8","31,1","39,9","359,9","0"],
    [5406,"2014-09-12T16:00:00","ND","21","126,59","3,7","23,4","31,1","39,8","113,7","0"],
    [5407,"2014-09-12T17:00:00","ND","17","66,07","3,8","325,2","30,4","41,6","55,9","0"],
    [5408,"2014-09-12T18:00:00","ND","7","43","5,4","295,4","29","44,4","25,7","0"],
    [5409,"2014-09-12T19:00:00","ND","11","19,78","3,1","295,4","27,6","49","0","0"],
    [5410,"2014-09-12T20:00:00","ND","40","7,04","1,7","60","26,7","53,6","0","0"],
    [5411,"2014-09-12T21:00:00","ND","27","8,08","3,3","98,8","24,5","64,8","0","0"],
    [5412,"2014-09-12T22:00:00","ND","20","6,53","2,4","70","23,7","68,4","0","0"],
    [5413,"2014-09-12T23:00:00","ND","14","8,85","2,2","74,7","23,6","68,6","0","0"],
    [5414,"2014-09-13T00:00:00","ND","11","6,2","2,5","73,4","22,9","71,9","0","0"],
    [5415,"2014-09-13T01:00:00","ND","7","9,26","1,2","43,3","22,2","74,4","0","0"],
    [5416,"2014-09-13T02:00:00","ND","10","11,5","0,9","51,6","22,3","73,9","0","0"],
    [5417,"2014-09-13T03:00:00","ND","12","12,56","0,6","158","22,2","74,7","0","0"],
    [5418,"2014-09-13T04:00:00","ND","22","5,53","0,7","146,4","21,4","78,5","0","0"],
    [5419,"2014-09-13T05:00:00","ND","18","4,32","0,6","186,6","21,1","80","0","0"],
    [5420,"2014-09-13T06:00:00","ND","24","3,41","2,4","118","21","80,3","0","0"],
    [5421,"2014-09-13T07:00:00","ND","28","4,34","0,6","92,1","21,1","80,8","23","0"],
    [5422,"2014-09-13T08:00:00","ND","29","8,85","1,3","125,4","22,1","77","72,7","0"],
    [5423,"2014-09-13T09:00:00","ND","26","27,79","1,8","185,1","23,8","69,6","175,7","0"],
    [5424,"2014-09-13T10:00:00","ND","44","53,91","0,8","200,1","25,3","63,2","284,7","0"],
    [5425,"2014-09-13T11:00:00","ND","36","72,78","2,2","46,1","27,5","53","393,6","0"],
    [5426,"2014-09-13T12:00:00","ND","26","82,6","1,6","113,9","28,6","49,2","397,3","0"],
    [5427,"2014-09-13T13:00:00","ND","24","88,64","1,2","59,3","30","43,6","377,8","0"],
    [5428,"2014-09-13T14:00:00","ND","17","93,15","3,9","99,7","30,9","41,6","321,5","0"],
    [5429,"2014-09-13T15:00:00","ND","17","119,74","4,8","30","31,6","40,8","286,2","0"],
    [5430,"2014-09-13T16:00:00","ND","14","92,49","2,9","36","31,2","42,6","171","0"],
    [5431,"2014-09-13T17:00:00","ND","12","74,16","5,6","284","30,7","42","75,7","0"],
    [5432,"2014-09-13T18:00:00","ND","10","55,97","6,1","291,5","29,3","46,4","12,8","0"],
    [5433,"2014-09-13T19:00:00","ND","7","36,03","5,3","293,7","28,2","50,7","0","0"],
    [5434,"2014-09-13T20:00:00","ND","11","26,71","3,3","311,6","27,4","54,3","0","0"],
    [5435,"2014-09-13T21:00:00","ND","16","11,62","3,7","98,9","25,9","62,6","0","0"],
    [5436,"2014-09-13T22:00:00","ND","12","7,36","3","78,2","25","67,1","0","0"],
    [5437,"2014-09-13T23:00:00","ND","10","8,71","2,8","69","24,4","68,2","0","0"],
    [5438,"2014-09-14T00:00:00","ND","6","12,17","3,4","85","24,2","68,8","0","0"],
    [5439,"2014-09-14T01:00:00","ND","6","13,8","1,8","69,7","23,9","69,8","0","0"],
    [5440,"2014-09-14T02:00:00","ND","5","15,46","2,3","185,6","23,6","71,5","0","0"],
    [5441,"2014-09-14T03:00:00","ND","12","14,36","3,2","193,4","23,4","72,7","0","0"],
    [5442,"2014-09-14T04:00:00","ND","16","9,87","1","201,3","23,2","74,4","0","0"],
    [5443,"2014-09-14T05:00:00","ND","16","7,08","2","66","23,1","75,8","0","0"],
    [5444,"2014-09-14T06:00:00","ND","13","11,91","2,4","25,6","22,6","79,6","0","0"],
    [5445,"2014-09-14T07:00:00","ND","11","9,13","2","29,6","22,3","82","0","0"],
    [5446,"2014-09-14T08:00:00","ND","17","13,6","2","59,5","23","77,6","45,7","0"],
    [5447,"2014-09-14T09:00:00","ND","18","20,08","2","117","23,9","72,2","77,3","0"],
    [5448,"2014-09-14T10:00:00","ND","19","42,66","0,1","290","25,4","65,7","309","0"],
    [5449,"2014-09-14T11:00:00","ND","19","61,13","2","86,9","26,9","60,2","381,8","0"],
    [5450,"2014-09-14T12:00:00","ND","14","73,2","4,5","36,4","28,1","55,8","356,3","0"],
    [5451,"2014-09-14T13:00:00","ND","9","82,4","4,2","25,2","28,6","53,4","287,4","0"],
    [5452,"2014-09-14T14:00:00","ND","7","72,78","5","18,1","29,6","49,8","400,4","0"],
    [5453,"2014-09-14T15:00:00","ND","8","72,82","4,6","29,4","30,4","44,7","281,1","0"],
    [5454,"2014-09-14T16:00:00","ND","6","66,21","4,3","5,2","30,4","43,6","179,9","0"],
    [5455,"2014-09-14T17:00:00","ND","14","50,1","5,1","335,6","29,8","43,6","69,3","0"],
    [5456,"2014-09-14T18:00:00","ND","8","38,66","5,9","311,1","28","47,9","6,1","0"],
    [5457,"2014-09-14T19:00:00","ND","3","32,58","3,6","294","27,4","50","0","0"],
    [5458,"2014-09-14T20:00:00","ND","8","27,24","2,3","231,4","26,1","59,3","0","0"],
    [5459,"2014-09-14T21:00:00","ND","31","24,31","5,5","223,2","23,1","79,3","0","0"],
    [5460,"2014-09-14T22:00:00","ND","24","22,33","4,6","211,3","22,8","80,5","0","0"],
    [5461,"2014-09-14T23:00:00","ND","26","13,97","2","167,2","22,8","80,2","0","0"],
    [5462,"2014-09-15T00:00:00","ND","21","13,95","1,7","181,1","22,8","80,3","0","0"],
    [5463,"2014-09-15T01:00:00","ND","18","13,89","2,2","172,4","22,8","79,3","0","0"],
    [5464,"2014-09-15T02:00:00","ND","17","9,2","2,4","162,5","22,2","85,6","0","0"],
    [5465,"2014-09-15T03:00:00","ND","13","14,33","0,8","221","22","84,5","0","0"],
    [5466,"2014-09-15T04:00:00","ND","14","9,81","1,5","92,2","22","84,2","0","0"],
    [5467,"2014-09-15T05:00:00","ND","14","6","1,5","143,1","22,1","83,8","0","0"],
    [5468,"2014-09-15T06:00:00","ND","14","7,22","1,7","201,5","22","83,1","0","0"],
    [5469,"2014-09-15T07:00:00","ND","11","4,34","1,9","198,2","22,1","83,8","11,3","0"],
    [5470,"2014-09-15T08:00:00","ND","17","14,07","2,5","189,9","23","79,5","103,9","0"],
    [5471,"2014-09-15T09:00:00","ND","12","23,76","3,9","184,7","23,8","75,1","146,8","0"],
    [5472,"2014-09-15T10:00:00","ND","18","34,26","2,5","199,2","24,8","70,5","201,5","0"],
    [5473,"2014-09-15T11:00:00","ND","9","43,76","2,2","154,5","25,7","63,8","195,8","0"],
    [5474,"2014-09-15T12:00:00","ND","6","58,44","2,3","157,9","27","57,8","352,6","0"],
    [5475,"2014-09-15T13:00:00","ND","10","64,19","2,9","102,8","28","54","325,1","0"],
    [5476,"2014-09-15T14:00:00","ND","11","91,37","3,5","52,9","29,5","49,3","406,1","0"],
    [5477,"2014-09-15T15:00:00","ND","16","100,28","4,3","51","29,8","48,8","259,6","0"],
    [5478,"2014-09-15T16:00:00","ND","17","86,85","3","35,2","29,9","47,4","104,3","0"],
    [5479,"2014-09-15T17:00:00","ND","3","59,73","4,1","287,8","29,8","44,9","134,7","0"],
    [5480,"2014-09-15T18:00:00","ND","2","33,07","6,1","289,1","28,6","49,3","49,4","3,3"],
    [5481,"2014-09-15T19:00:00","ND","2","17,48","4","296,3","26,3","60,6","0","0"],
    [5482,"2014-09-15T20:00:00","ND","13","12,46","2,5","346,1","25,5","64,9","0","4,83"],
    [5483,"2014-09-15T21:00:00","ND","23","4,18","1,2","60,9","24","76,1","0","0"],
    [5484,"2014-09-15T22:00:00","ND","16","4,47","2,6","91,3","23,6","75,5","0","0"],
    [5485,"2014-09-15T23:00:00","ND","10","3,61","1,5","88,5","22,7","78","0","0"],
    [5486,"2014-09-16T00:00:00","ND","7","3,53","1,1","138,3","23,2","75,8","0","0"],
    [5487,"2014-09-16T01:00:00","ND","4","8,01","2,2","116,4","22,5","78,6","0","0"],
    [5488,"2014-09-16T02:00:00","ND","7","6,97","1,5","118,1","22,2","81,5","0","0,25"],
    [5489,"2014-09-16T03:00:00","ND","11","6,18","1,2","99,5","22,2","80,8","0","0"],
    [5490,"2014-09-16T04:00:00","ND","12","6,52","0,1","208,7","22,4","79","0","0"],
    [5491,"2014-09-16T05:00:00","ND","19","4,98","1,2","141,2","22,3","78,8","0","0"],
    [5492,"2014-09-16T06:00:00","ND","22","4,28","1,7","153","22,4","77,9","0","0"],
    [5493,"2014-09-16T07:00:00","ND","21","6,22","2,7","217,4","22,6","77,6","44,9","0"],
    [5494,"2014-09-16T08:00:00","ND","21","13,68","2,6","151,5","23,4","76,3","135,4","0"],
    [5495,"2014-09-16T09:00:00","ND","22","30,02","2,1","191,8","24,5","69,9","165,3","0"],
    [5496,"2014-09-16T10:00:00","ND","18","49,67","0,9","225,4","25,8","64,3","371,3","0"],
    [5497,"2014-09-16T11:00:00","ND","13","78,87","1,6","189,2","27,7","55,3","375,7","0"],
    [5498,"2014-09-16T12:00:00","ND","17","97,59","1,9","140,1","29,1","51,2","388,6","0"],
    [5499,"2014-09-16T13:00:00","ND","20","109,25","2,9","76,5","30,3","46,5","485,9","0"],
    [5500,"2014-09-16T14:00:00","ND","17","125,47","2,4","13,3","31,7","38,1","462,2","0"],
    [5501,"2014-09-16T15:00:00","ND","16","119,74","1,5","28,6","32,3","35,1","329,9","0"],
    [5502,"2014-09-16T16:00:00","ND","13","90,9","3","302,5","31,8","37,6","120,5","0"],
    [5503,"2014-09-16T17:00:00","ND","13","ND","7,2","285,9","31,8","37,8","140,9","0"],
    [5504,"2014-09-16T18:00:00","ND","ND","ND","6","290,5","31,8","38,8","49,6","0"],
    [5505,"2014-09-16T19:00:00","ND","ND","ND","6,2","60,9","26,2","60,6","0","26,16"],
    [5506,"2014-09-16T20:00:00","ND","ND","ND","5,5","298,4","22,4","77,3","0","0,25"],
    [5507,"2014-09-16T21:00:00","ND","ND","ND","3,2","67,7","23,9","73,6","0","0"],
    [5508,"2014-09-16T22:00:00","ND","ND","ND","1,4","222,6","22,6","76,2","0","0"],
    [5509,"2014-09-16T23:00:00","ND","ND","ND","3,5","228,9","23,5","72,4","0","0"],
    [5510,"2014-09-17T00:00:00","ND","ND","ND","2","169,8","22,6","74,8","0","0"],
    [5511,"2014-09-17T01:00:00","ND","ND","ND","2,5","162,5","22,2","77","0","0"],
    [5512,"2014-09-17T02:00:00","ND","ND","ND","3","169","22","76,8","0","0"],
    [5513,"2014-09-17T03:00:00","ND","ND","ND","1,5","187,1","21,8","76,7","0","0"],
    [5514,"2014-09-17T04:00:00","ND","ND","ND","0,7","199,5","21,3","77,3","0","0"],
    [5515,"2014-09-17T05:00:00","ND","ND","ND","0,8","148","21","79,4","0","0"],
    [5516,"2014-09-17T06:00:00","ND","ND","ND","1,7","113,2","21","80,7","0","0"],
    [5517,"2014-09-17T07:00:00","ND","ND","ND","2","151,4","21","81,6","15,3","0"],
    [5518,"2014-09-17T08:00:00","ND","ND","ND","2","99,6","21,7","81,3","50,4","0"],
    [5519,"2014-09-17T09:00:00","ND","ND","ND","2,6","55,7","23,1","77,5","134,2","0"],
    [5520,"2014-09-17T10:00:00","ND","ND","ND","1,8","348,8","26,2","66,4","312","0"],
    [5521,"2014-09-17T11:00:00","ND","ND","ND","ND","ND","ND","ND","ND","ND"],
    [5522,"2014-09-17T12:00:00","ND","ND","73,33","2,5","18,4","27,5","55","405,8","0"],
    [5523,"2014-09-17T13:00:00","ND","ND","72,02","3,2","57,4","29,2","48,3","402","0"],
    [5524,"2014-09-17T14:00:00","ND","ND","67,72","4,7","77,3","29,7","46,7","244,8","0"],
    [5525,"2014-09-17T15:00:00","ND","3","77,44","3,6","57,9","30,5","44,7","321,1","0"],
    [5526,"2014-09-17T16:00:00","ND","14","65,94","4,7","41","30,5","44,4","120,7","0"],
    [5527,"2014-09-17T17:00:00","ND","11","42,29","4,7","311,5","29,6","44,2","47,4","0"],
    [5528,"2014-09-17T18:00:00","ND","6","35,79","7,6","288,7","28,3","49,2","25,7","0"],
    [5529,"2014-09-17T19:00:00","ND","9","23,37","6,3","309","27","51,9","0","0"],
    [5530,"2014-09-17T20:00:00","ND","15","15,38","2,1","352,6","26,5","53,2","0","0"],
    [5531,"2014-09-17T21:00:00","ND","18","8,24","3,4","73,8","24,3","66","0","0"],
    [5532,"2014-09-17T22:00:00","ND","15","13,76","2,1","277,1","24,6","63,1","0","0"],
    [5533,"2014-09-17T23:00:00","ND","7","14,15","3","207,5","24,3","65,5","0","0"],
    [5534,"2014-09-18T00:00:00","ND","9","11,97","3,3","82,2","23,4","69,3","0","0"],
    [5535,"2014-09-18T01:00:00","ND","6","13,44","1","89,2","23,2","69,6","0","0"],
    [5536,"2014-09-18T02:00:00","ND","8","20,86","2,1","258,6","23,2","69,2","0","0"],
    [5537,"2014-09-18T03:00:00","ND","7","24,1","5,1","201,9","22,8","73,8","0","0"],
    [5538,"2014-09-18T04:00:00","ND","7","26,35","3","145,6","21,8","79,1","0","0"],
    [5539,"2014-09-18T05:00:00","ND","5","21,98","3","157,7","21,5","81,8","0","0"],
    [5540,"2014-09-18T06:00:00","ND","14","12,76","1,8","121,6","21,3","82,5","0","0"],
    [5541,"2014-09-18T07:00:00","ND","22","9,01","1,7","87,6","21,5","82","4,6","0,25"],
    [5542,"2014-09-18T08:00:00","ND","31","10,3","3","46,8","21,4","85,3","24,8","2,29"],
    [5543,"2014-09-18T09:00:00","ND","11","13,07","4","27,1","21,7","86,3","89,4","1,52"],
    [5544,"2014-09-18T10:00:00","ND","7","23,33","4","14,4","22,3","83,1","79,4","0"],
    [5545,"2014-09-18T11:00:00","ND","8","38,82","3,8","31,9","23","76,5","170,1","0"],
    [5546,"2014-09-18T12:00:00","ND","5","50,81","3,4","21,2","24","70,4","249,2","0"],
    [5547,"2014-09-18T13:00:00","ND","8","58,03","3,6","63","25,4","63,9","393,9","0"],
    [5548,"2014-09-18T14:00:00","ND","7","64,82","3,3","107,5","26,4","59","399,1","0"],
    [5549,"2014-09-18T15:00:00","ND","7","77,73","3,1","104,8","28","49,1","375,5","0"],
    [5550,"2014-09-18T16:00:00","ND","6","89,97","2,1","165,8","28,6","45,1","264,6","0"],
    [5551,"2014-09-18T17:00:00","ND","11","72,47","3,1","96","28,8","46,2","127,1","0"],
    [5552,"2014-09-18T18:00:00","ND","25","60,85","2,9","58","28,5","48,7","13,7","0"],
    [5553,"2014-09-18T19:00:00","ND","32","37,15","2,8","28,7","27,6","53,8","0","0"],
    [5554,"2014-09-18T20:00:00","ND","25","7,87","2,7","311,9","26,8","56,7","0","0"],
    [5555,"2014-09-18T21:00:00","ND","29","8,22","0,8","114,2","25,6","62,8","0","0"],
    [5556,"2014-09-18T22:00:00","ND","37","8,56","3,1","63,6","24,3","70,7","0","0"],
    [5557,"2014-09-18T23:00:00","ND","48","14,42","2","16","24,4","68,2","0","0"],
    [5558,"2014-09-19T00:00:00","ND","24","16,07","1,4","40,4","23,9","69,8","0","0"],
    [5559,"2014-09-19T01:00:00","ND","22","16,7","2,1","113,9","23,3","72,9","0","0"],
    [5560,"2014-09-19T02:00:00","ND","25","12,6","1,5","215,8","22,7","75,8","0","0"],
    [5561,"2014-09-19T03:00:00","ND","28","14,03","0,3","105,6","23,1","74,3","0","0"],
    [5562,"2014-09-19T04:00:00","ND","36","11,05","1,6","145,6","22,9","76,4","0","0"],
    [5563,"2014-09-19T05:00:00","ND","32","9,58","1,5","153,6","22,3","78,5","0","0"],
    [5564,"2014-09-19T06:00:00","ND","53","6,28","0,8","71,5","22,6","78","0","0"],
    [5565,"2014-09-19T07:00:00","ND","60","6,77","1,9","90,3","22,5","80,2","26,8","0"],
    [5566,"2014-09-19T08:00:00","ND","60","8,36","4","111,8","22,6","81","83,3","0"],
    [5567,"2014-09-19T09:00:00","ND","60","ND","0,9","162,6","25","73","190,3","0"],
    [5568,"2014-09-19T10:00:00","ND","ND","ND","1,3","248,8","29,2","51,9","325,7","0"],
    [5569,"2014-09-19T11:00:00","ND","ND","94,8","2,2","132,5","28,9","50,2","358,6","0"],
    [5570,"2014-09-19T12:00:00","ND","79","116,78","2,5","55,8","28,8","50,4","375,4","0"],
    [5571,"2014-09-19T13:00:00","ND","64","106,24","5,3","76,7","30,2","45,2","466,8","0"],
    [5572,"2014-09-19T14:00:00","ND","61","ND","4,2","74,5","31,1","41,1","430,9","0"],
    [5573,"2014-09-19T15:00:00","ND","51","ND","5,7","83,5","30,5","42,8","190,3","0"],
    [5574,"2014-09-19T16:00:00","ND","27","ND","5,2","296,6","30","44,3","194,3","0"],
    [5575,"2014-09-19T17:00:00","ND","38","ND","8","288,6","29,4","44,2","153,2","0"],
    [5576,"2014-09-19T18:00:00","ND","10","ND","6,5","310,5","28","47,2","14,6","0"],
    [5577,"2014-09-19T19:00:00","ND","19","ND","2,4","8","27,1","51,4","0","0"],
    [5578,"2014-09-19T20:00:00","ND","24","ND","3,3","136,1","25,5","62","0","0"],
    [5579,"2014-09-19T21:00:00","ND","10","ND","5,5","192,4","23,8","72,7","0","0"],
    [5580,"2014-09-19T22:00:00","ND","11","ND","6,5","194,4","23,2","76,8","0","0"],
    [5581,"2014-09-19T23:00:00","ND","11","ND","3,5","183,7","22,5","79,8","0","0"],
    [5582,"2014-09-20T00:00:00","ND","14","ND","3,4","193,7","22,2","81,6","0","0"],
    [5583,"2014-09-20T01:00:00","ND","12","ND","3,3","191,5","21,8","84,3","0","0,25"],
    [5584,"2014-09-20T02:00:00","ND","11","ND","1,5","147,3","21,7","85,9","0","0"],
    [5585,"2014-09-20T03:00:00","ND","10","ND","2,8","94,7","21,3","87,3","0","0"],
    [5586,"2014-09-20T04:00:00","ND","11","ND","2,7","93","21,2","88,6","0","0,25"],
    [5587,"2014-09-20T05:00:00","ND","21","ND","2,5","347,7","21,5","87,1","0","0"],
    [5588,"2014-09-20T06:00:00","ND","22","ND","3,2","55,1","21,5","87,5","0","0"],
    [5589,"2014-09-20T07:00:00","ND","29","ND","2,9","69,7","21,4","88,7","0","0,25"],
    [5590,"2014-09-20T08:00:00","ND","22","ND","1,4","339","21,5","87,8","10,1","18,29"],
    [5591,"2014-09-20T09:00:00","ND","24","ND","0,4","269,3","21,3","87,5","22,9","27,94"],
    [5592,"2014-09-20T10:00:00","ND","14","ND","3,3","58,9","20,6","87,6","34","9,14"],
    [5593,"2014-09-20T11:00:00","ND","10","ND","3","95","20,7","87,2","50,7","4,32"],
    [5594,"2014-09-20T12:00:00","ND","5","ND","2,9","97,7","21,5","83,6","187,7","0,76"],
    [5595,"2014-09-20T13:00:00","ND","5","ND","1,1","133,6","23,4","72,6","298,5","0"],
    [5596,"2014-09-20T14:00:00","ND","10","ND","1,5","186,2","24,2","68","187,4","0"],
    [5597,"2014-09-20T15:00:00","ND","15","ND","2,9","223,4","24,7","69,6","200,1","0"],
    [5598,"2014-09-20T16:00:00","ND","9","ND","2,9","192,9","25,4","66,5","178,1","0"],
    [5599,"2014-09-20T17:00:00","ND","15","ND","1,9","190,2","25,7","64,3","70,7","0"],
    [5600,"2014-09-20T18:00:00","ND","15","ND","3,1","151,4","25,6","65,4","24,6","0"],
    [5601,"2014-09-20T19:00:00","ND","23","ND","1,9","170,1","25","69,3","0","0"],
    [5602,"2014-09-20T20:00:00","ND","27","ND","1,6","200,9","24,6","69,5","0","0"],
    [5603,"2014-09-20T21:00:00","ND","20","ND","2,5","88,7","24","76","0","0"],
    [5604,"2014-09-20T22:00:00","ND","20","ND","1","29,2","23,6","79,4","0","0"],
    [5605,"2014-09-20T23:00:00","ND","31","ND","0,9","169,4","23,7","77,1","0","0"],
    [5606,"2014-09-21T00:00:00","ND","27","ND","2,4","199,6","23,2","79,2","0","0"],
    [5607,"2014-09-21T01:00:00","ND","21","ND","2,3","167,7","22,7","80,2","0","0"],
    [5608,"2014-09-21T02:00:00","ND","11","ND","1,5","176,3","22,1","83,6","0","0"],
    [5609,"2014-09-21T03:00:00","ND","9","ND","2,3","112","21,7","84,9","0","0"],
    [5610,"2014-09-21T04:00:00","ND","21","ND","0,9","169,2","21,7","86","0","0"],
    [5611,"2014-09-21T05:00:00","ND","14","ND","1,8","104,9","21,6","85,9","0","0"],
    [5612,"2014-09-21T06:00:00","ND","16","ND","1,6","17,6","21,3","88,4","0","0"],
    [5613,"2014-09-21T07:00:00","ND","30","ND","2","18,5","21,5","87,7","13","0"],
    [5614,"2014-09-21T08:00:00","ND","19","ND","2,2","62,3","22,2","84,6","57,3","0"],
    [5615,"2014-09-21T09:00:00","ND","24","ND","1,3","341,7","23,2","80,2","142,9","0"],
    [5616,"2014-09-21T10:00:00","ND","22","ND","3,1","62,1","24,9","71,6","311,7","0"],
    [5617,"2014-09-21T11:00:00","ND","16","ND","3,3","92,7","26,5","63,1","328","0"],
    [5618,"2014-09-21T12:00:00","ND","14","ND","2,8","85,4","27,8","56,9","474,3","0"],
    [5619,"2014-09-21T13:00:00","ND","10","ND","2,3","15,6","28,9","48,6","495,9","0"],
    [5620,"2014-09-21T14:00:00","ND","9","ND","2,7","77,8","30,3","42,7","429,4","0"],
    [5621,"2014-09-21T15:00:00","ND","10","ND","2,6","71,5","31,1","37,5","375,3","0"],
    [5622,"2014-09-21T16:00:00","ND","10","ND","3,5","62,6","32,9","34,9","234,8","0"],
    [5623,"2014-09-21T17:00:00","ND","ND","ND","5","26,7","32,3","40,4","59,7","0"],
    [5624,"2014-09-21T18:00:00","ND","ND","ND","3,6","342,8","29,3","49,7","8,4","0"],
    [5625,"2014-09-21T19:00:00","ND","ND","ND","3,1","3,2","27,5","55,5","0","0"],
    [5626,"2014-09-21T20:00:00","ND","ND","ND","3,2","79,2","26,1","61,3","0","0"],
    [5627,"2014-09-21T21:00:00","ND","ND","ND","3,1","70,2","25","66","0","0"],
    [5628,"2014-09-21T22:00:00","ND","ND","ND","2,1","52,1","24,2","68,9","0","0"],
    [5629,"2014-09-21T23:00:00","ND","ND","ND","1,8","180,2","23,9","71,1","0","0"],
    [5630,"2014-09-22T00:00:00","ND","ND","ND","2,1","87,9","23,5","72,6","0","0"],
    [5631,"2014-09-22T01:00:00","ND","ND","ND","1","45,3","23,2","74,2","0","0"],
    [5632,"2014-09-22T02:00:00","ND","ND","ND","1,8","130,3","23,1","74,6","0","0"],
    [5633,"2014-09-22T03:00:00","ND","ND","ND","0,6","93,8","22,8","75,5","0","0"],
    [5634,"2014-09-22T04:00:00","ND","ND","ND","2,3","222,6","22,9","76,4","0","0"],
    [5635,"2014-09-22T05:00:00","ND","ND","ND","2,2","190,2","22,6","79","0","0,76"],
    [5636,"2014-09-22T06:00:00","ND","ND","ND","5,2","184,7","21,6","81,9","0","31,24"],
    [5637,"2014-09-22T07:00:00","ND","ND","ND","3,8","193,5","20,1","84,5","0","11,68"],
    [5638,"2014-09-22T08:00:00","ND","ND","ND","2,1","153,9","20,3","85,6","12,8","10,16"],
    [5639,"2014-09-22T09:00:00","ND","ND","ND","1,7","171,6","20,7","86,3","58,8","4,83"],
    [5640,"2014-09-22T10:00:00","ND","ND","ND","3,2","236,6","22,4","86,5","260,6","0,51"],
    [5641,"2014-09-22T11:00:00","ND","ND","ND","3,5","243,1","25,4","74,6","419,8","0"],
    [5642,"2014-09-22T12:00:00","ND","ND","ND","1,5","133,7","29","51,5","471,4","0"],
    [5643,"2014-09-22T13:00:00","ND","ND","ND","2,6","114,5","31,3","42,1","495,5","0"],
    [5644,"2014-09-22T14:00:00","ND","ND","ND","4,3","78,9","32,2","39,4","366,1","0"],
    [5645,"2014-09-22T15:00:00","ND","ND","ND","5,7","82,3","29","51,5","184,7","0,25"],
    [5646,"2014-09-22T16:00:00","ND","ND","58,16","5,4","57,2","27,8","53,9","85,9","0"],
    [5647,"2014-09-22T17:00:00","ND","ND","35,24","3,3","79,3","24,8","64,9","10,6","0"],
    [5648,"2014-09-22T18:00:00","ND","ND","35,17","5,2","209,9","22,4","80","0","2,54"],
    [5649,"2014-09-22T19:00:00","ND","ND","40,99","6,3","212,5","21,1","85,9","0","0"],
    [5650,"2014-09-22T20:00:00","ND","4","30,69","2,6","166,3","20,7","86,3","0","7,37"],
    [5651,"2014-09-22T21:00:00","ND","6","15,99","2,2","82,2","20,5","87,8","0","4,57"],
    [5652,"2014-09-22T22:00:00","ND","6","13,32","2","316,2","20,4","88,3","0","0,51"],
    [5653,"2014-09-22T23:00:00","ND","11","4,67","1,2","179,8","21","85","0","0"],
    [5654,"2014-09-23T00:00:00","ND","6","15,68","2,8","141,6","20,2","88,8","0","0"],
    [5655,"2014-09-23T01:00:00","ND","7","20,86","1,2","79,8","20,1","87,8","0","0"],
    [5656,"2014-09-23T02:00:00","ND","17","21,04","0,7","26","20","87,4","0","0"],
    [5657,"2014-09-23T03:00:00","ND","11","19,43","0,7","272","19,9","87,6","0","0"],
    [5658,"2014-09-23T04:00:00","ND","13","7,73","1,3","96,4","19,8","88,8","0","0"],
    [5659,"2014-09-23T05:00:00","ND","15","6,99","1,2","72,5","19,4","90,1","0","0"],
    [5660,"2014-09-23T06:00:00","ND","20","5,24","2,3","150,2","19,4","89,8","0","0"],
    [5661,"2014-09-23T07:00:00","ND","22","3,92","2,8","139,4","18,9","91,5","7,9","0"],
    [5662,"2014-09-23T08:00:00","ND","26","5,44","1,8","167,5","19,3","91","20","0"],
    [5663,"2014-09-23T09:00:00","ND","27","10,99","2,9","170,2","20,1","87,7","74,6","0"],
    [5664,"2014-09-23T10:00:00","ND","28","19,94","3","117,8","21","81,8","143,3","0"],
    [5665,"2014-09-23T11:00:00","ND","25","42,05","0,4","107","22,4","75,3","317,1","0"],
    [5666,"2014-09-23T12:00:00","ND","30","73,14","1,9","51,6","24,5","66,7","484,1","0"],
    [5667,"2014-09-23T13:00:00","ND","14","78,12","2,1","63,1","26,6","54,5","486,6","0"],
    [5668,"2014-09-23T14:00:00","ND","9","83,18","1,8","95,3","28,1","49,7","469,5","0"],
    [5669,"2014-09-23T15:00:00","ND","9","ND","1,9","88,9","30","46","359,6","0"],
    [5670,"2014-09-23T16:00:00","ND","ND","ND","3,4","91,4","32,3","39,9","172,4","0"],
    [5671,"2014-09-23T17:00:00","ND","ND","ND","2,9","302,9","31,2","42,6","68,5","0"],
    [5672,"2014-09-23T18:00:00","ND","ND","ND","7,2","289,1","29,1","49","14,5","0"],
    [5673,"2014-09-23T19:00:00","ND","ND","ND","5,3","302,2","27,7","54,1","0","0"],
    [5674,"2014-09-23T20:00:00","ND","ND","ND","4,7","303,4","27,2","55,5","0","0"],
    [5675,"2014-09-23T21:00:00","ND","ND","ND","0,9","67,8","26,4","60,2","0","0"],
    [5676,"2014-09-23T22:00:00","ND","ND","ND","2,9","98,6","24,8","70,3","0","0"],
    [5677,"2014-09-23T23:00:00","ND","ND","ND","3,2","67,2","24","74,2","0","0"],
    [5678,"2014-09-24T00:00:00","ND","ND","ND","2","15,4","23,4","74","0","0"],
    [5679,"2014-09-24T01:00:00","ND","ND","ND","2,6","90,1","23,4","73,6","0","0"],
    [5680,"2014-09-24T02:00:00","ND","ND","ND","2","154,1","23,1","74,8","0","0"],
    [5681,"2014-09-24T03:00:00","ND","ND","ND","2,7","172,1","23,2","76","0","0"],
    [5682,"2014-09-24T04:00:00","ND","ND","ND","1,8","195,3","22,9","78,3","0","0"],
    [5683,"2014-09-24T05:00:00","ND","ND","ND","1,7","116,2","22,6","79,9","0","0"],
    [5684,"2014-09-24T06:00:00","ND","ND","ND","1,7","56,2","22,3","81,3","0","0"],
    [5685,"2014-09-24T07:00:00","ND","ND","ND","1,1","324,6","22","82,3","18,1","0"],
    [5686,"2014-09-24T08:00:00","ND","ND","ND","1,4","212,9","23,9","82,3","142,5","0"],
    [5687,"2014-09-24T09:00:00","ND","ND","ND","1,4","168,3","27,4","63,8","273,8","0"],
    [5688,"2014-09-24T10:00:00","ND","ND","ND","3,1","124,9","29,8","50,8","360,4","0"],
    [5689,"2014-09-24T11:00:00","ND","ND","ND","2,7","148,9","30,9","45,1","367,7","0"],
    [5690,"2014-09-24T12:00:00","ND","ND","ND","1,5","132,9","31,7","42,8","375,8","0"],
    [5691,"2014-09-24T13:00:00","ND","ND","ND","3","56,5","33,4","38,2","467,4","0"],
    [5692,"2014-09-24T14:00:00","ND","ND","ND","4,1","63,9","33,9","37,1","338,1","0"],
    [5693,"2014-09-24T15:00:00","ND","ND","ND","4,9","75,6","33,6","37,2","269,2","0"],
    [5694,"2014-09-24T16:00:00","ND","ND","ND","2,4","54,7","33,8","37,2","154,2","0"],
    [5695,"2014-09-24T17:00:00","ND","ND","ND","3,3","84,7","33,4","37,8","121,6","0"],
    [5696,"2014-09-24T18:00:00","ND","ND","ND","2,9","339,8","32,5","40","30,8","0"],
    [5697,"2014-09-24T19:00:00","ND","ND","ND","5,5","293,7","29,4","48,2","0","0"],
    [5698,"2014-09-24T20:00:00","ND","ND","ND","1,5","324,7","27,8","53,7","0","0"],
    [5699,"2014-09-24T21:00:00","ND","ND","ND","2,8","122","25,8","64,8","0","0"],
    [5700,"2014-09-24T22:00:00","ND","ND","ND","2,5","89,8","24,7","69,9","0","0"],
    [5701,"2014-09-24T23:00:00","ND","ND","ND","2,2","79,1","24,3","71,8","0","0"],
    [5702,"2014-09-25T00:00:00","ND","ND","ND","2,3","92,2","24,1","72,2","0","0"],
    [5703,"2014-09-25T01:00:00","ND","ND","ND","1,5","183,2","23,5","74,8","0","0"],
    [5704,"2014-09-25T02:00:00","ND","ND","ND","2,9","235,4","23,5","76,5","0","0"],
    [5705,"2014-09-25T03:00:00","ND","ND","ND","2,5","195","23,6","75,8","0","0"],
    [5706,"2014-09-25T04:00:00","ND","ND","ND","1,3","138,3","23,4","76,2","0","0"],
    [5707,"2014-09-25T05:00:00","ND","ND","ND","0,7","160,7","22,7","78","0","0"],
    [5708,"2014-09-25T06:00:00","ND","ND","ND","3","206,1","22,7","79,7","0","0"],
    [5709,"2014-09-25T07:00:00","ND","ND","ND","3,2","151,6","23","79","16,6","0"],
    [5710,"2014-09-25T08:00:00","ND","ND","ND","1,6","2,3","23","79,2","21,4","0"],
    [5711,"2014-09-25T09:00:00","ND","ND","ND","3,6","312,6","23,7","73,7","77,8","0"],
    [5712,"2014-09-25T10:00:00","ND","ND","ND","2,5","64,5","26,3","59,8","176,4","0"],
    [5713,"2014-09-25T11:00:00","ND","ND","ND","4,2","89,3","27,1","58,5","182,7","0"],
    [5714,"2014-09-25T12:00:00","ND","ND","61,62","2,8","92,7","27,2","55,5","338,7","0"],
    [5715,"2014-09-25T13:00:00","ND","ND","95","0,7","39,7","28,7","49,7","382,4","0"],
    [5716,"2014-09-25T14:00:00","ND","4","85,21","4,3","39,9","29,6","44,9","256,1","0"],
    [5717,"2014-09-25T15:00:00","ND","2","62,54","6,4","323","29,7","41,6","242,2","0"],
    [5718,"2014-09-25T16:00:00","ND","ND","59,13","3,8","23,1","29,8","41,1","158,7","0"],
    [5719,"2014-09-25T17:00:00","ND","1","49,73","5,9","301,7","28,6","45,4","66,2","0"],
    [5720,"2014-09-25T18:00:00","ND","6","26,57","2,5","1,7","27,5","51,7","16,9","0"],
    [5721,"2014-09-25T19:00:00","ND","15","15,5","3,6","21,4","26,2","56,5","0","0"],
    [5722,"2014-09-25T20:00:00","ND","24","10,3","2,5","50,6","24,9","62,8","0","0"],
    [5723,"2014-09-25T21:00:00","ND","19","13,17","2,8","92,2","23,6","66,3","0","0"],
    [5724,"2014-09-25T22:00:00","ND","15","19,27","0,7","305,8","23,7","62,1","0","0"],
    [5725,"2014-09-25T23:00:00","ND","17","6,81","1,2","212,3","23,3","68,1","0","0"],
    [5726,"2014-09-26T00:00:00","ND","14","6,22","2,3","199,2","22,8","71,8","0","0"],
    [5727,"2014-09-26T01:00:00","ND","13","4,43","2,8","105,9","21,8","77,5","0","0"],
    [5728,"2014-09-26T02:00:00","ND","23","4,53","1,2","78,4","20,7","80,4","0","0"],
    [5729,"2014-09-26T03:00:00","ND","24","8,6","0,9","41,6","20,9","77,4","0","0"],
    [5730,"2014-09-26T04:00:00","ND","18","ND","1,8","85,6","20,1","79,9","0","0"],
    [5731,"2014-09-26T05:00:00","ND","20","ND","1,3","147,1","19,9","80,2","0","0"],
    [5732,"2014-09-26T06:00:00","ND","27","ND","1,9","178,7","20,1","79,5","0","0"],
    [5733,"2014-09-26T07:00:00","ND","30","ND","1,7","199,6","20,3","80,8","36,2","0"],
    [5734,"2014-09-26T08:00:00","ND","27","ND","2,1","198,8","22","73,7","145,4","0"],
    [5735,"2014-09-26T09:00:00","ND","16","ND","2,5","176,3","23,9","66,8","263,8","0"],
    [5736,"2014-09-26T10:00:00","ND","19","ND","1,6","165,7","25,6","59,9","374,2","0"],
    [5737,"2014-09-26T11:00:00","ND","23","ND","3,7","101,9","27,2","53,1","448,6","0"],
    [5738,"2014-09-26T12:00:00","ND","15","ND","1,9","66,9","28,7","47,1","476,2","0"],
    [5739,"2014-09-26T13:00:00","ND","22","ND","2,7","19,5","29,9","42,5","369,3","0"],
    [5740,"2014-09-26T14:00:00","ND","26","ND","3,1","61,2","31","39,2","306,4","0"],
    [5741,"2014-09-26T15:00:00","ND","17","ND","3,6","55,6","31,7","37,6","350","0"],
    [5742,"2014-09-26T16:00:00","ND","9","ND","2,9","27,5","31,6","38,1","209,8","0"],
    [5743,"2014-09-26T17:00:00","ND","9","ND","6,8","294","32,2","36,6","157,9","0"],
    [5744,"2014-09-26T18:00:00","ND","ND","ND","5,7","289,7","31,1","39,2","33,4","0"],
    [5745,"2014-09-26T19:00:00","ND","ND","ND","3,2","329,6","28,5","46,9","0","0"],
    [5746,"2014-09-26T20:00:00","ND","ND","ND","2","55,1","27","53,5","0","0"],
    [5747,"2014-09-26T21:00:00","ND","ND","ND","2,4","70","25,5","60,6","0","0"],
    [5748,"2014-09-26T22:00:00","ND","ND","ND","1,8","75,2","24,4","65,6","0","0"],
    [5749,"2014-09-26T23:00:00","ND","ND","ND","2,6","102,5","23,7","68,5","0","0"],
    [5750,"2014-09-27T00:00:00","ND","ND","ND","3,9","82,8","23","71,9","0","0"],
    [5751,"2014-09-27T01:00:00","ND","ND","ND","2","80","22,3","74,9","0","0"],
    [5752,"2014-09-27T02:00:00","ND","ND","ND","1,4","81,3","22,1","76,1","0","0"],
    [5753,"2014-09-27T03:00:00","ND","ND","ND","0,8","270","21,5","77,1","0","0"],
    [5754,"2014-09-27T04:00:00","ND","ND","ND","1,2","200,7","21,5","79","0","0"],
    [5755,"2014-09-27T05:00:00","ND","ND","ND","2","120,1","22,1","78,5","0","0"],
    [5756,"2014-09-27T06:00:00","ND","ND","ND","0,4","259,7","21,7","77,8","0","0"],
    [5757,"2014-09-27T07:00:00","ND","ND","ND","1,6","117,3","21,6","79,1","13,8","0"],
    [5758,"2014-09-27T08:00:00","ND","ND","ND","2,1","175,7","23,8","75,7","131,6","0"],
    [5759,"2014-09-27T09:00:00","ND","ND","ND","2,6","153,5","27","60,8","253,7","0"],
    [5760,"2014-09-27T10:00:00","ND","ND","ND","2,3","148,1","29,7","50,1","370,2","0"],
    [5761,"2014-09-27T11:00:00","ND","ND","ND","1,8","123,9","31,7","43,2","456,1","0"],
    [5762,"2014-09-27T12:00:00","ND","ND","ND","1,9","13,6","33","38,8","481,7","0"],
    [5763,"2014-09-27T13:00:00","ND","ND","ND","2","57,9","34,1","35,2","475","0"],
    [5764,"2014-09-27T14:00:00","ND","ND","ND","2,6","35","35,3","33,1","435,6","0"],
    [5765,"2014-09-27T15:00:00","ND","ND","ND","5","27","35,3","33,9","289,5","0"],
    [5766,"2014-09-27T16:00:00","ND","ND","ND","7,4","304,7","34,1","35,6","246,8","0"],
    [5767,"2014-09-27T17:00:00","ND","ND","ND","8,4","294,6","32,6","37,9","133,8","0"],
    [5768,"2014-09-27T18:00:00","ND","ND","ND","7,9","300,5","30,6","41,7","32,2","0"],
    [5769,"2014-09-27T19:00:00","ND","ND","ND","4,1","321,3","28,9","48,2","0","0"],
    [5770,"2014-09-27T20:00:00","ND","ND","ND","2,9","120,4","27,8","55,4","0","0"],
    [5771,"2014-09-27T21:00:00","ND","ND","ND","4,1","109,2","27,1","59,2","0","0"],
    [5772,"2014-09-27T22:00:00","ND","ND","ND","2,7","56,7","26","65,2","0","0"],
    [5773,"2014-09-27T23:00:00","ND","ND","ND","3,3","15,9","24,8","69,5","0","0"],
    [5774,"2014-09-28T00:00:00","ND","ND","ND","2,5","61","23,7","74,9","0","0,25"],
    [5775,"2014-09-28T01:00:00","ND","ND","ND","2","80,2","22,9","78,5","0","0"],
    [5776,"2014-09-28T02:00:00","ND","ND","ND","1,3","115,1","22,5","79,8","0","0"],
    [5777,"2014-09-28T03:00:00","ND","ND","ND","1,3","181,1","22,2","80,6","0","0"],
    [5778,"2014-09-28T04:00:00","ND","ND","ND","2,9","140,3","22","80,4","0","0"],
    [5779,"2014-09-28T05:00:00","ND","ND","ND","2,5","231,3","21,6","80,5","0","0"],
    [5780,"2014-09-28T06:00:00","ND","ND","ND","1","106,3","21,3","81,5","0","0"],
    [5781,"2014-09-28T07:00:00","ND","ND","ND","2,2","107,4","21,6","83","44,4","0"],
    [5782,"2014-09-28T08:00:00","ND","ND","ND","1,2","245,7","24,3","78,1","158,4","0"],
    [5783,"2014-09-28T09:00:00","ND","ND","ND","1,6","2,3","27,7","60,2","268,4","0"],
    [5784,"2014-09-28T10:00:00","ND","ND","ND","3,3","66,7","29,5","52,7","369,6","0"],
    [5785,"2014-09-28T11:00:00","ND","ND","ND","4,1","83,5","30,8","48,1","447,3","0"],
    [5786,"2014-09-28T12:00:00","ND","ND","ND","2,6","56,1","32,6","41,5","483,7","0"],
    [5787,"2014-09-28T13:00:00","ND","ND","ND","3,3","29,2","34,1","38","482,9","0"],
    [5788,"2014-09-28T14:00:00","ND","ND","108,89","4,3","32","32,6","38,9","443,8","0"],
    [5789,"2014-09-28T15:00:00","ND","ND","89,46","3,2","73,5","32,8","36,6","303","0"],
    [5790,"2014-09-28T16:00:00","ND","3","78,99","1,8","351,4","32,8","37","238,6","0"],
    [5791,"2014-09-28T17:00:00","ND","3","ND","7,7","293,6","31,6","40,1","114,6","0"],
    [5792,"2014-09-28T18:00:00","ND","4","ND","5,9","298,2","29,8","45,1","8,9","0"],
    [5793,"2014-09-28T19:00:00","ND","4","ND","3,5","308,6","28,8","48,8","0","0"],
    [5794,"2014-09-28T20:00:00","ND","18","ND","3,5","83,3","26,8","59,4","0","0"],
    [5795,"2014-09-28T21:00:00","ND","14","ND","2,5","98,6","26,1","62,9","0","0"],
    [5796,"2014-09-28T22:00:00","ND","11","ND","0,9","96,3","26,4","62,3","0","0"],
    [5797,"2014-09-28T23:00:00","ND","7","ND","2","110,6","25,7","64,8","0","0"],
    [5798,"2014-09-29T00:00:00","ND","7","ND","2,2","102,7","24,5","70,8","0","0"],
    [5799,"2014-09-29T01:00:00","ND","8","ND","0,6","298,3","24,5","70,1","0","0"],
    [5800,"2014-09-29T02:00:00","ND","14","ND","2,8","120,1","24,1","72,8","0","0"],
    [5801,"2014-09-29T03:00:00","ND","12","ND","1,4","191,5","23,7","73,9","0","0"],
    [5802,"2014-09-29T04:00:00","ND","11","ND","1,7","111,6","23,4","75,2","0","0"],
    [5803,"2014-09-29T05:00:00","ND","23","ND","2,7","122,2","22,6","78,5","0","0"],
    [5804,"2014-09-29T06:00:00","ND","15","ND","2,8","198,3","22,2","79,3","0","0"],
    [5805,"2014-09-29T07:00:00","ND","23","ND","2,6","182,1","22,3","80,8","37,4","0"],
    [5806,"2014-09-29T08:00:00","ND","26","ND","3,5","163,6","23,9","73","132,5","0"],
    [5807,"2014-09-29T09:00:00","ND","10","ND","3,2","152,2","25,4","62,4","265,5","0"],
    [5808,"2014-09-29T10:00:00","ND","12","ND","2,9","177,1","27,2","57,6","391,5","0"],
    [5809,"2014-09-29T11:00:00","ND","17","ND","2,2","151,4","28,7","52,7","450,3","0"],
    [5810,"2014-09-29T12:00:00","ND","17","ND","1,5","96,5","30,2","45,6","490,6","0"],
    [5811,"2014-09-29T13:00:00","ND","15","ND","2,2","41","31,8","39,6","499,6","0"],
    [5812,"2014-09-29T14:00:00","ND","13","ND","2,4","159,9","33,2","33,1","469,1","0"],
    [5813,"2014-09-29T15:00:00","ND","13","ND","5,1","279,3","32,8","35,9","224,1","0"],
    [5814,"2014-09-29T16:00:00","ND","13","85,66","7,1","301,7","31,9","39,5","221,1","0"],
    [5815,"2014-09-29T17:00:00","ND","9","70,25","6,5","323,9","31,1","39,3","130,6","0"],
    [5816,"2014-09-29T18:00:00","ND","13","39,33","4,4","349","29,7","43,2","18,1","0"],
    [5817,"2014-09-29T19:00:00","ND","17","20,33","3,5","16,4","27,9","49,8","0","0"],
    [5818,"2014-09-29T20:00:00","ND","18","13,32","2","63,2","27,1","52,4","0","0"],
    [5819,"2014-09-29T21:00:00","ND","28","11,6","4,8","106,9","25,3","62,3","0","0"],
    [5820,"2014-09-29T22:00:00","ND","8","11,81","3,8","66,9","23,9","69,4","0","0"],
    [5821,"2014-09-29T23:00:00","ND","10","18,64","0,5","132,2","24,1","67,1","0","0"],
    [5822,"2014-09-30T00:00:00","ND","11","14,03","1,9","190,8","23,8","69","0","0"],
    [5823,"2014-09-30T01:00:00","ND","36","6,97","1,2","207,7","23,3","72,3","0","0"],
    [5824,"2014-09-30T02:00:00","ND","22","5,71","0,7","75,1","23,1","73,8","0","0"],
    [5825,"2014-09-30T03:00:00","ND","27","3,08","2,4","88,1","21,5","79,8","0","0"],
    [5826,"2014-09-30T04:00:00","ND","11","2,28","0,8","155,1","20,8","82,7","0","0"],
    [5827,"2014-09-30T05:00:00","ND","11","2,94","1,2","192,4","21,4","80,5","0","0"],
    [5828,"2014-09-30T06:00:00","ND","27","2,87","2,7","113,6","20,4","83,7","0","0"],
    [5829,"2014-09-30T07:00:00","ND","31","3,47","1,6","143,3","20,4","84,1","29,9","0"],
    [5830,"2014-09-30T08:00:00","ND","31","7,1","1,1","143,4","21,4","79,8","141,6","0"],
    [5831,"2014-09-30T09:00:00","ND","28","30,95","1,5","86,2","24,3","68","280,8","0"],
    [5832,"2014-09-30T10:00:00","ND","32","59,36","2,2","82,6","26,4","60","365,1","0"],
    [5833,"2014-09-30T11:00:00","ND","13","86,01","1,6","68","27,9","52,3","402,1","0"],
    [5834,"2014-09-30T12:00:00","ND","13","103,87","2,6","199,1","29,7","43,4","446,7","0"],
    [5835,"2014-09-30T13:00:00","ND","13","110,68","1,1","147,4","31,2","37","389,4","0"],
    [5836,"2014-09-30T14:00:00","ND","11","105,81","2,2","144,8","32,9","30,7","449,2","0"],
    [5837,"2014-09-30T15:00:00","ND","16","97,75","3,3","225,3","34","24,8","387,2","0"],
    [5838,"2014-09-30T16:00:00","ND","5","94,41","3","224,3","34,6","20,8","269,9","0"],
    [5839,"2014-09-30T17:00:00","ND","5","83,24","6,6","291","33,4","30,5","139,2","0"],
    [5840,"2014-09-30T18:00:00","ND","9","55,22","5,7","300,6","31,4","36,5","23","0"],
    [5841,"2014-09-30T19:00:00","ND","22","24,31","3,5","346,6","29,2","44,9","0","0"],
    [5842,"2014-09-30T20:00:00","ND","11","24,88","2,7","311,9","28,6","46,4","0","0"],
    [5843,"2014-09-30T21:00:00","ND","22","15,93","3,9","117,7","25,7","61,9","0","0"],
    [5844,"2014-09-30T22:00:00","ND","14","18,25","4,1","119,2","24,8","67,1","0","0"],
    [5845,"2014-09-30T23:00:00","ND","16","18,15","2,6","111,1","24,5","68","0","0"],
    [5846,"2014-10-01T00:00:00","ND","11","18,27","2,2","87,6","23,9","70,8","0","0"],
    [5847,"2014-10-01T01:00:00","ND","11","19","1,4","138,7","23,6","72","0","0"],
    [5848,"2014-10-01T02:00:00","ND","32","15,25","3,3","127,1","23,1","72,4","0","0"],
    [5849,"2014-10-01T03:00:00","ND","26","13,97","1,7","183,2","22,4","74,9","0","0"],
    [5850,"2014-10-01T04:00:00","ND","20","18,19","2,1","171,7","22,3","73,2","0","0"],
    [5851,"2014-10-01T05:00:00","ND","18","5,59","1,1","136,6","21,2","79","0","0"],
    [5852,"2014-10-01T06:00:00","ND","30","5,69","2,3","131,8","21,1","77,8","0","0"],
    [5853,"2014-10-01T07:00:00","ND","38","8,61","1,7","169,9","20,7","76,1","30,4","0"],
    [5854,"2014-10-01T08:00:00","ND","38","13,8","2,7","105,4","22,8","70,6","146,6","0"],
    [5855,"2014-10-01T09:00:00","ND","26","43,55","1,9","112,8","25","64,1","264,1","0"],
    [5856,"2014-10-01T10:00:00","ND","19","77,87","1,7","103,7","26,8","57,1","368,5","0"],
    [5857,"2014-10-01T11:00:00","ND","18","94,74","2,8","76,1","28,5","51","446,4","0"],
    [5858,"2014-10-01T12:00:00","ND","21","118,76","3,1","83,9","30,2","45,6","498,6","0"],
    [5859,"2014-10-01T13:00:00","ND","19","115,39","2,6","83,3","31,6","38,2","385,9","0"],
    [5860,"2014-10-01T14:00:00","ND","15","108,44","2,8","116,4","32,4","35,8","425,6","0"],
    [5861,"2014-10-01T15:00:00","ND","12","110,97","3,3","142,3","33,2","31","381,6","0"],
    [5862,"2014-10-01T16:00:00","ND","16","110,25","3,4","141,4","33,6","28,7","240,1","0"],
    [5863,"2014-10-01T17:00:00","ND","17","93,06","2,2","104,5","33,5","26,4","137","0"],
    [5864,"2014-10-01T18:00:00","ND","17","67,43","4,8","302,7","31,9","37","27,3","0"],
    [5865,"2014-10-01T19:00:00","ND","22","38,85","3,9","319,9","29,8","42,7","0","0"],
    [5866,"2014-10-01T20:00:00","ND","51","23,02","1,6","54,5","28,1","50,2","0","0"],
    [5867,"2014-10-01T21:00:00","ND","54","10,81","3","84,5","26,1","60,4","0","0"],
    [5868,"2014-10-01T22:00:00","ND","35","12,52","3","100","25,5","64","0","0"],
    [5869,"2014-10-01T23:00:00","ND","20","18,52","4,3","90,2","24,9","66,4","0","0"],
    [5870,"2014-10-02T00:00:00","ND","23","16,92","3","99,1","25,1","64,4","0","0"],
    [5871,"2014-10-02T01:00:00","ND","12","16,54","2,8","109,3","24,3","69,6","0","0"],
    [5872,"2014-10-02T02:00:00","ND","21","16,68","0,6","208,1","24,4","68,7","0","0"],
    [5873,"2014-10-02T03:00:00","ND","35","16,33","2","191","24,6","66,9","0","0"],
    [5874,"2014-10-02T04:00:00","ND","26","21,25","2,1","205,9","24,2","65,2","0","0"],
    [5875,"2014-10-02T05:00:00","ND","24","14,52","2,5","143,2","23,6","67","0","0"],
    [5876,"2014-10-02T06:00:00","ND","34","11,4","2,1","189,5","23","67,2","0","0"],
    [5877,"2014-10-02T07:00:00","ND","33","11,93","2,4","215,6","23,5","64,3","15,9","0"],
    [5878,"2014-10-02T08:00:00","ND","38","11,77","2,3","96,9","23,9","65","40,9","0"],
    [5879,"2014-10-02T09:00:00","ND","69","15,31","3,4","106,1","24,4","69,4","87,6","0"],
    [5880,"2014-10-02T10:00:00","ND","58","59,38","0,2","346,4","26,1","59,6","217","0"],
    [5881,"2014-10-02T11:00:00","ND","31","73","4","98,8","27,2","56,2","225,8","0"],
    [5882,"2014-10-02T12:00:00","ND","28","97,49","0,7","338,8","28,3","54,4","270,6","0"],
    [5883,"2014-10-02T13:00:00","ND","25","99,3","2","129,8","29,1","51,3","166,9","0"],
    [5884,"2014-10-02T14:00:00","ND","24","89,99","3,2","98","29,6","50,2","200,2","0"],
    [5885,"2014-10-02T15:00:00","ND","18","79,46","3,3","89,7","30,2","49,5","145,2","0"],
    [5886,"2014-10-02T16:00:00","ND","14","68,02","3,7","65,7","30,4","48,2","107,5","0"],
    [5887,"2014-10-02T17:00:00","ND","14","53,53","2,2","3,4","30","48,3","38,3","0"],
    [5888,"2014-10-02T18:00:00","ND","13","46,63","4,8","300,5","29,1","45,9","8,3","0"],
    [5889,"2014-10-02T19:00:00","ND","19","23,12","3","306,9","28,1","49","0","0"],
    [5890,"2014-10-02T20:00:00","ND","31","15,23","1,6","0,9","27,2","53,8","0","0"],
    [5891,"2014-10-02T21:00:00","ND","37","10,56","2,7","103","25,1","64,1","0","0"],
    [5892,"2014-10-02T22:00:00","ND","12","9,3","3,6","90,6","24,1","70,1","0","0"],
    [5893,"2014-10-02T23:00:00","ND","12","14,23","1,8","43,2","24,1","69,7","0","0"],
    [5894,"2014-10-03T00:00:00","ND","15","9,95","1,6","173,7","24,2","69,7","0","0"],
    [5895,"2014-10-03T01:00:00","ND","7","12,17","2,2","105,3","23,8","71,4","0","0"],
    [5896,"2014-10-03T02:00:00","ND","12","10,38","2","163,3","23,7","72,6","0","0"],
    [5897,"2014-10-03T03:00:00","ND","11","10,77","3,4","172,9","23,4","75,3","0","0"],
    [5898,"2014-10-03T04:00:00","ND","12","18,47","3,4","165,2","23","76,4","0","0"],
    [5899,"2014-10-03T05:00:00","ND","15","17,29","1,3","114,6","22,7","77,5","0","0"],
    [5900,"2014-10-03T06:00:00","ND","32","6,4","1,9","65,8","22,3","80,7","0","0"],
    [5901,"2014-10-03T07:00:00","ND","36","5,38","3,6","82,3","22,2","82","21,5","0"],
    [5902,"2014-10-03T08:00:00","ND","29","10,77","1,9","81,7","23,3","77,4","89,7","0"],
    [5903,"2014-10-03T09:00:00","ND","15","26,08","2,2","146,2","25","67,4","156,1","0"],
    [5904,"2014-10-03T10:00:00","ND","11","45,96","3,8","177,9","26,5","61,4","333,4","0"],
    [5905,"2014-10-03T11:00:00","ND","7","73,82","3,6","155,8","28,4","52,7","440,1","0"],
    [5906,"2014-10-03T12:00:00","ND","8","87,54","3,3","141,6","29,8","46,4","433","0"],
    [5907,"2014-10-03T13:00:00","ND","12","86,93","2,3","179,2","30,8","39,1","453","0"],
    [5908,"2014-10-03T14:00:00","ND","11","93,02","3,6","187,5","31,5","37,1","385","0"],
    [5909,"2014-10-03T15:00:00","ND","12","95,29","3,5","192,5","32,1","35,1","342,9","0"],
    [5910,"2014-10-03T16:00:00","ND","22","83,89","1,7","110,2","31,7","38,3","146,3","0"],
    [5911,"2014-10-03T17:00:00","ND","17","47,51","5,1","43,8","29,8","48,6","127,5","0"],
    [5912,"2014-10-03T18:00:00","ND","19","20,96","4","62,8","27,5","62,5","9,2","0"],
    [5913,"2014-10-03T19:00:00","ND","22","15,4","3,2","36,2","27","59,2","0","0"],
    [5914,"2014-10-03T20:00:00","ND","18","11,83","2,8","93,6","25,5","64,5","0","0"],
    [5915,"2014-10-03T21:00:00","ND","65","10,95","2","69,2","25,1","64,5","0","0"],
    [5916,"2014-10-03T22:00:00","ND","18","10,28","4,7","229,5","25,4","68,2","0","0"],
    [5917,"2014-10-03T23:00:00","ND","27","11,54","3,2","200,1","25","68,5","0","0"],
    [5918,"2014-10-04T00:00:00","ND","13","10,81","1,8","50,2","23,5","72,3","0","0"],
    [5919,"2014-10-04T01:00:00","ND","33","16,97","1,7","35,4","23,8","68,6","0","0"],
    [5920,"2014-10-04T02:00:00","ND","7","15,8","2,8","82,5","22,8","72,9","0","0"],
    [5921,"2014-10-04T03:00:00","ND","5","20,8","2,1","150,2","23,2","71","0","0"],
    [5922,"2014-10-04T04:00:00","ND","16","12,13","1,9","186,1","22,8","76,4","0","0"],
    [5923,"2014-10-04T05:00:00","ND","18","6,89","3","123,5","22,3","80,6","0","5,33"],
    [5924,"2014-10-04T06:00:00","ND","11","8,3","1,4","182","21,6","86,8","0","4,32"],
    [5925,"2014-10-04T07:00:00","ND","ND","7,83","1,2","150,5","22","85,6","53,8","0,25"],
    [5926,"2014-10-04T08:00:00","ND","27","18,17","2,5","198,7","23,5","77,6","169,5","0"],
    [5927,"2014-10-04T09:00:00","ND","19","37,36","1,7","172,3","25,1","69,7","276","0"],
    [5928,"2014-10-04T10:00:00","ND","17","58,48","2,4","155","26,7","60,8","378,9","0"],
    [5929,"2014-10-04T11:00:00","ND","11","68,19","2,3","128,5","28,1","52,4","448,5","0"],
    [5930,"2014-10-04T12:00:00","ND","11","86,44","2,3","95,9","29,7","47","478","0"],
    [5931,"2014-10-04T13:00:00","ND","18","97,67","3,8","151,4","31,2","42,2","479,8","0"],
    [5932,"2014-10-04T14:00:00","ND","9","109,48","3,9","83,9","32","39,5","438,7","0"],
    [5933,"2014-10-04T15:00:00","ND","23","117,02","3,4","0,2","32,4","38,8","175,9","0"],
    [5934,"2014-10-04T16:00:00","ND","2","72,96","6,9","288,5","32,6","38,1","303,2","0"],
    [5935,"2014-10-04T17:00:00","ND","11","48,06","8,6","286,4","30,8","42,8","62,5","0"],
    [5936,"2014-10-04T18:00:00","ND","9","32,46","6,1","312","29,5","45,8","0","0"],
    [5937,"2014-10-04T19:00:00","ND","8","17,5","2,6","3,5","28,6","50,1","0","0"],
    [5938,"2014-10-04T20:00:00","ND","20","11,97","1,5","343,4","27,8","53,6","0","0"],
    [5939,"2014-10-04T21:00:00","ND","4","26,61","6,3","270,6","27,2","56,7","0","0"],
    [5940,"2014-10-04T22:00:00","ND","15","27,51","6,8","229,3","25,2","69,4","0","0"],
    [5941,"2014-10-04T23:00:00","ND","11","26,06","4,9","210,7","24,7","72,9","0","0"],
    [5942,"2014-10-05T00:00:00","ND","11","20,94","3","165,5","24,2","75,9","0","0"],
    [5943,"2014-10-05T01:00:00","ND","11","25,06","4","139,4","23,4","80,9","0","0"],
    [5944,"2014-10-05T02:00:00","ND","7","32,01","3,9","170,9","22,9","82,5","0","0"],
    [5945,"2014-10-05T03:00:00","ND","5","28,93","3,8","166","22,6","84","0","0"],
    [5946,"2014-10-05T04:00:00","ND","5","24,1","3,2","171,3","22,3","84,8","0","0"],
    [5947,"2014-10-05T05:00:00","ND","4","20,29","2,6","154,7","22,1","85,7","0","0"],
    [5948,"2014-10-05T06:00:00","ND","3","19,88","2,3","172,5","22,1","85,7","0","0"],
    [5949,"2014-10-05T07:00:00","ND","14","13,58","2","144,5","22,1","85,8","20,1","0"],
    [5950,"2014-10-05T08:00:00","ND","16","18,78","2,1","153,1","23,1","82,3","98,4","0"],
    [5951,"2014-10-05T09:00:00","ND","16","31,12","0,8","187,8","24,8","74,2","222,9","0"],
    [5952,"2014-10-05T10:00:00","ND","12","51,94","2,7","289,6","25,7","67,4","190,4","0"],
    [5953,"2014-10-05T11:00:00","ND","11","71,78","1,4","87,8","27,7","57,7","400,9","0"],
    [5954,"2014-10-05T12:00:00","ND","18","83,87","0,8","20,7","29,4","50,4","448,8","0"],
    [5955,"2014-10-05T13:00:00","ND","15","86,6","2,2","96,5","30,9","44,7","453,3","0"],
    [5956,"2014-10-05T14:00:00","ND","16","93,53","2","35,9","31,9","40,6","422,4","0"],
    [5957,"2014-10-05T15:00:00","ND","14","96,61","5","335,8","32,2","40,5","236,3","0"],
    [5958,"2014-10-05T16:00:00","ND","11","68,33","5,6","332,3","32,2","39,4","218,9","0"],
    [5959,"2014-10-05T17:00:00","ND","11","44,35","7,1","306,3","30,3","44,4","71,5","0"],
    [5960,"2014-10-05T18:00:00","ND","7","34,44","5,2","292,2","29,1","48,3","15,9","0"],
    [5961,"2014-10-05T19:00:00","ND","8","25,14","3,1","288,2","28,2","52,9","0","0"],
    [5962,"2014-10-05T20:00:00","ND","10","42,98","7,2","230,9","26","63,2","0","0"],
    [5963,"2014-10-05T21:00:00","ND","13","36,4","4","219,3","26","63,1","0","0"],
    [5964,"2014-10-05T22:00:00","ND","12","23,18","2","259,8","26,3","61,1","0","0"],
    [5965,"2014-10-05T23:00:00","ND","20","14,31","4,5","87,8","24,4","71,8","0","0"],
    [5966,"2014-10-06T00:00:00","ND","12","14,86","2,5","114,4","24,3","71,6","0","0"],
    [5967,"2014-10-06T01:00:00","ND","7","14,31","1,3","108,6","24,1","72,5","0","0"],
    [5968,"2014-10-06T02:00:00","ND","2","30,51","1,8","41,3","23,6","71,5","0","0"],
    [5969,"2014-10-06T03:00:00","ND","2","20","0,7","127,6","23,4","75","0","0"],
    [5970,"2014-10-06T04:00:00","ND","4","17,62","2,4","154,7","22,8","77,8","0","0"],
    [5971,"2014-10-06T05:00:00","ND","6","15,82","2,6","151,3","23","77,7","0","0"],
    [5972,"2014-10-06T06:00:00","ND","7","9,26","2,6","147,7","22,6","80,4","0","0"],
    [5973,"2014-10-06T07:00:00","ND","17","10,83","2,1","149,8","22,2","82,6","22","0"],
    [5974,"2014-10-06T08:00:00","ND","13","17,7","2,5","207,8","23","79,3","54,4","0"],
    [5975,"2014-10-06T09:00:00","ND","13","31,59","2,9","197,1","24,4","73,5","244,8","0"],
    [5976,"2014-10-06T10:00:00","ND","7","48,29","4","166,4","26,8","62,4","395,9","0"],
    [5977,"2014-10-06T11:00:00","ND","11","61,7","3,4","155,9","28,1","56,3","371,9","0"],
    [5978,"2014-10-06T12:00:00","ND","16","68,47","3,6","81,8","28,5","55,1","267,2","0"],
    [5979,"2014-10-06T13:00:00","ND","14","77,87","3,9","68,7","29,4","51,3","418,2","0"],
    [5980,"2014-10-06T14:00:00","ND","13","113,29","2,6","28,3","30,7","47,4","391,4","0"],
    [5981,"2014-10-06T15:00:00","ND","14","96,37","5,4","316,9","31,4","43","286,7","0"],
    [5982,"2014-10-06T16:00:00","ND","ND","71,06","7,8","305,4","31,4","40,6","334","0"],
    [5983,"2014-10-06T17:00:00","ND","6","63,74","4,4","315,4","30,4","43,2","107,4","0"],
    [5984,"2014-10-06T18:00:00","ND","5","54,83","6,9","287,1","28,9","45,5","8,5","0"],
    [5985,"2014-10-06T19:00:00","ND","9","39,37","1,9","324,9","28","48,2","0","0"],
    [5986,"2014-10-06T20:00:00","ND","14","37,52","4,2","242,9","27","53,8","0","0"],
    [5987,"2014-10-06T21:00:00","ND","22","38,85","4,5","226,1","25,3","64,1","0","0"],
    [5988,"2014-10-06T22:00:00","ND","14","22,27","2,2","116,9","24,6","70,2","0","0"],
    [5989,"2014-10-06T23:00:00","ND","10","25,45","2,5","193,8","24,1","71,5","0","0"],
    [5990,"2014-10-07T00:00:00","ND","7","30,38","2","193,4","23,1","77,4","0","0"],
    [5991,"2014-10-07T01:00:00","ND","11","24,22","1","89,4","23,3","76,6","0","0"],
    [5992,"2014-10-07T02:00:00","ND","8","22,92","1,3","104,3","23,4","75","0","0"],
    [5993,"2014-10-07T03:00:00","ND","14","17,86","1,9","189,6","23","77,3","0","0"],
    [5994,"2014-10-07T04:00:00","ND","14","13,46","1,3","188,9","23","77,8","0","0"],
    [5995,"2014-10-07T05:00:00","ND","9","10,87","1,7","153,7","23,1","77,1","0","0"],
    [5996,"2014-10-07T06:00:00","ND","20","4,98","2,2","75,8","22,7","79,8","0","0"],
    [5997,"2014-10-07T07:00:00","ND","18","6,57","2,1","103,7","22,4","83,6","7,3","0"],
    [5998,"2014-10-07T08:00:00","ND","16","14,95","3,3","59,5","22,6","82,9","52,4","0"],
    [5999,"2014-10-07T09:00:00","ND","ND","26,49","3,3","41,7","23,7","77,2","127,3","0"],
    [6000,"2014-10-07T10:00:00","ND","13","40,41","1,8","71","24,8","70,7","195,5","0"],
    [6001,"2014-10-07T11:00:00","ND","14","65,19","2,4","166,7","26,7","62,4","323,5","0"],
    [6002,"2014-10-07T12:00:00","ND","13","74,06","2,5","84,6","27,7","58,4","266,6","0"],
    [6003,"2014-10-07T13:00:00","ND","10","78,22","3,7","96,6","28,5","56","281,5","0"],
    [6004,"2014-10-07T14:00:00","ND","9","73,88","3,8","60,6","29,4","51,4","307,4","0"],
    [6005,"2014-10-07T15:00:00","ND","6","78,99","3","18,3","30,3","46,1","240,6","0"],
    [6006,"2014-10-07T16:00:00","ND","10","73,04","1,9","323,2","30,3","44,3","126,9","0"],
    [6007,"2014-10-07T17:00:00","ND","6","48,67","7,3","284,7","29,7","47,3","106,9","0"],
    [6008,"2014-10-07T18:00:00","ND","4","40,19","5,9","291,9","28,5","49,7","25,9","0"],
    [6009,"2014-10-07T19:00:00","ND","9","17,05","1,3","335,7","27,7","52,1","0","0"],
    [6010,"2014-10-07T20:00:00","ND","6","21,47","1,8","180","26,9","56,8","0","0"],
    [6011,"2014-10-07T21:00:00","ND","3","35,95","5,9","197,4","23,5","76,1","0","0"],
    [6012,"2014-10-07T22:00:00","ND","3","31,24","3,7","211,9","22,6","82","0","3,3"],
    [6013,"2014-10-07T23:00:00","ND","ND","26,26","2,6","172,1","21,8","87,2","0","6,1"],
    [6014,"2014-10-08T00:00:00","ND","ND","20,7","0,4","178,5","21,9","88,4","0","3,56"],
    [6015,"2014-10-08T01:00:00","ND","4","14,87","2,9","63,6","21,7","89,5","0","0"],
    [6016,"2014-10-08T02:00:00","ND","6","18,13","2,4","101","21,4","90,2","0","0,25"],
    [6017,"2014-10-08T03:00:00","ND","6","16,11","2,6","108,9","21,5","89,9","0","2,79"],
    [6018,"2014-10-08T04:00:00","ND","7","17,48","3,1","99","21,4","90","0","7,37"],
    [6019,"2014-10-08T05:00:00","ND","12","14,56","2,2","95,5","21,3","90,4","0","2,03"],
    [6020,"2014-10-08T06:00:00","ND","10","7,22","2,7","73,9","21,5","89,9","0","3,05"],
    [6021,"2014-10-08T07:00:00","ND","12","5,46","1,6","91,1","21,6","88,8","0","2,03"],
    [6022,"2014-10-08T08:00:00","ND","10","9,83","2,1","162,2","21,6","88,4","34,7","1,52"],
    [6023,"2014-10-08T09:00:00","ND","8","22,65","1,8","124,8","22,1","84,3","112,3","0"],
    [6024,"2014-10-08T10:00:00","ND","7","38,29","1,5","124,1","23,2","77,3","193,1","0"],
    [6025,"2014-10-08T11:00:00","ND","13","48,49","2,1","136,6","24,6","70,3","325","0"],
    [6026,"2014-10-08T12:00:00","ND","15","55,99","3,1","121,9","25,3","66,3","137","0"],
    [6027,"2014-10-08T13:00:00","ND","14","75,37","1,5","134","26,2","63,2","230,9","0"],
    [6028,"2014-10-08T14:00:00","ND","16","78,26","4,1","92,1","26,7","62,6","213,1","0"],
    [6029,"2014-10-08T15:00:00","ND","15","81,77","3,5","78,2","27,4","59,7","261,4","0"],
    [6030,"2014-10-08T16:00:00","ND","7","59,64","4,8","17,6","27","61,7","48,8","0"],
    [6031,"2014-10-08T17:00:00","ND","5","49,04","2,4","331,6","26,6","59,8","44,9","0"],
    [6032,"2014-10-08T18:00:00","ND","7","22,67","3,2","301,1","26,2","57,4","0","0"],
    [6033,"2014-10-08T19:00:00","ND","7","15,86","2","241,7","25,8","58,4","0","0"],
    [6034,"2014-10-08T20:00:00","ND","7","32,46","5,8","200","23,3","76,5","0","0"],
    [6035,"2014-10-08T21:00:00","ND","4","30,3","5,2","165,6","22,7","79,8","0","0"],
    [6036,"2014-10-08T22:00:00","ND","1","28,3","3,9","167,6","22,2","82,9","0","0"],
    [6037,"2014-10-08T23:00:00","ND","6","30,06","2,8","181,7","22,1","82,7","0","0"],
    [6038,"2014-10-09T00:00:00","ND","4","29,38","1,8","171","21,9","84,4","0","0"],
    [6039,"2014-10-09T01:00:00","ND","2","26,39","2,5","177,6","21,8","85","0","0"],
    [6040,"2014-10-09T02:00:00","ND","6","24,69","1,9","178,8","21,6","86,2","0","0"],
    [6041,"2014-10-09T03:00:00","ND","4","17,11","3","84,1","21,2","87,5","0","0,25"],
    [6042,"2014-10-09T04:00:00","ND","3","16,41","3,4","78,9","20,7","88,9","0","0"],
    [6043,"2014-10-09T05:00:00","ND","3","18,25","3,3","69,9","20,4","87,9","0","0"],
    [6044,"2014-10-09T06:00:00","ND","7","12,89","2,4","66,3","20,5","86,8","0","0"],
    [6045,"2014-10-09T07:00:00","ND","11","10,01","1,5","81,3","20,6","86,2","0","0"],
    [6046,"2014-10-09T08:00:00","ND","13","10,28","1,4","122,6","20,8","85,8","13,5","0"],
    [6047,"2014-10-09T09:00:00","ND","ND","17,13","3","184,5","21,1","85,5","48,6","0"],
    [6048,"2014-10-09T10:00:00","ND","11","26,81","3,2","196,1","21,8","81,8","108,3","0"],
    [6049,"2014-10-09T11:00:00","ND","11","39,62","3,2","178","23,1","75","254,6","0"],
    [6050,"2014-10-09T12:00:00","ND","ND","57,97","1,6","205","24,3","68,1","259","0"],
    [6051,"2014-10-09T13:00:00","ND","15","72,39","0,9","67,4","25,2","63,6","185,4","0"],
    [6052,"2014-10-09T14:00:00","ND","14","64,37","4,1","20,4","25,5","63,6","165,5","0"],
    [6053,"2014-10-09T15:00:00","ND","ND","51,83","5,3","39,1","25,9","61,3","154,5","0"],
    [6054,"2014-10-09T16:00:00","ND","ND","43,07","5,7","47","26,8","55,3","156,7","0"],
    [6055,"2014-10-09T17:00:00","ND","ND","44,25","5,2","44","26,6","57,8","54,9","0"],
    [6056,"2014-10-09T18:00:00","ND","23","31,26","3,9","45,8","26","61,3","8,8","0"],
    [6057,"2014-10-09T19:00:00","ND","20","24,1","3,2","45","25,1","65,8","0","0"],
    [6058,"2014-10-09T20:00:00","ND","83","23,41","2,8","28,4","24,4","69,3","0","0"],
    [6059,"2014-10-09T21:00:00","ND","41","10,28","3,2","80,6","23,5","75,6","0","0"],
    [6060,"2014-10-09T22:00:00","ND","11","6,14","2,8","77,9","22,6","80,1","0","0"],
    [6061,"2014-10-09T23:00:00","ND","14","10,62","1,8","321,1","23,1","75,3","0","0"],
    [6062,"2014-10-10T00:00:00","ND","7","16,48","3,4","273","23,1","73,4","0","0"],
    [6063,"2014-10-10T01:00:00","ND","6","9,62","1,9","108,7","22,4","78,5","0","0"],
    [6064,"2014-10-10T02:00:00","ND","5","13,62","2,3","188,8","22","81,4","0","0"],
    [6065,"2014-10-10T03:00:00","ND","4","16,21","2,8","229,4","21,6","83","0","0"],
    [6066,"2014-10-10T04:00:00","ND","1","13,64","2,1","221,3","21,9","82,5","0","0"],
    [6067,"2014-10-10T05:00:00","ND","ND","8,26","0,8","181,5","21,9","82,7","0","0"],
    [6068,"2014-10-10T06:00:00","ND","10","4,89","2,3","100,7","21,5","86,6","0","0,51"],
    [6069,"2014-10-10T07:00:00","ND","10","6,3","1,7","175","21,5","87,9","7,2","0"],
    [6070,"2014-10-10T08:00:00","ND","9","11,89","3,1","207,6","21,8","86,1","33,5","0,25"],
    [6071,"2014-10-10T09:00:00","ND","10","17,64","3,1","215","22,3","84","83,6","0"],
    [6072,"2014-10-10T10:00:00","ND","8","27,87","1,8","174,1","23,3","77,2","136,3","0"],
    [6073,"2014-10-10T11:00:00","ND","12","43,47","1,4","199,8","24,2","72","186,8","0"],
    [6074,"2014-10-10T12:00:00","ND","9","51,69","1,6","139,7","25,2","67,4","189,7","0"],
    [6075,"2014-10-10T13:00:00","ND","7","66,8","2,6","108,3","26","63,1","304,7","0"],
    [6076,"2014-10-10T14:00:00","ND","19","100,92","1,8","103,8","27,3","56","366,7","0"],
    [6077,"2014-10-10T15:00:00","ND","11","86,13","2,7","94,7","27,9","53,2","178,6","0"],
    [6078,"2014-10-10T16:00:00","ND","12","85,89","3,7","209,8","27,8","54,4","120,1","0"],
    [6079,"2014-10-10T17:00:00","ND","16","87,58","3,7","250,1","27,2","57,7","46,8","0"],
    [6080,"2014-10-10T18:00:00","ND","29","77,67","3,9","281,6","26,7","58,5","9,9","0"],
    [6081,"2014-10-10T19:00:00","ND","27","12,83","2,3","349,9","26,2","59,7","0","0"],
    [6082,"2014-10-10T20:00:00","ND","42","20,96","3","43,6","25,3","67,2","0","0"],
    [6083,"2014-10-10T21:00:00","ND","23","18,25","2,7","55,5","24,6","70,6","0","0"],
    [6084,"2014-10-10T22:00:00","ND","17","12,52","1","84,4","24,1","73,2","0","0"],
    [6085,"2014-10-10T23:00:00","ND","15","9,6","2,5","65,2","24","73","0","0"],
    [6086,"2014-10-11T00:00:00","ND","12","8,38","2,2","69,5","23,8","72,7","0","0"],
    [6087,"2014-10-11T01:00:00","ND","18","6,95","1,4","31,9","23,4","74,1","0","0"],
    [6088,"2014-10-11T02:00:00","ND","6","5,57","2","112,4","23","76,2","0","0"],
    [6089,"2014-10-11T03:00:00","ND","10","7,26","2","173","23,2","76,8","0","0"],
    [6090,"2014-10-11T04:00:00","ND","7","5,44","2,9","173,8","22,7","82,4","0","0,25"],
    [6091,"2014-10-11T05:00:00","ND","5","7,57","3,8","200,5","21,8","88,4","0","0,76"],
    [6092,"2014-10-11T06:00:00","ND","7","9,62","2,7","198,1","21,6","88,3","0","0"],
    [6093,"2014-10-11T07:00:00","ND","12","10,58","2,9","187,3","21,7","87,8","5,4","0"],
    [6094,"2014-10-11T08:00:00","ND","11","22,39","2,2","201","21,9","86,1","65","0"],
    [6095,"2014-10-11T09:00:00","ND","10","39,5","1,6","182,5","23,3","77,2","219,2","0"],
    [6096,"2014-10-11T10:00:00","ND","10","49,47","2,5","126,1","25,5","67,9","292","0"],
    [6097,"2014-10-11T11:00:00","ND","14","62,27","3,5","135,9","26,1","65,2","295,8","0"],
    [6098,"2014-10-11T12:00:00","ND","11","74,57","2,4","105,1","27,5","59,7","381,3","0"],
    [6099,"2014-10-11T13:00:00","ND","11","78,81","3,6","84,7","29,1","53,8","433","0"],
    [6100,"2014-10-11T14:00:00","ND","18","76,02","5,9","105,4","29,9","50,9","336,3","0"],
    [6101,"2014-10-11T15:00:00","ND","10","50,22","5,4","307,9","26","58,8","11,3","3,81"],
    [6102,"2014-10-11T16:00:00","ND","8","33,83","5,4","269,5","21,2","78,6","0","9,4"],
    [6103,"2014-10-11T17:00:00","ND","19","16,27","2,8","195","22,2","76,8","7,8","1,52"],
    [6104,"2014-10-11T18:00:00","ND","13","12,6","1,8","116,8","21,9","80,8","4,1","0,25"],
    [6105,"2014-10-11T19:00:00","ND","21","19,55","2,2","227,8","22,2","77,5","0","0"],
    [6106,"2014-10-11T20:00:00","ND","23","4,83","0,4","303,6","22,4","78,2","0","0"],
    [6107,"2014-10-11T21:00:00","ND","36","4,79","0,6","356,1","22","83,6","0","0"],
    [6108,"2014-10-11T22:00:00","ND","17","4,96","1,5","163,8","21,7","82,7","0","0"],
    [6109,"2014-10-11T23:00:00","ND","20","6,42","0,7","144,4","22,1","80,8","0","0"],
    [6110,"2014-10-12T00:00:00","ND","17","4,65","0,9","293,8","21,9","81,9","0","0"],
    [6111,"2014-10-12T01:00:00","ND","40","4,51","2,6","324","21,9","84,1","0","0"],
    [6112,"2014-10-12T02:00:00","ND","33","4,55","0,5","332,6","21,9","83,9","0","0"],
    [6113,"2014-10-12T03:00:00","ND","23","4,18","1,8","178,1","21,2","87,4","0","0"],
    [6114,"2014-10-12T04:00:00","ND","14","3,89","2,1","214,3","20,4","88,3","0","0"],
    [6115,"2014-10-12T05:00:00","ND","18","4,1","0,6","252,7","20,4","88,4","0","0"],
    [6116,"2014-10-12T06:00:00","ND","24","4,42","1,2","118,3","20,5","87,5","0","0"],
    [6117,"2014-10-12T07:00:00","ND","18","5,38","1,4","195,6","20,4","87,9","36,8","0"],
    [6118,"2014-10-12T08:00:00","ND","25","16,76","1,2","285,7","21,7","81,8","128,8","0"],
    [6119,"2014-10-12T09:00:00","ND","30","22,25","3,7","77","22,6","80,7","121,3","0"],
    [6120,"2014-10-12T10:00:00","ND","35","30,44","3,6","82,2","23,4","77,6","182,8","0"],
    [6121,"2014-10-12T11:00:00","ND","29","50,85","2,7","77","24,8","68,3","354,3","0"],
    [6122,"2014-10-12T12:00:00","ND","18","88,82","0,7","51,2","26,7","60,4","487,9","0"],
    [6123,"2014-10-12T13:00:00","ND","16","106,64","3,3","75,5","28,1","55,2","437,7","0"],
    [6124,"2014-10-12T14:00:00","ND","19","109,01","2,8","58,9","29,2","52,2","391,4","0"],
    [6125,"2014-10-12T15:00:00","ND","19","109,28","2,2","28","30","47,3","293,4","0"],
    [6126,"2014-10-12T16:00:00","ND","23","83,73","5,9","100,5","29,9","50","183,1","0"],
    [6127,"2014-10-12T17:00:00","ND","23","83,38","4,1","99,5","29,9","48,4","93,6","0"],
    [6128,"2014-10-12T18:00:00","ND","30","61,54","2,7","129,8","29,1","51,3","11,4","0"],
    [6129,"2014-10-12T19:00:00","ND","27","60,44","2","194","28,6","51,9","0","0"],
    [6130,"2014-10-12T20:00:00","ND","33","38,7","2,1","270,9","27,8","57,1","0","0"],
    [6131,"2014-10-12T21:00:00","ND","19","24,37","3,7","287,7","26,6","61,6","0","0"],
    [6132,"2014-10-12T22:00:00","ND","30","7,42","2,8","84,5","24,6","73,5","0","0"],
    [6133,"2014-10-12T23:00:00","ND","12","6,77","1","104,4","23,8","76,4","0","0"],
    [6134,"2014-10-13T00:00:00","ND","9","7,61","1,6","109,2","23,4","77,2","0","0"],
    [6135,"2014-10-13T01:00:00","ND","7","6,24","3","105,6","22,5","80,4","0","0"],
    [6136,"2014-10-13T02:00:00","ND","7","5,67","1,2","212,5","22,1","81,4","0","0"],
    [6137,"2014-10-13T03:00:00","ND","7","8,16","2,3","208,2","22,5","80,5","0","0"],
    [6138,"2014-10-13T04:00:00","ND","8","10,64","2,4","168,6","22,5","80,5","0","0"],
    [6139,"2014-10-13T05:00:00","ND","9","9,73","1,9","181","22,3","80,5","0","0"],
    [6140,"2014-10-13T06:00:00","ND","10","9,81","0,9","158,2","22,5","77,9","0","0"],
    [6141,"2014-10-13T07:00:00","ND","18","5,26","2,4","86","22","82,8","21,9","0"],
    [6142,"2014-10-13T08:00:00","ND","15","10,62","3,7","96,2","22,5","82","97,6","0"],
    [6143,"2014-10-13T09:00:00","ND","21","23,18","2,5","77,6","23,8","74,7","146,5","0"],
    [6144,"2014-10-13T10:00:00","ND","17","47,53","1,4","261","25,2","68,1","247","0"],
    [6145,"2014-10-13T11:00:00","ND","19","76,67","1,1","43,6","27","60,2","379,2","0"],
    [6146,"2014-10-13T12:00:00","ND","17","92,09","2,1","85,6","28,4","55,2","349,1","0"],
    [6147,"2014-10-13T13:00:00","ND","16","84,17","3,1","83,4","29,3","49,6","286,6","0"],
    [6148,"2014-10-13T14:00:00","ND","18","79,61","4,3","92,4","29,5","49","180,9","0"],
    [6149,"2014-10-13T15:00:00","ND","13","88,88","2,7","89,2","30,1","47,6","275,9","0"],
    [6150,"2014-10-13T16:00:00","ND","17","76,3","4,9","40,7","30,3","48,2","143,4","0"],
    [6151,"2014-10-13T17:00:00","ND","ND","63,19","6,2","17,3","29,2","52,8","30,4","0"],
    [6152,"2014-10-13T18:00:00","ND","ND","47,61","4,5","279,7","26,1","61,4","0","0"],
    [6153,"2014-10-13T19:00:00","ND","15","49,43","3,1","230,4","23,3","72,5","0","45,72"],
    [6154,"2014-10-13T20:00:00","ND","12","16,64","2,3","103,8","23,1","78,1","0","0"],
    [6155,"2014-10-13T21:00:00","ND","30","12,01","0,1","147,3","23,4","77","0","0"],
    [6156,"2014-10-13T22:00:00","ND","51","7,59","1,7","177,2","23,3","78,7","0","0"],
    [6157,"2014-10-13T23:00:00","ND","20","7,04","2,3","205","22,9","80,7","0","0"],
    [6158,"2014-10-14T00:00:00","ND","10","4,12","1,2","185,9","22,7","84,4","0","0"],
    [6159,"2014-10-14T01:00:00","ND","9","4,26","1,9","179,7","22,6","84,5","0","0"],
    [6160,"2014-10-14T02:00:00","ND","9","6,38","1,6","147,6","22,4","83,7","0","0"],
    [6161,"2014-10-14T03:00:00","ND","8","6,38","2,3","116,3","22,1","83,7","0","0"],
    [6162,"2014-10-14T04:00:00","ND","6","5,36","1","119,3","22,1","83,1","0","0"],
    [6163,"2014-10-14T05:00:00","ND","6","4,45","0,5","71,5","22,1","83,8","0","0"],
    [6164,"2014-10-14T06:00:00","ND","19","4,36","1,7","119,5","21,9","85","0","0"],
    [6165,"2014-10-14T07:00:00","ND","26","4,83","1,7","163,8","22,2","83,5","12","0"],
    [6166,"2014-10-14T08:00:00","ND","14","10,13","1","223,6","22,8","81,2","90,6","0"],
    [6167,"2014-10-14T09:00:00","ND","24","26,43","2,4","139,6","24,3","73,9","218,5","0"],
    [6168,"2014-10-14T10:00:00","ND","14","57,2","1,8","157,5","26","66,1","374,8","0"],
    [6169,"2014-10-14T11:00:00","ND","14","71,47","3","105,7","27,8","57,9","467,9","0"],
    [6170,"2014-10-14T12:00:00","ND","11","74,73","2,4","85","29,4","50,8","515,7","0"],
    [6171,"2014-10-14T13:00:00","ND","14","87,56","1,8","96,7","30,2","46,7","501","0"],
    [6172,"2014-10-14T14:00:00","ND","16","88,17","3,2","72,5","30,7","42,8","316,2","0"],
    [6173,"2014-10-14T15:00:00","ND","11","90,05","2","74,9","30,8","41,6","170,7","0"],
    [6174,"2014-10-14T16:00:00","ND","15","71,12","3,1","113","31,2","40","123,4","0"],
    [6175,"2014-10-14T17:00:00","ND","15","61,97","3,9","9,1","30,8","45,1","88","0"],
    [6176,"2014-10-14T18:00:00","ND","ND","35,93","3,6","342,9","30","47,8","22,6","0"],
    [6177,"2014-10-14T19:00:00","ND","12","22,37","5","284,9","28,4","52,2","0","0"],
    [6178,"2014-10-14T20:00:00","ND","8","17,48","3,6","303,5","27,8","54,9","0","0"],
    [6179,"2014-10-14T21:00:00","ND","16","7,1","3,3","80,3","25,5","68,4","0","0"],
    [6180,"2014-10-14T22:00:00","ND","13","8,71","1,9","107,7","24,8","70,3","0","0"],
    [6181,"2014-10-14T23:00:00","ND","17","10,11","3,3","97,3","24,3","72,3","0","0"],
    [6182,"2014-10-15T00:00:00","ND","8","8,58","2,4","95,3","23,4","76,7","0","0"],
    [6183,"2014-10-15T01:00:00","ND","7","12,42","1,9","61,3","23,3","76,4","0","0"],
    [6184,"2014-10-15T02:00:00","ND","6","15,56","0,4","73,3","23,7","74,1","0","0"],
    [6185,"2014-10-15T03:00:00","ND","14","6,5","1,6","164,5","23,2","78,5","0","0"],
    [6186,"2014-10-15T04:00:00","ND","12","8,12","1","203,5","23,1","78,9","0","0"],
    [6187,"2014-10-15T05:00:00","ND","27","5,18","0,2","215,2","22,8","81,1","0","0"],
    [6188,"2014-10-15T06:00:00","ND","30","5,36","1,5","153,1","23","80,3","0","0"],
    [6189,"2014-10-15T07:00:00","ND","43","5,4","1,7","138","22,7","81,7","19,2","0"],
    [6190,"2014-10-15T08:00:00","ND","30","7,26","2,5","138,9","23","80,7","73,8","0"],
    [6191,"2014-10-15T09:00:00","ND","17","17,9","3,3","171,7","24,2","75,1","146,9","0"],
    [6192,"2014-10-15T10:00:00","ND","34","28,14","1,1","189,8","25,5","68,8","181,7","0"],
    [6193,"2014-10-15T11:00:00","ND","26","40,33","3","101,9","26,8","63,4","257,3","0"],
    [6194,"2014-10-15T12:00:00","ND","26","79,08","2,2","80,4","28,3","58,3","357,1","0"],
    [6195,"2014-10-15T13:00:00","ND","14","82,64","3,8","83,7","29,8","52,2","491,7","0"],
    [6196,"2014-10-15T14:00:00","ND","8","74,92","3,7","41,2","30,5","47,4","450,4","0"],
    [6197,"2014-10-15T15:00:00","ND","ND","72,53","3,4","30,3","30,6","47","220,6","0"],
    [6198,"2014-10-15T16:00:00","ND","10","ND","4,2","40,1","30,8","46,8","142,7","0"],
    [6199,"2014-10-15T17:00:00","ND","9","47,23","2,6","326,7","30","47,4","48,3","0"],
    [6200,"2014-10-15T18:00:00","ND","6","32,83","5,3","293","28,5","50,7","5,1","0"],
    [6201,"2014-10-15T19:00:00","ND","6","16,43","4,4","309,1","27,8","52,4","0","0"],
    [6202,"2014-10-15T20:00:00","ND","3","20,25","4,6","308,4","27,6","52,9","0","0"],
    [6203,"2014-10-15T21:00:00","ND","11","10,71","4,4","94,2","25,6","64,9","0","0"],
    [6204,"2014-10-15T22:00:00","ND","10","12,05","2,2","36,1","24,6","67,6","0","0"],
    [6205,"2014-10-15T23:00:00","ND","8","13,5","2","50,7","24,2","68,2","0","0"],
    [6206,"2014-10-16T00:00:00","ND","13","9,6","1,7","57","23,4","72","0","0"],
    [6207,"2014-10-16T01:00:00","ND","8","9,36","1,6","146,8","22,8","74,8","0","0"],
    [6208,"2014-10-16T02:00:00","ND","6","6,14","1,6","159,6","22,5","77,2","0","0"],
    [6209,"2014-10-16T03:00:00","ND","14","6,52","1,8","153,8","22,4","77,4","0","0"],
    [6210,"2014-10-16T04:00:00","ND","9","5,69","1","130,2","22,4","77,7","0","0"],
    [6211,"2014-10-16T05:00:00","ND","15","5,16","1,7","119,1","22","80,4","0","0"],
    [6212,"2014-10-16T06:00:00","ND","22","5,36","1,7","159,1","21,7","82,5","0","0"],
    [6213,"2014-10-16T07:00:00","ND","21","5,85","0,2","207","21,4","84,3","24,4","0"],
    [6214,"2014-10-16T08:00:00","ND","27","9,13","3,4","111,2","22,7","80","133,2","0"],
    [6215,"2014-10-16T09:00:00","ND","15","30,08","1,6","140,8","24,7","68,2","247,4","0"],
    [6216,"2014-10-16T10:00:00","ND","12","54,87","1,5","202,9","26","63","360,4","0"],
    [6217,"2014-10-16T11:00:00","ND","22","84,99","1,3","117,1","27,8","57,1","432,9","0"],
    [6218,"2014-10-16T12:00:00","ND","21","98,65","3,2","107,4","29,4","49,1","424,5","0"],
    [6219,"2014-10-16T13:00:00","ND","18","105,79","3,6","75,7","30,6","42,3","307,8","0"],
    [6220,"2014-10-16T14:00:00","ND","17","111,54","4,5","101,3","31,1","42,4","342,5","0"],
    [6221,"2014-10-16T15:00:00","ND","21","109,95","4,3","143","31,5","41,5","230,7","0"],
    [6222,"2014-10-16T16:00:00","ND","13","110,66","4,9","195,7","31,3","39,2","244,2","0"],
    [6223,"2014-10-16T17:00:00","ND","15","80,83","5,5","265,6","30,7","41,6","89,5","0"],
    [6224,"2014-10-16T18:00:00","ND","8","44,13","5,2","291,1","29,6","45,2","10,2","0"],
    [6225,"2014-10-16T19:00:00","ND","22","22","0,4","150,6","28,3","51","0","0"],
    [6226,"2014-10-16T20:00:00","ND","16","15,46","3,7","66,3","26,2","62,7","0","0"],
    [6227,"2014-10-16T21:00:00","ND","22","15,88","3,2","51,7","25,1","67,1","0","0"],
    [6228,"2014-10-16T22:00:00","ND","21","13,82","2,2","69,2","24,3","69,3","0","0"],
    [6229,"2014-10-16T23:00:00","ND","13","13,48","3,2","90,7","23,7","71,6","0","0"],
    [6230,"2014-10-17T00:00:00","ND","7","14,38","1,3","56,5","23,5","72,6","0","0"],
    [6231,"2014-10-17T01:00:00","ND","5","14,89","1,4","258,7","23,4","72,9","0","0"],
    [6232,"2014-10-17T02:00:00","ND","10","11,52","2,5","196,6","23,2","75,6","0","0"],
    [6233,"2014-10-17T03:00:00","ND","17","11,99","1,4","197,4","23","76","0","0"],
    [6234,"2014-10-17T04:00:00","ND","13","6,75","2,1","152,6","22,4","79,7","0","0"],
    [6235,"2014-10-17T05:00:00","ND","18","5,08","2,7","171,1","21,8","81,7","0","0"],
    [6236,"2014-10-17T06:00:00","ND","22","5,55","1,9","198,3","21,6","81,3","0","0"],
    [6237,"2014-10-17T07:00:00","ND","34","6,08","2,1","97,5","21,6","82,5","47,8","0"],
    [6238,"2014-10-17T08:00:00","ND","36","10,71","1,8","81,7","23,3","76,3","147,5","0"],
    [6239,"2014-10-17T09:00:00","ND","18","37,32","1,3","186,1","25","66,6","260,5","0"],
    [6240,"2014-10-17T10:00:00","ND","18","69,72","0,5","325,2","26,7","60,8","380","0"],
    [6241,"2014-10-17T11:00:00","ND","24","102,69","2,7","80,7","28,2","54,3","397,6","0"],
    [6242,"2014-10-17T12:00:00","ND","22","113,19","3,6","43","29,2","51,4","371,4","0"],
    [6243,"2014-10-17T13:00:00","ND","24","94,12","4,7","52,8","30,1","48,3","275,5","0"],
    [6244,"2014-10-17T14:00:00","ND","17","76,94","5","43,2","30,9","46,4","319,1","0"],
    [6245,"2014-10-17T15:00:00","ND","8","51,69","5,8","56,7","31,1","44,8","247,5","0"],
    [6246,"2014-10-17T16:00:00","ND","10","56,28","3,5","319,3","30,6","42,3","139,7","0"],
    [6247,"2014-10-17T17:00:00","ND","6","39,44","7,4","288,1","29,6","45,8","73,9","0"],
    [6248,"2014-10-17T18:00:00","ND","3","28,93","7,1","281,9","28,4","48,2","4,3","0"],
    [6249,"2014-10-17T19:00:00","ND","12","48,59","6,1","234","26,6","50,7","0","0"],
    [6250,"2014-10-17T20:00:00","ND","19","31,44","3,5","154,3","25,5","59,5","0","0"],
    [6251,"2014-10-17T21:00:00","ND","25","16,33","3,1","210,3","23,8","72,7","0","0"],
    [6252,"2014-10-17T22:00:00","ND","25","20,33","3,7","212,3","23,5","75,5","0","0"],
    [6253,"2014-10-17T23:00:00","ND","13","24,16","3,4","200,5","22,9","80,1","0","3,3"],
    [6254,"2014-10-18T00:00:00","ND","14","22,27","4,7","249,9","22,2","84,6","0","0,76"],
    [6255,"2014-10-18T01:00:00","ND","14","18,23","2,7","194,8","22,2","83,9","0","0"],
    [6256,"2014-10-18T02:00:00","ND","13","17,72","2,8","160,3","21,7","87,3","0","0"],
    [6257,"2014-10-18T03:00:00","ND","9","40,15","2,9","203,2","21","88,1","0","14,22"],
    [6258,"2014-10-18T04:00:00","ND","8","35,54","3,3","202,6","20,9","88","0","1,27"],
    [6259,"2014-10-18T05:00:00","ND","6","27,32","2,6","222,4","20,8","88,9","0","0"],
    [6260,"2014-10-18T06:00:00","ND","12","14,52","1,9","104,8","21","89,4","0","1,52"],
    [6261,"2014-10-18T07:00:00","ND","20","11,95","2,1","39,9","21,1","89,8","8,1","0,25"],
    [6262,"2014-10-18T08:00:00","ND","23","16,48","3,2","18","21,5","88,7","47,9","0"],
    [6263,"2014-10-18T09:00:00","ND","12","21,64","2,9","20,8","22,1","84,2","94","0"],
    [6264,"2014-10-18T10:00:00","ND","11","33,18","1,1","37,5","22,9","79,1","233,5","0"],
    [6265,"2014-10-18T11:00:00","ND","8","64,39","1,1","277","24,6","69","343,4","0"],
    [6266,"2014-10-18T12:00:00","ND","11","65,72","2","69,3","26,1","61,3","393,2","0"],
    [6267,"2014-10-18T13:00:00","ND","7","75","2,2","58,8","27,6","53,9","505,8","0"],
    [6268,"2014-10-18T14:00:00","ND","8","64,88","4,5","78,5","28,7","48,6","453,8","0"],
    [6269,"2014-10-18T15:00:00","ND","6","66,56","4,3","80,7","29,5","48,6","326,4","0"],
    [6270,"2014-10-18T16:00:00","ND","7","73,84","4,5","23,5","30,1","46,7","237,5","0"],
    [6271,"2014-10-18T17:00:00","ND","6","63,68","5,2","17,1","29,6","47,7","97","0"],
    [6272,"2014-10-18T18:00:00","ND","10","39,42","4,3","31,6","28,1","52,5","10,7","0"],
    [6273,"2014-10-18T19:00:00","ND","16","20,15","3,8","16","27,1","58,2","0","0"],
    [6274,"2014-10-18T20:00:00","ND","29","14,29","3,3","42,6","26","64,6","0","0"],
    [6275,"2014-10-18T21:00:00","ND","20","11,42","0,3","81,6","25,5","67","0","0"],
    [6276,"2014-10-18T22:00:00","ND","28","22,35","5,2","214,4","24,7","71,4","0","0"],
    [6277,"2014-10-18T23:00:00","ND","22","27,81","3,6","199,4","24","69,8","0","0"],
    [6278,"2014-10-19T00:00:00","ND","1","28,4","3,8","205,2","23,1","73,3","0","0,25"],
    [6279,"2014-10-19T01:00:00","ND","7","14,72","1,9","178,9","22,5","80,8","0","2,54"],
    [6280,"2014-10-19T02:00:00","ND","6","24,24","3,4","187,3","21,6","85,4","0","1,78"],
    [6281,"2014-10-19T03:00:00","ND","2","31,65","4,3","193,6","21,2","87","0","0,76"],
    [6282,"2014-10-19T04:00:00","ND","ND","33,44","3,5","194,5","20,7","87,9","0","0"],
    [6283,"2014-10-19T05:00:00","ND","3","30,3","3,6","139,5","20,1","88,4","0","0"],
    [6284,"2014-10-19T06:00:00","ND","4","24,55","1","148,9","20,1","87,4","0","0,25"],
    [6285,"2014-10-19T07:00:00","ND","5","23,71","1,4","205,6","20,5","85,6","7,5","0"],
    [6286,"2014-10-19T08:00:00","ND","18","21","1,7","80","21","84,9","60,1","0"],
    [6287,"2014-10-19T09:00:00","ND","12","35,97","1,4","30,7","21,7","83","132,9","0"],
    [6288,"2014-10-19T10:00:00","ND","17","43,84","1,9","152,7","23","76,7","212,5","0"],
    [6289,"2014-10-19T11:00:00","ND","ND","50,73","1,5","187,3","24,4","70,1","316,7","0"],
    [6290,"2014-10-19T12:00:00","ND","ND","58,4","2,8","122,5","25,9","62","395,5","0"],
    [6291,"2014-10-19T13:00:00","ND","1","65,19","3,4","90,5","26,5","58,9","431,5","0"],
    [6292,"2014-10-19T14:00:00","ND","5","64,46","4,6","83,8","27,4","54,3","346,6","0"],
    [6293,"2014-10-19T15:00:00","ND","11","68,04","4,7","76,4","27,5","57,7","252,5","0"],
    [6294,"2014-10-19T16:00:00","ND","7","76,38","4,5","47,7","28,5","52,4","244","0"],
    [6295,"2014-10-19T17:00:00","ND","5","59,77","4,9","45,7","28,3","52,8","68,7","0"],
    [6296,"2014-10-19T18:00:00","ND","12","24,43","4,6","57,5","27,4","56,9","10,4","0"],
    [6297,"2014-10-19T19:00:00","ND","9","20,88","3,4","45,3","26,1","61,4","0","0"],
    [6298,"2014-10-19T20:00:00","ND","8","24,14","1,3","22,9","25,4","64,6","0","0"],
    [6299,"2014-10-19T21:00:00","ND","7","16,13","2","56,6","25,1","68,2","0","0"],
    [6300,"2014-10-19T22:00:00","ND","8","18,41","1,5","24,7","24,7","70","0","0"],
    [6301,"2014-10-19T23:00:00","ND","6","13,83","1,5","203,4","24,1","74,2","0","0,25"],
    [6302,"2014-10-20T00:00:00","ND","5","11,28","1,1","203,4","23,5","77,3","0","0"],
    [6303,"2014-10-20T01:00:00","ND","5","11,38","2","184,7","23,3","78,8","0","0"],
    [6304,"2014-10-20T02:00:00","ND","4","8,97","1,3","152,2","23,1","80,5","0","0"],
    [6305,"2014-10-20T03:00:00","ND","4","6,08","2,4","131,5","22,5","86,1","0","0"],
    [6306,"2014-10-20T04:00:00","ND","11","11,89","1,6","136,6","22,5","85,2","0","0"],
    [6307,"2014-10-20T05:00:00","ND","9","13,13","1,5","162,7","22,6","83,8","0","0"],
    [6308,"2014-10-20T06:00:00","ND","22","5,4","1,9","122,3","22,3","86","0","0"],
    [6309,"2014-10-20T07:00:00","ND","21","5,71","2,1","113,7","22,4","86,1","15,7","0"],
    [6310,"2014-10-20T08:00:00","ND","14","13,62","2,3","226","22,8","84","79,5","0"],
    [6311,"2014-10-20T09:00:00","ND","21","22,82","0,9","103,3","23,7","78,9","145,7","0"],
    [6312,"2014-10-20T10:00:00","ND","22","44,78","1,7","37,4","25,2","71,1","276,1","0"],
    [6313,"2014-10-20T11:00:00","ND","25","66,64","2","93,5","27","61,8","421,3","0"],
    [6314,"2014-10-20T12:00:00","ND","20","79,06","3,5","92,7","28,1","56,6","501,7","0"],
    [6315,"2014-10-20T13:00:00","ND","16","83,68","5,6","87","29,2","53,3","487,8","0"],
    [6316,"2014-10-20T14:00:00","ND","11","94,43","5,7","82,2","29,8","49,6","471,3","0"],
    [6317,"2014-10-20T15:00:00","ND","13","92,84","4,6","55,9","30,1","48,3","202,7","0"],
    [6318,"2014-10-20T16:00:00","ND","13","51,18","4,9","46,2","29,8","47,4","39,2","0"],
    [6319,"2014-10-20T17:00:00","ND","ND","52,2","8,5","230,2","24,1","69,3","0","16"],
    [6320,"2014-10-20T18:00:00","ND","3","43,33","3","223,3","21,2","85,5","0","6,86"],
    [6321,"2014-10-20T19:00:00","ND","9","26,18","2,8","173,5","21,3","86,2","0","2,54"],
    [6322,"2014-10-20T20:00:00","ND","10","31,57","2,8","230,6","21,1","84,3","0","1,02"],
    [6323,"2014-10-20T21:00:00","ND","5","27","3,4","218,9","21,5","82,5","0","0"],
    [6324,"2014-10-20T22:00:00","ND","9","13,38","2,3","257,7","21,7","81,3","0","0"],
    [6325,"2014-10-20T23:00:00","ND","11","6,44","1,5","145,2","21,6","83,8","0","0"],
    [6326,"2014-10-21T00:00:00","ND","8","16,64","2,4","150","21","87,2","0","0"],
    [6327,"2014-10-21T01:00:00","ND","7","22,23","2,3","221,2","20,9","87,2","0","0"],
    [6328,"2014-10-21T02:00:00","ND","9","18,64","1,3","179,9","20,9","87,7","0","0"],
    [6329,"2014-10-21T03:00:00","ND","6","18,27","1,2","161,2","20,8","87,7","0","0"],
    [6330,"2014-10-21T04:00:00","ND","10","9,93","2,4","88,6","20,6","89,2","0","0"],
    [6331,"2014-10-21T05:00:00","ND","15","5,59","2","354,6","20,2","91","0","0"],
    [6332,"2014-10-21T06:00:00","ND","28","6,36","1","359,2","20,4","89,7","0","0"],
    [6333,"2014-10-21T07:00:00","ND","37","6,69","1,2","64,2","20,4","89,6","16,7","0"],
    [6334,"2014-10-21T08:00:00","ND","68","9,01","0,6","281,2","21,4","86,3","101,2","0"],
    [6335,"2014-10-21T09:00:00","ND","71","20,88","2,6","58,1","23,3","78,2","266,3","0"],
    [6336,"2014-10-21T10:00:00","ND","18","52,63","2,1","50,9","25,1","66,2","361,2","0"],
    [6337,"2014-10-21T11:00:00","ND","14","67,47","2,7","62,4","26,6","60,4","420,9","0"],
    [6338,"2014-10-21T12:00:00","ND","14","81,6","2,2","44,2","27,8","55,3","329,2","0"],
    [6339,"2014-10-21T13:00:00","ND","8","87,19","3","94","29,1","49,2","480,9","0"],
    [6340,"2014-10-21T14:00:00","ND","5","92,53","2,2","111","30,3","45","458,6","0"],
    [6341,"2014-10-21T15:00:00","ND","6","91","3,7","92,7","31,2","42,1","356,7","0"],
    [6342,"2014-10-21T16:00:00","ND","10","96,04","3,4","144,1","31,5","39,1","212,1","0"],
    [6343,"2014-10-21T17:00:00","ND","13","88,03","3,2","167,5","31,2","39,8","82,3","0"],
    [6344,"2014-10-21T18:00:00","ND","12","82,66","2,9","207,3","30,1","45,7","17","0"],
    [6345,"2014-10-21T19:00:00","ND","15","39,8","3,6","285,1","28,5","52,1","0","0"],
    [6346,"2014-10-21T20:00:00","ND","14","24","2,3","304,7","27,4","57,4","0","0"],
    [6347,"2014-10-21T21:00:00","ND","20","8,87","4","90","25,5","70,1","0","0"],
    [6348,"2014-10-21T22:00:00","ND","17","8,58","2,7","73,1","24,7","73,7","0","0"],
    [6349,"2014-10-21T23:00:00","ND","13","10,3","1,4","39,3","24,7","73","0","0"],
    [6350,"2014-10-22T00:00:00","ND","39","9,09","2,3","205,8","24,2","75,9","0","0"],
    [6351,"2014-10-22T01:00:00","ND","9","10,32","2,8","171,2","23,7","77,6","0","0"],
    [6352,"2014-10-22T02:00:00","ND","19","7,52","1","212,3","23,1","81","0","0"],
    [6353,"2014-10-22T03:00:00","ND","15","9,26","2,1","128,4","22,9","80,9","0","0"],
    [6354,"2014-10-22T04:00:00","ND","6","6,46","2,1","114,1","21,9","84,4","0","0"],
    [6355,"2014-10-22T05:00:00","ND","14","5,93","0,5","284,2","21,8","83,9","0","0"],
    [6356,"2014-10-22T06:00:00","ND","29","5,65","1,7","129,1","22,4","81,1","0","0"],
    [6357,"2014-10-22T07:00:00","ND","24","6,42","2,1","119,3","22,3","81,2","28,8","0"],
    [6358,"2014-10-22T08:00:00","ND","11","12,26","2,1","183,2","23,2","77,5","104,1","0"],
    [6359,"2014-10-22T09:00:00","ND","ND","21,86","2,9","167","24,7","72,2","171,8","0"],
    [6360,"2014-10-22T10:00:00","ND","23","ND","1,7","137,1","26,2","66,4","221","0"],
    [6361,"2014-10-22T11:00:00","ND","19","68,04","2,6","102,8","27,2","60,4","268,1","0"],
    [6362,"2014-10-22T12:00:00","ND","22","75,12","2,7","83","28","57,2","229,6","0"],
    [6363,"2014-10-22T13:00:00","ND","20","99,39","1","85,2","28,9","53,7","284,3","0"],
    [6364,"2014-10-22T14:00:00","ND","18","85,66","2,6","11,9","28,3","54,6","66,3","2,03"],
    [6365,"2014-10-22T15:00:00","ND","18","54,34","5,2","32,4","23,1","81,5","17,9","8,89"],
    [6366,"2014-10-22T16:00:00","ND","ND","32,05","4,4","44,9","22,6","84,4","10,2","7,11"],
    [6367,"2014-10-22T17:00:00","ND","ND","30,71","5,9","30,2","22,1","85,7","0","13,46"],
    [6368,"2014-10-22T18:00:00","ND","ND","ND","ND","ND","ND","ND","ND","ND"],
    [6369,"2014-10-22T19:00:00","ND","ND","ND","ND","ND","ND","ND","ND","ND"],
    [6370,"2014-10-22T20:00:00","ND","ND","ND","ND","ND","ND","ND","ND","ND"],
    [6371,"2014-10-22T21:00:00","ND","ND","ND","ND","ND","ND","ND","ND","ND"],
    [6372,"2014-10-22T22:00:00","ND","ND","ND","ND","ND","ND","ND","ND","ND"],
    [6373,"2014-10-22T23:00:00","ND","ND","ND","ND","ND","ND","ND","ND","ND"],
    [6374,"2014-10-23T00:00:00","ND","ND","ND","ND","ND","ND","ND","ND","ND"],
    [6375,"2014-10-23T01:00:00","ND","ND","ND","ND","ND","ND","ND","ND","ND"],
    [6376,"2014-10-23T02:00:00","ND","ND","ND","ND","ND","ND","ND","ND","ND"],
    [6377,"2014-10-23T03:00:00","ND","ND","ND","ND","ND","ND","ND","ND","ND"],
    [6378,"2014-10-23T04:00:00","ND","ND","ND","ND","ND","ND","ND","ND","ND"],
    [6379,"2014-10-23T05:00:00","ND","ND","ND","ND","ND","ND","ND","ND","ND"],
    [6380,"2014-10-23T06:00:00","ND","ND","ND","ND","ND","ND","ND","ND","ND"],
    [6381,"2014-10-23T07:00:00","ND","ND","ND","ND","ND","ND","ND","ND","ND"],
    [6382,"2014-10-23T08:00:00","ND","ND","ND","ND","ND","ND","ND","ND","ND"],
    [6383,"2014-10-23T09:00:00","ND","ND","ND","ND","ND","ND","ND","ND","ND"],
    [6384,"2014-10-23T10:00:00","ND","ND","ND","ND","ND","ND","ND","ND","ND"],
    [6385,"2014-10-23T11:00:00","ND","ND","ND","ND","ND","ND","ND","ND","ND"],
    [6386,"2014-10-23T12:00:00","ND","ND","ND","ND","ND","ND","ND","ND","ND"],
    [6387,"2014-10-23T13:00:00","ND","ND","ND","ND","ND","ND","ND","ND","ND"],
    [6388,"2014-10-23T14:00:00","ND","ND","ND","ND","ND","ND","ND","ND","ND"],
    [6389,"2014-10-23T15:00:00","ND","ND","ND","ND","ND","ND","ND","ND","ND"],
    [6390,"2014-10-23T16:00:00","ND","ND","ND","ND","ND","ND","ND","ND","ND"],
    [6391,"2014-10-23T17:00:00","ND","ND","ND","ND","ND","ND","ND","ND","ND"],
    [6392,"2014-10-23T18:00:00","ND","ND","ND","ND","ND","ND","ND","ND","ND"],
    [6393,"2014-10-23T19:00:00","ND","ND","ND","ND","ND","ND","ND","ND","ND"],
    [6394,"2014-10-23T20:00:00","ND","ND","ND","ND","ND","ND","ND","ND","ND"],
    [6395,"2014-10-23T21:00:00","ND","ND","ND","ND","ND","ND","ND","ND","ND"],
    [6396,"2014-10-23T22:00:00","ND","ND","ND","ND","ND","ND","ND","ND","ND"],
    [6397,"2014-10-23T23:00:00","ND","ND","ND","ND","ND","ND","ND","ND","ND"],
    [6398,"2014-10-24T00:00:00","ND","ND","ND","ND","ND","ND","ND","ND","ND"],
    [6399,"2014-10-24T01:00:00","ND","ND","ND","ND","ND","ND","ND","ND","ND"],
    [6400,"2014-10-24T02:00:00","ND","ND","ND","ND","ND","ND","ND","ND","ND"],
    [6401,"2014-10-24T03:00:00","ND","ND","ND","ND","ND","ND","ND","ND","ND"],
    [6402,"2014-10-24T04:00:00","ND","ND","ND","ND","ND","ND","ND","ND","ND"],
    [6403,"2014-10-24T05:00:00","ND","ND","ND","ND","ND","ND","ND","ND","ND"],
    [6404,"2014-10-24T06:00:00","ND","ND","ND","ND","ND","ND","ND","ND","ND"],
    [6405,"2014-10-24T07:00:00","ND","ND","ND","ND","ND","ND","ND","ND","ND"],
    [6406,"2014-10-24T08:00:00","ND","ND","ND","ND","ND","ND","ND","ND","ND"],
    [6407,"2014-10-24T09:00:00","ND","ND","ND","ND","ND","ND","ND","ND","ND"],
    [6408,"2014-10-24T10:00:00","ND","ND","ND","ND","ND","ND","ND","ND","ND"],
    [6409,"2014-10-24T11:00:00","ND","ND","ND","ND","ND","ND","ND","ND","ND"],
    [6410,"2014-10-24T12:00:00","ND","25","ND","ND","ND","ND","ND","ND","ND"],
    [6411,"2014-10-24T13:00:00","ND","ND","98,24","1,1","62,7","29,4","49,3","400,4","0"],
    [6412,"2014-10-24T14:00:00","ND","30","122,45","4,1","4,3","29,9","46,2","310,3","0"],
    [6413,"2014-10-24T15:00:00","ND","9","76,32","3,3","49,3","30,1","46,8","145,7","0"],
    [6414,"2014-10-24T16:00:00","ND","6","40,92","4,1","276,7","26,7","63,8","40,1","12,45"],
    [6415,"2014-10-24T17:00:00","ND","14","30,97","2","55,5","25,7","69,1","28,3","0"],
    [6416,"2014-10-24T18:00:00","ND","16","31,4","3","119,2","24,2","74,7","0","0,25"],
    [6417,"2014-10-24T19:00:00","ND","12","35,6","4,2","192,8","23","78,7","0","0"],
    [6418,"2014-10-24T20:00:00","ND","12","26,16","3,7","171,8","22,1","84","0","0"],
    [6419,"2014-10-24T21:00:00","ND","9","32,83","2,7","194,3","22,4","81","0","0"],
    [6420,"2014-10-24T22:00:00","ND","15","20,13","2,2","127","22,3","82,2","0","0"],
    [6421,"2014-10-24T23:00:00","ND","21","23,53","1,2","148,9","22","83,3","0","0"],
    [6422,"2014-10-25T00:00:00","ND","6","26,28","1,7","201,1","22,2","82,3","0","0"],
    [6423,"2014-10-25T01:00:00","ND","11","22,92","1,6","213,9","22","84,3","0","0"],
    [6424,"2014-10-25T02:00:00","ND","10","18,51","3,2","152,8","22","86","0","0"],
    [6425,"2014-10-25T03:00:00","ND","8","24,24","3,6","199,5","21,5","87,8","0","0,25"],
    [6426,"2014-10-25T04:00:00","ND","7","34,91","3,6","207,6","21,1","89,2","0","0,51"],
    [6427,"2014-10-25T05:00:00","ND","5","38,11","3,3","224,4","20,9","89,5","0","0"],
    [6428,"2014-10-25T06:00:00","ND","11","21,98","1,5","172,2","21,1","89,2","0","0"],
    [6429,"2014-10-25T07:00:00","ND","15","15,66","2,1","150,4","21,2","89,1","11","0"],
    [6430,"2014-10-25T08:00:00","ND","13","20,78","2,4","194,5","21,9","86,4","53,1","0"],
    [6431,"2014-10-25T09:00:00","ND","12","32,26","2,3","172,5","22,9","80,9","127,6","0"],
    [6432,"2014-10-25T10:00:00","ND","10","41,72","3","184,6","24,1","74,3","323,7","0"],
    [6433,"2014-10-25T11:00:00","ND","6","53,16","3,2","174,6","25,7","65,6","467,2","0"],
    [6434,"2014-10-25T12:00:00","ND","2","56,18","3,7","189,6","27,5","57,5","503,2","0"],
    [6435,"2014-10-25T13:00:00","ND","2","59,09","3","179,8","28,3","53","436,3","0"],
    [6436,"2014-10-25T14:00:00","ND","10","55,1","2,5","156,3","29,5","47,9","319,1","0"],
    [6437,"2014-10-25T15:00:00","ND","7","50,98","1,5","66,3","29,4","46,8","147,2","0"],
    [6438,"2014-10-25T16:00:00","ND","6","49,9","5,5","306","27,8","53,2","53,8","0"],
    [6439,"2014-10-25T17:00:00","ND","10","33,32","2,1","311,6","27,6","57,4","47","0"],
    [6440,"2014-10-25T18:00:00","ND","10","23,29","2,8","307,3","27,6","54,8","9,9","0"],
    [6441,"2014-10-25T19:00:00","ND","9","7,97","2,6","314,5","26,7","55,8","0","0"],
    [6442,"2014-10-25T20:00:00","ND","16","9,56","1,1","103,4","25,5","62,6","0","0"],
    [6443,"2014-10-25T21:00:00","ND","7","14,64","3,5","274,2","25,6","61,1","0","0"],
    [6444,"2014-10-25T22:00:00","ND","8","12,87","4,6","236,2","25","66,8","0","0"],
    [6445,"2014-10-25T23:00:00","ND","7","14,95","3,1","206,7","23,9","74,1","0","0"],
    [6446,"2014-10-26T00:00:00","ND","4","11,99","3,3","228","23,9","72,9","0","0"],
    [6447,"2014-10-26T01:00:00","ND","9","6,34","1,9","86,6","23,5","74,9","0","0"],
    [6448,"2014-10-26T02:00:00","ND","11","8,89","2,4","90,4","22,4","83,5","0","0"],
    [6449,"2014-10-26T03:00:00","ND","6","13,97","2","95,4","22,3","84,4","0","0,25"],
    [6450,"2014-10-26T04:00:00","ND","5","13,6","2,3","99,2","21,9","84,9","0","0"],
    [6451,"2014-10-26T05:00:00","ND","5","14,8","2,1","35,6","21,5","86,3","0","1,27"],
    [6452,"2014-10-26T06:00:00","ND","6","16,15","1,8","39,6","21,2","87,9","0","1,02"],
    [6453,"2014-10-26T07:00:00","ND","6","18,03","2,7","57,4","20,9","88,5","0","10,41"],
    [6454,"2014-10-26T08:00:00","ND","5","16,99","2,6","43,2","20,7","89,9","14,7","4,57"],
    [6455,"2014-10-26T09:00:00","ND","6","16,88","3,9","338,4","20,9","89,7","23,2","5,08"],
    [6456,"2014-10-26T10:00:00","ND","4","17,43","3,3","353","21,2","88,3","54,2","7,62"],
    [6457,"2014-10-26T11:00:00","ND","2","15,05","3,1","358,8","21,4","87,3","70,1","4,32"],
    [6458,"2014-10-26T12:00:00","ND","6","29,42","3,2","14,2","21,4","86,9","61","6,1"],
    [6459,"2014-10-26T13:00:00","ND","ND","35,68","2,8","15,4","21,8","85,7","156,5","1,78"],
    [6460,"2014-10-26T14:00:00","ND","ND","38,48","4,1","325,4","23,2","79,2","290,5","0"],
    [6461,"2014-10-26T15:00:00","ND","6","52,43","4,6","317,2","24,7","67,4","293,9","0"],
    [6462,"2014-10-26T16:00:00","ND","5","40,66","6,1","357,1","24,9","60,6","183,6","0"],
    [6463,"2014-10-26T17:00:00","ND","3","30,36","3,6","23,3","24,7","62,3","74,2","0"],
    [6464,"2014-10-26T18:00:00","ND","3","30,06","3,1","10,9","23,9","67,8","15","0"],
    [6465,"2014-10-26T19:00:00","ND","6","21,7","2,6","9,3","23,3","70,1","0","0"],
    [6466,"2014-10-26T20:00:00","ND","8","23,2","3,7","14,1","22,7","76,3","0","0"],
    [6467,"2014-10-26T21:00:00","ND","6","20,57","2,2","2,5","22,6","75","0","0"],
    [6468,"2014-10-26T22:00:00","ND","8","15,15","1,6","38,6","22,5","75,8","0","0"],
    [6469,"2014-10-26T23:00:00","ND","ND","11,79","1,4","113","21,9","78,3","0","0"],
    [6470,"2014-10-27T00:00:00","ND","6","14,25","2,1","149","21,5","81,7","0","0"],
    [6471,"2014-10-27T01:00:00","ND","3","12,26","1,2","56,9","21","84,1","0","0"],
    [6472,"2014-10-27T02:00:00","ND","2","14,25","1,8","229,8","21","83,8","0","0"],
    [6473,"2014-10-27T03:00:00","ND","3","13,46","1,4","195,3","21","84,5","0","0"],
    [6474,"2014-10-27T04:00:00","ND","ND","8,85","1,6","102,2","20,6","87,1","0","0"],
    [6475,"2014-10-27T05:00:00","ND","ND","5,85","1","78,4","20,3","89,4","0","0"],
    [6476,"2014-10-27T06:00:00","ND","17","6,36","2","48,1","20,2","88,5","0","0"],
    [6477,"2014-10-27T07:00:00","ND","22","7,18","2,2","8,1","20,4","87,8","14,5","0"],
    [6478,"2014-10-27T08:00:00","ND","21","9,36","2,5","11,8","20,9","84,9","53,9","0"],
    [6479,"2014-10-27T09:00:00","ND","13","16,41","1,4","43,2","22,1","80,7","144","0"],
    [6480,"2014-10-27T10:00:00","ND","ND","28","2,1","67,6","23,3","74,7","252,1","0"],
    [6481,"2014-10-27T11:00:00","ND","8","40,54","0,9","88","24,6","66,8","273","0"],
    [6482,"2014-10-27T12:00:00","ND","ND","62,56","1,1","119,1","25,9","60,7","345,8","0"],
    [6483,"2014-10-27T13:00:00","ND","11","70,19","3,5","70,8","27,4","53,6","487,9","0"],
    [6484,"2014-10-27T14:00:00","ND","11","84,21","3,3","84,3","28,4","49,3","424,5","0"],
    [6485,"2014-10-27T15:00:00","ND","11","89,86","3,3","70,7","29","49,3","336,7","0"],
    [6486,"2014-10-27T16:00:00","ND","ND","71,71","3,5","63,3","29,3","48,7","133,5","0"],
    [6487,"2014-10-27T17:00:00","ND","ND","64,46","3,1","16,5","28,9","50,9","34,1","0"],
    [6488,"2014-10-27T18:00:00","ND","10","25,14","4,7","304,4","27,7","53,2","11","0"],
    [6489,"2014-10-27T19:00:00","ND","8","13,72","4,7","292,8","26,7","54,9","0","0"],
    [6490,"2014-10-27T20:00:00","ND","19","7,65","2,2","15,2","26","59,5","0","0"],
    [6491,"2014-10-27T21:00:00","ND","14","9,11","3,4","91,4","23,6","72,2","0","0"],
    [6492,"2014-10-27T22:00:00","ND","9","8,48","1,5","30,5","23,4","70,9","0","0"],
    [6493,"2014-10-27T23:00:00","ND","15","8,34","1,5","42","23,2","71,4","0","0"],
    [6494,"2014-10-28T00:00:00","ND","13","8,77","1,9","4,1","22,8","73,4","0","0"],
    [6495,"2014-10-28T01:00:00","ND","6","7,57","2,8","73,3","22,3","76,9","0","0"],
    [6496,"2014-10-28T02:00:00","ND","1","7,87","0,8","183","21,8","79,5","0","0"],
    [6497,"2014-10-28T03:00:00","ND","9","6,99","1","185,5","21,8","80","0","0"],
    [6498,"2014-10-28T04:00:00","ND","15","5,95","0,9","182,7","21,3","84","0","0"],
    [6499,"2014-10-28T05:00:00","ND","18","6,4","1,9","237,1","21,3","83,6","0","0"],
    [6500,"2014-10-28T06:00:00","ND","25","6,16","2,1","183,3","21,3","83,8","0","0"],
    [6501,"2014-10-28T07:00:00","ND","33","6,53","1,8","150,5","21,4","83,7","18,5","0"],
    [6502,"2014-10-28T08:00:00","ND","20","14,7","1","207,2","23,1","77","165,9","0"],
    [6503,"2014-10-28T09:00:00","ND","14","33,14","1,2","184,3","24,9","68","289,7","0"],
    [6504,"2014-10-28T10:00:00","ND","13","57,5","4,4","207,7","26,2","63,2","369,2","0"],
    [6505,"2014-10-28T11:00:00","ND","16","76,83","3,7","162,4","28","56","454,9","0"],
    [6506,"2014-10-28T12:00:00","ND","12","90,72","1,8","177,2","28,8","52","357","0"],
    [6507,"2014-10-28T13:00:00","ND","7","108,58","2,6","260,2","29,5","49","333,4","0"],
    [6508,"2014-10-28T14:00:00","ND","11","104,93","4,7","322,6","29,9","47,2","299,5","0"],
    [6509,"2014-10-28T15:00:00","ND","10","62,13","3,8","14,4","30,6","43,7","362,5","0"],
    [6510,"2014-10-28T16:00:00","ND","8","54,3","4,8","79,4","30,9","42,4","218,1","0"],
    [6511,"2014-10-28T17:00:00","ND","25","48,04","5,7","91,7","28,9","50","33,6","0"],
    [6512,"2014-10-28T18:00:00","ND","20","28,71","3","106,1","27,3","53,1","5,1","0"],
    [6513,"2014-10-28T19:00:00","ND","17","24,25","3,2","2,2","26,7","59,7","0","0"],
    [6514,"2014-10-28T20:00:00","ND","8","14,58","1,2","87,7","25,7","66,8","0","0"],
    [6515,"2014-10-28T21:00:00","ND","15","8,12","3,8","118,7","24,8","71,5","0","0"],
    [6516,"2014-10-28T22:00:00","ND","16","7,3","1,6","126,2","24","74,3","0","0"],
    [6517,"2014-10-28T23:00:00","ND","8","10,26","0,4","96,3","23,9","73","0","0"],
    [6518,"2014-10-29T00:00:00","ND","20","7,16","1,5","221,2","24,2","73","0","0"],
    [6519,"2014-10-29T01:00:00","ND","9","6,38","2,6","89,5","23,4","77,2","0","0"],
    [6520,"2014-10-29T02:00:00","ND","6","6,67","0,9","104,7","23,1","78,3","0","0"],
    [6521,"2014-10-29T03:00:00","ND","6","6,83","0,8","356,1","23,3","78,5","0","2,79"],
    [6522,"2014-10-29T04:00:00","ND","10","6,65","1,8","124,2","22,3","85,2","0","6,86"],
    [6523,"2014-10-29T05:00:00","ND","10","6,1","2,2","174,4","22,2","85,7","0","0"],
    [6524,"2014-10-29T06:00:00","ND","18","6,08","3,1","219,3","22","86,5","0","0"],
    [6525,"2014-10-29T07:00:00","ND","19","7,1","2","241,2","22,2","85,1","15,9","0"],
    [6526,"2014-10-29T08:00:00","ND","31","7,83","2,9","80,1","23,1","83,2","67,1","0"],
    [6527,"2014-10-29T09:00:00","ND","30","7,71","3,3","71,3","23","84,2","61,3","0"],
    [6528,"2014-10-29T10:00:00","ND","13","22,35","0,4","327","24,5","74,5","287,6","0"],
    [6529,"2014-10-29T11:00:00","ND","10","50,98","2,7","80,2","27,2","61,2","441,4","0"],
    [6530,"2014-10-29T12:00:00","ND","11","68,96","3","67,6","28,8","54","439,4","0"],
    [6531,"2014-10-29T13:00:00","ND","10","84,21","2,7","39,9","30,2","48,1","458,5","0"],
    [6532,"2014-10-29T14:00:00","ND","6","52,43","5,2","358,3","30","48,1","310,2","0"],
    [6533,"2014-10-29T15:00:00","ND","ND","54,18","3,8","22,9","30,7","45,3","387,2","0"],
    [6534,"2014-10-29T16:00:00","ND","5","47,45","4,4","12","31,2","42,9","269,8","0"],
    [6535,"2014-10-29T17:00:00","ND","14","41,11","4,7","38,4","30,1","48,5","25,8","0"],
    [6536,"2014-10-29T18:00:00","ND","20","29,47","1,8","35,5","28,6","54,7","4,1","0"],
    [6537,"2014-10-29T19:00:00","ND","19","10,26","2,7","348,2","27,9","54","0","0"],
    [6538,"2014-10-29T20:00:00","ND","38","7,77","2,5","47,3","26,4","62,3","0","0"],
    [6539,"2014-10-29T21:00:00","ND","74","6,87","1,8","75,9","25,4","69,1","0","0"],
    [6540,"2014-10-29T22:00:00","ND","15","9,34","2,2","195,4","25,4","68","0","0"],
    [6541,"2014-10-29T23:00:00","ND","17","9,95","3,3","131,2","24,4","74,3","0","0"],
    [6542,"2014-10-30T00:00:00","ND","13","8,87","0,4","61,5","24,3","76,1","0","0"],
    [6543,"2014-10-30T01:00:00","ND","18","8,69","1,7","74","24,2","74,4","0","0"],
    [6544,"2014-10-30T02:00:00","ND","3","9,38","0,8","67,7","23,7","75,2","0","0"],
    [6545,"2014-10-30T03:00:00","ND","4","30,1","4,8","222,3","21,8","83,3","0","4,57"],
    [6546,"2014-10-30T04:00:00","ND","2","26,79","3,3","207,8","21,6","85,6","0","0"],
    [6547,"2014-10-30T05:00:00","ND","4","13,32","3,3","201,1","21,8","87,5","0","0"],
    [6548,"2014-10-30T06:00:00","ND","3","14,05","1,4","249,5","21,6","85,2","0","0"],
    [6549,"2014-10-30T07:00:00","ND","36","8,01","2,4","103,2","22,1","83,8","26,6","0"],
    [6550,"2014-10-30T08:00:00","ND","9","11,38","3,3","160,7","22,6","84,5","80,2","0"],
    [6551,"2014-10-30T09:00:00","ND","16","20,86","3,7","174,4","23,8","81","207,8","0"],
    [6552,"2014-10-30T10:00:00","ND","8","43,56","3,2","201,4","25,5","71,2","373,7","0"],
    [6553,"2014-10-30T11:00:00","ND","7","65,23","2,3","218,8","27,1","63","398,5","0"],
    [6554,"2014-10-30T12:00:00","ND","17","92,47","0,9","68,6","28,5","56,4","424,7","0"],
    [6555,"2014-10-30T13:00:00","ND","9","64,62","6","293,1","27,1","60,8","71,1","0,25"],
    [6556,"2014-10-30T14:00:00","ND","10","43,84","4,7","267,2","25,9","68,8","175,7","0"],
    [6557,"2014-10-30T15:00:00","ND","6","43,17","5,2","270,4","28,5","55,7","233,6","0"],
    [6558,"2014-10-30T16:00:00","ND","7","28,96","1,7","351,7","28,8","51,1","100,8","0"],
    [6559,"2014-10-30T17:00:00","ND","9","21,72","2,8","36,8","28","56,7","50,5","0"],
    [6560,"2014-10-30T18:00:00","ND","11","31,24","2,4","167,1","26,2","57,7","6,9","0"],
    [6561,"2014-10-30T19:00:00","ND","15","26,79","2,8","219,9","24,5","68,7","0","0,76"],
    [6562,"2014-10-30T20:00:00","ND","25","9,14","2,4","132,2","24","78,5","0","0"],
    [6563,"2014-10-30T21:00:00","ND","20","12,09","2,3","199,6","23,5","78,9","0","0"],
    [6564,"2014-10-30T22:00:00","ND","15","11,62","2,2","234,1","23,7","77,7","0","0"],
    [6565,"2014-10-30T23:00:00","ND","10","7,16","1,9","213","24,3","73,4","0","0"],
    [6566,"2014-10-31T00:00:00","ND","10","7,38","1,9","158","22,9","83,5","0","2,03"],
    [6567,"2014-10-31T01:00:00","ND","12","11,07","0,8","162,3","22,6","83,9","0","0"],
    [6568,"2014-10-31T02:00:00","ND","18","10,05","2,4","347,9","22","85,2","0","4,06"],
    [6569,"2014-10-31T03:00:00","ND","11","14,07","2,2","239,2","21,1","87,6","0","14,73"],
    [6570,"2014-10-31T04:00:00","ND","7","17,7","1,4","209","20,8","87,8","0","7,11"],
    [6571,"2014-10-31T05:00:00","ND","6","13,7","1,6","84,8","20,7","88,7","0","3,3"],
    [6572,"2014-10-31T06:00:00","ND","12","12,36","3,3","62,4","20,4","90,3","0","2,03"],
    [6573,"2014-10-31T07:00:00","ND","ND","12,42","2,5","356,4","20,4","90,2","13,5","0"],
    [6574,"2014-10-31T08:00:00","ND","8","16,7","3,6","352,6","21,1","88,3","57,4","0"],
    [6575,"2014-10-31T09:00:00","ND","8","17,13","3,6","75,3","22","83,4","100,7","0"],
    [6576,"2014-10-31T10:00:00","ND","8","22,17","3","103,7","22,8","79,3","129,2","0"],
    [6577,"2014-10-31T11:00:00","ND","8","31,36","2,8","85,9","23,6","75,2","242,8","0"],
    [6578,"2014-10-31T12:00:00","ND","6","60,28","1,5","288,8","25","69","364,2","0"],
    [6579,"2014-10-31T13:00:00","ND","15","84,52","1,5","250,2","26,3","63,7","391","0"],
    [6580,"2014-10-31T14:00:00","ND","12","79,5","2,5","121,4","27,1","59,2","294,6","0"],
    [6581,"2014-10-31T15:00:00","ND","7","70,63","3,3","105,4","27,9","56,1","331,8","0"],
    [6582,"2014-10-31T16:00:00","ND","7","75,85","1,9","58,6","27,9","53,6","129,6","0"],
    [6583,"2014-10-31T17:00:00","ND","20","58,66","4","12,1","27,3","58,3","24,5","0"],
    [6584,"2014-10-31T18:00:00","ND","21","24,1","2,9","333","26","62","0","0"],
    [6585,"2014-10-31T19:00:00","ND","3","10,28","2,3","282,8","24,4","70,1","0","0"],
    [6586,"2014-10-31T20:00:00","ND","25","6,87","2,5","76,1","24,2","72,2","0","0"],
    [6587,"2014-10-31T21:00:00","ND","19","7,14","2,1","92,8","23,5","74,7","0","0"],
    [6588,"2014-10-31T22:00:00","ND","17","8,36","2,2","85,1","22,7","77","0","0"],
    [6589,"2014-10-31T23:00:00","ND","13","6,65","1,3","84,8","22,5","77,5","0","0"],
    [6590,"2014-11-01T00:00:00","ND","9","5,48","0,5","309","21,9","80,1","0","0"],
    [6591,"2014-11-01T01:00:00","ND","17","5,85","1,1","133,4","21,9","81,1","0","0"],
    [6592,"2014-11-01T02:00:00","ND","13","5,75","0,5","119,9","21,6","83,1","0","0"],
    [6593,"2014-11-01T03:00:00","ND","14","6,34","2,4","65,3","21,9","81,4","0","0"],
    [6594,"2014-11-01T04:00:00","ND","10","6,73","2,1","66,9","21,3","82,9","0","0"],
    [6595,"2014-11-01T05:00:00","ND","7","5,97","0,7","11,7","21,1","83,7","0","0"],
    [6596,"2014-11-01T06:00:00","ND","12","5,95","1","129,4","21,2","83,5","0","0"],
    [6597,"2014-11-01T07:00:00","ND","16","7,18","0,9","1,3","21,4","83,6","34","0"],
    [6598,"2014-11-01T08:00:00","ND","33","15,62","1,7","137,1","22,5","79,7","147,7","0"],
    [6599,"2014-11-01T09:00:00","ND","21","25,86","2,5","146","23,6","75,1","254,2","0"],
    [6600,"2014-11-01T10:00:00","ND","24","46,88","2,2","95,3","24,9","70","302,8","0"],
    [6601,"2014-11-01T11:00:00","ND","16","70,59","3,5","78,5","26,1","64,6","368,3","0"],
    [6602,"2014-11-01T12:00:00","ND","15","78,44","3,2","66,6","27,7","57,5","440,5","0"],
    [6603,"2014-11-01T13:00:00","ND","4","74,73","3,4","70,9","29","52","450,3","0"],
    [6604,"2014-11-01T14:00:00","ND","9","81,89","2,9","63,9","29,7","49,2","346,4","0"],
    [6605,"2014-11-01T15:00:00","ND","12","83,52","3,8","23","30,5","45,8","295,9","0"],
    [6606,"2014-11-01T16:00:00","ND","13","60,21","3,7","27,3","30,4","46,4","63,4","0"],
    [6607,"2014-11-01T17:00:00","ND","12","41,96","3","31,2","30,1","46,1","75,3","0"],
    [6608,"2014-11-01T18:00:00","ND","6","26,83","3,7","306,5","29,1","47,8","7,5","0"],
    [6609,"2014-11-01T19:00:00","ND","3","20,96","5,2","294,3","27,7","51,3","0","0"],
    [6610,"2014-11-01T20:00:00","ND","18","11,36","1,9","357,8","26,8","56,2","0","0"],
    [6611,"2014-11-01T21:00:00","ND","15","8,07","4,1","82,2","24,6","70","0","0"],
    [6612,"2014-11-01T22:00:00","ND","14","9,42","1,9","81,5","24,4","71,2","0","0"],
    [6613,"2014-11-01T23:00:00","ND","17","8,14","3,2","83,2","24,8","70","0","0"],
    [6614,"2014-11-02T00:00:00","ND","6","8,34","2,4","102,8","24,1","73,8","0","0"],
    [6615,"2014-11-02T01:00:00","ND","4","9,52","2,3","94,8","23,6","76,1","0","0"],
    [6616,"2014-11-02T02:00:00","ND","3","11,83","2,4","72,2","23,1","79,2","0","2,03"],
    [6617,"2014-11-02T03:00:00","ND","6","11,17","2,3","359,2","22,2","85,4","0","3,05"],
    [6618,"2014-11-02T04:00:00","ND","7","6,77","1,7","297,1","22,1","87,6","0","0,25"],
    [6619,"2014-11-02T05:00:00","ND","12","6,42","2,8","90,9","21,8","88,8","0","0,25"],
    [6620,"2014-11-02T06:00:00","ND","9","8,48","1,8","48,9","21,7","89,1","0","0,25"],
    [6621,"2014-11-02T07:00:00","ND","16","7,42","1,1","24,7","21,9","87,3","11,9","0"],
    [6622,"2014-11-02T08:00:00","ND","9","14,86","0,7","184,7","22,4","84,2","49,7","0"],
    [6623,"2014-11-02T09:00:00","ND","11","28,93","0,4","264,4","23,1","80,8","130,1","0"],
    [6624,"2014-11-02T10:00:00","ND","19","37,74","2,4","78,4","24,2","76,8","228,8","0"],
    [6625,"2014-11-02T11:00:00","ND","7","51,22","3,1","71,1","25,9","69,1","435,8","0"],
    [6626,"2014-11-02T12:00:00","ND","5","59,22","3,8","70,8","26,9","63,8","330,5","0"],
    [6627,"2014-11-02T13:00:00","ND","4","58,89","3,4","84,6","27,4","61,9","314,2","0"],
    [6628,"2014-11-02T14:00:00","ND","7","70,23","2,3","95,6","28,2","55,3","292,8","0"],
    [6629,"2014-11-02T15:00:00","ND","12","82,81","1,3","68,4","28,5","54,3","237,8","0"],
    [6630,"2014-11-02T16:00:00","ND","13","67,11","3","34,3","28,6","55","101,1","0"],
    [6631,"2014-11-02T17:00:00","ND","7","60,46","2,9","0,7","28,1","56,4","50,5","0"],
    [6632,"2014-11-02T18:00:00","ND","15","50,47","2,3","358,9","27,8","57,6","9","0"],
    [6633,"2014-11-02T19:00:00","ND","23","26,14","2,4","28,2","26,7","63","0","0"],
    [6634,"2014-11-02T20:00:00","ND","28","13,3","1,3","7,5","25,6","70,3","0","0"],
    [6635,"2014-11-02T21:00:00","ND","21","7,95","3","77,7","24,4","76,2","0","0"],
    [6636,"2014-11-02T22:00:00","ND","21","7,34","2,5","74,3","23,4","79,8","0","0"],
    [6637,"2014-11-02T23:00:00","ND","16","8,93","2,2","65,2","23,4","78,4","0","0"],
    [6638,"2014-11-03T00:00:00","ND","12","10,36","1,1","122,3","23,1","78,3","0","0"],
    [6639,"2014-11-03T01:00:00","ND","17","12,17","1,3","72,8","23","77,8","0","0"],
    [6640,"2014-11-03T02:00:00","ND","15","12,4","1,4","90,3","22,7","78,1","0","0"],
    [6641,"2014-11-03T03:00:00","ND","17","9,38","1,8","85,1","22,2","80,1","0","0"],
    [6642,"2014-11-03T04:00:00","ND","15","8,3","0,8","312,1","21,8","81,6","0","0"],
    [6643,"2014-11-03T05:00:00","ND","17","6,28","1,3","87,8","21,7","83","0","0"],
    [6644,"2014-11-03T06:00:00","ND","24","6,36","2,2","99,8","20,9","85,5","0","0"],
    [6645,"2014-11-03T07:00:00","ND","20","7,79","0,6","237,7","21,4","84,2","28,8","0"],
    [6646,"2014-11-03T08:00:00","ND","31","12,15","1,1","103,2","22,5","81,8","113,5","0"],
    [6647,"2014-11-03T09:00:00","ND","25","37,76","1,2","216,2","24,1","74,9","229,9","0"],
    [6648,"2014-11-03T10:00:00","ND","31","59,71","3","77,6","25,6","69,5","323,7","0"],
    [6649,"2014-11-03T11:00:00","ND","28","86,46","1,4","84,3","27,2","62,5","387,4","0"],
    [6650,"2014-11-03T12:00:00","ND","15","87,54","2,3","92,6","28,8","55","466,7","0"],
    [6651,"2014-11-03T13:00:00","ND","21","90,56","2,9","96,8","30","48,4","462,3","0"],
    [6652,"2014-11-03T14:00:00","ND","16","95,1","3,4","56,2","30,8","45,6","416,5","0"],
    [6653,"2014-11-03T15:00:00","ND","31","119,16","5","4,5","31,5","45,2","307,9","0"],
    [6654,"2014-11-03T16:00:00","ND","12","64,25","5,2","359,7","31,2","44,8","154,6","0"],
    [6655,"2014-11-03T17:00:00","ND","7","36,07","6,9","306,7","29,6","46,7","60,6","0"],
    [6656,"2014-11-03T18:00:00","ND","5","23,9","5,5","307,7","28,8","48,4","8,2","0"],
    [6657,"2014-11-03T19:00:00","ND","16","10,48","3","68","27,3","56,5","0","0"],
    [6658,"2014-11-03T20:00:00","ND","16","10,07","3,5","74,5","25,5","66,2","0","0"],
    [6659,"2014-11-03T21:00:00","ND","10","9,36","0,4","101,6","24,9","67,9","0","0"],
    [6660,"2014-11-03T22:00:00","ND","18","10,42","3","209,4","24,8","69,2","0","0"],
    [6661,"2014-11-03T23:00:00","ND","11","7,69","2,4","87,6","24,3","71,7","0","0"],
    [6662,"2014-11-04T00:00:00","ND","7","9,11","2,5","88,7","23,9","73,6","0","0"],
    [6663,"2014-11-04T01:00:00","ND","4","14,09","1,9","346,7","23,7","73,4","0","0"],
    [6664,"2014-11-04T02:00:00","ND","2","16,44","1,8","73,3","23,2","77,9","0","0"],
    [6665,"2014-11-04T03:00:00","ND","1","18,41","1,9","88,4","23,1","78,4","0","0"],
    [6666,"2014-11-04T04:00:00","ND","3","13,7","0,8","97,5","22,9","79,6","0","0"],
    [6667,"2014-11-04T05:00:00","ND","8","7,83","3,5","193,6","22,9","80,9","0","0"],
    [6668,"2014-11-04T06:00:00","ND","13","6,95","2,1","103,7","22,7","82,6","0","0"],
    [6669,"2014-11-04T07:00:00","ND","11","6,75","1,6","12,2","22,7","83,1","6,8","0,25"],
    [6670,"2014-11-04T08:00:00","ND","14","7,32","2,2","90,9","23","84","16,7","1,78"],
    [6671,"2014-11-04T09:00:00","ND","10","11,3","2,3","1","22,8","85,8","77,8","3,3"],
    [6672,"2014-11-04T10:00:00","ND","11","24,06","1,4","293,3","24,2","77,5","205","0"],
    [6673,"2014-11-04T11:00:00","ND","15","42,19","0,1","304","26","70,2","338,5","0"],
    [6674,"2014-11-04T12:00:00","ND","25","82,58","1,5","306,1","27,3","62,4","311,4","0"],
    [6675,"2014-11-04T13:00:00","ND","16","108,15","3,7","40,8","28,7","57","335,1","0"],
    [6676,"2014-11-04T14:00:00","ND","13","71,19","3,3","44,1","29,6","52,8","324,1","0"],
    [6677,"2014-11-04T15:00:00","ND","15","54,26","3,9","58,1","29,3","53,9","144,2","0"],
    [6678,"2014-11-04T16:00:00","ND","1","38,56","4,1","286,5","29,1","49,9","121,5","0"],
    [6679,"2014-11-04T17:00:00","ND","9","23,76","5,4","284,5","28,3","51,8","57","0"],
    [6680,"2014-11-04T18:00:00","ND","6","13,58","4,6","287,8","27,3","54","10,7","0"],
    [6681,"2014-11-04T19:00:00","ND","7","10,5","0,8","290,4","26,6","57,4","0","0"],
    [6682,"2014-11-04T20:00:00","ND","8","8,5","3,5","87,3","25,3","67,6","0","0"],
    [6683,"2014-11-04T21:00:00","ND","13","10,46","1,9","110,5","24,8","69,6","0","0"],
    [6684,"2014-11-04T22:00:00","ND","11","23,55","4","209,2","24,1","75,3","0","0"],
    [6685,"2014-11-04T23:00:00","ND","8","17,17","0,7","181,8","23,5","78,1","0","0"],
    [6686,"2014-11-05T00:00:00","ND","5","12,97","1,7","30,8","22,6","82,8","0","17,53"],
    [6687,"2014-11-05T01:00:00","ND","3","14,34","3,1","188,4","22,1","85,7","0","2,54"],
    [6688,"2014-11-05T02:00:00","ND","ND","17,33","4","190","21,7","88,7","0","0"],
    [6689,"2014-11-05T03:00:00","ND","ND","21,31","2,3","212,2","21,6","88,7","0","0,76"],
    [6690,"2014-11-05T04:00:00","ND","ND","14,99","2,9","204,5","21,5","88,9","0","0"],
    [6691,"2014-11-05T05:00:00","ND","3","11,62","2,3","182,7","21,5","89,1","0","0"],
    [6692,"2014-11-05T06:00:00","ND","10","8,5","1,9","141,9","21,4","89,4","0","0"],
    [6693,"2014-11-05T07:00:00","ND","11","8,32","1,5","145,5","21,6","88,6","4,5","0"],
    [6694,"2014-11-05T08:00:00","ND","15","8,4","0,9","89,3","22,2","86,7","53","0"],
    [6695,"2014-11-05T09:00:00","ND","12","17,56","2,6","161","23,1","82,6","116,3","0"],
    [6696,"2014-11-05T10:00:00","ND","7","25,24","3,7","185,1","23,8","79,1","164,1","0"],
    [6697,"2014-11-05T11:00:00","ND","7","39,84","2,7","204,8","25,3","72,3","377,9","0"],
    [6698,"2014-11-05T12:00:00","ND","6","53,69","1,6","123,8","27,3","61,1","410,5","0"],
    [6699,"2014-11-05T13:00:00","ND","6","69,47","2,6","74,3","28,6","55,5","462","0"],
    [6700,"2014-11-05T14:00:00","ND","8","73,27","3,3","86,1","29,6","49,3","431,1","0"],
    [6701,"2014-11-05T15:00:00","ND","12","87,84","3,5","7,6","29,9","49","147,3","0"],
    [6702,"2014-11-05T16:00:00","ND","5","46,23","4,9","354,3","30","46,9","147,2","0"],
    [6703,"2014-11-05T17:00:00","ND","2","34,28","7,8","290,1","28,4","51,5","36,2","0"],
    [6704,"2014-11-05T18:00:00","ND","5","29,1","6,6","297,7","27,7","54,5","7,4","0"],
    [6705,"2014-11-05T19:00:00","ND","4","20","4","309,3","27,1","56,2","0","0"],
    [6706,"2014-11-05T20:00:00","ND","19","11,34","2,5","55","26,4","61,8","0","0"],
    [6707,"2014-11-05T21:00:00","ND","13","9,62","2,1","120","25,4","68,1","0","0"],
    [6708,"2014-11-05T22:00:00","ND","12","25,39","5,6","216,6","24,7","75,4","0","0"],
    [6709,"2014-11-05T23:00:00","ND","9","32,44","3,9","202,8","23,7","78,6","0","0"],
    [6710,"2014-11-06T00:00:00","ND","8","35,66","3","184,7","23,5","79,4","0","0"],
    [6711,"2014-11-06T01:00:00","ND","6","30,08","1,4","180,9","23,4","80,2","0","0"],
    [6712,"2014-11-06T02:00:00","ND","10","21,96","1,7","216,2","23,3","81,2","0","0"],
    [6713,"2014-11-06T03:00:00","ND","6","28,38","3,8","226,5","22,6","83,5","0","1,02"],
    [6714,"2014-11-06T04:00:00","ND","3","22,25","1,5","196,9","22,2","86,6","0","0,25"],
    [6715,"2014-11-06T05:00:00","ND","8","20,6","2,3","152","22","85,8","0","0"],
    [6716,"2014-11-06T06:00:00","ND","6","23,96","3","198,4","21,6","86,4","0","0"],
    [6717,"2014-11-06T07:00:00","ND","6","15,6","2,9","228,6","22,2","84,2","36,3","0"],
    [6718,"2014-11-06T08:00:00","ND","18","18,25","2,4","130,3","23,4","79,2","99,1","0"],
    [6719,"2014-11-06T09:00:00","ND","8","34,11","1,9","200,9","24,2","75,6","242","0"],
    [6720,"2014-11-06T10:00:00","ND","5","50,57","1,4","31,5","26,1","65","349,9","0"],
    [6721,"2014-11-06T11:00:00","ND","4","60,83","2,2","94","27,2","58,9","390","0"],
    [6722,"2014-11-06T12:00:00","ND","6","75,61","3","180,6","28,4","56,5","477,4","0"],
    [6723,"2014-11-06T13:00:00","ND","5","74,67","2,7","165,9","29,6","51,6","435,5","0"],
    [6724,"2014-11-06T14:00:00","ND","5","84,3","2,1","121,4","30,4","47,1","414,6","0"],
    [6725,"2014-11-06T15:00:00","ND","5","93","2,6","338","30,8","46,5","191,5","0"],
    [6726,"2014-11-06T16:00:00","ND","ND","46,23","6,2","293","29,7","50,3","89,1","0"],
    [6727,"2014-11-06T17:00:00","ND","ND","31,61","7,1","290,6","29","52,2","69,3","0"],
    [6728,"2014-11-06T18:00:00","ND","ND","18,7","6,7","299","27,6","56,4","7,3","0"],
    [6729,"2014-11-06T19:00:00","ND","ND","8,24","3,5","319,2","27,7","54,2","0","0"],
    [6730,"2014-11-06T20:00:00","ND","26","10,73","4,6","67,5","26,5","61,6","0","0"],
    [6731,"2014-11-06T21:00:00","ND","17","10,03","2,9","62","25,9","63,8","0","0"],
    [6732,"2014-11-06T22:00:00","ND","6","8,26","4,2","233,8","25,4","69,1","0","0"],
    [6733,"2014-11-06T23:00:00","ND","24","11,26","2,9","181","24,3","75,8","0","0"],
    [6734,"2014-11-07T00:00:00","ND","8","20,78","3","171,1","23,8","78,7","0","0"],
    [6735,"2014-11-07T01:00:00","ND","5","19,53","1,3","177,8","23,4","81","0","0"],
    [6736,"2014-11-07T02:00:00","ND","8","14,05","2,9","105","22,9","83,4","0","0"],
    [6737,"2014-11-07T03:00:00","ND","24","13,3","1,2","124,8","22,8","83,8","0","0"],
    [6738,"2014-11-07T04:00:00","ND","7","11,93","1,1","192,8","23,1","81,7","0","0"],
    [6739,"2014-11-07T05:00:00","ND","21","8,73","1,9","99,2","23","82,5","0","0"],
    [6740,"2014-11-07T06:00:00","ND","28","6,48","1,9","34,7","22,8","84,2","0","0"],
    [6741,"2014-11-07T07:00:00","ND","33","6,46","1,5","52,4","22,9","83","32,4","0"],
    [6742,"2014-11-07T08:00:00","ND","22","12,48","2,5","100,7","24","76,1","157,3","0"],
    [6743,"2014-11-07T09:00:00","ND","14","28,12","1,8","177,7","25,3","70,5","200,9","0"],
    [6744,"2014-11-07T10:00:00","ND","27","42,33","2,4","127,7","26,3","66,2","263,1","0"],
    [6745,"2014-11-07T11:00:00","ND","17","60,4","2,7","48,9","28,1","57,3","404,3","0"],
    [6746,"2014-11-07T12:00:00","ND","6","68,13","3,1","18,4","29,4","52,1","476,5","0"],
    [6747,"2014-11-07T13:00:00","ND","7","72,06","2,6","42,7","30,5","47","410,3","0"],
    [6748,"2014-11-07T14:00:00","ND","12","77,24","2,8","55,6","31","44","278,6","0"],
    [6749,"2014-11-07T15:00:00","ND","12","83,09","3,8","19,5","31,7","42,4","307,9","0"],
    [6750,"2014-11-07T16:00:00","ND","7","65,23","3,9","46,1","31,8","43,4","133,3","0"],
    [6751,"2014-11-07T17:00:00","ND","10","46,53","5,7","290,4","30,9","44,7","74,8","0"],
    [6752,"2014-11-07T18:00:00","ND","11","22,1","7","297,9","28,9","50,7","5,5","0"],
    [6753,"2014-11-07T19:00:00","ND","17","9,62","3","332","28,3","53,2","0","0"],
    [6754,"2014-11-07T20:00:00","ND","39","9,64","2,5","22,2","27,1","59","0","0"],
    [6755,"2014-11-07T21:00:00","ND","22","7,97","2,6","67,6","26,2","63,9","0","0"],
    [6756,"2014-11-07T22:00:00","ND","18","8,87","3,8","71,1","25,3","68,8","0","0"],
    [6757,"2014-11-07T23:00:00","ND","12","9,81","1,6","100,9","24,7","70,7","0","0"],
    [6758,"2014-11-08T00:00:00","ND","8","8,75","2,7","90,5","24","74,4","0","0"],
    [6759,"2014-11-08T01:00:00","ND","13","6,65","2","87,8","23,7","75,9","0","0"],
    [6760,"2014-11-08T02:00:00","ND","7","10,32","1,6","101,2","23,8","74,5","0","0"],
    [6761,"2014-11-08T03:00:00","ND","6","11,64","3","149,8","23,4","78,3","0","3,56"],
    [6762,"2014-11-08T04:00:00","ND","16","12,11","1,7","191,7","22,5","85,6","0","0,51"],
    [6763,"2014-11-08T05:00:00","ND","27","11,17","3","198,9","22,7","85,3","0","0"],
    [6764,"2014-11-08T06:00:00","ND","10","13,66","3,9","184,7","22,2","87,2","0","0"],
    [6765,"2014-11-08T07:00:00","ND","ND","17,5","3","236,3","22,1","86,2","11,8","0,76"],
    [6766,"2014-11-08T08:00:00","ND","13","10,34","3,7","275,5","22,4","85,4","14,9","6,86"],
    [6767,"2014-11-08T09:00:00","ND","9","10,91","1,3","208,5","22,4","83,5","31,8","1,02"],
    [6768,"2014-11-08T10:00:00","ND","12","16,88","1","149,8","22,7","83,3","66,7","0,25"],
    [6769,"2014-11-08T11:00:00","ND","12","32,69","1,9","237,2","23,3","79,3","138,5","0"],
    [6770,"2014-11-08T12:00:00","ND","16","58,79","1,8","246,2","24,4","69,6","245,2","0,25"],
    [6771,"2014-11-08T13:00:00","ND","11","71,96","2","120,4","25,9","62,6","356,4","0"],
    [6772,"2014-11-08T14:00:00","ND","8","69,11","2,8","86,2","27,1","56,4","284,2","0"],
    [6773,"2014-11-08T15:00:00","ND","6","74,84","2,3","293,8","27,8","50,2","249,4","0"],
    [6774,"2014-11-08T16:00:00","ND","6","70,72","1,8","157","28,4","47,3","124,7","0"],
    [6775,"2014-11-08T17:00:00","ND","15","50,26","2,5","110,8","28,2","50,4","63,9","0"],
    [6776,"2014-11-08T18:00:00","ND","12","33,75","2","96,9","27,8","54,3","12,9","0"],
    [6777,"2014-11-08T19:00:00","ND","28","19,29","2,2","68,9","27,3","58","0","0"],
    [6778,"2014-11-08T20:00:00","ND","18","8,22","0,6","27,9","26,3","63,9","0","0"],
    [6779,"2014-11-08T21:00:00","ND","17","7,3","1,5","91,5","25,4","67,5","0","0"],
    [6780,"2014-11-08T22:00:00","ND","13","6,59","2,4","98,2","24,3","73,5","0","0"],
    [6781,"2014-11-08T23:00:00","ND","12","7,06","1,8","50,8","23,7","73,9","0","0"],
    [6782,"2014-11-09T00:00:00","ND","8","10,42","2,7","1,2","24","69,1","0","0"],
    [6783,"2014-11-09T01:00:00","ND","10","10,09","2","81,5","23,9","70,3","0","0"],
    [6784,"2014-11-09T02:00:00","ND","8","8,28","1,2","99,6","23,1","76,8","0","0"],
    [6785,"2014-11-09T03:00:00","ND","8","9,97","0,5","116","22,9","78,1","0","0"],
    [6786,"2014-11-09T04:00:00","ND","8","7,89","2,2","116,2","22,6","80","0","0"],
    [6787,"2014-11-09T05:00:00","ND","5","6,91","1,8","15,5","22,1","82,2","0","0"],
    [6788,"2014-11-09T06:00:00","ND","16","6,16","0,1","338,4","21,8","82,5","0","0"],
    [6789,"2014-11-09T07:00:00","ND","20","7,22","0,8","231,9","21,7","84,5","18,2","0"],
    [6790,"2014-11-09T08:00:00","ND","26","12,28","1,7","319,5","22,8","79,5","74,5","0"],
    [6791,"2014-11-09T09:00:00","ND","17","24,43","2,3","63","24,3","71,9","211,3","0"],
    [6792,"2014-11-09T10:00:00","ND","26","55,55","1,1","124,4","25,8","66,1","351,7","0"],
    [6793,"2014-11-09T11:00:00","ND","23","92,6","2,1","102,6","27,6","58,6","429,4","0"],
    [6794,"2014-11-09T12:00:00","ND","13","89,76","3,1","85,8","29,1","51,5","463","0"],
    [6795,"2014-11-09T13:00:00","ND","12","95","2,1","92,4","29,9","48,6","362,6","0"],
    [6796,"2014-11-09T14:00:00","ND","18","102,91","4,3","345,2","30,2","47,6","248,1","0"],
    [6797,"2014-11-09T15:00:00","ND","5","59,36","5,4","318,2","30,3","44,1","262,9","0"],
    [6798,"2014-11-09T16:00:00","ND","1","40,17","4,8","311,1","30,8","43","281","0"],
    [6799,"2014-11-09T17:00:00","ND","6","34,87","6,3","80,3","28,9","55","92","0"],
    [6800,"2014-11-09T18:00:00","ND","15","29,81","3,5","126","26,7","63,7","0","0"],
    [6801,"2014-11-09T19:00:00","ND","8","37,64","5,1","190,1","24,7","69,2","0","0"],
    [6802,"2014-11-09T20:00:00","ND","11","36,21","5,3","211,4","23,4","72","0","0"],
    [6803,"2014-11-09T21:00:00","ND","7","27,43","3,9","148,5","22,5","80","0","0"],
    [6804,"2014-11-09T22:00:00","ND","15","22,55","1,7","119,2","22,7","79,6","0","0"],
    [6805,"2014-11-09T23:00:00","ND","40","18,41","1,7","81,3","22,9","79,8","0","0"],
    [6806,"2014-11-10T00:00:00","ND","14","20,17","3","130","22,5","81,9","0","0"],
    [6807,"2014-11-10T01:00:00","ND","7","20,09","3,3","167,9","22,3","82,4","0","0"],
    [6808,"2014-11-10T02:00:00","ND","6","16,15","2,8","165,9","21,7","87,8","0","3,3"],
    [6809,"2014-11-10T03:00:00","ND","8","16,66","2,5","163","21,5","89,6","0","1,52"],
    [6810,"2014-11-10T04:00:00","ND","9","15,64","2,6","182,1","21,5","89,7","0","0"],
    [6811,"2014-11-10T05:00:00","ND","9","16,09","2,9","181,1","21,5","89,2","0","0,25"],
    [6812,"2014-11-10T06:00:00","ND","6","16,44","3,6","158,5","21,3","89,1","0","4,32"],
    [6813,"2014-11-10T07:00:00","ND","11","13,93","4,2","123","20,4","89,3","0","14,99"],
    [6814,"2014-11-10T08:00:00","ND","8","15,07","3,4","133,1","19,9","89,5","12,4","8,38"],
    [6815,"2014-11-10T09:00:00","ND","4","25,12","1,8","205,4","20,3","87,1","52,1","3,3"],
    [6816,"2014-11-10T10:00:00","ND","2","37,38","2,8","233,1","21,4","84,1","175,6","0,25"],
    [6817,"2014-11-10T11:00:00","ND","4","47,33","3","268","23,1","78,2","297,7","0"],
    [6818,"2014-11-10T12:00:00","ND","4","69,31","1,8","325,9","25,5","64,7","451,8","0"],
    [6819,"2014-11-10T13:00:00","ND","10","92,78","4,1","50,4","27,2","58","466,8","0"],
    [6820,"2014-11-10T14:00:00","ND","15","78,53","5,5","60,4","28,3","54,9","367,1","0"],
    [6821,"2014-11-10T15:00:00","ND","11","68,37","5,7","63,9","28,8","54,3","317,6","0"],
    [6822,"2014-11-10T16:00:00","ND","7","45,53","3,6","304,5","28,4","50,7","161,9","0"],
    [6823,"2014-11-10T17:00:00","ND","6","32,36","6,9","285,7","27,6","50,8","62,3","0"],
    [6824,"2014-11-10T18:00:00","ND","7","20,37","4,7","305,7","27,1","51,2","4,9","0"],
    [6825,"2014-11-10T19:00:00","ND","7","12,13","3,5","315,9","26,5","53,6","0","0"],
    [6826,"2014-11-10T20:00:00","ND","18","8,32","2,7","89,4","25,2","64,8","0","0"],
    [6827,"2014-11-10T21:00:00","ND","8","9,11","1,4","143,1","24,3","70,4","0","0"],
    [6828,"2014-11-10T22:00:00","ND","8","18,78","3,3","212,4","23,8","74,5","0","0"],
    [6829,"2014-11-10T23:00:00","ND","5","19,92","2,4","157,6","23,6","75,8","0","0"],
    [6830,"2014-11-11T00:00:00","ND","6","24,18","2,6","159,1","23,4","77,6","0","0"],
    [6831,"2014-11-11T01:00:00","ND","7","27,73","2,1","177,3","22,9","79,9","0","0"],
    [6832,"2014-11-11T02:00:00","ND","6","21,61","2,3","115,9","22,5","82,4","0","0"],
    [6833,"2014-11-11T03:00:00","ND","7","21,8","1,6","190,8","22,4","82,8","0","0"],
    [6834,"2014-11-11T04:00:00","ND","5","19,25","1","142","22,4","82,7","0","0"],
    [6835,"2014-11-11T05:00:00","ND","8","12,15","2,8","39","21,8","84,8","0","0"],
    [6836,"2014-11-11T06:00:00","ND","11","15,4","1,7","342,9","21,5","86,3","0","0"],
    [6837,"2014-11-11T07:00:00","ND","8","14,13","2,1","257,8","21,8","84,8","0","0,25"],
    [6838,"2014-11-11T08:00:00","ND","13","11,68","3,4","193,4","21,4","88,6","8,4","9,91"],
    [6839,"2014-11-11T09:00:00","ND","8","16,62","3,1","171,1","21","89,5","31,9","12,45"],
    [6840,"2014-11-11T10:00:00","ND","7","25,16","2,8","182,3","21,7","87,5","128","0,25"],
    [6841,"2014-11-11T11:00:00","ND","5","39,72","2,1","193,2","23,4","80,3","316,8","0"],
    [6842,"2014-11-11T12:00:00","ND","3","51,1","2,3","155,5","25,3","68,1","486,2","0"],
    [6843,"2014-11-11T13:00:00","ND","7","56,95","1,7","112,1","26,9","60,1","473,5","0"],
    [6844,"2014-11-11T14:00:00","ND","7","59,19","2,6","76","27,9","55,9","275,2","0"],
    [6845,"2014-11-11T15:00:00","ND","7","ND","4,8","359,2","27,1","59,1","55","0"],
    [6846,"2014-11-11T16:00:00","ND","ND","ND","3,8","11,8","26,8","60,8","51","0"],
    [6847,"2014-11-11T17:00:00","ND","5","20,15","3,5","21,4","26,7","63,2","35,6","0"],
    [6848,"2014-11-11T18:00:00","ND","15","16,68","3,4","17,7","26,4","58,9","5,5","0"],
    [6849,"2014-11-11T19:00:00","ND","15","13,25","3,1","8,6","25,9","59,7","0","0"],
    [6850,"2014-11-11T20:00:00","ND","12","14,48","3,5","35","24,7","67,2","0","0"],
    [6851,"2014-11-11T21:00:00","ND","10","10,09","1,4","4,6","24,5","69,7","0","0"],
    [6852,"2014-11-11T22:00:00","ND","8","18,43","6,3","214,7","23,2","78,2","0","0"],
    [6853,"2014-11-11T23:00:00","ND","6","21,49","4","189,8","22,4","81,7","0","0"],
    [6854,"2014-11-12T00:00:00","ND","4","22,12","4","192,8","21,8","85,7","0","0"],
    [6855,"2014-11-12T01:00:00","ND","5","23,53","3,4","233,7","21,5","86,9","0","0,25"],
    [6856,"2014-11-12T02:00:00","ND","5","19,05","0,9","170","21,6","86,4","0","1,02"],
    [6857,"2014-11-12T03:00:00","ND","3","18,15","1,7","182,3","21,4","88,5","0","3,81"],
    [6858,"2014-11-12T04:00:00","ND","3","17,9","1,9","148,1","21,2","89","0","0"],
    [6859,"2014-11-12T05:00:00","ND","3","14,09","2,5","84,7","21","89,8","0","4,57"],
    [6860,"2014-11-12T06:00:00","ND","ND","9,05","3,2","65,7","20,6","90,1","0","3,81"],
    [6861,"2014-11-12T07:00:00","ND","14","12,66","2,8","18,4","20,5","90,3","6,3","3,56"],
    [6862,"2014-11-12T08:00:00","ND","ND","16,35","3,6","347,6","20,8","89,8","48,5","0"],
    [6863,"2014-11-12T09:00:00","ND","ND","22,17","1,8","15,4","21,9","85,1","116","0"],
    [6864,"2014-11-12T10:00:00","ND","20","26,24","2,5","107,5","23","80,9","193,1","0"],
    [6865,"2014-11-12T11:00:00","ND","15","41,56","3,3","137,8","24,2","74,6","246,3","0"],
    [6866,"2014-11-12T12:00:00","ND","8","49,45","2,9","162,8","25,1","69,3","225,2","0"],
    [6867,"2014-11-12T13:00:00","ND","ND","55,5","3,2","160,7","25,6","66","206","0"],
    [6868,"2014-11-12T14:00:00","ND","8","57,71","3,1","179,5","26","61,5","202,6","0"],
    [6869,"2014-11-12T15:00:00","ND","6","49,59","3,4","154,4","26,2","56,9","146,2","0"],
    [6870,"2014-11-12T16:00:00","ND","5","55,26","3,1","179,8","26","60,8","97,8","0"],
    [6871,"2014-11-12T17:00:00","ND","6","47,47","2,3","215","25,9","59,5","45,6","0"],
    [6872,"2014-11-12T18:00:00","ND","15","22,19","4,5","270,7","25,5","58,7","5,8","0"],
    [6873,"2014-11-12T19:00:00","ND","16","13,72","1,9","351,2","25,1","61,4","0","0"],
    [6874,"2014-11-12T20:00:00","ND","42","13,3","2,4","74,1","24,4","67,3","0","0"],
    [6875,"2014-11-12T21:00:00","ND","7","10,83","2,2","126,3","23,4","74","0","0"],
    [6876,"2014-11-12T22:00:00","ND","11","9,38","3,6","80,2","23","74,2","0","0"],
    [6877,"2014-11-12T23:00:00","ND","3","10,28","2,3","35,3","22,5","78,7","0","0"],
    [6878,"2014-11-13T00:00:00","ND","8","9,75","1,4","61,7","22,3","79,7","0","0"],
    [6879,"2014-11-13T01:00:00","ND","13","10,13","2","63,8","22,1","80,1","0","0"],
    [6880,"2014-11-13T02:00:00","ND","14","15,11","2","38,5","21,8","80,4","0","0"],
    [6881,"2014-11-13T03:00:00","ND","10","10,77","1,7","36,8","21,5","83,7","0","0"],
    [6882,"2014-11-13T04:00:00","ND","1","9,34","1,6","331,6","21,4","85,1","0","0"],
    [6883,"2014-11-13T05:00:00","ND","20","7,34","2,1","118,6","21,6","84,4","0","0"],
    [6884,"2014-11-13T06:00:00","ND","21","7,93","2,3","56,1","21,1","86,1","0","0"],
    [6885,"2014-11-13T07:00:00","ND","22","9,75","1,7","62,2","21,1","86","23,3","0"],
    [6886,"2014-11-13T08:00:00","ND","15","13,7","0,6","165,6","22","82,5","138,5","0"],
    [6887,"2014-11-13T09:00:00","ND","12","28,3","4,3","224","23,5","74,4","242,8","0"],
    [6888,"2014-11-13T10:00:00","ND","12","46,43","3,5","189,5","25,2","65,6","385,7","0"],
    [6889,"2014-11-13T11:00:00","ND","20","67,35","2,8","149,5","26,4","59,2","409,4","0"],
    [6890,"2014-11-13T12:00:00","ND","15","86,72","3","184,9","26,9","57,6","258,3","0"],
    [6891,"2014-11-13T13:00:00","ND","11","76,49","4,3","223,3","26,2","60","63,6","0"],
    [6892,"2014-11-13T14:00:00","ND","13","74,88","1,9","327,1","26","60,3","90,5","0"],
    [6893,"2014-11-13T15:00:00","ND","17","64,11","3,6","291,1","23,8","73,1","35,6","5,08"],
    [6894,"2014-11-13T16:00:00","ND","16","27,06","2,5","52,5","22,4","83,3","31,3","16,76"],
    [6895,"2014-11-13T17:00:00","ND","27","26,49","2,7","48,8","23,1","82,4","41","0"],
    [6896,"2014-11-13T18:00:00","ND","29","14,91","2,4","75,7","23,3","82,9","5,9","0"],
    [6897,"2014-11-13T19:00:00","ND","20","12,93","1,8","144,1","22,8","82,4","0","0"],
    [6898,"2014-11-13T20:00:00","ND","15","16,48","3,3","225","22,4","80,6","0","0"],
    [6899,"2014-11-13T21:00:00","ND","24","8,65","2,3","203,1","22,7","79,1","0","0"],
    [6900,"2014-11-13T22:00:00","ND","22","7,65","2,1","154,1","22,3","82","0","0"],
    [6901,"2014-11-13T23:00:00","ND","19","7,48","1,7","90,8","21,6","86,2","0","0"],
    [6902,"2014-11-14T00:00:00","ND","25","7,91","1,1","102,9","21,4","86,8","0","0"],
    [6903,"2014-11-14T01:00:00","ND","12","10,34","1,3","166,7","21,4","85,7","0","0"],
    [6904,"2014-11-14T02:00:00","ND","16","10,62","1,8","117,5","21,1","87","0","0"],
    [6905,"2014-11-14T03:00:00","ND","13","9,87","0,9","99,5","21,1","87","0","0"],
    [6906,"2014-11-14T04:00:00","ND","14","8,18","1,4","113,2","21","87,7","0","0"],
    [6907,"2014-11-14T05:00:00","ND","9","8,16","0,4","325,5","21","87,8","0","0"],
    [6908,"2014-11-14T06:00:00","ND","20","7,61","0,6","52,2","21,1","88,1","0","0"],
    [6909,"2014-11-14T07:00:00","ND","25","6,95","0,7","190","21,3","87,8","8,6","0"],
    [6910,"2014-11-14T08:00:00","ND","30","9,09","2,3","151,5","21,9","85,5","67,6","0"],
    [6911,"2014-11-14T09:00:00","ND","32","20,35","2,6","94,7","22,8","80,3","207,5","0"],
    [6912,"2014-11-14T10:00:00","ND","27","53,3","1,9","163,7","24,5","70,5","350,7","0"],
    [6913,"2014-11-14T11:00:00","ND","22","75,57","2,1","145,2","25,8","64,1","331,2","0"],
    [6914,"2014-11-14T12:00:00","ND","17","83,73","2,7","88,4","26,5","60,4","327,4","0"],
    [6915,"2014-11-14T13:00:00","ND","20","93,86","2,3","130,4","27,7","55,2","384,5","0"],
    [6916,"2014-11-14T14:00:00","ND","19","111,87","2,7","126,4","28,5","52,2","346,6","0"],
    [6917,"2014-11-14T15:00:00","ND","20","115,51","1,1","48,4","28,2","54,9","158,6","5,59"],
    [6918,"2014-11-14T16:00:00","ND","21","92,07","1,2","154,7","26,8","63,9","213,1","4,57"],
    [6919,"2014-11-14T17:00:00","ND","21","86,82","3,4","128,6","28,4","51","133,4","0"],
    [6920,"2014-11-14T18:00:00","ND","34","66,17","1,3","129,7","28,1","54,3","13,2","0"],
    [6921,"2014-11-14T19:00:00","ND","7","14,52","4,1","282,9","26,8","56,7","0","0"],
    [6922,"2014-11-14T20:00:00","ND","13","14,25","2,5","289,8","25,9","60,4","0","0"],
    [6923,"2014-11-14T21:00:00","ND","39","12,36","3,1","79,1","24,3","71,6","0","0"],
    [6924,"2014-11-14T22:00:00","ND","16","11,99","1,7","54,7","24","71,2","0","0"],
    [6925,"2014-11-14T23:00:00","ND","11","12,5","2,5","88","23,5","73,5","0","0"],
    [6926,"2014-11-15T00:00:00","ND","11","13,13","1","114,9","23","76,1","0","0"],
    [6927,"2014-11-15T01:00:00","ND","8","13,32","1,5","173,2","22,8","77,4","0","0"],
    [6928,"2014-11-15T02:00:00","ND","11","12,66","2","169,1","22,6","78,5","0","0"],
    [6929,"2014-11-15T03:00:00","ND","10","8,89","2,3","151,3","22,4","79,9","0","0"],
    [6930,"2014-11-15T04:00:00","ND","13","10,22","1,9","140,8","21,9","82,2","0","0"],
    [6931,"2014-11-15T05:00:00","ND","8","13,93","2","171,3","21,7","78,4","0","0"],
    [6932,"2014-11-15T06:00:00","ND","16","12,19","2,4","137,5","21,5","79,3","0","0"],
    [6933,"2014-11-15T07:00:00","ND","13","12,78","1,3","188,9","21,3","82,4","21,5","0"],
    [6934,"2014-11-15T08:00:00","ND","26","13,82","0,7","163,6","22,3","79,4","58,8","0"],
    [6935,"2014-11-15T09:00:00","ND","25","21,72","2","220,8","23,2","75,3","129","0"],
    [6936,"2014-11-15T10:00:00","ND","18","39,42","0,8","175,8","24,4","68,7","225,9","0"],
    [6937,"2014-11-15T11:00:00","ND","13","57,24","2,3","126,3","25,9","62,6","425,2","0"],
    [6938,"2014-11-15T12:00:00","ND","18","86,48","2,8","107,7","27,5","56","450,4","0"],
    [6939,"2014-11-15T13:00:00","ND","16","102,79","2,3","60,4","28,6","50,5","456,9","0"],
    [6940,"2014-11-15T14:00:00","ND","10","100,39","2,5","17,2","29,6","45","400,1","0"],
    [6941,"2014-11-15T15:00:00","ND","25","116,64","3,7","356,3","29,9","44,1","221,7","0"],
    [6942,"2014-11-15T16:00:00","ND","13","69,43","4,1","356,9","30,3","44,1","265,4","0"],
    [6943,"2014-11-15T17:00:00","ND","7","41,11","5","356,7","29,7","44,7","122,8","0"],
    [6944,"2014-11-15T18:00:00","ND","9","24,18","3,5","318","28,2","50","6,5","0"],
    [6945,"2014-11-15T19:00:00","ND","12","17,56","0,1","235,1","27","55,6","0","0"],
    [6946,"2014-11-15T20:00:00","ND","18","48,55","6,1","196,4","24,3","70,3","0","0"],
    [6947,"2014-11-15T21:00:00","ND","13","43,96","5,3","178,1","23,1","76,8","0","0"],
    [6948,"2014-11-15T22:00:00","ND","11","34,44","3,9","178,3","21,9","84","0","5,84"],
    [6949,"2014-11-15T23:00:00","ND","12","30,14","3,1","216,9","21,4","86,5","0","0,25"],
    [6950,"2014-11-16T00:00:00","ND","9","22,14","2","151,8","21,5","86,4","0","0,25"],
    [6951,"2014-11-16T01:00:00","ND","12","17,05","2,9","83,7","21,1","88,3","0","0"],
    [6952,"2014-11-16T02:00:00","ND","13","20,37","1,4","351,1","20,8","88,9","0","0"],
    [6953,"2014-11-16T03:00:00","ND","12","12,91","2,3","86,6","20,7","89,3","0","0"],
    [6954,"2014-11-16T04:00:00","ND","13","10,81","2,9","72,6","20,1","90,7","0","0"],
    [6955,"2014-11-16T05:00:00","ND","16","11,34","1,9","60,2","20,4","90,1","0","0"],
    [6956,"2014-11-16T06:00:00","ND","21","8,73","2,6","334,5","20,6","89,1","0","0"],
    [6957,"2014-11-16T07:00:00","ND","22","9,95","1,5","228,9","21,1","87,2","22","0"],
    [6958,"2014-11-16T08:00:00","ND","25","14,84","1,8","136,8","21,5","86,1","46,9","0"],
    [6959,"2014-11-16T09:00:00","ND","28","29,57","2,2","93","22,6","80,9","257,1","0"],
    [6960,"2014-11-16T10:00:00","ND","25","49,57","3,1","93,5","24,2","73,1","304,6","0"],
    [6961,"2014-11-16T11:00:00","ND","25","55,95","3,8","133,6","25,3","68,4","403,5","0"],
    [6962,"2014-11-16T12:00:00","ND","26","66,62","4,3","145,1","26,4","64,3","407,1","0"],
    [6963,"2014-11-16T13:00:00","ND","18","76,49","2,9","115,6","27","61,5","384,4","0"],
    [6964,"2014-11-16T14:00:00","ND","17","84,28","2,7","108,2","27,8","57,9","387,9","0"],
    [6965,"2014-11-16T15:00:00","ND","17","82,22","3,3","104,5","28,7","52","284,5","0"],
    [6966,"2014-11-16T16:00:00","ND","23","75,9","3,4","105,2","28,7","52","212,8","0"],
    [6967,"2014-11-16T17:00:00","ND","20","81,12","2,6","47,1","28,6","52,4","47,7","0"],
    [6968,"2014-11-16T18:00:00","ND","30","70,94","2,6","342,1","28,1","54,2","5,2","0"],
    [6969,"2014-11-16T19:00:00","ND","15","42,78","3,1","293,1","27,1","54,6","0","0"],
    [6970,"2014-11-16T20:00:00","ND","22","24,73","3","300,5","26,4","57,8","0","0"],
    [6971,"2014-11-16T21:00:00","ND","26","17,07","0,9","40,2","25,2","65,2","0","0"],
    [6972,"2014-11-16T22:00:00","ND","12","11,73","2,3","61,9","23,5","75,4","0","0"],
    [6973,"2014-11-16T23:00:00","ND","15","11,24","2,3","96,6","23,7","73,5","0","0"],
    [6974,"2014-11-17T00:00:00","ND","23","9,65","4,2","218,7","23,5","75,8","0","0"],
    [6975,"2014-11-17T01:00:00","ND","18","9,93","3,2","151","22,8","80,2","0","0"],
    [6976,"2014-11-17T02:00:00","ND","18","9,97","2,4","190,7","22,5","81,7","0","0"],
    [6977,"2014-11-17T03:00:00","ND","8","14,84","2,7","204,1","22,2","81,3","0","0"],
    [6978,"2014-11-17T04:00:00","ND","10","11,11","0,5","141","22","81,6","0","0"],
    [6979,"2014-11-17T05:00:00","ND","15","7,67","1,9","83,7","21,6","84","0","0"],
    [6980,"2014-11-17T06:00:00","ND","14","7,54","2,6","109,4","21,4","84,8","0","0"],
    [6981,"2014-11-17T07:00:00","ND","15","9,16","1,7","170,8","21,4","84,4","16,6","0"],
    [6982,"2014-11-17T08:00:00","ND","11","11,95","2","148,1","22,1","81,6","64,7","0"],
    [6983,"2014-11-17T09:00:00","ND","10","23,14","2,1","172,9","23,6","75,6","201,1","0"],
    [6984,"2014-11-17T10:00:00","ND","15","42,17","2,3","124,2","25,8","65,2","337","0"],
    [6985,"2014-11-17T11:00:00","ND","14","67,96","2","127,5","26,9","58,8","255,6","0"],
    [6986,"2014-11-17T12:00:00","ND","15","75,98","3,1","70,2","27,8","57,2","391,2","0"],
    [6987,"2014-11-17T13:00:00","ND","17","80,91","3,4","79,2","29","52,4","453,6","0"],
    [6988,"2014-11-17T14:00:00","ND","17","91,35","3,9","83,7","30","48,5","378,4","0"],
    [6989,"2014-11-17T15:00:00","ND","30","107,07","3,1","68","29,9","48,6","187,7","0"],
    [6990,"2014-11-17T16:00:00","ND","22","79,08","3,6","307,5","28,3","54,5","43,4","5,08"],
    [6991,"2014-11-17T17:00:00","ND","18","43,31","2,3","309,5","25,9","68,9","17,7","0,25"],
    [6992,"2014-11-17T18:00:00","ND","19","29,26","1,7","340,5","26,6","66,9","0","0"],
    [6993,"2014-11-17T19:00:00","ND","6","16,99","2,5","298,8","26,2","60,5","0","0"],
    [6994,"2014-11-17T20:00:00","ND","19","9,2","2,7","67,9","25,1","66,4","0","0"],
    [6995,"2014-11-17T21:00:00","ND","27","10,07","2,3","93,2","24,2","69,7","0","0"],
    [6996,"2014-11-17T22:00:00","ND","13","11,13","2,5","156,7","23,6","71,5","0","0"],
    [6997,"2014-11-17T23:00:00","ND","7","11,54","4,6","204,2","23,5","77,2","0","0"],
    [6998,"2014-11-18T00:00:00","ND","4","13,07","1,4","120,5","22,9","80","0","0"],
    [6999,"2014-11-18T01:00:00","ND","6","12,87","2,4","96,6","22,5","81,3","0","0"],
    [7000,"2014-11-18T02:00:00","ND","7","19,41","1,5","133","22,4","81","0","0"],
    [7001,"2014-11-18T03:00:00","ND","8","14,78","3,1","61","21,7","81,3","0","0"],
    [7002,"2014-11-18T04:00:00","ND","13","8,79","2","72,3","20,8","84,2","0","0"],
    [7003,"2014-11-18T05:00:00","ND","14","8,54","1,9","26,6","20,9","84,7","0","0"],
    [7004,"2014-11-18T06:00:00","ND","14","8,63","1,8","348,2","21","84,6","0","0"],
    [7005,"2014-11-18T07:00:00","ND","30","8,56","0,9","138,4","21,5","83,2","12,5","0"],
    [7006,"2014-11-18T08:00:00","ND","16","12,52","2,4","172,3","22","83","98,2","0"],
    [7007,"2014-11-18T09:00:00","ND","19","23,67","3","115,2","23,6","76,7","245,5","0"],
    [7008,"2014-11-18T10:00:00","ND","17","39,74","3,5","94","25,1","67","250,1","0"],
    [7009,"2014-11-18T11:00:00","ND","10","55,99","2,3","108,4","26,4","60,1","399,2","0"],
    [7010,"2014-11-18T12:00:00","ND","9","70,23","1,3","93,9","27,6","55,4","314,7","0"],
    [7011,"2014-11-18T13:00:00","ND","16","80,26","1,5","113","28,8","50,6","423,2","0"],
    [7012,"2014-11-18T14:00:00","ND","14","98,31","2,7","81,4","29,8","44,7","380,1","0"],
    [7013,"2014-11-18T15:00:00","ND","11","85,15","4,9","352,9","29,7","46,1","148,4","0"],
    [7014,"2014-11-18T16:00:00","ND","6","48,67","4","357,9","29,5","46,3","110,7","0"],
    [7015,"2014-11-18T17:00:00","ND","10","29,65","4,4","346,9","29,2","47","40,1","0"],
    [7016,"2014-11-18T18:00:00","ND","6","23,2","6,2","291,2","27,7","51,7","0","0"],
    [7017,"2014-11-18T19:00:00","ND","7","22,43","6,7","306,9","26,6","55,1","0","0"],
    [7018,"2014-11-18T20:00:00","ND","17","13,56","5,1","71,9","25,5","62,2","0","0"],
    [7019,"2014-11-18T21:00:00","ND","8","18,37","4,3","39,1","24,7","67,6","0","0"],
    [7020,"2014-11-18T22:00:00","ND","10","18,82","3,4","78,5","24,6","67,7","0","0"],
    [7021,"2014-11-18T23:00:00","ND","13","14,54","2,9","84,7","23,8","72,9","0","0"],
    [7022,"2014-11-19T00:00:00","ND","8","16,41","1,6","52,3","23,7","72,6","0","0"],
    [7023,"2014-11-19T01:00:00","ND","5","22,86","3,2","46,1","22,7","78,9","0","0"],
    [7024,"2014-11-19T02:00:00","ND","4","24,67","2","60,4","21,9","83,5","0","2,54"],
    [7025,"2014-11-19T03:00:00","ND","ND","18,88","3,3","106,8","21,3","88,7","0","6,1"],
    [7026,"2014-11-19T04:00:00","ND","ND","23,63","1","188,9","20,9","89,7","0","34,29"],
    [7027,"2014-11-19T05:00:00","ND","3","28,81","3,1","187,7","20,4","89,7","0","11,68"],
    [7028,"2014-11-19T06:00:00","ND","4","22,63","2,9","176,8","20,3","89,9","0","10,67"],
    [7029,"2014-11-19T07:00:00","ND","16","16,33","3","141,3","20,3","89,8","0","3,3"],
    [7030,"2014-11-19T08:00:00","ND","8","21,74","1,5","204","20,4","89,1","17,2","1,27"],
    [7031,"2014-11-19T09:00:00","ND","11","23,98","1,6","332,2","20,8","87,3","50,3","1,78"],
    [7032,"2014-11-19T10:00:00","ND","7","27,39","1,1","116,1","21,4","85,3","84,4","0,25"],
    [7033,"2014-11-19T11:00:00","ND","19","25,9","2,1","98,1","21,7","85,2","92,1","1,02"],
    [7034,"2014-11-19T12:00:00","ND","15","30,85","1,2","167,9","22","83,1","111,7","0,51"],
    [7035,"2014-11-19T13:00:00","ND","10","39,15","2,7","173,7","22,9","78,5","181,7","0"],
    [7036,"2014-11-19T14:00:00","ND","6","47,55","3,8","191,9","23,4","71,4","195,7","0"],
    [7037,"2014-11-19T15:00:00","ND","5","63,33","1,9","270,9","23,7","69,8","154,8","0"],
    [7038,"2014-11-19T16:00:00","ND","13","73,2","1,4","11,2","24,6","66,8","151,6","0"],
    [7039,"2014-11-19T17:00:00","ND","25","57,95","3,7","68,3","25","65,7","72","0"],
    [7040,"2014-11-19T18:00:00","ND","20","45,94","2,4","31,7","24,5","69,1","10,3","0"],
    [7041,"2014-11-19T19:00:00","ND","48","18,88","1,9","344,8","23,9","72,8","0","0"],
    [7042,"2014-11-19T20:00:00","ND","79","12,91","1","12,6","23,7","74,2","0","0"],
    [7043,"2014-11-19T21:00:00","ND","67","8,99","1,3","293,5","23","77,5","0","0"],
    [7044,"2014-11-19T22:00:00","ND","39","8,07","1,7","230","22,7","77,8","0","0"],
    [7045,"2014-11-19T23:00:00","ND","36","8,08","1,9","150,4","21,6","84,3","0","0"],
    [7046,"2014-11-20T00:00:00","ND","11","9,73","1,5","172,2","20,8","85,5","0","0"],
    [7047,"2014-11-20T01:00:00","ND","13","9,89","0,6","251,2","20,8","85","0","0"],
    [7048,"2014-11-20T02:00:00","ND","26","7,91","1,5","40,7","20,4","86,8","0","0"],
    [7049,"2014-11-20T03:00:00","ND","18","7,91","1,1","160,8","20","88,4","0","0"],
    [7050,"2014-11-20T04:00:00","ND","14","8,44","1,8","176,9","19,7","88,3","0","0"],
    [7051,"2014-11-20T05:00:00","ND","12","7,87","1,5","169,9","19,2","88,9","0","0"],
    [7052,"2014-11-20T06:00:00","ND","24","8,28","0,7","111,6","19,3","89,4","0","0"],
    [7053,"2014-11-20T07:00:00","ND","32","8,52","1,7","93,5","19,5","88,5","46,8","0"],
    [7054,"2014-11-20T08:00:00","ND","37","10,56","1,2","86,4","20,9","85","102,4","0"],
    [7055,"2014-11-20T09:00:00","ND","27","19,78","1,8","72,2","22,3","79,7","241,8","0"],
    [7056,"2014-11-20T10:00:00","ND","26","40,62","3,3","72,5","23,6","73,3","245,8","0"],
    [7057,"2014-11-20T11:00:00","ND","19","69","2,1","88,7","25","64,5","301,9","0"],
    [7058,"2014-11-20T12:00:00","ND","15","76,55","2,3","123,8","26,5","58,8","313,4","0"],
    [7059,"2014-11-20T13:00:00","ND","20","77,45","2,6","90,6","27,3","56,8","347,5","0"],
    [7060,"2014-11-20T14:00:00","ND","18","94,82","2,2","7,7","28,2","52,4","249,1","0"],
    [7061,"2014-11-20T15:00:00","ND","24","106,28","3,2","289,1","28","53,6","121","0"],
    [7062,"2014-11-20T16:00:00","ND","15","83,52","2","281,4","27,9","52,5","100,7","0"],
    [7063,"2014-11-20T17:00:00","ND","9","38,87","3,8","300,7","27,9","50,5","36,9","0"],
    [7064,"2014-11-20T18:00:00","ND","7","24,41","6,4","290,7","26,7","54,4","16,8","0"],
    [7065,"2014-11-20T19:00:00","ND","8","20,19","4,4","297,5","25,9","57,4","0","0"],
    [7066,"2014-11-20T20:00:00","ND","23","9,81","3,4","84,3","24,4","68,6","0","0"],
    [7067,"2014-11-20T21:00:00","ND","19","10,2","1,1","29,1","23,4","74,1","0","0"],
    [7068,"2014-11-20T22:00:00","ND","26","8,73","1,4","138,4","23,6","72,4","0","0"],
    [7069,"2014-11-20T23:00:00","ND","14","9,44","1,8","174,5","22,7","76,5","0","0"],
    [7070,"2014-11-21T00:00:00","ND","13","9,75","1,2","158,7","22,5","77,5","0","0"],
    [7071,"2014-11-21T01:00:00","ND","15","9,38","0,9","181,4","22,4","78,4","0","0"],
    [7072,"2014-11-21T02:00:00","ND","9","8,6","1,7","112,1","21,8","82,4","0","0"],
    [7073,"2014-11-21T03:00:00","ND","12","8,18","1,3","69,4","21,5","82,6","0","0"],
    [7074,"2014-11-21T04:00:00","ND","10","8,56","1,1","312,9","21,7","80,8","0","0"],
    [7075,"2014-11-21T05:00:00","ND","22","8,73","1,8","199,4","21,7","82,7","0","0"],
    [7076,"2014-11-21T06:00:00","ND","30","8,61","1,4","112,5","21,5","84","0","0"],
    [7077,"2014-11-21T07:00:00","ND","29","8,56","1,1","178,1","21,7","83,1","5,9","0"],
    [7078,"2014-11-21T08:00:00","ND","12","12,76","1,6","209,7","22,5","77,9","60,2","0"],
    [7079,"2014-11-21T09:00:00","ND","17","22,72","3,7","219,1","23,7","73,5","204,9","0"],
    [7080,"2014-11-21T10:00:00","ND","11","38,48","3,3","190,5","25,4","66,2","368,9","0"],
    [7081,"2014-11-21T11:00:00","ND","14","55,26","3,5","118,3","26,6","61,1","376,5","0"],
    [7082,"2014-11-21T12:00:00","ND","25","78,77","3,7","96,5","27,6","57,7","417,4","0"],
    [7083,"2014-11-21T13:00:00","ND","20","91,15","7,4","323,3","27,2","61,2","404,4","0"],
    [7084,"2014-11-21T14:00:00","ND","20","97,63","2,7","1,3","28,3","53,2","328,8","0"],
    [7085,"2014-11-21T15:00:00","ND","12","78,42","3,7","11,7","29,4","47,4","244,2","0"],
    [7086,"2014-11-21T16:00:00","ND","14","48,53","3,6","348,4","29,4","47,1","167,5","0"],
    [7087,"2014-11-21T17:00:00","ND","9","34,85","6,6","289,6","28,9","46,2","81,3","0"],
    [7088,"2014-11-21T18:00:00","ND","11","29,26","1,7","71,2","26,4","58,1","8,7","0"],
    [7089,"2014-11-21T19:00:00","ND","22","25,29","3,5","73,9","24,3","67,5","0","0"],
    [7090,"2014-11-21T20:00:00","ND","23","20,84","1,7","12,6","24,1","69,8","0","0"],
    [7091,"2014-11-21T21:00:00","ND","29","9,87","1,6","115,8","24,2","70,6","0","0"],
    [7092,"2014-11-21T22:00:00","ND","28","14,25","3,1","193,2","23,7","73,4","0","0"],
    [7093,"2014-11-21T23:00:00","ND","23","17,33","2,7","176,5","23","78,3","0","0"],
    [7094,"2014-11-22T00:00:00","ND","24","18,23","1,9","213,3","23","79,5","0","1,02"],
    [7095,"2014-11-22T01:00:00","ND","12","24,31","3","238,6","22,2","85,2","0","0"],
    [7096,"2014-11-22T02:00:00","ND","7","23,88","3,7","207,6","22","85,1","0","0"],
    [7097,"2014-11-22T03:00:00","ND","8","22,59","3","202,1","21,7","86,8","0","0"],
    [7098,"2014-11-22T04:00:00","ND","7","20,31","2,5","157,8","21,6","87,2","0","0"],
    [7099,"2014-11-22T05:00:00","ND","3","21,57","2,9","219,8","21,4","86,8","0","0"],
    [7100,"2014-11-22T06:00:00","ND","10","15,46","2,8","172,9","21,5","86,1","0","0"],
    [7101,"2014-11-22T07:00:00","ND","13","16,74","1,8","173,3","21,2","85,7","30,8","0"],
    [7102,"2014-11-22T08:00:00","ND","9","25,24","2,4","191,5","21,8","82,3","62","0"],
    [7103,"2014-11-22T09:00:00","ND","11","29,44","2,9","145,6","23,3","75,9","245","0"],
    [7104,"2014-11-22T10:00:00","ND","15","38,36","2,2","142,7","24,4","70,7","252,7","0"],
    [7105,"2014-11-22T11:00:00","ND","21","58,75","0,5","119,3","25,8","65,3","413","0"],
    [7106,"2014-11-22T12:00:00","ND","16","70,02","2,2","110,8","27,6","57,4","467","0"],
    [7107,"2014-11-22T13:00:00","ND","15","74,28","2,7","60,6","28,3","52,6","317","0"],
    [7108,"2014-11-22T14:00:00","ND","11","62,68","5,8","312,7","27,3","56,4","126","0"],
    [7109,"2014-11-22T15:00:00","ND","14","77,85","2,5","285,2","28,2","51,6","214,2","0"],
    [7110,"2014-11-22T16:00:00","ND","14","75,49","2,2","89","29,3","46,6","197,2","0"],
    [7111,"2014-11-22T17:00:00","ND","10","45,78","2,7","172,3","27","59,6","30","6,86"],
    [7112,"2014-11-22T18:00:00","ND","12","23,12","2,1","292,6","26,5","61,5","5,9","0"],
    [7113,"2014-11-22T19:00:00","ND","11","15,74","3,2","325,6","26,2","57,6","0","0"],
    [7114,"2014-11-22T20:00:00","ND","25","15,27","3,8","40,4","25","65,7","0","0"],
    [7115,"2014-11-22T21:00:00","ND","10","19,74","2","325","24,3","70,6","0","0"],
    [7116,"2014-11-22T22:00:00","ND","17","28,12","3,7","206,7","23,5","77,6","0","0"],
    [7117,"2014-11-22T23:00:00","ND","17","28,55","2,4","194,5","23,2","79,2","0","0"],
    [7118,"2014-11-23T00:00:00","ND","18","22,59","2,7","188,8","22,6","82,1","0","0"],
    [7119,"2014-11-23T01:00:00","ND","5","17,13","2,4","170,4","22,3","84,7","0","0"],
    [7120,"2014-11-23T02:00:00","ND","8","12,52","1","87,2","22","86,3","0","0"],
    [7121,"2014-11-23T03:00:00","ND","7","14,25","0,6","311,6","22,3","84","0","0"],
    [7122,"2014-11-23T04:00:00","ND","8","10,73","1,9","119,8","22,5","82,2","0","0"],
    [7123,"2014-11-23T05:00:00","ND","17","8,03","2,1","81,1","21,9","86,9","0","0"],
    [7124,"2014-11-23T06:00:00","ND","17","8,42","0,7","123,6","21,9","85,8","0","0"],
    [7125,"2014-11-23T07:00:00","ND","22","8,48","2,6","103,5","21,9","86,7","0","0"],
    [7126,"2014-11-23T08:00:00","ND","22","9,64","2,5","81,1","22","86,7","36,7","0"],
    [7127,"2014-11-23T09:00:00","ND","15","26,3","1","29,7","23,4","79","228,9","0"],
    [7128,"2014-11-23T10:00:00","ND","24","40,41","0,4","182,6","24,6","72,5","144,9","0"],
    [7129,"2014-11-23T11:00:00","ND","25","61,5","1,9","94","25,9","66,7","340","0"],
    [7130,"2014-11-23T12:00:00","ND","18","77,1","2,3","91,6","27,8","57,3","464,2","0"],
    [7131,"2014-11-23T13:00:00","ND","11","90,39","1,8","44,6","28,6","52","404,5","0"],
    [7132,"2014-11-23T14:00:00","ND","22","91,31","3,9","82","29,8","47,9","373,6","0"],
    [7133,"2014-11-23T15:00:00","ND","20","105,6","2,6","38,2","30,3","46,9","300,1","0"],
    [7134,"2014-11-23T16:00:00","ND","26","120,55","3,5","3,3","30,2","47,1","172,6","0"],
    [7135,"2014-11-23T17:00:00","ND","25","87,38","3","2,3","29,9","49","90,6","0"],
    [7136,"2014-11-23T18:00:00","ND","8","34,91","4,8","292,3","28,7","49,7","16","0"],
    [7137,"2014-11-23T19:00:00","ND","24","20,57","2,3","304,8","27,8","54","0","0"],
    [7138,"2014-11-23T20:00:00","ND","18","14,44","1","330,2","26,5","59,7","0","0"],
    [7139,"2014-11-23T21:00:00","ND","16","9,89","3,5","88,1","24,2","73,9","0","0"],
    [7140,"2014-11-23T22:00:00","ND","17","9,34","3,3","72,5","23,5","75,2","0","0"],
    [7141,"2014-11-23T23:00:00","ND","13","10,81","2,5","58,3","23,5","74,4","0","0"],
    [7142,"2014-11-24T00:00:00","ND","13","12,93","2,3","52,3","23,1","75,7","0","0"],
    [7143,"2014-11-24T01:00:00","ND","18","13,74","2","25,8","22,8","77,4","0","0"],
    [7144,"2014-11-24T02:00:00","ND","3","11,97","0,8","137,7","22,4","78,6","0","0"],
    [7145,"2014-11-24T03:00:00","ND","12","9,62","1,1","142","22,2","80,4","0","0"],
    [7146,"2014-11-24T04:00:00","ND","8","10,17","1,1","132,1","22","81,4","0","0"],
    [7147,"2014-11-24T05:00:00","ND","13","8,71","0,8","83,9","22","81,2","0","0"],
    [7148,"2014-11-24T06:00:00","ND","21","8,52","0,6","111,8","21,8","82,1","0","0"],
    [7149,"2014-11-24T07:00:00","ND","30","8,71","2","75,9","21","85,4","14,3","0"],
    [7150,"2014-11-24T08:00:00","ND","34","10,91","1,1","348,5","22,7","79,8","85,8","0"],
    [7151,"2014-11-24T09:00:00","ND","36","22,96","2","199,5","24,5","72,9","217,3","0"],
    [7152,"2014-11-24T10:00:00","ND","17","40,54","3,6","225,2","26","68","329,2","0"],
    [7153,"2014-11-24T11:00:00","ND","15","66,11","1,9","175,2","27,3","61,4","411,9","0"],
    [7154,"2014-11-24T12:00:00","ND","19","105,63","2","80,4","28,6","56,2","349,7","0"],
    [7155,"2014-11-24T13:00:00","ND","21","116,96","2,1","28,2","29,6","52,3","374","0"],
    [7156,"2014-11-24T14:00:00","ND","11","97,65","2,8","23,6","30,5","49,1","360,4","0"],
    [7157,"2014-11-24T15:00:00","ND","18","74,3","3,3","35","30,6","47,6","168,2","0"],
    [7158,"2014-11-24T16:00:00","ND","13","56,3","2","19,3","30,7","44,9","123,1","0"],
    [7159,"2014-11-24T17:00:00","ND","10","34,4","4,5","289,7","29,8","46,7","27,6","0"],
    [7160,"2014-11-24T18:00:00","ND","8","19,72","5,4","302,6","28,6","51","5,8","0"],
    [7161,"2014-11-24T19:00:00","ND","10","13,44","5,6","314,8","27,7","54,6","0","0"],
    [7162,"2014-11-24T20:00:00","ND","19","9,93","2,1","73,6","26,5","61,2","0","0"],
    [7163,"2014-11-24T21:00:00","ND","13","9,64","2,5","85,9","24,7","71,5","0","0"],
    [7164,"2014-11-24T22:00:00","ND","14","9,11","2,6","193,8","24,1","75","0","0"],
    [7165,"2014-11-24T23:00:00","ND","19","14,42","3,4","226,1","24,3","74,7","0","0"],
    [7166,"2014-11-25T00:00:00","ND","25","17,68","2,7","158,1","23,8","76,1","0","0"],
    [7167,"2014-11-25T01:00:00","ND","12","15,93","2","121,7","22,7","80,3","0","0"],
    [7168,"2014-11-25T02:00:00","ND","10","25,41","2","186,8","22,9","79,9","0","0"],
    [7169,"2014-11-25T03:00:00","ND","9","17,64","1,6","115,6","22,6","81,5","0","0"],
    [7170,"2014-11-25T04:00:00","ND","10","20,51","0,7","186,3","22,9","80,3","0","0"],
    [7171,"2014-11-25T05:00:00","ND","11","15,95","1,6","138,3","23","80,1","0","0"],
    [7172,"2014-11-25T06:00:00","ND","18","9,95","1,3","156,3","22,8","81,5","0","0"],
    [7173,"2014-11-25T07:00:00","ND","27","9,14","2,1","103,9","22,9","82,4","6,6","0"],
    [7174,"2014-11-25T08:00:00","ND","25","12,66","1,4","149,5","23,7","79,6","77,4","0"],
    [7175,"2014-11-25T09:00:00","ND","24","20,94","2,7","171,3","24,8","74,5","131,1","0"],
    [7176,"2014-11-25T10:00:00","ND","17","29,67","3,5","164,8","25,7","70,9","184,9","0"],
    [7177,"2014-11-25T11:00:00","ND","12","38,46","2","136,7","26,2","68,9","276,5","0"],
    [7178,"2014-11-25T12:00:00","ND","18","59,3","1,4","85,7","27,6","61,1","321,9","0"],
    [7179,"2014-11-25T13:00:00","ND","20","88,4","2,3","66","28,8","55,9","344,8","0"],
    [7180,"2014-11-25T14:00:00","ND","12","60,79","4","17,5","28,5","56,5","71,8","0"],
    [7181,"2014-11-25T15:00:00","ND","9","38,34","4,6","299,4","27,9","54,6","155,3","0"],
    [7182,"2014-11-25T16:00:00","ND","6","39,84","4,1","346,4","28,7","50","141,3","0"],
    [7183,"2014-11-25T17:00:00","ND","6","33,65","4,9","292,2","27,8","50","52,1","0"],
    [7184,"2014-11-25T18:00:00","ND","5","30,02","5,1","282,4","26,9","52","10,6","0"],
    [7185,"2014-11-25T19:00:00","ND","6","25,82","5,1","151,2","24,5","69,6","0","0"],
    [7186,"2014-11-25T20:00:00","ND","15","26,02","3,9","172,2","23,5","75,4","0","0"],
    [7187,"2014-11-25T21:00:00","ND","14","27,89","4","206,1","23,1","76,3","0","0"],
    [7188,"2014-11-25T22:00:00","ND","13","24,69","3,4","203,9","23,2","75,5","0","0"],
    [7189,"2014-11-25T23:00:00","ND","6","25,04","2,7","198,2","23,2","76","0","0,25"],
    [7190,"2014-11-26T00:00:00","ND","17","15,25","2,6","103,4","22,5","82,9","0","2,29"],
    [7191,"2014-11-26T01:00:00","ND","6","15,07","2,3","102,3","22","86,5","0","4,57"],
    [7192,"2014-11-26T02:00:00","ND","11","17,76","1,6","346,1","21,5","88,2","0","23,62"],
    [7193,"2014-11-26T03:00:00","ND","9","19,56","1,6","305","21,3","88,3","0","7,11"],
    [7194,"2014-11-26T04:00:00","ND","2","19,47","1,5","305,5","21,2","87,6","0","9,65"],
    [7195,"2014-11-26T05:00:00","ND","4","16,07","1,1","330,6","21,2","88,1","0","1,78"],
    [7196,"2014-11-26T06:00:00","ND","17","9,89","1","83,5","21,1","89,1","0","13,72"],
    [7197,"2014-11-26T07:00:00","ND","11","9,79","1,2","113,9","21","90","0","7,87"],
    [7198,"2014-11-26T08:00:00","ND","11","12,81","1,2","199,7","21,4","90","31","4,83"],
    [7199,"2014-11-26T09:00:00","ND","14","17,64","0,6","240","22,1","87,1","91,6","0"],
    [7200,"2014-11-26T10:00:00","ND","15","25,94","2,3","169,9","23","82,4","156,1","0"],
    [7201,"2014-11-26T11:00:00","ND","8","43,17","1,3","181,1","24,1","75,9","301,6","0"],
    [7202,"2014-11-26T12:00:00","ND","14","57,54","1,9","213,9","25,2","69,8","249,5","0"],
    [7203,"2014-11-26T13:00:00","ND","20","53,46","4,8","98,7","25,7","68,4","260,1","0"],
    [7204,"2014-11-26T14:00:00","ND","18","48,33","4,6","98,5","26,1","68","120,6","0"],
    [7205,"2014-11-26T15:00:00","ND","13","24,37","5,5","287,1","23,1","75,9","7,1","0,25"],
    [7206,"2014-11-26T16:00:00","ND","12","19,64","3,8","8,2","22,4","84","17,5","3,3"],
    [7207,"2014-11-26T17:00:00","ND","27","14,66","1,4","52,3","22,9","80,6","24","0,25"],
    [7208,"2014-11-26T18:00:00","ND","18","12,83","2,4","80,6","23","83,6","8,9","0"],
    [7209,"2014-11-26T19:00:00","ND","17","20,76","0,8","315,4","22,9","82,2","0","0"],
    [7210,"2014-11-26T20:00:00","ND","29","12,99","2,4","174","23","82,9","0","0"],
    [7211,"2014-11-26T21:00:00","ND","25","15,01","4","186,7","22,5","85,9","0","0"],
    [7212,"2014-11-26T22:00:00","ND","16","23,86","3,8","194,3","22,2","85,2","0","0,25"],
    [7213,"2014-11-26T23:00:00","ND","14","19,13","2,6","176,4","22","86,3","0","1,78"],
    [7214,"2014-11-27T00:00:00","ND","9","19,53","2,2","159,6","21,4","85,6","0","0"],
    [7215,"2014-11-27T01:00:00","ND","7","19,8","1,9","191,8","21,3","85,8","0","2,54"],
    [7216,"2014-11-27T02:00:00","ND","4","21,98","1,8","256,7","21,2","87,6","0","0"],
    [7217,"2014-11-27T03:00:00","ND","2","26,12","2,5","275,4","21","87,7","0","1,02"],
    [7218,"2014-11-27T04:00:00","ND","2","17,13","1,4","134,2","21","88,3","0","0"],
    [7219,"2014-11-27T05:00:00","ND","2","10,79","1,5","120","20,7","89,8","0","0"],
    [7220,"2014-11-27T06:00:00","ND","7","12,5","0,8","246,1","20,9","87,6","0","0"],
    [7221,"2014-11-27T07:00:00","ND","17","9,85","1,2","22,9","21,2","87,3","5,1","0"],
    [7222,"2014-11-27T08:00:00","ND","30","10,85","1,5","96,6","21,4","87,5","43,3","0,25"],
    [7223,"2014-11-27T09:00:00","ND","28","16,25","0,9","116,3","21,8","84,8","100,7","0"],
    [7224,"2014-11-27T10:00:00","ND","23","27,92","1,9","70","23,2","76,9","222,3","0"],
    [7225,"2014-11-27T11:00:00","ND","24","52,83","2","57,4","24,5","70","343,5","0"],
    [7226,"2014-11-27T12:00:00","ND","17","70,02","1,6","124,3","26","62,7","416,8","0"],
    [7227,"2014-11-27T13:00:00","ND","17","71,59","2,6","103,4","27,2","57,3","398,1","0"],
    [7228,"2014-11-27T14:00:00","ND","11","58,54","3,6","81,6","28,1","55,1","342,1","0"],
    [7229,"2014-11-27T15:00:00","ND","13","64,21","3,5","82,2","28,9","53,1","301,4","0"],
    [7230,"2014-11-27T16:00:00","ND","ND","ND","3,7","79,4","29,5","50,7","223,3","0"],
    [7231,"2014-11-27T17:00:00","ND","9","59,42","2,6","103,9","29,4","50,6","95,6","0"],
    [7232,"2014-11-27T18:00:00","ND","37","37,01","3,1","131,1","28,5","55,6","10,4","0"],
    [7233,"2014-11-27T19:00:00","ND","34","32,6","2,6","199,3","26,8","63","0","0"],
    [7234,"2014-11-27T20:00:00","ND","38","19,35","3,4","241,1","26,8","63,6","0","0"],
    [7235,"2014-11-27T21:00:00","ND","50","11,07","1,5","169,1","25,8","68,2","0","0"],
    [7236,"2014-11-27T22:00:00","ND","31","10,58","1,7","176","24,4","74,7","0","0"],
    [7237,"2014-11-27T23:00:00","ND","57","8,28","0,9","93,3","23,9","78","0","0"],
    [7238,"2014-11-28T00:00:00","ND","36","7,56","2","88","22,8","81,9","0","0"],
    [7239,"2014-11-28T01:00:00","ND","29","7,59","1,2","150,4","22,8","79,4","0","0"],
    [7240,"2014-11-28T02:00:00","ND","20","8,16","1,6","198,2","22,4","80","0","0"],
    [7241,"2014-11-28T03:00:00","ND","23","9,54","2,1","220,9","21,8","83,8","0","0"],
    [7242,"2014-11-28T04:00:00","ND","22","9,32","1,8","172,3","21,9","84,2","0","0"],
    [7243,"2014-11-28T05:00:00","ND","21","7,59","2,2","181,9","21,5","85,7","0","0"],
    [7244,"2014-11-28T06:00:00","ND","20","7,85","2","213,7","21,6","85,5","0","0"],
    [7245,"2014-11-28T07:00:00","ND","32","7,79","2,1","159,9","21,4","85,9","10,9","0"],
    [7246,"2014-11-28T08:00:00","ND","22","10,11","1","169,5","21,9","84,2","76,3","0"],
    [7247,"2014-11-28T09:00:00","ND","33","20,25","2,6","35,2","24,2","75,3","206,9","0"],
    [7248,"2014-11-28T10:00:00","ND","20","44,84","2,7","65,8","25,8","68,4","329","0"],
    [7249,"2014-11-28T11:00:00","ND","17","70,27","2,2","106,1","27,3","62,1","407,3","0"],
    [7250,"2014-11-28T12:00:00","ND","18","87,17","2,4","90,9","28,7","55,2","441,5","0"],
    [7251,"2014-11-28T13:00:00","ND","16","84,48","3,3","85,2","29,9","50,3","431,3","0"],
    [7252,"2014-11-28T14:00:00","ND","27","107,66","3,4","50,2","30,7","47,9","364","0"],
    [7253,"2014-11-28T15:00:00","ND","26","111,05","3,8","7,3","31,1","46,7","282,8","0"],
    [7254,"2014-11-28T16:00:00","ND","20","70,04","4,1","54,2","31,5","44,9","138,9","0"],
    [7255,"2014-11-28T17:00:00","ND","13","33,03","4,3","4,4","30,8","47,7","71","0"],
    [7256,"2014-11-28T18:00:00","ND","20","19,09","2,9","322,8","29,8","49,6","15,3","0"],
    [7257,"2014-11-28T19:00:00","ND","16","12,81","4,7","287,8","28,4","52,4","0","0"],
    [7258,"2014-11-28T20:00:00","ND","17","9,85","1,3","4,4","27","60,1","0","0"],
    [7259,"2014-11-28T21:00:00","ND","15","8,91","3,3","92,2","25,1","72","0","0"],
    [7260,"2014-11-28T22:00:00","ND","22","9,18","2,1","67,2","24,6","74,5","0","0"],
    [7261,"2014-11-28T23:00:00","ND","17","8,48","0,7","337,7","24,5","74,5","0","0"],
    [7262,"2014-11-29T00:00:00","ND","18","8,05","1,5","200,4","24,3","76","0","0"],
    [7263,"2014-11-29T01:00:00","ND","19","8,1","1,6","159,8","23,9","77,1","0","0"],
    [7264,"2014-11-29T02:00:00","ND","15","7,61","2,1","157,8","23","81,8","0","0"],
    [7265,"2014-11-29T03:00:00","ND","13","7,4","1,9","131,8","22,6","82,7","0","0"],
    [7266,"2014-11-29T04:00:00","ND","17","8,67","1,8","225,5","22,7","82,3","0","0"],
    [7267,"2014-11-29T05:00:00","ND","19","8,79","1","179","22,9","80,6","0","0"],
    [7268,"2014-11-29T06:00:00","ND","29","8,63","2,8","164,4","23","80,5","0","0"],
    [7269,"2014-11-29T07:00:00","ND","20","8,32","0,6","119,3","22,2","84,3","8,8","0"],
    [7270,"2014-11-29T08:00:00","ND","53","10,11","2","74,8","23,4","80,9","79,5","0"],
    [7271,"2014-11-29T09:00:00","ND","32","21,08","3,6","128,8","24,9","73,4","237,5","0"],
    [7272,"2014-11-29T10:00:00","ND","19","39,44","3,6","176,2","26,3","68,3","343","0"],
    [7273,"2014-11-29T11:00:00","ND","23","68,88","1,7","174,7","27,8","62,3","393,9","0"],
    [7274,"2014-11-29T12:00:00","ND","23","89,21","2,8","68,9","29,1","55,4","411,2","0"],
    [7275,"2014-11-29T13:00:00","ND","22","98,51","3,8","80,6","30,4","52","426,4","0"],
    [7276,"2014-11-29T14:00:00","ND","25","135,78","3,7","52,5","31,5","48,5","378,4","0"],
    [7277,"2014-11-29T15:00:00","ND","18","96,16","4,9","29,9","32,3","44,9","216,3","0"],
    [7278,"2014-11-29T16:00:00","ND","10","61,38","5,7","291,9","31,3","45","162,5","0"],
    [7279,"2014-11-29T17:00:00","ND","14","48,78","4,9","305,9","30,5","46","81,5","0"],
    [7280,"2014-11-29T18:00:00","ND","11","23,82","3","345,9","29,6","50,4","13,8","0"],
    [7281,"2014-11-29T19:00:00","ND","21","12,56","1,1","41,5","27,9","57,8","0","0"],
    [7282,"2014-11-29T20:00:00","ND","30","8,71","3,7","74,9","25,9","66,9","0","0"],
    [7283,"2014-11-29T21:00:00","ND","27","8,67","3,4","72,3","25","71,5","0","0"],
    [7284,"2014-11-29T22:00:00","ND","15","9,38","1,2","166","25","71,1","0","0"],
    [7285,"2014-11-29T23:00:00","ND","28","9,16","4","218,7","24,5","74,1","0","0"],
    [7286,"2014-11-30T00:00:00","ND","27","8,22","3,1","203,2","24","76,8","0","0"],
    [7287,"2014-11-30T01:00:00","ND","19","9,5","2,1","245,5","24","76","0","0"],
    [7288,"2014-11-30T02:00:00","ND","37","8,73","1,2","74","23,5","78,6","0","0"],
    [7289,"2014-11-30T03:00:00","ND","31","8,58","1,2","32","23,4","79,6","0","0"],
    [7290,"2014-11-30T04:00:00","ND","14","7,34","2,6","95,1","22,8","81,1","0","0"],
    [7291,"2014-11-30T05:00:00","ND","13","7,36","1,7","184,9","22,6","81,7","0","0"],
    [7292,"2014-11-30T06:00:00","ND","17","7,71","2,3","215,8","22,9","81","0","0"],
    [7293,"2014-11-30T07:00:00","ND","19","8,73","1,2","194,9","23,4","80,4","10,7","0"],
    [7294,"2014-11-30T08:00:00","ND","20","8,89","2,3","133,2","24","79,5","55,7","0"],
    [7295,"2014-11-30T09:00:00","ND","23","13,21","2,5","198","24,3","78,4","78,6","0"],
    [7296,"2014-11-30T10:00:00","ND","21","23,74","2,8","202,5","25,3","72,9","210","0"],
    [7297,"2014-11-30T11:00:00","ND","26","51,28","2,6","209,7","26,9","66,4","359","0"],
    [7298,"2014-11-30T12:00:00","ND","22","75,77","2,8","157,2","28,2","60,4","275,7","0"],
    [7299,"2014-11-30T13:00:00","ND","18","70,82","3,8","155,8","28,6","57,5","263","0"],
    [7300,"2014-11-30T14:00:00","ND","17","80,44","2,5","153,2","29,1","55,2","213,1","0"],
    [7301,"2014-11-30T15:00:00","ND","26","77,71","3","113,6","29,4","55,3","195,8","0"],
    [7302,"2014-11-30T16:00:00","ND","30","69,15","3,5","96,3","29,6","54,7","86,9","0"],
    [7303,"2014-11-30T17:00:00","ND","31","64,29","3,8","96,5","29,3","57,5","49,4","0"],
    [7304,"2014-11-30T18:00:00","ND","34","39,52","2,5","89,8","28,8","60,2","0","0"],
    [7305,"2014-11-30T19:00:00","ND","20","25,84","2,8","305,4","28,1","57,3","0","0"],
    [7306,"2014-11-30T20:00:00","ND","5","15,8","3,6","308,1","27,6","56,4","0","0"],
    [7307,"2014-11-30T21:00:00","ND","11","10,66","2,7","77,2","25,6","68,7","0","0"],
    [7308,"2014-11-30T22:00:00","ND","16","9,46","2,5","68,4","24,5","75,3","0","0"],
    [7309,"2014-11-30T23:00:00","ND","15","9,62","1,7","89,1","24,6","74","0","0"],
    [7310,"2014-12-01T00:00:00","ND","9","9,91","2,1","94,3","24,3","75,1","0","0"],
    [7311,"2014-12-01T01:00:00","ND","4","12,95","1,4","129,9","24","76,2","0","0"],
    [7312,"2014-12-01T02:00:00","ND","1","12,7","1,8","130","23,8","77,6","0","0"],
    [7313,"2014-12-01T03:00:00","ND","18","8,22","2,1","144,2","23,5","81,7","0","0"],
    [7314,"2014-12-01T04:00:00","ND","15","10,13","1,7","164","23,5","81,2","0","0"],
    [7315,"2014-12-01T05:00:00","ND","12","9,71","1,2","170,9","23,6","80,2","0","0"],
    [7316,"2014-12-01T06:00:00","ND","20","8,28","1,6","128,8","23,3","82,2","0","0"],
    [7317,"2014-12-01T07:00:00","ND","32","8,56","2","110,6","23,4","82,6","8,4","0"],
    [7318,"2014-12-01T08:00:00","ND","22","9,48","1,6","124,7","23,7","81,9","60,6","0"],
    [7319,"2014-12-01T09:00:00","ND","20","18,51","2,3","194","24,9","76","140,9","0"],
    [7320,"2014-12-01T10:00:00","ND","16","36,6","1,4","171,5","26,6","66,5","323,2","0"],
    [7321,"2014-12-01T11:00:00","ND","17","55,26","1,6","120,5","27,9","60,8","358,3","0"],
    [7322,"2014-12-01T12:00:00","ND","23","73,57","2,5","95,7","29,1","55,7","447,5","0"],
    [7323,"2014-12-01T13:00:00","ND","28","100,49","3,3","79,8","30,2","50,5","435,4","0"],
    [7324,"2014-12-01T14:00:00","ND","26","118,66","3,2","65","31,2","47,4","384,8","0"],
    [7325,"2014-12-01T15:00:00","ND","21","125,51","3,7","26,3","31,7","45,6","300,2","0"],
    [7326,"2014-12-01T16:00:00","ND","16","75,26","2,1","42,4","31,8","44,4","147,2","0"],
    [7327,"2014-12-01T17:00:00","ND","10","60,54","3,5","303,6","31,4","42,6","103,3","0"],
    [7328,"2014-12-01T18:00:00","ND","7","38,82","5,7","292,3","29,7","47,1","8,5","0"],
    [7329,"2014-12-01T19:00:00","ND","12","25,2","5,2","300,6","28,6","51,4","0","0"],
    [7330,"2014-12-01T20:00:00","ND","26","11,05","2,8","74,3","26,7","62,3","0","0"],
    [7331,"2014-12-01T21:00:00","ND","19","11,89","3,9","96,4","25","71,6","0","0"],
    [7332,"2014-12-01T22:00:00","ND","12","12,64","2,6","75,4","24,5","73,4","0","0"],
    [7333,"2014-12-01T23:00:00","ND","10","11,68","1,9","47,3","24,5","72,5","0","0"],
    [7334,"2014-12-02T00:00:00","ND","6","12,95","0,8","29,7","24","73,8","0","0"],
    [7335,"2014-12-02T01:00:00","ND","13","13,05","0,5","58,1","24,1","73,5","0","0"],
    [7336,"2014-12-02T02:00:00","ND","10","10,68","2,2","97,9","23,4","76,8","0","0"],
    [7337,"2014-12-02T03:00:00","ND","11","11,09","1,4","60","22,8","80","0","0"],
    [7338,"2014-12-02T04:00:00","ND","12","10,73","0,3","189,2","22,8","79,9","0","0"],
    [7339,"2014-12-02T05:00:00","ND","19","9,24","2,2","140,5","22,7","81,1","0","0"],
    [7340,"2014-12-02T06:00:00","ND","20","8,52","1,5","214,2","22,6","82,4","0","0"],
    [7341,"2014-12-02T07:00:00","ND","17","10,89","3,3","203,2","23,1","79,6","20,3","0"],
    [7342,"2014-12-02T08:00:00","ND","14","18,13","3,8","195,7","24","75,1","123,6","0"],
    [7343,"2014-12-02T09:00:00","ND","14","29,22","1,8","208,8","24,9","72,1","213,7","0"],
    [7344,"2014-12-02T10:00:00","ND","16","57,58","2,8","224,4","26,7","65,7","325,8","0"],
    [7345,"2014-12-02T11:00:00","ND","16","79,36","2,4","127,8","28,2","58,1","427,7","0"],
    [7346,"2014-12-02T12:00:00","ND","24","117,66","3,5","72,5","29,2","54,9","394,3","0"],
    [7347,"2014-12-02T13:00:00","ND","22","111,72","4,2","78,6","30,5","51","430,5","0"],
    [7348,"2014-12-02T14:00:00","ND","18","111,25","3,4","81,7","31,3","46,4","395,6","0"],
    [7349,"2014-12-02T15:00:00","ND","18","106,32","4,6","84,4","32","42,6","316,2","0"],
    [7350,"2014-12-02T16:00:00","ND","20","110,32","1,8","37,7","32","40,9","150,9","0"],
    [7351,"2014-12-02T17:00:00","ND","13","84,54","5,5","296","31,6","42,7","107,6","0"],
    [7352,"2014-12-02T18:00:00","ND","10","43,78","5,7","296,5","29,6","48","14,1","0"],
    [7353,"2014-12-02T19:00:00","ND","11","19,37","5","307,5","28,6","50,8","0","0"],
    [7354,"2014-12-02T20:00:00","ND","20","13,56","2,2","37","27","59","0","0"],
    [7355,"2014-12-02T21:00:00","ND","14","10,66","3,7","81","24,9","70,7","0","0"],
    [7356,"2014-12-02T22:00:00","ND","10","11,75","2,3","87,7","24,8","70,6","0","0"],
    [7357,"2014-12-02T23:00:00","ND","22","12,13","2,9","199","24,5","72,4","0","0"],
    [7358,"2014-12-03T00:00:00","ND","14","12,03","3,8","237,6","24","74,7","0","0"],
    [7359,"2014-12-03T01:00:00","ND","10","11,05","2,6","209,9","24,1","74,5","0","0"],
    [7360,"2014-12-03T02:00:00","ND","11","9,83","1,5","205,5","23,4","77,8","0","0"],
    [7361,"2014-12-03T03:00:00","ND","24","8,99","0,6","68,2","22,8","81,1","0","0"],
    [7362,"2014-12-03T04:00:00","ND","19","8,77","1,6","132,8","22,4","82,4","0","0"],
    [7363,"2014-12-03T05:00:00","ND","21","9,03","1,2","151,3","22,6","80,8","0","0"],
    [7364,"2014-12-03T06:00:00","ND","22","9,03","2,3","135","22,2","82,5","0","0"],
    [7365,"2014-12-03T07:00:00","ND","23","9,99","2,2","177,1","21,9","83","24,2","0"],
    [7366,"2014-12-03T08:00:00","ND","30","13,46","1,8","124,5","23,2","78,4","112,3","0"],
    [7367,"2014-12-03T09:00:00","ND","31","20,86","4","109,8","24,7","72","197,9","0"],
    [7368,"2014-12-03T10:00:00","ND","18","43,11","2,7","117,7","26,1","64,7","325,8","0"],
    [7369,"2014-12-03T11:00:00","ND","14","71,76","2,3","77,4","27,5","60,3","395,3","0"],
    [7370,"2014-12-03T12:00:00","ND","21","91,33","2,5","117,2","29,3","52,2","435,4","0"],
    [7371,"2014-12-03T13:00:00","ND","26","117,62","3,1","98,7","30,5","47,5","435","0"],
    [7372,"2014-12-03T14:00:00","ND","27","138,25","3,5","68,1","31,4","43,9","393,4","0"],
    [7373,"2014-12-03T15:00:00","ND","27","150,53","4,2","4,4","31,9","42,2","246,9","0"],
    [7374,"2014-12-03T16:00:00","ND","8","59,44","8,2","294,7","31","43,6","167,1","0"],
    [7375,"2014-12-03T17:00:00","ND","10","40,92","7,5","305,3","29,8","45,8","61,8","0"],
    [7376,"2014-12-03T18:00:00","ND","15","28,18","6,7","308,4","28,6","50,1","9,3","0"],
    [7377,"2014-12-03T19:00:00","ND","10","18,07","6,3","318,7","27,9","52","0","0"],
    [7378,"2014-12-03T20:00:00","ND","28","14,8","1,5","29,2","27,1","56,9","0","0"],
    [7379,"2014-12-03T21:00:00","ND","17","11,54","3,5","78,1","25,2","66,5","0","0"],
    [7380,"2014-12-03T22:00:00","ND","28","12,13","1","222,2","24,6","69,6","0","0"],
    [7381,"2014-12-03T23:00:00","ND","22","10,75","1,8","172,3","24","73,2","0","0"],
    [7382,"2014-12-04T00:00:00","ND","11","44,23","2,2","103,7","23,7","74,8","0","0"],
    [7383,"2014-12-04T01:00:00","ND","5","15,17","3,4","85,8","23,4","74,4","0","0"],
    [7384,"2014-12-04T02:00:00","ND","1","18,03","0,8","192,5","24,3","69,9","0","0"],
    [7385,"2014-12-04T03:00:00","ND","22","13,91","1,6","164,6","24","73,8","0","0"],
    [7386,"2014-12-04T04:00:00","ND","17","12,54","2,3","140,9","23,7","74,3","0","0"],
    [7387,"2014-12-04T05:00:00","ND","17","11,32","1,4","167,2","23,4","75,5","0","0"],
    [7388,"2014-12-04T06:00:00","ND","23","10,38","1,8","132,7","23,4","75,9","0","0"],
    [7389,"2014-12-04T07:00:00","ND","25","10,66","1,8","156,4","23,4","76,9","16,9","0"],
    [7390,"2014-12-04T08:00:00","ND","14","18,01","2,5","190,8","24","74,7","93,7","0"],
    [7391,"2014-12-04T09:00:00","ND","13","28,93","2,6","187,2","25,4","69","220","0"],
    [7392,"2014-12-04T10:00:00","ND","15","35,56","3","175,6","26","65,7","245,5","0"],
    [7393,"2014-12-04T11:00:00","ND","12","53,67","1,6","179,9","27,1","59,9","291,1","0"],
    [7394,"2014-12-04T12:00:00","ND","18","99,53","0,9","42,3","28,8","53,5","374,8","0"],
    [7395,"2014-12-04T13:00:00","ND","27","127,08","3,3","63,9","29,9","48,7","337,6","0"],
    [7396,"2014-12-04T14:00:00","ND","20","103,08","3,5","61,6","30,8","45,2","384,4","0"],
    [7397,"2014-12-04T15:00:00","ND","12","79,93","3,2","42,3","31","45","210,6","0"],
    [7398,"2014-12-04T16:00:00","ND","10","65,88","6,6","300,8","30,5","44,1","161,8","0"],
    [7399,"2014-12-04T17:00:00","ND","12","60,09","6,8","295,8","30,1","43","96","0"],
    [7400,"2014-12-04T18:00:00","ND","12","34,87","5,6","297,4","28,7","48,1","9,2","0"],
    [7401,"2014-12-04T19:00:00","ND","17","14,33","1,5","354,7","27,7","52,6","0","0"],
    [7402,"2014-12-04T20:00:00","ND","22","25,45","4,2","170,1","26,1","62,2","0","0"],
    [7403,"2014-12-04T21:00:00","ND","13","54,57","5,7","196,3","24,1","72,1","0","2,03"],
    [7404,"2014-12-04T22:00:00","ND","13","38,19","4,9","204,7","22,9","80,6","0","0,25"],
    [7405,"2014-12-04T23:00:00","ND","10","31,28","3,3","176,7","22,7","80,9","0","0,25"],
    [7406,"2014-12-05T00:00:00","ND","12","27,65","2,8","176,9","22","86","0","1,02"],
    [7407,"2014-12-05T01:00:00","ND","6","32,69","2,5","226,6","22","84,9","0","0,25"],
    [7408,"2014-12-05T02:00:00","ND","7","21,72","2,2","154,8","21,9","86,4","0","0"],
    [7409,"2014-12-05T03:00:00","ND","7","22,82","2,3","172,3","21,7","85,7","0","0"],
    [7410,"2014-12-05T04:00:00","ND","6","16,8","1","122,7","21,7","86,6","0","0"],
    [7411,"2014-12-05T05:00:00","ND","4","17,03","1,3","177,2","21,8","86,9","0","0"],
    [7412,"2014-12-05T06:00:00","ND","20","11,75","1,2","126,2","22","85,3","0","0"],
    [7413,"2014-12-05T07:00:00","ND","17","14,05","2","218,2","22,2","83,5","44,5","0"],
    [7414,"2014-12-05T08:00:00","ND","15","26,32","2,3","157,9","23,5","75,5","120,3","0"],
    [7415,"2014-12-05T09:00:00","ND","12","28,2","3,2","116,8","23,9","76,3","121,3","0"],
    [7416,"2014-12-05T10:00:00","ND","12","34,18","2","143,3","24,5","73,9","134,7","0"],
    [7417,"2014-12-05T11:00:00","ND","13","54,44","2,4","118","26,1","65,4","445,5","0"],
    [7418,"2014-12-05T12:00:00","ND","11","74,67","2,3","125,7","27,8","59,4","349,7","0"],
    [7419,"2014-12-05T13:00:00","ND","19","91,25","4,1","87,8","28,8","54,7","368,7","0"],
    [7420,"2014-12-05T14:00:00","ND","12","86,44","3","38,2","29,3","50,1","168,6","0"],
    [7421,"2014-12-05T15:00:00","ND","10","37,17","4,5","26,6","25,9","67,3","18,6","2,79"],
    [7422,"2014-12-05T16:00:00","ND","9","26,43","3,6","60,2","24,1","78,6","21,9","0"],
    [7423,"2014-12-05T17:00:00","ND","19","16,5","2,1","86,3","24,5","78,4","22,6","0"],
    [7424,"2014-12-05T18:00:00","ND","12","30,65","5,1","205","23,2","77,8","8","0"],
    [7425,"2014-12-05T19:00:00","ND","11","33,48","5,2","211,1","22,2","81,3","0","0"],
    [7426,"2014-12-05T20:00:00","ND","19","33,26","4,2","211,9","22","82,5","0","0"],
    [7427,"2014-12-05T21:00:00","ND","25","19,43","0,7","244,6","22,6","78,1","0","0"],
    [7428,"2014-12-05T22:00:00","ND","19","12,48","3,4","68,9","21,9","83,4","0","0"],
    [7429,"2014-12-05T23:00:00","ND","17","14,66","2,3","102,7","21,7","85,9","0","0"],
    [7430,"2014-12-06T00:00:00","ND","27","16,72","1,1","235,3","21,6","85,6","0","0"],
    [7431,"2014-12-06T01:00:00","ND","24","13,8","3,6","256,6","21,7","85","0","0"],
    [7432,"2014-12-06T02:00:00","ND","12","13,52","0,6","145,3","21,9","83,3","0","0"],
    [7433,"2014-12-06T03:00:00","ND","24","12,11","0,9","107,3","21,6","84,4","0","0"],
    [7434,"2014-12-06T04:00:00","ND","22","9,62","1,3","94,2","21","87","0","0"],
    [7435,"2014-12-06T05:00:00","ND","26","9,81","1,7","182,1","20,5","88,5","0","0"],
    [7436,"2014-12-06T06:00:00","ND","17","9,5","1,6","193,9","20,5","88,9","0","0"],
    [7437,"2014-12-06T07:00:00","ND","46","10,89","1,8","130,2","20,5","88,2","19,1","0"],
    [7438,"2014-12-06T08:00:00","ND","18","16,92","1,2","231,6","21,7","84,8","147,8","0"],
    [7439,"2014-12-06T09:00:00","ND","22","29,93","1,8","149,6","23,7","75,3","210,7","0"],
    [7440,"2014-12-06T10:00:00","ND","17","49,18","2,9","116,7","25,2","67,6","351,2","0"],
    [7441,"2014-12-06T11:00:00","ND","15","57,79","2,9","79,5","26,5","61,7","401,7","0"],
    [7442,"2014-12-06T12:00:00","ND","12","73,9","3","71,5","27,8","56,2","393,3","0"],
    [7443,"2014-12-06T13:00:00","ND","15","105,12","3,7","351,6","28,5","52,7","359,1","0"],
    [7444,"2014-12-06T14:00:00","ND","14","96,67","3,9","18,1","29,7","49,1","368,1","0"],
    [7445,"2014-12-06T15:00:00","ND","12","77,18","3,7","13,4","30","47","222,7","0"],
    [7446,"2014-12-06T16:00:00","ND","15","61,27","0,8","72,5","29,9","45,7","130,6","0"],
    [7447,"2014-12-06T17:00:00","ND","9","45,45","6,5","289,8","29,6","44,6","59,8","0"],
    [7448,"2014-12-06T18:00:00","ND","8","25,82","3,3","338","28,1","50,3","9","0"],
    [7449,"2014-12-06T19:00:00","ND","18","14,25","3,4","102,9","26,4","60,3","0","0"],
    [7450,"2014-12-06T20:00:00","ND","26","14,07","3,1","112,2","24,7","69,2","0","0"],
    [7451,"2014-12-06T21:00:00","ND","18","14,11","1,9","222,7","24,6","69","0","0"],
    [7452,"2014-12-06T22:00:00","ND","28","14,42","2,5","167,8","23,7","74,4","0","0"],
    [7453,"2014-12-06T23:00:00","ND","32","22,37","3,5","162,7","23,3","78,2","0","0"],
    [7454,"2014-12-07T00:00:00","ND","21","23,02","3","175,1","22,8","82,3","0","0"],
    [7455,"2014-12-07T01:00:00","ND","19","21,86","2,7","163,3","22,6","83,5","0","0"],
    [7456,"2014-12-07T02:00:00","ND","12","21,9","1,9","172,8","22,5","84,6","0","0"],
    [7457,"2014-12-07T03:00:00","ND","19","15,44","1,6","104,8","22,3","85,1","0","0"],
    [7458,"2014-12-07T04:00:00","ND","17","13,99","1,1","317,7","22,5","83,6","0","0"],
    [7459,"2014-12-07T05:00:00","ND","21","12,09","2","127,4","22,7","83,5","0","0"],
    [7460,"2014-12-07T06:00:00","ND","16","11,93","2,4","156,8","22","86,9","0","0"],
    [7461,"2014-12-07T07:00:00","ND","18","13,34","2","202,8","22,3","84,9","13,9","0"],
    [7462,"2014-12-07T08:00:00","ND","17","20,68","2,6","195,9","23,2","80,8","88,3","0"],
    [7463,"2014-12-07T09:00:00","ND","8","29,51","3,3","168","24,4","74,3","239,8","0"],
    [7464,"2014-12-07T10:00:00","ND","13","47","2,5","145,1","25,5","67,7","273","0"],
    [7465,"2014-12-07T11:00:00","ND","26","54,89","2,3","107","26","65,2","167,6","0"],
    [7466,"2014-12-07T12:00:00","ND","26","66,54","3,9","16,6","26,5","64,8","190,4","0"],
    [7467,"2014-12-07T13:00:00","ND","32","88,07","3,4","39,6","27,5","62,1","366,2","0"],
    [7468,"2014-12-07T14:00:00","ND","20","85,13","5,2","37,3","28,1","57,9","267,8","0"],
    [7469,"2014-12-07T15:00:00","ND","17","79,16","4,5","6,4","28,4","53,5","228,1","0"],
    [7470,"2014-12-07T16:00:00","ND","14","60,26","3","54,6","28,9","52,7","127,4","0"],
    [7471,"2014-12-07T17:00:00","ND","12","45,7","3,3","30,2","28,7","52,2","52,6","0"],
    [7472,"2014-12-07T18:00:00","ND","6","30,51","2,7","290,2","27,5","52,3","9,7","0"],
    [7473,"2014-12-07T19:00:00","ND","22","18,45","1,1","36","26,8","55,7","0","0"],
    [7474,"2014-12-07T20:00:00","ND","34","12,74","2,6","73,8","25,6","64,5","0","0"],
    [7475,"2014-12-07T21:00:00","ND","48","11,95","3,4","73,7","23,7","71,8","0","0"],
    [7476,"2014-12-07T22:00:00","ND","35","12,56","3","62,4","23,2","73,1","0","0"],
    [7477,"2014-12-07T23:00:00","ND","26","13,76","2,6","38,8","22,9","73,6","0","0"],
    [7478,"2014-12-08T00:00:00","ND","27","12,44","2,8","74,6","22,3","76,8","0","0"],
    [7479,"2014-12-08T01:00:00","ND","14","12,05","3,5","63,8","22,4","77,3","0","0"],
    [7480,"2014-12-08T02:00:00","ND","8","14,29","2,3","68,5","22,7","75,6","0","0"],
    [7481,"2014-12-08T03:00:00","ND","4","13,87","1,1","98,5","22,5","75,9","0","0"],
    [7482,"2014-12-08T04:00:00","ND","4","14,72","0,9","354,5","22,2","76,8","0","0"],
    [7483,"2014-12-08T05:00:00","ND","8","14,31","2,6","68,4","21,9","77,9","0","0"],
    [7484,"2014-12-08T06:00:00","ND","12","13,46","2","53,3","21,8","78,3","0","0"],
    [7485,"2014-12-08T07:00:00","ND","13","13,93","1,9","31,7","21,6","80","6,5","0"],
    [7486,"2014-12-08T08:00:00","ND","26","14,84","2","64","22,2","79,8","80","0"],
    [7487,"2014-12-08T09:00:00","ND","28","29,57","0,8","249,9","23,9","72,3","133,5","0"],
    [7488,"2014-12-08T10:00:00","ND","17","45,27","1,6","118,4","25,5","66","234,7","0"],
    [7489,"2014-12-08T11:00:00","ND","22","65,11","2,2","73,8","26,8","61,3","381,7","0"],
    [7490,"2014-12-08T12:00:00","ND","8","71,84","2,7","123,2","28,6","53,1","462,5","0"],
    [7491,"2014-12-08T13:00:00","ND","10","76,89","1,7","122,1","29,6","48,5","446,5","0"],
    [7492,"2014-12-08T14:00:00","ND","13","87,31","1,9","357,5","30,2","45,6","332,2","0"],
    [7493,"2014-12-08T15:00:00","ND","9","100","2,5","7,1","31,1","41,5","325,2","0"],
    [7494,"2014-12-08T16:00:00","ND","22","99,69","4,2","326,1","31,2","42,3","216,4","0"],
    [7495,"2014-12-08T17:00:00","ND","11","75,75","7,2","286,7","30,2","45","107,5","0"],
    [7496,"2014-12-08T18:00:00","ND","12","63,7","5,8","298,6","29,1","48,2","24,2","0"],
    [7497,"2014-12-08T19:00:00","ND","18","51,49","5,2","302,5","27,9","51","0","0"],
    [7498,"2014-12-08T20:00:00","ND","19","35,13","3","324,8","27,3","54,1","0","0"],
    [7499,"2014-12-08T21:00:00","ND","20","17,52","3","73,2","25,9","62,7","0","0"],
    [7500,"2014-12-08T22:00:00","ND","13","20,04","2,9","222,3","25,4","65,4","0","0"],
    [7501,"2014-12-08T23:00:00","ND","24","21,13","6,1","235,9","25","69,2","0","0"],
    [7502,"2014-12-09T00:00:00","ND","23","24,51","3,8","207,5","24,1","75,3","0","0"],
    [7503,"2014-12-09T01:00:00","ND","13","26,67","3,1","110,2","23,4","79,8","0","0"],
    [7504,"2014-12-09T02:00:00","ND","12","34,79","1,5","112,8","22,9","81,7","0","0"],
    [7505,"2014-12-09T03:00:00","ND","11","21,55","2,8","65,9","22,9","80,7","0","0"],
    [7506,"2014-12-09T04:00:00","ND","9","18,7","2,8","83,9","22,8","79,2","0","0"],
    [7507,"2014-12-09T05:00:00","ND","6","14,44","2","88,1","22,6","80,5","0","0"],
    [7508,"2014-12-09T06:00:00","ND","8","14,03","0,8","81,7","22,7","80,1","0","0"],
    [7509,"2014-12-09T07:00:00","ND","17","14,34","2,4","35,5","22,6","80,3","4,3","0"],
    [7510,"2014-12-09T08:00:00","ND","17","16,52","2,9","48,1","23,2","78,3","58,5","0"],
    [7511,"2014-12-09T09:00:00","ND","18","22,9","2,5","66","24,3","74,2","223,8","0"],
    [7512,"2014-12-09T10:00:00","ND","16","29,47","3,7","158,7","25,1","70,6","112,9","0"],
    [7513,"2014-12-09T11:00:00","ND","10","33,48","6,9","205,8","24,8","73,4","154,9","0"],
    [7514,"2014-12-09T12:00:00","ND","14","32,18","6,1","209,5","23,7","79,3","61,1","2,79"],
    [7515,"2014-12-09T13:00:00","ND","7","38,74","6,2","152,5","25,2","74,7","425,6","0"],
    [7516,"2014-12-09T14:00:00","ND","2","44,94","5,7","174,3","27,1","60,3","335,4","0"],
    [7517,"2014-12-09T15:00:00","ND","5","45,45","2,6","263","26,1","62,8","71,9","0,51"],
    [7518,"2014-12-09T16:00:00","ND","16","18,78","4,9","344,5","22,8","82,5","16,4","5,84"],
    [7519,"2014-12-09T17:00:00","ND","8","19,41","4,6","72,6","21,8","87,3","29,1","1,78"],
    [7520,"2014-12-09T18:00:00","ND","22","28,04","1,4","2,4","21,5","86,7","9,3","0,25"],
    [7521,"2014-12-09T19:00:00","ND","16","16,29","2,7","316,9","22","83,4","0","0"],
    [7522,"2014-12-09T20:00:00","ND","38","13,97","2,5","64,3","21,9","84,3","0","0"],
    [7523,"2014-12-09T21:00:00","ND","18","14,25","1,8","206,6","21,5","86,1","0","0"],
    [7524,"2014-12-09T22:00:00","ND","39","14,25","1,9","180,5","21,6","86,1","0","0"],
    [7525,"2014-12-09T23:00:00","ND","22","13,97","2,4","124,2","21,3","86,6","0","0"],
    [7526,"2014-12-10T00:00:00","ND","19","15,01","1,6","112,7","21,3","85,5","0","0"],
    [7527,"2014-12-10T01:00:00","ND","12","18,19","1,5","209,6","21,3","83,5","0","0"],
    [7528,"2014-12-10T02:00:00","ND","13","18,66","1,9","208,8","21,2","84,1","0","0"],
    [7529,"2014-12-10T03:00:00","ND","10","14,48","2,3","76,5","20,8","87,3","0","0"],
    [7530,"2014-12-10T04:00:00","ND","6","13,7","2,6","83,8","20,5","89,5","0","0"],
    [7531,"2014-12-10T05:00:00","ND","9","13,87","0,9","53,4","20,7","89","0","0"],
    [7532,"2014-12-10T06:00:00","ND","9","14,62","1,9","307,6","21","87","0","0"],
    [7533,"2014-12-10T07:00:00","ND","42","14,66","2,3","68,4","21,3","86","10,7","0"],
    [7534,"2014-12-10T08:00:00","ND","30","14,58","2,6","89,5","21,6","86,7","75,2","0"],
    [7535,"2014-12-10T09:00:00","ND","38","17,15","2,8","72,2","22,4","83,3","92,3","0"],
    [7536,"2014-12-10T10:00:00","ND","17","24,08","2,1","67,2","23","78,4","102,8","0"],
    [7537,"2014-12-10T11:00:00","ND","17","45,49","0,9","243,7","24,1","72,5","262,7","0"],
    [7538,"2014-12-10T12:00:00","ND","22","77,81","2","210,7","25,7","65,6","341,6","0"],
    [7539,"2014-12-10T13:00:00","ND","29","101,28","1,3","106,8","26,8","60,3","316,8","0"],
    [7540,"2014-12-10T14:00:00","ND","ND","ND","2,4","121,3","28","54,2","306,5","0"],
    [7541,"2014-12-10T15:00:00","ND","14","120,8","2,1","113,5","28,5","49,3","114,9","0"],
    [7542,"2014-12-10T16:00:00","ND","16","84,83","3,6","265,2","28,1","52,2","44,7","0"],
    [7543,"2014-12-10T17:00:00","ND","23","102,71","4,3","259,1","27,5","53,7","40,3","0"],
    [7544,"2014-12-10T18:00:00","ND","43","61,27","3,9","253,7","27","55,9","7,1","0"],
    [7545,"2014-12-10T19:00:00","ND","18","12,07","4","254,5","26,3","58","0","0"],
    [7546,"2014-12-10T20:00:00","ND","21","11,62","1,6","185,8","25,4","63,5","0","0"],
    [7547,"2014-12-10T21:00:00","ND","16","16,21","3,4","55,3","24,1","71,6","0","0"],
    [7548,"2014-12-10T22:00:00","ND","11","16,72","2,7","1,9","22,5","75,5","0","4,32"],
    [7549,"2014-12-10T23:00:00","ND","9","11,11","2,9","70,9","21,1","82,9","0","0"],
    [7550,"2014-12-11T00:00:00","ND","9","17,03","2,3","58,4","20,9","83,2","0","0"],
    [7551,"2014-12-11T01:00:00","ND","6","21,19","2,3","359,9","20,8","84,8","0","0"],
    [7552,"2014-12-11T02:00:00","ND","13","14,89","2,7","45,2","20,7","86,5","0","0"],
    [7553,"2014-12-11T03:00:00","ND","7","15,44","2,6","27,1","20,7","87,6","0","0"],
    [7554,"2014-12-11T04:00:00","ND","7","17,09","2,8","351,9","20,8","87,5","0","0"],
    [7555,"2014-12-11T05:00:00","ND","14","13,48","1,7","44","20,8","86,6","0","0"],
    [7556,"2014-12-11T06:00:00","ND","11","8,52","2","67,2","20,8","87,5","0","0"],
    [7557,"2014-12-11T07:00:00","ND","12","8,52","2,6","40,5","20,9","87,4","4,7","0"],
    [7558,"2014-12-11T08:00:00","ND","12","11,83","3,2","23","21,1","86,9","40,3","0"],
    [7559,"2014-12-11T09:00:00","ND","6","21,98","3,7","16,7","21,9","83,1","150,4","0"],
    [7560,"2014-12-11T10:00:00","ND","4","26,92","3,4","33,3","23","76,5","129,8","0"],
    [7561,"2014-12-11T11:00:00","ND","6","32,48","3,2","22,1","23,6","73,8","140,7","0"],
    [7562,"2014-12-11T12:00:00","ND","18","39,76","3,8","47,7","24,5","69,6","210,1","0"],
    [7563,"2014-12-11T13:00:00","ND","8","54,3","2,8","27,2","25,7","64,1","286,3","0"],
    [7564,"2014-12-11T14:00:00","ND","13","59,83","3,5","32,6","26,8","58,9","321,2","0"],
    [7565,"2014-12-11T15:00:00","ND","10","61,27","2,6","40,6","27,1","55,4","195,7","0"],
    [7566,"2014-12-11T16:00:00","ND","11","73,26","1,1","342,9","27","58,6","131,7","0"],
    [7567,"2014-12-11T17:00:00","ND","21","58,79","2","79,7","27,1","58,2","56,3","0"],
    [7568,"2014-12-11T18:00:00","ND","25","38,4","2,4","48,9","27","59,5","13","0"],
    [7569,"2014-12-11T19:00:00","ND","28","25,67","3,2","15,6","26","63,2","0","0"],
    [7570,"2014-12-11T20:00:00","ND","21","14,29","2,8","354,7","24,9","69,5","0","0"],
    [7571,"2014-12-11T21:00:00","ND","44","8,08","1,9","74,5","24,4","72,9","0","0"],
    [7572,"2014-12-11T22:00:00","ND","30","8,85","2,6","62,1","23,5","76,7","0","0"],
    [7573,"2014-12-11T23:00:00","ND","13","6,83","0,6","9","23,2","78,1","0","0"],
    [7574,"2014-12-12T00:00:00","ND","19","7,08","1,8","226,1","22,7","79,9","0","0"],
    [7575,"2014-12-12T01:00:00","ND","36","7,48","1,2","173,6","23","79,1","0","0"],
    [7576,"2014-12-12T02:00:00","ND","42","8,52","2,2","128,4","22,5","81,1","0","0"],
    [7577,"2014-12-12T03:00:00","ND","32","7,79","0,9","190,8","22,3","82,6","0","0"],
    [7578,"2014-12-12T04:00:00","ND","23","10,17","0,6","34,2","22,7","80,1","0","0"],
    [7579,"2014-12-12T05:00:00","ND","40","7,93","0,7","122,6","22,7","80,8","0","0"],
    [7580,"2014-12-12T06:00:00","ND","29","6,53","2,6","122,1","22,1","85,8","0","1,78"],
    [7581,"2014-12-12T07:00:00","ND","26","6,85","0,9","63,9","21,6","89","10,3","9,14"],
    [7582,"2014-12-12T08:00:00","ND","43","8,99","0,8","52,2","21,9","88,7","36","0,25"],
    [7583,"2014-12-12T09:00:00","ND","28","15,03","1,9","212,8","22,8","85,4","104,4","0"],
    [7584,"2014-12-12T10:00:00","ND","18","36,44","1,8","224,2","24,1","77,7","294,3","0"],
    [7585,"2014-12-12T11:00:00","ND","24","56,28","2,1","145,1","26","68,6","398,3","0"],
    [7586,"2014-12-12T12:00:00","ND","19","79,2","1,8","95,1","27,4","62,4","444,5","0"],
    [7587,"2014-12-12T13:00:00","ND","27","98,55","2,3","125,5","28,6","55,4","438,7","0"],
    [7588,"2014-12-12T14:00:00","ND","20","97,69","2","84,4","29,5","48,8","368,7","0"],
    [7589,"2014-12-12T15:00:00","ND","24","97,69","3,2","66,8","30,3","46,4","291,4","0"],
    [7590,"2014-12-12T16:00:00","ND","28","105,54","4,5","9,6","30,3","47,3","163,9","0"],
    [7591,"2014-12-12T17:00:00","ND","12","38,36","4","352,4","29,8","47,7","98,3","0"],
    [7592,"2014-12-12T18:00:00","ND","21","22,7","5","33,6","28,1","55,1","10,3","0"],
    [7593,"2014-12-12T19:00:00","ND","26","18,82","3,7","67","25,7","64,5","0","0"],
    [7594,"2014-12-12T20:00:00","ND","17","28,75","3,8","190,6","24,5","70,5","0","0"],
    [7595,"2014-12-12T21:00:00","ND","17","41,27","5","199,7","22,9","77,1","0","0"],
    [7596,"2014-12-12T22:00:00","ND","ND","23,27","2,2","156,6","22,9","77,8","0","0"],
    [7597,"2014-12-12T23:00:00","ND","17","15,8","2,9","126,6","22,4","81,2","0","0"],
    [7598,"2014-12-13T00:00:00","ND","13","15,7","3,6","119,7","22","83,5","0","0"],
    [7599,"2014-12-13T01:00:00","ND","9","19,86","1,3","205,6","21,9","84","0","8,38"],
    [7600,"2014-12-13T02:00:00","ND","3","34,66","5,2","183,6","20,8","87,4","0","1,02"],
    [7601,"2014-12-13T03:00:00","ND","ND","31,87","3,9","147","20,2","89,1","0","3,56"],
    [7602,"2014-12-13T04:00:00","ND","3","22,94","1,8","82","20,1","89,3","0","1,52"],
    [7603,"2014-12-13T05:00:00","ND","4","18,74","2,5","317,5","20,3","88,2","0","0"],
    [7604,"2014-12-13T06:00:00","ND","10","8,5","1,5","343,9","20,5","88,3","0","0"],
    [7605,"2014-12-13T07:00:00","ND","28","9,36","3,1","97,6","20,2","89,5","10","0"],
    [7606,"2014-12-13T08:00:00","ND","17","16,07","1,1","198,3","20,5","88,7","81,8","0"],
    [7607,"2014-12-13T09:00:00","ND","ND","29,57","1,3","135,6","22,2","80,1","229,2","0"],
    [7608,"2014-12-13T10:00:00","ND","20","53,73","0,9","198,1","23,8","71,6","283,8","0"],
    [7609,"2014-12-13T11:00:00","ND","16","79,38","1,3","85,3","25,4","63,7","379,5","0"],
    [7610,"2014-12-13T12:00:00","ND","13","76,71","2,9","87,5","26,9","55,2","444,5","0"],
    [7611,"2014-12-13T13:00:00","ND","16","74,33","3,8","64,2","28,1","53,1","427,4","0"],
    [7612,"2014-12-13T14:00:00","ND","15","65,25","4,9","50","28,8","50,9","274,6","0"],
    [7613,"2014-12-13T15:00:00","ND","8","50,59","5,6","303,7","27,9","49,3","64,4","0"],
    [7614,"2014-12-13T16:00:00","ND","12","45,78","5,5","216,4","24,3","67,2","14","0"],
    [7615,"2014-12-13T17:00:00","ND","ND","34,71","3,3","181","22","82,2","9","1,78"],
    [7616,"2014-12-13T18:00:00","ND","14","21,9","1,8","101,6","21,8","85","5,6","3,81"],
    [7617,"2014-12-13T19:00:00","ND","9","18,86","1,9","129,9","21,6","84,6","0","2,29"],
    [7618,"2014-12-13T20:00:00","ND","7","21,17","0,8","314,8","21,5","84,2","0","1,52"],
    [7619,"2014-12-13T21:00:00","ND","ND","17,41","2,6","325,3","21,4","83,4","0","0"],
    [7620,"2014-12-13T22:00:00","ND","20","14,82","2,1","11,9","21,7","81,2","0","0,25"],
    [7621,"2014-12-13T23:00:00","ND","18","11,4","2,8","109,8","21,1","86","0","0"],
    [7622,"2014-12-14T00:00:00","ND","14","13,89","1,3","119,3","21,1","84,3","0","0"],
    [7623,"2014-12-14T01:00:00","ND","ND","17,29","2,2","29,2","21","84,9","0","0"],
    [7624,"2014-12-14T02:00:00","ND","2","20,41","1,1","44,7","20,8","87,1","0","0"],
    [7625,"2014-12-14T03:00:00","ND","4","20,08","0,6","242,1","20,7","87,3","0","0"],
    [7626,"2014-12-14T04:00:00","ND","ND","14,7","1,4","137,8","20,8","87,6","0","0,25"],
    [7627,"2014-12-14T05:00:00","ND","11","11,68","2,1","57","20,6","88","0","0"],
    [7628,"2014-12-14T06:00:00","ND","13","9,73","2,4","79,9","20,6","88,6","0","0"],
    [7629,"2014-12-14T07:00:00","ND","17","9,11","2,3","94,2","20,6","89,3","0","0"],
    [7630,"2014-12-14T08:00:00","ND","23","10,91","1,7","72,2","20,7","88,9","31,7","0"],
    [7631,"2014-12-14T09:00:00","ND","16","21,66","1,6","26,3","21,6","84,6","157,7","0"],
    [7632,"2014-12-14T10:00:00","ND","ND","47","0,3","154,3","23,1","75,3","295,5","0"],
    [7633,"2014-12-14T11:00:00","ND","19","69,19","2","148,8","24,9","66","396,7","0"],
    [7634,"2014-12-14T12:00:00","ND","18","78,08","1,6","160,7","26,2","60","468,8","0"],
    [7635,"2014-12-14T13:00:00","ND","14","80,16","3,3","124,8","27,3","54,2","473,9","0"],
    [7636,"2014-12-14T14:00:00","ND","19","88,66","2,8","92,4","27,9","51,2","407,3","0"],
    [7637,"2014-12-14T15:00:00","ND","9","89,72","2,8","71,7","28,7","48","337,5","0"],
    [7638,"2014-12-14T16:00:00","ND","14","105,79","4,8","3,2","28,9","49,7","217,8","0"],
    [7639,"2014-12-14T17:00:00","ND","13","61,15","4,2","341,5","27,9","53,5","51,8","0"],
    [7640,"2014-12-14T18:00:00","ND","11","46,47","4,9","310,4","27","54,2","11,2","0"],
    [7641,"2014-12-14T19:00:00","ND","11","23,51","2,4","17,5","26,1","59,4","0","0"],
    [7642,"2014-12-14T20:00:00","ND","11","16,43","2,1","58,1","25,1","65,2","0","0"],
    [7643,"2014-12-14T21:00:00","ND","20","10,3","2,5","76,4","23,7","73,5","0","0"],
    [7644,"2014-12-14T22:00:00","ND","10","11,09","3,3","92","22,5","76","0","0"],
    [7645,"2014-12-14T23:00:00","ND","ND","15,6","1,3","53,4","22,4","74,4","0","0"],
    [7646,"2014-12-15T00:00:00","ND","8","8,93","2,2","184,6","21,9","81,2","0","0"],
    [7647,"2014-12-15T01:00:00","ND","13","9,18","1,7","101,4","21,4","83,4","0","0"],
    [7648,"2014-12-15T02:00:00","ND","11","9,52","0,6","127,3","21,2","83,2","0","0"],
    [7649,"2014-12-15T03:00:00","ND","ND","11,24","2","100,4","20,6","83,3","0","0"],
    [7650,"2014-12-15T04:00:00","ND","6","11,21","1,2","126,9","20,5","85","0","0"],
    [7651,"2014-12-15T05:00:00","ND","11","18,54","0,7","147,8","20,4","84,1","0","0"],
    [7652,"2014-12-15T06:00:00","ND","19","20,43","1,1","232,6","20,2","85,2","0","0"],
    [7653,"2014-12-15T07:00:00","ND","ND","20,04","2,3","157,5","19,9","86,6","5,7","0"],
    [7654,"2014-12-15T08:00:00","ND","17","15,23","1,5","157","20,8","84,3","52,6","0"],
    [7655,"2014-12-15T09:00:00","ND","20","21,41","2","116,6","22,3","78,1","197,2","0"],
    [7656,"2014-12-15T10:00:00","ND","23","43","2,9","153,3","24,3","68","321,6","0"],
    [7657,"2014-12-15T11:00:00","ND","23","74,06","2,3","180,8","26","61,2","392","0"],
    [7658,"2014-12-15T12:00:00","ND","22","93,25","1,9","104,2","27,4","56,5","412,8","0"],
    [7659,"2014-12-15T13:00:00","ND","19","96,9","3,3","87,4","28,7","48,1","433","0"],
    [7660,"2014-12-15T14:00:00","ND","ND","102,75","2,8","67,1","29,5","45,9","396,8","0"],
    [7661,"2014-12-15T15:00:00","ND","17","116,27","3,6","54,6","30,1","43,1","305,5","0"],
    [7662,"2014-12-15T16:00:00","ND","17","123,02","3,6","16,9","30,2","44,2","169,1","0"],
    [7663,"2014-12-15T17:00:00","ND","ND","66,13","6,4","291,7","29,6","45,2","123","0"],
    [7664,"2014-12-15T18:00:00","ND","10","41,56","5,3","298,1","28,1","48,9","11,1","0"],
    [7665,"2014-12-15T19:00:00","ND","14","26,53","5","294,2","27,1","52,4","0","0"],
    [7666,"2014-12-15T20:00:00","ND","22","24,37","1,9","83,1","25,3","62,4","0","0"],
    [7667,"2014-12-15T21:00:00","ND","20","14,72","3,1","87,7","24","70,7","0","0"],
    [7668,"2014-12-15T22:00:00","ND","19","14,07","1,2","75,2","23,5","71,4","0","0"],
    [7669,"2014-12-15T23:00:00","ND","38","24,94","1,5","21,6","23,6","69,8","0","0"],
    [7670,"2014-12-16T00:00:00","ND","24","18,66","1,9","214,8","23,4","72,2","0","0"],
    [7671,"2014-12-16T01:00:00","ND","21","11,72","2,9","194,6","22,7","77,7","0","0"],
    [7672,"2014-12-16T02:00:00","ND","38","11,26","1,6","163,8","22","80,4","0","0"],
    [7673,"2014-12-16T03:00:00","ND","19","13,62","1","192,5","22,1","79,4","0","0"],
    [7674,"2014-12-16T04:00:00","ND","26","19,13","1,8","149,1","21,4","82,7","0","0"],
    [7675,"2014-12-16T05:00:00","ND","21","17,03","0,9","307,5","21,4","82,7","0","0"],
    [7676,"2014-12-16T06:00:00","ND","41","16,99","1,5","124,4","21,4","82,8","0","0"],
    [7677,"2014-12-16T07:00:00","ND","37","18,13","1,1","102,7","21,6","81,7","21,1","0"],
    [7678,"2014-12-16T08:00:00","ND","33","14,03","2,8","133,1","22,2","81","95,5","0"],
    [7679,"2014-12-16T09:00:00","ND","18","28,42","2,9","184","23,9","72,2","195,2","0"],
    [7680,"2014-12-16T10:00:00","ND","18","49,59","2,1","135,5","25,3","65,7","271,6","0"],
    [7681,"2014-12-16T11:00:00","ND","15","61,3","0,7","93,4","26,6","62","376,6","0"],
    [7682,"2014-12-16T12:00:00","ND","19","84,99","2,4","130,8","27,8","56","336,1","0"],
    [7683,"2014-12-16T13:00:00","ND","24","103,69","2,7","91,9","28,5","53,5","365,9","0"],
    [7684,"2014-12-16T14:00:00","ND","19","97,31","3,4","75,8","29","51,2","292,2","0"],
    [7685,"2014-12-16T15:00:00","ND","12","93,43","2,8","51,5","29,5","47,8","215,3","0"],
    [7686,"2014-12-16T16:00:00","ND","22","104,65","4,3","59,7","29,8","49","196,5","0"],
    [7687,"2014-12-16T17:00:00","ND","26","74,43","4,1","40","29,8","50,5","81,5","0"],
    [7688,"2014-12-16T18:00:00","ND","13","47,37","4,2","297,6","28,4","51","10,5","0"],
    [7689,"2014-12-16T19:00:00","ND","17","31,1","3,9","303,6","27,6","52,5","0","0"],
    [7690,"2014-12-16T20:00:00","ND","27","23,47","1,3","332","26,7","57,6","0","0"],
    [7691,"2014-12-16T21:00:00","ND","17","12,42","3","55,8","24,9","70,3","0","0"],
    [7692,"2014-12-16T22:00:00","ND","25","12,74","2,2","45,6","24,3","71,5","0","0"],
    [7693,"2014-12-16T23:00:00","ND","16","13,44","2,4","85,4","24,1","72,2","0","0"],
    [7694,"2014-12-17T00:00:00","ND","14","13,01","2,3","216,3","24","72,9","0","1,52"],
    [7695,"2014-12-17T01:00:00","ND","24","15,91","3,2","243,5","23,2","80,4","0","5,84"],
    [7696,"2014-12-17T02:00:00","ND","10","40,03","0,9","256,4","22,9","77,1","0","0"],
    [7697,"2014-12-17T03:00:00","ND","9","21,19","1,3","129,7","22,3","82","0","0"],
    [7698,"2014-12-17T04:00:00","ND","23","19,43","0,9","225,3","22,6","81,5","0","0"],
    [7699,"2014-12-17T05:00:00","ND","20","11,89","1,5","169,7","22,6","83,4","0","0"],
    [7700,"2014-12-17T06:00:00","ND","23","10,03","1,5","166,7","22,2","84,6","0","0"],
    [7701,"2014-12-17T07:00:00","ND","23","10,26","0,8","276,4","22,3","85,1","4,4","0"],
    [7702,"2014-12-17T08:00:00","ND","36","11,22","2,8","106,5","22,9","83,7","58,2","0"],
    [7703,"2014-12-17T09:00:00","ND","34","15,62","2,6","128,7","23,6","81,4","62,6","0"],
    [7704,"2014-12-17T10:00:00","ND","24","36,25","1,6","276,1","24,6","75,2","205,3","0"],
    [7705,"2014-12-17T11:00:00","ND","35","58,71","2,1","104,8","26,3","66,7","369,1","0"],
    [7706,"2014-12-17T12:00:00","ND","29","75,57","3,9","103,4","27,8","60,6","431,9","0"],
    [7707,"2014-12-17T13:00:00","ND","25","82,3","3,1","87,1","28,5","57,2","281,4","0"],
    [7708,"2014-12-17T14:00:00","ND","4","32,07","6","283,9","26,6","62,6","108,6","6,86"],
    [7709,"2014-12-17T15:00:00","ND","6","44,35","2,2","327,2","26,9","61,4","209,1","0"],
    [7710,"2014-12-17T16:00:00","ND","16","46,17","3,9","56,5","28,6","52,3","219,8","0"],
    [7711,"2014-12-17T17:00:00","ND","ND","47,86","4,8","310,7","27,9","49","22,7","0"],
    [7712,"2014-12-17T18:00:00","ND","12","27,36","1,3","14,8","26,1","59,9","0","0"],
    [7713,"2014-12-17T19:00:00","ND","26","18,54","3","152,9","24,5","72","0","0"],
    [7714,"2014-12-17T20:00:00","ND","28","18,96","3,5","226,3","24,1","71,2","0","0"],
    [7715,"2014-12-17T21:00:00","ND","23","20,23","2,9","178,5","23,7","71,9","0","0"],
    [7716,"2014-12-17T22:00:00","ND","19","18,7","2,7","173,7","22,9","76,3","0","0"],
    [7717,"2014-12-17T23:00:00","ND","27","13,66","1,5","105,7","22,5","79,6","0","0"],
    [7718,"2014-12-18T00:00:00","ND","20","14,34","2,1","69,5","22,3","82,3","0","0"],
    [7719,"2014-12-18T01:00:00","ND","19","15,93","1,9","129,7","22","83,5","0","0"],
    [7720,"2014-12-18T02:00:00","ND","19","19,47","0,4","73,1","21,8","83,9","0","0"],
    [7721,"2014-12-18T03:00:00","ND","13","13,17","1,2","101,4","21,5","86,1","0","0"],
    [7722,"2014-12-18T04:00:00","ND","28","14,38","2,3","113,8","21,6","85,5","0","0"],
    [7723,"2014-12-18T05:00:00","ND","23","11,95","1,2","99,6","21,2","87,1","0","0"],
    [7724,"2014-12-18T06:00:00","ND","53","12,95","1,5","135,8","21,1","87,5","0","0"],
    [7725,"2014-12-18T07:00:00","ND","54","13,64","0,8","201,5","20,9","88,7","11","0"],
    [7726,"2014-12-18T08:00:00","ND","39","16,86","0,4","39,8","21,9","86","96,1","0"],
    [7727,"2014-12-18T09:00:00","ND","ND","24,88","3,9","77,9","23,3","79,3","148,5","0"],
    [7728,"2014-12-18T10:00:00","ND","23","42,5","2,6","101,5","24,7","70,5","239,1","0"],
    [7729,"2014-12-18T11:00:00","ND","13","69,27","1","184,7","26,4","62,2","381,8","0"],
    [7730,"2014-12-18T12:00:00","ND","14","82,79","3,4","113,2","27,5","56,6","375,3","0"],
    [7731,"2014-12-18T13:00:00","ND","17","98,41","2,6","65","28,3","52,2","364,5","0"],
    [7732,"2014-12-18T14:00:00","ND","25","108,97","2,9","49","29,3","49,3","357,2","0"],
    [7733,"2014-12-18T15:00:00","ND","19","115,05","4,1","53,4","29,9","48,4","309,6","0"],
    [7734,"2014-12-18T16:00:00","ND","23","89,99","5,4","44,4","29,9","48,8","104","0"],
    [7735,"2014-12-18T17:00:00","ND","19","51,94","3,3","34,7","29,3","49,5","44,2","0"],
    [7736,"2014-12-18T18:00:00","ND","11","46,45","1,3","317,3","28,3","51,3","9,8","0"],
    [7737,"2014-12-18T19:00:00","ND","17","39,05","3,7","302,6","27","52,9","0","0"],
    [7738,"2014-12-18T20:00:00","ND","53","30,34","1,7","74","26","60,3","0","0"],
    [7739,"2014-12-18T21:00:00","ND","20","29,38","2,4","109,2","25","66,2","0","0"],
    [7740,"2014-12-18T22:00:00","ND","13","29,49","2,1","80,6","23,9","72","0","0"],
    [7741,"2014-12-18T23:00:00","ND","19","29,47","2,5","340,3","23,7","73,3","0","0"],
    [7742,"2014-12-19T00:00:00","ND","19","30,48","2,1","79,8","23,5","73","0","0"],
    [7743,"2014-12-19T01:00:00","ND","11","30","2","137,5","22,5","78","0","0"],
    [7744,"2014-12-19T02:00:00","ND","17","20,7","2","208,4","22,1","80,3","0","0"],
    [7745,"2014-12-19T03:00:00","ND","15","11,42","0,3","212,4","22,2","80,9","0","0"],
    [7746,"2014-12-19T04:00:00","ND","14","11,22","1,6","101,2","21,7","82,8","0","0"],
    [7747,"2014-12-19T05:00:00","ND","13","12,13","0,7","316,9","21,8","81,8","0","0"],
    [7748,"2014-12-19T06:00:00","ND","23","12,28","1,1","223","22,1","80,8","0","0"],
    [7749,"2014-12-19T07:00:00","ND","29","12,32","2,2","142,3","21,6","84,6","4,1","0"],
    [7750,"2014-12-19T08:00:00","ND","39","12,87","1,8","122,8","22,2","83,5","42,9","0"],
    [7751,"2014-12-19T09:00:00","ND","27","26,61","3,7","229,4","23,4","77,1","220,4","0"],
    [7752,"2014-12-19T10:00:00","ND","21","45,68","3,5","202,6","25,3","68","310,4","0"],
    [7753,"2014-12-19T11:00:00","ND","20","72,88","2,4","143,7","26,8","62,6","373,6","0"],
    [7754,"2014-12-19T12:00:00","ND","20","89,03","3,1","96,9","28,3","56,1","430,4","0"],
    [7755,"2014-12-19T13:00:00","ND","14","108,19","3,5","59,1","29,4","51,4","415,8","0"],
    [7756,"2014-12-19T14:00:00","ND","30","134,8","4,2","17,2","30,1","49","252,7","0"],
    [7757,"2014-12-19T15:00:00","ND","12","99,85","4,7","5,9","30,4","46,7","264,8","0"],
    [7758,"2014-12-19T16:00:00","ND","9","72,39","6,5","289,1","30,7","42,8","260,7","0"],
    [7759,"2014-12-19T17:00:00","ND","9","59,46","6,1","293,3","29,7","44,5","97","0"],
    [7760,"2014-12-19T18:00:00","ND","9","40,7","5,3","307","28,4","48","23,8","0"],
    [7761,"2014-12-19T19:00:00","ND","5","29,34","4,1","308,6","27,6","50","0","0"],
    [7762,"2014-12-19T20:00:00","ND","22","20,41","3,5","83,4","25,6","62,5","0","0"],
    [7763,"2014-12-19T21:00:00","ND","20","23,51","2,3","90,7","24,5","66,8","0","0"],
    [7764,"2014-12-19T22:00:00","ND","8","30,55","3,2","262,8","25,4","60,5","0","0"],
    [7765,"2014-12-19T23:00:00","ND","9","24,14","2,5","92,7","23,3","72,6","0","0"],
    [7766,"2014-12-20T00:00:00","ND","26","26,92","0,7","357,6","23,6","71,1","0","0"],
    [7767,"2014-12-20T01:00:00","ND","14","25,86","0,3","258,6","23,8","70,1","0","0"],
    [7768,"2014-12-20T02:00:00","ND","11","21,98","3,1","120,3","22,8","76,1","0","0"],
    [7769,"2014-12-20T03:00:00","ND","13","18,03","0,9","260,7","22,3","79,2","0","0"],
    [7770,"2014-12-20T04:00:00","ND","25","17,39","1,7","84,4","21,9","80,8","0","0"],
    [7771,"2014-12-20T05:00:00","ND","17","20,19","2,1","189,7","22,3","78,7","0","0"],
    [7772,"2014-12-20T06:00:00","ND","25","20,9","1,2","128,1","21,5","81,2","0","0"],
    [7773,"2014-12-20T07:00:00","ND","45","21,94","0,8","346,4","21,6","81,4","11,1","0"],
    [7774,"2014-12-20T08:00:00","ND","40","20,02","0,8","150,5","22,8","77,7","68,9","0"],
    [7775,"2014-12-20T09:00:00","ND","38","27,14","2,1","108","24,1","72,9","157,7","0"],
    [7776,"2014-12-20T10:00:00","ND","22","46,7","3,5","151,4","25,6","66,1","272,3","0"],
    [7777,"2014-12-20T11:00:00","ND","19","66,41","2","153,9","26,9","61,2","367,2","0"],
    [7778,"2014-12-20T12:00:00","ND","20","91,72","2,7","87,7","28,3","54,8","397,4","0"],
    [7779,"2014-12-20T13:00:00","ND","21","111,36","3,4","79,2","29,3","48,9","424,7","0"],
    [7780,"2014-12-20T14:00:00","ND","23","120,82","3,8","27","30,5","45","356","0"],
    [7781,"2014-12-20T15:00:00","ND","16","80,59","5,6","324","30","46,9","290,2","0"],
    [7782,"2014-12-20T16:00:00","ND","23","64,54","5,7","349,3","30","45,2","207,8","0"],
    [7783,"2014-12-20T17:00:00","ND","17","59,2","4,6","347","29,3","45,9","78,8","0"],
    [7784,"2014-12-20T18:00:00","ND","19","51,02","3","302,4","28","48,8","6,2","0"],
    [7785,"2014-12-20T19:00:00","ND","20","40,46","0,5","2,8","26,5","56,4","0","0"],
    [7786,"2014-12-20T20:00:00","ND","34","32,97","1,3","143,4","25,6","62,3","0","0"],
    [7787,"2014-12-20T21:00:00","ND","27","36,44","4,2","199,2","24,7","68,2","0","0"],
    [7788,"2014-12-20T22:00:00","ND","20","51,63","4,3","185,2","24","72,8","0","0"],
    [7789,"2014-12-20T23:00:00","ND","14","50,18","4,3","187,4","23,7","72,8","0","0"],
    [7790,"2014-12-21T00:00:00","ND","19","48,88","2,9","190,7","23,3","73,7","0","0"],
    [7791,"2014-12-21T01:00:00","ND","20","39,76","2,1","186,5","22,6","77,3","0","0"],
    [7792,"2014-12-21T02:00:00","ND","25","30,83","0,6","201,3","22,7","77,5","0","0"],
    [7793,"2014-12-21T03:00:00","ND","25","29,61","2,2","82,2","22","80,1","0","0"],
    [7794,"2014-12-21T04:00:00","ND","24","30,44","1,1","104,4","21,8","81","0","0"],
    [7795,"2014-12-21T05:00:00","ND","21","31,55","1,6","146,2","21,8","80,6","0","0"],
    [7796,"2014-12-21T06:00:00","ND","17","31,04","1,7","195,6","21,4","82,3","0","0"],
    [7797,"2014-12-21T07:00:00","ND","30","32,34","2,4","239,5","21,8","80,3","4,3","0"],
    [7798,"2014-12-21T08:00:00","ND","32","35,75","1,5","186,2","22,9","75,5","44,6","0"],
    [7799,"2014-12-21T09:00:00","ND","16","47,67","0,9","194,4","23,9","71,7","146,1","0"],
    [7800,"2014-12-21T10:00:00","ND","22","65,05","2,3","57,4","25,3","65","262,3","0"],
    [7801,"2014-12-21T11:00:00","ND","21","84,46","2,7","93,9","26,5","61,4","319,8","0"],
    [7802,"2014-12-21T12:00:00","ND","26","103","2,9","107,4","27,9","55,8","437,9","0"],
    [7803,"2014-12-21T13:00:00","ND","29","116,56","3,1","107,5","29","51,1","421,9","0"],
    [7804,"2014-12-21T14:00:00","ND","36","131,99","2,5","78,3","29,6","49,5","258,2","0"],
    [7805,"2014-12-21T15:00:00","ND","27","129,87","4,3","355","30,3","47","304,6","0"],
    [7806,"2014-12-21T16:00:00","ND","17","82,03","5,8","316","29,6","48,1","175,2","0"],
    [7807,"2014-12-21T17:00:00","ND","27","67,09","4,4","352,5","29,2","48,6","57,9","0"],
    [7808,"2014-12-21T18:00:00","ND","17","58,52","4,8","308,1","28","50,3","4,8","0"],
    [7809,"2014-12-21T19:00:00","ND","14","50,1","3,3","302,9","27,2","53","0","0"],
    [7810,"2014-12-21T20:00:00","ND","17","57,69","3,3","179,3","25,9","62,5","0","0"],
    [7811,"2014-12-21T21:00:00","ND","27","74,14","5,6","209,4","23,8","74,2","0","0"],
    [7812,"2014-12-21T22:00:00","ND","29","67,8","4,7","221,9","23,3","76,6","0","0"],
    [7813,"2014-12-21T23:00:00","ND","22","53,36","2,4","187","23,1","77,8","0","0"],
    [7814,"2014-12-22T00:00:00","ND","20","47,84","2,4","88,8","22,7","79,7","0","0"],
    [7815,"2014-12-22T01:00:00","ND","25","54,12","2,4","96,4","22,5","81,5","0","0"],
    [7816,"2014-12-22T02:00:00","ND","28","42,01","3","105,9","22,1","84,4","0","0"],
    [7817,"2014-12-22T03:00:00","ND","28","39,21","1,9","106,1","21,9","85,8","0","0"],
    [7818,"2014-12-22T04:00:00","ND","23","42,41","1,1","141,1","21,9","85,5","0","0"],
    [7819,"2014-12-22T05:00:00","ND","29","35,19","2,3","114,6","21,6","86,7","0","0"],
    [7820,"2014-12-22T06:00:00","ND","18","38,4","1,7","198,9","21,8","86,2","0","0"],
    [7821,"2014-12-22T07:00:00","ND","25","39,29","0,7","183,9","21,7","86,6","7,6","0"],
    [7822,"2014-12-22T08:00:00","ND","35","38,01","2,7","95,7","22,3","85,4","35,1","0"],
    [7823,"2014-12-22T09:00:00","ND","54","53,44","0,3","111,4","23,1","81,8","125,4","0"],
    [7824,"2014-12-22T10:00:00","ND","36","86,66","0,7","295,8","24,9","70,9","253,4","0"],
    [7825,"2014-12-22T11:00:00","ND","24","99,57","2,2","155,5","26,9","61,2","398","0"],
    [7826,"2014-12-22T12:00:00","ND","20","108,68","2","117,8","28,1","55,3","447,9","0"],
    [7827,"2014-12-22T13:00:00","ND","22","ND","3,5","90,7","29,2","49,7","402,6","0"],
    [7828,"2014-12-22T14:00:00","ND","20","ND","3,4","90,6","30,2","46,4","366,2","0"],
    [7829,"2014-12-22T15:00:00","ND","23","ND","3,3","62,6","30,7","44","264,2","0"],
    [7830,"2014-12-22T16:00:00","ND","25","ND","3,2","79,1","31","42,3","227,4","0"],
    [7831,"2014-12-22T17:00:00","ND","34","ND","3,4","86,4","30,8","43,2","85,9","0"],
    [7832,"2014-12-22T18:00:00","ND","25","ND","3,1","313,9","29,8","49,6","19,8","0"],
    [7833,"2014-12-22T19:00:00","ND","17","ND","4,6","291,5","28,3","52,6","0","0"],
    [7834,"2014-12-22T20:00:00","ND","17","ND","3,3","303,3","27,5","55,3","0","0"],
    [7835,"2014-12-22T21:00:00","ND","20","ND","4,5","86,6","25","69,3","0","0"],
    [7836,"2014-12-22T22:00:00","ND","22","ND","3,6","54,4","24,1","73","0","0"],
    [7837,"2014-12-22T23:00:00","ND","21","ND","2,3","54,5","24,5","70,7","0","0"],
    [7838,"2014-12-23T00:00:00","ND","10","ND","2,8","72,4","23,6","75,3","0","0"],
    [7839,"2014-12-23T01:00:00","ND","23","ND","1,9","36,1","23,1","76,8","0","0"],
    [7840,"2014-12-23T02:00:00","ND","13","ND","1,2","70","23","76","0","0"],
    [7841,"2014-12-23T03:00:00","ND","10","ND","1,6","163,8","23,1","74,6","0","0"],
    [7842,"2014-12-23T04:00:00","ND","9","ND","1,2","175,9","23,2","74,4","0","0"],
    [7843,"2014-12-23T05:00:00","ND","28","ND","1,3","151,2","22,5","80","0","0"],
    [7844,"2014-12-23T06:00:00","ND","38","ND","1,6","159,9","22,5","80,5","0","0"],
    [7845,"2014-12-23T07:00:00","ND","38","ND","2","154,5","22,1","82,7","7,8","0"],
    [7846,"2014-12-23T08:00:00","ND","27","ND","1,9","141,2","22,7","80,9","79,1","0"],
    [7847,"2014-12-23T09:00:00","ND","23","ND","3,7","145,1","24,3","72","226,4","0"],
    [7848,"2014-12-23T10:00:00","ND","19","ND","2,5","132,5","26","63,1","306,3","0"],
    [7849,"2014-12-23T11:00:00","ND","19","ND","1,9","125,2","27,4","58,7","344,5","0"],
    [7850,"2014-12-23T12:00:00","ND","18","ND","2,5","85,5","28,6","53,3","450,6","0"],
    [7851,"2014-12-23T13:00:00","ND","24","ND","3,3","98,3","29,6","49,2","428,3","0"],
    [7852,"2014-12-23T14:00:00","ND","26","ND","3,7","69,8","30,5","44,2","342,9","0"],
    [7853,"2014-12-23T15:00:00","ND","25","ND","3,1","65,9","31,3","41,4","294,2","0"],
    [7854,"2014-12-23T16:00:00","ND","27","ND","3,9","19,3","31,3","43,3","143,3","0"],
    [7855,"2014-12-23T17:00:00","ND","17","ND","4,2","346,5","30,9","43,5","108,9","0"],
    [7856,"2014-12-23T18:00:00","ND","17","ND","4,5","317,2","29,8","46,1","21,2","0"],
    [7857,"2014-12-23T19:00:00","ND","20","ND","4,7","292,9","28,2","49,8","0","0"],
    [7858,"2014-12-23T20:00:00","ND","28","ND","5,5","301,7","27,6","52","0","0"],
    [7859,"2014-12-23T21:00:00","ND","16","ND","4","94,7","24,6","68,3","0","0"],
    [7860,"2014-12-23T22:00:00","ND","17","ND","2,6","69,1","24,1","71","0","0"],
    [7861,"2014-12-23T23:00:00","ND","20","ND","1,5","156,2","23,9","72,3","0","0"],
    [7862,"2014-12-24T00:00:00","ND","11","ND","2","40","23,7","72,4","0","0"],
    [7863,"2014-12-24T01:00:00","ND","10","ND","1,1","49,3","23,3","74,1","0","0"],
    [7864,"2014-12-24T02:00:00","ND","13","ND","1,6","213,8","23,2","74,8","0","0"],
    [7865,"2014-12-24T03:00:00","ND","13","ND","1,8","109,3","22,4","78,3","0","0"],
    [7866,"2014-12-24T04:00:00","ND","13","ND","2,3","159,7","22","80,7","0","0"],
    [7867,"2014-12-24T05:00:00","ND","18","ND","1,8","142,4","21,5","82,8","0","0"],
    [7868,"2014-12-24T06:00:00","ND","17","ND","1,1","174,3","21,7","81,8","0","0"],
    [7869,"2014-12-24T07:00:00","ND","38","ND","1,7","149,6","21,7","81,9","13","0"],
    [7870,"2014-12-24T08:00:00","ND","26","ND","2,3","164,6","22,6","79,2","105,6","0"],
    [7871,"2014-12-24T09:00:00","ND","24","ND","3,2","188,1","24,4","71,6","214,7","0"],
    [7872,"2014-12-24T10:00:00","ND","15","ND","2,6","167,5","26","64,1","312,6","0"],
    [7873,"2014-12-24T11:00:00","ND","ND","ND","2,1","75,1","27,6","57,8","374,9","0"],
    [7874,"2014-12-24T12:00:00","ND","10","ND","3,4","61,9","28,8","54,2","374,8","0"],
    [7875,"2014-12-24T13:00:00","ND","18","ND","4,1","68,4","30","49,9","321,3","0"],
    [7876,"2014-12-24T14:00:00","ND","16","ND","2,7","9","30,4","47,5","279,6","0"],
    [7877,"2014-12-24T15:00:00","ND","11","ND","3,1","358,9","30,8","43,6","249,8","0"],
    [7878,"2014-12-24T16:00:00","ND","9","ND","3,4","355,8","30,7","43","107,9","0"],
    [7879,"2014-12-24T17:00:00","ND","12","ND","6,2","285,1","30,2","43,7","95,5","0"],
    [7880,"2014-12-24T18:00:00","ND","8","ND","5,6","289,1","29,5","45,1","32","0"],
    [7881,"2014-12-24T19:00:00","ND","14","ND","5","296,7","28,2","47","0","0"],
    [7882,"2014-12-24T20:00:00","ND","18","ND","2,5","342","27,4","51,2","0","0"],
    [7883,"2014-12-24T21:00:00","ND","26","ND","3,3","85,2","25,2","64","0","0"],
    [7884,"2014-12-24T22:00:00","ND","22","ND","3","61,8","24,8","67,5","0","0"],
    [7885,"2014-12-24T23:00:00","ND","34","ND","2","99,8","24,7","68,4","0","0"],
    [7886,"2014-12-25T00:00:00","ND","20","ND","2,1","167,2","24,1","71,3","0","0"],
    [7887,"2014-12-25T01:00:00","ND","25","ND","1,4","119,8","23,9","72,7","0","0"],
    [7888,"2014-12-25T02:00:00","ND","33","ND","1,5","184,9","23,8","73","0","0"],
    [7889,"2014-12-25T03:00:00","ND","27","ND","2,1","217,3","23,7","73,8","0","0"],
    [7890,"2014-12-25T04:00:00","ND","20","ND","1,9","121,8","23,2","76,7","0","0"],
    [7891,"2014-12-25T05:00:00","ND","19","ND","1,6","160,5","23,2","76,7","0","0"],
    [7892,"2014-12-25T06:00:00","ND","16","ND","1,2","184","23,2","76,8","0","0"],
    [7893,"2014-12-25T07:00:00","ND","19","ND","1,9","154,8","22,7","79,7","4,8","0"],
    [7894,"2014-12-25T08:00:00","ND","12","ND","0,7","174,4","23,2","78,9","81,9","0"],
    [7895,"2014-12-25T09:00:00","ND","23","ND","2,2","134,2","25,1","69,5","154,7","0"],
    [7896,"2014-12-25T10:00:00","ND","17","ND","3,1","81,6","26,6","63,4","328,1","0"],
    [7897,"2014-12-25T11:00:00","ND","9","ND","3,3","74,6","27,4","60,1","289,3","0"],
    [7898,"2014-12-25T12:00:00","ND","8","ND","2,5","93,9","28,3","57,9","368,6","0"],
    [7899,"2014-12-25T13:00:00","ND","11","ND","3,9","105,6","29,4","53,6","331,7","0"],
    [7900,"2014-12-25T14:00:00","ND","13","ND","2,6","96,4","29,7","51,9","250,7","0"],
    [7901,"2014-12-25T15:00:00","ND","12","ND","3,2","36,1","29,9","50,4","113,6","0"],
    [7902,"2014-12-25T16:00:00","ND","8","ND","2","326,2","29,9","49,2","148,1","0"],
    [7903,"2014-12-25T17:00:00","ND","5","ND","2,8","303,2","29,8","47,1","51,6","0"],
    [7904,"2014-12-25T18:00:00","ND","ND","ND","5,2","291,2","28,6","49,4","7","0"],
    [7905,"2014-12-25T19:00:00","ND","18","ND","1","60,4","27,4","56,1","0","0"],
    [7906,"2014-12-25T20:00:00","ND","22","ND","3,3","84,2","25,7","64,4","0","0"],
    [7907,"2014-12-25T21:00:00","ND","9","ND","3,3","86,7","24,5","69,5","0","0"],
    [7908,"2014-12-25T22:00:00","ND","12","ND","2,4","70,9","24,1","71,6","0","0"],
    [7909,"2014-12-25T23:00:00","ND","20","ND","2,1","120,2","23,8","73,2","0","0"],
    [7910,"2014-12-26T00:00:00","ND","16","ND","2,2","163,8","23,3","75,9","0","0"],
    [7911,"2014-12-26T01:00:00","ND","10","ND","2,8","203,1","23,3","78,5","0","0"],
    [7912,"2014-12-26T02:00:00","ND","17","ND","2,3","194,8","23,4","78,9","0","0"],
    [7913,"2014-12-26T03:00:00","ND","12","ND","2,4","180,6","23,5","78,9","0","0"],
    [7914,"2014-12-26T04:00:00","ND","13","ND","2,4","183,4","22,5","83,5","0","0"],
    [7915,"2014-12-26T05:00:00","ND","10","ND","2,2","175,1","22,5","83,5","0","0"],
    [7916,"2014-12-26T06:00:00","ND","14","ND","1,6","161,3","22,8","80,9","0","0"],
    [7917,"2014-12-26T07:00:00","ND","24","ND","1,1","156,5","23","79,2","7,8","0"],
    [7918,"2014-12-26T08:00:00","ND","22","ND","1,9","151,2","23,8","75,2","58,3","0"],
    [7919,"2014-12-26T09:00:00","ND","36","ND","3,3","99,8","24,3","73,9","131,5","0"],
    [7920,"2014-12-26T10:00:00","ND","17","ND","2,8","75,1","25,6","67,6","272,3","0"],
    [7921,"2014-12-26T11:00:00","ND","11","ND","2,2","104,2","27,3","59,4","388,1","0"],
    [7922,"2014-12-26T12:00:00","ND","10","ND","3,1","78,3","29","53,5","439,2","0"],
    [7923,"2014-12-26T13:00:00","ND","17","ND","3,6","70,6","30","49,7","379","0"],
    [7924,"2014-12-26T14:00:00","ND","19","ND","3,1","28,1","30,7","46,6","282,4","0"],
    [7925,"2014-12-26T15:00:00","ND","16","ND","5,1","9,2","31,3","44,9","241,6","0"],
    [7926,"2014-12-26T16:00:00","ND","10","ND","4,1","346,8","30,7","44,8","103,8","0"],
    [7927,"2014-12-26T17:00:00","ND","7","ND","6,8","287,6","30,3","44,8","87,5","0"],
    [7928,"2014-12-26T18:00:00","ND","7","ND","5,3","298,7","29,3","47,2","8,9","0"],
    [7929,"2014-12-26T19:00:00","ND","20","ND","2,2","36,4","28,1","54,3","0","0"],
    [7930,"2014-12-26T20:00:00","ND","29","ND","2,2","107,1","26,9","59,9","0","0"],
    [7931,"2014-12-26T21:00:00","ND","17","ND","2,6","85,5","26,1","63,5","0","0"],
    [7932,"2014-12-26T22:00:00","ND","12","ND","2,6","97,8","24,9","69,6","0","0"],
    [7933,"2014-12-26T23:00:00","ND","9","ND","3,1","96,2","24,6","71,5","0","0"],
    [7934,"2014-12-27T00:00:00","ND","10","ND","0,7","124,7","24,8","70,4","0","0"],
    [7935,"2014-12-27T01:00:00","ND","21","ND","2,2","161,1","24,5","72,2","0","0"],
    [7936,"2014-12-27T02:00:00","ND","23","ND","3","198,7","23,7","77","0","0"],
    [7937,"2014-12-27T03:00:00","ND","26","ND","1,9","173,3","23,5","77,2","0","0"],
    [7938,"2014-12-27T04:00:00","ND","19","ND","2,1","192,2","23,5","77,7","0","0"],
    [7939,"2014-12-27T05:00:00","ND","23","ND","1,5","136","23,1","80,4","0","0"],
    [7940,"2014-12-27T06:00:00","ND","31","ND","1,8","110,3","22,7","82,1","0","0"],
    [7941,"2014-12-27T07:00:00","ND","27","ND","1,7","148,8","22,6","82,6","0","0"],
    [7942,"2014-12-27T08:00:00","ND","28","ND","1,8","179,1","22,8","81,5","44,8","0"],
    [7943,"2014-12-27T09:00:00","ND","23","ND","0,1","195,1","23,8","76,9","108,4","0"],
    [7944,"2014-12-27T10:00:00","ND","34","ND","2,6","84,1","25,6","69","186,1","0"],
    [7945,"2014-12-27T11:00:00","ND","24","ND","1,6","116","27,3","59,4","380,4","0"],
    [7946,"2014-12-27T12:00:00","ND","24","ND","1","72,5","29,1","53","418","0"],
    [7947,"2014-12-27T13:00:00","ND","29","ND","3,4","87,5","30,1","49,4","376,9","0"],
    [7948,"2014-12-27T14:00:00","ND","25","ND","3,5","42,9","31,2","45,7","354,8","0"],
    [7949,"2014-12-27T15:00:00","ND","23","ND","2,9","57,2","31,3","43,8","235,6","0"],
    [7950,"2014-12-27T16:00:00","ND","20","ND","2,4","43,8","31","45,5","67,1","0"],
    [7951,"2014-12-27T17:00:00","ND","9","ND","4,9","294,2","30,8","43,8","60,1","0"],
    [7952,"2014-12-27T18:00:00","ND","12","ND","6,1","294,6","29,7","45,6","22,3","0"],
    [7953,"2014-12-27T19:00:00","ND","11","ND","5,3","305,4","28,5","49,4","0","0"],
    [7954,"2014-12-27T20:00:00","ND","12","ND","3,2","322,1","27,8","53,6","0","0"],
    [7955,"2014-12-27T21:00:00","ND","33","ND","3,6","77,4","26,2","62,6","0","0"],
    [7956,"2014-12-27T22:00:00","ND","27","ND","3,1","84,4","25","69,2","0","0"],
    [7957,"2014-12-27T23:00:00","ND","16","ND","2,5","97,9","24,9","70,2","0","0"],
    [7958,"2014-12-28T00:00:00","ND","32","ND","1,7","143,2","24,6","72","0","0"],
    [7959,"2014-12-28T01:00:00","ND","27","ND","1,9","161,9","24,3","73,2","0","0"],
    [7960,"2014-12-28T02:00:00","ND","22","ND","1,6","128,9","23,5","76,9","0","0"],
    [7961,"2014-12-28T03:00:00","ND","22","ND","2,4","101,3","23,6","76,5","0","0"],
    [7962,"2014-12-28T04:00:00","ND","15","ND","1,1","153,3","23,4","78","0","0"],
    [7963,"2014-12-28T05:00:00","ND","13","ND","1,8","176,2","23,5","76,8","0","0"],
    [7964,"2014-12-28T06:00:00","ND","18","ND","2,4","114,5","23,2","79,3","0","0"],
    [7965,"2014-12-28T07:00:00","ND","28","ND","2,4","98,9","23,1","79,5","0","0"],
    [7966,"2014-12-28T08:00:00","ND","30","ND","0,5","93,3","23,5","77,6","46,8","0"],
    [7967,"2014-12-28T09:00:00","ND","36","ND","2,4","108,8","24,7","72,4","95,3","0"],
    [7968,"2014-12-28T10:00:00","ND","25","ND","0,9","107,7","26","66,7","255,4","0"],
    [7969,"2014-12-28T11:00:00","ND","26","ND","2","193,9","28","58,6","376,9","0"],
    [7970,"2014-12-28T12:00:00","ND","22","ND","1,7","123,1","29,3","53","416,5","0"],
    [7971,"2014-12-28T13:00:00","ND","14","ND","2","112,8","30,7","46,5","443,4","0"],
    [7972,"2014-12-28T14:00:00","ND","16","ND","2,2","36,7","31,1","43,9","285,4","0"],
    [7973,"2014-12-28T15:00:00","ND","18","ND","3","350,2","31,1","44,1","176,5","0"],
    [7974,"2014-12-28T16:00:00","ND","15","ND","3,2","22","31,7","41,8","190,7","0"],
    [7975,"2014-12-28T17:00:00","ND","10","ND","2,8","351,5","31,6","40,7","136,2","0"],
    [7976,"2014-12-28T18:00:00","ND","10","ND","5,8","285,7","30,2","44,3","26,3","0"],
    [7977,"2014-12-28T19:00:00","ND","12","ND","5","302,2","28,7","48,6","0","0"],
    [7978,"2014-12-28T20:00:00","ND","14","ND","1,8","259,9","28","52,6","0","0"],
    [7979,"2014-12-28T21:00:00","ND","20","ND","0,8","180,4","27,2","56,9","0","0"],
    [7980,"2014-12-28T22:00:00","ND","16","ND","3,1","199,1","26,1","62,5","0","0"],
    [7981,"2014-12-28T23:00:00","ND","19","ND","2,1","170","25,4","65,7","0","0"],
    [7982,"2014-12-29T00:00:00","ND","21","ND","2,7","159,5","25,3","66,7","0","0"],
    [7983,"2014-12-29T01:00:00","ND","16","ND","2,9","135","24,3","71,4","0","0"],
    [7984,"2014-12-29T02:00:00","ND","17","ND","2","138,9","24","72,6","0","0"],
    [7985,"2014-12-29T03:00:00","ND","25","ND","2,5","93,1","23,2","77,3","0","0"],
    [7986,"2014-12-29T04:00:00","ND","21","ND","2,2","118,8","22,8","78,5","0","0"],
    [7987,"2014-12-29T05:00:00","ND","14","ND","1,4","166","22,7","78,8","0","0"],
    [7988,"2014-12-29T06:00:00","ND","19","ND","1,5","142,8","22,5","80,1","0","0"],
    [7989,"2014-12-29T07:00:00","ND","27","ND","1,3","180","22,8","79,5","17,4","0"],
    [7990,"2014-12-29T08:00:00","ND","30","ND","1,8","130,7","23,7","75,5","67,2","0"],
    [7991,"2014-12-29T09:00:00","ND","29","ND","2","107,3","24,6","71,6","123,2","0"],
    [7992,"2014-12-29T10:00:00","ND","33","ND","2,8","97,5","25,9","67","272","0"],
    [7993,"2014-12-29T11:00:00","ND","40","ND","2","109,9","27,2","62,1","384,5","0"],
    [7994,"2014-12-29T12:00:00","ND","28","ND","2,9","99,5","29","54,3","433,2","0"],
    [7995,"2014-12-29T13:00:00","ND","28","ND","3,4","84,1","30,2","46,8","392","0"],
    [7996,"2014-12-29T14:00:00","ND","27","ND","3,5","84,6","31,3","41,8","384","0"],
    [7997,"2014-12-29T15:00:00","ND","36","ND","3,1","60,1","31,8","39,2","271,5","0"],
    [7998,"2014-12-29T16:00:00","ND","26","ND","4,2","2","31,9","39,2","140,6","0"],
    [7999,"2014-12-29T17:00:00","ND","12","ND","6,5","303,2","31","42,2","116,2","0"],
    [8000,"2014-12-29T18:00:00","ND","12","ND","6,4","303,8","29,5","46,5","16,7","0"],
    [8001,"2014-12-29T19:00:00","ND","9","ND","6","298,9","28,2","51,4","0","0"],
    [8002,"2014-12-29T20:00:00","ND","23","ND","1,7","92,7","27","57,2","0","0"],
    [8003,"2014-12-29T21:00:00","ND","32","ND","2,5","135,4","26,1","61,9","0","0"],
    [8004,"2014-12-29T22:00:00","ND","23","ND","2,2","173,7","25,7","63,5","0","0"],
    [8005,"2014-12-29T23:00:00","ND","15","ND","2,8","172,8","25,7","61,4","0","0"],
    [8006,"2014-12-30T00:00:00","ND","17","ND","2","150,7","24,4","68,1","0","0"],
    [8007,"2014-12-30T01:00:00","ND","17","ND","2","107,8","23,6","71,8","0","0"],
    [8008,"2014-12-30T02:00:00","ND","9","ND","1,7","122,9","23,1","73,8","0","0"],
    [8009,"2014-12-30T03:00:00","ND","15","ND","2,2","136,8","22,9","75,4","0","0"],
    [8010,"2014-12-30T04:00:00","ND","9","ND","0,8","144,4","22,9","75,8","0","0"],
    [8011,"2014-12-30T05:00:00","ND","16","ND","2","152,5","22,5","78,2","0","0"],
    [8012,"2014-12-30T06:00:00","ND","17","ND","1,7","114,8","22,5","78,8","0","0"],
    [8013,"2014-12-30T07:00:00","ND","15","ND","2","178","22,3","79,7","9,3","0"],
    [8014,"2014-12-30T08:00:00","ND","25","ND","2","196,6","23,4","75,4","78,2","0"],
    [8015,"2014-12-30T09:00:00","ND","15","ND","3,3","199","25,2","67,1","197","0"],
    [8016,"2014-12-30T10:00:00","ND","21","ND","4","176,2","26,6","63,2","274,5","0"],
    [8017,"2014-12-30T11:00:00","ND","18","ND","2,4","165,7","27,6","57,8","399,7","0"],
    [8018,"2014-12-30T12:00:00","ND","20","ND","2","159,9","29,3","50,8","454","0"],
    [8019,"2014-12-30T13:00:00","ND","12","ND","1,7","81,9","30,1","46,4","359,9","0"],
    [8020,"2014-12-30T14:00:00","ND","18","ND","2,3","359,1","31","42,1","395","0"],
    [8021,"2014-12-30T15:00:00","ND","16","ND","2,5","101,7","31,7","39,6","311,3","0"],
    [8022,"2014-12-30T16:00:00","ND","21","ND","3,8","75,3","32,1","38,5","199,9","0"],
    [8023,"2014-12-30T17:00:00","ND","25","ND","4,2","70,7","31,4","41,5","57,5","0"],
    [8024,"2014-12-30T18:00:00","ND","19","ND","4","344,9","30,5","45,3","26","0"],
    [8025,"2014-12-30T19:00:00","ND","16","ND","5,2","298,3","28,8","48,9","0","0"],
    [8026,"2014-12-30T20:00:00","ND","11","ND","4,7","305,8","28,1","51","0","0"],
    [8027,"2014-12-30T21:00:00","ND","24","ND","3,6","77,7","25,6","64","0","0"],
    [8028,"2014-12-30T22:00:00","ND","21","ND","3,2","88,5","24,4","69,8","0","0"],
    [8029,"2014-12-30T23:00:00","ND","29","ND","2,2","77,9","24,2","70,2","0","0"],
    [8030,"2014-12-31T00:00:00","ND","13","ND","1,4","144,8","24,1","70,9","0","0"],
    [8031,"2014-12-31T01:00:00","ND","17","ND","1,4","198,7","23,4","74,6","0","0"],
    [8032,"2014-12-31T02:00:00","ND","16","ND","2,2","154,5","23,2","75,5","0","0"],
    [8033,"2014-12-31T03:00:00","ND","13","ND","1,9","119,9","22,4","79,1","0","0"],
    [8034,"2014-12-31T04:00:00","ND","22","ND","2","198,6","22,7","77,4","0","0"],
    [8035,"2014-12-31T05:00:00","ND","21","ND","1,9","92,5","22,2","79,5","0","0"],
    [8036,"2014-12-31T06:00:00","ND","36","ND","2","83","22,2","79,4","0","0"],
    [8037,"2014-12-31T07:00:00","ND","25","ND","0,5","162,3","22,5","77,8","6,2","0"],
    [8038,"2014-12-31T08:00:00","ND","32","ND","1,7","174,7","23,4","74,9","72,9","0"],
    [8039,"2014-12-31T09:00:00","ND","32","ND","2,8","153,6","24,3","71,7","155,1","0"],
    [8040,"2014-12-31T10:00:00","ND","30","ND","2,7","161,2","25,8","65,9","242","0"],
    [8041,"2014-12-31T11:00:00","ND","27","ND","1,3","161,5","27,2","60,5","343,4","0"],
    [8042,"2014-12-31T12:00:00","ND","22","ND","2,6","138,7","29,3","52,5","367,2","0"],
    [8043,"2014-12-31T13:00:00","ND","32","ND","2,8","95,8","30,3","47,2","316,2","0"],
    [8044,"2014-12-31T14:00:00","ND","27","ND","2,1","99,5","31,4","42,3","378,4","0"],
    [8045,"2014-12-31T15:00:00","ND","20","ND","2,8","29,8","31,5","42,4","204,5","0"],
    [8046,"2014-12-31T16:00:00","ND","25","ND","4,5","9,2","31,3","42,5","97,3","0"],
    [8047,"2014-12-31T17:00:00","ND","10","ND","4,6","294","31,4","40,5","136,4","0"],
    [8048,"2014-12-31T18:00:00","ND","12","ND","4,6","289,9","30,4","42,7","31,2","0"],
    [8049,"2014-12-31T19:00:00","ND","10","ND","4,2","287,4","29","46,8","0","0"],
    [8050,"2014-12-31T20:00:00","ND","22","ND","1,9","43,1","27,4","54,8","0","0"],
    [8051,"2014-12-31T21:00:00","ND","23","ND","2,7","85,2","26","63,1","0","0"],
    [8052,"2014-12-31T22:00:00","ND","25","ND","2,7","207,8","25,2","66,5","0","0"],
    [8053,"2014-12-31T23:00:00","ND","29","ND","2,1","176,9","24,5","70,9","0","0"],
    [8054,"2015-01-01T00:00:00","ND","40","ND","3,4","219,8","24,7","69,6","0","0"],
    [8055,"2015-01-01T01:00:00","ND","121","10,91","3,8","224,7","24,5","69,7","0","0"],
    [8056,"2015-01-01T02:00:00","ND","36","10,52","3,3","199,3","23,7","73,1","0","0"],
    [8057,"2015-01-01T03:00:00","ND","26","9,26","2","165,2","22,9","76,4","0","0"],
    [8058,"2015-01-01T04:00:00","ND","20","10,54","2,2","210,8","22,8","76,2","0","0"],
    [8059,"2015-01-01T05:00:00","ND","27","7,99","2,2","154,9","22,5","78","0","0"],
    [8060,"2015-01-01T06:00:00","ND","15","8,16","1,9","152,4","22","79,2","0","0"],
    [8061,"2015-01-01T07:00:00","ND","22","8,46","1,6","152","22,1","78,1","8,7","0"],
    [8062,"2015-01-01T08:00:00","ND","24","9,13","2,5","104,4","22,6","78,3","41,1","0"],
    [8063,"2015-01-01T09:00:00","ND","21","21,31","2,6","152,6","24,1","72","154,6","0"],
    [8064,"2015-01-01T10:00:00","ND","13","38,01","1,3","241,9","25,5","62,6","124,3","0"],
    [8065,"2015-01-01T11:00:00","ND","20","55,34","1,8","27,1","26,9","59,1","370,7","0"],
    [8066,"2015-01-01T12:00:00","ND","10","77,32","3,1","29,3","28,4","53,4","411,6","0"],
    [8067,"2015-01-01T13:00:00","ND","13","70,9","3,6","52,2","30","47,6","412,2","0"],
    [8068,"2015-01-01T14:00:00","ND","14","82,07","4,2","51,5","31","43,9","385","0"],
    [8069,"2015-01-01T15:00:00","ND","12","81,42","3,6","32,8","32","40,5","326,3","0"],
    [8070,"2015-01-01T16:00:00","ND","11","66,98","3,4","61,5","32,1","39","167,8","0"],
    [8071,"2015-01-01T17:00:00","ND","7","52,32","4","302,5","32","38,9","138,4","0"],
    [8072,"2015-01-01T18:00:00","ND","5","42,58","6,4","287,5","30,6","41,6","31,6","0"],
    [8073,"2015-01-01T19:00:00","ND","10","33,65","5,2","292,3","29,2","44,6","0","0"],
    [8074,"2015-01-01T20:00:00","ND","10","22,86","2,3","310,7","28,1","49,9","0","0"],
    [8075,"2015-01-01T21:00:00","ND","19","10,91","4","80,4","25,4","64,4","0","0"],
    [8076,"2015-01-01T22:00:00","ND","14","11,66","2,2","64,4","24,9","67,2","0","0"],
    [8077,"2015-01-01T23:00:00","ND","18","11,26","1","120,1","25,5","64,1","0","0"],
    [8078,"2015-01-02T00:00:00","ND","14","10,26","2,5","90,2","23,9","71,4","0","0"],
    [8079,"2015-01-02T01:00:00","ND","12","11,22","2,3","99,3","23,4","73,6","0","0"],
    [8080,"2015-01-02T02:00:00","ND","16","12,78","1,4","194,9","23,4","74","0","0"],
    [8081,"2015-01-02T03:00:00","ND","8","12,79","1,9","211,5","22,9","76,2","0","0"],
    [8082,"2015-01-02T04:00:00","ND","10","11,3","1,8","132","22,5","77,4","0","0"],
    [8083,"2015-01-02T05:00:00","ND","10","7,97","1,3","166,7","21,6","81,2","0","0"],
    [8084,"2015-01-02T06:00:00","ND","12","6,83","1,5","144,7","21,4","81,2","0","0"],
    [8085,"2015-01-02T07:00:00","ND","21","6,34","0,7","100","21,2","81,9","16,2","0"],
    [8086,"2015-01-02T08:00:00","ND","24","11,36","2,6","87,1","22,4","78,4","89","0"],
    [8087,"2015-01-02T09:00:00","ND","20","20,55","2,5","109","23,2","75,1","148,8","0"],
    [8088,"2015-01-02T10:00:00","ND","17","47,18","1,2","181,1","25,4","65,8","308","0"],
    [8089,"2015-01-02T11:00:00","ND","16","70,37","2,4","82,9","27,6","56,2","384,7","0"],
    [8090,"2015-01-02T12:00:00","ND","15","86,6","2,6","48,2","29,4","49,6","432,3","0"],
    [8091,"2015-01-02T13:00:00","ND","13","97,57","2,3","62","30,8","44,4","442,1","0"],
    [8092,"2015-01-02T14:00:00","ND","23","108,24","3","44,5","31,6","41,9","348,6","0"],
    [8093,"2015-01-02T15:00:00","ND","18","104,14","2,8","51,3","32,2","39,8","276,9","0"],
    [8094,"2015-01-02T16:00:00","ND","17","67,02","4,5","51,4","32,3","40","119,5","0"],
    [8095,"2015-01-02T17:00:00","ND","9","53,42","4,3","358,3","31,9","40,8","117,1","0"],
    [8096,"2015-01-02T18:00:00","ND","12","44,68","5,2","317,5","30,5","43,8","26,9","0"],
    [8097,"2015-01-02T19:00:00","ND","8","22,37","5,5","315,2","29,1","47,9","0","0"],
    [8098,"2015-01-02T20:00:00","ND","18","10,87","2","13,5","28,3","51,7","0","0"],
    [8099,"2015-01-02T21:00:00","ND","20","9,32","3,8","95,7","25,8","63","0","0"],
    [8100,"2015-01-02T22:00:00","ND","15","9,07","2,4","83,9","25,1","67,5","0","0"],
    [8101,"2015-01-02T23:00:00","ND","8","9,91","3,9","111,8","24,6","69,3","0","0"],
    [8102,"2015-01-03T00:00:00","ND","7","11,66","2,9","85","23,9","72,6","0","0"],
    [8103,"2015-01-03T01:00:00","ND","7","13,74","1,7","73,1","24","71,4","0","0"],
    [8104,"2015-01-03T02:00:00","ND","12","17,47","1,3","126,4","24,1","70,5","0","0"],
    [8105,"2015-01-03T03:00:00","ND","7","17,21","1,4","113,1","24,2","70,2","0","0"],
    [8106,"2015-01-03T04:00:00","ND","9","11,34","1,2","163,2","23,9","73,2","0","0"],
    [8107,"2015-01-03T05:00:00","ND","8","10,93","2,1","160,9","23,2","76,1","0","0"],
    [8108,"2015-01-03T06:00:00","ND","ND","7,52","2,4","200,6","22,1","76,5","0","0"],
    [8109,"2015-01-03T07:00:00","ND","13","7,22","2","156,6","21,7","77,1","12","0"],
    [8110,"2015-01-03T08:00:00","ND","19","13,36","1,7","185,6","22,6","70,7","99,1","0"],
    [8111,"2015-01-03T09:00:00","ND","18","23,25","2,6","79,3","24,8","64,4","205,5","0"],
    [8112,"2015-01-03T10:00:00","ND","17","44,8","2,7","111,1","26,3","57,7","306,5","0"],
    [8113,"2015-01-03T11:00:00","ND","17","58,52","2","78,9","28","52,9","385,9","0"],
    [8114,"2015-01-03T12:00:00","ND","10","66,13","3,1","94,4","29,1","48,1","430,2","0"],
    [8115,"2015-01-03T13:00:00","ND","16","80,14","3,1","66,4","30,5","44,4","442,9","0"],
    [8116,"2015-01-03T14:00:00","ND","16","100,24","3,2","48,1","31,4","41","394,4","0"],
    [8117,"2015-01-03T15:00:00","ND","16","109,58","2,7","26,4","32,1","39,3","337,7","0"],
    [8118,"2015-01-03T16:00:00","ND","ND","92,07","3","23,1","32,3","38,6","183,7","0"],
    [8119,"2015-01-03T17:00:00","ND","12","67,51","4,3","312","31,8","40,3","104,6","0"],
    [8120,"2015-01-03T18:00:00","ND","10","41,45","6,7","290","30,3","44,1","32,1","0"],
    [8121,"2015-01-03T19:00:00","ND","12","28,93","5,2","295,6","29,2","47,5","0","0"],
    [8122,"2015-01-03T20:00:00","ND","24","13,97","2,3","52,3","27,4","55,7","0","0"],
    [8123,"2015-01-03T21:00:00","ND","21","9,69","3,3","87,1","25,4","65,7","0","0"],
    [8124,"2015-01-03T22:00:00","ND","ND","9,13","2,5","96","24,8","68,3","0","0"],
    [8125,"2015-01-03T23:00:00","ND","19","7,69","1,8","110,8","24,9","68,3","0","0"],
    [8126,"2015-01-04T00:00:00","ND","6","9,65","2,1","89,9","24,6","69,6","0","0"],
    [8127,"2015-01-04T01:00:00","ND","8","8,83","0,9","96,6","23,7","73,3","0","0"],
    [8128,"2015-01-04T02:00:00","ND","13","9,79","2,2","84","23,4","74,4","0","0"],
    [8129,"2015-01-04T03:00:00","ND","11","14,38","1,5","2,9","22,7","75,8","0","0"],
    [8130,"2015-01-04T04:00:00","ND","ND","11,34","1,5","153,9","23","75","0","0"],
    [8131,"2015-01-04T05:00:00","ND","17","9,69","3","201","22,4","78,4","0","0"],
    [8132,"2015-01-04T06:00:00","ND","ND","6,53","1,9","125,9","22","80","0","0"],
    [8133,"2015-01-04T07:00:00","ND","ND","7,12","2,1","147,5","21,3","82,7","6,9","0"],
    [8134,"2015-01-04T08:00:00","ND","17","12,5","1,3","146,6","22,4","77,6","83,1","0"],
    [8135,"2015-01-04T09:00:00","ND","11","28,36","1,9","164,1","24,4","68,4","198,7","0"],
    [8136,"2015-01-04T10:00:00","ND","ND","52,73","1,6","65,6","26,1","61,8","297,8","0"],
    [8137,"2015-01-04T11:00:00","ND","ND","66,78","2,8","95,9","27,7","56,4","366","0"],
    [8138,"2015-01-04T12:00:00","ND","20","86,25","1,2","127,5","29,1","51,5","399,1","0"],
    [8139,"2015-01-04T13:00:00","ND","23","95,7","3,6","92,2","30,1","47,4","418,4","0"],
    [8140,"2015-01-04T14:00:00","ND","22","117,17","2,6","82,5","31,3","43,9","384,4","0"],
    [8141,"2015-01-04T15:00:00","ND","24","124,53","2,7","349,3","31,7","41,3","182,6","0"],
    [8142,"2015-01-04T16:00:00","ND","ND","91,6","3,7","316","32","38,9","195,6","0"],
    [8143,"2015-01-04T17:00:00","ND","11","59,3","7,1","297,9","31,7","38,8","134,8","0"],
    [8144,"2015-01-04T18:00:00","ND","12","44,15","6,1","287,6","30,3","42,4","28,8","0"],
    [8145,"2015-01-04T19:00:00","ND","9","30,65","5,1","298,8","28,8","47,9","0","0"],
    [8146,"2015-01-04T20:00:00","ND","17","13,05","2,7","18","27,9","52,8","0","0"],
    [8147,"2015-01-04T21:00:00","ND","ND","9,95","4","85,2","25,2","65,2","0","0"],
    [8148,"2015-01-04T22:00:00","ND","10","10,81","4,2","81,9","24,5","69,5","0","0"],
    [8149,"2015-01-04T23:00:00","ND","10","8,28","2,2","123,7","24,6","70","0","0"],
    [8150,"2015-01-05T00:00:00","ND","7","11,32","1,8","85,1","24,1","71,5","0","0"],
    [8151,"2015-01-05T01:00:00","ND","4","12,4","0,5","173,6","23,9","72,1","0","0"],
    [8152,"2015-01-05T02:00:00","ND","6","9,67","1,9","105,7","23,8","73,2","0","0"],
    [8153,"2015-01-05T03:00:00","ND","6","10,68","2","110,1","23,1","76,1","0","0"],
    [8154,"2015-01-05T04:00:00","ND","9","8,69","2","139,4","23,1","76,7","0","0"],
    [8155,"2015-01-05T05:00:00","ND","7","6,65","1,8","199","23","77,6","0","0"],
    [8156,"2015-01-05T06:00:00","ND","ND","8,6","2,6","180,5","23","75,3","0","0"],
    [8157,"2015-01-05T07:00:00","ND","13","8,03","2","175,7","22,9","75,1","6,6","0"],
    [8158,"2015-01-05T08:00:00","ND","15","12,56","2,7","169,6","23,5","72","79,7","0"],
    [8159,"2015-01-05T09:00:00","ND","13","21,39","3","149,1","25","66,1","194,7","0"],
    [8160,"2015-01-05T10:00:00","ND","11","33,09","2,9","145,2","26,4","60,2","304,3","0"],
    [8161,"2015-01-05T11:00:00","ND","9","51,57","0,6","44,4","28","54,1","383,1","0"],
    [8162,"2015-01-05T12:00:00","ND","17","62,42","2,5","66,4","29,4","49,4","432,5","0"],
    [8163,"2015-01-05T13:00:00","ND","13","76,34","3,1","52,4","30,8","43,2","440,2","0"],
    [8164,"2015-01-05T14:00:00","ND","20","87,33","3,3","47,5","31,5","40,5","323,5","0"],
    [8165,"2015-01-05T15:00:00","ND","13","79,48","3,7","39,7","32,3","38,5","240,2","0"],
    [8166,"2015-01-05T16:00:00","ND","ND","68,15","4","7,1","31,9","40","172","0"],
    [8167,"2015-01-05T17:00:00","ND","10","54,87","4,7","352,9","31,7","39,4","137,9","0"],
    [8168,"2015-01-05T18:00:00","ND","10","43,17","4,4","314,9","30,4","42,5","26,7","0"],
    [8169,"2015-01-05T19:00:00","ND","6","23,25","4,8","288,8","28,8","47,5","0","0"],
    [8170,"2015-01-05T20:00:00","ND","15","16,01","1,4","341,3","27,3","53,5","0","0"],
    [8171,"2015-01-05T21:00:00","ND","34","11,42","3,1","92,6","25,2","64,3","0","0"],
    [8172,"2015-01-05T22:00:00","ND","21","9,44","2","97,4","24,9","65,9","0","0"],
    [8173,"2015-01-05T23:00:00","ND","22","11,83","1,7","123,4","24,3","68,6","0","0"],
    [8174,"2015-01-06T00:00:00","ND","16","10,62","1,8","67,8","23,7","70,8","0","0"],
    [8175,"2015-01-06T01:00:00","ND","10","9,97","2,2","75,9","23,2","73,3","0","0"],
    [8176,"2015-01-06T02:00:00","ND","28","9,75","1,9","137,5","22,7","75,4","0","0"],
    [8177,"2015-01-06T03:00:00","ND","18","6,63","1,8","99,7","22,1","78","0","0"],
    [8178,"2015-01-06T04:00:00","ND","14","6,12","1,5","89,1","21,9","78,9","0","0"],
    [8179,"2015-01-06T05:00:00","ND","35","6,59","1,6","150,6","21,8","79,9","0","0"],
    [8180,"2015-01-06T06:00:00","ND","33","6,4","1,7","136","21,2","82,1","0","0"],
    [8181,"2015-01-06T07:00:00","ND","32","6,28","2,1","139,9","21,4","81,2","12,9","0"],
    [8182,"2015-01-06T08:00:00","ND","32","9,11","2,8","145,9","22,1","77,2","93,9","0"],
    [8183,"2015-01-06T09:00:00","ND","12","23,53","2,8","168,1","24","67,2","201,5","0"],
    [8184,"2015-01-06T10:00:00","ND","15","46,84","1,2","157,4","25,5","61,8","299,8","0"],
    [8185,"2015-01-06T11:00:00","ND","26","67,84","2,9","70,8","27,4","56,3","377,1","0"],
    [8186,"2015-01-06T12:00:00","ND","16","81,95","2,1","128,5","28,8","50,6","430","0"],
    [8187,"2015-01-06T13:00:00","ND","18","102,34","3,6","67,5","30","45,8","407,8","0"],
    [8188,"2015-01-06T14:00:00","ND","21","131,09","2,2","54,9","31,1","42,8","404","0"],
    [8189,"2015-01-06T15:00:00","ND","16","109,56","4,1","48,2","32,2","38,3","307,2","0"],
    [8190,"2015-01-06T16:00:00","ND","17","75,34","2,3","354","32","37,5","171,9","0"],
    [8191,"2015-01-06T17:00:00","ND","12","58,52","7,9","303,9","31,1","40,7","124,2","0"],
    [8192,"2015-01-06T18:00:00","ND","10","44,84","6,1","299,8","29,5","44,9","7,9","0"],
    [8193,"2015-01-06T19:00:00","ND","15","25,33","3,7","304,9","28,6","47,1","0","0"],
    [8194,"2015-01-06T20:00:00","ND","38","10,05","2,5","70,9","26,8","55,6","0","0"],
    [8195,"2015-01-06T21:00:00","ND","32","11,42","3,1","109,4","25","64,5","0","0"],
    [8196,"2015-01-06T22:00:00","ND","22","10,5","3","83,2","24,6","67,3","0","0"],
    [8197,"2015-01-06T23:00:00","ND","21","12,44","2,8","91","24,1","69,2","0","0"],
    [8198,"2015-01-07T00:00:00","ND","14","12,11","1,3","101,5","23,6","70,5","0","0"],
    [8199,"2015-01-07T01:00:00","ND","25","9,56","1,3","193","23,5","71,8","0","0"],
    [8200,"2015-01-07T02:00:00","ND","20","8,56","1,1","143,3","23,2","73,7","0","0"],
    [8201,"2015-01-07T03:00:00","ND","25","8,07","2,1","128,4","22,4","76,9","0","0"],
    [8202,"2015-01-07T04:00:00","ND","57","10,18","2,3","179,3","21,5","79,6","0","0"],
    [8203,"2015-01-07T05:00:00","ND","28","5,53","2,3","188,3","20,8","82,2","0","0"],
    [8204,"2015-01-07T06:00:00","ND","23","5,93","1,4","148","20,8","80,8","0","0"],
    [8205,"2015-01-07T07:00:00","ND","46","8,2","2,3","153,6","19,5","81,7","0","0"],
    [8206,"2015-01-07T08:00:00","ND","29","10,44","2,1","172,2","20,2","78,8","78,6","0"],
    [8207,"2015-01-07T09:00:00","ND","29","24,53","2,2","159,1","22,8","70,3","198,7","0"],
    [8208,"2015-01-07T10:00:00","ND","18","53,71","2,4","181","25","62,3","299,7","0"],
    [8209,"2015-01-07T11:00:00","ND","19","73,59","2,3","189,2","26,9","56","384,5","0"],
    [8210,"2015-01-07T12:00:00","ND","14","90,68","2,1","196,3","28,4","48,2","430,5","0"],
    [8211,"2015-01-07T13:00:00","ND","ND","105,16","3,3","89,6","29,7","43,7","432","0"],
    [8212,"2015-01-07T14:00:00","ND","13","128,93","ND","ND","ND","ND","ND","ND"],
    [8213,"2015-01-07T15:00:00","ND","10","135,84","ND","ND","ND","ND","ND","ND"],
    [8214,"2015-01-07T16:00:00","ND","19","115,45","ND","ND","ND","ND","ND","ND"],
    [8215,"2015-01-07T17:00:00","ND","11","63,17","ND","ND","ND","ND","ND","ND"],
    [8216,"2015-01-07T18:00:00","ND","10","43,56","ND","ND","ND","ND","ND","ND"],
    [8217,"2015-01-07T19:00:00","ND","12","29,61","ND","ND","ND","ND","ND","ND"],
    [8218,"2015-01-07T20:00:00","ND","32","11,62","ND","ND","ND","ND","ND","ND"],
    [8219,"2015-01-07T21:00:00","ND","36","13,3","ND","ND","ND","ND","ND","ND"],
    [8220,"2015-01-07T22:00:00","ND","47","14,5","ND","ND","ND","ND","ND","ND"],
    [8221,"2015-01-07T23:00:00","ND","37","10,09","ND","ND","ND","ND","ND","ND"],
    [8222,"2015-01-08T00:00:00","ND","10","10,66","ND","ND","ND","ND","ND","ND"],
    [8223,"2015-01-08T01:00:00","ND","13","12,79","ND","ND","ND","ND","ND","ND"],
    [8224,"2015-01-08T02:00:00","ND","21","14,13","ND","ND","ND","ND","ND","ND"],
    [8225,"2015-01-08T03:00:00","ND","23","10,46","ND","ND","ND","ND","ND","ND"],
    [8226,"2015-01-08T04:00:00","ND","20","9,44","ND","ND","ND","ND","ND","ND"],
    [8227,"2015-01-08T05:00:00","ND","17","9,89","ND","ND","ND","ND","ND","ND"],
    [8228,"2015-01-08T06:00:00","ND","28","6,69","ND","ND","ND","ND","ND","ND"],
    [8229,"2015-01-08T07:00:00","ND","21","7,48","ND","ND","ND","ND","ND","ND"],
    [8230,"2015-01-08T08:00:00","ND","ND","10,79","ND","ND","ND","ND","ND","ND"],
    [8231,"2015-01-08T09:00:00","ND","19","18,58","ND","ND","ND","ND","ND","ND"],
    [8232,"2015-01-08T10:00:00","ND","19","41,03","ND","ND","ND","ND","ND","ND"],
    [8233,"2015-01-08T11:00:00","ND","16","64,64","ND","ND","ND","ND","ND","ND"],
    [8234,"2015-01-08T12:00:00","ND","18","77,69","ND","ND","ND","ND","ND","ND"],
    [8235,"2015-01-08T13:00:00","ND","16","80,52","ND","ND","ND","ND","ND","ND"],
    [8236,"2015-01-08T14:00:00","ND","20","99,39","ND","ND","ND","ND","ND","ND"],
    [8237,"2015-01-08T15:00:00","ND","18","96,47","ND","ND","ND","ND","ND","ND"],
    [8238,"2015-01-08T16:00:00","ND","21","62,44","ND","ND","ND","ND","ND","ND"],
    [8239,"2015-01-08T17:00:00","ND","20","47,45","ND","ND","ND","ND","ND","ND"],
    [8240,"2015-01-08T18:00:00","ND","16","45,04","ND","ND","ND","ND","ND","ND"],
    [8241,"2015-01-08T19:00:00","ND","17","30,48","ND","ND","ND","ND","ND","ND"],
    [8242,"2015-01-08T20:00:00","ND","18","21,74","ND","ND","ND","ND","ND","ND"],
    [8243,"2015-01-08T21:00:00","ND","27","12,62","ND","ND","ND","ND","ND","ND"],
    [8244,"2015-01-08T22:00:00","ND","25","10,68","ND","ND","ND","ND","ND","ND"],
    [8245,"2015-01-08T23:00:00","ND","13","12,17","ND","ND","ND","ND","ND","ND"],
    [8246,"2015-01-09T00:00:00","ND","13","13,89","ND","ND","ND","ND","ND","ND"],
    [8247,"2015-01-09T01:00:00","ND","65","13,09","ND","ND","ND","ND","ND","ND"],
    [8248,"2015-01-09T02:00:00","ND","25","11,64","ND","ND","ND","ND","ND","ND"],
    [8249,"2015-01-09T03:00:00","ND","24","7,12","ND","ND","ND","ND","ND","ND"],
    [8250,"2015-01-09T04:00:00","ND","29","10,71","ND","ND","ND","ND","ND","ND"],
    [8251,"2015-01-09T05:00:00","ND","31","10,48","ND","ND","ND","ND","ND","ND"],
    [8252,"2015-01-09T06:00:00","ND","29","7,08","ND","ND","ND","ND","ND","ND"],
    [8253,"2015-01-09T07:00:00","ND","37","6,85","ND","ND","ND","ND","ND","ND"],
    [8254,"2015-01-09T08:00:00","ND","37","10,48","ND","ND","ND","ND","ND","ND"],
    [8255,"2015-01-09T09:00:00","ND","38","22,57","ND","ND","ND","ND","ND","ND"],
    [8256,"2015-01-09T10:00:00","ND","17","39,15","ND","ND","ND","ND","ND","ND"],
    [8257,"2015-01-09T11:00:00","ND","12","60,77","ND","ND","ND","ND","ND","ND"],
    [8258,"2015-01-09T12:00:00","ND","19","85,91","ND","ND","ND","ND","ND","ND"],
    [8259,"2015-01-09T13:00:00","ND","27","95,23","ND","ND","ND","ND","ND","ND"],
    [8260,"2015-01-09T14:00:00","ND","15","99,61","ND","ND","ND","ND","ND","ND"],
    [8261,"2015-01-09T15:00:00","ND","20","89,84","ND","ND","ND","ND","ND","ND"],
    [8262,"2015-01-09T16:00:00","ND","9","62,82","ND","ND","ND","ND","ND","ND"],
    [8263,"2015-01-09T17:00:00","ND","17","53,91","ND","ND","ND","ND","ND","ND"],
    [8264,"2015-01-09T18:00:00","ND","20","45,1","ND","ND","ND","ND","ND","ND"],
    [8265,"2015-01-09T19:00:00","ND","12","30,38","ND","ND","ND","ND","ND","ND"],
    [8266,"2015-01-09T20:00:00","ND","13","21,15","ND","ND","ND","ND","ND","ND"],
    [8267,"2015-01-09T21:00:00","ND","16","17,43","ND","ND","ND","ND","ND","ND"],
    [8268,"2015-01-09T22:00:00","ND","19","10,99","ND","ND","ND","ND","ND","ND"],
    [8269,"2015-01-09T23:00:00","ND","22","13,09","ND","ND","ND","ND","ND","ND"],
    [8270,"2015-01-10T00:00:00","ND","32","9,38","ND","ND","ND","ND","ND","ND"],
    [8271,"2015-01-10T01:00:00","ND","25","8,85","ND","ND","ND","ND","ND","ND"],
    [8272,"2015-01-10T02:00:00","ND","21","11,05","ND","ND","ND","ND","ND","ND"],
    [8273,"2015-01-10T03:00:00","ND","18","14,48","ND","ND","ND","ND","ND","ND"],
    [8274,"2015-01-10T04:00:00","ND","19","19,37","ND","ND","ND","ND","ND","ND"],
    [8275,"2015-01-10T05:00:00","ND","36","18,54","ND","ND","ND","ND","ND","ND"],
    [8276,"2015-01-10T06:00:00","ND","25","7,79","ND","ND","ND","ND","ND","ND"],
    [8277,"2015-01-10T07:00:00","ND","25","7,24","ND","ND","ND","ND","ND","ND"],
    [8278,"2015-01-10T08:00:00","ND","37","9,85","ND","ND","ND","ND","ND","ND"],
    [8279,"2015-01-10T09:00:00","ND","36","26,02","ND","ND","ND","ND","ND","ND"],
    [8280,"2015-01-10T10:00:00","ND","22","43,45","ND","ND","ND","ND","ND","ND"],
    [8281,"2015-01-10T11:00:00","ND","23","67,02","ND","ND","ND","ND","ND","ND"],
    [8282,"2015-01-10T12:00:00","ND","17","85,95","ND","ND","ND","ND","ND","ND"],
    [8283,"2015-01-10T13:00:00","ND","23","85,42","ND","ND","ND","ND","ND","ND"],
    [8284,"2015-01-10T14:00:00","ND","21","89,37","ND","ND","ND","ND","ND","ND"],
    [8285,"2015-01-10T15:00:00","ND","17","76,53","ND","ND","ND","ND","ND","ND"],
    [8286,"2015-01-10T16:00:00","ND","16","75,22","ND","ND","ND","ND","ND","ND"],
    [8287,"2015-01-10T17:00:00","ND","10","64,13","ND","ND","ND","ND","ND","ND"],
    [8288,"2015-01-10T18:00:00","ND","13","55,36","ND","ND","ND","ND","ND","ND"],
    [8289,"2015-01-10T19:00:00","ND","9","34,69","ND","ND","ND","ND","ND","ND"],
    [8290,"2015-01-10T20:00:00","ND","22","21,63","ND","ND","ND","ND","ND","ND"],
    [8291,"2015-01-10T21:00:00","ND","30","9,71","ND","ND","ND","ND","ND","ND"],
    [8292,"2015-01-10T22:00:00","ND","15","9,99","ND","ND","ND","ND","ND","ND"],
    [8293,"2015-01-10T23:00:00","ND","22","7,87","ND","ND","ND","ND","ND","ND"],
    [8294,"2015-01-11T00:00:00","ND","14","7,73","ND","ND","ND","ND","ND","ND"],
    [8295,"2015-01-11T01:00:00","ND","21","7,73","ND","ND","ND","ND","ND","ND"],
    [8296,"2015-01-11T02:00:00","ND","30","7,34","ND","ND","ND","ND","ND","ND"],
    [8297,"2015-01-11T03:00:00","ND","18","6,2","ND","ND","ND","ND","ND","ND"],
    [8298,"2015-01-11T04:00:00","ND","17","6,2","ND","ND","ND","ND","ND","ND"],
    [8299,"2015-01-11T05:00:00","ND","19","8,36","ND","ND","ND","ND","ND","ND"],
    [8300,"2015-01-11T06:00:00","ND","29","9,13","ND","ND","ND","ND","ND","ND"],
    [8301,"2015-01-11T07:00:00","ND","22","6,93","ND","ND","ND","ND","ND","ND"],
    [8302,"2015-01-11T08:00:00","ND","26","12,66","ND","ND","ND","ND","ND","ND"],
    [8303,"2015-01-11T09:00:00","ND","24","32,3","ND","ND","ND","ND","ND","ND"],
    [8304,"2015-01-11T10:00:00","ND","23","49,61","ND","ND","ND","ND","ND","ND"],
    [8305,"2015-01-11T11:00:00","ND","20","73,06","ND","ND","ND","ND","ND","ND"],
    [8306,"2015-01-11T12:00:00","ND","18","91,92","ND","ND","ND","ND","ND","ND"],
    [8307,"2015-01-11T13:00:00","ND","20","104,18","ND","ND","ND","ND","ND","ND"],
    [8308,"2015-01-11T14:00:00","ND","27","114,72","ND","ND","ND","ND","ND","ND"],
    [8309,"2015-01-11T15:00:00","ND","21","95,92","ND","ND","ND","ND","ND","ND"],
    [8310,"2015-01-11T16:00:00","ND","17","78,89","ND","ND","ND","ND","ND","ND"],
    [8311,"2015-01-11T17:00:00","ND","10","59,01","ND","ND","ND","ND","ND","ND"],
    [8312,"2015-01-11T18:00:00","ND","7","43,21","ND","ND","ND","ND","ND","ND"],
    [8313,"2015-01-11T19:00:00","ND","9","32,79","ND","ND","ND","ND","ND","ND"],
    [8314,"2015-01-11T20:00:00","ND","10","25,79","ND","ND","ND","ND","ND","ND"],
    [8315,"2015-01-11T21:00:00","ND","12","9,64","ND","ND","ND","ND","ND","ND"],
    [8316,"2015-01-11T22:00:00","ND","12","8,87","ND","ND","ND","ND","ND","ND"],
    [8317,"2015-01-11T23:00:00","ND","10","8,08","ND","ND","ND","ND","ND","ND"],
    [8318,"2015-01-12T00:00:00","ND","23","6,36","ND","ND","ND","ND","ND","ND"],
    [8319,"2015-01-12T01:00:00","ND","12","8,83","ND","ND","ND","ND","ND","ND"],
    [8320,"2015-01-12T02:00:00","ND","7","7,46","ND","ND","ND","ND","ND","ND"],
    [8321,"2015-01-12T03:00:00","ND","5","10,97","ND","ND","ND","ND","ND","ND"],
    [8322,"2015-01-12T04:00:00","ND","6","14,44","ND","ND","ND","ND","ND","ND"],
    [8323,"2015-01-12T05:00:00","ND","23","13,27","ND","ND","ND","ND","ND","ND"],
    [8324,"2015-01-12T06:00:00","ND","25","8,75","ND","ND","ND","ND","ND","ND"],
    [8325,"2015-01-12T07:00:00","ND","27","7,87","ND","ND","ND","ND","ND","ND"],
    [8326,"2015-01-12T08:00:00","ND","29","10,42","ND","ND","ND","ND","ND","ND"],
    [8327,"2015-01-12T09:00:00","ND","23","25,65","ND","ND","ND","ND","ND","ND"],
    [8328,"2015-01-12T10:00:00","ND","14","43,88","ND","ND","ND","ND","ND","ND"],
    [8329,"2015-01-12T11:00:00","ND","17","71,29","ND","ND","ND","ND","ND","ND"],
    [8330,"2015-01-12T12:00:00","ND","19","79,16","ND","ND","ND","ND","ND","ND"],
    [8331,"2015-01-12T13:00:00","ND","19","92,43","ND","ND","ND","ND","ND","ND"],
    [8332,"2015-01-12T14:00:00","ND","17","100,75","ND","ND","ND","ND","ND","ND"],
    [8333,"2015-01-12T15:00:00","ND","19","103,14","ND","ND","ND","ND","ND","ND"],
    [8334,"2015-01-12T16:00:00","ND","20","105,4","ND","ND","ND","ND","ND","ND"],
    [8335,"2015-01-12T17:00:00","ND","7","66,09","ND","ND","ND","ND","ND","ND"],
    [8336,"2015-01-12T18:00:00","ND","9","47,2","ND","ND","ND","ND","ND","ND"],
    [8337,"2015-01-12T19:00:00","ND","9","30,12","ND","ND","ND","ND","ND","ND"],
    [8338,"2015-01-12T20:00:00","ND","22","16,76","ND","ND","ND","ND","ND","ND"],
    [8339,"2015-01-12T21:00:00","ND","12","9,95","ND","ND","ND","ND","ND","ND"],
    [8340,"2015-01-12T22:00:00","ND","9","10,13","ND","ND","ND","ND","ND","ND"],
    [8341,"2015-01-12T23:00:00","ND","7","12,11","ND","ND","ND","ND","ND","ND"],
    [8342,"2015-01-13T00:00:00","ND","12","7,69","ND","ND","ND","ND","ND","ND"],
    [8343,"2015-01-13T01:00:00","ND","7","8,03","ND","ND","ND","ND","ND","ND"],
    [8344,"2015-01-13T02:00:00","ND","12","7,1","ND","ND","ND","ND","ND","ND"],
    [8345,"2015-01-13T03:00:00","ND","12","6,71","ND","ND","ND","ND","ND","ND"],
    [8346,"2015-01-13T04:00:00","ND","12","6,34","ND","ND","ND","ND","ND","ND"],
    [8347,"2015-01-13T05:00:00","ND","19","6,08","ND","ND","ND","ND","ND","ND"],
    [8348,"2015-01-13T06:00:00","ND","25","6,2","ND","ND","ND","ND","ND","ND"],
    [8349,"2015-01-13T07:00:00","ND","29","6,73","ND","ND","ND","ND","ND","ND"],
    [8350,"2015-01-13T08:00:00","ND","32","8,16","ND","ND","ND","ND","ND","ND"],
    [8351,"2015-01-13T09:00:00","ND","16","20,06","ND","ND","ND","ND","ND","ND"],
    [8352,"2015-01-13T10:00:00","ND","10","39,13","ND","ND","ND","ND","ND","ND"],
    [8353,"2015-01-13T11:00:00","ND","11","61,32","ND","ND","ND","ND","ND","ND"],
    [8354,"2015-01-13T12:00:00","ND","16","71,41","ND","ND","ND","ND","ND","ND"],
    [8355,"2015-01-13T13:00:00","ND","15","108,17","ND","ND","ND","ND","ND","ND"],
    [8356,"2015-01-13T14:00:00","ND","23","140,92","ND","ND","ND","ND","ND","ND"],
    [8357,"2015-01-13T15:00:00","ND","19","125,67","ND","ND","ND","ND","ND","ND"],
    [8358,"2015-01-13T16:00:00","ND","11","65,9","ND","ND","ND","ND","ND","ND"],
    [8359,"2015-01-13T17:00:00","ND","7","31,57","ND","ND","ND","ND","ND","ND"],
    [8360,"2015-01-13T18:00:00","ND","5","27,47","ND","ND","ND","ND","ND","ND"],
    [8361,"2015-01-13T19:00:00","ND","ND","22,37","ND","ND","ND","ND","ND","ND"],
    [8362,"2015-01-13T20:00:00","ND","ND","ND","ND","ND","ND","ND","ND","ND"],
    [8363,"2015-01-13T21:00:00","ND","ND","ND","ND","ND","ND","ND","ND","ND"],
    [8364,"2015-01-13T22:00:00","ND","ND","ND","ND","ND","ND","ND","ND","ND"],
    [8365,"2015-01-13T23:00:00","ND","ND","ND","ND","ND","ND","ND","ND","ND"],
    [8366,"2015-01-14T00:00:00","ND","ND","ND","ND","ND","ND","ND","ND","ND"],
    [8367,"2015-01-14T01:00:00","ND","ND","ND","ND","ND","ND","ND","ND","ND"],
    [8368,"2015-01-14T02:00:00","ND","ND","ND","ND","ND","ND","ND","ND","ND"],
    [8369,"2015-01-14T03:00:00","ND","ND","ND","ND","ND","ND","ND","ND","ND"],
    [8370,"2015-01-14T04:00:00","ND","ND","ND","ND","ND","ND","ND","ND","ND"],
    [8371,"2015-01-14T05:00:00","ND","ND","ND","ND","ND","ND","ND","ND","ND"],
    [8372,"2015-01-14T06:00:00","ND","ND","ND","ND","ND","ND","ND","ND","ND"],
    [8373,"2015-01-14T07:00:00","ND","ND","ND","ND","ND","ND","ND","ND","ND"],
    [8374,"2015-01-14T08:00:00","ND","ND","ND","ND","ND","ND","ND","ND","ND"],
    [8375,"2015-01-14T09:00:00","ND","ND","ND","ND","ND","ND","ND","ND","ND"],
    [8376,"2015-01-14T10:00:00","ND","ND","ND","ND","ND","ND","ND","ND","ND"],
    [8377,"2015-01-14T11:00:00","ND","ND","ND","ND","ND","ND","ND","ND","ND"],
    [8378,"2015-01-14T12:00:00","ND","ND","ND","ND","ND","ND","ND","ND","ND"],
    [8379,"2015-01-14T13:00:00","ND","ND","ND","ND","ND","ND","ND","ND","ND"],
    [8380,"2015-01-14T14:00:00","ND","ND","ND","ND","ND","ND","ND","ND","ND"],
    [8381,"2015-01-14T15:00:00","ND","ND","ND","ND","ND","ND","ND","ND","ND"],
    [8382,"2015-01-14T16:00:00","ND","ND","ND","ND","ND","ND","ND","ND","ND"],
    [8383,"2015-01-14T17:00:00","ND","ND","ND","ND","ND","ND","ND","ND","ND"],
    [8384,"2015-01-14T18:00:00","ND","ND","ND","ND","ND","ND","ND","ND","ND"],
    [8385,"2015-01-14T19:00:00","ND","ND","ND","ND","ND","ND","ND","ND","ND"],
    [8386,"2015-01-14T20:00:00","ND","ND","ND","ND","ND","ND","ND","ND","ND"],
    [8387,"2015-01-14T21:00:00","ND","ND","ND","ND","ND","ND","ND","ND","ND"],
    [8388,"2015-01-14T22:00:00","ND","ND","ND","ND","ND","ND","ND","ND","ND"],
    [8389,"2015-01-14T23:00:00","ND","ND","ND","ND","ND","ND","ND","ND","ND"],
    [8390,"2015-01-15T00:00:00","ND","ND","ND","ND","ND","ND","ND","ND","ND"],
    [8391,"2015-01-15T01:00:00","ND","ND","ND","ND","ND","ND","ND","ND","ND"],
    [8392,"2015-01-15T02:00:00","ND","ND","ND","ND","ND","ND","ND","ND","ND"],
    [8393,"2015-01-15T03:00:00","ND","ND","ND","ND","ND","ND","ND","ND","ND"],
    [8394,"2015-01-15T04:00:00","ND","ND","ND","ND","ND","ND","ND","ND","ND"],
    [8395,"2015-01-15T05:00:00","ND","ND","ND","ND","ND","ND","ND","ND","ND"],
    [8396,"2015-01-15T06:00:00","ND","ND","ND","ND","ND","ND","ND","ND","ND"],
    [8397,"2015-01-15T07:00:00","ND","ND","ND","ND","ND","ND","ND","ND","ND"],
    [8398,"2015-01-15T08:00:00","ND","ND","ND","ND","ND","ND","ND","ND","ND"],
    [8399,"2015-01-15T09:00:00","ND","ND","ND","ND","ND","ND","ND","ND","ND"],
    [8400,"2015-01-15T10:00:00","ND","ND","ND","ND","ND","ND","ND","ND","ND"],
    [8401,"2015-01-15T11:00:00","ND","ND","ND","ND","ND","ND","ND","ND","ND"],
    [8402,"2015-01-15T12:00:00","ND","ND","ND","ND","ND","ND","ND","ND","ND"],
    [8403,"2015-01-15T13:00:00","ND","ND","ND","ND","ND","ND","ND","ND","ND"],
    [8404,"2015-01-15T14:00:00","ND","ND","ND","ND","ND","ND","ND","ND","ND"],
    [8405,"2015-01-15T15:00:00","ND","ND","ND","ND","ND","ND","ND","ND","ND"],
    [8406,"2015-01-15T16:00:00","ND","ND","ND","ND","ND","ND","ND","ND","ND"],
    [8407,"2015-01-15T17:00:00","ND","ND","ND","ND","ND","ND","ND","ND","ND"],
    [8408,"2015-01-15T18:00:00","ND","ND","ND","ND","ND","ND","ND","ND","ND"],
    [8409,"2015-01-15T19:00:00","ND","ND","ND","ND","ND","ND","ND","ND","ND"],
    [8410,"2015-01-15T20:00:00","ND","ND","ND","ND","ND","ND","ND","ND","ND"],
    [8411,"2015-01-15T21:00:00","ND","ND","ND","ND","ND","ND","ND","ND","ND"],
    [8412,"2015-01-15T22:00:00","ND","ND","ND","ND","ND","ND","ND","ND","ND"],
    [8413,"2015-01-15T23:00:00","ND","ND","ND","ND","ND","ND","ND","ND","ND"],
    [8414,"2015-01-16T00:00:00","ND","ND","ND","ND","ND","ND","ND","ND","ND"],
    [8415,"2015-01-16T01:00:00","ND","ND","ND","ND","ND","ND","ND","ND","ND"],
    [8416,"2015-01-16T02:00:00","ND","ND","ND","ND","ND","ND","ND","ND","ND"],
    [8417,"2015-01-16T03:00:00","ND","ND","ND","ND","ND","ND","ND","ND","ND"],
    [8418,"2015-01-16T04:00:00","ND","ND","ND","ND","ND","ND","ND","ND","ND"],
    [8419,"2015-01-16T05:00:00","ND","ND","ND","ND","ND","ND","ND","ND","ND"],
    [8420,"2015-01-16T06:00:00","ND","ND","ND","ND","ND","ND","ND","ND","ND"],
    [8421,"2015-01-16T07:00:00","ND","ND","ND","ND","ND","ND","ND","ND","ND"],
    [8422,"2015-01-16T08:00:00","ND","ND","ND","ND","ND","ND","ND","ND","ND"],
    [8423,"2015-01-16T09:00:00","ND","ND","ND","ND","ND","ND","ND","ND","ND"],
    [8424,"2015-01-16T10:00:00","ND","ND","ND","ND","ND","ND","ND","ND","ND"],
    [8425,"2015-01-16T11:00:00","ND","ND","ND","ND","ND","ND","ND","ND","ND"],
    [8426,"2015-01-16T12:00:00","ND","ND","ND","ND","ND","ND","ND","ND","ND"],
    [8427,"2015-01-16T13:00:00","ND","ND","ND","ND","ND","ND","ND","ND","ND"],
    [8428,"2015-01-16T14:00:00","ND","ND","ND","ND","ND","ND","ND","ND","ND"],
    [8429,"2015-01-16T15:00:00","ND","ND","ND","ND","ND","ND","ND","ND","ND"],
    [8430,"2015-01-16T16:00:00","ND","ND","ND","ND","ND","ND","ND","ND","ND"],
    [8431,"2015-01-16T17:00:00","ND","ND","ND","ND","ND","ND","ND","ND","ND"],
    [8432,"2015-01-16T18:00:00","ND","ND","ND","ND","ND","ND","ND","ND","ND"],
    [8433,"2015-01-16T19:00:00","ND","ND","ND","ND","ND","ND","ND","ND","ND"],
    [8434,"2015-01-16T20:00:00","ND","ND","ND","ND","ND","ND","ND","ND","ND"],
    [8435,"2015-01-16T21:00:00","ND","ND","ND","ND","ND","ND","ND","ND","ND"],
    [8436,"2015-01-16T22:00:00","ND","ND","ND","ND","ND","ND","ND","ND","ND"],
    [8437,"2015-01-16T23:00:00","ND","ND","ND","ND","ND","ND","ND","ND","ND"],
    [8438,"2015-01-17T00:00:00","ND","ND","ND","ND","ND","ND","ND","ND","ND"],
    [8439,"2015-01-17T01:00:00","ND","ND","ND","ND","ND","ND","ND","ND","ND"],
    [8440,"2015-01-17T02:00:00","ND","ND","ND","ND","ND","ND","ND","ND","ND"],
    [8441,"2015-01-17T03:00:00","ND","ND","ND","ND","ND","ND","ND","ND","ND"],
    [8442,"2015-01-17T04:00:00","ND","ND","ND","ND","ND","ND","ND","ND","ND"],
    [8443,"2015-01-17T05:00:00","ND","ND","ND","ND","ND","ND","ND","ND","ND"],
    [8444,"2015-01-17T06:00:00","ND","ND","ND","ND","ND","ND","ND","ND","ND"],
    [8445,"2015-01-17T07:00:00","ND","ND","ND","ND","ND","ND","ND","ND","ND"],
    [8446,"2015-01-17T08:00:00","ND","ND","ND","ND","ND","ND","ND","ND","ND"],
    [8447,"2015-01-17T09:00:00","ND","ND","ND","ND","ND","ND","ND","ND","ND"],
    [8448,"2015-01-17T10:00:00","ND","ND","ND","ND","ND","ND","ND","ND","ND"],
    [8449,"2015-01-17T11:00:00","ND","ND","ND","ND","ND","ND","ND","ND","ND"],
    [8450,"2015-01-17T12:00:00","ND","ND","ND","ND","ND","ND","ND","ND","ND"],
    [8451,"2015-01-17T13:00:00","ND","ND","ND","ND","ND","ND","ND","ND","ND"],
    [8452,"2015-01-17T14:00:00","ND","ND","ND","ND","ND","ND","ND","ND","ND"],
    [8453,"2015-01-17T15:00:00","ND","ND","ND","ND","ND","ND","ND","ND","ND"],
    [8454,"2015-01-17T16:00:00","ND","ND","ND","ND","ND","ND","ND","ND","ND"],
    [8455,"2015-01-17T17:00:00","ND","ND","ND","ND","ND","ND","ND","ND","ND"],
    [8456,"2015-01-17T18:00:00","ND","ND","ND","ND","ND","ND","ND","ND","ND"],
    [8457,"2015-01-17T19:00:00","ND","ND","ND","ND","ND","ND","ND","ND","ND"],
    [8458,"2015-01-17T20:00:00","ND","ND","ND","ND","ND","ND","ND","ND","ND"],
    [8459,"2015-01-17T21:00:00","ND","ND","ND","ND","ND","ND","ND","ND","ND"],
    [8460,"2015-01-17T22:00:00","ND","ND","ND","ND","ND","ND","ND","ND","ND"],
    [8461,"2015-01-17T23:00:00","ND","ND","ND","ND","ND","ND","ND","ND","ND"],
    [8462,"2015-01-18T00:00:00","ND","ND","ND","ND","ND","ND","ND","ND","ND"],
    [8463,"2015-01-18T01:00:00","ND","ND","ND","ND","ND","ND","ND","ND","ND"],
    [8464,"2015-01-18T02:00:00","ND","ND","ND","ND","ND","ND","ND","ND","ND"],
    [8465,"2015-01-18T03:00:00","ND","ND","ND","ND","ND","ND","ND","ND","ND"],
    [8466,"2015-01-18T04:00:00","ND","ND","ND","ND","ND","ND","ND","ND","ND"],
    [8467,"2015-01-18T05:00:00","ND","ND","ND","ND","ND","ND","ND","ND","ND"],
    [8468,"2015-01-18T06:00:00","ND","ND","ND","ND","ND","ND","ND","ND","ND"],
    [8469,"2015-01-18T07:00:00","ND","ND","ND","ND","ND","ND","ND","ND","ND"],
    [8470,"2015-01-18T08:00:00","ND","ND","ND","ND","ND","ND","ND","ND","ND"],
    [8471,"2015-01-18T09:00:00","ND","ND","ND","ND","ND","ND","ND","ND","ND"],
    [8472,"2015-01-18T10:00:00","ND","ND","ND","ND","ND","ND","ND","ND","ND"],
    [8473,"2015-01-18T11:00:00","ND","ND","ND","ND","ND","ND","ND","ND","ND"],
    [8474,"2015-01-18T12:00:00","ND","ND","ND","ND","ND","ND","ND","ND","ND"],
    [8475,"2015-01-18T13:00:00","ND","ND","ND","ND","ND","ND","ND","ND","ND"],
    [8476,"2015-01-18T14:00:00","ND","ND","ND","ND","ND","ND","ND","ND","ND"],
    [8477,"2015-01-18T15:00:00","ND","ND","ND","ND","ND","ND","ND","ND","ND"],
    [8478,"2015-01-18T16:00:00","ND","ND","ND","ND","ND","ND","ND","ND","ND"],
    [8479,"2015-01-18T17:00:00","ND","ND","ND","ND","ND","ND","ND","ND","ND"],
    [8480,"2015-01-18T18:00:00","ND","ND","ND","ND","ND","ND","ND","ND","ND"],
    [8481,"2015-01-18T19:00:00","ND","ND","ND","ND","ND","ND","ND","ND","ND"],
    [8482,"2015-01-18T20:00:00","ND","ND","ND","ND","ND","ND","ND","ND","ND"],
    [8483,"2015-01-18T21:00:00","ND","ND","ND","ND","ND","ND","ND","ND","ND"],
    [8484,"2015-01-18T22:00:00","ND","ND","ND","ND","ND","ND","ND","ND","ND"],
    [8485,"2015-01-18T23:00:00","ND","ND","ND","ND","ND","ND","ND","ND","ND"],
    [8486,"2015-01-19T00:00:00","ND","ND","ND","ND","ND","ND","ND","ND","ND"],
    [8487,"2015-01-19T01:00:00","ND","ND","ND","ND","ND","ND","ND","ND","ND"],
    [8488,"2015-01-19T02:00:00","ND","ND","ND","ND","ND","ND","ND","ND","ND"],
    [8489,"2015-01-19T03:00:00","ND","ND","ND","ND","ND","ND","ND","ND","ND"],
    [8490,"2015-01-19T04:00:00","ND","ND","ND","ND","ND","ND","ND","ND","ND"],
    [8491,"2015-01-19T05:00:00","ND","ND","ND","ND","ND","ND","ND","ND","ND"],
    [8492,"2015-01-19T06:00:00","ND","ND","ND","ND","ND","ND","ND","ND","ND"],
    [8493,"2015-01-19T07:00:00","ND","ND","ND","ND","ND","ND","ND","ND","ND"],
    [8494,"2015-01-19T08:00:00","ND","ND","ND","ND","ND","ND","ND","ND","ND"],
    [8495,"2015-01-19T09:00:00","ND","ND","ND","ND","ND","ND","ND","ND","ND"],
    [8496,"2015-01-19T10:00:00","ND","ND","ND","ND","ND","ND","ND","ND","ND"],
    [8497,"2015-01-19T11:00:00","ND","ND","ND","ND","ND","ND","ND","ND","ND"],
    [8498,"2015-01-19T12:00:00","ND","ND","ND","ND","ND","ND","ND","ND","ND"],
    [8499,"2015-01-19T13:00:00","ND","ND","ND","ND","ND","ND","ND","ND","ND"],
    [8500,"2015-01-19T14:00:00","ND","ND","ND","ND","ND","ND","ND","ND","ND"],
    [8501,"2015-01-19T15:00:00","ND","ND","ND","ND","ND","ND","ND","ND","ND"],
    [8502,"2015-01-19T16:00:00","ND","ND","ND","ND","ND","ND","ND","ND","ND"],
    [8503,"2015-01-19T17:00:00","ND","ND","ND","ND","ND","ND","ND","ND","ND"],
    [8504,"2015-01-19T18:00:00","ND","ND","ND","ND","ND","ND","ND","ND","ND"],
    [8505,"2015-01-19T19:00:00","ND","ND","ND","ND","ND","ND","ND","ND","ND"],
    [8506,"2015-01-19T20:00:00","ND","ND","ND","ND","ND","ND","ND","ND","ND"],
    [8507,"2015-01-19T21:00:00","ND","ND","ND","ND","ND","ND","ND","ND","ND"],
    [8508,"2015-01-19T22:00:00","ND","ND","ND","ND","ND","ND","ND","ND","ND"],
    [8509,"2015-01-19T23:00:00","ND","ND","ND","ND","ND","ND","ND","ND","ND"],
    [8510,"2015-01-20T00:00:00","ND","ND","ND","ND","ND","ND","ND","ND","ND"],
    [8511,"2015-01-20T01:00:00","ND","ND","ND","ND","ND","ND","ND","ND","ND"],
    [8512,"2015-01-20T02:00:00","ND","ND","ND","ND","ND","ND","ND","ND","ND"],
    [8513,"2015-01-20T03:00:00","ND","ND","ND","ND","ND","ND","ND","ND","ND"],
    [8514,"2015-01-20T04:00:00","ND","ND","ND","ND","ND","ND","ND","ND","ND"],
    [8515,"2015-01-20T05:00:00","ND","ND","ND","ND","ND","ND","ND","ND","ND"],
    [8516,"2015-01-20T06:00:00","ND","ND","ND","ND","ND","ND","ND","ND","ND"],
    [8517,"2015-01-20T07:00:00","ND","ND","ND","ND","ND","ND","ND","ND","ND"],
    [8518,"2015-01-20T08:00:00","ND","ND","ND","ND","ND","ND","ND","ND","ND"],
    [8519,"2015-01-20T09:00:00","ND","ND","ND","ND","ND","ND","ND","ND","ND"],
    [8520,"2015-01-20T10:00:00","ND","ND","ND","ND","ND","ND","ND","ND","ND"],
    [8521,"2015-01-20T11:00:00","ND","ND","ND","ND","ND","ND","ND","ND","ND"],
    [8522,"2015-01-20T12:00:00","ND","ND","ND","ND","ND","ND","ND","ND","ND"],
    [8523,"2015-01-20T13:00:00","ND","ND","ND","ND","ND","ND","ND","ND","ND"],
    [8524,"2015-01-20T14:00:00","ND","ND","ND","ND","ND","ND","ND","ND","ND"],
    [8525,"2015-01-20T15:00:00","ND","ND","ND","ND","ND","ND","ND","ND","ND"],
    [8526,"2015-01-20T16:00:00","ND","ND","ND","ND","ND","ND","ND","ND","ND"],
    [8527,"2015-01-20T17:00:00","ND","ND","ND","ND","ND","ND","ND","ND","ND"],
    [8528,"2015-01-20T18:00:00","ND","ND","ND","ND","ND","ND","ND","ND","ND"],
    [8529,"2015-01-20T19:00:00","ND","ND","ND","ND","ND","ND","ND","ND","ND"],
    [8530,"2015-01-20T20:00:00","ND","ND","ND","ND","ND","ND","ND","ND","ND"],
    [8531,"2015-01-20T21:00:00","ND","ND","ND","ND","ND","ND","ND","ND","ND"],
    [8532,"2015-01-20T22:00:00","ND","ND","ND","ND","ND","ND","ND","ND","ND"],
    [8533,"2015-01-20T23:00:00","ND","ND","ND","ND","ND","ND","ND","ND","ND"],
    [8534,"2015-01-21T00:00:00","ND","ND","ND","ND","ND","ND","ND","ND","ND"],
    [8535,"2015-01-21T01:00:00","ND","ND","ND","ND","ND","ND","ND","ND","ND"],
    [8536,"2015-01-21T02:00:00","ND","ND","ND","ND","ND","ND","ND","ND","ND"],
    [8537,"2015-01-21T03:00:00","ND","ND","ND","ND","ND","ND","ND","ND","ND"],
    [8538,"2015-01-21T04:00:00","ND","ND","ND","ND","ND","ND","ND","ND","ND"],
    [8539,"2015-01-21T05:00:00","ND","ND","ND","ND","ND","ND","ND","ND","ND"],
    [8540,"2015-01-21T06:00:00","ND","ND","ND","ND","ND","ND","ND","ND","ND"],
    [8541,"2015-01-21T07:00:00","ND","ND","ND","ND","ND","ND","ND","ND","ND"],
    [8542,"2015-01-21T08:00:00","ND","ND","ND","ND","ND","ND","ND","ND","ND"],
    [8543,"2015-01-21T09:00:00","ND","ND","ND","ND","ND","ND","ND","ND","ND"],
    [8544,"2015-01-21T10:00:00","ND","ND","ND","ND","ND","ND","ND","ND","ND"],
    [8545,"2015-01-21T11:00:00","ND","ND","ND","ND","ND","ND","ND","ND","ND"],
    [8546,"2015-01-21T12:00:00","ND","ND","ND","ND","ND","ND","ND","ND","ND"],
    [8547,"2015-01-21T13:00:00","ND","ND","ND","ND","ND","ND","ND","ND","ND"],
    [8548,"2015-01-21T14:00:00","ND","ND","ND","ND","ND","ND","ND","ND","ND"],
    [8549,"2015-01-21T15:00:00","ND","ND","ND","ND","ND","ND","ND","ND","ND"],
    [8550,"2015-01-21T16:00:00","ND","ND","ND","ND","ND","ND","ND","ND","ND"],
    [8551,"2015-01-21T17:00:00","ND","ND","ND","ND","ND","ND","ND","ND","ND"],
    [8552,"2015-01-21T18:00:00","ND","ND","ND","ND","ND","ND","ND","ND","ND"],
    [8553,"2015-01-21T19:00:00","ND","ND","ND","ND","ND","ND","ND","ND","ND"],
    [8554,"2015-01-21T20:00:00","ND","ND","ND","ND","ND","ND","ND","ND","ND"],
    [8555,"2015-01-21T21:00:00","ND","ND","ND","ND","ND","ND","ND","ND","ND"],
    [8556,"2015-01-21T22:00:00","ND","ND","ND","ND","ND","ND","ND","ND","ND"],
    [8557,"2015-01-21T23:00:00","ND","ND","ND","ND","ND","ND","ND","ND","ND"],
    [8558,"2015-01-22T00:00:00","ND","ND","ND","ND","ND","ND","ND","ND","ND"],
    [8559,"2015-01-22T01:00:00","ND","ND","ND","ND","ND","ND","ND","ND","ND"],
    [8560,"2015-01-22T02:00:00","ND","ND","ND","ND","ND","ND","ND","ND","ND"],
    [8561,"2015-01-22T03:00:00","ND","ND","ND","ND","ND","ND","ND","ND","ND"],
    [8562,"2015-01-22T04:00:00","ND","ND","ND","ND","ND","ND","ND","ND","ND"],
    [8563,"2015-01-22T05:00:00","ND","ND","ND","ND","ND","ND","ND","ND","ND"],
    [8564,"2015-01-22T06:00:00","ND","ND","ND","ND","ND","ND","ND","ND","ND"],
    [8565,"2015-01-22T07:00:00","ND","ND","ND","ND","ND","ND","ND","ND","ND"],
    [8566,"2015-01-22T08:00:00","ND","ND","ND","ND","ND","ND","ND","ND","ND"],
    [8567,"2015-01-22T09:00:00","ND","ND","ND","ND","ND","ND","ND","ND","ND"],
    [8568,"2015-01-22T10:00:00","ND","ND","ND","ND","ND","ND","ND","ND","ND"],
    [8569,"2015-01-22T11:00:00","ND","ND","ND","ND","ND","ND","ND","ND","ND"],
    [8570,"2015-01-22T12:00:00","ND","ND","ND","ND","ND","ND","ND","ND","ND"],
    [8571,"2015-01-22T13:00:00","ND","ND","ND","ND","ND","ND","ND","ND","ND"],
    [8572,"2015-01-22T14:00:00","ND","ND","ND","ND","ND","ND","ND","ND","ND"],
    [8573,"2015-01-22T15:00:00","ND","ND","ND","ND","ND","ND","ND","ND","ND"],
    [8574,"2015-01-22T16:00:00","ND","ND","ND","ND","ND","ND","ND","ND","ND"],
    [8575,"2015-01-22T17:00:00","ND","ND","ND","ND","ND","ND","ND","ND","ND"],
    [8576,"2015-01-22T18:00:00","ND","ND","ND","ND","ND","ND","ND","ND","ND"],
    [8577,"2015-01-22T19:00:00","ND","ND","ND","ND","ND","ND","ND","ND","ND"],
    [8578,"2015-01-22T20:00:00","ND","ND","ND","ND","ND","ND","ND","ND","ND"],
    [8579,"2015-01-22T21:00:00","ND","ND","ND","ND","ND","ND","ND","ND","ND"],
    [8580,"2015-01-22T22:00:00","ND","ND","ND","ND","ND","ND","ND","ND","ND"],
    [8581,"2015-01-22T23:00:00","ND","ND","ND","ND","ND","ND","ND","ND","ND"],
    [8582,"2015-01-23T00:00:00","ND","ND","ND","ND","ND","ND","ND","ND","ND"],
    [8583,"2015-01-23T01:00:00","ND","ND","ND","ND","ND","ND","ND","ND","ND"],
    [8584,"2015-01-23T02:00:00","ND","ND","ND","ND","ND","ND","ND","ND","ND"],
    [8585,"2015-01-23T03:00:00","ND","ND","ND","ND","ND","ND","ND","ND","ND"],
    [8586,"2015-01-23T04:00:00","ND","ND","ND","ND","ND","ND","ND","ND","ND"],
    [8587,"2015-01-23T05:00:00","ND","ND","ND","ND","ND","ND","ND","ND","ND"],
    [8588,"2015-01-23T06:00:00","ND","ND","ND","ND","ND","ND","ND","ND","ND"],
    [8589,"2015-01-23T07:00:00","ND","ND","ND","ND","ND","ND","ND","ND","ND"],
    [8590,"2015-01-23T08:00:00","ND","ND","ND","ND","ND","ND","ND","ND","ND"],
    [8591,"2015-01-23T09:00:00","ND","ND","ND","ND","ND","ND","ND","ND","ND"],
    [8592,"2015-01-23T10:00:00","ND","ND","ND","ND","ND","ND","ND","ND","ND"],
    [8593,"2015-01-23T11:00:00","ND","ND","ND","ND","ND","ND","ND","ND","ND"],
    [8594,"2015-01-23T12:00:00","ND","ND","ND","ND","ND","ND","ND","ND","ND"],
    [8595,"2015-01-23T13:00:00","ND","ND","ND","ND","ND","ND","ND","ND","ND"],
    [8596,"2015-01-23T14:00:00","ND","ND","ND","ND","ND","ND","ND","ND","ND"],
    [8597,"2015-01-23T15:00:00","ND","ND","ND","ND","ND","ND","ND","ND","ND"],
    [8598,"2015-01-23T16:00:00","ND","ND","ND","ND","ND","ND","ND","ND","ND"],
    [8599,"2015-01-23T17:00:00","ND","ND","ND","ND","ND","ND","ND","ND","ND"],
    [8600,"2015-01-23T18:00:00","ND","ND","ND","ND","ND","ND","ND","ND","ND"],
    [8601,"2015-01-23T19:00:00","ND","ND","ND","ND","ND","ND","ND","ND","ND"],
    [8602,"2015-01-23T20:00:00","ND","ND","ND","ND","ND","ND","ND","ND","ND"],
    [8603,"2015-01-23T21:00:00","ND","ND","ND","ND","ND","ND","ND","ND","ND"],
    [8604,"2015-01-23T22:00:00","ND","ND","ND","ND","ND","ND","ND","ND","ND"],
    [8605,"2015-01-23T23:00:00","ND","ND","ND","ND","ND","ND","ND","ND","ND"],
    [8606,"2015-01-24T00:00:00","ND","ND","ND","ND","ND","ND","ND","ND","ND"],
    [8607,"2015-01-24T01:00:00","ND","ND","ND","ND","ND","ND","ND","ND","ND"],
    [8608,"2015-01-24T02:00:00","ND","ND","ND","ND","ND","ND","ND","ND","ND"],
    [8609,"2015-01-24T03:00:00","ND","ND","ND","ND","ND","ND","ND","ND","ND"],
    [8610,"2015-01-24T04:00:00","ND","ND","ND","ND","ND","ND","ND","ND","ND"],
    [8611,"2015-01-24T05:00:00","ND","ND","ND","ND","ND","ND","ND","ND","ND"],
    [8612,"2015-01-24T06:00:00","ND","ND","ND","ND","ND","ND","ND","ND","ND"],
    [8613,"2015-01-24T07:00:00","ND","ND","ND","ND","ND","ND","ND","ND","ND"],
    [8614,"2015-01-24T08:00:00","ND","ND","ND","ND","ND","ND","ND","ND","ND"],
    [8615,"2015-01-24T09:00:00","ND","ND","ND","ND","ND","ND","ND","ND","ND"],
    [8616,"2015-01-24T10:00:00","ND","ND","ND","ND","ND","ND","ND","ND","ND"],
    [8617,"2015-01-24T11:00:00","ND","ND","ND","ND","ND","ND","ND","ND","ND"],
    [8618,"2015-01-24T12:00:00","ND","ND","ND","ND","ND","ND","ND","ND","ND"],
    [8619,"2015-01-24T13:00:00","ND","ND","ND","ND","ND","ND","ND","ND","ND"],
    [8620,"2015-01-24T14:00:00","ND","ND","ND","ND","ND","ND","ND","ND","ND"],
    [8621,"2015-01-24T15:00:00","ND","ND","ND","ND","ND","ND","ND","ND","ND"],
    [8622,"2015-01-24T16:00:00","ND","ND","ND","ND","ND","ND","ND","ND","ND"],
    [8623,"2015-01-24T17:00:00","ND","ND","ND","ND","ND","ND","ND","ND","ND"],
    [8624,"2015-01-24T18:00:00","ND","ND","ND","ND","ND","ND","ND","ND","ND"],
    [8625,"2015-01-24T19:00:00","ND","ND","ND","ND","ND","ND","ND","ND","ND"],
    [8626,"2015-01-24T20:00:00","ND","ND","ND","ND","ND","ND","ND","ND","ND"],
    [8627,"2015-01-24T21:00:00","ND","ND","ND","ND","ND","ND","ND","ND","ND"],
    [8628,"2015-01-24T22:00:00","ND","ND","ND","ND","ND","ND","ND","ND","ND"],
    [8629,"2015-01-24T23:00:00","ND","ND","ND","ND","ND","ND","ND","ND","ND"],
    [8630,"2015-01-25T00:00:00","ND","ND","ND","ND","ND","ND","ND","ND","ND"],
    [8631,"2015-01-25T01:00:00","ND","ND","ND","ND","ND","ND","ND","ND","ND"],
    [8632,"2015-01-25T02:00:00","ND","ND","ND","ND","ND","ND","ND","ND","ND"],
    [8633,"2015-01-25T03:00:00","ND","ND","ND","ND","ND","ND","ND","ND","ND"],
    [8634,"2015-01-25T04:00:00","ND","ND","ND","ND","ND","ND","ND","ND","ND"],
    [8635,"2015-01-25T05:00:00","ND","ND","ND","ND","ND","ND","ND","ND","ND"],
    [8636,"2015-01-25T06:00:00","ND","ND","ND","ND","ND","ND","ND","ND","ND"],
    [8637,"2015-01-25T07:00:00","ND","ND","ND","ND","ND","ND","ND","ND","ND"],
    [8638,"2015-01-25T08:00:00","ND","ND","ND","ND","ND","ND","ND","ND","ND"],
    [8639,"2015-01-25T09:00:00","ND","ND","ND","ND","ND","ND","ND","ND","ND"],
    [8640,"2015-01-25T10:00:00","ND","ND","ND","ND","ND","ND","ND","ND","ND"],
    [8641,"2015-01-25T11:00:00","ND","ND","ND","ND","ND","ND","ND","ND","ND"],
    [8642,"2015-01-25T12:00:00","ND","ND","ND","ND","ND","ND","ND","ND","ND"],
    [8643,"2015-01-25T13:00:00","ND","ND","ND","ND","ND","ND","ND","ND","ND"],
    [8644,"2015-01-25T14:00:00","ND","ND","ND","ND","ND","ND","ND","ND","ND"],
    [8645,"2015-01-25T15:00:00","ND","ND","ND","ND","ND","ND","ND","ND","ND"],
    [8646,"2015-01-25T16:00:00","ND","ND","ND","ND","ND","ND","ND","ND","ND"],
    [8647,"2015-01-25T17:00:00","ND","ND","ND","ND","ND","ND","ND","ND","ND"],
    [8648,"2015-01-25T18:00:00","ND","ND","ND","ND","ND","ND","ND","ND","ND"],
    [8649,"2015-01-25T19:00:00","ND","ND","ND","ND","ND","ND","ND","ND","ND"],
    [8650,"2015-01-25T20:00:00","ND","ND","ND","ND","ND","ND","ND","ND","ND"],
    [8651,"2015-01-25T21:00:00","ND","ND","ND","ND","ND","ND","ND","ND","ND"],
    [8652,"2015-01-25T22:00:00","ND","ND","ND","ND","ND","ND","ND","ND","ND"],
    [8653,"2015-01-25T23:00:00","ND","ND","ND","ND","ND","ND","ND","ND","ND"],
    [8654,"2015-01-26T00:00:00","ND","ND","ND","ND","ND","ND","ND","ND","ND"],
    [8655,"2015-01-26T01:00:00","ND","ND","ND","ND","ND","ND","ND","ND","ND"],
    [8656,"2015-01-26T02:00:00","ND","ND","ND","ND","ND","ND","ND","ND","ND"],
    [8657,"2015-01-26T03:00:00","ND","ND","ND","ND","ND","ND","ND","ND","ND"],
    [8658,"2015-01-26T04:00:00","ND","ND","ND","ND","ND","ND","ND","ND","ND"],
    [8659,"2015-01-26T05:00:00","ND","ND","ND","ND","ND","ND","ND","ND","ND"],
    [8660,"2015-01-26T06:00:00","ND","ND","ND","ND","ND","ND","ND","ND","ND"],
    [8661,"2015-01-26T07:00:00","ND","ND","ND","ND","ND","ND","ND","ND","ND"],
    [8662,"2015-01-26T08:00:00","ND","ND","ND","ND","ND","ND","ND","ND","ND"],
    [8663,"2015-01-26T09:00:00","ND","ND","ND","ND","ND","ND","ND","ND","ND"],
    [8664,"2015-01-26T10:00:00","ND","ND","ND","ND","ND","ND","ND","ND","ND"],
    [8665,"2015-01-26T11:00:00","ND","ND","ND","ND","ND","ND","ND","ND","ND"],
    [8666,"2015-01-26T12:00:00","ND","ND","ND","ND","ND","ND","ND","ND","ND"],
    [8667,"2015-01-26T13:00:00","ND","ND","ND","ND","ND","ND","ND","ND","ND"],
    [8668,"2015-01-26T14:00:00","ND","ND","ND","ND","ND","ND","ND","ND","ND"],
    [8669,"2015-01-26T15:00:00","ND","ND","ND","ND","ND","ND","ND","ND","ND"],
    [8670,"2015-01-26T16:00:00","ND","ND","ND","ND","ND","ND","ND","ND","ND"],
    [8671,"2015-01-26T17:00:00","ND","ND","ND","ND","ND","ND","ND","ND","ND"],
    [8672,"2015-01-26T18:00:00","ND","ND","ND","ND","ND","ND","ND","ND","ND"],
    [8673,"2015-01-26T19:00:00","ND","ND","ND","ND","ND","ND","ND","ND","ND"],
    [8674,"2015-01-26T20:00:00","ND","ND","ND","ND","ND","ND","ND","ND","ND"],
    [8675,"2015-01-26T21:00:00","ND","ND","ND","ND","ND","ND","ND","ND","ND"],
    [8676,"2015-01-26T22:00:00","ND","ND","ND","ND","ND","ND","ND","ND","ND"],
    [8677,"2015-01-26T23:00:00","ND","ND","ND","ND","ND","ND","ND","ND","ND"],
    [8678,"2015-01-27T00:00:00","ND","ND","ND","ND","ND","ND","ND","ND","ND"],
    [8679,"2015-01-27T01:00:00","ND","ND","ND","ND","ND","ND","ND","ND","ND"],
    [8680,"2015-01-27T02:00:00","ND","ND","ND","ND","ND","ND","ND","ND","ND"],
    [8681,"2015-01-27T03:00:00","ND","ND","ND","ND","ND","ND","ND","ND","ND"],
    [8682,"2015-01-27T04:00:00","ND","ND","ND","ND","ND","ND","ND","ND","ND"],
    [8683,"2015-01-27T05:00:00","ND","ND","ND","ND","ND","ND","ND","ND","ND"],
    [8684,"2015-01-27T06:00:00","ND","ND","ND","ND","ND","ND","ND","ND","ND"],
    [8685,"2015-01-27T07:00:00","ND","ND","ND","ND","ND","ND","ND","ND","ND"],
    [8686,"2015-01-27T08:00:00","ND","ND","ND","ND","ND","ND","ND","ND","ND"],
    [8687,"2015-01-27T09:00:00","ND","ND","ND","ND","ND","ND","ND","ND","ND"],
    [8688,"2015-01-27T10:00:00","ND","ND","ND","ND","ND","ND","ND","ND","ND"],
    [8689,"2015-01-27T11:00:00","ND","ND","ND","ND","ND","ND","ND","ND","ND"],
    [8690,"2015-01-27T12:00:00","ND","ND","ND","ND","ND","ND","ND","ND","ND"],
    [8691,"2015-01-27T13:00:00","ND","ND","ND","ND","ND","ND","ND","ND","ND"],
    [8692,"2015-01-27T14:00:00","ND","ND","ND","ND","ND","ND","ND","ND","ND"],
    [8693,"2015-01-27T15:00:00","ND","ND","ND","ND","ND","ND","ND","ND","ND"],
    [8694,"2015-01-27T16:00:00","ND","ND","ND","ND","ND","ND","ND","ND","ND"],
    [8695,"2015-01-27T17:00:00","ND","ND","ND","ND","ND","ND","ND","ND","ND"],
    [8696,"2015-01-27T18:00:00","ND","ND","ND","ND","ND","ND","ND","ND","ND"],
    [8697,"2015-01-27T19:00:00","ND","ND","ND","ND","ND","ND","ND","ND","ND"],
    [8698,"2015-01-27T20:00:00","ND","ND","ND","ND","ND","ND","ND","ND","ND"],
    [8699,"2015-01-27T21:00:00","ND","ND","ND","ND","ND","ND","ND","ND","ND"],
    [8700,"2015-01-27T22:00:00","ND","ND","ND","ND","ND","ND","ND","ND","ND"],
    [8701,"2015-01-27T23:00:00","ND","ND","ND","ND","ND","ND","ND","ND","ND"],
    [8702,"2015-01-28T00:00:00","ND","ND","ND","ND","ND","ND","ND","ND","ND"],
    [8703,"2015-01-28T01:00:00","ND","ND","ND","ND","ND","ND","ND","ND","ND"],
    [8704,"2015-01-28T02:00:00","ND","ND","ND","ND","ND","ND","ND","ND","ND"],
    [8705,"2015-01-28T03:00:00","ND","ND","ND","ND","ND","ND","ND","ND","ND"],
    [8706,"2015-01-28T04:00:00","ND","ND","ND","ND","ND","ND","ND","ND","ND"],
    [8707,"2015-01-28T05:00:00","ND","ND","ND","ND","ND","ND","ND","ND","ND"],
    [8708,"2015-01-28T06:00:00","ND","ND","ND","ND","ND","ND","ND","ND","ND"],
    [8709,"2015-01-28T07:00:00","ND","ND","ND","ND","ND","ND","ND","ND","ND"],
    [8710,"2015-01-28T08:00:00","ND","ND","ND","ND","ND","ND","ND","ND","ND"],
    [8711,"2015-01-28T09:00:00","ND","ND","ND","ND","ND","ND","ND","ND","ND"],
    [8712,"2015-01-28T10:00:00","ND","ND","ND","ND","ND","ND","ND","ND","ND"],
    [8713,"2015-01-28T11:00:00","ND","ND","ND","ND","ND","ND","ND","ND","ND"],
    [8714,"2015-01-28T12:00:00","ND","ND","ND","ND","ND","ND","ND","ND","ND"],
    [8715,"2015-01-28T13:00:00","ND","ND","ND","ND","ND","ND","ND","ND","ND"],
    [8716,"2015-01-28T14:00:00","ND","ND","ND","ND","ND","ND","ND","ND","ND"],
    [8717,"2015-01-28T15:00:00","ND","ND","ND","ND","ND","ND","ND","ND","ND"],
    [8718,"2015-01-28T16:00:00","ND","ND","ND","ND","ND","ND","ND","ND","ND"],
    [8719,"2015-01-28T17:00:00","ND","ND","ND","ND","ND","ND","ND","ND","ND"],
    [8720,"2015-01-28T18:00:00","ND","ND","ND","ND","ND","ND","ND","ND","ND"],
    [8721,"2015-01-28T19:00:00","ND","ND","ND","ND","ND","ND","ND","ND","ND"],
    [8722,"2015-01-28T20:00:00","ND","ND","ND","ND","ND","ND","ND","ND","ND"],
    [8723,"2015-01-28T21:00:00","ND","ND","ND","ND","ND","ND","ND","ND","ND"],
    [8724,"2015-01-28T22:00:00","ND","ND","ND","ND","ND","ND","ND","ND","ND"],
    [8725,"2015-01-28T23:00:00","ND","ND","ND","ND","ND","ND","ND","ND","ND"],
    [8726,"2015-01-29T00:00:00","ND","ND","ND","ND","ND","ND","ND","ND","ND"],
    [8727,"2015-01-29T01:00:00","ND","ND","ND","ND","ND","ND","ND","ND","ND"],
    [8728,"2015-01-29T02:00:00","ND","ND","ND","ND","ND","ND","ND","ND","ND"],
    [8729,"2015-01-29T03:00:00","ND","ND","ND","ND","ND","ND","ND","ND","ND"],
    [8730,"2015-01-29T04:00:00","ND","ND","ND","ND","ND","ND","ND","ND","ND"],
    [8731,"2015-01-29T05:00:00","ND","ND","ND","ND","ND","ND","ND","ND","ND"],
    [8732,"2015-01-29T06:00:00","ND","ND","ND","ND","ND","ND","ND","ND","ND"],
    [8733,"2015-01-29T07:00:00","ND","ND","ND","ND","ND","ND","ND","ND","ND"],
    [8734,"2015-01-29T08:00:00","ND","ND","ND","ND","ND","ND","ND","ND","ND"],
    [8735,"2015-01-29T09:00:00","ND","ND","ND","ND","ND","ND","ND","ND","ND"],
    [8736,"2015-01-29T10:00:00","ND","ND","ND","ND","ND","ND","ND","ND","ND"],
    [8737,"2015-01-29T11:00:00","ND","ND","ND","ND","ND","ND","ND","ND","ND"],
    [8738,"2015-01-29T12:00:00","ND","ND","ND","ND","ND","ND","ND","ND","ND"],
    [8739,"2015-01-29T13:00:00","ND","ND","ND","ND","ND","ND","ND","ND","ND"],
    [8740,"2015-01-29T14:00:00","ND","ND","ND","ND","ND","ND","ND","ND","ND"],
    [8741,"2015-01-29T15:00:00","ND","ND","ND","ND","ND","ND","ND","ND","ND"],
    [8742,"2015-01-29T16:00:00","ND","ND","ND","ND","ND","ND","ND","ND","ND"],
    [8743,"2015-01-29T17:00:00","ND","ND","ND","ND","ND","ND","ND","ND","ND"],
    [8744,"2015-01-29T18:00:00","ND","ND","ND","ND","ND","ND","ND","ND","ND"],
    [8745,"2015-01-29T19:00:00","ND","ND","ND","ND","ND","ND","ND","ND","ND"],
    [8746,"2015-01-29T20:00:00","ND","ND","ND","ND","ND","ND","ND","ND","ND"],
    [8747,"2015-01-29T21:00:00","ND","ND","ND","ND","ND","ND","ND","ND","ND"],
    [8748,"2015-01-29T22:00:00","ND","ND","ND","ND","ND","ND","ND","ND","ND"],
    [8749,"2015-01-29T23:00:00","ND","ND","ND","ND","ND","ND","ND","ND","ND"],
    [8750,"2015-01-30T00:00:00","ND","ND","ND","ND","ND","ND","ND","ND","ND"],
    [8751,"2015-01-30T01:00:00","ND","ND","ND","ND","ND","ND","ND","ND","ND"],
    [8752,"2015-01-30T02:00:00","ND","ND","ND","ND","ND","ND","ND","ND","ND"],
    [8753,"2015-01-30T03:00:00","ND","ND","ND","ND","ND","ND","ND","ND","ND"],
    [8754,"2015-01-30T04:00:00","ND","ND","ND","ND","ND","ND","ND","ND","ND"],
    [8755,"2015-01-30T05:00:00","ND","ND","ND","ND","ND","ND","ND","ND","ND"],
    [8756,"2015-01-30T06:00:00","ND","ND","ND","ND","ND","ND","ND","ND","ND"],
    [8757,"2015-01-30T07:00:00","ND","ND","ND","ND","ND","ND","ND","ND","ND"],
    [8758,"2015-01-30T08:00:00","ND","ND","ND","ND","ND","ND","ND","ND","ND"],
    [8759,"2015-01-30T09:00:00","ND","ND","ND","ND","ND","ND","ND","ND","ND"],
    [8760,"2015-01-30T10:00:00","ND","ND","ND","ND","ND","ND","ND","ND","ND"],
    [8761,"2015-01-30T11:00:00","ND","ND","ND","ND","ND","ND","ND","ND","ND"],
    [8762,"2015-01-30T12:00:00","ND","ND","ND","ND","ND","ND","ND","ND","ND"],
    [8763,"2015-01-30T13:00:00","ND","ND","ND","ND","ND","ND","ND","ND","ND"],
    [8764,"2015-01-30T14:00:00","ND","ND","ND","ND","ND","ND","ND","ND","ND"],
    [8765,"2015-01-30T15:00:00","ND","ND","ND","ND","ND","ND","ND","ND","ND"],
    [8766,"2015-01-30T16:00:00","ND","ND","ND","ND","ND","ND","ND","ND","ND"],
    [8767,"2015-01-30T17:00:00","ND","ND","ND","ND","ND","ND","ND","ND","ND"],
    [8768,"2015-01-30T18:00:00","ND","ND","ND","ND","ND","ND","ND","ND","ND"],
    [8769,"2015-01-30T19:00:00","ND","ND","ND","ND","ND","ND","ND","ND","ND"],
    [8770,"2015-01-30T20:00:00","ND","ND","ND","ND","ND","ND","ND","ND","ND"],
    [8771,"2015-01-30T21:00:00","ND","ND","ND","ND","ND","ND","ND","ND","ND"],
    [8772,"2015-01-30T22:00:00","ND","ND","ND","ND","ND","ND","ND","ND","ND"],
    [8773,"2015-01-30T23:00:00","ND","ND","ND","ND","ND","ND","ND","ND","ND"],
    [8774,"2015-01-31T00:00:00","ND","ND","ND","ND","ND","ND","ND","ND","ND"],
    [8775,"2015-01-31T01:00:00","ND","ND","ND","ND","ND","ND","ND","ND","ND"],
    [8776,"2015-01-31T02:00:00","ND","ND","ND","ND","ND","ND","ND","ND","ND"],
    [8777,"2015-01-31T03:00:00","ND","ND","ND","ND","ND","ND","ND","ND","ND"],
    [8778,"2015-01-31T04:00:00","ND","ND","ND","ND","ND","ND","ND","ND","ND"],
    [8779,"2015-01-31T05:00:00","ND","ND","ND","ND","ND","ND","ND","ND","ND"],
    [8780,"2015-01-31T06:00:00","ND","ND","ND","ND","ND","ND","ND","ND","ND"],
    [8781,"2015-01-31T07:00:00","ND","ND","ND","ND","ND","ND","ND","ND","ND"],
    [8782,"2015-01-31T08:00:00","ND","ND","ND","ND","ND","ND","ND","ND","ND"],
    [8783,"2015-01-31T09:00:00","ND","ND","ND","ND","ND","ND","ND","ND","ND"],
    [8784,"2015-01-31T10:00:00","ND","ND","ND","ND","ND","ND","ND","ND","ND"],
    [8785,"2015-01-31T11:00:00","ND","ND","ND","ND","ND","ND","ND","ND","ND"],
    [8786,"2015-01-31T12:00:00","ND","ND","ND","ND","ND","ND","ND","ND","ND"],
    [8787,"2015-01-31T13:00:00","ND","ND","ND","ND","ND","ND","ND","ND","ND"],
    [8788,"2015-01-31T14:00:00","ND","ND","ND","ND","ND","ND","ND","ND","ND"],
    [8789,"2015-01-31T15:00:00","ND","ND","ND","ND","ND","ND","ND","ND","ND"],
    [8790,"2015-01-31T16:00:00","ND","ND","ND","ND","ND","ND","ND","ND","ND"],
    [8791,"2015-01-31T17:00:00","ND","ND","ND","ND","ND","ND","ND","ND","ND"],
    [8792,"2015-01-31T18:00:00","ND","ND","ND","ND","ND","ND","ND","ND","ND"],
    [8793,"2015-01-31T19:00:00","ND","ND","ND","ND","ND","ND","ND","ND","ND"],
    [8794,"2015-01-31T20:00:00","ND","ND","ND","ND","ND","ND","ND","ND","ND"],
    [8795,"2015-01-31T21:00:00","ND","ND","ND","ND","ND","ND","ND","ND","ND"],
    [8796,"2015-01-31T22:00:00","ND","ND","ND","ND","ND","ND","ND","ND","ND"],
    [8797,"2015-01-31T23:00:00","ND","ND","ND","ND","ND","ND","ND","ND","ND"],
    [8798,"2015-02-01T00:00:00","ND","ND","ND","ND","ND","ND","ND","ND","ND"],
    [8799,"2015-02-01T01:00:00","ND","ND","ND","ND","ND","ND","ND","ND","ND"],
    [8800,"2015-02-01T02:00:00","ND","ND","ND","ND","ND","ND","ND","ND","ND"],
    [8801,"2015-02-01T03:00:00","ND","ND","ND","ND","ND","ND","ND","ND","ND"],
    [8802,"2015-02-01T04:00:00","ND","ND","ND","ND","ND","ND","ND","ND","ND"],
    [8803,"2015-02-01T05:00:00","ND","ND","ND","ND","ND","ND","ND","ND","ND"],
    [8804,"2015-02-01T06:00:00","ND","ND","ND","ND","ND","ND","ND","ND","ND"],
    [8805,"2015-02-01T07:00:00","ND","ND","ND","ND","ND","ND","ND","ND","ND"],
    [8806,"2015-02-01T08:00:00","ND","ND","ND","ND","ND","ND","ND","ND","ND"],
    [8807,"2015-02-01T09:00:00","ND","ND","ND","ND","ND","ND","ND","ND","ND"],
    [8808,"2015-02-01T10:00:00","ND","ND","ND","ND","ND","ND","ND","ND","ND"],
    [8809,"2015-02-01T11:00:00","ND","ND","ND","ND","ND","ND","ND","ND","ND"],
    [8810,"2015-02-01T12:00:00","ND","ND","ND","ND","ND","ND","ND","ND","ND"],
    [8811,"2015-02-01T13:00:00","ND","ND","ND","ND","ND","ND","ND","ND","ND"],
    [8812,"2015-02-01T14:00:00","ND","ND","ND","ND","ND","ND","ND","ND","ND"],
    [8813,"2015-02-01T15:00:00","ND","ND","ND","ND","ND","ND","ND","ND","ND"],
    [8814,"2015-02-01T16:00:00","ND","ND","ND","ND","ND","ND","ND","ND","ND"],
    [8815,"2015-02-01T17:00:00","ND","ND","ND","ND","ND","ND","ND","ND","ND"],
    [8816,"2015-02-01T18:00:00","ND","ND","ND","ND","ND","ND","ND","ND","ND"],
    [8817,"2015-02-01T19:00:00","ND","ND","ND","ND","ND","ND","ND","ND","ND"],
    [8818,"2015-02-01T20:00:00","ND","ND","ND","ND","ND","ND","ND","ND","ND"],
    [8819,"2015-02-01T21:00:00","ND","ND","ND","ND","ND","ND","ND","ND","ND"],
    [8820,"2015-02-01T22:00:00","ND","ND","ND","ND","ND","ND","ND","ND","ND"],
    [8821,"2015-02-01T23:00:00","ND","ND","ND","ND","ND","ND","ND","ND","ND"],
    [8822,"2015-02-02T00:00:00","ND","ND","ND","ND","ND","ND","ND","ND","ND"],
    [8823,"2015-02-02T01:00:00","ND","ND","ND","ND","ND","ND","ND","ND","ND"],
    [8824,"2015-02-02T02:00:00","ND","ND","ND","ND","ND","ND","ND","ND","ND"],
    [8825,"2015-02-02T03:00:00","ND","ND","ND","ND","ND","ND","ND","ND","ND"],
    [8826,"2015-02-02T04:00:00","ND","ND","ND","ND","ND","ND","ND","ND","ND"],
    [8827,"2015-02-02T05:00:00","ND","ND","ND","ND","ND","ND","ND","ND","ND"],
    [8828,"2015-02-02T06:00:00","ND","ND","ND","ND","ND","ND","ND","ND","ND"],
    [8829,"2015-02-02T07:00:00","ND","ND","ND","ND","ND","ND","ND","ND","ND"],
    [8830,"2015-02-02T08:00:00","ND","ND","ND","ND","ND","ND","ND","ND","ND"],
    [8831,"2015-02-02T09:00:00","ND","ND","ND","ND","ND","ND","ND","ND","ND"],
    [8832,"2015-02-02T10:00:00","ND","ND","ND","ND","ND","ND","ND","ND","ND"],
    [8833,"2015-02-02T11:00:00","ND","ND","ND","ND","ND","ND","ND","ND","ND"],
    [8834,"2015-02-02T12:00:00","ND","ND","ND","ND","ND","ND","ND","ND","ND"],
    [8835,"2015-02-02T13:00:00","ND","ND","ND","ND","ND","ND","ND","ND","ND"],
    [8836,"2015-02-02T14:00:00","ND","ND","ND","ND","ND","ND","ND","ND","ND"],
    [8837,"2015-02-02T15:00:00","ND","ND","ND","ND","ND","ND","ND","ND","ND"],
    [8838,"2015-02-02T16:00:00","ND","ND","ND","ND","ND","ND","ND","ND","ND"],
    [8839,"2015-02-02T17:00:00","ND","ND","ND","ND","ND","ND","ND","ND","ND"],
    [8840,"2015-02-02T18:00:00","ND","ND","ND","ND","ND","ND","ND","ND","ND"],
    [8841,"2015-02-02T19:00:00","ND","ND","ND","ND","ND","ND","ND","ND","ND"],
    [8842,"2015-02-02T20:00:00","ND","ND","ND","ND","ND","ND","ND","ND","ND"],
    [8843,"2015-02-02T21:00:00","ND","ND","ND","ND","ND","ND","ND","ND","ND"],
    [8844,"2015-02-02T22:00:00","ND","ND","ND","ND","ND","ND","ND","ND","ND"],
    [8845,"2015-02-02T23:00:00","ND","ND","ND","ND","ND","ND","ND","ND","ND"],
    [8846,"2015-02-03T00:00:00","ND","ND","ND","ND","ND","ND","ND","ND","ND"],
    [8847,"2015-02-03T01:00:00","ND","ND","ND","ND","ND","ND","ND","ND","ND"],
    [8848,"2015-02-03T02:00:00","ND","ND","ND","ND","ND","ND","ND","ND","ND"],
    [8849,"2015-02-03T03:00:00","ND","ND","ND","ND","ND","ND","ND","ND","ND"],
    [8850,"2015-02-03T04:00:00","ND","ND","ND","ND","ND","ND","ND","ND","ND"],
    [8851,"2015-02-03T05:00:00","ND","ND","ND","ND","ND","ND","ND","ND","ND"],
    [8852,"2015-02-03T06:00:00","ND","ND","ND","ND","ND","ND","ND","ND","ND"],
    [8853,"2015-02-03T07:00:00","ND","ND","ND","ND","ND","ND","ND","ND","ND"],
    [8854,"2015-02-03T08:00:00","ND","ND","ND","ND","ND","ND","ND","ND","ND"],
    [8855,"2015-02-03T09:00:00","ND","ND","ND","ND","ND","ND","ND","ND","ND"],
    [8856,"2015-02-03T10:00:00","ND","ND","ND","ND","ND","ND","ND","ND","ND"],
    [8857,"2015-02-03T11:00:00","ND","ND","ND","ND","ND","ND","ND","ND","ND"],
    [8858,"2015-02-03T12:00:00","ND","ND","ND","ND","ND","ND","ND","ND","ND"],
    [8859,"2015-02-03T13:00:00","ND","ND","ND","ND","ND","ND","ND","ND","ND"],
    [8860,"2015-02-03T14:00:00","ND","ND","ND","ND","ND","ND","ND","ND","ND"],
    [8861,"2015-02-03T15:00:00","ND","ND","ND","ND","ND","ND","ND","ND","ND"],
    [8862,"2015-02-03T16:00:00","ND","ND","ND","ND","ND","ND","ND","ND","ND"],
    [8863,"2015-02-03T17:00:00","ND","ND","ND","ND","ND","ND","ND","ND","ND"],
    [8864,"2015-02-03T18:00:00","ND","ND","ND","ND","ND","ND","ND","ND","ND"],
    [8865,"2015-02-03T19:00:00","ND","ND","ND","ND","ND","ND","ND","ND","ND"],
    [8866,"2015-02-03T20:00:00","ND","ND","ND","ND","ND","ND","ND","ND","ND"],
    [8867,"2015-02-03T21:00:00","ND","ND","ND","ND","ND","ND","ND","ND","ND"],
    [8868,"2015-02-03T22:00:00","ND","ND","ND","ND","ND","ND","ND","ND","ND"],
    [8869,"2015-02-03T23:00:00","ND","ND","ND","ND","ND","ND","ND","ND","ND"],
    [8870,"2015-02-04T00:00:00","ND","ND","ND","ND","ND","ND","ND","ND","ND"],
    [8871,"2015-02-04T01:00:00","ND","ND","ND","ND","ND","ND","ND","ND","ND"],
    [8872,"2015-02-04T02:00:00","ND","ND","ND","ND","ND","ND","ND","ND","ND"],
    [8873,"2015-02-04T03:00:00","ND","ND","ND","ND","ND","ND","ND","ND","ND"],
    [8874,"2015-02-04T04:00:00","ND","ND","ND","ND","ND","ND","ND","ND","ND"],
    [8875,"2015-02-04T05:00:00","ND","ND","ND","ND","ND","ND","ND","ND","ND"],
    [8876,"2015-02-04T06:00:00","ND","ND","ND","ND","ND","ND","ND","ND","ND"],
    [8877,"2015-02-04T07:00:00","ND","ND","ND","ND","ND","ND","ND","ND","ND"],
    [8878,"2015-02-04T08:00:00","ND","ND","ND","ND","ND","ND","ND","ND","ND"],
    [8879,"2015-02-04T09:00:00","ND","ND","ND","ND","ND","ND","ND","ND","ND"],
    [8880,"2015-02-04T10:00:00","ND","ND","ND","ND","ND","ND","ND","ND","ND"],
    [8881,"2015-02-04T11:00:00","ND","ND","ND","ND","ND","ND","ND","ND","ND"],
    [8882,"2015-02-04T12:00:00","ND","ND","ND","ND","ND","ND","ND","ND","ND"],
    [8883,"2015-02-04T13:00:00","ND","ND","ND","ND","ND","ND","ND","ND","ND"],
    [8884,"2015-02-04T14:00:00","ND","ND","ND","ND","ND","ND","ND","ND","ND"],
    [8885,"2015-02-04T15:00:00","ND","ND","ND","ND","ND","ND","ND","ND","ND"],
    [8886,"2015-02-04T16:00:00","ND","ND","ND","ND","ND","ND","ND","ND","ND"],
    [8887,"2015-02-04T17:00:00","ND","ND","ND","ND","ND","ND","ND","ND","ND"],
    [8888,"2015-02-04T18:00:00","ND","ND","ND","ND","ND","ND","ND","ND","ND"],
    [8889,"2015-02-04T19:00:00","ND","ND","ND","ND","ND","ND","ND","ND","ND"],
    [8890,"2015-02-04T20:00:00","ND","ND","ND","ND","ND","ND","ND","ND","ND"],
    [8891,"2015-02-04T21:00:00","ND","ND","ND","ND","ND","ND","ND","ND","ND"],
    [8892,"2015-02-04T22:00:00","ND","ND","ND","ND","ND","ND","ND","ND","ND"],
    [8893,"2015-02-04T23:00:00","ND","ND","ND","ND","ND","ND","ND","ND","ND"],
    [8894,"2015-02-05T00:00:00","ND","ND","ND","ND","ND","ND","ND","ND","ND"],
    [8895,"2015-02-05T01:00:00","ND","ND","ND","ND","ND","ND","ND","ND","ND"],
    [8896,"2015-02-05T02:00:00","ND","ND","ND","ND","ND","ND","ND","ND","ND"],
    [8897,"2015-02-05T03:00:00","ND","ND","ND","ND","ND","ND","ND","ND","ND"],
    [8898,"2015-02-05T04:00:00","ND","ND","ND","ND","ND","ND","ND","ND","ND"],
    [8899,"2015-02-05T05:00:00","ND","ND","ND","ND","ND","ND","ND","ND","ND"],
    [8900,"2015-02-05T06:00:00","ND","ND","ND","ND","ND","ND","ND","ND","ND"],
    [8901,"2015-02-05T07:00:00","ND","ND","ND","ND","ND","ND","ND","ND","ND"],
    [8902,"2015-02-05T08:00:00","ND","ND","ND","ND","ND","ND","ND","ND","ND"],
    [8903,"2015-02-05T09:00:00","ND","ND","ND","ND","ND","ND","ND","ND","ND"],
    [8904,"2015-02-05T10:00:00","ND","ND","ND","ND","ND","ND","ND","ND","ND"],
    [8905,"2015-02-05T11:00:00","ND","ND","ND","ND","ND","ND","ND","ND","ND"],
    [8906,"2015-02-05T12:00:00","ND","ND","ND","ND","ND","ND","ND","ND","ND"],
    [8907,"2015-02-05T13:00:00","ND","ND","ND","ND","ND","ND","ND","ND","ND"],
    [8908,"2015-02-05T14:00:00","ND","ND","ND","ND","ND","ND","ND","ND","ND"],
    [8909,"2015-02-05T15:00:00","ND","ND","ND","ND","ND","ND","ND","ND","ND"],
    [8910,"2015-02-05T16:00:00","ND","ND","ND","ND","ND","ND","ND","ND","ND"],
    [8911,"2015-02-05T17:00:00","ND","ND","ND","ND","ND","ND","ND","ND","ND"],
    [8912,"2015-02-05T18:00:00","ND","ND","ND","ND","ND","ND","ND","ND","ND"],
    [8913,"2015-02-05T19:00:00","ND","ND","ND","ND","ND","ND","ND","ND","ND"],
    [8914,"2015-02-05T20:00:00","ND","ND","ND","ND","ND","ND","ND","ND","ND"],
    [8915,"2015-02-05T21:00:00","ND","ND","ND","ND","ND","ND","ND","ND","ND"],
    [8916,"2015-02-05T22:00:00","ND","ND","ND","ND","ND","ND","ND","ND","ND"],
    [8917,"2015-02-05T23:00:00","ND","ND","ND","ND","ND","ND","ND","ND","ND"],
    [8918,"2015-02-06T00:00:00","ND","ND","ND","ND","ND","ND","ND","ND","ND"],
    [8919,"2015-02-06T01:00:00","ND","ND","ND","ND","ND","ND","ND","ND","ND"],
    [8920,"2015-02-06T02:00:00","ND","ND","ND","ND","ND","ND","ND","ND","ND"],
    [8921,"2015-02-06T03:00:00","ND","ND","ND","ND","ND","ND","ND","ND","ND"],
    [8922,"2015-02-06T04:00:00","ND","ND","ND","ND","ND","ND","ND","ND","ND"],
    [8923,"2015-02-06T05:00:00","ND","ND","ND","ND","ND","ND","ND","ND","ND"],
    [8924,"2015-02-06T06:00:00","ND","ND","ND","ND","ND","ND","ND","ND","ND"],
    [8925,"2015-02-06T07:00:00","ND","ND","ND","ND","ND","ND","ND","ND","ND"],
    [8926,"2015-02-06T08:00:00","ND","ND","ND","ND","ND","ND","ND","ND","ND"],
    [8927,"2015-02-06T09:00:00","ND","ND","ND","ND","ND","ND","ND","ND","ND"],
    [8928,"2015-02-06T10:00:00","ND","ND","ND","ND","ND","ND","ND","ND","ND"],
    [8929,"2015-02-06T11:00:00","ND","ND","ND","ND","ND","ND","ND","ND","ND"],
    [8930,"2015-02-06T12:00:00","ND","ND","ND","ND","ND","ND","ND","ND","ND"],
    [8931,"2015-02-06T13:00:00","ND","ND","ND","ND","ND","ND","ND","ND","ND"],
    [8932,"2015-02-06T14:00:00","ND","ND","ND","ND","ND","ND","ND","ND","ND"],
    [8933,"2015-02-06T15:00:00","ND","ND","ND","ND","ND","ND","ND","ND","ND"],
    [8934,"2015-02-06T16:00:00","ND","ND","ND","ND","ND","ND","ND","ND","ND"],
    [8935,"2015-02-06T17:00:00","ND","ND","ND","ND","ND","ND","ND","ND","ND"],
    [8936,"2015-02-06T18:00:00","ND","ND","ND","ND","ND","ND","ND","ND","ND"],
    [8937,"2015-02-06T19:00:00","ND","ND","ND","ND","ND","ND","ND","ND","ND"],
    [8938,"2015-02-06T20:00:00","ND","ND","ND","ND","ND","ND","ND","ND","ND"],
    [8939,"2015-02-06T21:00:00","ND","ND","ND","ND","ND","ND","ND","ND","ND"],
    [8940,"2015-02-06T22:00:00","ND","ND","ND","ND","ND","ND","ND","ND","ND"],
    [8941,"2015-02-06T23:00:00","ND","ND","ND","ND","ND","ND","ND","ND","ND"],
    [8942,"2015-02-07T00:00:00","ND","ND","ND","ND","ND","ND","ND","ND","ND"],
    [8943,"2015-02-07T01:00:00","ND","ND","ND","ND","ND","ND","ND","ND","ND"],
    [8944,"2015-02-07T02:00:00","ND","ND","ND","ND","ND","ND","ND","ND","ND"],
    [8945,"2015-02-07T03:00:00","ND","ND","ND","ND","ND","ND","ND","ND","ND"],
    [8946,"2015-02-07T04:00:00","ND","ND","ND","ND","ND","ND","ND","ND","ND"],
    [8947,"2015-02-07T05:00:00","ND","ND","ND","ND","ND","ND","ND","ND","ND"],
    [8948,"2015-02-07T06:00:00","ND","ND","ND","ND","ND","ND","ND","ND","ND"],
    [8949,"2015-02-07T07:00:00","ND","ND","ND","ND","ND","ND","ND","ND","ND"],
    [8950,"2015-02-07T08:00:00","ND","ND","ND","ND","ND","ND","ND","ND","ND"],
    [8951,"2015-02-07T09:00:00","ND","ND","ND","ND","ND","ND","ND","ND","ND"],
    [8952,"2015-02-07T10:00:00","ND","ND","ND","ND","ND","ND","ND","ND","ND"],
    [8953,"2015-02-07T11:00:00","ND","ND","ND","ND","ND","ND","ND","ND","ND"],
    [8954,"2015-02-07T12:00:00","ND","ND","ND","ND","ND","ND","ND","ND","ND"],
    [8955,"2015-02-07T13:00:00","ND","ND","ND","ND","ND","ND","ND","ND","ND"],
    [8956,"2015-02-07T14:00:00","ND","ND","ND","ND","ND","ND","ND","ND","ND"],
    [8957,"2015-02-07T15:00:00","ND","ND","ND","ND","ND","ND","ND","ND","ND"],
    [8958,"2015-02-07T16:00:00","ND","ND","ND","ND","ND","ND","ND","ND","ND"],
    [8959,"2015-02-07T17:00:00","ND","ND","ND","ND","ND","ND","ND","ND","ND"],
    [8960,"2015-02-07T18:00:00","ND","ND","ND","ND","ND","ND","ND","ND","ND"],
    [8961,"2015-02-07T19:00:00","ND","ND","ND","ND","ND","ND","ND","ND","ND"],
    [8962,"2015-02-07T20:00:00","ND","ND","ND","ND","ND","ND","ND","ND","ND"],
    [8963,"2015-02-07T21:00:00","ND","ND","ND","ND","ND","ND","ND","ND","ND"],
    [8964,"2015-02-07T22:00:00","ND","ND","ND","ND","ND","ND","ND","ND","ND"],
    [8965,"2015-02-07T23:00:00","ND","ND","ND","ND","ND","ND","ND","ND","ND"],
    [8966,"2015-02-08T00:00:00","ND","ND","ND","ND","ND","ND","ND","ND","ND"],
    [8967,"2015-02-08T01:00:00","ND","ND","ND","ND","ND","ND","ND","ND","ND"],
    [8968,"2015-02-08T02:00:00","ND","ND","ND","ND","ND","ND","ND","ND","ND"],
    [8969,"2015-02-08T03:00:00","ND","ND","ND","ND","ND","ND","ND","ND","ND"],
    [8970,"2015-02-08T04:00:00","ND","ND","ND","ND","ND","ND","ND","ND","ND"],
    [8971,"2015-02-08T05:00:00","ND","ND","ND","ND","ND","ND","ND","ND","ND"],
    [8972,"2015-02-08T06:00:00","ND","ND","ND","ND","ND","ND","ND","ND","ND"],
    [8973,"2015-02-08T07:00:00","ND","ND","ND","ND","ND","ND","ND","ND","ND"],
    [8974,"2015-02-08T08:00:00","ND","ND","ND","ND","ND","ND","ND","ND","ND"],
    [8975,"2015-02-08T09:00:00","ND","ND","ND","ND","ND","ND","ND","ND","ND"],
    [8976,"2015-02-08T10:00:00","ND","ND","ND","ND","ND","ND","ND","ND","ND"],
    [8977,"2015-02-08T11:00:00","ND","ND","ND","ND","ND","ND","ND","ND","ND"],
    [8978,"2015-02-08T12:00:00","ND","ND","ND","ND","ND","ND","ND","ND","ND"],
    [8979,"2015-02-08T13:00:00","ND","ND","ND","ND","ND","ND","ND","ND","ND"],
    [8980,"2015-02-08T14:00:00","ND","ND","ND","ND","ND","ND","ND","ND","ND"],
    [8981,"2015-02-08T15:00:00","ND","ND","ND","ND","ND","ND","ND","ND","ND"],
    [8982,"2015-02-08T16:00:00","ND","ND","ND","ND","ND","ND","ND","ND","ND"],
    [8983,"2015-02-08T17:00:00","ND","ND","ND","ND","ND","ND","ND","ND","ND"],
    [8984,"2015-02-08T18:00:00","ND","ND","ND","ND","ND","ND","ND","ND","ND"],
    [8985,"2015-02-08T19:00:00","ND","ND","ND","ND","ND","ND","ND","ND","ND"],
    [8986,"2015-02-08T20:00:00","ND","ND","ND","ND","ND","ND","ND","ND","ND"],
    [8987,"2015-02-08T21:00:00","ND","ND","ND","ND","ND","ND","ND","ND","ND"],
    [8988,"2015-02-08T22:00:00","ND","ND","ND","ND","ND","ND","ND","ND","ND"],
    [8989,"2015-02-08T23:00:00","ND","ND","ND","ND","ND","ND","ND","ND","ND"],
    [8990,"2015-02-09T00:00:00","ND","ND","ND","ND","ND","ND","ND","ND","ND"],
    [8991,"2015-02-09T01:00:00","ND","ND","ND","ND","ND","ND","ND","ND","ND"],
    [8992,"2015-02-09T02:00:00","ND","ND","ND","ND","ND","ND","ND","ND","ND"],
    [8993,"2015-02-09T03:00:00","ND","ND","ND","ND","ND","ND","ND","ND","ND"],
    [8994,"2015-02-09T04:00:00","ND","ND","ND","ND","ND","ND","ND","ND","ND"],
    [8995,"2015-02-09T05:00:00","ND","ND","ND","ND","ND","ND","ND","ND","ND"],
    [8996,"2015-02-09T06:00:00","ND","ND","ND","ND","ND","ND","ND","ND","ND"],
    [8997,"2015-02-09T07:00:00","ND","ND","ND","ND","ND","ND","ND","ND","ND"],
    [8998,"2015-02-09T08:00:00","ND","ND","ND","ND","ND","ND","ND","ND","ND"],
    [8999,"2015-02-09T09:00:00","ND","ND","ND","ND","ND","ND","ND","ND","ND"],
    [9000,"2015-02-09T10:00:00","ND","ND","ND","ND","ND","ND","ND","ND","ND"],
    [9001,"2015-02-09T11:00:00","ND","ND","ND","ND","ND","ND","ND","ND","ND"],
    [9002,"2015-02-09T12:00:00","ND","ND","ND","ND","ND","ND","ND","ND","ND"],
    [9003,"2015-02-09T13:00:00","ND","ND","ND","ND","ND","ND","ND","ND","ND"],
    [9004,"2015-02-09T14:00:00","ND","ND","ND","ND","ND","ND","ND","ND","ND"],
    [9005,"2015-02-09T15:00:00","ND","ND","ND","ND","ND","ND","ND","ND","ND"],
    [9006,"2015-02-09T16:00:00","ND","ND","ND","ND","ND","ND","ND","ND","ND"],
    [9007,"2015-02-09T17:00:00","ND","ND","ND","ND","ND","ND","ND","ND","ND"],
    [9008,"2015-02-09T18:00:00","ND","ND","ND","ND","ND","ND","ND","ND","ND"],
    [9009,"2015-02-09T19:00:00","ND","ND","ND","ND","ND","ND","ND","ND","ND"],
    [9010,"2015-02-09T20:00:00","ND","ND","ND","ND","ND","ND","ND","ND","ND"],
    [9011,"2015-02-09T21:00:00","ND","ND","ND","ND","ND","ND","ND","ND","ND"],
    [9012,"2015-02-09T22:00:00","ND","ND","ND","ND","ND","ND","ND","ND","ND"],
    [9013,"2015-02-09T23:00:00","ND","ND","ND","ND","ND","ND","ND","ND","ND"],
    [9014,"2015-02-10T00:00:00","ND","ND","ND","ND","ND","ND","ND","ND","ND"],
    [9015,"2015-02-10T01:00:00","ND","ND","ND","ND","ND","ND","ND","ND","ND"],
    [9016,"2015-02-10T02:00:00","ND","ND","ND","ND","ND","ND","ND","ND","ND"],
    [9017,"2015-02-10T03:00:00","ND","ND","ND","ND","ND","ND","ND","ND","ND"],
    [9018,"2015-02-10T04:00:00","ND","ND","ND","ND","ND","ND","ND","ND","ND"],
    [9019,"2015-02-10T05:00:00","ND","ND","ND","ND","ND","ND","ND","ND","ND"],
    [9020,"2015-02-10T06:00:00","ND","ND","ND","ND","ND","ND","ND","ND","ND"],
    [9021,"2015-02-10T07:00:00","ND","ND","ND","ND","ND","ND","ND","ND","ND"],
    [9022,"2015-02-10T08:00:00","ND","ND","ND","ND","ND","ND","ND","ND","ND"],
    [9023,"2015-02-10T09:00:00","ND","ND","ND","ND","ND","ND","ND","ND","ND"],
    [9024,"2015-02-10T10:00:00","ND","ND","ND","ND","ND","ND","ND","ND","ND"],
    [9025,"2015-02-10T11:00:00","ND","ND","ND","ND","ND","ND","ND","ND","ND"],
    [9026,"2015-02-10T12:00:00","ND","ND","ND","ND","ND","ND","ND","ND","ND"],
    [9027,"2015-02-10T13:00:00","ND","ND","ND","ND","ND","ND","ND","ND","ND"],
    [9028,"2015-02-10T14:00:00","ND","ND","ND","ND","ND","ND","ND","ND","ND"],
    [9029,"2015-02-10T15:00:00","ND","ND","ND","ND","ND","ND","ND","ND","ND"],
    [9030,"2015-02-10T16:00:00","ND","ND","ND","ND","ND","ND","ND","ND","ND"],
    [9031,"2015-02-10T17:00:00","ND","ND","ND","ND","ND","ND","ND","ND","ND"],
    [9032,"2015-02-10T18:00:00","ND","ND","ND","ND","ND","ND","ND","ND","ND"],
    [9033,"2015-02-10T19:00:00","ND","ND","ND","ND","ND","ND","ND","ND","ND"],
    [9034,"2015-02-10T20:00:00","ND","ND","ND","ND","ND","ND","ND","ND","ND"],
    [9035,"2015-02-10T21:00:00","ND","ND","ND","ND","ND","ND","ND","ND","ND"],
    [9036,"2015-02-10T22:00:00","ND","ND","ND","ND","ND","ND","ND","ND","ND"],
    [9037,"2015-02-10T23:00:00","ND","ND","ND","ND","ND","ND","ND","ND","ND"],
    [9038,"2015-02-11T00:00:00","ND","ND","ND","ND","ND","ND","ND","ND","ND"],
    [9039,"2015-02-11T01:00:00","ND","ND","ND","ND","ND","ND","ND","ND","ND"],
    [9040,"2015-02-11T02:00:00","ND","ND","ND","ND","ND","ND","ND","ND","ND"],
    [9041,"2015-02-11T03:00:00","ND","ND","ND","ND","ND","ND","ND","ND","ND"],
    [9042,"2015-02-11T04:00:00","ND","ND","ND","ND","ND","ND","ND","ND","ND"],
    [9043,"2015-02-11T05:00:00","ND","ND","ND","ND","ND","ND","ND","ND","ND"],
    [9044,"2015-02-11T06:00:00","ND","ND","ND","ND","ND","ND","ND","ND","ND"],
    [9045,"2015-02-11T07:00:00","ND","ND","ND","ND","ND","ND","ND","ND","ND"],
    [9046,"2015-02-11T08:00:00","ND","ND","ND","ND","ND","ND","ND","ND","ND"],
    [9047,"2015-02-11T09:00:00","ND","ND","ND","ND","ND","ND","ND","ND","ND"],
    [9048,"2015-02-11T10:00:00","ND","ND","ND","ND","ND","ND","ND","ND","ND"],
    [9049,"2015-02-11T11:00:00","ND","ND","ND","ND","ND","ND","ND","ND","ND"],
    [9050,"2015-02-11T12:00:00","ND","ND","ND","ND","ND","ND","ND","ND","ND"],
    [9051,"2015-02-11T13:00:00","ND","ND","ND","ND","ND","ND","ND","ND","ND"],
    [9052,"2015-02-11T14:00:00","ND","ND","ND","ND","ND","ND","ND","ND","ND"],
    [9053,"2015-02-11T15:00:00","ND","ND","ND","ND","ND","ND","ND","ND","ND"],
    [9054,"2015-02-11T16:00:00","ND","ND","ND","ND","ND","ND","ND","ND","ND"],
    [9055,"2015-02-11T17:00:00","ND","ND","ND","ND","ND","ND","ND","ND","ND"],
    [9056,"2015-02-11T18:00:00","ND","ND","ND","ND","ND","ND","ND","ND","ND"],
    [9057,"2015-02-11T19:00:00","ND","ND","ND","ND","ND","ND","ND","ND","ND"],
    [9058,"2015-02-11T20:00:00","ND","ND","ND","ND","ND","ND","ND","ND","ND"],
    [9059,"2015-02-11T21:00:00","ND","ND","ND","ND","ND","ND","ND","ND","ND"],
    [9060,"2015-02-11T22:00:00","ND","ND","ND","ND","ND","ND","ND","ND","ND"],
    [9061,"2015-02-11T23:00:00","ND","ND","ND","ND","ND","ND","ND","ND","ND"],
    [9062,"2015-02-12T00:00:00","ND","ND","ND","ND","ND","ND","ND","ND","ND"],
    [9063,"2015-02-12T01:00:00","ND","ND","ND","ND","ND","ND","ND","ND","ND"],
    [9064,"2015-02-12T02:00:00","ND","ND","ND","ND","ND","ND","ND","ND","ND"],
    [9065,"2015-02-12T03:00:00","ND","ND","ND","ND","ND","ND","ND","ND","ND"],
    [9066,"2015-02-12T04:00:00","ND","ND","ND","ND","ND","ND","ND","ND","ND"],
    [9067,"2015-02-12T05:00:00","ND","ND","ND","ND","ND","ND","ND","ND","ND"],
    [9068,"2015-02-12T06:00:00","ND","ND","ND","ND","ND","ND","ND","ND","ND"],
    [9069,"2015-02-12T07:00:00","ND","ND","ND","ND","ND","ND","ND","ND","ND"],
    [9070,"2015-02-12T08:00:00","ND","ND","ND","ND","ND","ND","ND","ND","ND"],
    [9071,"2015-02-12T09:00:00","ND","ND","ND","ND","ND","ND","ND","ND","ND"],
    [9072,"2015-02-12T10:00:00","ND","ND","ND","ND","ND","ND","ND","ND","ND"],
    [9073,"2015-02-12T11:00:00","ND","ND","ND","ND","ND","ND","ND","ND","ND"],
    [9074,"2015-02-12T12:00:00","ND","ND","ND","ND","ND","ND","ND","ND","ND"],
    [9075,"2015-02-12T13:00:00","ND","ND","ND","ND","ND","ND","ND","ND","ND"],
    [9076,"2015-02-12T14:00:00","ND","ND","ND","ND","ND","ND","ND","ND","ND"],
    [9077,"2015-02-12T15:00:00","ND","ND","ND","ND","ND","ND","ND","ND","ND"],
    [9078,"2015-02-12T16:00:00","ND","ND","ND","ND","ND","ND","ND","ND","ND"],
    [9079,"2015-02-12T17:00:00","ND","ND","ND","ND","ND","ND","ND","ND","ND"],
    [9080,"2015-02-12T18:00:00","ND","ND","ND","ND","ND","ND","ND","ND","ND"],
    [9081,"2015-02-12T19:00:00","ND","ND","ND","ND","ND","ND","ND","ND","ND"],
    [9082,"2015-02-12T20:00:00","ND","ND","ND","ND","ND","ND","ND","ND","ND"],
    [9083,"2015-02-12T21:00:00","ND","ND","ND","ND","ND","ND","ND","ND","ND"],
    [9084,"2015-02-12T22:00:00","ND","ND","ND","ND","ND","ND","ND","ND","ND"],
    [9085,"2015-02-12T23:00:00","ND","ND","ND","ND","ND","ND","ND","ND","ND"],
    [9086,"2015-02-13T00:00:00","ND","ND","ND","ND","ND","ND","ND","ND","ND"],
    [9087,"2015-02-13T01:00:00","ND","ND","ND","ND","ND","ND","ND","ND","ND"],
    [9088,"2015-02-13T02:00:00","ND","ND","ND","ND","ND","ND","ND","ND","ND"],
    [9089,"2015-02-13T03:00:00","ND","ND","ND","ND","ND","ND","ND","ND","ND"],
    [9090,"2015-02-13T04:00:00","ND","ND","ND","ND","ND","ND","ND","ND","ND"],
    [9091,"2015-02-13T05:00:00","ND","ND","ND","ND","ND","ND","ND","ND","ND"],
    [9092,"2015-02-13T06:00:00","ND","ND","ND","ND","ND","ND","ND","ND","ND"],
    [9093,"2015-02-13T07:00:00","ND","ND","ND","ND","ND","ND","ND","ND","ND"],
    [9094,"2015-02-13T08:00:00","ND","ND","ND","ND","ND","ND","ND","ND","ND"],
    [9095,"2015-02-13T09:00:00","ND","ND","ND","ND","ND","ND","ND","ND","ND"],
    [9096,"2015-02-13T10:00:00","ND","ND","ND","ND","ND","ND","ND","ND","ND"],
    [9097,"2015-02-13T11:00:00","ND","ND","ND","ND","ND","ND","ND","ND","ND"],
    [9098,"2015-02-13T12:00:00","ND","ND","ND","ND","ND","ND","ND","ND","ND"],
    [9099,"2015-02-13T13:00:00","ND","ND","ND","ND","ND","ND","ND","ND","ND"],
    [9100,"2015-02-13T14:00:00","ND","ND","ND","ND","ND","ND","ND","ND","ND"],
    [9101,"2015-02-13T15:00:00","ND","ND","ND","ND","ND","ND","ND","ND","ND"],
    [9102,"2015-02-13T16:00:00","ND","ND","ND","ND","ND","ND","ND","ND","ND"],
    [9103,"2015-02-13T17:00:00","ND","ND","ND","ND","ND","ND","ND","ND","ND"],
    [9104,"2015-02-13T18:00:00","ND","ND","ND","ND","ND","ND","ND","ND","ND"],
    [9105,"2015-02-13T19:00:00","ND","ND","ND","ND","ND","ND","ND","ND","ND"],
    [9106,"2015-02-13T20:00:00","ND","ND","ND","ND","ND","ND","ND","ND","ND"],
    [9107,"2015-02-13T21:00:00","ND","ND","ND","ND","ND","ND","ND","ND","ND"],
    [9108,"2015-02-13T22:00:00","ND","ND","ND","ND","ND","ND","ND","ND","ND"],
    [9109,"2015-02-13T23:00:00","ND","ND","ND","ND","ND","ND","ND","ND","ND"],
    [9110,"2015-02-14T00:00:00","ND","ND","ND","ND","ND","ND","ND","ND","ND"],
    [9111,"2015-02-14T01:00:00","ND","ND","ND","ND","ND","ND","ND","ND","ND"],
    [9112,"2015-02-14T02:00:00","ND","ND","ND","ND","ND","ND","ND","ND","ND"],
    [9113,"2015-02-14T03:00:00","ND","ND","ND","ND","ND","ND","ND","ND","ND"],
    [9114,"2015-02-14T04:00:00","ND","ND","ND","ND","ND","ND","ND","ND","ND"],
    [9115,"2015-02-14T05:00:00","ND","ND","ND","ND","ND","ND","ND","ND","ND"],
    [9116,"2015-02-14T06:00:00","ND","ND","ND","ND","ND","ND","ND","ND","ND"],
    [9117,"2015-02-14T07:00:00","ND","ND","ND","ND","ND","ND","ND","ND","ND"],
    [9118,"2015-02-14T08:00:00","ND","ND","ND","ND","ND","ND","ND","ND","ND"],
    [9119,"2015-02-14T09:00:00","ND","ND","ND","ND","ND","ND","ND","ND","ND"],
    [9120,"2015-02-14T10:00:00","ND","ND","ND","ND","ND","ND","ND","ND","ND"],
    [9121,"2015-02-14T11:00:00","ND","ND","ND","ND","ND","ND","ND","ND","ND"],
    [9122,"2015-02-14T12:00:00","ND","ND","ND","ND","ND","ND","ND","ND","ND"],
    [9123,"2015-02-14T13:00:00","ND","ND","ND","ND","ND","ND","ND","ND","ND"],
    [9124,"2015-02-14T14:00:00","ND","ND","ND","ND","ND","ND","ND","ND","ND"],
    [9125,"2015-02-14T15:00:00","ND","ND","ND","ND","ND","ND","ND","ND","ND"],
    [9126,"2015-02-14T16:00:00","ND","ND","ND","ND","ND","ND","ND","ND","ND"],
    [9127,"2015-02-14T17:00:00","ND","ND","ND","ND","ND","ND","ND","ND","ND"],
    [9128,"2015-02-14T18:00:00","ND","ND","ND","ND","ND","ND","ND","ND","ND"],
    [9129,"2015-02-14T19:00:00","ND","ND","ND","ND","ND","ND","ND","ND","ND"],
    [9130,"2015-02-14T20:00:00","ND","ND","ND","ND","ND","ND","ND","ND","ND"],
    [9131,"2015-02-14T21:00:00","ND","ND","ND","ND","ND","ND","ND","ND","ND"],
    [9132,"2015-02-14T22:00:00","ND","ND","ND","ND","ND","ND","ND","ND","ND"],
    [9133,"2015-02-14T23:00:00","ND","ND","ND","ND","ND","ND","ND","ND","ND"],
    [9134,"2015-02-15T00:00:00","ND","ND","ND","ND","ND","ND","ND","ND","ND"],
    [9135,"2015-02-15T01:00:00","ND","ND","ND","ND","ND","ND","ND","ND","ND"],
    [9136,"2015-02-15T02:00:00","ND","ND","ND","ND","ND","ND","ND","ND","ND"],
    [9137,"2015-02-15T03:00:00","ND","ND","ND","ND","ND","ND","ND","ND","ND"],
    [9138,"2015-02-15T04:00:00","ND","ND","ND","ND","ND","ND","ND","ND","ND"],
    [9139,"2015-02-15T05:00:00","ND","ND","ND","ND","ND","ND","ND","ND","ND"],
    [9140,"2015-02-15T06:00:00","ND","ND","ND","ND","ND","ND","ND","ND","ND"],
    [9141,"2015-02-15T07:00:00","ND","ND","ND","ND","ND","ND","ND","ND","ND"],
    [9142,"2015-02-15T08:00:00","ND","ND","ND","ND","ND","ND","ND","ND","ND"],
    [9143,"2015-02-15T09:00:00","ND","ND","ND","ND","ND","ND","ND","ND","ND"],
    [9144,"2015-02-15T10:00:00","ND","ND","ND","ND","ND","ND","ND","ND","ND"],
    [9145,"2015-02-15T11:00:00","ND","ND","ND","ND","ND","ND","ND","ND","ND"],
    [9146,"2015-02-15T12:00:00","ND","ND","ND","ND","ND","ND","ND","ND","ND"],
    [9147,"2015-02-15T13:00:00","ND","ND","ND","ND","ND","ND","ND","ND","ND"],
    [9148,"2015-02-15T14:00:00","ND","ND","ND","ND","ND","ND","ND","ND","ND"],
    [9149,"2015-02-15T15:00:00","ND","ND","ND","ND","ND","ND","ND","ND","ND"],
    [9150,"2015-02-15T16:00:00","ND","ND","ND","ND","ND","ND","ND","ND","ND"],
    [9151,"2015-02-15T17:00:00","ND","ND","ND","ND","ND","ND","ND","ND","ND"],
    [9152,"2015-02-15T18:00:00","ND","ND","ND","ND","ND","ND","ND","ND","ND"],
    [9153,"2015-02-15T19:00:00","ND","ND","ND","ND","ND","ND","ND","ND","ND"],
    [9154,"2015-02-15T20:00:00","ND","ND","ND","ND","ND","ND","ND","ND","ND"],
    [9155,"2015-02-15T21:00:00","ND","ND","ND","ND","ND","ND","ND","ND","ND"],
    [9156,"2015-02-15T22:00:00","ND","ND","ND","ND","ND","ND","ND","ND","ND"],
    [9157,"2015-02-15T23:00:00","ND","ND","ND","ND","ND","ND","ND","ND","ND"],
    [9158,"2015-02-16T00:00:00","ND","ND","ND","ND","ND","ND","ND","ND","ND"],
    [9159,"2015-02-16T01:00:00","ND","ND","ND","ND","ND","ND","ND","ND","ND"],
    [9160,"2015-02-16T02:00:00","ND","ND","ND","ND","ND","ND","ND","ND","ND"],
    [9161,"2015-02-16T03:00:00","ND","ND","ND","ND","ND","ND","ND","ND","ND"],
    [9162,"2015-02-16T04:00:00","ND","ND","ND","ND","ND","ND","ND","ND","ND"],
    [9163,"2015-02-16T05:00:00","ND","ND","ND","ND","ND","ND","ND","ND","ND"],
    [9164,"2015-02-16T06:00:00","ND","ND","ND","ND","ND","ND","ND","ND","ND"],
    [9165,"2015-02-16T07:00:00","ND","ND","ND","ND","ND","ND","ND","ND","ND"],
    [9166,"2015-02-16T08:00:00","ND","ND","ND","ND","ND","ND","ND","ND","ND"],
    [9167,"2015-02-16T09:00:00","ND","ND","ND","ND","ND","ND","ND","ND","ND"],
    [9168,"2015-02-16T10:00:00","ND","ND","ND","ND","ND","ND","ND","ND","ND"],
    [9169,"2015-02-16T11:00:00","ND","ND","ND","ND","ND","ND","ND","ND","ND"],
    [9170,"2015-02-16T12:00:00","ND","ND","ND","ND","ND","ND","ND","ND","ND"],
    [9171,"2015-02-16T13:00:00","ND","ND","ND","ND","ND","ND","ND","ND","ND"],
    [9172,"2015-02-16T14:00:00","ND","ND","ND","ND","ND","ND","ND","ND","ND"],
    [9173,"2015-02-16T15:00:00","ND","ND","ND","ND","ND","ND","ND","ND","ND"],
    [9174,"2015-02-16T16:00:00","ND","ND","ND","ND","ND","ND","ND","ND","ND"],
    [9175,"2015-02-16T17:00:00","ND","ND","ND","ND","ND","ND","ND","ND","ND"],
    [9176,"2015-02-16T18:00:00","ND","ND","ND","ND","ND","ND","ND","ND","ND"],
    [9177,"2015-02-16T19:00:00","ND","ND","ND","ND","ND","ND","ND","ND","ND"],
    [9178,"2015-02-16T20:00:00","ND","ND","ND","ND","ND","ND","ND","ND","ND"],
    [9179,"2015-02-16T21:00:00","ND","ND","ND","ND","ND","ND","ND","ND","ND"],
    [9180,"2015-02-16T22:00:00","ND","ND","ND","ND","ND","ND","ND","ND","ND"],
    [9181,"2015-02-16T23:00:00","ND","ND","ND","ND","ND","ND","ND","ND","ND"],
    [9182,"2015-02-17T00:00:00","ND","ND","ND","ND","ND","ND","ND","ND","ND"],
    [9183,"2015-02-17T01:00:00","ND","ND","ND","ND","ND","ND","ND","ND","ND"],
    [9184,"2015-02-17T02:00:00","ND","ND","ND","ND","ND","ND","ND","ND","ND"],
    [9185,"2015-02-17T03:00:00","ND","ND","ND","ND","ND","ND","ND","ND","ND"],
    [9186,"2015-02-17T04:00:00","ND","ND","ND","ND","ND","ND","ND","ND","ND"],
    [9187,"2015-02-17T05:00:00","ND","ND","ND","ND","ND","ND","ND","ND","ND"],
    [9188,"2015-02-17T06:00:00","ND","ND","ND","ND","ND","ND","ND","ND","ND"],
    [9189,"2015-02-17T07:00:00","ND","ND","ND","ND","ND","ND","ND","ND","ND"],
    [9190,"2015-02-17T08:00:00","ND","ND","ND","ND","ND","ND","ND","ND","ND"],
    [9191,"2015-02-17T09:00:00","ND","ND","ND","ND","ND","ND","ND","ND","ND"],
    [9192,"2015-02-17T10:00:00","ND","ND","ND","ND","ND","ND","ND","ND","ND"],
    [9193,"2015-02-17T11:00:00","ND","ND","ND","ND","ND","ND","ND","ND","ND"],
    [9194,"2015-02-17T12:00:00","ND","ND","ND","ND","ND","ND","ND","ND","ND"],
    [9195,"2015-02-17T13:00:00","ND","ND","ND","ND","ND","ND","ND","ND","ND"],
    [9196,"2015-02-17T14:00:00","ND","ND","ND","ND","ND","ND","ND","ND","ND"],
    [9197,"2015-02-17T15:00:00","ND","ND","ND","ND","ND","ND","ND","ND","ND"],
    [9198,"2015-02-17T16:00:00","ND","ND","ND","ND","ND","ND","ND","ND","ND"],
    [9199,"2015-02-17T17:00:00","ND","ND","ND","ND","ND","ND","ND","ND","ND"],
    [9200,"2015-02-17T18:00:00","ND","ND","ND","ND","ND","ND","ND","ND","ND"],
    [9201,"2015-02-17T19:00:00","ND","ND","ND","ND","ND","ND","ND","ND","ND"],
    [9202,"2015-02-17T20:00:00","ND","ND","ND","ND","ND","ND","ND","ND","ND"],
    [9203,"2015-02-17T21:00:00","ND","ND","ND","ND","ND","ND","ND","ND","ND"],
    [9204,"2015-02-17T22:00:00","ND","ND","ND","ND","ND","ND","ND","ND","ND"],
    [9205,"2015-02-17T23:00:00","ND","ND","ND","ND","ND","ND","ND","ND","ND"],
    [9206,"2015-02-18T00:00:00","ND","ND","ND","ND","ND","ND","ND","ND","ND"],
    [9207,"2015-02-18T01:00:00","ND","ND","ND","ND","ND","ND","ND","ND","ND"],
    [9208,"2015-02-18T02:00:00","ND","ND","ND","ND","ND","ND","ND","ND","ND"],
    [9209,"2015-02-18T03:00:00","ND","ND","ND","ND","ND","ND","ND","ND","ND"],
    [9210,"2015-02-18T04:00:00","ND","ND","ND","ND","ND","ND","ND","ND","ND"],
    [9211,"2015-02-18T05:00:00","ND","ND","ND","ND","ND","ND","ND","ND","ND"],
    [9212,"2015-02-18T06:00:00","ND","ND","ND","ND","ND","ND","ND","ND","ND"],
    [9213,"2015-02-18T07:00:00","ND","ND","ND","ND","ND","ND","ND","ND","ND"],
    [9214,"2015-02-18T08:00:00","ND","ND","ND","ND","ND","ND","ND","ND","ND"],
    [9215,"2015-02-18T09:00:00","ND","ND","ND","ND","ND","ND","ND","ND","ND"],
    [9216,"2015-02-18T10:00:00","ND","ND","ND","ND","ND","ND","ND","ND","ND"],
    [9217,"2015-02-18T11:00:00","ND","ND","ND","ND","ND","ND","ND","ND","ND"],
    [9218,"2015-02-18T12:00:00","ND","ND","ND","ND","ND","ND","ND","ND","ND"],
    [9219,"2015-02-18T13:00:00","ND","ND","ND","ND","ND","ND","ND","ND","ND"],
    [9220,"2015-02-18T14:00:00","ND","ND","ND","ND","ND","ND","ND","ND","ND"],
    [9221,"2015-02-18T15:00:00","ND","ND","ND","ND","ND","ND","ND","ND","ND"],
    [9222,"2015-02-18T16:00:00","ND","ND","ND","ND","ND","ND","ND","ND","ND"],
    [9223,"2015-02-18T17:00:00","ND","ND","ND","ND","ND","ND","ND","ND","ND"],
    [9224,"2015-02-18T18:00:00","ND","ND","ND","ND","ND","ND","ND","ND","ND"],
    [9225,"2015-02-18T19:00:00","ND","ND","ND","ND","ND","ND","ND","ND","ND"],
    [9226,"2015-02-18T20:00:00","ND","ND","ND","ND","ND","ND","ND","ND","ND"],
    [9227,"2015-02-18T21:00:00","ND","ND","ND","ND","ND","ND","ND","ND","ND"],
    [9228,"2015-02-18T22:00:00","ND","ND","ND","ND","ND","ND","ND","ND","ND"],
    [9229,"2015-02-18T23:00:00","ND","ND","ND","ND","ND","ND","ND","ND","ND"],
    [9230,"2015-02-19T00:00:00","ND","ND","ND","ND","ND","ND","ND","ND","ND"],
    [9231,"2015-02-19T01:00:00","ND","ND","ND","ND","ND","ND","ND","ND","ND"],
    [9232,"2015-02-19T02:00:00","ND","ND","ND","ND","ND","ND","ND","ND","ND"],
    [9233,"2015-02-19T03:00:00","ND","ND","ND","ND","ND","ND","ND","ND","ND"],
    [9234,"2015-02-19T04:00:00","ND","ND","ND","ND","ND","ND","ND","ND","ND"],
    [9235,"2015-02-19T05:00:00","ND","ND","ND","ND","ND","ND","ND","ND","ND"],
    [9236,"2015-02-19T06:00:00","ND","ND","ND","ND","ND","ND","ND","ND","ND"],
    [9237,"2015-02-19T07:00:00","ND","ND","ND","ND","ND","ND","ND","ND","ND"],
    [9238,"2015-02-19T08:00:00","ND","ND","ND","ND","ND","ND","ND","ND","ND"],
    [9239,"2015-02-19T09:00:00","ND","ND","ND","ND","ND","ND","ND","ND","ND"],
    [9240,"2015-02-19T10:00:00","ND","ND","ND","ND","ND","ND","ND","ND","ND"],
    [9241,"2015-02-19T11:00:00","ND","ND","ND","ND","ND","ND","ND","ND","ND"],
    [9242,"2015-02-19T12:00:00","ND","ND","ND","ND","ND","ND","ND","ND","ND"],
    [9243,"2015-02-19T13:00:00","ND","ND","ND","ND","ND","ND","ND","ND","ND"],
    [9244,"2015-02-19T14:00:00","ND","ND","ND","ND","ND","ND","ND","ND","ND"],
    [9245,"2015-02-19T15:00:00","ND","ND","ND","ND","ND","ND","ND","ND","ND"],
    [9246,"2015-02-19T16:00:00","ND","ND","ND","ND","ND","ND","ND","ND","ND"],
    [9247,"2015-02-19T17:00:00","ND","ND","ND","ND","ND","ND","ND","ND","ND"],
    [9248,"2015-02-19T18:00:00","ND","ND","ND","ND","ND","ND","ND","ND","ND"],
    [9249,"2015-02-19T19:00:00","ND","ND","ND","ND","ND","ND","ND","ND","ND"],
    [9250,"2015-02-19T20:00:00","ND","ND","ND","ND","ND","ND","ND","ND","ND"],
    [9251,"2015-02-19T21:00:00","ND","ND","ND","ND","ND","ND","ND","ND","ND"],
    [9252,"2015-02-19T22:00:00","ND","ND","ND","ND","ND","ND","ND","ND","ND"],
    [9253,"2015-02-19T23:00:00","ND","ND","ND","ND","ND","ND","ND","ND","ND"],
    [9254,"2015-02-20T00:00:00","ND","ND","ND","ND","ND","ND","ND","ND","ND"],
    [9255,"2015-02-20T01:00:00","ND","ND","ND","ND","ND","ND","ND","ND","ND"],
    [9256,"2015-02-20T02:00:00","ND","ND","ND","ND","ND","ND","ND","ND","ND"],
    [9257,"2015-02-20T03:00:00","ND","ND","ND","ND","ND","ND","ND","ND","ND"],
    [9258,"2015-02-20T04:00:00","ND","ND","ND","ND","ND","ND","ND","ND","ND"],
    [9259,"2015-02-20T05:00:00","ND","ND","ND","ND","ND","ND","ND","ND","ND"],
    [9260,"2015-02-20T06:00:00","ND","ND","ND","ND","ND","ND","ND","ND","ND"],
    [9261,"2015-02-20T07:00:00","ND","ND","ND","ND","ND","ND","ND","ND","ND"],
    [9262,"2015-02-20T08:00:00","ND","ND","ND","ND","ND","ND","ND","ND","ND"],
    [9263,"2015-02-20T09:00:00","ND","ND","ND","ND","ND","ND","ND","ND","ND"],
    [9264,"2015-02-20T10:00:00","ND","ND","ND","ND","ND","ND","ND","ND","ND"],
    [9265,"2015-02-20T11:00:00","ND","ND","ND","ND","ND","ND","ND","ND","ND"],
    [9266,"2015-02-20T12:00:00","ND","ND","ND","ND","ND","ND","ND","ND","ND"],
    [9267,"2015-02-20T13:00:00","ND","ND","ND","ND","ND","ND","ND","ND","ND"],
    [9268,"2015-02-20T14:00:00","ND","ND","ND","ND","ND","ND","ND","ND","ND"],
    [9269,"2015-02-20T15:00:00","ND","ND","ND","ND","ND","ND","ND","ND","ND"],
    [9270,"2015-02-20T16:00:00","ND","ND","ND","ND","ND","ND","ND","ND","ND"],
    [9271,"2015-02-20T17:00:00","ND","ND","ND","ND","ND","ND","ND","ND","ND"],
    [9272,"2015-02-20T18:00:00","ND","ND","ND","ND","ND","ND","ND","ND","ND"],
    [9273,"2015-02-20T19:00:00","ND","ND","ND","ND","ND","ND","ND","ND","ND"],
    [9274,"2015-02-20T20:00:00","ND","ND","ND","ND","ND","ND","ND","ND","ND"],
    [9275,"2015-02-20T21:00:00","ND","ND","ND","ND","ND","ND","ND","ND","ND"],
    [9276,"2015-02-20T22:00:00","ND","ND","ND","ND","ND","ND","ND","ND","ND"],
    [9277,"2015-02-20T23:00:00","ND","ND","ND","ND","ND","ND","ND","ND","ND"],
    [9278,"2015-02-21T00:00:00","ND","ND","ND","ND","ND","ND","ND","ND","ND"],
    [9279,"2015-02-21T01:00:00","ND","ND","ND","ND","ND","ND","ND","ND","ND"],
    [9280,"2015-02-21T02:00:00","ND","ND","ND","ND","ND","ND","ND","ND","ND"],
    [9281,"2015-02-21T03:00:00","ND","ND","ND","ND","ND","ND","ND","ND","ND"],
    [9282,"2015-02-21T04:00:00","ND","ND","ND","ND","ND","ND","ND","ND","ND"],
    [9283,"2015-02-21T05:00:00","ND","ND","ND","ND","ND","ND","ND","ND","ND"],
    [9284,"2015-02-21T06:00:00","ND","ND","ND","ND","ND","ND","ND","ND","ND"],
    [9285,"2015-02-21T07:00:00","ND","ND","ND","ND","ND","ND","ND","ND","ND"],
    [9286,"2015-02-21T08:00:00","ND","ND","ND","ND","ND","ND","ND","ND","ND"],
    [9287,"2015-02-21T09:00:00","ND","ND","ND","ND","ND","ND","ND","ND","ND"],
    [9288,"2015-02-21T10:00:00","ND","ND","ND","ND","ND","ND","ND","ND","ND"],
    [9289,"2015-02-21T11:00:00","ND","ND","ND","ND","ND","ND","ND","ND","ND"],
    [9290,"2015-02-21T12:00:00","ND","ND","ND","ND","ND","ND","ND","ND","ND"],
    [9291,"2015-02-21T13:00:00","ND","ND","ND","ND","ND","ND","ND","ND","ND"],
    [9292,"2015-02-21T14:00:00","ND","ND","ND","ND","ND","ND","ND","ND","ND"],
    [9293,"2015-02-21T15:00:00","ND","ND","ND","ND","ND","ND","ND","ND","ND"],
    [9294,"2015-02-21T16:00:00","ND","ND","ND","ND","ND","ND","ND","ND","ND"],
    [9295,"2015-02-21T17:00:00","ND","ND","ND","ND","ND","ND","ND","ND","ND"],
    [9296,"2015-02-21T18:00:00","ND","ND","ND","ND","ND","ND","ND","ND","ND"],
    [9297,"2015-02-21T19:00:00","ND","ND","ND","ND","ND","ND","ND","ND","ND"],
    [9298,"2015-02-21T20:00:00","ND","ND","ND","ND","ND","ND","ND","ND","ND"],
    [9299,"2015-02-21T21:00:00","ND","ND","ND","ND","ND","ND","ND","ND","ND"],
    [9300,"2015-02-21T22:00:00","ND","ND","ND","ND","ND","ND","ND","ND","ND"],
    [9301,"2015-02-21T23:00:00","ND","ND","ND","ND","ND","ND","ND","ND","ND"],
    [9302,"2015-02-22T00:00:00","ND","ND","ND","ND","ND","ND","ND","ND","ND"],
    [9303,"2015-02-22T01:00:00","ND","ND","ND","ND","ND","ND","ND","ND","ND"],
    [9304,"2015-02-22T02:00:00","ND","ND","ND","ND","ND","ND","ND","ND","ND"],
    [9305,"2015-02-22T03:00:00","ND","ND","ND","ND","ND","ND","ND","ND","ND"],
    [9306,"2015-02-22T04:00:00","ND","ND","ND","ND","ND","ND","ND","ND","ND"],
    [9307,"2015-02-22T05:00:00","ND","ND","ND","ND","ND","ND","ND","ND","ND"],
    [9308,"2015-02-22T06:00:00","ND","ND","ND","ND","ND","ND","ND","ND","ND"],
    [9309,"2015-02-22T07:00:00","ND","ND","ND","ND","ND","ND","ND","ND","ND"],
    [9310,"2015-02-22T08:00:00","ND","ND","ND","ND","ND","ND","ND","ND","ND"],
    [9311,"2015-02-22T09:00:00","ND","ND","ND","ND","ND","ND","ND","ND","ND"],
    [9312,"2015-02-22T10:00:00","ND","ND","ND","ND","ND","ND","ND","ND","ND"],
    [9313,"2015-02-22T11:00:00","ND","ND","ND","ND","ND","ND","ND","ND","ND"],
    [9314,"2015-02-22T12:00:00","ND","ND","ND","ND","ND","ND","ND","ND","ND"],
    [9315,"2015-02-22T13:00:00","ND","ND","ND","ND","ND","ND","ND","ND","ND"],
    [9316,"2015-02-22T14:00:00","ND","ND","ND","ND","ND","ND","ND","ND","ND"],
    [9317,"2015-02-22T15:00:00","ND","ND","ND","ND","ND","ND","ND","ND","ND"],
    [9318,"2015-02-22T16:00:00","ND","ND","ND","ND","ND","ND","ND","ND","ND"],
    [9319,"2015-02-22T17:00:00","ND","ND","ND","ND","ND","ND","ND","ND","ND"],
    [9320,"2015-02-22T18:00:00","ND","ND","ND","ND","ND","ND","ND","ND","ND"],
    [9321,"2015-02-22T19:00:00","ND","ND","ND","ND","ND","ND","ND","ND","ND"],
    [9322,"2015-02-22T20:00:00","ND","ND","ND","ND","ND","ND","ND","ND","ND"],
    [9323,"2015-02-22T21:00:00","ND","ND","ND","ND","ND","ND","ND","ND","ND"],
    [9324,"2015-02-22T22:00:00","ND","ND","ND","ND","ND","ND","ND","ND","ND"],
    [9325,"2015-02-22T23:00:00","ND","ND","ND","ND","ND","ND","ND","ND","ND"],
    [9326,"2015-02-23T00:00:00","ND","ND","ND","ND","ND","ND","ND","ND","ND"],
    [9327,"2015-02-23T01:00:00","ND","ND","ND","ND","ND","ND","ND","ND","ND"],
    [9328,"2015-02-23T02:00:00","ND","ND","ND","ND","ND","ND","ND","ND","ND"],
    [9329,"2015-02-23T03:00:00","ND","ND","ND","ND","ND","ND","ND","ND","ND"],
    [9330,"2015-02-23T04:00:00","ND","ND","ND","ND","ND","ND","ND","ND","ND"],
    [9331,"2015-02-23T05:00:00","ND","ND","ND","ND","ND","ND","ND","ND","ND"],
    [9332,"2015-02-23T06:00:00","ND","ND","ND","ND","ND","ND","ND","ND","ND"],
    [9333,"2015-02-23T07:00:00","ND","ND","ND","ND","ND","ND","ND","ND","ND"],
    [9334,"2015-02-23T08:00:00","ND","ND","ND","ND","ND","ND","ND","ND","ND"],
    [9335,"2015-02-23T09:00:00","ND","ND","ND","ND","ND","ND","ND","ND","ND"],
    [9336,"2015-02-23T10:00:00","ND","ND","ND","ND","ND","ND","ND","ND","ND"],
    [9337,"2015-02-23T11:00:00","ND","ND","ND","ND","ND","ND","ND","ND","ND"],
    [9338,"2015-02-23T12:00:00","ND","ND","ND","ND","ND","ND","ND","ND","ND"],
    [9339,"2015-02-23T13:00:00","ND","ND","ND","ND","ND","ND","ND","ND","ND"],
    [9340,"2015-02-23T14:00:00","ND","ND","ND","ND","ND","ND","ND","ND","ND"],
    [9341,"2015-02-23T15:00:00","ND","ND","ND","ND","ND","ND","ND","ND","ND"],
    [9342,"2015-02-23T16:00:00","ND","ND","ND","ND","ND","ND","ND","ND","ND"],
    [9343,"2015-02-23T17:00:00","ND","ND","ND","ND","ND","ND","ND","ND","ND"],
    [9344,"2015-02-23T18:00:00","ND","ND","ND","ND","ND","ND","ND","ND","ND"],
    [9345,"2015-02-23T19:00:00","ND","ND","ND","ND","ND","ND","ND","ND","ND"],
    [9346,"2015-02-23T20:00:00","ND","ND","ND","ND","ND","ND","ND","ND","ND"],
    [9347,"2015-02-23T21:00:00","ND","ND","ND","ND","ND","ND","ND","ND","ND"],
    [9348,"2015-02-23T22:00:00","ND","ND","ND","ND","ND","ND","ND","ND","ND"],
    [9349,"2015-02-23T23:00:00","ND","ND","ND","ND","ND","ND","ND","ND","ND"],
    [9350,"2015-02-24T00:00:00","ND","ND","ND","ND","ND","ND","ND","ND","ND"],
    [9351,"2015-02-24T01:00:00","ND","ND","ND","ND","ND","ND","ND","ND","ND"],
    [9352,"2015-02-24T02:00:00","ND","ND","ND","ND","ND","ND","ND","ND","ND"],
    [9353,"2015-02-24T03:00:00","ND","ND","ND","ND","ND","ND","ND","ND","ND"],
    [9354,"2015-02-24T04:00:00","ND","ND","ND","ND","ND","ND","ND","ND","ND"],
    [9355,"2015-02-24T05:00:00","ND","ND","ND","ND","ND","ND","ND","ND","ND"],
    [9356,"2015-02-24T06:00:00","ND","ND","ND","ND","ND","ND","ND","ND","ND"],
    [9357,"2015-02-24T07:00:00","ND","ND","ND","ND","ND","ND","ND","ND","ND"],
    [9358,"2015-02-24T08:00:00","ND","ND","ND","ND","ND","ND","ND","ND","ND"],
    [9359,"2015-02-24T09:00:00","ND","ND","ND","ND","ND","ND","ND","ND","ND"],
    [9360,"2015-02-24T10:00:00","ND","ND","ND","ND","ND","ND","ND","ND","ND"],
    [9361,"2015-02-24T11:00:00","ND","ND","ND","ND","ND","ND","ND","ND","ND"],
    [9362,"2015-02-24T12:00:00","ND","ND","ND","ND","ND","ND","ND","ND","ND"],
    [9363,"2015-02-24T13:00:00","ND","ND","ND","ND","ND","ND","ND","ND","ND"],
    [9364,"2015-02-24T14:00:00","ND","ND","ND","ND","ND","ND","ND","ND","ND"],
    [9365,"2015-02-24T15:00:00","ND","ND","ND","ND","ND","ND","ND","ND","ND"],
    [9366,"2015-02-24T16:00:00","ND","ND","ND","ND","ND","ND","ND","ND","ND"],
    [9367,"2015-02-24T17:00:00","ND","ND","ND","ND","ND","ND","ND","ND","ND"],
    [9368,"2015-02-24T18:00:00","ND","ND","ND","ND","ND","ND","ND","ND","ND"],
    [9369,"2015-02-24T19:00:00","ND","ND","ND","ND","ND","ND","ND","ND","ND"],
    [9370,"2015-02-24T20:00:00","ND","ND","ND","ND","ND","ND","ND","ND","ND"],
    [9371,"2015-02-24T21:00:00","ND","ND","ND","ND","ND","ND","ND","ND","ND"],
    [9372,"2015-02-24T22:00:00","ND","ND","ND","ND","ND","ND","ND","ND","ND"],
    [9373,"2015-02-24T23:00:00","ND","ND","ND","ND","ND","ND","ND","ND","ND"],
    [9374,"2015-02-25T00:00:00","ND","ND","ND","ND","ND","ND","ND","ND","ND"],
    [9375,"2015-02-25T01:00:00","ND","ND","ND","ND","ND","ND","ND","ND","ND"],
    [9376,"2015-02-25T02:00:00","ND","ND","ND","ND","ND","ND","ND","ND","ND"],
    [9377,"2015-02-25T03:00:00","ND","ND","ND","ND","ND","ND","ND","ND","ND"],
    [9378,"2015-02-25T04:00:00","ND","ND","ND","ND","ND","ND","ND","ND","ND"],
    [9379,"2015-02-25T05:00:00","ND","ND","ND","ND","ND","ND","ND","ND","ND"],
    [9380,"2015-02-25T06:00:00","ND","ND","ND","ND","ND","ND","ND","ND","ND"],
    [9381,"2015-02-25T07:00:00","ND","ND","ND","ND","ND","ND","ND","ND","ND"],
    [9382,"2015-02-25T08:00:00","ND","ND","ND","ND","ND","ND","ND","ND","ND"],
    [9383,"2015-02-25T09:00:00","ND","ND","ND","ND","ND","ND","ND","ND","ND"],
    [9384,"2015-02-25T10:00:00","ND","ND","ND","ND","ND","ND","ND","ND","ND"],
    [9385,"2015-02-25T11:00:00","ND","ND","ND","ND","ND","ND","ND","ND","ND"],
    [9386,"2015-02-25T12:00:00","ND","ND","ND","ND","ND","ND","ND","ND","ND"],
    [9387,"2015-02-25T13:00:00","ND","ND","ND","ND","ND","ND","ND","ND","ND"],
    [9388,"2015-02-25T14:00:00","ND","ND","ND","ND","ND","ND","ND","ND","ND"],
    [9389,"2015-02-25T15:00:00","ND","ND","ND","ND","ND","ND","ND","ND","ND"],
    [9390,"2015-02-25T16:00:00","ND","ND","ND","ND","ND","ND","ND","ND","ND"],
    [9391,"2015-02-25T17:00:00","ND","ND","ND","ND","ND","ND","ND","ND","ND"],
    [9392,"2015-02-25T18:00:00","ND","ND","ND","ND","ND","ND","ND","ND","ND"],
    [9393,"2015-02-25T19:00:00","ND","ND","ND","ND","ND","ND","ND","ND","ND"],
    [9394,"2015-02-25T20:00:00","ND","ND","ND","ND","ND","ND","ND","ND","ND"],
    [9395,"2015-02-25T21:00:00","ND","ND","ND","ND","ND","ND","ND","ND","ND"],
    [9396,"2015-02-25T22:00:00","ND","ND","ND","ND","ND","ND","ND","ND","ND"],
    [9397,"2015-02-25T23:00:00","ND","ND","ND","ND","ND","ND","ND","ND","ND"],
    [9398,"2015-02-26T00:00:00","ND","ND","ND","ND","ND","ND","ND","ND","ND"],
    [9399,"2015-02-26T01:00:00","ND","ND","ND","ND","ND","ND","ND","ND","ND"],
    [9400,"2015-02-26T02:00:00","ND","ND","ND","ND","ND","ND","ND","ND","ND"],
    [9401,"2015-02-26T03:00:00","ND","ND","ND","ND","ND","ND","ND","ND","ND"],
    [9402,"2015-02-26T04:00:00","ND","ND","ND","ND","ND","ND","ND","ND","ND"],
    [9403,"2015-02-26T05:00:00","ND","ND","ND","ND","ND","ND","ND","ND","ND"],
    [9404,"2015-02-26T06:00:00","ND","ND","ND","ND","ND","ND","ND","ND","ND"],
    [9405,"2015-02-26T07:00:00","ND","ND","ND","ND","ND","ND","ND","ND","ND"],
    [9406,"2015-02-26T08:00:00","ND","ND","ND","ND","ND","ND","ND","ND","ND"],
    [9407,"2015-02-26T09:00:00","ND","ND","ND","ND","ND","ND","ND","ND","ND"],
    [9408,"2015-02-26T10:00:00","ND","ND","ND","ND","ND","ND","ND","ND","ND"],
    [9409,"2015-02-26T11:00:00","ND","ND","ND","ND","ND","ND","ND","ND","ND"],
    [9410,"2015-02-26T12:00:00","ND","ND","ND","ND","ND","ND","ND","ND","ND"],
    [9411,"2015-02-26T13:00:00","ND","ND","ND","ND","ND","ND","ND","ND","ND"],
    [9412,"2015-02-26T14:00:00","ND","ND","ND","ND","ND","ND","ND","ND","ND"],
    [9413,"2015-02-26T15:00:00","ND","ND","ND","ND","ND","ND","ND","ND","ND"],
    [9414,"2015-02-26T16:00:00","ND","ND","ND","ND","ND","ND","ND","ND","ND"],
    [9415,"2015-02-26T17:00:00","ND","ND","ND","ND","ND","ND","ND","ND","ND"],
    [9416,"2015-02-26T18:00:00","ND","ND","ND","ND","ND","ND","ND","ND","ND"],
    [9417,"2015-02-26T19:00:00","ND","ND","ND","ND","ND","ND","ND","ND","ND"],
    [9418,"2015-02-26T20:00:00","ND","ND","ND","ND","ND","ND","ND","ND","ND"],
    [9419,"2015-02-26T21:00:00","ND","ND","ND","ND","ND","ND","ND","ND","ND"],
    [9420,"2015-02-26T22:00:00","ND","ND","ND","ND","ND","ND","ND","ND","ND"],
    [9421,"2015-02-26T23:00:00","ND","ND","ND","ND","ND","ND","ND","ND","ND"],
    [9422,"2015-02-27T00:00:00","ND","ND","ND","ND","ND","ND","ND","ND","ND"],
    [9423,"2015-02-27T01:00:00","ND","ND","ND","ND","ND","ND","ND","ND","ND"],
    [9424,"2015-02-27T02:00:00","ND","ND","ND","ND","ND","ND","ND","ND","ND"],
    [9425,"2015-02-27T03:00:00","ND","ND","ND","ND","ND","ND","ND","ND","ND"],
    [9426,"2015-02-27T04:00:00","ND","ND","ND","ND","ND","ND","ND","ND","ND"],
    [9427,"2015-02-27T05:00:00","ND","ND","ND","ND","ND","ND","ND","ND","ND"],
    [9428,"2015-02-27T06:00:00","ND","ND","ND","ND","ND","ND","ND","ND","ND"],
    [9429,"2015-02-27T07:00:00","ND","ND","ND","ND","ND","ND","ND","ND","ND"],
    [9430,"2015-02-27T08:00:00","ND","ND","ND","ND","ND","ND","ND","ND","ND"],
    [9431,"2015-02-27T09:00:00","ND","ND","ND","ND","ND","ND","ND","ND","ND"],
    [9432,"2015-02-27T10:00:00","ND","ND","ND","ND","ND","ND","ND","ND","ND"],
    [9433,"2015-02-27T11:00:00","ND","ND","ND","ND","ND","ND","ND","ND","ND"],
    [9434,"2015-02-27T12:00:00","ND","ND","ND","ND","ND","ND","ND","ND","ND"],
    [9435,"2015-02-27T13:00:00","ND","ND","ND","ND","ND","ND","ND","ND","ND"],
    [9436,"2015-02-27T14:00:00","ND","ND","ND","ND","ND","ND","ND","ND","ND"],
    [9437,"2015-02-27T15:00:00","ND","ND","ND","ND","ND","ND","ND","ND","ND"],
    [9438,"2015-02-27T16:00:00","ND","ND","ND","ND","ND","ND","ND","ND","ND"],
    [9439,"2015-02-27T17:00:00","ND","ND","ND","ND","ND","ND","ND","ND","ND"],
    [9440,"2015-02-27T18:00:00","ND","ND","ND","ND","ND","ND","ND","ND","ND"],
    [9441,"2015-02-27T19:00:00","ND","ND","ND","ND","ND","ND","ND","ND","ND"],
    [9442,"2015-02-27T20:00:00","ND","ND","ND","ND","ND","ND","ND","ND","ND"],
    [9443,"2015-02-27T21:00:00","ND","ND","ND","ND","ND","ND","ND","ND","ND"],
    [9444,"2015-02-27T22:00:00","ND","ND","ND","ND","ND","ND","ND","ND","ND"],
    [9445,"2015-02-27T23:00:00","ND","ND","ND","ND","ND","ND","ND","ND","ND"],
    [9446,"2015-02-28T00:00:00","ND","ND","ND","ND","ND","ND","ND","ND","ND"],
    [9447,"2015-02-28T01:00:00","ND","ND","ND","ND","ND","ND","ND","ND","ND"],
    [9448,"2015-02-28T02:00:00","ND","ND","ND","ND","ND","ND","ND","ND","ND"],
    [9449,"2015-02-28T03:00:00","ND","ND","ND","ND","ND","ND","ND","ND","ND"],
    [9450,"2015-02-28T04:00:00","ND","ND","ND","ND","ND","ND","ND","ND","ND"],
    [9451,"2015-02-28T05:00:00","ND","ND","ND","ND","ND","ND","ND","ND","ND"],
    [9452,"2015-02-28T06:00:00","ND","ND","ND","ND","ND","ND","ND","ND","ND"],
    [9453,"2015-02-28T07:00:00","ND","ND","ND","ND","ND","ND","ND","ND","ND"],
    [9454,"2015-02-28T08:00:00","ND","ND","ND","ND","ND","ND","ND","ND","ND"],
    [9455,"2015-02-28T09:00:00","ND","ND","ND","ND","ND","ND","ND","ND","ND"],
    [9456,"2015-02-28T10:00:00","ND","ND","ND","ND","ND","ND","ND","ND","ND"],
    [9457,"2015-02-28T11:00:00","ND","ND","ND","ND","ND","ND","ND","ND","ND"],
    [9458,"2015-02-28T12:00:00","ND","ND","ND","ND","ND","ND","ND","ND","ND"],
    [9459,"2015-02-28T13:00:00","ND","ND","ND","ND","ND","ND","ND","ND","ND"],
    [9460,"2015-02-28T14:00:00","ND","ND","ND","ND","ND","ND","ND","ND","ND"],
    [9461,"2015-02-28T15:00:00","ND","ND","ND","ND","ND","ND","ND","ND","ND"],
    [9462,"2015-02-28T16:00:00","ND","ND","ND","ND","ND","ND","ND","ND","ND"],
    [9463,"2015-02-28T17:00:00","ND","ND","ND","ND","ND","ND","ND","ND","ND"],
    [9464,"2015-02-28T18:00:00","ND","ND","ND","ND","ND","ND","ND","ND","ND"],
    [9465,"2015-02-28T19:00:00","ND","ND","ND","ND","ND","ND","ND","ND","ND"],
    [9466,"2015-02-28T20:00:00","ND","ND","ND","ND","ND","ND","ND","ND","ND"],
    [9467,"2015-02-28T21:00:00","ND","ND","ND","ND","ND","ND","ND","ND","ND"],
    [9468,"2015-02-28T22:00:00","ND","ND","ND","ND","ND","ND","ND","ND","ND"],
    [9469,"2015-02-28T23:00:00","ND","ND","ND","ND","ND","ND","ND","ND","ND"],
    [9470,"2015-03-01T00:00:00","ND","ND","ND","ND","ND","ND","ND","ND","ND"],
    [9471,"2015-03-01T01:00:00","ND","ND","ND","ND","ND","ND","ND","ND","ND"],
    [9472,"2015-03-01T02:00:00","ND","ND","ND","ND","ND","ND","ND","ND","ND"],
    [9473,"2015-03-01T03:00:00","ND","ND","ND","ND","ND","ND","ND","ND","ND"],
    [9474,"2015-03-01T04:00:00","ND","ND","ND","ND","ND","ND","ND","ND","ND"],
    [9475,"2015-03-01T05:00:00","ND","ND","ND","ND","ND","ND","ND","ND","ND"],
    [9476,"2015-03-01T06:00:00","ND","ND","ND","ND","ND","ND","ND","ND","ND"],
    [9477,"2015-03-01T07:00:00","ND","ND","ND","ND","ND","ND","ND","ND","ND"],
    [9478,"2015-03-01T08:00:00","ND","ND","ND","ND","ND","ND","ND","ND","ND"],
    [9479,"2015-03-01T09:00:00","ND","ND","ND","ND","ND","ND","ND","ND","ND"],
    [9480,"2015-03-01T10:00:00","ND","ND","ND","ND","ND","ND","ND","ND","ND"],
    [9481,"2015-03-01T11:00:00","ND","ND","ND","ND","ND","ND","ND","ND","ND"],
    [9482,"2015-03-01T12:00:00","ND","ND","ND","ND","ND","ND","ND","ND","ND"],
    [9483,"2015-03-01T13:00:00","ND","ND","ND","ND","ND","ND","ND","ND","ND"],
    [9484,"2015-03-01T14:00:00","ND","ND","ND","ND","ND","ND","ND","ND","ND"],
    [9485,"2015-03-01T15:00:00","ND","ND","ND","ND","ND","ND","ND","ND","ND"],
    [9486,"2015-03-01T16:00:00","ND","ND","ND","ND","ND","ND","ND","ND","ND"],
    [9487,"2015-03-01T17:00:00","ND","ND","ND","ND","ND","ND","ND","ND","ND"],
    [9488,"2015-03-01T18:00:00","ND","ND","ND","ND","ND","ND","ND","ND","ND"],
    [9489,"2015-03-01T19:00:00","ND","ND","ND","ND","ND","ND","ND","ND","ND"],
    [9490,"2015-03-01T20:00:00","ND","ND","ND","ND","ND","ND","ND","ND","ND"],
    [9491,"2015-03-01T21:00:00","ND","ND","ND","ND","ND","ND","ND","ND","ND"],
    [9492,"2015-03-01T22:00:00","ND","ND","ND","ND","ND","ND","ND","ND","ND"],
    [9493,"2015-03-01T23:00:00","ND","ND","ND","ND","ND","ND","ND","ND","ND"],
    [9494,"2015-03-02T00:00:00","ND","ND","ND","ND","ND","ND","ND","ND","ND"],
    [9495,"2015-03-02T01:00:00","ND","ND","ND","ND","ND","ND","ND","ND","ND"],
    [9496,"2015-03-02T02:00:00","ND","ND","ND","ND","ND","ND","ND","ND","ND"],
    [9497,"2015-03-02T03:00:00","ND","ND","ND","ND","ND","ND","ND","ND","ND"],
    [9498,"2015-03-02T04:00:00","ND","ND","ND","ND","ND","ND","ND","ND","ND"],
    [9499,"2015-03-02T05:00:00","ND","ND","ND","ND","ND","ND","ND","ND","ND"],
    [9500,"2015-03-02T06:00:00","ND","ND","ND","ND","ND","ND","ND","ND","ND"],
    [9501,"2015-03-02T07:00:00","ND","ND","ND","ND","ND","ND","ND","ND","ND"],
    [9502,"2015-03-02T08:00:00","ND","ND","ND","ND","ND","ND","ND","ND","ND"],
    [9503,"2015-03-02T09:00:00","ND","ND","ND","ND","ND","ND","ND","ND","ND"],
    [9504,"2015-03-02T10:00:00","ND","ND","ND","ND","ND","ND","ND","ND","ND"],
    [9505,"2015-03-02T11:00:00","ND","ND","ND","ND","ND","ND","ND","ND","ND"],
    [9506,"2015-03-02T12:00:00","ND","ND","ND","ND","ND","ND","ND","ND","ND"],
    [9507,"2015-03-02T13:00:00","ND","ND","ND","ND","ND","ND","ND","ND","ND"],
    [9508,"2015-03-02T14:00:00","ND","ND","ND","ND","ND","ND","ND","ND","ND"],
    [9509,"2015-03-02T15:00:00","ND","ND","ND","ND","ND","ND","ND","ND","ND"],
    [9510,"2015-03-02T16:00:00","ND","ND","ND","ND","ND","ND","ND","ND","ND"],
    [9511,"2015-03-02T17:00:00","ND","ND","ND","ND","ND","ND","ND","ND","ND"],
    [9512,"2015-03-02T18:00:00","ND","ND","ND","ND","ND","ND","ND","ND","ND"],
    [9513,"2015-03-02T19:00:00","ND","ND","ND","ND","ND","ND","ND","ND","ND"],
    [9514,"2015-03-02T20:00:00","ND","ND","ND","ND","ND","ND","ND","ND","ND"],
    [9515,"2015-03-02T21:00:00","ND","ND","ND","ND","ND","ND","ND","ND","ND"],
    [9516,"2015-03-02T22:00:00","ND","ND","ND","ND","ND","ND","ND","ND","ND"],
    [9517,"2015-03-02T23:00:00","ND","ND","ND","ND","ND","ND","ND","ND","ND"],
    [9518,"2015-03-03T00:00:00","ND","ND","ND","ND","ND","ND","ND","ND","ND"],
    [9519,"2015-03-03T01:00:00","ND","ND","ND","ND","ND","ND","ND","ND","ND"],
    [9520,"2015-03-03T02:00:00","ND","ND","ND","ND","ND","ND","ND","ND","ND"],
    [9521,"2015-03-03T03:00:00","ND","ND","ND","ND","ND","ND","ND","ND","ND"],
    [9522,"2015-03-03T04:00:00","ND","ND","ND","ND","ND","ND","ND","ND","ND"],
    [9523,"2015-03-03T05:00:00","ND","ND","ND","ND","ND","ND","ND","ND","ND"],
    [9524,"2015-03-03T06:00:00","ND","ND","ND","ND","ND","ND","ND","ND","ND"],
    [9525,"2015-03-03T07:00:00","ND","ND","ND","ND","ND","ND","ND","ND","ND"],
    [9526,"2015-03-03T08:00:00","ND","ND","ND","ND","ND","ND","ND","ND","ND"],
    [9527,"2015-03-03T09:00:00","ND","ND","ND","ND","ND","ND","ND","ND","ND"],
    [9528,"2015-03-03T10:00:00","ND","ND","ND","ND","ND","ND","ND","ND","ND"],
    [9529,"2015-03-03T11:00:00","ND","ND","ND","ND","ND","ND","ND","ND","ND"],
    [9530,"2015-03-03T12:00:00","ND","ND","ND","ND","ND","ND","ND","ND","ND"],
    [9531,"2015-03-03T13:00:00","ND","ND","ND","ND","ND","ND","ND","ND","ND"],
    [9532,"2015-03-03T14:00:00","ND","ND","ND","ND","ND","ND","ND","ND","ND"],
    [9533,"2015-03-03T15:00:00","ND","ND","ND","ND","ND","ND","ND","ND","ND"],
    [9534,"2015-03-03T16:00:00","ND","ND","ND","ND","ND","ND","ND","ND","ND"],
    [9535,"2015-03-03T17:00:00","ND","ND","ND","ND","ND","ND","ND","ND","ND"],
    [9536,"2015-03-03T18:00:00","ND","ND","ND","ND","ND","ND","ND","ND","ND"],
    [9537,"2015-03-03T19:00:00","ND","ND","ND","ND","ND","ND","ND","ND","ND"],
    [9538,"2015-03-03T20:00:00","ND","ND","ND","ND","ND","ND","ND","ND","ND"],
    [9539,"2015-03-03T21:00:00","ND","ND","ND","ND","ND","ND","ND","ND","ND"],
    [9540,"2015-03-03T22:00:00","ND","ND","ND","ND","ND","ND","ND","ND","ND"],
    [9541,"2015-03-03T23:00:00","ND","ND","ND","ND","ND","ND","ND","ND","ND"],
    [9542,"2015-03-04T00:00:00","ND","ND","ND","ND","ND","ND","ND","ND","ND"],
    [9543,"2015-03-04T01:00:00","ND","ND","ND","ND","ND","ND","ND","ND","ND"],
    [9544,"2015-03-04T02:00:00","ND","ND","ND","ND","ND","ND","ND","ND","ND"],
    [9545,"2015-03-04T03:00:00","ND","ND","ND","ND","ND","ND","ND","ND","ND"],
    [9546,"2015-03-04T04:00:00","ND","ND","ND","ND","ND","ND","ND","ND","ND"],
    [9547,"2015-03-04T05:00:00","ND","ND","ND","ND","ND","ND","ND","ND","ND"],
    [9548,"2015-03-04T06:00:00","ND","ND","ND","ND","ND","ND","ND","ND","ND"],
    [9549,"2015-03-04T07:00:00","ND","ND","ND","ND","ND","ND","ND","ND","ND"],
    [9550,"2015-03-04T08:00:00","ND","ND","ND","ND","ND","ND","ND","ND","ND"],
    [9551,"2015-03-04T09:00:00","ND","ND","ND","ND","ND","ND","ND","ND","ND"],
    [9552,"2015-03-04T10:00:00","ND","ND","ND","ND","ND","ND","ND","ND","ND"],
    [9553,"2015-03-04T11:00:00","ND","ND","ND","ND","ND","ND","ND","ND","ND"],
    [9554,"2015-03-04T12:00:00","ND","ND","ND","ND","ND","ND","ND","ND","ND"],
    [9555,"2015-03-04T13:00:00","ND","ND","ND","ND","ND","ND","ND","ND","ND"],
    [9556,"2015-03-04T14:00:00","ND","ND","ND","ND","ND","ND","ND","ND","ND"],
    [9557,"2015-03-04T15:00:00","ND","ND","ND","ND","ND","ND","ND","ND","ND"],
    [9558,"2015-03-04T16:00:00","ND","ND","ND","ND","ND","ND","ND","ND","ND"],
    [9559,"2015-03-04T17:00:00","ND","ND","ND","ND","ND","ND","ND","ND","ND"],
    [9560,"2015-03-04T18:00:00","ND","ND","ND","ND","ND","ND","ND","ND","ND"],
    [9561,"2015-03-04T19:00:00","ND","ND","ND","ND","ND","ND","ND","ND","ND"],
    [9562,"2015-03-04T20:00:00","ND","ND","ND","ND","ND","ND","ND","ND","ND"],
    [9563,"2015-03-04T21:00:00","ND","ND","ND","ND","ND","ND","ND","ND","ND"],
    [9564,"2015-03-04T22:00:00","ND","ND","ND","ND","ND","ND","ND","ND","ND"],
    [9565,"2015-03-04T23:00:00","ND","ND","ND","ND","ND","ND","ND","ND","ND"],
    [9566,"2015-03-05T00:00:00","ND","ND","ND","ND","ND","ND","ND","ND","ND"],
    [9567,"2015-03-05T01:00:00","ND","ND","ND","ND","ND","ND","ND","ND","ND"],
    [9568,"2015-03-05T02:00:00","ND","ND","ND","ND","ND","ND","ND","ND","ND"],
    [9569,"2015-03-05T03:00:00","ND","ND","ND","ND","ND","ND","ND","ND","ND"],
    [9570,"2015-03-05T04:00:00","ND","ND","ND","ND","ND","ND","ND","ND","ND"],
    [9571,"2015-03-05T05:00:00","ND","ND","ND","ND","ND","ND","ND","ND","ND"],
    [9572,"2015-03-05T06:00:00","ND","ND","ND","ND","ND","ND","ND","ND","ND"],
    [9573,"2015-03-05T07:00:00","ND","ND","ND","ND","ND","ND","ND","ND","ND"],
    [9574,"2015-03-05T08:00:00","ND","ND","ND","ND","ND","ND","ND","ND","ND"],
    [9575,"2015-03-05T09:00:00","ND","ND","ND","ND","ND","ND","ND","ND","ND"],
    [9576,"2015-03-05T10:00:00","ND","ND","ND","ND","ND","ND","ND","ND","ND"],
    [9577,"2015-03-05T11:00:00","ND","ND","ND","ND","ND","ND","ND","ND","ND"],
    [9578,"2015-03-05T12:00:00","ND","ND","ND","ND","ND","ND","ND","ND","ND"],
    [9579,"2015-03-05T13:00:00","ND","ND","ND","ND","ND","ND","ND","ND","ND"],
    [9580,"2015-03-05T14:00:00","ND","ND","ND","ND","ND","ND","ND","ND","ND"],
    [9581,"2015-03-05T15:00:00","ND","ND","ND","ND","ND","ND","ND","ND","ND"],
    [9582,"2015-03-05T16:00:00","ND","ND","ND","ND","ND","ND","ND","ND","ND"],
    [9583,"2015-03-05T17:00:00","ND","ND","ND","ND","ND","ND","ND","ND","ND"],
    [9584,"2015-03-05T18:00:00","ND","ND","ND","ND","ND","ND","ND","ND","ND"],
    [9585,"2015-03-05T19:00:00","ND","ND","ND","ND","ND","ND","ND","ND","ND"],
    [9586,"2015-03-05T20:00:00","ND","ND","ND","ND","ND","ND","ND","ND","ND"],
    [9587,"2015-03-05T21:00:00","ND","ND","ND","ND","ND","ND","ND","ND","ND"],
    [9588,"2015-03-05T22:00:00","ND","ND","ND","ND","ND","ND","ND","ND","ND"],
    [9589,"2015-03-05T23:00:00","ND","ND","ND","ND","ND","ND","ND","ND","ND"],
    [9590,"2015-03-06T00:00:00","ND","ND","ND","ND","ND","ND","ND","ND","ND"],
    [9591,"2015-03-06T01:00:00","ND","ND","ND","ND","ND","ND","ND","ND","ND"],
    [9592,"2015-03-06T02:00:00","ND","ND","ND","ND","ND","ND","ND","ND","ND"],
    [9593,"2015-03-06T03:00:00","ND","ND","ND","ND","ND","ND","ND","ND","ND"],
    [9594,"2015-03-06T04:00:00","ND","ND","ND","ND","ND","ND","ND","ND","ND"],
    [9595,"2015-03-06T05:00:00","ND","ND","ND","ND","ND","ND","ND","ND","ND"],
    [9596,"2015-03-06T06:00:00","ND","ND","ND","ND","ND","ND","ND","ND","ND"],
    [9597,"2015-03-06T07:00:00","ND","ND","ND","ND","ND","ND","ND","ND","ND"],
    [9598,"2015-03-06T08:00:00","ND","ND","ND","ND","ND","ND","ND","ND","ND"],
    [9599,"2015-03-06T09:00:00","ND","ND","ND","ND","ND","ND","ND","ND","ND"],
    [9600,"2015-03-06T10:00:00","ND","ND","ND","ND","ND","ND","ND","ND","ND"],
    [9601,"2015-03-06T11:00:00","ND","ND","ND","ND","ND","ND","ND","ND","ND"],
    [9602,"2015-03-06T12:00:00","ND","ND","ND","ND","ND","ND","ND","ND","ND"],
    [9603,"2015-03-06T13:00:00","ND","ND","ND","ND","ND","ND","ND","ND","ND"],
    [9604,"2015-03-06T14:00:00","ND","ND","ND","ND","ND","ND","ND","ND","ND"],
    [9605,"2015-03-06T15:00:00","ND","ND","ND","ND","ND","ND","ND","ND","ND"],
    [9606,"2015-03-06T16:00:00","ND","ND","ND","ND","ND","ND","ND","ND","ND"],
    [9607,"2015-03-06T17:00:00","ND","ND","ND","ND","ND","ND","ND","ND","ND"],
    [9608,"2015-03-06T18:00:00","ND","ND","ND","ND","ND","ND","ND","ND","ND"],
    [9609,"2015-03-06T19:00:00","ND","ND","ND","ND","ND","ND","ND","ND","ND"],
    [9610,"2015-03-06T20:00:00","ND","ND","ND","ND","ND","ND","ND","ND","ND"],
    [9611,"2015-03-06T21:00:00","ND","ND","ND","ND","ND","ND","ND","ND","ND"],
    [9612,"2015-03-06T22:00:00","ND","ND","ND","ND","ND","ND","ND","ND","ND"],
    [9613,"2015-03-06T23:00:00","ND","ND","ND","ND","ND","ND","ND","ND","ND"],
    [9614,"2015-03-07T00:00:00","ND","ND","ND","ND","ND","ND","ND","ND","ND"],
    [9615,"2015-03-07T01:00:00","ND","ND","ND","ND","ND","ND","ND","ND","ND"],
    [9616,"2015-03-07T02:00:00","ND","ND","ND","ND","ND","ND","ND","ND","ND"],
    [9617,"2015-03-07T03:00:00","ND","ND","ND","ND","ND","ND","ND","ND","ND"],
    [9618,"2015-03-07T04:00:00","ND","ND","ND","ND","ND","ND","ND","ND","ND"],
    [9619,"2015-03-07T05:00:00","ND","ND","ND","ND","ND","ND","ND","ND","ND"],
    [9620,"2015-03-07T06:00:00","ND","ND","ND","ND","ND","ND","ND","ND","ND"],
    [9621,"2015-03-07T07:00:00","ND","ND","ND","ND","ND","ND","ND","ND","ND"],
    [9622,"2015-03-07T08:00:00","ND","ND","ND","ND","ND","ND","ND","ND","ND"],
    [9623,"2015-03-07T09:00:00","ND","ND","ND","ND","ND","ND","ND","ND","ND"],
    [9624,"2015-03-07T10:00:00","ND","ND","ND","ND","ND","ND","ND","ND","ND"],
    [9625,"2015-03-07T11:00:00","ND","ND","ND","ND","ND","ND","ND","ND","ND"],
    [9626,"2015-03-07T12:00:00","ND","ND","ND","ND","ND","ND","ND","ND","ND"],
    [9627,"2015-03-07T13:00:00","ND","ND","ND","ND","ND","ND","ND","ND","ND"],
    [9628,"2015-03-07T14:00:00","ND","ND","ND","ND","ND","ND","ND","ND","ND"],
    [9629,"2015-03-07T15:00:00","ND","ND","ND","ND","ND","ND","ND","ND","ND"],
    [9630,"2015-03-07T16:00:00","ND","ND","ND","ND","ND","ND","ND","ND","ND"],
    [9631,"2015-03-07T17:00:00","ND","ND","ND","ND","ND","ND","ND","ND","ND"],
    [9632,"2015-03-07T18:00:00","ND","ND","ND","ND","ND","ND","ND","ND","ND"],
    [9633,"2015-03-07T19:00:00","ND","ND","ND","ND","ND","ND","ND","ND","ND"],
    [9634,"2015-03-07T20:00:00","ND","ND","ND","ND","ND","ND","ND","ND","ND"],
    [9635,"2015-03-07T21:00:00","ND","ND","ND","ND","ND","ND","ND","ND","ND"],
    [9636,"2015-03-07T22:00:00","ND","ND","ND","ND","ND","ND","ND","ND","ND"],
    [9637,"2015-03-07T23:00:00","ND","ND","ND","ND","ND","ND","ND","ND","ND"],
    [9638,"2015-03-08T00:00:00","ND","ND","ND","ND","ND","ND","ND","ND","ND"],
    [9639,"2015-03-08T01:00:00","ND","ND","ND","ND","ND","ND","ND","ND","ND"],
    [9640,"2015-03-08T02:00:00","ND","ND","ND","ND","ND","ND","ND","ND","ND"],
    [9641,"2015-03-08T03:00:00","ND","ND","ND","ND","ND","ND","ND","ND","ND"],
    [9642,"2015-03-08T04:00:00","ND","ND","ND","ND","ND","ND","ND","ND","ND"],
    [9643,"2015-03-08T05:00:00","ND","ND","ND","ND","ND","ND","ND","ND","ND"],
    [9644,"2015-03-08T06:00:00","ND","ND","ND","ND","ND","ND","ND","ND","ND"],
    [9645,"2015-03-08T07:00:00","ND","ND","ND","ND","ND","ND","ND","ND","ND"],
    [9646,"2015-03-08T08:00:00","ND","ND","ND","ND","ND","ND","ND","ND","ND"],
    [9647,"2015-03-08T09:00:00","ND","ND","ND","ND","ND","ND","ND","ND","ND"],
    [9648,"2015-03-08T10:00:00","ND","ND","ND","ND","ND","ND","ND","ND","ND"],
    [9649,"2015-03-08T11:00:00","ND","ND","ND","ND","ND","ND","ND","ND","ND"],
    [9650,"2015-03-08T12:00:00","ND","ND","ND","ND","ND","ND","ND","ND","ND"],
    [9651,"2015-03-08T13:00:00","ND","ND","ND","ND","ND","ND","ND","ND","ND"],
    [9652,"2015-03-08T14:00:00","ND","ND","ND","ND","ND","ND","ND","ND","ND"],
    [9653,"2015-03-08T15:00:00","ND","ND","ND","ND","ND","ND","ND","ND","ND"],
    [9654,"2015-03-08T16:00:00","ND","ND","ND","ND","ND","ND","ND","ND","ND"],
    [9655,"2015-03-08T17:00:00","ND","ND","ND","ND","ND","ND","ND","ND","ND"],
    [9656,"2015-03-08T18:00:00","ND","ND","ND","ND","ND","ND","ND","ND","ND"],
    [9657,"2015-03-08T19:00:00","ND","ND","ND","ND","ND","ND","ND","ND","ND"],
    [9658,"2015-03-08T20:00:00","ND","ND","ND","ND","ND","ND","ND","ND","ND"],
    [9659,"2015-03-08T21:00:00","ND","ND","ND","ND","ND","ND","ND","ND","ND"],
    [9660,"2015-03-08T22:00:00","ND","ND","ND","ND","ND","ND","ND","ND","ND"],
    [9661,"2015-03-08T23:00:00","ND","ND","ND","ND","ND","ND","ND","ND","ND"],
    [9662,"2015-03-09T00:00:00","ND","ND","ND","ND","ND","ND","ND","ND","ND"],
    [9663,"2015-03-09T01:00:00","ND","ND","ND","ND","ND","ND","ND","ND","ND"],
    [9664,"2015-03-09T02:00:00","ND","ND","ND","ND","ND","ND","ND","ND","ND"],
    [9665,"2015-03-09T03:00:00","ND","ND","ND","ND","ND","ND","ND","ND","ND"],
    [9666,"2015-03-09T04:00:00","ND","ND","ND","ND","ND","ND","ND","ND","ND"],
    [9667,"2015-03-09T05:00:00","ND","ND","ND","ND","ND","ND","ND","ND","ND"],
    [9668,"2015-03-09T06:00:00","ND","ND","ND","ND","ND","ND","ND","ND","ND"],
    [9669,"2015-03-09T07:00:00","ND","ND","ND","ND","ND","ND","ND","ND","ND"],
    [9670,"2015-03-09T08:00:00","ND","ND","ND","ND","ND","ND","ND","ND","ND"],
    [9671,"2015-03-09T09:00:00","ND","ND","ND","ND","ND","ND","ND","ND","ND"],
    [9672,"2015-03-09T10:00:00","ND","ND","ND","ND","ND","ND","ND","ND","ND"],
    [9673,"2015-03-09T11:00:00","ND","ND","ND","ND","ND","ND","ND","ND","ND"],
    [9674,"2015-03-09T12:00:00","ND","ND","ND","ND","ND","ND","ND","ND","ND"],
    [9675,"2015-03-09T13:00:00","ND","ND","ND","ND","ND","ND","ND","ND","ND"],
    [9676,"2015-03-09T14:00:00","ND","ND","ND","ND","ND","ND","ND","ND","ND"],
    [9677,"2015-03-09T15:00:00","ND","ND","ND","ND","ND","ND","ND","ND","ND"],
    [9678,"2015-03-09T16:00:00","ND","ND","ND","ND","ND","ND","ND","ND","ND"],
    [9679,"2015-03-09T17:00:00","ND","ND","ND","ND","ND","ND","ND","ND","ND"],
    [9680,"2015-03-09T18:00:00","ND","ND","ND","ND","ND","ND","ND","ND","ND"],
    [9681,"2015-03-09T19:00:00","ND","ND","ND","ND","ND","ND","ND","ND","ND"],
    [9682,"2015-03-09T20:00:00","ND","ND","ND","ND","ND","ND","ND","ND","ND"],
    [9683,"2015-03-09T21:00:00","ND","ND","ND","ND","ND","ND","ND","ND","ND"],
    [9684,"2015-03-09T22:00:00","ND","ND","ND","ND","ND","ND","ND","ND","ND"],
    [9685,"2015-03-09T23:00:00","ND","ND","ND","ND","ND","ND","ND","ND","ND"],
    [9686,"2015-03-10T00:00:00","ND","ND","ND","ND","ND","ND","ND","ND","ND"],
    [9687,"2015-03-10T01:00:00","ND","ND","ND","ND","ND","ND","ND","ND","ND"],
    [9688,"2015-03-10T02:00:00","ND","ND","ND","ND","ND","ND","ND","ND","ND"],
    [9689,"2015-03-10T03:00:00","ND","ND","ND","ND","ND","ND","ND","ND","ND"],
    [9690,"2015-03-10T04:00:00","ND","ND","ND","ND","ND","ND","ND","ND","ND"],
    [9691,"2015-03-10T05:00:00","ND","ND","ND","ND","ND","ND","ND","ND","ND"],
    [9692,"2015-03-10T06:00:00","ND","ND","ND","ND","ND","ND","ND","ND","ND"],
    [9693,"2015-03-10T07:00:00","ND","ND","ND","ND","ND","ND","ND","ND","ND"],
    [9694,"2015-03-10T08:00:00","ND","ND","ND","ND","ND","ND","ND","ND","ND"],
    [9695,"2015-03-10T09:00:00","ND","ND","ND","ND","ND","ND","ND","ND","ND"],
    [9696,"2015-03-10T10:00:00","ND","ND","ND","ND","ND","ND","ND","ND","ND"],
    [9697,"2015-03-10T11:00:00","ND","ND","ND","ND","ND","ND","ND","ND","ND"],
    [9698,"2015-03-10T12:00:00","ND","ND","ND","ND","ND","ND","ND","ND","ND"],
    [9699,"2015-03-10T13:00:00","ND","ND","ND","ND","ND","ND","ND","ND","ND"],
    [9700,"2015-03-10T14:00:00","ND","ND","ND","ND","ND","ND","ND","ND","ND"],
    [9701,"2015-03-10T15:00:00","ND","ND","ND","ND","ND","ND","ND","ND","ND"],
    [9702,"2015-03-10T16:00:00","ND","ND","ND","ND","ND","ND","ND","ND","ND"],
    [9703,"2015-03-10T17:00:00","ND","ND","ND","ND","ND","ND","ND","ND","ND"],
    [9704,"2015-03-10T18:00:00","ND","ND","ND","ND","ND","ND","ND","ND","ND"],
    [9705,"2015-03-10T19:00:00","ND","ND","ND","ND","ND","ND","ND","ND","ND"],
    [9706,"2015-03-10T20:00:00","ND","ND","ND","ND","ND","ND","ND","ND","ND"],
    [9707,"2015-03-10T21:00:00","ND","ND","ND","ND","ND","ND","ND","ND","ND"],
    [9708,"2015-03-10T22:00:00","ND","ND","ND","ND","ND","ND","ND","ND","ND"],
    [9709,"2015-03-10T23:00:00","ND","ND","ND","ND","ND","ND","ND","ND","ND"],
    [9710,"2015-03-11T00:00:00","ND","ND","ND","ND","ND","ND","ND","ND","ND"],
    [9711,"2015-03-11T01:00:00","ND","ND","ND","ND","ND","ND","ND","ND","ND"],
    [9712,"2015-03-11T02:00:00","ND","ND","ND","ND","ND","ND","ND","ND","ND"],
    [9713,"2015-03-11T03:00:00","ND","ND","ND","ND","ND","ND","ND","ND","ND"],
    [9714,"2015-03-11T04:00:00","ND","ND","ND","ND","ND","ND","ND","ND","ND"],
    [9715,"2015-03-11T05:00:00","ND","ND","ND","ND","ND","ND","ND","ND","ND"],
    [9716,"2015-03-11T06:00:00","ND","ND","ND","ND","ND","ND","ND","ND","ND"],
    [9717,"2015-03-11T07:00:00","ND","ND","ND","ND","ND","ND","ND","ND","ND"],
    [9718,"2015-03-11T08:00:00","ND","ND","ND","ND","ND","ND","ND","ND","ND"],
    [9719,"2015-03-11T09:00:00","ND","ND","ND","ND","ND","ND","ND","ND","ND"],
    [9720,"2015-03-11T10:00:00","ND","ND","ND","ND","ND","ND","ND","ND","ND"],
    [9721,"2015-03-11T11:00:00","ND","ND","ND","ND","ND","ND","ND","ND","ND"],
    [9722,"2015-03-11T12:00:00","ND","ND","ND","ND","ND","ND","ND","ND","ND"],
    [9723,"2015-03-11T13:00:00","ND","ND","ND","ND","ND","ND","ND","ND","ND"],
    [9724,"2015-03-11T14:00:00","ND","ND","ND","ND","ND","ND","ND","ND","ND"],
    [9725,"2015-03-11T15:00:00","ND","ND","ND","ND","ND","ND","ND","ND","ND"],
    [9726,"2015-03-11T16:00:00","ND","ND","ND","ND","ND","ND","ND","ND","ND"],
    [9727,"2015-03-11T17:00:00","ND","ND","ND","ND","ND","ND","ND","ND","ND"],
    [9728,"2015-03-11T18:00:00","ND","ND","ND","ND","ND","ND","ND","ND","ND"],
    [9729,"2015-03-11T19:00:00","ND","ND","ND","ND","ND","ND","ND","ND","ND"],
    [9730,"2015-03-11T20:00:00","ND","ND","ND","ND","ND","ND","ND","ND","ND"],
    [9731,"2015-03-11T21:00:00","ND","ND","ND","ND","ND","ND","ND","ND","ND"],
    [9732,"2015-03-11T22:00:00","ND","ND","ND","ND","ND","ND","ND","ND","ND"],
    [9733,"2015-03-11T23:00:00","ND","ND","ND","ND","ND","ND","ND","ND","ND"],
    [9734,"2015-03-12T00:00:00","ND","ND","ND","ND","ND","ND","ND","ND","ND"],
    [9735,"2015-03-12T01:00:00","ND","ND","ND","ND","ND","ND","ND","ND","ND"],
    [9736,"2015-03-12T02:00:00","ND","ND","ND","ND","ND","ND","ND","ND","ND"],
    [9737,"2015-03-12T03:00:00","ND","ND","ND","ND","ND","ND","ND","ND","ND"],
    [9738,"2015-03-12T04:00:00","ND","ND","ND","ND","ND","ND","ND","ND","ND"],
    [9739,"2015-03-12T05:00:00","ND","ND","ND","ND","ND","ND","ND","ND","ND"],
    [9740,"2015-03-12T06:00:00","ND","ND","ND","ND","ND","ND","ND","ND","ND"],
    [9741,"2015-03-12T07:00:00","ND","ND","ND","ND","ND","ND","ND","ND","ND"],
    [9742,"2015-03-12T08:00:00","ND","ND","ND","ND","ND","ND","ND","ND","ND"],
    [9743,"2015-03-12T09:00:00","ND","ND","ND","ND","ND","ND","ND","ND","ND"],
    [9744,"2015-03-12T10:00:00","ND","ND","ND","ND","ND","ND","ND","ND","ND"],
    [9745,"2015-03-12T11:00:00","ND","ND","ND","ND","ND","ND","ND","ND","ND"],
    [9746,"2015-03-12T12:00:00","ND","ND","ND","ND","ND","ND","ND","ND","ND"],
    [9747,"2015-03-12T13:00:00","ND","ND","ND","ND","ND","ND","ND","ND","ND"],
    [9748,"2015-03-12T14:00:00","ND","ND","ND","ND","ND","ND","ND","ND","ND"],
    [9749,"2015-03-12T15:00:00","ND","ND","ND","ND","ND","ND","ND","ND","ND"],
    [9750,"2015-03-12T16:00:00","ND","ND","ND","ND","ND","ND","ND","ND","ND"],
    [9751,"2015-03-12T17:00:00","ND","ND","ND","ND","ND","ND","ND","ND","ND"],
    [9752,"2015-03-12T18:00:00","ND","ND","ND","ND","ND","ND","ND","ND","ND"],
    [9753,"2015-03-12T19:00:00","ND","ND","ND","ND","ND","ND","ND","ND","ND"],
    [9754,"2015-03-12T20:00:00","ND","ND","ND","ND","ND","ND","ND","ND","ND"],
    [9755,"2015-03-12T21:00:00","ND","ND","ND","ND","ND","ND","ND","ND","ND"],
    [9756,"2015-03-12T22:00:00","ND","ND","ND","ND","ND","ND","ND","ND","ND"],
    [9757,"2015-03-12T23:00:00","ND","ND","ND","ND","ND","ND","ND","ND","ND"],
    [9758,"2015-03-13T00:00:00","ND","ND","ND","ND","ND","ND","ND","ND","ND"],
    [9759,"2015-03-13T01:00:00","ND","ND","ND","ND","ND","ND","ND","ND","ND"],
    [9760,"2015-03-13T02:00:00","ND","ND","ND","ND","ND","ND","ND","ND","ND"],
    [9761,"2015-03-13T03:00:00","ND","ND","ND","ND","ND","ND","ND","ND","ND"],
    [9762,"2015-03-13T04:00:00","ND","ND","ND","ND","ND","ND","ND","ND","ND"],
    [9763,"2015-03-13T05:00:00","ND","ND","ND","ND","ND","ND","ND","ND","ND"],
    [9764,"2015-03-13T06:00:00","ND","ND","ND","ND","ND","ND","ND","ND","ND"],
    [9765,"2015-03-13T07:00:00","ND","ND","ND","ND","ND","ND","ND","ND","ND"],
    [9766,"2015-03-13T08:00:00","ND","ND","ND","ND","ND","ND","ND","ND","ND"],
    [9767,"2015-03-13T09:00:00","ND","ND","ND","ND","ND","ND","ND","ND","ND"],
    [9768,"2015-03-13T10:00:00","ND","ND","ND","ND","ND","ND","ND","ND","ND"],
    [9769,"2015-03-13T11:00:00","ND","ND","ND","ND","ND","ND","ND","ND","ND"],
    [9770,"2015-03-13T12:00:00","ND","ND","ND","ND","ND","ND","ND","ND","ND"],
    [9771,"2015-03-13T13:00:00","ND","ND","ND","ND","ND","ND","ND","ND","ND"],
    [9772,"2015-03-13T14:00:00","ND","ND","ND","ND","ND","ND","ND","ND","ND"],
    [9773,"2015-03-13T15:00:00","ND","ND","ND","ND","ND","ND","ND","ND","ND"],
    [9774,"2015-03-13T16:00:00","ND","ND","ND","ND","ND","ND","ND","ND","ND"],
    [9775,"2015-03-13T17:00:00","ND","ND","ND","ND","ND","ND","ND","ND","ND"],
    [9776,"2015-03-13T18:00:00","ND","ND","ND","ND","ND","ND","ND","ND","ND"],
    [9777,"2015-03-13T19:00:00","ND","ND","ND","ND","ND","ND","ND","ND","ND"],
    [9778,"2015-03-13T20:00:00","ND","ND","ND","ND","ND","ND","ND","ND","ND"],
    [9779,"2015-03-13T21:00:00","ND","ND","ND","ND","ND","ND","ND","ND","ND"],
    [9780,"2015-03-13T22:00:00","ND","ND","ND","ND","ND","ND","ND","ND","ND"],
    [9781,"2015-03-13T23:00:00","ND","ND","ND","ND","ND","ND","ND","ND","ND"],
    [9782,"2015-03-14T00:00:00","ND","ND","ND","ND","ND","ND","ND","ND","ND"],
    [9783,"2015-03-14T01:00:00","ND","ND","ND","ND","ND","ND","ND","ND","ND"],
    [9784,"2015-03-14T02:00:00","ND","ND","ND","ND","ND","ND","ND","ND","ND"],
    [9785,"2015-03-14T03:00:00","ND","ND","ND","ND","ND","ND","ND","ND","ND"],
    [9786,"2015-03-14T04:00:00","ND","ND","ND","ND","ND","ND","ND","ND","ND"],
    [9787,"2015-03-14T05:00:00","ND","ND","ND","ND","ND","ND","ND","ND","ND"],
    [9788,"2015-03-14T06:00:00","ND","ND","ND","ND","ND","ND","ND","ND","ND"],
    [9789,"2015-03-14T07:00:00","ND","ND","ND","ND","ND","ND","ND","ND","ND"],
    [9790,"2015-03-14T08:00:00","ND","ND","ND","ND","ND","ND","ND","ND","ND"],
    [9791,"2015-03-14T09:00:00","ND","ND","ND","ND","ND","ND","ND","ND","ND"],
    [9792,"2015-03-14T10:00:00","ND","ND","ND","ND","ND","ND","ND","ND","ND"],
    [9793,"2015-03-14T11:00:00","ND","ND","ND","ND","ND","ND","ND","ND","ND"],
    [9794,"2015-03-14T12:00:00","ND","ND","ND","ND","ND","ND","ND","ND","ND"],
    [9795,"2015-03-14T13:00:00","ND","ND","ND","ND","ND","ND","ND","ND","ND"],
    [9796,"2015-03-14T14:00:00","ND","ND","ND","ND","ND","ND","ND","ND","ND"],
    [9797,"2015-03-14T15:00:00","ND","ND","ND","ND","ND","ND","ND","ND","ND"],
    [9798,"2015-03-14T16:00:00","ND","ND","ND","ND","ND","ND","ND","ND","ND"],
    [9799,"2015-03-14T17:00:00","ND","ND","ND","ND","ND","ND","ND","ND","ND"],
    [9800,"2015-03-14T18:00:00","ND","ND","ND","ND","ND","ND","ND","ND","ND"],
    [9801,"2015-03-14T19:00:00","ND","ND","ND","ND","ND","ND","ND","ND","ND"],
    [9802,"2015-03-14T20:00:00","ND","ND","ND","ND","ND","ND","ND","ND","ND"],
    [9803,"2015-03-14T21:00:00","ND","ND","ND","ND","ND","ND","ND","ND","ND"],
    [9804,"2015-03-14T22:00:00","ND","ND","ND","ND","ND","ND","ND","ND","ND"],
    [9805,"2015-03-14T23:00:00","ND","ND","ND","ND","ND","ND","ND","ND","ND"],
    [9806,"2015-03-15T00:00:00","ND","ND","ND","ND","ND","ND","ND","ND","ND"],
    [9807,"2015-03-15T01:00:00","ND","ND","ND","ND","ND","ND","ND","ND","ND"],
    [9808,"2015-03-15T02:00:00","ND","ND","ND","ND","ND","ND","ND","ND","ND"],
    [9809,"2015-03-15T03:00:00","ND","ND","ND","ND","ND","ND","ND","ND","ND"],
    [9810,"2015-03-15T04:00:00","ND","ND","ND","ND","ND","ND","ND","ND","ND"],
    [9811,"2015-03-15T05:00:00","ND","ND","ND","ND","ND","ND","ND","ND","ND"],
    [9812,"2015-03-15T06:00:00","ND","ND","ND","ND","ND","ND","ND","ND","ND"],
    [9813,"2015-03-15T07:00:00","ND","ND","ND","ND","ND","ND","ND","ND","ND"],
    [9814,"2015-03-15T08:00:00","ND","ND","ND","ND","ND","ND","ND","ND","ND"],
    [9815,"2015-03-15T09:00:00","ND","ND","ND","ND","ND","ND","ND","ND","ND"],
    [9816,"2015-03-15T10:00:00","ND","ND","ND","ND","ND","ND","ND","ND","ND"],
    [9817,"2015-03-15T11:00:00","ND","ND","ND","ND","ND","ND","ND","ND","ND"],
    [9818,"2015-03-15T12:00:00","ND","ND","ND","ND","ND","ND","ND","ND","ND"],
    [9819,"2015-03-15T13:00:00","ND","ND","ND","ND","ND","ND","ND","ND","ND"],
    [9820,"2015-03-15T14:00:00","ND","ND","ND","ND","ND","ND","ND","ND","ND"],
    [9821,"2015-03-15T15:00:00","ND","ND","ND","ND","ND","ND","ND","ND","ND"],
    [9822,"2015-03-15T16:00:00","ND","ND","ND","ND","ND","ND","ND","ND","ND"],
    [9823,"2015-03-15T17:00:00","ND","ND","ND","ND","ND","ND","ND","ND","ND"],
    [9824,"2015-03-15T18:00:00","ND","ND","ND","ND","ND","ND","ND","ND","ND"],
    [9825,"2015-03-15T19:00:00","ND","ND","ND","ND","ND","ND","ND","ND","ND"],
    [9826,"2015-03-15T20:00:00","ND","ND","ND","ND","ND","ND","ND","ND","ND"],
    [9827,"2015-03-15T21:00:00","ND","ND","ND","ND","ND","ND","ND","ND","ND"],
    [9828,"2015-03-15T22:00:00","ND","ND","ND","ND","ND","ND","ND","ND","ND"],
    [9829,"2015-03-15T23:00:00","ND","ND","ND","ND","ND","ND","ND","ND","ND"],
    [9830,"2015-03-16T00:00:00","ND","ND","ND","ND","ND","ND","ND","ND","ND"],
    [9831,"2015-03-16T01:00:00","ND","ND","ND","ND","ND","ND","ND","ND","ND"],
    [9832,"2015-03-16T02:00:00","ND","ND","ND","ND","ND","ND","ND","ND","ND"],
    [9833,"2015-03-16T03:00:00","ND","ND","ND","ND","ND","ND","ND","ND","ND"],
    [9834,"2015-03-16T04:00:00","ND","ND","ND","ND","ND","ND","ND","ND","ND"],
    [9835,"2015-03-16T05:00:00","ND","ND","ND","ND","ND","ND","ND","ND","ND"],
    [9836,"2015-03-16T06:00:00","ND","ND","ND","ND","ND","ND","ND","ND","ND"],
    [9837,"2015-03-16T07:00:00","ND","ND","ND","ND","ND","ND","ND","ND","ND"],
    [9838,"2015-03-16T08:00:00","ND","ND","ND","ND","ND","ND","ND","ND","ND"],
    [9839,"2015-03-16T09:00:00","ND","ND","ND","ND","ND","ND","ND","ND","ND"],
    [9840,"2015-03-16T10:00:00","ND","ND","ND","ND","ND","ND","ND","ND","ND"],
    [9841,"2015-03-16T11:00:00","ND","ND","ND","ND","ND","ND","ND","ND","ND"],
    [9842,"2015-03-16T12:00:00","ND","ND","ND","ND","ND","ND","ND","ND","ND"],
    [9843,"2015-03-16T13:00:00","ND","ND","ND","ND","ND","ND","ND","ND","ND"],
    [9844,"2015-03-16T14:00:00","ND","ND","ND","ND","ND","ND","ND","ND","ND"],
    [9845,"2015-03-16T15:00:00","ND","ND","ND","ND","ND","ND","ND","ND","ND"],
    [9846,"2015-03-16T16:00:00","ND","ND","ND","ND","ND","ND","ND","ND","ND"],
    [9847,"2015-03-16T17:00:00","ND","ND","ND","ND","ND","ND","ND","ND","ND"],
    [9848,"2015-03-16T18:00:00","ND","ND","ND","ND","ND","ND","ND","ND","ND"],
    [9849,"2015-03-16T19:00:00","ND","ND","ND","ND","ND","ND","ND","ND","ND"],
    [9850,"2015-03-16T20:00:00","ND","ND","ND","ND","ND","ND","ND","ND","ND"],
    [9851,"2015-03-16T21:00:00","ND","ND","ND","ND","ND","ND","ND","ND","ND"],
    [9852,"2015-03-16T22:00:00","ND","ND","ND","ND","ND","ND","ND","ND","ND"],
    [9853,"2015-03-16T23:00:00","ND","ND","ND","ND","ND","ND","ND","ND","ND"],
    [9854,"2015-03-17T00:00:00","ND","ND","ND","ND","ND","ND","ND","ND","ND"],
    [9855,"2015-03-17T01:00:00","ND","ND","ND","ND","ND","ND","ND","ND","ND"],
    [9856,"2015-03-17T02:00:00","ND","ND","ND","ND","ND","ND","ND","ND","ND"],
    [9857,"2015-03-17T03:00:00","ND","ND","ND","ND","ND","ND","ND","ND","ND"],
    [9858,"2015-03-17T04:00:00","ND","ND","ND","ND","ND","ND","ND","ND","ND"],
    [9859,"2015-03-17T05:00:00","ND","ND","ND","ND","ND","ND","ND","ND","ND"],
    [9860,"2015-03-17T06:00:00","ND","ND","ND","ND","ND","ND","ND","ND","ND"],
    [9861,"2015-03-17T07:00:00","ND","ND","ND","ND","ND","ND","ND","ND","ND"],
    [9862,"2015-03-17T08:00:00","ND","ND","ND","ND","ND","ND","ND","ND","ND"],
    [9863,"2015-03-17T09:00:00","ND","ND","ND","ND","ND","ND","ND","ND","ND"],
    [9864,"2015-03-17T10:00:00","ND","ND","ND","ND","ND","ND","ND","ND","ND"],
    [9865,"2015-03-17T11:00:00","ND","ND","ND","ND","ND","ND","ND","ND","ND"],
    [9866,"2015-03-17T12:00:00","ND","ND","ND","ND","ND","ND","ND","ND","ND"],
    [9867,"2015-03-17T13:00:00","ND","ND","ND","ND","ND","ND","ND","ND","ND"],
    [9868,"2015-03-17T14:00:00","ND","ND","ND","ND","ND","ND","ND","ND","ND"],
    [9869,"2015-03-17T15:00:00","ND","ND","ND","ND","ND","ND","ND","ND","ND"],
    [9870,"2015-03-17T16:00:00","ND","ND","ND","ND","ND","ND","ND","ND","ND"],
    [9871,"2015-03-17T17:00:00","ND","ND","ND","ND","ND","ND","ND","ND","ND"],
    [9872,"2015-03-17T18:00:00","ND","ND","ND","ND","ND","ND","ND","ND","ND"],
    [9873,"2015-03-17T19:00:00","ND","ND","ND","ND","ND","ND","ND","ND","ND"],
    [9874,"2015-03-17T20:00:00","ND","ND","ND","ND","ND","ND","ND","ND","ND"],
    [9875,"2015-03-17T21:00:00","ND","ND","ND","ND","ND","ND","ND","ND","ND"],
    [9876,"2015-03-17T22:00:00","ND","ND","ND","ND","ND","ND","ND","ND","ND"],
    [9877,"2015-03-17T23:00:00","ND","ND","ND","ND","ND","ND","ND","ND","ND"],
    [9878,"2015-03-18T00:00:00","ND","ND","ND","ND","ND","ND","ND","ND","ND"],
    [9879,"2015-03-18T01:00:00","ND","ND","ND","ND","ND","ND","ND","ND","ND"],
    [9880,"2015-03-18T02:00:00","ND","ND","ND","ND","ND","ND","ND","ND","ND"],
    [9881,"2015-03-18T03:00:00","ND","ND","ND","ND","ND","ND","ND","ND","ND"],
    [9882,"2015-03-18T04:00:00","ND","ND","ND","ND","ND","ND","ND","ND","ND"],
    [9883,"2015-03-18T05:00:00","ND","ND","ND","ND","ND","ND","ND","ND","ND"],
    [9884,"2015-03-18T06:00:00","ND","ND","ND","ND","ND","ND","ND","ND","ND"],
    [9885,"2015-03-18T07:00:00","ND","ND","ND","ND","ND","ND","ND","ND","ND"],
    [9886,"2015-03-18T08:00:00","ND","ND","ND","ND","ND","ND","ND","ND","ND"],
    [9887,"2015-03-18T09:00:00","ND","ND","ND","ND","ND","ND","ND","ND","ND"],
    [9888,"2015-03-18T10:00:00","ND","ND","ND","ND","ND","ND","ND","ND","ND"],
    [9889,"2015-03-18T11:00:00","ND","ND","ND","ND","ND","ND","ND","ND","ND"],
    [9890,"2015-03-18T12:00:00","ND","ND","ND","ND","ND","ND","ND","ND","ND"],
    [9891,"2015-03-18T13:00:00","ND","ND","ND","ND","ND","ND","ND","ND","ND"],
    [9892,"2015-03-18T14:00:00","ND","ND","ND","ND","ND","ND","ND","ND","ND"],
    [9893,"2015-03-18T15:00:00","ND","ND","ND","ND","ND","ND","ND","ND","ND"],
    [9894,"2015-03-18T16:00:00","ND","ND","ND","ND","ND","ND","ND","ND","ND"],
    [9895,"2015-03-18T17:00:00","ND","ND","ND","ND","ND","ND","ND","ND","ND"],
    [9896,"2015-03-18T18:00:00","ND","ND","ND","ND","ND","ND","ND","ND","ND"],
    [9897,"2015-03-18T19:00:00","ND","ND","ND","ND","ND","ND","ND","ND","ND"],
    [9898,"2015-03-18T20:00:00","ND","ND","ND","ND","ND","ND","ND","ND","ND"],
    [9899,"2015-03-18T21:00:00","ND","ND","ND","ND","ND","ND","ND","ND","ND"],
    [9900,"2015-03-18T22:00:00","ND","ND","ND","ND","ND","ND","ND","ND","ND"],
    [9901,"2015-03-18T23:00:00","ND","ND","ND","ND","ND","ND","ND","ND","ND"],
    [9902,"2015-03-19T00:00:00","ND","ND","ND","ND","ND","ND","ND","ND","ND"],
    [9903,"2015-03-19T01:00:00","ND","ND","ND","ND","ND","ND","ND","ND","ND"],
    [9904,"2015-03-19T02:00:00","ND","ND","ND","ND","ND","ND","ND","ND","ND"],
    [9905,"2015-03-19T03:00:00","ND","ND","ND","ND","ND","ND","ND","ND","ND"],
    [9906,"2015-03-19T04:00:00","ND","ND","ND","ND","ND","ND","ND","ND","ND"],
    [9907,"2015-03-19T05:00:00","ND","ND","ND","ND","ND","ND","ND","ND","ND"],
    [9908,"2015-03-19T06:00:00","ND","ND","ND","ND","ND","ND","ND","ND","ND"],
    [9909,"2015-03-19T07:00:00","ND","ND","ND","ND","ND","ND","ND","ND","ND"],
    [9910,"2015-03-19T08:00:00","ND","ND","ND","ND","ND","ND","ND","ND","ND"],
    [9911,"2015-03-19T09:00:00","ND","ND","ND","ND","ND","ND","ND","ND","ND"],
    [9912,"2015-03-19T10:00:00","ND","ND","ND","ND","ND","ND","ND","ND","ND"],
    [9913,"2015-03-19T11:00:00","ND","ND","ND","ND","ND","ND","ND","ND","ND"],
    [9914,"2015-03-19T12:00:00","ND","ND","ND","ND","ND","ND","ND","ND","ND"],
    [9915,"2015-03-19T13:00:00","ND","ND","ND","ND","ND","ND","ND","ND","ND"],
    [9916,"2015-03-19T14:00:00","ND","ND","ND","ND","ND","ND","ND","ND","ND"],
    [9917,"2015-03-19T15:00:00","ND","ND","ND","ND","ND","ND","ND","ND","ND"],
    [9918,"2015-03-19T16:00:00","ND","4","32,52","7,1","357","29","51","79,3","0"],
    [9919,"2015-03-19T17:00:00","ND","5","21,45","6,2","20,3","28,8","52,5","54,5","0"],
    [9920,"2015-03-19T18:00:00","ND","6","25","6,2","27,1","26,5","63,7","17,9","0"],
    [9921,"2015-03-19T19:00:00","ND","6","15,7","3,9","13,7","26,3","60,6","0","0"],
    [9922,"2015-03-19T20:00:00","ND","6","16,58","4,7","26,1","25,6","62,5","0","0"],
    [9923,"2015-03-19T21:00:00","ND","3","23,27","6,2","15,8","24,9","65,1","0","0"],
    [9924,"2015-03-19T22:00:00","ND","4","19,37","4,2","18,2","24,8","64,9","0","0"],
    [9925,"2015-03-19T23:00:00","ND","4","22,27","3,9","26,9","24,3","68,4","0","0"],
    [9926,"2015-03-20T00:00:00","ND","2","19,27","1,5","135,8","23,8","70,7","0","0"],
    [9927,"2015-03-20T01:00:00","ND","7","17,86","3,2","117","23,2","75,6","0","0"],
    [9928,"2015-03-20T02:00:00","ND","14","15,91","2,7","137,2","22,7","79,8","0","0"],
    [9929,"2015-03-20T03:00:00","ND","9","18,47","1,3","103,1","22,4","80,2","0","0"],
    [9930,"2015-03-20T04:00:00","ND","10","18,52","1,4","242,2","22,4","80,3","0","0"],
    [9931,"2015-03-20T05:00:00","ND","21","11,44","2,8","222,6","22,4","82,1","0","0"],
    [9932,"2015-03-20T06:00:00","ND","18","9,54","2,1","202,7","22,4","81,5","0","0"],
    [9933,"2015-03-20T07:00:00","ND","15","9,65","2,1","191,4","22,4","81,8","5,5","0"],
    [9934,"2015-03-20T08:00:00","ND","19","12,11","2,2","163,8","22,7","81,5","34","0"],
    [9935,"2015-03-20T09:00:00","ND","19","18,8","2,8","164,2","23,4","77,8","108,8","0"],
    [9936,"2015-03-20T10:00:00","ND","8","35,7","2,4","164,9","25,3","67,8","344,4","0"],
    [9937,"2015-03-20T11:00:00","ND","6","ND","3,5","130,1","27,2","58,9","454,6","0"],
    [9938,"2015-03-20T12:00:00","ND","11","62,93","3,1","110,6","28","55,8","402,8","0"],
    [9939,"2015-03-20T13:00:00","ND","13","73,14","5,4","258,6","27,9","55,1","168,8","0"],
    [9940,"2015-03-20T14:00:00","ND","27","92,58","3,4","289,9","28,9","49,4","365,2","0"],
    [9941,"2015-03-20T15:00:00","ND","14","88,39","5,1","318,5","29,3","47,7","261,2","0"],
    [9942,"2015-03-20T16:00:00","ND","7","41,39","5,8","314","29,7","44,6","239,7","0"],
    [9943,"2015-03-20T17:00:00","ND","8","29,24","6,2","314,1","29","44,3","77,5","0"],
    [9944,"2015-03-20T18:00:00","ND","11","21,7","6,4","44,4","27,5","53,7","13,6","0"],
    [9945,"2015-03-20T19:00:00","ND","10","19,17","4,7","48,5","26,1","60,4","0","0"],
    [9946,"2015-03-20T20:00:00","ND","14","19,88","5,2","174,8","24,3","70,1","0","0"],
    [9947,"2015-03-20T21:00:00","ND","13","18,94","4,1","182,5","23,7","74,3","0","0"],
    [9948,"2015-03-20T22:00:00","ND","8","19,6","4,1","188,6","23,5","74,7","0","0"],
    [9949,"2015-03-20T23:00:00","ND","6","21,17","4","175,5","22,8","78,6","0","0"],
    [9950,"2015-03-21T00:00:00","ND","4","19,21","2,9","154,4","22,4","82,2","0","0"],
    [9951,"2015-03-21T01:00:00","ND","5","18,31","1,3","163,9","22,2","82,7","0","0"],
    [9952,"2015-03-21T02:00:00","ND","7","16,78","3,5","212,5","22,2","83,5","0","0"],
    [9953,"2015-03-21T03:00:00","ND","10","24,1","5","231,7","21,9","83,1","0","1,52"],
    [9954,"2015-03-21T04:00:00","ND","9","21,72","2,7","198,3","21,2","85,8","0","11,43"],
    [9955,"2015-03-21T05:00:00","ND","7","17,25","1,7","155,2","21,3","84,8","0","0"],
    [9956,"2015-03-21T06:00:00","ND","10","10,11","1,3","102","21","86,7","0","0"],
    [9957,"2015-03-21T07:00:00","ND","12","7,63","0,3","47,6","21,4","85,7","6,2","0"],
    [9958,"2015-03-21T08:00:00","ND","20","12,4","2,4","106,5","21,9","84,5","108","0"],
    [9959,"2015-03-21T09:00:00","ND","20","18,21","2,9","100,7","23","79,3","137,5","0"],
    [9960,"2015-03-21T10:00:00","ND","23","26,83","2,6","102,2","24,3","72,1","215,7","0"],
    [9961,"2015-03-21T11:00:00","ND","20","36,05","1,6","132,1","25","68,2","206,6","0"],
    [9962,"2015-03-21T12:00:00","ND","23","51,36","2,4","96","25,9","63,3","278,9","0"],
    [9963,"2015-03-21T13:00:00","ND","21","62,66","3,2","91,6","27,3","58,4","460,2","0"],
    [9964,"2015-03-21T14:00:00","ND","11","62,46","2,2","66,6","28,3","53,7","369,3","0"],
    [9965,"2015-03-21T15:00:00","ND","16","53,38","2,9","74,4","28,7","51,5","151,7","0"],
    [9966,"2015-03-21T16:00:00","ND","23","107,6","3","344,5","28,7","51,1","159,9","0"],
    [9967,"2015-03-21T17:00:00","ND","24","100,3","3,2","12,9","29","49","70,6","0"],
    [9968,"2015-03-21T18:00:00","ND","14","42,17","3,2","24,4","28,9","47,6","35,5","0"],
    [9969,"2015-03-21T19:00:00","ND","18","35,26","2,3","6,2","27,3","55,3","0","0"],
    [9970,"2015-03-21T20:00:00","ND","27","13,44","1,8","102","26","62,3","0","0"],
    [9971,"2015-03-21T21:00:00","ND","31","8,4","2,6","79","24,7","69,5","0","0"],
    [9972,"2015-03-21T22:00:00","ND","17","9,5","1,5","11,8","24,2","70,5","0","0"],
    [9973,"2015-03-21T23:00:00","ND","17","8,77","1,4","110,5","24,4","69,7","0","0"],
    [9974,"2015-03-22T00:00:00","ND","17","7,83","1,3","169,1","23,9","72","0","0"],
    [9975,"2015-03-22T01:00:00","ND","17","8,73","0,5","303","23,2","73,2","0","0"],
    [9976,"2015-03-22T02:00:00","ND","32","7,2","1,1","121,9","22,8","76,4","0","0"],
    [9977,"2015-03-22T03:00:00","ND","13","6,52","1,9","166,4","21,9","79,2","0","0"],
    [9978,"2015-03-22T04:00:00","ND","13","6,67","1,5","166,7","21,7","79,5","0","0"],
    [9979,"2015-03-22T05:00:00","ND","10","6,69","1,9","118,9","21","83,9","0","0"],
    [9980,"2015-03-22T06:00:00","ND","24","9,22","0,8","48,9","20,7","84,2","0","0"],
    [9981,"2015-03-22T07:00:00","ND","31","7,5","0,7","37,6","20,6","84,8","12,2","0"],
    [9982,"2015-03-22T08:00:00","ND","45","11,85","2,5","81,9","21,5","82,7","97,3","0"],
    [9983,"2015-03-22T09:00:00","ND","31","24,86","2,1","120,1","23,4","75,2","196","0"],
    [9984,"2015-03-22T10:00:00","ND","25","54,61","2,3","165","25,7","64,3","336,3","0"],
    [9985,"2015-03-22T11:00:00","ND","12","70,96","1,9","103,9","27,3","57","427,5","0"],
    [9986,"2015-03-22T12:00:00","ND","7","72,29","1,9","92,5","28,9","48,6","478,9","0"],
    [9987,"2015-03-22T13:00:00","ND","17","91,25","3","104,3","30,2","44","471,5","0"],
    [9988,"2015-03-22T14:00:00","ND","18","113,03","1","137,3","30,5","43,7","187,6","0"],
    [9989,"2015-03-22T15:00:00","ND","26","102,28","3,2","333,3","29,8","44,8","114","0"],
    [9990,"2015-03-22T16:00:00","ND","13","68,35","6,3","317,3","29,6","45,2","204,9","0"],
    [9991,"2015-03-22T17:00:00","ND","9","36,42","6,1","313,2","30,5","41,6","164,9","0"],
    [9992,"2015-03-22T18:00:00","ND","5","31,3","6,1","296","30","42,1","71,8","0"],
    [9993,"2015-03-22T19:00:00","ND","11","19,82","4,4","306,6","28,7","45,3","0","0"],
    [9994,"2015-03-22T20:00:00","ND","22","9,81","2,2","85,9","27","56,1","0","0"],
    [9995,"2015-03-22T21:00:00","ND","13","11,97","2,6","109,8","25,6","63","0","0"],
    [9996,"2015-03-22T22:00:00","ND","17","8,5","2,4","213,1","24,9","67,2","0","0"],
    [9997,"2015-03-22T23:00:00","ND","14","10,09","2,2","184,2","24,5","70,4","0","0"],
    [9998,"2015-03-23T00:00:00","ND","21","10,64","2,4","205,9","24,3","70,4","0","0"],
    [9999,"2015-03-23T01:00:00","ND","20","8,3","1,3","143,8","23,3","73,9","0","0"],
    [10000,"2015-03-23T02:00:00","ND","11","11,62","1,3","169,9","23,2","70,6","0","0"],
    [10001,"2015-03-23T03:00:00","ND","9","9,09","2","143","22,5","75","0","0"],
    [10002,"2015-03-23T04:00:00","ND","9","7,08","1,6","144","21,7","78,9","0","0"],
    [10003,"2015-03-23T05:00:00","ND","6","7,79","1,3","194,8","21,4","79,2","0","0"],
    [10004,"2015-03-23T06:00:00","ND","14","7,3","2,3","94,1","20,8","81,8","0","0"],
    [10005,"2015-03-23T07:00:00","ND","12","7,26","0,8","204,7","20,9","82,3","15,8","0"],
    [10006,"2015-03-23T08:00:00","ND","13","9,69","2,5","158,8","21,8","78,7","63","0"],
    [10007,"2015-03-23T09:00:00","ND","17","13,68","2,1","167,8","22,7","75,7","81,6","0"],
    [10008,"2015-03-23T10:00:00","ND","20","31,89","2,9","137,8","25","64,5","299,7","0"],
    [10009,"2015-03-23T11:00:00","ND","11","50,85","1,9","138,5","26,9","54,9","417,3","0"],
    [10010,"2015-03-23T12:00:00","ND","9","72,16","1,3","238,9","28,4","50,1","447,6","0"],
    [10011,"2015-03-23T13:00:00","ND","17","79,55","2,3","100,7","29,4","47,1","470,6","0"],
    [10012,"2015-03-23T14:00:00","ND","10","89,8","4,3","98,2","30,9","41,9","445,9","0"],
    [10013,"2015-03-23T15:00:00","ND","26","105,34","4,4","67,6","31,5","40,6","246,2","0"],
    [10014,"2015-03-23T16:00:00","ND","21","76,06","2,2","299","30,8","42,3","70,5","0"],
    [10015,"2015-03-23T17:00:00","ND","20","38,95","1,3","327,7","29,8","45,1","27,6","0"],
    [10016,"2015-03-23T18:00:00","ND","33","45,29","7,9","232,5","26,1","60,2","8","0"],
    [10017,"2015-03-23T19:00:00","ND","23","37,81","2,1","225,2","23,8","75,5","0","27,69"],
    [10018,"2015-03-23T20:00:00","ND","21","23,88","3,8","148,9","22,8","81","0","0"],
    [10019,"2015-03-23T21:00:00","ND","22","26,28","2,1","154,3","22,2","81,2","0","0"],
    [10020,"2015-03-23T22:00:00","ND","8","23,49","2,3","161,4","22","80,7","0","0"],
    [10021,"2015-03-23T23:00:00","ND","10","25,61","2,2","209,8","22,1","79,9","0","0"],
    [10022,"2015-03-24T00:00:00","ND","13","20,06","1,3","175,4","21,8","83,2","0","0"],
    [10023,"2015-03-24T01:00:00","ND","11","14,38","2,7","109,1","21,7","85,1","0","0"],
    [10024,"2015-03-24T02:00:00","ND","13","11,7","1,9","132,9","21,5","85,9","0","0"],
    [10025,"2015-03-24T03:00:00","ND","8","13,21","2,6","197,5","21,6","86","0","0"],
    [10026,"2015-03-24T04:00:00","ND","7","12,23","2,7","164,8","21,7","86,2","0","0"],
    [10027,"2015-03-24T05:00:00","ND","8","14,13","2,2","120","21,4","85,6","0","0"],
    [10028,"2015-03-24T06:00:00","ND","16","11,93","0,5","162,4","21,2","85,5","0","0"],
    [10029,"2015-03-24T07:00:00","ND","30","8,99","1,8","67","21,6","84,3","22,9","0"],
    [10030,"2015-03-24T08:00:00","ND","22","17,78","1,2","43,2","22,5","79,3","126,1","0"],
    [10031,"2015-03-24T09:00:00","ND","20","27,18","2","87,5","23,9","74","244,5","0"],
    [10032,"2015-03-24T10:00:00","ND","15","44,74","2,7","92","25,4","65,6","337,6","0"],
    [10033,"2015-03-24T11:00:00","ND","13","59,09","2,3","107,8","26,9","59","417,6","0"],
    [10034,"2015-03-24T12:00:00","ND","17","76,96","1,8","104,8","28,3","55,5","459,9","0"],
    [10035,"2015-03-24T13:00:00","ND","14","80,67","2","144,3","29,5","49,2","489","0"],
    [10036,"2015-03-24T14:00:00","ND","19","83,38","4,1","107,5","30,6","45,4","457,4","0"],
    [10037,"2015-03-24T15:00:00","ND","24","105,69","2,8","94,3","31,1","45","368,9","0"],
    [10038,"2015-03-24T16:00:00","ND","28","93,41","4,4","4,6","31,4","43,7","118,3","0"],
    [10039,"2015-03-24T17:00:00","ND","17","68,72","5,4","313,2","30,6","44,3","116,1","0"],
    [10040,"2015-03-24T18:00:00","ND","20","54,65","4,6","304","29,6","46,7","30,2","0"],
    [10041,"2015-03-24T19:00:00","ND","22","34,66","3","325,8","28,2","52,4","0","0"],
    [10042,"2015-03-24T20:00:00","ND","28","12,32","2,7","102,6","26,5","61,7","0","0"],
    [10043,"2015-03-24T21:00:00","ND","22","12,21","2,7","98,2","25,8","65,1","0","0"],
    [10044,"2015-03-24T22:00:00","ND","19","9,16","2,1","177,9","24,9","70,3","0","0"],
    [10045,"2015-03-24T23:00:00","ND","27","9,34","2","179,7","24,8","71,6","0","0"],
    [10046,"2015-03-25T00:00:00","ND","10","10,05","2,8","84,1","23,7","74,5","0","0"],
    [10047,"2015-03-25T01:00:00","ND","20","13,82","2,7","81,1","23,4","74,3","0","0"],
    [10048,"2015-03-25T02:00:00","ND","14","15,37","0,6","111,7","23,3","73,9","0","0"],
    [10049,"2015-03-25T03:00:00","ND","10","17,05","1,6","85,5","23,3","73,8","0","0"],
    [10050,"2015-03-25T04:00:00","ND","15","12,99","2","91,1","22,8","76","0","0"],
    [10051,"2015-03-25T05:00:00","ND","16","9,95","1,5","122,6","22,9","76,1","0","0"],
    [10052,"2015-03-25T06:00:00","ND","24","8,12","2","74,3","22,8","76,4","0","0"],
    [10053,"2015-03-25T07:00:00","ND","25","7,81","1,4","157,2","22,3","78,9","8,9","0"],
    [10054,"2015-03-25T08:00:00","ND","33","13,03","2,5","182","23,5","75,3","93,9","0"],
    [10055,"2015-03-25T09:00:00","ND","25","22,16","2,3","194,7","24,5","72,3","109,3","0"],
    [10056,"2015-03-25T10:00:00","ND","28","30,67","3,2","170,9","25,4","69,8","166,9","0"],
    [10057,"2015-03-25T11:00:00","ND","ND","62,46","1,4","186,6","27,3","60,2","442,8","0"],
    [10058,"2015-03-25T12:00:00","ND","15","78,77","1,7","120,1","28,7","53,8","430,3","0"],
    [10059,"2015-03-25T13:00:00","ND","23","103,3","1,7","126,7","30,1","48,9","428,6","0"],
    [10060,"2015-03-25T14:00:00","ND","25","138,84","1,3","13,9","30,5","46,6","238,9","0"],
    [10061,"2015-03-25T15:00:00","ND","20","97,08","4,8","286,5","30,7","43,8","156,2","0"],
    [10062,"2015-03-25T16:00:00","ND","12","50,24","8,4","285,9","29,8","44,7","115,2","0"],
    [10063,"2015-03-25T17:00:00","ND","9","38,4","1,7","242,4","27,3","57,5","26,4","0"],
    [10064,"2015-03-25T18:00:00","ND","27","31,99","4,9","93,1","23,8","79","0","0,76"],
    [10065,"2015-03-25T19:00:00","ND","24","18,49","1,9","62","23,7","81,1","0","0,51"],
    [10066,"2015-03-25T20:00:00","ND","19","11,81","1,8","359,7","23,9","78,9","0","3,3"],
    [10067,"2015-03-25T21:00:00","ND","6","12,52","3,4","288,9","23,7","77,7","0","0"],
    [10068,"2015-03-25T22:00:00","ND","15","8,12","0,9","1,5","24","77,3","0","0"],
    [10069,"2015-03-25T23:00:00","ND","18","7,08","1,2","60,9","23,6","80,7","0","0"],
    [10070,"2015-03-26T00:00:00","ND","21","7,06","1,5","149,9","23,6","81,6","0","0"],
    [10071,"2015-03-26T01:00:00","ND","18","7,18","2,8","195","23,4","82,1","0","0"],
    [10072,"2015-03-26T02:00:00","ND","15","8,07","1,7","154,5","23,3","82,1","0","0"],
    [10073,"2015-03-26T03:00:00","ND","15","10,03","0,7","242,4","23,2","81,2","0","0"],
    [10074,"2015-03-26T04:00:00","ND","19","8,16","1,6","142,2","23","82,9","0","0"],
    [10075,"2015-03-26T05:00:00","ND","12","8,42","2,1","121","22,9","81,2","0","0"],
    [10076,"2015-03-26T06:00:00","ND","19","6,67","2,6","72,9","22,7","84,3","0","0"],
    [10077,"2015-03-26T07:00:00","ND","22","7,14","1,7","28,6","22,6","85,1","7,7","0"],
    [10078,"2015-03-26T08:00:00","ND","26","9,77","1,4","101,2","23,1","81,9","64,2","0"],
    [10079,"2015-03-26T09:00:00","ND","19","17,45","2,2","77,9","23,6","78,6","148,4","0"],
    [10080,"2015-03-26T10:00:00","ND","19","29,36","3,1","73,4","25","73","224,7","0"],
    [10081,"2015-03-26T11:00:00","ND","10","46,98","3,1","85,7","26,7","64,6","399,9","0"],
    [10082,"2015-03-26T12:00:00","ND","12","61,3","2,4","82,8","28,1","57,9","476,5","0"],
    [10083,"2015-03-26T13:00:00","ND","12","70,94","4,1","57,3","29,5","52,2","498,6","0"],
    [10084,"2015-03-26T14:00:00","ND","20","86,68","5,5","75,6","29,7","53,5","354","0"],
    [10085,"2015-03-26T15:00:00","ND","18","85,97","6,4","62,4","30,1","51,3","264,5","0"],
    [10086,"2015-03-26T16:00:00","ND","11","48,06","7,2","51","30","51","174,7","0"],
    [10087,"2015-03-26T17:00:00","ND","24","31,01","5,5","58,6","29,4","53,2","59,8","0"],
    [10088,"2015-03-26T18:00:00","ND","23","18,56","5","70","28,1","56,8","14,7","0"],
    [10089,"2015-03-26T19:00:00","ND","25","15,11","3,5","64,6","26,9","60,7","0","0"],
    [10090,"2015-03-26T20:00:00","ND","33","11,07","2,9","83,1","26,1","64,3","0","0"],
    [10091,"2015-03-26T21:00:00","ND","22","10,13","2,9","92,1","24,8","70,2","0","0"],
    [10092,"2015-03-26T22:00:00","ND","20","12,38","1,1","41,4","24,4","71,1","0","0"],
    [10093,"2015-03-26T23:00:00","ND","32","11,75","2,7","231,7","23,9","75,5","0","0"],
    [10094,"2015-03-27T00:00:00","ND","17","12,28","1,6","175,9","23,6","76,5","0","0"],
    [10095,"2015-03-27T01:00:00","ND","16","10,13","1,7","146,2","23,5","76,7","0","0"],
    [10096,"2015-03-27T02:00:00","ND","22","8,91","2","90,4","22,8","79,6","0","0"],
    [10097,"2015-03-27T03:00:00","ND","17","6,79","2,3","89,5","22,2","81,7","0","0"],
    [10098,"2015-03-27T04:00:00","ND","13","7,03","2,5","111,2","21,8","82,6","0","0"],
    [10099,"2015-03-27T05:00:00","ND","22","6,87","0,7","256,4","21,7","82,8","0","0"],
    [10100,"2015-03-27T06:00:00","ND","30","7,24","0,7","304,9","22,3","80,1","0","0"],
    [10101,"2015-03-27T07:00:00","ND","43","7,85","2,2","116,4","22,1","81,7","13","0"],
    [10102,"2015-03-27T08:00:00","ND","39","8,73","1,8","132,8","22,6","79,8","48,5","0"],
    [10103,"2015-03-27T09:00:00","ND","29","19,17","2,2","154","24","75,3","180,6","0"],
    [10104,"2015-03-27T10:00:00","ND","24","50,67","1,9","197,5","26,1","65,6","320,2","0"],
    [10105,"2015-03-27T11:00:00","ND","21","77,3","1,6","177,7","27,6","61,1","411,1","0"],
    [10106,"2015-03-27T12:00:00","ND","19","87,5","2","91,3","29,1","52,9","464,5","0"],
    [10107,"2015-03-27T13:00:00","ND","24","91,51","4,3","96","30,6","45,7","410","0"],
    [10108,"2015-03-27T14:00:00","ND","23","144,08","1,7","54","31,1","44,4","293,6","0"],
    [10109,"2015-03-27T15:00:00","ND","27","162,43","4,5","68,7","32,2","40,5","346,5","0"],
    [10110,"2015-03-27T16:00:00","ND","26","147,28","4","70,3","32,5","40,3","252","0"],
    [10111,"2015-03-27T17:00:00","ND","21","86,34","4","46,3","32,6","39,9","132","0"],
    [10112,"2015-03-27T18:00:00","ND","14","46,25","7,1","300,6","30,5","46,5","49,7","0"],
    [10113,"2015-03-27T19:00:00","ND","18","32,79","6,2","295,9","28,5","53","0","0"],
    [10114,"2015-03-27T20:00:00","ND","21","18,13","1,9","345","27,8","56","0","0"],
    [10115,"2015-03-27T21:00:00","ND","27","12,78","3,9","64,6","25,8","66,6","0","0"],
    [10116,"2015-03-27T22:00:00","ND","25","11,97","2,7","77,7","25,3","67,5","0","0"],
    [10117,"2015-03-27T23:00:00","ND","24","14,09","1,1","163,6","25,5","66,3","0","0"],
    [10118,"2015-03-28T00:00:00","ND","23","9,34","2,5","158,7","24,8","71","0","0"],
    [10119,"2015-03-28T01:00:00","ND","16","11,32","1,9","168,3","24,4","73,3","0","0"],
    [10120,"2015-03-28T02:00:00","ND","23","10,03","0,9","279,4","24,1","74,7","0","0"],
    [10121,"2015-03-28T03:00:00","ND","23","8,81","2,9","100,7","23,7","75,9","0","0"],
    [10122,"2015-03-28T04:00:00","ND","19","9,13","1,8","87,9","23,3","75,9","0","0"],
    [10123,"2015-03-28T05:00:00","ND","22","9,46","1,5","109,9","23,5","74,9","0","0"],
    [10124,"2015-03-28T06:00:00","ND","23","7,57","0,7","42,1","23,8","73,9","0","0"],
    [10125,"2015-03-28T07:00:00","ND","37","8,22","1,8","167,4","24,1","74,3","12,8","0"],
    [10126,"2015-03-28T08:00:00","ND","32","11,22","2,9","170,6","24,2","74,6","36,2","0"],
    [10127,"2015-03-28T09:00:00","ND","22","18,31","4,2","171,5","24,9","73,9","158,5","0"],
    [10128,"2015-03-28T10:00:00","ND","14","34,34","5,8","193,3","25,6","71,3","269,9","0"],
    [10129,"2015-03-28T11:00:00","ND","14","51,89","3,9","189,7","26,5","64,7","297,2","0"],
    [10130,"2015-03-28T12:00:00","ND","13","65,72","2,5","154,4","27,4","61,3","377,6","0"],
    [10131,"2015-03-28T13:00:00","ND","16","76,71","3,3","110,7","28,8","55,8","293,1","0"],
    [10132,"2015-03-28T14:00:00","ND","21","76,85","3,8","79,8","28,8","54,8","180,9","0"],
    [10133,"2015-03-28T15:00:00","ND","22","80,81","3,6","68,8","29,4","53,7","196,3","0"],
    [10134,"2015-03-28T16:00:00","ND","30","66,76","3,9","62,6","29,3","52,4","91,1","0"],
    [10135,"2015-03-28T17:00:00","ND","14","38,07","4","341,5","29","47,4","45,9","0"],
    [10136,"2015-03-28T18:00:00","ND","13","25,41","7,3","67,8","26,1","64,6","17,3","0"],
    [10137,"2015-03-28T19:00:00","ND","21","21,59","3,5","62,4","24,8","71","0","0"],
    [10138,"2015-03-28T20:00:00","ND","25","32,3","5,6","202,7","24,6","72,8","0","0"],
    [10139,"2015-03-28T21:00:00","ND","9","49,33","7,4","205,2","23,1","80,3","0","0"],
    [10140,"2015-03-28T22:00:00","ND","14","34,69","4,4","213","22,7","82,4","0","0"],
    [10141,"2015-03-28T23:00:00","ND","11","23,74","2,3","155,5","22,7","82","0","0"],
    [10142,"2015-03-29T00:00:00","ND","12","16,46","2,2","106,1","22,3","84,7","0","0"],
    [10143,"2015-03-29T01:00:00","ND","16","19,53","1,8","54,7","22,3","84,1","0","0"],
    [10144,"2015-03-29T02:00:00","ND","5","17,94","2,8","87,3","22","85,4","0","0"],
    [10145,"2015-03-29T03:00:00","ND","6","19,25","2,2","93,3","22","84,9","0","0"],
    [10146,"2015-03-29T04:00:00","ND","15","18,51","2,7","65,8","22","85,4","0","0"],
    [10147,"2015-03-29T05:00:00","ND","14","18,11","2","42,2","21,8","86","0","2,29"],
    [10148,"2015-03-29T06:00:00","ND","23","14,33","1,1","323,6","21,7","87,7","0","0,51"],
    [10149,"2015-03-29T07:00:00","ND","18","9,16","0,8","101,3","22","86,9","0","0,25"],
    [10150,"2015-03-29T08:00:00","ND","24","8,87","2,7","81,7","22","88,4","4,5","0,51"],
    [10151,"2015-03-29T09:00:00","ND","14","23,59","4,5","51,5","21,4","87,7","14,5","5,33"],
    [10152,"2015-03-29T10:00:00","ND","8","33,28","1,1","93,7","21,2","85,7","54,1","3,3"],
    [10153,"2015-03-29T11:00:00","ND","9","34,64","2","165","21,7","84,7","82,4","0"],
    [10154,"2015-03-29T12:00:00","ND","ND","44,84","1,1","196,1","22,2","81,6","118,8","0"],
    [10155,"2015-03-29T13:00:00","ND","ND","64,74","1,8","292","23,3","76,9","227,9","0,25"],
    [10156,"2015-03-29T14:00:00","ND","ND","ND","ND","ND","ND","ND","ND","ND"],
    [10157,"2015-03-29T15:00:00","ND","ND","ND","ND","ND","ND","ND","ND","ND"],
    [10158,"2015-03-29T16:00:00","ND","ND","ND","ND","ND","ND","ND","ND","ND"],
    [10159,"2015-03-29T17:00:00","ND","ND","ND","ND","ND","ND","ND","ND","ND"],
    [10160,"2015-03-29T18:00:00","ND","ND","ND","ND","ND","ND","ND","ND","ND"],
    [10161,"2015-03-29T19:00:00","ND","ND","ND","ND","ND","ND","ND","ND","ND"],
    [10162,"2015-03-29T20:00:00","ND","ND","ND","ND","ND","ND","ND","ND","ND"],
    [10163,"2015-03-29T21:00:00","ND","ND","ND","ND","ND","ND","ND","ND","ND"],
    [10164,"2015-03-29T22:00:00","ND","ND","ND","ND","ND","ND","ND","ND","ND"],
    [10165,"2015-03-29T23:00:00","ND","ND","ND","ND","ND","ND","ND","ND","ND"],
    [10166,"2015-03-30T00:00:00","ND","ND","ND","ND","ND","ND","ND","ND","ND"],
    [10167,"2015-03-30T01:00:00","ND","ND","ND","ND","ND","ND","ND","ND","ND"],
    [10168,"2015-03-30T02:00:00","ND","ND","ND","ND","ND","ND","ND","ND","ND"],
    [10169,"2015-03-30T03:00:00","ND","ND","ND","ND","ND","ND","ND","ND","ND"],
    [10170,"2015-03-30T04:00:00","ND","ND","ND","ND","ND","ND","ND","ND","ND"],
    [10171,"2015-03-30T05:00:00","ND","ND","ND","ND","ND","ND","ND","ND","ND"],
    [10172,"2015-03-30T06:00:00","ND","ND","ND","ND","ND","ND","ND","ND","ND"],
    [10173,"2015-03-30T07:00:00","ND","ND","ND","ND","ND","ND","ND","ND","ND"],
    [10174,"2015-03-30T08:00:00","ND","ND","ND","ND","ND","ND","ND","ND","ND"],
    [10175,"2015-03-30T09:00:00","ND","ND","ND","ND","ND","ND","ND","ND","ND"],
    [10176,"2015-03-30T10:00:00","ND","ND","ND","ND","ND","ND","ND","ND","ND"],
    [10177,"2015-03-30T11:00:00","ND","ND","ND","ND","ND","ND","ND","ND","ND"],
    [10178,"2015-03-30T12:00:00","ND","ND","ND","ND","ND","ND","ND","ND","ND"],
    [10179,"2015-03-30T13:00:00","ND","ND","ND","ND","ND","ND","ND","ND","ND"],
    [10180,"2015-03-30T14:00:00","ND","ND","ND","ND","ND","ND","ND","ND","ND"],
    [10181,"2015-03-30T15:00:00","ND","ND","ND","ND","ND","ND","ND","ND","ND"],
    [10182,"2015-03-30T16:00:00","ND","ND","ND","ND","ND","ND","ND","ND","ND"],
    [10183,"2015-03-30T17:00:00","ND","ND","ND","ND","ND","ND","ND","ND","ND"],
    [10184,"2015-03-30T18:00:00","ND","ND","ND","ND","ND","ND","ND","ND","ND"],
    [10185,"2015-03-30T19:00:00","ND","ND","ND","ND","ND","ND","ND","ND","ND"],
    [10186,"2015-03-30T20:00:00","ND","ND","ND","ND","ND","ND","ND","ND","ND"],
    [10187,"2015-03-30T21:00:00","ND","ND","ND","ND","ND","ND","ND","ND","ND"],
    [10188,"2015-03-30T22:00:00","ND","ND","ND","ND","ND","ND","ND","ND","ND"],
    [10189,"2015-03-30T23:00:00","ND","ND","ND","ND","ND","ND","ND","ND","ND"],
    [10190,"2015-03-31T00:00:00","ND","ND","ND","ND","ND","ND","ND","ND","ND"],
    [10191,"2015-03-31T01:00:00","ND","ND","ND","ND","ND","ND","ND","ND","ND"],
    [10192,"2015-03-31T02:00:00","ND","ND","ND","ND","ND","ND","ND","ND","ND"],
    [10193,"2015-03-31T03:00:00","ND","ND","ND","ND","ND","ND","ND","ND","ND"],
    [10194,"2015-03-31T04:00:00","ND","ND","ND","ND","ND","ND","ND","ND","ND"],
    [10195,"2015-03-31T05:00:00","ND","ND","ND","ND","ND","ND","ND","ND","ND"],
    [10196,"2015-03-31T06:00:00","ND","ND","ND","ND","ND","ND","ND","ND","ND"],
    [10197,"2015-03-31T07:00:00","ND","ND","ND","ND","ND","ND","ND","ND","ND"],
    [10198,"2015-03-31T08:00:00","ND","ND","ND","ND","ND","ND","ND","ND","ND"],
    [10199,"2015-03-31T09:00:00","ND","ND","ND","ND","ND","ND","ND","ND","ND"],
    [10200,"2015-03-31T10:00:00","ND","ND","ND","ND","ND","ND","ND","ND","ND"],
    [10201,"2015-03-31T11:00:00","ND","ND","ND","ND","ND","ND","ND","ND","ND"],
    [10202,"2015-03-31T12:00:00","ND","15","ND","ND","ND","ND","ND","ND","ND"],
    [10203,"2015-03-31T13:00:00","ND","18","66,68","1,7","149,4","28,5","55,2","472,5","0"],
    [10204,"2015-03-31T14:00:00","ND","21","81,67","1,7","133,8","29,7","49,1","438,5","0"],
    [10205,"2015-03-31T15:00:00","ND","21","89,62","2,6","85,2","30,4","46,4","337,1","0"],
    [10206,"2015-03-31T16:00:00","ND","15","93,51","2,6","62,2","31","43,9","261,2","0"],
    [10207,"2015-03-31T17:00:00","ND","23","101,87","2,7","350,7","31,1","44,6","149,2","0"],
    [10208,"2015-03-31T18:00:00","ND","20","57,34","4,4","288,3","30","48,7","32,6","0"],
    [10209,"2015-03-31T19:00:00","ND","16","34,16","4,6","293,7","28,6","53","0","0"],
    [10210,"2015-03-31T20:00:00","ND","15","19,58","3,2","310,9","27,8","55,8","0","0"],
    [10211,"2015-03-31T21:00:00","ND","34","12,13","3,5","71,2","26,2","66,2","0","0"],
    [10212,"2015-03-31T22:00:00","ND","25","15,93","2,1","81,4","25,4","67,9","0","0"],
    [10213,"2015-03-31T23:00:00","ND","20","14,03","2,7","81,3","24,7","70,9","0","0"],
    [10214,"2015-04-01T00:00:00","ND","18","12,56","2,3","65,2","24,2","73,2","0","0"],
    [10215,"2015-04-01T01:00:00","ND","11","25,81","2,4","44,3","24,4","71,1","0","0"],
    [10216,"2015-04-01T02:00:00","ND","14","20,59","2,3","110,3","23,5","76,2","0","0"],
    [10217,"2015-04-01T03:00:00","ND","14","18,07","1,4","197,6","23,5","77,1","0","0"],
    [10218,"2015-04-01T04:00:00","ND","19","13,3","1,5","105","23,5","77,3","0","0"],
    [10219,"2015-04-01T05:00:00","ND","17","9,58","0,8","253,6","23,2","79,1","0","0"],
    [10220,"2015-04-01T06:00:00","ND","24","9,07","2","278,5","23,8","76,8","0","0"],
    [10221,"2015-04-01T07:00:00","ND","29","8,26","1,7","117,2","23,7","78,3","9","0"],
    [10222,"2015-04-01T08:00:00","ND","28","8,52","2","114,7","23,6","81,4","43","0"],
    [10223,"2015-04-01T09:00:00","ND","27","19,64","3,6","204,8","24,4","76,9","106,6","0"],
    [10224,"2015-04-01T10:00:00","ND","19","37,07","4","210,9","26","70,1","237,6","0"],
    [10225,"2015-04-01T11:00:00","ND","19","56,58","3,1","186,1","27,8","61","352,6","0"],
    [10226,"2015-04-01T12:00:00","ND","16","56,44","4,2","101,6","27,7","61,6","230,9","0"],
    [10227,"2015-04-01T13:00:00","ND","11","78,59","1,7","100,6","29,1","57","423,2","0"],
    [10228,"2015-04-01T14:00:00","ND","16","81,77","3,9","76,3","30,2","53,8","412,7","0"],
    [10229,"2015-04-01T15:00:00","ND","21","96,29","2,4","74,1","30,6","50,3","313,4","0"],
    [10230,"2015-04-01T16:00:00","ND","16","97,53","4,7","313,9","30,7","48,5","221,4","0"],
    [10231,"2015-04-01T17:00:00","ND","4","70,49","5,7","292,9","30,9","45,3","172,7","0"],
    [10232,"2015-04-01T18:00:00","ND","14","40,56","4,4","358,7","30","47,5","29,2","0"],
    [10233,"2015-04-01T19:00:00","ND","13","29,73","4,6","293,6","28,5","51,4","0","0"],
    [10234,"2015-04-01T20:00:00","ND","14","26,34","4","181,1","27,1","59","0","0"],
    [10235,"2015-04-01T21:00:00","ND","12","42,47","6,2","212,5","24,5","69,5","0","0"],
    [10236,"2015-04-01T22:00:00","ND","9","36,36","4,3","208,8","24","73,7","0","0"],
    [10237,"2015-04-01T23:00:00","ND","8","33,95","3","210,1","24,2","72,8","0","0"],
    [10238,"2015-04-02T00:00:00","ND","12","29,59","3,3","180,3","23,5","77,7","0","1,27"],
    [10239,"2015-04-02T01:00:00","ND","8","20,41","2,9","114,2","22,3","84,1","0","0"],
    [10240,"2015-04-02T02:00:00","ND","7","22,47","0,8","125,4","22,3","83,7","0","0"],
    [10241,"2015-04-02T03:00:00","ND","6","23,8","2,4","149,1","22,3","83,6","0","0"],
    [10242,"2015-04-02T04:00:00","ND","11","18,23","2,2","132,1","22,2","84,4","0","0"],
    [10243,"2015-04-02T05:00:00","ND","8","24,53","1,2","284,9","22,1","84,2","0","0"],
    [10244,"2015-04-02T06:00:00","ND","10","16,11","1,1","218,4","22,4","83","0","0"],
    [10245,"2015-04-02T07:00:00","ND","17","11,01","0,8","354,8","22,4","83,9","13","0"],
    [10246,"2015-04-02T08:00:00","ND","25","13,74","3","79,4","23","83,1","88,3","0"],
    [10247,"2015-04-02T09:00:00","ND","25","23,33","3,2","104,5","23,8","79,7","137,4","0"],
    [10248,"2015-04-02T10:00:00","ND","17","43,31","3,4","127,5","26","68,8","310,4","0"],
    [10249,"2015-04-02T11:00:00","ND","10","56,36","2,9","157,7","27,5","62,6","396,4","0"],
    [10250,"2015-04-02T12:00:00","ND","11","63,76","3,1","156,1","28,6","56,9","373,5","0"],
    [10251,"2015-04-02T13:00:00","ND","10","57,22","3,3","151,3","29,6","52,8","395,7","0"],
    [10252,"2015-04-02T14:00:00","ND","11","63,19","4,3","145,6","30","52,5","338,2","0"],
    [10253,"2015-04-02T15:00:00","ND","13","66,52","4,1","132,2","29,9","52,9","225,7","0"],
    [10254,"2015-04-02T16:00:00","ND","17","75,65","2,6","158,5","29,7","52,3","124,8","0"],
    [10255,"2015-04-02T17:00:00","ND","12","65,52","1","231","29,5","51,4","44,4","0"],
    [10256,"2015-04-02T18:00:00","ND","10","44,43","5","284,2","28,7","51,3","14,3","0"],
    [10257,"2015-04-02T19:00:00","ND","11","31,32","4,5","285,4","27,5","55,1","0","0"],
    [10258,"2015-04-02T20:00:00","ND","6","23,57","4,2","295","26,9","57,1","0","0"],
    [10259,"2015-04-02T21:00:00","ND","8","12,38","3,2","85,1","25,2","67,9","0","0"],
    [10260,"2015-04-02T22:00:00","ND","7","12,46","1,4","66,5","24,4","72,5","0","0"],
    [10261,"2015-04-02T23:00:00","ND","8","12,99","2,8","98,4","24,2","72,6","0","0"],
    [10262,"2015-04-03T00:00:00","ND","7","12,23","2","110,8","23,8","73,6","0","0"],
    [10263,"2015-04-03T01:00:00","ND","4","14,31","1,7","121,9","23,5","74,8","0","0"],
    [10264,"2015-04-03T02:00:00","ND","ND","11,64","2,4","163,7","23,5","75,2","0","0"],
    [10265,"2015-04-03T03:00:00","ND","3","12,89","1,7","170,7","23,4","76,5","0","0"],
    [10266,"2015-04-03T04:00:00","ND","12","16,01","1,7","205,5","23,8","75,4","0","0"],
    [10267,"2015-04-03T05:00:00","ND","14","13,95","2,6","208,9","23,8","76,3","0","0"],
    [10268,"2015-04-03T06:00:00","ND","9","8,6","1,6","109,2","23,2","81,6","0","0"],
    [10269,"2015-04-03T07:00:00","ND","9","8,93","2,7","89,7","23","82","6,5","0"],
    [10270,"2015-04-03T08:00:00","ND","14","14,29","2,3","29,8","23,5","78,7","40,2","0"],
    [10271,"2015-04-03T09:00:00","ND","10","18,07","1,6","65,5","24","77","55,8","0"],
    [10272,"2015-04-03T10:00:00","ND","12","23,47","2,3","185,3","24,8","74","109,6","0"],
    [10273,"2015-04-03T11:00:00","ND","13","29,75","3,3","185,3","25,3","70,9","145,3","0"],
    [10274,"2015-04-03T12:00:00","ND","19","54,87","1,6","167,3","26,1","66","293,5","0"],
    [10275,"2015-04-03T13:00:00","ND","17","74,63","2,2","45,6","27,1","61,7","200,6","0"],
    [10276,"2015-04-03T14:00:00","ND","20","96,14","1,9","29,1","28,1","58,3","345,9","0"],
    [10277,"2015-04-03T15:00:00","ND","15","86,72","2,8","138,4","29","53,3","212,1","0"],
    [10278,"2015-04-03T16:00:00","ND","14","75,75","3,1","112,1","28,7","55,9","135,9","0"],
    [10279,"2015-04-03T17:00:00","ND","15","64,52","1,5","180,1","27,9","57","13,4","0"],
    [10280,"2015-04-03T18:00:00","ND","5","36,76","7,4","277,3","25,3","64,5","5,1","0"],
    [10281,"2015-04-03T19:00:00","ND","11","20,78","2,8","351,5","25","68,7","0","3,3"],
    [10282,"2015-04-03T20:00:00","ND","7","25,08","3,3","25,1","22,9","83,3","0","5,84"],
    [10283,"2015-04-03T21:00:00","ND","7","17,94","1,8","8,8","22,8","83,4","0","0"],
    [10284,"2015-04-03T22:00:00","ND","12","18,31","1,9","54,9","22,7","84,2","0","0"],
    [10285,"2015-04-03T23:00:00","ND","8","14,17","2,6","318","22,9","81,6","0","0"],
    [10286,"2015-04-04T00:00:00","ND","10","13,68","1,9","22,1","23,2","81,4","0","0"],
    [10287,"2015-04-04T01:00:00","ND","6","25,33","2","43,3","22,5","82,8","0","0"],
    [10288,"2015-04-04T02:00:00","ND","4","25,77","1,8","103,3","22,2","83,8","0","0"],
    [10289,"2015-04-04T03:00:00","ND","2","25,22","2,2","103,3","22","84,2","0","0"],
    [10290,"2015-04-04T04:00:00","ND","2","19,9","1,5","102,9","21,7","85,8","0","0"],
    [10291,"2015-04-04T05:00:00","ND","4","16,25","0,4","125,8","21,9","85,1","0","0"],
    [10292,"2015-04-04T06:00:00","ND","4","13,76","0,5","172,3","22,2","83,9","0","0"],
    [10293,"2015-04-04T07:00:00","ND","14","10,68","0,7","119,3","22,3","83,6","15,5","0"],
    [10294,"2015-04-04T08:00:00","ND","14","14,05","2,5","83,8","22,6","83,8","69,8","0"],
    [10295,"2015-04-04T09:00:00","ND","14","20,02","2,6","73,5","23,5","81,7","150,2","0"],
    [10296,"2015-04-04T10:00:00","ND","16","34,81","2,5","69,2","25","73,9","225,8","0"],
    [10297,"2015-04-04T11:00:00","ND","ND","54,59","1,8","58","26,4","67,5","370,7","0"],
    [10298,"2015-04-04T12:00:00","ND","9","63,15","2,6","98,9","27,8","60,2","399,7","0"],
    [10299,"2015-04-04T13:00:00","ND","9","69,94","2,9","65,2","28,8","56,2","391,8","0"],
    [10300,"2015-04-04T14:00:00","ND","21","94,76","3,1","73,4","29,9","52,2","355,7","0"],
    [10301,"2015-04-04T15:00:00","ND","10","81,73","6,1","55","30,3","51,6","234,5","0,51"],
    [10302,"2015-04-04T16:00:00","ND","21","40,31","3,7","40,2","27,5","63,3","58,4","0"],
    [10303,"2015-04-04T17:00:00","ND","14","29,46","4,2","190,9","26,6","60,7","30,1","0"],
    [10304,"2015-04-04T18:00:00","ND","8","41,9","6,1","193,9","24,7","67","15,4","0"],
    [10305,"2015-04-04T19:00:00","ND","ND","29,55","2,9","177,2","24","70,9","0","0"],
    [10306,"2015-04-04T20:00:00","ND","ND","25,35","4","198,8","23,2","74,2","0","0"],
    [10307,"2015-04-04T21:00:00","ND","ND","13,38","1,6","175,9","23,4","74,9","0","0"],
    [10308,"2015-04-04T22:00:00","ND","ND","10,48","2,7","32,7","22,7","78,5","0","0"],
    [10309,"2015-04-04T23:00:00","ND","ND","9,77","1,6","140,2","22,5","80,1","0","0"],
    [10310,"2015-04-05T00:00:00","ND","ND","8,32","1,8","200,6","22,5","80,5","0","0"],
    [10311,"2015-04-05T01:00:00","ND","ND","11,91","1,7","138,2","22,7","79,5","0","0"],
    [10312,"2015-04-05T02:00:00","ND","ND","15,8","1,6","82,4","22,4","80,2","0","0"],
    [10313,"2015-04-05T03:00:00","ND","ND","13,91","1,8","79,5","21,9","82,6","0","0"],
    [10314,"2015-04-05T04:00:00","ND","ND","11,68","0,9","124","21,6","84,6","0","0"],
    [10315,"2015-04-05T05:00:00","ND","ND","12,87","1,5","97,3","21,7","85,1","0","0"],
    [10316,"2015-04-05T06:00:00","ND","ND","9,75","2,3","88,2","21,7","85,7","0","0"],
    [10317,"2015-04-05T07:00:00","ND","ND","10,89","1,6","59","22","85,4","0","0"],
    [10318,"2015-04-05T08:00:00","ND","ND","12,95","0,6","41,5","22,3","85,2","44,4","0"],
    [10319,"2015-04-05T09:00:00","ND","ND","18,27","3,6","120,2","23,2","82","120,8","0"],
    [10320,"2015-04-05T10:00:00","ND","ND","31,77","1,5","10,7","24,4","75,8","196,4","0"],
    [10321,"2015-04-05T11:00:00","ND","ND","41,86","2,5","72,1","25,4","70,8","169,6","0"],
    [10322,"2015-04-05T12:00:00","ND","ND","52,93","2,6","65,1","25,9","68,2","187,5","0"],
    [10323,"2015-04-05T13:00:00","ND","ND","66,52","3,7","21","26,8","62,4","263,3","0"],
    [10324,"2015-04-05T14:00:00","ND","ND","56,81","4,7","47,6","28,1","60","373,8","0"],
    [10325,"2015-04-05T15:00:00","ND","ND","55,71","5,5","54,7","29,1","54,8","341,9","0"],
    [10326,"2015-04-05T16:00:00","ND","ND","60,93","5,1","71,3","29,1","51,4","135","0"],
    [10327,"2015-04-05T17:00:00","ND","ND","62,34","3,6","100,2","29","53,4","81,3","0"],
    [10328,"2015-04-05T18:00:00","ND","ND","58,5","2,4","107,9","28,8","52,4","30,3","0"],
    [10329,"2015-04-05T19:00:00","ND","ND","38,21","2,4","150,6","27,8","59,7","0","0"],
    [10330,"2015-04-05T20:00:00","ND","ND","37,25","2,3","36,5","27,3","60","0","0"],
    [10331,"2015-04-05T21:00:00","ND","ND","28,06","2,3","37,4","26,9","57,1","0","0"],
    [10332,"2015-04-05T22:00:00","ND","ND","14,44","1","22,8","25,9","62,4","0","0"],
    [10333,"2015-04-05T23:00:00","ND","ND","11,99","1","79,2","25","68,4","0","0"],
    [10334,"2015-04-06T00:00:00","ND","ND","21,51","2,1","34,8","24,7","69,8","0","0"],
    [10335,"2015-04-06T01:00:00","ND","ND","16,09","1,6","55,8","23,8","75,3","0","0"],
    [10336,"2015-04-06T02:00:00","ND","ND","14,15","2","114,2","23,4","77,8","0","0"],
    [10337,"2015-04-06T03:00:00","ND","ND","16,01","1,2","8,8","23,4","77,5","0","0"],
    [10338,"2015-04-06T04:00:00","ND","ND","16,05","1,7","60","23,1","77,5","0","0"],
    [10339,"2015-04-06T05:00:00","ND","ND","11,11","1,5","147,9","23,1","78,7","0","0"],
    [10340,"2015-04-06T06:00:00","ND","ND","10,34","0,8","48,6","23","78,9","0","0"],
    [10341,"2015-04-06T07:00:00","ND","ND","8,36","1,6","89,6","22,7","83","10","0"],
    [10342,"2015-04-06T08:00:00","ND","ND","10,42","1,7","56,7","23,3","82,5","79,8","0"],
    [10343,"2015-04-06T09:00:00","ND","ND","27,38","2,9","45,7","24,9","73,2","229,6","0"],
    [10344,"2015-04-06T10:00:00","ND","ND","42,31","2,7","70,5","26,4","66,4","291,1","0"],
    [10345,"2015-04-06T11:00:00","ND","ND","66,96","2,9","93,8","28,2","58,7","459,8","0"],
    [10346,"2015-04-06T12:00:00","ND","ND","89,41","2,7","73","29,1","53,5","449","0"],
    [10347,"2015-04-06T13:00:00","ND","ND","99,87","1,8","104,5","30,3","49,4","406,3","0"],
    [10348,"2015-04-06T14:00:00","ND","ND","100,26","3,2","145,4","31,5","43,1","372,3","0"],
    [10349,"2015-04-06T15:00:00","ND","ND","84,87","4,3","144,9","31,3","45","240,7","0"],
    [10350,"2015-04-06T16:00:00","ND","ND","85,7","3,8","93,2","31,7","42,5","213","0"],
    [10351,"2015-04-06T17:00:00","ND","ND","98,96","1,9","280,8","31,2","44,2","80,4","0"],
    [10352,"2015-04-06T18:00:00","ND","ND","60,95","6,4","291,4","29,9","48,8","23,2","0"],
    [10353,"2015-04-06T19:00:00","ND","ND","36,87","4,1","303","28,8","52,1","0","0"],
    [10354,"2015-04-06T20:00:00","ND","ND","18,31","3,5","61,3","27,2","61","0","0"],
    [10355,"2015-04-06T21:00:00","ND","ND","20,41","2,5","50","26","65,7","0","0"],
    [10356,"2015-04-06T22:00:00","ND","ND","13,85","2,6","137,7","25,7","67,2","0","0"],
    [10357,"2015-04-06T23:00:00","ND","ND","15,58","3,9","126","25,3","69,2","0","0"],
    [10358,"2015-04-07T00:00:00","ND","ND","17,19","2,2","106","25","70,7","0","0"],
    [10359,"2015-04-07T01:00:00","ND","ND","13,89","1,2","22,1","24,8","71,5","0","0"],
    [10360,"2015-04-07T02:00:00","ND","ND","10,85","4","75,3","23,3","79,9","0","0"],
    [10361,"2015-04-07T03:00:00","ND","ND","14,11","1,4","99,2","23,7","77,7","0","0"],
    [10362,"2015-04-07T04:00:00","ND","ND","13,03","4,3","229,7","23,8","77,5","0","0"],
    [10363,"2015-04-07T05:00:00","ND","ND","19,13","3,4","225,7","24,2","74,4","0","0"],
    [10364,"2015-04-07T06:00:00","ND","ND","16,01","3,5","190,4","24,1","74,9","0","0"],
    [10365,"2015-04-07T07:00:00","ND","ND","11,99","0,8","174,6","23,3","81","22,2","0"],
    [10366,"2015-04-07T08:00:00","ND","ND","18,68","2,3","144,3","24,5","74,6","107","0"],
    [10367,"2015-04-07T09:00:00","ND","ND","30,75","1,8","179,5","25,5","70,2","222,2","0"],
    [10368,"2015-04-07T10:00:00","ND","ND","47,55","2,4","127,7","27,2","64,3","341,2","0"],
    [10369,"2015-04-07T11:00:00","ND","ND","73,69","2,4","133,2","28,7","58,9","415,5","0"],
    [10370,"2015-04-07T12:00:00","ND","ND","90,7","2,6","158","30","52,7","460,9","0"],
    [10371,"2015-04-07T13:00:00","ND","ND","88,09","3,8","171,3","31,1","46,9","457,5","0"],
    [10372,"2015-04-07T14:00:00","ND","ND","79,42","2,8","168,9","32,1","41,2","402,3","0"],
    [10373,"2015-04-07T15:00:00","ND","ND","75,36","3,3","146,6","33","36,8","366","0"],
    [10374,"2015-04-07T16:00:00","ND","13","ND","3,5","116,3","33,3","36","270,7","0"],
    [10375,"2015-04-07T17:00:00","ND","11","68,96","4,7","299,6","32,2","41,6","106,3","0"],
    [10376,"2015-04-07T18:00:00","ND","11","46,45","6,5","306,4","29,8","50,1","33,1","0"],
    [10377,"2015-04-07T19:00:00","ND","7","29,06","6,3","318,9","28,9","51,6","0","0"],
    [10378,"2015-04-07T20:00:00","ND","28","27,96","3,1","156,8","27,2","60,9","0","2,54"],
    [10379,"2015-04-07T21:00:00","ND","6","42,01","7,1","238,2","22,7","80,9","0","6,1"],
    [10380,"2015-04-07T22:00:00","ND","9","22,49","2,5","68,9","22,9","82,1","0","0,51"],
    [10381,"2015-04-07T23:00:00","ND","8","20,21","1,7","48,8","22,8","83,7","0","0"],
    [10382,"2015-04-08T00:00:00","ND","5","22,25","2,2","31,6","22,6","84,8","0","0"],
    [10383,"2015-04-08T01:00:00","ND","5","24,65","2,4","53,1","22,6","83,6","0","0"],
    [10384,"2015-04-08T02:00:00","ND","4","19,47","1,9","192,4","22,4","85,6","0","0"],
    [10385,"2015-04-08T03:00:00","ND","11","16,31","3,8","212,1","21,9","87,2","0","0"],
    [10386,"2015-04-08T04:00:00","ND","11","18,78","2,7","222,4","22","86,8","0","0"],
    [10387,"2015-04-08T05:00:00","ND","22","12,62","0,3","115,7","22","86,1","0","0"],
    [10388,"2015-04-08T06:00:00","ND","22","9,13","1,7","6,8","22,2","85,5","0","0"],
    [10389,"2015-04-08T07:00:00","ND","34","8,77","3","75,6","22","87","11,3","0"],
    [10390,"2015-04-08T08:00:00","ND","34","11,05","3,5","81","22,3","87,1","79,3","0"],
    [10391,"2015-04-08T09:00:00","ND","30","23,47","1,4","72","23,5","81,9","168,1","0"],
    [10392,"2015-04-08T10:00:00","ND","14","43,27","0,5","186,6","25,9","69,6","377,5","0"],
    [10393,"2015-04-08T11:00:00","ND","11","56,61","2,8","105","27,3","62,5","396,9","0"],
    [10394,"2015-04-08T12:00:00","ND","22","77,26","2,5","136,5","28,3","59,1","309,5","0"],
    [10395,"2015-04-08T13:00:00","ND","29","78,95","2,6","127,7","28,4","58,2","117","0"],
    [10396,"2015-04-08T14:00:00","ND","17","58,16","7,4","335,1","24,1","76","15,2","34,54"],
    [10397,"2015-04-08T15:00:00","ND","15","40,66","5,2","2,4","23,3","83,8","75,2","1,52"],
    [10398,"2015-04-08T16:00:00","ND","15","23,8","3,1","9,6","25,3","73,3","137,4","0"],
    [10399,"2015-04-08T17:00:00","ND","12","28,79","4,9","101,1","25,6","70,4","54,2","0"],
    [10400,"2015-04-08T18:00:00","ND","18","33,69","2,7","167,8","25,4","70,1","25,5","0"],
    [10401,"2015-04-08T19:00:00","ND","22","27,22","3,3","222,9","24,4","71,3","0","0"],
    [10402,"2015-04-08T20:00:00","ND","34","12,3","2,1","250,1","24,3","72","0","0"],
    [10403,"2015-04-08T21:00:00","ND","50","10,15","1,1","86,3","24,1","73,9","0","0"],
    [10404,"2015-04-08T22:00:00","ND","40","8,63","1,5","79,8","22,7","79,9","0","0"],
    [10405,"2015-04-08T23:00:00","ND","49","8,77","0,4","284,8","23,1","78,6","0","0"],
    [10406,"2015-04-09T00:00:00","ND","50","9,07","2","57,2","22,6","81,4","0","0"],
    [10407,"2015-04-09T01:00:00","ND","28","9,32","1","333,6","22","83,8","0","0"],
    [10408,"2015-04-09T02:00:00","ND","33","8,93","2,3","108,8","21,9","83,9","0","0"],
    [10409,"2015-04-09T03:00:00","ND","22","8,07","1,5","226,3","21","86,7","0","0"],
    [10410,"2015-04-09T04:00:00","ND","29","8,2","2,1","214,9","21,4","85,3","0","0"],
    [10411,"2015-04-09T05:00:00","ND","21","8,34","1,6","188","21,6","83,8","0","0"],
    [10412,"2015-04-09T06:00:00","ND","39","8,63","2,7","89,5","20,4","86,7","0","0"],
    [10413,"2015-04-09T07:00:00","ND","34","8,34","1,3","250,4","20,6","88,3","26,9","0"],
    [10414,"2015-04-09T08:00:00","ND","36","10,87","0,1","167,4","22,3","83,9","69,4","0"],
    [10415,"2015-04-09T09:00:00","ND","40","22,04","4,5","92,3","23,6","79,5","218,2","0"],
    [10416,"2015-04-09T10:00:00","ND","30","44,57","2,1","83,6","25","70,9","218,9","0"],
    [10417,"2015-04-09T11:00:00","ND","19","67,19","2,4","93,8","26,6","63,4","409,1","0"],
    [10418,"2015-04-09T12:00:00","ND","23","101,51","0,6","176,3","27,9","57,7","403,4","0"],
    [10419,"2015-04-09T13:00:00","ND","20","107,2","1,1","142,1","29,5","51,5","481,7","0"],
    [10420,"2015-04-09T14:00:00","ND","17","99,2","2","135","30,7","47","438","0"],
    [10421,"2015-04-09T15:00:00","ND","17","98,28","4,1","66,3","31,5","45,1","362","0"],
    [10422,"2015-04-09T16:00:00","ND","18","99,22","4,2","60,2","32","42,8","257,8","0"],
    [10423,"2015-04-09T17:00:00","ND","26","121,55","4,1","3,4","31,9","44,2","178,1","0"],
    [10424,"2015-04-09T18:00:00","ND","21","68,13","4,8","319,3","30,8","49,6","63,9","0"],
    [10425,"2015-04-09T19:00:00","ND","12","40,07","5,8","289,9","29,1","53,2","0","0"],
    [10426,"2015-04-09T20:00:00","ND","14","26,86","3,1","310","28,1","57,2","0","0"],
    [10427,"2015-04-09T21:00:00","ND","21","14,52","2,8","107,1","26,1","68,5","0","0"],
    [10428,"2015-04-09T22:00:00","ND","21","15,46","1,4","156,1","25,9","68,6","0","0"],
    [10429,"2015-04-09T23:00:00","ND","27","10,64","1,8","155,8","25,5","70,2","0","0"],
    [10430,"2015-04-10T00:00:00","ND","13","15,88","3","83,7","24,4","74,6","0","0"],
    [10431,"2015-04-10T01:00:00","ND","19","20,7","1","53,1","24,3","73,3","0","0"],
    [10432,"2015-04-10T02:00:00","ND","15","20,37","0,9","87,3","24,4","72,4","0","0"],
    [10433,"2015-04-10T03:00:00","ND","15","22,02","1,1","142,8","24,3","73,1","0","0"],
    [10434,"2015-04-10T04:00:00","ND","21","16,74","2,7","221,9","23,7","77,7","0","0"],
    [10435,"2015-04-10T05:00:00","ND","25","14,29","1,8","182,5","23,9","76,9","0","0"],
    [10436,"2015-04-10T06:00:00","ND","27","9,42","2,6","113,7","23","80,9","0","0"],
    [10437,"2015-04-10T07:00:00","ND","21","8,54","2","149,7","22,8","82,3","5,7","0"],
    [10438,"2015-04-10T08:00:00","ND","25","11,95","2","133,3","23,8","78,3","89,5","0"],
    [10439,"2015-04-10T09:00:00","ND","30","29,67","1,5","149,9","25,4","70,7","218,4","0"],
    [10440,"2015-04-10T10:00:00","ND","23","67,58","0,6","213,2","27,4","63,5","314,8","0"],
    [10441,"2015-04-10T11:00:00","ND","30","106,14","2,6","61,3","28,8","57,2","343,7","0"],
    [10442,"2015-04-10T12:00:00","ND","21","118,35","1,4","115,1","30,2","51,4","469,5","0"],
    [10443,"2015-04-10T13:00:00","ND","22","116,58","2,2","106,9","31,1","47,4","458,2","0"],
    [10444,"2015-04-10T14:00:00","ND","21","112,25","3,4","66","32,4","42,7","409,8","0"],
    [10445,"2015-04-10T15:00:00","ND","23","109,23","3,6","85,4","33","39,1","355,4","0"],
    [10446,"2015-04-10T16:00:00","ND","17","94,66","2,6","83,3","33,8","35,3","259,1","0"],
    [10447,"2015-04-10T17:00:00","ND","19","104,36","1,1","301,9","33,3","38,1","157,3","0"],
    [10448,"2015-04-10T18:00:00","ND","21","84,87","5,8","293,7","31,9","44,5","67,5","0"],
    [10449,"2015-04-10T19:00:00","ND","17","54,95","5,6","291,4","30,5","49,4","0","0"],
    [10450,"2015-04-10T20:00:00","ND","16","33,36","3,1","301,7","28,9","56","0","0"],
    [10451,"2015-04-10T21:00:00","ND","30","19,66","3,7","67,7","27,4","64,5","0","0"],
    [10452,"2015-04-10T22:00:00","ND","26","19,02","2,7","50,5","27,1","65,2","0","0"],
    [10453,"2015-04-10T23:00:00","ND","8","28,65","3","2,6","27","64,8","0","0"],
    [10454,"2015-04-11T00:00:00","ND","9","52,1","7,1","252,5","24,9","71,5","0","0"],
    [10455,"2015-04-11T01:00:00","ND","10","35,2","2,7","133,5","23,4","81,3","0","0,51"],
    [10456,"2015-04-11T02:00:00","ND","15","28,49","1,5","143,7","23,2","84,1","0","0,25"],
    [10457,"2015-04-11T03:00:00","ND","16","25,55","1","302,9","23,6","82,1","0","0"],
    [10458,"2015-04-11T04:00:00","ND","21","12,48","1,9","92,5","23,3","83,7","0","0"],
    [10459,"2015-04-11T05:00:00","ND","22","11,01","2,7","119,7","23","85,3","0","0"],
    [10460,"2015-04-11T06:00:00","ND","26","10,6","2,1","126,1","22,7","85,6","0","0"],
    [10461,"2015-04-11T07:00:00","ND","24","12,21","2,4","231,7","22,9","84,2","11,7","0"],
    [10462,"2015-04-11T08:00:00","ND","26","13,89","2,6","158,2","23,8","81,9","69,6","0"],
    [10463,"2015-04-11T09:00:00","ND","22","21","1,7","175,5","24,5","79,5","154,5","0"],
    [10464,"2015-04-11T10:00:00","ND","23","40,99","1,5","155,7","25,9","72,2","251,2","0"],
    [10465,"2015-04-11T11:00:00","ND","23","60,77","3,3","80,2","27,6","65,7","368,7","0"],
    [10466,"2015-04-11T12:00:00","ND","22","66,23","5,1","72","29","59,4","347,2","0"],
    [10467,"2015-04-11T13:00:00","ND","17","69,72","5,9","49,2","30,2","51,2","402,5","0"],
    [10468,"2015-04-11T14:00:00","ND","8","67,15","6,7","42,6","30,7","50,4","310,4","0"],
    [10469,"2015-04-11T15:00:00","ND","14","63,01","4,8","348,6","30,3","49,2","230","0"],
    [10470,"2015-04-11T16:00:00","ND","12","47,33","5,1","0,8","30,1","46,5","87,9","0"],
    [10471,"2015-04-11T17:00:00","ND","13","38,93","4,2","325","29,2","47,5","33,4","0"],
    [10472,"2015-04-11T18:00:00","ND","18","35,03","4,9","43,1","28,3","55,4","6,2","0"],
    [10473,"2015-04-11T19:00:00","ND","25","26,83","1,8","88,8","27,1","63,4","0","0"],
    [10474,"2015-04-11T20:00:00","ND","16","32,32","4,6","194","25,7","67,9","0","0"],
    [10475,"2015-04-11T21:00:00","ND","19","24,43","2,4","178,6","24,7","71,8","0","0"],
    [10476,"2015-04-11T22:00:00","ND","24","16,07","2,1","155,6","24,3","73,8","0","0"],
    [10477,"2015-04-11T23:00:00","ND","21","13,62","3,8","114,2","23,4","77","0","0"],
    [10478,"2015-04-12T00:00:00","ND","20","15,76","1,2","149,9","22,9","78,7","0","0"],
    [10479,"2015-04-12T01:00:00","ND","28","11,21","2","358,3","23,1","78,4","0","0"],
    [10480,"2015-04-12T02:00:00","ND","27","9,14","2,2","359,2","23,1","78,7","0","0"],
    [10481,"2015-04-12T03:00:00","ND","16","11,7","1,8","72,8","22,4","81,3","0","0"],
    [10482,"2015-04-12T04:00:00","ND","18","11,01","3","98,5","22","82,2","0","0"],
    [10483,"2015-04-12T05:00:00","ND","19","9,87","2,2","211,4","22","83","0","0"],
    [10484,"2015-04-12T06:00:00","ND","22","8,91","1,8","181,3","22","83,1","0","0"],
    [10485,"2015-04-12T07:00:00","ND","25","9,73","1,8","200,5","22,2","83","9,8","0"],
    [10486,"2015-04-12T08:00:00","ND","31","20,29","1,6","227,6","23,4","77,9","120,3","0"],
    [10487,"2015-04-12T09:00:00","ND","26","38,11","1,8","218,7","24,9","69,8","181,2","0"],
    [10488,"2015-04-12T10:00:00","ND","25","40,99","1,8","154","25,6","68","170,6","0"],
    [10489,"2015-04-12T11:00:00","ND","12","57,87","1,5","88,3","26,7","63,4","363,7","0"],
    [10490,"2015-04-12T12:00:00","ND","17","74,18","3,4","97,8","28,4","56,1","418,2","0"],
    [10491,"2015-04-12T13:00:00","ND","13","80,52","3,8","73,8","29,2","51,7","341,8","0"],
    [10492,"2015-04-12T14:00:00","ND","19","82,75","2,7","113,4","30,1","48,7","292,8","0"],
    [10493,"2015-04-12T15:00:00","ND","17","95,78","3,6","102,7","31,1","45,3","267,9","0"],
    [10494,"2015-04-12T16:00:00","ND","22","85,44","3,9","93","31,3","44,5","166","0"],
    [10495,"2015-04-12T17:00:00","ND","21","82,5","2,8","96,2","31","44,5","63,3","0"],
    [10496,"2015-04-12T18:00:00","ND","12","60,44","5","280,2","30,3","47,3","13,3","0"],
    [10497,"2015-04-12T19:00:00","ND","ND","45","5,1","291,7","29,2","49,8","0","0"],
    [10498,"2015-04-12T20:00:00","ND","16","42,41","5,4","291,7","28,6","50,9","0","0"],
    [10499,"2015-04-12T21:00:00","ND","18","19,35","3,3","69,1","26,9","61,5","0","0"],
    [10500,"2015-04-12T22:00:00","ND","18","22,78","2,6","26","26","65,5","0","0"],
    [10501,"2015-04-12T23:00:00","ND","16","18,15","2,8","85","25,7","66,7","0","0"],
    [10502,"2015-04-13T00:00:00","ND","9","18,33","0,3","55,9","24,9","70,4","0","0"],
    [10503,"2015-04-13T01:00:00","ND","23","17,47","2,1","184,1","24,8","72","0","0"],
    [10504,"2015-04-13T02:00:00","ND","10","16,6","2,8","127,1","24,4","73,8","0","0"],
    [10505,"2015-04-13T03:00:00","ND","11","18,03","1,8","152","24,4","73,5","0","0"],
    [10506,"2015-04-13T04:00:00","ND","17","13,62","2,4","200,6","24,1","74,8","0","0"],
    [10507,"2015-04-13T05:00:00","ND","16","11,07","1,9","196,2","23,9","76,1","0","0"],
    [10508,"2015-04-13T06:00:00","ND","25","8,75","1,2","182,1","23,4","79,5","0","0"],
    [10509,"2015-04-13T07:00:00","ND","26","9,28","2","194,1","23,9","78,6","14,7","0"],
    [10510,"2015-04-13T08:00:00","ND","24","12,48","2,6","150,3","24,6","77","91","0"],
    [10511,"2015-04-13T09:00:00","ND","18","27,02","2,9","120,1","26,1","67,7","227,9","0"],
    [10512,"2015-04-13T10:00:00","ND","17","50,51","2,2","79,2","27,3","63,1","342,1","0"],
    [10513,"2015-04-13T11:00:00","ND","16","78,12","2,5","49,9","28,6","57,3","406","0"],
    [10514,"2015-04-13T12:00:00","ND","24","86,4","3,2","56,2","30,1","51,8","408","0"],
    [10515,"2015-04-13T13:00:00","ND","10","63,62","4","94,8","30,7","48,5","263,8","0"],
    [10516,"2015-04-13T14:00:00","ND","12","55,06","3,8","88,6","31,1","46,9","296,4","0"],
    [10517,"2015-04-13T15:00:00","ND","11","66,84","3,6","64,6","31,5","44,8","268,8","0"],
    [10518,"2015-04-13T16:00:00","ND","12","65,72","3,7","86,7","31,8","43,4","135,6","0"],
    [10519,"2015-04-13T17:00:00","ND","12","48,18","0,8","8,3","31","44,6","37,4","0"],
    [10520,"2015-04-13T18:00:00","ND","10","48","6,6","286,8","29,8","44,2","15,5","0"],
    [10521,"2015-04-13T19:00:00","ND","10","35,62","5,7","288,3","29,1","43,7","0","0"],
    [10522,"2015-04-13T20:00:00","ND","8","32,75","4,9","299,6","28,6","43,5","0","0"],
    [10523,"2015-04-13T21:00:00","ND","15","31,3","0,8","335","27,5","47,8","0","0"],
    [10524,"2015-04-13T22:00:00","ND","12","14,64","2,8","84,9","25,4","63,3","0","0"],
    [10525,"2015-04-13T23:00:00","ND","16","15,95","1","90,1","25,5","62","0","0"],
    [10526,"2015-04-14T00:00:00","ND","18","26,32","3,2","88,9","25,2","63,2","0","0"],
    [10527,"2015-04-14T01:00:00","ND","18","27,22","2,5","70","24,6","67,1","0","0"],
    [10528,"2015-04-14T02:00:00","ND","4","25,82","3","107","24,4","68,7","0","0"],
    [10529,"2015-04-14T03:00:00","ND","6","26,63","2,8","65,6","23,7","73,8","0","0"],
    [10530,"2015-04-14T04:00:00","ND","11","30,46","2,9","273,5","23,5","73,6","0","0"],
    [10531,"2015-04-14T05:00:00","ND","23","24,43","2","68,2","23,1","75,5","0","0"],
    [10532,"2015-04-14T06:00:00","ND","16","23,14","2,3","348,2","22,9","76,1","0","0"],
    [10533,"2015-04-14T07:00:00","ND","13","20,8","3,3","184,4","22,6","79,6","9,8","0"],
    [10534,"2015-04-14T08:00:00","ND","8","32,3","2,9","207,9","22,9","79,2","123,6","0"],
    [10535,"2015-04-14T09:00:00","ND","14","38,15","1,6","101,6","24,4","71,4","188,1","0"],
    [10536,"2015-04-14T10:00:00","ND","11","51,41","2,2","65,9","25,7","64,3","299,1","0"],
    [10537,"2015-04-14T11:00:00","ND","15","58,91","4","89,7","27","58,4","335,1","0"],
    [10538,"2015-04-14T12:00:00","ND","15","67,84","3,6","72,5","27,5","58,1","282,8","0"],
    [10539,"2015-04-14T13:00:00","ND","16","85,36","2,3","84,8","27,9","55,3","271","0"],
    [10540,"2015-04-14T14:00:00","ND","19","108,93","2,8","60","29,1","50,7","340,6","0"],
    [10541,"2015-04-14T15:00:00","ND","20","144,14","2,6","33,4","30","47","217,8","0"],
    [10542,"2015-04-14T16:00:00","ND","22","142,04","3,2","89,3","30,4","45,2","156,5","0"],
    [10543,"2015-04-14T17:00:00","ND","24","124,9","2,3","68,1","30,3","44,3","38,4","0"],
    [10544,"2015-04-14T18:00:00","ND","20","65,68","3,5","358,5","29,6","48","5,4","0"],
    [10545,"2015-04-14T19:00:00","ND","15","23,37","2,1","335,2","28,4","51,5","0","0"],
    [10546,"2015-04-14T20:00:00","ND","10","16,7","3,7","310,6","27,8","52,2","0","0"],
    [10547,"2015-04-14T21:00:00","ND","18","13,03","2,8","64,3","26,1","61,1","0","0"],
    [10548,"2015-04-14T22:00:00","ND","15","15,35","4,3","84,1","24,1","71,2","0","0"],
    [10549,"2015-04-14T23:00:00","ND","14","19,21","1,7","55,6","24,4","68,9","0","0"],
    [10550,"2015-04-15T00:00:00","ND","14","20,78","2,5","161","24,5","68,3","0","0"],
    [10551,"2015-04-15T01:00:00","ND","14","27,3","2,7","167,1","24,4","68,9","0","0"],
    [10552,"2015-04-15T02:00:00","ND","10","30,75","3,6","173,3","23,9","72,8","0","0"],
    [10553,"2015-04-15T03:00:00","ND","6","35,05","4,3","165,9","23,6","74,2","0","0"],
    [10554,"2015-04-15T04:00:00","ND","6","40,88","3,6","187,6","22,8","76,8","0","0"],
    [10555,"2015-04-15T05:00:00","ND","6","29,63","2,7","151,6","22,1","82,6","0","0,51"],
    [10556,"2015-04-15T06:00:00","ND","13","16,58","2,7","41,9","21,7","86","0","0,76"],
    [10557,"2015-04-15T07:00:00","ND","ND","15,86","3,6","20","21,7","87","9,3","0"],
    [10558,"2015-04-15T08:00:00","ND","12","21,98","3,2","358,1","22,3","84,7","62,4","0"],
    [10559,"2015-04-15T09:00:00","ND","7","35,99","1,8","349,7","23,5","78,2","150,7","0"],
    [10560,"2015-04-15T10:00:00","ND","12","39,29","2,4","126","24,7","71,6","206,6","0"],
    [10561,"2015-04-15T11:00:00","ND","11","51,41","3,5","98,5","25,9","67","352,5","0"],
    [10562,"2015-04-15T12:00:00","ND","10","77,97","3,3","104,7","27,8","57,1","414,8","0"],
    [10563,"2015-04-15T13:00:00","ND","12","90,09","2","139,5","28,8","52,3","292,9","0"],
    [10564,"2015-04-15T14:00:00","ND","18","101,08","1,4","157,3","29,7","48,8","371,6","0"],
    [10565,"2015-04-15T15:00:00","ND","16","130,28","1,5","298,6","30,7","45,7","367","0"],
    [10566,"2015-04-15T16:00:00","ND","27","132,81","4,2","6,9","30,5","47,3","108,8","0"],
    [10567,"2015-04-15T17:00:00","ND","3","51,24","7,2","296,2","29,4","49,1","88,7","0"],
    [10568,"2015-04-15T18:00:00","ND","9","31,54","4,3","313,5","28,1","52,2","7,2","0"],
    [10569,"2015-04-15T19:00:00","ND","23","21,02","3,2","103,3","26,8","59,7","0","0"],
    [10570,"2015-04-15T20:00:00","ND","11","39,95","5,8","203,1","24,1","72,1","0","1,02"],
    [10571,"2015-04-15T21:00:00","ND","9","31,28","3,9","186,1","22,7","81,3","0","0,76"],
    [10572,"2015-04-15T22:00:00","ND","10","29,53","3,4","193,1","22,3","82,8","0","0"],
    [10573,"2015-04-15T23:00:00","ND","8","27,81","2,7","176,4","22,3","83,7","0","0"],
    [10574,"2015-04-16T00:00:00","ND","7","29,06","2,2","191,3","22,1","85","0","2,54"],
    [10575,"2015-04-16T01:00:00","ND","5","28,55","2,7","199,5","21,6","87,5","0","2,03"],
    [10576,"2015-04-16T02:00:00","ND","1","39,17","5,4","215","21,1","87,3","0","1,78"],
    [10577,"2015-04-16T03:00:00","ND","1","40,84","3,7","221,1","20,5","87,2","0","1,27"],
    [10578,"2015-04-16T04:00:00","ND","4","34,18","2,4","146,4","20,5","87,2","0","0,76"],
    [10579,"2015-04-16T05:00:00","ND","2","26,71","0,3","251,9","20,5","88,1","0","1,27"],
    [10580,"2015-04-16T06:00:00","ND","10","12,01","2,6","73,9","20,6","88,5","0","0,25"],
    [10581,"2015-04-16T07:00:00","ND","17","13,91","3,2","49,7","20,6","88,7","4,8","0,25"],
    [10582,"2015-04-16T08:00:00","ND","19","20,27","1,5","345,6","21","87,4","53,1","0"],
    [10583,"2015-04-16T09:00:00","ND","18","39,66","1,5","236,3","22,2","80,5","130","0"],
    [10584,"2015-04-16T10:00:00","ND","13","47,94","1,4","113,6","23,7","71,4","251","0"],
    [10585,"2015-04-16T11:00:00","ND","11","59,75","2,3","36,3","25,1","66,1","377,1","0"],
    [10586,"2015-04-16T12:00:00","ND","14","68,19","4,2","50,7","26,3","61,7","461,6","0"],
    [10587,"2015-04-16T13:00:00","ND","17","87,35","3,8","51,6","27,1","58,4","431","0"],
    [10588,"2015-04-16T14:00:00","ND","11","76,73","5","56,6","28,6","50,1","369,1","0"],
    [10589,"2015-04-16T15:00:00","ND","5","78,59","5,7","22,1","29,6","49,2","349,7","0"],
    [10590,"2015-04-16T16:00:00","ND","4","67,17","4","21,2","29,8","48","216,1","0"],
    [10591,"2015-04-16T17:00:00","ND","7","55,67","1,8","286,2","29,8","47,3","147,9","0"],
    [10592,"2015-04-16T18:00:00","ND","5","38,66","5,7","282,2","28,6","48,7","12,4","0"],
    [10593,"2015-04-16T19:00:00","ND","15","24,8","1,7","180,7","26,9","57,8","0","0"],
    [10594,"2015-04-16T20:00:00","ND","14","28,4","4,9","119,4","24,7","67","0","0"],
    [10595,"2015-04-16T21:00:00","ND","13","33,36","2","163","24,2","69","0","0"],
    [10596,"2015-04-16T22:00:00","ND","17","36,03","3,3","229,3","24,1","68,7","0","0"],
    [10597,"2015-04-16T23:00:00","ND","7","16,64","2,7","183,7","23,7","75,1","0","1,02"],
    [10598,"2015-04-17T00:00:00","ND","6","18,03","3,4","192,1","22,4","83,6","0","0"],
    [10599,"2015-04-17T01:00:00","ND","2","17,43","3,8","217","22","86,1","0","1,78"],
    [10600,"2015-04-17T02:00:00","ND","3","21,49","2,6","222,9","21,7","86,4","0","0"],
    [10601,"2015-04-17T03:00:00","ND","3","41,7","3,4","43,4","20,5","86,3","0","2,79"],
    [10602,"2015-04-17T04:00:00","ND","2","40,23","1,7","190,3","20,1","88,1","0","20,57"],
    [10603,"2015-04-17T05:00:00","ND","5","31,95","2,7","141,4","20,2","88,9","0","16,51"],
    [10604,"2015-04-17T06:00:00","ND","7","23,25","2,2","147,1","20,2","89","0","4,32"],
    [10605,"2015-04-17T07:00:00","ND","4","25,35","2","189,7","20,3","88,7","0","1,27"],
    [10606,"2015-04-17T08:00:00","ND","3","23,76","1,9","216,2","20,6","88,5","30,5","1,02"],
    [10607,"2015-04-17T09:00:00","ND","5","32,28","0,7","173,1","21,2","86,9","119,7","0,51"],
    [10608,"2015-04-17T10:00:00","ND","10","35,05","2,8","45,6","22,5","81,7","195,5","0"],
    [10609,"2015-04-17T11:00:00","ND","13","46,76","3,6","41,3","23,8","73,8","194,8","0"],
    [10610,"2015-04-17T12:00:00","ND","10","49,35","4,9","69,3","24,6","69","240,4","0"],
    [10611,"2015-04-17T13:00:00","ND","10","65,64","2,2","49,6","25,6","63,1","395,3","0"],
    [10612,"2015-04-17T14:00:00","ND","5","61,58","2,3","93,5","26,9","56,5","347,4","0"],
    [10613,"2015-04-17T15:00:00","ND","5","68,68","1,6","5,2","27,5","53,9","285,7","0"],
    [10614,"2015-04-17T16:00:00","ND","3","72,86","2,5","348","28,1","52,2","227,6","0"],
    [10615,"2015-04-17T17:00:00","ND","12","51,75","3","45","28,1","51,4","79,9","0"],
    [10616,"2015-04-17T18:00:00","ND","20","34,05","2,6","70,2","27,6","55,4","12","0"],
    [10617,"2015-04-17T19:00:00","ND","17","52,57","1,7","197,1","26,8","60,9","0","0"],
    [10618,"2015-04-17T20:00:00","ND","25","40,7","1,3","8,9","26,2","61,9","0","0"],
    [10619,"2015-04-17T21:00:00","ND","34","14,5","2,8","75,5","25,6","64,2","0","0"],
    [10620,"2015-04-17T22:00:00","ND","22","22,37","2,2","141,8","24,8","73,1","0","0"],
    [10621,"2015-04-17T23:00:00","ND","22","28,94","1,4","206,5","24,2","77,4","0","0"],
    [10622,"2015-04-18T00:00:00","ND","20","28,38","2,9","197,8","23,7","78,8","0","0"],
    [10623,"2015-04-18T01:00:00","ND","19","23,45","2","219,9","23,1","81,6","0","0"],
    [10624,"2015-04-18T02:00:00","ND","23","14,86","1,1","283,5","23,1","81,9","0","0"],
    [10625,"2015-04-18T03:00:00","ND","21","11,79","2,3","81,4","22,3","84,4","0","0"],
    [10626,"2015-04-18T04:00:00","ND","14","10,48","2,3","89,5","21,6","87,1","0","0"],
    [10627,"2015-04-18T05:00:00","ND","28","9,18","1,8","313,7","21,6","87,7","0","0"],
    [10628,"2015-04-18T06:00:00","ND","27","9,13","2,8","12,1","21,9","85,5","0","0"],
    [10629,"2015-04-18T07:00:00","ND","20","9,58","2,6","0,5","21,7","84,5","8,1","0"],
    [10630,"2015-04-18T08:00:00","ND","24","11,15","2,8","91,1","22,4","82,5","63","0"],
    [10631,"2015-04-18T09:00:00","ND","24","20,92","3","89,5","23,8","77,4","215","0"],
    [10632,"2015-04-18T10:00:00","ND","24","64,92","1,3","40,5","26","67,3","346,9","0"],
    [10633,"2015-04-18T11:00:00","ND","19","92,7","1,8","54,3","27,5","59,5","426,1","0"],
    [10634,"2015-04-18T12:00:00","ND","9","84,26","2,3","95,8","29","52,2","467,4","0"],
    [10635,"2015-04-18T13:00:00","ND","8","84,13","2,1","78,4","30,1","47","476,6","0"],
    [10636,"2015-04-18T14:00:00","ND","16","98,47","3,5","60,7","31,1","44,3","433,2","0"],
    [10637,"2015-04-18T15:00:00","ND","20","113,05","3,1","65,4","31,5","43,2","325,1","0"],
    [10638,"2015-04-18T16:00:00","ND","14","99,69","4,4","5,1","31,2","45,3","135,8","0"],
    [10639,"2015-04-18T17:00:00","ND","11","73,47","4,1","324,6","30,6","46,8","40,8","0"],
    [10640,"2015-04-18T18:00:00","ND","13","41,23","5,1","280,9","29,4","51,1","12,2","0"],
    [10641,"2015-04-18T19:00:00","ND","5","35,48","4,9","293,6","28,7","52,2","0","0"],
    [10642,"2015-04-18T20:00:00","ND","10","22,16","1,1","289","28,1","55,8","0","0"],
    [10643,"2015-04-18T21:00:00","ND","21","33,69","3,7","158","26,3","66,7","0","0"],
    [10644,"2015-04-18T22:00:00","ND","12","39,17","3,1","204,7","24,8","71,2","0","0"],
    [10645,"2015-04-18T23:00:00","ND","15","28,57","3,4","150,7","24,2","71,6","0","0"],
    [10646,"2015-04-19T00:00:00","ND","13","28,93","1,3","135,7","24","72,1","0","0"],
    [10647,"2015-04-19T01:00:00","ND","11","27","4","254,3","23,5","75,9","0","0,25"],
    [10648,"2015-04-19T02:00:00","ND","7","35,38","7,5","241,2","22,3","83,6","0","5,33"],
    [10649,"2015-04-19T03:00:00","ND","6","48,47","5","174,7","21","85,8","0","11,43"],
    [10650,"2015-04-19T04:00:00","ND","6","38,33","3","136,8","20,6","88,3","0","10,67"],
    [10651,"2015-04-19T05:00:00","ND","5","33,42","2,2","56,3","20,4","88,8","0","11,43"],
    [10652,"2015-04-19T06:00:00","ND","7","28,42","3,6","343,5","20,3","89,3","0","6,35"],
    [10653,"2015-04-19T07:00:00","ND","7","21,37","3","327,8","20,5","89,2","0","2,54"],
    [10654,"2015-04-19T08:00:00","ND","13","20,64","2,5","135,8","20,8","88,6","39,9","0,25"],
    [10655,"2015-04-19T09:00:00","ND","14","34,89","2,7","196,3","21,5","86,8","121,1","0"],
    [10656,"2015-04-19T10:00:00","ND","10","41,27","1,5","198,9","22,8","81","171,9","0"],
    [10657,"2015-04-19T11:00:00","ND","7","48,61","4,4","64","24,4","74,8","284,2","0"],
    [10658,"2015-04-19T12:00:00","ND","10","58,09","4,4","38,7","25,7","67","345,8","0"],
    [10659,"2015-04-19T13:00:00","ND","6","76,28","3,9","356,8","26,8","58,6","500,7","0"],
    [10660,"2015-04-19T14:00:00","ND","1","81,69","1,9","56,1","27,5","54,8","298,4","0"],
    [10661,"2015-04-19T15:00:00","ND","7","77,4","2,7","25,5","28,1","56,8","263,9","0"],
    [10662,"2015-04-19T16:00:00","ND","4","66,29","3,3","29,6","29","51,2","288,2","0"],
    [10663,"2015-04-19T17:00:00","ND","ND","61,95","3","18,2","28,8","49,8","123,3","0"],
    [10664,"2015-04-19T18:00:00","ND","ND","60,68","2,8","358,5","28,1","49,6","26,2","0"],
    [10665,"2015-04-19T19:00:00","ND","4","35,42","2,3","346,6","27,5","51,7","0","0"],
    [10666,"2015-04-19T20:00:00","ND","23","12,03","1,9","287,4","26,6","59,9","0","0"],
    [10667,"2015-04-19T21:00:00","ND","23","14,25","2,8","281,6","25,7","67,2","0","0"],
    [10668,"2015-04-19T22:00:00","ND","17","11,72","3,2","79,8","24,3","73","0","0"],
    [10669,"2015-04-19T23:00:00","ND","10","13,66","1,7","31,7","24","73,1","0","0"],
    [10670,"2015-04-20T00:00:00","ND","7","19,29","2,1","352,6","23,9","73,2","0","0"],
    [10671,"2015-04-20T01:00:00","ND","4","19,33","2,1","11,6","23,3","76,4","0","0"],
    [10672,"2015-04-20T02:00:00","ND","3","17,68","2,2","61,1","22,8","79,4","0","0"],
    [10673,"2015-04-20T03:00:00","ND","5","15,68","1,3","53,1","22,3","82,1","0","0"],
    [10674,"2015-04-20T04:00:00","ND","5","11,97","0,5","319,5","22,3","82,4","0","0"],
    [10675,"2015-04-20T05:00:00","ND","6","12,01","2,3","181,4","22,2","83,4","0","0"],
    [10676,"2015-04-20T06:00:00","ND","9","11,44","1,6","180,1","22,6","81,9","0","0"],
    [10677,"2015-04-20T07:00:00","ND","12","9,65","0,8","131,3","22,5","83,2","12,1","0"],
    [10678,"2015-04-20T08:00:00","ND","14","17,72","2,3","161,1","23,6","76,3","128,2","0"],
    [10679,"2015-04-20T09:00:00","ND","11","32,91","2,3","128","25,1","68,9","215,2","0"],
    [10680,"2015-04-20T10:00:00","ND","15","45","2,9","88,4","25,7","68,1","255,9","0"],
    [10681,"2015-04-20T11:00:00","ND","12","65,68","3,2","91,7","27,3","61,6","404,1","0"],
    [10682,"2015-04-20T12:00:00","ND","14","79,01","2,5","95,9","28,9","54,3","466,5","0"],
    [10683,"2015-04-20T13:00:00","ND","17","87,42","2,8","73,1","29,9","49,5","365,7","0"],
    [10684,"2015-04-20T14:00:00","ND","17","96,74","5,1","67,6","30,4","49,7","306,9","0"],
    [10685,"2015-04-20T15:00:00","ND","18","94,65","6,2","83","30","50,9","161,8","0"],
    [10686,"2015-04-20T16:00:00","ND","ND","ND","2,4","264,7","28,8","52,8","48,7","0"],
    [10687,"2015-04-20T17:00:00","ND","11","33,75","4,3","283,9","28,3","53,4","34,6","0"],
    [10688,"2015-04-20T18:00:00","ND","12","25,61","3,2","301,4","28","54,2","12,3","0"],
    [10689,"2015-04-20T19:00:00","ND","10","21,27","1,7","336,9","27,1","56,8","0","0"],
    [10690,"2015-04-20T20:00:00","ND","13","19,72","4,9","161,2","24,1","78,8","0","6,86"],
    [10691,"2015-04-20T21:00:00","ND","7","31,03","5,2","218,9","21,9","86,5","0","2,79"],
    [10692,"2015-04-20T22:00:00","ND","2","32,58","3,9","194","21,5","86,8","0","4,83"],
    [10693,"2015-04-20T23:00:00","ND","1","26,51","1,7","162,7","21,3","88,1","0","11,68"],
    [10694,"2015-04-21T00:00:00","ND","5","20,33","1,2","51,8","21,2","88,9","0","1,78"],
    [10695,"2015-04-21T01:00:00","ND","3","24,45","1,5","181,6","21,5","88,4","0","1,52"],
    [10696,"2015-04-21T02:00:00","ND","4","24,35","2,6","155,7","21,2","88,5","0","0"],
    [10697,"2015-04-21T03:00:00","ND","3","25,94","2,4","181,2","21","88,4","0","0"],
    [10698,"2015-04-21T04:00:00","ND","1","19,86","1,4","114,5","20,7","88,9","0","0"],
    [10699,"2015-04-21T05:00:00","ND","7","13,46","2,9","75,3","20,5","89,5","0","0"],
    [10700,"2015-04-21T06:00:00","ND","14","11,68","1,4","36,6","20,5","89,4","0","0"],
    [10701,"2015-04-21T07:00:00","ND","22","10,89","1,4","310,8","20,9","88,2","8","0"],
    [10702,"2015-04-21T08:00:00","ND","31","15,8","1,3","35","21,9","85,5","84,3","0"],
    [10703,"2015-04-21T09:00:00","ND","24","33,79","1,8","50,4","23,1","79,8","188,6","0"],
    [10704,"2015-04-21T10:00:00","ND","11","38,46","2,9","85,2","24,1","75,2","185,1","0"],
    [10705,"2015-04-21T11:00:00","ND","9","51,36","2,6","86,3","25,2","69,6","342,8","0"],
    [10706,"2015-04-21T12:00:00","ND","7","58,97","2,3","88,2","26,6","63,1","472,3","0"],
    [10707,"2015-04-21T13:00:00","ND","7","59,42","2,4","46,1","28,1","55,8","497,3","0"],
    [10708,"2015-04-21T14:00:00","ND","9","59,66","3,9","83,4","28,4","54,6","341,3","0"],
    [10709,"2015-04-21T15:00:00","ND","9","69,78","3,7","79,2","29,4","51,4","370,4","0"],
    [10710,"2015-04-21T16:00:00","ND","8","74,53","3,3","84,7","30","48,9","261,2","0"],
    [10711,"2015-04-21T17:00:00","ND","15","65,96","3,9","86,5","29,9","48,6","124,9","0"],
    [10712,"2015-04-21T18:00:00","ND","14","60,17","2","34,9","29,5","49,2","9,1","0"],
    [10713,"2015-04-21T19:00:00","ND","19","41,07","2,8","351,5","28,6","54,1","0","0"],
    [10714,"2015-04-21T20:00:00","ND","25","28,61","2,3","267,8","27,7","58,5","0","0"],
    [10715,"2015-04-21T21:00:00","ND","18","21,66","2,1","256,9","26,9","59,2","0","0"],
    [10716,"2015-04-21T22:00:00","ND","25","14,6","1,8","85,4","26","64,5","0","0"],
    [10717,"2015-04-21T23:00:00","ND","8","12,72","1","7,8","24,4","73,3","0","0"],
    [10718,"2015-04-22T00:00:00","ND","15","12,95","0,9","152,8","24,6","71,2","0","0"],
    [10719,"2015-04-22T01:00:00","ND","29","14,17","1,9","160","23,4","78,3","0","0"],
    [10720,"2015-04-22T02:00:00","ND","16","15,99","2","217,4","23,2","79,9","0","0"],
    [10721,"2015-04-22T03:00:00","ND","18","15,84","1,9","170,1","23,3","80","0","0"],
    [10722,"2015-04-22T04:00:00","ND","29","15,86","1,6","192,8","23","81,8","0","0"],
    [10723,"2015-04-22T05:00:00","ND","32","11,36","2,3","121,7","22,3","83,9","0","0"],
    [10724,"2015-04-22T06:00:00","ND","40","10,03","1,7","76,3","21,6","84,8","0","0"],
    [10725,"2015-04-22T07:00:00","ND","31","10,42","1,6","76,7","22","82,6","31,8","0"],
    [10726,"2015-04-22T08:00:00","ND","26","14,36","3,2","100,5","22,9","80,1","117,9","0"],
    [10727,"2015-04-22T09:00:00","ND","27","24,2","2,7","90,5","24,2","75,1","170,7","0"],
    [10728,"2015-04-22T10:00:00","ND","14","44,29","1,9","161,5","26","66,3","333,3","0"],
    [10729,"2015-04-22T11:00:00","ND","17","69,1","2","103","27,7","59,9","425,8","0"],
    [10730,"2015-04-22T12:00:00","ND","18","80,97","3,1","89,4","29","54,2","440,7","0"],
    [10731,"2015-04-22T13:00:00","ND","19","94,57","3,7","72","29,8","51,7","407,1","0"],
    [10732,"2015-04-22T14:00:00","ND","16","105,5","3,9","71,6","30,4","49,5","314,7","0"],
    [10733,"2015-04-22T15:00:00","ND","19","88,72","4,9","79,7","30,7","49,9","286,4","0"],
    [10734,"2015-04-22T16:00:00","ND","20","73,1","5,4","59,3","31,1","48,5","205,5","0"],
    [10735,"2015-04-22T17:00:00","ND","13","52,16","1,8","30,2","31,1","45,5","117,3","0"],
    [10736,"2015-04-22T18:00:00","ND","13","46,33","3,2","320,9","30,1","46,9","38,2","0"],
    [10737,"2015-04-22T19:00:00","ND","8","28,75","4,7","289","28,2","51,8","0","0"],
    [10738,"2015-04-22T20:00:00","ND","13","21,8","3,5","311,3","27,5","54,8","0","0"],
    [10739,"2015-04-22T21:00:00","ND","14","13,72","3,8","99,6","25,3","69,3","0","0"],
    [10740,"2015-04-22T22:00:00","ND","11","12,91","3","68,9","24,5","73,5","0","0"],
    [10741,"2015-04-22T23:00:00","ND","7","16,6","2,9","53,1","24,8","70,7","0","0"],
    [10742,"2015-04-23T00:00:00","ND","8","14,58","1,1","46,8","24,7","71,2","0","0"],
    [10743,"2015-04-23T01:00:00","ND","5","15,35","1,9","83,3","24,3","73","0","0"],
    [10744,"2015-04-23T02:00:00","ND","6","14,33","1,5","167,6","24,1","74,8","0","0"],
    [10745,"2015-04-23T03:00:00","ND","7","11,44","1,8","130,7","23,5","79,4","0","0"],
    [10746,"2015-04-23T04:00:00","ND","8","11,64","1,8","184,1","23,6","80,3","0","0"],
    [10747,"2015-04-23T05:00:00","ND","18","10,26","2,4","113,1","23,3","81,2","0","0"],
    [10748,"2015-04-23T06:00:00","ND","23","10,64","1,3","158,5","23,7","77","0","0"],
    [10749,"2015-04-23T07:00:00","ND","34","10,56","1,4","127,6","23,5","78,5","4,9","0"],
    [10750,"2015-04-23T08:00:00","ND","26","13,23","2","154,4","23,7","78,8","68,2","0"],
    [10751,"2015-04-23T09:00:00","ND","16","25,31","2,1","108,5","25,2","71,5","157,9","0"],
    [10752,"2015-04-23T10:00:00","ND","14","39,13","2,4","174,5","26,5","65,4","233","0"],
    [10753,"2015-04-23T11:00:00","ND","12","55,75","2,3","137,7","27,6","61,2","239,5","0"],
    [10754,"2015-04-23T12:00:00","ND","22","72,14","3,3","99,5","28,9","58","369,7","0"],
    [10755,"2015-04-23T13:00:00","ND","21","67,7","4,5","79,5","29,7","53,4","313,8","0"],
    [10756,"2015-04-23T14:00:00","ND","24","85,7","3,5","83,3","30,5","49,8","405,5","0"],
    [10757,"2015-04-23T15:00:00","ND","17","91,07","2,4","125,2","31,8","44,2","334","0"],
    [10758,"2015-04-23T16:00:00","ND","16","84,15","3,2","96,7","32,1","41,3","260,1","0"],
    [10759,"2015-04-23T17:00:00","ND","17","73,06","3","114","32,2","39,3","128,4","0"],
    [10760,"2015-04-23T18:00:00","ND","14","71,69","4,1","269,9","31,1","44,9","25,1","0"],
    [10761,"2015-04-23T19:00:00","ND","14","39,68","5,5","309,9","29,5","50","0","0"],
    [10762,"2015-04-23T20:00:00","ND","12","35,99","3,9","309,6","28,7","53,4","0","0"],
    [10763,"2015-04-23T21:00:00","ND","14","18,62","3,2","76,9","26,6","64,8","0","0"],
    [10764,"2015-04-23T22:00:00","ND","13","23,45","4,1","57","25,8","68,1","0","0"],
    [10765,"2015-04-23T23:00:00","ND","13","17,99","3,2","82","25","72,4","0","0"],
    [10766,"2015-04-24T00:00:00","ND","9","15,8","1,7","194,3","25,1","72,5","0","0"],
    [10767,"2015-04-24T01:00:00","ND","8","16,25","1,7","127,4","24,3","76,2","0","0"],
    [10768,"2015-04-24T02:00:00","ND","17","16,23","1,1","210,9","24,6","75,1","0","0"],
    [10769,"2015-04-24T03:00:00","ND","8","16,29","1,6","188,8","24,6","75,1","0","0"],
    [10770,"2015-04-24T04:00:00","ND","20","15,82","1,2","197,1","24,3","77,2","0","0"],
    [10771,"2015-04-24T05:00:00","ND","16","12,36","2,1","141,1","23,7","80,8","0","0"],
    [10772,"2015-04-24T06:00:00","ND","19","10,62","1,6","100,5","23,4","82,8","0","0"],
    [10773,"2015-04-24T07:00:00","ND","19","10,93","1,5","123,1","23,5","80,4","27","0"],
    [10774,"2015-04-24T08:00:00","ND","21","14,56","2,8","158,1","24","76,5","68","0"],
    [10775,"2015-04-24T09:00:00","ND","8","24,27","2,3","172,1","25,1","70,3","134,1","0"],
    [10776,"2015-04-24T10:00:00","ND","14","35,64","2,5","159,5","26,3","66","213,2","0"],
    [10777,"2015-04-24T11:00:00","ND","15","52,1","2,4","105,8","27,6","61,9","346,7","0"],
    [10778,"2015-04-24T12:00:00","ND","18","71,27","2,8","96,3","28,6","57,3","314,3","0"],
    [10779,"2015-04-24T13:00:00","ND","16","67,82","3,2","92,2","29,8","51,6","310,1","0"],
    [10780,"2015-04-24T14:00:00","ND","20","77,57","3,9","55,3","30","51,2","143,8","0"],
    [10781,"2015-04-24T15:00:00","ND","21","81,48","4,8","62,5","30,3","51,6","149,2","0"],
    [10782,"2015-04-24T16:00:00","ND","13","47,04","5,3","58","30,4","50,7","153,3","0"],
    [10783,"2015-04-24T17:00:00","ND","13","40,86","4,4","11,9","30","48,6","68","0"],
    [10784,"2015-04-24T18:00:00","ND","13","31,93","1,9","336,2","29,3","49,8","12,9","0"],
    [10785,"2015-04-24T19:00:00","ND","10","22,78","4,8","297,2","28,5","52,4","0","0"],
    [10786,"2015-04-24T20:00:00","ND","27","13,58","1,8","19,3","27,7","57,6","0","0"],
    [10787,"2015-04-24T21:00:00","ND","13","12,3","3,6","91,2","25,6","69,3","0","0"],
    [10788,"2015-04-24T22:00:00","ND","11","12,5","3,6","79","24,5","74,9","0","0"],
    [10789,"2015-04-24T23:00:00","ND","9","15,35","2,6","52,7","24,7","73","0","0"],
    [10790,"2015-04-25T00:00:00","ND","5","17,37","1,8","36,6","24,8","71,8","0","0"],
    [10791,"2015-04-25T01:00:00","ND","13","16,23","0,8","9,4","24,5","72,8","0","0"],
    [10792,"2015-04-25T02:00:00","ND","7","16,19","1,5","125","24,2","74,9","0","0"],
    [10793,"2015-04-25T03:00:00","ND","11","11,95","2,9","189,5","23,9","78,4","0","0"],
    [10794,"2015-04-25T04:00:00","ND","7","13,07","1,8","132,6","23,9","77,9","0","0"],
    [10795,"2015-04-25T05:00:00","ND","7","12,17","0,9","122,1","23,7","79","0","0"],
    [10796,"2015-04-25T06:00:00","ND","20","11,11","0,9","35,3","23,6","79,6","0","0"],
    [10797,"2015-04-25T07:00:00","ND","18","12,21","0,7","220,6","23,8","78,9","10,9","0"],
    [10798,"2015-04-25T08:00:00","ND","17","11,91","3,2","91,9","23,7","81","35,3","0"],
    [10799,"2015-04-25T09:00:00","ND","24","19,25","1,4","123,3","24,8","75,5","105,1","0"],
    [10800,"2015-04-25T10:00:00","ND","22","25,92","0,9","136,7","25,6","71,5","112,9","0"],
    [10801,"2015-04-25T11:00:00","ND","28","41,88","1,9","71,7","26,6","67","236,5","0"],
    [10802,"2015-04-25T12:00:00","ND","16","61,95","2,9","94,4","28,2","59,8","353,4","0"],
    [10803,"2015-04-25T13:00:00","ND","15","61,66","3,8","58,7","29,1","55,8","334,2","0"],
    [10804,"2015-04-25T14:00:00","ND","8","57,11","3,9","63,1","29,7","54,3","300,5","0"],
    [10805,"2015-04-25T15:00:00","ND","6","53,93","4","54,1","30,4","51,4","291,8","0"],
    [10806,"2015-04-25T16:00:00","ND","5","46,49","4,4","39,5","30,2","51,4","147,9","0"],
    [10807,"2015-04-25T17:00:00","ND","9","50,12","3,2","326,7","29,7","50,2","131,4","0"],
    [10808,"2015-04-25T18:00:00","ND","10","36,54","4","3,6","29,1","50,4","34,6","0"],
    [10809,"2015-04-25T19:00:00","ND","16","22,02","3","319,5","28,1","51,9","0","0"],
    [10810,"2015-04-25T20:00:00","ND","17","15,78","0,7","10,5","26,6","58,7","0","0"],
    [10811,"2015-04-25T21:00:00","ND","23","12,54","3,3","81,4","25,4","66,3","0","0"],
    [10812,"2015-04-25T22:00:00","ND","12","13,66","3,3","49,7","24,3","71,9","0","0"],
    [10813,"2015-04-25T23:00:00","ND","17","13,42","1","5,7","24,4","70","0","0"],
    [10814,"2015-04-26T00:00:00","ND","15","12,28","1,6","205,3","24,2","73","0","0"],
    [10815,"2015-04-26T01:00:00","ND","10","11,3","1,5","141,2","23,2","76,6","0","0"],
    [10816,"2015-04-26T02:00:00","ND","12","10,71","1,3","190,4","23,2","77,3","0","0"],
    [10817,"2015-04-26T03:00:00","ND","14","11,83","1,2","172,6","23,3","76,8","0","0"],
    [10818,"2015-04-26T04:00:00","ND","21","11,58","1,3","146,6","22,5","81,3","0","0"],
    [10819,"2015-04-26T05:00:00","ND","22","10,89","1,8","149,9","22,5","82,7","0","0"],
    [10820,"2015-04-26T06:00:00","ND","15","10,52","1,7","82,7","21,9","85,8","0","0"],
    [10821,"2015-04-26T07:00:00","ND","23","11,17","1,7","83,1","21,7","86,1","16,4","0"],
    [10822,"2015-04-26T08:00:00","ND","26","13,74","1,7","53,3","22,6","83,8","89,8","0"],
    [10823,"2015-04-26T09:00:00","ND","18","22,61","2,8","92,7","24,1","78,2","197","0"],
    [10824,"2015-04-26T10:00:00","ND","18","49,63","1,9","167,2","26,1","66,8","320,2","0"],
    [10825,"2015-04-26T11:00:00","ND","33","65,11","3,6","113,2","27,3","63,3","279,4","0"],
    [10826,"2015-04-26T12:00:00","ND","13","79,44","3,2","97,1","28,7","56,3","448,9","0"],
    [10827,"2015-04-26T13:00:00","ND","11","74,83","3,8","85,2","30,3","48,6","462,5","0"],
    [10828,"2015-04-26T14:00:00","ND","13","88,46","4,7","120,4","30,8","49,1","434,6","0"],
    [10829,"2015-04-26T15:00:00","ND","15","83,85","5,8","79,3","31,2","48,3","306,6","0"],
    [10830,"2015-04-26T16:00:00","ND","31","68,7","5","90,1","30,7","47,9","115,9","0"],
    [10831,"2015-04-26T17:00:00","ND","17","50,18","3,7","93","30,6","45,7","67","0"],
    [10832,"2015-04-26T18:00:00","ND","12","40,23","2,5","110","30,3","44,1","14,8","0"],
    [10833,"2015-04-26T19:00:00","ND","10","42,33","3,5","270,1","29,7","49,8","0","0"],
    [10834,"2015-04-26T20:00:00","ND","8","34,87","4,6","269,9","29,1","52,1","0","0"],
    [10835,"2015-04-26T21:00:00","ND","20","21,55","3","235,6","28,4","56,4","0","0"],
    [10836,"2015-04-26T22:00:00","ND","19","16,44","1,2","344,6","27,2","61,7","0","0"],
    [10837,"2015-04-26T23:00:00","ND","16","11,24","2,4","83,3","26","69,4","0","0"],
    [10838,"2015-04-27T00:00:00","ND","19","12,85","1,8","80,3","24,9","72,8","0","0"],
    [10839,"2015-04-27T01:00:00","ND","8","14,78","2,2","77,2","24,3","73,9","0","0"],
    [10840,"2015-04-27T02:00:00","ND","7","17,23","0,5","85,6","24,1","74,7","0","0"],
    [10841,"2015-04-27T03:00:00","ND","9","12,32","1,5","196,1","23,7","77,6","0","0"],
    [10842,"2015-04-27T04:00:00","ND","20","10,52","0,4","157,7","23,2","81,3","0","0"],
    [10843,"2015-04-27T05:00:00","ND","21","10,62","1,4","72,7","23","80,4","0","0"],
    [10844,"2015-04-27T06:00:00","ND","19","10,54","1,1","71,3","22,2","84,2","0","0"],
    [10845,"2015-04-27T07:00:00","ND","27","10,79","1,3","68,6","21,8","84,3","25,5","0"],
    [10846,"2015-04-27T08:00:00","ND","20","17,13","1","133,3","24","76,2","120,5","0"],
    [10847,"2015-04-27T09:00:00","ND","20","28,42","2,3","132,8","25,8","70,3","232,6","0"],
    [10848,"2015-04-27T10:00:00","ND","22","53,87","2,5","144,4","27,5","61,2","332,6","0"],
    [10849,"2015-04-27T11:00:00","ND","19","71,16","2,5","139,5","29,2","54,5","406,7","0"],
    [10850,"2015-04-27T12:00:00","ND","13","90,03","1,6","124,8","30,6","50,9","442,1","0"],
    [10851,"2015-04-27T13:00:00","ND","22","94,25","3","86,3","31,6","45,6","450","0"],
    [10852,"2015-04-27T14:00:00","ND","11","108,19","3,3","48,1","32,6","41,5","416,2","0"],
    [10853,"2015-04-27T15:00:00","ND","18","131,28","3,1","33,6","33,6","38,4","347,9","0"],
    [10854,"2015-04-27T16:00:00","ND","16","86,34","4,2","66,5","33,7","37,2","210,2","0"],
    [10855,"2015-04-27T17:00:00","ND","15","77,2","5,1","17,6","33,1","39,3","137,5","0"],
    [10856,"2015-04-27T18:00:00","ND","12","53,36","4,4","321,7","31,7","42,4","36,4","0"],
    [10857,"2015-04-27T19:00:00","ND","19","30,36","4,2","298,1","30","47,9","0","0"],
    [10858,"2015-04-27T20:00:00","ND","21","23,96","1,1","314,2","28,8","52,9","0","0"],
    [10859,"2015-04-27T21:00:00","ND","24","15,62","3,6","112,3","26,6","62,9","0","0"],
    [10860,"2015-04-27T22:00:00","ND","11","18,58","0,9","179,3","26,4","63,9","0","0"],
    [10861,"2015-04-27T23:00:00","ND","25","13,54","2,7","129,7","25,8","67,1","0","0"],
    [10862,"2015-04-28T00:00:00","ND","9","16,31","3,1","100,1","25,3","69,5","0","0"],
    [10863,"2015-04-28T01:00:00","ND","9","16,43","2,2","138","25,3","70,5","0","0"],
    [10864,"2015-04-28T02:00:00","ND","20","15,23","1,9","153,5","25,1","71,8","0","0"],
    [10865,"2015-04-28T03:00:00","ND","24","12,48","1,4","136,2","24,6","75","0","0"],
    [10866,"2015-04-28T04:00:00","ND","21","14,23","0,9","175,5","24,7","74,3","0","0"],
    [10867,"2015-04-28T05:00:00","ND","24","11,97","1,7","210","24,7","74,3","0","0"],
    [10868,"2015-04-28T06:00:00","ND","25","10,81","2,8","118,8","24,2","77,3","0","0"],
    [10869,"2015-04-28T07:00:00","ND","29","11,09","1,1","138,6","24","79,2","15,1","0"],
    [10870,"2015-04-28T08:00:00","ND","29","15,15","2,5","172,5","25,2","74,9","89,3","0"],
    [10871,"2015-04-28T09:00:00","ND","18","27,36","3,8","155,1","26,8","67","251,5","0"],
    [10872,"2015-04-28T10:00:00","ND","20","53,32","2,8","193,8","28","61,9","317,4","0"],
    [10873,"2015-04-28T11:00:00","ND","20","73,8","3,1","113,8","29,1","57,9","298,6","0"],
    [10874,"2015-04-28T12:00:00","ND","22","78,93","4,2","93,4","29,6","54,9","236,8","0"],
    [10875,"2015-04-28T13:00:00","ND","27","108,91","3,6","54,9","30,8","51,4","379,9","0"],
    [10876,"2015-04-28T14:00:00","ND","27","116,94","4","85,3","31,3","48,4","311,3","0"],
    [10877,"2015-04-28T15:00:00","ND","24","116,78","3,3","75,9","31,6","46,7","176,5","0"],
    [10878,"2015-04-28T16:00:00","ND","12","78,77","6,3","290,3","31,1","44,7","120,9","0"],
    [10879,"2015-04-28T17:00:00","ND","13","67","4,6","317","30,7","45,1","87","0"],
    [10880,"2015-04-28T18:00:00","ND","13","41,37","3,7","347,2","29,9","47,7","24","0"],
    [10881,"2015-04-28T19:00:00","ND","13","33,81","3,2","311,2","28,7","50,2","0","0"],
    [10882,"2015-04-28T20:00:00","ND","19","16,68","2,7","90,9","26,5","61,7","0","0"],
    [10883,"2015-04-28T21:00:00","ND","10","16,92","1,6","103,9","25,3","65,9","0","0"],
    [10884,"2015-04-28T22:00:00","ND","12","18,66","3,6","92,4","24,8","67,4","0","0"],
    [10885,"2015-04-28T23:00:00","ND","10","17,33","2","94,5","24,3","69,8","0","0"],
    [10886,"2015-04-29T00:00:00","ND","10","17,27","1,4","110,3","24,4","69,9","0","0"],
    [10887,"2015-04-29T01:00:00","ND","9","21,27","2,1","97,1","24","71,1","0","0"],
    [10888,"2015-04-29T02:00:00","ND","10","23,88","1,2","59,4","23,8","70,7","0","0"],
    [10889,"2015-04-29T03:00:00","ND","8","19,92","1,9","122,3","23,6","72","0","0"],
    [10890,"2015-04-29T04:00:00","ND","7","14,82","1,5","134,8","22,9","77,5","0","0"],
    [10891,"2015-04-29T05:00:00","ND","15","14,87","1,1","171,9","23","76,5","0","0"],
    [10892,"2015-04-29T06:00:00","ND","14","12,4","1,1","159,1","23,1","76,2","0","0"],
    [10893,"2015-04-29T07:00:00","ND","27","12,05","3","93,2","22,3","79,8","27,8","0"],
    [10894,"2015-04-29T08:00:00","ND","29","15,74","2,6","111,2","23,3","77,9","108,1","0"],
    [10895,"2015-04-29T09:00:00","ND","19","25,24","3,3","147,9","24,9","71","201,7","0"],
    [10896,"2015-04-29T10:00:00","ND","14","40,39","3,6","154,6","26,5","63,1","328,4","0"],
    [10897,"2015-04-29T11:00:00","ND","16","67,07","2,1","103,3","28,1","56,5","397,6","0"],
    [10898,"2015-04-29T12:00:00","ND","16","84,75","2,7","67,7","29,5","51","440,4","0"],
    [10899,"2015-04-29T13:00:00","ND","18","93,29","3","83,3","31","44,3","448,6","0"],
    [10900,"2015-04-29T14:00:00","ND","16","97,59","2,6","105,5","32,2","38,5","424,1","0"],
    [10901,"2015-04-29T15:00:00","ND","17","105,2","3,1","78,6","33,1","33,6","347,3","0"],
    [10902,"2015-04-29T16:00:00","ND","22","110,78","1,9","323,4","32,7","37,7","156,2","0"],
    [10903,"2015-04-29T17:00:00","ND","22","120,86","3","12,2","32,7","38,9","129","0"],
    [10904,"2015-04-29T18:00:00","ND","14","87,91","6,5","294","30,9","43,8","38,4","0"],
    [10905,"2015-04-29T19:00:00","ND","11","51,87","6,6","297,4","29,1","48,2","0","0"],
    [10906,"2015-04-29T20:00:00","ND","13","37,4","2,9","311,6","28,3","51,5","0","0"],
    [10907,"2015-04-29T21:00:00","ND","25","21,55","4,1","74,3","25,9","64","0","0"],
    [10908,"2015-04-29T22:00:00","ND","11","19,78","3,1","84,5","25,3","67,1","0","0"],
    [10909,"2015-04-29T23:00:00","ND","11","23,76","3,9","68","24,8","67,7","0","0"],
    [10910,"2015-04-30T00:00:00","ND","13","23,39","0,7","302,5","24,9","68,1","0","0"],
    [10911,"2015-04-30T01:00:00","ND","9","17,62","2,4","147,2","24,5","71,2","0","0"],
    [10912,"2015-04-30T02:00:00","ND","11","17,52","2,3","134,5","23,7","74","0","0"],
    [10913,"2015-04-30T03:00:00","ND","12","15,46","1,2","158","23,7","73,6","0","0"],
    [10914,"2015-04-30T04:00:00","ND","14","13,3","1,6","120,7","22,9","78,3","0","0"],
    [10915,"2015-04-30T05:00:00","ND","12","12,44","1,4","174,9","23,2","76,9","0","0"],
    [10916,"2015-04-30T06:00:00","ND","22","12,38","1,6","133,4","23,2","76,5","0","0"],
    [10917,"2015-04-30T07:00:00","ND","28","12,07","2,1","104,3","23,1","77,6","18,6","0"],
    [10918,"2015-04-30T08:00:00","ND","27","14,97","2,4","137,3","23,3","77,6","62,6","0"],
    [10919,"2015-04-30T09:00:00","ND","19","27,96","2,3","205,1","24,8","69,5","139","0"],
    [10920,"2015-04-30T10:00:00","ND","26","43,51","1,7","176,4","26,1","64,1","200,1","0"],
    [10921,"2015-04-30T11:00:00","ND","14","60,52","3,5","88,6","27,5","58,5","296,9","0"],
    [10922,"2015-04-30T12:00:00","ND","15","76,24","3,8","75,2","28,6","54,2","303,6","0"],
    [10923,"2015-04-30T13:00:00","ND","21","66,35","4,8","71,1","28,5","54,8","159,6","0"],
    [10924,"2015-04-30T14:00:00","ND","15","81,58","2,7","49,8","29","53,1","238,2","0"],
    [10925,"2015-04-30T15:00:00","ND","24","122,47","2,5","40","30,1","50","329,1","0"],
    [10926,"2015-04-30T16:00:00","ND","32","121,18","4,6","48,5","30,6","47,5","139,9","0"],
    [10927,"2015-04-30T17:00:00","ND","16","58,95","3,1","31","29,9","46,8","61,3","0"],
    [10928,"2015-04-30T18:00:00","ND","18","41,09","2,7","318,5","29,1","48,5","25,9","0"],
    [10929,"2015-04-30T19:00:00","ND","7","25,75","4,2","299,4","27,9","52","0","0"],
    [10930,"2015-04-30T20:00:00","ND","43","15,74","2,9","62,6","26,6","59,2","0","0"],
    [10931,"2015-04-30T21:00:00","ND","17","13,46","3,7","78,2","24,9","68,9","0","0"],
    [10932,"2015-04-30T22:00:00","ND","15","13,66","2,4","75,5","24,4","70,8","0","0"],
    [10933,"2015-04-30T23:00:00","ND","8","15,9","3,3","78","24,5","69,2","0","0"],
    [10934,"2015-05-01T00:00:00","ND","5","23,33","2,6","27,1","24,1","69,1","0","0"],
    [10935,"2015-05-01T01:00:00","ND","5","19,47","0,9","125,4","24,5","67,7","0","0"],
    [10936,"2015-05-01T02:00:00","ND","4","17,01","3,3","112,7","23,5","73,1","0","0"],
    [10937,"2015-05-01T03:00:00","ND","9","15,93","0,8","103,4","23,2","75,7","0","0"],
    [10938,"2015-05-01T04:00:00","ND","12","14,27","1,1","142,6","23,3","76","0","0"],
    [10939,"2015-05-01T05:00:00","ND","9","14,74","2,1","154,4","22,6","79,7","0","0"],
    [10940,"2015-05-01T06:00:00","ND","11","14,54","1,9","113","22,6","80","0","0"],
    [10941,"2015-05-01T07:00:00","ND","13","16,9","2,7","143,6","22,5","81,7","16","0"],
    [10942,"2015-05-01T08:00:00","ND","11","25,2","1,9","158,2","23,2","79,9","82,1","0"],
    [10943,"2015-05-01T09:00:00","ND","13","31,34","2,3","124,2","24,3","75,1","157,2","0"],
    [10944,"2015-05-01T10:00:00","ND","8","44,59","2,5","90,7","26,1","66,3","349,3","0"],
    [10945,"2015-05-01T11:00:00","ND","12","58,3","4","90,3","27,2","60,5","362,4","0"],
    [10946,"2015-05-01T12:00:00","ND","ND","72,45","2,1","143,7","28,2","56,9","355,7","0"],
    [10947,"2015-05-01T13:00:00","ND","12","81,14","2,5","177,5","29","54","287","0"],
    [10948,"2015-05-01T14:00:00","ND","10","85,89","2,7","164","29,6","52,6","337,3","0"],
    [10949,"2015-05-01T15:00:00","ND","11","87,31","3","150,6","30,7","45,9","350,7","0"],
    [10950,"2015-05-01T16:00:00","ND","9","83,03","3,4","157,3","30,4","48,3","109,6","0"],
    [10951,"2015-05-01T17:00:00","ND","14","78,95","3,1","190,9","29,6","50,5","34,6","0"],
    [10952,"2015-05-01T18:00:00","ND","26","75,16","3","188,3","29,3","51,2","8,8","0"],
    [10953,"2015-05-01T19:00:00","ND","29","56,44","2,3","180,9","28,4","53,8","0","0"],
    [10954,"2015-05-01T20:00:00","ND","31","46,98","3,2","211,7","27,2","61,5","0","0"],
    [10955,"2015-05-01T21:00:00","ND","26","33,3","3,7","175,9","26,5","61,4","0","0"],
    [10956,"2015-05-01T22:00:00","ND","17","24,84","2,7","142,2","25","68","0","0"],
    [10957,"2015-05-01T23:00:00","ND","17","21,33","1,1","170,2","24,4","70,5","0","0"],
    [10958,"2015-05-02T00:00:00","ND","18","18,37","2,6","169","24,2","71,5","0","0"],
    [10959,"2015-05-02T01:00:00","ND","29","16,82","2,9","196","23,7","73,9","0","0"],
    [10960,"2015-05-02T02:00:00","ND","15","17,68","1,2","205,8","23,7","75,4","0","0"],
    [10961,"2015-05-02T03:00:00","ND","11","17,48","2,1","170,8","23,6","76,6","0","0"],
    [10962,"2015-05-02T04:00:00","ND","14","18,94","3,3","160,2","23,5","73,4","0","0"],
    [10963,"2015-05-02T05:00:00","ND","25","12,76","1,2","195","22,4","81,6","0","0"],
    [10964,"2015-05-02T06:00:00","ND","28","11,21","1,8","109,4","22,3","81,3","0","0"],
    [10965,"2015-05-02T07:00:00","ND","27","12,25","1,9","33,7","21,9","82,1","30,4","0"],
    [10966,"2015-05-02T08:00:00","ND","32","15,84","2,1","44,6","22,9","77,4","74,4","0"],
    [10967,"2015-05-02T09:00:00","ND","32","22,31","1,5","49,3","24,1","73,4","145","0"],
    [10968,"2015-05-02T10:00:00","ND","17","40,41","2,1","118,5","25,8","64,9","223,9","0"],
    [10969,"2015-05-02T11:00:00","ND","22","60,38","2,7","112,7","27,3","59,4","308,8","0"],
    [10970,"2015-05-02T12:00:00","ND","14","64,17","3,2","74,6","28,5","54,3","359,5","0"],
    [10971,"2015-05-02T13:00:00","ND","17","67,8","4,1","55,2","29,1","52,1","265,9","0"],
    [10972,"2015-05-02T14:00:00","ND","26","91,31","4,2","28,3","29,7","50,3","209,2","0"],
    [10973,"2015-05-02T15:00:00","ND","17","74,26","5,1","9,9","30","50,8","165,8","0"],
    [10974,"2015-05-02T16:00:00","ND","12","52,02","4","26,3","30,6","46,3","141,5","0"],
    [10975,"2015-05-02T17:00:00","ND","14","45,43","2,1","75,3","30,6","45,4","108,5","0"],
    [10976,"2015-05-02T18:00:00","ND","9","51,77","5,4","287,4","29,7","45,3","32,1","0"],
    [10977,"2015-05-02T19:00:00","ND","5","38,84","5,8","305,2","28,7","48,3","0","0"],
    [10978,"2015-05-02T20:00:00","ND","11","23,33","1,9","326,1","27,9","53","0","0"],
    [10979,"2015-05-02T21:00:00","ND","17","17,07","1,5","65,1","26,8","59,8","0","0"],
    [10980,"2015-05-02T22:00:00","ND","25","20,49","3,4","215,9","25,9","65,4","0","0"],
    [10981,"2015-05-02T23:00:00","ND","15","18,21","3,3","200,8","24,8","70,3","0","0"],
    [10982,"2015-05-03T00:00:00","ND","13","21,74","1,8","227,4","24,4","70,8","0","0"],
    [10983,"2015-05-03T01:00:00","ND","17","16,15","2,4","145,7","24,7","69,9","0","0"],
    [10984,"2015-05-03T02:00:00","ND","8","19,9","2,2","128,3","24,5","70,8","0","0"],
    [10985,"2015-05-03T03:00:00","ND","10","16,8","3","136,4","23,7","75,7","0","0"],
    [10986,"2015-05-03T04:00:00","ND","12","16,15","0,2","122,4","23,5","76,8","0","0"],
    [10987,"2015-05-03T05:00:00","ND","14","13,09","1,2","10,9","23,7","78,3","0","0"],
    [10988,"2015-05-03T06:00:00","ND","31","13,11","2","25,7","23,8","76,8","0","0"],
    [10989,"2015-05-03T07:00:00","ND","19","11,91","2,9","342,7","22,9","82,9","0","6,1"],
    [10990,"2015-05-03T08:00:00","ND","8","18,41","2,7","275,3","22,4","84,8","20","0,51"],
    [10991,"2015-05-03T09:00:00","ND","9","27,06","1,7","210,9","22,9","82,5","73,9","0"],
    [10992,"2015-05-03T10:00:00","ND","12","37,21","5","206,4","23,6","79,2","169,7","0"],
    [10993,"2015-05-03T11:00:00","ND","6","42,45","3,4","191,5","24,7","74,3","228,3","0"],
    [10994,"2015-05-03T12:00:00","ND","5","56,16","3,7","197,7","27,2","64","411,8","0"],
    [10995,"2015-05-03T13:00:00","ND","7","65,52","4,3","215","27,9","58,4","370,1","0"],
    [10996,"2015-05-03T14:00:00","ND","9","68,37","2,1","108,5","28,4","56","208,5","0"],
    [10997,"2015-05-03T15:00:00","ND","13","61,38","4","88,1","28,4","56,7","122,7","0"],
    [10998,"2015-05-03T16:00:00","ND","10","52,71","5,6","40","27,1","60,4","74,3","0"],
    [10999,"2015-05-03T17:00:00","ND","8","46,15","3,5","283,2","26,4","62,8","62,9","0"],
    [11000,"2015-05-03T18:00:00","ND","24","46,57","1,8","233,3","26,3","64,9","24,1","0"],
    [11001,"2015-05-03T19:00:00","ND","27","20,43","2,5","52,5","25,7","69,5","0","0"],
    [11002,"2015-05-03T20:00:00","ND","22","14,89","1,8","37,9","25,2","71,6","0","0"],
    [11003,"2015-05-03T21:00:00","ND","18","12,09","2,7","82,7","24,1","74,1","0","0"],
    [11004,"2015-05-03T22:00:00","ND","7","14,25","2,8","53,5","23,7","72,2","0","0"],
    [11005,"2015-05-03T23:00:00","ND","6","17,37","1,6","9,5","23,5","70,5","0","0"],
    [11006,"2015-05-04T00:00:00","ND","5","14,78","2,1","115,8","22,8","75,1","0","0"],
    [11007,"2015-05-04T01:00:00","ND","6","15,01","1,4","189,6","22,5","76,8","0","0"],
    [11008,"2015-05-04T02:00:00","ND","5","15,42","1,7","137,6","22,3","78,6","0","0"],
    [11009,"2015-05-04T03:00:00","ND","5","15,66","2,3","73,9","21,6","82","0","0"],
    [11010,"2015-05-04T04:00:00","ND","8","13,44","3","48,8","20,9","85,6","0","0"],
    [11011,"2015-05-04T05:00:00","ND","5","12,79","2,3","24,8","20,5","87,2","0","0"],
    [11012,"2015-05-04T06:00:00","ND","18","11,85","1,4","32,3","20,2","88,8","0","0"],
    [11013,"2015-05-04T07:00:00","ND","26","11,83","2","57,1","20,1","88,3","22,2","0"],
    [11014,"2015-05-04T08:00:00","ND","21","14,62","2,1","69,2","20,7","87","88","0"],
    [11015,"2015-05-04T09:00:00","ND","21","32,6","1,1","110,5","23,2","77,3","228","0"],
    [11016,"2015-05-04T10:00:00","ND","17","53,83","2,7","127,2","25,6","66,1","323,1","0"],
    [11017,"2015-05-04T11:00:00","ND","13","71,94","3","201,9","27,2","58,1","338,8","0"],
    [11018,"2015-05-04T12:00:00","ND","14","75,36","1,7","123,5","28,5","52,7","424,9","0"],
    [11019,"2015-05-04T13:00:00","ND","12","82,36","2,1","52,1","29,7","47,2","382,2","0"],
    [11020,"2015-05-04T14:00:00","ND","10","90,96","2,3","52,3","30,8","42,7","414,7","0"],
    [11021,"2015-05-04T15:00:00","ND","16","108,74","3,3","63,7","31,7","40,7","323,6","0"],
    [11022,"2015-05-04T16:00:00","ND","23","128,57","4,5","27","31,8","41,8","145,6","0"],
    [11023,"2015-05-04T17:00:00","ND","12","66,31","2,4","320,7","31,6","42,8","154,3","0"],
    [11024,"2015-05-04T18:00:00","ND","9","53,3","6","287,6","30,2","44,8","37,6","0"],
    [11025,"2015-05-04T19:00:00","ND","13","28,65","3,6","308,2","29,1","47,5","0","0"],
    [11026,"2015-05-04T20:00:00","ND","23","15,56","2,9","117,2","27,5","57","0","0"],
    [11027,"2015-05-04T21:00:00","ND","15","18,82","2,3","96,9","26,6","61","0","0"],
    [11028,"2015-05-04T22:00:00","ND","10","24,2","0,9","83,7","26,2","61,9","0","0"],
    [11029,"2015-05-04T23:00:00","ND","23","32,48","3,6","225,2","25,7","65,1","0","0"],
    [11030,"2015-05-05T00:00:00","ND","15","21,45","2,8","160,4","25","68,7","0","0"],
    [11031,"2015-05-05T01:00:00","ND","16","23,67","2,7","169,9","24,2","71,9","0","0"],
    [11032,"2015-05-05T02:00:00","ND","9","25,28","1,8","177,7","24","72,1","0","0"],
    [11033,"2015-05-05T03:00:00","ND","8","18,43","2","109,3","23,1","77","0","0"],
    [11034,"2015-05-05T04:00:00","ND","7","17,52","2,3","125,8","22,8","78,3","0","0"],
    [11035,"2015-05-05T05:00:00","ND","11","15,62","0,5","179,2","22,7","79,4","0","0"],
    [11036,"2015-05-05T06:00:00","ND","17","12,25","1,6","134,8","23,1","77,3","0","0"],
    [11037,"2015-05-05T07:00:00","ND","27","13,15","2,4","132,8","22,7","78,8","12,6","0"],
    [11038,"2015-05-05T08:00:00","ND","19","16,25","1,6","178,1","23,3","77,9","60,1","0"],
    [11039,"2015-05-05T09:00:00","ND","22","29,24","2","67,9","25,1","70,2","218,5","0"],
    [11040,"2015-05-05T10:00:00","ND","12","42,74","2,5","104,4","26,6","62,1","243,8","0"],
    [11041,"2015-05-05T11:00:00","ND","12","62,91","2,2","118,7","27,8","57,9","387,8","0"],
    [11042,"2015-05-05T12:00:00","ND","11","76,41","2,6","102,3","29,6","50,5","453,5","0"],
    [11043,"2015-05-05T13:00:00","ND","20","91,72","2,5","84,3","30,5","45,9","456,8","0"],
    [11044,"2015-05-05T14:00:00","ND","16","93,27","3,1","75,1","31,5","41,8","408,9","0"],
    [11045,"2015-05-05T15:00:00","ND","14","93,33","2,9","94,9","32,4","38,2","334,7","0"],
    [11046,"2015-05-05T16:00:00","ND","20","108,87","4,4","87,6","32,6","37,6","224,2","0"],
    [11047,"2015-05-05T17:00:00","ND","24","103,67","2,3","91,6","32,3","38,6","81,6","0"],
    [11048,"2015-05-05T18:00:00","ND","15","67,6","4,1","290,5","31,1","44,7","29,8","0"],
    [11049,"2015-05-05T19:00:00","ND","18","44,68","5,2","293,7","29,5","50,1","0","0"],
    [11050,"2015-05-05T20:00:00","ND","13","31,81","2,9","312","28,7","52,7","0","0"],
    [11051,"2015-05-05T21:00:00","ND","10","21,21","3,7","106,8","26,6","63,9","0","0"],
    [11052,"2015-05-05T22:00:00","ND","19","22,82","1,7","220,2","26,5","64,2","0","0"],
    [11053,"2015-05-05T23:00:00","ND","22","35,5","2,6","180,4","26,2","65,9","0","0"],
    [11054,"2015-05-06T00:00:00","ND","18","36,15","3,3","172,4","25,4","67,9","0","0"],
    [11055,"2015-05-06T01:00:00","ND","21","33,46","1,7","152,8","25","70,5","0","0"],
    [11056,"2015-05-06T02:00:00","ND","13","30,46","1,9","122,3","24,7","72,7","0","0"],
    [11057,"2015-05-06T03:00:00","ND","18","26,12","2,2","143,3","23,8","76,5","0","0"],
    [11058,"2015-05-06T04:00:00","ND","18","18,19","2,2","133,6","23,2","78,5","0","0"],
    [11059,"2015-05-06T05:00:00","ND","ND","17,21","1,5","203,1","23,3","80,4","0","6,6"],
    [11060,"2015-05-06T06:00:00","ND","18","11,54","1","219,3","22,8","85,4","0","9,65"],
    [11061,"2015-05-06T07:00:00","ND","24","11,52","0,8","125,8","22,9","85,4","0","15,75"],
    [11062,"2015-05-06T08:00:00","ND","12","27,34","3,2","298,3","21,9","83,5","40,7","6,86"],
    [11063,"2015-05-06T09:00:00","ND","13","37,56","1,5","336,6","23,8","76,3","181,3","0"],
    [11064,"2015-05-06T10:00:00","ND","10","56,06","1,9","8,5","25,2","70,8","231,1","0"],
    [11065,"2015-05-06T11:00:00","ND","15","70,08","0,3","129,2","26,6","64,3","327,8","0"],
    [11066,"2015-05-06T12:00:00","ND","12","100,34","1,1","189,9","28,1","58,2","321,1","0"],
    [11067,"2015-05-06T13:00:00","ND","16","95,84","3","74,1","29,1","54,2","382,2","0"],
    [11068,"2015-05-06T14:00:00","ND","16","94,19","2,9","62,1","30,1","51,6","412,6","0"],
    [11069,"2015-05-06T15:00:00","ND","21","91,51","3,7","90,5","30,6","48,3","282,7","0"],
    [11070,"2015-05-06T16:00:00","ND","20","96,84","4,3","92,5","31,1","47,4","225,6","0"],
    [11071,"2015-05-06T17:00:00","ND","21","84,26","4,9","161,6","30,8","45,5","59,5","0"],
    [11072,"2015-05-06T18:00:00","ND","9","50,24","5,3","250,3","27,6","48,6","0","0"],
    [11073,"2015-05-06T19:00:00","ND","11","37,21","4,3","284,7","25,2","58,4","0","0"],
    [11074,"2015-05-06T20:00:00","ND","23","26,37","3,1","38,1","24,8","64,3","0","0"],
    [11075,"2015-05-06T21:00:00","ND","24","27,3","3,2","338,5","23,8","72,7","0","0"],
    [11076,"2015-05-06T22:00:00","ND","25","17,52","2,8","27,9","23,8","73,4","0","0"],
    [11077,"2015-05-06T23:00:00","ND","21","18,66","1,9","74,6","22,6","80","0","0"],
    [11078,"2015-05-07T00:00:00","ND","12","21,72","1,6","159,7","22,9","78,2","0","0"],
    [11079,"2015-05-07T01:00:00","ND","25","15,82","2,2","207,7","22,2","81,9","0","0"],
    [11080,"2015-05-07T02:00:00","ND","18","14,6","1,1","130,4","22,3","81,4","0","0"],
    [11081,"2015-05-07T03:00:00","ND","20","11,3","2,1","75,9","21,4","85","0","0"],
    [11082,"2015-05-07T04:00:00","ND","ND","10,97","1,8","84,6","20,8","87,5","0","0"],
    [11083,"2015-05-07T05:00:00","ND","27","11,34","1,5","112,4","20,8","87,6","0","0"],
    [11084,"2015-05-07T06:00:00","ND","30","11,52","2,1","186,6","20,7","86,9","0","0"],
    [11085,"2015-05-07T07:00:00","ND","23","11,93","2,6","165,4","19,9","88,8","19,4","0"],
    [11086,"2015-05-07T08:00:00","ND","16","14,68","2,9","188,8","20,8","88,2","114,9","0"],
    [11087,"2015-05-07T09:00:00","ND","25","32,95","2,4","176,7","23,5","76,9","228,4","0"],
    [11088,"2015-05-07T10:00:00","ND","ND","58,95","1,8","190,8","25,6","67,3","333,4","0"],
    [11089,"2015-05-07T11:00:00","ND","ND","ND","ND","ND","ND","ND","ND","ND"],
    [11090,"2015-05-07T12:00:00","ND","17","86,05","2,7","55,4","28,6","55,9","449,8","0"],
    [11091,"2015-05-07T13:00:00","ND","19","103,89","3,6","85,1","30","51,7","440,9","0"],
    [11092,"2015-05-07T14:00:00","ND","28","129,1","3,8","66,6","31","48,6","413,4","0"],
    [11093,"2015-05-07T15:00:00","ND","27","144,51","3,6","30,8","31,7","46,6","276,8","0"],
    [11094,"2015-05-07T16:00:00","ND","19","105,95","4,1","299,2","31,7","45,2","230,3","0"],
    [11095,"2015-05-07T17:00:00","ND","4","55,75","7","293,9","31,3","44,2","110,7","0"],
    [11096,"2015-05-07T18:00:00","ND","9","39,58","6,2","292,3","29,6","49,1","16,9","0"],
    [11097,"2015-05-07T19:00:00","ND","7","30,65","4,7","289,6","28,5","52,8","0","0"],
    [11098,"2015-05-07T20:00:00","ND","17","17,74","3,9","75,2","26,7","62,6","0","0"],
    [11099,"2015-05-07T21:00:00","ND","15","17,84","2,2","58,5","25,3","69","0","0"],
    [11100,"2015-05-07T22:00:00","ND","20","18,49","2,7","221,5","25,3","68,8","0","0"],
    [11101,"2015-05-07T23:00:00","ND","17","14,99","1,9","179,4","24,6","72,6","0","0"],
    [11102,"2015-05-08T00:00:00","ND","17","14,78","0,5","215,9","24,7","71,8","0","0"],
    [11103,"2015-05-08T01:00:00","ND","23","13,78","1,9","161,7","23,8","75,5","0","0"],
    [11104,"2015-05-08T02:00:00","ND","17","14,19","1,4","97,1","23,4","76,8","0","0"],
    [11105,"2015-05-08T03:00:00","ND","18","12,42","2,8","93,2","22,3","82,5","0","0"],
    [11106,"2015-05-08T04:00:00","ND","16","13,38","1,5","188,1","22,5","82,1","0","0"],
    [11107,"2015-05-08T05:00:00","ND","19","13,58","1,7","118,4","22,6","81,2","0","0"],
    [11108,"2015-05-08T06:00:00","ND","36","14,17","1,6","95","22,6","81,5","0","0"],
    [11109,"2015-05-08T07:00:00","ND","32","13,6","1,3","146","22,8","80,4","9,7","0"],
    [11110,"2015-05-08T08:00:00","ND","28","14,8","2,8","144,7","23,1","80,4","59,3","0"],
    [11111,"2015-05-08T09:00:00","ND","22","20,08","1,6","122,3","24,2","77,5","114,8","0"],
    [11112,"2015-05-08T10:00:00","ND","35","35,58","2,2","122,6","25,4","71,7","213,3","0"],
    [11113,"2015-05-08T11:00:00","ND","20","60,05","2,9","75,9","27","62,8","298,1","0"],
    [11114,"2015-05-08T12:00:00","ND","20","79,22","3,8","95","28,2","58,8","297,2","0"],
    [11115,"2015-05-08T13:00:00","ND","24","89,99","2,9","106,7","29,2","55","327,4","0"],
    [11116,"2015-05-08T14:00:00","ND","13","104,26","2,7","103,3","30,8","49,9","410,9","0"],
    [11117,"2015-05-08T15:00:00","ND","24","105,99","3,3","77","31,6","45,5","311,9","0"],
    [11118,"2015-05-08T16:00:00","ND","17","115,88","3,1","147,1","32,3","42,6","262,9","0"],
    [11119,"2015-05-08T17:00:00","ND","21","89,76","2,7","104,3","31,9","44","61","0"],
    [11120,"2015-05-08T18:00:00","ND","31","50,81","3,1","110,9","30,8","49,5","18,8","0"],
    [11121,"2015-05-08T19:00:00","ND","31","41,11","0,9","115,6","30,1","51","0","0"],
    [11122,"2015-05-08T20:00:00","ND","21","37,21","3,2","274,4","29,2","54,4","0","0"],
    [11123,"2015-05-08T21:00:00","ND","23","22,55","1,4","100","27,6","62","0","0"],
    [11124,"2015-05-08T22:00:00","ND","37","18,19","2,2","121,8","26,2","69,1","0","0"],
    [11125,"2015-05-08T23:00:00","ND","23","19","1,2","123,6","25,8","70,6","0","0"],
    [11126,"2015-05-09T00:00:00","ND","33","21,76","1","347,1","25,5","71,5","0","0"],
    [11127,"2015-05-09T01:00:00","ND","23","18,03","2,6","95,1","25","73,7","0","0"],
    [11128,"2015-05-09T02:00:00","ND","21","15,56","2,8","67,5","23,6","80,1","0","0"],
    [11129,"2015-05-09T03:00:00","ND","16","22,78","2,3","54","23,8","77,8","0","0"],
    [11130,"2015-05-09T04:00:00","ND","22","21,21","1,7","154,2","23,6","77,7","0","0"],
    [11131,"2015-05-09T05:00:00","ND","27","15,29","3","226,7","23,2","80,5","0","0"],
    [11132,"2015-05-09T06:00:00","ND","32","14,19","1,7","168,4","23,3","79,2","0","0"],
    [11133,"2015-05-09T07:00:00","ND","49","14,93","1,3","162,7","23,2","77,6","18,3","0"],
    [11134,"2015-05-09T08:00:00","ND","47","16,6","2,3","116,8","23,9","75,7","78","0"],
    [11135,"2015-05-09T09:00:00","ND","17","34,54","1,4","146,8","25,4","68,7","184,2","0"],
    [11136,"2015-05-09T10:00:00","ND","27","71,76","2","174,1","27,2","62,7","314,5","0"],
    [11137,"2015-05-09T11:00:00","ND","19","94,43","1,7","213,9","28,6","56,4","362","0"],
    [11138,"2015-05-09T12:00:00","ND","20","96,63","2,5","115,5","30,2","50,1","384,9","0"],
    [11139,"2015-05-09T13:00:00","ND","22","100,53","4,2","85,6","31,1","46,3","360,5","0"],
    [11140,"2015-05-09T14:00:00","ND","21","106,18","4,1","92,1","31,7","44,2","369,2","0"],
    [11141,"2015-05-09T15:00:00","ND","28","147,26","4,5","111,1","32,5","42,4","316,2","0"],
    [11142,"2015-05-09T16:00:00","ND","27","162,86","2,9","63,5","32,9","41,9","219,6","0"],
    [11143,"2015-05-09T17:00:00","ND","19","114,39","3","6,3","32,5","42,9","94,7","0"],
    [11144,"2015-05-09T18:00:00","ND","14","64,8","5,3","294,4","30,7","45,2","14,4","0"],
    [11145,"2015-05-09T19:00:00","ND","18","31,83","2,4","343,5","29,1","51,4","0","0"],
    [11146,"2015-05-09T20:00:00","ND","17","27","1,8","345,6","28,1","55,6","0","0"],
    [11147,"2015-05-09T21:00:00","ND","24","18,01","4,2","73,3","25,8","68,2","0","0"],
    [11148,"2015-05-09T22:00:00","ND","15","17,5","2,6","80,5","25,3","70,1","0","0"],
    [11149,"2015-05-09T23:00:00","ND","12","18,56","3,2","89,4","24,9","71,8","0","0"],
    [11150,"2015-05-10T00:00:00","ND","9","17,98","1,8","62,6","24,8","72,4","0","0"],
    [11151,"2015-05-10T01:00:00","ND","9","20,27","2,6","93,1","24,5","73,3","0","0"],
    [11152,"2015-05-10T02:00:00","ND","8","20,02","1,2","85,2","24,5","73,4","0","0"],
    [11153,"2015-05-10T03:00:00","ND","9","21,7","2,7","111","24,2","74,4","0","0"],
    [11154,"2015-05-10T04:00:00","ND","12","25,22","1,3","213,6","23,2","81,5","0","34,29"],
    [11155,"2015-05-10T05:00:00","ND","10","20,39","2","218,9","23,8","82,3","0","0"],
    [11156,"2015-05-10T06:00:00","ND","22","13,03","1,8","184,8","23,6","83,1","0","0"],
    [11157,"2015-05-10T07:00:00","ND","18","15,07","1,6","176","23,6","82,9","29,6","0"],
    [11158,"2015-05-10T08:00:00","ND","24","24","2,7","155,7","24,5","78,8","128,8","0"],
    [11159,"2015-05-10T09:00:00","ND","18","37,23","2,6","120,3","25,6","73,1","226,8","0"],
    [11160,"2015-05-10T10:00:00","ND","19","64,44","1,8","155,6","27,2","64,5","334,3","0"],
    [11161,"2015-05-10T11:00:00","ND","16","83,85","2,5","190","28,6","58,9","370,4","0"],
    [11162,"2015-05-10T12:00:00","ND","16","101,4","1,1","150,4","29,8","54,7","439,8","0"],
    [11163,"2015-05-10T13:00:00","ND","15","97,98","3,3","95,6","31,2","47,7","423,2","0"],
    [11164,"2015-05-10T14:00:00","ND","19","93,09","3,4","82,9","32,1","43,2","381,8","0"],
    [11165,"2015-05-10T15:00:00","ND","17","96,29","4,2","62,3","32,6","42,2","136,4","0"],
    [11166,"2015-05-10T16:00:00","ND","15","72,47","3","17,3","31,9","46,7","112,4","0"],
    [11167,"2015-05-10T17:00:00","ND","16","66,58","3,7","311,5","30,9","48,2","45,5","0"],
    [11168,"2015-05-10T18:00:00","ND","14","48,49","3,3","295,2","29,7","51,2","6,3","0"],
    [11169,"2015-05-10T19:00:00","ND","14","34,38","1,1","329","28,6","54,9","0","0"],
    [11170,"2015-05-10T20:00:00","ND","11","19,88","2,5","95,7","26,7","65","0","0"],
    [11171,"2015-05-10T21:00:00","ND","14","19,8","0,8","64,4","27","62","0","0"],
    [11172,"2015-05-10T22:00:00","ND","15","17,72","2,7","74,1","25,9","67,3","0","0"],
    [11173,"2015-05-10T23:00:00","ND","18","17,7","3,4","86,5","25,3","69,6","0","0"],
    [11174,"2015-05-11T00:00:00","ND","15","20,43","2","76,8","25,1","70,1","0","0"],
    [11175,"2015-05-11T01:00:00","ND","19","19,13","1,6","83,5","24,9","71,2","0","0"],
    [11176,"2015-05-11T02:00:00","ND","8","24,12","2","100,5","24,5","72,7","0","0"],
    [11177,"2015-05-11T03:00:00","ND","8","23,61","1,4","68,5","24,7","71,6","0","0"],
    [11178,"2015-05-11T04:00:00","ND","8","22,14","0,2","315,5","24,3","73,2","0","0"],
    [11179,"2015-05-11T05:00:00","ND","16","16,21","1,9","154,8","24,4","74,9","0","0"],
    [11180,"2015-05-11T06:00:00","ND","22","13,09","1,2","145,5","23,9","78,6","0","0"],
    [11181,"2015-05-11T07:00:00","ND","30","15,09","0,7","233,3","24,3","76","10,7","0"],
    [11182,"2015-05-11T08:00:00","ND","26","18,58","2,7","157,9","25,1","73,4","68,8","0"],
    [11183,"2015-05-11T09:00:00","ND","26","39,95","0,8","150","26","70,5","192,7","0"],
    [11184,"2015-05-11T10:00:00","ND","26","71,33","2,5","105,4","27,9","61,5","304,1","0"],
    [11185,"2015-05-11T11:00:00","ND","18","82,79","3,7","94,8","29,1","56,3","366,6","0"],
    [11186,"2015-05-11T12:00:00","ND","13","98,88","3,1","62,9","30","53,6","337","0"],
    [11187,"2015-05-11T13:00:00","ND","24","95,92","3,5","89,3","30,1","52,9","150,4","0"],
    [11188,"2015-05-11T14:00:00","ND","19","85,62","5,3","70,1","30,8","52,4","241,2","0"],
    [11189,"2015-05-11T15:00:00","ND","21","58,15","5,1","72,9","30,2","54,4","81,5","0"],
    [11190,"2015-05-11T16:00:00","ND","20","56,42","0,7","337,9","30,5","51,8","99,8","0"],
    [11191,"2015-05-11T17:00:00","ND","13","74,22","3,7","273,1","30,6","48,4","93,3","0"],
    [11192,"2015-05-11T18:00:00","ND","15","51,1","4,7","287,9","29,8","49,1","19,5","0"],
    [11193,"2015-05-11T19:00:00","ND","16","30,14","4","296,9","28,6","52,2","0","0"],
    [11194,"2015-05-11T20:00:00","ND","11","25,08","3,8","290,1","28","54,6","0","0"],
    [11195,"2015-05-11T21:00:00","ND","21","18,23","3,8","82,7","25,8","66,6","0","0"],
    [11196,"2015-05-11T22:00:00","ND","18","19,45","2","46,5","25,1","69,4","0","0"],
    [11197,"2015-05-11T23:00:00","ND","21","19,86","1,9","15,5","25,1","68,6","0","0"],
    [11198,"2015-05-12T00:00:00","ND","16","17,99","1,9","82,1","24,4","71,7","0","0"],
    [11199,"2015-05-12T01:00:00","ND","11","18,15","1,9","100,6","23,5","75,2","0","0"],
    [11200,"2015-05-12T02:00:00","ND","17","16,44","1,5","168,3","23,5","75,9","0","0"],
    [11201,"2015-05-12T03:00:00","ND","18","14,78","0,9","223,5","23,5","77,9","0","0"],
    [11202,"2015-05-12T04:00:00","ND","15","12,58","2,7","96,2","22,4","81,9","0","0"],
    [11203,"2015-05-12T05:00:00","ND","19","12,42","0,7","69,2","22,2","82,5","0","0"],
    [11204,"2015-05-12T06:00:00","ND","27","13,83","1,4","59,5","22,8","79,1","0","0"],
    [11205,"2015-05-12T07:00:00","ND","30","14,21","0,6","204,1","23","78,1","28,7","0"],
    [11206,"2015-05-12T08:00:00","ND","37","20,57","2","105,8","24,4","73,9","138,2","0"],
    [11207,"2015-05-12T09:00:00","ND","26","47,53","2,1","164,4","26","67,4","221,9","0"],
    [11208,"2015-05-12T10:00:00","ND","24","80,24","2,5","145,4","27,4","60,9","321,4","0"],
    [11209,"2015-05-12T11:00:00","ND","40","110,25","1,5","96,8","29","56,1","412","0"],
    [11210,"2015-05-12T12:00:00","ND","32","120,29","2,9","63,4","30,1","52,1","427,9","0"],
    [11211,"2015-05-12T13:00:00","ND","27","124,9","2,2","64,9","30,9","48,5","236,8","0"],
    [11212,"2015-05-12T14:00:00","ND","34","109,34","4","84,3","31,1","46","180,2","0"],
    [11213,"2015-05-12T15:00:00","ND","23","112,54","3,9","83,1","31,4","45,8","179,2","0"],
    [11214,"2015-05-12T16:00:00","ND","21","101,91","4","63,8","32,1","44,8","148,1","0"],
    [11215,"2015-05-12T17:00:00","ND","15","53,57","3,8","17,5","31,6","44,8","38,6","0"],
    [11216,"2015-05-12T18:00:00","ND","17","51,96","3,7","290","30,4","46,5","4,6","0"],
    [11217,"2015-05-12T19:00:00","ND","20","27,1","3,4","320,6","29,9","47,5","0","0"],
    [11218,"2015-05-12T20:00:00","ND","15","23,55","2,6","297","29,5","48,5","0","0"],
    [11219,"2015-05-12T21:00:00","ND","18","20,62","3,9","99","27,5","61","0","0"],
    [11220,"2015-05-12T22:00:00","ND","24","19,86","2","72,4","27","63,8","0","0"],
    [11221,"2015-05-12T23:00:00","ND","17","21,08","2,6","63,7","26,7","64,7","0","0"],
    [11222,"2015-05-13T00:00:00","ND","18","22","1,5","189","26,5","65,5","0","0"],
    [11223,"2015-05-13T01:00:00","ND","15","17,62","3","197,8","26,3","68,4","0","0"],
    [11224,"2015-05-13T02:00:00","ND","19","24,47","3,2","204,4","26,6","66,5","0","0"],
    [11225,"2015-05-13T03:00:00","ND","20","15,6","1,7","115,1","25,6","72,5","0","0"],
    [11226,"2015-05-13T04:00:00","ND","22","13,09","1,4","84,6","25,1","75,2","0","0"],
    [11227,"2015-05-13T05:00:00","ND","22","13,54","1,7","158,7","25,1","74,9","0","0"],
    [11228,"2015-05-13T06:00:00","ND","38","12,78","1,1","72,3","24,9","75,8","0","0"],
    [11229,"2015-05-13T07:00:00","ND","37","13,54","1,3","26,5","25,2","73,4","0","0"],
    [11230,"2015-05-13T08:00:00","ND","32","14,11","2,4","167,5","25,1","74,7","26,8","0"],
    [11231,"2015-05-13T09:00:00","ND","35","23,27","2,2","185,6","26,1","69,9","112,8","0"],
    [11232,"2015-05-13T10:00:00","ND","25","38,6","3,9","115,4","27,2","65,8","174,7","0"],
    [11233,"2015-05-13T11:00:00","ND","25","44,29","3,7","94","27,8","63,6","183,9","0"],
    [11234,"2015-05-13T12:00:00","ND","18","72,57","3","75,9","28,5","60,2","250","0"],
    [11235,"2015-05-13T13:00:00","ND","28","140,82","2,2","14,9","29,9","55,5","387,9","0"],
    [11236,"2015-05-13T14:00:00","ND","28","113,7","4,7","58","30,8","51,2","262,6","0"],
    [11237,"2015-05-13T15:00:00","ND","21","82,69","4,7","81,7","30,9","49","148,1","0"],
    [11238,"2015-05-13T16:00:00","ND","11","58,85","1,6","55,4","30,8","47,2","78","0"],
    [11239,"2015-05-13T17:00:00","ND","14","66,98","3","264,8","31,1","43,9","133,8","0"],
    [11240,"2015-05-13T18:00:00","ND","11","60,01","6","283,6","30,2","46,5","34,2","0"],
    [11241,"2015-05-13T19:00:00","ND","13","33,79","4,2","297,3","28,6","50,9","0","0"],
    [11242,"2015-05-13T20:00:00","ND","20","19,21","2,4","341,7","28","54","0","0"],
    [11243,"2015-05-13T21:00:00","ND","34","20,6","2,8","102,1","26,6","63,1","0","0"],
    [11244,"2015-05-13T22:00:00","ND","44","20,72","3,1","98,2","25,7","68,9","0","0"],
    [11245,"2015-05-13T23:00:00","ND","32","18,27","2,3","84,8","25,7","68,6","0","0"],
    [11246,"2015-05-14T00:00:00","ND","20","22,45","2,1","61,4","25,4","69,3","0","0"],
    [11247,"2015-05-14T01:00:00","ND","3","27,49","2,2","95,4","25,3","68,7","0","0"],
    [11248,"2015-05-14T02:00:00","ND","5","29,67","1,1","142,7","25,1","69,3","0","0"],
    [11249,"2015-05-14T03:00:00","ND","7","25,33","0,9","152,8","25","70,5","0","0"],
    [11250,"2015-05-14T04:00:00","ND","18","17,11","2","134,4","24,5","75,2","0","0"],
    [11251,"2015-05-14T05:00:00","ND","23","13,91","0,9","140,7","23,9","78,6","0","0"],
    [11252,"2015-05-14T06:00:00","ND","31","14,54","1,6","172,6","24,4","75","0","0"],
    [11253,"2015-05-14T07:00:00","ND","33","15,48","2,7","192,6","24,3","75,9","4,7","0"],
    [11254,"2015-05-14T08:00:00","ND","34","20,57","3,2","163,1","24,9","73,8","76,8","0"],
    [11255,"2015-05-14T09:00:00","ND","24","38,93","2,6","166,9","26,3","67,1","171,6","0"],
    [11256,"2015-05-14T10:00:00","ND","18","58,95","1,5","197,9","27,4","63,5","251","0"],
    [11257,"2015-05-14T11:00:00","ND","17","98,65","0,4","177,4","28,7","58,1","288,8","0"],
    [11258,"2015-05-14T12:00:00","ND","32","113,56","2,9","99,4","29,4","55,2","205,2","0"],
    [11259,"2015-05-14T13:00:00","ND","30","129,01","4","120,9","30","54","226,9","0"],
    [11260,"2015-05-14T14:00:00","ND","28","128,69","3","142,8","30,4","52,3","149,6","0"],
    [11261,"2015-05-14T15:00:00","ND","38","165,51","3","88,3","31","50,6","253,7","0"],
    [11262,"2015-05-14T16:00:00","ND","40","151,06","1,2","280,4","31,4","47,2","145,5","0"],
    [11263,"2015-05-14T17:00:00","ND","13","53,69","6,8","292,6","30,4","45,9","39","0"],
    [11264,"2015-05-14T18:00:00","ND","17","38,54","3,4","315,8","29,3","51","10,9","0"],
    [11265,"2015-05-14T19:00:00","ND","14","37,15","5,3","42,9","27,4","59,6","0","0"],
    [11266,"2015-05-14T20:00:00","ND","39","30,1","3,8","69,9","25,9","67","0","0"],
    [11267,"2015-05-14T21:00:00","ND","23","29,93","1,3","161,6","25,9","67,7","0","0"],
    [11268,"2015-05-14T22:00:00","ND","37","33,65","2,7","159","25,9","67,3","0","0"],
    [11269,"2015-05-14T23:00:00","ND","45","23,23","3,2","129,1","25,3","70,9","0","0"],
    [11270,"2015-05-15T00:00:00","ND","19","24,08","1,6","203,1","24,5","75,8","0","15,24"],
    [11271,"2015-05-15T01:00:00","ND","13","19,78","1,9","325,5","23,6","83","0","2,03"],
    [11272,"2015-05-15T02:00:00","ND","14","16,82","1,4","193,8","23,8","84,1","0","0"],
    [11273,"2015-05-15T03:00:00","ND","13","14,68","3","134,1","23,1","86,7","0","0"],
    [11274,"2015-05-15T04:00:00","ND","11","18,35","1,3","183,8","22,8","85,8","0","0"],
    [11275,"2015-05-15T05:00:00","ND","12","17,74","1,7","208,3","23,2","83,3","0","0"],
    [11276,"2015-05-15T06:00:00","ND","38","13,54","1,6","103,8","23,1","84,3","0","0"],
    [11277,"2015-05-15T07:00:00","ND","25","13,38","1,6","145,9","23,1","85,2","10,5","0"],
    [11278,"2015-05-15T08:00:00","ND","34","14,64","0,9","61","23,7","83,7","56,9","0"],
    [11279,"2015-05-15T09:00:00","ND","36","25,29","0,9","44,8","24,4","81,1","139,2","0"],
    [11280,"2015-05-15T10:00:00","ND","31","32,3","2,5","84,3","25,1","76,8","117,4","0"],
    [11281,"2015-05-15T11:00:00","ND","21","48,9","2,1","60,1","25,8","71,9","222,9","0"],
    [11282,"2015-05-15T12:00:00","ND","19","78,24","2,4","94","27,2","64","331,6","0"],
    [11283,"2015-05-15T13:00:00","ND","25","102,73","2,9","84,8","28,6","58,7","356,3","0"],
    [11284,"2015-05-15T14:00:00","ND","24","84,44","3,5","156,1","28,6","59","128,6","0"],
    [11285,"2015-05-15T15:00:00","ND","25","94,92","2","136,5","29,1","57","222,2","0"],
    [11286,"2015-05-15T16:00:00","ND","24","101,22","3,5","192,5","29,7","53,7","274,8","0"],
    [11287,"2015-05-15T17:00:00","ND","29","98,45","2,3","118,7","29,6","53,1","113,1","0"],
    [11288,"2015-05-15T18:00:00","ND","18","50,9","3,6","13,2","29,2","51,2","36,3","0"],
    [11289,"2015-05-15T19:00:00","ND","15","29,22","3,9","295","28","52,9","0","0"],
    [11290,"2015-05-15T20:00:00","ND","14","22,98","1,7","307,5","27,1","57","0","0"],
    [11291,"2015-05-15T21:00:00","ND","17","17,86","2,9","109,7","25,9","65,5","0","0"],
    [11292,"2015-05-15T22:00:00","ND","19","19,07","3,3","64,3","25","70,5","0","0"],
    [11293,"2015-05-15T23:00:00","ND","8","19,92","2,3","34,9","25","69,3","0","0"],
    [11294,"2015-05-16T00:00:00","ND","19","18,47","2,7","66,6","24,7","70,5","0","0"],
    [11295,"2015-05-16T01:00:00","ND","18","17,82","1,8","45,3","24,2","73,3","0","0"],
    [11296,"2015-05-16T02:00:00","ND","9","15,5","1,7","87","23,7","76,3","0","0"],
    [11297,"2015-05-16T03:00:00","ND","4","17,45","0,8","106,5","23,6","76,2","0","0"],
    [11298,"2015-05-16T04:00:00","ND","2","15,72","1","77,5","23,7","76,1","0","0"],
    [11299,"2015-05-16T05:00:00","ND","9","15,01","1,5","129,6","23,6","76,8","0","0"],
    [11300,"2015-05-16T06:00:00","ND","9","14,46","0,9","94,8","23,7","75,5","0","0"],
    [11301,"2015-05-16T07:00:00","ND","31","14,15","1,2","81,7","23,9","75,9","9,5","0"],
    [11302,"2015-05-16T08:00:00","ND","35","16,95","1,1","104","24,2","75,7","35,4","0"],
    [11303,"2015-05-16T09:00:00","ND","20","19,55","2,3","113,9","24,6","74,7","73","0"],
    [11304,"2015-05-16T10:00:00","ND","25","39,86","1,9","208,8","26,2","68,1","265,9","0"],
    [11305,"2015-05-16T11:00:00","ND","19","63,27","2,2","64,7","28","59,9","368,9","0"],
    [11306,"2015-05-16T12:00:00","ND","22","92,66","2,5","96,7","29,2","54,9","300","0"],
    [11307,"2015-05-16T13:00:00","ND","28","92,41","3,4","71,7","29,6","54","198,5","0"],
    [11308,"2015-05-16T14:00:00","ND","29","93,11","4,1","81,4","30,1","52","208,4","0"],
    [11309,"2015-05-16T15:00:00","ND","41","130,26","4,2","36,2","30,7","49,5","207,6","0"],
    [11310,"2015-05-16T16:00:00","ND","25","86,32","5","38,9","30,8","48,9","149,8","0"],
    [11311,"2015-05-16T17:00:00","ND","29","65,45","4,2","41,6","30,6","48,1","103,7","0"],
    [11312,"2015-05-16T18:00:00","ND","25","34,68","5","331,7","29,4","49,5","15,2","0"],
    [11313,"2015-05-16T19:00:00","ND","6","25,45","3,5","308,6","28","53,9","0","0"],
    [11314,"2015-05-16T20:00:00","ND","37","19,29","2,8","89,8","27,1","59,9","0","0"],
    [11315,"2015-05-16T21:00:00","ND","17","19,82","3","155,5","26","65,5","0","0"],
    [11316,"2015-05-16T22:00:00","ND","20","41,19","4,2","215,6","25,1","71,5","0","0"],
    [11317,"2015-05-16T23:00:00","ND","35","38,03","3,7","220","25","72,1","0","0"],
    [11318,"2015-05-17T00:00:00","ND","12","30,71","2,4","173,1","24,8","73,4","0","0"],
    [11319,"2015-05-17T01:00:00","ND","18","24,24","1,9","108,9","24,3","77,4","0","0"],
    [11320,"2015-05-17T02:00:00","ND","22","21,74","3","77,7","23,7","80,2","0","0"],
    [11321,"2015-05-17T03:00:00","ND","21","29,24","1","89,1","24,1","75,7","0","0"],
    [11322,"2015-05-17T04:00:00","ND","7","26,16","0,9","149,4","24,4","71,2","0","0"],
    [11323,"2015-05-17T05:00:00","ND","12","23,08","2","178","24","77,3","0","0"],
    [11324,"2015-05-17T06:00:00","ND","10","18,05","1,6","132,9","23,6","80,8","0","0"],
    [11325,"2015-05-17T07:00:00","ND","14","17,03","1,4","118,7","23,5","78,6","10,2","0,25"],
    [11326,"2015-05-17T08:00:00","ND","14","18,01","1,7","99,7","23,5","81,5","41,7","0"],
    [11327,"2015-05-17T09:00:00","ND","18","22,04","2,4","76,6","24,2","80,6","97,8","0"],
    [11328,"2015-05-17T10:00:00","ND","24","33,44","3","75,3","25,3","74,8","177,8","0"],
    [11329,"2015-05-17T11:00:00","ND","17","72,53","1,5","318,8","27,4","61,9","378,6","0"],
    [11330,"2015-05-17T12:00:00","ND","17","94,53","3,1","41","28,9","54,8","359,2","0"],
    [11331,"2015-05-17T13:00:00","ND","18","88,15","3,4","72,8","29,3","51,9","235,6","0"],
    [11332,"2015-05-17T14:00:00","ND","18","72,69","4,7","80,8","29,5","52","153,4","0"],
    [11333,"2015-05-17T15:00:00","ND","14","93,06","3,8","91,5","29,6","51,5","224,3","0"],
    [11334,"2015-05-17T16:00:00","ND","15","88,52","3,8","75,2","29,9","50,6","123,1","0"],
    [11335,"2015-05-17T17:00:00","ND","18","68,21","1,7","116,8","29,8","49,6","36,7","0"],
    [11336,"2015-05-17T18:00:00","ND","7","51,2","3,4","279,8","29,3","48,3","12,3","0"],
    [11337,"2015-05-17T19:00:00","ND","8","31,65","3,5","300,2","28,4","51,1","0","0"],
    [11338,"2015-05-17T20:00:00","ND","13","23,86","2,3","288,5","27,6","54,2","0","0"],
    [11339,"2015-05-17T21:00:00","ND","16","16,29","3,5","98,7","26,3","64,3","0","0"],
    [11340,"2015-05-17T22:00:00","ND","15","15,64","2,1","62,1","25,1","69,5","0","0"],
    [11341,"2015-05-17T23:00:00","ND","15","14,64","1","298,5","25,3","68","0","0"],
    [11342,"2015-05-18T00:00:00","ND","20","13,54","2,1","128,2","24,5","72,9","0","0"],
    [11343,"2015-05-18T01:00:00","ND","11","13,93","1,8","180","24,3","73,3","0","0"],
    [11344,"2015-05-18T02:00:00","ND","9","14,46","1,3","110,7","23,8","75,4","0","0"],
    [11345,"2015-05-18T03:00:00","ND","10","13,13","2,3","92,4","23,4","78,9","0","0"],
    [11346,"2015-05-18T04:00:00","ND","14","13,23","2,2","91,4","23,1","81,8","0","0"],
    [11347,"2015-05-18T05:00:00","ND","19","12,72","0,7","91,5","23,2","81,3","0","0"],
    [11348,"2015-05-18T06:00:00","ND","19","12,87","0,5","188,5","23,2","81,2","0","0"],
    [11349,"2015-05-18T07:00:00","ND","24","13,29","1,9","104,5","23,1","81,7","9,8","0"],
    [11350,"2015-05-18T08:00:00","ND","16","15,29","2,5","112,4","23,6","80","55,9","0"],
    [11351,"2015-05-18T09:00:00","ND","22","26,08","2,1","40,1","25","73,5","159,4","0"],
    [11352,"2015-05-18T10:00:00","ND","14","40,01","2,5","70,6","26,4","65","190,2","0"],
    [11353,"2015-05-18T11:00:00","ND","15","44,25","4,6","72,6","27,6","61,1","314,8","0"],
    [11354,"2015-05-18T12:00:00","ND","10","53,14","3,9","59,9","28,7","56","365,2","0"],
    [11355,"2015-05-18T13:00:00","ND","10","63,82","3,4","78,5","30","51","439,7","0"],
    [11356,"2015-05-18T14:00:00","ND","7","91,27","4,4","62,2","31,1","48,6","408,5","0"],
    [11357,"2015-05-18T15:00:00","ND","9","99,63","4,5","84,8","31,5","47,2","281,9","0"],
    [11358,"2015-05-18T16:00:00","ND","13","113,23","3,4","106,7","31,5","46,2","168,9","0"],
    [11359,"2015-05-18T17:00:00","ND","17","89,56","6,7","211,5","29,5","54,6","21,3","0"],
    [11360,"2015-05-18T18:00:00","ND","13","49,79","3,4","337,6","26,7","59,6","0","0"],
    [11361,"2015-05-18T19:00:00","ND","11","20,39","5,7","353,5","24,2","68,3","0","0"],
    [11362,"2015-05-18T20:00:00","ND","19","22,27","3","43,9","24","70,4","0","0"],
    [11363,"2015-05-18T21:00:00","ND","12","30,5","3","354,2","23,8","72,4","0","0"],
    [11364,"2015-05-18T22:00:00","ND","10","21,55","1,3","41,6","24","72,2","0","0"],
    [11365,"2015-05-18T23:00:00","ND","10","17,56","2,6","123,6","23,2","75,9","0","0"],
    [11366,"2015-05-19T00:00:00","ND","11","14,99","2","178,8","22,8","78,5","0","0"],
    [11367,"2015-05-19T01:00:00","ND","ND","17,78","2,5","203,7","22,6","79,1","0","0"],
    [11368,"2015-05-19T02:00:00","ND","ND","16,03","2,7","188,2","22,3","79,3","0","0"],
    [11369,"2015-05-19T03:00:00","ND","13","15,93","1,8","158,9","21,7","80,9","0","0"],
    [11370,"2015-05-19T04:00:00","ND","11","13,4","2,5","152,5","21,1","83,9","0","0"],
    [11371,"2015-05-19T05:00:00","ND","ND","13,52","1,4","137","20,9","84,8","0","0"],
    [11372,"2015-05-19T06:00:00","ND","20","13,56","1,9","102,9","20,9","84,7","0","0"],
    [11373,"2015-05-19T07:00:00","ND","33","14,29","2,7","61,8","21,1","84,3","12,5","0"],
    [11374,"2015-05-19T08:00:00","ND","23","15,88","0,8","124,2","21,7","81,9","79,5","0"],
    [11375,"2015-05-19T09:00:00","ND","26","29,71","0,4","68","23,9","72,5","180","0"],
    [11376,"2015-05-19T10:00:00","ND","18","57,4","1,6","168,5","26,3","63,4","332,8","0"],
    [11377,"2015-05-19T11:00:00","ND","12","77,2","1,1","184,6","28,2","55,8","382,2","0"],
    [11378,"2015-05-19T12:00:00","ND","12","86,72","3,1","83,7","29,4","51,7","409,5","0"],
    [11379,"2015-05-19T13:00:00","ND","16","98,43","2,4","52","30,8","46,1","421,8","0"],
    [11380,"2015-05-19T14:00:00","ND","15","107,85","3,3","92,7","31,7","42,7","398,1","0"],
    [11381,"2015-05-19T15:00:00","ND","23","143,78","4","5,2","31,6","45,1","143,4","0"],
    [11382,"2015-05-19T16:00:00","ND","10","66,6","6,3","311,9","30,9","45,8","144","0"],
    [11383,"2015-05-19T17:00:00","ND","7","51,71","4,8","337,7","31,1","43,8","129,2","0"],
    [11384,"2015-05-19T18:00:00","ND","8","39,76","5,7","300,6","29,9","45,9","33,7","0"],
    [11385,"2015-05-19T19:00:00","ND","18","21,02","2,3","357,6","28,6","51,1","0","0"],
    [11386,"2015-05-19T20:00:00","ND","35","17,13","2,9","71,8","27,1","59,5","0","0"],
    [11387,"2015-05-19T21:00:00","ND","42","16,21","4,1","97,2","25,2","69,4","0","0"],
    [11388,"2015-05-19T22:00:00","ND","17","18,27","3,6","49,5","24,7","71,2","0","0"],
    [11389,"2015-05-19T23:00:00","ND","20","16,13","1,7","70,1","24,8","69,2","0","0"],
    [11390,"2015-05-20T00:00:00","ND","9","15,99","2,1","71,4","24,1","72","0","0"],
    [11391,"2015-05-20T01:00:00","ND","8","14,89","0,7","303","23,9","73,6","0","0"],
    [11392,"2015-05-20T02:00:00","ND","9","16,54","1,2","139,2","24","72,9","0","0"],
    [11393,"2015-05-20T03:00:00","ND","12","13,6","3","219,5","23,7","76,1","0","0"],
    [11394,"2015-05-20T04:00:00","ND","11","13,66","3,1","134","23,5","76,5","0","0"],
    [11395,"2015-05-20T05:00:00","ND","15","14,27","0,9","90,6","23,2","76,5","0","0"],
    [11396,"2015-05-20T06:00:00","ND","16","14,21","1","328,7","22,8","77,2","0","0"],
    [11397,"2015-05-20T07:00:00","ND","31","15,05","1,2","55,1","23,5","75,6","11,6","0"],
    [11398,"2015-05-20T08:00:00","ND","32","14,64","2,1","64,1","23,3","78,9","42,7","0"],
    [11399,"2015-05-20T09:00:00","ND","30","30,53","0,6","21,4","24,9","71,4","209","0"],
    [11400,"2015-05-20T10:00:00","ND","ND","45,41","2","105","26,9","62,6","249,5","0"],
    [11401,"2015-05-20T11:00:00","ND","20","ND","2,8","77","28,1","58,3","368,2","0"],
    [11402,"2015-05-20T12:00:00","ND","15","86,38","2,9","73,4","29,7","50,6","427,6","0"],
    [11403,"2015-05-20T13:00:00","ND","17","108,81","2,6","84,2","30,9","46,4","404,6","0"],
    [11404,"2015-05-20T14:00:00","ND","19","114,23","2,9","56,8","31,7","44,1","278,7","0"],
    [11405,"2015-05-20T15:00:00","ND","17","109,56","3,7","61,5","32,4","42","324,1","0"],
    [11406,"2015-05-20T16:00:00","ND","12","91,17","1,7","41,8","32,1","42","146","0"],
    [11407,"2015-05-20T17:00:00","ND","9","60,72","5,1","288,3","32,1","38,9","144","0"],
    [11408,"2015-05-20T18:00:00","ND","5","42,17","5,8","292,6","30,7","43,6","31,3","0"],
    [11409,"2015-05-20T19:00:00","ND","18","24,31","5","289,2","29,1","49,4","0","0"],
    [11410,"2015-05-20T20:00:00","ND","20","20,13","2,6","8,4","28,2","54,2","0","0"],
    [11411,"2015-05-20T21:00:00","ND","22","15,64","3,8","69,1","26,3","64,6","0","0"],
    [11412,"2015-05-20T22:00:00","ND","12","17,35","1,2","29,8","26,4","63,2","0","0"],
    [11413,"2015-05-20T23:00:00","ND","46","13,7","3,5","214,1","26,4","64,1","0","0"],
    [11414,"2015-05-21T00:00:00","ND","11","15,38","2,1","173","25,3","68,9","0","0"],
    [11415,"2015-05-21T01:00:00","ND","15","14,46","0,7","221,3","25,5","67,6","0","0"],
    [11416,"2015-05-21T02:00:00","ND","12","12,89","1,9","359,6","24,7","71,5","0","0"],
    [11417,"2015-05-21T03:00:00","ND","12","11,72","2,1","62,8","24,4","70,7","0","0"],
    [11418,"2015-05-21T04:00:00","ND","6","14,87","1,6","76,4","23,8","74,7","0","0"],
    [11419,"2015-05-21T05:00:00","ND","5","15,01","2,3","134,1","23,9","74,2","0","0"],
    [11420,"2015-05-21T06:00:00","ND","14","13,48","1,4","158","23,9","74,2","0","0"],
    [11421,"2015-05-21T07:00:00","ND","17","14,09","2","132,2","24,1","73,4","10,8","0"],
    [11422,"2015-05-21T08:00:00","ND","16","15,6","2,6","118,9","24,7","73","71,5","0"],
    [11423,"2015-05-21T09:00:00","ND","17","23,41","2,1","125,5","25,4","70","138,9","0"],
    [11424,"2015-05-21T10:00:00","ND","11","33,4","2,8","104,3","26,5","64,1","282,1","0"],
    [11425,"2015-05-21T11:00:00","ND","7","48,1","2,7","77,2","28,2","57,8","404","0"],
    [11426,"2015-05-21T12:00:00","ND","6","65,7","3,9","45","29,1","54,2","291,1","0"],
    [11427,"2015-05-21T13:00:00","ND","5","61,28","4,3","353,8","28,7","55,5","150,7","0"],
    [11428,"2015-05-21T14:00:00","ND","4","69,1","3,3","11,5","29,7","51,4","268,8","0"],
    [11429,"2015-05-21T15:00:00","ND","6","59,4","0,5","342,2","29","55,8","92,1","0,51"],
    [11430,"2015-05-21T16:00:00","ND","12","56,99","1,5","325,3","27,3","65","69,9","0,51"],
    [11431,"2015-05-21T17:00:00","ND","25","33,58","4,3","37,1","26,7","68,3","59,3","0"],
    [11432,"2015-05-21T18:00:00","ND","10","20,86","4,4","32,2","26,2","67,5","19","0"],
    [11433,"2015-05-21T19:00:00","ND","21","17,5","3,9","70,8","25,2","71,5","0","0"],
    [11434,"2015-05-21T20:00:00","ND","26","13,66","3","74,8","24,5","76,1","0","0"],
    [11435,"2015-05-21T21:00:00","ND","8","13,56","2,2","339,3","24,3","75,5","0","0"],
    [11436,"2015-05-21T22:00:00","ND","10","11,79","1,3","284,8","24,7","72,3","0","0"],
    [11437,"2015-05-21T23:00:00","ND","27","13,34","2,2","228,4","24,4","74,2","0","0"],
    [11438,"2015-05-22T00:00:00","ND","21","11,32","1,6","152,5","23,4","79,8","0","0"],
    [11439,"2015-05-22T01:00:00","ND","10","13,29","1,3","154,7","23,4","80,6","0","0"],
    [11440,"2015-05-22T02:00:00","ND","12","13,46","1,1","177,2","23,3","80,6","0","0"],
    [11441,"2015-05-22T03:00:00","ND","19","12,56","1,8","241,7","23,1","78,7","0","0"],
    [11442,"2015-05-22T04:00:00","ND","14","11,21","2,5","100,6","22","82,9","0","0"],
    [11443,"2015-05-22T05:00:00","ND","15","11,34","1","37,4","21,6","86,7","0","0"],
    [11444,"2015-05-22T06:00:00","ND","22","11,77","1,7","26,4","21,7","86,9","0","0"],
    [11445,"2015-05-22T07:00:00","ND","22","11,87","2,3","17,7","21,8","86,3","25,8","0"],
    [11446,"2015-05-22T08:00:00","ND","34","15,66","1","26,9","23,2","82,3","110,6","0"],
    [11447,"2015-05-22T09:00:00","ND","32","24,94","2","95,8","24,6","75,2","167","0"],
    [11448,"2015-05-22T10:00:00","ND","27","48,41","2,3","119,3","26,7","65","315,3","0"],
    [11449,"2015-05-22T11:00:00","43","15","68,06","3,1","93,4","28,3","57,8","401","0"],
    [11450,"2015-05-22T12:00:00","35","14","84,64","3,4","56,7","29,5","52,1","450,3","0"],
    [11451,"2015-05-22T13:00:00","36","13","84,89","4,9","51","30,5","48,3","289,4","0"],
    [11452,"2015-05-22T14:00:00","73","19","98,33","6","56,3","31,5","45,2","387,3","0"],
    [11453,"2015-05-22T15:00:00","36","9","81,99","7,3","39,6","31,7","44","294,5","0"],
    [11454,"2015-05-22T16:00:00","41","6","61,23","6,4","14,6","30,5","47,2","104,9","0"],
    [11455,"2015-05-22T17:00:00","32","9","44,86","5,3","28,7","28,4","55,8","16,9","0"],
    [11456,"2015-05-22T18:00:00","49","21","21,45","4,1","90,6","26,4","67,5","6,8","0"],
    [11457,"2015-05-22T19:00:00","71","33","17,37","2,1","149,5","26,2","68,3","0","0"],
    [11458,"2015-05-22T20:00:00","85","29","23,8","2,5","232,7","26,5","63,9","0","0"],
    [11459,"2015-05-22T21:00:00","72","22","13,83","3,2","279,6","26,3","59,6","0","0"],
    [11460,"2015-05-22T22:00:00","80","22","12,26","1,6","315,7","26,1","59,8","0","0"],
    [11461,"2015-05-22T23:00:00","101","37","11,99","0,9","99,9","24,5","73,1","0","0"],
    [11462,"2015-05-23T00:00:00","67","18","11,89","1,7","222,8","24,6","71,2","0","0"],
    [11463,"2015-05-23T01:00:00","83","24","11,93","2,2","115,9","24,1","74,6","0","0"],
    [11464,"2015-05-23T02:00:00","64","20","10,91","1,2","110","22,9","79,8","0","0"],
    [11465,"2015-05-23T03:00:00","62","21","12,99","0,2","110,7","23,7","75,2","0","0"],
    [11466,"2015-05-23T04:00:00","59","16","11,66","2,3","72,9","22,5","80","0","0"],
    [11467,"2015-05-23T05:00:00","74","28","11,64","1,6","36,5","22,2","80,2","0","0"],
    [11468,"2015-05-23T06:00:00","50","15","11,3","1,8","103,6","21,4","84,2","0","0"],
    [11469,"2015-05-23T07:00:00","75","29","12,05","0,7","18,6","22,3","81,1","9,2","0"],
    [11470,"2015-05-23T08:00:00","110","29","12,81","1,7","94,3","22,4","79,9","63,7","0"],
    [11471,"2015-05-23T09:00:00","89","35","19,19","2,2","134,2","23,9","74,1","153","0"],
    [11472,"2015-05-23T10:00:00","80","31","43,72","1,6","111,5","25,8","65,1","268,7","0"],
    [11473,"2015-05-23T11:00:00","64","24","69,47","1,8","93,5","27,9","57,4","352,9","0"],
    [11474,"2015-05-23T12:00:00","73","29","98,53","2,4","44,8","29,1","53,7","300,2","0"],
    [11475,"2015-05-23T13:00:00","60","23","85,68","4,2","74,9","29,9","49,5","218,3","0"],
    [11476,"2015-05-23T14:00:00","47","15","79,36","4,3","91,2","30,3","45,8","247,6","0"],
    [11477,"2015-05-23T15:00:00","48","23","103,65","3,1","95,8","31,2","43,3","280,8","0"],
    [11478,"2015-05-23T16:00:00","52","25","110,42","2,9","78,3","31,3","44,4","164,2","0"],
    [11479,"2015-05-23T17:00:00","73","29","64,27","3,4","69,5","30,9","46,3","42,4","0"],
    [11480,"2015-05-23T18:00:00","51","26","40,27","3,5","80,9","30","48,6","29,9","0"],
    [11481,"2015-05-23T19:00:00","67","22","25,98","0,7","100,7","28,8","55,4","0","0"],
    [11482,"2015-05-23T20:00:00","43","6","25,16","3","289,3","28,2","56,6","0","0"],
    [11483,"2015-05-23T21:00:00","57","14","14,99","3,5","77,9","26,2","65,5","0","0"],
    [11484,"2015-05-23T22:00:00","39","12","15,99","3,5","51","25,5","68,9","0","0"],
    [11485,"2015-05-23T23:00:00","38","17","14,27","3,5","73,6","24,9","70,2","0","0"],
    [11486,"2015-05-24T00:00:00","34","8","13,25","2,6","79,3","24,5","73,3","0","0"],
    [11487,"2015-05-24T01:00:00","38","8","13,54","3","191,7","24,4","74","0","0"],
    [11488,"2015-05-24T02:00:00","51","9","16,29","2,5","171,9","24,4","71,8","0","0"],
    [11489,"2015-05-24T03:00:00","47","12","15,09","2,3","130,5","24","73","0","0"],
    [11490,"2015-05-24T04:00:00","31","8","14,87","3,3","159,2","23,4","74,5","0","0"],
    [11491,"2015-05-24T05:00:00","27","5","14,44","1,9","185,1","23,2","76,1","0","0"],
    [11492,"2015-05-24T06:00:00","21","10","15,91","1,3","165,6","22,9","78,2","0","0"],
    [11493,"2015-05-24T07:00:00","32","12","14,48","2,2","151,9","23,1","76,8","9,9","0"],
    [11494,"2015-05-24T08:00:00","39","11","13,85","2,3","170,6","23,3","77,4","22,9","0"],
    [11495,"2015-05-24T09:00:00","39","19","21,06","2,5","176,6","24,3","73,5","91,3","0"],
    [11496,"2015-05-24T10:00:00","33","11","41,35","2,2","198,6","26,2","64,3","302,4","0"],
    [11497,"2015-05-24T11:00:00","26","6","70,55","2,4","201,9","28,2","58,6","380,7","0"],
    [11498,"2015-05-24T12:00:00","25","8","80,69","1,9","137,6","29,7","50,4","392","0"],
    [11499,"2015-05-24T13:00:00","44","15","85,6","3,7","75,2","30","49,8","214","0"],
    [11500,"2015-05-24T14:00:00","33","17","72,1","3,9","41,6","29,9","50,4","169,2","0"],
    [11501,"2015-05-24T15:00:00","ND","ND","69,45","4,4","47,5","30,6","46,5","219,2","0"],
    [11502,"2015-05-24T16:00:00","41","10","69,47","0,6","13,5","30,7","44","197,1","0"],
    [11503,"2015-05-24T17:00:00","15","6","47,06","6,8","306,6","30,1","44,2","109,1","0"],
    [11504,"2015-05-24T18:00:00","26","4","36,64","5,4","307,2","28,9","46,6","26,5","0"],
    [11505,"2015-05-24T19:00:00","39","7","23,51","2,7","330","28,3","48,3","0","0"],
    [11506,"2015-05-24T20:00:00","21","6","26,24","3,6","280,8","27,3","52,9","0","0"],
    [11507,"2015-05-24T21:00:00","57","16","22,14","2,4","244,3","25,7","64,5","0","0"],
    [11508,"2015-05-24T22:00:00","60","17","21,94","2,7","211","24,9","68","0","0"],
    [11509,"2015-05-24T23:00:00","48","22","20,08","2,6","166,2","24,7","71,1","0","0"],
    [11510,"2015-05-25T00:00:00","47","18","16,33","2,4","109,5","23,6","76,3","0","0"],
    [11511,"2015-05-25T01:00:00","31","12","18,8","3,1","86,3","23,2","76,9","0","0"],
    [11512,"2015-05-25T02:00:00","28","6","19,45","2,1","100,4","23,3","71,8","0","0"],
    [11513,"2015-05-25T03:00:00","10","1","23,08","2,2","81,3","23,4","70,7","0","0"],
    [11514,"2015-05-25T04:00:00","15","3","18,84","1,4","116,8","23,1","72,6","0","0"],
    [11515,"2015-05-25T05:00:00","26","6","17,8","1,6","103,7","23,2","72,1","0","0"],
    [11516,"2015-05-25T06:00:00","46","9","14,58","3,4","62,9","22,9","75,5","0","11,94"],
    [11517,"2015-05-25T07:00:00","19","9","16,72","1,4","346,1","21,8","85,3","17,3","45,72"],
    [11518,"2015-05-25T08:00:00","10","7","26,63","1,4","238,7","22,8","81,6","118,1","0"],
    [11519,"2015-05-25T09:00:00","18","9","30,57","2,7","101","24,4","73,3","205,7","0"],
    [11520,"2015-05-25T10:00:00","36","12","34,18","2,8","103,3","25,3","69,3","177,8","0"],
    [11521,"2015-05-25T11:00:00","31","13","45,11","2,3","169,5","25,8","68,2","163,4","0"],
    [11522,"2015-05-25T12:00:00","30","12","66,92","1,4","197,2","26,9","62","352,8","0"],
    [11523,"2015-05-25T13:00:00","57","17","66,88","3,9","98,2","28","57,6","278,3","0"],
    [11524,"2015-05-25T14:00:00","52","24","75,41","3,6","71,9","28,1","57,3","241,5","0"],
    [11525,"2015-05-25T15:00:00","38","14","80,03","3","57,4","28,7","54,9","229,2","0"],
    [11526,"2015-05-25T16:00:00","49","12","64,44","3,1","340,3","28,9","52,1","169,9","0"],
    [11527,"2015-05-25T17:00:00","33","7","40,01","5,2","50,9","29,2","50,3","143,6","0"],
    [11528,"2015-05-25T18:00:00","43","16","27,24","4,3","59,3","28,8","51,2","45,2","0"],
    [11529,"2015-05-25T19:00:00","70","24","16,31","1,4","35,5","27,5","53,5","0","0"],
    [11530,"2015-05-25T20:00:00","71","18","15,44","1,8","37,2","26,6","54,9","0","0"],
    [11531,"2015-05-25T21:00:00","62","14","13,76","2,8","92,8","25,3","64,7","0","0"],
    [11532,"2015-05-25T22:00:00","34","11","14,48","0,5","30,9","24,6","68,4","0","0"],
    [11533,"2015-05-25T23:00:00","45","14","21,55","3,4","170,6","24,4","71,8","0","0"],
    [11534,"2015-05-26T00:00:00","23","9","31,36","2,8","196,5","23,7","74,1","0","0"],
    [11535,"2015-05-26T01:00:00","20","9","27,89","2,2","150,8","23,2","75,5","0","0"],
    [11536,"2015-05-26T02:00:00","10","7","24,92","1,9","150,5","22,5","78,3","0","0"],
    [11537,"2015-05-26T03:00:00","42","8","18,17","1,2","108,9","21,9","81,3","0","0"],
    [11538,"2015-05-26T04:00:00","54","17","13,95","2,2","85,7","21,5","82,9","0","0"],
    [11539,"2015-05-26T05:00:00","61","16","12,46","0,4","137,4","21,6","83,2","0","0"],
    [11540,"2015-05-26T06:00:00","72","21","12,11","0,4","111,8","21,6","83,3","0","0"],
    [11541,"2015-05-26T07:00:00","111","37","13,25","2,8","90,2","21,7","83,5","25,7","0"],
    [11542,"2015-05-26T08:00:00","73","25","17,9","2,4","91","22,5","81,1","108,9","0"],
    [11543,"2015-05-26T09:00:00","46","16","28,45","1,4","76,3","24,5","73,2","228,2","0"],
    [11544,"2015-05-26T10:00:00","50","17","41,92","3,1","138,6","25,3","68","211,2","0"],
    [11545,"2015-05-26T11:00:00","40","12","66,05","2,1","208,8","26,9","60,2","291,3","0"],
    [11546,"2015-05-26T12:00:00","45","18","74,04","2","145,9","28,2","54,9","307,5","0"],
    [11547,"2015-05-26T13:00:00","49","19","78,57","2,2","136,8","29,3","50,4","281,1","0"],
    [11548,"2015-05-26T14:00:00","49","16","79,55","3,8","101,6","29,7","49,2","253","0"],
    [11549,"2015-05-26T15:00:00","63","20","104,85","3,2","91,5","30,5","47,3","257,5","0"],
    [11550,"2015-05-26T16:00:00","68","24","122,69","4,1","74,5","31,2","45,8","218,4","0"],
    [11551,"2015-05-26T17:00:00","ND","ND","107,58","1,9","15,2","31,1","46,6","105,9","0"],
    [11552,"2015-05-26T18:00:00","26","8","41,8","6,8","285,9","29,5","48,7","22,5","0"],
    [11553,"2015-05-26T19:00:00","26","7","26,39","6","296,8","28,2","53,3","0","0"],
    [11554,"2015-05-26T20:00:00","38","11","24,69","3,4","314,8","27,7","56,1","0","0"],
    [11555,"2015-05-26T21:00:00","54","17","15,29","3,9","74,2","25,4","67,6","0","0"],
    [11556,"2015-05-26T22:00:00","51","17","16,86","3,4","70,8","24,7","69,8","0","0"],
    [11557,"2015-05-26T23:00:00","35","11","19,21","1,7","219,8","24,9","68,9","0","0"],
    [11558,"2015-05-27T00:00:00","18","12","21,74","2,4","183","25","69,9","0","0"],
    [11559,"2015-05-27T01:00:00","21","9","22,08","3,2","188,8","24,9","69,8","0","0"],
    [11560,"2015-05-27T02:00:00","17","6","29,59","2,8","207,9","24","73","0","0"],
    [11561,"2015-05-27T03:00:00","17","3","28,42","2,2","139","23,2","77","0","0"],
    [11562,"2015-05-27T04:00:00","6","5","25,18","1,4","149,3","22,8","79,3","0","0"],
    [11563,"2015-05-27T05:00:00","14","5","20,19","2,3","134,7","22,7","80,1","0","0"],
    [11564,"2015-05-27T06:00:00","39","13","15,66","1,2","126,6","22,4","82,6","0","0"],
    [11565,"2015-05-27T07:00:00","38","12","14,64","2","176,7","22,8","81,7","12","0"],
    [11566,"2015-05-27T08:00:00","37","11","14,34","2,3","191,5","23","82,7","38,5","0,25"],
    [11567,"2015-05-27T09:00:00","39","15","21,08","3","185,7","24","78,9","103,6","0"],
    [11568,"2015-05-27T10:00:00","27","14","36,19","2,7","187,5","25,2","72,1","170,9","0"],
    [11569,"2015-05-27T11:00:00","31","12","46","2,6","153,7","26,1","67,3","175,1","0"],
    [11570,"2015-05-27T12:00:00","35","12","63,13","2,9","70","27,1","63,7","372,1","0"],
    [11571,"2015-05-27T13:00:00","41","21","69,7","2,3","83,5","27,9","60,6","247,5","0"],
    [11572,"2015-05-27T14:00:00","28","17","86,23","2,5","64,6","29","54,7","372,4","0"],
    [11573,"2015-05-27T15:00:00","30","16","108,62","2,8","61,2","29,6","50,2","203,6","0"],
    [11574,"2015-05-27T16:00:00","33","18","121,37","1,6","12,7","29,9","47,4","144,7","0"],
    [11575,"2015-05-27T17:00:00","38","18","90,05","1,5","226,2","29,6","50,2","39,3","0"],
    [11576,"2015-05-27T18:00:00","31","8","36,76","1,8","139,5","27,2","59,4","5,5","39,12"],
    [11577,"2015-05-27T19:00:00","19","6","26,34","4,1","192,7","22,7","84,1","0","36,32"],
    [11578,"2015-05-27T20:00:00","31","14","14,78","2,4","323,1","23,6","84,8","0","0,51"],
    [11579,"2015-05-27T21:00:00","42","26","13,29","2,8","52,7","23,5","84,8","0","0"],
    [11580,"2015-05-27T22:00:00","54","17","12,72","2,4","100","23,1","85","0","0"],
    [11581,"2015-05-27T23:00:00","45","14","12,87","0,8","226,6","23,1","82,9","0","0"],
    [11582,"2015-05-28T00:00:00","35","10","12,7","1,6","193,9","23,2","83,6","0","0"],
    [11583,"2015-05-28T01:00:00","34","10","12,19","2,1","177,6","23,3","83,9","0","0"],
    [11584,"2015-05-28T02:00:00","20","9","12,36","1,2","223,3","23,3","83,6","0","0"],
    [11585,"2015-05-28T03:00:00","20","12","12,26","1,4","34,4","22,9","84,9","0","0"],
    [11586,"2015-05-28T04:00:00","16","10","12,01","2,9","101","22,5","85,6","0","0"],
    [11587,"2015-05-28T05:00:00","15","8","13,29","2,7","18,3","22,2","86,5","0","0"],
    [11588,"2015-05-28T06:00:00","33","10","11,44","0,6","13","22,3","85,1","0","0"],
    [11589,"2015-05-28T07:00:00","63","18","11,97","2,1","95,7","22,3","85,7","0","0"],
    [11590,"2015-05-28T08:00:00","23","16","12,56","2,6","41,6","22,2","85,6","6,6","0"],
    [11591,"2015-05-28T09:00:00","12","2","16,33","4,3","4,8","21,7","87","26,6","0"],
    [11592,"2015-05-28T10:00:00","ND","ND","20,29","3,6","351,1","22,2","86,3","106","0,25"],
    [11593,"2015-05-28T11:00:00","ND","8","ND","1,9","12,5","23,9","79,1","241,9","0"],
    [11594,"2015-05-28T12:00:00","12","6","42,76","1,8","88,8","26,2","67,1","347,1","0"],
    [11595,"2015-05-28T13:00:00","24","9","42,01","3,4","63,6","27","63,2","242","0"],
    [11596,"2015-05-28T14:00:00","27","9","49,79","2,5","59,9","27,6","58,6","197,1","0"],
    [11597,"2015-05-28T15:00:00","24","6","43,05","3,9","59,7","27,9","57,8","141,2","0"],
    [11598,"2015-05-28T16:00:00","37","10","34,85","3,5","58,5","28,2","55,6","143,2","0"],
    [11599,"2015-05-28T17:00:00","27","7","30,24","3,8","25,2","28,2","52,9","79,3","0"],
    [11600,"2015-05-28T18:00:00","38","9","23,02","3,3","345","27,7","52,6","20,2","0"],
    [11601,"2015-05-28T19:00:00","36","7","16,17","3,3","301,2","26,7","55,6","0","0"],
    [11602,"2015-05-28T20:00:00","28","4","15,25","3,5","291,9","25,9","59,5","0","0"],
    [11603,"2015-05-28T21:00:00","36","6","14,68","3,1","224,8","25,1","67,1","0","0"],
    [11604,"2015-05-28T22:00:00","48","14","14,54","1,7","120,8","24,3","73,2","0","0"],
    [11605,"2015-05-28T23:00:00","41","13","12,95","2","117,3","23,4","78,4","0","0"],
    [11606,"2015-05-29T00:00:00","30","8","13,15","2,5","202,5","23,3","78,7","0","0"],
    [11607,"2015-05-29T01:00:00","39","8","14,64","2,1","127,8","22,9","80,5","0","0"],
    [11608,"2015-05-29T02:00:00","30","9","20,37","1,7","153,3","22,5","81,6","0","0"],
    [11609,"2015-05-29T03:00:00","31","6","22,19","1,4","181,8","22,4","81,9","0","0"],
    [11610,"2015-05-29T04:00:00","30","3","19,78","1,7","102,8","22,3","82,5","0","0"],
    [11611,"2015-05-29T05:00:00","36","8","15,58","1,2","102,7","22,1","83,9","0","0"],
    [11612,"2015-05-29T06:00:00","66","16","12,76","2,3","101,3","22","84,4","0","0"],
    [11613,"2015-05-29T07:00:00","65","15","12,23","1,8","73,4","21,9","83,9","4,2","0"],
    [11614,"2015-05-29T08:00:00","73","20","12,81","1,2","116,2","22,3","82,9","16,8","0"],
    [11615,"2015-05-29T09:00:00","60","29","12,58","2","72,7","22,2","86","32,2","4,32"],
    [11616,"2015-05-29T10:00:00","23","16","15,97","3,2","76,7","22,2","85,5","106,7","0,76"],
    [11617,"2015-05-29T11:00:00","17","3","27,87","1,6","102,5","23,7","76,6","286,2","0"],
    [11618,"2015-05-29T12:00:00","16","5","29,12","3","56,4","24,6","72,3","178","0"],
    [11619,"2015-05-29T13:00:00","29","14","30,69","4,2","66,3","25,2","71,8","259,6","0"],
    [11620,"2015-05-29T14:00:00","28","16","39,76","2,9","67,6","25,3","70,6","220,6","0"],
    [11621,"2015-05-29T15:00:00","25","11","64,93","0,7","52,4","26,2","65,3","236,8","0"],
    [11622,"2015-05-29T16:00:00","30","17","87,09","2,3","4,7","26,7","62,2","128,2","0"],
    [11623,"2015-05-29T17:00:00","47","15","67,92","3,1","62,2","27","60,1","87,2","0"],
    [11624,"2015-05-29T18:00:00","68","24","34,3","3,3","70,4","26,6","61,6","24,4","0"],
    [11625,"2015-05-29T19:00:00","95","49","28,04","2,9","47,6","25,7","66,4","0","0"],
    [11626,"2015-05-29T20:00:00","65","20","16,84","2,5","3,9","24,7","70,9","0","0"],
    [11627,"2015-05-29T21:00:00","82","33","13,44","2","13,6","24,5","71,9","0","0"],
    [11628,"2015-05-29T22:00:00","113","62","13,17","1,7","57,6","24","75,3","0","0"],
    [11629,"2015-05-29T23:00:00","100","48","12,5","1,7","22,4","23,4","77","0","0"],
    [11630,"2015-05-30T00:00:00","82","32","11,75","1,2","95,8","22,9","78,7","0","0"],
    [11631,"2015-05-30T01:00:00","68","30","12,21","1,1","190,4","22,7","79,6","0","0"],
    [11632,"2015-05-30T02:00:00","52","17","11,99","0,8","113,8","22,6","80","0","0"],
    [11633,"2015-05-30T03:00:00","34","11","12,19","2","90,1","22,1","81,1","0","0"],
    [11634,"2015-05-30T04:00:00","42","18","11,95","1,4","48","21,7","81,5","0","0"],
    [11635,"2015-05-30T05:00:00","42","16","12,01","1","20,9","21,6","80,9","0","0"],
    [11636,"2015-05-30T06:00:00","50","20","12,21","1,5","120,7","21,6","81,7","0","0"],
    [11637,"2015-05-30T07:00:00","66","25","12,68","1,3","9,5","22","79,6","11,3","0"],
    [11638,"2015-05-30T08:00:00","91","31","13,91","2,1","92,3","22,5","78,9","57,1","0"],
    [11639,"2015-05-30T09:00:00","ND","ND","20,6","3,2","109,6","23,3","77,9","152,9","0"],
    [11640,"2015-05-30T10:00:00","79","19","32,93","1,9","116,6","24,9","71,8","277","0"],
    [11641,"2015-05-30T11:00:00","66","29","48,24","2,5","84","26,4","64,9","275,7","0"],
    [11642,"2015-05-30T12:00:00","58","20","74,96","1,5","131,7","28,1","56,4","357,2","0"],
    [11643,"2015-05-30T13:00:00","ND","ND","90,07","2,4","76,8","29,2","50,7","432,5","0"],
    [11644,"2015-05-30T14:00:00","ND","ND","90,35","4,1","92,7","29,9","48,6","290,2","0"],
    [11645,"2015-05-30T15:00:00","ND","ND","ND","ND","ND","ND","ND","ND","ND"],
    [11646,"2015-05-30T16:00:00","ND","ND","ND","ND","ND","ND","ND","ND","ND"],
    [11647,"2015-05-30T17:00:00","ND","ND","ND","ND","ND","ND","ND","ND","ND"],
    [11648,"2015-05-30T18:00:00","ND","ND","ND","ND","ND","ND","ND","ND","ND"],
    [11649,"2015-05-30T19:00:00","ND","ND","ND","ND","ND","ND","ND","ND","ND"],
    [11650,"2015-05-30T20:00:00","ND","ND","ND","ND","ND","ND","ND","ND","ND"],
    [11651,"2015-05-30T21:00:00","ND","ND","ND","ND","ND","ND","ND","ND","ND"],
    [11652,"2015-05-30T22:00:00","ND","ND","ND","ND","ND","ND","ND","ND","ND"],
    [11653,"2015-05-30T23:00:00","ND","ND","ND","ND","ND","ND","ND","ND","ND"],
    [11654,"2015-05-31T00:00:00","ND","ND","ND","ND","ND","ND","ND","ND","ND"],
    [11655,"2015-05-31T01:00:00","ND","ND","ND","ND","ND","ND","ND","ND","ND"],
    [11656,"2015-05-31T02:00:00","ND","ND","ND","ND","ND","ND","ND","ND","ND"],
    [11657,"2015-05-31T03:00:00","ND","ND","ND","ND","ND","ND","ND","ND","ND"],
    [11658,"2015-05-31T04:00:00","ND","ND","ND","ND","ND","ND","ND","ND","ND"],
    [11659,"2015-05-31T05:00:00","ND","ND","ND","ND","ND","ND","ND","ND","ND"],
    [11660,"2015-05-31T06:00:00","ND","ND","ND","ND","ND","ND","ND","ND","ND"],
    [11661,"2015-05-31T07:00:00","ND","ND","ND","ND","ND","ND","ND","ND","ND"],
    [11662,"2015-05-31T08:00:00","ND","ND","ND","ND","ND","ND","ND","ND","ND"],
    [11663,"2015-05-31T09:00:00","ND","ND","ND","ND","ND","ND","ND","ND","ND"],
    [11664,"2015-05-31T10:00:00","ND","ND","ND","ND","ND","ND","ND","ND","ND"],
    [11665,"2015-05-31T11:00:00","ND","ND","ND","ND","ND","ND","ND","ND","ND"],
    [11666,"2015-05-31T12:00:00","ND","ND","ND","ND","ND","ND","ND","ND","ND"],
    [11667,"2015-05-31T13:00:00","ND","ND","ND","ND","ND","ND","ND","ND","ND"],
    [11668,"2015-05-31T14:00:00","ND","ND","ND","ND","ND","ND","ND","ND","ND"],
    [11669,"2015-05-31T15:00:00","ND","ND","ND","ND","ND","ND","ND","ND","ND"],
    [11670,"2015-05-31T16:00:00","ND","ND","ND","ND","ND","ND","ND","ND","ND"],
    [11671,"2015-05-31T17:00:00","ND","ND","ND","ND","ND","ND","ND","ND","ND"],
    [11672,"2015-05-31T18:00:00","ND","ND","ND","ND","ND","ND","ND","ND","ND"],
    [11673,"2015-05-31T19:00:00","ND","ND","ND","ND","ND","ND","ND","ND","ND"],
    [11674,"2015-05-31T20:00:00","ND","ND","ND","ND","ND","ND","ND","ND","ND"],
    [11675,"2015-05-31T21:00:00","ND","ND","ND","ND","ND","ND","ND","ND","ND"],
    [11676,"2015-05-31T22:00:00","ND","ND","ND","ND","ND","ND","ND","ND","ND"],
    [11677,"2015-05-31T23:00:00","ND","ND","ND","ND","ND","ND","ND","ND","ND"],
    [11678,"2015-06-01T00:00:00","ND","ND","ND","ND","ND","ND","ND","ND","ND"],
    [11679,"2015-06-01T01:00:00","ND","ND","ND","ND","ND","ND","ND","ND","ND"],
    [11680,"2015-06-01T02:00:00","ND","ND","ND","ND","ND","ND","ND","ND","ND"],
    [11681,"2015-06-01T03:00:00","ND","ND","ND","ND","ND","ND","ND","ND","ND"],
    [11682,"2015-06-01T04:00:00","ND","ND","ND","ND","ND","ND","ND","ND","ND"],
    [11683,"2015-06-01T05:00:00","ND","ND","ND","ND","ND","ND","ND","ND","ND"],
    [11684,"2015-06-01T06:00:00","ND","ND","ND","ND","ND","ND","ND","ND","ND"],
    [11685,"2015-06-01T07:00:00","ND","ND","ND","ND","ND","ND","ND","ND","ND"],
    [11686,"2015-06-01T08:00:00","ND","ND","ND","ND","ND","ND","ND","ND","ND"],
    [11687,"2015-06-01T09:00:00","ND","ND","ND","ND","ND","ND","ND","ND","ND"],
    [11688,"2015-06-01T10:00:00","ND","ND","ND","ND","ND","ND","ND","ND","ND"],
    [11689,"2015-06-01T11:00:00","ND","ND","ND","ND","ND","ND","ND","ND","ND"],
    [11690,"2015-06-01T12:00:00","ND","ND","ND","ND","ND","ND","ND","ND","ND"],
    [11691,"2015-06-01T13:00:00","ND","ND","ND","ND","ND","ND","ND","ND","ND"],
    [11692,"2015-06-01T14:00:00","ND","ND","ND","ND","ND","ND","ND","ND","ND"],
    [11693,"2015-06-01T15:00:00","ND","ND","ND","ND","ND","ND","ND","ND","ND"],
    [11694,"2015-06-01T16:00:00","ND","ND","ND","ND","ND","ND","ND","ND","ND"],
    [11695,"2015-06-01T17:00:00","ND","ND","ND","ND","ND","ND","ND","ND","ND"],
    [11696,"2015-06-01T18:00:00","ND","ND","ND","ND","ND","ND","ND","ND","ND"],
    [11697,"2015-06-01T19:00:00","ND","ND","ND","ND","ND","ND","ND","ND","ND"],
    [11698,"2015-06-01T20:00:00","ND","ND","ND","ND","ND","ND","ND","ND","ND"],
    [11699,"2015-06-01T21:00:00","ND","ND","ND","ND","ND","ND","ND","ND","ND"],
    [11700,"2015-06-01T22:00:00","ND","ND","ND","ND","ND","ND","ND","ND","ND"],
    [11701,"2015-06-01T23:00:00","ND","ND","ND","ND","ND","ND","ND","ND","ND"],
    [11702,"2015-06-02T00:00:00","ND","ND","ND","ND","ND","ND","ND","ND","ND"],
    [11703,"2015-06-02T01:00:00","ND","ND","ND","ND","ND","ND","ND","ND","ND"],
    [11704,"2015-06-02T02:00:00","ND","ND","ND","ND","ND","ND","ND","ND","ND"],
    [11705,"2015-06-02T03:00:00","ND","ND","ND","ND","ND","ND","ND","ND","ND"],
    [11706,"2015-06-02T04:00:00","ND","ND","ND","ND","ND","ND","ND","ND","ND"],
    [11707,"2015-06-02T05:00:00","ND","ND","ND","ND","ND","ND","ND","ND","ND"],
    [11708,"2015-06-02T06:00:00","ND","ND","ND","ND","ND","ND","ND","ND","ND"],
    [11709,"2015-06-02T07:00:00","ND","ND","ND","ND","ND","ND","ND","ND","ND"],
    [11710,"2015-06-02T08:00:00","ND","ND","ND","ND","ND","ND","ND","ND","ND"],
    [11711,"2015-06-02T09:00:00","ND","ND","ND","ND","ND","ND","ND","ND","ND"],
    [11712,"2015-06-02T10:00:00","ND","ND","ND","ND","ND","ND","ND","ND","ND"],
    [11713,"2015-06-02T11:00:00","ND","ND","ND","ND","ND","ND","ND","ND","ND"],
    [11714,"2015-06-02T12:00:00","ND","ND","ND","ND","ND","ND","ND","ND","ND"],
    [11715,"2015-06-02T13:00:00","ND","ND","ND","ND","ND","ND","ND","ND","ND"],
    [11716,"2015-06-02T14:00:00","ND","ND","ND","ND","ND","ND","ND","ND","ND"],
    [11717,"2015-06-02T15:00:00","ND","ND","ND","ND","ND","ND","ND","ND","ND"],
    [11718,"2015-06-02T16:00:00","ND","ND","ND","ND","ND","ND","ND","ND","ND"],
    [11719,"2015-06-02T17:00:00","ND","ND","ND","ND","ND","ND","ND","ND","ND"],
    [11720,"2015-06-02T18:00:00","ND","ND","ND","ND","ND","ND","ND","ND","ND"],
    [11721,"2015-06-02T19:00:00","ND","ND","ND","ND","ND","ND","ND","ND","ND"],
    [11722,"2015-06-02T20:00:00","ND","ND","ND","ND","ND","ND","ND","ND","ND"],
    [11723,"2015-06-02T21:00:00","ND","ND","ND","ND","ND","ND","ND","ND","ND"],
    [11724,"2015-06-02T22:00:00","ND","ND","ND","ND","ND","ND","ND","ND","ND"],
    [11725,"2015-06-02T23:00:00","ND","ND","ND","ND","ND","ND","ND","ND","ND"],
    [11726,"2015-06-03T00:00:00","ND","ND","ND","ND","ND","ND","ND","ND","ND"],
    [11727,"2015-06-03T01:00:00","ND","ND","ND","ND","ND","ND","ND","ND","ND"],
    [11728,"2015-06-03T02:00:00","ND","ND","ND","ND","ND","ND","ND","ND","ND"],
    [11729,"2015-06-03T03:00:00","ND","ND","ND","ND","ND","ND","ND","ND","ND"],
    [11730,"2015-06-03T04:00:00","ND","ND","ND","ND","ND","ND","ND","ND","ND"],
    [11731,"2015-06-03T05:00:00","ND","ND","ND","ND","ND","ND","ND","ND","ND"],
    [11732,"2015-06-03T06:00:00","ND","ND","ND","ND","ND","ND","ND","ND","ND"],
    [11733,"2015-06-03T07:00:00","ND","ND","ND","ND","ND","ND","ND","ND","ND"],
    [11734,"2015-06-03T08:00:00","ND","ND","ND","ND","ND","ND","ND","ND","ND"],
    [11735,"2015-06-03T09:00:00","ND","ND","ND","ND","ND","ND","ND","ND","ND"],
    [11736,"2015-06-03T10:00:00","ND","ND","ND","ND","ND","ND","ND","ND","ND"],
    [11737,"2015-06-03T11:00:00","ND","ND","ND","ND","ND","ND","ND","ND","ND"],
    [11738,"2015-06-03T12:00:00","ND","ND","ND","ND","ND","ND","ND","ND","ND"],
    [11739,"2015-06-03T13:00:00","ND","ND","ND","ND","ND","ND","ND","ND","ND"],
    [11740,"2015-06-03T14:00:00","ND","ND","ND","ND","ND","ND","ND","ND","ND"],
    [11741,"2015-06-03T15:00:00","ND","ND","ND","ND","ND","ND","ND","ND","ND"],
    [11742,"2015-06-03T16:00:00","ND","ND","ND","ND","ND","ND","ND","ND","ND"],
    [11743,"2015-06-03T17:00:00","ND","ND","ND","ND","ND","ND","ND","ND","ND"],
    [11744,"2015-06-03T18:00:00","ND","ND","ND","ND","ND","ND","ND","ND","ND"],
    [11745,"2015-06-03T19:00:00","ND","ND","ND","ND","ND","ND","ND","ND","ND"],
    [11746,"2015-06-03T20:00:00","ND","ND","ND","ND","ND","ND","ND","ND","ND"],
    [11747,"2015-06-03T21:00:00","ND","ND","ND","ND","ND","ND","ND","ND","ND"],
    [11748,"2015-06-03T22:00:00","ND","ND","ND","ND","ND","ND","ND","ND","ND"],
    [11749,"2015-06-03T23:00:00","ND","ND","ND","ND","ND","ND","ND","ND","ND"],
    [11750,"2015-06-04T00:00:00","ND","ND","ND","ND","ND","ND","ND","ND","ND"],
    [11751,"2015-06-04T01:00:00","ND","ND","ND","ND","ND","ND","ND","ND","ND"],
    [11752,"2015-06-04T02:00:00","ND","ND","ND","ND","ND","ND","ND","ND","ND"],
    [11753,"2015-06-04T03:00:00","ND","ND","ND","ND","ND","ND","ND","ND","ND"],
    [11754,"2015-06-04T04:00:00","ND","ND","ND","ND","ND","ND","ND","ND","ND"],
    [11755,"2015-06-04T05:00:00","ND","ND","ND","ND","ND","ND","ND","ND","ND"],
    [11756,"2015-06-04T06:00:00","ND","ND","ND","ND","ND","ND","ND","ND","ND"],
    [11757,"2015-06-04T07:00:00","ND","ND","ND","ND","ND","ND","ND","ND","ND"],
    [11758,"2015-06-04T08:00:00","ND","ND","ND","ND","ND","ND","ND","ND","ND"],
    [11759,"2015-06-04T09:00:00","ND","ND","ND","ND","ND","ND","ND","ND","ND"],
    [11760,"2015-06-04T10:00:00","ND","ND","ND","ND","ND","ND","ND","ND","ND"],
    [11761,"2015-06-04T11:00:00","ND","ND","ND","ND","ND","ND","ND","ND","ND"],
    [11762,"2015-06-04T12:00:00","ND","ND","ND","3,1","98,9","29,4","53,5","245","0"],
    [11763,"2015-06-04T13:00:00","54","24","92,68","3,2","67,5","30","50,9","326,7","0"],
    [11764,"2015-06-04T14:00:00","39","17","110,93","3","76","31,3","43,7","383,3","0"],
    [11765,"2015-06-04T15:00:00","38","17","100,61","4,4","51,4","31,8","41,8","233,8","0"],
    [11766,"2015-06-04T16:00:00","49","17","68,41","5","48","31,4","46","156","0"],
    [11767,"2015-06-04T17:00:00","55","16","50,55","3,5","83,5","31,3","47,7","121,1","0"],
    [11768,"2015-06-04T18:00:00","48","11","53,83","3,2","298,5","30,3","46,4","22,4","0"],
    [11769,"2015-06-04T19:00:00","32","6","32,24","5,7","293,2","28,7","51,2","0","0"],
    [11770,"2015-06-04T20:00:00","27","7","27,69","4,6","301,5","28,1","53,9","0","0"],
    [11771,"2015-06-04T21:00:00","41","12","15,13","4,1","109,6","26,2","66","0","0"],
    [11772,"2015-06-04T22:00:00","46","9","13,97","0,3","96","25,6","67,3","0","0"],
    [11773,"2015-06-04T23:00:00","65","16","14,05","3,8","221,2","24,9","70,5","0","0"],
    [11774,"2015-06-05T00:00:00","65","18","13,82","1,7","169,8","24,9","70,2","0","0"],
    [11775,"2015-06-05T01:00:00","34","6","12,72","2,1","108,2","24","75","0","0"],
    [11776,"2015-06-05T02:00:00","42","8","12,36","2,4","177,3","23,5","77,3","0","0"],
    [11777,"2015-06-05T03:00:00","32","7","13,72","2,9","201,4","23,4","78,3","0","0"],
    [11778,"2015-06-05T04:00:00","29","6","12,68","2,6","153,6","23,3","79,1","0","0"],
    [11779,"2015-06-05T05:00:00","36","14","15,82","3,8","185,6","23,4","75,1","0","0"],
    [11780,"2015-06-05T06:00:00","27","18","12,42","0,3","161,1","22","84,7","0","5,08"],
    [11781,"2015-06-05T07:00:00","36","17","12,46","1,3","68","22,3","85,7","13,7","0"],
    [11782,"2015-06-05T08:00:00","68","26","12,85","1,3","114,6","22,6","84,7","38,8","0"],
    [11783,"2015-06-05T09:00:00","60","23","17,99","2","183,4","23,5","78,5","108,1","0"],
    [11784,"2015-06-05T10:00:00","39","15","29,34","2,2","152","25","71,7","220,3","0"],
    [11785,"2015-06-05T11:00:00","42","14","47,69","2,2","153,9","26,6","65","257,3","0"],
    [11786,"2015-06-05T12:00:00","38","18","64,5","3,2","134,7","27,7","60,4","254,8","0"],
    [11787,"2015-06-05T13:00:00","32","21","68,23","4,1","86,1","28,1","58,8","247,3","0"],
    [11788,"2015-06-05T14:00:00","32","18","70,1","4,1","83,5","28,9","54,5","240,5","0"],
    [11789,"2015-06-05T15:00:00","48","25","109,7","4,4","69,8","29,3","53,8","214,2","0"],
    [11790,"2015-06-05T16:00:00","57","21","86,87","4,5","54,7","29,7","52,7","152,5","0"],
    [11791,"2015-06-05T17:00:00","56","21","51,9","3,6","46,2","29,6","51,8","50,5","0"],
    [11792,"2015-06-05T18:00:00","38","7","30,1","2,8","317,5","29","48,2","16,2","0"],
    [11793,"2015-06-05T19:00:00","77","29","15,23","1,4","352,6","27,9","54,3","0","0"],
    [11794,"2015-06-05T20:00:00","27","7","15,37","4,4","297,2","27,3","54,6","0","0"],
    [11795,"2015-06-05T21:00:00","40","14","12,68","1,4","69,1","26,4","61,5","0","0"],
    [11796,"2015-06-05T22:00:00","55","17","14,15","2,3","202,2","25","71","0","0"],
    [11797,"2015-06-05T23:00:00","48","17","12,21","1,5","80,6","24,6","71,9","0","0"],
    [11798,"2015-06-06T00:00:00","31","14","12,76","1,6","47,8","24,1","73,1","0","0"],
    [11799,"2015-06-06T01:00:00","24","8","12,78","2,5","67,8","23,3","76,2","0","0"],
    [11800,"2015-06-06T02:00:00","21","5","13,7","0,2","327,4","23","77,9","0","0"],
    [11801,"2015-06-06T03:00:00","27","6","13,46","1,6","168,6","23,3","77,5","0","0"],
    [11802,"2015-06-06T04:00:00","12","3","13,07","2","90,8","22,4","83,3","0","3,3"],
    [11803,"2015-06-06T05:00:00","14","3","13,19","2","227,9","22,2","85","0","2,54"],
    [11804,"2015-06-06T06:00:00","39","21","12,76","1,9","138,5","22,4","84,8","0","0"],
    [11805,"2015-06-06T07:00:00","40","17","13,17","2,1","165,1","22,3","84,2","10,3","0"],
    [11806,"2015-06-06T08:00:00","51","24","15,8","3,2","142,2","23,1","79","82,2","0,25"],
    [11807,"2015-06-06T09:00:00","45","16","26,41","2,2","201,4","24,2","72,9","212,6","0"],
    [11808,"2015-06-06T10:00:00","42","18","44,62","1","148,7","25,9","65,8","294,3","0"],
    [11809,"2015-06-06T11:00:00","50","19","66,39","2,1","98,1","27,2","62,7","332,4","0"],
    [11810,"2015-06-06T12:00:00","36","17","86,11","3,1","71,6","28,2","55,9","346,7","0"],
    [11811,"2015-06-06T13:00:00","36","18","79,16","2,8","85,5","29,1","51","275,2","0"],
    [11812,"2015-06-06T14:00:00","41","19","75,3","4,6","82,3","29,5","51,3","251,4","0"],
    [11813,"2015-06-06T15:00:00","42","14","96,41","3,4","52,6","30","49,9","306,9","0"],
    [11814,"2015-06-06T16:00:00","46","14","72,45","4,3","51,9","30,2","48,7","134,7","0"],
    [11815,"2015-06-06T17:00:00","33","10","42,84","3,3","10,2","30","47,3","56,7","0"],
    [11816,"2015-06-06T18:00:00","23","8","32,99","4,5","288,6","28,9","48,5","23,6","0"],
    [11817,"2015-06-06T19:00:00","28","6","19,96","3,9","295,4","27,9","50,9","0","0"],
    [11818,"2015-06-06T20:00:00","31","7","16,21","2,2","345,7","26,9","56,5","0","0"],
    [11819,"2015-06-06T21:00:00","43","9","14,36","3,2","100,7","25,3","67,9","0","0"],
    [11820,"2015-06-06T22:00:00","43","12","13,56","2,6","75,4","24,4","71,6","0","0"],
    [11821,"2015-06-06T23:00:00","26","11","15,23","2,3","13,8","24,4","70","0","0"],
    [11822,"2015-06-07T00:00:00","35","10","13,87","2,6","87,3","24,1","71,7","0","0"],
    [11823,"2015-06-07T01:00:00","31","6","13,66","2,5","120,9","23,5","74,1","0","0"],
    [11824,"2015-06-07T02:00:00","55","21","13,05","2","172,1","23,2","75,6","0","0"],
    [11825,"2015-06-07T03:00:00","63","11","12,93","0,8","103,9","23,1","76,7","0","0"],
    [11826,"2015-06-07T04:00:00","42","12","14,23","1,6","212,9","23,2","76,4","0","0"],
    [11827,"2015-06-07T05:00:00","33","11","14,21","1,8","202,7","23,5","73,9","0","0"],
    [11828,"2015-06-07T06:00:00","34","10","12,32","1,7","178,1","23,1","77","0","0"],
    [11829,"2015-06-07T07:00:00","60","23","13,25","2,7","122,1","22,7","79","0","0"],
    [11830,"2015-06-07T08:00:00","60","25","13,72","1,8","136,9","22,9","78,9","39,7","0"],
    [11831,"2015-06-07T09:00:00","33","16","17,41","2,1","180,3","23,6","75,1","61,1","0"],
    [11832,"2015-06-07T10:00:00","62","23","35,48","0,6","268,4","25","67,7","183,5","0"],
    [11833,"2015-06-07T11:00:00","65","24","60,05","2,1","93,5","26,6","62,7","282,7","0"],
    [11834,"2015-06-07T12:00:00","50","19","67,47","3,7","57,8","27,7","58,9","378,7","0"],
    [11835,"2015-06-07T13:00:00","32","13","77,38","3,6","89,8","28,3","54,7","280,6","0"],
    [11836,"2015-06-07T14:00:00","29","20","70,21","3,8","96,8","28,9","53,6","197,1","0"],
    [11837,"2015-06-07T15:00:00","38","16","68,64","3,7","101,9","29","53,2","120,9","0"],
    [11838,"2015-06-07T16:00:00","40","15","64,66","3,1","121,8","29","54,6","102,3","0"],
    [11839,"2015-06-07T17:00:00","20","8","49,67","3,2","284,3","28,5","52,1","40,5","0"],
    [11840,"2015-06-07T18:00:00","22","7","34,5","4,4","297,4","28","50,7","8,5","0"],
    [11841,"2015-06-07T19:00:00","43","8","21,21","3,3","302,2","27,7","51,3","0","0"],
    [11842,"2015-06-07T20:00:00","36","25","16,78","1,9","82,9","26,3","59,5","0","0"],
    [11843,"2015-06-07T21:00:00","49","13","14,21","3","87,4","25","66,8","0","0"],
    [11844,"2015-06-07T22:00:00","38","9","14,76","1,7","82,6","24,8","66,6","0","0"],
    [11845,"2015-06-07T23:00:00","31","10","15,31","3","59,9","24,2","70,6","0","0"],
    [11846,"2015-06-08T00:00:00","27","6","14,6","3,3","63,6","23,3","76,6","0","0"],
    [11847,"2015-06-08T01:00:00","18","3","13,64","1,9","51,6","22,6","80,8","0","0"],
    [11848,"2015-06-08T02:00:00","18","3","13,44","1,1","203,2","22,8","79,2","0","0"],
    [11849,"2015-06-08T03:00:00","10","2","15,78","2,1","205,3","22,9","78,6","0","0"],
    [11850,"2015-06-08T04:00:00","12","3","19,47","1,9","185,4","22,9","77,5","0","0"],
    [11851,"2015-06-08T05:00:00","14","6","16,97","1,4","159,4","22,6","80,5","0","0,51"],
    [11852,"2015-06-08T06:00:00","26","4","14,21","1,7","135","22,4","82,3","0","0"],
    [11853,"2015-06-08T07:00:00","29","5","13,25","1,9","170","22,4","82,9","9,3","0"],
    [11854,"2015-06-08T08:00:00","29","6","15,78","1,7","189","22,9","80,5","42,2","0"],
    [11855,"2015-06-08T09:00:00","32","12","23,84","2,8","196,2","24","74,8","135,2","0"],
    [11856,"2015-06-08T10:00:00","27","9","31,67","2,2","200","25,1","70,2","174,7","0"],
    [11857,"2015-06-08T11:00:00","25","6","46,15","2,6","193,6","26,4","63,5","233,2","0"],
    [11858,"2015-06-08T12:00:00","35","8","55,69","1,7","130,6","27,3","59","223,1","0"],
    [11859,"2015-06-08T13:00:00","40","15","74,83","0,9","53,4","27,6","57,5","162,1","0"],
    [11860,"2015-06-08T14:00:00","35","14","66,82","3,6","339,8","26,6","62,4","36,7","17,78"],
    [11861,"2015-06-08T15:00:00","14","9","30","2,4","293,5","22,7","81,5","28,1","39,37"],
    [11862,"2015-06-08T16:00:00","12","7","25,31","2,1","214,1","24","75,7","79,3","0,76"],
    [11863,"2015-06-08T17:00:00","15","11","23,06","0,7","301,8","25,6","66,9","55,9","0"],
    [11864,"2015-06-08T18:00:00","50","12","17,92","1,5","55,4","24,8","74,6","26,8","0"],
    [11865,"2015-06-08T19:00:00","11","8","17,03","4,5","269,4","24,6","64,4","0","0"],
    [11866,"2015-06-08T20:00:00","43","20","21,57","4","241,5","23,7","76,6","0","0"],
    [11867,"2015-06-08T21:00:00","37","8","15,88","2","271,9","24","70,2","0","0"],
    [11868,"2015-06-08T22:00:00","54","24","14,95","2,2","97,3","23,1","79,3","0","0"],
    [11869,"2015-06-08T23:00:00","38","15","14,38","2","123,6","22,6","82,2","0","0"],
    [11870,"2015-06-09T00:00:00","40","13","13,89","2","120,6","22,4","79,2","0","0"],
    [11871,"2015-06-09T01:00:00","18","10","15,25","1,3","135,9","22,4","75,5","0","0"],
    [11872,"2015-06-09T02:00:00","18","7","14,64","1,1","155","22,2","77,8","0","0"],
    [11873,"2015-06-09T03:00:00","16","6","14,89","1,2","140","22,1","79,4","0","0"],
    [11874,"2015-06-09T04:00:00","20","7","17,11","1","165,9","22,2","82,4","0","0"],
    [11875,"2015-06-09T05:00:00","30","8","13,85","1,8","108,6","21,9","82,9","0","0"],
    [11876,"2015-06-09T06:00:00","57","19","13,01","1,8","78,4","21,9","82,5","0","0"],
    [11877,"2015-06-09T07:00:00","42","14","12,89","1,4","82,3","21,6","86,2","9,9","0,25"],
    [11878,"2015-06-09T08:00:00","38","9","13,93","0,5","120,9","22,2","85,8","32,4","0"],
    [11879,"2015-06-09T09:00:00","47","10","15,21","1,2","102,3","22,7","82,9","70,5","0"],
    [11880,"2015-06-09T10:00:00","39","19","27,65","0,9","42,2","23,8","76,8","222,4","0"],
    [11881,"2015-06-09T11:00:00","48","15","59,28","2,2","337,7","25,1","69","226,4","0"],
    [11882,"2015-06-09T12:00:00","42","20","73,55","2,4","66,6","26,6","61,9","284,3","0"],
    [11883,"2015-06-09T13:00:00","39","20","52,2","3,6","70,4","27,3","58","220,4","0"],
    [11884,"2015-06-09T14:00:00","37","9","60,52","3,9","76,7","27,8","56,1","272,6","0"],
    [11885,"2015-06-09T15:00:00","43","11","67,41","4,3","81,5","28,4","53,3","156,5","0"],
    [11886,"2015-06-09T16:00:00","48","15","47,57","4,3","54,8","28,6","53,1","109,1","0"],
    [11887,"2015-06-09T17:00:00","28","9","28,69","5,2","285,7","27,5","55,3","79","0"],
    [11888,"2015-06-09T18:00:00","30","8","22,33","4,4","281,6","27,2","54,7","33,6","0"],
    [11889,"2015-06-09T19:00:00","45","9","16,23","3,1","307,2","26,6","54,8","0","0"],
    [11890,"2015-06-09T20:00:00","89","36","14,03","1,8","78,5","25,8","60,3","0","0"],
    [11891,"2015-06-09T21:00:00","53","20","13,91","0,6","23,8","25,4","62,1","0","0"],
    [11892,"2015-06-09T22:00:00","38","8","13,32","3,6","120,8","24,1","69,4","0","0"],
    [11893,"2015-06-09T23:00:00","24","7","13,09","0,5","138,2","23,3","75,3","0","0"],
    [11894,"2015-06-10T00:00:00","29","11","14,82","4,5","219,3","22,9","80,4","0","0"],
    [11895,"2015-06-10T01:00:00","20","8","19,13","3,9","203,7","22,6","81,7","0","0"],
    [11896,"2015-06-10T02:00:00","30","6","18,82","3","178,6","22,4","83,1","0","0"],
    [11897,"2015-06-10T03:00:00","34","6","15,52","3,2","189,5","22,1","84,9","0","0"],
    [11898,"2015-06-10T04:00:00","36","8","14,11","3,1","205,2","21,9","85,7","0","0"],
    [11899,"2015-06-10T05:00:00","25","6","13,54","2,4","208,4","21,9","84,6","0","0"],
    [11900,"2015-06-10T06:00:00","24","10","13,19","1,9","190,7","22,1","82,6","0","0"],
    [11901,"2015-06-10T07:00:00","67","28","13,42","1,6","136,9","22,1","84,3","4,4","0"],
    [11902,"2015-06-10T08:00:00","46","18","13,23","1,5","115,8","22,2","84,9","23,6","0"],
    [11903,"2015-06-10T09:00:00","36","18","15,35","2,8","86,7","22,4","85,6","75,1","0,25"],
    [11904,"2015-06-10T10:00:00","39","15","20,76","2,5","41","23,2","80,4","110,8","0"],
    [11905,"2015-06-10T11:00:00","46","23","32,81","2","33,7","24,4","74,3","251,9","0"],
    [11906,"2015-06-10T12:00:00","59","32","47,31","3,3","89,2","25,3","68,7","199,5","0"],
    [11907,"2015-06-10T13:00:00","ND","ND","61,19","2,6","61,5","26,1","64,8","234,6","0"],
    [11908,"2015-06-10T14:00:00","ND","ND","78,16","2,2","10","27,2","60,1","369,1","0"],
    [11909,"2015-06-10T15:00:00","ND","ND","ND","ND","ND","ND","ND","ND","ND"],
    [11910,"2015-06-10T16:00:00","ND","ND","ND","ND","ND","ND","ND","ND","ND"],
    [11911,"2015-06-10T17:00:00","ND","ND","ND","ND","ND","ND","ND","ND","ND"],
    [11912,"2015-06-10T18:00:00","ND","ND","ND","ND","ND","ND","ND","ND","ND"],
    [11913,"2015-06-10T19:00:00","ND","ND","ND","ND","ND","ND","ND","ND","ND"],
    [11914,"2015-06-10T20:00:00","ND","ND","ND","ND","ND","ND","ND","ND","ND"],
    [11915,"2015-06-10T21:00:00","ND","ND","ND","ND","ND","ND","ND","ND","ND"],
    [11916,"2015-06-10T22:00:00","ND","ND","ND","ND","ND","ND","ND","ND","ND"],
    [11917,"2015-06-10T23:00:00","ND","ND","ND","ND","ND","ND","ND","ND","ND"],
    [11918,"2015-06-11T00:00:00","ND","ND","ND","ND","ND","ND","ND","ND","ND"],
    [11919,"2015-06-11T01:00:00","ND","ND","ND","ND","ND","ND","ND","ND","ND"],
    [11920,"2015-06-11T02:00:00","ND","ND","ND","ND","ND","ND","ND","ND","ND"],
    [11921,"2015-06-11T03:00:00","ND","ND","ND","ND","ND","ND","ND","ND","ND"],
    [11922,"2015-06-11T04:00:00","ND","ND","ND","ND","ND","ND","ND","ND","ND"],
    [11923,"2015-06-11T05:00:00","ND","ND","ND","ND","ND","ND","ND","ND","ND"],
    [11924,"2015-06-11T06:00:00","ND","ND","ND","ND","ND","ND","ND","ND","ND"],
    [11925,"2015-06-11T07:00:00","ND","ND","ND","ND","ND","ND","ND","ND","ND"],
    [11926,"2015-06-11T08:00:00","ND","ND","ND","ND","ND","ND","ND","ND","ND"],
    [11927,"2015-06-11T09:00:00","ND","ND","ND","ND","ND","ND","ND","ND","ND"],
    [11928,"2015-06-11T10:00:00","ND","ND","ND","ND","ND","ND","ND","ND","ND"],
    [11929,"2015-06-11T11:00:00","ND","ND","ND","ND","ND","ND","ND","ND","ND"],
    [11930,"2015-06-11T12:00:00","ND","ND","ND","ND","ND","ND","ND","ND","ND"],
    [11931,"2015-06-11T13:00:00","ND","ND","ND","ND","ND","ND","ND","ND","ND"],
    [11932,"2015-06-11T14:00:00","ND","ND","ND","ND","ND","ND","ND","ND","ND"],
    [11933,"2015-06-11T15:00:00","ND","ND","ND","ND","ND","ND","ND","ND","ND"],
    [11934,"2015-06-11T16:00:00","ND","ND","ND","ND","ND","ND","ND","ND","ND"],
    [11935,"2015-06-11T17:00:00","ND","ND","ND","ND","ND","ND","ND","ND","ND"],
    [11936,"2015-06-11T18:00:00","ND","ND","ND","ND","ND","ND","ND","ND","ND"],
    [11937,"2015-06-11T19:00:00","ND","ND","ND","ND","ND","ND","ND","ND","ND"],
    [11938,"2015-06-11T20:00:00","ND","ND","ND","ND","ND","ND","ND","ND","ND"],
    [11939,"2015-06-11T21:00:00","ND","ND","ND","ND","ND","ND","ND","ND","ND"],
    [11940,"2015-06-11T22:00:00","ND","ND","ND","ND","ND","ND","ND","ND","ND"],
    [11941,"2015-06-11T23:00:00","ND","ND","ND","ND","ND","ND","ND","ND","ND"],
    [11942,"2015-06-12T00:00:00","ND","ND","ND","ND","ND","ND","ND","ND","ND"],
    [11943,"2015-06-12T01:00:00","ND","ND","ND","ND","ND","ND","ND","ND","ND"],
    [11944,"2015-06-12T02:00:00","ND","ND","ND","ND","ND","ND","ND","ND","ND"],
    [11945,"2015-06-12T03:00:00","ND","ND","ND","ND","ND","ND","ND","ND","ND"],
    [11946,"2015-06-12T04:00:00","ND","ND","ND","ND","ND","ND","ND","ND","ND"],
    [11947,"2015-06-12T05:00:00","ND","ND","ND","ND","ND","ND","ND","ND","ND"],
    [11948,"2015-06-12T06:00:00","ND","ND","ND","ND","ND","ND","ND","ND","ND"],
    [11949,"2015-06-12T07:00:00","ND","ND","ND","ND","ND","ND","ND","ND","ND"],
    [11950,"2015-06-12T08:00:00","ND","ND","ND","ND","ND","ND","ND","ND","ND"],
    [11951,"2015-06-12T09:00:00","ND","ND","ND","ND","ND","ND","ND","ND","ND"],
    [11952,"2015-06-12T10:00:00","ND","ND","ND","ND","ND","ND","ND","ND","ND"],
    [11953,"2015-06-12T11:00:00","ND","ND","ND","ND","ND","ND","ND","ND","ND"],
    [11954,"2015-06-12T12:00:00","ND","ND","ND","ND","ND","ND","ND","ND","ND"],
    [11955,"2015-06-12T13:00:00","ND","ND","ND","ND","ND","ND","ND","ND","ND"],
    [11956,"2015-06-12T14:00:00","ND","ND","ND","ND","ND","ND","ND","ND","ND"],
    [11957,"2015-06-12T15:00:00","ND","ND","ND","ND","ND","ND","ND","ND","ND"],
    [11958,"2015-06-12T16:00:00","ND","ND","ND","ND","ND","ND","ND","ND","ND"],
    [11959,"2015-06-12T17:00:00","ND","ND","ND","ND","ND","ND","ND","ND","ND"],
    [11960,"2015-06-12T18:00:00","ND","ND","ND","ND","ND","ND","ND","ND","ND"],
    [11961,"2015-06-12T19:00:00","ND","ND","ND","ND","ND","ND","ND","ND","ND"],
    [11962,"2015-06-12T20:00:00","ND","ND","ND","ND","ND","ND","ND","ND","ND"],
    [11963,"2015-06-12T21:00:00","ND","ND","ND","ND","ND","ND","ND","ND","ND"],
    [11964,"2015-06-12T22:00:00","ND","ND","ND","ND","ND","ND","ND","ND","ND"],
    [11965,"2015-06-12T23:00:00","ND","ND","ND","ND","ND","ND","ND","ND","ND"],
    [11966,"2015-06-13T00:00:00","ND","ND","ND","ND","ND","ND","ND","ND","ND"],
    [11967,"2015-06-13T01:00:00","ND","ND","ND","ND","ND","ND","ND","ND","ND"],
    [11968,"2015-06-13T02:00:00","ND","ND","ND","ND","ND","ND","ND","ND","ND"],
    [11969,"2015-06-13T03:00:00","ND","ND","ND","ND","ND","ND","ND","ND","ND"],
    [11970,"2015-06-13T04:00:00","ND","ND","ND","ND","ND","ND","ND","ND","ND"],
    [11971,"2015-06-13T05:00:00","ND","ND","ND","ND","ND","ND","ND","ND","ND"],
    [11972,"2015-06-13T06:00:00","ND","ND","ND","ND","ND","ND","ND","ND","ND"],
    [11973,"2015-06-13T07:00:00","ND","ND","ND","ND","ND","ND","ND","ND","ND"],
    [11974,"2015-06-13T08:00:00","ND","ND","ND","ND","ND","ND","ND","ND","ND"],
    [11975,"2015-06-13T09:00:00","ND","ND","ND","ND","ND","ND","ND","ND","ND"],
    [11976,"2015-06-13T10:00:00","ND","ND","ND","ND","ND","ND","ND","ND","ND"],
    [11977,"2015-06-13T11:00:00","ND","ND","ND","ND","ND","ND","ND","ND","ND"],
    [11978,"2015-06-13T12:00:00","ND","ND","ND","ND","ND","ND","ND","ND","ND"],
    [11979,"2015-06-13T13:00:00","ND","ND","ND","ND","ND","ND","ND","ND","ND"],
    [11980,"2015-06-13T14:00:00","ND","ND","ND","ND","ND","ND","ND","ND","ND"],
    [11981,"2015-06-13T15:00:00","ND","ND","ND","ND","ND","ND","ND","ND","ND"],
    [11982,"2015-06-13T16:00:00","ND","ND","ND","ND","ND","ND","ND","ND","ND"],
    [11983,"2015-06-13T17:00:00","ND","ND","ND","ND","ND","ND","ND","ND","ND"],
    [11984,"2015-06-13T18:00:00","ND","ND","ND","ND","ND","ND","ND","ND","ND"],
    [11985,"2015-06-13T19:00:00","ND","ND","ND","ND","ND","ND","ND","ND","ND"],
    [11986,"2015-06-13T20:00:00","ND","ND","ND","ND","ND","ND","ND","ND","ND"],
    [11987,"2015-06-13T21:00:00","ND","ND","ND","ND","ND","ND","ND","ND","ND"],
    [11988,"2015-06-13T22:00:00","ND","ND","ND","ND","ND","ND","ND","ND","ND"],
    [11989,"2015-06-13T23:00:00","ND","ND","ND","ND","ND","ND","ND","ND","ND"],
    [11990,"2015-06-14T00:00:00","ND","ND","ND","ND","ND","ND","ND","ND","ND"],
    [11991,"2015-06-14T01:00:00","ND","ND","ND","ND","ND","ND","ND","ND","ND"],
    [11992,"2015-06-14T02:00:00","ND","ND","ND","ND","ND","ND","ND","ND","ND"],
    [11993,"2015-06-14T03:00:00","ND","ND","ND","ND","ND","ND","ND","ND","ND"],
    [11994,"2015-06-14T04:00:00","ND","ND","ND","ND","ND","ND","ND","ND","ND"],
    [11995,"2015-06-14T05:00:00","ND","ND","ND","ND","ND","ND","ND","ND","ND"],
    [11996,"2015-06-14T06:00:00","ND","ND","ND","ND","ND","ND","ND","ND","ND"],
    [11997,"2015-06-14T07:00:00","ND","ND","ND","ND","ND","ND","ND","ND","ND"],
    [11998,"2015-06-14T08:00:00","ND","ND","ND","ND","ND","ND","ND","ND","ND"],
    [11999,"2015-06-14T09:00:00","ND","ND","ND","ND","ND","ND","ND","ND","ND"],
    [12000,"2015-06-14T10:00:00","ND","ND","ND","ND","ND","ND","ND","ND","ND"],
    [12001,"2015-06-14T11:00:00","ND","ND","ND","ND","ND","ND","ND","ND","ND"],
    [12002,"2015-06-14T12:00:00","ND","ND","ND","ND","ND","ND","ND","ND","ND"],
    [12003,"2015-06-14T13:00:00","ND","ND","ND","ND","ND","ND","ND","ND","ND"],
    [12004,"2015-06-14T14:00:00","ND","ND","ND","ND","ND","ND","ND","ND","ND"],
    [12005,"2015-06-14T15:00:00","ND","ND","ND","ND","ND","ND","ND","ND","ND"],
    [12006,"2015-06-14T16:00:00","ND","ND","ND","ND","ND","ND","ND","ND","ND"],
    [12007,"2015-06-14T17:00:00","ND","ND","ND","ND","ND","ND","ND","ND","ND"],
    [12008,"2015-06-14T18:00:00","ND","ND","ND","ND","ND","ND","ND","ND","ND"],
    [12009,"2015-06-14T19:00:00","ND","ND","ND","ND","ND","ND","ND","ND","ND"],
    [12010,"2015-06-14T20:00:00","ND","ND","ND","ND","ND","ND","ND","ND","ND"],
    [12011,"2015-06-14T21:00:00","ND","ND","ND","ND","ND","ND","ND","ND","ND"],
    [12012,"2015-06-14T22:00:00","ND","ND","ND","ND","ND","ND","ND","ND","ND"],
    [12013,"2015-06-14T23:00:00","ND","ND","ND","ND","ND","ND","ND","ND","ND"],
    [12014,"2015-06-15T00:00:00","ND","ND","ND","ND","ND","ND","ND","ND","ND"],
    [12015,"2015-06-15T01:00:00","ND","ND","ND","ND","ND","ND","ND","ND","ND"],
    [12016,"2015-06-15T02:00:00","ND","ND","ND","ND","ND","ND","ND","ND","ND"],
    [12017,"2015-06-15T03:00:00","ND","ND","ND","ND","ND","ND","ND","ND","ND"],
    [12018,"2015-06-15T04:00:00","ND","ND","ND","ND","ND","ND","ND","ND","ND"],
    [12019,"2015-06-15T05:00:00","ND","ND","ND","ND","ND","ND","ND","ND","ND"],
    [12020,"2015-06-15T06:00:00","ND","ND","ND","ND","ND","ND","ND","ND","ND"],
    [12021,"2015-06-15T07:00:00","ND","ND","ND","ND","ND","ND","ND","ND","ND"],
    [12022,"2015-06-15T08:00:00","ND","ND","ND","ND","ND","ND","ND","ND","ND"],
    [12023,"2015-06-15T09:00:00","ND","ND","ND","ND","ND","ND","ND","ND","ND"],
    [12024,"2015-06-15T10:00:00","ND","ND","ND","ND","ND","ND","ND","ND","ND"],
    [12025,"2015-06-15T11:00:00","ND","ND","ND","ND","ND","ND","ND","ND","ND"],
    [12026,"2015-06-15T12:00:00","ND","ND","ND","ND","ND","ND","ND","ND","ND"],
    [12027,"2015-06-15T13:00:00","ND","ND","ND","ND","ND","ND","ND","ND","ND"],
    [12028,"2015-06-15T14:00:00","ND","ND","ND","ND","ND","ND","ND","ND","ND"],
    [12029,"2015-06-15T15:00:00","ND","ND","ND","ND","ND","ND","ND","ND","ND"],
    [12030,"2015-06-15T16:00:00","ND","ND","ND","ND","ND","ND","ND","ND","ND"],
    [12031,"2015-06-15T17:00:00","ND","ND","ND","ND","ND","ND","ND","ND","ND"],
    [12032,"2015-06-15T18:00:00","ND","ND","ND","ND","ND","ND","ND","ND","ND"],
    [12033,"2015-06-15T19:00:00","ND","ND","ND","ND","ND","ND","ND","ND","ND"],
    [12034,"2015-06-15T20:00:00","ND","ND","ND","ND","ND","ND","ND","ND","ND"],
    [12035,"2015-06-15T21:00:00","ND","ND","ND","ND","ND","ND","ND","ND","ND"],
    [12036,"2015-06-15T22:00:00","ND","ND","ND","ND","ND","ND","ND","ND","ND"],
    [12037,"2015-06-15T23:00:00","ND","ND","ND","ND","ND","ND","ND","ND","ND"],
    [12038,"2015-06-16T00:00:00","ND","ND","ND","ND","ND","ND","ND","ND","ND"],
    [12039,"2015-06-16T01:00:00","ND","ND","ND","ND","ND","ND","ND","ND","ND"],
    [12040,"2015-06-16T02:00:00","ND","ND","ND","ND","ND","ND","ND","ND","ND"],
    [12041,"2015-06-16T03:00:00","ND","ND","ND","ND","ND","ND","ND","ND","ND"],
    [12042,"2015-06-16T04:00:00","ND","ND","ND","ND","ND","ND","ND","ND","ND"],
    [12043,"2015-06-16T05:00:00","ND","ND","ND","ND","ND","ND","ND","ND","ND"],
    [12044,"2015-06-16T06:00:00","ND","ND","ND","ND","ND","ND","ND","ND","ND"],
    [12045,"2015-06-16T07:00:00","ND","ND","ND","ND","ND","ND","ND","ND","ND"],
    [12046,"2015-06-16T08:00:00","ND","ND","ND","ND","ND","ND","ND","ND","ND"],
    [12047,"2015-06-16T09:00:00","ND","ND","ND","ND","ND","ND","ND","ND","ND"],
    [12048,"2015-06-16T10:00:00","ND","ND","ND","ND","ND","ND","ND","ND","ND"],
    [12049,"2015-06-16T11:00:00","ND","ND","ND","ND","ND","ND","ND","ND","ND"],
    [12050,"2015-06-16T12:00:00","ND","ND","ND","ND","ND","ND","ND","ND","ND"],
    [12051,"2015-06-16T13:00:00","ND","ND","ND","ND","ND","ND","ND","ND","ND"],
    [12052,"2015-06-16T14:00:00","ND","ND","ND","ND","ND","ND","ND","ND","ND"],
    [12053,"2015-06-16T15:00:00","ND","ND","ND","ND","ND","ND","ND","ND","ND"],
    [12054,"2015-06-16T16:00:00","ND","ND","ND","ND","ND","ND","ND","ND","ND"],
    [12055,"2015-06-16T17:00:00","ND","ND","ND","ND","ND","ND","ND","ND","ND"],
    [12056,"2015-06-16T18:00:00","ND","ND","ND","ND","ND","ND","ND","ND","ND"],
    [12057,"2015-06-16T19:00:00","ND","ND","ND","ND","ND","ND","ND","ND","ND"],
    [12058,"2015-06-16T20:00:00","ND","ND","ND","ND","ND","ND","ND","ND","ND"],
    [12059,"2015-06-16T21:00:00","ND","ND","ND","ND","ND","ND","ND","ND","ND"],
    [12060,"2015-06-16T22:00:00","ND","ND","ND","ND","ND","ND","ND","ND","ND"],
    [12061,"2015-06-16T23:00:00","ND","ND","ND","ND","ND","ND","ND","ND","ND"],
    [12062,"2015-06-17T00:00:00","ND","ND","ND","ND","ND","ND","ND","ND","ND"],
    [12063,"2015-06-17T01:00:00","ND","ND","ND","ND","ND","ND","ND","ND","ND"],
    [12064,"2015-06-17T02:00:00","ND","ND","ND","ND","ND","ND","ND","ND","ND"],
    [12065,"2015-06-17T03:00:00","ND","ND","ND","ND","ND","ND","ND","ND","ND"],
    [12066,"2015-06-17T04:00:00","ND","ND","ND","ND","ND","ND","ND","ND","ND"],
    [12067,"2015-06-17T05:00:00","ND","ND","ND","ND","ND","ND","ND","ND","ND"],
    [12068,"2015-06-17T06:00:00","ND","ND","ND","ND","ND","ND","ND","ND","ND"],
    [12069,"2015-06-17T07:00:00","ND","ND","ND","ND","ND","ND","ND","ND","ND"],
    [12070,"2015-06-17T08:00:00","ND","ND","ND","ND","ND","ND","ND","ND","ND"],
    [12071,"2015-06-17T09:00:00","ND","ND","ND","ND","ND","ND","ND","ND","ND"],
    [12072,"2015-06-17T10:00:00","ND","ND","ND","2,2","80,5","26,4","66,6","232,4","0"],
    [12073,"2015-06-17T11:00:00","47","11","58,89","3","40,8","28,1","58","354,9","0"],
    [12074,"2015-06-17T12:00:00","40","12","65,39","4,7","63,3","29,9","50,5","347","0"],
    [12075,"2015-06-17T13:00:00","38","15","64,86","4,2","64,1","30,3","48,8","232,6","0"],
    [12076,"2015-06-17T14:00:00","40","4","86,19","3,3","3,9","31,1","46,2","316,5","0"],
    [12077,"2015-06-17T15:00:00","43","16","82,36","5","63,2","31,5","43,7","253,7","0"],
    [12078,"2015-06-17T16:00:00","40","11","81,36","3,5","45,3","32,2","38,5","194,2","0"],
    [12079,"2015-06-17T17:00:00","52","8","51,02","3,7","58,1","32,5","38,2","123","0"],
    [12080,"2015-06-17T18:00:00","28","14","52,38","1","308,9","31,7","38,5","41,2","0"],
    [12081,"2015-06-17T19:00:00","87","14","20,39","2,8","354,1","29,8","47,3","0","0"],
    [12082,"2015-06-17T20:00:00","52","19","18,15","1,5","341,4","28,5","51,1","0","0"],
    [12083,"2015-06-17T21:00:00","47","22","14,97","3,5","80,1","25,8","66,1","0","0"],
    [12084,"2015-06-17T22:00:00","74","26","15,42","2,2","88,9","25,1","68,9","0","0"],
    [12085,"2015-06-17T23:00:00","40","10","17,48","3,2","89,7","25,1","67,7","0","0"],
    [12086,"2015-06-18T00:00:00","61","13","14,42","2,1","200,7","24,2","72","0","0"],
    [12087,"2015-06-18T01:00:00","59","25","12,66","2,1","184,5","24,1","73,4","0","0"],
    [12088,"2015-06-18T02:00:00","52","18","12,54","1","113,6","23,2","77,7","0","0"],
    [12089,"2015-06-18T03:00:00","50","25","13,4","1","36,7","23","78,1","0","0"],
    [12090,"2015-06-18T04:00:00","59","27","13,07","1,7","121,9","23,3","76,9","0","0"],
    [12091,"2015-06-18T05:00:00","67","32","12,99","2,3","171,3","22,5","79,6","0","0"],
    [12092,"2015-06-18T06:00:00","75","18","12,3","2,2","195,9","21,9","80,7","0","0"],
    [12093,"2015-06-18T07:00:00","92","32","12,99","1,2","153,6","21,6","81,7","14,1","0"],
    [12094,"2015-06-18T08:00:00","100","27","14,33","1,6","180","22,7","77","72,9","0"],
    [12095,"2015-06-18T09:00:00","80","21","17,86","3,7","104,2","23,9","73,7","140,4","0"],
    [12096,"2015-06-18T10:00:00","83","31","37,64","3,8","95,6","25,8","63,5","187,4","0"],
    [12097,"2015-06-18T11:00:00","41","22","77,85","1,1","355","27,4","57","333,5","0"],
    [12098,"2015-06-18T12:00:00","42","7","75,71","3,1","93,7","28,8","53","301,4","0"],
    [12099,"2015-06-18T13:00:00","41","14","73,9","3,5","91,1","29,9","49","327,9","0"],
    [12100,"2015-06-18T14:00:00","48","15","89,03","4,4","73,2","30,5","47,4","328,9","0"],
    [12101,"2015-06-18T15:00:00","55","23","112,15","4,4","63","31,2","44","296,1","0"],
    [12102,"2015-06-18T16:00:00","55","13","114,48","4,8","65,1","31,7","42,4","250","0"],
    [12103,"2015-06-18T17:00:00","73","12","95,04","4,7","77,4","31,8","42,5","140,8","0"],
    [12104,"2015-06-18T18:00:00","79","25","62,66","4,1","68,4","31,2","45,3","25,6","0"],
    [12105,"2015-06-18T19:00:00","97","32","33,85","2,2","94,1","30,1","50","0","0"],
    [12106,"2015-06-18T20:00:00","59","12","35,2","3,4","291,4","29,2","52,8","0","0"],
    [12107,"2015-06-18T21:00:00","77","31","23,29","1,3","44,7","28","57,9","0","0"],
    [12108,"2015-06-18T22:00:00","49","15","16,5","3,1","101,3","26,2","67,2","0","0"],
    [12109,"2015-06-18T23:00:00","49","19","17,64","2","61,5","26,2","66,6","0","0"],
    [12110,"2015-06-19T00:00:00","34","11","24,02","2,2","39,8","26,1","65,8","0","0"],
    [12111,"2015-06-19T01:00:00","38","11","20,8","1,7","220,8","25,6","68,2","0","0"],
    [12112,"2015-06-19T02:00:00","82","24","22,98","2,2","182","24,9","72,5","0","0"],
    [12113,"2015-06-19T03:00:00","71","26","19,09","1,8","164,9","24,3","74,8","0","0"],
    [12114,"2015-06-19T04:00:00","68","29","19,62","1,8","180,4","24,2","74,7","0","0"],
    [12115,"2015-06-19T05:00:00","74","24","15,07","2","132","23,5","76,8","0","0"],
    [12116,"2015-06-19T06:00:00","85","22","12,72","1,9","100,8","22,7","74,7","0","0"],
    [12117,"2015-06-19T07:00:00","84","28","14,13","1,6","149,1","23","68,9","14,7","0"],
    [12118,"2015-06-19T08:00:00","66","21","18,9","1,2","151,5","24,1","63,4","96,6","0"],
    [12119,"2015-06-19T09:00:00","61","19","31,06","2","115,2","26,1","57,6","155","0"],
    [12120,"2015-06-19T10:00:00","46","11","48,16","2,5","121,4","27,6","50,6","160,4","0"],
    [12121,"2015-06-19T11:00:00","53","18","63,64","3,7","87,5","28,7","49,4","256,6","0"],
    [12122,"2015-06-19T12:00:00","43","18","81,12","3,1","77,5","29,5","46,5","266,5","0"],
    [12123,"2015-06-19T13:00:00","44","13","92,39","3,7","71,8","31,8","40,1","437,8","0"],
    [12124,"2015-06-19T14:00:00","38","8","98,39","3,2","66,3","33","34,4","376","0"],
    [12125,"2015-06-19T15:00:00","28","11","86,46","4,3","110,1","32,7","34,2","142,2","0"],
    [12126,"2015-06-19T16:00:00","43","13","73,1","2,9","117,7","32,5","35,3","76,9","0"],
    [12127,"2015-06-19T17:00:00","105","23","87,88","5,4","208,5","31","42,7","39,4","0"],
    [12128,"2015-06-19T18:00:00","80","27","79,57","4,4","221,6","30,4","44,7","16,8","0"],
    [12129,"2015-06-19T19:00:00","57","14","41,29","4,4","277,5","29,7","47,4","0","0"],
    [12130,"2015-06-19T20:00:00","54","11","30,53","4,1","280,3","29","49,1","0","0"],
    [12131,"2015-06-19T21:00:00","82","18","23,14","1,7","66,5","28","55,1","0","0"],
    [12132,"2015-06-19T22:00:00","82","22","15,72","1","114,5","26,4","64,2","0","0"],
    [12133,"2015-06-19T23:00:00","82","37","15,48","1,4","117,2","27","60,9","0","0"],
    [12134,"2015-06-20T00:00:00","50","8","17,25","2,6","87","25,9","66,6","0","0"],
    [12135,"2015-06-20T01:00:00","27","5","18,58","1,4","92,5","25,7","67,3","0","0"],
    [12136,"2015-06-20T02:00:00","33","15","16,11","1,3","161,4","25,6","68,2","0","0"],
    [12137,"2015-06-20T03:00:00","57","30","14,38","1,6","201,8","25,1","70,1","0","0"],
    [12138,"2015-06-20T04:00:00","55","16","15,62","1,7","147,5","24,5","66,8","0","0"],
    [12139,"2015-06-20T05:00:00","56","22","14,17","1,5","160,2","24,1","67,5","0","0"],
    [12140,"2015-06-20T06:00:00","91","45","13,42","1,3","109,7","23","71,9","0","0"],
    [12141,"2015-06-20T07:00:00","91","51","15,95","2,4","169,2","22,6","71,8","16,7","0"],
    [12142,"2015-06-20T08:00:00","58","16","18,09","2","147,7","23,9","64,2","101,9","0"],
    [12143,"2015-06-20T09:00:00","68","17","38,29","0,8","114,6","26,3","56,1","240,9","0"],
    [12144,"2015-06-20T10:00:00","76","26","66,49","2","122,2","28,1","51,7","302,8","0"],
    [12145,"2015-06-20T11:00:00","42","13","78,81","3","95,9","29,5","44,5","401,6","0"],
    [12146,"2015-06-20T12:00:00","30","12","79,69","1,8","181,9","31","38","394,2","0"],
    [12147,"2015-06-20T13:00:00","40","15","78,99","3,2","92,8","31,8","36","384,6","0"],
    [12148,"2015-06-20T14:00:00","25","8","80,54","3,3","118","33","32,2","371,2","0"],
    [12149,"2015-06-20T15:00:00","33","5","78,51","4,7","108,9","33,5","31,8","289,1","0"],
    [12150,"2015-06-20T16:00:00","45","10","81,44","4","85,9","33,5","32,8","163,2","0"],
    [12151,"2015-06-20T17:00:00","60","18","86,58","3,6","336,5","32,4","39,1","43,7","0"],
    [12152,"2015-06-20T18:00:00","63","13","53,65","4,2","320,1","30,5","43,9","15,1","0"],
    [12153,"2015-06-20T19:00:00","47","11","35,42","4,1","297,4","29,6","45,9","0","0"],
    [12154,"2015-06-20T20:00:00","43","7","33,52","5,2","296,7","28,6","50","0","0"],
    [12155,"2015-06-20T21:00:00","61","16","19,07","3,6","89,9","26,3","61,7","0","0"],
    [12156,"2015-06-20T22:00:00","48","18","19,58","2","64,3","25,4","66,6","0","0"],
    [12157,"2015-06-20T23:00:00","55","13","19,29","3,9","92","25,2","67,2","0","0"],
    [12158,"2015-06-21T00:00:00","51","9","17,43","3,1","95,9","24,5","69,8","0","0"],
    [12159,"2015-06-21T01:00:00","42","5","18,39","3,4","74,5","24,1","70,7","0","0"],
    [12160,"2015-06-21T02:00:00","30","3","20,59","2,4","76,5","23,8","71,6","0","0"],
    [12161,"2015-06-21T03:00:00","36","3","18,17","2,4","87,5","23","74,5","0","0"],
    [12162,"2015-06-21T04:00:00","25","7","19,11","1,2","194,9","23,1","73,8","0","0"],
    [12163,"2015-06-21T05:00:00","30","5","14,87","0,9","162,2","23,5","72","0","0"],
    [12164,"2015-06-21T06:00:00","51","16","12,72","2,1","120,4","22,9","76,3","0","0"],
    [12165,"2015-06-21T07:00:00","51","24","13,91","1,3","183,7","22,9","77,1","11,6","0"],
    [12166,"2015-06-21T08:00:00","58","25","17,64","1,9","110,7","23,4","75,2","60,7","0"],
    [12167,"2015-06-21T09:00:00","55","21","27,98","2,8","120,6","24,2","71,9","138,5","0"],
    [12168,"2015-06-21T10:00:00","64","26","43","2,2","100,8","26,1","62,8","208,9","0"],
    [12169,"2015-06-21T11:00:00","48","13","68,55","3,1","62,5","27,5","57,6","274,7","0"],
    [12170,"2015-06-21T12:00:00","31","18","75,26","3,1","57,7","29,1","51,8","381,4","0"],
    [12171,"2015-06-21T13:00:00","29","3","86,21","2,8","59,8","30,3","46,6","429,1","0"],
    [12172,"2015-06-21T14:00:00","41","9","86,31","3,2","77,3","31,7","41,7","395","0"],
    [12173,"2015-06-21T15:00:00","31","16","99,12","4","81,1","32,2","40,1","306,7","0"],
    [12174,"2015-06-21T16:00:00","31","11","89,8","3,1","333,7","32,2","40,4","160,4","0"],
    [12175,"2015-06-21T17:00:00","37","8","58,71","6","287","31,1","42,2","76,6","0"],
    [12176,"2015-06-21T18:00:00","37","9","51,3","5,9","285,8","30,1","44,5","10,7","0"],
    [12177,"2015-06-21T19:00:00","31","9","43,96","5,1","279,4","29","48,5","0","0"],
    [12178,"2015-06-21T20:00:00","35","7","35,05","5,5","300","28","52,3","0","0"],
    [12179,"2015-06-21T21:00:00","53","14","18,35","3,3","65,3","27","59","0","0"],
    [12180,"2015-06-21T22:00:00","38","12","14,64","2","103,2","26,3","63,7","0","0"],
    [12181,"2015-06-21T23:00:00","38","7","15,6","2,6","119,3","25,7","67,2","0","1,02"],
    [12182,"2015-06-22T00:00:00","14","6","17,41","2,6","0,1","23,8","79,4","0","1,52"],
    [12183,"2015-06-22T01:00:00","13","4","20,76","3,3","350,3","23,3","77,8","0","0"],
    [12184,"2015-06-22T02:00:00","29","3","14,54","2,7","110,3","22,4","80,5","0","0"],
    [12185,"2015-06-22T03:00:00","33","18","14,66","1","127,3","22,4","80,3","0","0"],
    [12186,"2015-06-22T04:00:00","21","5","14,01","0,7","10","22,7","78,8","0","0"],
    [12187,"2015-06-22T05:00:00","37","17","12,79","2,3","115,9","22,1","81,4","0","0"],
    [12188,"2015-06-22T06:00:00","52","14","12,21","2,6","137,8","21,6","83,4","0","0"],
    [12189,"2015-06-22T07:00:00","38","11","13,09","2,1","229,4","22","83,7","12,2","0"],
    [12190,"2015-06-22T08:00:00","45","11","16,17","2,5","131,9","23,1","78,9","112,5","0"],
    [12191,"2015-06-22T09:00:00","37","8","27","1,8","149,9","24,8","71,4","221,2","0"],
    [12192,"2015-06-22T10:00:00","34","9","48,75","2,3","165,6","26,4","63,6","308,7","0"],
    [12193,"2015-06-22T11:00:00","40","28","68,31","2,4","179,7","27,9","58,5","344,1","0"],
    [12194,"2015-06-22T12:00:00","38","8","72,49","2,1","113,1","29,6","50,6","406,2","0"],
    [12195,"2015-06-22T13:00:00","36","9","71,29","2,3","114,9","30,3","44,7","270,9","0"],
    [12196,"2015-06-22T14:00:00","26","9","61,54","3,6","97,7","30,7","42,2","221,4","0"],
    [12197,"2015-06-22T15:00:00","17","4","65,48","3,5","87,5","31,5","38,6","317,6","0"],
    [12198,"2015-06-22T16:00:00","25","4","66,74","4,5","78,7","32,2","37,4","229,1","0"],
    [12199,"2015-06-22T17:00:00","28","8","61,72","3,7","85,4","32,3","36,8","129,9","0"],
    [12200,"2015-06-22T18:00:00","44","10","52,08","3,8","60,9","32,2","36,9","50,9","0"],
    [12201,"2015-06-22T19:00:00","78","20","35,77","2,5","30","31,4","39,6","0","0"],
    [12202,"2015-06-22T20:00:00","97","27","24,22","1,6","325,1","30,5","44,5","0","0"],
    [12203,"2015-06-22T21:00:00","93","33","16,99","0,8","103","29,3","51,5","0","0"],
    [12204,"2015-06-22T22:00:00","55","17","20,02","2,7","117","28,2","55","0","0"],
    [12205,"2015-06-22T23:00:00","70","17","15,91","2,2","193","27","57,8","0","0"],
    [12206,"2015-06-23T00:00:00","83","36","17,8","2,3","127,3","26,6","58,6","0","0"],
    [12207,"2015-06-23T01:00:00","93","48","20,25","0,4","225,7","26,1","62,1","0","0"],
    [12208,"2015-06-23T02:00:00","63","25","18,76","1,6","36,9","25,9","66","0","0"],
    [12209,"2015-06-23T03:00:00","51","19","16,43","2","348,6","25,3","68,7","0","0"],
    [12210,"2015-06-23T04:00:00","67","20","14,66","1,3","68","25","69,8","0","0"],
    [12211,"2015-06-23T05:00:00","106","49","15,15","1,7","158,4","23,7","74,2","0","0"],
    [12212,"2015-06-23T06:00:00","163","ND","16,72","1,4","144,5","23,7","72,6","0","0"],
    [12213,"2015-06-23T07:00:00","110","41","13,29","2,5","169,9","22,9","74,4","8,7","0"],
    [12214,"2015-06-23T08:00:00","97","31","16,6","1,9","211,4","23,7","68,6","81","0"],
    [12215,"2015-06-23T09:00:00","74","29","36,97","1,7","43,8","26,5","60,2","222,8","0"],
    [12216,"2015-06-23T10:00:00","45","16","49,59","3,6","82,8","27,8","55","277","0"],
    [12217,"2015-06-23T11:00:00","54","15","72,33","4,3","94,4","29,3","45,5","397,2","0"],
    [12218,"2015-06-23T12:00:00","46","17","106,93","2,8","102,1","30,8","40,6","408,9","0"],
    [12219,"2015-06-23T13:00:00","57","19","118,12","2,7","85,9","32,4","37,2","453,8","0"],
    [12220,"2015-06-23T14:00:00","49","16","110,17","3,2","81,7","33,1","34,6","281,7","0"],
    [12221,"2015-06-23T15:00:00","55","19","107,87","4,1","101,4","33,6","34,1","272,9","0"],
    [12222,"2015-06-23T16:00:00","58","20","103,81","4,6","89,7","33,8","33,9","260,5","0"],
    [12223,"2015-06-23T17:00:00","95","41","80,73","4,6","94,7","33,5","35,2","85,2","0"],
    [12224,"2015-06-23T18:00:00","84","29","71,9","4,1","90,4","33,1","35,5","41,5","0"],
    [12225,"2015-06-23T19:00:00","108","29","41,76","1,7","11,7","31,8","42,4","0","0"],
    [12226,"2015-06-23T20:00:00","73","20","30,4","4","289,7","30,6","43,1","0","0"],
    [12227,"2015-06-23T21:00:00","71","24","22,43","1,2","1,4","29,1","50,8","0","0"],
    [12228,"2015-06-23T22:00:00","57","20","17,58","2,8","104,2","26,6","66,3","0","0"],
    [12229,"2015-06-23T23:00:00","46","10","20,13","3,5","106,9","26,1","68,4","0","0"],
    [12230,"2015-06-24T00:00:00","36","11","27,45","3","64,9","26,2","66,3","0","0"],
    [12231,"2015-06-24T01:00:00","39","8","24,02","2,8","70,1","25,3","69,8","0","0"],
    [12232,"2015-06-24T02:00:00","42","11","22,14","1,3","47,1","24,6","73,2","0","0"],
    [12233,"2015-06-24T03:00:00","54","14","15,97","2","161,2","24,5","73,5","0","0"],
    [12234,"2015-06-24T04:00:00","80","25","15,95","3","198,3","23,3","75","0","0"],
    [12235,"2015-06-24T05:00:00","62","13","14,54","1,3","159,2","23,2","72","0","0"],
    [12236,"2015-06-24T06:00:00","69","22","12,78","2,4","178,3","22,2","75,2","0","0"],
    [12237,"2015-06-24T07:00:00","88","21","13,64","1,5","199,6","22,4","73,2","20,5","0"],
    [12238,"2015-06-24T08:00:00","114","38","15,78","2,4","101,4","23,8","69,6","109,2","0"],
    [12239,"2015-06-24T09:00:00","88","25","33,71","2,9","86","25,8","62,8","205,4","0"],
    [12240,"2015-06-24T10:00:00","70","25","61,76","2,6","89,2","27,8","55,5","300,6","0"],
    [12241,"2015-06-24T11:00:00","32","6","84,97","2,7","89,3","29,8","44,7","366,5","0"],
    [12242,"2015-06-24T12:00:00","46","8","93,31","2,4","78,1","31,3","39,6","405,1","0"],
    [12243,"2015-06-24T13:00:00","41","10","101,57","2,5","56","33,2","33,7","420,9","0"],
    [12244,"2015-06-24T14:00:00","ND","ND","ND","3,5","71,2","34,7","26","398,8","0"],
    [12245,"2015-06-24T15:00:00","32","2","73,73","2,4","82,4","35,7","23,1","333,4","0"],
    [12246,"2015-06-24T16:00:00","27","3","75,63","3,6","77,3","35,7","22,8","248,8","0"],
    [12247,"2015-06-24T17:00:00","38","7","60,34","3,2","122,7","36,1","21,7","144,4","0"],
    [12248,"2015-06-24T18:00:00","46","8","37,05","2,6","159,9","34,7","23,1","18,3","0"],
    [12249,"2015-06-24T19:00:00","47","5","28,08","2,6","235,1","32,8","29,4","0","0"],
    [12250,"2015-06-24T20:00:00","56","11","25,16","4,3","283,5","30,6","41,5","0","0"],
    [12251,"2015-06-24T21:00:00","55","17","22,74","1,2","333,6","29,1","47,2","0","0"],
    [12252,"2015-06-24T22:00:00","64","12","16,95","4,3","76,1","25,5","67","0","0"],
    [12253,"2015-06-24T23:00:00","38","11","18,98","2,1","43,1","24,8","71,2","0","0"],
    [12254,"2015-06-25T00:00:00","40","11","19,86","0,9","66,2","25,2","68,6","0","0"],
    [12255,"2015-06-25T01:00:00","31","11","17,03","3,3","86,3","24,4","70,1","0","0"],
    [12256,"2015-06-25T02:00:00","32","7","19,05","1,4","38,4","23,5","74,2","0","0"],
    [12257,"2015-06-25T03:00:00","47","9","16,21","1,1","149,3","23,7","73,6","0","0"],
    [12258,"2015-06-25T04:00:00","44","14","13,78","2,4","203,2","22,8","75,8","0","0"],
    [12259,"2015-06-25T05:00:00","59","16","12,52","2,5","168,4","21,8","77,8","0","0"],
    [12260,"2015-06-25T06:00:00","73","15","12,38","2,1","153,6","21,4","77,1","0","0"],
    [12261,"2015-06-25T07:00:00","105","30","13,6","1,5","146,9","20,7","74,3","13,6","0"],
    [12262,"2015-06-25T08:00:00","141","39","15,4","2","100,2","21,8","68,8","76,7","0"],
    [12263,"2015-06-25T09:00:00","111","37","19,86","2,3","58,3","23,8","67,9","123,5","0"],
    [12264,"2015-06-25T10:00:00","77","27","35,6","2,6","87,6","25,5","61,6","179,8","0"],
    [12265,"2015-06-25T11:00:00","53","14","50,45","3,3","49,8","27,6","56,4","329,9","0"],
    [12266,"2015-06-25T12:00:00","38","12","59,93","5","87,9","29,3","46,2","297,3","0"],
    [12267,"2015-06-25T13:00:00","51","21","82,64","4,3","100,2","30,4","42,2","317,1","0"],
    [12268,"2015-06-25T14:00:00","45","9","88,7","3,7","72,9","30,6","40,5","189,3","0"],
    [12269,"2015-06-25T15:00:00","63","12","92,58","4","87,3","31,6","37,8","201,9","0"],
    [12270,"2015-06-25T16:00:00","55","18","84,58","4","85,8","31,5","38","128,3","0"],
    [12271,"2015-06-25T17:00:00","68","27","85,52","4,5","87,1","32","36,6","128,4","0"],
    [12272,"2015-06-25T18:00:00","92","22","52,04","3,8","69,9","31,4","39,7","35,9","0"],
    [12273,"2015-06-25T19:00:00","89","22","44,96","2,6","30,1","30,5","40,3","0","0"],
    [12274,"2015-06-25T20:00:00","110","35","34,56","1,4","341","29,7","43,6","0","0"],
    [12275,"2015-06-25T21:00:00","71","23","39,4","4,7","277,6","29,4","47","0","0"],
    [12276,"2015-06-25T22:00:00","76","28","23,69","1,1","321,7","29","48,8","0","0"],
    [12277,"2015-06-25T23:00:00","73","17","14,09","3,3","108","26,3","65,2","0","0"],
    [12278,"2015-06-26T00:00:00","38","8","19,66","1,8","100,9","26","67","0","0"],
    [12279,"2015-06-26T01:00:00","37","12","28,22","2,7","8","26,3","64,8","0","0"],
    [12280,"2015-06-26T02:00:00","27","11","32,85","2","24,1","26,4","63","0","0"],
    [12281,"2015-06-26T03:00:00","38","11","23,8","2,7","105,3","25,2","68,3","0","0"],
    [12282,"2015-06-26T04:00:00","46","11","17,15","2,1","150,3","24,4","72,6","0","0"],
    [12283,"2015-06-26T05:00:00","67","24","12,46","1,9","190,6","24","73,1","0","0"],
    [12284,"2015-06-26T06:00:00","100","32","12,76","1,7","134,2","23,7","72,3","0","0"],
    [12285,"2015-06-26T07:00:00","115","38","14,21","2","163,4","22,9","71,9","14,1","0"],
    [12286,"2015-06-26T08:00:00","110","29","18,82","2,2","155,6","23,8","66,5","99,2","0"],
    [12287,"2015-06-26T09:00:00","88","21","36,44","1,9","105,8","26,2","59,7","201,2","0"],
    [12288,"2015-06-26T10:00:00","65","20","55,85","3,3","91","28","54,9","298,8","0"],
    [12289,"2015-06-26T11:00:00","53","19","87,29","3,4","74","29,7","46,7","372,3","0"],
    [12290,"2015-06-26T12:00:00","38","17","102,59","3,2","78","30,9","42,2","383,6","0"],
    [12291,"2015-06-26T13:00:00","61","13","102,61","2,4","167,2","32,9","33,8","379,1","0"],
    [12292,"2015-06-26T14:00:00","42","12","86,13","3,7","167,9","34","29,1","311","0"],
    [12293,"2015-06-26T15:00:00","52","12","79,08","4,4","164,5","34,6","26,8","214,8","0"],
    [12294,"2015-06-26T16:00:00","55","14","74,53","4,6","117,8","34","30,4","123","0"],
    [12295,"2015-06-26T17:00:00","161","37","56,63","3,3","95,3","33,5","34,5","69,6","0"],
    [12296,"2015-06-26T18:00:00","67","17","62,05","3,1","356,5","32,4","40,4","34,6","0"],
    [12297,"2015-06-26T19:00:00","80","17","41,03","4,2","282,9","31,6","39,7","0","0"],
    [12298,"2015-06-26T20:00:00","49","9","36,87","4,7","278,7","30,4","43,1","0","0"],
    [12299,"2015-06-26T21:00:00","41","7","34,62","2,2","287,2","29","50,8","0","0"],
    [12300,"2015-06-26T22:00:00","69","23","18,23","3,8","77,6","26,9","64,3","0","0"],
    [12301,"2015-06-26T23:00:00","51","14","24,04","2,4","44,3","26,6","64,9","0","0"],
    [12302,"2015-06-27T00:00:00","32","14","20,94","2,6","91,5","26,5","64,7","0","0"],
    [12303,"2015-06-27T01:00:00","33","10","18,51","1,7","100,7","25,8","68,1","0","0"],
    [12304,"2015-06-27T02:00:00","21","6","17,66","2,4","127,5","25,3","70,2","0","0"],
    [12305,"2015-06-27T03:00:00","44","14","17,39","1","140,2","25,1","70,6","0","0"],
    [12306,"2015-06-27T04:00:00","42","9","19,05","1,5","183,6","25,2","69,8","0","0"],
    [12307,"2015-06-27T05:00:00","69","18","13,3","2,5","196,7","25,1","67,7","0","0"],
    [12308,"2015-06-27T06:00:00","62","17","12,79","2,1","165,8","24,7","62,4","0","0"],
    [12309,"2015-06-27T07:00:00","90","26","14,13","1,6","165,9","24,4","63,1","9,8","0"],
    [12310,"2015-06-27T08:00:00","111","28","16,31","2,4","160,7","24,3","64,2","63,5","0"],
    [12311,"2015-06-27T09:00:00","79","23","23,29","2,3","102,1","25,2","61,7","135,5","0"],
    [12312,"2015-06-27T10:00:00","95","27","40,03","3,2","86,3","26,5","59,1","190,6","0"],
    [12313,"2015-06-27T11:00:00","64","18","64,19","3,6","79,8","28,2","53,8","285,5","0"],
    [12314,"2015-06-27T12:00:00","53","10","55,97","4,1","63,2","30","48,4","266,6","0"],
    [12315,"2015-06-27T13:00:00","37","9","52,75","5,1","90,8","31,2","42,5","212,3","0"],
    [12316,"2015-06-27T14:00:00","49","7","55,1","5,3","71,8","31,5","41,7","183,8","0"],
    [12317,"2015-06-27T15:00:00","56","11","55,99","5","68,7","32","40,5","182,9","0"],
    [12318,"2015-06-27T16:00:00","49","8","51,37","5,7","51,5","31,6","42,8","85,7","0"],
    [12319,"2015-06-27T17:00:00","52","15","56,75","3,6","325,9","31,1","43,2","44,8","0"],
    [12320,"2015-06-27T18:00:00","59","15","38,44","2,9","356,5","30,5","44,8","9,7","0"],
    [12321,"2015-06-27T19:00:00","47","15","32,18","4","290,6","29,7","45,3","0","0"],
    [12322,"2015-06-27T20:00:00","70","20","20,82","2,6","266","29,1","49,1","0","0"],
    [12323,"2015-06-27T21:00:00","78","21","14,54","2,8","74,9","26,7","62,3","0","0"],
    [12324,"2015-06-27T22:00:00","80","29","15,13","1,7","93,5","26,5","62,7","0","0"],
    [12325,"2015-06-27T23:00:00","50","12","14,72","3","97,7","25,5","67,6","0","0"],
    [12326,"2015-06-28T00:00:00","50","13","16,72","1,8","84,9","25,4","66,6","0","0"],
    [12327,"2015-06-28T01:00:00","41","12","16,17","2,2","107,2","25","68,8","0","0"],
    [12328,"2015-06-28T02:00:00","38","10","14,4","2,3","111,2","24,4","71,5","0","0"],
    [12329,"2015-06-28T03:00:00","34","9","14,76","1","204,4","24,2","71,6","0","0"],
    [12330,"2015-06-28T04:00:00","48","12","12,93","1,7","156,8","23,6","73,8","0","0"],
    [12331,"2015-06-28T05:00:00","45","13","12,85","1,4","202,8","23,6","71","0","0"],
    [12332,"2015-06-28T06:00:00","45","22","13,62","2","173,4","24","62,1","0","0"],
    [12333,"2015-06-28T07:00:00","51","12","15,25","3,2","195","23,3","64,4","12,9","0"],
    [12334,"2015-06-28T08:00:00","64","16","20,47","1,6","179,8","23,9","62,6","51,3","0"],
    [12335,"2015-06-28T09:00:00","62","9","27,89","3,2","113,1","25,2","56,7","134,5","0"],
    [12336,"2015-06-28T10:00:00","47","16","52,34","3","131,1","27,3","49,5","281,4","0"],
    [12337,"2015-06-28T11:00:00","44","8","73,14","2,8","102,4","28,9","43,9","366,1","0"],
    [12338,"2015-06-28T12:00:00","42","12","79,18","3,6","88,1","30,1","40,7","340,8","0"],
    [12339,"2015-06-28T13:00:00","33","10","81,16","3,4","80","31","38,4","431,6","0"],
    [12340,"2015-06-28T14:00:00","33","7","87,11","3,1","39,3","31,9","35,8","370,8","0"],
    [12341,"2015-06-28T15:00:00","42","11","80,75","4,5","61,6","31,9","36,2","185,6","0"],
    [12342,"2015-06-28T16:00:00","39","9","78,08","4,6","45,1","31,6","39,5","106,7","0"],
    [12343,"2015-06-28T17:00:00","34","9","49,18","5","5,2","30,8","42,9","59,5","0"],
    [12344,"2015-06-28T18:00:00","48","17","46,43","4,3","340,6","30,3","43,8","19,3","0"],
    [12345,"2015-06-28T19:00:00","40","11","45,43","5,2","283,9","29,2","47,3","0","0"],
    [12346,"2015-06-28T20:00:00","40","6","38,54","3,9","295,1","28,7","49","0","0"],
    [12347,"2015-06-28T21:00:00","38","12","17,35","4,4","100,9","26,8","61,2","0","0"],
    [12348,"2015-06-28T22:00:00","58","29","17,68","2","46,5","26,1","63,5","0","0"],
    [12349,"2015-06-28T23:00:00","63","18","12,89","1,8","45,2","26","64,9","0","0"],
    [12350,"2015-06-29T00:00:00","38","9","14,46","4,3","80,4","24,7","71,7","0","0,25"],
    [12351,"2015-06-29T01:00:00","19","6","14,8","0,8","52,5","24,3","75,3","0","0,25"],
    [12352,"2015-06-29T02:00:00","27","7","15,31","0,9","118,7","24,3","73,4","0","0"],
    [12353,"2015-06-29T03:00:00","17","5","18,6","1","153,8","24,5","71,2","0","0"],
    [12354,"2015-06-29T04:00:00","29","3","17,98","1,3","141,6","24,6","70,5","0","0"],
    [12355,"2015-06-29T05:00:00","46","19","12,91","1,8","175,1","24","74,7","0","0"],
    [12356,"2015-06-29T06:00:00","42","5","14,17","2,7","190,3","23,5","73,7","0","0"],
    [12357,"2015-06-29T07:00:00","47","10","12,78","3,1","128,8","22,8","77,9","4,4","0"],
    [12358,"2015-06-29T08:00:00","48","15","17,45","1,6","182,1","23,2","72,3","44,5","0"],
    [12359,"2015-06-29T09:00:00","44","19","24,88","2,2","183,2","24,4","68,4","93,4","0"],
    [12360,"2015-06-29T10:00:00","42","11","30,81","3,1","118,8","25,1","68,2","153,1","0"],
    [12361,"2015-06-29T11:00:00","38","11","53,44","1,6","67,4","26,9","58,7","245,4","0"],
    [12362,"2015-06-29T12:00:00","37","15","64,21","3,8","99,2","27,9","56,5","244,4","0"],
    [12363,"2015-06-29T13:00:00","38","18","68,21","3,6","86,3","28,6","53,3","235,7","0"],
    [12364,"2015-06-29T14:00:00","47","11","75,45","4,3","95,7","29,5","50,4","298,9","0"],
    [12365,"2015-06-29T15:00:00","31","10","84,97","3,5","82,2","30,3","48,1","268,4","0"],
    [12366,"2015-06-29T16:00:00","38","13","71,86","4,9","65,6","30,3","47,5","145,6","0"],
    [12367,"2015-06-29T17:00:00","50","9","74,65","3,7","83,6","30,4","46,1","118,2","0"],
    [12368,"2015-06-29T18:00:00","47","12","59,01","1,8","24,1","29,9","47,3","12,6","0"],
    [12369,"2015-06-29T19:00:00","28","6","32,46","5,6","289,3","29","47,2","0","0"],
    [12370,"2015-06-29T20:00:00","30","6","24,25","2,6","301,1","28","51,6","0","0"],
    [12371,"2015-06-29T21:00:00","44","8","15,09","3,5","100,6","26,1","63,4","0","0"],
    [12372,"2015-06-29T22:00:00","41","13","14,52","2,6","96","25,2","67,6","0","0"],
    [12373,"2015-06-29T23:00:00","47","9","14,19","2,3","79,9","24,6","69,2","0","0"],
    [12374,"2015-06-30T00:00:00","26","6","14,78","0,4","65","24,3","70,6","0","0"],
    [12375,"2015-06-30T01:00:00","36","3","13,99","2","187,1","24,6","69,4","0","0"],
    [12376,"2015-06-30T02:00:00","47","12","18,52","2,9","184,2","24,4","69,2","0","0"],
    [12377,"2015-06-30T03:00:00","56","13","16,11","2,8","174,2","23,6","72,3","0","0"],
    [12378,"2015-06-30T04:00:00","48","15","14,07","2","173","22,3","77,4","0","0"],
    [12379,"2015-06-30T05:00:00","57","16","13,74","2,1","139,7","22","78,1","0","0"],
    [12380,"2015-06-30T06:00:00","66","20","13,72","2,3","171,2","21,3","80,4","0","0"],
    [12381,"2015-06-30T07:00:00","75","29","12,93","2,5","143,5","21,2","80,4","4,4","0"],
    [12382,"2015-06-30T08:00:00","77","27","17,86","1,4","190,5","22,3","75,9","39,2","0"],
    [12383,"2015-06-30T09:00:00","99","33","28,49","1,7","89,1","24,3","68,9","182,5","0"],
    [12384,"2015-06-30T10:00:00","54","29","48,57","2,6","119","26,3","60,1","272,8","0"],
    [12385,"2015-06-30T11:00:00","51","16","69,43","2,2","81","27,7","55,1","345","0"],
    [12386,"2015-06-30T12:00:00","44","15","84,89","2,3","60,2","29","50,6","367,2","0"],
    [12387,"2015-06-30T13:00:00","55","13","84,11","3,1","78,8","30,1","46,8","337,9","0"],
    [12388,"2015-06-30T14:00:00","51","18","88,44","4,7","80,3","30,8","44,1","306,9","0"],
    [12389,"2015-06-30T15:00:00","50","21","101,63","4,4","69,7","31,1","40,7","216,5","0"],
    [12390,"2015-06-30T16:00:00","59","21","98,88","4,6","71","31,4","41,4","204,3","0"],
    [12391,"2015-06-30T17:00:00","63","17","92,53","5,5","42,3","31,5","41,3","137,6","0"],
    [12392,"2015-06-30T18:00:00","50","15","50,22","4,6","26,3","30,9","45,4","43,2","0"],
    [12393,"2015-06-30T19:00:00","66","20","34,28","2,6","354","29,7","49,1","0","0"],
    [12394,"2015-06-30T20:00:00","78","18","23,57","1,8","306,4","28,8","52,2","0","0"],
    [12395,"2015-06-30T21:00:00","85","31","13,23","0,4","52,6","27,3","58,2","0","0"],
    [12396,"2015-06-30T22:00:00","64","17","17,11","0,4","152","26,7","57,5","0","0"],
    [12397,"2015-06-30T23:00:00","48","10","13,05","1,4","112,1","24,9","68,4","0","0"],
    [12398,"2015-07-01T00:00:00","93","38","13,25","1,3","148,1","25","68","0","0"],
    [12399,"2015-07-01T01:00:00","ND","ND","26,12","1,9","171,7","24,1","72","0","0"],
    [12400,"2015-07-01T02:00:00","ND","ND","24,67","1,9","112,9","23,4","74,4","0","0"],
    [12401,"2015-07-01T03:00:00","113","36","10,36","0,7","178,5","22,6","77,8","0","0"],
    [12402,"2015-07-01T04:00:00","73","32","13,29","2,3","66,1","22,7","76,6","0","0"],
    [12403,"2015-07-01T05:00:00","69","25","12,79","1,7","79,8","21,5","80","0","0"],
    [12404,"2015-07-01T06:00:00","102","40","13,21","0,9","150,6","21,9","77,9","0","0"],
    [12405,"2015-07-01T07:00:00","110","42","13,99","3,2","74,1","21,1","81","17,5","0"],
    [12406,"2015-07-01T08:00:00","101","44","19,62","2,2","124,7","22,5","75","98,6","0"],
    [12407,"2015-07-01T09:00:00","97","46","35,83","2,3","97,6","24,2","70,5","196,5","0"],
    [12408,"2015-07-01T10:00:00","77","30","65,23","2,2","97,4","26,3","62,9","290,7","0"],
    [12409,"2015-07-01T11:00:00","59","27","97,63","2","57,9","28,4","53,6","362,7","0"],
    [12410,"2015-07-01T12:00:00","58","19","102,16","2,5","62,9","30,1","44,2","402","0"],
    [12411,"2015-07-01T13:00:00","57","19","101,77","4,3","103,9","31,4","40","341,7","0"],
    [12412,"2015-07-01T14:00:00","50","21","106,69","3,6","97,2","32,5","36,4","365","0"],
    [12413,"2015-07-01T15:00:00","52","14","116,15","2,1","109,5","33,9","32,6","298,4","0"],
    [12414,"2015-07-01T16:00:00","59","13","106,42","3,7","90,9","34,7","29,5","236,8","0"],
    [12415,"2015-07-01T17:00:00","73","13","79,52","4,6","29,2","34,3","34","85","0"],
    [12416,"2015-07-01T18:00:00","91","21","70,39","4,5","346,6","32,4","40,4","31","0"],
    [12417,"2015-07-01T19:00:00","70","19","57,69","5,2","290,9","31","44","0,3","0"],
    [12418,"2015-07-01T20:00:00","67","16","31,36","1,3","336,1","29,4","50,9","0","0"],
    [12419,"2015-07-01T21:00:00","86","38","20,35","2,1","123,3","28,3","56,9","0","0"],
    [12420,"2015-07-01T22:00:00","73","19","17,9","3,3","95,2","27,2","61,9","0","0"],
    [12421,"2015-07-01T23:00:00","80","30","21,06","2,5","191","26,7","63,5","0","0"],
    [12422,"2015-07-02T00:00:00","104","27","16,88","2","185,4","25,9","66,3","0","0"],
    [12423,"2015-07-02T01:00:00","90","25","16,13","1,9","178,9","25,3","69,5","0","0"],
    [12424,"2015-07-02T02:00:00","121","24","13,7","2","204,5","24,7","71,1","0","0"],
    [12425,"2015-07-02T03:00:00","104","30","14,01","1,5","149,6","24,3","71,4","0","0"],
    [12426,"2015-07-02T04:00:00","102","31","12,7","3,2","111","23","75,8","0","0"],
    [12427,"2015-07-02T05:00:00","87","26","12,42","1,2","195,2","22,8","78,4","0","0"],
    [12428,"2015-07-02T06:00:00","95","34","13,29","1,7","133,7","22,5","74,4","0","0"],
    [12429,"2015-07-02T07:00:00","110","34","14,46","0,3","180,4","22,8","71,4","22,4","0"],
    [12430,"2015-07-02T08:00:00","137","43","15,68","2,7","131,4","24,4","67,5","102,3","0"],
    [12431,"2015-07-02T09:00:00","59","16","31,5","3,3","141,6","26,4","53,7","149","0"],
    [12432,"2015-07-02T10:00:00","ND","ND","57,2","3,1","196,2","27,9","50,2","283,3","0"],
    [12433,"2015-07-02T11:00:00","62","19","ND","0,6","275,7","29,4","46,3","282,4","0"],
    [12434,"2015-07-02T12:00:00","58","19","81,22","3,8","88,1","30,9","41,1","327,3","0"],
    [12435,"2015-07-02T13:00:00","38","16","92,86","3,6","100,2","32,4","36,8","414","0"],
    [12436,"2015-07-02T14:00:00","45","2","116,11","0,6","79,3","33,7","31,8","383,2","0"],
    [12437,"2015-07-02T15:00:00","41","12","82,4","3,6","62,6","34,3","28,4","205,3","0"],
    [12438,"2015-07-02T16:00:00","42","11","82,69","4,1","58,9","34,5","29,1","197,5","0"],
    [12439,"2015-07-02T17:00:00","69","17","79,89","4,6","8,9","33,4","35,5","93,3","0"],
    [12440,"2015-07-02T18:00:00","96","18","51,32","4,6","358,5","31,8","39,5","27","0"],
    [12441,"2015-07-02T19:00:00","122","38","25,79","3","4,9","30,5","45,1","0","0"],
    [12442,"2015-07-02T20:00:00","153","62","16,56","2,3","58","28,9","52,6","0","0"],
    [12443,"2015-07-02T21:00:00","71","21","16,84","2","70,6","27","59,9","0","0"],
    [12444,"2015-07-02T22:00:00","64","24","16,21","2","71","25,8","65,1","0","0"],
    [12445,"2015-07-02T23:00:00","52","10","17,88","1","36,3","25,7","65","0","0"],
    [12446,"2015-07-03T00:00:00","49","12","14,64","2,2","147,4","25","68,1","0","0"],
    [12447,"2015-07-03T01:00:00","85","31","14,86","1,8","250,9","24,5","69,8","0","0"],
    [12448,"2015-07-03T02:00:00","72","29","13,72","0,4","53,9","24,9","68,4","0","0"],
    [12449,"2015-07-03T03:00:00","98","28","12,97","2,3","135,4","23,1","73,5","0","0"],
    [12450,"2015-07-03T04:00:00","101","30","12,93","1,6","87,5","22,4","75,9","0","0"],
    [12451,"2015-07-03T05:00:00","116","28","12,52","2,5","71","21,4","79,1","0","0"],
    [12452,"2015-07-03T06:00:00","119","37","13,6","2,2","87,9","21,2","77,2","0","0"],
    [12453,"2015-07-03T07:00:00","95","31","14,82","0,6","154,3","21","74,8","35,1","0"],
    [12454,"2015-07-03T08:00:00","111","31","17,17","2,6","105,2","22,6","68,2","95,6","0"],
    [12455,"2015-07-03T09:00:00","104","26","23,45","2,8","172,5","23,2","67,7","87,7","0"],
    [12456,"2015-07-03T10:00:00","131","29","38,36","2,9","186,6","24,8","63,8","165,8","0"],
    [12457,"2015-07-03T11:00:00","73","18","65,52","1,7","154,6","26,7","54,9","273,6","0"],
    [12458,"2015-07-03T12:00:00","67","24","95,53","1,6","173,1","28,5","47,6","340,7","0"],
    [12459,"2015-07-03T13:00:00","44","17","98,18","2","77,1","30,2","42,8","409,6","0"],
    [12460,"2015-07-03T14:00:00","36","15","104,52","1,2","32,8","31,5","38","365,2","0"],
    [12461,"2015-07-03T15:00:00","49","17","102,04","3","82,4","32","36,6","155,8","0"],
    [12462,"2015-07-03T16:00:00","48","17","66,7","4,3","77,1","31,7","38,4","91,8","0"],
    [12463,"2015-07-03T17:00:00","65","13","68,64","3,6","21,1","31,6","38,4","64,3","0"],
    [12464,"2015-07-03T18:00:00","81","23","52,93","2,9","0,8","30,7","45,7","19","0"],
    [12465,"2015-07-03T19:00:00","101","23","24,47","2,4","32,6","29,2","52,9","0,1","0"],
    [12466,"2015-07-03T20:00:00","54","9","23,88","4,9","284,9","28,8","51,3","0","0"],
    [12467,"2015-07-03T21:00:00","41","6","22,41","4,4","299,9","28,3","53","0","0"],
    [12468,"2015-07-03T22:00:00","65","17","15,42","4","102,9","25,5","68,2","0","0"],
    [12469,"2015-07-03T23:00:00","58","16","16,23","1","314,7","25,5","68","0","0"],
    [12470,"2015-07-04T00:00:00","89","22","14,31","2,5","93,8","25","69,1","0","0"],
    [12471,"2015-07-04T01:00:00","35","10","16,13","0,9","13,2","24,3","72,3","0","0"],
    [12472,"2015-07-04T02:00:00","38","9","15,91","2","105,2","24,3","72,3","0","0"],
    [12473,"2015-07-04T03:00:00","60","16","16,03","2,6","199","24","73","0","0"],
    [12474,"2015-07-04T04:00:00","88","26","15,6","3,4","201,7","23,3","73,4","0","0"],
    [12475,"2015-07-04T05:00:00","92","34","15,66","2,4","124,2","22,8","74,9","0","0"],
    [12476,"2015-07-04T06:00:00","92","27","14,93","1,6","251,2","23,1","71,9","0","0"],
    [12477,"2015-07-04T07:00:00","114","44","14,33","1,5","127,8","23,6","70,3","14,3","0"],
    [12478,"2015-07-04T08:00:00","122","43","18,13","3,7","105,8","23,4","71,8","101,5","0"],
    [12479,"2015-07-04T09:00:00","125","44","35,09","3,2","112,9","25,7","63","199,6","0"],
    [12480,"2015-07-04T10:00:00","119","55","65,27","3,5","110,1","27,2","57,5","196","0"],
    [12481,"2015-07-04T11:00:00","88","22","87,82","0,8","120,1","28,4","53,1","220","0"],
    [12482,"2015-07-04T12:00:00","76","31","86,07","4","71","29,3","50","238,2","0"],
    [12483,"2015-07-04T13:00:00","85","33","93,68","4,2","75,1","29,9","51,5","251,8","0"],
    [12484,"2015-07-04T14:00:00","49","18","90,01","3,9","79,6","30,6","49,9","235,4","0"],
    [12485,"2015-07-04T15:00:00","53","18","92,9","3,6","81,2","31","47,3","206,9","0"],
    [12486,"2015-07-04T16:00:00","54","ND","81,42","4,1","74,9","31,5","44,6","173,8","0"],
    [12487,"2015-07-04T17:00:00","63","20","58,97","4,1","78,9","31,5","43,3","74,9","0"],
    [12488,"2015-07-04T18:00:00","71","18","43,37","3,2","109,2","30,9","47","20,2","0"],
    [12489,"2015-07-04T19:00:00","63","17","25,04","0,6","120,8","29,8","51","0","0"],
    [12490,"2015-07-04T20:00:00","65","14","19,88","2,2","299","29","51","0","0"],
    [12491,"2015-07-04T21:00:00","83","28","19","0,8","343,9","27,8","56,2","0","0"],
    [12492,"2015-07-04T22:00:00","82","17","14,74","2,3","93,6","25,2","69,1","0","0"],
    [12493,"2015-07-04T23:00:00","79","24","13,78","0,3","198,2","25,9","64,7","0","0"],
    [12494,"2015-07-05T00:00:00","80","19","16,92","2,5","169,4","25,7","66,6","0","0"],
    [12495,"2015-07-05T01:00:00","102","39","17,99","2,3","142,5","25","70,6","0","0"],
    [12496,"2015-07-05T02:00:00","90","32","17,54","2,5","163,2","24,7","71,8","0","0"],
    [12497,"2015-07-05T03:00:00","76","27","21,47","0,7","153,7","24,8","70,4","0","0"],
    [12498,"2015-07-05T04:00:00","93","28","18,27","2,9","120,9","24,3","73,2","0","0"],
    [12499,"2015-07-05T05:00:00","80","30","25,41","1,4","188,1","24,3","70,9","0","0"],
    [12500,"2015-07-05T06:00:00","84","30","21,68","1,7","185","24,3","71","0","0"],
    [12501,"2015-07-05T07:00:00","118","35","17,47","2,6","135,1","23,7","75,3","10,2","0"],
    [12502,"2015-07-05T08:00:00","121","51","23,14","2","201,4","24,3","71,9","40,2","0"],
    [12503,"2015-07-05T09:00:00","90","32","39,48","1,9","181,9","26,2","61,1","131,6","0"],
    [12504,"2015-07-05T10:00:00","85","32","53,61","3,6","187,3","27,3","56,4","137,4","0"],
    [12505,"2015-07-05T11:00:00","110","30","59,75","3,1","152,1","27,5","57,2","127,5","0"],
    [12506,"2015-07-05T12:00:00","64","23","75,18","2","83","28","55,7","159,9","0"],
    [12507,"2015-07-05T13:00:00","74","26","88,72","2,7","81,7","28,8","53","165","0"],
    [12508,"2015-07-05T14:00:00","82","35","90,84","4,3","78,7","29,2","52,5","124,9","0"],
    [12509,"2015-07-05T15:00:00","87","35","82,44","3,6","91,9","29,5","51,7","105,7","0"],
    [12510,"2015-07-05T16:00:00","ND","ND","58,89","3,3","85,3","29,5","51,7","53,8","0"],
    [12511,"2015-07-05T17:00:00","ND","ND","46,33","0,8","335,1","29,5","49,4","45,5","0"],
    [12512,"2015-07-05T18:00:00","ND","ND","36,85","4,5","284,5","29","48,4","21,4","0"],
    [12513,"2015-07-05T19:00:00","ND","ND","30,2","4,1","297,8","28,1","51,2","0","0"],
    [12514,"2015-07-05T20:00:00","ND","ND","16,72","1,6","337,4","27,4","54,5","0","0"],
    [12515,"2015-07-05T21:00:00","ND","ND","13,72","2,1","82,2","25,7","64,7","0","0"],
    [12516,"2015-07-05T22:00:00","ND","ND","13,48","2,5","91,6","24,6","70,5","0","0"],
    [12517,"2015-07-05T23:00:00","ND","ND","14,34","2,3","85,4","24","72,2","0","0"],
    [12518,"2015-07-06T00:00:00","ND","ND","14,91","1,5","53,3","24","72,1","0","0"],
    [12519,"2015-07-06T01:00:00","ND","ND","15,37","2,1","71","23,9","72,1","0","0"],
    [12520,"2015-07-06T02:00:00","ND","ND","17,43","1,6","129,7","23,8","73,1","0","0"],
    [12521,"2015-07-06T03:00:00","ND","ND","15,7","1,4","170","23,7","74,8","0","0"],
    [12522,"2015-07-06T04:00:00","ND","ND","14,68","1,9","191,5","23,9","73,3","0","0"],
    [12523,"2015-07-06T05:00:00","ND","ND","15,09","2,8","200,8","23,8","73,8","0","0"],
    [12524,"2015-07-06T06:00:00","ND","ND","13,87","1,7","158,9","23,6","75,9","0","2,29"],
    [12525,"2015-07-06T07:00:00","ND","ND","13,27","1,7","207,3","23,7","77,8","11","0"],
    [12526,"2015-07-06T08:00:00","ND","ND","13,6","2,1","95,7","23,8","78,4","25,4","0"],
    [12527,"2015-07-06T09:00:00","ND","ND","19,53","2,3","134,3","24,4","75,9","114,2","0"],
    [12528,"2015-07-06T10:00:00","ND","ND","57,16","2,8","253,2","26,2","66,5","253,9","0"],
    [12529,"2015-07-06T11:00:00","ND","ND","97,84","1,7","297,9","27,8","58,5","230,1","0"],
    [12530,"2015-07-06T12:00:00","ND","ND","123,65","2,6","79,2","28,8","54,9","252,4","0"],
    [12531,"2015-07-06T13:00:00","ND","ND","143,61","3,6","63,8","30","50,7","293,8","0"],
    [12532,"2015-07-06T14:00:00","ND","ND","107,71","4,1","56,9","30,6","48,2","228,9","0"],
    [12533,"2015-07-06T15:00:00","ND","ND","88,78","5,4","49,2","30,7","47,9","168,8","0"],
    [12534,"2015-07-06T16:00:00","ND","ND","53,22","3,9","25,4","30,7","46,4","120,7","0"],
    [12535,"2015-07-06T17:00:00","ND","ND","42,03","3,6","316,8","30","46","57,8","0"],
    [12536,"2015-07-06T18:00:00","ND","ND","39,66","4,7","300,5","29","47,3","20,2","0"],
    [12537,"2015-07-06T19:00:00","ND","ND","41,29","3,9","163,1","27,2","54,4","0","0"],
    [12538,"2015-07-06T20:00:00","ND","ND","34,22","5","144,4","25,1","62,9","0","0"],
    [12539,"2015-07-06T21:00:00","ND","ND","31,08","3,2","184,9","24,2","69,1","0","0"],
    [12540,"2015-07-06T22:00:00","ND","ND","25,77","2,6","220,3","23,9","69,9","0","0"],
    [12541,"2015-07-06T23:00:00","ND","ND","17,11","1,1","154","24,2","69","0","0"],
    [12542,"2015-07-07T00:00:00","ND","ND","18,31","2,4","120,4","23,1","74,3","0","0"],
    [12543,"2015-07-07T01:00:00","ND","ND","18,94","3","100,2","22,6","76,3","0","0"],
    [12544,"2015-07-07T02:00:00","ND","ND","18,98","1,6","112,6","22,2","79,2","0","0"],
    [12545,"2015-07-07T03:00:00","ND","ND","18,07","2,2","188,6","22,6","78,2","0","0"],
    [12546,"2015-07-07T04:00:00","ND","ND","15,07","2,7","171,9","22,4","81,1","0","0"],
    [12547,"2015-07-07T05:00:00","ND","ND","17,76","2,5","176,4","22,2","83,8","0","0"],
    [12548,"2015-07-07T06:00:00","ND","ND","19,04","2,7","176,2","22","84,2","0","0"],
    [12549,"2015-07-07T07:00:00","ND","ND","18,7","2,5","207,5","22","83,6","7","0,25"],
    [12550,"2015-07-07T08:00:00","ND","ND","21,8","3,2","188,9","22,5","82,1","52,7","0"],
    [12551,"2015-07-07T09:00:00","ND","ND","29,89","1,6","145,1","24","75,9","170,4","0"],
    [12552,"2015-07-07T10:00:00","ND","ND","46,84","2,4","64,3","25,4","67,7","198,9","0"],
    [12553,"2015-07-07T11:00:00","ND","ND","71,84","1,9","186,9","27,1","59,1","316,1","0"],
    [12554,"2015-07-07T12:00:00","ND","ND","67,23","2,1","102,5","28,3","52,9","309,2","0"],
    [12555,"2015-07-07T13:00:00","ND","ND","64,13","2,8","109,8","29,5","47,7","320,1","0"],
    [12556,"2015-07-07T14:00:00","ND","ND","83,79","3,1","102,1","30","47,2","277","0"],
    [12557,"2015-07-07T15:00:00","ND","ND","99,32","1,6","14,8","30,3","45,6","126,4","0"],
    [12558,"2015-07-07T16:00:00","ND","ND","66,8","5,2","319,3","29,7","44,8","69,6","0"],
    [12559,"2015-07-07T17:00:00","ND","ND","28,94","6,1","84","24,9","72,7","11,5","12,7"],
    [12560,"2015-07-07T18:00:00","ND","ND","19,6","3,6","58,9","23,6","81,3","6,8","0,25"],
    [12561,"2015-07-07T19:00:00","ND","ND","15,09","1,7","98,2","23,9","79,9","0","0"],
    [12562,"2015-07-07T20:00:00","ND","ND","15,11","2,3","177,6","23,6","80,9","0","0"],
    [12563,"2015-07-07T21:00:00","ND","ND","15,37","3,1","177","23,6","79,7","0","0"],
    [12564,"2015-07-07T22:00:00","ND","ND","16,8","1,8","174,7","23,3","79,5","0","0"],
    [12565,"2015-07-07T23:00:00","ND","ND","ND","ND","ND","ND","ND","ND","ND"],
    [12566,"2015-07-08T00:00:00","ND","ND","ND","ND","ND","ND","ND","ND","ND"],
    [12567,"2015-07-08T01:00:00","ND","ND","ND","ND","ND","ND","ND","ND","ND"],
    [12568,"2015-07-08T02:00:00","ND","ND","ND","ND","ND","ND","ND","ND","ND"],
    [12569,"2015-07-08T03:00:00","ND","ND","ND","ND","ND","ND","ND","ND","ND"],
    [12570,"2015-07-08T04:00:00","ND","ND","ND","ND","ND","ND","ND","ND","ND"],
    [12571,"2015-07-08T05:00:00","ND","ND","ND","ND","ND","ND","ND","ND","ND"],
    [12572,"2015-07-08T06:00:00","ND","ND","ND","ND","ND","ND","ND","ND","ND"],
    [12573,"2015-07-08T07:00:00","ND","ND","ND","ND","ND","ND","ND","ND","ND"],
    [12574,"2015-07-08T08:00:00","ND","ND","ND","ND","ND","ND","ND","ND","ND"],
    [12575,"2015-07-08T09:00:00","ND","ND","ND","ND","ND","ND","ND","ND","ND"],
    [12576,"2015-07-08T10:00:00","ND","ND","ND","ND","ND","ND","ND","ND","ND"],
    [12577,"2015-07-08T11:00:00","ND","ND","ND","ND","ND","ND","ND","ND","ND"],
    [12578,"2015-07-08T12:00:00","ND","ND","ND","ND","ND","ND","ND","ND","ND"],
    [12579,"2015-07-08T13:00:00","ND","ND","ND","ND","ND","ND","ND","ND","ND"],
    [12580,"2015-07-08T14:00:00","ND","ND","ND","ND","ND","ND","ND","ND","ND"],
    [12581,"2015-07-08T15:00:00","ND","ND","ND","ND","ND","ND","ND","ND","ND"],
    [12582,"2015-07-08T16:00:00","ND","ND","ND","ND","ND","ND","ND","ND","ND"],
    [12583,"2015-07-08T17:00:00","ND","ND","ND","ND","ND","ND","ND","ND","ND"],
    [12584,"2015-07-08T18:00:00","ND","ND","ND","ND","ND","ND","ND","ND","ND"],
    [12585,"2015-07-08T19:00:00","ND","ND","ND","ND","ND","ND","ND","ND","ND"],
    [12586,"2015-07-08T20:00:00","ND","ND","ND","ND","ND","ND","ND","ND","ND"],
    [12587,"2015-07-08T21:00:00","ND","ND","ND","ND","ND","ND","ND","ND","ND"],
    [12588,"2015-07-08T22:00:00","ND","ND","ND","ND","ND","ND","ND","ND","ND"],
    [12589,"2015-07-08T23:00:00","ND","ND","ND","ND","ND","ND","ND","ND","ND"],
    [12590,"2015-07-09T00:00:00","ND","ND","ND","ND","ND","ND","ND","ND","ND"],
    [12591,"2015-07-09T01:00:00","ND","ND","ND","ND","ND","ND","ND","ND","ND"],
    [12592,"2015-07-09T02:00:00","ND","ND","ND","ND","ND","ND","ND","ND","ND"],
    [12593,"2015-07-09T03:00:00","ND","ND","ND","ND","ND","ND","ND","ND","ND"],
    [12594,"2015-07-09T04:00:00","ND","ND","ND","ND","ND","ND","ND","ND","ND"],
    [12595,"2015-07-09T05:00:00","ND","ND","ND","ND","ND","ND","ND","ND","ND"],
    [12596,"2015-07-09T06:00:00","ND","ND","ND","ND","ND","ND","ND","ND","ND"],
    [12597,"2015-07-09T07:00:00","ND","ND","ND","ND","ND","ND","ND","ND","ND"],
    [12598,"2015-07-09T08:00:00","ND","ND","ND","ND","ND","ND","ND","ND","ND"],
    [12599,"2015-07-09T09:00:00","ND","ND","ND","ND","ND","ND","ND","ND","ND"],
    [12600,"2015-07-09T10:00:00","ND","ND","ND","ND","ND","ND","ND","ND","ND"],
    [12601,"2015-07-09T11:00:00","ND","ND","ND","ND","ND","ND","ND","ND","ND"],
    [12602,"2015-07-09T12:00:00","ND","ND","ND","ND","ND","ND","ND","ND","ND"],
    [12603,"2015-07-09T13:00:00","ND","ND","ND","ND","ND","ND","ND","ND","ND"],
    [12604,"2015-07-09T14:00:00","33","ND","81,36","4,7","80,3","30,5","43,6","227,1","0"],
    [12605,"2015-07-09T15:00:00","43","18","99,71","3,6","91,3","31,5","41,9","330,9","0"],
    [12606,"2015-07-09T16:00:00","55","24","93,53","4,2","72,1","31,7","42,3","143","0"],
    [12607,"2015-07-09T17:00:00","67","23","61,97","4,5","53,8","31,8","42,2","133,5","0"],
    [12608,"2015-07-09T18:00:00","63","18","55,42","3,7","21,9","31","42,6","41,9","0"],
    [12609,"2015-07-09T19:00:00","57","12","44,88","5","298,5","29,3","47,3","0","0"],
    [12610,"2015-07-09T20:00:00","50","13","34,2","4,6","299,2","28,4","50,4","0","0"],
    [12611,"2015-07-09T21:00:00","82","24","19,68","3,6","77,8","25,9","62,7","0","0"],
    [12612,"2015-07-09T22:00:00","49","22","17,31","3,2","64,1","24,6","69,3","0","0"],
    [12613,"2015-07-09T23:00:00","56","19","18,98","2,3","95,4","24,3","69,6","0","0"],
    [12614,"2015-07-10T00:00:00","56","24","18,94","1,4","187,8","24","71,2","0","0"],
    [12615,"2015-07-10T01:00:00","65","29","16,74","2,7","136,4","23,6","73,2","0","0"],
    [12616,"2015-07-10T02:00:00","64","27","14,33","1,6","156,6","23,4","74,3","0","0"],
    [12617,"2015-07-10T03:00:00","95","50","17,56","0,6","38,1","23","76,2","0","0"],
    [12618,"2015-07-10T04:00:00","96","54","15,5","0,8","126,6","22,8","77","0","0"],
    [12619,"2015-07-10T05:00:00","111","54","15,86","2,1","161,7","22,3","78,8","0","0"],
    [12620,"2015-07-10T06:00:00","113","51","14,97","2,4","136,3","21,8","80,7","0","0"],
    [12621,"2015-07-10T07:00:00","97","38","14,86","2,1","180,6","22,5","77,8","14,9","0"],
    [12622,"2015-07-10T08:00:00","76","30","20,72","2,9","166,8","23,7","72,4","75,6","0"],
    [12623,"2015-07-10T09:00:00","96","40","25,31","2,2","144,8","24,4","69,2","79","0"],
    [12624,"2015-07-10T10:00:00","88","40","45,35","3","159,6","25,5","65,8","156","0"],
    [12625,"2015-07-10T11:00:00","103","37","67,02","3,8","197,9","26,6","61,3","253","0"],
    [12626,"2015-07-10T12:00:00","74","26","78,22","2,4","100,7","27,8","56","288,2","0"],
    [12627,"2015-07-10T13:00:00","74","25","89,8","3,4","75,2","29,2","51","262,9","0"],
    [12628,"2015-07-10T14:00:00","61","26","88,58","3,8","81,9","30","47,7","239","0"],
    [12629,"2015-07-10T15:00:00","63","24","91,72","3,8","70,6","30,8","44,3","235,5","0"],
    [12630,"2015-07-10T16:00:00","85","31","117,53","3,9","39,3","31,7","41,5","237,5","0"],
    [12631,"2015-07-10T17:00:00","92","34","106,2","4,4","42,8","32","42,5","132,5","0"],
    [12632,"2015-07-10T18:00:00","63","18","61,89","3,5","4,3","31","43,9","24,2","0"],
    [12633,"2015-07-10T19:00:00","43","9","28,45","4,2","301,3","29,3","47,5","0","0"],
    [12634,"2015-07-10T20:00:00","49","16","21,51","3,7","309,4","28,9","49,3","0","0"],
    [12635,"2015-07-10T21:00:00","70","16","16,11","3,5","80,3","26,6","61,5","0","0"],
    [12636,"2015-07-10T22:00:00","50","14","16,29","2,9","68,5","25,6","66,1","0","0"],
    [12637,"2015-07-10T23:00:00","36","13","17,13","2,8","69,4","25,4","66,7","0","0"],
    [12638,"2015-07-11T00:00:00","60","9","14,95","2,3","92","25,3","67,3","0","0"],
    [12639,"2015-07-11T01:00:00","46","8","17,15","2,9","83","24,8","69,6","0","0"],
    [12640,"2015-07-11T02:00:00","31","6","18,6","2,5","182,5","24,7","70,2","0","0"],
    [12641,"2015-07-11T03:00:00","17","11","30,18","2,9","210,5","23,6","75,9","0","0"],
    [12642,"2015-07-11T04:00:00","18","8","31,01","2,7","180","23,2","77","0","0"],
    [12643,"2015-07-11T05:00:00","16","5","30,26","1,6","236,6","22,8","79,3","0","0"],
    [12644,"2015-07-11T06:00:00","30","17","19,39","1,8","133,7","23,3","76,1","0","0"],
    [12645,"2015-07-11T07:00:00","24","11","19,47","0,9","169,8","23,3","75,3","8,3","0"],
    [12646,"2015-07-11T08:00:00","90","21","17,01","2,7","109,4","23,5","75,7","31,4","0"],
    [12647,"2015-07-11T09:00:00","92","24","20,98","2,7","106,5","24,2","74,3","92,8","0"],
    [12648,"2015-07-11T10:00:00","59","19","37,5","2,3","145,1","25,9","66,4","170,8","0"],
    [12649,"2015-07-11T11:00:00","70","23","55,91","1,8","95,7","26,7","64","175,4","0"],
    [12650,"2015-07-11T12:00:00","80","33","65,66","2,4","118","27,8","60,8","241,5","0"],
    [12651,"2015-07-11T13:00:00","52","16","82,69","2,3","134,6","29,3","53,1","271,3","0"],
    [12652,"2015-07-11T14:00:00","54","19","78,49","2,9","71,4","29,8","49,9","189,4","0"],
    [12653,"2015-07-11T15:00:00","47","13","83,66","4","51,6","30,4","49,1","200,8","0"],
    [12654,"2015-07-11T16:00:00","37","10","66,92","4,2","33,2","30,9","45,8","158","0"],
    [12655,"2015-07-11T17:00:00","36","6","38,01","5,5","51,9","30,7","45,7","81,5","0"],
    [12656,"2015-07-11T18:00:00","55","10","28,1","3","43,4","30,1","48,7","38,1","0"],
    [12657,"2015-07-11T19:00:00","35","6","27,02","4,4","288,7","28,9","49,3","0","0"],
    [12658,"2015-07-11T20:00:00","36","8","19,82","4,4","297,4","28,1","51,2","0","0"],
    [12659,"2015-07-11T21:00:00","74","19","17,15","3,5","46,7","27","57,7","0","0"],
    [12660,"2015-07-11T22:00:00","53","17","14,21","3,5","88,9","25","68,1","0","0"],
    [12661,"2015-07-11T23:00:00","52","9","14,72","3,6","84,5","24,4","70,1","0","0"],
    [12662,"2015-07-12T00:00:00","76","15","16,94","2,7","62,2","24,2","70,7","0","0"],
    [12663,"2015-07-12T01:00:00","44","25","20,35","1,6","32,5","24,3","69,9","0","0"],
    [12664,"2015-07-12T02:00:00","33","6","19,04","1,1","97,8","24,3","69,6","0","0"],
    [12665,"2015-07-12T03:00:00","34","7","15,58","2,1","164,2","24","71,9","0","0"],
    [12666,"2015-07-12T04:00:00","31","9","15,13","3,6","206,4","23,5","77,5","0","0"],
    [12667,"2015-07-12T05:00:00","25","17","14,91","2,1","184,3","23,3","77,9","0","0"],
    [12668,"2015-07-12T06:00:00","40","13","13,29","1,3","49","22,8","80,4","0","0"],
    [12669,"2015-07-12T07:00:00","51","17","14,13","1,6","171,9","23,1","79,3","7,3","0"],
    [12670,"2015-07-12T08:00:00","55","19","16,29","2","106","23","80,9","44,2","0"],
    [12671,"2015-07-12T09:00:00","47","17","37,27","1,2","202,5","25","71,8","179,4","0"],
    [12672,"2015-07-12T10:00:00","35","17","58,05","1,9","209,4","26,8","61,8","284,5","0"],
    [12673,"2015-07-12T11:00:00","32","8","78,75","1,4","202,3","28,1","56,5","305,2","0"],
    [12674,"2015-07-12T12:00:00","31","15","90,01","3","142","29,1","53","253,1","0"],
    [12675,"2015-07-12T13:00:00","45","15","94,37","3,4","130,5","29,3","51,9","196,7","0"],
    [12676,"2015-07-12T14:00:00","64","31","93,8","4,4","111,7","29,3","52","134,5","0"],
    [12677,"2015-07-12T15:00:00","57","17","80,58","4,4","75,9","29,4","50,9","128,4","0"],
    [12678,"2015-07-12T16:00:00","53","20","85,34","2,8","30,2","29,5","50,3","132,2","0"],
    [12679,"2015-07-12T17:00:00","48","17","89,23","4,1","45,1","30,1","48,7","138","0"],
    [12680,"2015-07-12T18:00:00","45","15","53,02","3,5","23,2","29,6","47,2","20","0"],
    [12681,"2015-07-12T19:00:00","30","8","33,81","5","297,4","28,5","47,9","0","0"],
    [12682,"2015-07-12T20:00:00","26","6","28,98","4,8","303","27,9","49,1","0","0"],
    [12683,"2015-07-12T21:00:00","76","17","17,23","2,6","66,7","26,5","57,1","0","0"],
    [12684,"2015-07-12T22:00:00","52","11","15,38","1,3","126,9","25,6","62,9","0","0"],
    [12685,"2015-07-12T23:00:00","35","10","15,95","3,3","83,3","24,3","69","0","0"],
    [12686,"2015-07-13T00:00:00","40","18","18,43","1,2","71,1","24,4","68,1","0","0"],
    [12687,"2015-07-13T01:00:00","27","6","19,7","3,2","98,4","23,8","70,6","0","0"],
    [12688,"2015-07-13T02:00:00","16","6","25,24","2","67,2","23,7","70,9","0","0"],
    [12689,"2015-07-13T03:00:00","47","5","21,08","1,6","131","23,3","72,9","0","0"],
    [12690,"2015-07-13T04:00:00","20","5","18,78","2,1","145,9","23,2","74,3","0","0"],
    [12691,"2015-07-13T05:00:00","20","5","18,07","0,7","139","22,8","75,6","0","0"],
    [12692,"2015-07-13T06:00:00","49","17","14,72","1,1","124,2","22,9","75,4","0","0"],
    [12693,"2015-07-13T07:00:00","66","20","14,36","2","151,4","23","77,4","10,3","0"],
    [12694,"2015-07-13T08:00:00","54","23","18,21","2,7","129,8","23,3","75,8","61,5","0"],
    [12695,"2015-07-13T09:00:00","40","15","25,45","1,7","149,5","24,3","70,7","96,2","0"],
    [12696,"2015-07-13T10:00:00","55","21","40,21","1,9","99,1","26,1","63,3","292,5","0"],
    [12697,"2015-07-13T11:00:00","17","8","60,79","2,5","119","27,7","54,3","384,5","0"],
    [12698,"2015-07-13T12:00:00","44","7","79,16","2,4","161,5","29,4","47,1","433","0"],
    [12699,"2015-07-13T13:00:00","33","16","110,29","0,8","189,4","30,4","41,7","421,9","0"],
    [12700,"2015-07-13T14:00:00","48","ND","110,48","3,1","102,6","31,6","37,3","380,9","0"],
    [12701,"2015-07-13T15:00:00","32","13","108,79","2,6","67","32,5","33,1","271,5","0"],
    [12702,"2015-07-13T16:00:00","55","14","117,88","3,8","6,9","32,3","37","151,8","0"],
    [12703,"2015-07-13T17:00:00","46","8","91,84","4","321","31,8","37,6","117,2","0"],
    [12704,"2015-07-13T18:00:00","ND","ND","69,94","5,7","299","30,8","39,5","38","0"],
    [12705,"2015-07-13T19:00:00","64","14","43,7","5,4","287,6","29,2","45,3","0","0"],
    [12706,"2015-07-13T20:00:00","62","21","30,59","2,6","307,5","27,9","50,6","0","0"],
    [12707,"2015-07-13T21:00:00","99","33","16,27","3,2","81,7","26,1","58,7","0","0"],
    [12708,"2015-07-13T22:00:00","77","18","17,31","2,5","93,3","24,4","67,1","0","0"],
    [12709,"2015-07-13T23:00:00","98","22","15,93","2","107,6","24,6","65,9","0","0"],
    [12710,"2015-07-14T00:00:00","44","8","18,19","2,4","112,1","24,2","67,4","0","0"],
    [12711,"2015-07-14T01:00:00","22","9","24,24","2,6","133,3","24,1","67,2","0","0"],
    [12712,"2015-07-14T02:00:00","28","28","27,41","1,4","108,3","23,9","68,6","0","0"],
    [12713,"2015-07-14T03:00:00","62","25","17,66","1,2","125","23,7","70,1","0","0"],
    [12714,"2015-07-14T04:00:00","101","63","23,63","3","194,9","23,7","71,2","0","0"],
    [12715,"2015-07-14T05:00:00","135","57","18,25","1,6","112,1","23,1","75,1","0","0"],
    [12716,"2015-07-14T06:00:00","93","37","16,01","2","124,3","23,3","73,8","0","0"],
    [12717,"2015-07-14T07:00:00","132","43","15,78","1,6","109,3","23","76,3","8,7","0"],
    [12718,"2015-07-14T08:00:00","77","34","17,94","1,8","159,6","23,6","73,7","57,3","0"],
    [12719,"2015-07-14T09:00:00","71","18","24,8","2,5","181,9","24,3","70,9","96,3","0"],
    [12720,"2015-07-14T10:00:00","62","24","36,21","3,1","171,7","25,4","66,3","133,3","0"],
    [12721,"2015-07-14T11:00:00","44","24","65,52","2,4","198,7","26,7","59,2","243,9","0"],
    [12722,"2015-07-14T12:00:00","52","18","75,55","1,8","135,7","27,7","53,8","251,8","0"],
    [12723,"2015-07-14T13:00:00","59","19","100,61","1,6","114,1","29,3","48,2","402,4","0"],
    [12724,"2015-07-14T14:00:00","49","22","101,77","3,5","110","29,9","45,6","255","0"],
    [12725,"2015-07-14T15:00:00","57","17","115,43","2,6","107,9","30,7","42,6","242,5","0"],
    [12726,"2015-07-14T16:00:00","69","25","94,27","3,3","136,3","30,4","45,2","94,1","0"],
    [12727,"2015-07-14T17:00:00","69","26","104,77","3,6","203,9","30,2","46,8","77","0"],
    [12728,"2015-07-14T18:00:00","49","12","47,2","5,4","274,9","29,1","46,7","29,9","0"],
    [12729,"2015-07-14T19:00:00","57","9","33,01","5","286,3","28,3","47,8","0","0"],
    [12730,"2015-07-14T20:00:00","35","7","27,16","5,1","292,1","27,6","51,9","0","0"],
    [12731,"2015-07-14T21:00:00","59","17","22,7","0,9","280","26,8","55,5","0","0"],
    [12732,"2015-07-14T22:00:00","106","33","17,8","2,9","87,2","24,6","68,4","0","0"],
    [12733,"2015-07-14T23:00:00","59","14","16,8","0,5","84,5","24,3","69,4","0","0"],
    [12734,"2015-07-15T00:00:00","90","28","17,48","3","210,8","24,2","69,5","0","0"],
    [12735,"2015-07-15T01:00:00","67","27","19,7","3","179,2","24","71,5","0","0"],
    [12736,"2015-07-15T02:00:00","48","19","20,78","2,9","179,7","23,6","73,3","0","0"],
    [12737,"2015-07-15T03:00:00","46","24","18,7","2,3","176,6","22,9","76,7","0","0"],
    [12738,"2015-07-15T04:00:00","42","14","21,15","2","212,9","23","75,5","0","0"],
    [12739,"2015-07-15T05:00:00","75","20","15,84","2","120,1","22,2","79,1","0","0"],
    [12740,"2015-07-15T06:00:00","37","17","15,13","1,4","146,1","21,9","79,5","0","0"],
    [12741,"2015-07-15T07:00:00","90","27","15,48","1,9","103,3","21,8","79,5","8","0"],
    [12742,"2015-07-15T08:00:00","85","22","17,58","2","135,4","22,6","75,9","68,2","0"],
    [12743,"2015-07-15T09:00:00","74","19","24,45","2","160,6","23,8","71,3","160","0"],
    [12744,"2015-07-15T10:00:00","75","29","45,96","2,4","109","26","61,7","194,6","0"],
    [12745,"2015-07-15T11:00:00","83","27","54,61","2,9","69,8","26,6","58,5","171,2","0"],
    [12746,"2015-07-15T12:00:00","56","25","77,65","2,8","56,4","28","53,6","382,7","0"],
    [12747,"2015-07-15T13:00:00","59","24","101,26","3,2","79,3","29,3","48,3","362,6","0"],
    [12748,"2015-07-15T14:00:00","75","25","107,13","2,9","85,3","30,5","44,9","324,4","0"],
    [12749,"2015-07-15T15:00:00","73","27","114,33","3","93,7","31","42,4","192,2","0"],
    [12750,"2015-07-15T16:00:00","59","20","99,06","1,4","343,7","30,8","43,1","160,6","0"],
    [12751,"2015-07-15T17:00:00","45","11","66,52","6,5","286,8","29,8","45","55,8","0"],
    [12752,"2015-07-15T18:00:00","42","13","47,04","4,4","290,7","29,2","46,2","5","0"],
    [12753,"2015-07-15T19:00:00","77","31","39,52","0,6","5,4","26,7","64,5","0","1,02"],
    [12754,"2015-07-15T20:00:00","46","13","28,43","2,4","304","26,7","59,1","0","0"],
    [12755,"2015-07-15T21:00:00","65","23","19,53","2,9","43,4","25,5","67,7","0","0"],
    [12756,"2015-07-15T22:00:00","59","9","19,27","2,5","40,4","25,5","65","0","0"],
    [12757,"2015-07-15T23:00:00","57","13","17,43","2,9","94,5","24,3","70,2","0","0"],
    [12758,"2015-07-16T00:00:00","35","10","18,05","1,9","152,5","23,9","71,7","0","0"],
    [12759,"2015-07-16T01:00:00","22","6","20,94","1,1","108,1","23,7","71,5","0","0"],
    [12760,"2015-07-16T02:00:00","24","3","23,14","0,4","83,4","23,6","71,2","0","0"],
    [12761,"2015-07-16T03:00:00","48","26","18,45","1,1","197,8","23,5","74,4","0","0"],
    [12762,"2015-07-16T04:00:00","145","ND","22,9","1,7","167,3","23,3","76,4","0","0"],
    [12763,"2015-07-16T05:00:00","62","24","16,99","0,3","43,2","22,9","78","0","0"],
    [12764,"2015-07-16T06:00:00","77","26","17,9","0,6","62,3","23,2","75,4","0","0"],
    [12765,"2015-07-16T07:00:00","91","29","17,48","1,9","109,6","23,1","77,3","11","0"],
    [12766,"2015-07-16T08:00:00","91","30","19,07","1,8","77,9","23,3","76","60,4","0"],
    [12767,"2015-07-16T09:00:00","44","18","27,32","3,2","148,9","24,6","71,2","156,2","0"],
    [12768,"2015-07-16T10:00:00","49","20","38,62","2,8","145,7","26","66,5","278,3","0"],
    [12769,"2015-07-16T11:00:00","28","12","61,13","1,9","155,7","27,6","57,5","339,5","0"],
    [12770,"2015-07-16T12:00:00","21","8","76,2","2,5","208,7","29,3","50","388,7","0"],
    [12771,"2015-07-16T13:00:00","38","17","78,63","1,9","151,3","30,4","44,9","377,8","0"],
    [12772,"2015-07-16T14:00:00","29","6","90,56","2,7","209,3","31,7","39,8","395,1","0"],
    [12773,"2015-07-16T15:00:00","39","14","86,68","2,3","120,2","32","38,5","230,7","0"],
    [12774,"2015-07-16T16:00:00","36","12","90,72","2,5","224,4","31,9","34,6","89,4","0"],
    [12775,"2015-07-16T17:00:00","77","21","63,38","3,9","56,4","32","38,8","82,4","0"],
    [12776,"2015-07-16T18:00:00","79","18","47,51","4,8","1,5","30,4","42,3","27,9","0"],
    [12777,"2015-07-16T19:00:00","76","19","24,14","4,1","332","28,9","45,2","0","0"],
    [12778,"2015-07-16T20:00:00","63","12","21,51","1,5","292,3","27,7","48,9","0","0"],
    [12779,"2015-07-16T21:00:00","80","17","21,08","3,2","98,7","25,6","61,6","0","0"],
    [12780,"2015-07-16T22:00:00","88","17","21,04","2,9","92,1","25","64,3","0","0"],
    [12781,"2015-07-16T23:00:00","56","10","26,06","3","45,3","24,6","67,3","0","0"],
    [12782,"2015-07-17T00:00:00","17","11","26,26","0,7","52,9","24,1","68,9","0","0"],
    [12783,"2015-07-17T01:00:00","40","8","26,77","1,3","100,7","23,3","72,7","0","0"],
    [12784,"2015-07-17T02:00:00","38","5","26,85","0,8","172,2","23,7","71,1","0","0"],
    [12785,"2015-07-17T03:00:00","33","8","25,59","1,6","154,4","23,3","72,9","0","0"],
    [12786,"2015-07-17T04:00:00","46","10","22,74","2,8","119,9","23","75","0","0"],
    [12787,"2015-07-17T05:00:00","49","11","19,15","2,8","141,7","22,8","76,6","0","0"],
    [12788,"2015-07-17T06:00:00","81","18","17,74","0,6","184,6","22,3","79,5","0","0"],
    [12789,"2015-07-17T07:00:00","80","23","18,84","0,7","4,8","22,7","77,6","13,9","0"],
    [12790,"2015-07-17T08:00:00","122","50","23,02","1,4","131,8","23,8","73,5","93,8","0"],
    [12791,"2015-07-17T09:00:00","61","22","40,68","2,9","167,1","25,2","65,5","198,2","0"],
    [12792,"2015-07-17T10:00:00","51","15","57,16","2,8","132,8","26,4","59,5","280,1","0"],
    [12793,"2015-07-17T11:00:00","44","11","71,49","2,8","106,5","28,3","49,5","376,4","0"],
    [12794,"2015-07-17T12:00:00","28","8","98,2","1,2","179,8","29,6","43,8","406","0"],
    [12795,"2015-07-17T13:00:00","34","14","97,47","1,3","178","31,5","35,6","431,2","0"],
    [12796,"2015-07-17T14:00:00","26","12","92,41","2,9","148,5","32,6","30,7","440","0"],
    [12797,"2015-07-17T15:00:00","29","10","88,66","3","133,2","33,4","28,5","272,4","0"],
    [12798,"2015-07-17T16:00:00","55","13","99,12","1,5","25,3","32,6","33,4","145,5","0"],
    [12799,"2015-07-17T17:00:00","48","15","80,73","4,4","72,1","32,5","35,9","126,1","0"],
    [12800,"2015-07-17T18:00:00","69","16","58,2","2,3","24","31,3","39,5","38","0"],
    [12801,"2015-07-17T19:00:00","79","18","44,68","3,7","318,8","29,3","43,8","0","0"],
    [12802,"2015-07-17T20:00:00","99","36","31,93","4,2","301,7","28,2","47,7","0","0"],
    [12803,"2015-07-17T21:00:00","90","27","24,63","1,6","73,3","26,6","54,7","0","0"],
    [12804,"2015-07-17T22:00:00","71","17","23,59","3","94,1","25,3","62,4","0","0"],
    [12805,"2015-07-17T23:00:00","49","16","26,26","3,6","106,8","25,4","62,8","0","0"],
    [12806,"2015-07-18T00:00:00","45","10","27,22","1,8","118,5","25,1","63,5","0","0"],
    [12807,"2015-07-18T01:00:00","29","9","32,32","1,6","49,7","24,8","63,5","0","0"],
    [12808,"2015-07-18T02:00:00","26","6","28,42","1,9","112,2","24,4","66,2","0","0"],
    [12809,"2015-07-18T03:00:00","29","9","28,42","2","123,1","23,9","68,5","0","0"],
    [12810,"2015-07-18T04:00:00","56","16","24,49","2,1","141,6","23,8","69,9","0","0"],
    [12811,"2015-07-18T05:00:00","71","26","23,1","2,2","166,4","23,4","71,4","0","0"],
    [12812,"2015-07-18T06:00:00","71","35","20,66","1,4","167,6","22,7","73,8","0","0"],
    [12813,"2015-07-18T07:00:00","89","35","19,94","2","140,9","22,6","74,6","5,4","0"],
    [12814,"2015-07-18T08:00:00","97","37","21,8","2,1","162","23,3","72,6","57,8","0"],
    [12815,"2015-07-18T09:00:00","69","22","33,42","3,4","168,1","24,4","66,4","117,8","0"],
    [12816,"2015-07-18T10:00:00","69","19","50,33","2,3","161,6","25,5","62,7","170,8","0"],
    [12817,"2015-07-18T11:00:00","69","33","66,43","2,2","99,3","26,6","57,5","187,3","0"],
    [12818,"2015-07-18T12:00:00","79","34","83,11","3,1","154,7","27,7","54,8","210,2","0"],
    [12819,"2015-07-18T13:00:00","89","29","96,96","3,6","172,2","28,9","52,1","339","0"],
    [12820,"2015-07-18T14:00:00","102","34","82,77","3,5","150,1","28,1","54,9","125,8","0"],
    [12821,"2015-07-18T15:00:00","67","25","99,1","2,3","92,5","29,3","50,6","295,4","0"],
    [12822,"2015-07-18T16:00:00","68","31","115,35","3","58","30,5","45,2","209,9","0"],
    [12823,"2015-07-18T17:00:00","88","28","93,8","4,5","76,2","30,2","45,7","53","0"],
    [12824,"2015-07-18T18:00:00","61","17","42,03","4,1","63,5","29,2","50,1","19,9","0"],
    [12825,"2015-07-18T19:00:00","57","15","33,54","3,5","342,6","28,1","50,8","0","0"],
    [12826,"2015-07-18T20:00:00","39","3","37,74","6,1","301,5","27,5","51,7","0","0"],
    [12827,"2015-07-18T21:00:00","50","12","27,57","3,2","74,2","26,1","59,6","0","0"],
    [12828,"2015-07-18T22:00:00","40","11","27,39","2,6","44,1","25","65,6","0","0"],
    [12829,"2015-07-18T23:00:00","57","9","26,43","3,5","80,2","24,7","67,2","0","0"],
    [12830,"2015-07-19T00:00:00","31","5","26,51","2,2","101","24,1","69,8","0","0"],
    [12831,"2015-07-19T01:00:00","24","5","26,67","3,1","106","23,4","72,3","0","0"],
    [12832,"2015-07-19T02:00:00","22","4","27,49","2,5","76,7","23,1","73,5","0","0"],
    [12833,"2015-07-19T03:00:00","12","1","31,55","1,9","19,7","23","73,3","0","0"],
    [12834,"2015-07-19T04:00:00","12","4","29,87","1,3","68,6","23","73","0","0"],
    [12835,"2015-07-19T05:00:00","13","5","28,94","1,4","131,7","23","73,1","0","0"],
    [12836,"2015-07-19T06:00:00","28","11","23,76","2,1","193,9","23","73,5","0","0"],
    [12837,"2015-07-19T07:00:00","63","22","23,25","2,5","188,8","22,6","76,2","8,9","0"],
    [12838,"2015-07-19T08:00:00","57","19","27,14","1,8","155,1","23,3","74","56,2","0"],
    [12839,"2015-07-19T09:00:00","61","18","36,05","3,1","162,8","24,5","69,1","184,3","0"],
    [12840,"2015-07-19T10:00:00","39","18","52,85","3,7","178,2","26","62,1","229","0"],
    [12841,"2015-07-19T11:00:00","43","15","70,9","2","179,1","26,7","58,2","251,3","0"],
    [12842,"2015-07-19T12:00:00","42","14","90,82","1,2","97","27,9","53","296,6","0"],
    [12843,"2015-07-19T13:00:00","50","21","115,15","3,5","100,1","28,9","49,3","295,9","0"],
    [12844,"2015-07-19T14:00:00","56","18","106,26","4,3","47,9","30,3","44,8","395,7","0"],
    [12845,"2015-07-19T15:00:00","40","16","106,38","4","36","30,9","42,1","252,9","0"],
    [12846,"2015-07-19T16:00:00","35","14","101,2","2","63,5","30,9","42,1","168,1","0"],
    [12847,"2015-07-19T17:00:00","38","11","90,39","1,7","101,4","31,1","40,4","137,9","0"],
    [12848,"2015-07-19T18:00:00","36","8","55,44","6,6","287,1","29,6","43,4","18,2","0"],
    [12849,"2015-07-19T19:00:00","40","6","47,31","7,1","292","28,2","48,8","0","0"],
    [12850,"2015-07-19T20:00:00","32","6","36,13","4,2","319,4","27,4","52,7","0","0"],
    [12851,"2015-07-19T21:00:00","63","13","28,24","4,3","98,7","26","60,7","0","0"],
    [12852,"2015-07-19T22:00:00","59","11","23,96","2,3","87,8","25,1","66,7","0","0"],
    [12853,"2015-07-19T23:00:00","56","9","23,71","0,4","41,4","25,3","64,7","0","0"],
    [12854,"2015-07-20T00:00:00","43","7","24,88","2","130,9","24,5","68,7","0","0"],
    [12855,"2015-07-20T01:00:00","36","5","26,57","2,7","133,4","23,7","72,2","0","0"],
    [12856,"2015-07-20T02:00:00","25","6","33,79","3,6","156,1","23,9","70,7","0","0"],
    [12857,"2015-07-20T03:00:00","7","5","37,46","4,7","150,8","22,4","77,6","0","12,19"],
    [12858,"2015-07-20T04:00:00","4","1","37,6","3,8","209,5","21","85,4","0","30,23"],
    [12859,"2015-07-20T05:00:00","3","1","28,89","2,1","94,8","20,9","86,8","0","13,72"],
    [12860,"2015-07-20T06:00:00","6","2","29,46","2,9","50,1","20,7","87,8","0","4,57"],
    [12861,"2015-07-20T07:00:00","4","ND","28,1","2,9","55,1","20,6","88,3","5,3","1,02"],
    [12862,"2015-07-20T08:00:00","3","1","27,22","3","66","21","88,7","40,5","0,25"],
    [12863,"2015-07-20T09:00:00","11","2","34,64","2,4","12","21,8","85,8","83,4","0"],
    [12864,"2015-07-20T10:00:00","10","1","44,57","1,2","33,5","23","79,5","237,1","0"],
    [12865,"2015-07-20T11:00:00","16","8","55,48","1,5","91,4","24,6","69,4","352,1","0"],
    [12866,"2015-07-20T12:00:00","16","6","66,41","1,7","84,1","26,5","61,1","442","0"],
    [12867,"2015-07-20T13:00:00","13","4","75,88","2,4","60,3","27,8","53","431,4","0"],
    [12868,"2015-07-20T14:00:00","12","1","74,22","4,4","92","28,7","49,5","340,8","0"],
    [12869,"2015-07-20T15:00:00","23","2","67,19","5,9","70,5","28,4","51,9","215,4","0"],
    [12870,"2015-07-20T16:00:00","23","2","78,06","6,2","40,4","28,6","52,4","240","0"],
    [12871,"2015-07-20T17:00:00","25","2","47,74","6,1","52,2","28,2","51,2","105,5","0"],
    [12872,"2015-07-20T18:00:00","12","3","48,47","4,2","20,5","28,2","48,1","73,8","0"],
    [12873,"2015-07-20T19:00:00","34","11","29,26","3,2","51,7","27","54,3","0","0"],
    [12874,"2015-07-20T20:00:00","21","6","28,85","4,5","49,8","25,2","65","0","0"],
    [12875,"2015-07-20T21:00:00","33","6","25,41","4,3","59,4","24,3","69,7","0","0"],
    [12876,"2015-07-20T22:00:00","30","10","25,61","1,4","104,5","23,7","72,2","0","0"],
    [12877,"2015-07-20T23:00:00","23","6","25,35","2,8","60","23,7","72","0","0"],
    [12878,"2015-07-21T00:00:00","14","2","29,08","3","36","22,8","77,9","0","0"],
    [12879,"2015-07-21T01:00:00","14","4","32,65","2,1","56,2","22,2","78,8","0","0"],
    [12880,"2015-07-21T02:00:00","6","3","30,46","2,7","129,1","21,5","81,9","0","0"],
    [12881,"2015-07-21T03:00:00","5","4","34,13","1,8","126,6","21,4","81,4","0","0"],
    [12882,"2015-07-21T04:00:00","4","2","32,22","0,5","119,5","21,3","81,9","0","0"],
    [12883,"2015-07-21T05:00:00","25","5","23,18","2,8","39,2","20,9","83,5","0","0"],
    [12884,"2015-07-21T06:00:00","20","5","20,94","3,6","354,1","20,5","86,2","0","0"],
    [12885,"2015-07-21T07:00:00","60","18","19,86","2","57,7","21,1","84,9","7,8","0"],
    [12886,"2015-07-21T08:00:00","37","15","21,43","3,4","88,5","21,4","84,9","62","0"],
    [12887,"2015-07-21T09:00:00","38","13","32,1","1,9","168,6","23,1","78","201,9","0"],
    [12888,"2015-07-21T10:00:00","29","14","50,3","0,9","145","24,6","68","303,2","0"],
    [12889,"2015-07-21T11:00:00","30","11","59,66","2,3","148,2","26,1","61,5","312,2","0"],
    [12890,"2015-07-21T12:00:00","28","10","79,4","3","101","27,6","53,6","429,2","0"],
    [12891,"2015-07-21T13:00:00","29","ND","94,61","2,9","114,9","28,9","47,8","368,8","0"],
    [12892,"2015-07-21T14:00:00","27","ND","103,2","3,7","109,1","29,8","45,6","380,4","0"],
    [12893,"2015-07-21T15:00:00","32","ND","116,9","3,3","100,4","30","44,9","176,7","0"],
    [12894,"2015-07-21T16:00:00","35","17","130,52","1,8","94,2","30,2","44,6","162,5","0"],
    [12895,"2015-07-21T17:00:00","43","16","109,72","2,4","18,8","30,1","46","91","0"],
    [12896,"2015-07-21T18:00:00","28","4","64,35","5,3","294,6","29,4","47,1","48,3","0"],
    [12897,"2015-07-21T19:00:00","36","13","35,34","5,4","295,9","28,3","49,6","0","0"],
    [12898,"2015-07-21T20:00:00","59","21","23,16","1,6","2","27,5","55,4","0","0"],
    [12899,"2015-07-21T21:00:00","38","10","20,51","3,4","83,5","25","71,6","0","0"],
    [12900,"2015-07-21T22:00:00","66","21","18,98","2,5","77,7","24,5","73,6","0","0"],
    [12901,"2015-07-21T23:00:00","20","2","20,82","1,8","70,7","24,5","70,5","0","0"],
    [12902,"2015-07-22T00:00:00","36","5","19,72","2,3","192,3","24,4","72","0","0"],
    [12903,"2015-07-22T01:00:00","20","4","19,07","1,6","106,4","23,6","77","0","0"],
    [12904,"2015-07-22T02:00:00","20","3","21,55","1,5","115,8","23,9","74,5","0","2,54"],
    [12905,"2015-07-22T03:00:00","12","2","21,25","1,2","82,4","22,5","83,6","0","3,05"],
    [12906,"2015-07-22T04:00:00","29","9","20,13","1,6","48,8","22,5","84,7","0","0"],
    [12907,"2015-07-22T05:00:00","14","8","19,11","1,9","64,6","22,6","83,4","0","0,25"],
    [12908,"2015-07-22T06:00:00","22","6","18,51","1,4","76,6","22,3","85,2","0","0"],
    [12909,"2015-07-22T07:00:00","40","17","18,86","2,3","72,8","22,3","85,4","6,5","0"],
    [12910,"2015-07-22T08:00:00","40","ND","21,1","2,7","32,8","22,5","85,3","48,3","0"],
    [12911,"2015-07-22T09:00:00","29","10","25,47","2,4","72,1","23,5","80,7","108,1","0"],
    [12912,"2015-07-22T10:00:00","22","6","30,97","3,1","57,9","24,1","77,4","152,2","0"],
    [12913,"2015-07-22T11:00:00","28","12","45,33","2","135,7","25,4","70,6","257,5","0"],
    [12914,"2015-07-22T12:00:00","33","10","72,67","1,5","164,5","27,2","62,3","361,8","0"],
    [12915,"2015-07-22T13:00:00","30","15","90,11","2,5","176,4","28,6","54,7","418,9","0"],
    [12916,"2015-07-22T14:00:00","35","17","93,96","1,2","133,2","29,9","49,1","345,5","0"],
    [12917,"2015-07-22T15:00:00","45","ND","98,31","2,5","102,1","30,1","48,9","173,2","0"],
    [12918,"2015-07-22T16:00:00","46","17","109,15","3,1","29,8","30,5","47,9","124,5","0"],
    [12919,"2015-07-22T17:00:00","29","6","66,8","4","300,3","30,2","46,4","118","0"],
    [12920,"2015-07-22T18:00:00","20","4","44,29","5,6","290","29,3","46,1","48,5","0"],
    [12921,"2015-07-22T19:00:00","28","7","26,98","5,2","316,6","28","49,9","0","0"],
    [12922,"2015-07-22T20:00:00","77","33","22,49","3,4","83,4","25,9","62,3","0","0"],
    [12923,"2015-07-22T21:00:00","33","8","22,19","1","164,2","25,5","64,3","0","0"],
    [12924,"2015-07-22T22:00:00","31","8","23,69","3,7","160,8","24","74,1","0","0,25"],
    [12925,"2015-07-22T23:00:00","26","5","27,51","5,5","141,3","23","77,3","0","0"],
    [12926,"2015-07-23T00:00:00","14","2","30,93","3","203,5","22,4","79,9","0","0,51"],
    [12927,"2015-07-23T01:00:00","16","7","30,2","2,2","234,1","22","80,7","0","0"],
    [12928,"2015-07-23T02:00:00","12","5","26,96","1,5","135,7","22","81,1","0","0"],
    [12929,"2015-07-23T03:00:00","16","5","23,31","1,8","141","21,2","85","0","0"],
    [12930,"2015-07-23T04:00:00","25","4","20,92","2,3","116","20,9","86,4","0","0"],
    [12931,"2015-07-23T05:00:00","22","2","20,02","2,1","176","20,9","87,1","0","0"],
    [12932,"2015-07-23T06:00:00","36","15","19,62","0,7","129,3","21,1","86,8","0","0"],
    [12933,"2015-07-23T07:00:00","38","8","19,74","1,5","215,8","21,5","85,5","6,6","0"],
    [12934,"2015-07-23T08:00:00","42","12","21,17","2,4","162,2","22","83,4","47,2","0"],
    [12935,"2015-07-23T09:00:00","47","17","29,3","0,9","23","23,1","79,2","128","0"],
    [12936,"2015-07-23T10:00:00","45","15","36,68","2,5","104,8","24,4","73,1","164,7","0"],
    [12937,"2015-07-23T11:00:00","15","6","41,84","2,5","114,9","25,6","66","252,7","0"],
    [12938,"2015-07-23T12:00:00","38","10","52,89","1,8","120","27","60,5","248,9","0"],
    [12939,"2015-07-23T13:00:00","30","15","92,6","1,2","90,5","28,1","54,5","430,6","0"],
    [12940,"2015-07-23T14:00:00","28","13","118,82","1,3","122,3","29,5","48,3","330,9","0"],
    [12941,"2015-07-23T15:00:00","36","10","116,84","3","133,6","30,4","44,2","341,6","0"],
    [12942,"2015-07-23T16:00:00","46","22","98,1","4,3","81,3","30,1","45,4","100","0"],
    [12943,"2015-07-23T17:00:00","49","19","76,06","0,2","88,7","29,1","48,3","58","0"],
    [12944,"2015-07-23T18:00:00","32","10","69,59","4,9","284,4","28,8","47,7","65","0"],
    [12945,"2015-07-23T19:00:00","37","6","47,72","4,5","290","27,9","50,3","0","0"],
    [12946,"2015-07-23T20:00:00","56","25","30,55","2,7","25,2","26,9","55,1","0","0"],
    [12947,"2015-07-23T21:00:00","46","7","34,28","2,3","57,3","24,9","64,8","0","0"],
    [12948,"2015-07-23T22:00:00","42","13","28,16","3,1","69,6","23,9","69,6","0","0"],
    [12949,"2015-07-23T23:00:00","42","9","24,96","3,9","81,6","23,1","73,4","0","0"],
    [12950,"2015-07-24T00:00:00","41","12","25,04","1,9","34,5","22,8","74,3","0","0"],
    [12951,"2015-07-24T01:00:00","36","9","25,82","2,1","200,3","22,7","74,7","0","0"],
    [12952,"2015-07-24T02:00:00","40","10","26,86","1,6","207,7","22,3","76,4","0","0"],
    [12953,"2015-07-24T03:00:00","32","8","26,24","1,8","201,8","22,1","79","0","0"],
    [12954,"2015-07-24T04:00:00","42","12","22,31","2,6","86","20,8","82","0","0"],
    [12955,"2015-07-24T05:00:00","63","18","21,61","2,6","77,9","20,1","84,5","0","0"],
    [12956,"2015-07-24T06:00:00","98","39","22,41","2,9","340,1","20,2","83,9","0","0"],
    [12957,"2015-07-24T07:00:00","90","32","23,45","1,8","17,7","19,8","82,7","9,7","0"],
    [12958,"2015-07-24T08:00:00","59","23","24,12","1,3","11,8","20,2","81,2","33,6","0"],
    [12959,"2015-07-24T09:00:00","70","24","26,08","2,3","74,6","21","79,4","74,9","0"],
    [12960,"2015-07-24T10:00:00","62","19","27,9","2,4","90,4","22,2","77,4","122,9","0"],
    [12961,"2015-07-24T11:00:00","62","19","42,88","3,4","100,6","24,1","69,2","255,6","0"],
    [12962,"2015-07-24T12:00:00","53","13","54,22","3,5","48,7","25,4","61,5","229,6","0"],
    [12963,"2015-07-24T13:00:00","40","17","77,87","3,2","26,2","26,6","56,4","379,5","0"],
    [12964,"2015-07-24T14:00:00","35","13","86,05","3","88,9","28,3","49,3","336","0"],
    [12965,"2015-07-24T15:00:00","40","14","94,37","2,7","81,4","30","41,1","263,9","0"],
    [12966,"2015-07-24T16:00:00","24","11","96,06","2,5","33,3","31,6","33,9","261,7","0"],
    [12967,"2015-07-24T17:00:00","50","9","83,28","2,4","86,3","32,5","31,1","152,3","0"],
    [12968,"2015-07-24T18:00:00","60","18","54,67","3,5","79,1","32,1","32,9","51,9","0"],
    [12969,"2015-07-24T19:00:00","92","24","49,22","2,7","25,7","30,2","40,9","0","0"],
    [12970,"2015-07-24T20:00:00","123","31","30,22","2,2","300,6","28,9","45,7","0","0"],
    [12971,"2015-07-24T21:00:00","76","22","26,02","2,4","312,2","28","51,1","0","0"],
    [12972,"2015-07-24T22:00:00","91","27","18,05","2,7","112,5","25,4","64","0","0"],
    [12973,"2015-07-24T23:00:00","72","22","19,29","1,8","154,3","24,2","70,5","0","0"],
    [12974,"2015-07-25T00:00:00","107","32","18,33","1,8","201","23,7","70,8","0","0"],
    [12975,"2015-07-25T01:00:00","87","27","18,96","2,2","191,6","23,1","71,5","0","0"],
    [12976,"2015-07-25T02:00:00","76","32","22,53","1,5","206,6","23,1","69,8","0","0"],
    [12977,"2015-07-25T03:00:00","71","28","21,9","0,9","112,7","22,5","72,1","0","0"],
    [12978,"2015-07-25T04:00:00","57","26","23,06","0,9","117,4","21,5","74,9","0","0"],
    [12979,"2015-07-25T05:00:00","69","27","22,49","1,2","61","20,8","78,9","0","0"],
    [12980,"2015-07-25T06:00:00","93","38","21,27","2,2","124,9","20,3","80,4","0","0"],
    [12981,"2015-07-25T07:00:00","88","33","21,59","0,5","242,1","20,9","75,7","9,9","0"],
    [12982,"2015-07-25T08:00:00","97","36","24,9","1,3","209,1","22","68,6","60","0"],
    [12983,"2015-07-25T09:00:00","140","34","30,44","2,3","168,3","23,2","65,9","104,1","0"],
    [12984,"2015-07-25T10:00:00","113","38","39,66","3,2","118,5","23,7","67,3","153,3","0"],
    [12985,"2015-07-25T11:00:00","76","30","63,84","2,5","107,6","25,9","55,1","281,2","0"],
    [12986,"2015-07-25T12:00:00","49","7","88,7","1,9","84,2","28,5","42,6","447,9","0"],
    [12987,"2015-07-25T13:00:00","62","21","110,76","1,9","112,1","31,2","38","447,5","0"],
    [12988,"2015-07-25T14:00:00","58","17","99,34","3,6","161,1","33,6","29,8","396,6","0"],
    [12989,"2015-07-25T15:00:00","44","3","74,18","4,7","175,7","35,1","24,1","345,3","0"],
    [12990,"2015-07-25T16:00:00","23","5","65,33","4,3","186,5","35,5","21,5","259,2","0"],
    [12991,"2015-07-25T17:00:00","26","4","68,68","4,3","192,3","35,6","22,7","155,1","0"],
    [12992,"2015-07-25T18:00:00","37","3","65,33","4,3","203","35","23,5","54,3","0"],
    [12993,"2015-07-25T19:00:00","56","8","36,79","3,7","222,3","32,8","26,1","0","0"],
    [12994,"2015-07-25T20:00:00","77","21","35,62","2","282,5","30,8","39,7","0","0"],
    [12995,"2015-07-25T21:00:00","97","38","25,77","1,9","47,7","28,6","51,1","0","0"],
    [12996,"2015-07-25T22:00:00","86","19","20,41","4,3","83,4","26,6","61,7","0","0"],
    [12997,"2015-07-25T23:00:00","98","36","20,74","3,3","79,7","25,2","69,8","0","0"],
    [12998,"2015-07-26T00:00:00","46","17","22,31","1,6","95,4","25,1","69,8","0","0"],
    [12999,"2015-07-26T01:00:00","52","9","25,86","2,3","90,6","24,9","70,3","0","0"],
    [13000,"2015-07-26T02:00:00","50","14","23,86","1,5","152,4","24,2","72,8","0","0"],
    [13001,"2015-07-26T03:00:00","59","16","24,8","1,6","188,3","23,7","73,5","0","0"],
    [13002,"2015-07-26T04:00:00","62","23","22,57","0,5","95,2","23,3","73,5","0","0"],
    [13003,"2015-07-26T05:00:00","70","24","21,96","1,4","133,3","22","78","0","0"],
    [13004,"2015-07-26T06:00:00","72","26","21,86","2,1","150","21","76,7","0","0"],
    [13005,"2015-07-26T07:00:00","66","20","22,49","1,5","164,9","21","69,6","12,7","0"],
    [13006,"2015-07-26T08:00:00","69","22","24,31","1,3","125,3","21,1","70,4","55,5","0"],
    [13007,"2015-07-26T09:00:00","64","21","31,34","3,4","186,1","22,7","65,5","125,7","0"],
    [13008,"2015-07-26T10:00:00","53","17","54,83","3,3","223,7","25","60,2","211,1","0"],
    [13009,"2015-07-26T11:00:00","44","12","85,58","0,9","123","27,5","52,2","363,2","0"],
    [13010,"2015-07-26T12:00:00","34","12","93,98","3","52","29,4","48,3","395,6","0"],
    [13011,"2015-07-26T13:00:00","33","8","102,16","3,6","40,6","30,9","43","432,8","0"],
    [13012,"2015-07-26T14:00:00","34","7","99,34","3,3","57,3","32","38,3","327,4","0"],
    [13013,"2015-07-26T15:00:00","35","8","102,16","3,8","50,7","33,1","34,5","305,1","0"],
    [13014,"2015-07-26T16:00:00","34","12","112,7","3,5","41,7","33,3","33,7","155,4","0"],
    [13015,"2015-07-26T17:00:00","34","11","79,85","3,9","317,9","31,8","41,1","62,7","0"],
    [13016,"2015-07-26T18:00:00","47","16","58,48","3,2","347,2","30,8","44,2","17","0"],
    [13017,"2015-07-26T19:00:00","45","8","52,47","4,8","293,3","29,2","49,4","0","0"],
    [13018,"2015-07-26T20:00:00","72","17","37,23","1,3","10,6","28","54,3","0","0"],
    [13019,"2015-07-26T21:00:00","54","12","27,38","2,5","80,7","26,3","61,8","0","0"],
    [13020,"2015-07-26T22:00:00","37","10","28,12","2,8","98,9","26,1","62,4","0","0"],
    [13021,"2015-07-26T23:00:00","64","18","27,38","2,7","78,7","25,1","66,9","0","0"],
    [13022,"2015-07-27T00:00:00","32","10","28,93","0,8","54,4","25","68,1","0","0"],
    [13023,"2015-07-27T01:00:00","28","6","28,2","2,5","121,3","24,4","70,1","0","0"],
    [13024,"2015-07-27T02:00:00","29","5","28,75","2,1","206,8","24,3","70,4","0","0"],
    [13025,"2015-07-27T03:00:00","55","15","27,2","2,7","206","24","71,5","0","0"],
    [13026,"2015-07-27T04:00:00","59","15","23,63","1,8","121,8","23,2","75,2","0","0"],
    [13027,"2015-07-27T05:00:00","67","18","22,7","2,2","169,4","22,4","78,1","0","0"],
    [13028,"2015-07-27T06:00:00","71","17","22,69","2","137,4","21,8","79,7","0","0"],
    [13029,"2015-07-27T07:00:00","119","35","24","2,6","71,6","21,7","79,5","10,6","0"],
    [13030,"2015-07-27T08:00:00","117","27","26,1","1,8","75,8","22,4","76,8","69","0"],
    [13031,"2015-07-27T09:00:00","69","24","34,34","3,3","136,8","24,4","67,9","192,8","0"],
    [13032,"2015-07-27T10:00:00","50","14","59,15","2,1","153,6","26,3","60,5","296,9","0"],
    [13033,"2015-07-27T11:00:00","56","15","90,76","1","154,6","28,3","53","378,7","0"],
    [13034,"2015-07-27T12:00:00","ND","41","103,52","2,5","77","30,1","46,8","400,1","0"],
    [13035,"2015-07-27T13:00:00","40","20","109,68","3,2","83,6","31,4","41,8","426,1","0"],
    [13036,"2015-07-27T14:00:00","36","8","102,1","3,1","84,3","32,5","37,8","354,7","0"],
    [13037,"2015-07-27T15:00:00","29","6","98,31","4","119,7","32,7","36,7","212,8","0"],
    [13038,"2015-07-27T16:00:00","45","17","87,21","5,4","92,2","32,6","37,2","159,4","0"],
    [13039,"2015-07-27T17:00:00","60","19","68,21","3,5","76,2","32","39,9","43,2","0"],
    [13040,"2015-07-27T18:00:00","76","17","57,95","1,7","306,2","30,9","44,7","15,9","0"],
    [13041,"2015-07-27T19:00:00","55","10","53,71","4,1","292,1","29,5","48,4","0","0"],
    [13042,"2015-07-27T20:00:00","65","19","36,38","1,3","356,8","28,2","54,1","0","0"],
    [13043,"2015-07-27T21:00:00","97","42","28,71","2,2","82,9","26,7","62","0","0"],
    [13044,"2015-07-27T22:00:00","52","18","30,48","3","121,9","25,5","67","0","0"],
    [13045,"2015-07-27T23:00:00","51","9","31,06","1,3","102,7","24,9","69,1","0","0"],
    [13046,"2015-07-28T00:00:00","73","25","26,94","0,9","258,4","24,3","71,9","0","0"],
    [13047,"2015-07-28T01:00:00","49","ND","29,73","2,4","199,1","24,1","73,1","0","0"],
    [13048,"2015-07-28T02:00:00","62","ND","30,4","2,7","236,4","24,2","71,7","0","0"],
    [13049,"2015-07-28T03:00:00","54","ND","26,12","2,9","95,5","23","76,3","0","0"],
    [13050,"2015-07-28T04:00:00","105","ND","25,2","3","120,6","22,3","79,4","0","0"],
    [13051,"2015-07-28T05:00:00","83","ND","23,76","1,9","180","22,1","79,7","0","0"],
    [13052,"2015-07-28T06:00:00","54","ND","23,51","1,4","206,9","22,5","77","0","0"],
    [13053,"2015-07-28T07:00:00","91","ND","24,31","2,4","197,8","22,9","75,6","16,7","0"],
    [13054,"2015-07-28T08:00:00","92","ND","27,1","3,5","162,1","23,4","75","95,8","0"],
    [13055,"2015-07-28T09:00:00","72","ND","41,88","3,1","189,8","25,5","64,9","214","0"],
    [13056,"2015-07-28T10:00:00","61","ND","64,42","2,7","169,5","27,3","57,5","282,8","0"],
    [13057,"2015-07-28T11:00:00","47","ND","87,54","2,6","183,1","28,7","52,6","305,2","0"],
    [13058,"2015-07-28T12:00:00","37","ND","92,49","1,7","144,2","29,9","47,6","405","0"],
    [13059,"2015-07-28T13:00:00","33","ND","93,29","2,1","181,7","31,1","40,1","333,4","0"],
    [13060,"2015-07-28T14:00:00","39","ND","91,62","3,8","85,8","32,1","37,2","392,2","0"],
    [13061,"2015-07-28T15:00:00","43","ND","96,61","5,5","65","32,7","36,1","254,1","0"],
    [13062,"2015-07-28T16:00:00","69","ND","86,4","5,2","29","31,8","41","93,8","0"],
    [13063,"2015-07-28T17:00:00","41","ND","73,69","4,9","300,4","30,5","43,8","71,2","0"],
    [13064,"2015-07-28T18:00:00","48","ND","58,56","5,8","284,1","29,6","45,7","27,7","0"],
    [13065,"2015-07-28T19:00:00","48","ND","43,86","5,1","292,3","28,9","47,6","0","0"],
    [13066,"2015-07-28T20:00:00","25","ND","39,68","3,7","299,5","28,2","50,7","0","0"],
    [13067,"2015-07-28T21:00:00","48","ND","30,42","3,3","53,5","26,6","60,1","0","0"],
    [13068,"2015-07-28T22:00:00","42","ND","29,16","1,4","185,6","25,6","66,1","0","0"],
    [13069,"2015-07-28T23:00:00","41","ND","31,36","1,5","159,9","24,6","72,9","0","0"],
    [13070,"2015-07-29T00:00:00","33","ND","30,83","1,8","144,7","24,4","72","0","0"],
    [13071,"2015-07-29T01:00:00","30","ND","31,04","3,4","183,8","23,3","78","0","0"],
    [13072,"2015-07-29T02:00:00","22","ND","36,68","1,3","228,1","23","75,9","0","0"],
    [13073,"2015-07-29T03:00:00","28","ND","35,42","2,9","180,9","23,1","75,1","0","0"],
    [13074,"2015-07-29T04:00:00","16","ND","31,87","1,8","152,8","22,3","81,4","0","0"],
    [13075,"2015-07-29T05:00:00","24","ND","28,87","2,8","130,9","22,4","81,1","0","0"],
    [13076,"2015-07-29T06:00:00","45","ND","24,37","1,7","222,6","21,9","83,6","0","0"],
    [13077,"2015-07-29T07:00:00","59","ND","23,8","1,3","163,5","22,3","82,4","11,3","0"],
    [13078,"2015-07-29T08:00:00","49","ND","26,06","3,4","184,9","22,7","79,7","47,6","0"],
    [13079,"2015-07-29T09:00:00","47","ND","32,44","3,4","192","23,4","76,4","75,5","0"],
    [13080,"2015-07-29T10:00:00","36","ND","40,25","1,9","164,9","24,4","72,9","137,4","0"],
    [13081,"2015-07-29T11:00:00","29","ND","59,81","1,6","176,3","25,9","65,2","212,1","0"],
    [13082,"2015-07-29T12:00:00","23","ND","85,01","0,9","222,1","27,4","58,5","338","0"],
    [13083,"2015-07-29T13:00:00","37","ND","90,17","1,8","72,5","29,1","52,1","355,6","0"],
    [13084,"2015-07-29T14:00:00","28","ND","92,53","3,1","38,9","30,1","46,5","355,1","0"],
    [13085,"2015-07-29T15:00:00","36","ND","89,66","4,1","106,2","30,9","43,9","260,5","0"],
    [13086,"2015-07-29T16:00:00","43","ND","101,1","4","135,9","31,4","40,5","235,9","0"],
    [13087,"2015-07-29T17:00:00","44","ND","98,43","4,3","161,2","31,5","39,9","146,8","0"],
    [13088,"2015-07-29T18:00:00","52","ND","91,94","3,5","183,2","30,5","44,1","15","0"],
    [13089,"2015-07-29T19:00:00","74","ND","61,21","5,2","272","28,9","48,2","0","0"],
    [13090,"2015-07-29T20:00:00","49","ND","43,31","4,2","302,3","27,9","51,8","0","0"],
    [13091,"2015-07-29T21:00:00","70","ND","32,67","2,8","100,7","26","61,5","0","0"],
    [13092,"2015-07-29T22:00:00","68","ND","28,06","3,5","87,9","24,6","69,3","0","0"],
    [13093,"2015-07-29T23:00:00","33","ND","28,45","1,7","93,6","24,2","70,8","0","0"],
    [13094,"2015-07-30T00:00:00","49","ND","28,04","2,4","198,8","24","71,9","0","0"],
    [13095,"2015-07-30T01:00:00","46","ND","27,81","3,3","196,1","23,7","72,6","0","0"],
    [13096,"2015-07-30T02:00:00","36","ND","28,43","3,4","205,9","23,5","72,5","0","0"],
    [13097,"2015-07-30T03:00:00","33","ND","35,01","2,8","165,7","23,7","69,7","0","0"],
    [13098,"2015-07-30T04:00:00","53","ND","26,92","2,2","134,8","22,7","76,3","0","0,25"],
    [13099,"2015-07-30T05:00:00","75","ND","25,59","1,4","163,1","22,4","78","0","0"],
    [13100,"2015-07-30T06:00:00","123","ND","28,42","0,8","210,9","22,5","77,1","0","0"],
    [13101,"2015-07-30T07:00:00","105","ND","26,32","1,6","115,6","22,9","76,3","17,9","0"],
    [13102,"2015-07-30T08:00:00","93","ND","27,61","2,8","114,5","22,6","76,7","91,4","0"],
    [13103,"2015-07-30T09:00:00","66","ND","35,34","3","73,7","24,9","67,9","204,5","0"],
    [13104,"2015-07-30T10:00:00","ND","ND","50,83","3,3","85","26,6","59,9","266,9","0"],
    [13105,"2015-07-30T11:00:00","ND","ND","ND","4","105,3","28,1","53,1","338,3","0"],
    [13106,"2015-07-30T12:00:00","44","ND","88,99","3,1","102,8","29,2","48,4","308,3","0"],
    [13107,"2015-07-30T13:00:00","66","ND","96,82","3,4","102,7","29,5","47,7","259,9","0"],
    [13108,"2015-07-30T14:00:00","75","ND","129,16","3,2","31,5","31","43,1","350,1","0"],
    [13109,"2015-07-30T15:00:00","66","ND","130,54","3,4","63,5","32,2","39,6","333,8","0"],
    [13110,"2015-07-30T16:00:00","58","ND","82,11","7,7","59,7","32,6","38,7","233,9","0"],
    [13111,"2015-07-30T17:00:00","47","ND","61,44","4,6","330,2","31,4","39,8","85,8","0"],
    [13112,"2015-07-30T18:00:00","57","ND","44,43","4,3","322,4","30","43,8","8,2","0"],
    [13113,"2015-07-30T19:00:00","85","ND","49,29","8,5","271","26,9","56,4","0","0"],
    [13114,"2015-07-30T20:00:00","37","ND","40,44","4,9","287,5","25,4","61,5","0","0"],
    [13115,"2015-07-30T21:00:00","57","ND","26,16","2,2","103,5","25,6","61,5","0","0"],
    [13116,"2015-07-30T22:00:00","49","ND","25,94","0,7","193,8","26","58,5","0","0"],
    [13117,"2015-07-30T23:00:00","58","ND","22,08","2,5","125,4","25,3","63,5","0","0"],
    [13118,"2015-07-31T00:00:00","43","ND","19,86","2,9","178,5","24,1","71,3","0","0"],
    [13119,"2015-07-31T01:00:00","50","ND","22,82","2,2","195,6","23,8","71,7","0","0"],
    [13120,"2015-07-31T02:00:00","48","ND","22,06","1,8","215,1","23,3","75,7","0","0"],
    [13121,"2015-07-31T03:00:00","43","ND","19,8","2","150,5","22,9","78,2","0","0"],
    [13122,"2015-07-31T04:00:00","48","ND","19,05","2,5","174,6","22,4","79,8","0","0"],
    [13123,"2015-07-31T05:00:00","57","ND","19,41","2,9","208,1","22,2","79,8","0","0"],
    [13124,"2015-07-31T06:00:00","56","ND","19,41","2,1","163,7","21,8","80,8","0","0"],
    [13125,"2015-07-31T07:00:00","93","ND","20,21","1,5","63,7","21,2","82,2","10,7","0"],
    [13126,"2015-07-31T08:00:00","103","ND","21,39","1,5","125,3","22,7","77,4","96,1","0"],
    [13127,"2015-07-31T09:00:00","ND","ND","34,89","2,5","91,1","24,6","67,5","196,8","0"],
    [13128,"2015-07-31T10:00:00","ND","ND","61,32","2,4","190,3","26,2","59,5","284,8","0"],
    [13129,"2015-07-31T11:00:00","ND","ND","ND","ND","ND","ND","ND","ND","ND"],
    [13130,"2015-07-31T12:00:00","ND","ND","ND","ND","ND","ND","ND","ND","ND"],
    [13131,"2015-07-31T13:00:00","ND","ND","ND","ND","ND","ND","ND","ND","ND"],
    [13132,"2015-07-31T14:00:00","ND","ND","ND","ND","ND","ND","ND","ND","ND"],
    [13133,"2015-07-31T15:00:00","ND","ND","ND","ND","ND","ND","ND","ND","ND"],
    [13134,"2015-07-31T16:00:00","ND","ND","ND","ND","ND","ND","ND","ND","ND"],
    [13135,"2015-07-31T17:00:00","ND","ND","ND","ND","ND","ND","ND","ND","ND"],
    [13136,"2015-07-31T18:00:00","ND","ND","ND","ND","ND","ND","ND","ND","ND"],
    [13137,"2015-07-31T19:00:00","ND","ND","ND","ND","ND","ND","ND","ND","ND"],
    [13138,"2015-07-31T20:00:00","ND","ND","ND","ND","ND","ND","ND","ND","ND"],
    [13139,"2015-07-31T21:00:00","ND","ND","ND","ND","ND","ND","ND","ND","ND"],
    [13140,"2015-07-31T22:00:00","ND","ND","ND","ND","ND","ND","ND","ND","ND"],
    [13141,"2015-07-31T23:00:00","ND","ND","ND","ND","ND","ND","ND","ND","ND"],
    [13142,"2015-08-01T00:00:00","ND","ND","ND","ND","ND","ND","ND","ND","ND"],
    [13143,"2015-08-01T01:00:00","ND","ND","ND","ND","ND","ND","ND","ND","ND"],
    [13144,"2015-08-01T02:00:00","ND","ND","ND","ND","ND","ND","ND","ND","ND"],
    [13145,"2015-08-01T03:00:00","ND","ND","ND","ND","ND","ND","ND","ND","ND"],
    [13146,"2015-08-01T04:00:00","ND","ND","ND","ND","ND","ND","ND","ND","ND"],
    [13147,"2015-08-01T05:00:00","ND","ND","ND","ND","ND","ND","ND","ND","ND"],
    [13148,"2015-08-01T06:00:00","ND","ND","ND","ND","ND","ND","ND","ND","ND"],
    [13149,"2015-08-01T07:00:00","ND","ND","ND","ND","ND","ND","ND","ND","ND"],
    [13150,"2015-08-01T08:00:00","ND","ND","ND","ND","ND","ND","ND","ND","ND"],
    [13151,"2015-08-01T09:00:00","ND","ND","ND","ND","ND","ND","ND","ND","ND"],
    [13152,"2015-08-01T10:00:00","ND","ND","ND","ND","ND","ND","ND","ND","ND"],
    [13153,"2015-08-01T11:00:00","ND","ND","ND","ND","ND","ND","ND","ND","ND"],
    [13154,"2015-08-01T12:00:00","ND","ND","ND","ND","ND","ND","ND","ND","ND"],
    [13155,"2015-08-01T13:00:00","ND","ND","ND","ND","ND","ND","ND","ND","ND"],
    [13156,"2015-08-01T14:00:00","ND","ND","ND","ND","ND","ND","ND","ND","ND"],
    [13157,"2015-08-01T15:00:00","ND","ND","ND","ND","ND","ND","ND","ND","ND"],
    [13158,"2015-08-01T16:00:00","ND","ND","ND","ND","ND","ND","ND","ND","ND"],
    [13159,"2015-08-01T17:00:00","ND","ND","ND","ND","ND","ND","ND","ND","ND"],
    [13160,"2015-08-01T18:00:00","ND","ND","ND","ND","ND","ND","ND","ND","ND"],
    [13161,"2015-08-01T19:00:00","ND","ND","ND","ND","ND","ND","ND","ND","ND"],
    [13162,"2015-08-01T20:00:00","ND","ND","ND","ND","ND","ND","ND","ND","ND"],
    [13163,"2015-08-01T21:00:00","ND","ND","ND","ND","ND","ND","ND","ND","ND"],
    [13164,"2015-08-01T22:00:00","ND","ND","ND","ND","ND","ND","ND","ND","ND"],
    [13165,"2015-08-01T23:00:00","ND","ND","ND","ND","ND","ND","ND","ND","ND"],
    [13166,"2015-08-02T00:00:00","ND","ND","ND","ND","ND","ND","ND","ND","ND"],
    [13167,"2015-08-02T01:00:00","ND","ND","ND","ND","ND","ND","ND","ND","ND"],
    [13168,"2015-08-02T02:00:00","ND","ND","ND","ND","ND","ND","ND","ND","ND"],
    [13169,"2015-08-02T03:00:00","ND","ND","ND","ND","ND","ND","ND","ND","ND"],
    [13170,"2015-08-02T04:00:00","ND","ND","ND","ND","ND","ND","ND","ND","ND"],
    [13171,"2015-08-02T05:00:00","ND","ND","ND","ND","ND","ND","ND","ND","ND"],
    [13172,"2015-08-02T06:00:00","ND","ND","ND","ND","ND","ND","ND","ND","ND"],
    [13173,"2015-08-02T07:00:00","ND","ND","ND","ND","ND","ND","ND","ND","ND"],
    [13174,"2015-08-02T08:00:00","ND","ND","ND","ND","ND","ND","ND","ND","ND"],
    [13175,"2015-08-02T09:00:00","ND","ND","ND","ND","ND","ND","ND","ND","ND"],
    [13176,"2015-08-02T10:00:00","ND","ND","ND","ND","ND","ND","ND","ND","ND"],
    [13177,"2015-08-02T11:00:00","ND","ND","ND","ND","ND","ND","ND","ND","ND"],
    [13178,"2015-08-02T12:00:00","ND","ND","ND","ND","ND","ND","ND","ND","ND"],
    [13179,"2015-08-02T13:00:00","ND","ND","ND","ND","ND","ND","ND","ND","ND"],
    [13180,"2015-08-02T14:00:00","ND","ND","ND","ND","ND","ND","ND","ND","ND"],
    [13181,"2015-08-02T15:00:00","ND","ND","ND","ND","ND","ND","ND","ND","ND"],
    [13182,"2015-08-02T16:00:00","ND","ND","ND","ND","ND","ND","ND","ND","ND"],
    [13183,"2015-08-02T17:00:00","ND","ND","ND","ND","ND","ND","ND","ND","ND"],
    [13184,"2015-08-02T18:00:00","ND","ND","ND","ND","ND","ND","ND","ND","ND"],
    [13185,"2015-08-02T19:00:00","ND","ND","ND","ND","ND","ND","ND","ND","ND"],
    [13186,"2015-08-02T20:00:00","ND","ND","ND","ND","ND","ND","ND","ND","ND"],
    [13187,"2015-08-02T21:00:00","ND","ND","ND","ND","ND","ND","ND","ND","ND"],
    [13188,"2015-08-02T22:00:00","ND","ND","ND","ND","ND","ND","ND","ND","ND"],
    [13189,"2015-08-02T23:00:00","ND","ND","ND","ND","ND","ND","ND","ND","ND"],
    [13190,"2015-08-03T00:00:00","ND","ND","ND","ND","ND","ND","ND","ND","ND"],
    [13191,"2015-08-03T01:00:00","ND","ND","ND","ND","ND","ND","ND","ND","ND"],
    [13192,"2015-08-03T02:00:00","ND","ND","ND","ND","ND","ND","ND","ND","ND"],
    [13193,"2015-08-03T03:00:00","ND","ND","ND","ND","ND","ND","ND","ND","ND"],
    [13194,"2015-08-03T04:00:00","ND","ND","ND","ND","ND","ND","ND","ND","ND"],
    [13195,"2015-08-03T05:00:00","ND","ND","ND","ND","ND","ND","ND","ND","ND"],
    [13196,"2015-08-03T06:00:00","ND","ND","ND","ND","ND","ND","ND","ND","ND"],
    [13197,"2015-08-03T07:00:00","ND","ND","ND","ND","ND","ND","ND","ND","ND"],
    [13198,"2015-08-03T08:00:00","ND","ND","ND","ND","ND","ND","ND","ND","ND"],
    [13199,"2015-08-03T09:00:00","ND","ND","ND","ND","ND","ND","ND","ND","ND"],
    [13200,"2015-08-03T10:00:00","ND","ND","ND","ND","ND","ND","ND","ND","ND"],
    [13201,"2015-08-03T11:00:00","ND","ND","ND","ND","ND","ND","ND","ND","ND"],
    [13202,"2015-08-03T12:00:00","ND","ND","ND","ND","ND","ND","ND","ND","ND"],
    [13203,"2015-08-03T13:00:00","ND","ND","ND","ND","ND","ND","ND","ND","ND"],
    [13204,"2015-08-03T14:00:00","ND","ND","ND","ND","ND","ND","ND","ND","ND"],
    [13205,"2015-08-03T15:00:00","ND","ND","ND","ND","ND","ND","ND","ND","ND"],
    [13206,"2015-08-03T16:00:00","ND","ND","ND","ND","ND","ND","ND","ND","ND"],
    [13207,"2015-08-03T17:00:00","ND","ND","ND","ND","ND","ND","ND","ND","ND"],
    [13208,"2015-08-03T18:00:00","ND","ND","ND","ND","ND","ND","ND","ND","ND"],
    [13209,"2015-08-03T19:00:00","ND","ND","ND","ND","ND","ND","ND","ND","ND"],
    [13210,"2015-08-03T20:00:00","ND","ND","ND","ND","ND","ND","ND","ND","ND"],
    [13211,"2015-08-03T21:00:00","ND","ND","ND","ND","ND","ND","ND","ND","ND"],
    [13212,"2015-08-03T22:00:00","ND","ND","ND","ND","ND","ND","ND","ND","ND"],
    [13213,"2015-08-03T23:00:00","ND","ND","ND","ND","ND","ND","ND","ND","ND"],
    [13214,"2015-08-04T00:00:00","ND","ND","ND","ND","ND","ND","ND","ND","ND"],
    [13215,"2015-08-04T01:00:00","ND","ND","ND","ND","ND","ND","ND","ND","ND"],
    [13216,"2015-08-04T02:00:00","ND","ND","ND","ND","ND","ND","ND","ND","ND"],
    [13217,"2015-08-04T03:00:00","ND","ND","ND","ND","ND","ND","ND","ND","ND"],
    [13218,"2015-08-04T04:00:00","ND","ND","ND","ND","ND","ND","ND","ND","ND"],
    [13219,"2015-08-04T05:00:00","ND","ND","ND","ND","ND","ND","ND","ND","ND"],
    [13220,"2015-08-04T06:00:00","ND","ND","ND","ND","ND","ND","ND","ND","ND"],
    [13221,"2015-08-04T07:00:00","ND","ND","ND","ND","ND","ND","ND","ND","ND"],
    [13222,"2015-08-04T08:00:00","ND","ND","ND","ND","ND","ND","ND","ND","ND"],
    [13223,"2015-08-04T09:00:00","ND","ND","ND","ND","ND","ND","ND","ND","ND"],
    [13224,"2015-08-04T10:00:00","ND","ND","ND","ND","ND","ND","ND","ND","ND"],
    [13225,"2015-08-04T11:00:00","ND","ND","ND","ND","ND","ND","ND","ND","ND"],
    [13226,"2015-08-04T12:00:00","ND","ND","ND","ND","ND","ND","ND","ND","ND"],
    [13227,"2015-08-04T13:00:00","ND","ND","ND","ND","ND","ND","ND","ND","ND"],
    [13228,"2015-08-04T14:00:00","ND","ND","ND","ND","ND","ND","ND","ND","ND"],
    [13229,"2015-08-04T15:00:00","ND","ND","ND","ND","ND","ND","ND","ND","ND"],
    [13230,"2015-08-04T16:00:00","ND","ND","ND","ND","ND","ND","ND","ND","ND"],
    [13231,"2015-08-04T17:00:00","40","ND","ND","3,1","173,4","35,7","24,4","124,5","0"],
    [13232,"2015-08-04T18:00:00","46","ND","ND","3,1","290,1","34,5","28,9","47,9","0"],
    [13233,"2015-08-04T19:00:00","54","ND","ND","4,9","301,8","31,7","39,7","0","0"],
    [13234,"2015-08-04T20:00:00","91","ND","ND","3","34,7","30,5","45,6","0","0"],
    [13235,"2015-08-04T21:00:00","79","ND","ND","3","105,8","28,4","56,8","0","0"],
    [13236,"2015-08-04T22:00:00","68","ND","ND","1,4","293,1","28,7","54,2","0","0"],
    [13237,"2015-08-04T23:00:00","63","ND","ND","2,5","80","27,3","60,7","0","0"],
    [13238,"2015-08-05T00:00:00","67","ND","ND","2,6","92,1","25,9","67,1","0","0"],
    [13239,"2015-08-05T01:00:00","64","ND","ND","1,2","64,4","25,8","67,3","0","0"],
    [13240,"2015-08-05T02:00:00","44","ND","ND","2,7","55,7","25,1","70,6","0","0"],
    [13241,"2015-08-05T03:00:00","52","ND","ND","1,4","65,3","24,5","73,1","0","0"],
    [13242,"2015-08-05T04:00:00","65","ND","ND","2,1","97,5","23,9","75,3","0","0"],
    [13243,"2015-08-05T05:00:00","83","ND","ND","3,3","235,5","24,3","71,9","0","0"],
    [13244,"2015-08-05T06:00:00","92","ND","ND","3,4","131,5","22,9","73,7","0","0"],
    [13245,"2015-08-05T07:00:00","116","ND","ND","1,6","254,3","22,8","73,1","12,8","0"],
    [13246,"2015-08-05T08:00:00","139","ND","ND","1,9","120,3","24,4","67,7","59,5","0"],
    [13247,"2015-08-05T09:00:00","118","ND","ND","3,4","121,6","25,9","58,3","192,4","0"],
    [13248,"2015-08-05T10:00:00","71","ND","ND","2","174","28,5","49,1","299,8","0"],
    [13249,"2015-08-05T11:00:00","52","ND","ND","3","50,3","30","45,1","344,7","0"],
    [13250,"2015-08-05T12:00:00","45","ND","ND","3,3","88,4","31,3","41,6","316,8","0"],
    [13251,"2015-08-05T13:00:00","55","ND","ND","1,2","95,5","32,6","38,5","376,7","0"],
    [13252,"2015-08-05T14:00:00","51","ND","ND","2,6","248,2","34","32,4","352,1","0"],
    [13253,"2015-08-05T15:00:00","42","ND","ND","2","63,2","35,3","28,6","258,7","0"],
    [13254,"2015-08-05T16:00:00","41","ND","ND","2,8","89,6","35,8","25,2","198,1","0"],
    [13255,"2015-08-05T17:00:00","34","ND","ND","3,4","90","36","23,9","146,4","0"],
    [13256,"2015-08-05T18:00:00","66","ND","ND","3,7","49,1","35,5","28,1","45,9","0"],
    [13257,"2015-08-05T19:00:00","67","ND","ND","4,1","322,2","32,9","38,3","0","0"],
    [13258,"2015-08-05T20:00:00","69","ND","ND","2,8","291,7","31,4","43,2","0","0"],
    [13259,"2015-08-05T21:00:00","69","ND","ND","1,6","261,1","30,2","49,1","0","0"],
    [13260,"2015-08-05T22:00:00","60","ND","ND","2,9","101,1","28","60,5","0","0"],
    [13261,"2015-08-05T23:00:00","60","ND","ND","1,8","75,3","26,2","68,4","0","0"],
    [13262,"2015-08-06T00:00:00","38","ND","ND","3,8","97","25,3","71,9","0","0"],
    [13263,"2015-08-06T01:00:00","46","ND","ND","3","85,7","25","72,1","0","0"],
    [13264,"2015-08-06T02:00:00","48","ND","ND","2,3","70,7","24,8","71,5","0","0"],
    [13265,"2015-08-06T03:00:00","44","ND","ND","1,9","95,6","24","73","0","0"],
    [13266,"2015-08-06T04:00:00","80","ND","ND","2,8","193,3","23,5","74,3","0","0"],
    [13267,"2015-08-06T05:00:00","86","ND","ND","1,4","133,1","23,6","71,3","0","0"],
    [13268,"2015-08-06T06:00:00","89","ND","ND","2,1","126,2","22","75,4","0","0"],
    [13269,"2015-08-06T07:00:00","109","ND","ND","1,7","180,6","22","74,6","24,8","0"],
    [13270,"2015-08-06T08:00:00","95","ND","ND","2,7","209","23,8","64,3","104,8","0"],
    [13271,"2015-08-06T09:00:00","68","ND","ND","2,5","163,3","25,8","57,5","191,8","0"],
    [13272,"2015-08-06T10:00:00","64","ND","ND","3,2","177,3","28","50","230,3","0"],
    [13273,"2015-08-06T11:00:00","52","ND","ND","3,7","145,5","29,3","42,7","261,8","0"],
    [13274,"2015-08-06T12:00:00","41","ND","ND","2,6","97,3","30,3","41,9","364,8","0"],
    [13275,"2015-08-06T13:00:00","50","ND","ND","2","66,4","32,2","38,5","396,7","0"],
    [13276,"2015-08-06T14:00:00","48","ND","ND","3,6","112,3","34,4","33,7","339,6","0"],
    [13277,"2015-08-06T15:00:00","55","ND","ND","1,5","56,7","37,4","27,1","285,4","0"],
    [13278,"2015-08-06T16:00:00","60","ND","ND","3,7","74,5","37,7","24,6","184,6","0"],
    [13279,"2015-08-06T17:00:00","52","ND","ND","2","36,8","37","27,4","93,5","0"],
    [13280,"2015-08-06T18:00:00","63","ND","ND","5,4","298,4","34,9","33,1","50,7","0"],
    [13281,"2015-08-06T19:00:00","72","ND","ND","4,9","293,1","32","39,7","0","0"],
    [13282,"2015-08-06T20:00:00","58","ND","ND","4,2","287","30,4","44,6","0","0"],
    [13283,"2015-08-06T21:00:00","66","ND","ND","2,7","105,8","29,4","48,9","0","0"],
    [13284,"2015-08-06T22:00:00","63","ND","ND","2,7","76","27,5","56,9","0","0"],
    [13285,"2015-08-06T23:00:00","47","ND","ND","4,9","292,6","27,2","58,3","0","0"],
    [13286,"2015-08-07T00:00:00","38","ND","ND","3,7","82,5","27,3","57,8","0","0"],
    [13287,"2015-08-07T01:00:00","30","ND","ND","1,9","72,3","25,8","65","0","0"],
    [13288,"2015-08-07T02:00:00","36","ND","ND","1,9","82,2","26,3","63,9","0","0"],
    [13289,"2015-08-07T03:00:00","37","ND","ND","1","129,8","26,3","62,6","0","0"],
    [13290,"2015-08-07T04:00:00","70","ND","ND","2,4","149","25,9","64,5","0","0"],
    [13291,"2015-08-07T05:00:00","77","ND","ND","3,1","195,2","25,4","66,6","0","0"],
    [13292,"2015-08-07T06:00:00","59","ND","ND","2,2","172,9","25,1","67","0","0"],
    [13293,"2015-08-07T07:00:00","84","ND","ND","1,2","87,3","24,6","68","0","0"],
    [13294,"2015-08-07T08:00:00","92","ND","ND","1,7","144,1","24,8","69","34,9","0"],
    [13295,"2015-08-07T09:00:00","74","ND","ND","2,2","70,1","26,1","62","76","0"],
    [13296,"2015-08-07T10:00:00","75","ND","ND","2,6","33,3","28,1","53,8","137,2","0"],
    [13297,"2015-08-07T11:00:00","75","ND","ND","2,9","102,8","30,7","44,8","165,2","0"],
    [13298,"2015-08-07T12:00:00","78","ND","ND","3,4","86,3","31,1","42,9","147","0"],
    [13299,"2015-08-07T13:00:00","74","ND","ND","3,7","56,8","31,1","42,8","116,9","0"],
    [13300,"2015-08-07T14:00:00","75","ND","ND","4","54,3","31,2","47","164,3","0"],
    [13301,"2015-08-07T15:00:00","70","ND","ND","4,5","71,1","32","44,4","141,5","0"],
    [13302,"2015-08-07T16:00:00","51","ND","ND","4,4","74","32,5","43,3","148","0"],
    [13303,"2015-08-07T17:00:00","41","ND","ND","4,4","64,6","32,3","42,9","99,7","0"],
    [13304,"2015-08-07T18:00:00","50","ND","ND","3,3","79,7","31,3","44,8","30,5","0"],
    [13305,"2015-08-07T19:00:00","51","ND","ND","2,2","253","29,5","48,4","0","0"],
    [13306,"2015-08-07T20:00:00","47","ND","ND","2,6","311","28,3","50,7","0","0"],
    [13307,"2015-08-07T21:00:00","76","ND","ND","1,4","304,7","27,3","54,1","0","0"],
    [13308,"2015-08-07T22:00:00","51","ND","ND","3","103,2","26,2","60,2","0","0"],
    [13309,"2015-08-07T23:00:00","43","ND","ND","2,4","66,4","25","66,5","0","0"],
    [13310,"2015-08-08T00:00:00","37","ND","ND","0,9","318,3","24,6","68,3","0","0"],
    [13311,"2015-08-08T01:00:00","82","ND","ND","0,6","180,8","24,8","68,7","0","0"],
    [13312,"2015-08-08T02:00:00","44","ND","ND","1,8","125,1","24,7","68,9","0","0"],
    [13313,"2015-08-08T03:00:00","81","ND","ND","2,3","171,6","24,5","70,3","0","0"],
    [13314,"2015-08-08T04:00:00","67","ND","ND","2,1","155,8","24,1","71,7","0","0"],
    [13315,"2015-08-08T05:00:00","76","ND","ND","1,3","116,1","23,8","72,8","0","0"],
    [13316,"2015-08-08T06:00:00","110","ND","ND","1,9","106,8","23,6","74,1","0","0"],
    [13317,"2015-08-08T07:00:00","118","ND","ND","1","117","23,4","75","4,6","0"],
    [13318,"2015-08-08T08:00:00","101","ND","ND","0,9","183,7","23,9","75","38,8","0"],
    [13319,"2015-08-08T09:00:00","108","ND","ND","4,2","88,5","26,4","67,4","112","0"],
    [13320,"2015-08-08T10:00:00","115","ND","ND","3,4","83,6","27,5","59,6","132,2","0"],
    [13321,"2015-08-08T11:00:00","66","ND","ND","2,2","147","30,2","51,7","231","0"],
    [13322,"2015-08-08T12:00:00","62","ND","ND","1,1","104","32,1","45,1","291,9","0"],
    [13323,"2015-08-08T13:00:00","68","ND","ND","0,7","211,3","33,6","39,3","262,2","0"],
    [13324,"2015-08-08T14:00:00","73","ND","ND","0,9","125","35,8","34,2","295,8","0"],
    [13325,"2015-08-08T15:00:00","89","ND","ND","2,9","49,8","33,6","38,5","82,3","0"],
    [13326,"2015-08-08T16:00:00","69","ND","ND","6","287,3","30,2","46,8","23,2","0,25"],
    [13327,"2015-08-08T17:00:00","27","ND","ND","5,2","264,1","26,1","64,1","22,3","3,81"],
    [13328,"2015-08-08T18:00:00","35","ND","ND","2,1","13,1","26,2","66,2","17,1","0"],
    [13329,"2015-08-08T19:00:00","53","ND","ND","2,9","32,2","25,7","66,1","0","0"],
    [13330,"2015-08-08T20:00:00","83","ND","ND","3","60,6","24,9","70,8","0","0"],
    [13331,"2015-08-08T21:00:00","43","ND","ND","1,7","67,2","24,3","73","0","0"],
    [13332,"2015-08-08T22:00:00","53","ND","ND","2,3","235,5","24,1","73,1","0","0"],
    [13333,"2015-08-08T23:00:00","45","ND","ND","2,2","206,5","23,7","74,4","0","0"],
    [13334,"2015-08-09T00:00:00","58","ND","ND","1,6","175,4","23,5","75,7","0","0"],
    [13335,"2015-08-09T01:00:00","57","ND","ND","1,9","94,3","23","76,8","0","0"],
    [13336,"2015-08-09T02:00:00","56","ND","ND","1,2","174,2","22,9","77,9","0","0"],
    [13337,"2015-08-09T03:00:00","56","ND","ND","1","152,4","22,8","78,4","0","0"],
    [13338,"2015-08-09T04:00:00","52","ND","ND","1,5","177,2","22,9","78,9","0","0"],
    [13339,"2015-08-09T05:00:00","61","ND","ND","2","117,1","22,6","79,3","0","0"],
    [13340,"2015-08-09T06:00:00","60","ND","ND","0,3","204,8","22,7","79,6","0","0"],
    [13341,"2015-08-09T07:00:00","73","ND","ND","2,4","121,9","22,6","80,1","4,4","0"],
    [13342,"2015-08-09T08:00:00","77","ND","ND","1,8","119,7","23,1","80,5","21","0"],
    [13343,"2015-08-09T09:00:00","66","ND","ND","1,4","147,9","24","79,8","77,7","0"],
    [13344,"2015-08-09T10:00:00","60","ND","ND","2,9","212,8","26,5","72,5","232","0"],
    [13345,"2015-08-09T11:00:00","52","ND","ND","1,8","220","28,6","58,2","195,3","0"],
    [13346,"2015-08-09T12:00:00","47","ND","ND","0,5","22,5","30,1","50,7","242,6","0"],
    [13347,"2015-08-09T13:00:00","55","ND","ND","3","106,5","30,9","47","192,9","0"],
    [13348,"2015-08-09T14:00:00","57","ND","ND","3,7","88,1","28,8","54,2","207","0"],
    [13349,"2015-08-09T15:00:00","57","ND","ND","4,2","101,4","29,2","52,9","188,9","0"],
    [13350,"2015-08-09T16:00:00","47","ND","ND","3,5","98,7","29,5","51,4","141,1","0"],
    [13351,"2015-08-09T17:00:00","48","ND","ND","4","76,8","29,6","50,7","63","0"],
    [13352,"2015-08-09T18:00:00","34","ND","ND","1,4","310,8","28,9","49,9","27","0"],
    [13353,"2015-08-09T19:00:00","36","ND","ND","5,6","291,9","27,7","51,7","0","0"],
    [13354,"2015-08-09T20:00:00","29","ND","ND","3,1","316,3","27","54,5","0","0"],
    [13355,"2015-08-09T21:00:00","43","ND","ND","3","86,1","25,6","63","0","0"],
    [13356,"2015-08-09T22:00:00","43","ND","ND","3,7","84","24,9","65,5","0","0"],
    [13357,"2015-08-09T23:00:00","36","ND","ND","2,7","70,9","24,4","65,7","0","0"],
    [13358,"2015-08-10T00:00:00","32","ND","ND","2,4","68,5","23,9","68","0","0"],
    [13359,"2015-08-10T01:00:00","14","ND","ND","0,6","7,5","23,5","68,9","0","0"],
    [13360,"2015-08-10T02:00:00","27","ND","ND","1,7","56,4","23,1","71,7","0","0"],
    [13361,"2015-08-10T03:00:00","21","ND","ND","2,1","359,9","22,7","73,3","0","0"],
    [13362,"2015-08-10T04:00:00","31","ND","ND","1,6","83","22,3","75,8","0","0"],
    [13363,"2015-08-10T05:00:00","28","ND","ND","1,1","113,8","21,6","79,2","0","0"],
    [13364,"2015-08-10T06:00:00","56","ND","ND","1,4","98,9","22","77,6","0","0"],
    [13365,"2015-08-10T07:00:00","82","ND","ND","1,3","45,7","22","77","8,9","0"],
    [13366,"2015-08-10T08:00:00","77","ND","ND","1","40,5","22,8","74,4","100,6","0"],
    [13367,"2015-08-10T09:00:00","54","ND","ND","3,1","191,4","24,9","67,8","213,1","0"],
    [13368,"2015-08-10T10:00:00","55","ND","ND","3,3","159,7","26,7","60,4","313,9","0"],
    [13369,"2015-08-10T11:00:00","37","ND","ND","1,5","135,1","28,3","52,1","395,1","0"],
    [13370,"2015-08-10T12:00:00","36","ND","ND","2,6","106,3","30","45,4","445,4","0"],
    [13371,"2015-08-10T13:00:00","35","ND","ND","3,6","64,9","31,6","38,9","354,8","0"],
    [13372,"2015-08-10T14:00:00","52","ND","ND","4","69,1","31,5","39,4","231,2","0"],
    [13373,"2015-08-10T15:00:00","52","ND","ND","5,2","58,3","32,2","39,4","344,2","0"],
    [13374,"2015-08-10T16:00:00","45","ND","ND","4,9","53,1","32,5","39,2","261,7","0"],
    [13375,"2015-08-10T17:00:00","59","ND","ND","4,6","22,6","32,2","39,3","95,7","0"],
    [13376,"2015-08-10T18:00:00","48","ND","ND","4,6","311,7","31,1","41,2","46,1","0"],
    [13377,"2015-08-10T19:00:00","52","ND","ND","5","295,1","29,5","46,9","0","0"],
    [13378,"2015-08-10T20:00:00","37","ND","ND","5,9","302,1","28,6","50,2","0","0"],
    [13379,"2015-08-10T21:00:00","63","ND","ND","1,9","81,3","28","54,2","0","0"],
    [13380,"2015-08-10T22:00:00","51","ND","ND","2,6","107,7","26,3","61,3","0","0"],
    [13381,"2015-08-10T23:00:00","41","ND","ND","3,5","74,6","25,2","66,3","0","0"],
    [13382,"2015-08-11T00:00:00","35","ND","ND","2,3","82,6","25,1","66,2","0","0"],
    [13383,"2015-08-11T01:00:00","17","ND","ND","2,7","81,6","24,5","68,8","0","0"],
    [13384,"2015-08-11T02:00:00","27","ND","ND","1,5","73,4","24,5","68,6","0","0"],
    [13385,"2015-08-11T03:00:00","34","ND","ND","1,6","122,4","24,4","69,5","0","0"],
    [13386,"2015-08-11T04:00:00","47","ND","ND","2,2","158,8","24,3","70,1","0","0"],
    [13387,"2015-08-11T05:00:00","57","ND","ND","1,7","162,2","23,8","72,8","0","0"],
    [13388,"2015-08-11T06:00:00","68","ND","ND","0,9","160,6","23,5","73,9","0","0"],
    [13389,"2015-08-11T07:00:00","100","ND","ND","1,5","186","23,9","71,2","22,5","0"],
    [13390,"2015-08-11T08:00:00","78","ND","ND","3,8","150","24,7","68,1","112,3","0"],
    [13391,"2015-08-11T09:00:00","62","ND","ND","3","168,3","26,1","63,3","208,7","0"],
    [13392,"2015-08-11T10:00:00","63","ND","ND","1,5","119,1","27,7","57,6","279,7","0"],
    [13393,"2015-08-11T11:00:00","ND","ND","ND","ND","ND","ND","ND","ND","ND"],
    [13394,"2015-08-11T12:00:00","ND","ND","ND","ND","ND","ND","ND","ND","ND"],
    [13395,"2015-08-11T13:00:00","ND","ND","ND","ND","ND","ND","ND","ND","ND"],
    [13396,"2015-08-11T14:00:00","ND","ND","ND","ND","ND","ND","ND","ND","ND"],
    [13397,"2015-08-11T15:00:00","ND","ND","ND","ND","ND","ND","ND","ND","ND"],
    [13398,"2015-08-11T16:00:00","ND","ND","ND","ND","ND","ND","ND","ND","ND"],
    [13399,"2015-08-11T17:00:00","ND","ND","ND","ND","ND","ND","ND","ND","ND"],
    [13400,"2015-08-11T18:00:00","ND","ND","ND","ND","ND","ND","ND","ND","ND"],
    [13401,"2015-08-11T19:00:00","ND","ND","ND","ND","ND","ND","ND","ND","ND"],
    [13402,"2015-08-11T20:00:00","ND","ND","ND","ND","ND","ND","ND","ND","ND"],
    [13403,"2015-08-11T21:00:00","ND","ND","ND","ND","ND","ND","ND","ND","ND"],
    [13404,"2015-08-11T22:00:00","ND","ND","ND","ND","ND","ND","ND","ND","ND"],
    [13405,"2015-08-11T23:00:00","ND","ND","ND","ND","ND","ND","ND","ND","ND"],
    [13406,"2015-08-12T00:00:00","ND","ND","ND","ND","ND","ND","ND","ND","ND"],
    [13407,"2015-08-12T01:00:00","ND","ND","ND","ND","ND","ND","ND","ND","ND"],
    [13408,"2015-08-12T02:00:00","ND","ND","ND","ND","ND","ND","ND","ND","ND"],
    [13409,"2015-08-12T03:00:00","ND","ND","ND","ND","ND","ND","ND","ND","ND"],
    [13410,"2015-08-12T04:00:00","ND","ND","ND","ND","ND","ND","ND","ND","ND"],
    [13411,"2015-08-12T05:00:00","ND","ND","ND","ND","ND","ND","ND","ND","ND"],
    [13412,"2015-08-12T06:00:00","ND","ND","ND","ND","ND","ND","ND","ND","ND"],
    [13413,"2015-08-12T07:00:00","ND","ND","ND","ND","ND","ND","ND","ND","ND"],
    [13414,"2015-08-12T08:00:00","ND","ND","ND","ND","ND","ND","ND","ND","ND"],
    [13415,"2015-08-12T09:00:00","ND","ND","ND","ND","ND","ND","ND","ND","ND"],
    [13416,"2015-08-12T10:00:00","ND","ND","ND","ND","ND","ND","ND","ND","ND"],
    [13417,"2015-08-12T11:00:00","ND","ND","ND","ND","ND","ND","ND","ND","ND"],
    [13418,"2015-08-12T12:00:00","ND","ND","ND","ND","ND","ND","ND","ND","ND"],
    [13419,"2015-08-12T13:00:00","ND","ND","ND","ND","ND","ND","ND","ND","ND"],
    [13420,"2015-08-12T14:00:00","ND","ND","ND","ND","ND","ND","ND","ND","ND"],
    [13421,"2015-08-12T15:00:00","ND","ND","ND","ND","ND","ND","ND","ND","ND"],
    [13422,"2015-08-12T16:00:00","ND","ND","ND","ND","ND","ND","ND","ND","ND"],
    [13423,"2015-08-12T17:00:00","ND","ND","ND","ND","ND","ND","ND","ND","ND"],
    [13424,"2015-08-12T18:00:00","ND","ND","ND","ND","ND","ND","ND","ND","ND"],
    [13425,"2015-08-12T19:00:00","ND","ND","ND","ND","ND","ND","ND","ND","ND"],
    [13426,"2015-08-12T20:00:00","ND","ND","ND","ND","ND","ND","ND","ND","ND"],
    [13427,"2015-08-12T21:00:00","ND","ND","ND","ND","ND","ND","ND","ND","ND"],
    [13428,"2015-08-12T22:00:00","ND","ND","ND","ND","ND","ND","ND","ND","ND"],
    [13429,"2015-08-12T23:00:00","ND","ND","ND","ND","ND","ND","ND","ND","ND"],
    [13430,"2015-08-13T00:00:00","ND","ND","ND","ND","ND","ND","ND","ND","ND"],
    [13431,"2015-08-13T01:00:00","ND","ND","ND","ND","ND","ND","ND","ND","ND"],
    [13432,"2015-08-13T02:00:00","ND","ND","ND","ND","ND","ND","ND","ND","ND"],
    [13433,"2015-08-13T03:00:00","ND","ND","ND","ND","ND","ND","ND","ND","ND"],
    [13434,"2015-08-13T04:00:00","ND","ND","ND","ND","ND","ND","ND","ND","ND"],
    [13435,"2015-08-13T05:00:00","ND","ND","ND","ND","ND","ND","ND","ND","ND"],
    [13436,"2015-08-13T06:00:00","ND","ND","ND","ND","ND","ND","ND","ND","ND"],
    [13437,"2015-08-13T07:00:00","ND","ND","ND","ND","ND","ND","ND","ND","ND"],
    [13438,"2015-08-13T08:00:00","ND","ND","ND","ND","ND","ND","ND","ND","ND"],
    [13439,"2015-08-13T09:00:00","ND","ND","ND","ND","ND","ND","ND","ND","ND"],
    [13440,"2015-08-13T10:00:00","ND","ND","ND","ND","ND","ND","ND","ND","ND"],
    [13441,"2015-08-13T11:00:00","ND","ND","ND","ND","ND","ND","ND","ND","ND"],
    [13442,"2015-08-13T12:00:00","ND","ND","ND","ND","ND","ND","ND","ND","ND"],
    [13443,"2015-08-13T13:00:00","ND","ND","ND","ND","ND","ND","ND","ND","ND"],
    [13444,"2015-08-13T14:00:00","ND","ND","ND","ND","ND","ND","ND","ND","ND"],
    [13445,"2015-08-13T15:00:00","ND","ND","ND","ND","ND","ND","ND","ND","ND"],
    [13446,"2015-08-13T16:00:00","ND","ND","ND","ND","ND","ND","ND","ND","ND"],
    [13447,"2015-08-13T17:00:00","ND","ND","ND","ND","ND","ND","ND","ND","ND"],
    [13448,"2015-08-13T18:00:00","ND","ND","ND","ND","ND","ND","ND","ND","ND"],
    [13449,"2015-08-13T19:00:00","ND","ND","ND","ND","ND","ND","ND","ND","ND"],
    [13450,"2015-08-13T20:00:00","ND","ND","ND","ND","ND","ND","ND","ND","ND"],
    [13451,"2015-08-13T21:00:00","ND","ND","ND","ND","ND","ND","ND","ND","ND"],
    [13452,"2015-08-13T22:00:00","ND","ND","ND","ND","ND","ND","ND","ND","ND"],
    [13453,"2015-08-13T23:00:00","ND","ND","ND","ND","ND","ND","ND","ND","ND"],
    [13454,"2015-08-14T00:00:00","ND","ND","ND","ND","ND","ND","ND","ND","ND"],
    [13455,"2015-08-14T01:00:00","ND","ND","ND","ND","ND","ND","ND","ND","ND"],
    [13456,"2015-08-14T02:00:00","ND","ND","ND","ND","ND","ND","ND","ND","ND"],
    [13457,"2015-08-14T03:00:00","ND","ND","ND","ND","ND","ND","ND","ND","ND"],
    [13458,"2015-08-14T04:00:00","ND","ND","ND","ND","ND","ND","ND","ND","ND"],
    [13459,"2015-08-14T05:00:00","ND","ND","ND","ND","ND","ND","ND","ND","ND"],
    [13460,"2015-08-14T06:00:00","ND","ND","ND","ND","ND","ND","ND","ND","ND"],
    [13461,"2015-08-14T07:00:00","ND","ND","ND","ND","ND","ND","ND","ND","ND"],
    [13462,"2015-08-14T08:00:00","ND","ND","ND","ND","ND","ND","ND","ND","ND"],
    [13463,"2015-08-14T09:00:00","ND","ND","ND","ND","ND","ND","ND","ND","ND"],
    [13464,"2015-08-14T10:00:00","ND","ND","ND","ND","ND","ND","ND","ND","ND"],
    [13465,"2015-08-14T11:00:00","ND","ND","ND","ND","ND","ND","ND","ND","ND"],
    [13466,"2015-08-14T12:00:00","ND","ND","ND","ND","ND","ND","ND","ND","ND"],
    [13467,"2015-08-14T13:00:00","ND","ND","ND","ND","ND","ND","ND","ND","ND"],
    [13468,"2015-08-14T14:00:00","ND","ND","ND","ND","ND","ND","ND","ND","ND"],
    [13469,"2015-08-14T15:00:00","ND","ND","ND","ND","ND","ND","ND","ND","ND"],
    [13470,"2015-08-14T16:00:00","ND","ND","ND","ND","ND","ND","ND","ND","ND"],
    [13471,"2015-08-14T17:00:00","ND","ND","ND","ND","ND","ND","ND","ND","ND"],
    [13472,"2015-08-14T18:00:00","ND","ND","ND","ND","ND","ND","ND","ND","ND"],
    [13473,"2015-08-14T19:00:00","ND","ND","ND","ND","ND","ND","ND","ND","ND"],
    [13474,"2015-08-14T20:00:00","ND","ND","ND","ND","ND","ND","ND","ND","ND"],
    [13475,"2015-08-14T21:00:00","ND","ND","ND","ND","ND","ND","ND","ND","ND"],
    [13476,"2015-08-14T22:00:00","ND","ND","ND","ND","ND","ND","ND","ND","ND"],
    [13477,"2015-08-14T23:00:00","ND","ND","ND","ND","ND","ND","ND","ND","ND"],
    [13478,"2015-08-15T00:00:00","ND","ND","ND","ND","ND","ND","ND","ND","ND"],
    [13479,"2015-08-15T01:00:00","ND","ND","ND","ND","ND","ND","ND","ND","ND"],
    [13480,"2015-08-15T02:00:00","ND","ND","ND","ND","ND","ND","ND","ND","ND"],
    [13481,"2015-08-15T03:00:00","ND","ND","ND","ND","ND","ND","ND","ND","ND"],
    [13482,"2015-08-15T04:00:00","ND","ND","ND","ND","ND","ND","ND","ND","ND"],
    [13483,"2015-08-15T05:00:00","ND","ND","ND","ND","ND","ND","ND","ND","ND"],
    [13484,"2015-08-15T06:00:00","ND","ND","ND","ND","ND","ND","ND","ND","ND"],
    [13485,"2015-08-15T07:00:00","ND","ND","ND","ND","ND","ND","ND","ND","ND"],
    [13486,"2015-08-15T08:00:00","ND","ND","ND","ND","ND","ND","ND","ND","ND"],
    [13487,"2015-08-15T09:00:00","ND","ND","ND","ND","ND","ND","ND","ND","ND"],
    [13488,"2015-08-15T10:00:00","ND","ND","ND","ND","ND","ND","ND","ND","ND"],
    [13489,"2015-08-15T11:00:00","ND","ND","ND","ND","ND","ND","ND","ND","ND"],
    [13490,"2015-08-15T12:00:00","ND","ND","ND","ND","ND","ND","ND","ND","ND"],
    [13491,"2015-08-15T13:00:00","ND","ND","ND","ND","ND","ND","ND","ND","ND"],
    [13492,"2015-08-15T14:00:00","ND","ND","ND","ND","ND","ND","ND","ND","ND"],
    [13493,"2015-08-15T15:00:00","ND","ND","ND","ND","ND","ND","ND","ND","ND"],
    [13494,"2015-08-15T16:00:00","ND","ND","ND","ND","ND","ND","ND","ND","ND"],
    [13495,"2015-08-15T17:00:00","ND","ND","ND","ND","ND","ND","ND","ND","ND"],
    [13496,"2015-08-15T18:00:00","ND","ND","ND","ND","ND","ND","ND","ND","ND"],
    [13497,"2015-08-15T19:00:00","ND","ND","ND","ND","ND","ND","ND","ND","ND"],
    [13498,"2015-08-15T20:00:00","ND","ND","ND","ND","ND","ND","ND","ND","ND"],
    [13499,"2015-08-15T21:00:00","ND","ND","ND","ND","ND","ND","ND","ND","ND"],
    [13500,"2015-08-15T22:00:00","ND","ND","ND","ND","ND","ND","ND","ND","ND"],
    [13501,"2015-08-15T23:00:00","ND","ND","ND","ND","ND","ND","ND","ND","ND"],
    [13502,"2015-08-16T00:00:00","ND","ND","ND","ND","ND","ND","ND","ND","ND"],
    [13503,"2015-08-16T01:00:00","ND","ND","ND","ND","ND","ND","ND","ND","ND"],
    [13504,"2015-08-16T02:00:00","ND","ND","ND","ND","ND","ND","ND","ND","ND"],
    [13505,"2015-08-16T03:00:00","ND","ND","ND","ND","ND","ND","ND","ND","ND"],
    [13506,"2015-08-16T04:00:00","ND","ND","ND","ND","ND","ND","ND","ND","ND"],
    [13507,"2015-08-16T05:00:00","ND","ND","ND","ND","ND","ND","ND","ND","ND"],
    [13508,"2015-08-16T06:00:00","ND","ND","ND","ND","ND","ND","ND","ND","ND"],
    [13509,"2015-08-16T07:00:00","ND","ND","ND","ND","ND","ND","ND","ND","ND"],
    [13510,"2015-08-16T08:00:00","ND","ND","ND","ND","ND","ND","ND","ND","ND"],
    [13511,"2015-08-16T09:00:00","ND","ND","ND","ND","ND","ND","ND","ND","ND"],
    [13512,"2015-08-16T10:00:00","ND","ND","ND","ND","ND","ND","ND","ND","ND"],
    [13513,"2015-08-16T11:00:00","ND","ND","ND","ND","ND","ND","ND","ND","ND"],
    [13514,"2015-08-16T12:00:00","ND","ND","ND","ND","ND","ND","ND","ND","ND"],
    [13515,"2015-08-16T13:00:00","ND","ND","ND","ND","ND","ND","ND","ND","ND"],
    [13516,"2015-08-16T14:00:00","ND","ND","ND","ND","ND","ND","ND","ND","ND"],
    [13517,"2015-08-16T15:00:00","ND","ND","ND","ND","ND","ND","ND","ND","ND"],
    [13518,"2015-08-16T16:00:00","ND","ND","ND","ND","ND","ND","ND","ND","ND"],
    [13519,"2015-08-16T17:00:00","ND","ND","ND","ND","ND","ND","ND","ND","ND"],
    [13520,"2015-08-16T18:00:00","ND","ND","ND","ND","ND","ND","ND","ND","ND"],
    [13521,"2015-08-16T19:00:00","ND","ND","ND","ND","ND","ND","ND","ND","ND"],
    [13522,"2015-08-16T20:00:00","ND","ND","ND","ND","ND","ND","ND","ND","ND"],
    [13523,"2015-08-16T21:00:00","ND","ND","ND","ND","ND","ND","ND","ND","ND"],
    [13524,"2015-08-16T22:00:00","ND","ND","ND","ND","ND","ND","ND","ND","ND"],
    [13525,"2015-08-16T23:00:00","ND","ND","ND","ND","ND","ND","ND","ND","ND"],
    [13526,"2015-08-17T00:00:00","ND","ND","ND","ND","ND","ND","ND","ND","ND"],
    [13527,"2015-08-17T01:00:00","ND","ND","ND","ND","ND","ND","ND","ND","ND"],
    [13528,"2015-08-17T02:00:00","ND","ND","ND","ND","ND","ND","ND","ND","ND"],
    [13529,"2015-08-17T03:00:00","ND","ND","ND","ND","ND","ND","ND","ND","ND"],
    [13530,"2015-08-17T04:00:00","ND","ND","ND","ND","ND","ND","ND","ND","ND"],
    [13531,"2015-08-17T05:00:00","ND","ND","ND","ND","ND","ND","ND","ND","ND"],
    [13532,"2015-08-17T06:00:00","ND","ND","ND","ND","ND","ND","ND","ND","ND"],
    [13533,"2015-08-17T07:00:00","ND","ND","ND","ND","ND","ND","ND","ND","ND"],
    [13534,"2015-08-17T08:00:00","ND","ND","ND","ND","ND","ND","ND","ND","ND"],
    [13535,"2015-08-17T09:00:00","ND","ND","ND","ND","ND","ND","ND","ND","ND"],
    [13536,"2015-08-17T10:00:00","ND","ND","ND","ND","ND","ND","ND","ND","ND"],
    [13537,"2015-08-17T11:00:00","ND","ND","ND","ND","ND","ND","ND","ND","ND"],
    [13538,"2015-08-17T12:00:00","ND","ND","ND","ND","ND","ND","ND","ND","ND"],
    [13539,"2015-08-17T13:00:00","ND","ND","ND","ND","ND","ND","ND","ND","ND"],
    [13540,"2015-08-17T14:00:00","ND","ND","ND","ND","ND","ND","ND","ND","ND"],
    [13541,"2015-08-17T15:00:00","ND","ND","ND","ND","ND","ND","ND","ND","ND"],
    [13542,"2015-08-17T16:00:00","ND","ND","ND","ND","ND","ND","ND","ND","ND"],
    [13543,"2015-08-17T17:00:00","ND","ND","ND","ND","ND","ND","ND","ND","ND"],
    [13544,"2015-08-17T18:00:00","ND","ND","ND","ND","ND","ND","ND","ND","ND"],
    [13545,"2015-08-17T19:00:00","ND","ND","ND","ND","ND","ND","ND","ND","ND"],
    [13546,"2015-08-17T20:00:00","ND","ND","ND","ND","ND","ND","ND","ND","ND"],
    [13547,"2015-08-17T21:00:00","ND","ND","ND","ND","ND","ND","ND","ND","ND"],
    [13548,"2015-08-17T22:00:00","ND","ND","ND","ND","ND","ND","ND","ND","ND"],
    [13549,"2015-08-17T23:00:00","ND","ND","ND","ND","ND","ND","ND","ND","ND"],
    [13550,"2015-08-18T00:00:00","ND","ND","ND","ND","ND","ND","ND","ND","ND"],
    [13551,"2015-08-18T01:00:00","ND","ND","ND","ND","ND","ND","ND","ND","ND"],
    [13552,"2015-08-18T02:00:00","ND","ND","ND","ND","ND","ND","ND","ND","ND"],
    [13553,"2015-08-18T03:00:00","ND","ND","ND","ND","ND","ND","ND","ND","ND"],
    [13554,"2015-08-18T04:00:00","ND","ND","ND","ND","ND","ND","ND","ND","ND"],
    [13555,"2015-08-18T05:00:00","ND","ND","ND","ND","ND","ND","ND","ND","ND"],
    [13556,"2015-08-18T06:00:00","ND","ND","ND","ND","ND","ND","ND","ND","ND"],
    [13557,"2015-08-18T07:00:00","ND","ND","ND","ND","ND","ND","ND","ND","ND"],
    [13558,"2015-08-18T08:00:00","ND","ND","ND","ND","ND","ND","ND","ND","ND"],
    [13559,"2015-08-18T09:00:00","ND","ND","ND","ND","ND","ND","ND","ND","ND"],
    [13560,"2015-08-18T10:00:00","ND","ND","ND","ND","ND","ND","ND","ND","ND"],
    [13561,"2015-08-18T11:00:00","ND","ND","ND","ND","ND","ND","ND","ND","ND"],
    [13562,"2015-08-18T12:00:00","ND","ND","ND","ND","ND","ND","ND","ND","ND"],
    [13563,"2015-08-18T13:00:00","ND","ND","ND","ND","ND","ND","ND","ND","ND"],
    [13564,"2015-08-18T14:00:00","ND","ND","ND","ND","ND","ND","ND","ND","ND"],
    [13565,"2015-08-18T15:00:00","ND","ND","ND","ND","ND","ND","ND","ND","ND"],
    [13566,"2015-08-18T16:00:00","ND","ND","ND","ND","ND","ND","ND","ND","ND"],
    [13567,"2015-08-18T17:00:00","ND","ND","ND","ND","ND","ND","ND","ND","ND"],
    [13568,"2015-08-18T18:00:00","ND","ND","ND","ND","ND","ND","ND","ND","ND"],
    [13569,"2015-08-18T19:00:00","ND","ND","ND","ND","ND","ND","ND","ND","ND"],
    [13570,"2015-08-18T20:00:00","ND","ND","ND","ND","ND","ND","ND","ND","ND"],
    [13571,"2015-08-18T21:00:00","ND","ND","ND","ND","ND","ND","ND","ND","ND"],
    [13572,"2015-08-18T22:00:00","ND","ND","ND","ND","ND","ND","ND","ND","ND"],
    [13573,"2015-08-18T23:00:00","ND","ND","ND","ND","ND","ND","ND","ND","ND"],
    [13574,"2015-08-19T00:00:00","ND","ND","ND","ND","ND","ND","ND","ND","ND"],
    [13575,"2015-08-19T01:00:00","ND","ND","ND","ND","ND","ND","ND","ND","ND"],
    [13576,"2015-08-19T02:00:00","ND","ND","ND","ND","ND","ND","ND","ND","ND"],
    [13577,"2015-08-19T03:00:00","ND","ND","ND","ND","ND","ND","ND","ND","ND"],
    [13578,"2015-08-19T04:00:00","ND","ND","ND","ND","ND","ND","ND","ND","ND"],
    [13579,"2015-08-19T05:00:00","ND","ND","ND","ND","ND","ND","ND","ND","ND"],
    [13580,"2015-08-19T06:00:00","ND","ND","ND","ND","ND","ND","ND","ND","ND"],
    [13581,"2015-08-19T07:00:00","ND","ND","ND","ND","ND","ND","ND","ND","ND"],
    [13582,"2015-08-19T08:00:00","ND","ND","ND","ND","ND","ND","ND","ND","ND"],
    [13583,"2015-08-19T09:00:00","ND","ND","ND","ND","ND","ND","ND","ND","ND"],
    [13584,"2015-08-19T10:00:00","ND","ND","ND","ND","ND","ND","ND","ND","ND"],
    [13585,"2015-08-19T11:00:00","ND","ND","ND","ND","ND","ND","ND","ND","ND"],
    [13586,"2015-08-19T12:00:00","ND","ND","ND","ND","ND","ND","ND","ND","ND"],
    [13587,"2015-08-19T13:00:00","ND","ND","ND","ND","ND","ND","ND","ND","ND"],
    [13588,"2015-08-19T14:00:00","ND","ND","ND","ND","ND","ND","ND","ND","ND"],
    [13589,"2015-08-19T15:00:00","ND","ND","ND","ND","ND","ND","ND","ND","ND"],
    [13590,"2015-08-19T16:00:00","ND","ND","ND","ND","ND","ND","ND","ND","ND"],
    [13591,"2015-08-19T17:00:00","ND","ND","ND","ND","ND","ND","ND","ND","ND"],
    [13592,"2015-08-19T18:00:00","ND","ND","ND","ND","ND","ND","ND","ND","ND"],
    [13593,"2015-08-19T19:00:00","ND","ND","ND","ND","ND","ND","ND","ND","ND"],
    [13594,"2015-08-19T20:00:00","ND","ND","ND","ND","ND","ND","ND","ND","ND"],
    [13595,"2015-08-19T21:00:00","ND","ND","ND","ND","ND","ND","ND","ND","ND"],
    [13596,"2015-08-19T22:00:00","ND","ND","ND","ND","ND","ND","ND","ND","ND"],
    [13597,"2015-08-19T23:00:00","ND","ND","ND","ND","ND","ND","ND","ND","ND"],
    [13598,"2015-08-20T00:00:00","ND","ND","ND","ND","ND","ND","ND","ND","ND"],
    [13599,"2015-08-20T01:00:00","ND","ND","ND","ND","ND","ND","ND","ND","ND"],
    [13600,"2015-08-20T02:00:00","ND","ND","ND","ND","ND","ND","ND","ND","ND"],
    [13601,"2015-08-20T03:00:00","ND","ND","ND","ND","ND","ND","ND","ND","ND"],
    [13602,"2015-08-20T04:00:00","ND","ND","ND","ND","ND","ND","ND","ND","ND"],
    [13603,"2015-08-20T05:00:00","ND","ND","ND","ND","ND","ND","ND","ND","ND"],
    [13604,"2015-08-20T06:00:00","ND","ND","ND","ND","ND","ND","ND","ND","ND"],
    [13605,"2015-08-20T07:00:00","ND","ND","ND","ND","ND","ND","ND","ND","ND"],
    [13606,"2015-08-20T08:00:00","ND","ND","ND","ND","ND","ND","ND","ND","ND"],
    [13607,"2015-08-20T09:00:00","ND","ND","ND","ND","ND","ND","ND","ND","ND"],
    [13608,"2015-08-20T10:00:00","ND","ND","ND","ND","ND","ND","ND","ND","ND"],
    [13609,"2015-08-20T11:00:00","ND","ND","ND","2,4","174,1","30,7","42,1","399,6","0"],
    [13610,"2015-08-20T12:00:00","ND","ND","ND","3,6","171,3","32,7","35,5","440,9","0"],
    [13611,"2015-08-20T13:00:00","ND","ND","ND","1,9","176,5","37,7","25","472,8","0"],
    [13612,"2015-08-20T14:00:00","ND","ND","ND","2,9","177,3","39,2","20,5","316,3","0"],
    [13613,"2015-08-20T15:00:00","ND","ND","ND","1,4","164,6","39,1","20,7","281,3","0"],
    [13614,"2015-08-20T16:00:00","ND","ND","ND","ND","ND","ND","ND","ND","ND"],
    [13615,"2015-08-20T17:00:00","ND","ND","ND","ND","ND","ND","ND","ND","ND"],
    [13616,"2015-08-20T18:00:00","ND","ND","ND","ND","ND","ND","ND","ND","ND"],
    [13617,"2015-08-20T19:00:00","ND","ND","ND","ND","ND","ND","ND","ND","ND"],
    [13618,"2015-08-20T20:00:00","ND","ND","ND","ND","ND","ND","ND","ND","ND"],
    [13619,"2015-08-20T21:00:00","ND","ND","ND","ND","ND","ND","ND","ND","ND"],
    [13620,"2015-08-20T22:00:00","ND","ND","ND","ND","ND","ND","ND","ND","ND"],
    [13621,"2015-08-20T23:00:00","ND","ND","ND","ND","ND","ND","ND","ND","ND"],
    [13622,"2015-08-21T00:00:00","ND","ND","ND","ND","ND","ND","ND","ND","ND"],
    [13623,"2015-08-21T01:00:00","ND","ND","ND","ND","ND","ND","ND","ND","ND"],
    [13624,"2015-08-21T02:00:00","ND","ND","ND","ND","ND","ND","ND","ND","ND"],
    [13625,"2015-08-21T03:00:00","ND","ND","ND","ND","ND","ND","ND","ND","ND"],
    [13626,"2015-08-21T04:00:00","ND","ND","ND","ND","ND","ND","ND","ND","ND"],
    [13627,"2015-08-21T05:00:00","ND","ND","ND","ND","ND","ND","ND","ND","ND"],
    [13628,"2015-08-21T06:00:00","ND","ND","ND","ND","ND","ND","ND","ND","ND"],
    [13629,"2015-08-21T07:00:00","ND","ND","ND","ND","ND","ND","ND","ND","ND"],
    [13630,"2015-08-21T08:00:00","ND","ND","ND","ND","ND","ND","ND","ND","ND"],
    [13631,"2015-08-21T09:00:00","ND","ND","ND","ND","ND","ND","ND","ND","ND"],
    [13632,"2015-08-21T10:00:00","ND","ND","ND","ND","ND","ND","ND","ND","ND"],
    [13633,"2015-08-21T11:00:00","ND","ND","ND","ND","ND","ND","ND","ND","ND"],
    [13634,"2015-08-21T12:00:00","37","10","ND","3,1","116,8","30,1","40,3","376,6","0"],
    [13635,"2015-08-21T13:00:00","48","8","ND","2,3","150,4","31,7","36,7","433","0"],
    [13636,"2015-08-21T14:00:00","54","6","ND","2","134,1","32,5","34,1","288,5","0"],
    [13637,"2015-08-21T15:00:00","44","5","ND","2,2","176,5","33,2","31,5","297,5","0"],
    [13638,"2015-08-21T16:00:00","64","17","ND","2,6","90,6","33,7","30,2","200,9","0"],
    [13639,"2015-08-21T17:00:00","72","27","ND","3,9","68,5","33,2","33","74,9","0"],
    [13640,"2015-08-21T18:00:00","71","17","ND","3,8","15,8","32","39,8","27,2","0"],
    [13641,"2015-08-21T19:00:00","73","15","ND","4","301,2","30,5","43,3","0","0"],
    [13642,"2015-08-21T20:00:00","63","14","ND","2,8","309,1","29,1","48,6","0","0"],
    [13643,"2015-08-21T21:00:00","82","20","ND","2","56,6","27,1","57,6","0","0"],
    [13644,"2015-08-21T22:00:00","69","17","ND","3,4","105,2","26","63,2","0","0"],
    [13645,"2015-08-21T23:00:00","39","13","ND","2,8","112,8","25,3","67,2","0","0"],
    [13646,"2015-08-22T00:00:00","50","10","ND","4,1","114,3","25,4","67,2","0","0"],
    [13647,"2015-08-22T01:00:00","39","10","ND","1,6","82,3","25,5","66,1","0","0"],
    [13648,"2015-08-22T02:00:00","45","16","ND","1,8","104,5","25,1","67,1","0","0"],
    [13649,"2015-08-22T03:00:00","75","27","ND","2,2","164,8","24,8","66,2","0","0"],
    [13650,"2015-08-22T04:00:00","75","29","ND","2,4","175,9","24,6","66,2","0","0"],
    [13651,"2015-08-22T05:00:00","86","28","ND","3,1","155,3","23,6","69,4","0","0"],
    [13652,"2015-08-22T06:00:00","101","33","ND","2,1","206,1","23,1","67,8","0","0"],
    [13653,"2015-08-22T07:00:00","117","39","ND","1,6","125","22,9","66,6","9,8","0"],
    [13654,"2015-08-22T08:00:00","133","50","ND","1,1","116,4","23,9","64,3","93,5","0"],
    [13655,"2015-08-22T09:00:00","102","39","ND","2,5","117,5","26","57,7","209,9","0"],
    [13656,"2015-08-22T10:00:00","85","33","ND","2,3","184","28,1","49,1","308,5","0"],
    [13657,"2015-08-22T11:00:00","95","41","ND","0,8","201,5","30","43,5","374,4","0"],
    [13658,"2015-08-22T12:00:00","85","41","ND","0,3","118,8","31,3","36,5","375","0"],
    [13659,"2015-08-22T13:00:00","82","45","ND","1,3","99,5","32,5","34","381,8","0"],
    [13660,"2015-08-22T14:00:00","69","29","ND","3,6","78,3","33,6","32,3","395,8","0"],
    [13661,"2015-08-22T15:00:00","48","28","ND","2","86,6","34,1","29,4","276","0"],
    [13662,"2015-08-22T16:00:00","66","21","ND","4","68,9","34,4","29,1","142,9","0"],
    [13663,"2015-08-22T17:00:00","78","25","ND","3,6","41,6","33,1","37","69,7","0"],
    [13664,"2015-08-22T18:00:00","74","19","ND","4,7","313,4","32","39,9","32,3","0"],
    [13665,"2015-08-22T19:00:00","64","19","ND","6","289,4","30","46,5","0","0"],
    [13666,"2015-08-22T20:00:00","60","14","ND","4,5","300,1","28,8","51,2","0","0"],
    [13667,"2015-08-22T21:00:00","81","27","ND","3,8","77,3","26,9","60,3","0","0"],
    [13668,"2015-08-22T22:00:00","64","21","ND","3,2","104,2","25,7","65,7","0","0"],
    [13669,"2015-08-22T23:00:00","54","17","ND","3,5","80,5","25,2","67,2","0","0"],
    [13670,"2015-08-23T00:00:00","51","11","ND","2,5","80,9","24,9","68,2","0","0"],
    [13671,"2015-08-23T01:00:00","35","8","ND","0,5","335,3","24,5","70,6","0","0"],
    [13672,"2015-08-23T02:00:00","71","26","ND","2,6","138,8","24,9","70,3","0","0"],
    [13673,"2015-08-23T03:00:00","76","22","ND","2,1","128","24,5","71,8","0","0"],
    [13674,"2015-08-23T04:00:00","ND","22","ND","1,8","134,4","24","73,9","0","0"],
    [13675,"2015-08-23T05:00:00","ND","41","ND","2,1","134,8","23,7","75,4","0","0"],
    [13676,"2015-08-23T06:00:00","95","38","ND","1,5","187,5","23,8","74,9","0","0"],
    [13677,"2015-08-23T07:00:00","83","26","ND","3,2","218","24","74","19,8","0"],
    [13678,"2015-08-23T08:00:00","94","44","ND","2,4","182,8","24,9","70,3","86,4","0"],
    [13679,"2015-08-23T09:00:00","62","22","ND","3,9","169,9","26,6","61,8","202,2","0"],
    [13680,"2015-08-23T10:00:00","62","21","ND","2,5","200,9","28,1","56","289,9","0"],
    [13681,"2015-08-23T11:00:00","57","24","ND","1","54,6","29,1","52,1","275,2","0"],
    [13682,"2015-08-23T12:00:00","64","23","ND","1,8","80,1","31,2","46","421,8","0"],
    [13683,"2015-08-23T13:00:00","69","26","ND","4","74,6","32,8","39,9","443,6","0"],
    [13684,"2015-08-23T14:00:00","70","29","ND","4,1","50,2","34,1","35,9","415,4","0"],
    [13685,"2015-08-23T15:00:00","48","19","ND","4","24,5","34,3","35,1","238,9","0"],
    [13686,"2015-08-23T16:00:00","48","13","ND","5,1","11,9","33,8","37","151,2","0"],
    [13687,"2015-08-23T17:00:00","40","8","ND","4,1","330,3","33,3","37,4","133,1","0"],
    [13688,"2015-08-23T18:00:00","49","10","ND","6","291,6","32,1","40,7","52,6","0"],
    [13689,"2015-08-23T19:00:00","46","7","ND","4,7","292,3","30,5","46,2","0","0"],
    [13690,"2015-08-23T20:00:00","41","7","ND","4,9","329,4","29,4","50,3","0","0"],
    [13691,"2015-08-23T21:00:00","69","20","ND","2,5","62,7","28,5","55,1","0","0"],
    [13692,"2015-08-23T22:00:00","48","14","ND","4,9","79,6","26,6","63,3","0","0"],
    [13693,"2015-08-23T23:00:00","46","11","ND","3,4","51","26,4","64,1","0","0"],
    [13694,"2015-08-24T00:00:00","31","6","ND","2,6","60,3","26,7","62,5","0","0"],
    [13695,"2015-08-24T01:00:00","35","3","ND","2,4","180,8","26,4","64,2","0","0"],
    [13696,"2015-08-24T02:00:00","42","9","ND","2,3","169","25,8","67,4","0","0"],
    [13697,"2015-08-24T03:00:00","41","10","ND","1,9","141,3","25,6","68,4","0","0"],
    [13698,"2015-08-24T04:00:00","53","10","ND","1,6","209,6","25,3","70,3","0","0"],
    [13699,"2015-08-24T05:00:00","50","10","ND","2,6","191,5","25,3","70,8","0","0"],
    [13700,"2015-08-24T06:00:00","58","15","ND","2,2","141,4","25","72,1","0","0"],
    [13701,"2015-08-24T07:00:00","64","20","ND","1,9","162,9","24,9","73,1","10,9","0"],
    [13702,"2015-08-24T08:00:00","52","16","ND","3,1","193,4","25,4","70,6","72,3","0"],
    [13703,"2015-08-24T09:00:00","61","17","ND","2,8","215,6","27","64","216,9","0"],
    [13704,"2015-08-24T10:00:00","57","14","ND","2,3","152,5","28,7","57,3","313,6","0"],
    [13705,"2015-08-24T11:00:00","59","15","ND","0,8","82,2","29,9","51,8","330,7","0"],
    [13706,"2015-08-24T12:00:00","69","15","ND","1,3","113,5","31,3","45,8","372","0"],
    [13707,"2015-08-24T13:00:00","48","10","ND","3,4","108,7","32,8","38,8","434,4","0"],
    [13708,"2015-08-24T14:00:00","50","14","ND","4,2","105,6","33,3","37,5","236","0"],
    [13709,"2015-08-24T15:00:00","56","12","ND","2,8","99,4","33,7","36","299,8","0"],
    [13710,"2015-08-24T16:00:00","ND","ND","ND","ND","ND","ND","ND","ND","ND"],
    [13711,"2015-08-24T17:00:00","ND","ND","ND","ND","ND","ND","ND","ND","ND"],
    [13712,"2015-08-24T18:00:00","ND","ND","ND","ND","ND","ND","ND","ND","ND"],
    [13713,"2015-08-24T19:00:00","ND","ND","ND","ND","ND","ND","ND","ND","ND"],
    [13714,"2015-08-24T20:00:00","ND","ND","ND","ND","ND","ND","ND","ND","ND"],
    [13715,"2015-08-24T21:00:00","ND","ND","ND","ND","ND","ND","ND","ND","ND"],
    [13716,"2015-08-24T22:00:00","ND","ND","ND","ND","ND","ND","ND","ND","ND"],
    [13717,"2015-08-24T23:00:00","ND","ND","ND","ND","ND","ND","ND","ND","ND"],
    [13718,"2015-08-25T00:00:00","ND","ND","ND","ND","ND","ND","ND","ND","ND"],
    [13719,"2015-08-25T01:00:00","ND","ND","ND","ND","ND","ND","ND","ND","ND"],
    [13720,"2015-08-25T02:00:00","ND","ND","ND","ND","ND","ND","ND","ND","ND"],
    [13721,"2015-08-25T03:00:00","ND","ND","ND","ND","ND","ND","ND","ND","ND"],
    [13722,"2015-08-25T04:00:00","ND","ND","ND","ND","ND","ND","ND","ND","ND"],
    [13723,"2015-08-25T05:00:00","ND","ND","ND","ND","ND","ND","ND","ND","ND"],
    [13724,"2015-08-25T06:00:00","ND","ND","ND","ND","ND","ND","ND","ND","ND"],
    [13725,"2015-08-25T07:00:00","ND","ND","ND","ND","ND","ND","ND","ND","ND"],
    [13726,"2015-08-25T08:00:00","ND","ND","ND","ND","ND","ND","ND","ND","ND"],
    [13727,"2015-08-25T09:00:00","ND","ND","ND","ND","ND","ND","ND","ND","ND"],
    [13728,"2015-08-25T10:00:00","ND","ND","ND","ND","ND","ND","ND","ND","ND"],
    [13729,"2015-08-25T11:00:00","ND","ND","ND","ND","ND","ND","ND","ND","ND"],
    [13730,"2015-08-25T12:00:00","ND","ND","ND","ND","ND","ND","ND","ND","ND"],
    [13731,"2015-08-25T13:00:00","ND","ND","ND","ND","ND","ND","ND","ND","ND"],
    [13732,"2015-08-25T14:00:00","ND","ND","ND","ND","ND","ND","ND","ND","ND"],
    [13733,"2015-08-25T15:00:00","ND","ND","ND","ND","ND","ND","ND","ND","ND"],
    [13734,"2015-08-25T16:00:00","ND","ND","ND","ND","ND","ND","ND","ND","ND"],
    [13735,"2015-08-25T17:00:00","ND","ND","ND","ND","ND","ND","ND","ND","ND"],
    [13736,"2015-08-25T18:00:00","ND","ND","ND","ND","ND","ND","ND","ND","ND"],
    [13737,"2015-08-25T19:00:00","ND","ND","ND","ND","ND","ND","ND","ND","ND"],
    [13738,"2015-08-25T20:00:00","ND","ND","ND","ND","ND","ND","ND","ND","ND"],
    [13739,"2015-08-25T21:00:00","ND","ND","ND","ND","ND","ND","ND","ND","ND"],
    [13740,"2015-08-25T22:00:00","ND","ND","ND","ND","ND","ND","ND","ND","ND"],
    [13741,"2015-08-25T23:00:00","ND","ND","ND","ND","ND","ND","ND","ND","ND"],
    [13742,"2015-08-26T00:00:00","ND","ND","ND","ND","ND","ND","ND","ND","ND"],
    [13743,"2015-08-26T01:00:00","ND","ND","ND","ND","ND","ND","ND","ND","ND"],
    [13744,"2015-08-26T02:00:00","ND","ND","ND","ND","ND","ND","ND","ND","ND"],
    [13745,"2015-08-26T03:00:00","ND","ND","ND","ND","ND","ND","ND","ND","ND"],
    [13746,"2015-08-26T04:00:00","ND","ND","ND","ND","ND","ND","ND","ND","ND"],
    [13747,"2015-08-26T05:00:00","ND","ND","ND","ND","ND","ND","ND","ND","ND"],
    [13748,"2015-08-26T06:00:00","ND","ND","ND","ND","ND","ND","ND","ND","ND"],
    [13749,"2015-08-26T07:00:00","ND","ND","ND","ND","ND","ND","ND","ND","ND"],
    [13750,"2015-08-26T08:00:00","ND","ND","ND","ND","ND","ND","ND","ND","ND"],
    [13751,"2015-08-26T09:00:00","ND","ND","ND","ND","ND","ND","ND","ND","ND"],
    [13752,"2015-08-26T10:00:00","ND","ND","ND","ND","ND","ND","ND","ND","ND"],
    [13753,"2015-08-26T11:00:00","ND","ND","ND","ND","ND","ND","ND","ND","ND"],
    [13754,"2015-08-26T12:00:00","ND","ND","ND","ND","ND","ND","ND","ND","ND"],
    [13755,"2015-08-26T13:00:00","ND","ND","ND","ND","ND","ND","ND","ND","ND"],
    [13756,"2015-08-26T14:00:00","ND","ND","ND","ND","ND","ND","ND","ND","ND"],
    [13757,"2015-08-26T15:00:00","ND","ND","ND","ND","ND","ND","ND","ND","ND"],
    [13758,"2015-08-26T16:00:00","ND","ND","ND","ND","ND","ND","ND","ND","ND"],
    [13759,"2015-08-26T17:00:00","ND","ND","ND","ND","ND","ND","ND","ND","ND"],
    [13760,"2015-08-26T18:00:00","ND","ND","ND","ND","ND","ND","ND","ND","ND"],
    [13761,"2015-08-26T19:00:00","ND","ND","ND","ND","ND","ND","ND","ND","ND"],
    [13762,"2015-08-26T20:00:00","ND","ND","ND","ND","ND","ND","ND","ND","ND"],
    [13763,"2015-08-26T21:00:00","ND","ND","ND","ND","ND","ND","ND","ND","ND"],
    [13764,"2015-08-26T22:00:00","ND","ND","ND","ND","ND","ND","ND","ND","ND"],
    [13765,"2015-08-26T23:00:00","ND","ND","ND","ND","ND","ND","ND","ND","ND"],
    [13766,"2015-08-27T00:00:00","ND","ND","ND","ND","ND","ND","ND","ND","ND"],
    [13767,"2015-08-27T01:00:00","ND","ND","ND","ND","ND","ND","ND","ND","ND"],
    [13768,"2015-08-27T02:00:00","ND","ND","ND","ND","ND","ND","ND","ND","ND"],
    [13769,"2015-08-27T03:00:00","ND","ND","ND","ND","ND","ND","ND","ND","ND"],
    [13770,"2015-08-27T04:00:00","ND","ND","ND","ND","ND","ND","ND","ND","ND"],
    [13771,"2015-08-27T05:00:00","ND","ND","ND","ND","ND","ND","ND","ND","ND"],
    [13772,"2015-08-27T06:00:00","ND","ND","ND","ND","ND","ND","ND","ND","ND"],
    [13773,"2015-08-27T07:00:00","ND","ND","ND","ND","ND","ND","ND","ND","ND"],
    [13774,"2015-08-27T08:00:00","ND","ND","ND","ND","ND","ND","ND","ND","ND"],
    [13775,"2015-08-27T09:00:00","ND","ND","ND","ND","ND","ND","ND","ND","ND"],
    [13776,"2015-08-27T10:00:00","ND","ND","ND","0,9","223,7","28,3","55,3","286,1","0"],
    [13777,"2015-08-27T11:00:00","ND","ND","ND","1,6","106,2","29,6","50,9","296,7","0"],
    [13778,"2015-08-27T12:00:00","44","19","83,05","2,5","90,1","30,7","47,1","383,3","0"],
    [13779,"2015-08-27T13:00:00","56","16","90,54","2,4","107,6","31,5","44,7","253,9","0"],
    [13780,"2015-08-27T14:00:00","63","17","84,79","4,3","76,4","31,6","45,1","170,8","0"],
    [13781,"2015-08-27T15:00:00","61","19","83,81","4,3","73,7","31,7","43,8","162,2","0"],
    [13782,"2015-08-27T16:00:00","90","23","70,08","5,1","69,8","31,7","42,8","112,3","0"],
    [13783,"2015-08-27T17:00:00","80","29","71,92","4,7","30","31,7","44,6","65,7","0"],
    [13784,"2015-08-27T18:00:00","78","21","53,95","3,6","335","31,2","45,6","30,1","0"],
    [13785,"2015-08-27T19:00:00","66","11","32,22","4,4","285,8","29,9","48,5","0","0"],
    [13786,"2015-08-27T20:00:00","60","17","25,31","4,2","288,3","29,4","50,6","0","0"],
    [13787,"2015-08-27T21:00:00","63","20","19","1,7","62,9","28,3","56,6","0","0"],
    [13788,"2015-08-27T22:00:00","76","41","13,29","3","85,9","26,4","65,7","0","0"],
    [13789,"2015-08-27T23:00:00","72","33","14,54","2,5","57,7","25,9","67,5","0","0"],
    [13790,"2015-08-28T00:00:00","36","9","14,11","3","82,6","25,9","68","0","0"],
    [13791,"2015-08-28T01:00:00","19","10","15,99","1,9","54,9","25,7","69,1","0","0"],
    [13792,"2015-08-28T02:00:00","40","9","19,29","1,5","107","25,8","68,7","0","0"],
    [13793,"2015-08-28T03:00:00","48","11","12,85","1,8","192,8","25,5","70,3","0","0"],
    [13794,"2015-08-28T04:00:00","53","23","10,83","1","219,7","24,9","75,3","0","6,86"],
    [13795,"2015-08-28T05:00:00","64","24","5,4","2,3","123,4","24,3","80,5","0","0,25"],
    [13796,"2015-08-28T06:00:00","82","37","5,85","1,2","71,1","24,1","80,9","0","0"],
    [13797,"2015-08-28T07:00:00","111","52","5,83","1,6","90,8","24,4","79,7","6,6","0"],
    [13798,"2015-08-28T08:00:00","115","50","10,54","2","78,1","25,2","74,4","91,4","0"],
    [13799,"2015-08-28T09:00:00","90","40","31,67","2,2","107,9","26,9","65,6","214","0"],
    [13800,"2015-08-28T10:00:00","84","31","56,38","2,2","122,2","28,6","59,7","315,7","0"],
    [13801,"2015-08-28T11:00:00","66","26","88,29","2,3","170,9","30,2","53","390","0"],
    [13802,"2015-08-28T12:00:00","70","23","112,27","1,6","188,3","32,1","46","439,4","0"],
    [13803,"2015-08-28T13:00:00","69","27","113,58","2","121","34,1","38,4","444,8","0"],
    [13804,"2015-08-28T14:00:00","53","21","117,68","2","11,6","35,4","32,2","421,6","0"],
    [13805,"2015-08-28T15:00:00","60","22","110,29","3,7","8,8","36,1","30,4","281,1","0"],
    [13806,"2015-08-28T16:00:00","65","17","101,81","8,1","286,4","35,1","35,2","200,5","0"],
    [13807,"2015-08-28T17:00:00","69","11","70,57","9,5","298,3","33","39,7","133,5","0"],
    [13808,"2015-08-28T18:00:00","53","10","45,51","6,7","307,8","31,4","43","24,4","0"],
    [13809,"2015-08-28T19:00:00","52","11","21,78","2","305,4","30,3","46,5","0","0"],
    [13810,"2015-08-28T20:00:00","97","41","12,05","3,1","96,1","28,4","56,2","0","0"],
    [13811,"2015-08-28T21:00:00","87","35","11,91","3,6","90,9","27,3","61,1","0","0"],
    [13812,"2015-08-28T22:00:00","77","34","9,73","3,4","79,5","25,8","66,8","0","0"],
    [13813,"2015-08-28T23:00:00","48","15","10,17","3,2","83,4","25,4","68,2","0","0"],
    [13814,"2015-08-29T00:00:00","44","11","13,87","2,9","69,1","25,2","68,9","0","0"],
    [13815,"2015-08-29T01:00:00","42","7","16,37","0,6","68,1","25","69,3","0","0"],
    [13816,"2015-08-29T02:00:00","49","10","11,62","2,4","210,5","25","69,9","0","0"],
    [13817,"2015-08-29T03:00:00","77","23","9,44","2,4","181,1","24,5","72,3","0","0"],
    [13818,"2015-08-29T04:00:00","90","28","5,53","2,2","112,5","23,1","78,2","0","0"],
    [13819,"2015-08-29T05:00:00","87","33","5,83","1,7","143,5","23,5","76,4","0","0"],
    [13820,"2015-08-29T06:00:00","99","32","5,28","1,4","73,5","22,4","79,7","0","0"],
    [13821,"2015-08-29T07:00:00","132","51","6,55","2,2","89,1","22,1","81,1","21,1","0"],
    [13822,"2015-08-29T08:00:00","97","33","13,89","2,5","171,2","23,7","74,3","113,3","0"],
    [13823,"2015-08-29T09:00:00","81","26","37,58","1,6","167,4","25,7","66,6","219,7","0"],
    [13824,"2015-08-29T10:00:00","73","27","64,58","1,4","169,3","28,3","54,6","323,4","0"],
    [13825,"2015-08-29T11:00:00","54","18","88,8","2,5","223,2","30,7","43,4","403,3","0"],
    [13826,"2015-08-29T12:00:00","47","15","99,16","1,8","168,4","33,1","33,6","447,3","0"],
    [13827,"2015-08-29T13:00:00","46","10","84,17","2,7","126,3","34,9","25,9","451,9","0"],
    [13828,"2015-08-29T14:00:00","40","9","85,25","2,8","109,9","35,7","22,9","419,9","0"],
    [13829,"2015-08-29T15:00:00","49","16","78,44","3,9","108,3","36,5","21,3","350,6","0"],
    [13830,"2015-08-29T16:00:00","62","21","71,06","0,9","179,2","35,5","25,9","53,4","0"],
    [13831,"2015-08-29T17:00:00","66","18","61,32","7,3","291,9","32,7","37,7","42,4","0"],
    [13832,"2015-08-29T18:00:00","65","15","44,8","6,2","291,7","30,9","44","0","0"],
    [13833,"2015-08-29T19:00:00","88","29","25,84","2,5","30,7","30","47,1","0","0"],
    [13834,"2015-08-29T20:00:00","74","29","16,56","2,5","118,8","28,5","54,3","0","0"],
    [13835,"2015-08-29T21:00:00","64","21","14,5","1,4","128,7","27,7","57,4","0","0"],
    [13836,"2015-08-29T22:00:00","57","16","15,27","4,1","99,7","26,3","63,6","0","0"],
    [13837,"2015-08-29T23:00:00","53","16","13,91","3,2","97","25,7","66,3","0","0"],
    [13838,"2015-08-30T00:00:00","49","15","14,29","3,4","77","25,4","66,9","0","0"],
    [13839,"2015-08-30T01:00:00","51","21","14,19","3,2","89,4","23,9","73,2","0","0"],
    [13840,"2015-08-30T02:00:00","55","15","13,58","1,5","84,2","23,9","73,6","0","0"],
    [13841,"2015-08-30T03:00:00","61","15","11,75","2,4","186,4","23,9","73,3","0","0"],
    [13842,"2015-08-30T04:00:00","83","35","9,52","2,7","187,7","23,5","73","0","0"],
    [13843,"2015-08-30T05:00:00","78","32","11,5","2,6","209,7","23,5","71,4","0","0"],
    [13844,"2015-08-30T06:00:00","93","37","7,1","2,4","120,8","22,4","77","0","0"],
    [13845,"2015-08-30T07:00:00","106","41","8,16","1,7","173,8","22,4","75","13,3","0"],
    [13846,"2015-08-30T08:00:00","101","47","12,48","3,2","119,1","22,9","70,4","75,2","0"],
    [13847,"2015-08-30T09:00:00","80","39","44,8","0,9","336","25,4","59,3","187","0"],
    [13848,"2015-08-30T10:00:00","99","43","80,56","2,7","92","27,6","51,2","220,2","0"],
    [13849,"2015-08-30T11:00:00","82","38","92,58","3,3","52,5","28,8","48","280,9","0"],
    [13850,"2015-08-30T12:00:00","67","26","94,06","3,1","100,6","29,7","44","166,8","0"],
    [13851,"2015-08-30T13:00:00","72","25","101,75","3,5","105,4","30,7","42,4","291","0"],
    [13852,"2015-08-30T14:00:00","76","35","122,18","3,5","78","32,6","37,5","312,3","0"],
    [13853,"2015-08-30T15:00:00","66","26","111,01","4,3","92,3","32,8","36,1","156,8","0"],
    [13854,"2015-08-30T16:00:00","86","28","75,16","3,7","46,6","32,3","39,2","51","0"],
    [13855,"2015-08-30T17:00:00","48","16","67,56","5,5","273,1","31,2","43,8","47,4","0"],
    [13856,"2015-08-30T18:00:00","54","14","58,73","4,4","285,5","30,5","44,8","11,6","0"],
    [13857,"2015-08-30T19:00:00","79","27","42,23","2,3","307,4","29,9","47,1","0","0"],
    [13858,"2015-08-30T20:00:00","89","34","20,06","1,6","109,8","28,4","54,4","0","0"],
    [13859,"2015-08-30T21:00:00","89","23","11,32","2,4","109,8","26,7","62,9","0","0"],
    [13860,"2015-08-30T22:00:00","78","28","10,26","0,4","289,3","27,1","59,7","0","0"],
    [13861,"2015-08-30T23:00:00","120","38","6,93","1,8","169,6","25,7","66,2","0","0"],
    [13862,"2015-08-31T00:00:00","96","29","7,77","1,3","123,2","25,2","68,4","0","0"],
    [13863,"2015-08-31T01:00:00","71","24","13,11","1,2","230,5","25,2","68,2","0","0"],
    [13864,"2015-08-31T02:00:00","100","43","15,01","2","141,6","25,2","66,6","0","0"],
    [13865,"2015-08-31T03:00:00","99","41","16,54","2,9","130,2","24,7","67","0","0"],
    [13866,"2015-08-31T04:00:00","118","53","21,33","2,7","199,1","24,2","68,2","0","0"],
    [13867,"2015-08-31T05:00:00","122","ND","17,11","2,1","175,9","23,9","68,8","0","0"],
    [13868,"2015-08-31T06:00:00","115","48","10,01","2,7","169,6","23,5","69,3","0","0"],
    [13869,"2015-08-31T07:00:00","122","48","10,2","1,8","230,8","23,8","66","14,8","0"],
    [13870,"2015-08-31T08:00:00","152","52","16,44","1,8","224,1","25,8","60,3","86,7","0"],
    [13871,"2015-08-31T09:00:00","118","51","34,4","4,5","113,7","26,9","57,1","155,5","0"],
    [13872,"2015-08-31T10:00:00","81","32","44,98","2,7","133,5","27","57,1","128,2","0"],
    [13873,"2015-08-31T11:00:00","83","32","65,31","2,4","97,8","28","54","218,2","0"],
    [13874,"2015-08-31T12:00:00","72","21","89,19","2,8","79","29,8","49","300","0"],
    [13875,"2015-08-31T13:00:00","70","29","105,26","2","57,5","31,4","42,1","285,9","0"],
    [13876,"2015-08-31T14:00:00","53","15","101,96","2,9","169","32,7","35,8","305,3","0"],
    [13877,"2015-08-31T15:00:00","51","19","110,52","2,7","166,8","33,4","34,1","311,2","0"],
    [13878,"2015-08-31T16:00:00","72","19","104,16","4","65,8","33,9","34,8","242,1","0"],
    [13879,"2015-08-31T17:00:00","80","19","74,14","5","45,2","33,1","39,2","57,5","0"],
    [13880,"2015-08-31T18:00:00","88","16","60,79","4,7","3,6","32,2","40,5","36,7","0"],
    [13881,"2015-08-31T19:00:00","72","20","38,15","4,4","308,8","30,8","43,6","0","0"],
    [13882,"2015-08-31T20:00:00","59","12","32,89","4,9","283","30,1","46,4","0","0"],
    [13883,"2015-08-31T21:00:00","59","16","21,59","1,7","95,9","28,9","52,2","0","0"],
    [13884,"2015-08-31T22:00:00","111","51","18,98","3,5","99,6","27,5","60,6","0","0"],
    [13885,"2015-08-31T23:00:00","68","26","14,19","0,9","84,9","27,2","60,7","0","0"],
    [13886,"2015-09-01T00:00:00","64","22","13,95","3,3","206,9","27,4","58,8","0","0"],
    [13887,"2015-09-01T01:00:00","46","15","13,19","2,5","119","25,9","66,2","0","0"],
    [13888,"2015-09-01T02:00:00","45","13","16,43","1,1","39,9","25,4","68,8","0","0"],
    [13889,"2015-09-01T03:00:00","44","8","15,56","0,3","43","25,3","69,5","0","0"],
    [13890,"2015-09-01T04:00:00","46","21","12,25","2","92,2","25","71,3","0","0"],
    [13891,"2015-09-01T05:00:00","43","12","11,28","1,6","111,1","24,3","73,7","0","0"],
    [13892,"2015-09-01T06:00:00","91","31","8,16","2,5","216,2","23,9","75,1","0","0"],
    [13893,"2015-09-01T07:00:00","107","40","6,97","2,8","145,3","23,6","74,7","9,2","0"],
    [13894,"2015-09-01T08:00:00","98","39","11,6","2,2","157,9","24,2","72,3","42,7","0"],
    [13895,"2015-09-01T09:00:00","90","29","30,75","3,3","215","25,6","67,4","152,5","0"],
    [13896,"2015-09-01T10:00:00","95","22","58,52","2","198,7","27,9","59,3","339","0"],
    [13897,"2015-09-01T11:00:00","65","20","86,78","0,8","159,1","29,9","48,4","362,5","0"],
    [13898,"2015-09-01T12:00:00","48","16","94,13","2,2","137,2","31,9","42","391,1","0"],
    [13899,"2015-09-01T13:00:00","69","18","105,2","0,8","148","32,9","38,3","251,9","0"],
    [13900,"2015-09-01T14:00:00","68","25","89,37","4,2","80","33,2","37,7","155,5","0"],
    [13901,"2015-09-01T15:00:00","76","25","83,7","4,2","57,2","33,2","38","110,1","0"],
    [13902,"2015-09-01T16:00:00","69","12","78,14","3,8","2,4","32,7","39,7","77,2","0"],
    [13903,"2015-09-01T17:00:00","77","12","56,87","3,7","321,2","31,7","41,3","39,1","0"],
    [13904,"2015-09-01T18:00:00","86","20","32,38","2,8","348,9","30,9","43,4","8,9","0"],
    [13905,"2015-09-01T19:00:00","87","27","19,58","0,6","34,5","29,4","49","0","0"],
    [13906,"2015-09-01T20:00:00","76","22","12,25","2,9","101,5","27,3","58,2","0","0"],
    [13907,"2015-09-01T21:00:00","74","21","11,42","3,2","95,3","26,8","62,4","0","0"],
    [13908,"2015-09-01T22:00:00","78","32","12,85","2,5","103,5","25,9","65,9","0","0"],
    [13909,"2015-09-01T23:00:00","52","18","11,72","1,6","81,9","25,7","65,1","0","0"],
    [13910,"2015-09-02T00:00:00","82","25","10,34","1,4","203,4","25,1","69,4","0","0"],
    [13911,"2015-09-02T01:00:00","59","23","12,44","1,9","111,4","24,8","70,1","0","0"],
    [13912,"2015-09-02T02:00:00","38","10","14,97","2,3","95,3","24,2","71,3","0","0"],
    [13913,"2015-09-02T03:00:00","38","7","14,64","1,8","124,5","23,5","74,5","0","0"],
    [13914,"2015-09-02T04:00:00","66","21","11,07","2,2","180,2","23,9","73,6","0","0"],
    [13915,"2015-09-02T05:00:00","77","28","9,01","2,8","239,6","23,8","74,5","0","0"],
    [13916,"2015-09-02T06:00:00","68","29","7,85","1,8","186,2","24","72,1","0","0"],
    [13917,"2015-09-02T07:00:00","73","22","9,71","2,8","206,7","24,2","70,9","15,9","0"],
    [13918,"2015-09-02T08:00:00","82","27","13,83","3,1","152,9","24,9","68,1","63","0"],
    [13919,"2015-09-02T09:00:00","78","25","29,22","2,1","168,3","25,9","64","157","0"],
    [13920,"2015-09-02T10:00:00","65","28","56,44","2,2","148,1","27,9","56,8","310,1","0"],
    [13921,"2015-09-02T11:00:00","59","22","89,66","1,9","223,6","29,5","50,5","367,4","0"],
    [13922,"2015-09-02T12:00:00","58","23","100,24","1,7","181,1","31,2","43,1","382,1","0"],
    [13923,"2015-09-02T13:00:00","46","21","107,32","1,9","35,4","32,5","39,7","434,3","0"],
    [13924,"2015-09-02T14:00:00","42","16","102,08","1,7","107,2","33,7","33,6","388,9","0"],
    [13925,"2015-09-02T15:00:00","45","ND","84,4","4","70,4","34,8","29,3","300,2","0"],
    [13926,"2015-09-02T16:00:00","47","19","55,24","4,3","71,3","34,9","26,6","109,2","0"],
    [13927,"2015-09-02T17:00:00","61","30","56,34","3,6","72,8","34,6","31,1","74,5","0"],
    [13928,"2015-09-02T18:00:00","74","24","54,51","3,7","283,5","32,7","38,6","11,8","0"],
    [13929,"2015-09-02T19:00:00","73","22","38,56","5,4","284","30,7","45,4","0","0"],
    [13930,"2015-09-02T20:00:00","66","19","32,07","4,9","297,8","29,9","47,9","0","0"],
    [13931,"2015-09-02T21:00:00","76","20","17,37","2,2","75,8","28,7","53,6","0","0"],
    [13932,"2015-09-02T22:00:00","83","36","16,25","3,4","96","27,6","59,2","0","0"],
    [13933,"2015-09-02T23:00:00","59","14","18,68","3,7","98,8","26,2","65,6","0","0"],
    [13934,"2015-09-03T00:00:00","39","11","21,27","2,5","87","26,1","66,6","0","0"],
    [13935,"2015-09-03T01:00:00","46","20","19,58","0,9","152,2","26","66,5","0","0"],
    [13936,"2015-09-03T02:00:00","68","27","20,25","1,4","245,6","26,2","63,8","0","0"],
    [13937,"2015-09-03T03:00:00","66","26","23,27","3,7","194,3","26,3","60,5","0","0"],
    [13938,"2015-09-03T04:00:00","75","25","18,37","2,6","147,1","25,3","65,5","0","0"],
    [13939,"2015-09-03T05:00:00","84","27","10,28","2","82,4","24,4","70","0","0"],
    [13940,"2015-09-03T06:00:00","94","38","8,05","2,3","130,5","24,4","69,6","0","0"],
    [13941,"2015-09-03T07:00:00","104","39","8,36","1,8","134","24,3","65,2","10,9","0"],
    [13942,"2015-09-03T08:00:00","140","47","12,7","2","88,2","24,5","64,9","63,4","0"],
    [13943,"2015-09-03T09:00:00","85","36","26,35","2,2","150,3","25,9","57","134,7","0"],
    [13944,"2015-09-03T10:00:00","65","22","54,77","2,2","211,4","27,8","49,3","209,3","0"],
    [13945,"2015-09-03T11:00:00","72","24","85,3","0,3","145,9","29,2","46,4","306,1","0"],
    [13946,"2015-09-03T12:00:00","70","21","99,24","1,9","166,4","31,2","39,3","314,6","0"],
    [13947,"2015-09-03T13:00:00","55","16","92,92","2,1","173,1","31,9","36,3","354,1","0"],
    [13948,"2015-09-03T14:00:00","51","11","106,64","2,4","187,6","33,5","32,1","400","0"],
    [13949,"2015-09-03T15:00:00","53","7","99,2","2,3","169,3","34,7","27,5","365","0"],
    [13950,"2015-09-03T16:00:00","63","9","85,21","0,8","125,6","34,9","24,6","182,4","0"],
    [13951,"2015-09-03T17:00:00","82","18","88,44","3,6","27,2","34,3","31,6","103","0"],
    [13952,"2015-09-03T18:00:00","91","11","66,8","5,7","306,8","32","40","19,4","0"],
    [13953,"2015-09-03T19:00:00","72","8","37,17","5,8","288,9","30,4","45,2","0","0"],
    [13954,"2015-09-03T20:00:00","57","6","34,71","7,8","305,7","29,5","48,6","0","0"],
    [13955,"2015-09-03T21:00:00","49","11","24,41","2,4","357,6","28,6","52,5","0","0"],
    [13956,"2015-09-03T22:00:00","49","13","13,82","2,5","116,1","26,5","63,1","0","0"],
    [13957,"2015-09-03T23:00:00","39","8","17,96","2,6","80,3","25,7","66,5","0","0"],
    [13958,"2015-09-04T00:00:00","28","1","24,35","3,9","58,2","25,5","67","0","0"],
    [13959,"2015-09-04T01:00:00","26","5","22,31","1,9","114","25","68,5","0","0"],
    [13960,"2015-09-04T02:00:00","54","15","15,35","3,7","222,7","24","73,2","0","0"],
    [13961,"2015-09-04T03:00:00","50","9","9,36","2","180,4","23,6","74,8","0","0"],
    [13962,"2015-09-04T04:00:00","55","19","13,21","2,5","214","23,7","74","0","0"],
    [13963,"2015-09-04T05:00:00","71","19","9,99","2,2","166,3","23,4","74,4","0","0"],
    [13964,"2015-09-04T06:00:00","72","25","7,95","2,8","185","22,3","75,2","0","0"],
    [13965,"2015-09-04T07:00:00","88","35","8,56","1,6","159","22,5","74,1","37,7","0"],
    [13966,"2015-09-04T08:00:00","102","31","13,46","2,6","104,8","24,5","67,9","106,7","0"],
    [13967,"2015-09-04T09:00:00","65","23","39,33","3,4","155,7","26,5","56,2","253,1","0"],
    [13968,"2015-09-04T10:00:00","51","16","70,25","0,9","142,7","28","53,3","335,2","0"],
    [13969,"2015-09-04T11:00:00","56","19","86,5","1,9","105,6","30,2","43,9","408,7","0"],
    [13970,"2015-09-04T12:00:00","48","16","100,39","1,5","90,2","32","34,5","446,3","0"],
    [13971,"2015-09-04T13:00:00","64","18","124,53","2,8","29,6","33,7","31,7","447,3","0"],
    [13972,"2015-09-04T14:00:00","74","14","153,26","3,7","13,5","34,8","30,4","403,1","0"],
    [13973,"2015-09-04T15:00:00","59","10","115,43","4,3","22,8","34,9","31","240,5","0"],
    [13974,"2015-09-04T16:00:00","60","11","89,76","7,1","303,3","34,4","34","225,1","0"],
    [13975,"2015-09-04T17:00:00","69","9","76,75","7,7","288,9","33,4","36,1","122,6","0"],
    [13976,"2015-09-04T18:00:00","63","10","55,46","6,5","315,6","32,4","37,4","23,8","0"],
    [13977,"2015-09-04T19:00:00","58","11","32,79","6","317,1","30,8","42","0","0"],
    [13978,"2015-09-04T20:00:00","59","14","34,81","5","302,6","30","45,1","0","0"],
    [13979,"2015-09-04T21:00:00","65","13","24,04","0,7","37,4","28,8","50,5","0","0"],
    [13980,"2015-09-04T22:00:00","50","16","22,82","1,1","16,9","28,3","54,3","0","0"],
    [13981,"2015-09-04T23:00:00","48","10","20,33","1,3","110,8","26,7","62,5","0","0"],
    [13982,"2015-09-05T00:00:00","42","11","21,06","2,3","116,4","26,7","63,2","0","0"],
    [13983,"2015-09-05T01:00:00","54","25","18,68","1,5","169,4","26,8","62","0","0"],
    [13984,"2015-09-05T02:00:00","83","37","15,8","2,7","212,1","26,6","62,7","0","0"],
    [13985,"2015-09-05T03:00:00","80","32","14,34","2,4","140,2","26,1","65,1","0","0"],
    [13986,"2015-09-05T04:00:00","97","40","15,37","3,5","199,2","25,6","66,1","0","0"],
    [13987,"2015-09-05T05:00:00","98","35","11,75","1,6","141,2","25,6","66,2","0","0"],
    [13988,"2015-09-05T06:00:00","109","47","8,93","1,6","94,1","24,9","70,4","0","0"],
    [13989,"2015-09-05T07:00:00","124","50","9,44","1,9","60,7","24,3","72,8","12,9","0"],
    [13990,"2015-09-05T08:00:00","118","52","12,01","2,7","144,6","25","67,5","35,3","0"],
    [13991,"2015-09-05T09:00:00","102","35","20,76","2,6","170,2","25,6","63,7","77,2","0"],
    [13992,"2015-09-05T10:00:00","87","33","44,94","2","140,6","27,6","55,7","188,5","0"],
    [13993,"2015-09-05T11:00:00","77","31","60,46","3,5","80,8","29","53","215","0"],
    [13994,"2015-09-05T12:00:00","65","30","85,7","2,8","87,4","30,1","49,1","208,3","0"],
    [13995,"2015-09-05T13:00:00","65","29","79,87","4,1","78,7","30,6","48","136,2","0"],
    [13996,"2015-09-05T14:00:00","87","28","70,47","4,5","73,9","31,1","46,3","113,2","0"],
    [13997,"2015-09-05T15:00:00","81","23","67,07","4","79,5","31,5","44,3","106,8","0"],
    [13998,"2015-09-05T16:00:00","60","14","89,19","1,3","24,5","31,8","44,9","144,8","0"],
    [13999,"2015-09-05T17:00:00","49","9","68,02","6,1","283,3","31,7","41","93,6","0"],
    [14000,"2015-09-05T18:00:00","55","5","54,71","5,5","285,4","30,9","42,4","23,5","0"],
    [14001,"2015-09-05T19:00:00","61","17","33,71","4,1","297,6","29,4","48,1","0","0"],
    [14002,"2015-09-05T20:00:00","42","13","27,2","4","301,3","28,5","52,1","0","0"],
    [14003,"2015-09-05T21:00:00","51","13","18,33","2,1","60,7","27,2","57,8","0","0"],
    [14004,"2015-09-05T22:00:00","46","13","13,17","3,6","91,9","25,3","67,3","0","0"],
    [14005,"2015-09-05T23:00:00","35","8","15,4","1,9","64,4","25,5","66,7","0","0"],
    [14006,"2015-09-06T00:00:00","39","7","18,47","1","28,7","25,7","65,6","0","0"],
    [14007,"2015-09-06T01:00:00","48","15","15,64","1","274,8","25,1","68,7","0","0"],
    [14008,"2015-09-06T02:00:00","59","18","11,75","2,4","192,6","24,7","70,6","0","0"],
    [14009,"2015-09-06T03:00:00","44","12","11,58","1,4","121,9","24,3","72,8","0","0"],
    [14010,"2015-09-06T04:00:00","51","22","12,44","1,3","154,1","24,5","72","0","0"],
    [14011,"2015-09-06T05:00:00","52","17","7,42","1","83,4","23,7","76","0","0"],
    [14012,"2015-09-06T06:00:00","67","23","7,57","1,5","196,7","24","74,9","0","0"],
    [14013,"2015-09-06T07:00:00","68","21","12,36","2","216,5","24,4","72,2","15","0"],
    [14014,"2015-09-06T08:00:00","79","21","15,78","2,7","126,5","25,1","70,2","48,5","0"],
    [14015,"2015-09-06T09:00:00","79","23","26,63","1,4","167,8","25,7","68,1","88","0"],
    [14016,"2015-09-06T10:00:00","83","28","43,51","3","139,8","26,7","63,7","150","0"],
    [14017,"2015-09-06T11:00:00","72","28","63,01","1,7","122","28,4","57,1","287,7","0"],
    [14018,"2015-09-06T12:00:00","46","9","75,51","2,7","85,5","29,9","49,9","364","0"],
    [14019,"2015-09-06T13:00:00","45","13","82,75","3,6","102,9","30,7","47,8","255,7","0"],
    [14020,"2015-09-06T14:00:00","47","19","85,76","3,4","89,2","31,7","44,4","299,1","0"],
    [14021,"2015-09-06T15:00:00","58","19","120,9","3,9","32,3","32,8","40,9","262,5","0"],
    [14022,"2015-09-06T16:00:00","48","31","101,93","3,1","24,9","33,4","38,9","244,1","0"],
    [14023,"2015-09-06T17:00:00","62","7","69,57","6,1","292,9","32,8","38,8","115,9","0"],
    [14024,"2015-09-06T18:00:00","51","15","54,04","6,2","283","31,6","41,1","27,4","0"],
    [14025,"2015-09-06T19:00:00","48","8","43,43","5,7","292,9","30,3","46","0","0"],
    [14026,"2015-09-06T20:00:00","44","14","33,54","2","164,2","29,1","52,1","0","0"],
    [14027,"2015-09-06T21:00:00","82","44","31,52","2,3","234,1","27,4","62","0","0"],
    [14028,"2015-09-06T22:00:00","84","30","22,63","2,7","191,9","27,8","59,8","0","0"],
    [14029,"2015-09-06T23:00:00","109","60","20,02","2,5","169,4","26,9","66,6","0","0"],
    [14030,"2015-09-07T00:00:00","76","35","16,35","2,7","123,5","26","70,7","0","0"],
    [14031,"2015-09-07T01:00:00","67","36","20,72","3,1","109,7","25,8","71,7","0","0"],
    [14032,"2015-09-07T02:00:00","36","6","19,56","2,7","105,8","25,5","69,3","0","0"],
    [14033,"2015-09-07T03:00:00","40","13","16,17","1,4","166","25,1","71,5","0","0"],
    [14034,"2015-09-07T04:00:00","119","ND","15,03","2,9","200,6","25","72,9","0","0"],
    [14035,"2015-09-07T05:00:00","71","28","9,73","2,6","81","24,3","75,4","0","0"],
    [14036,"2015-09-07T06:00:00","71","28","7,36","2,4","129","24,2","75,1","0","0"],
    [14037,"2015-09-07T07:00:00","94","33","7,71","1,6","190,4","24,4","75,1","9","0"],
    [14038,"2015-09-07T08:00:00","90","36","9,5","2,5","110,2","24,7","75","46,6","0"],
    [14039,"2015-09-07T09:00:00","102","46","14,82","3","134,8","25,5","71,9","78,8","0"],
    [14040,"2015-09-07T10:00:00","65","23","37,21","3,8","171,8","27,8","60,6","283,1","0"],
    [14041,"2015-09-07T11:00:00","64","22","58,73","3,1","175,5","28,8","56,6","359,8","0"],
    [14042,"2015-09-07T12:00:00","55","19","73,14","2,4","115,5","30,4","49,4","381,9","0"],
    [14043,"2015-09-07T13:00:00","57","21","89,84","2,8","120,7","32","44,4","454","0"],
    [14044,"2015-09-07T14:00:00","49","20","92,6","2,8","113,2","33,4","38,2","449,9","0"],
    [14045,"2015-09-07T15:00:00","73","13","98,84","4,2","126,9","34,4","35,4","354,5","0"],
    [14046,"2015-09-07T16:00:00","67","17","107,73","3,4","112,2","34,3","35,2","224,7","0"],
    [14047,"2015-09-07T17:00:00","59","18","92,04","2,1","70,4","34,2","33,9","101,1","0"],
    [14048,"2015-09-07T18:00:00","75","14","86,68","6,3","295,1","32,4","40,8","23,5","0"],
    [14049,"2015-09-07T19:00:00","65","10","52,38","5,8","294,7","30,6","46","0","0"],
    [14050,"2015-09-07T20:00:00","86","25","22,63","2,2","27,5","29,5","50,1","0","0"],
    [14051,"2015-09-07T21:00:00","62","18","16,15","2,8","106,9","27,6","60","0","0"],
    [14052,"2015-09-07T22:00:00","48","8","15,37","3,7","112,2","26,8","63,5","0","0"],
    [14053,"2015-09-07T23:00:00","40","10","16,52","3,6","114,9","26,2","65,8","0","0"],
    [14054,"2015-09-08T00:00:00","57","16","17,7","2,6","174,3","26,4","64,7","0","0"],
    [14055,"2015-09-08T01:00:00","64","24","17,58","4,3","209,3","25,6","69,2","0","0"],
    [14056,"2015-09-08T02:00:00","61","19","14,89","1,7","128,8","25,1","71,1","0","0"],
    [14057,"2015-09-08T03:00:00","59","24","19,7","2,9","229,6","25,5","68,5","0","0"],
    [14058,"2015-09-08T04:00:00","65","23","12,81","2,1","112,7","24,4","73,2","0","0"],
    [14059,"2015-09-08T05:00:00","68","26","12,15","1,4","182,8","24,4","73","0","0"],
    [14060,"2015-09-08T06:00:00","95","34","8,6","2,1","142,3","23,8","75,5","0","0"],
    [14061,"2015-09-08T07:00:00","106","34","9,09","2,2","180,4","23,7","76,3","15,4","0"],
    [14062,"2015-09-08T08:00:00","109","37","15,82","3,4","177,9","24,5","72,2","80,8","0"],
    [14063,"2015-09-08T09:00:00","90","30","30,44","3,1","147,8","26","65,6","156,6","0"],
    [14064,"2015-09-08T10:00:00","82","23","64,17","2,9","199,2","27,9","58,8","310,9","0"],
    [14065,"2015-09-08T11:00:00","67","19","88,19","1,6","154,7","29,7","51,8","365,1","0"],
    [14066,"2015-09-08T12:00:00","68","21","100,94","2,6","182,1","31,4","44,8","402,6","0"],
    [14067,"2015-09-08T13:00:00","64","17","119,78","2,4","138,3","32,8","38,9","442,8","0"],
    [14068,"2015-09-08T14:00:00","70","26","137,46","2,2","66,6","33,5","36,7","354,6","0"],
    [14069,"2015-09-08T15:00:00","75","23","138,25","4,1","85","34,4","35,6","279,7","0"],
    [14070,"2015-09-08T16:00:00","77","23","142,49","1,6","311,3","34,2","36,3","132,8","0"],
    [14071,"2015-09-08T17:00:00","87","11","89,74","7,5","286,8","33,8","36,8","127,4","0"],
    [14072,"2015-09-08T18:00:00","62","12","62,07","6,3","298,3","31,9","41","11,2","0"],
    [14073,"2015-09-08T19:00:00","63","13","43,64","4,9","298,4","30,9","43,9","0","0"],
    [14074,"2015-09-08T20:00:00","95","39","17,56","2,5","59,2","29,5","50","0","0"],
    [14075,"2015-09-08T21:00:00","50","10","17,52","2,6","119,6","28,5","54,8","0","0"],
    [14076,"2015-09-08T22:00:00","34","7","22,84","1,3","226,6","28,5","57,6","0","0"],
    [14077,"2015-09-08T23:00:00","34","3","18,9","2,4","90,5","27,8","61,9","0","1,27"],
    [14078,"2015-09-09T00:00:00","37","5","11,83","0,7","37,1","26,7","70,2","0","0"],
    [14079,"2015-09-09T01:00:00","23","4","14,44","2,4","107,2","26,3","71,1","0","0"],
    [14080,"2015-09-09T02:00:00","38","5","15,25","0,8","35,8","26,1","71,2","0","0"],
    [14081,"2015-09-09T03:00:00","42","9","15,09","0,3","124,9","26,1","70,6","0","0"],
    [14082,"2015-09-09T04:00:00","30","5","11,13","2,6","80,1","25","75,3","0","0"],
    [14083,"2015-09-09T05:00:00","42","11","11,91","2,8","115,3","25,4","73,2","0","0"],
    [14084,"2015-09-09T06:00:00","75","23","9,46","3","149","25,5","72,4","0","0"],
    [14085,"2015-09-09T07:00:00","88","26","9,3","3,1","153,1","25","75","5,1","0"],
    [14086,"2015-09-09T08:00:00","62","18","16,58","3,5","201,9","25,1","75,5","26,5","0"],
    [14087,"2015-09-09T09:00:00","54","26","28,83","2,5","191,4","26,4","69,1","150,4","0"],
    [14088,"2015-09-09T10:00:00","53","22","35,66","2,9","169","27,2","64,9","101,1","0"],
    [14089,"2015-09-09T11:00:00","56","22","52,12","2,5","178,3","28,2","61,1","196,3","0"],
    [14090,"2015-09-09T12:00:00","67","20","62,11","2,7","174,3","29,2","54,7","183,7","0"],
    [14091,"2015-09-09T13:00:00","47","13","71,39","2,3","152,2","30,9","46,4","369,1","0"],
    [14092,"2015-09-09T14:00:00","ND","ND","75,71","2,1","58,2","32,2","40,8","310,2","0"],
    [14093,"2015-09-09T15:00:00","52","20","95,14","3,5","67,5","32,5","40,2","201,8","0"],
    [14094,"2015-09-09T16:00:00","72","23","115,74","2,5","330,3","32,7","40,1","167,5","0"],
    [14095,"2015-09-09T17:00:00","62","32","57,48","7,9","295,3","31,5","41,5","46,9","0"],
    [14096,"2015-09-09T18:00:00","66","21","31,38","5,2","315,2","30,4","44,5","8","0"],
    [14097,"2015-09-09T19:00:00","56","15","22,98","2,3","347,6","29,2","49,4","0","0"],
    [14098,"2015-09-09T20:00:00","61","19","18,54","5,1","56,3","27,5","58,9","0","0"],
    [14099,"2015-09-09T21:00:00","51","11","13,11","3","78,2","26,8","62,4","0","0"],
    [14100,"2015-09-09T22:00:00","57","9","16,27","3,8","209,2","26,4","63,7","0","0"],
    [14101,"2015-09-09T23:00:00","83","39","25,1","2,7","190,9","25,5","61,2","0","0"],
    [14102,"2015-09-10T00:00:00","92","45","20,47","1,7","180,6","25,1","65,9","0","0"],
    [14103,"2015-09-10T01:00:00","76","41","13,97","1,6","54,2","24,9","68,5","0","0"],
    [14104,"2015-09-10T02:00:00","39","17","15,5","1,4","77,3","25","69","0","0"],
    [14105,"2015-09-10T03:00:00","30","12","16,6","1,7","140,5","24,8","70,2","0","0"],
    [14106,"2015-09-10T04:00:00","49","17","11,5","1,7","145,3","24,6","71,8","0","0"],
    [14107,"2015-09-10T05:00:00","70","19","8,6","2,1","149,5","24,4","73,7","0","0"],
    [14108,"2015-09-10T06:00:00","66","18","8,01","1,8","130,6","24,4","73,8","0","0"],
    [14109,"2015-09-10T07:00:00","87","33","8,46","2,1","135,3","24,3","74,9","11,9","0"],
    [14110,"2015-09-10T08:00:00","76","28","11,36","2,1","143,2","24,9","72","53,4","0"],
    [14111,"2015-09-10T09:00:00","64","25","19,29","2","138,9","25,8","67,3","82","0"],
    [14112,"2015-09-10T10:00:00","60","34","33,42","2,3","163,3","26,9","61,9","134,9","0"],
    [14113,"2015-09-10T11:00:00","69","38","42,37","2,4","153,5","27,5","60,3","124,8","0"],
    [14114,"2015-09-10T12:00:00","70","48","80,32","2,9","237,8","28,7","56,4","294","0"],
    [14115,"2015-09-10T13:00:00","61","50","114,35","1,7","231,5","30,5","47,9","318,7","0"],
    [14116,"2015-09-10T14:00:00","77","52","136,88","3,1","1,5","31,6","43,9","262","0"],
    [14117,"2015-09-10T15:00:00","67","39","93,96","5,2","6,6","31,4","43,1","142,5","0"],
    [14118,"2015-09-10T16:00:00","63","15","54,22","6,1","4,2","31,4","40,7","167,2","0"],
    [14119,"2015-09-10T17:00:00","68","32","42,62","3,8","27,4","30,6","44","72,2","0"],
    [14120,"2015-09-10T18:00:00","63","28","29,18","4,4","325,5","29,3","47,4","14,6","0"],
    [14121,"2015-09-10T19:00:00","96","41","17,23","2,8","27,7","28,1","51,5","0","0"],
    [14122,"2015-09-10T20:00:00","66","23","18,47","3,4","45,1","26,9","56,5","0","0"],
    [14123,"2015-09-10T21:00:00","55","17","15,93","3,9","65,2","26","61","0","0"],
    [14124,"2015-09-10T22:00:00","46","10","16,25","3,9","76,8","25,1","63,9","0","0"],
    [14125,"2015-09-10T23:00:00","28","6","20,76","2,2","39,3","24,7","65,7","0","0"],
    [14126,"2015-09-11T00:00:00","32","6","23,47","3,8","76,9","24,6","65,8","0","0"],
    [14127,"2015-09-11T01:00:00","31","2","25,61","2,8","75,3","24,2","68,5","0","0"],
    [14128,"2015-09-11T02:00:00","28","1","24,33","1,9","100,2","24,2","69,5","0","0"],
    [14129,"2015-09-11T03:00:00","30","6","24,53","2,2","104,3","24","70,7","0","0"],
    [14130,"2015-09-11T04:00:00","32","6","22,23","1,8","132,6","23,9","71,4","0","0"],
    [14131,"2015-09-11T05:00:00","53","9","14,42","2,2","124,2","23,8","73,6","0","0"],
    [14132,"2015-09-11T06:00:00","46","12","10,46","2,2","142,2","23,3","78,2","0","0,25"],
    [14133,"2015-09-11T07:00:00","56","17","10,03","2,7","181,3","23,4","78,9","5,2","0"],
    [14134,"2015-09-11T08:00:00","54","13","12,05","2,1","196,6","23,7","78,5","33,1","0"],
    [14135,"2015-09-11T09:00:00","47","20","21,59","2,4","165,5","24,2","76,1","130,5","0"],
    [14136,"2015-09-11T10:00:00","69","39","31,87","3,2","158,6","25,1","72,5","156,9","0"],
    [14137,"2015-09-11T11:00:00","41","20","41,56","2,1","102,7","25,9","68","154,6","0"],
    [14138,"2015-09-11T12:00:00","48","15","47,47","2,6","67,4","26,7","64,3","150,3","0"],
    [14139,"2015-09-11T13:00:00","55","13","49,55","3,5","46,4","27,7","59,7","195,4","0"],
    [14140,"2015-09-11T14:00:00","37","8","55,65","5,3","30,1","29,1","52","228,5","0"],
    [14141,"2015-09-11T15:00:00","50","14","55,46","5,8","60,8","29,4","49,8","168,2","0"],
    [14142,"2015-09-11T16:00:00","44","14","53,89","5,1","66,9","29,5","49,9","112,7","0"],
    [14143,"2015-09-11T17:00:00","48","14","49,02","4,5","85,4","29,4","51,1","52,9","0"],
    [14144,"2015-09-11T18:00:00","79","22","37,36","3,2","93","29,1","53,2","8,8","0"],
    [14145,"2015-09-11T19:00:00","108","36","22,84","2,4","121,7","28,3","55,6","0","0"],
    [14146,"2015-09-11T20:00:00","97","35","31,89","2,3","184,7","27,6","58,4","0","0"],
    [14147,"2015-09-11T21:00:00","109","36","27,2","1,3","195,5","27,6","58","0","0"],
    [14148,"2015-09-11T22:00:00","110","50","12,79","2,7","81,7","26,7","62,6","0","0"],
    [14149,"2015-09-11T23:00:00","82","33","11,32","2,7","77,7","25,6","67,9","0","0"],
    [14150,"2015-09-12T00:00:00","63","20","13,23","2,5","61,2","24,5","72,1","0","0"],
    [14151,"2015-09-12T01:00:00","59","27","12,76","1,7","33,1","23,9","74,4","0","0"],
    [14152,"2015-09-12T02:00:00","52","14","11,17","2,2","84,5","23,1","76,8","0","0"],
    [14153,"2015-09-12T03:00:00","46","17","15,99","1,1","4,8","23","76","0","0"],
    [14154,"2015-09-12T04:00:00","58","14","14,29","0,7","181,6","23,1","75,6","0","0"],
    [14155,"2015-09-12T05:00:00","62","21","8,3","1,8","154,7","22,6","79,6","0","0"],
    [14156,"2015-09-12T06:00:00","62","28","7,65","1,1","159,7","22,1","83,3","0","0"],
    [14157,"2015-09-12T07:00:00","93","41","9,07","2,8","107,3","22,2","81,8","22,5","0"],
    [14158,"2015-09-12T08:00:00","102","49","16,76","3,8","96,5","22,9","79","114,1","0"],
    [14159,"2015-09-12T09:00:00","75","42","40,46","2,3","85,1","25,2","68,1","226,8","0"],
    [14160,"2015-09-12T10:00:00","73","36","71,9","1,1","122,9","27,1","59,9","327,2","0"],
    [14161,"2015-09-12T11:00:00","61","29","93,7","2,5","99,1","29,2","52,7","418,5","0"],
    [14162,"2015-09-12T12:00:00","59","35","122,49","0,9","95,8","30,4","47,2","442,5","0"],
    [14163,"2015-09-12T13:00:00","54","25","126,46","1,4","66,7","32,2","40,5","451","0"],
    [14164,"2015-09-12T14:00:00","56","24","116,29","2,1","90","34","33,9","418,4","0"],
    [14165,"2015-09-12T15:00:00","48","23","105,18","2,4","70,8","35,5","28","346,4","0"],
    [14166,"2015-09-12T16:00:00","48","16","102,22","3,6","58,9","36,1","24","248,9","0"],
    [14167,"2015-09-12T17:00:00","72","21","94,21","5","315","35,1","31,3","130,6","0"],
    [14168,"2015-09-12T18:00:00","61","18","83,58","6,1","291,2","32,7","38,1","30","0"],
    [14169,"2015-09-12T19:00:00","65","23","52,51","3,9","299,5","31","41,9","0","0"],
    [14170,"2015-09-12T20:00:00","82","29","23,41","1,5","92,9","29","51","0","0"],
    [14171,"2015-09-12T21:00:00","73","21","19,62","3,1","118,8","27,9","55,6","0","0"],
    [14172,"2015-09-12T22:00:00","74","24","26,9","3,2","248,1","28,4","54,2","0","0"],
    [14173,"2015-09-12T23:00:00","73","22","13,91","2,9","134,3","26,1","65","0","0"],
    [14174,"2015-09-13T00:00:00","69","23","17,66","2,3","163,1","25,9","66,7","0","0"],
    [14175,"2015-09-13T01:00:00","70","28","19,53","2,1","175,5","25,5","68,2","0","0"],
    [14176,"2015-09-13T02:00:00","76","28","13,44","2,2","90,8","24,7","71,2","0","0"],
    [14177,"2015-09-13T03:00:00","68","26","16,09","2,1","158,6","23,8","74","0","0"],
    [14178,"2015-09-13T04:00:00","71","34","12,01","2,2","177,1","23,2","76,2","0","0"],
    [14179,"2015-09-13T05:00:00","104","33","9,64","2,3","155,9","21,9","80,7","0","0"],
    [14180,"2015-09-13T06:00:00","100","38","9,28","2,1","202,6","21,9","79,3","0","0"],
    [14181,"2015-09-13T07:00:00","91","37","10,69","1,9","173,4","22,9","74,3","29,9","0"],
    [14182,"2015-09-13T08:00:00","112","38","14,99","3,1","132,6","22,5","75,4","103,4","0"],
    [14183,"2015-09-13T09:00:00","74","31","45,9","1,8","195,9","25,1","63,8","205,1","0"],
    [14184,"2015-09-13T10:00:00","79","34","86,6","1,2","172,1","27,4","56,2","317,7","0"],
    [14185,"2015-09-13T11:00:00","59","28","110,97","2,3","161,9","30,2","43,6","426","0"],
    [14186,"2015-09-13T12:00:00","66","32","127,02","3,2","92,3","31,7","37,5","437,1","0"],
    [14187,"2015-09-13T13:00:00","62","24","137,6","2,1","165,2","33,5","30,5","409,9","0"],
    [14188,"2015-09-13T14:00:00","53","27","131,81","2,4","84","34,2","25,8","252,5","0"],
    [14189,"2015-09-13T15:00:00","64","24","133,77","3,8","87,7","34,8","24,5","292,8","0"],
    [14190,"2015-09-13T16:00:00","60","30","132,01","3,6","68,1","35,3","25,4","230","0"],
    [14191,"2015-09-13T17:00:00","77","24","99,59","4,4","320","33,7","33,7","95,6","0"],
    [14192,"2015-09-13T18:00:00","63","14","79,53","5,5","296,3","31,4","37,7","21,9","0"],
    [14193,"2015-09-13T19:00:00","56","22","62,07","3,6","321,9","30,2","40,1","0","0"],
    [14194,"2015-09-13T20:00:00","116","48","31,93","2,6","49,5","28,4","48,4","0","0"],
    [14195,"2015-09-13T21:00:00","79","28","20,02","4,1","98,8","26,3","58,5","0","0"],
    [14196,"2015-09-13T22:00:00","49","17","18,17","3,5","92,6","24,6","65,9","0","0"],
    [14197,"2015-09-13T23:00:00","55","8","21,1","1,8","119,2","24,7","65,4","0","0"],
    [14198,"2015-09-14T00:00:00","67","36","20,25","2,1","176,6","24,3","67,2","0","0"],
    [14199,"2015-09-14T01:00:00","57","16","19,98","1,2","187,6","24,2","67,6","0","0"],
    [14200,"2015-09-14T02:00:00","45","11","23","1,2","183,4","24,2","67,6","0","0"],
    [14201,"2015-09-14T03:00:00","63","20","14,93","2,3","149,5","23","71,8","0","0"],
    [14202,"2015-09-14T04:00:00","69","26","11,36","0,9","132,7","22","75,6","0","0"],
    [14203,"2015-09-14T05:00:00","87","30","9,56","2,7","107,9","21,4","78,5","0","0"],
    [14204,"2015-09-14T06:00:00","94","27","9,81","0,9","78,9","20,3","80,2","0","0"],
    [14205,"2015-09-14T07:00:00","122","46","11,17","0,2","335,7","21,4","76,7","33,7","0"],
    [14206,"2015-09-14T08:00:00","187","ND","16,03","2,7","84,7","23,3","70,3","117,9","0"],
    [14207,"2015-09-14T09:00:00","97","44","37,21","2,3","99","25,5","62,2","197,8","0"],
    [14208,"2015-09-14T10:00:00","75","38","87,03","1,5","79,8","27,9","49,1","307,2","0"],
    [14209,"2015-09-14T11:00:00","77","36","128,65","1,5","303,3","30,4","37,6","406,2","0"],
    [14210,"2015-09-14T12:00:00","77","44","135,01","0,7","48,2","32,6","30,6","441,3","0"],
    [14211,"2015-09-14T13:00:00","84","36","149,77","0,2","65,1","34","27,5","439,6","0"],
    [14212,"2015-09-14T14:00:00","48","27","135,44","1,8","244,9","35,8","21,1","416,9","0"],
    [14213,"2015-09-14T15:00:00","ND","ND","106,32","2,8","118","36,3","19,4","327,9","0"],
    [14214,"2015-09-14T16:00:00","ND","ND","ND","2,4","98,9","36,8","17,9","257,5","0"],
    [14215,"2015-09-14T17:00:00","78","26","100,47","6,6","286,8","35,1","28,1","132","0"],
    [14216,"2015-09-14T18:00:00","90","22","75,43","7,9","296,8","32,2","36,5","12,9","0"],
    [14217,"2015-09-14T19:00:00","93","31","41,48","2,8","344,7","30,7","40,8","0","0"],
    [14218,"2015-09-14T20:00:00","125","45","33,87","1,9","40,2","29","48,1","0","0"],
    [14219,"2015-09-14T21:00:00","68","23","48,67","5","308,2","28,8","49,2","0","0"],
    [14220,"2015-09-14T22:00:00","80","28","23,61","2,9","116,8","26,1","62","0","0"],
    [14221,"2015-09-14T23:00:00","51","19","25,96","2,9","136,5","25,5","64,8","0","0"],
    [14222,"2015-09-15T00:00:00","51","18","29,32","1,8","146,1","25,2","66,1","0","0"],
    [14223,"2015-09-15T01:00:00","64","30","18,6","1,7","219,2","24,6","68,2","0","0"],
    [14224,"2015-09-15T02:00:00","77","40","21,61","0,8","193,1","24,3","69,3","0","0"],
    [14225,"2015-09-15T03:00:00","83","39","25,14","2,3","221,6","24,6","66,5","0","0"],
    [14226,"2015-09-15T04:00:00","82","33","13,44","1,9","139","22,8","72,1","0","0"],
    [14227,"2015-09-15T05:00:00","118","63","13,36","2,1","76,1","21,9","78,8","0","0"],
    [14228,"2015-09-15T06:00:00","126","57","12,25","0,9","109,7","22","78,3","0","0"],
    [14229,"2015-09-15T07:00:00","114","52","12,85","0,3","345","22,1","79,2","24,2","0"],
    [14230,"2015-09-15T08:00:00","143","55","17,56","3,5","87,3","23,2","75,5","114,8","0"],
    [14231,"2015-09-15T09:00:00","104","58","47,12","1,6","102,1","25,3","66","219,3","0"],
    [14232,"2015-09-15T10:00:00","146","ND","107,46","1,8","184,2","27,6","55,5","319,2","0"],
    [14233,"2015-09-15T11:00:00","86","46","116,09","2,3","134","29,7","44,4","401,6","0"],
    [14234,"2015-09-15T12:00:00","73","36","126,97","2,9","175","31,6","37,8","393,6","0"],
    [14235,"2015-09-15T13:00:00","69","34","135,48","1,9","119","33,8","31,2","431,1","0"],
    [14236,"2015-09-15T14:00:00","53","24","123,24","2,7","49,8","35,6","24,1","413,4","0"],
    [14237,"2015-09-15T15:00:00","50","21","114,39","3,6","40,6","36,5","21,6","338,8","0"],
    [14238,"2015-09-15T16:00:00","85","29","128,91","3,6","332,4","35,7","28,7","151,8","0"],
    [14239,"2015-09-15T17:00:00","62","20","90,33","7,3","287,9","34,5","32,8","116,3","0"],
    [14240,"2015-09-15T18:00:00","82","16","68,88","7,5","291,5","32,1","39","18","0"],
    [14241,"2015-09-15T19:00:00","71","21","49,33","6,1","307,8","30,5","43,8","0","0"],
    [14242,"2015-09-15T20:00:00","82","28","38,93","2,8","305,8","30","45,8","0","0"],
    [14243,"2015-09-15T21:00:00","75","30","30,06","2,8","96,1","28,1","54,3","0","0"],
    [14244,"2015-09-15T22:00:00","62","24","20,02","2,8","64,5","26,7","61,5","0","0"],
    [14245,"2015-09-15T23:00:00","51","17","16,76","2,6","76,5","25,8","65","0","0"],
    [14246,"2015-09-16T00:00:00","31","9","25,86","2,3","93,7","25,5","67","0","0"],
    [14247,"2015-09-16T01:00:00","46","15","24,84","3","219,1","25","68,7","0","0"],
    [14248,"2015-09-16T02:00:00","72","29","20,29","3,5","205,7","24,5","70,1","0","0"],
    [14249,"2015-09-16T03:00:00","81","38","21,49","1,7","225","24,5","70,3","0","0"],
    [14250,"2015-09-16T04:00:00","81","34","16,17","1,4","120,1","24,6","69,4","0","0"],
    [14251,"2015-09-16T05:00:00","77","29","10,68","1,6","119,8","23","76,7","0","0"],
    [14252,"2015-09-16T06:00:00","91","42","10,48","1,6","164,7","23,2","74,9","0","0"],
    [14253,"2015-09-16T07:00:00","134","62","11,15","2,4","125,5","22,4","78","22,4","0"],
    [14254,"2015-09-16T08:00:00","127","51","21","2,2","185,9","24,2","71,1","110,3","0"],
    [14255,"2015-09-16T09:00:00","81","35","48,24","1,3","146,1","26,6","61,2","217,4","0"],
    [14256,"2015-09-16T10:00:00","52","22","68,88","2,9","88,3","28,6","54,6","323,2","0"],
    [14257,"2015-09-16T11:00:00","64","28","90,19","1,9","63,6","30,2","48,4","397,4","0"],
    [14258,"2015-09-16T12:00:00","78","35","127,1","2,4","54,6","32,1","42,3","424,9","0"],
    [14259,"2015-09-16T13:00:00","85","39","136,66","4,4","85","34","36,7","429,4","0"],
    [14260,"2015-09-16T14:00:00","79","32","128,28","4","39,3","35","33,6","382,9","0"],
    [14261,"2015-09-16T15:00:00","74","22","117,88","5,3","298,8","35","33,7","291,4","0"],
    [14262,"2015-09-16T16:00:00","63","20","108,46","7,1","290,9","34,8","32,8","222,3","0"],
    [14263,"2015-09-16T17:00:00","126","42","79,61","9","305,2","33,3","36,3","90,3","0"],
    [14264,"2015-09-16T18:00:00","111","36","50,98","8,5","309,5","31,3","42","11,1","0"],
    [14265,"2015-09-16T19:00:00","75","22","33,01","6,7","317,1","30,2","46,3","0","0"],
    [14266,"2015-09-16T20:00:00","95","23","28,14","3,3","139,3","29,2","52,7","0","0"],
    [14267,"2015-09-16T21:00:00","81","24","26,59","2,5","182,2","27,2","64,7","0","0"],
    [14268,"2015-09-16T22:00:00","72","33","31,38","5,1","242,1","27,1","62,8","0","0"],
    [14269,"2015-09-16T23:00:00","66","35","25,75","2,1","204,6","26,7","64,5","0","0"],
    [14270,"2015-09-17T00:00:00","77","39","17,7","2,6","132,1","25,2","74,9","0","0"],
    [14271,"2015-09-17T01:00:00","58","28","17,78","1,1","118,2","25","73,7","0","0"],
    [14272,"2015-09-17T02:00:00","49","25","16,99","1,7","179,4","25,4","72,2","0","0"],
    [14273,"2015-09-17T03:00:00","54","26","14,44","1,8","144","24,9","74,5","0","0"],
    [14274,"2015-09-17T04:00:00","52","25","14,07","2,7","182,4","24,5","75,9","0","0"],
    [14275,"2015-09-17T05:00:00","60","31","13,03","2,8","213,1","24,6","74,8","0","0"],
    [14276,"2015-09-17T06:00:00","81","33","12,68","1,7","175,8","24,8","72,7","0","0"],
    [14277,"2015-09-17T07:00:00","90","31","11,3","2,8","152,4","24,6","73,5","12,5","0"],
    [14278,"2015-09-17T08:00:00","81","35","19,23","3,2","198,3","24,7","74,1","70,9","0"],
    [14279,"2015-09-17T09:00:00","75","29","36,07","2,8","221,1","26,4","66,6","174,5","0"],
    [14280,"2015-09-17T10:00:00","65","31","65,15","2,2","213,2","28,3","57,5","332,1","0"],
    [14281,"2015-09-17T11:00:00","59","32","85,58","2,9","118,3","29,8","51,6","309,9","0"],
    [14282,"2015-09-17T12:00:00","46","20","97,18","1,4","64,7","31","45,5","360,1","0"],
    [14283,"2015-09-17T13:00:00","55","26","99,41","3,9","82,4","32,1","42","316,8","0"],
    [14284,"2015-09-17T14:00:00","60","24","128,59","4,3","46,6","32,9","39,6","334,1","0"],
    [14285,"2015-09-17T15:00:00","73","28","139,56","4,1","40,4","33,5","38,9","270,4","0"],
    [14286,"2015-09-17T16:00:00","63","21","102,65","5,1","348,9","34","38,5","181,3","0"],
    [14287,"2015-09-17T17:00:00","63","15","66,98","8,3","305,7","32,8","39,9","81,9","0"],
    [14288,"2015-09-17T18:00:00","47","11","46,92","7,5","305,3","31,1","44,8","11,7","0"],
    [14289,"2015-09-17T19:00:00","49","11","34,81","6","314,7","30,1","48,6","0","0"],
    [14290,"2015-09-17T20:00:00","50","15","28,18","2,3","325,2","29,4","51,8","0","0"],
    [14291,"2015-09-17T21:00:00","49","10","33,69","1,4","10,3","28,9","53,5","0","0"],
    [14292,"2015-09-17T22:00:00","47","8","31,59","1,5","142,4","28,3","55,8","0","0"],
    [14293,"2015-09-17T23:00:00","49","15","46,96","6,5","187,1","26,9","64,4","0","0"],
    [14294,"2015-09-18T00:00:00","27","4","50,2","5,1","168","24,9","70,9","0","0"],
    [14295,"2015-09-18T01:00:00","21","5","47,9","2,3","183","23,3","80,5","0","1,02"],
    [14296,"2015-09-18T02:00:00","12","5","44,35","1,6","130,1","23,2","81,5","0","0,25"],
    [14297,"2015-09-18T03:00:00","30","10","31,89","2,7","63,7","22,9","83,6","0","0"],
    [14298,"2015-09-18T04:00:00","28","9","28,98","1,9","93,2","22,9","83,4","0","0"],
    [14299,"2015-09-18T05:00:00","37","18","24,04","1,4","341,1","23,4","81,3","0","0"],
    [14300,"2015-09-18T06:00:00","43","15","17,64","2,1","177,5","23,4","80,6","0","0"],
    [14301,"2015-09-18T07:00:00","50","18","16,5","1,7","178,3","23,2","81","16,1","0"],
    [14302,"2015-09-18T08:00:00","53","22","25,04","1,7","113,7","24,1","77,8","61,1","0"],
    [14303,"2015-09-18T09:00:00","52","24","26,49","2,9","88,6","24,4","79,2","140,4","0"],
    [14304,"2015-09-18T10:00:00","54","30","51,87","3,9","84,1","26,2","71,7","323,2","0"],
    [14305,"2015-09-18T11:00:00","39","13","75,28","2,9","97,5","28,4","59,1","427","0"],
    [14306,"2015-09-18T12:00:00","35","12","90,11","3,6","68,8","30,2","51,3","452,5","0"],
    [14307,"2015-09-18T13:00:00","43","16","111,09","4,4","60,3","31,9","45","485","0"],
    [14308,"2015-09-18T14:00:00","43","14","112,95","5,1","53,8","33,2","41,1","292,4","0"],
    [14309,"2015-09-18T15:00:00","45","11","96,47","5,5","28,5","32,8","41,3","166,5","0"],
    [14310,"2015-09-18T16:00:00","46","6","80,26","6,2","299,8","33,2","37","252,7","0"],
    [14311,"2015-09-18T17:00:00","49","4","76,18","8,6","289,1","32,1","38,8","120,7","0"],
    [14312,"2015-09-18T18:00:00","34","2","60,28","6,3","293,1","30,5","44,8","24","0"],
    [14313,"2015-09-18T19:00:00","66","18","57,44","4,3","172,7","28,2","56,3","0","0"],
    [14314,"2015-09-18T20:00:00","70","21","45,84","3,4","165,6","28,1","56,5","0","0"],
    [14315,"2015-09-18T21:00:00","64","20","30,55","4,1","73,9","27,2","61,6","0","0"],
    [14316,"2015-09-18T22:00:00","43","16","32,07","3","106,1","26,1","66,2","0","0"],
    [14317,"2015-09-18T23:00:00","36","9","27","3,3","181,3","25,3","72,3","0","0"],
    [14318,"2015-09-19T00:00:00","31","7","ND","3,6","156,5","25","74,4","0","0"],
    [14319,"2015-09-19T01:00:00","69","5","ND","2,9","175,3","24,3","77,9","0","0"],
    [14320,"2015-09-19T02:00:00","ND","7","ND","2,9","128","23,7","80,7","0","0"],
    [14321,"2015-09-19T03:00:00","ND","10","ND","3,5","96,9","23,4","81,9","0","0"],
    [14322,"2015-09-19T04:00:00","29","6","ND","2,2","18,8","23,2","82,6","0","0"],
    [14323,"2015-09-19T05:00:00","35","9","ND","1,4","68,7","23,2","82,7","0","0"],
    [14324,"2015-09-19T06:00:00","39","10","ND","2,2","208,3","23,3","82,5","0","0"],
    [14325,"2015-09-19T07:00:00","53","12","ND","2,5","169,6","23,6","80,7","16,9","0"],
    [14326,"2015-09-19T08:00:00","70","21","ND","3,3","124","24","79,6","106,6","0"],
    [14327,"2015-09-19T09:00:00","35","11","ND","2,3","197,7","26,1","68,3","206,3","0"],
    [14328,"2015-09-19T10:00:00","40","14","ND","1,5","206,3","27","64","202","0"],
    [14329,"2015-09-19T11:00:00","38","17","ND","1,4","154,2","28,6","57,3","365,4","0"],
    [14330,"2015-09-19T12:00:00","57","15","ND","2,9","118,1","30,8","48,6","444,3","0"],
    [14331,"2015-09-19T13:00:00","52","18","ND","3,1","49,5","32,4","43,1","441,2","0"],
    [14332,"2015-09-19T14:00:00","66","26","ND","3,1","25,1","33,5","41,1","344,4","0"],
    [14333,"2015-09-19T15:00:00","61","20","ND","5,4","58,1","34,1","39,1","219,1","0"],
    [14334,"2015-09-19T16:00:00","63","12","ND","4,3","332,9","33,6","38,7","136,4","0"],
    [14335,"2015-09-19T17:00:00","44","10","ND","6,5","320,9","32,1","42,3","57,3","0"],
    [14336,"2015-09-19T18:00:00","46","12","ND","3,7","345,8","30,9","45,9","9,6","0"],
    [14337,"2015-09-19T19:00:00","32","8","ND","4,2","312,4","30,1","48,4","0","0"],
    [14338,"2015-09-19T20:00:00","94","17","ND","4,6","220,4","28,7","56,7","0","0"],
    [14339,"2015-09-19T21:00:00","53","12","ND","6,7","196,8","26,8","59,9","0","0"],
    [14340,"2015-09-19T22:00:00","29","14","ND","3,9","174,5","26,4","60,5","0","0"],
    [14341,"2015-09-19T23:00:00","24","8","ND","2,6","172,1","25,7","63,1","0","0"],
    [14342,"2015-09-20T00:00:00","45","11","ND","3,6","111,2","24,8","68,7","0","0"],
    [14343,"2015-09-20T01:00:00","48","9","ND","1","39,9","24,3","71,1","0","0"],
    [14344,"2015-09-20T02:00:00","45","16","ND","2","111,4","24,4","71,1","0","0"],
    [14345,"2015-09-20T03:00:00","42","12","ND","2,8","170,2","24,1","72,4","0","0"],
    [14346,"2015-09-20T04:00:00","31","8","ND","1,4","150,1","24,1","73,4","0","0"],
    [14347,"2015-09-20T05:00:00","39","5","ND","2,6","107,6","23,3","78,2","0","0"],
    [14348,"2015-09-20T06:00:00","41","5","ND","1,8","200,9","23,5","77,5","0","0"],
    [14349,"2015-09-20T07:00:00","64","19","ND","2,4","66,8","23,6","76,7","22,2","0"],
    [14350,"2015-09-20T08:00:00","79","19","ND","3,3","53,6","23,9","76,8","111,5","0"],
    [14351,"2015-09-20T09:00:00","47","11","ND","4,5","87,3","26,4","66,5","243","0"],
    [14352,"2015-09-20T10:00:00","38","13","ND","1,7","99,2","28,5","57,5","320,8","0"],
    [14353,"2015-09-20T11:00:00","43","17","ND","1,7","127,4","30,2","51,3","407","0"],
    [14354,"2015-09-20T12:00:00","52","11","ND","2,8","81","31,6","45,3","464,1","0"],
    [14355,"2015-09-20T13:00:00","41","11","ND","3,4","50,3","33,5","38,2","438,2","0"],
    [14356,"2015-09-20T14:00:00","62","ND","ND","7,2","51,5","35,3","36,1","202,1","0"],
    [14357,"2015-09-20T15:00:00","41","ND","ND","6,8","33,2","33,6","39,7","143,6","0"],
    [14358,"2015-09-20T16:00:00","60","ND","ND","7,1","53,6","33","40,3","94,8","0"],
    [14359,"2015-09-20T17:00:00","48","ND","ND","5,8","45,1","32,3","44,3","46,3","0"],
    [14360,"2015-09-20T18:00:00","39","ND","ND","3,9","326,7","31,3","44,3","5,2","0"],
    [14361,"2015-09-20T19:00:00","71","ND","ND","1,8","47,7","29,8","48,7","0","0"],
    [14362,"2015-09-20T20:00:00","63","ND","ND","3,9","77,3","28,7","55,1","0","0"],
    [14363,"2015-09-20T21:00:00","43","ND","ND","3,5","78,5","27,4","61,8","0","0"],
    [14364,"2015-09-20T22:00:00","48","ND","ND","2,7","49,9","26,9","64,3","0","0"],
    [14365,"2015-09-20T23:00:00","59","ND","ND","2,5","66,6","26,6","65,1","0","0"],
    [14366,"2015-09-21T00:00:00","27","ND","ND","2,4","350,9","26","66,4","0","0"],
    [14367,"2015-09-21T01:00:00","38","ND","ND","2,2","176,2","25,8","67,6","0","0"],
    [14368,"2015-09-21T02:00:00","49","ND","ND","2,1","171,2","24,9","70,1","0","0"],
    [14369,"2015-09-21T03:00:00","51","ND","ND","2,1","147","24,5","73,1","0","0"],
    [14370,"2015-09-21T04:00:00","54","ND","ND","1,9","129,9","24,3","73,7","0","0"],
    [14371,"2015-09-21T05:00:00","112","ND","ND","2","111,2","23,5","75","0","0"],
    [14372,"2015-09-21T06:00:00","127","ND","ND","1,8","129,6","23,1","76,9","0","0"],
    [14373,"2015-09-21T07:00:00","101","ND","ND","1,9","117,2","23,3","78,3","29,9","0"],
    [14374,"2015-09-21T08:00:00","108","ND","ND","2,5","93,9","25,6","76,3","123,5","0"],
    [14375,"2015-09-21T09:00:00","82","ND","ND","1,9","59,3","29,5","61,7","227,5","0"],
    [14376,"2015-09-21T10:00:00","48","ND","ND","3","59","32,1","48,1","320,4","0"],
    [14377,"2015-09-21T11:00:00","56","ND","ND","2,8","79,9","33,9","41,7","387,7","0"],
    [14378,"2015-09-21T12:00:00","46","ND","ND","0,7","343,1","35,8","36,1","376,7","0"],
    [14379,"2015-09-21T13:00:00","58","ND","ND","1,6","72,2","37","32,8","330,8","0"],
    [14380,"2015-09-21T14:00:00","54","ND","ND","4,1","50","37,2","31,9","324,7","0"],
    [14381,"2015-09-21T15:00:00","48","ND","ND","3,6","61,6","36,3","31,3","283,5","0"],
    [14382,"2015-09-21T16:00:00","41","ND","ND","3,8","40,3","35","34,3","244,8","0"],
    [14383,"2015-09-21T17:00:00","54","ND","ND","3,1","339","34,5","35,1","125,2","0"],
    [14384,"2015-09-21T18:00:00","69","ND","ND","6,5","302,4","32,5","40,3","30,1","0"],
    [14385,"2015-09-21T19:00:00","62","ND","ND","5,9","301,1","30,7","46,9","0","0"],
    [14386,"2015-09-21T20:00:00","47","ND","ND","0,9","109,3","29,8","49,9","0","0"],
    [14387,"2015-09-21T21:00:00","61","ND","ND","4,9","94,2","27,7","59,9","0","0"],
    [14388,"2015-09-21T22:00:00","33","ND","ND","3,1","95,4","27,1","62,6","0","0"],
    [14389,"2015-09-21T23:00:00","35","ND","ND","4,2","87,7","26,3","67,1","0","0"],
    [14390,"2015-09-22T00:00:00","43","ND","ND","1,9","68,7","26","68,5","0","0"],
    [14391,"2015-09-22T01:00:00","24","ND","ND","0,2","240,8","26,4","66,5","0","0"],
    [14392,"2015-09-22T02:00:00","31","ND","ND","2,2","123,8","26","68,2","0","0"],
    [14393,"2015-09-22T03:00:00","43","ND","ND","2,1","178,2","25,9","68,9","0","0"],
    [14394,"2015-09-22T04:00:00","50","ND","ND","1,1","115,7","25,6","69,1","0","0"],
    [14395,"2015-09-22T05:00:00","52","ND","ND","1,7","188,2","25,6","68,3","0","0"],
    [14396,"2015-09-22T06:00:00","64","ND","ND","2,5","125,8","25","72,2","0","0"],
    [14397,"2015-09-22T07:00:00","119","ND","ND","2,6","110,4","24,6","75","22,4","0"],
    [14398,"2015-09-22T08:00:00","122","ND","ND","1,3","171,2","25,5","72,2","115","0"],
    [14399,"2015-09-22T09:00:00","94","ND","ND","1,7","187,1","27,6","63,7","240,8","0"],
    [14400,"2015-09-22T10:00:00","62","ND","ND","1,7","110,3","29,8","53,2","350,7","0"],
    [14401,"2015-09-22T11:00:00","56","ND","ND","2,8","64","32,3","45,6","420,3","0"],
    [14402,"2015-09-22T12:00:00","62","ND","ND","2,9","71,6","36,5","33,8","436,7","0"],
    [14403,"2015-09-22T13:00:00","70","ND","ND","3,3","87,3","37,6","30,5","445,6","0"],
    [14404,"2015-09-22T14:00:00","60","ND","ND","3,3","48,6","38,9","25,8","399,3","0"],
    [14405,"2015-09-22T15:00:00","55","ND","ND","2,8","329,8","39,4","24,3","257,7","0"],
    [14406,"2015-09-22T16:00:00","75","ND","ND","8,4","286,7","37,1","29,5","204","0"],
    [14407,"2015-09-22T17:00:00","73","ND","ND","8","293,4","35,4","33,1","111","0"],
    [14408,"2015-09-22T18:00:00","52","ND","ND","6,5","312,8","33,1","37,5","16","0"],
    [14409,"2015-09-22T19:00:00","41","ND","ND","5,4","316,6","30,5","45","0","0"],
    [14410,"2015-09-22T20:00:00","106","ND","ND","2,3","80,6","29,2","50,7","0","0"],
    [14411,"2015-09-22T21:00:00","67","ND","ND","4","108,6","27,8","56,5","0","0"],
    [14412,"2015-09-22T22:00:00","35","ND","ND","1,3","282,6","27,3","59,1","0","0"],
    [14413,"2015-09-22T23:00:00","36","ND","ND","2,6","98","27,1","59,1","0","0"],
    [14414,"2015-09-23T00:00:00","46","ND","ND","2,8","90,3","25,9","64,3","0","0"],
    [14415,"2015-09-23T01:00:00","45","ND","ND","3,2","76,8","25,2","67,7","0","0"],
    [14416,"2015-09-23T02:00:00","55","ND","ND","1,5","69,5","24,8","69,9","0","0"],
    [14417,"2015-09-23T03:00:00","50","ND","ND","1","118,8","24,6","70,9","0","0"],
    [14418,"2015-09-23T04:00:00","46","ND","ND","2,5","139","24,8","71","0","0"],
    [14419,"2015-09-23T05:00:00","45","ND","ND","1,5","188,6","24,6","71,3","0","0"],
    [14420,"2015-09-23T06:00:00","62","ND","ND","2","193,2","24,3","72,5","0","0"],
    [14421,"2015-09-23T07:00:00","93","ND","ND","2,6","137,2","24,5","73,2","27,2","0"],
    [14422,"2015-09-23T08:00:00","93","ND","ND","2,7","142,6","25,4","71,8","84,6","0"],
    [14423,"2015-09-23T09:00:00","56","ND","ND","2,9","184,6","28,5","60,7","242,5","0"],
    [14424,"2015-09-23T10:00:00","54","ND","ND","1,9","153,1","31,2","48,3","261,2","0"],
    [14425,"2015-09-23T11:00:00","57","ND","ND","3,8","60,7","29,5","53,4","262,3","0"],
    [14426,"2015-09-23T12:00:00","59","ND","ND","5,2","75,4","30,8","47,4","256,3","0"],
    [14427,"2015-09-23T13:00:00","60","ND","ND","5,7","71,5","31,5","43,2","147,7","0"],
    [14428,"2015-09-23T14:00:00","56","ND","ND","4,3","68,2","32,6","39,2","258,9","0"],
    [14429,"2015-09-23T15:00:00","71","ND","ND","4,7","49,9","33,6","35,6","217,3","0"],
    [14430,"2015-09-23T16:00:00","72","ND","ND","5","81,6","33,5","35,9","145,3","0"],
    [14431,"2015-09-23T17:00:00","81","ND","ND","4,4","52,2","32,7","40,5","37,6","0"],
    [14432,"2015-09-23T18:00:00","58","ND","ND","5","300,7","31,2","43,4","9,2","0"],
    [14433,"2015-09-23T19:00:00","52","ND","ND","5,8","294,2","29,9","47,4","0","0"],
    [14434,"2015-09-23T20:00:00","34","ND","ND","5,2","301,7","28,9","51","0","0"],
    [14435,"2015-09-23T21:00:00","66","ND","ND","1,9","65,6","27","59,4","0","0"],
    [14436,"2015-09-23T22:00:00","105","ND","ND","2,8","69,2","25,8","65,6","0","0"],
    [14437,"2015-09-23T23:00:00","53","ND","ND","2,3","100,4","25,7","66,1","0","0"],
    [14438,"2015-09-24T00:00:00","49","ND","ND","2,2","99,1","25,1","68,9","0","0"],
    [14439,"2015-09-24T01:00:00","42","ND","ND","2,2","81,1","25,2","68,4","0","0"],
    [14440,"2015-09-24T02:00:00","53","ND","ND","2,4","253,3","25","69,3","0","0"],
    [14441,"2015-09-24T03:00:00","89","ND","ND","2,6","143,7","24,5","71,8","0","0"],
    [14442,"2015-09-24T04:00:00","82","ND","ND","2,9","187,6","24","74,2","0","0"],
    [14443,"2015-09-24T05:00:00","85","ND","ND","2,3","135,5","23,3","76,8","0","0"],
    [14444,"2015-09-24T06:00:00","128","ND","ND","1,1","140,5","22,8","79,6","0","0"],
    [14445,"2015-09-24T07:00:00","82","ND","ND","1,6","214,6","23,5","76,4","33,5","0"],
    [14446,"2015-09-24T08:00:00","112","ND","ND","3,1","122","24,8","71,7","96,3","0"],
    [14447,"2015-09-24T09:00:00","72","ND","ND","2,9","177,1","26,5","63","189,6","0"],
    [14448,"2015-09-24T10:00:00","ND","ND","ND","ND","ND","ND","ND","ND","ND"],
    [14449,"2015-09-24T11:00:00","ND","ND","ND","ND","ND","ND","ND","ND","ND"],
    [14450,"2015-09-24T12:00:00","ND","ND","ND","ND","ND","ND","ND","ND","ND"],
    [14451,"2015-09-24T13:00:00","ND","ND","ND","ND","ND","ND","ND","ND","ND"],
    [14452,"2015-09-24T14:00:00","ND","ND","ND","ND","ND","ND","ND","ND","ND"],
    [14453,"2015-09-24T15:00:00","ND","ND","ND","ND","ND","ND","ND","ND","ND"],
    [14454,"2015-09-24T16:00:00","ND","ND","ND","ND","ND","ND","ND","ND","ND"],
    [14455,"2015-09-24T17:00:00","ND","ND","ND","ND","ND","ND","ND","ND","ND"],
    [14456,"2015-09-24T18:00:00","ND","ND","ND","ND","ND","ND","ND","ND","ND"],
    [14457,"2015-09-24T19:00:00","ND","ND","ND","ND","ND","ND","ND","ND","ND"],
    [14458,"2015-09-24T20:00:00","ND","ND","ND","ND","ND","ND","ND","ND","ND"],
    [14459,"2015-09-24T21:00:00","ND","ND","ND","ND","ND","ND","ND","ND","ND"],
    [14460,"2015-09-24T22:00:00","ND","ND","ND","ND","ND","ND","ND","ND","ND"],
    [14461,"2015-09-24T23:00:00","ND","ND","ND","ND","ND","ND","ND","ND","ND"],
    [14462,"2015-09-25T00:00:00","ND","ND","ND","ND","ND","ND","ND","ND","ND"],
    [14463,"2015-09-25T01:00:00","ND","ND","ND","ND","ND","ND","ND","ND","ND"],
    [14464,"2015-09-25T02:00:00","ND","ND","ND","ND","ND","ND","ND","ND","ND"],
    [14465,"2015-09-25T03:00:00","ND","ND","ND","ND","ND","ND","ND","ND","ND"],
    [14466,"2015-09-25T04:00:00","ND","ND","ND","ND","ND","ND","ND","ND","ND"],
    [14467,"2015-09-25T05:00:00","ND","ND","ND","ND","ND","ND","ND","ND","ND"],
    [14468,"2015-09-25T06:00:00","ND","ND","ND","ND","ND","ND","ND","ND","ND"],
    [14469,"2015-09-25T07:00:00","ND","ND","ND","ND","ND","ND","ND","ND","ND"],
    [14470,"2015-09-25T08:00:00","ND","ND","ND","ND","ND","ND","ND","ND","ND"],
    [14471,"2015-09-25T09:00:00","ND","ND","ND","ND","ND","ND","ND","ND","ND"],
    [14472,"2015-09-25T10:00:00","ND","ND","ND","ND","ND","ND","ND","ND","ND"],
    [14473,"2015-09-25T11:00:00","ND","ND","ND","ND","ND","ND","ND","ND","ND"],
    [14474,"2015-09-25T12:00:00","ND","ND","ND","ND","ND","ND","ND","ND","ND"],
    [14475,"2015-09-25T13:00:00","ND","ND","ND","ND","ND","ND","ND","ND","ND"],
    [14476,"2015-09-25T14:00:00","ND","ND","ND","ND","ND","ND","ND","ND","ND"],
    [14477,"2015-09-25T15:00:00","ND","ND","ND","ND","ND","ND","ND","ND","ND"],
    [14478,"2015-09-25T16:00:00","ND","ND","ND","ND","ND","ND","ND","ND","ND"],
    [14479,"2015-09-25T17:00:00","ND","ND","ND","ND","ND","ND","ND","ND","ND"],
    [14480,"2015-09-25T18:00:00","ND","ND","ND","ND","ND","ND","ND","ND","ND"],
    [14481,"2015-09-25T19:00:00","ND","ND","ND","ND","ND","ND","ND","ND","ND"],
    [14482,"2015-09-25T20:00:00","ND","ND","ND","ND","ND","ND","ND","ND","ND"],
    [14483,"2015-09-25T21:00:00","ND","ND","ND","ND","ND","ND","ND","ND","ND"],
    [14484,"2015-09-25T22:00:00","ND","ND","ND","ND","ND","ND","ND","ND","ND"],
    [14485,"2015-09-25T23:00:00","ND","ND","ND","ND","ND","ND","ND","ND","ND"],
    [14486,"2015-09-26T00:00:00","ND","ND","ND","ND","ND","ND","ND","ND","ND"],
    [14487,"2015-09-26T01:00:00","ND","ND","ND","ND","ND","ND","ND","ND","ND"],
    [14488,"2015-09-26T02:00:00","ND","ND","ND","ND","ND","ND","ND","ND","ND"],
    [14489,"2015-09-26T03:00:00","ND","ND","ND","ND","ND","ND","ND","ND","ND"],
    [14490,"2015-09-26T04:00:00","ND","ND","ND","ND","ND","ND","ND","ND","ND"],
    [14491,"2015-09-26T05:00:00","ND","ND","ND","ND","ND","ND","ND","ND","ND"],
    [14492,"2015-09-26T06:00:00","ND","ND","ND","ND","ND","ND","ND","ND","ND"],
    [14493,"2015-09-26T07:00:00","ND","ND","ND","ND","ND","ND","ND","ND","ND"],
    [14494,"2015-09-26T08:00:00","ND","ND","ND","ND","ND","ND","ND","ND","ND"],
    [14495,"2015-09-26T09:00:00","ND","ND","ND","ND","ND","ND","ND","ND","ND"],
    [14496,"2015-09-26T10:00:00","ND","ND","ND","ND","ND","ND","ND","ND","ND"],
    [14497,"2015-09-26T11:00:00","ND","ND","ND","ND","ND","ND","ND","ND","ND"],
    [14498,"2015-09-26T12:00:00","ND","ND","ND","ND","ND","ND","ND","ND","ND"],
    [14499,"2015-09-26T13:00:00","ND","ND","ND","ND","ND","ND","ND","ND","ND"],
    [14500,"2015-09-26T14:00:00","ND","ND","ND","ND","ND","ND","ND","ND","ND"],
    [14501,"2015-09-26T15:00:00","ND","ND","ND","ND","ND","ND","ND","ND","ND"],
    [14502,"2015-09-26T16:00:00","ND","ND","ND","ND","ND","ND","ND","ND","ND"],
    [14503,"2015-09-26T17:00:00","ND","ND","ND","ND","ND","ND","ND","ND","ND"],
    [14504,"2015-09-26T18:00:00","ND","ND","ND","ND","ND","ND","ND","ND","ND"],
    [14505,"2015-09-26T19:00:00","ND","ND","ND","ND","ND","ND","ND","ND","ND"],
    [14506,"2015-09-26T20:00:00","ND","ND","ND","ND","ND","ND","ND","ND","ND"],
    [14507,"2015-09-26T21:00:00","ND","ND","ND","ND","ND","ND","ND","ND","ND"],
    [14508,"2015-09-26T22:00:00","ND","ND","ND","ND","ND","ND","ND","ND","ND"],
    [14509,"2015-09-26T23:00:00","ND","ND","ND","ND","ND","ND","ND","ND","ND"],
    [14510,"2015-09-27T00:00:00","ND","ND","ND","ND","ND","ND","ND","ND","ND"],
    [14511,"2015-09-27T01:00:00","ND","ND","ND","ND","ND","ND","ND","ND","ND"],
    [14512,"2015-09-27T02:00:00","ND","ND","ND","ND","ND","ND","ND","ND","ND"],
    [14513,"2015-09-27T03:00:00","ND","ND","ND","ND","ND","ND","ND","ND","ND"],
    [14514,"2015-09-27T04:00:00","ND","ND","ND","ND","ND","ND","ND","ND","ND"],
    [14515,"2015-09-27T05:00:00","ND","ND","ND","ND","ND","ND","ND","ND","ND"],
    [14516,"2015-09-27T06:00:00","ND","ND","ND","ND","ND","ND","ND","ND","ND"],
    [14517,"2015-09-27T07:00:00","ND","ND","ND","ND","ND","ND","ND","ND","ND"],
    [14518,"2015-09-27T08:00:00","ND","ND","ND","ND","ND","ND","ND","ND","ND"],
    [14519,"2015-09-27T09:00:00","ND","ND","ND","ND","ND","ND","ND","ND","ND"],
    [14520,"2015-09-27T10:00:00","ND","ND","ND","ND","ND","ND","ND","ND","ND"],
    [14521,"2015-09-27T11:00:00","ND","ND","ND","ND","ND","ND","ND","ND","ND"],
    [14522,"2015-09-27T12:00:00","ND","ND","ND","ND","ND","ND","ND","ND","ND"],
    [14523,"2015-09-27T13:00:00","ND","ND","ND","ND","ND","ND","ND","ND","ND"],
    [14524,"2015-09-27T14:00:00","ND","ND","ND","ND","ND","ND","ND","ND","ND"],
    [14525,"2015-09-27T15:00:00","ND","ND","ND","ND","ND","ND","ND","ND","ND"],
    [14526,"2015-09-27T16:00:00","ND","ND","ND","ND","ND","ND","ND","ND","ND"],
    [14527,"2015-09-27T17:00:00","ND","ND","ND","ND","ND","ND","ND","ND","ND"],
    [14528,"2015-09-27T18:00:00","ND","ND","ND","ND","ND","ND","ND","ND","ND"],
    [14529,"2015-09-27T19:00:00","ND","ND","ND","ND","ND","ND","ND","ND","ND"],
    [14530,"2015-09-27T20:00:00","ND","ND","ND","ND","ND","ND","ND","ND","ND"],
    [14531,"2015-09-27T21:00:00","ND","ND","ND","ND","ND","ND","ND","ND","ND"],
    [14532,"2015-09-27T22:00:00","ND","ND","ND","ND","ND","ND","ND","ND","ND"],
    [14533,"2015-09-27T23:00:00","ND","ND","ND","ND","ND","ND","ND","ND","ND"],
    [14534,"2015-09-28T00:00:00","ND","ND","ND","ND","ND","ND","ND","ND","ND"],
    [14535,"2015-09-28T01:00:00","ND","ND","ND","ND","ND","ND","ND","ND","ND"],
    [14536,"2015-09-28T02:00:00","ND","ND","ND","ND","ND","ND","ND","ND","ND"],
    [14537,"2015-09-28T03:00:00","ND","ND","ND","ND","ND","ND","ND","ND","ND"],
    [14538,"2015-09-28T04:00:00","ND","ND","ND","ND","ND","ND","ND","ND","ND"],
    [14539,"2015-09-28T05:00:00","ND","ND","ND","ND","ND","ND","ND","ND","ND"],
    [14540,"2015-09-28T06:00:00","ND","ND","ND","ND","ND","ND","ND","ND","ND"],
    [14541,"2015-09-28T07:00:00","ND","ND","ND","ND","ND","ND","ND","ND","ND"],
    [14542,"2015-09-28T08:00:00","ND","ND","ND","ND","ND","ND","ND","ND","ND"],
    [14543,"2015-09-28T09:00:00","ND","ND","ND","ND","ND","ND","ND","ND","ND"],
    [14544,"2015-09-28T10:00:00","ND","ND","ND","ND","ND","ND","ND","ND","ND"],
    [14545,"2015-09-28T11:00:00","ND","ND","ND","ND","ND","ND","ND","ND","ND"],
    [14546,"2015-09-28T12:00:00","ND","ND","ND","ND","ND","ND","ND","ND","ND"],
    [14547,"2015-09-28T13:00:00","ND","ND","ND","ND","ND","ND","ND","ND","ND"],
    [14548,"2015-09-28T14:00:00","ND","ND","ND","ND","ND","ND","ND","ND","ND"],
    [14549,"2015-09-28T15:00:00","ND","ND","ND","ND","ND","ND","ND","ND","ND"],
    [14550,"2015-09-28T16:00:00","ND","ND","ND","ND","ND","ND","ND","ND","ND"],
    [14551,"2015-09-28T17:00:00","ND","ND","ND","ND","ND","ND","ND","ND","ND"],
    [14552,"2015-09-28T18:00:00","ND","ND","ND","ND","ND","ND","ND","ND","ND"],
    [14553,"2015-09-28T19:00:00","ND","ND","ND","ND","ND","ND","ND","ND","ND"],
    [14554,"2015-09-28T20:00:00","ND","ND","ND","ND","ND","ND","ND","ND","ND"],
    [14555,"2015-09-28T21:00:00","ND","ND","ND","ND","ND","ND","ND","ND","ND"],
    [14556,"2015-09-28T22:00:00","ND","ND","ND","ND","ND","ND","ND","ND","ND"],
    [14557,"2015-09-28T23:00:00","ND","ND","ND","ND","ND","ND","ND","ND","ND"],
    [14558,"2015-09-29T00:00:00","ND","ND","ND","ND","ND","ND","ND","ND","ND"],
    [14559,"2015-09-29T01:00:00","ND","ND","ND","ND","ND","ND","ND","ND","ND"],
    [14560,"2015-09-29T02:00:00","ND","ND","ND","ND","ND","ND","ND","ND","ND"],
    [14561,"2015-09-29T03:00:00","ND","ND","ND","ND","ND","ND","ND","ND","ND"],
    [14562,"2015-09-29T04:00:00","ND","ND","ND","ND","ND","ND","ND","ND","ND"],
    [14563,"2015-09-29T05:00:00","ND","ND","ND","ND","ND","ND","ND","ND","ND"],
    [14564,"2015-09-29T06:00:00","ND","ND","ND","ND","ND","ND","ND","ND","ND"],
    [14565,"2015-09-29T07:00:00","ND","ND","ND","ND","ND","ND","ND","ND","ND"],
    [14566,"2015-09-29T08:00:00","ND","ND","ND","ND","ND","ND","ND","ND","ND"],
    [14567,"2015-09-29T09:00:00","ND","ND","ND","ND","ND","ND","ND","ND","ND"],
    [14568,"2015-09-29T10:00:00","ND","ND","ND","ND","ND","ND","ND","ND","ND"],
    [14569,"2015-09-29T11:00:00","ND","ND","ND","ND","ND","ND","ND","ND","ND"],
    [14570,"2015-09-29T12:00:00","ND","ND","ND","ND","ND","ND","ND","ND","ND"],
    [14571,"2015-09-29T13:00:00","ND","ND","ND","ND","ND","ND","ND","ND","ND"],
    [14572,"2015-09-29T14:00:00","ND","ND","ND","ND","ND","ND","ND","ND","ND"],
    [14573,"2015-09-29T15:00:00","ND","ND","ND","ND","ND","ND","ND","ND","ND"],
    [14574,"2015-09-29T16:00:00","ND","ND","ND","ND","ND","ND","ND","ND","ND"],
    [14575,"2015-09-29T17:00:00","ND","ND","ND","ND","ND","ND","ND","ND","ND"],
    [14576,"2015-09-29T18:00:00","ND","ND","ND","ND","ND","ND","ND","ND","ND"],
    [14577,"2015-09-29T19:00:00","ND","ND","ND","ND","ND","ND","ND","ND","ND"],
    [14578,"2015-09-29T20:00:00","ND","ND","ND","ND","ND","ND","ND","ND","ND"],
    [14579,"2015-09-29T21:00:00","ND","ND","ND","ND","ND","ND","ND","ND","ND"],
    [14580,"2015-09-29T22:00:00","ND","ND","ND","ND","ND","ND","ND","ND","ND"],
    [14581,"2015-09-29T23:00:00","ND","ND","ND","ND","ND","ND","ND","ND","ND"],
    [14582,"2015-09-30T00:00:00","ND","ND","ND","ND","ND","ND","ND","ND","ND"],
    [14583,"2015-09-30T01:00:00","ND","ND","ND","ND","ND","ND","ND","ND","ND"],
    [14584,"2015-09-30T02:00:00","ND","ND","ND","ND","ND","ND","ND","ND","ND"],
    [14585,"2015-09-30T03:00:00","ND","ND","ND","ND","ND","ND","ND","ND","ND"],
    [14586,"2015-09-30T04:00:00","ND","ND","ND","ND","ND","ND","ND","ND","ND"],
    [14587,"2015-09-30T05:00:00","ND","ND","ND","ND","ND","ND","ND","ND","ND"],
    [14588,"2015-09-30T06:00:00","ND","ND","ND","ND","ND","ND","ND","ND","ND"],
    [14589,"2015-09-30T07:00:00","ND","ND","ND","ND","ND","ND","ND","ND","ND"],
    [14590,"2015-09-30T08:00:00","ND","ND","ND","ND","ND","ND","ND","ND","ND"],
    [14591,"2015-09-30T09:00:00","ND","ND","ND","ND","ND","ND","ND","ND","ND"],
    [14592,"2015-09-30T10:00:00","ND","ND","ND","ND","ND","ND","ND","ND","ND"],
    [14593,"2015-09-30T11:00:00","ND","ND","ND","ND","ND","ND","ND","ND","ND"],
    [14594,"2015-09-30T12:00:00","ND","ND","ND","ND","ND","ND","ND","ND","ND"],
    [14595,"2015-09-30T13:00:00","ND","ND","ND","ND","ND","ND","ND","ND","ND"],
    [14596,"2015-09-30T14:00:00","ND","ND","ND","ND","ND","ND","ND","ND","ND"],
    [14597,"2015-09-30T15:00:00","ND","ND","ND","ND","ND","ND","ND","ND","ND"],
    [14598,"2015-09-30T16:00:00","ND","ND","ND","ND","ND","ND","ND","ND","ND"],
    [14599,"2015-09-30T17:00:00","ND","ND","ND","ND","ND","ND","ND","ND","ND"],
    [14600,"2015-09-30T18:00:00","ND","ND","ND","ND","ND","ND","ND","ND","ND"],
    [14601,"2015-09-30T19:00:00","ND","ND","ND","ND","ND","ND","ND","ND","ND"],
    [14602,"2015-09-30T20:00:00","ND","ND","ND","ND","ND","ND","ND","ND","ND"],
    [14603,"2015-09-30T21:00:00","ND","ND","ND","ND","ND","ND","ND","ND","ND"],
    [14604,"2015-09-30T22:00:00","ND","ND","ND","ND","ND","ND","ND","ND","ND"],
    [14605,"2015-09-30T23:00:00","ND","ND","ND","ND","ND","ND","ND","ND","ND"],
    [14606,"2015-10-01T00:00:00","ND","ND","ND","ND","ND","ND","ND","ND","ND"],
    [14607,"2015-10-01T01:00:00","ND","ND","ND","ND","ND","ND","ND","ND","ND"],
    [14608,"2015-10-01T02:00:00","ND","ND","ND","ND","ND","ND","ND","ND","ND"],
    [14609,"2015-10-01T03:00:00","ND","ND","ND","ND","ND","ND","ND","ND","ND"],
    [14610,"2015-10-01T04:00:00","ND","ND","ND","ND","ND","ND","ND","ND","ND"],
    [14611,"2015-10-01T05:00:00","ND","ND","ND","ND","ND","ND","ND","ND","ND"],
    [14612,"2015-10-01T06:00:00","ND","ND","ND","ND","ND","ND","ND","ND","ND"],
    [14613,"2015-10-01T07:00:00","ND","ND","ND","ND","ND","ND","ND","ND","ND"],
    [14614,"2015-10-01T08:00:00","ND","ND","ND","ND","ND","ND","ND","ND","ND"],
    [14615,"2015-10-01T09:00:00","ND","ND","ND","ND","ND","ND","ND","ND","ND"],
    [14616,"2015-10-01T10:00:00","ND","ND","ND","1,9","290,5","27,1","60,8","360,9","0"],
    [14617,"2015-10-01T11:00:00","ND","ND","ND","ND","ND","ND","ND","ND","ND"],
    [14618,"2015-10-01T12:00:00","ND","ND","ND","ND","ND","ND","ND","ND","ND"],
    [14619,"2015-10-01T13:00:00","ND","ND","ND","ND","ND","ND","ND","ND","ND"],
    [14620,"2015-10-01T14:00:00","ND","ND","ND","ND","ND","ND","ND","ND","ND"],
    [14621,"2015-10-01T15:00:00","ND","ND","ND","ND","ND","ND","ND","ND","ND"],
    [14622,"2015-10-01T16:00:00","ND","ND","ND","ND","ND","ND","ND","ND","ND"],
    [14623,"2015-10-01T17:00:00","ND","ND","ND","ND","ND","ND","ND","ND","ND"],
    [14624,"2015-10-01T18:00:00","ND","ND","ND","ND","ND","ND","ND","ND","ND"],
    [14625,"2015-10-01T19:00:00","ND","ND","ND","ND","ND","ND","ND","ND","ND"],
    [14626,"2015-10-01T20:00:00","ND","ND","ND","ND","ND","ND","ND","ND","ND"],
    [14627,"2015-10-01T21:00:00","ND","ND","ND","ND","ND","ND","ND","ND","ND"],
    [14628,"2015-10-01T22:00:00","ND","ND","ND","ND","ND","ND","ND","ND","ND"],
    [14629,"2015-10-01T23:00:00","ND","ND","ND","ND","ND","ND","ND","ND","ND"],
    [14630,"2015-10-02T00:00:00","ND","ND","ND","ND","ND","ND","ND","ND","ND"],
    [14631,"2015-10-02T01:00:00","ND","ND","ND","ND","ND","ND","ND","ND","ND"],
    [14632,"2015-10-02T02:00:00","ND","ND","ND","ND","ND","ND","ND","ND","ND"],
    [14633,"2015-10-02T03:00:00","ND","ND","ND","ND","ND","ND","ND","ND","ND"],
    [14634,"2015-10-02T04:00:00","ND","ND","ND","ND","ND","ND","ND","ND","ND"],
    [14635,"2015-10-02T05:00:00","ND","ND","ND","ND","ND","ND","ND","ND","ND"],
    [14636,"2015-10-02T06:00:00","ND","ND","ND","ND","ND","ND","ND","ND","ND"],
    [14637,"2015-10-02T07:00:00","ND","ND","ND","ND","ND","ND","ND","ND","ND"],
    [14638,"2015-10-02T08:00:00","ND","ND","ND","ND","ND","ND","ND","ND","ND"],
    [14639,"2015-10-02T09:00:00","ND","ND","ND","ND","ND","ND","ND","ND","ND"],
    [14640,"2015-10-02T10:00:00","ND","ND","ND","ND","ND","ND","ND","ND","ND"],
    [14641,"2015-10-02T11:00:00","ND","ND","ND","ND","ND","ND","ND","ND","ND"],
    [14642,"2015-10-02T12:00:00","ND","ND","ND","ND","ND","ND","ND","ND","ND"],
    [14643,"2015-10-02T13:00:00","ND","ND","ND","ND","ND","ND","ND","ND","ND"],
    [14644,"2015-10-02T14:00:00","ND","ND","ND","ND","ND","ND","ND","ND","ND"],
    [14645,"2015-10-02T15:00:00","ND","ND","ND","ND","ND","ND","ND","ND","ND"],
    [14646,"2015-10-02T16:00:00","ND","ND","ND","ND","ND","ND","ND","ND","ND"],
    [14647,"2015-10-02T17:00:00","ND","ND","ND","ND","ND","ND","ND","ND","ND"],
    [14648,"2015-10-02T18:00:00","ND","ND","ND","ND","ND","ND","ND","ND","ND"],
    [14649,"2015-10-02T19:00:00","ND","ND","ND","ND","ND","ND","ND","ND","ND"],
    [14650,"2015-10-02T20:00:00","ND","ND","ND","ND","ND","ND","ND","ND","ND"],
    [14651,"2015-10-02T21:00:00","ND","ND","ND","ND","ND","ND","ND","ND","ND"],
    [14652,"2015-10-02T22:00:00","ND","ND","ND","ND","ND","ND","ND","ND","ND"],
    [14653,"2015-10-02T23:00:00","ND","ND","ND","ND","ND","ND","ND","ND","ND"],
    [14654,"2015-10-03T00:00:00","ND","ND","ND","ND","ND","ND","ND","ND","ND"],
    [14655,"2015-10-03T01:00:00","ND","ND","ND","ND","ND","ND","ND","ND","ND"],
    [14656,"2015-10-03T02:00:00","ND","ND","ND","ND","ND","ND","ND","ND","ND"],
    [14657,"2015-10-03T03:00:00","ND","ND","ND","ND","ND","ND","ND","ND","ND"],
    [14658,"2015-10-03T04:00:00","ND","ND","ND","ND","ND","ND","ND","ND","ND"],
    [14659,"2015-10-03T05:00:00","ND","ND","ND","ND","ND","ND","ND","ND","ND"],
    [14660,"2015-10-03T06:00:00","ND","ND","ND","ND","ND","ND","ND","ND","ND"],
    [14661,"2015-10-03T07:00:00","ND","ND","ND","ND","ND","ND","ND","ND","ND"],
    [14662,"2015-10-03T08:00:00","ND","ND","ND","ND","ND","ND","ND","ND","ND"],
    [14663,"2015-10-03T09:00:00","ND","ND","ND","ND","ND","ND","ND","ND","ND"],
    [14664,"2015-10-03T10:00:00","ND","ND","ND","ND","ND","ND","ND","ND","ND"],
    [14665,"2015-10-03T11:00:00","ND","ND","ND","ND","ND","ND","ND","ND","ND"],
    [14666,"2015-10-03T12:00:00","ND","ND","ND","ND","ND","ND","ND","ND","ND"],
    [14667,"2015-10-03T13:00:00","ND","ND","ND","ND","ND","ND","ND","ND","ND"],
    [14668,"2015-10-03T14:00:00","ND","ND","ND","ND","ND","ND","ND","ND","ND"],
    [14669,"2015-10-03T15:00:00","ND","ND","ND","ND","ND","ND","ND","ND","ND"],
    [14670,"2015-10-03T16:00:00","ND","ND","ND","ND","ND","ND","ND","ND","ND"],
    [14671,"2015-10-03T17:00:00","ND","ND","ND","ND","ND","ND","ND","ND","ND"],
    [14672,"2015-10-03T18:00:00","ND","ND","ND","ND","ND","ND","ND","ND","ND"],
    [14673,"2015-10-03T19:00:00","ND","ND","ND","ND","ND","ND","ND","ND","ND"],
    [14674,"2015-10-03T20:00:00","ND","ND","ND","ND","ND","ND","ND","ND","ND"],
    [14675,"2015-10-03T21:00:00","ND","ND","ND","ND","ND","ND","ND","ND","ND"],
    [14676,"2015-10-03T22:00:00","ND","ND","ND","ND","ND","ND","ND","ND","ND"],
    [14677,"2015-10-03T23:00:00","ND","ND","ND","ND","ND","ND","ND","ND","ND"],
    [14678,"2015-10-04T00:00:00","ND","ND","ND","ND","ND","ND","ND","ND","ND"],
    [14679,"2015-10-04T01:00:00","ND","ND","ND","ND","ND","ND","ND","ND","ND"],
    [14680,"2015-10-04T02:00:00","ND","ND","ND","ND","ND","ND","ND","ND","ND"],
    [14681,"2015-10-04T03:00:00","ND","ND","ND","ND","ND","ND","ND","ND","ND"],
    [14682,"2015-10-04T04:00:00","ND","ND","ND","ND","ND","ND","ND","ND","ND"],
    [14683,"2015-10-04T05:00:00","ND","ND","ND","ND","ND","ND","ND","ND","ND"],
    [14684,"2015-10-04T06:00:00","ND","ND","ND","ND","ND","ND","ND","ND","ND"],
    [14685,"2015-10-04T07:00:00","ND","ND","ND","ND","ND","ND","ND","ND","ND"],
    [14686,"2015-10-04T08:00:00","ND","ND","ND","ND","ND","ND","ND","ND","ND"],
    [14687,"2015-10-04T09:00:00","ND","ND","ND","ND","ND","ND","ND","ND","ND"],
    [14688,"2015-10-04T10:00:00","ND","ND","ND","ND","ND","ND","ND","ND","ND"],
    [14689,"2015-10-04T11:00:00","ND","ND","ND","ND","ND","ND","ND","ND","ND"],
    [14690,"2015-10-04T12:00:00","ND","ND","ND","ND","ND","ND","ND","ND","ND"],
    [14691,"2015-10-04T13:00:00","ND","ND","ND","ND","ND","ND","ND","ND","ND"],
    [14692,"2015-10-04T14:00:00","ND","ND","ND","ND","ND","ND","ND","ND","ND"],
    [14693,"2015-10-04T15:00:00","ND","ND","ND","ND","ND","ND","ND","ND","ND"],
    [14694,"2015-10-04T16:00:00","ND","ND","ND","ND","ND","ND","ND","ND","ND"],
    [14695,"2015-10-04T17:00:00","ND","ND","ND","ND","ND","ND","ND","ND","ND"],
    [14696,"2015-10-04T18:00:00","ND","ND","ND","ND","ND","ND","ND","ND","ND"],
    [14697,"2015-10-04T19:00:00","ND","ND","ND","ND","ND","ND","ND","ND","ND"],
    [14698,"2015-10-04T20:00:00","ND","ND","ND","ND","ND","ND","ND","ND","ND"],
    [14699,"2015-10-04T21:00:00","ND","ND","ND","ND","ND","ND","ND","ND","ND"],
    [14700,"2015-10-04T22:00:00","ND","ND","ND","ND","ND","ND","ND","ND","ND"],
    [14701,"2015-10-04T23:00:00","ND","ND","ND","ND","ND","ND","ND","ND","ND"],
    [14702,"2015-10-05T00:00:00","ND","ND","ND","ND","ND","ND","ND","ND","ND"],
    [14703,"2015-10-05T01:00:00","ND","ND","ND","ND","ND","ND","ND","ND","ND"],
    [14704,"2015-10-05T02:00:00","ND","ND","ND","ND","ND","ND","ND","ND","ND"],
    [14705,"2015-10-05T03:00:00","ND","ND","ND","ND","ND","ND","ND","ND","ND"],
    [14706,"2015-10-05T04:00:00","ND","ND","ND","ND","ND","ND","ND","ND","ND"],
    [14707,"2015-10-05T05:00:00","ND","ND","ND","ND","ND","ND","ND","ND","ND"],
    [14708,"2015-10-05T06:00:00","ND","ND","ND","ND","ND","ND","ND","ND","ND"],
    [14709,"2015-10-05T07:00:00","ND","ND","ND","ND","ND","ND","ND","ND","ND"],
    [14710,"2015-10-05T08:00:00","ND","ND","ND","ND","ND","ND","ND","ND","ND"],
    [14711,"2015-10-05T09:00:00","ND","ND","ND","ND","ND","ND","ND","ND","ND"],
    [14712,"2015-10-05T10:00:00","ND","ND","50,96","1,1","59,8","29,1","55,2","329,3","0"],
    [14713,"2015-10-05T11:00:00","54","7","91,07","1,4","46,6","30,9","49,7","429,1","0"],
    [14714,"2015-10-05T12:00:00","95","16","127,5","2,5","23,7","32,2","43,7","361,7","0"],
    [14715,"2015-10-05T13:00:00","53","9","152,42","1","49,3","33,5","39,2","427,9","0"],
    [14716,"2015-10-05T14:00:00","76","10","134,58","3,5","65,8","35","34,4","380,1","0"],
    [14717,"2015-10-05T15:00:00","ND","11","120,82","1,6","0,8","34,8","33,1","216,9","0"],
    [14718,"2015-10-05T16:00:00","ND","ND","87,46","8,7","288","34,6","35,3","220","0"],
    [14719,"2015-10-05T17:00:00","ND","ND","ND","ND","ND","ND","ND","ND","ND"],
    [14720,"2015-10-05T18:00:00","ND","ND","ND","ND","ND","ND","ND","ND","ND"],
    [14721,"2015-10-05T19:00:00","55","6","32,91","3,5","321,6","30,7","46,6","0","0"],
    [14722,"2015-10-05T20:00:00","58","10","25,37","1,4","0,7","29,6","51,1","0","0"],
    [14723,"2015-10-05T21:00:00","59","13","13,46","3,4","112,7","27,5","61,2","0","0"],
    [14724,"2015-10-05T22:00:00","58","12","18,03","4,5","84,7","27,2","63","0","0"],
    [14725,"2015-10-05T23:00:00","50","12","18,54","2,4","97,7","26,7","64,3","0","0"],
    [14726,"2015-10-06T00:00:00","34","9","16,48","1,9","117","26","67,7","0","0"],
    [14727,"2015-10-06T01:00:00","44","8","13,48","3,2","95,3","25","71,9","0","0"],
    [14728,"2015-10-06T02:00:00","22","5","23,49","3","109,9","25,2","70,1","0","0"],
    [14729,"2015-10-06T03:00:00","25","6","28,71","0,5","80,5","25,6","67","0","0"],
    [14730,"2015-10-06T04:00:00","51","12","14,4","1,5","172,2","25,3","70,5","0","0"],
    [14731,"2015-10-06T05:00:00","67","16","9,71","2,9","179,4","24,7","73,7","0","0"],
    [14732,"2015-10-06T06:00:00","68","21","8,3","2,1","157","24,1","75,7","0","0"],
    [14733,"2015-10-06T07:00:00","102","26","9,07","1,8","159,4","23,2","79,2","33,7","0"],
    [14734,"2015-10-06T08:00:00","73","17","16,46","3","170,7","25,2","71,5","132","0"],
    [14735,"2015-10-06T09:00:00","58","18","33,64","2,8","165","26,9","63,6","190,2","0"],
    [14736,"2015-10-06T10:00:00","58","19","54,53","2,2","174,7","27,9","59,1","263,1","0"],
    [14737,"2015-10-06T11:00:00","55","19","78,4","2,1","111,4","29,4","53,1","287,9","0"],
    [14738,"2015-10-06T12:00:00","57","17","98,51","2,7","165,4","30,7","49,3","344,6","0"],
    [14739,"2015-10-06T13:00:00","62","19","128,14","3,3","204,2","32,3","43,7","404","0"],
    [14740,"2015-10-06T14:00:00","58","18","118,06","3,7","153,6","33,5","38,3","342,6","0"],
    [14741,"2015-10-06T15:00:00","49","19","126,89","2,3","176,1","33,9","35,7","220,8","0"],
    [14742,"2015-10-06T16:00:00","51","10","99,69","5,3","288,3","34","36,7","195,8","0"],
    [14743,"2015-10-06T17:00:00","42","9","82,13","4,7","290,2","33,7","35,9","126","0"],
    [14744,"2015-10-06T18:00:00","55","22","50,67","4,7","324,7","32,5","38,3","21,7","0"],
    [14745,"2015-10-06T19:00:00","43","6","36,03","5,2","285,8","30,3","45,8","0","0"],
    [14746,"2015-10-06T20:00:00","81","26","18,88","1,9","54,2","28,9","52","0","0"],
    [14747,"2015-10-06T21:00:00","68","20","17,92","1,7","95,9","28,7","53,7","0","0"],
    [14748,"2015-10-06T22:00:00","58","14","15,91","1","125","27,2","60,9","0","0"],
    [14749,"2015-10-06T23:00:00","44","9","13,91","3,3","114,8","25,9","67,7","0","0"],
    [14750,"2015-10-07T00:00:00","53","20","12,74","2,2","212","25,8","68,9","0","0"],
    [14751,"2015-10-07T01:00:00","53","13","13,01","2,8","89,4","25,6","69,4","0","0"],
    [14752,"2015-10-07T02:00:00","38","7","17,27","2,4","105,9","24,8","72,3","0","0"],
    [14753,"2015-10-07T03:00:00","28","3","18,64","1,4","135,3","24,8","71,7","0","0"],
    [14754,"2015-10-07T04:00:00","63","18","14,27","1,8","187,9","24,8","72,1","0","0"],
    [14755,"2015-10-07T05:00:00","71","22","9,69","3,2","221,2","24,3","74,6","0","0"],
    [14756,"2015-10-07T06:00:00","69","18","9,83","2,5","209,6","24,2","74,3","0","0"],
    [14757,"2015-10-07T07:00:00","133","44","9,67","2,9","90,3","23,6","77,9","26,9","0"],
    [14758,"2015-10-07T08:00:00","110","35","16,46","4,1","99,8","25,2","72,2","134,3","0"],
    [14759,"2015-10-07T09:00:00","81","37","31,03","3","144,5","26,6","64,3","170,2","0"],
    [14760,"2015-10-07T10:00:00","65","18","46,94","1,1","117","27,4","59,7","149,8","0"],
    [14761,"2015-10-07T11:00:00","91","20","51,45","2,3","42,3","28,4","57,5","190,7","0"],
    [14762,"2015-10-07T12:00:00","66","17","65,96","2,6","10,8","29,3","53,4","266,6","0"],
    [14763,"2015-10-07T13:00:00","67","17","77,16","2,9","9,3","30,5","49,1","312,2","0"],
    [14764,"2015-10-07T14:00:00","54","17","87,76","3,7","65,9","31,4","44,5","244,6","0"],
    [14765,"2015-10-07T15:00:00","40","11","84,11","3,3","28,5","31,5","43,3","206,8","0"],
    [14766,"2015-10-07T16:00:00","52","14","74,45","4,3","79,7","31,9","42,1","154,5","0"],
    [14767,"2015-10-07T17:00:00","56","21","59,6","4,1","76","31,8","43,1","57,9","0"],
    [14768,"2015-10-07T18:00:00","41","10","42,03","5,2","297,6","30,4","42,9","11,3","0"],
    [14769,"2015-10-07T19:00:00","65","17","22,76","2,9","310,8","29,2","46,9","0","0"],
    [14770,"2015-10-07T20:00:00","46","12","29,06","5","298,1","28,6","49,2","0","0"],
    [14771,"2015-10-07T21:00:00","68","17","15,15","2,8","94,6","26,8","59,4","0","0"],
    [14772,"2015-10-07T22:00:00","54","10","14,38","2,4","102,9","25,6","65,4","0","0"],
    [14773,"2015-10-07T23:00:00","66","34","15,74","3,1","85,4","25,1","67,1","0","0"],
    [14774,"2015-10-08T00:00:00","49","20","22,31","1,8","21","25,6","64,6","0","0"],
    [14775,"2015-10-08T01:00:00","27","6","35,7","1","331,5","25,7","63,2","0","0"],
    [14776,"2015-10-08T02:00:00","33","13","28,26","1,4","84,7","25,3","65,5","0","0"],
    [14777,"2015-10-08T03:00:00","72","26","14,19","3,6","121,3","24,3","71,2","0","0"],
    [14778,"2015-10-08T04:00:00","74","27","11,93","1,5","191,4","24,1","72,3","0","0"],
    [14779,"2015-10-08T05:00:00","96","30","9,48","1,5","143,5","23,8","75,4","0","0"],
    [14780,"2015-10-08T06:00:00","100","33","9,42","0,8","59,8","23","78,5","0","0"],
    [14781,"2015-10-08T07:00:00","106","36","11,07","1,5","306","24","75,2","31,4","0"],
    [14782,"2015-10-08T08:00:00","158","57","16,01","2,6","86,8","25","72,3","84,3","0"],
    [14783,"2015-10-08T09:00:00","96","50","49,51","1,3","129,2","26,7","63,4","233,2","0"],
    [14784,"2015-10-08T10:00:00","106","45","101,96","0,3","239,8","28,8","54,2","313,7","0"],
    [14785,"2015-10-08T11:00:00","93","39","137,27","1","315,3","30,1","49,7","299,9","0"],
    [14786,"2015-10-08T12:00:00","78","33","131,07","1,4","320,8","31,8","43","349,2","0"],
    [14787,"2015-10-08T13:00:00","67","29","128,99","2,6","70,4","33,1","38,8","412,5","0"],
    [14788,"2015-10-08T14:00:00","62","29","143,65","1,8","43,7","33,6","36,9","242,5","0"],
    [14789,"2015-10-08T15:00:00","63","21","118,78","4,7","84,2","34,1","36,7","226,1","0"],
    [14790,"2015-10-08T16:00:00","53","18","88,86","1,9","13,2","33,8","36,8","149,8","0"],
    [14791,"2015-10-08T17:00:00","54","13","75,98","8","287,9","33,3","37,9","135,5","0"],
    [14792,"2015-10-08T18:00:00","43","18","60,6","6","292,5","31,3","43","12,5","0"],
    [14793,"2015-10-08T19:00:00","52","13","40,41","4,7","292,6","30,1","46,7","0","0"],
    [14794,"2015-10-08T20:00:00","63","17","26,73","2,7","77,5","28,4","54,2","0","0"],
    [14795,"2015-10-08T21:00:00","55","13","18,37","2,8","78,6","26,7","63,3","0","0"],
    [14796,"2015-10-08T22:00:00","59","16","18,19","3","89","26,8","62,9","0","0"],
    [14797,"2015-10-08T23:00:00","48","13","17,41","0,9","166,4","26,8","62,2","0","0"],
    [14798,"2015-10-09T00:00:00","47","13","16,56","2","138","26,1","65,9","0","0"],
    [14799,"2015-10-09T01:00:00","50","14","21,59","1,8","144,7","25,9","67,2","0","0"],
    [14800,"2015-10-09T02:00:00","44","9","20,86","1,8","135,1","25,2","70,6","0","0"],
    [14801,"2015-10-09T03:00:00","73","21","17,01","2,8","220,2","25,1","70,7","0","0"],
    [14802,"2015-10-09T04:00:00","70","18","16,31","3,7","202,4","24,9","71,2","0","0"],
    [14803,"2015-10-09T05:00:00","72","14","11,09","1,4","117,4","24,4","73,8","0","0"],
    [14804,"2015-10-09T06:00:00","83","31","10,01","0,8","112","24,7","72,5","0","0"],
    [14805,"2015-10-09T07:00:00","105","31","12,28","2","81,3","24,5","74,5","38","0"],
    [14806,"2015-10-09T08:00:00","94","35","15,21","0,5","14,4","25,5","70,5","43,4","0"],
    [14807,"2015-10-09T09:00:00","109","33","20,53","1,9","47,9","26,2","68,1","84,9","0"],
    [14808,"2015-10-09T10:00:00","65","19","34,58","3,9","72,5","27,4","62,8","184","0"],
    [14809,"2015-10-09T11:00:00","39","11","50,08","1,7","24","28,7","56,6","284,1","0"],
    [14810,"2015-10-09T12:00:00","45","17","78,36","1,8","16,1","30","51,3","379,9","0"],
    [14811,"2015-10-09T13:00:00","46","21","97,73","2,6","23,9","31","46,5","277,4","0"],
    [14812,"2015-10-09T14:00:00","48","18","95,06","4,8","53,4","32","43,3","322","0"],
    [14813,"2015-10-09T15:00:00","30","12","76,67","4,4","20,7","32","43,4","198,3","0"],
    [14814,"2015-10-09T16:00:00","64","17","68,62","6","306","31","44,7","64,8","0"],
    [14815,"2015-10-09T17:00:00","50","12","53,02","7,1","301,1","29,7","46,9","16,9","0"],
    [14816,"2015-10-09T18:00:00","38","11","37,48","5,1","323,8","29,3","48,6","5,9","0"],
    [14817,"2015-10-09T19:00:00","80","30","24,24","2,6","35,6","28,4","52,3","0","0"],
    [14818,"2015-10-09T20:00:00","70","18","23,57","1,9","156,5","27,1","60,1","0","0"],
    [14819,"2015-10-09T21:00:00","80","27","38,7","3,7","199","26,3","68,4","0","0"],
    [14820,"2015-10-09T22:00:00","64","20","33,09","3,1","186","26,2","68,8","0","0"],
    [14821,"2015-10-09T23:00:00","64","17","27,38","2,4","187,8","26,1","69,4","0","0"],
    [14822,"2015-10-10T00:00:00","50","16","24,27","1,6","161,4","25,5","71,7","0","0"],
    [14823,"2015-10-10T01:00:00","51","18","19,41","1,5","95,6","24,9","74,8","0","0"],
    [14824,"2015-10-10T02:00:00","101","46","14,25","1,7","33,5","24,3","77,5","0","0"],
    [14825,"2015-10-10T03:00:00","86","33","12,72","2,1","105,6","24,2","77,1","0","0"],
    [14826,"2015-10-10T04:00:00","80","18","10,75","3,1","85,3","23,4","78,8","0","0"],
    [14827,"2015-10-10T05:00:00","86","27","10,91","2,1","141,5","23,8","77,4","0","0"],
    [14828,"2015-10-10T06:00:00","91","34","10,93","1,2","150,8","23,9","78,1","0","0,25"],
    [14829,"2015-10-10T07:00:00","64","23","14,56","1,2","353,2","23,7","80,2","16,5","0"],
    [14830,"2015-10-10T08:00:00","80","32","22,59","2,3","116,4","24,9","73","134,8","0"],
    [14831,"2015-10-10T09:00:00","63","24","33,6","3","119,2","26,3","67,1","169,7","0"],
    [14832,"2015-10-10T10:00:00","58","25","59,26","2,6","116,3","28","61,3","319,1","0"],
    [14833,"2015-10-10T11:00:00","64","28","86,23","2,2","94","29,5","54,7","341,9","0"],
    [14834,"2015-10-10T12:00:00","63","29","96,88","4,5","90,1","30,6","49,2","278,4","0"],
    [14835,"2015-10-10T13:00:00","67","22","90,43","5,1","87,5","30,7","48,6","154","0"],
    [14836,"2015-10-10T14:00:00","66","26","113,23","4,7","62,4","32,1","44,2","383,7","0"],
    [14837,"2015-10-10T15:00:00","42","17","99,87","4,1","32,6","32,5","42,7","270,8","0"],
    [14838,"2015-10-10T16:00:00","40","14","81,1","2,2","347,4","32,4","40,7","93,7","0"],
    [14839,"2015-10-10T17:00:00","35","8","53,49","7,6","288,8","31,2","42,8","40,3","0"],
    [14840,"2015-10-10T18:00:00","32","4","43,96","7,5","292,5","29,4","49,5","0","0"],
    [14841,"2015-10-10T19:00:00","70","14","66,64","9,9","260,7","26,1","66,5","0","0"],
    [14842,"2015-10-10T20:00:00","32","15","52,77","7,4","262,3","25,4","68","0","0"],
    [14843,"2015-10-10T21:00:00","39","8","28,36","5","250","25,8","67,2","0","0"],
    [14844,"2015-10-10T22:00:00","28","11","21,82","4,9","240,9","24,2","77,3","0","0"],
    [14845,"2015-10-10T23:00:00","17","8","21,92","1,1","286,1","24,2","78,4","0","0"],
    [14846,"2015-10-11T00:00:00","42","18","12,91","2","103,3","24,1","80,6","0","0"],
    [14847,"2015-10-11T01:00:00","24","14","17,43","2,4","166,8","23,5","84,5","0","0"],
    [14848,"2015-10-11T02:00:00","25","11","22,29","0,9","190,4","23,4","84,2","0","0"],
    [14849,"2015-10-11T03:00:00","29","7","17,74","2","127,1","23,6","83,7","0","0"],
    [14850,"2015-10-11T04:00:00","25","8","19,21","2,8","198,6","23,4","85,5","0","0"],
    [14851,"2015-10-11T05:00:00","32","9","17,88","1,7","184","23,5","85,2","0","0"],
    [14852,"2015-10-11T06:00:00","26","16","15,46","1,9","181,5","23,3","86","0","0"],
    [14853,"2015-10-11T07:00:00","31","14","18,49","2","198,2","23,4","86","16,5","0"],
    [14854,"2015-10-11T08:00:00","40","19","26,79","2","167","24,1","83","54","0"],
    [14855,"2015-10-11T09:00:00","49","23","34,22","1,8","127,5","24,5","79,5","62,2","0"],
    [14856,"2015-10-11T10:00:00","49","29","34,05","1,6","136,7","25","76,8","66,9","0"],
    [14857,"2015-10-11T11:00:00","63","28","42,82","1,5","183,7","25,7","74,5","174,7","0"],
    [14858,"2015-10-11T12:00:00","64","30","76,61","2,3","195,7","27,9","63,4","357,6","0"],
    [14859,"2015-10-11T13:00:00","38","17","105,12","3,9","230,1","29,5","55,8","405,8","0"],
    [14860,"2015-10-11T14:00:00","31","14","107,17","2","144,7","30,6","49,8","302,2","0"],
    [14861,"2015-10-11T15:00:00","43","19","87,23","3,2","29,3","30,6","49,4","77,3","0"],
    [14862,"2015-10-11T16:00:00","23","4","57,58","5,4","303,5","29","53,3","44,1","0"],
    [14863,"2015-10-11T17:00:00","22","7","59,22","4,6","283","30","48,3","116,4","0"],
    [14864,"2015-10-11T18:00:00","39","6","52,24","5,5","287,7","29,4","48,4","17,1","0"],
    [14865,"2015-10-11T19:00:00","34","5","38,03","4,4","290,8","28,2","52,9","0","0"],
    [14866,"2015-10-11T20:00:00","50","27","26,41","2,6","293,1","27,8","54,4","0","0"],
    [14867,"2015-10-11T21:00:00","60","14","14,95","3,3","95,8","25,9","65,2","0","0"],
    [14868,"2015-10-11T22:00:00","92","26","12,79","1,9","91,4","25,2","69,3","0","0"],
    [14869,"2015-10-11T23:00:00","57","13","15,42","2,3","94,1","25,5","67,2","0","0"],
    [14870,"2015-10-12T00:00:00","44","13","15,09","1,4","22,9","25,3","68,1","0","0"],
    [14871,"2015-10-12T01:00:00","24","7","22,8","2,1","4,3","24,9","68,8","0","0"],
    [14872,"2015-10-12T02:00:00","42","10","18,45","2","90,8","24,1","72,2","0","0"],
    [14873,"2015-10-12T03:00:00","47","7","16,37","1,4","190,1","23,4","76,1","0","0"],
    [14874,"2015-10-12T04:00:00","56","9","15,21","1,7","171,8","24","74,1","0","0"],
    [14875,"2015-10-12T05:00:00","43","8","13,25","2","217,8","23,9","75,4","0","0"],
    [14876,"2015-10-12T06:00:00","44","9","11,11","3,1","211,2","24","76,3","0","0"],
    [14877,"2015-10-12T07:00:00","62","12","10,93","2","132,1","24,1","77,4","9,3","0"],
    [14878,"2015-10-12T08:00:00","52","8","16,82","1,9","190,6","24,2","78,2","47,4","0"],
    [14879,"2015-10-12T09:00:00","46","9","28,24","2,3","162,5","25,4","71,4","121,8","0"],
    [14880,"2015-10-12T10:00:00","38","8","41,17","1,8","129","27,4","62,6","238,4","0"],
    [14881,"2015-10-12T11:00:00","47","10","62,11","1,1","101,4","28,7","57,3","273,9","0"],
    [14882,"2015-10-12T12:00:00","46","11","74,9","2,8","96","29,2","54,9","219,9","0"],
    [14883,"2015-10-12T13:00:00","40","7","87,4","3","36,5","30","50,7","272,6","0"],
    [14884,"2015-10-12T14:00:00","42","9","96,67","2,5","9,1","30,9","48,5","317,2","0"],
    [14885,"2015-10-12T15:00:00","51","15","78,79","3,8","353","31,4","47,6","303,6","0"],
    [14886,"2015-10-12T16:00:00","29","8","59,85","5,4","36,5","32,1","44","197,8","0"],
    [14887,"2015-10-12T17:00:00","30","6","43,37","2","42,3","30,4","47,3","16,6","0"],
    [14888,"2015-10-12T18:00:00","82","22","33,75","3,2","220","28,6","58,6","0","0"],
    [14889,"2015-10-12T19:00:00","35","6","36,56","5,4","259,3","28,7","51,3","0","0"],
    [14890,"2015-10-12T20:00:00","47","8","24,16","3,2","254,2","28","56,3","0","0"],
    [14891,"2015-10-12T21:00:00","64","21","19,27","1,9","123,5","25,9","74,2","0","0"],
    [14892,"2015-10-12T22:00:00","77","29","21,94","2,2","133,7","25,7","74,4","0","0"],
    [14893,"2015-10-12T23:00:00","75","26","18,41","2,4","182,2","25,8","71,2","0","0"],
    [14894,"2015-10-13T00:00:00","56","22","23,43","2,8","186,5","25,5","71,1","0","0"],
    [14895,"2015-10-13T01:00:00","50","21","21,74","2,3","206,8","24,6","76,8","0","0"],
    [14896,"2015-10-13T02:00:00","47","13","25,28","1,6","186,2","25,1","72,7","0","0"],
    [14897,"2015-10-13T03:00:00","50","17","17,01","2,8","126,7","24,5","76,5","0","0"],
    [14898,"2015-10-13T04:00:00","38","11","12,66","1,6","187,2","23,9","80,8","0","0"],
    [14899,"2015-10-13T05:00:00","39","14","11,72","1,6","208","24,3","78,7","0","0"],
    [14900,"2015-10-13T06:00:00","52","15","9,95","1,8","158,4","24,3","77,6","0","0"],
    [14901,"2015-10-13T07:00:00","62","12","10,68","1,4","173,4","24,4","77,7","8,2","0"],
    [14902,"2015-10-13T08:00:00","73","22","11,38","3,2","108","24,6","78,1","40,8","0"],
    [14903,"2015-10-13T09:00:00","50","15","25,51","2,3","181,1","25,8","71","140","0"],
    [14904,"2015-10-13T10:00:00","48","11","47,82","2,5","193","28","61,2","313,7","0"],
    [14905,"2015-10-13T11:00:00","49","17","61,76","2,5","195,9","29,3","56,4","349,6","0"],
    [14906,"2015-10-13T12:00:00","44","17","83,26","2","145,1","30,4","51,3","344,4","0"],
    [14907,"2015-10-13T13:00:00","56","11","119,55","1,5","120,9","31,6","46,9","323,7","0"],
    [14908,"2015-10-13T14:00:00","61","16","117,33","3,3","76,3","32,8","41,9","246,4","0"],
    [14909,"2015-10-13T15:00:00","80","12","57,14","6,1","12,7","31,3","46,3","27,3","0"],
    [14910,"2015-10-13T16:00:00","ND","12","27,36","6","9,1","29,2","56,7","57,1","0"],
    [14911,"2015-10-13T17:00:00","44","7","34,2","4,6","30,1","28,5","58,1","32,7","0"],
    [14912,"2015-10-13T18:00:00","44","7","28,73","1,3","201,1","28,1","55,7","0","0"],
    [14913,"2015-10-13T19:00:00","31","6","43,86","6,5","205,5","24,6","70,3","0","0"],
    [14914,"2015-10-13T20:00:00","31","5","44","5,2","174,6","23,7","73,7","0","0"],
    [14915,"2015-10-13T21:00:00","31","6","41,54","4,6","190,3","23","78,5","0","0"],
    [14916,"2015-10-13T22:00:00","24","4","45,49","3,3","208,1","22,8","79,9","0","0"],
    [14917,"2015-10-13T23:00:00","20","7","37,58","2,6","210,5","22,9","80","0","0"],
    [14918,"2015-10-14T00:00:00","27","6","33,58","1","145,3","23,3","79","0","0"],
    [14919,"2015-10-14T01:00:00","32","5","24,51","3,8","77","22,7","83,1","0","0"],
    [14920,"2015-10-14T02:00:00","25","5","23,59","2,6","89,9","22,3","86,9","0","0"],
    [14921,"2015-10-14T03:00:00","28","15","31,08","2,6","87,5","22","88,3","0","0"],
    [14922,"2015-10-14T04:00:00","19","2","28,49","2,5","121,2","21,9","88,8","0","0"],
    [14923,"2015-10-14T05:00:00","13","3","26,2","2,9","98,2","21,7","88,9","0","0"],
    [14924,"2015-10-14T06:00:00","13","2","17,33","2,1","78,7","21,8","88,6","0","0"],
    [14925,"2015-10-14T07:00:00","16","11","14,91","0,9","292,4","21,9","88,4","4,1","0"],
    [14926,"2015-10-14T08:00:00","32","13","14,05","0,5","205,4","22,3","87,4","15,6","0"],
    [14927,"2015-10-14T09:00:00","31","13","21","1,7","155,9","22,8","86,7","63,1","0"],
    [14928,"2015-10-14T10:00:00","31","14","37,76","1,9","178,4","23,7","81,4","156,1","0"],
    [14929,"2015-10-14T11:00:00","23","11","48,27","2,6","154,2","25,6","72,4","386,7","0"],
    [14930,"2015-10-14T12:00:00","19","6","56,5","2,5","146","26,9","63,7","282","0"],
    [14931,"2015-10-14T13:00:00","29","4","64,29","2,1","124,1","27,9","58,2","317,1","0"],
    [14932,"2015-10-14T14:00:00","30","5","77,75","2,8","107,7","29,2","55,6","287,7","0"],
    [14933,"2015-10-14T15:00:00","42","14","79,16","5,5","82,3","29,8","53,7","325,4","0"],
    [14934,"2015-10-14T16:00:00","40","10","57,38","5,4","72,8","28,8","55,6","92,6","0"],
    [14935,"2015-10-14T17:00:00","50","14","33,36","4,4","87,9","27,7","60,4","28,2","0"],
    [14936,"2015-10-14T18:00:00","52","15","22,33","3,3","108,4","26,9","67,7","5,2","0"],
    [14937,"2015-10-14T19:00:00","90","32","24,08","2,2","203,3","26,2","69,7","0","0"],
    [14938,"2015-10-14T20:00:00","86","29","23,65","1,8","215,7","26,8","64,3","0","0"],
    [14939,"2015-10-14T21:00:00","67","22","13,52","2,3","168,1","26,6","66,3","0","0"],
    [14940,"2015-10-14T22:00:00","75","20","13,89","3,2","216,1","25,8","71,8","0","0"],
    [14941,"2015-10-14T23:00:00","76","20","10,81","2,3","170,5","25,7","74","0","0"],
    [14942,"2015-10-15T00:00:00","62","6","19,96","3,7","185","24,8","79,4","0","0"],
    [14943,"2015-10-15T01:00:00","24","8","42,27","3,9","171,1","24,4","76","0","0"],
    [14944,"2015-10-15T02:00:00","17","7","42,25","5,4","154,2","23","82,4","0","0"],
    [14945,"2015-10-15T03:00:00","14","2","35,7","3,1","169,1","22,2","86,1","0","0"],
    [14946,"2015-10-15T04:00:00","9","ND","34,64","2,3","123,8","21,8","87,4","0","0"],
    [14947,"2015-10-15T05:00:00","6","ND","36,15","1,4","298,3","21,6","87,9","0","0"],
    [14948,"2015-10-15T06:00:00","8","2","24,98","0,3","325,1","21,9","87,2","0","0"],
    [14949,"2015-10-15T07:00:00","35","17","14,38","3,5","95,1","21,7","88,1","12,4","0"],
    [14950,"2015-10-15T08:00:00","39","15","29","0,3","134,3","22,2","86,9","89,3","0"],
    [14951,"2015-10-15T09:00:00","39","11","38,85","1,1","102,9","23,4","81,8","174,3","0"],
    [14952,"2015-10-15T10:00:00","48","22","64,72","0,3","358,7","24,9","75","231,6","0"],
    [14953,"2015-10-15T11:00:00","62","26","105,5","1","57,1","26,6","66,6","363,6","0"],
    [14954,"2015-10-15T12:00:00","40","14","111,09","1,5","157,3","28,8","54,4","461,9","0"],
    [14955,"2015-10-15T13:00:00","30","11","86,25","3,4","72,1","30,5","48,1","452,9","0"],
    [14956,"2015-10-15T14:00:00","25","9","92,39","2,4","66,2","31,4","46,2","408,3","0"],
    [14957,"2015-10-15T15:00:00","36","7","92,62","3,3","343,3","31,7","45","199,3","0"],
    [14958,"2015-10-15T16:00:00","40","11","60,34","1,8","27","31,4","45,3","64,4","0"],
    [14959,"2015-10-15T17:00:00","44","11","43,15","2,3","48,2","30","53,9","14,2","0"],
    [14960,"2015-10-15T18:00:00","50","15","31,85","2,2","246,7","27,8","61,8","0","0"],
    [14961,"2015-10-15T19:00:00","22","6","21,74","4,6","279,8","26,8","65,7","0","0"],
    [14962,"2015-10-15T20:00:00","58","26","13,91","1,6","176,5","27,1","65,5","0","0"],
    [14963,"2015-10-15T21:00:00","44","9","17,07","2,5","94,6","26,4","67,8","0","0"],
    [14964,"2015-10-15T22:00:00","40","10","18,6","2,2","144,2","26","69,8","0","0"],
    [14965,"2015-10-15T23:00:00","49","18","18,9","2,4","140,1","25,9","71","0","0"],
    [14966,"2015-10-16T00:00:00","32","4","36,7","2,7","149,7","25,1","73,2","0","0"],
    [14967,"2015-10-16T01:00:00","31","5","35,13","2","157,9","24,9","73,5","0","0"],
    [14968,"2015-10-16T02:00:00","40","7","22,55","0,9","117,9","24,6","75,5","0","0"],
    [14969,"2015-10-16T03:00:00","48","11","16,82","1,2","147,6","24,4","76,5","0","0"],
    [14970,"2015-10-16T04:00:00","38","8","23,63","2,6","191,9","24,3","78","0","0"],
    [14971,"2015-10-16T05:00:00","30","6","19,94","2","185,3","24,1","77,8","0","0"],
    [14972,"2015-10-16T06:00:00","40","11","14,27","3,6","147,8","23,5","81,6","0","0"],
    [14973,"2015-10-16T07:00:00","40","7","18,35","2,6","176,8","23,1","82,9","10,3","0"],
    [14974,"2015-10-16T08:00:00","31","2","25,51","3,4","198,6","23,7","81,7","93,4","0"],
    [14975,"2015-10-16T09:00:00","32","5","40,01","3,3","190,8","25,4","72","182,3","0"],
    [14976,"2015-10-16T10:00:00","24","7","46,41","4,2","175,1","26,7","64,8","208,9","0"],
    [14977,"2015-10-16T11:00:00","24","4","46,67","3,8","150,9","27,9","57,3","397","0"],
    [14978,"2015-10-16T12:00:00","22","1","55,44","3,1","189,6","29,2","51,8","376,3","0"],
    [14979,"2015-10-16T13:00:00","21","ND","58,54","2,8","149,9","30,2","49,6","464,4","0"],
    [14980,"2015-10-16T14:00:00","32","1","62,58","3,5","108,3","30,6","48,5","240,3","0"],
    [14981,"2015-10-16T15:00:00","24","8","72,23","1,3","93,6","30,7","47,8","241,7","0"],
    [14982,"2015-10-16T16:00:00","46","7","59,52","5,8","23,8","30,2","49,5","41,1","0"],
    [14983,"2015-10-16T17:00:00","42","7","43,19","4,2","212,5","26,4","67,5","4,2","0"],
    [14984,"2015-10-16T18:00:00","20","8","38,6","4,6","243,9","23,3","84,7","0","0"],
    [14985,"2015-10-16T19:00:00","40","22","14,76","2,6","114,3","24","83,1","0","0"],
    [14986,"2015-10-16T20:00:00","36","18","14,07","2,2","71,9","23,9","83,5","0","0"],
    [14987,"2015-10-16T21:00:00","29","6","20,62","0,8","187,4","23,8","82,1","0","0"],
    [14988,"2015-10-16T22:00:00","43","19","16,43","2,6","221,3","23,5","83,3","0","0"],
    [14989,"2015-10-16T23:00:00","55","14","10,66","1,5","196,5","23,8","83,2","0","0"],
    [14990,"2015-10-17T00:00:00","41","11","10,73","1,9","188,2","23,5","84,3","0","0"],
    [14991,"2015-10-17T01:00:00","42","10","11,54","1,8","114","22,8","85,9","0","0"],
    [14992,"2015-10-17T02:00:00","47","10","9,99","1,1","102,2","22,7","87,1","0","0"],
    [14993,"2015-10-17T03:00:00","54","17","9,48","2,3","110","22,3","87,8","0","0"],
    [14994,"2015-10-17T04:00:00","44","11","10,11","1,6","198,8","22,1","88,4","0","0"],
    [14995,"2015-10-17T05:00:00","40","8","9,69","0,5","203,4","22","88,5","0","0"],
    [14996,"2015-10-17T06:00:00","75","24","10,42","1","37,4","22,2","88,4","0","0"],
    [14997,"2015-10-17T07:00:00","73","27","10,77","2,1","15,5","22,1","88,7","28","0"],
    [14998,"2015-10-17T08:00:00","98","38","15,38","1,9","69","23,2","87,5","138,9","0"],
    [14999,"2015-10-17T09:00:00","64","19","28,93","2,2","112,2","25,3","77,1","270,1","0"],
    [15000,"2015-10-17T10:00:00","47","13","49,26","2","158,7","27,1","66,7","352,2","0"],
    [15001,"2015-10-17T11:00:00","51","13","73,06","2,6","116,2","28,4","59,9","427,8","0"],
    [15002,"2015-10-17T12:00:00","65","26","96,02","2,2","84,1","29,8","54,8","457,2","0"],
    [15003,"2015-10-17T13:00:00","49","11","99,28","1,7","90","31,2","47,3","458","0"],
    [15004,"2015-10-17T14:00:00","32","8","98,12","2,2","75,7","32,2","42,7","422,4","0"],
    [15005,"2015-10-17T15:00:00","39","12","97,2","3","54,5","33,1","39,7","288,8","0"],
    [15006,"2015-10-17T16:00:00","60","19","96,22","4,1","34,3","33","42","106,2","0"],
    [15007,"2015-10-17T17:00:00","47","4","66,37","5,5","300","31,8","43,7","55,6","0"],
    [15008,"2015-10-17T18:00:00","38","4","42,01","5,5","308,2","30,5","47,7","0","0"],
    [15009,"2015-10-17T19:00:00","41","5","33,48","4,7","294,8","29,7","50,6","0","0"],
    [15010,"2015-10-17T20:00:00","56","12","20,88","1","113,5","28,6","57,2","0","0"],
    [15011,"2015-10-17T21:00:00","71","22","15,4","3,2","101,7","27,6","63,2","0","0"],
    [15012,"2015-10-17T22:00:00","59","11","14,68","3,3","114,8","26,7","67","0","0"],
    [15013,"2015-10-17T23:00:00","54","15","12,81","1,8","101","26,5","67,4","0","0"],
    [15014,"2015-10-18T00:00:00","45","7","13,32","3","100,2","25,5","71","0","0"],
    [15015,"2015-10-18T01:00:00","54","6","15,76","2,3","105,8","25,4","71","0","0"],
    [15016,"2015-10-18T02:00:00","43","6","17,07","1,8","78,2","25,3","71,5","0","0"],
    [15017,"2015-10-18T03:00:00","44","5","14,15","1,2","67,8","24,8","74,7","0","0"],
    [15018,"2015-10-18T04:00:00","36","5","15,03","0,2","328,1","24,9","73,9","0","0"],
    [15019,"2015-10-18T05:00:00","50","8","11,87","1,5","161,7","24,8","75,6","0","0"],
    [15020,"2015-10-18T06:00:00","51","10","10,69","1,3","140,8","24,6","76,9","0","0"],
    [15021,"2015-10-18T07:00:00","66","9","11,77","1,7","159,6","24,5","77,7","7","0"],
    [15022,"2015-10-18T08:00:00","60","19","12,89","1,9","93,2","24,5","79,6","40,5","0"],
    [15023,"2015-10-18T09:00:00","50","14","26,04","1,5","156,8","25,3","78","222,7","0"],
    [15024,"2015-10-18T10:00:00","42","17","50,49","1,5","86,7","27,7","64,9","351,5","0"],
    [15025,"2015-10-18T11:00:00","46","16","61,95","2,9","85,9","29,4","57","436,8","0"],
    [15026,"2015-10-18T12:00:00","41","14","88,7","1,4","57,8","31,1","50,1","465,5","0"],
    [15027,"2015-10-18T13:00:00","38","10","104,73","3,1","59,5","31,9","44,9","274,4","0"],
    [15028,"2015-10-18T14:00:00","37","9","70,53","4,7","38,4","32,4","43,5","245,7","0"],
    [15029,"2015-10-18T15:00:00","35","6","66,8","4,1","33","32,5","41,8","270,5","0"],
    [15030,"2015-10-18T16:00:00","35","4","59,75","3,2","279,1","31,5","44,5","145,8","2,03"],
    [15031,"2015-10-18T17:00:00","36","13","35,81","3,3","147,8","27,4","67,2","21,8","0,25"],
    [15032,"2015-10-18T18:00:00","27","8","33,67","3,5","165,7","25,2","73,6","0","0"],
    [15033,"2015-10-18T19:00:00","48","11","26,92","4","133,8","24","76,3","0","0"],
    [15034,"2015-10-18T20:00:00","42","7","36,66","3,7","231,2","23,9","77,6","0","0"],
    [15035,"2015-10-18T21:00:00","50","19","26,06","2,9","243,1","24,3","76,3","0","0"],
    [15036,"2015-10-18T22:00:00","80","21","14,89","1,8","214,4","24,9","72,9","0","0"],
    [15037,"2015-10-18T23:00:00","47","15","13,74","3,1","120,2","23,2","82,6","0","0"],
    [15038,"2015-10-19T00:00:00","84","37","13,87","0,4","77,1","22,9","85","0","0"],
    [15039,"2015-10-19T01:00:00","53","20","11,13","1,4","11,7","23,1","84,5","0","0"],
    [15040,"2015-10-19T02:00:00","59","19","12,54","2,5","69,9","22,4","85,8","0","0"],
    [15041,"2015-10-19T03:00:00","74","11","15,54","1,2","83,1","22,6","85,4","0","0"],
    [15042,"2015-10-19T04:00:00","69","15","14,58","0,6","306,8","22,9","84,3","0","0"],
    [15043,"2015-10-19T05:00:00","81","28","11,01","2,2","84,9","22,9","84,4","0","0"],
    [15044,"2015-10-19T06:00:00","84","19","10,56","1,9","43,1","22,5","85,6","0","0"],
    [15045,"2015-10-19T07:00:00","91","29","11,19","2","55,2","22,6","85,5","31,9","0"],
    [15046,"2015-10-19T08:00:00","84","29","17,27","2,3","84,1","23,6","82,8","139,3","0"],
    [15047,"2015-10-19T09:00:00","62","22","29,36","2,3","112,3","25,4","74","260,4","0"],
    [15048,"2015-10-19T10:00:00","41","14","48,55","2,6","148,3","27","65,4","349,4","0"],
    [15049,"2015-10-19T11:00:00","48","11","72,47","1,8","119,6","28,4","59,3","420,2","0"],
    [15050,"2015-10-19T12:00:00","38","9","83,97","2,2","124,1","30,2","50,8","457,9","0"],
    [15051,"2015-10-19T13:00:00","41","10","80,38","4","83,7","31,8","43,4","453,5","0"],
    [15052,"2015-10-19T14:00:00","ND","ND","84,72","2,9","84,3","33","35,7","417,7","0"],
    [15053,"2015-10-19T15:00:00","42","17","ND","1","125,8","34","35,8","329,8","0"],
    [15054,"2015-10-19T16:00:00","56","18","125,28","2,2","12,2","34","36,1","171,6","0"],
    [15055,"2015-10-19T17:00:00","57","13","84,05","4,7","356,6","33,9","38,7","168","0"],
    [15056,"2015-10-19T18:00:00","58","17","64,29","6,1","294","32,1","43,7","41,5","0"],
    [15057,"2015-10-19T19:00:00","49","15","40,23","4,7","300,9","30,7","47,2","0","0"],
    [15058,"2015-10-19T20:00:00","69","23","24,67","1,5","74,6","29,8","51,8","0","0"],
    [15059,"2015-10-19T21:00:00","77","20","17,01","3,9","93,4","27,7","62,7","0","0"],
    [15060,"2015-10-19T22:00:00","53","21","18,05","3","66,9","27,2","64,4","0","0"],
    [15061,"2015-10-19T23:00:00","42","9","19,49","2,2","56,2","26,9","65,4","0","0"],
    [15062,"2015-10-20T00:00:00","38","10","16,19","3,8","86,6","25,8","71","0","0"],
    [15063,"2015-10-20T01:00:00","34","6","15,97","2,1","69,9","25,2","73,4","0","0"],
    [15064,"2015-10-20T02:00:00","38","8","14,58","2,4","81,8","24,6","76,2","0","0"],
    [15065,"2015-10-20T03:00:00","30","6","15,64","1,5","74,7","24,6","75,5","0","0"],
    [15066,"2015-10-20T04:00:00","37","5","15,27","0,8","346,1","24,9","73,1","0","0"],
    [15067,"2015-10-20T05:00:00","42","9","12,3","0,4","340,1","24,8","73,1","0","0"],
    [15068,"2015-10-20T06:00:00","70","17","12,46","1,6","64,2","24,8","72,3","0","0"],
    [15069,"2015-10-20T07:00:00","78","25","10,85","1,2","115,8","24,6","73,9","19,2","0"],
    [15070,"2015-10-20T08:00:00","76","21","14,64","1,5","144","25,6","72,7","101,8","0"],
    [15071,"2015-10-20T09:00:00","73","24","23,61","1,4","132,3","26,6","68,5","227,1","0"],
    [15072,"2015-10-20T10:00:00","69","23","49,14","2","160,5","28,5","60,7","321,8","0"],
    [15073,"2015-10-20T11:00:00","69","23","78,26","3,1","160,4","29,9","56,2","360,8","0"],
    [15074,"2015-10-20T12:00:00","65","19","91,15","3,4","142,6","31","51,4","378,4","0"],
    [15075,"2015-10-20T13:00:00","65","24","107,75","3,3","108","32,1","47,1","435,5","0"],
    [15076,"2015-10-20T14:00:00","65","21","116,02","3,2","346,5","32,6","43,5","238,9","0"],
    [15077,"2015-10-20T15:00:00","47","11","73,71","1,4","348","32,9","41,8","265,4","0"],
    [15078,"2015-10-20T16:00:00","47","14","64,74","5,9","59","33,3","40,6","219,1","0"],
    [15079,"2015-10-20T17:00:00","59","18","57,5","6,4","55,6","33","40,2","107,4","0"],
    [15080,"2015-10-20T18:00:00","51","11","43,96","3,3","312,1","31,9","40,2","17,9","0"],
    [15081,"2015-10-20T19:00:00","41","15","34,13","4,2","297,6","30,1","44","0","0"],
    [15082,"2015-10-20T20:00:00","70","23","22,29","2,7","306,4","29,2","49,4","0","0"],
    [15083,"2015-10-20T21:00:00","63","19","21,53","2,5","60,6","27,2","59","0","0"],
    [15084,"2015-10-20T22:00:00","83","43","17,35","2,5","78","26,2","64,1","0","0"],
    [15085,"2015-10-20T23:00:00","47","11","18,94","4,3","94","25,7","67,2","0","0"],
    [15086,"2015-10-21T00:00:00","50","12","17,99","2,3","55,2","25","70,6","0","0"],
    [15087,"2015-10-21T01:00:00","46","11","16,29","1,3","306,2","25","71","0","0"],
    [15088,"2015-10-21T02:00:00","50","17","17,6","1,7","219,3","24,8","72,5","0","0"],
    [15089,"2015-10-21T03:00:00","54","19","17,48","1,9","238,6","24,5","74,3","0","0"],
    [15090,"2015-10-21T04:00:00","44","15","13,76","1,3","125,4","24","76,3","0","0"],
    [15091,"2015-10-21T05:00:00","61","14","10,54","1","96,8","23,5","79,6","0","0"],
    [15092,"2015-10-21T06:00:00","72","33","11,01","1,4","325,7","23,5","77,9","0","0"],
    [15093,"2015-10-21T07:00:00","100","37","12,5","3","101,4","23","79,7","26","0"],
    [15094,"2015-10-21T08:00:00","87","35","18,19","2,5","105,3","24,3","75,3","100,5","0"],
    [15095,"2015-10-21T09:00:00","ND","ND","35,09","0,6","199,1","26,1","67,9","221,8","0"],
    [15096,"2015-10-21T10:00:00","73","23","59,91","0,9","138,8","28,3","58,1","344,2","0"],
    [15097,"2015-10-21T11:00:00","55","22","68,23","2,5","61,8","29,9","51,5","423,6","0"],
    [15098,"2015-10-21T12:00:00","58","17","94,65","3,5","112","31,2","47,4","432,3","0"],
    [15099,"2015-10-21T13:00:00","61","18","112,13","3,3","58,8","32,6","42,5","404","0"],
    [15100,"2015-10-21T14:00:00","43","13","123,71","2,4","359","32,9","40,2","253","0"],
    [15101,"2015-10-21T15:00:00","46","11","102,18","3","13,1","33,7","38,5","267,6","0"],
    [15102,"2015-10-21T16:00:00","54","11","76,26","5,5","301,3","33,2","38,3","133,4","0"],
    [15103,"2015-10-21T17:00:00","55","13","56,3","6,4","294,7","31,5","43,2","28,4","0"],
    [15104,"2015-10-21T18:00:00","62","8","44,82","6,2","301,6","30,2","47,6","5,3","0"],
    [15105,"2015-10-21T19:00:00","57","14","24,88","0,8","344,4","29,4","50,9","0","0"],
    [15106,"2015-10-21T20:00:00","57","18","14,6","2,5","110,6","27,9","58,9","0","0"],
    [15107,"2015-10-21T21:00:00","71","30","17,21","4,5","105,1","26,9","64,3","0","0"],
    [15108,"2015-10-21T22:00:00","78","35","16,94","2,5","79,4","26,8","64,5","0","0"],
    [15109,"2015-10-21T23:00:00","50","15","15,76","2,3","124,4","26,2","67","0","0"],
    [15110,"2015-10-22T00:00:00","43","10","15,8","2,8","117,2","25,7","69,6","0","0"],
    [15111,"2015-10-22T01:00:00","56","23","14,52","1,7","151,1","25,5","71,9","0","0"],
    [15112,"2015-10-22T02:00:00","49","9","16,58","1,1","122,2","25","73","0","0"],
    [15113,"2015-10-22T03:00:00","40","8","18,11","1","168,8","24,5","75,3","0","0"],
    [15114,"2015-10-22T04:00:00","63","16","11,91","2,9","123,6","24,2","77,3","0","0"],
    [15115,"2015-10-22T05:00:00","65","15","10,89","2,1","199,1","23,9","78,3","0","0"],
    [15116,"2015-10-22T06:00:00","76","24","10,54","2,7","155,6","23,5","79,1","0","0"],
    [15117,"2015-10-22T07:00:00","83","27","12,01","1,4","160","23,9","76,7","25,1","0"],
    [15118,"2015-10-22T08:00:00","76","23","17,82","1,7","190,4","25","72,4","86","0"],
    [15119,"2015-10-22T09:00:00","73","19","26,12","3,2","141","26,6","65,5","162,4","0"],
    [15120,"2015-10-22T10:00:00","56","14","45,59","2,6","112,7","28,2","60,5","355,8","0"],
    [15121,"2015-10-22T11:00:00","62","18","76,89","1,9","56,5","30","53,2","415,6","0"],
    [15122,"2015-10-22T12:00:00","47","12","94,47","2,2","43,8","31,7","45,2","421,8","0"],
    [15123,"2015-10-22T13:00:00","55","17","108,01","3,6","42,5","33","40,1","449","0"],
    [15124,"2015-10-22T14:00:00","57","15","101","4,1","24,8","33,5","38,6","254,8","0"],
    [15125,"2015-10-22T15:00:00","46","10","90,39","5,5","304,5","32,6","38,6","143,7","0"],
    [15126,"2015-10-22T16:00:00","61","8","75,79","8,1","282,8","32,7","38,7","166,5","0"],
    [15127,"2015-10-22T17:00:00","39","5","63,07","7,5","299,4","31,2","42","51,9","0"],
    [15128,"2015-10-22T18:00:00","47","8","52,22","4,6","292,3","30,6","43,5","13,6","0"],
    [15129,"2015-10-22T19:00:00","60","12","29,73","1,7","113,4","29,5","48,8","0","0"],
    [15130,"2015-10-22T20:00:00","47","11","37,19","4,8","300,1","28,7","52","0","0"],
    [15131,"2015-10-22T21:00:00","36","7","36,64","4,5","259,5","28,3","54,4","0","0"],
    [15132,"2015-10-22T22:00:00","70","22","21,15","3,3","108,7","26,7","65","0","0"],
    [15133,"2015-10-22T23:00:00","35","9","24,47","2,7","62,6","26,5","63,6","0","0"],
    [15134,"2015-10-23T00:00:00","49","7","22,31","2","86,3","25,7","67,6","0","0"],
    [15135,"2015-10-23T01:00:00","61","12","17,54","2,1","100,5","25","70,9","0","0"],
    [15136,"2015-10-23T02:00:00","54","8","17,56","2,4","137,5","24,6","72,9","0","0"],
    [15137,"2015-10-23T03:00:00","56","14","13,83","2,1","105,2","24,3","74,7","0","0"],
    [15138,"2015-10-23T04:00:00","47","11","16,7","0,6","351,1","24,5","73,3","0","0"],
    [15139,"2015-10-23T05:00:00","69","23","12,97","2,4","113,3","24,5","74,9","0","0"],
    [15140,"2015-10-23T06:00:00","69","15","10,83","1,5","111,2","24","78,1","0","0"],
    [15141,"2015-10-23T07:00:00","72","17","12,21","0,6","340,7","24,4","77,2","14,8","0"],
    [15142,"2015-10-23T08:00:00","98","24","14,29","1,7","178","25,3","73,9","51,9","0"],
    [15143,"2015-10-23T09:00:00","77","19","27,49","3,3","195,4","26,6","68,6","185,3","0"],
    [15144,"2015-10-23T10:00:00","59","17","47,84","2,5","161,2","28,1","61,1","329,4","0"],
    [15145,"2015-10-23T11:00:00","57","14","74,18","2,4","157","29,8","53,9","342,9","0"],
    [15146,"2015-10-23T12:00:00","67","17","81,95","4","146,5","30,6","51","285,3","0"],
    [15147,"2015-10-23T13:00:00","62","21","126,71","1,3","251,7","31,3","47,7","406,8","0"],
    [15148,"2015-10-23T14:00:00","87","23","130,73","2,8","39","32,8","42,6","382","0"],
    [15149,"2015-10-23T15:00:00","53","18","78,42","7,4","4,9","32,1","44,2","230,5","0"],
    [15150,"2015-10-23T16:00:00","68","15","60,19","6,1","13,9","31,5","44,5","120,6","0"],
    [15151,"2015-10-23T17:00:00","63","14","42,68","4","43,6","28,8","56,3","15,6","0"],
    [15152,"2015-10-23T18:00:00","62","12","60,13","5,6","219,3","26,4","61,5","0","0"],
    [15153,"2015-10-23T19:00:00","64","20","43,74","4,7","158,7","24,9","72,6","0","0"],
    [15154,"2015-10-23T20:00:00","56","26","44,62","4,4","191,5","23,7","79,3","0","0"],
    [15155,"2015-10-23T21:00:00","34","18","27,63","3,6","141,9","23,2","84,7","0","0"],
    [15156,"2015-10-23T22:00:00","33","8","27,12","3","147,6","22,8","86,4","0","0"],
    [15157,"2015-10-23T23:00:00","24","9","31,57","3,8","210,4","22,7","87","0","0"],
    [15158,"2015-10-24T00:00:00","23","6","35,13","3,8","194,6","22,6","87,4","0","0"],
    [15159,"2015-10-24T01:00:00","10","5","37,27","2,4","221,9","22,5","86,5","0","0"],
    [15160,"2015-10-24T02:00:00","22","4","33,48","2,7","126","22,5","85,8","0","0"],
    [15161,"2015-10-24T03:00:00","30","13","24,69","3,2","92","21,9","88,2","0","0"],
    [15162,"2015-10-24T04:00:00","26","15","29,87","1,3","78","21,8","88,5","0","0"],
    [15163,"2015-10-24T05:00:00","60","36","22,69","1,5","26,6","22","87,9","0","0"],
    [15164,"2015-10-24T06:00:00","67","21","13,29","1,9","71,8","21,9","87,6","0","0"],
    [15165,"2015-10-24T07:00:00","85","17","17,88","1,3","326,4","22,1","87,1","17","0"],
    [15166,"2015-10-24T08:00:00","120","37","23,25","1","189,1","23,2","83,1","119,4","0"],
    [15167,"2015-10-24T09:00:00","111","47","33,6","2","125,7","24,8","76,9","196,3","0"],
    [15168,"2015-10-24T10:00:00","59","31","48,14","3,7","135,4","26","70,5","282,1","0"],
    [15169,"2015-10-24T11:00:00","40","20","72","2,3","132,4","27,4","63,7","362,3","0"],
    [15170,"2015-10-24T12:00:00","50","19","87,35","2,5","156,9","29","57,1","425,1","0"],
    [15171,"2015-10-24T13:00:00","55","17","96,88","2,7","130,6","30,2","51,7","415,1","0"],
    [15172,"2015-10-24T14:00:00","41","13","109,44","2,1","218","30,5","49,8","333,2","0"],
    [15173,"2015-10-24T15:00:00","46","20","107,91","2,5","59,1","31,1","47,4","177,3","0"],
    [15174,"2015-10-24T16:00:00","49","19","87,05","5","357,9","31,2","45,2","115,2","0"],
    [15175,"2015-10-24T17:00:00","46","8","60,85","4,2","318,6","30,8","45,5","92,5","0"],
    [15176,"2015-10-24T18:00:00","28","5","42,72","7,1","291,7","29,1","50,2","10,1","0"],
    [15177,"2015-10-24T19:00:00","36","4","31,57","4,3","296,4","28,4","53,1","0","0"],
    [15178,"2015-10-24T20:00:00","57","21","19,49","1,6","201,7","28,1","56","0","0"],
    [15179,"2015-10-24T21:00:00","44","15","34,85","4,7","161,2","26,9","60,8","0","0"],
    [15180,"2015-10-24T22:00:00","36","8","31,65","4,1","173,8","24,6","74,2","0","0"],
    [15181,"2015-10-24T23:00:00","45","14","22,21","0,4","148,9","24","80,2","0","0"],
    [15182,"2015-10-25T00:00:00","29","10","29,95","1,2","226,2","23,9","78,3","0","0"],
    [15183,"2015-10-25T01:00:00","18","11","24,31","2,4","251,6","23,7","81","0","0"],
    [15184,"2015-10-25T02:00:00","27","6","21,13","1,7","218,4","23,4","82,6","0","0"],
    [15185,"2015-10-25T03:00:00","22","5","26,3","2,5","189,5","22,9","85,6","0","0"],
    [15186,"2015-10-25T04:00:00","20","7","26,26","3,4","195,9","22,7","87,7","0","0"],
    [15187,"2015-10-25T05:00:00","16","5","23,73","3,7","207,7","22,7","88,4","0","0"],
    [15188,"2015-10-25T06:00:00","18","3","20,43","2,5","177,6","22,6","88,4","0","0"],
    [15189,"2015-10-25T07:00:00","13","3","22,33","0,8","229,2","22,7","87,6","19,1","0"],
    [15190,"2015-10-25T08:00:00","27","7","23,96","1,4","148,2","23,4","85,5","64,7","0"],
    [15191,"2015-10-25T09:00:00","27","12","34,52","1,6","179,5","24,3","81","157,3","0"],
    [15192,"2015-10-25T10:00:00","30","13","48,86","2,4","198,6","25,8","73,7","350","0"],
    [15193,"2015-10-25T11:00:00","34","10","60,48","2,5","165,8","27,7","63,8","441,5","0"],
    [15194,"2015-10-25T12:00:00","18","6","70","1,2","204,8","29,3","52,8","477,5","0"],
    [15195,"2015-10-25T13:00:00","24","2","67,29","2,5","132,8","30,6","48,1","458,3","0"],
    [15196,"2015-10-25T14:00:00","31","11","78","3,1","75,9","30,9","48","270,1","0"],
    [15197,"2015-10-25T15:00:00","39","14","94,33","3,7","40,6","31,6","47,3","257,3","0"],
    [15198,"2015-10-25T16:00:00","38","14","87,01","5,4","16,4","31,1","49,2","60","0"],
    [15199,"2015-10-25T17:00:00","27","6","42,58","3,7","334","29,7","49","17,4","0"],
    [15200,"2015-10-25T18:00:00","39","9","45,57","3,1","139,4","24,1","73,8","0","0"],
    [15201,"2015-10-25T19:00:00","26","9","36,79","1,6","10,6","22,4","85,7","0","0"],
    [15202,"2015-10-25T20:00:00","24","6","21,31","3,6","73,1","22,5","86,8","0","0"],
    [15203,"2015-10-25T21:00:00","19","7","19,19","1","91,1","22,3","86,7","0","0"],
    [15204,"2015-10-25T22:00:00","15","9","21,33","1","244,9","22,4","84,7","0","0"],
    [15205,"2015-10-25T23:00:00","22","7","31,95","3,9","229","22,4","85,3","0","0"],
    [15206,"2015-10-26T00:00:00","21","6","34,24","2,9","207,4","22,3","85,4","0","0"],
    [15207,"2015-10-26T01:00:00","23","5","29,75","1,9","172,7","22,6","85","0","0"],
    [15208,"2015-10-26T02:00:00","20","5","29,3","1,8","145,2","22,4","85,4","0","0"],
    [15209,"2015-10-26T03:00:00","31","14","22,04","2,9","110,1","21,7","88","0","0"],
    [15210,"2015-10-26T04:00:00","34","16","18,94","1,2","113,3","21,6","88,6","0","0"],
    [15211,"2015-10-26T05:00:00","33","16","21,35","0,9","210,2","21,9","87,6","0","0"],
    [15212,"2015-10-26T06:00:00","43","20","12,44","1,5","202,4","21,9","87","0","0"],
    [15213,"2015-10-26T07:00:00","52","19","15,4","1,6","180","21,9","87,2","38,9","0"],
    [15214,"2015-10-26T08:00:00","59","23","22,08","2,2","126,4","22,6","85,8","134,9","0"],
    [15215,"2015-10-26T09:00:00","62","28","30,87","2,7","100,6","23,6","82,3","212,8","0"],
    [15216,"2015-10-26T10:00:00","84","38","53,1","2","101,5","25","74,6","334","0"],
    [15217,"2015-10-26T11:00:00","56","31","77,06","1,9","193,3","27","65,5","404,1","0"],
    [15218,"2015-10-26T12:00:00","49","14","87,62","1,8","102,5","28,6","58,3","458,2","0"],
    [15219,"2015-10-26T13:00:00","50","20","114,25","2,8","67,5","30,2","52,4","464,2","0"],
    [15220,"2015-10-26T14:00:00","44","15","106,32","2,8","72,4","31,3","48,4","425,6","0"],
    [15221,"2015-10-26T15:00:00","49","18","117,11","4,5","48,2","31,7","47,6","243,1","0"],
    [15222,"2015-10-26T16:00:00","49","14","73,06","5,3","359,3","31,3","47,7","168,2","0"],
    [15223,"2015-10-26T17:00:00","ND","18","41,35","4,4","45,8","31,2","47","72,4","0"],
    [15224,"2015-10-26T18:00:00","38","8","34,73","4,4","304,1","29,5","50,4","6,4","0"],
    [15225,"2015-10-26T19:00:00","57","21","17,64","2,1","349,2","28,5","54,9","0","0"],
    [15226,"2015-10-26T20:00:00","80","27","13,82","2","65,3","27,5","60,6","0","0"],
    [15227,"2015-10-26T21:00:00","47","11","13,83","4,1","95","26,4","68,1","0","0"],
    [15228,"2015-10-26T22:00:00","39","10","19,23","3,3","15,5","25,9","68,9","0","0"],
    [15229,"2015-10-26T23:00:00","29","8","21,51","2","303,8","26,5","63,6","0","0"],
    [15230,"2015-10-27T00:00:00","32","5","17,07","2,6","101","24,9","72,8","0","0"],
    [15231,"2015-10-27T01:00:00","30","8","19,23","1,3","88,7","25","72,6","0","0"],
    [15232,"2015-10-27T02:00:00","38","13","18,8","0,9","52,2","24,9","73","0","0"],
    [15233,"2015-10-27T03:00:00","38","16","15,58","2,6","76,9","24,5","75,5","0","0"],
    [15234,"2015-10-27T04:00:00","62","12","14,11","0,6","88,1","23,8","78,8","0","0"],
    [15235,"2015-10-27T05:00:00","65","20","12,56","1,2","219,1","24","78,4","0","0"],
    [15236,"2015-10-27T06:00:00","73","20","10,42","1,6","178,1","24,2","79,6","0","0"],
    [15237,"2015-10-27T07:00:00","102","26","10,79","2,2","93,6","23,9","81,4","23,2","0"],
    [15238,"2015-10-27T08:00:00","75","15","15,09","0,9","164,6","24,6","78,1","65,3","0"],
    [15239,"2015-10-27T09:00:00","72","17","23,2","2,3","178,5","25,5","72,7","112,2","0"],
    [15240,"2015-10-27T10:00:00","71","25","29,79","1,7","5,3","26,3","70,1","172,6","0"],
    [15241,"2015-10-27T11:00:00","58","16","39,27","4,6","39,1","28,2","62,4","320,9","0"],
    [15242,"2015-10-27T12:00:00","42","13","45,45","5,1","52,7","29,3","56,1","310,3","0"],
    [15243,"2015-10-27T13:00:00","50","8","42,68","6,4","57,4","30","51,9","279,2","0"],
    [15244,"2015-10-27T14:00:00","40","7","49,2","7","47,7","30,2","52,5","268,3","0"],
    [15245,"2015-10-27T15:00:00","31","6","42,72","5,7","26,5","30,8","47,1","237,7","0"],
    [15246,"2015-10-27T16:00:00","28","4","44,04","5,3","18,7","30,5","47,2","165,6","0"],
    [15247,"2015-10-27T17:00:00","40","11","40,6","5,4","42,2","29,8","49,6","24,5","0"],
    [15248,"2015-10-27T18:00:00","56","16","28,81","3,9","52,1","28,9","54","0","0"],
    [15249,"2015-10-27T19:00:00","63","25","24,25","2,3","92,1","27,9","59,9","0","0"],
    [15250,"2015-10-27T20:00:00","53","21","28,38","2,5","122,6","26,7","63,5","0","0"],
    [15251,"2015-10-27T21:00:00","36","9","30,46","3,1","158,1","24,7","71,2","0","0"],
    [15252,"2015-10-27T22:00:00","39","16","27,71","2,3","163,8","24","74,1","0","0"],
    [15253,"2015-10-27T23:00:00","51","18","35,34","1,7","121","23,6","75,6","0","0"],
    [15254,"2015-10-28T00:00:00","49","17","ND","2,2","183,1","23","77,1","0","0"],
    [15255,"2015-10-28T01:00:00","46","10","ND","1,8","203,4","22,9","78","0","0"],
    [15256,"2015-10-28T02:00:00","39","12","ND","2,4","121,6","22,5","80,3","0","0"],
    [15257,"2015-10-28T03:00:00","55","21","ND","2,3","158,4","21,9","83,3","0","0"],
    [15258,"2015-10-28T04:00:00","44","15","ND","1,1","196,3","21,9","83,9","0","0"],
    [15259,"2015-10-28T05:00:00","66","18","ND","1,8","86","21,8","84,7","0","0"],
    [15260,"2015-10-28T06:00:00","84","33","ND","2,2","121,6","21,7","84,8","0","0"],
    [15261,"2015-10-28T07:00:00","70","23","ND","2,4","158,6","22,1","84,1","21,3","0"],
    [15262,"2015-10-28T08:00:00","59","22","ND","1,4","162,7","23,2","81","105,8","0"],
    [15263,"2015-10-28T09:00:00","57","19","ND","1,2","193,3","25,1","71,8","247,6","0"],
    [15264,"2015-10-28T10:00:00","56","23","ND","2,4","134,2","26,5","66,3","317,1","0"],
    [15265,"2015-10-28T11:00:00","46","19","ND","1,1","67,6","28,3","58,9","448,5","0"],
    [15266,"2015-10-28T12:00:00","50","19","ND","3,3","69,9","29,6","52","357,3","0"],
    [15267,"2015-10-28T13:00:00","64","21","ND","4,1","95","30,3","51,2","291","0"],
    [15268,"2015-10-28T14:00:00","54","21","ND","2,7","55,9","31,1","47,6","389,5","0"],
    [15269,"2015-10-28T15:00:00","54","13","ND","3,9","343","31,1","45,6","120,9","0"],
    [15270,"2015-10-28T16:00:00","44","14","ND","5,1","46,1","31,7","44,2","196,6","0"],
    [15271,"2015-10-28T17:00:00","36","9","42,8","4,9","16,8","30,7","46,3","50,7","0"],
    [15272,"2015-10-28T18:00:00","32","6","40,95","3,8","313,8","29,4","48,2","0","0"],
    [15273,"2015-10-28T19:00:00","79","25","19,66","1,3","335,4","28,4","54,3","0","0"],
    [15274,"2015-10-28T20:00:00","58","23","16,56","1,9","118,2","27,1","60,4","0","0"],
    [15275,"2015-10-28T21:00:00","49","21","25,41","2,7","141","26,1","67,4","0","0"],
    [15276,"2015-10-28T22:00:00","47","15","45,51","3,4","201,4","25,1","70,9","0","0"],
    [15277,"2015-10-28T23:00:00","57","22","29,95","2,1","136,3","24,7","72,4","0","0"],
    [15278,"2015-10-29T00:00:00","53","15","30,71","2,3","126,5","24","73,9","0","0"],
    [15279,"2015-10-29T01:00:00","38","16","43,72","2,3","173,4","24","71,4","0","0"],
    [15280,"2015-10-29T02:00:00","58","15","32,67","2,4","128,2","23,5","75,2","0","0"],
    [15281,"2015-10-29T03:00:00","55","11","14,93","1,5","203,3","22,9","79,6","0","0"],
    [15282,"2015-10-29T04:00:00","62","14","21,12","2,4","225,3","22,7","80,1","0","0"],
    [15283,"2015-10-29T05:00:00","45","13","16,66","0,8","199,8","22,9","80,3","0","0"],
    [15284,"2015-10-29T06:00:00","121","38","11,85","2","116","22,7","81,3","0","0"],
    [15285,"2015-10-29T07:00:00","78","24","12,91","2,4","159,1","22,7","82,7","42,1","0"],
    [15286,"2015-10-29T08:00:00","77","22","20,23","2,3","176,4","23,8","78,3","126,3","0"],
    [15287,"2015-10-29T09:00:00","73","22","38,38","3,4","197,4","25,9","68,8","242,7","0"],
    [15288,"2015-10-29T10:00:00","60","23","61,25","2,5","199,7","27,7","61,1","342,5","0"],
    [15289,"2015-10-29T11:00:00","58","19","82,01","2","86,7","29,1","54,9","421,4","0"],
    [15290,"2015-10-29T12:00:00","63","24","98,94","3,4","84,4","30,5","49,4","407,2","0"],
    [15291,"2015-10-29T13:00:00","59","22","92,74","3,9","75,9","31,1","46,6","182,4","0"],
    [15292,"2015-10-29T14:00:00","39","16","86,7","4,2","42,7","31,4","46,6","232,1","0"],
    [15293,"2015-10-29T15:00:00","33","8","85,19","2,4","51,9","31,9","43","211,8","0"],
    [15294,"2015-10-29T16:00:00","32","5","68,13","5,4","262,3","31,6","40,6","68,3","0"],
    [15295,"2015-10-29T17:00:00","43","8","47,45","8,2","278,3","30,1","45,9","7,8","0"],
    [15296,"2015-10-29T18:00:00","45","7","35,97","6,4","292,2","28,8","50,2","0","0"],
    [15297,"2015-10-29T19:00:00","51","11","20","1,1","321,3","28,1","53,8","0","0"],
    [15298,"2015-10-29T20:00:00","48","9","24,24","2,1","229,2","27,2","56,9","0","0"],
    [15299,"2015-10-29T21:00:00","66","18","21,74","1,3","215,3","26,4","64,6","0","0"],
    [15300,"2015-10-29T22:00:00","65","22","22,29","3,1","229,3","25,4","72,3","0","0"],
    [15301,"2015-10-29T23:00:00","73","19","18,01","1","128,7","25,3","72,4","0","0"],
    [15302,"2015-10-30T00:00:00","60","23","15,03","2,3","107,3","24,6","77,2","0","0"],
    [15303,"2015-10-30T01:00:00","26","7","17,48","2","125,7","24,4","73,2","0","0"],
    [15304,"2015-10-30T02:00:00","39","4","21,92","2,1","102,5","24,2","72,8","0","0"],
    [15305,"2015-10-30T03:00:00","22","3","19,37","1,6","154,1","23,7","77,9","0","0"],
    [15306,"2015-10-30T04:00:00","28","12","16,68","3","135,7","22,9","83,5","0","0"],
    [15307,"2015-10-30T05:00:00","25","10","18,74","1,6","229,3","22,5","87,7","0","0"],
    [15308,"2015-10-30T06:00:00","41","25","16,25","1,4","144,1","22,6","87","0","0"],
    [15309,"2015-10-30T07:00:00","24","11","19,27","2,2","191","22,7","86,6","27,3","0"],
    [15310,"2015-10-30T08:00:00","29","9","32,26","2,9","206,2","23,6","82,8","129,5","0"],
    [15311,"2015-10-30T09:00:00","25","9","41,43","2,9","194,5","24,8","77,6","215,5","0"],
    [15312,"2015-10-30T10:00:00","25","9","49","3,3","167,7","26,4","68,9","361,3","0"],
    [15313,"2015-10-30T11:00:00","ND","ND","56,03","3,2","141,8","27,7","63,1","400,5","0"],
    [15314,"2015-10-30T12:00:00","ND","ND","72,16","2,2","116,6","29","55,8","463,3","0"],
    [15315,"2015-10-30T13:00:00","38","10","84,03","2,5","115,4","30,1","51,2","347,6","0"],
    [15316,"2015-10-30T14:00:00","37","12","108,38","3,6","354,2","30,8","48,4","365,3","0"],
    [15317,"2015-10-30T15:00:00","52","14","97,61","4,6","10,1","31,7","45,5","313,4","0"],
    [15318,"2015-10-30T16:00:00","42","10","59,54","3,5","6,6","32","42,9","198","0"],
    [15319,"2015-10-30T17:00:00","33","6","51,08","5,7","291","31,6","41,7","112,7","0"],
    [15320,"2015-10-30T18:00:00","39","4","38,6","2,8","288,6","29,7","49,1","17,6","0"],
    [15321,"2015-10-30T19:00:00","77","22","31,75","3,8","103,4","26,6","65,3","0","0"],
    [15322,"2015-10-30T20:00:00","57","16","29,47","1,5","259,5","26,7","63,7","0","0"],
    [15323,"2015-10-30T21:00:00","61","14","15,97","2,4","107,9","26,9","63,1","0","0"],
    [15324,"2015-10-30T22:00:00","63","23","25,86","2,8","173,7","25,9","69,4","0","0"],
    [15325,"2015-10-30T23:00:00","66","21","30,28","4","205,5","25,2","73,9","0","0"],
    [15326,"2015-10-31T00:00:00","33","12","32,71","4,2","185,5","24,8","74,4","0","0"],
    [15327,"2015-10-31T01:00:00","31","9","28,71","2,7","173,6","24,2","77,9","0","0"],
    [15328,"2015-10-31T02:00:00","48","14","27,43","2,2","164,7","23,7","81,3","0","0"],
    [15329,"2015-10-31T03:00:00","32","8","25,43","2,4","173,5","23,6","81,5","0","0"],
    [15330,"2015-10-31T04:00:00","22","6","25,86","0,8","169,2","23,9","78,4","0","0"],
    [15331,"2015-10-31T05:00:00","69","9","13,7","2,5","81,2","23,2","83,3","0","0"],
    [15332,"2015-10-31T06:00:00","96","24","12,6","2,8","80","23,4","83,4","0","0"],
    [15333,"2015-10-31T07:00:00","86","18","13,82","1","119,4","23,6","83","23","0"],
    [15334,"2015-10-31T08:00:00","84","24","22,45","1,4","168,5","24,5","77,8","131,6","0"],
    [15335,"2015-10-31T09:00:00","79","21","33,26","2,5","72,3","26,2","69,3","202,3","0"],
    [15336,"2015-10-31T10:00:00","58","17","49,26","3,1","62,8","27,5","61,9","343,9","0"],
    [15337,"2015-10-31T11:00:00","44","14","70,08","2,9","103,4","28,9","55,3","362,7","0"],
    [15338,"2015-10-31T12:00:00","61","20","79,57","2,6","95,6","29,8","52,7","285,2","0"],
    [15339,"2015-10-31T13:00:00","67","23","108,48","2,1","349,3","30,2","51","272,9","0"],
    [15340,"2015-10-31T14:00:00","71","23","85,52","3,2","35,9","30,8","47,5","156,5","0"],
    [15341,"2015-10-31T15:00:00","46","14","56,54","2,8","25,6","31,3","43,1","155","0"],
    [15342,"2015-10-31T16:00:00","37","9","49,1","7,4","287,4","30,1","45,2","84","0"],
    [15343,"2015-10-31T17:00:00","28","6","43,55","5,3","287,4","29,5","47,2","44,7","0"],
    [15344,"2015-10-31T18:00:00","45","5","49,16","4,8","252,2","28","55,3","5,1","0"],
    [15345,"2015-10-31T19:00:00","56","15","50,47","4,4","206,1","26,7","63,5","0","0"],
    [15346,"2015-10-31T20:00:00","50","21","39,5","3,5","174,2","25,6","70,9","0","0"],
    [15347,"2015-10-31T21:00:00","62","24","39,23","2,4","190,3","25,1","73,6","0","0"],
    [15348,"2015-10-31T22:00:00","58","22","29,06","2,3","138,3","25,2","72,6","0","0"],
    [15349,"2015-10-31T23:00:00","82","32","20,98","1,5","61,1","24,3","78,6","0","0"],
    [15350,"2015-11-01T00:00:00","83","38","20,51","1,8","105,2","24,3","78,5","0","0"],
    [15351,"2015-11-01T01:00:00","75","20","20,45","2,3","111,8","24,1","79,3","0","0"],
    [15352,"2015-11-01T02:00:00","70","22","18,76","3,1","108,2","23,7","81,1","0","0"],
    [15353,"2015-11-01T03:00:00","40","4","25,14","2,7","117,7","23,3","82","0","0"],
    [15354,"2015-11-01T04:00:00","28","6","20,9","3,8","101,9","22,9","85,4","0","0"],
    [15355,"2015-11-01T05:00:00","17","4","25,9","2,9","132,5","22,4","86,9","0","0"],
    [15356,"2015-11-01T06:00:00","15","2","33,46","2","166","21,4","88,3","0","0"],
    [15357,"2015-11-01T07:00:00","15","1","20,84","0,9","82,6","21,4","89","0","0"],
    [15358,"2015-11-01T08:00:00","14","1","20,11","1,4","84,5","21,7","88,8","18,9","0"],
    [15359,"2015-11-01T09:00:00","22","11","38,09","2,2","207,6","22,6","85,8","130","0"],
    [15360,"2015-11-01T10:00:00","10","7","49,43","3,2","203,8","24,1","77,6","214,8","0"],
    [15361,"2015-11-01T11:00:00","19","4","57,75","3","233,7","25,3","72,3","202,4","0"],
    [15362,"2015-11-01T12:00:00","26","4","59,62","3,9","187","26,3","69,3","275,4","0"],
    [15363,"2015-11-01T13:00:00","25","5","68,92","4,5","202,3","27,3","64,5","289,9","0"],
    [15364,"2015-11-01T14:00:00","29","6","67,72","5","182,5","28,7","56,3","358,6","0"],
    [15365,"2015-11-01T15:00:00","38","5","53,38","4,9","89,7","25,9","67,4","44,1","0"],
    [15366,"2015-11-01T16:00:00","19","6","42,6","3,9","63,9","22,3","84","21,3","0"],
    [15367,"2015-11-01T17:00:00","17","5","37,32","1,9","102,8","22,5","85,4","60","0"],
    [15368,"2015-11-01T18:00:00","26","4","33,24","1,3","4,7","23,1","84","8,2","0"],
    [15369,"2015-11-01T19:00:00","50","26","15,27","1,1","161,8","23,6","84,1","0","0"],
    [15370,"2015-11-01T20:00:00","58","15","17,13","1,7","149,4","23,2","84,6","0","0"],
    [15371,"2015-11-01T21:00:00","67","17","12,99","0,9","118,7","23,4","83,5","0","0"],
    [15372,"2015-11-01T22:00:00","52","22","16,09","1,1","290,1","23,6","82,1","0","0"],
    [15373,"2015-11-01T23:00:00","16","10","15,01","1,4","189,1","23","84","0","0"],
    [15374,"2015-11-02T00:00:00","17","6","29,22","2,2","191,2","22,5","86","0","0"],
    [15375,"2015-11-02T01:00:00","11","ND","37,44","2,2","215,6","22,1","86,7","0","0"],
    [15376,"2015-11-02T02:00:00","14","ND","37,87","2,2","163","21,9","87,2","0","0"],
    [15377,"2015-11-02T03:00:00","12","ND","30,14","1,2","153,3","21,9","87,9","0","0"],
    [15378,"2015-11-02T04:00:00","20","ND","24,8","0,9","141,6","21,9","88,1","0","0"],
    [15379,"2015-11-02T05:00:00","21","ND","28,55","2,3","230,3","21,9","88,1","0","0"],
    [15380,"2015-11-02T06:00:00","28","ND","27,89","1,9","217,7","21,8","87,9","0","0"],
    [15381,"2015-11-02T07:00:00","17","ND","26,81","2","209,3","22","86,6","8,5","0"],
    [15382,"2015-11-02T08:00:00","13","ND","30,1","3","191,3","22,1","87,1","54,9","0"],
    [15383,"2015-11-02T09:00:00","11","ND","32,71","3,1","183,2","22,6","85,7","96,7","0"],
    [15384,"2015-11-02T10:00:00","19","ND","38,85","2,9","180","23,5","81,3","173,5","0"],
    [15385,"2015-11-02T11:00:00","24","ND","52,36","0,8","239","24,8","73,9","289,1","0"],
    [15386,"2015-11-02T12:00:00","26","ND","68,31","2,6","225,5","25,9","68,4","301,7","0"],
    [15387,"2015-11-02T13:00:00","29","ND","88,78","3,1","262,1","26,3","65,4","177","0"],
    [15388,"2015-11-02T14:00:00","25","ND","85,38","3,9","305,6","26,6","62,9","208,1","0"],
    [15389,"2015-11-02T15:00:00","33","ND","82,69","3,4","15,1","27,2","60","171","0"],
    [15390,"2015-11-02T16:00:00","29","ND","67,47","3,8","328,4","26,1","66,7","58,1","0"],
    [15391,"2015-11-02T17:00:00","26","ND","33,52","1,4","48,3","25,3","72,6","30,2","0"],
    [15392,"2015-11-02T18:00:00","34","ND","16,84","2","10,8","24,6","77,1","7,4","0"],
    [15393,"2015-11-02T19:00:00","49","ND","19,76","1,3","10","24,8","75,4","0","0"],
    [15394,"2015-11-02T20:00:00","82","ND","14,72","2,6","88","24,3","79,5","0","0"],
    [15395,"2015-11-02T21:00:00","52","ND","18,25","1,5","34,2","23,9","77,4","0","0"],
    [15396,"2015-11-02T22:00:00","63","ND","13,78","0,7","114,7","23,9","76,5","0","0"],
    [15397,"2015-11-02T23:00:00","63","ND","11,34","0,7","120,5","23,6","80,3","0","0"],
    [15398,"2015-11-03T00:00:00","40","ND","13,89","2","84,2","23,1","81,2","0","0"],
    [15399,"2015-11-03T01:00:00","38","ND","16,99","1,7","86,8","22,6","82,5","0","0"],
    [15400,"2015-11-03T02:00:00","27","ND","21,61","1,2","61,1","22,5","81,9","0","0"],
    [15401,"2015-11-03T03:00:00","27","ND","22,27","1,1","356,6","22,3","83,7","0","0"],
    [15402,"2015-11-03T04:00:00","33","ND","20,19","0,7","101,4","22,4","83,6","0","0"],
    [15403,"2015-11-03T05:00:00","44","ND","14,56","1,7","132,9","22,2","85,2","0","0"],
    [15404,"2015-11-03T06:00:00","53","ND","11,38","1,6","206,9","22,1","85,6","0","0"],
    [15405,"2015-11-03T07:00:00","56","ND","13,6","1,2","187,6","22,4","84,6","23,2","0"],
    [15406,"2015-11-03T08:00:00","73","ND","16,52","2,4","109,2","23,1","82,6","104,4","0"],
    [15407,"2015-11-03T09:00:00","59","ND","28,73","2,1","173,4","23,9","78,9","207,4","0"],
    [15408,"2015-11-03T10:00:00","36","ND","44,13","2","172,7","25,5","70,6","354,7","0"],
    [15409,"2015-11-03T11:00:00","23","ND","60,83","2,5","129,2","27","61,5","441,8","0"],
    [15410,"2015-11-03T12:00:00","24","ND","74,69","2,6","180,5","28,4","54,8","488","0"],
    [15411,"2015-11-03T13:00:00","23","ND","68,47","2,1","139,4","29,3","48,2","464","0"],
    [15412,"2015-11-03T14:00:00","34","ND","76,12","2","129,3","30,3","46","403,2","0"],
    [15413,"2015-11-03T15:00:00","ND","ND","92,57","1,7","166,6","30,7","43,5","304,2","0"],
    [15414,"2015-11-03T16:00:00","44","17","ND","2,5","339,6","31,2","43,4","195,3","0"],
    [15415,"2015-11-03T17:00:00","ND","ND","86,31","4,7","12,4","30,8","47,6","90,2","0"],
    [15416,"2015-11-03T18:00:00","59","16","27,3","4,6","13,2","29,3","53,9","8,6","0"],
    [15417,"2015-11-03T19:00:00","76","26","15,11","1,5","62,1","27,9","60","0","0"],
    [15418,"2015-11-03T20:00:00","60","16","14,8","3,5","100,1","25,7","69,9","0","0"],
    [15419,"2015-11-03T21:00:00","70","14","13,07","3,3","71,5","24,8","72,9","0","0"],
    [15420,"2015-11-03T22:00:00","49","10","14,11","2,3","86,8","24,5","72,8","0","0"],
    [15421,"2015-11-03T23:00:00","56","9","13,44","1,9","75","24,3","73","0","0"],
    [15422,"2015-11-04T00:00:00","54","8","11,24","1","94,4","24,2","74,7","0","0"],
    [15423,"2015-11-04T01:00:00","50","11","12,74","1,8","76,1","23,4","77,7","0","0"],
    [15424,"2015-11-04T02:00:00","58","8","13,46","1,7","71,6","23","78,8","0","0"],
    [15425,"2015-11-04T03:00:00","54","6","14,93","1","86,3","22,5","80,1","0","0"],
    [15426,"2015-11-04T04:00:00","48","4","12,7","2","205","22,8","80","0","0"],
    [15427,"2015-11-04T05:00:00","69","11","10,44","1,1","99","22,8","80,7","0","0"],
    [15428,"2015-11-04T06:00:00","79","21","10,79","1,1","141,3","23","80","0","0"],
    [15429,"2015-11-04T07:00:00","94","19","11,11","1,6","199,8","23,1","80,8","12,9","0"],
    [15430,"2015-11-04T08:00:00","78","18","13,17","2,8","194,9","23,5","79,7","32","0"],
    [15431,"2015-11-04T09:00:00","34","9","19,05","4,4","210","22,7","84,7","35,3","0"],
    [15432,"2015-11-04T10:00:00","15","6","29,61","3,4","215,4","23","84,8","165,2","0"],
    [15433,"2015-11-04T11:00:00","29","10","41,58","1,8","228,2","24,4","78,7","261,8","0"],
    [15434,"2015-11-04T12:00:00","28","7","57,44","1,2","170,1","26,1","69","407,7","0"],
    [15435,"2015-11-04T13:00:00","25","8","75,88","1,6","15,3","28,1","58,4","459,4","0"],
    [15436,"2015-11-04T14:00:00","27","8","79,38","1,7","19,6","29,6","52,1","413,6","0"],
    [15437,"2015-11-04T15:00:00","36","6","68,23","3,8","106,7","30,1","50","194,7","0"],
    [15438,"2015-11-04T16:00:00","44","9","54,1","4","258","28,2","57,1","43,8","0"],
    [15439,"2015-11-04T17:00:00","54","7","45,45","5,2","316,9","26,6","61,2","46,2","0"],
    [15440,"2015-11-04T18:00:00","50","17","25,33","3,3","290,3","26,2","67,4","4,1","0"],
    [15441,"2015-11-04T19:00:00","59","16","10,73","2,4","274,1","26,4","66,4","0","0"],
    [15442,"2015-11-04T20:00:00","100","37","11,6","1,8","7,5","25,7","70,5","0","0"],
    [15443,"2015-11-04T21:00:00","69","19","11,7","1,1","47,6","24,8","72,4","0","0"],
    [15444,"2015-11-04T22:00:00","76","24","13,29","2,3","58,9","24,7","71,5","0","0"],
    [15445,"2015-11-04T23:00:00","46","7","13,83","2,5","56,5","24,4","72,3","0","0"],
    [15446,"2015-11-05T00:00:00","47","16","13,52","1,3","111,6","24","75,6","0","0"],
    [15447,"2015-11-05T01:00:00","58","14","15,11","1,9","179,1","23,7","77,8","0","0"],
    [15448,"2015-11-05T02:00:00","48","13","13,68","1,7","191,6","23,6","78,8","0","0"],
    [15449,"2015-11-05T03:00:00","56","12","12,93","1,2","138,3","23,4","80,9","0","0"],
    [15450,"2015-11-05T04:00:00","48","12","13,97","1,5","184,4","23,5","81,6","0","0"],
    [15451,"2015-11-05T05:00:00","47","12","12,99","1,7","206,1","23,6","81,8","0","0"],
    [15452,"2015-11-05T06:00:00","86","23","11,09","2,4","105,2","23,3","83,9","0","0"],
    [15453,"2015-11-05T07:00:00","91","26","10,97","0,9","73,3","23","84,6","12,1","0"],
    [15454,"2015-11-05T08:00:00","83","19","15,21","1,7","170,2","23,7","82,1","74,1","0"],
    [15455,"2015-11-05T09:00:00","55","14","27,24","2,5","204,7","24,9","75,9","206,8","0"],
    [15456,"2015-11-05T10:00:00","58","18","40,88","2,2","115,6","26,3","67,9","288,6","0"],
    [15457,"2015-11-05T11:00:00","41","14","56,46","0,4","19,4","27,1","63,7","258","0"],
    [15458,"2015-11-05T12:00:00","40","12","68,41","2,7","13","28,3","57,1","283,6","0"],
    [15459,"2015-11-05T13:00:00","45","11","54","4,8","41,4","28,8","55,2","179,7","0"],
    [15460,"2015-11-05T14:00:00","58","19","55,4","5,2","26,9","28,7","55,5","188,9","0"],
    [15461,"2015-11-05T15:00:00","40","6","55,16","4,8","42,7","29,5","52,3","247,2","0"],
    [15462,"2015-11-05T16:00:00","35","9","50,79","3,1","26,2","29,7","50,7","138,9","0"],
    [15463,"2015-11-05T17:00:00","40","12","55,46","2,1","267,2","29,9","50,2","125,7","0"],
    [15464,"2015-11-05T18:00:00","60","10","59,13","4,6","223,3","28,4","58,1","6,3","0"],
    [15465,"2015-11-05T19:00:00","33","20","40,13","5,1","232,9","25,3","76","0","0"],
    [15466,"2015-11-05T20:00:00","51","19","37,5","2,8","225,1","25","77,5","0","0"],
    [15467,"2015-11-05T21:00:00","81","33","16,56","1","91,3","24,8","79,4","0","0"],
    [15468,"2015-11-05T22:00:00","82","25","16,86","2,4","71,4","24,8","79,8","0","0"],
    [15469,"2015-11-05T23:00:00","64","9","12,21","2,6","79,1","24,5","77,3","0","0"],
    [15470,"2015-11-06T00:00:00","41","7","13,27","1,7","153,5","24,2","77,3","0","0"],
    [15471,"2015-11-06T01:00:00","34","9","25,41","3,1","171,1","23,3","82,4","0","0"],
    [15472,"2015-11-06T02:00:00","16","5","29,22","4,2","191,4","22,6","84,5","0","0"],
    [15473,"2015-11-06T03:00:00","28","2","27,34","2,9","173,5","22,6","86,1","0","0"],
    [15474,"2015-11-06T04:00:00","40","8","26,69","2,3","171,1","22,4","86,3","0","0"],
    [15475,"2015-11-06T05:00:00","31","9","24,75","1,3","223,4","22,2","86,6","0","0"],
    [15476,"2015-11-06T06:00:00","54","22","15,25","1,3","79,8","22,4","85,9","0","0"],
    [15477,"2015-11-06T07:00:00","84","25","12,58","2,2","69,4","22,6","86,7","29,9","0"],
    [15478,"2015-11-06T08:00:00","58","23","20,21","2","121,6","23,1","84,2","103,7","0"],
    [15479,"2015-11-06T09:00:00","36","7","35,19","2,9","199,3","24,6","76","259,3","0"],
    [15480,"2015-11-06T10:00:00","24","4","45,06","1,5","182,8","26","68,5","381,4","0"],
    [15481,"2015-11-06T11:00:00","20","6","54,16","1,2","196,7","27,7","59,5","418,3","0"],
    [15482,"2015-11-06T12:00:00","27","8","59,95","2,1","107,4","29,2","51,5","459,2","0"],
    [15483,"2015-11-06T13:00:00","44","17","64,5","3,5","90,7","30,2","48,6","342","0"],
    [15484,"2015-11-06T14:00:00","30","6","82,36","2","77,8","30,9","45,4","384,4","0"],
    [15485,"2015-11-06T15:00:00","33","11","94,1","4,6","298,5","31,2","44,8","248,2","0"],
    [15486,"2015-11-06T16:00:00","31","5","63,09","8","278,2","30,9","45,4","215,2","0"],
    [15487,"2015-11-06T17:00:00","41","ND","49,94","7,4","287,6","29,8","48,8","103,5","0"],
    [15488,"2015-11-06T18:00:00","36","6","35,73","6,2","294,5","28,5","53,2","13,8","0"],
    [15489,"2015-11-06T19:00:00","33","5","20,88","3,7","306,6","27,8","55,3","0","0"],
    [15490,"2015-11-06T20:00:00","73","18","13,4","3,1","83,3","26,9","61,5","0","0"],
    [15491,"2015-11-06T21:00:00","60","12","12,78","2,5","88,2","26,3","64,9","0","0"],
    [15492,"2015-11-06T22:00:00","54","11","13,21","2,4","102","26,4","62,9","0","0"],
    [15493,"2015-11-06T23:00:00","36","6","15,13","1,6","125,7","26,1","63,6","0","0"],
    [15494,"2015-11-07T00:00:00","34","6","13,64","2","160,2","25,4","69,7","0","0"],
    [15495,"2015-11-07T01:00:00","41","9","13,56","2","154,9","24,9","75,6","0","0"],
    [15496,"2015-11-07T02:00:00","36","11","14,15","1,5","132,7","24,4","78,3","0","0"],
    [15497,"2015-11-07T03:00:00","27","6","17,98","2,9","187,9","23,7","82,9","0","0"],
    [15498,"2015-11-07T04:00:00","23","3","22,06","3,6","178,2","23,2","85,2","0","0"],
    [15499,"2015-11-07T05:00:00","22","3","21","3,5","178,9","22,8","86,4","0","0"],
    [15500,"2015-11-07T06:00:00","11","4","18,47","3,1","188,8","22,7","86,8","0","0"],
    [15501,"2015-11-07T07:00:00","23","5","15,82","2,7","205,2","22,7","87,4","11,4","0"],
    [15502,"2015-11-07T08:00:00","41","10","15,21","1,1","129,3","23,2","86,2","35,9","0"],
    [15503,"2015-11-07T09:00:00","42","14","16,9","2,2","108,7","23,8","83,8","93,8","0"],
    [15504,"2015-11-07T10:00:00","49","18","30,53","1,1","157,4","25,2","77,4","227,3","0"],
    [15505,"2015-11-07T11:00:00","39","15","34,07","3,6","93,3","26,1","72","152,7","0"],
    [15506,"2015-11-07T12:00:00","38","11","43,09","3,4","68,3","26,7","69,1","361,5","0"],
    [15507,"2015-11-07T13:00:00","38","10","67,54","2,9","35","28","59,5","282,1","0"],
    [15508,"2015-11-07T14:00:00","24","7","62,13","3","76,7","29,1","56,1","285,4","0"],
    [15509,"2015-11-07T15:00:00","34","12","55,1","4,9","106,7","28,3","62,9","104,3","0"],
    [15510,"2015-11-07T16:00:00","38","14","57,52","3,3","290,8","26,6","66,1","26,8","0"],
    [15511,"2015-11-07T17:00:00","19","11","35,75","6,8","246,1","23","79,1","0","0"],
    [15512,"2015-11-07T18:00:00","16","9","33,38","4,5","220,9","22,9","83,7","0","0"],
    [15513,"2015-11-07T19:00:00","13","8","35,95","3,8","208,4","22,6","85,2","0","0"],
    [15514,"2015-11-07T20:00:00","28","13","25,63","2,5","171,2","22,8","85,5","0","0"],
    [15515,"2015-11-07T21:00:00","26","9","21,57","2,6","163,8","22,5","85,5","0","0"],
    [15516,"2015-11-07T22:00:00","43","12","18,31","1,9","119,6","22,4","85,4","0","0"],
    [15517,"2015-11-07T23:00:00","61","14","13,52","1,6","60","22,1","86,7","0","0"],
    [15518,"2015-11-08T00:00:00","58","17","15,13","1,8","68,3","22","87,1","0","0"],
    [15519,"2015-11-08T01:00:00","42","14","18,8","1,6","350,9","21,8","87,2","0","0"],
    [15520,"2015-11-08T02:00:00","35","10","19,84","1,7","45,9","21,9","86,9","0","0"],
    [15521,"2015-11-08T03:00:00","32","13","21,7","0,4","330,8","21,8","86,4","0","0"],
    [15522,"2015-11-08T04:00:00","36","10","16,13","1,3","185,9","22","86,2","0","0"],
    [15523,"2015-11-08T05:00:00","44","16","12,81","2,1","168","21,6","87,1","0","0"],
    [15524,"2015-11-08T06:00:00","57","13","10,44","1,8","174,8","21,3","87,4","0","0"],
    [15525,"2015-11-08T07:00:00","65","20","11,95","1,9","170,5","21,6","88","36,3","0"],
    [15526,"2015-11-08T08:00:00","69","39","15,33","2","131,3","22","87,8","74,4","0"],
    [15527,"2015-11-08T09:00:00","68","39","26,24","2,9","142,1","22,8","85,7","140,6","0"],
    [15528,"2015-11-08T10:00:00","59","27","49,26","2,1","186,6","24,7","77,3","332,5","0"],
    [15529,"2015-11-08T11:00:00","48","21","63,88","3","112,7","26,8","66,7","454,9","0"],
    [15530,"2015-11-08T12:00:00","47","9","73,71","3,4","99,1","27,9","60,7","456,2","0"],
    [15531,"2015-11-08T13:00:00","33","14","86,91","2","142,1","29","55,8","319,8","0"],
    [15532,"2015-11-08T14:00:00","47","17","93,72","2,4","143,9","29,7","53","371,3","0"],
    [15533,"2015-11-08T15:00:00","33","15","95,04","2,9","183,3","30,3","50,5","299,4","0"],
    [15534,"2015-11-08T16:00:00","35","17","108,6","1,6","347","30,9","46,2","201,5","0"],
    [15535,"2015-11-08T17:00:00","56","21","112,99","3,4","17,4","31","48,3","84","0"],
    [15536,"2015-11-08T18:00:00","47","20","72,14","2,5","312,6","30,2","51","11,4","0"],
    [15537,"2015-11-08T19:00:00","76","12","34,46","7,8","90","26,7","62,5","0","0"],
    [15538,"2015-11-08T20:00:00","49","18","39,99","5,6","6,4","25,4","69,5","0","0"],
    [15539,"2015-11-08T21:00:00","56","12","26,47","2,9","8,2","25,4","70,8","0","0"],
    [15540,"2015-11-08T22:00:00","63","9","15,38","2,5","69,9","24,8","74,8","0","0"],
    [15541,"2015-11-08T23:00:00","46","8","21,31","2","38,4","24","77","0","0"],
    [15542,"2015-11-09T00:00:00","77","28","24,37","3,1","13,7","23,6","77,6","0","0"],
    [15543,"2015-11-09T01:00:00","50","4","25,96","3","12,1","23,1","78,9","0","0"],
    [15544,"2015-11-09T02:00:00","28","4","27,32","2,9","43,6","23","78,7","0","0"],
    [15545,"2015-11-09T03:00:00","40","9","25,65","2,3","29,4","22,8","79,2","0","0"],
    [15546,"2015-11-09T04:00:00","42","6","24,14","1","81,9","22,8","79,6","0","0"],
    [15547,"2015-11-09T05:00:00","51","5","18,86","1,4","86,4","23","79,7","0","0"],
    [15548,"2015-11-09T06:00:00","57","3","15,07","1","37,8","22,7","80,5","0","0"],
    [15549,"2015-11-09T07:00:00","110","19","12,54","2,6","102,1","22,9","81,1","12,9","0"],
    [15550,"2015-11-09T08:00:00","86","15","15,46","1,3","114,5","23,2","78,9","41,2","0"],
    [15551,"2015-11-09T09:00:00","61","15","22,55","1,8","71,1","24,2","75,4","120,6","0"],
    [15552,"2015-11-09T10:00:00","48","18","36,23","0,9","308,9","25,3","72,1","154,6","0"],
    [15553,"2015-11-09T11:00:00","69","23","61,28","0,7","21,4","26,4","68,6","273,7","0"],
    [15554,"2015-11-09T12:00:00","46","14","79,85","2,1","356,9","28","62,3","398,1","0"],
    [15555,"2015-11-09T13:00:00","36","8","76,28","2,7","90,5","29,8","54,2","426,7","0"],
    [15556,"2015-11-09T14:00:00","54","12","80,99","3,2","67,1","30,7","49,8","271,9","0"],
    [15557,"2015-11-09T15:00:00","47","12","69,47","3,6","61,7","30,3","51,6","91,2","0"],
    [15558,"2015-11-09T16:00:00","ND","8","39,74","2,6","326,4","29,1","52,9","38,9","0"],
    [15559,"2015-11-09T17:00:00","ND","ND","34,22","4,1","289","28,5","53,5","25,3","0"],
    [15560,"2015-11-09T18:00:00","ND","ND","ND","ND","ND","ND","ND","ND","ND"],
    [15561,"2015-11-09T19:00:00","ND","ND","ND","ND","ND","ND","ND","ND","ND"],
    [15562,"2015-11-09T20:00:00","ND","ND","ND","ND","ND","ND","ND","ND","ND"],
    [15563,"2015-11-09T21:00:00","45","3","29,4","2,6","229,8","23,8","76,6","0","0"],
    [15564,"2015-11-09T22:00:00","74","21","11,6","1,9","118,1","24","77,3","0","0"],
    [15565,"2015-11-09T23:00:00","63","14","13,68","2,3","122,1","23","81,8","0","0"],
    [15566,"2015-11-10T00:00:00","46","13","19,21","1,3","201,3","23","82,3","0","0"],
    [15567,"2015-11-10T01:00:00","38","11","17,76","1,1","137,3","22,8","83,4","0","0"],
    [15568,"2015-11-10T02:00:00","42","12","19,23","1,2","99,3","22,3","85,5","0","0"],
    [15569,"2015-11-10T03:00:00","52","17","16,58","1,8","40,3","22,6","84,9","0","0"],
    [15570,"2015-11-10T04:00:00","43","12","15,64","1,7","80,9","22,2","85,4","0","0"],
    [15571,"2015-11-10T05:00:00","46","16","11,64","0,2","319,6","21,9","86,7","0","0"],
    [15572,"2015-11-10T06:00:00","74","30","9,67","0,8","356,1","22,4","85,6","0","0"],
    [15573,"2015-11-10T07:00:00","102","38","11,07","1,1","98,1","22,4","85,1","15,3","0"],
    [15574,"2015-11-10T08:00:00","90","30","13,07","2,3","104,3","23","84","61,7","0"],
    [15575,"2015-11-10T09:00:00","74","24","16,37","2,5","71,8","24,1","80,7","127","0"],
    [15576,"2015-11-10T10:00:00","57","18","32,61","2,5","61,7","25,7","73,1","313,4","0"],
    [15577,"2015-11-10T11:00:00","40","6","59,64","1,4","62,9","27,3","63,7","414,7","0"],
    [15578,"2015-11-10T12:00:00","41","10","74,55","2,4","75,7","29,1","54,8","443,4","0"],
    [15579,"2015-11-10T13:00:00","48","19","90,72","2,1","86,5","30,2","51,6","410,4","0"],
    [15580,"2015-11-10T14:00:00","53","17","96,2","2,4","103,4","31","48,9","376,6","0"],
    [15581,"2015-11-10T15:00:00","52","22","109,78","1,7","95,2","31,6","47,4","289,6","0"],
    [15582,"2015-11-10T16:00:00","55","17","100,91","2,7","325,6","31,8","45,5","139,2","0"],
    [15583,"2015-11-10T17:00:00","31","6","57,4","6","284,3","31,7","42","112,5","0"],
    [15584,"2015-11-10T18:00:00","49","8","38,17","7","287,4","29,6","49,7","6,3","0"],
    [15585,"2015-11-10T19:00:00","35","5","27,79","6,5","292,7","28,3","54,6","0","0"],
    [15586,"2015-11-10T20:00:00","47","8","21,8","0,8","348,4","27,5","58,4","0","0"],
    [15587,"2015-11-10T21:00:00","48","12","16,74","3,8","92,9","26","67","0","0"],
    [15588,"2015-11-10T22:00:00","46","11","16,6","2,5","85,2","25,5","68,6","0","0"],
    [15589,"2015-11-10T23:00:00","54","11","15,66","0,4","20,8","25,5","68,4","0","0"],
    [15590,"2015-11-11T00:00:00","43","13","14,17","1,7","143,2","25,2","71,1","0","0"],
    [15591,"2015-11-11T01:00:00","36","7","17,45","1,9","102","24,7","74","0","0"],
    [15592,"2015-11-11T02:00:00","27","5","17,96","0,7","188,1","24,5","77","0","0"],
    [15593,"2015-11-11T03:00:00","28","4","15,23","1,6","53,3","24,2","79,6","0","0"],
    [15594,"2015-11-11T04:00:00","19","5","19,29","2,7","355,6","23,6","81,8","0","0"],
    [15595,"2015-11-11T05:00:00","28","9","12,15","0,7","223,4","23,8","84,1","0","0"],
    [15596,"2015-11-11T06:00:00","47","15","10,73","2,2","84,4","23,6","84,6","0","0"],
    [15597,"2015-11-11T07:00:00","74","18","11,13","1,3","88,3","23,7","84,6","9,1","0"],
    [15598,"2015-11-11T08:00:00","58","13","15,46","1,5","167","24,4","80,5","55,8","0"],
    [15599,"2015-11-11T09:00:00","50","14","22,7","2,3","171,6","25","77,3","89,7","0"],
    [15600,"2015-11-11T10:00:00","65","20","32,2","1,3","56,6","26,2","72,1","229,9","0"],
    [15601,"2015-11-11T11:00:00","65","26","51,18","2,7","59,5","27,3","66,2","220,8","0"],
    [15602,"2015-11-11T12:00:00","50","17","49,71","3,6","85,4","27,9","64,1","194,7","0"],
    [15603,"2015-11-11T13:00:00","34","11","60,58","1,9","85,9","28,6","60,6","317,8","0"],
    [15604,"2015-11-11T14:00:00","42","10","65,88","2,2","55,9","29,3","56","190,7","0"],
    [15605,"2015-11-11T15:00:00","63","22","62,91","3,7","81,3","29,6","54,4","139","0"],
    [15606,"2015-11-11T16:00:00","53","17","59,48","4,3","95,7","29,8","52,9","108,9","0"],
    [15607,"2015-11-11T17:00:00","62","19","46,21","3,2","109,3","30","51,6","60,9","0"],
    [15608,"2015-11-11T18:00:00","74","18","41,46","1,7","103,4","29,6","54,1","9,7","0"],
    [15609,"2015-11-11T19:00:00","97","24","32,58","1,4","234,7","28,9","55,1","0","0"],
    [15610,"2015-11-11T20:00:00","46","8","19,78","3,3","285,2","27,9","56,7","0","0"],
    [15611,"2015-11-11T21:00:00","65","16","16,66","1,5","339,2","26,9","62,5","0","0"],
    [15612,"2015-11-11T22:00:00","74","15","12,11","3,7","86,8","24,7","75,4","0","0"],
    [15613,"2015-11-11T23:00:00","59","5","12,36","1,5","52,6","24,6","74","0","0"],
    [15614,"2015-11-12T00:00:00","44","7","14,38","2","95,6","24,6","73","0","0"],
    [15615,"2015-11-12T01:00:00","42","7","15,38","2,3","99,6","24,2","75,1","0","0"],
    [15616,"2015-11-12T02:00:00","37","4","15,6","1,6","113,5","24,2","76,3","0","0"],
    [15617,"2015-11-12T03:00:00","56","5","13,38","2,6","222,3","23,9","77,6","0","0"],
    [15618,"2015-11-12T04:00:00","69","17","11,46","2,6","220","23,9","79,3","0","0"],
    [15619,"2015-11-12T05:00:00","69","26","11,48","2,3","175,3","23,8","79,8","0","0"],
    [15620,"2015-11-12T06:00:00","90","27","10,68","1","167,2","23,5","81,5","0","0"],
    [15621,"2015-11-12T07:00:00","126","41","11,32","1,9","77,4","23,5","82,4","8,8","0"],
    [15622,"2015-11-12T08:00:00","101","29","12,7","0,3","41","24","80,8","47,6","0"],
    [15623,"2015-11-12T09:00:00","129","41","24,65","1,2","92,5","25,8","72,4","168,7","0"],
    [15624,"2015-11-12T10:00:00","120","43","54,1","3,3","102,8","27,4","65,1","288,7","0"],
    [15625,"2015-11-12T11:00:00","94","26","96,25","1,5","327,7","28,7","59,8","302,5","0"],
    [15626,"2015-11-12T12:00:00","65","21","94,96","1,9","75,9","29,7","54","319,2","0"],
    [15627,"2015-11-12T13:00:00","61","15","93,74","2,7","59,4","31","49,6","343,4","0"],
    [15628,"2015-11-12T14:00:00","61","23","99,57","3,1","64,9","31,8","46,9","306,6","0"],
    [15629,"2015-11-12T15:00:00","61","20","104,24","3,5","46,5","32,3","45","228,1","0"],
    [15630,"2015-11-12T16:00:00","48","5","76,69","3,4","9,6","32,3","44,6","87,2","0"],
    [15631,"2015-11-12T17:00:00","58","16","47,1","5,5","297,7","30,8","46,8","24,2","0"],
    [15632,"2015-11-12T18:00:00","49","6","35,26","5,9","290,9","30","47,4","6,2","0"],
    [15633,"2015-11-12T19:00:00","52","8","28,75","4,9","298,2","28,8","52,2","0","0"],
    [15634,"2015-11-12T20:00:00","79","22","15,58","3,3","75,8","27,5","60,2","0","0"],
    [15635,"2015-11-12T21:00:00","53","15","14,44","3,2","79,3","26,1","69,1","0","0"],
    [15636,"2015-11-12T22:00:00","43","14","13,21","2,4","77,7","26,1","68,8","0","0"],
    [15637,"2015-11-12T23:00:00","37","9","14,99","4,1","83,4","25,3","71,8","0","0"],
    [15638,"2015-11-13T00:00:00","48","8","13,5","0,2","158,5","24,7","74,9","0","0"],
    [15639,"2015-11-13T01:00:00","54","14","11,5","1,6","146,3","24,5","76","0","0"],
    [15640,"2015-11-13T02:00:00","63","19","12,21","1,9","110,7","23,8","79,7","0","0"],
    [15641,"2015-11-13T03:00:00","56","8","11,73","1","177,8","24","78,7","0","0"],
    [15642,"2015-11-13T04:00:00","63","17","11,03","1,4","127,6","24,2","77,8","0","0"],
    [15643,"2015-11-13T05:00:00","69","20","10,2","1,3","158,2","24","79,6","0","0"],
    [15644,"2015-11-13T06:00:00","84","21","10,4","0,9","146,8","24,1","78,7","0","0"],
    [15645,"2015-11-13T07:00:00","94","21","10,81","1,8","192,8","24,3","78,1","10","0"],
    [15646,"2015-11-13T08:00:00","80","20","13,5","2,2","157,5","24,5","77,8","68,3","0"],
    [15647,"2015-11-13T09:00:00","70","21","24,71","2,4","210,3","25,8","71,6","160,3","0"],
    [15648,"2015-11-13T10:00:00","70","15","40,5","2,6","198,9","27,4","64,3","287,5","0"],
    [15649,"2015-11-13T11:00:00","69","15","63,31","3,1","206","28,9","58,7","324,3","0"],
    [15650,"2015-11-13T12:00:00","ND","ND","83,91","2,8","164,5","29,6","56,3","318,8","0"],
    [15651,"2015-11-13T13:00:00","ND","ND","ND","ND","ND","ND","ND","ND","ND"],
    [15652,"2015-11-13T14:00:00","ND","ND","ND","ND","ND","ND","ND","ND","ND"],
    [15653,"2015-11-13T15:00:00","ND","ND","ND","ND","ND","ND","ND","ND","ND"],
    [15654,"2015-11-13T16:00:00","ND","ND","ND","ND","ND","ND","ND","ND","ND"],
    [15655,"2015-11-13T17:00:00","ND","ND","ND","ND","ND","ND","ND","ND","ND"],
    [15656,"2015-11-13T18:00:00","53","10","30,57","5,7","288,2","30,9","47,1","10,9","0"],
    [15657,"2015-11-13T19:00:00","47","6","23,14","5,3","298,2","30","49,6","0","0"],
    [15658,"2015-11-13T20:00:00","68","10","15,01","1,4","9,2","29,2","53,4","0","0"],
    [15659,"2015-11-13T21:00:00","69","14","12,05","3,9","79,7","26,9","66,7","0","0"],
    [15660,"2015-11-13T22:00:00","53","10","13,15","2,5","88,2","26,3","69,5","0","0"],
    [15661,"2015-11-13T23:00:00","43","6","14,15","2,9","83,6","26","70,8","0","0"],
    [15662,"2015-11-14T00:00:00","28","3","14,7","2,7","81,2","25,3","74","0","0"],
    [15663,"2015-11-14T01:00:00","31","4","14,38","1,4","77,2","24,8","76,2","0","0"],
    [15664,"2015-11-14T02:00:00","38","7","13,52","1,1","174,9","25","75,7","0","0"],
    [15665,"2015-11-14T03:00:00","41","5","13,03","1,1","165,5","25","76,2","0","0"],
    [15666,"2015-11-14T04:00:00","59","10","11,11","1,5","119,7","24,5","78,4","0","0"],
    [15667,"2015-11-14T05:00:00","62","12","10,13","0,8","100,3","23,9","82,2","0","0"],
    [15668,"2015-11-14T06:00:00","84","18","10,54","2,5","148,4","24,2","81","0","0"],
    [15669,"2015-11-14T07:00:00","97","27","11,75","1,5","145,1","24,9","79,1","52,2","0"],
    [15670,"2015-11-14T08:00:00","85","23","14,13","2,4","95,3","25,5","77,2","104,3","0"],
    [15671,"2015-11-14T09:00:00","91","28","21,29","2,4","93,4","26,4","71,4","153,4","0"],
    [15672,"2015-11-14T10:00:00","73","21","39,46","0,8","152,3","27,8","65,7","261,7","0"],
    [15673,"2015-11-14T11:00:00","70","22","64,13","2,2","140,6","29,8","57,4","387,8","0"],
    [15674,"2015-11-14T12:00:00","53","11","85,83","2,8","176,7","31,3","50,1","404,1","0"],
    [15675,"2015-11-14T13:00:00","55","14","84,05","3,1","161,2","32,3","45,2","406,7","0"],
    [15676,"2015-11-14T14:00:00","47","16","92,58","2,9","71,5","33,3","42,1","352,9","0"],
    [15677,"2015-11-14T15:00:00","68","17","110,3","4,2","355,3","33,2","42,4","180","0"],
    [15678,"2015-11-14T16:00:00","51","7","60,77","5,6","309,2","32,7","42,9","185,1","0"],
    [15679,"2015-11-14T17:00:00","35","6","45,8","6,6","296,7","32,2","43,1","73,9","0"],
    [15680,"2015-11-14T18:00:00","37","4","26,79","7,3","308,9","30,4","48,9","6,3","0"],
    [15681,"2015-11-14T19:00:00","49","9","17,33","3,4","358,6","29,5","52,8","0","0"],
    [15682,"2015-11-14T20:00:00","48","17","16,56","3,3","58,5","28,2","60,6","0","0"],
    [15683,"2015-11-14T21:00:00","44","7","15,97","2,6","229,1","27,8","62","0","0"],
    [15684,"2015-11-14T22:00:00","59","13","17,48","5,1","212,5","26,8","68,2","0","0"],
    [15685,"2015-11-14T23:00:00","50","12","19,8","3,7","200,1","26,6","69,8","0","0"],
    [15686,"2015-11-15T00:00:00","57","12","17,9","2,3","195,5","26,3","71,4","0","0"],
    [15687,"2015-11-15T01:00:00","48","9","18,09","1,3","127,7","26,2","70,7","0","0"],
    [15688,"2015-11-15T02:00:00","43","12","14,56","2,3","106,8","25,5","74,9","0","0"],
    [15689,"2015-11-15T03:00:00","65","11","18,03","2,7","151,2","25","75,8","0","0"],
    [15690,"2015-11-15T04:00:00","61","12","18,41","1,8","190,7","24,7","76,8","0","0"],
    [15691,"2015-11-15T05:00:00","42","13","17,74","1,4","222,7","25,2","75","0","0"],
    [15692,"2015-11-15T06:00:00","62","10","11,66","1,5","110,3","25,2","76","0","0"],
    [15693,"2015-11-15T07:00:00","72","17","12,13","1,7","107","25","77,4","9,6","0"],
    [15694,"2015-11-15T08:00:00","92","26","14,56","2,1","141","25,2","77,4","28,1","0"],
    [15695,"2015-11-15T09:00:00","83","21","18,09","2,2","124,7","25,9","73,7","71","0"],
    [15696,"2015-11-15T10:00:00","84","29","30,57","1,4","131,1","26,8","70,3","131,6","0"],
    [15697,"2015-11-15T11:00:00","66","24","50,39","0,9","89,6","27,7","65,4","176,6","0"],
    [15698,"2015-11-15T12:00:00","66","23","68,27","2,4","16,5","28,4","61,9","225","0"],
    [15699,"2015-11-15T13:00:00","53","13","83,17","2,5","42,8","29,7","57,3","311,6","0"],
    [15700,"2015-11-15T14:00:00","38","10","68,68","4","49,4","30,7","52,7","290,8","0"],
    [15701,"2015-11-15T15:00:00","40","10","59,36","5","53,7","31,2","50,5","199","0"],
    [15702,"2015-11-15T16:00:00","45","13","43,76","5,3","63,6","30,9","53,1","100,3","0"],
    [15703,"2015-11-15T17:00:00","34","6","33,65","3,5","299,9","30,4","50","44,8","0"],
    [15704,"2015-11-15T18:00:00","36","ND","30,36","4,8","289,2","29,5","51,2","8,2","0"],
    [15705,"2015-11-15T19:00:00","42","9","20,37","1,7","305","28,9","54,5","0","0"],
    [15706,"2015-11-15T20:00:00","53","13","14,31","1,8","33,3","28,2","58,2","0","0"],
    [15707,"2015-11-15T21:00:00","54","11","12,56","3,4","114","27","65,5","0","0"],
    [15708,"2015-11-15T22:00:00","38","8","13,8","3,5","96,9","25,9","70,3","0","0"],
    [15709,"2015-11-15T23:00:00","43","5","14,42","2,5","36,7","25,3","71,7","0","0"],
    [15710,"2015-11-16T00:00:00","34","6","13,62","2,2","351,7","25,4","71,4","0","0"],
    [15711,"2015-11-16T01:00:00","29","5","13,15","2,5","110,1","25,1","72,8","0","0"],
    [15712,"2015-11-16T02:00:00","45","9","14,23","1,3","145,4","25,1","73,6","0","0"],
    [15713,"2015-11-16T03:00:00","43","11","14,42","1,8","113,8","25,1","73,5","0","0"],
    [15714,"2015-11-16T04:00:00","51","10","11,97","2,3","95,6","24,4","78,3","0","0"],
    [15715,"2015-11-16T05:00:00","48","7","14,72","2,8","30,5","24,4","77,9","0","0"],
    [15716,"2015-11-16T06:00:00","29","6","14,97","2,5","33","24,3","78,4","0","0"],
    [15717,"2015-11-16T07:00:00","24","5","18,52","1,5","56,5","24","80,2","11,9","0"],
    [15718,"2015-11-16T08:00:00","35","4","21,57","2,4","43,1","24,4","79","61","0"],
    [15719,"2015-11-16T09:00:00","30","2","26,26","2,3","19,4","25,3","75,6","127,5","0"],
    [15720,"2015-11-16T10:00:00","49","8","33,81","2,9","97,2","27","69","311,3","0"],
    [15721,"2015-11-16T11:00:00","36","6","45,45","2,9","34,3","27,7","65","186,3","0"],
    [15722,"2015-11-16T12:00:00","39","12","48,65","2,7","42,3","28,2","62,3","144,7","0"],
    [15723,"2015-11-16T13:00:00","61","19","58,22","2,5","74","28,7","59,5","208,4","0"],
    [15724,"2015-11-16T14:00:00","49","16","59,73","1,8","54,4","29,7","55,1","220,1","0"],
    [15725,"2015-11-16T15:00:00","51","11","70,51","1,8","35,4","30,2","52,8","160,8","0"],
    [15726,"2015-11-16T16:00:00","58","16","84,26","0,8","20,3","30,5","51,1","153,1","0"],
    [15727,"2015-11-16T17:00:00","34","6","40,58","6,5","283,5","30,4","46,7","81,9","0"],
    [15728,"2015-11-16T18:00:00","39","4","32,44","5,6","287,6","29,3","49,2","11,9","0"],
    [15729,"2015-11-16T19:00:00","35","5","22,33","4,1","295,1","28,3","54","0","0"],
    [15730,"2015-11-16T20:00:00","52","12","14,23","3,2","74,7","26,8","62,1","0","0"],
    [15731,"2015-11-16T21:00:00","49","9","12,58","2,6","76,2","25,8","67,8","0","0"],
    [15732,"2015-11-16T22:00:00","48","7","12,99","2,6","71,2","25,9","67,5","0","0"],
    [15733,"2015-11-16T23:00:00","39","6","15,03","1,6","179,6","25,7","68,9","0","0"],
    [15734,"2015-11-17T00:00:00","29","6","27,92","5,1","202,7","24,5","77,8","0","0"],
    [15735,"2015-11-17T01:00:00","27","7","34,97","3,1","175,7","24","79,5","0","0"],
    [15736,"2015-11-17T02:00:00","17","4","30,5","1,3","212,9","23,4","83,3","0","0"],
    [15737,"2015-11-17T03:00:00","24","8","29,04","2,3","186,7","23,5","83,3","0","0"],
    [15738,"2015-11-17T04:00:00","26","8","ND","2,5","225,8","23,1","84,9","0","0"],
    [15739,"2015-11-17T05:00:00","17","9","ND","2,3","225,7","23,1","85,1","0","0"],
    [15740,"2015-11-17T06:00:00","44","10","ND","2","140,6","23,1","85,2","0","0"],
    [15741,"2015-11-17T07:00:00","45","15","ND","1,6","145,8","22,9","86,2","5,8","0"],
    [15742,"2015-11-17T08:00:00","63","16","ND","2,5","104","23,2","85,2","23,2","0"],
    [15743,"2015-11-17T09:00:00","54","15","ND","2,6","76,6","23,7","84,2","48,1","0"],
    [15744,"2015-11-17T10:00:00","51","17","ND","3,1","43,8","24,2","82,1","74,6","0"],
    [15745,"2015-11-17T11:00:00","31","6","ND","3,5","38,2","24,8","80,5","192,6","0"],
    [15746,"2015-11-17T12:00:00","36","7","ND","4,6","45,4","25,4","75,5","163,1","0"],
    [15747,"2015-11-17T13:00:00","25","8","ND","4,1","56","25,8","73,8","144,2","0"],
    [15748,"2015-11-17T14:00:00","27","8","ND","1,6","61,9","26,6","67,7","117,6","0"],
    [15749,"2015-11-17T15:00:00","38","15","ND","5,5","202,9","25,9","74,3","98,5","0"],
    [15750,"2015-11-17T16:00:00","38","19","ND","5,5","204,1","25","79,4","84,7","0"],
    [15751,"2015-11-17T17:00:00","28","9","ND","4,5","211,1","24,8","78,6","30,8","0"],
    [15752,"2015-11-17T18:00:00","40","10","ND","1,8","174,8","24,8","76,8","4,7","0"],
    [15753,"2015-11-17T19:00:00","52","11","ND","4,9","70,5","23,6","79,4","0","0"],
    [15754,"2015-11-17T20:00:00","33","9","ND","3,1","60,8","22,8","83,5","0","0"],
    [15755,"2015-11-17T21:00:00","15","5","ND","0,9","15,8","22,5","84,7","0","0"],
    [15756,"2015-11-17T22:00:00","36","7","ND","0,7","202,5","22,9","83,5","0","0"],
    [15757,"2015-11-17T23:00:00","48","15","ND","1,3","165,1","23,3","82,9","0","0"],
    [15758,"2015-11-18T00:00:00","30","11","ND","1,4","180,1","23","84,2","0","0"],
    [15759,"2015-11-18T01:00:00","35","10","ND","1,4","142,6","22,9","85,2","0","0"],
    [15760,"2015-11-18T02:00:00","30","11","ND","1,4","142","22,7","86,9","0","0"],
    [15761,"2015-11-18T03:00:00","43","7","ND","2,5","74,3","22,5","87,7","0","0"],
    [15762,"2015-11-18T04:00:00","26","11","ND","2,1","327,3","22,2","88,6","0","0"],
    [15763,"2015-11-18T05:00:00","21","9","9,14","2,2","319,4","22,3","88,6","0","0"],
    [15764,"2015-11-18T06:00:00","28","13","11,22","1,8","283,1","22,1","87,5","0","0"],
    [15765,"2015-11-18T07:00:00","28","10","8,24","1,3","333,4","22,5","85,8","5,9","0"],
    [15766,"2015-11-18T08:00:00","32","11","9,52","1","341,1","22,8","85","43,2","0"],
    [15767,"2015-11-18T09:00:00","ND","ND","15,56","0,9","111,8","23,6","82,3","120,6","0"],
    [15768,"2015-11-18T10:00:00","40","20","29,16","0,8","273,1","24,4","77,2","98,4","0"],
    [15769,"2015-11-18T11:00:00","54","26","50,37","0,3","148,5","25,5","71","233,5","0"],
    [15770,"2015-11-18T12:00:00","39","15","50,63","1,3","43,6","26,5","66,2","243,5","0"],
    [15771,"2015-11-18T13:00:00","38","20","67,37","1,5","63,2","27,6","62","314,2","0"],
    [15772,"2015-11-18T14:00:00","30","19","77,04","2,8","79,9","28,8","56,6","342,7","0"],
    [15773,"2015-11-18T15:00:00","31","10","58,13","3,5","61,3","29,2","56","196,7","0"],
    [15774,"2015-11-18T16:00:00","44","17","65,78","2,4","351,6","28,2","59,3","69,3","0"],
    [15775,"2015-11-18T17:00:00","60","23","52,12","2,5","339,5","28,1","61,4","74,2","0"],
    [15776,"2015-11-18T18:00:00","43","6","22,41","5,6","51,7","27,4","63,8","5,6","0"],
    [15777,"2015-11-18T19:00:00","44","11","17,9","4,6","43,4","25,5","72,6","0","0"],
    [15778,"2015-11-18T20:00:00","35","10","18,03","3,8","32,2","24,8","76,8","0","0"],
    [15779,"2015-11-18T21:00:00","71","17","12,58","3,5","56,6","24,6","77,8","0","0"],
    [15780,"2015-11-18T22:00:00","52","3","13,42","0,8","200,3","24,6","76,5","0","0"],
    [15781,"2015-11-18T23:00:00","28","5","17,58","3,2","206,1","24,1","77,1","0","0"],
    [15782,"2015-11-19T00:00:00","32","5","17,23","2,6","160,4","23,8","77,4","0","0"],
    [15783,"2015-11-19T01:00:00","16","5","18,15","2,8","147,1","22,9","82,4","0","0"],
    [15784,"2015-11-19T02:00:00","25","3","18,05","1,3","129,3","22,6","84,4","0","0"],
    [15785,"2015-11-19T03:00:00","14","ND","18,05","0,5","334,6","22,6","84,4","0","0"],
    [15786,"2015-11-19T04:00:00","30","3","12,11","1,8","119,2","22,8","83,9","0","0"],
    [15787,"2015-11-19T05:00:00","42","5","11,17","2,2","122,8","22,6","84,8","0","0"],
    [15788,"2015-11-19T06:00:00","42","6","8,95","1,9","202,9","22,6","85,8","0","0"],
    [15789,"2015-11-19T07:00:00","55","11","9,13","2,4","191","22,9","85,2","19,9","0"],
    [15790,"2015-11-19T08:00:00","40","10","13,58","2,7","178,8","23,6","82,7","46,3","0"],
    [15791,"2015-11-19T09:00:00","38","9","21,86","2,8","188,3","24,3","78,9","96,3","0"],
    [15792,"2015-11-19T10:00:00","39","7","27,06","3,1","198,6","25","75,2","155,6","0"],
    [15793,"2015-11-19T11:00:00","38","12","43,39","1,6","162,9","26,7","66","354,5","0"],
    [15794,"2015-11-19T12:00:00","40","14","52,71","2,7","161,5","28,1","59,8","341,4","0"],
    [15795,"2015-11-19T13:00:00","52","30","67,25","1,9","132,8","29,2","53,9","351,9","0"],
    [15796,"2015-11-19T14:00:00","59","30","77,12","2,8","133,9","29,7","51,7","251,9","0"],
    [15797,"2015-11-19T15:00:00","47","16","90,21","3","169,7","30,5","51,4","313,1","0"],
    [15798,"2015-11-19T16:00:00","56","21","84,26","1,7","138,9","30,5","49,4","104,3","0"],
    [15799,"2015-11-19T17:00:00","64","25","69,53","0,6","240","30,1","50,9","32,9","0"],
    [15800,"2015-11-19T18:00:00","61","14","35,62","2","326,6","29,5","52","8,6","0"],
    [15801,"2015-11-19T19:00:00","98","27","13,66","2,9","5,3","28,4","56,2","0","0"],
    [15802,"2015-11-19T20:00:00","74","17","11,26","1,6","358,3","27,7","59","0","0"],
    [15803,"2015-11-19T21:00:00","50","13","15,93","4","67,3","26,4","66,2","0","0"],
    [15804,"2015-11-19T22:00:00","51","13","16,84","3,7","64","25,4","71,3","0","0"],
    [15805,"2015-11-19T23:00:00","35","17","14,38","1,7","110,4","25,4","70,1","0","0"],
    [15806,"2015-11-20T00:00:00","27","1","14,09","1,5","129,6","25,2","71,2","0","0"],
    [15807,"2015-11-20T01:00:00","54","21","15,68","2,1","171,7","24,7","75,6","0","0"],
    [15808,"2015-11-20T02:00:00","22","9","25,77","2,1","170,7","24,6","77","0","0"],
    [15809,"2015-11-20T03:00:00","29","12","26,67","2,3","161","24","80,1","0","0"],
    [15810,"2015-11-20T04:00:00","38","9","21,1","1,6","169,9","23,9","82,4","0","0"],
    [15811,"2015-11-20T05:00:00","61","20","13,25","2,6","142,4","23,8","82,4","0","0"],
    [15812,"2015-11-20T06:00:00","68","14","12,3","1,9","200,7","23,7","82,3","0","0"],
    [15813,"2015-11-20T07:00:00","69","19","10,52","1,5","161,4","23,8","83,8","25,9","0"],
    [15814,"2015-11-20T08:00:00","49","13","16,07","1,5","145,4","24,6","79,3","92,8","0"],
    [15815,"2015-11-20T09:00:00","46","22","26,77","1,3","182,8","25,6","73,6","122,6","0"],
    [15816,"2015-11-20T10:00:00","46","11","35,42","1,9","205,8","26,3","70,7","167,5","0"],
    [15817,"2015-11-20T11:00:00","57","16","49,77","3","116,5","27,6","64","297,4","0"],
    [15818,"2015-11-20T12:00:00","46","9","79,71","1,9","141,7","29,1","56,3","419,8","0"],
    [15819,"2015-11-20T13:00:00","45","15","95,33","1,3","173,7","29,8","52,6","213","0"],
    [15820,"2015-11-20T14:00:00","67","19","137,92","0,2","78,7","31","49","357,3","0"],
    [15821,"2015-11-20T15:00:00","55","19","143,76","2,3","37,5","32,2","44","300","0"],
    [15822,"2015-11-20T16:00:00","34","11","63,7","3,8","353,7","32,2","42,7","140,5","0"],
    [15823,"2015-11-20T17:00:00","41","8","35,05","4,2","308,7","31,3","43,5","50,7","0"],
    [15824,"2015-11-20T18:00:00","40","6","21,92","4,4","274,9","29,9","48,2","4,8","0"],
    [15825,"2015-11-20T19:00:00","36","10","20,17","4,1","254,5","28,4","55,4","0","0"],
    [15826,"2015-11-20T20:00:00","36","9","20,02","3,9","86","25,9","71,2","0","0"],
    [15827,"2015-11-20T21:00:00","24","13","15,35","2,9","216,9","24,3","81,4","0","0"],
    [15828,"2015-11-20T22:00:00","20","8","27,28","4,9","215,5","23,8","83,9","0","0"],
    [15829,"2015-11-20T23:00:00","13","13","31,97","3,6","180,8","23,2","81,7","0","0"],
    [15830,"2015-11-21T00:00:00","15","9","31,3","2,8","179,3","22,7","81,3","0","0"],
    [15831,"2015-11-21T01:00:00","24","5","27,08","0,5","120,4","22,9","82,3","0","0"],
    [15832,"2015-11-21T02:00:00","25","7","19,9","2,9","69,4","22,6","84,1","0","0"],
    [15833,"2015-11-21T03:00:00","16","5","22","1,1","80","22,5","85,8","0","0"],
    [15834,"2015-11-21T04:00:00","16","6","18,45","1,1","329,3","22,7","86,9","0","0"],
    [15835,"2015-11-21T05:00:00","25","8","17,09","1,1","257","23","86,9","0","0"],
    [15836,"2015-11-21T06:00:00","27","19","13,95","2,2","211,7","23,2","86,1","0","0"],
    [15837,"2015-11-21T07:00:00","46","16","14,09","2,9","221,9","23,1","86,7","13,1","0"],
    [15838,"2015-11-21T08:00:00","50","19","14,54","1,2","83,3","23,8","84,2","62","0"],
    [15839,"2015-11-21T09:00:00","51","15","22,84","1,4","91,6","24,6","80,6","151,1","0"],
    [15840,"2015-11-21T10:00:00","59","27","33,2","2","125,5","26,1","73,1","313,1","0"],
    [15841,"2015-11-21T11:00:00","57","20","45,45","3,1","126,8","27,8","65,8","425,2","0"],
    [15842,"2015-11-21T12:00:00","38","12","66,33","1,7","128,3","29","58,9","377,9","0"],
    [15843,"2015-11-21T13:00:00","53","17","65,15","1,5","62,4","29,4","55,4","174,5","0"],
    [15844,"2015-11-21T14:00:00","47","16","70,65","2,6","66,6","29,7","55,7","193","0"],
    [15845,"2015-11-21T15:00:00","54","16","79,14","3,9","86,3","30,2","54,5","219,9","0"],
    [15846,"2015-11-21T16:00:00","56","22","53,73","3,9","6,4","29,6","53,8","34,7","0"],
    [15847,"2015-11-21T17:00:00","45","22","50,28","0,4","240,8","29,5","52,2","49","0"],
    [15848,"2015-11-21T18:00:00","80","25","46,55","3,3","215,3","28,4","60,1","10,7","0"],
    [15849,"2015-11-21T19:00:00","110","54","29,24","3,5","226,6","27,8","66,6","0","0"],
    [15850,"2015-11-21T20:00:00","118","54","15,54","2,3","196,3","27,7","66,7","0","0"],
    [15851,"2015-11-21T21:00:00","118","44","9,85","1,5","172,5","26,7","71,6","0","0"],
    [15852,"2015-11-21T22:00:00","95","33","11,46","2,3","126,8","26","76,3","0","0"],
    [15853,"2015-11-21T23:00:00","94","32","11,7","1,8","114,9","25,3","76,5","0","0"],
    [15854,"2015-11-22T00:00:00","96","30","10,93","2,1","93,7","25,2","76,1","0","0"],
    [15855,"2015-11-22T01:00:00","47","24","10,24","1,2","98","24,5","81,3","0","0"],
    [15856,"2015-11-22T02:00:00","40","13","10,22","0,9","203,2","24,2","82,5","0","0"],
    [15857,"2015-11-22T03:00:00","32","17","12,09","1,6","71,9","23,6","85","0","0"],
    [15858,"2015-11-22T04:00:00","21","10","15,66","2,2","217,4","23,4","86,5","0","0"],
    [15859,"2015-11-22T05:00:00","18","7","35,79","3,3","192,6","22,6","85,6","0","0"],
    [15860,"2015-11-22T06:00:00","17","6","30,65","2,5","195,4","22,4","85,6","0","0"],
    [15861,"2015-11-22T07:00:00","21","7","21,02","3,2","157,4","22,4","86,8","0","0"],
    [15862,"2015-11-22T08:00:00","10","5","18,41","2,9","133,2","21,9","87,9","10,5","0"],
    [15863,"2015-11-22T09:00:00","12","8","24,77","0,9","106,5","22","88,1","73,7","0"],
    [15864,"2015-11-22T10:00:00","21","8","32,91","2,9","1,7","23,2","86,2","159,5","0"],
    [15865,"2015-11-22T11:00:00","23","10","36,79","1,3","78,8","24,4","81,7","208,9","0"],
    [15866,"2015-11-22T12:00:00","24","6","46,33","2,8","132,2","26,6","72","298,2","0"],
    [15867,"2015-11-22T13:00:00","20","3","53,36","2,1","109,8","27,6","63,5","253","0"],
    [15868,"2015-11-22T14:00:00","19","3","61,28","1,8","24,6","28,5","61,1","339,5","0"],
    [15869,"2015-11-22T15:00:00","24","13","79,24","1,9","30,7","29,4","56,5","295,7","0"],
    [15870,"2015-11-22T16:00:00","35","11","67,45","3,4","72,7","30,1","52,9","196,9","0"],
    [15871,"2015-11-22T17:00:00","48","7","50,24","3,1","67,9","30","53,2","56,3","0"],
    [15872,"2015-11-22T18:00:00","40","13","37,89","1,8","192,1","29,2","56,2","8,8","0"],
    [15873,"2015-11-22T19:00:00","44","13","15,76","3,8","257,3","28,2","55,3","0","0"],
    [15874,"2015-11-22T20:00:00","ND","ND","13,09","3,3","276,5","27,3","58,6","0","0"],
    [15875,"2015-11-22T21:00:00","74","25","10,34","0,7","3,9","26,4","64,5","0","0"],
    [15876,"2015-11-22T22:00:00","62","16","10,68","2,8","82,6","24,8","74,9","0","0"],
    [15877,"2015-11-22T23:00:00","61","13","11,09","1,3","80,2","24,4","74,7","0","0"],
    [15878,"2015-11-23T00:00:00","55","13","10,87","0,5","80,6","24,3","74,2","0","0"],
    [15879,"2015-11-23T01:00:00","45","11","10,68","1,9","181,1","23,6","78,1","0","0"],
    [15880,"2015-11-23T02:00:00","44","7","12,13","1,3","145,2","22,9","81,4","0","0"],
    [15881,"2015-11-23T03:00:00","40","9","12,87","0,7","82,8","22,7","81,1","0","0"],
    [15882,"2015-11-23T04:00:00","40","6","10,2","0,2","66,9","22,7","81,1","0","0"],
    [15883,"2015-11-23T05:00:00","44","10","9,85","1,4","170,9","22,5","82,9","0","0"],
    [15884,"2015-11-23T06:00:00","57","14","8,85","0,4","185,6","22,5","83,5","0","0"],
    [15885,"2015-11-23T07:00:00","124","38","10,3","1,8","90,6","22,6","82,7","17,4","0"],
    [15886,"2015-11-23T08:00:00","90","25","11,05","2","94,1","23,3","81,4","77,8","0"],
    [15887,"2015-11-23T09:00:00","75","26","22,65","1,8","166,3","24,8","77,1","197,3","0"],
    [15888,"2015-11-23T10:00:00","46","20","38,68","2,4","185,5","26,3","70,8","253,7","0"],
    [15889,"2015-11-23T11:00:00","55","18","59,34","2,1","178,9","27,7","64,6","315","0"],
    [15890,"2015-11-23T12:00:00","50","11","70,72","2,1","112,5","29,1","58,4","366,2","0"],
    [15891,"2015-11-23T13:00:00","55","13","73,88","2,9","56,2","30,3","52","331,7","0"],
    [15892,"2015-11-23T14:00:00","48","18","84,26","3,9","65,3","31,2","49,5","268,3","0"],
    [15893,"2015-11-23T15:00:00","48","14","62,78","6,1","96,5","30,6","52,8","157,4","0"],
    [15894,"2015-11-23T16:00:00","37","13","40,35","4,4","247,2","29,1","54,9","59,3","0"],
    [15895,"2015-11-23T17:00:00","59","12","33,65","1,4","348","29,6","52,7","46,1","0"],
    [15896,"2015-11-23T18:00:00","55","7","25,41","1,5","280,4","28,7","57","12,8","0"],
    [15897,"2015-11-23T19:00:00","36","4","28,77","6,2","288,1","27,7","55,4","0","0"],
    [15898,"2015-11-23T20:00:00","76","18","12,46","2,6","57,8","26,7","63,6","0","0"],
    [15899,"2015-11-23T21:00:00","65","13","12,15","3,2","76,3","25,6","68,7","0","0"],
    [15900,"2015-11-23T22:00:00","49","18","12,52","2,5","332,6","25,1","70,9","0","0"],
    [15901,"2015-11-23T23:00:00","48","13","12,54","3,7","229,5","25,2","75,1","0","0"],
    [15902,"2015-11-24T00:00:00","45","21","23,76","3,5","192,3","24,9","75,8","0","0"],
    [15903,"2015-11-24T01:00:00","46","13","20,29","4,1","142,3","24,4","77,1","0","0"],
    [15904,"2015-11-24T02:00:00","18","10","28,12","1,2","185,7","23,5","81","0","0"],
    [15905,"2015-11-24T03:00:00","30","9","22,55","1,1","184,3","23,4","83","0","0"],
    [15906,"2015-11-24T04:00:00","39","17","18,01","0,8","54,2","23,2","84,4","0","0"],
    [15907,"2015-11-24T05:00:00","51","24","12,44","1,3","102,5","23","85,4","0","0"],
    [15908,"2015-11-24T06:00:00","48","14","10,75","1,4","170,9","23,2","85","0","0"],
    [15909,"2015-11-24T07:00:00","62","21","10,95","0,9","183,2","23","85,5","9,9","0"],
    [15910,"2015-11-24T08:00:00","69","20","12,93","1,8","186,3","23,7","84,5","61","0"],
    [15911,"2015-11-24T09:00:00","80","31","22,67","2,3","150,6","25","79,2","178,7","0"],
    [15912,"2015-11-24T10:00:00","54","19","45,41","0,9","178,5","26,5","71","308,5","0"],
    [15913,"2015-11-24T11:00:00","61","25","59,64","2,4","106","28","63,3","361,7","0"],
    [15914,"2015-11-24T12:00:00","38","20","72,84","2","111,4","28,9","57,9","304,5","0"],
    [15915,"2015-11-24T13:00:00","47","21","89,72","0,6","138,4","29,4","54,9","250,9","0"],
    [15916,"2015-11-24T14:00:00","60","20","81,97","3,2","73,4","30,2","52,5","180,9","0"],
    [15917,"2015-11-24T15:00:00","46","20","105,89","1,3","102,5","30,7","50,3","250,8","0"],
    [15918,"2015-11-24T16:00:00","50","13","67,29","3,8","33,5","30,1","52,9","99","0"],
    [15919,"2015-11-24T17:00:00","25","8","30,85","5,1","302,2","27,6","63,7","33,9","0"],
    [15920,"2015-11-24T18:00:00","40","6","18,54","5","313,4","27,8","56,9","6,7","0"],
    [15921,"2015-11-24T19:00:00","59","15","13,68","2,7","339,2","27,7","54,9","0","0"],
    [15922,"2015-11-24T20:00:00","64","7","11,93","3,2","121,2","26,2","64,8","0","0"],
    [15923,"2015-11-24T21:00:00","51","12","27,92","5,2","201,7","25,3","73,6","0","0"],
    [15924,"2015-11-24T22:00:00","36","13","28,04","3,5","177","24,6","78,3","0","0"],
    [15925,"2015-11-24T23:00:00","32","8","23,37","2,4","164,1","24,1","81,7","0","0"],
    [15926,"2015-11-25T00:00:00","29","6","18,19","1,4","80","23,6","85,2","0","0"],
    [15927,"2015-11-25T01:00:00","33","8","18,82","1,2","113,1","23,4","86,1","0","0"],
    [15928,"2015-11-25T02:00:00","26","6","23,45","1,7","184","23,6","85,3","0","0"],
    [15929,"2015-11-25T03:00:00","44","5","20,57","2","164,1","23,5","85,4","0","0"],
    [15930,"2015-11-25T04:00:00","36","5","16,44","1,6","142,7","23,2","86,3","0","0"],
    [15931,"2015-11-25T05:00:00","33","6","14,29","2,3","166,6","23","86,9","0","0"],
    [15932,"2015-11-25T06:00:00","54","17","11,6","2,6","100,5","22,8","87,2","0","0"],
    [15933,"2015-11-25T07:00:00","38","9","11,5","1,2","312,9","22,7","87,5","20,1","0"],
    [15934,"2015-11-25T08:00:00","77","22","13,19","2,5","31","23,5","86,2","77,5","0"],
    [15935,"2015-11-25T09:00:00","ND","ND","22,72","1,3","39,6","24,6","81,2","203","0"],
    [15936,"2015-11-25T10:00:00","43","18","34,42","1,3","199,4","26,6","69,3","347,3","0"],
    [15937,"2015-11-25T11:00:00","51","8","ND","2,1","132,4","28","62,6","394,2","0"],
    [15938,"2015-11-25T12:00:00","65","29","64,84","3,1","99,9","29,2","57,6","413,9","0"],
    [15939,"2015-11-25T13:00:00","45","19","76,51","2,9","94,5","30,2","51,2","429,1","0"],
    [15940,"2015-11-25T14:00:00","45","17","99,35","3","77","31,2","49,5","367,4","0"],
    [15941,"2015-11-25T15:00:00","55","21","116,94","2,3","83,1","31,8","47,7","221,2","0"],
    [15942,"2015-11-25T16:00:00","55","23","108,74","0,3","15,6","31,9","47,1","144,9","0"],
    [15943,"2015-11-25T17:00:00","30","13","47,31","6,3","301,7","31,2","46,3","55,1","0"],
    [15944,"2015-11-25T18:00:00","38","9","35,28","5,4","300,1","29,6","49,2","0","0"],
    [15945,"2015-11-25T19:00:00","71","20","17,94","1,8","1,4","28,5","55,2","0","0"],
    [15946,"2015-11-25T20:00:00","95","32","13,32","2,7","80,1","26,9","63,8","0","0"],
    [15947,"2015-11-25T21:00:00","73","18","13,09","2,9","78,2","25,3","71,4","0","0"],
    [15948,"2015-11-25T22:00:00","61","18","13,19","1,5","128,5","25,1","71,6","0","0"],
    [15949,"2015-11-25T23:00:00","62","11","14,76","1,5","211,1","24,9","72,6","0","0"],
    [15950,"2015-11-26T00:00:00","75","26","11,05","1,3","146","25,1","73,4","0","0"],
    [15951,"2015-11-26T01:00:00","51","16","12,4","1,8","116,4","24,1","75,9","0","0"],
    [15952,"2015-11-26T02:00:00","65","11","12,23","2,1","116,1","23,4","79","0","0"],
    [15953,"2015-11-26T03:00:00","57","12","11,7","0,8","151","23,5","78,5","0","0"],
    [15954,"2015-11-26T04:00:00","69","27","11,17","0,6","171","23,8","78,2","0","0"],
    [15955,"2015-11-26T05:00:00","90","26","12,44","1","44,9","23,6","79,9","0","0"],
    [15956,"2015-11-26T06:00:00","85","28","11,44","0,7","135,6","23,3","80,8","0","0"],
    [15957,"2015-11-26T07:00:00","104","32","10,64","2,1","125,6","23,6","80,5","15,2","0"],
    [15958,"2015-11-26T08:00:00","88","24","14,93","2","118,6","24,4","77,8","116,2","0"],
    [15959,"2015-11-26T09:00:00","67","24","31,65","1,4","172,1","26","71,2","221,8","0"],
    [15960,"2015-11-26T10:00:00","73","32","39,11","2,6","169,4","27","65,8","124,9","0"],
    [15961,"2015-11-26T11:00:00","85","27","42,92","4","137,3","27,3","64,5","216,1","0"],
    [15962,"2015-11-26T12:00:00","76","23","65,35","3,2","175,2","29","58,9","461,9","0"],
    [15963,"2015-11-26T13:00:00","48","19","91,01","1,9","162,7","30,2","52,3","436,1","0"],
    [15964,"2015-11-26T14:00:00","57","23","107,38","2,4","107,3","31,2","49,8","378,3","0"],
    [15965,"2015-11-26T15:00:00","73","26","113,13","3,8","84,6","31,9","48,7","301,4","0"],
    [15966,"2015-11-26T16:00:00","81","27","135,86","4,3","47,4","32,4","47,2","165,9","0"],
    [15967,"2015-11-26T17:00:00","66","15","68,68","5,1","37,2","31,9","47,6","83,1","0"],
    [15968,"2015-11-26T18:00:00","69","12","27,63","4,9","14,7","30,1","51,6","5,9","0"],
    [15969,"2015-11-26T19:00:00","98","26","16,9","2,3","70,6","28,9","55,1","0","0"],
    [15970,"2015-11-26T20:00:00","65","17","31,63","3,9","160,9","27,1","58,5","0","0"],
    [15971,"2015-11-26T21:00:00","45","13","49,69","5,8","198","25,4","67","0","0"],
    [15972,"2015-11-26T22:00:00","28","7","38,74","4,6","200,4","24,5","73,9","0","0"],
    [15973,"2015-11-26T23:00:00","41","18","30,14","3,3","178,8","24,2","76,8","0","0"],
    [15974,"2015-11-27T00:00:00","34","6","27,2","1,6","210,8","23,9","78,6","0","0"],
    [15975,"2015-11-27T01:00:00","64","27","19,53","1,5","73,5","24","78,4","0","0"],
    [15976,"2015-11-27T02:00:00","43","9","15,13","3,4","92,1","23,3","82,1","0","0"],
    [15977,"2015-11-27T03:00:00","51","17","21,76","1,5","180,9","23,3","82,9","0","0"],
    [15978,"2015-11-27T04:00:00","60","14","21,57","1,6","126,3","23,3","82,7","0","0"],
    [15979,"2015-11-27T05:00:00","80","19","13,46","1,7","95,1","23,1","84","0","0"],
    [15980,"2015-11-27T06:00:00","83","22","10,95","1,4","155,8","23","84,5","0","0"],
    [15981,"2015-11-27T07:00:00","87","20","11,5","0,9","160,3","23,1","84,7","23,8","0"],
    [15982,"2015-11-27T08:00:00","99","26","14,58","2,6","101,3","23,9","83,2","91,8","0"],
    [15983,"2015-11-27T09:00:00","88","24","22,7","1,5","38,4","25,3","77,1","190,6","0"],
    [15984,"2015-11-27T10:00:00","62","24","31,79","3,4","25,7","27,2","66,6","262,1","0"],
    [15985,"2015-11-27T11:00:00","58","24","60,09","2,1","68","28,6","59,2","285,7","0"],
    [15986,"2015-11-27T12:00:00","51","19","98,02","0,7","9,9","29,9","54,4","416,8","0"],
    [15987,"2015-11-27T13:00:00","53","16","96,8","2,6","51,4","31,1","50,4","418,5","0"],
    [15988,"2015-11-27T14:00:00","61","35","108,68","3,3","356,3","31,7","47,6","304,4","0"],
    [15989,"2015-11-27T15:00:00","46","18","80,14","5","38","32,4","45,8","305,9","0"],
    [15990,"2015-11-27T16:00:00","37","5","43,03","5,7","49,4","31,8","46,6","80,1","0"],
    [15991,"2015-11-27T17:00:00","45","10","45,72","3,1","297","31","45,8","45,3","0"],
    [15992,"2015-11-27T18:00:00","49","11","39,46","5,4","294,2","30,1","45,1","4,6","0"],
    [15993,"2015-11-27T19:00:00","54","14","19,45","3,1","299","29,5","48","0","0"],
    [15994,"2015-11-27T20:00:00","83","31","23,82","1,6","212,2","28,6","55,6","0","0"],
    [15995,"2015-11-27T21:00:00","69","17","44,39","3,7","210,1","26,8","68,5","0","0"],
    [15996,"2015-11-27T22:00:00","79","29","35,38","2,4","179,5","26,8","67,1","0","0"],
    [15997,"2015-11-27T23:00:00","61","25","26,94","2,8","165,1","26,2","71,1","0","0"],
    [15998,"2015-11-28T00:00:00","83","29","20,76","1,3","126,9","25,6","73,7","0","0"],
    [15999,"2015-11-28T01:00:00","62","16","14,91","2,5","106,5","25","76,3","0","0"],
    [16000,"2015-11-28T02:00:00","47","10","14,21","1,9","91,3","24,6","77,9","0","0"],
    [16001,"2015-11-28T03:00:00","43","7","18,39","2,7","146,6","24,7","75,9","0","0"],
    [16002,"2015-11-28T04:00:00","40","12","16,88","2,2","181,4","24,4","77,6","0","0"],
    [16003,"2015-11-28T05:00:00","70","13","11,05","1,8","142","24,1","79,1","0","0"],
    [16004,"2015-11-28T06:00:00","72","17","10,85","1,4","135,8","23,8","80,6","0","0"],
    [16005,"2015-11-28T07:00:00","73","21","10,99","1,2","172,2","24,1","79,8","7","0"],
    [16006,"2015-11-28T08:00:00","77","19","11,81","1,7","115,1","24,6","79,3","25,5","0"],
    [16007,"2015-11-28T09:00:00","108","27","13,6","3,3","85,9","24,6","78,6","49,5","0"],
    [16008,"2015-11-28T10:00:00","79","23","26,88","1,9","23,4","25,8","72,1","176,8","0"],
    [16009,"2015-11-28T11:00:00","65","20","37,38","2","346,9","27,5","65","258,8","0"],
    [16010,"2015-11-28T12:00:00","72","18","50,16","2,9","2,4","28,5","60,4","256,3","0"],
    [16011,"2015-11-28T13:00:00","55","16","58,26","4","28,7","29,8","55,4","298,5","0"],
    [16012,"2015-11-28T14:00:00","45","9","41,6","4,8","48,2","30,4","54,1","239,6","0"],
    [16013,"2015-11-28T15:00:00","42","7","56,73","4,5","29,6","30,8","52,2","216,9","0"],
    [16014,"2015-11-28T16:00:00","48","8","40,95","5,3","50,3","31,1","47,6","126,5","0"],
    [16015,"2015-11-28T17:00:00","44","9","33,91","4,9","31,8","30,6","48,1","91","0"],
    [16016,"2015-11-28T18:00:00","65","18","27,83","4,5","40,1","29,3","53,4","14,1","0"],
    [16017,"2015-11-28T19:00:00","52","14","22,35","3,9","36,4","28,1","56,9","0","0"],
    [16018,"2015-11-28T20:00:00","58","13","14,6","3,1","64","27,3","60,8","0","0"],
    [16019,"2015-11-28T21:00:00","41","11","12,83","1","26,8","27","61,6","0","0"],
    [16020,"2015-11-28T22:00:00","55","13","12,79","2,5","79","26,6","63,8","0","0"],
    [16021,"2015-11-28T23:00:00","47","14","11,15","1,2","90,1","25,5","73,2","0","0"],
    [16022,"2015-11-29T00:00:00","41","13","12,09","0,6","183,4","25,4","72,9","0","0"],
    [16023,"2015-11-29T01:00:00","49","10","11,91","1","207,9","25,1","75,5","0","0"],
    [16024,"2015-11-29T02:00:00","44","9","13,91","1,4","167,3","25,1","73,8","0","0"],
    [16025,"2015-11-29T03:00:00","41","6","10,87","1,8","55,8","24,5","77,9","0","0"],
    [16026,"2015-11-29T04:00:00","50","14","10,83","0,5","99,3","24,3","78,8","0","0"],
    [16027,"2015-11-29T05:00:00","73","10","9,81","0,7","179,6","24","80,6","0","0"],
    [16028,"2015-11-29T06:00:00","62","14","10,69","2,1","155,6","24,2","79,8","0","0"],
    [16029,"2015-11-29T07:00:00","76","ND","11,97","1,1","137,3","23,8","82,3","8,8","0"],
    [16030,"2015-11-29T08:00:00","59","23","16,62","1","148","24,8","77,9","100,3","0"],
    [16031,"2015-11-29T09:00:00","47","11","29,73","2","147,3","26,2","71","191,7","0"],
    [16032,"2015-11-29T10:00:00","53","13","51,61","1,8","159,4","27,4","66","299,9","0"],
    [16033,"2015-11-29T11:00:00","49","14","67,23","1,9","129,6","28,8","59,6","304,6","0"],
    [16034,"2015-11-29T12:00:00","51","15","81,81","1,9","149,7","30,4","53,3","431,2","0"],
    [16035,"2015-11-29T13:00:00","35","15","92,72","2,6","72,4","31,9","44,3","384,4","0"],
    [16036,"2015-11-29T14:00:00","46","9","95,49","4,8","95,1","32,6","43,6","361,6","0"],
    [16037,"2015-11-29T15:00:00","55","12","97,14","5,2","98,1","32,8","43,1","251,2","0"],
    [16038,"2015-11-29T16:00:00","56","18","99,45","4","74,3","32,8","43,1","151,2","0"],
    [16039,"2015-11-29T17:00:00","56","19","90,52","3,6","17,1","32,5","45","60,2","0"],
    [16040,"2015-11-29T18:00:00","50","10","62,84","5,6","286,7","31","50","14,1","0"],
    [16041,"2015-11-29T19:00:00","47","13","48,57","4,2","296,4","29,6","54,1","0","0"],
    [16042,"2015-11-29T20:00:00","40","15","38,19","2","317,5","29,3","54,9","0","0"],
    [16043,"2015-11-29T21:00:00","92","15","17,5","4,7","97","27,1","67,4","0","0"],
    [16044,"2015-11-29T22:00:00","101","48","16,33","2,6","33,2","26,7","67,9","0","0"],
    [16045,"2015-11-29T23:00:00","44","6","20,21","2,5","26,7","26,9","66","0","0"],
    [16046,"2015-11-30T00:00:00","48","11","15,58","2,2","88,8","26,4","69","0","0"],
    [16047,"2015-11-30T01:00:00","61","12","11,99","2,5","106,2","25,2","74,5","0","0"],
    [16048,"2015-11-30T02:00:00","49","8","12,46","1,8","155,7","24,7","77,3","0","0"],
    [16049,"2015-11-30T03:00:00","45","11","13,4","1,1","118,7","25","76,4","0","0"],
    [16050,"2015-11-30T04:00:00","57","18","13,09","1,4","177,6","25","76,4","0","0"],
    [16051,"2015-11-30T05:00:00","75","21","10,73","1,9","179,4","24,7","79,1","0","0"],
    [16052,"2015-11-30T06:00:00","102","34","11,46","1,7","103,6","24,6","79,5","0","0"],
    [16053,"2015-11-30T07:00:00","116","31","11,24","0,9","94,2","24,4","81,1","28,4","0"],
    [16054,"2015-11-30T08:00:00","82","21","12,21","2,4","119,5","24,9","78,1","68","0"],
    [16055,"2015-11-30T09:00:00","69","23","30,3","2,7","190,1","26,7","71,1","222,5","0"],
    [16056,"2015-11-30T10:00:00","49","14","55,3","3,8","176","28,5","64","309,3","0"],
    [16057,"2015-11-30T11:00:00","58","14","73,63","1,4","174,8","30,1","58,4","383,4","0"],
    [16058,"2015-11-30T12:00:00","51","14","89,68","1,3","147,3","31,5","51,3","424,8","0"],
    [16059,"2015-11-30T13:00:00","54","23","93,74","3,6","77,5","32,6","47,1","406,3","0"],
    [16060,"2015-11-30T14:00:00","63","18","120,59","4,9","55,8","33,9","42,6","343,6","0"],
    [16061,"2015-11-30T15:00:00","56","13","92,09","5,4","39,8","34,8","40,4","240,4","0"],
    [16062,"2015-11-30T16:00:00","53","13","60,21","5,8","15,8","34,5","40","159,4","0"],
    [16063,"2015-11-30T17:00:00","52","9","49,43","4,7","6,1","33,4","41,5","66,6","0"],
    [16064,"2015-11-30T18:00:00","59","11","36,01","4,2","309,7","32,1","44,1","8,6","0"],
    [16065,"2015-11-30T19:00:00","59","13","26,3","4,7","296,2","31","47,6","0","0"],
    [16066,"2015-11-30T20:00:00","47","16","20,21","1,9","314,3","30,3","50,9","0","0"],
    [16067,"2015-11-30T21:00:00","60","14","13,25","4,1","106,9","28,1","63","0","0"],
    [16068,"2015-11-30T22:00:00","64","19","12,3","3,3","71,1","27,3","68","0","0"],
    [16069,"2015-11-30T23:00:00","41","8","15,8","2","50,9","27","67,5","0","0"],
    [16070,"2015-12-01T00:00:00","40","9","13,76","2,9","83,8","26,4","69,7","0","0"],
    [16071,"2015-12-01T01:00:00","47","5","13,64","3,1","83,8","25,9","72,9","0","0"],
    [16072,"2015-12-01T02:00:00","36","14","18,35","1,8","355,4","26","71,7","0","0"],
    [16073,"2015-12-01T03:00:00","35","14","21,9","1,1","345,9","26","71","0","0"],
    [16074,"2015-12-01T04:00:00","28","10","18,74","0,2","151,6","25,8","71,9","0","0"],
    [16075,"2015-12-01T05:00:00","47","10","13,7","2,4","137,9","25,3","74,9","0","0"],
    [16076,"2015-12-01T06:00:00","84","30","10,99","1,6","167,7","25,1","77,3","0","0"],
    [16077,"2015-12-01T07:00:00","91","33","12,01","3,3","213,7","25","79,5","27,6","0"],
    [16078,"2015-12-01T08:00:00","83","23","19,78","1,5","159,6","26,1","75,1","121,9","0"],
    [16079,"2015-12-01T09:00:00","85","27","33,67","2,7","129,8","27,6","69,5","232,9","0"],
    [16080,"2015-12-01T10:00:00","92","33","53,55","2,8","99","29","63,9","274,4","0"],
    [16081,"2015-12-01T11:00:00","59","17","60,7","3,9","54,3","30,5","58","328","0"],
    [16082,"2015-12-01T12:00:00","49","11","74,67","3,5","16,6","31,6","52,3","374","0"],
    [16083,"2015-12-01T13:00:00","47","13","75,49","4,8","71,4","32,8","46,6","415,3","0"],
    [16084,"2015-12-01T14:00:00","32","10","90,37","3,5","43,4","33,4","43,1","383,5","0"],
    [16085,"2015-12-01T15:00:00","43","9","91,84","3,3","63,5","33,8","40,3","238,4","0"],
    [16086,"2015-12-01T16:00:00","56","14","72,25","4","88","33,6","40,4","93,4","0"],
    [16087,"2015-12-01T17:00:00","66","8","66,74","3,6","278,3","32,8","44","45,7","0"],
    [16088,"2015-12-01T18:00:00","63","8","33,93","3,9","302","31,5","48,3","4,3","0"],
    [16089,"2015-12-01T19:00:00","78","14","20,72","3,5","309,8","30,4","52,8","0","0"],
    [16090,"2015-12-01T20:00:00","91","24","13,97","3,8","75","28,9","61,5","0","0"],
    [16091,"2015-12-01T21:00:00","67","20","15,05","4,5","57,7","27,6","66,3","0","0"],
    [16092,"2015-12-01T22:00:00","70","30","14,82","1,3","86,6","27,6","65,9","0","0"],
    [16093,"2015-12-01T23:00:00","42","10","15,42","2,7","83,8","26,8","68","0","0"],
    [16094,"2015-12-02T00:00:00","31","5","16,48","2,6","117,3","26,1","69,9","0","0"],
    [16095,"2015-12-02T01:00:00","35","5","18,21","2,1","179,7","25,8","72,2","0","0"],
    [16096,"2015-12-02T02:00:00","47","6","12,6","2,2","176,4","25,5","77,6","0","0"],
    [16097,"2015-12-02T03:00:00","45","3","13,23","1,9","176,3","24,8","80,3","0","0"],
    [16098,"2015-12-02T04:00:00","57","19","14,31","1,7","233,1","25,2","77,3","0","0"],
    [16099,"2015-12-02T05:00:00","72","25","11,81","1,8","91,5","25,1","76,7","0","0"],
    [16100,"2015-12-02T06:00:00","84","20","11,48","1,6","161","24,3","80,3","0","0"],
    [16101,"2015-12-02T07:00:00","82","23","13,27","2,7","201,5","24,3","81,2","25","0"],
    [16102,"2015-12-02T08:00:00","76","18","24,1","2,8","218,2","25,8","75,4","122,8","0"],
    [16103,"2015-12-02T09:00:00","56","17","44,21","2,5","208,9","27,9","65","198","0"],
    [16104,"2015-12-02T10:00:00","76","25","53,75","3,4","113,8","29","61,5","314,4","0"],
    [16105,"2015-12-02T11:00:00","68","25","89,07","2,2","96,9","30,1","55,5","389,1","0"],
    [16106,"2015-12-02T12:00:00","76","26","144,04","2,5","61,5","31,5","49,2","423","0"],
    [16107,"2015-12-02T13:00:00","66","25","138,72","2,7","93,8","33,1","39,6","395,1","0"],
    [16108,"2015-12-02T14:00:00","42","13","115,76","2,9","104,4","34","33,5","363,7","0"],
    [16109,"2015-12-02T15:00:00","39","11","100,92","2,6","169,3","34,2","32,6","244,5","0"],
    [16110,"2015-12-02T16:00:00","48","13","82,97","3,3","147,7","34,5","30,6","162,8","0"],
    [16111,"2015-12-02T17:00:00","68","18","67,02","3,7","69,8","34,2","33,5","104,8","0"],
    [16112,"2015-12-02T18:00:00","66","16","48,96","4,5","16,7","32,1","45,3","15,5","0"],
    [16113,"2015-12-02T19:00:00","115","35","25,84","2,8","358,1","30,5","50,6","0","0"],
    [16114,"2015-12-02T20:00:00","137","46","17,54","1,1","46,3","29,6","53,7","0","0"],
    [16115,"2015-12-02T21:00:00","71","18","19,02","1,8","153,6","27,7","61,6","0","0"],
    [16116,"2015-12-02T22:00:00","95","29","18,19","2,1","120,2","27,4","61,8","0","0"],
    [16117,"2015-12-02T23:00:00","64","20","18,17","2,6","90","26","68,4","0","0"],
    [16118,"2015-12-03T00:00:00","62","13","19,68","2,3","82,8","25,5","70,5","0","0"],
    [16119,"2015-12-03T01:00:00","60","18","20,82","1,9","96,7","24,7","73,9","0","0"],
    [16120,"2015-12-03T02:00:00","49","14","27,3","0,2","11,1","24,8","72,1","0","0"],
    [16121,"2015-12-03T03:00:00","60","19","18,58","2","126","24,2","72,4","0","0"],
    [16122,"2015-12-03T04:00:00","103","50","20,13","1,7","228,2","23,9","70,4","0","0"],
    [16123,"2015-12-03T05:00:00","55","13","19,09","2,1","191,7","23,5","68,6","0","0"],
    [16124,"2015-12-03T06:00:00","64","23","19,11","2,4","175,7","22,8","70,3","0","0"],
    [16125,"2015-12-03T07:00:00","122","21","19,88","2","122","22,2","74,3","32,3","0"],
    [16126,"2015-12-03T08:00:00","87","22","22,49","1,1","104,8","23,7","68,9","72,7","0"],
    [16127,"2015-12-03T09:00:00","ND","ND","25,02","2,7","114,8","24,6","66,8","103,8","0"],
    [16128,"2015-12-03T10:00:00","ND","ND","36,05","1,8","164,8","25,5","60,6","156,6","0"],
    [16129,"2015-12-03T11:00:00","ND","ND","ND","ND","ND","ND","ND","ND","ND"],
    [16130,"2015-12-03T12:00:00","ND","ND","ND","ND","ND","ND","ND","ND","ND"],
    [16131,"2015-12-03T13:00:00","73","15","ND","4,5","41,9","30,3","44,4","312,3","0"],
    [16132,"2015-12-03T14:00:00","65","15","ND","5,6","60,9","31,6","40,7","324,2","0"],
    [16133,"2015-12-03T15:00:00","80","17","ND","5,4","75","30,9","45,3","126,6","0"],
    [16134,"2015-12-03T16:00:00","85","26","ND","4,3","85,7","30,6","46,6","97,7","0"],
    [16135,"2015-12-03T17:00:00","99","23","ND","3,5","115,1","30,4","47,1","94,3","0"],
    [16136,"2015-12-03T18:00:00","120","31","ND","2,5","89","30","48,9","9,3","0"],
    [16137,"2015-12-03T19:00:00","150","48","ND","1,4","119,4","29,2","52,4","0","0"],
    [16138,"2015-12-03T20:00:00","175","55","ND","2,8","102,5","28,3","57,8","0","0"],
    [16139,"2015-12-03T21:00:00","184","59","ND","2,5","89,9","27,7","59,6","0","0"],
    [16140,"2015-12-03T22:00:00","164","52","ND","2,2","62,4","27,1","62,1","0","0"],
    [16141,"2015-12-03T23:00:00","125","33","ND","2,5","126,9","26,3","67,7","0","0"],
    [16142,"2015-12-04T00:00:00","62","14","ND","2","131,3","26,1","69,3","0","0"],
    [16143,"2015-12-04T01:00:00","127","33","ND","2,8","178,2","25,7","71,5","0","0"],
    [16144,"2015-12-04T02:00:00","131","40","ND","2,9","190,2","25,3","72,7","0","0"],
    [16145,"2015-12-04T03:00:00","103","40","ND","2,6","171,4","25,1","74","0","0"],
    [16146,"2015-12-04T04:00:00","88","27","ND","1,6","216,9","24,6","75,2","0","0"],
    [16147,"2015-12-04T05:00:00","69","23","ND","1","215,2","24,8","73","0","0"],
    [16148,"2015-12-04T06:00:00","94","34","ND","2,9","135,4","25","72","0","0"],
    [16149,"2015-12-04T07:00:00","106","35","ND","3","154,6","24,1","76,3","9,4","0"],
    [16150,"2015-12-04T08:00:00","121","38","ND","0,7","243,4","24,5","76,8","47","0"],
    [16151,"2015-12-04T09:00:00","118","42","ND","2,6","83","25,7","72,1","99,7","0"],
    [16152,"2015-12-04T10:00:00","99","28","ND","1,7","80,7","27,1","63,4","150,8","0"],
    [16153,"2015-12-04T11:00:00","97","33","ND","2,3","64,4","28","59,1","144","0"],
    [16154,"2015-12-04T12:00:00","103","31","ND","3,5","43,6","28,1","59,2","119,1","0"],
    [16155,"2015-12-04T13:00:00","72","20","ND","3,6","12,5","28,7","58,1","204,2","0"],
    [16156,"2015-12-04T14:00:00","58","22","ND","3,5","49,6","28,9","57","163,3","0"],
    [16157,"2015-12-04T15:00:00","66","19","ND","3,7","34","28,9","58,3","89,1","0"],
    [16158,"2015-12-04T16:00:00","69","24","ND","3,7","34,2","28,9","58,3","63,1","0"],
    [16159,"2015-12-04T17:00:00","70","24","ND","3,1","49,2","28,9","58,7","35,5","0"],
    [16160,"2015-12-04T18:00:00","93","25","ND","2,5","42,7","28,6","59,5","6,7","0"],
    [16161,"2015-12-04T19:00:00","129","46","ND","2,8","77,9","27,8","63,8","0","0"],
    [16162,"2015-12-04T20:00:00","98","28","ND","2,2","56,8","27,1","65,4","0","0"],
    [16163,"2015-12-04T21:00:00","97","33","ND","2,1","92","26,3","67,8","0","0"],
    [16164,"2015-12-04T22:00:00","86","24","ND","1,1","113,7","26,1","68,5","0","0"],
    [16165,"2015-12-04T23:00:00","108","29","ND","1,6","64,6","26","69","0","0"],
    [16166,"2015-12-05T00:00:00","97","30","ND","0,7","58,6","25,4","72,3","0","0"],
    [16167,"2015-12-05T01:00:00","111","35","ND","1,9","81,7","25,1","73,5","0","0"],
    [16168,"2015-12-05T02:00:00","66","23","ND","2","56,8","24,6","75,2","0","0"],
    [16169,"2015-12-05T03:00:00","72","18","ND","2","102,3","24,1","77,3","0","0"],
    [16170,"2015-12-05T04:00:00","85","14","ND","1,4","189,6","24","78,6","0","0"],
    [16171,"2015-12-05T05:00:00","69","25","ND","1,7","250,4","24,3","76","0","0"],
    [16172,"2015-12-05T06:00:00","81","28","ND","1,5","203,6","24,6","74,5","0","0"],
    [16173,"2015-12-05T07:00:00","134","43","ND","3,1","94,8","24,2","78","13,9","0"],
    [16174,"2015-12-05T08:00:00","125","44","ND","2,6","104,3","25,1","75,7","58,5","0"],
    [16175,"2015-12-05T09:00:00","109","44","ND","1,5","147,8","25,9","72,3","162,2","0"],
    [16176,"2015-12-05T10:00:00","94","37","ND","1,4","214","28,1","62,8","325,8","0"],
    [16177,"2015-12-05T11:00:00","86","31","ND","1,9","171,7","29,5","56,3","381,3","0"],
    [16178,"2015-12-05T12:00:00","82","29","ND","2,8","50,9","30,7","49,9","308","0"],
    [16179,"2015-12-05T13:00:00","68","23","ND","3,2","75,9","31,1","47,8","358","0"],
    [16180,"2015-12-05T14:00:00","63","22","ND","3,2","60","32","43,9","260,1","0"],
    [16181,"2015-12-05T15:00:00","74","22","ND","3,8","25,4","31,9","44,9","150,6","0"],
    [16182,"2015-12-05T16:00:00","48","9","ND","4,2","1,6","31,4","46,1","81,1","0"],
    [16183,"2015-12-05T17:00:00","51","13","ND","3,5","319,1","30,9","45,7","37,5","0"],
    [16184,"2015-12-05T18:00:00","52","10","ND","4,5","285,5","29,8","48","6,7","0"],
    [16185,"2015-12-05T19:00:00","58","17","ND","3,6","294,6","29,2","48,9","0","0"],
    [16186,"2015-12-05T20:00:00","127","56","ND","2,5","77,6","27,9","57,3","0","0"],
    [16187,"2015-12-05T21:00:00","118","18","ND","2,9","86","26,3","66","0","0"],
    [16188,"2015-12-05T22:00:00","65","16","ND","3,8","62,7","25,6","68,4","0","0"],
    [16189,"2015-12-05T23:00:00","53","11","ND","2,8","37,7","25,6","67,2","0","0"],
    [16190,"2015-12-06T00:00:00","68","21","ND","3,6","83,3","24,8","70,7","0","0"],
    [16191,"2015-12-06T01:00:00","66","11","ND","0,8","130,5","23,8","74,6","0","0"],
    [16192,"2015-12-06T02:00:00","68","15","ND","0,8","185,7","23,8","75,2","0","0"],
    [16193,"2015-12-06T03:00:00","74","17","ND","1,8","151","24","75,1","0","0"],
    [16194,"2015-12-06T04:00:00","76","22","ND","2,3","114,7","23,7","77,5","0","0"],
    [16195,"2015-12-06T05:00:00","80","18","ND","2,1","198,2","23,4","79,3","0","0"],
    [16196,"2015-12-06T06:00:00","87","15","ND","1,6","185,9","23,3","79,4","0","0"],
    [16197,"2015-12-06T07:00:00","95","20","ND","2,2","155,8","23,1","80,3","20,4","0"],
    [16198,"2015-12-06T08:00:00","98","32","ND","2,8","103,4","23,7","77","67,3","0"],
    [16199,"2015-12-06T09:00:00","79","30","ND","1,8","147","25,4","70,4","209,7","0"],
    [16200,"2015-12-06T10:00:00","78","24","ND","1,5","158,8","27,6","61,8","300,6","0"],
    [16201,"2015-12-06T11:00:00","68","28","ND","3,3","130,1","29,9","54,1","378,1","0"],
    [16202,"2015-12-06T12:00:00","67","20","ND","3,3","114,4","31,5","46,1","397,4","0"],
    [16203,"2015-12-06T13:00:00","50","15","ND","2,8","96,1","32,3","42,9","394,6","0"],
    [16204,"2015-12-06T14:00:00","56","17","ND","4","90,9","32,9","40,2","321,7","0"],
    [16205,"2015-12-06T15:00:00","54","10","ND","4,6","83,4","33,4","39,4","257,4","0"],
    [16206,"2015-12-06T16:00:00","57","13","ND","3,1","0,1","33,6","39,3","162,2","0"],
    [16207,"2015-12-06T17:00:00","50","7","ND","6,7","297,4","31,6","44,4","24","0"],
    [16208,"2015-12-06T18:00:00","47","7","ND","5,9","293,4","30,4","48","0","0"],
    [16209,"2015-12-06T19:00:00","53","11","ND","3,2","315","29,6","51","0","0"],
    [16210,"2015-12-06T20:00:00","71","20","ND","3,9","97,9","27,5","61,5","0","0"],
    [16211,"2015-12-06T21:00:00","62","16","ND","2,4","69,9","26,9","64,1","0","0"],
    [16212,"2015-12-06T22:00:00","44","10","ND","2,1","95,2","26,7","64,3","0","0"],
    [16213,"2015-12-06T23:00:00","46","16","ND","3,4","113,1","26,4","64,7","0","0"],
    [16214,"2015-12-07T00:00:00","50","7","ND","2,1","97,2","25,5","69,1","0","0"],
    [16215,"2015-12-07T01:00:00","35","5","ND","1,1","337,2","25,5","69,1","0","0"],
    [16216,"2015-12-07T02:00:00","29","12","ND","1,8","50,1","25,5","68,8","0","0"],
    [16217,"2015-12-07T03:00:00","37","17","ND","1,6","77,6","24,8","72","0","0"],
    [16218,"2015-12-07T04:00:00","44","18","ND","1,1","347,5","24,7","71,8","0","0"],
    [16219,"2015-12-07T05:00:00","59","12","ND","1,3","134,4","25","72,3","0","0"],
    [16220,"2015-12-07T06:00:00","87","25","ND","2,8","93,6","23,9","76,4","0","0"],
    [16221,"2015-12-07T07:00:00","117","36","ND","1,4","122,3","23,7","79,1","10,1","0"],
    [16222,"2015-12-07T08:00:00","107","31","ND","1,6","243,9","24,9","74,6","68,4","0"],
    [16223,"2015-12-07T09:00:00","90","26","ND","2,7","69,1","26,8","67,2","172,7","0"],
    [16224,"2015-12-07T10:00:00","62","15","ND","3,5","92,6","28,1","61,9","266","0"],
    [16225,"2015-12-07T11:00:00","45","12","ND","0,7","96,2","29,5","55,1","379,2","0"],
    [16226,"2015-12-07T12:00:00","50","13","ND","2,9","116,8","30,4","51,2","253,7","0"],
    [16227,"2015-12-07T13:00:00","59","23","ND","0,9","86,8","30,9","48,9","270,6","0"],
    [16228,"2015-12-07T14:00:00","52","14","ND","4,1","29,5","31,2","49,4","196","0"],
    [16229,"2015-12-07T15:00:00","48","11","ND","3,9","26,6","31,5","48,3","234,7","0"],
    [16230,"2015-12-07T16:00:00","51","15","ND","3,8","57,3","31,8","46,1","149,6","0"],
    [16231,"2015-12-07T17:00:00","51","15","ND","3,3","46","31,4","46,7","47,1","0"],
    [16232,"2015-12-07T18:00:00","95","19","ND","2,8","359,7","30,5","49,3","12,5","0"],
    [16233,"2015-12-07T19:00:00","126","29","ND","2","332","29,3","52","0","0"],
    [16234,"2015-12-07T20:00:00","135","34","ND","1,3","12,2","28,7","53,7","0","0"],
    [16235,"2015-12-07T21:00:00","108","35","ND","3,4","98,5","26,6","64,6","0","0"],
    [16236,"2015-12-07T22:00:00","111","40","ND","3,2","99,8","25,4","69,6","0","0"],
    [16237,"2015-12-07T23:00:00","77","19","ND","2,7","74,7","25","70,7","0","0"],
    [16238,"2015-12-08T00:00:00","61","20","ND","2,4","56,4","25,1","69,7","0","0"],
    [16239,"2015-12-08T01:00:00","42","16","ND","2,1","63,2","25,3","68,8","0","0"],
    [16240,"2015-12-08T02:00:00","41","10","ND","2,5","75,7","24,7","71,6","0","0"],
    [16241,"2015-12-08T03:00:00","50","21","ND","1,5","129,6","24,5","72","0","0"],
    [16242,"2015-12-08T04:00:00","33","3","ND","1","133,3","24,4","72,6","0","0"],
    [16243,"2015-12-08T05:00:00","69","11","ND","2,1","170,2","24,3","74,6","0","0"],
    [16244,"2015-12-08T06:00:00","57","17","ND","2,6","163,9","23,9","77,9","0","0"],
    [16245,"2015-12-08T07:00:00","68","23","ND","1,7","191,6","24","78,6","22,6","0"],
    [16246,"2015-12-08T08:00:00","68","20","ND","2,3","198,6","25,1","74","106,1","0"],
    [16247,"2015-12-08T09:00:00","71","31","ND","3,2","125,9","26,7","66,4","200,5","0"],
    [16248,"2015-12-08T10:00:00","85","37","ND","1,9","111","27,9","61,6","295,6","0"],
    [16249,"2015-12-08T11:00:00","83","30","ND","1,9","175,3","30","53,5","375","0"],
    [16250,"2015-12-08T12:00:00","56","25","ND","2,2","83,4","31,7","46,5","412,9","0"],
    [16251,"2015-12-08T13:00:00","54","22","ND","3,3","101,8","32,5","42,9","402,6","0"],
    [16252,"2015-12-08T14:00:00","72","27","ND","2,1","69,8","33,4","39,4","343,9","0"],
    [16253,"2015-12-08T15:00:00","79","29","ND","3,1","53","34,1","37,9","293,6","0"],
    [16254,"2015-12-08T16:00:00","69","14","ND","3,4","352,9","34","37,3","142,6","0"],
    [16255,"2015-12-08T17:00:00","64","9","ND","7,8","294,4","32,4","40,7","41,6","0"],
    [16256,"2015-12-08T18:00:00","64","15","ND","7","298,4","30,5","46,2","6,8","0"],
    [16257,"2015-12-08T19:00:00","67","22","ND","5,1","316,1","29,9","48,9","0","0"],
    [16258,"2015-12-08T20:00:00","142","80","ND","4,3","90,4","28,2","57,8","0","0"],
    [16259,"2015-12-08T21:00:00","52","12","ND","2,4","38,6","27,7","60,2","0","0"],
    [16260,"2015-12-08T22:00:00","51","11","ND","2,2","101,3","27,5","61,2","0","0"],
    [16261,"2015-12-08T23:00:00","90","22","ND","1,8","206,8","26,9","65,2","0","0"],
    [16262,"2015-12-09T00:00:00","74","15","ND","2,5","189","26,6","66,6","0","0"],
    [16263,"2015-12-09T01:00:00","63","15","ND","1,3","318,1","25,1","73,2","0","0"],
    [16264,"2015-12-09T02:00:00","65","15","ND","1,4","239,9","26","69","0","0"],
    [16265,"2015-12-09T03:00:00","58","17","ND","2,5","108,7","25,5","71,2","0","0"],
    [16266,"2015-12-09T04:00:00","28","9","ND","2,5","114,1","24,7","74,2","0","0"],
    [16267,"2015-12-09T05:00:00","50","11","ND","1,4","241","25","73","0","0"],
    [16268,"2015-12-09T06:00:00","98","35","ND","1,7","161,7","25","74,2","0","0"],
    [16269,"2015-12-09T07:00:00","125","34","ND","3,1","126,9","24,6","77,3","15,1","0"],
    [16270,"2015-12-09T08:00:00","ND","ND","ND","3","171,2","25,5","71,8","85","0"],
    [16271,"2015-12-09T09:00:00","71","14","ND","3","186,3","27","65,8","182,1","0"],
    [16272,"2015-12-09T10:00:00","68","19","ND","1,8","201,2","28,7","59,6","283,4","0"],
    [16273,"2015-12-09T11:00:00","ND","ND","ND","1,2","354,4","30,2","52,5","353,3","0"],
    [16274,"2015-12-09T12:00:00","50","17","ND","3,8","67,6","31,5","48,3","388,5","0"],
    [16275,"2015-12-09T13:00:00","53","16","ND","1,6","70","31,9","44,9","374,3","0"],
    [16276,"2015-12-09T14:00:00","79","25","ND","4","89,6","33,2","40,5","336,8","0"],
    [16277,"2015-12-09T15:00:00","64","22","ND","3,5","91,1","33,5","38,4","249,1","0"],
    [16278,"2015-12-09T16:00:00","82","24","ND","1,6","308,3","33,5","38,9","120,9","0"],
    [16279,"2015-12-09T17:00:00","71","11","ND","6,7","300,9","31,6","45","48,8","0"],
    [16280,"2015-12-09T18:00:00","56","7","ND","6,2","302,7","29,9","51,4","10,6","0"],
    [16281,"2015-12-09T19:00:00","54","6","ND","2,5","350,7","29,1","53,9","0","0"],
    [16282,"2015-12-09T20:00:00","59","18","ND","3,2","92,4","27,5","61,9","0","0"],
    [16283,"2015-12-09T21:00:00","93","11","ND","7,1","203,2","26,1","66,7","0","0"],
    [16284,"2015-12-09T22:00:00","36","9","ND","3,4","146,1","25,4","69,2","0","0"],
    [16285,"2015-12-09T23:00:00","51","11","ND","2,1","119,9","24,3","73,4","0","0"],
    [16286,"2015-12-10T00:00:00","70","23","ND","2,8","105,4","24,2","73,9","0","0"],
    [16287,"2015-12-10T01:00:00","59","18","ND","0,3","104,3","24","74,8","0","0"],
    [16288,"2015-12-10T02:00:00","61","13","ND","2,2","120,4","23,6","76,4","0","0"],
    [16289,"2015-12-10T03:00:00","68","12","ND","2,3","155,7","23,2","78,5","0","0"],
    [16290,"2015-12-10T04:00:00","52","9","ND","2,1","138,9","23,1","78,8","0","0"],
    [16291,"2015-12-10T05:00:00","54","10","ND","1,3","204,1","23,3","78,1","0","0"],
    [16292,"2015-12-10T06:00:00","55","15","ND","1,7","206,9","23,5","78,9","0","0"],
    [16293,"2015-12-10T07:00:00","80","18","ND","2,3","186,1","23,5","79,5","15,9","0"],
    [16294,"2015-12-10T08:00:00","97","26","ND","2,5","143,6","23,7","80,1","74,3","0"],
    [16295,"2015-12-10T09:00:00","86","29","ND","1,8","141","25,9","71,8","162,7","0"],
    [16296,"2015-12-10T10:00:00","67","24","ND","3,3","127","27,7","63,2","274,9","0"],
    [16297,"2015-12-10T11:00:00","85","22","ND","2,6","165,4","28,9","58,4","311,7","0"],
    [16298,"2015-12-10T12:00:00","68","14","ND","1,4","173,6","30,6","51","397,4","0"],
    [16299,"2015-12-10T13:00:00","37","10","ND","2,7","173,9","32","43,7","360,9","0"],
    [16300,"2015-12-10T14:00:00","42","14","ND","2,5","126,2","32,6","41,4","366","0"],
    [16301,"2015-12-10T15:00:00","48","14","ND","2","90,8","33,1","39,1","272,7","0"],
    [16302,"2015-12-10T16:00:00","62","20","ND","3","67,6","33,6","38,7","159,7","0"],
    [16303,"2015-12-10T17:00:00","56","16","ND","5,2","27,7","33,2","41,5","68,9","0"],
    [16304,"2015-12-10T18:00:00","76","24","ND","4,7","355,7","31,9","45,1","15,8","0"],
    [16305,"2015-12-10T19:00:00","120","44","ND","2,6","333,5","30,4","49,5","0","0"],
    [16306,"2015-12-10T20:00:00","110","31","ND","1,7","321,5","29,5","52,7","0","0"],
    [16307,"2015-12-10T21:00:00","56","15","ND","3,9","85","27,1","63,3","0","0"],
    [16308,"2015-12-10T22:00:00","46","13","ND","3,3","80,8","25,8","68,9","0","0"],
    [16309,"2015-12-10T23:00:00","48","16","ND","2,8","75,5","25,5","69,4","0","0"],
    [16310,"2015-12-11T00:00:00","48","18","ND","1,6","55,5","25,3","69,5","0","0"],
    [16311,"2015-12-11T01:00:00","60","30","ND","1,2","70,7","25,5","68,6","0","0"],
    [16312,"2015-12-11T02:00:00","41","9","ND","0,9","85","25,1","70,2","0","0"],
    [16313,"2015-12-11T03:00:00","58","15","ND","0,7","196,3","24,8","72,3","0","0"],
    [16314,"2015-12-11T04:00:00","66","22","ND","2","65,8","24,4","73,3","0","0"],
    [16315,"2015-12-11T05:00:00","66","18","ND","1,8","80,8","23,5","75,5","0","0"],
    [16316,"2015-12-11T06:00:00","105","40","ND","1,7","182,7","23,5","78","0","0"],
    [16317,"2015-12-11T07:00:00","135","45","ND","1,3","109,3","23,5","80,5","16,4","0"],
    [16318,"2015-12-11T08:00:00","140","44","ND","1,4","54,5","24,4","77,8","110,7","0"],
    [16319,"2015-12-11T09:00:00","106","40","ND","2,5","144,9","26,7","68,1","198,9","0"],
    [16320,"2015-12-11T10:00:00","98","31","ND","3,1","121,8","28","62,5","255,9","0"],
    [16321,"2015-12-11T11:00:00","153","53","ND","2,7","109,8","29,3","57,2","310,6","0"],
    [16322,"2015-12-11T12:00:00","118","38","ND","1,9","58,5","30,7","51,6","374,8","0"],
    [16323,"2015-12-11T13:00:00","88","32","ND","2,9","84,4","32,1","45,6","362,5","0"],
    [16324,"2015-12-11T14:00:00","93","36","ND","3,4","57,8","32,6","42,7","228,1","0"],
    [16325,"2015-12-11T15:00:00","85","36","ND","3,3","75,9","33","40,5","253","0"],
    [16326,"2015-12-11T16:00:00","93","37","ND","3,1","65,7","33,3","39,4","128,7","0"],
    [16327,"2015-12-11T17:00:00","89","24","ND","0,9","330,5","32,4","42,3","58,2","0"],
    [16328,"2015-12-11T18:00:00","55","11","ND","6,3","304,6","30,6","46,6","8,6","0"],
    [16329,"2015-12-11T19:00:00","53","15","ND","4,7","308,7","29,3","51,1","0","0"],
    [16330,"2015-12-11T20:00:00","80","23","ND","3,3","74,2","28","58,7","0","0"],
    [16331,"2015-12-11T21:00:00","55","9","ND","2,6","106","26,7","64,9","0","0"],
    [16332,"2015-12-11T22:00:00","43","15","ND","3,3","96,2","25,8","68,2","0","0"],
    [16333,"2015-12-11T23:00:00","36","ND","ND","1,4","125,5","25,4","69,2","0","0"],
    [16334,"2015-12-12T00:00:00","54","7","ND","2,4","180,6","25,4","69,9","0","0"],
    [16335,"2015-12-12T01:00:00","70","19","ND","2,9","195","24,5","74,5","0","0"],
    [16336,"2015-12-12T02:00:00","49","5","ND","2,2","205,6","24,5","74,7","0","0"],
    [16337,"2015-12-12T03:00:00","56","14","ND","3,2","127,6","23,7","77,6","0","0"],
    [16338,"2015-12-12T04:00:00","73","15","ND","2,5","160,7","23,1","80,1","0","0"],
    [16339,"2015-12-12T05:00:00","114","56","ND","1,4","124,1","22,5","80,9","0","0"],
    [16340,"2015-12-12T06:00:00","80","24","ND","2","171,9","22,5","80,2","0","0"],
    [16341,"2015-12-12T07:00:00","75","16","ND","2","181,9","22,1","80,6","11,3","0"],
    [16342,"2015-12-12T08:00:00","107","36","ND","2","124,8","23,2","74,8","89,9","0"],
    [16343,"2015-12-12T09:00:00","73","27","ND","2,4","90,5","25,3","67,6","204,2","0"],
    [16344,"2015-12-12T10:00:00","71","23","ND","2,4","122,5","27,3","59,8","296,5","0"],
    [16345,"2015-12-12T11:00:00","69","19","ND","2,2","115,6","29,6","51,9","368","0"],
    [16346,"2015-12-12T12:00:00","57","17","ND","2","163,7","31,2","44,2","413,4","0"],
    [16347,"2015-12-12T13:00:00","57","11","ND","1,9","99,2","32","39,7","404,9","0"],
    [16348,"2015-12-12T14:00:00","64","20","ND","3,3","77,8","32,9","38","366,5","0"],
    [16349,"2015-12-12T15:00:00","56","18","ND","3,4","98,7","33,5","36,5","297,6","0"],
    [16350,"2015-12-12T16:00:00","59","21","ND","3,1","73","33,7","37,5","174,7","0"],
    [16351,"2015-12-12T17:00:00","99","4","ND","7,7","299,2","33,1","40","110,7","0"],
    [16352,"2015-12-12T18:00:00","55","5","ND","6,8","307,6","31,1","45,5","12,5","0"],
    [16353,"2015-12-12T19:00:00","45","4","ND","5,6","310,7","30,1","48,4","0","0"],
    [16354,"2015-12-12T20:00:00","57","16","ND","2,5","67,7","28,6","56,2","0","0"],
    [16355,"2015-12-12T21:00:00","49","13","ND","3,2","106,4","27,6","62,4","0","0"],
    [16356,"2015-12-12T22:00:00","55","14","ND","1,2","124,6","27,3","63,9","0","0"],
    [16357,"2015-12-12T23:00:00","66","15","ND","1,7","128,6","26,6","67,4","0","0"],
    [16358,"2015-12-13T00:00:00","71","27","ND","1,6","66,5","26,1","69,6","0","0"],
    [16359,"2015-12-13T01:00:00","41","10","ND","1,4","127,8","25,5","70,2","0","0"],
    [16360,"2015-12-13T02:00:00","38","9","ND","2,2","129,1","24,8","73,4","0","0"],
    [16361,"2015-12-13T03:00:00","63","14","ND","3,8","214,6","24,6","75,2","0","0"],
    [16362,"2015-12-13T04:00:00","69","19","ND","3","175,7","24,1","76,5","0","0"],
    [16363,"2015-12-13T05:00:00","64","9","ND","1,7","129,7","23,7","78","0","0"],
    [16364,"2015-12-13T06:00:00","67","21","ND","1,9","142,5","23,1","80,7","0","0"],
    [16365,"2015-12-13T07:00:00","65","19","ND","1,3","152,7","23,4","78,8","11,7","0"],
    [16366,"2015-12-13T08:00:00","72","23","ND","2,3","128,1","23,9","76,7","73,9","0"],
    [16367,"2015-12-13T09:00:00","75","16","ND","3,2","104,4","25,2","71,7","143,1","0"],
    [16368,"2015-12-13T10:00:00","78","26","ND","2,2","122","27,1","65,5","275,2","0"],
    [16369,"2015-12-13T11:00:00","66","19","ND","2,5","153,2","29,3","55,4","357,2","0"],
    [16370,"2015-12-13T12:00:00","49","16","ND","2,3","93,5","30,9","49","368,3","0"],
    [16371,"2015-12-13T13:00:00","58","17","ND","3,5","84,1","31,8","44,8","368,5","0"],
    [16372,"2015-12-13T14:00:00","60","24","ND","2,7","12,8","32,6","42,9","258,2","0"],
    [16373,"2015-12-13T15:00:00","43","11","ND","4,5","303,5","33,3","37,6","292,1","0"],
    [16374,"2015-12-13T16:00:00","31","6","ND","5,9","287,4","33,6","35,7","211","0"],
    [16375,"2015-12-13T17:00:00","57","ND","ND","7,9","299,3","32,5","39,3","108,4","0"],
    [16376,"2015-12-13T18:00:00","50","ND","ND","7,8","295","30,2","45,9","15,8","0"],
    [16377,"2015-12-13T19:00:00","44","10","ND","2,9","3,8","29,4","47,5","0","0"],
    [16378,"2015-12-13T20:00:00","56","12","ND","2,6","74,4","28,6","51,1","0","0"],
    [16379,"2015-12-13T21:00:00","40","9","ND","4,3","79,9","27,1","58,3","0","0"],
    [16380,"2015-12-13T22:00:00","46","9","ND","1,5","39,5","27","57,9","0","0"],
    [16381,"2015-12-13T23:00:00","41","17","ND","2,7","208,7","26,4","61,5","0","0"],
    [16382,"2015-12-14T00:00:00","64","15","ND","2,3","179,3","25,9","64,4","0","0"],
    [16383,"2015-12-14T01:00:00","51","12","ND","1,3","122,2","25,1","67,4","0","0"],
    [16384,"2015-12-14T02:00:00","41","15","ND","2,1","101,6","24,8","68,3","0","0"],
    [16385,"2015-12-14T03:00:00","32","7","ND","1,6","9,3","24,3","70,7","0","0"],
    [16386,"2015-12-14T04:00:00","35","11","ND","0,5","50","24,6","69,8","0","0"],
    [16387,"2015-12-14T05:00:00","58","27","ND","1,7","118,3","24,3","71,4","0","0"],
    [16388,"2015-12-14T06:00:00","81","24","ND","2,6","93,2","23,8","73,3","0","0"],
    [16389,"2015-12-14T07:00:00","72","31","ND","1","146,1","23,4","75,4","5,8","0"],
    [16390,"2015-12-14T08:00:00","70","26","ND","1,6","114,1","24,7","70,1","37,4","0"],
    [16391,"2015-12-14T09:00:00","59","19","ND","2,9","189","25,3","70,8","106","0"],
    [16392,"2015-12-14T10:00:00","75","18","ND","1,8","150,3","27","64,3","251,7","0"],
    [16393,"2015-12-14T11:00:00","53","12","ND","1,1","112,1","29,2","54,6","374,4","0"],
    [16394,"2015-12-14T12:00:00","49","10","ND","2","52,1","30,4","49,7","356,4","0"],
    [16395,"2015-12-14T13:00:00","53","12","ND","1,7","102,5","31,1","47,1","352,9","0"],
    [16396,"2015-12-14T14:00:00","49","17","ND","3,2","70,4","31,6","44,7","276,4","0"],
    [16397,"2015-12-14T15:00:00","69","24","ND","2,6","118,9","31,8","43,9","156,8","0"],
    [16398,"2015-12-14T16:00:00","72","28","ND","1,5","330,8","31,3","45,5","48,6","0"],
    [16399,"2015-12-14T17:00:00","61","18","ND","5,7","316,7","29,5","51,6","62,8","0"],
    [16400,"2015-12-14T18:00:00","41","10","ND","5,1","312,1","28,9","52,7","9,6","0"],
    [16401,"2015-12-14T19:00:00","55","12","ND","3,3","322,7","28,5","52,8","0","0"],
    [16402,"2015-12-14T20:00:00","70","23","ND","3,6","69,2","27,1","61,2","0","0"],
    [16403,"2015-12-14T21:00:00","87","17","ND","1,6","88,7","26,8","62,1","0","0"],
    [16404,"2015-12-14T22:00:00","64","16","ND","2,9","90,4","26,1","63,4","0","0"],
    [16405,"2015-12-14T23:00:00","66","14","ND","2,4","106,9","26,3","62,6","0","0"],
    [16406,"2015-12-15T00:00:00","48","7","ND","2,6","128,9","26","64,2","0","0"],
    [16407,"2015-12-15T01:00:00","92","38","ND","3,3","134,7","25,4","69","0","0"],
    [16408,"2015-12-15T02:00:00","47","20","ND","2","172,9","24,9","72,8","0","0"],
    [16409,"2015-12-15T03:00:00","44","16","ND","3,7","178,1","24,8","72,5","0","0"],
    [16410,"2015-12-15T04:00:00","44","17","ND","2,9","131,7","24,1","77,3","0","0"],
    [16411,"2015-12-15T05:00:00","34","17","ND","2","165,3","23,6","81","0","0"],
    [16412,"2015-12-15T06:00:00","38","10","ND","2,1","171,6","23,3","83","0","0"],
    [16413,"2015-12-15T07:00:00","48","10","ND","2,3","210,9","23,2","83,1","4,1","0"],
    [16414,"2015-12-15T08:00:00","48","21","ND","0,8","169,2","23,5","81,7","16,8","0"],
    [16415,"2015-12-15T09:00:00","ND","ND","ND","1,4","78,8","23,5","84,3","65,5","0"],
    [16416,"2015-12-15T10:00:00","24","21","14,99","1,3","189,5","24,5","81,8","191,8","0"],
    [16417,"2015-12-15T11:00:00","42","11","31,14","0,3","159,9","26,1","70,8","232,8","0"],
    [16418,"2015-12-15T12:00:00","29","17","42,76","2,2","142,4","27,7","64","355,1","0"],
    [16419,"2015-12-15T13:00:00","26","8","57,63","2,7","154,1","29,9","53,3","441","0"],
    [16420,"2015-12-15T14:00:00","36","9","53,32","3,9","96,3","30","52","249,1","0"],
    [16421,"2015-12-15T15:00:00","57","16","60,66","3,6","63,4","30,3","51,1","150,1","0"],
    [16422,"2015-12-15T16:00:00","37","16","71,21","2,5","60","30,8","49,1","205,7","0"],
    [16423,"2015-12-15T17:00:00","42","17","59,79","2,3","77,7","30,8","49,1","75,2","0"],
    [16424,"2015-12-15T18:00:00","75","28","26,94","3,8","76,8","30,1","53,4","11,3","0"],
    [16425,"2015-12-15T19:00:00","75","29","18,03","2,3","34,8","29,3","55,9","0","0"],
    [16426,"2015-12-15T20:00:00","49","20","5,57","2,8","299,9","28,4","56,1","0","0"],
    [16427,"2015-12-15T21:00:00","63","24","3,41","2,7","69,7","27","63,8","0","0"],
    [16428,"2015-12-15T22:00:00","43","8","3,38","3,5","84,6","25,3","74,3","0","0"],
    [16429,"2015-12-15T23:00:00","34","11","5,71","3,4","77","25,1","73,3","0","0"],
    [16430,"2015-12-16T00:00:00","34","15","5,46","1,6","57,1","25","72,6","0","0"],
    [16431,"2015-12-16T01:00:00","46","20","5,53","1,2","51,4","25","72,3","0","0"],
    [16432,"2015-12-16T02:00:00","30","6","5,2","3,1","75,6","24,5","73,8","0","0"],
    [16433,"2015-12-16T03:00:00","48","9","3,55","2,5","69,5","23,9","77,2","0","0"],
    [16434,"2015-12-16T04:00:00","18","9","6,55","0,7","66,9","24,2","76,1","0","0"],
    [16435,"2015-12-16T05:00:00","29","8","6,67","1,9","149,8","24,4","74,6","0","0"],
    [16436,"2015-12-16T06:00:00","75","21","3,06","2,3","172,8","24","77,8","0","0"],
    [16437,"2015-12-16T07:00:00","61","17","3,34","2,2","177,1","23,9","79,9","6,5","0"],
    [16438,"2015-12-16T08:00:00","64","18","9,3","2,4","161,6","24,7","77,4","92,2","0"],
    [16439,"2015-12-16T09:00:00","54","20","21,43","3,4","176,5","26,2","70,8","199,3","0"],
    [16440,"2015-12-16T10:00:00","65","17","39,09","2,4","166,2","28","63,3","313","0"],
    [16441,"2015-12-16T11:00:00","45","18","62,66","2,3","132,6","29,6","55,9","403,4","0"],
    [16442,"2015-12-16T12:00:00","42","17","80,06","2","56,8","30,7","50,9","384,5","0"],
    [16443,"2015-12-16T13:00:00","51","19","97,69","2,8","68,5","31,9","47","372","0"],
    [16444,"2015-12-16T14:00:00","63","26","134,74","2,3","353","32,9","41,6","369,6","0"],
    [16445,"2015-12-16T15:00:00","78","31","117,96","3,6","53,5","33,9","38,5","280,4","0"],
    [16446,"2015-12-16T16:00:00","62","24","85,19","2,9","313,8","33,8","38,4","198,1","0"],
    [16447,"2015-12-16T17:00:00","51","12","57,65","7,8","297,1","33","39,5","98,5","0"],
    [16448,"2015-12-16T18:00:00","47","11","33,83","7,7","303,8","30,5","46,7","5,8","0"],
    [16449,"2015-12-16T19:00:00","47","17","19,25","5","309,5","29,7","48,9","0","0"],
    [16450,"2015-12-16T20:00:00","77","21","12,46","3,1","86,5","28,4","57,3","0","0"],
    [16451,"2015-12-16T21:00:00","65","18","6,59","1,4","20,6","27,8","60,8","0","0"],
    [16452,"2015-12-16T22:00:00","80","24","6,46","2,6","152,6","27,2","64","0","0"],
    [16453,"2015-12-16T23:00:00","62","19","6,93","1,9","140,8","26,9","65,1","0","0"],
    [16454,"2015-12-17T00:00:00","89","25","7,2","2,5","158","26,3","67,4","0","0"],
    [16455,"2015-12-17T01:00:00","68","14","10,68","2","199","25,6","71,2","0","0"],
    [16456,"2015-12-17T02:00:00","58","14","9,79","1,4","125,8","25,6","71,7","0","0"],
    [16457,"2015-12-17T03:00:00","71","33","8,48","2,6","186,7","25,3","73,8","0","0"],
    [16458,"2015-12-17T04:00:00","65","27","7,22","1,2","148,9","24,9","76,9","0","0"],
    [16459,"2015-12-17T05:00:00","60","23","3,77","2,3","167,4","24,5","80,2","0","0"],
    [16460,"2015-12-17T06:00:00","54","27","4,4","1,5","328,9","24,6","80,3","0","0"],
    [16461,"2015-12-17T07:00:00","71","37","4,2","0,7","40,1","24,3","83,1","0","0"],
    [16462,"2015-12-17T08:00:00","80","37","3,32","2,4","151","24","84,7","8,4","0"],
    [16463,"2015-12-17T09:00:00","50","28","4,1","2,3","219,3","24,1","84","13,3","0"],
    [16464,"2015-12-17T10:00:00","35","15","8,75","3","309,4","24","76,9","50,9","0"],
    [16465,"2015-12-17T11:00:00","66","25","15,42","3,2","349,1","24,8","73","118,9","0"],
    [16466,"2015-12-17T12:00:00","66","23","12,6","3,9","12,8","25,5","74,4","122,4","0"],
    [16467,"2015-12-17T13:00:00","38","11","23,57","2,6","22,6","26,5","66,7","164,9","0"],
    [16468,"2015-12-17T14:00:00","24","10","40,62","2","2,2","27,5","58,5","242,6","0"],
    [16469,"2015-12-17T15:00:00","43","22","41,07","3,6","59,4","28,4","54,6","177","0"],
    [16470,"2015-12-17T16:00:00","43","10","22,23","4,1","66,2","28,4","53,4","93,8","0"],
    [16471,"2015-12-17T17:00:00","61","17","17,31","3,3","70,1","28,3","55,4","51,9","0"],
    [16472,"2015-12-17T18:00:00","63","14","17,6","2,1","60,2","28","57","14,8","0"],
    [16473,"2015-12-17T19:00:00","64","21","12,72","1","355,7","27,5","59,2","0","0"],
    [16474,"2015-12-17T20:00:00","108","48","7,59","1,9","56,6","27,1","63,1","0","0"],
    [16475,"2015-12-17T21:00:00","59","16","4,59","2,2","63,5","25,8","68,4","0","0"],
    [16476,"2015-12-17T22:00:00","73","38","5,55","1,2","80,6","25,7","67,7","0","0"],
    [16477,"2015-12-17T23:00:00","55","19","3,83","1,9","136","25,2","70,1","0","0"],
    [16478,"2015-12-18T00:00:00","56","19","5","1,3","36,2","25","72,4","0","0"],
    [16479,"2015-12-18T01:00:00","63","18","3,71","1,3","340,2","24,4","74,9","0","0"],
    [16480,"2015-12-18T02:00:00","98","34","5,51","1","29,3","24,4","75,4","0","0"],
    [16481,"2015-12-18T03:00:00","56","27","3,71","0,4","345,4","24,4","70,7","0","0"],
    [16482,"2015-12-18T04:00:00","71","20","3,85","1,4","176,7","24","75","0","0"],
    [16483,"2015-12-18T05:00:00","86","31","4,43","1,4","201","23,6","78","0","0"],
    [16484,"2015-12-18T06:00:00","112","62","6,5","1","182","23,4","78,1","0","0"],
    [16485,"2015-12-18T07:00:00","134","52","6,59","1,1","131","23,2","79,9","17,9","0"],
    [16486,"2015-12-18T08:00:00","98","41","7,42","1,8","81","24,3","76,4","80,1","0"],
    [16487,"2015-12-18T09:00:00","97","41","12,3","3","88,9","25,8","69,3","165,3","0"],
    [16488,"2015-12-18T10:00:00","76","31","44,06","0,7","15,3","27,6","61,6","295,4","0"],
    [16489,"2015-12-18T11:00:00","78","27","64,17","3,4","83,5","29,5","53,4","374,5","0"],
    [16490,"2015-12-18T12:00:00","41","13","71,27","2,5","67,5","31,1","43,6","413,3","0"],
    [16491,"2015-12-18T13:00:00","44","10","108,34","2,4","57,5","32,1","41,8","413,8","0"],
    [16492,"2015-12-18T14:00:00","62","21","137,88","2,4","63,2","33,1","39,7","332,3","0"],
    [16493,"2015-12-18T15:00:00","95","26","114,92","4,3","35,1","34","37,3","227,4","0"],
    [16494,"2015-12-18T16:00:00","81","15","63,56","5,4","304","32,4","40","49,6","0"],
    [16495,"2015-12-18T17:00:00","51","12","39,74","6,8","298,6","31,1","43,1","42,1","0"],
    [16496,"2015-12-18T18:00:00","44","8","29,67","6","304","30","46,3","0","0"],
    [16497,"2015-12-18T19:00:00","72","25","18,52","5,2","134,7","28,5","53,2","0","0"],
    [16498,"2015-12-18T20:00:00","70","23","25,2","2,8","224,6","26,6","62,9","0","0"],
    [16499,"2015-12-18T21:00:00","80","28","16,66","1,4","104,9","26,8","63,4","0","0"],
    [16500,"2015-12-18T22:00:00","53","17","16,7","4,1","193,3","25,1","74,3","0","0"],
    [16501,"2015-12-18T23:00:00","66","28","15,68","3,4","165,7","24,9","76,2","0","0"],
    [16502,"2015-12-19T00:00:00","64","26","12,81","2,7","144,3","24,3","77,2","0","0"],
    [16503,"2015-12-19T01:00:00","54","33","11,83","1,7","114,4","23,9","78,5","0","0"],
    [16504,"2015-12-19T02:00:00","75","39","12,46","2,1","142","24,2","76,3","0","0"],
    [16505,"2015-12-19T03:00:00","62","26","ND","2,8","201,9","24","76,2","0","0"],
    [16506,"2015-12-19T04:00:00","73","32","ND","1,8","165,5","23,8","78,7","0","0"],
    [16507,"2015-12-19T05:00:00","44","14","ND","1,1","160,4","23,4","81,2","0","0"],
    [16508,"2015-12-19T06:00:00","55","19","ND","0,8","137,3","23,6","79,8","0","0"],
    [16509,"2015-12-19T07:00:00","88","35","ND","1,6","91,6","23,5","82","0","0"],
    [16510,"2015-12-19T08:00:00","94","33","ND","1,3","130,3","24,2","79,6","46,9","0"],
    [16511,"2015-12-19T09:00:00","128","51","ND","1,3","82,2","25,4","73,8","103,2","0"],
    [16512,"2015-12-19T10:00:00","79","30","ND","1,1","114,5","27,3","64,7","283,7","0"],
    [16513,"2015-12-19T11:00:00","94","36","ND","2,8","103,3","28,6","58,3","222,1","0"],
    [16514,"2015-12-19T12:00:00","101","40","ND","2,4","129,2","29,2","56,3","224,5","0"],
    [16515,"2015-12-19T13:00:00","66","30","ND","3,4","125,9","29,7","54,3","193,6","0"],
    [16516,"2015-12-19T14:00:00","55","28","ND","1,5","114,4","30,8","49,1","320,8","0"],
    [16517,"2015-12-19T15:00:00","61","28","ND","2,3","67,7","32,2","43,9","318,1","0"],
    [16518,"2015-12-19T16:00:00","81","33","ND","3,6","60,7","32,8","42,7","207,7","0"],
    [16519,"2015-12-19T17:00:00","102","50","ND","3,8","83,4","32,1","45,4","23,6","0"],
    [16520,"2015-12-19T18:00:00","70","25","ND","0,9","258,4","31,1","48,9","5,3","0"],
    [16521,"2015-12-19T19:00:00","61","17","ND","3,3","295,8","30,1","49,9","0","0"],
    [16522,"2015-12-19T20:00:00","44","9","ND","3,9","294,2","28,9","53,8","0","0"],
    [16523,"2015-12-19T21:00:00","51","20","ND","3,6","97,1","27,5","63,2","0","0"],
    [16524,"2015-12-19T22:00:00","46","14","ND","1,8","76,8","26,3","69","0","0"],
    [16525,"2015-12-19T23:00:00","38","12","ND","2,9","92,9","26","69,8","0","0"],
    [16526,"2015-12-20T00:00:00","27","15","ND","0,7","166,6","25,4","71,4","0","0"],
    [16527,"2015-12-20T01:00:00","47","13","ND","1","258","25,5","71,3","0","0"],
    [16528,"2015-12-20T02:00:00","147","85","ND","2,4","119,5","25,1","74,6","0","0"],
    [16529,"2015-12-20T03:00:00","96","38","ND","1,6","76,3","24,1","79,4","0","0"],
    [16530,"2015-12-20T04:00:00","56","19","ND","2","143,4","24","77,9","0","0"],
    [16531,"2015-12-20T05:00:00","57","23","ND","2,1","161,4","24","78,1","0","0"],
    [16532,"2015-12-20T06:00:00","46","23","ND","2","154,8","23,6","79,8","0","0"],
    [16533,"2015-12-20T07:00:00","62","24","ND","2,4","183,4","23,2","81,4","14,1","0"],
    [16534,"2015-12-20T08:00:00","88","39","ND","1,9","137,7","23,9","79,3","78,9","0"],
    [16535,"2015-12-20T09:00:00","49","17","ND","2,9","153,4","25,6","68,9","189,8","0"],
    [16536,"2015-12-20T10:00:00","59","22","ND","1,8","199,3","27,6","61,1","292,1","0"],
    [16537,"2015-12-20T11:00:00","58","27","ND","1","165,2","29,3","55,8","354,9","0"],
    [16538,"2015-12-20T12:00:00","69","34","ND","2,2","135,2","30,6","51,3","403,7","0"],
    [16539,"2015-12-20T13:00:00","62","26","ND","2,7","86,5","32,2","45","405,5","0"],
    [16540,"2015-12-20T14:00:00","51","18","ND","2,4","75,2","33,3","39,8","369,7","0"],
    [16541,"2015-12-20T15:00:00","49","18","ND","2,4","100","33,8","38,1","307,3","0"],
    [16542,"2015-12-20T16:00:00","60","26","ND","3,2","122,3","34,3","35,8","216,2","0"],
    [16543,"2015-12-20T17:00:00","54","15","ND","2,2","305,4","34","37,5","129,7","0"],
    [16544,"2015-12-20T18:00:00","48","14","ND","5,5","294,6","32,3","42,4","23,7","0"],
    [16545,"2015-12-20T19:00:00","50","9","ND","5,5","313","30,3","48,2","0","0"],
    [16546,"2015-12-20T20:00:00","80","27","ND","3,3","54,5","29,2","54,5","0","0"],
    [16547,"2015-12-20T21:00:00","56","18","ND","2,3","87,5","27,7","60,6","0","0"],
    [16548,"2015-12-20T22:00:00","34","8","ND","3,1","85,4","26,3","67,2","0","0"],
    [16549,"2015-12-20T23:00:00","52","17","ND","2,8","76,4","26,1","67,7","0","0"],
    [16550,"2015-12-21T00:00:00","42","15","ND","2,7","85","25,4","70,3","0","0"],
    [16551,"2015-12-21T01:00:00","33","15","ND","1,6","123,7","25,3","70,7","0","0"],
    [16552,"2015-12-21T02:00:00","78","43","ND","0,2","28","25,3","70,5","0","0"],
    [16553,"2015-12-21T03:00:00","50","24","ND","0,5","214,6","25","71,9","0","0"],
    [16554,"2015-12-21T04:00:00","129","83","ND","1,9","157,9","24,6","73,7","0","0"],
    [16555,"2015-12-21T05:00:00","53","20","ND","2,3","145","23,2","77,8","0","0"],
    [16556,"2015-12-21T06:00:00","48","20","ND","2,3","166,6","22,7","74,6","0","0"],
    [16557,"2015-12-21T07:00:00","43","13","ND","3","172,9","22,4","73,8","15,1","0"],
    [16558,"2015-12-21T08:00:00","56","16","ND","2,5","202,2","23,3","69,6","91,9","0"],
    [16559,"2015-12-21T09:00:00","67","17","ND","0,8","101,9","25,9","62,6","198","0"],
    [16560,"2015-12-21T10:00:00","56","18","ND","3,4","95,8","27,7","56","275,4","0"],
    [16561,"2015-12-21T11:00:00","67","24","ND","3,7","127,1","29,3","53,3","359,2","0"],
    [16562,"2015-12-21T12:00:00","50","23","ND","2,6","168,4","31","46,4","416","0"],
    [16563,"2015-12-21T13:00:00","53","23","ND","2,2","190,8","32,1","42,5","409,4","0"],
    [16564,"2015-12-21T14:00:00","52","19","ND","0,6","121,9","33,1","38,7","378,7","0"],
    [16565,"2015-12-21T15:00:00","59","18","ND","4,1","78,2","34,1","36","300,6","0"],
    [16566,"2015-12-21T16:00:00","64","23","ND","3,6","32,2","34,3","35","183,1","0"],
    [16567,"2015-12-21T17:00:00","64","17","ND","5,8","344,6","33,5","38,6","121,9","0"],
    [16568,"2015-12-21T18:00:00","53","8","ND","6,1","308,7","31,7","42,9","26,1","0"],
    [16569,"2015-12-21T19:00:00","49","14","ND","4,5","301,9","30,1","47,9","0","0"],
    [16570,"2015-12-21T20:00:00","67","19","ND","1,7","353","29,3","50,3","0","0"],
    [16571,"2015-12-21T21:00:00","65","21","ND","3,5","102,3","27,1","61,6","0","0"],
    [16572,"2015-12-21T22:00:00","49","15","ND","4,2","97,4","26,1","66,7","0","0"],
    [16573,"2015-12-21T23:00:00","37","16","ND","0,6","19,1","25,6","68","0","0"],
    [16574,"2015-12-22T00:00:00","52","22","ND","1,8","227,7","25,8","67,5","0","0"],
    [16575,"2015-12-22T01:00:00","70","30","ND","1,5","170,6","25,6","69,3","0","0"],
    [16576,"2015-12-22T02:00:00","81","37","ND","1,6","122,9","24,8","73,1","0","0"],
    [16577,"2015-12-22T03:00:00","68","19","ND","2,4","116,4","23,6","77,4","0","0"],
    [16578,"2015-12-22T04:00:00","96","31","ND","1,4","133,3","23","80","0","0"],
    [16579,"2015-12-22T05:00:00","75","26","ND","1,5","192,6","23,3","79,1","0","0"],
    [16580,"2015-12-22T06:00:00","85","31","ND","1,7","143,7","23","78,1","0","0"],
    [16581,"2015-12-22T07:00:00","106","32","ND","2,3","129,9","22","81,2","16,1","0"],
    [16582,"2015-12-22T08:00:00","80","26","ND","2,8","165,7","22,6","78","100,3","0"],
    [16583,"2015-12-22T09:00:00","68","21","ND","1,6","137,9","24,9","69,6","204","0"],
    [16584,"2015-12-22T10:00:00","53","24","ND","2","63,3","27,3","60,2","296,2","0"],
    [16585,"2015-12-22T11:00:00","115","21","ND","3,1","81","29","54,1","366,9","0"],
    [16586,"2015-12-22T12:00:00","50","12","ND","2,9","74,9","30,8","48,3","399,7","0"],
    [16587,"2015-12-22T13:00:00","50","20","ND","3,6","59","32,2","43","361,2","0"],
    [16588,"2015-12-22T14:00:00","54","11","ND","3,3","87,3","33,5","38,6","374,2","0"],
    [16589,"2015-12-22T15:00:00","63","21","ND","3,1","93","33,5","36,9","211,1","0"],
    [16590,"2015-12-22T16:00:00","ND","ND","ND","5,8","306,1","34,1","35,8","192,8","0"],
    [16591,"2015-12-22T17:00:00","67","4","ND","ND","294,2","33,4","38","113,4","0"],
    [16592,"2015-12-22T18:00:00","42","9","ND","7,3","294,2","31,3","43,4","17,8","0,76"],
    [16593,"2015-12-22T19:00:00","61","15","ND","5,3","303,8","30","48,3","0","0"],
    [16594,"2015-12-22T20:00:00","58","20","ND","2","52,1","28,3","55,9","0","0"],
    [16595,"2015-12-22T21:00:00","54","24","ND","2,8","114,2","26,8","63","0","0"],
    [16596,"2015-12-22T22:00:00","45","12","ND","2,6","100","25,9","67,8","0","0"],
    [16597,"2015-12-22T23:00:00","52","13","ND","1,6","339,1","25,9","68","0","0"],
    [16598,"2015-12-23T00:00:00","89","33","ND","3,2","196,7","25,7","69,4","0","0"],
    [16599,"2015-12-23T01:00:00","62","16","ND","3","144,7","24,8","73,1","0","0"],
    [16600,"2015-12-23T02:00:00","56","25","ND","1,9","180,3","24,5","74,9","0","0"],
    [16601,"2015-12-23T03:00:00","87","20","ND","2,4","187,9","24,4","74,8","0","0"],
    [16602,"2015-12-23T04:00:00","87","29","ND","3","134,6","23,7","77,4","0","0"],
    [16603,"2015-12-23T05:00:00","68","18","ND","2,6","209,3","23,4","77,8","0","0"],
    [16604,"2015-12-23T06:00:00","80","23","ND","1,9","191,3","23,5","77,3","0","0"],
    [16605,"2015-12-23T07:00:00","122","41","ND","2,4","85,1","22,8","78,4","12,4","0"],
    [16606,"2015-12-23T08:00:00","108","37","ND","2,8","152,3","23,3","79,1","82,4","0"],
    [16607,"2015-12-23T09:00:00","58","11","ND","3,7","170,7","25,7","68,8","204,4","0"],
    [16608,"2015-12-23T10:00:00","61","19","ND","2,8","187,4","27,8","59,6","289,8","0"],
    [16609,"2015-12-23T11:00:00","59","18","ND","1,9","159,9","29,5","54","351,3","0"],
    [16610,"2015-12-23T12:00:00","54","14","ND","2,6","81,9","30,9","48,5","378,6","0"],
    [16611,"2015-12-23T13:00:00","61","17","ND","2","65,1","32,4","42,6","412,3","0"],
    [16612,"2015-12-23T14:00:00","63","16","ND","3,5","96,6","33,2","39,1","376,9","0"],
    [16613,"2015-12-23T15:00:00","99","21","ND","3,1","336,2","33,8","39,6","238,4","0"],
    [16614,"2015-12-23T16:00:00","88","9","ND","7,5","313,6","34,1","38,4","225,8","0"],
    [16615,"2015-12-23T17:00:00","49","11","ND","7,1","302,5","32,9","40,5","110,2","0"],
    [16616,"2015-12-23T18:00:00","48","8","ND","6","287,8","31,3","44,5","16,7","0"],
    [16617,"2015-12-23T19:00:00","45","13","ND","3,5","315,7","30,2","47,1","0","0"],
    [16618,"2015-12-23T20:00:00","101","34","ND","2,4","69,3","28,8","54,4","0","0"],
    [16619,"2015-12-23T21:00:00","52","13","ND","3","120,7","26,7","63","0","0"],
    [16620,"2015-12-23T22:00:00","41","10","ND","2,6","103,6","25,8","67,3","0","0"],
    [16621,"2015-12-23T23:00:00","30","8","ND","0,3","141,1","25,6","68,3","0","0"],
    [16622,"2015-12-24T00:00:00","57","17","ND","2,5","164,1","25,5","69,3","0","0"],
    [16623,"2015-12-24T01:00:00","57","12","ND","1,4","197,5","24,9","72,3","0","0"],
    [16624,"2015-12-24T02:00:00","65","24","ND","1,5","178,5","24,8","73,1","0","0"],
    [16625,"2015-12-24T03:00:00","73","28","ND","2,2","186,3","24,4","74,7","0","0"],
    [16626,"2015-12-24T04:00:00","86","25","ND","2","172","23,6","78,1","0","0"],
    [16627,"2015-12-24T05:00:00","74","15","ND","2,2","177,9","23,7","78","0","0"],
    [16628,"2015-12-24T06:00:00","84","27","ND","1,7","174,3","23,9","76,6","0","0"],
    [16629,"2015-12-24T07:00:00","98","36","ND","1,7","136,9","23,9","76,8","18,3","0"],
    [16630,"2015-12-24T08:00:00","109","42","ND","2,2","113,3","24,2","76,8","86,2","0"],
    [16631,"2015-12-24T09:00:00","69","24","ND","2","165,4","26,4","66,5","196,1","0"],
    [16632,"2015-12-24T10:00:00","74","24","ND","1,8","158,6","28","60,6","286,9","0"],
    [16633,"2015-12-24T11:00:00","85","26","ND","1,9","149,3","29,7","53,8","354,9","0"],
    [16634,"2015-12-24T12:00:00","79","25","ND","2,6","124,6","31,1","48,4","396,7","0"],
    [16635,"2015-12-24T13:00:00","79","32","ND","1,4","53,2","32,6","44,4","391,7","0"],
    [16636,"2015-12-24T14:00:00","85","35","ND","1,5","102,5","33,5","42","352,9","0"],
    [16637,"2015-12-24T15:00:00","66","28","ND","2,7","356","34","39,6","155,5","0"],
    [16638,"2015-12-24T16:00:00","54","15","ND","2,6","4,8","34,4","38,5","211,8","0"],
    [16639,"2015-12-24T17:00:00","55","20","ND","7,3","296,6","34,1","37,7","131,2","0"],
    [16640,"2015-12-24T18:00:00","48","11","ND","6,7","296,9","32,1","41,8","22,5","0"],
    [16641,"2015-12-24T19:00:00","51","14","ND","3,7","300,6","30,6","46,4","0","0"],
    [16642,"2015-12-24T20:00:00","76","39","ND","3,2","82,2","29","54,3","0","0"],
    [16643,"2015-12-24T21:00:00","50","16","ND","2,7","120,6","27,9","61,1","0","0"],
    [16644,"2015-12-24T22:00:00","44","14","ND","2,7","101,3","27,1","64,4","0","0"],
    [16645,"2015-12-24T23:00:00","57","24","ND","2,5","112,5","26,4","67,2","0","0"],
    [16646,"2015-12-25T00:00:00","52","12","ND","0,7","203,8","25,9","68,9","0","0"],
    [16647,"2015-12-25T01:00:00","97","38","ND","1,7","307,4","25,8","69,8","0","0"],
    [16648,"2015-12-25T02:00:00","102","42","ND","2,1","114","25,4","70,7","0","0"],
    [16649,"2015-12-25T03:00:00","71","30","ND","2","123,8","24,2","75,3","0","0"],
    [16650,"2015-12-25T04:00:00","55","27","ND","1,1","132,6","23,8","76,4","0","0"],
    [16651,"2015-12-25T05:00:00","66","27","ND","1,7","135,6","23,6","77,6","0","0"],
    [16652,"2015-12-25T06:00:00","82","16","ND","1,9","149,2","23,1","78,9","0","0"],
    [16653,"2015-12-25T07:00:00","69","26","ND","2,6","206","23","76,6","15,4","0"],
    [16654,"2015-12-25T08:00:00","76","21","ND","1,6","145,2","23,6","73,9","51,7","0"],
    [16655,"2015-12-25T09:00:00","75","22","ND","3,2","111","23,8","74,4","91,1","0"],
    [16656,"2015-12-25T10:00:00","73","22","ND","4,3","119,5","25,7","67,3","204,7","0"],
    [16657,"2015-12-25T11:00:00","48","15","ND","1,7","136,8","27,6","58,8","242,1","0"],
    [16658,"2015-12-25T12:00:00","48","22","ND","2,4","134,7","29,3","53,7","324,4","0"],
    [16659,"2015-12-25T13:00:00","34","8","ND","2","136,1","30,4","49,7","237,8","0"],
    [16660,"2015-12-25T14:00:00","51","16","ND","2,8","119","30,9","47,3","200,2","0"],
    [16661,"2015-12-25T15:00:00","40","20","ND","3,5","106,8","31,4","45,4","218,5","0"],
    [16662,"2015-12-25T16:00:00","41","17","ND","4,4","96,4","32","43,1","165,8","0"],
    [16663,"2015-12-25T17:00:00","48","15","ND","3,4","97,4","31,6","44,3","74,6","0"],
    [16664,"2015-12-25T18:00:00","52","21","ND","1,7","72","31,3","45,2","24","0"],
    [16665,"2015-12-25T19:00:00","55","8","ND","4,3","289,7","29,8","50,4","0","0"],
    [16666,"2015-12-25T20:00:00","40","12","ND","4,3","292,8","29","52,9","0","0"],
    [16667,"2015-12-25T21:00:00","53","15","ND","3,4","87,8","27,1","62,2","0","0"],
    [16668,"2015-12-25T22:00:00","38","11","ND","2,3","58,4","25,6","69,4","0","0"],
    [16669,"2015-12-25T23:00:00","43","15","ND","2,7","41,6","26","66,4","0","0"],
    [16670,"2015-12-26T00:00:00","28","18","ND","0,5","274,1","25,8","66,4","0","0"],
    [16671,"2015-12-26T01:00:00","118","28","ND","1,7","185,6","25,1","71,1","0","0"],
    [16672,"2015-12-26T02:00:00","93","34","ND","1,9","145,7","24,4","74,8","0","0"],
    [16673,"2015-12-26T03:00:00","75","28","ND","2,1","161,9","23,7","77,5","0","0"],
    [16674,"2015-12-26T04:00:00","90","27","ND","1,8","135,8","22,7","79,4","0","0"],
    [16675,"2015-12-26T05:00:00","115","40","ND","1,4","86,3","22,4","80,2","0","0"],
    [16676,"2015-12-26T06:00:00","81","31","ND","3","96,8","21,8","81,7","0","0"],
    [16677,"2015-12-26T07:00:00","94","32","ND","1,6","150","21,6","82,3","9,5","0"],
    [16678,"2015-12-26T08:00:00","101","28","ND","0,9","236,5","22,9","78,4","90","0"],
    [16679,"2015-12-26T09:00:00","110","38","ND","2,5","95,2","25,4","70,7","162,7","0"],
    [16680,"2015-12-26T10:00:00","76","32","ND","3","95,7","27,4","62,3","275,8","0"],
    [16681,"2015-12-26T11:00:00","53","21","ND","2,3","88,9","29,3","54,2","345,1","0"],
    [16682,"2015-12-26T12:00:00","48","19","ND","3,5","78,8","30,9","48,8","376,2","0"],
    [16683,"2015-12-26T13:00:00","53","20","ND","2,7","41,2","32,4","42,7","320,5","0"],
    [16684,"2015-12-26T14:00:00","57","25","ND","2,6","47,4","33,1","39,4","225","0"],
    [16685,"2015-12-26T15:00:00","47","24","ND","2,9","42,1","33,4","38","191,8","0"],
    [16686,"2015-12-26T16:00:00","44","9","ND","3,3","318,2","33,6","37,2","173,5","0"],
    [16687,"2015-12-26T17:00:00","42","6","ND","7,3","285,6","33","38,4","120,6","0"],
    [16688,"2015-12-26T18:00:00","47","5","ND","5,5","298,9","31,5","42","8,9","0"],
    [16689,"2015-12-26T19:00:00","56","13","ND","3,7","331","30,3","46,3","0","0"],
    [16690,"2015-12-26T20:00:00","104","36","ND","1,6","55,3","29,1","52,3","0","0"],
    [16691,"2015-12-26T21:00:00","ND","26","ND","2,9","86,1","26,6","64","0","0"],
    [16692,"2015-12-26T22:00:00","ND","17","ND","3,1","107,9","26,2","66,9","0","0"],
    [16693,"2015-12-26T23:00:00","ND","13","ND","0,5","114,4","25,8","68,5","0","0"],
    [16694,"2015-12-27T00:00:00","ND","26","ND","2,6","198","25,4","70","0","0"],
    [16695,"2015-12-27T01:00:00","ND","22","ND","2,1","145,8","25,1","72,4","0","0"],
    [16696,"2015-12-27T02:00:00","ND","23","ND","1,4","159,5","24,8","73,7","0","0"],
    [16697,"2015-12-27T03:00:00","ND","11","ND","1,8","169,1","25","72","0","0"],
    [16698,"2015-12-27T04:00:00","ND","26","ND","0,7","123,9","24,2","75,9","0","0"],
    [16699,"2015-12-27T05:00:00","ND","22","ND","2,6","104,3","24,1","76,8","0","0"],
    [16700,"2015-12-27T06:00:00","ND","24","ND","1,7","64,8","23,9","78","0","0"],
    [16701,"2015-12-27T07:00:00","ND","18","ND","2,2","139,6","24","77,1","5,6","0"],
    [16702,"2015-12-27T08:00:00","ND","36","ND","0,9","164,2","24,9","73,5","66,2","0"],
    [16703,"2015-12-27T09:00:00","ND","29","ND","1,3","123,3","27,2","64,4","214,9","0"],
    [16704,"2015-12-27T10:00:00","ND","29","ND","2,4","90,5","28,5","58,5","274,1","0"],
    [16705,"2015-12-27T11:00:00","ND","17","ND","1,4","113,5","30,2","49,9","367,2","0"],
    [16706,"2015-12-27T12:00:00","ND","11","ND","1,9","156","31,8","44,7","356,9","0"],
    [16707,"2015-12-27T13:00:00","ND","17","ND","2,1","193,6","32,9","41","411","0"],
    [16708,"2015-12-27T14:00:00","ND","16","ND","1,9","117","34,1","37,1","381,4","0"],
    [16709,"2015-12-27T15:00:00","ND","19","ND","2,9","82,3","34,9","34,3","305,9","0"],
    [16710,"2015-12-27T16:00:00","ND","28","ND","3,9","60","34,8","36,8","124,3","0"],
    [16711,"2015-12-27T17:00:00","ND","11","ND","5,5","290,8","33,8","39,4","80,1","0"],
    [16712,"2015-12-27T18:00:00","ND","10","ND","5,5","295,7","32,3","43,2","7,8","0"],
    [16713,"2015-12-27T19:00:00","ND","13","ND","5,5","295,3","31","47,2","0","0"],
    [16714,"2015-12-27T20:00:00","ND","27","ND","2,8","94,6","29,7","53,2","0","0"],
    [16715,"2015-12-27T21:00:00","ND","26","ND","3,5","76,6","27,7","61,8","0","0"],
    [16716,"2015-12-27T22:00:00","ND","13","ND","3","125,8","26,8","65,2","0","0"],
    [16717,"2015-12-27T23:00:00","ND","15","ND","2,5","94,4","26,6","66,3","0","0"],
    [16718,"2015-12-28T00:00:00","ND","20","ND","1,8","81,6","26,2","68","0","0"],
    [16719,"2015-12-28T01:00:00","ND","17","ND","1,6","215,4","25,8","70","0","0"],
    [16720,"2015-12-28T02:00:00","ND","20","ND","2,3","112,1","25,5","72,1","0","0"],
    [16721,"2015-12-28T03:00:00","ND","13","ND","2,3","105,9","25","74,3","0","0"],
    [16722,"2015-12-28T04:00:00","ND","23","ND","2,9","239,9","24,9","74,1","0","0"],
    [16723,"2015-12-28T05:00:00","ND","26","ND","2,7","202,3","24,6","74,9","0","0"],
    [16724,"2015-12-28T06:00:00","ND","27","ND","1,6","157,2","24,8","74,1","0","0"],
    [16725,"2015-12-28T07:00:00","ND","48","ND","2,7","101,8","24,2","77,3","16,3","0"],
    [16726,"2015-12-28T08:00:00","ND","32","ND","3,4","167,7","24,5","76,2","57,7","0"],
    [16727,"2015-12-28T09:00:00","ND","28","ND","2,6","189,2","25,7","70,8","172","0"],
    [16728,"2015-12-28T10:00:00","ND","22","ND","2,1","156,5","28","61,1","282,7","0"],
    [16729,"2015-12-28T11:00:00","ND","30","ND","2","175,7","30,3","52,6","393","0"],
    [16730,"2015-12-28T12:00:00","ND","14","ND","3,8","89,9","31,4","46,9","208,2","0"],
    [16731,"2015-12-28T13:00:00","ND","18","ND","2,3","108,4","32","43,8","307,1","0"],
    [16732,"2015-12-28T14:00:00","ND","18","ND","2,9","66","33,1","39,8","365,8","0"],
    [16733,"2015-12-28T15:00:00","ND","18","ND","1,9","64,6","33,8","37","229,2","0"],
    [16734,"2015-12-28T16:00:00","ND","22","ND","3,8","69,1","34,4","35,3","189,1","0"],
    [16735,"2015-12-28T17:00:00","79","25","68,35","4,7","76,4","34,5","35,8","103,2","0"],
    [16736,"2015-12-28T18:00:00","74","26","49,79","1,2","22,1","33,2","40","18,3","0"],
    [16737,"2015-12-28T19:00:00","69","18","31,61","4,4","304,1","31,2","49,1","0","0"],
    [16738,"2015-12-28T20:00:00","56","12","16,35","4,3","305,6","30,5","50,8","0","0"],
    [16739,"2015-12-28T21:00:00","49","21","9,73","2,4","74,9","28,9","58,2","0","0"],
    [16740,"2015-12-28T22:00:00","37","17","4,59","1,9","106,4","27,1","67,6","0","0"],
    [16741,"2015-12-28T23:00:00","61","19","3,26","2,2","175,6","27,6","65","0","0"],
    [16742,"2015-12-29T00:00:00","94","38","3,96","3,6","139,5","26,8","68,6","0","0"],
    [16743,"2015-12-29T01:00:00","84","21","3,38","1,5","127,8","26,2","72,1","0","0"],
    [16744,"2015-12-29T02:00:00","83","23","4,08","0,9","169,3","25,8","74","0","0"],
    [16745,"2015-12-29T03:00:00","63","21","5,02","2,4","157,5","25,5","74,1","0","0"],
    [16746,"2015-12-29T04:00:00","76","27","4,95","2,4","192,2","24,8","74,8","0","0"],
    [16747,"2015-12-29T05:00:00","56","18","5,49","1,7","202,7","24,7","73,5","0","0"],
    [16748,"2015-12-29T06:00:00","81","24","1,35","2,5","123,5","24,2","75","0","0"],
    [16749,"2015-12-29T07:00:00","64","17","1,43","2,8","151,1","23,3","76,2","8,8","0"],
    [16750,"2015-12-29T08:00:00","59","17","4,57","2,9","169,3","23,8","72,3","74,6","0"],
    [16751,"2015-12-29T09:00:00","73","14","19,37","1,5","200,4","25,9","66","184,7","0"],
    [16752,"2015-12-29T10:00:00","64","20","39,91","2,2","145,3","28,3","57,7","282,2","0"],
    [16753,"2015-12-29T11:00:00","61","18","72,43","1","191,2","30","53","359","0"],
    [16754,"2015-12-29T12:00:00","55","21","79,97","2,3","121,8","31,8","46,3","405,1","0"],
    [16755,"2015-12-29T13:00:00","49","18","91,82","3","80,4","33","42","408,7","0"],
    [16756,"2015-12-29T14:00:00","53","17","105,26","3,4","96,8","34,2","36","381,9","0"],
    [16757,"2015-12-29T15:00:00","60","18","126,02","3,8","86,6","35,5","33,1","310","0"],
    [16758,"2015-12-29T16:00:00","90","17","103,79","3,1","321,2","35,6","33,8","180,7","0"],
    [16759,"2015-12-29T17:00:00","134","18","77,83","5,9","304,3","34,6","37,1","92,7","0"],
    [16760,"2015-12-29T18:00:00","57","11","46,9","6,9","309,7","32,5","42,4","27,5","0"],
    [16761,"2015-12-29T19:00:00","61","8","26,85","4,3","293,5","30,8","47,8","0","0"],
    [16762,"2015-12-29T20:00:00","71","20","8,05","2,5","99,2","29,5","53","0","0"],
    [16763,"2015-12-29T21:00:00","62","19","5,24","3,4","119,3","27,5","61,5","0","0"],
    [16764,"2015-12-29T22:00:00","47","9","4,22","2,8","110,4","27,1","63,9","0","0"],
    [16765,"2015-12-29T23:00:00","54","15","3,22","2,9","118,3","26,7","65,5","0","0"],
    [16766,"2015-12-30T00:00:00","50","14","4,2","2,1","169,9","26,2","68,3","0","0"],
    [16767,"2015-12-30T01:00:00","59","29","4,38","2,2","146,8","25,6","70,8","0","0"],
    [16768,"2015-12-30T02:00:00","60","34","3,79","1,8","95,5","25,2","72,4","0","0"],
    [16769,"2015-12-30T03:00:00","57","26","3,57","1,8","124,9","25","73","0","0"],
    [16770,"2015-12-30T04:00:00","46","24","4,16","2,1","154,2","24,5","74,9","0","0"],
    [16771,"2015-12-30T05:00:00","48","17","4,2","2,6","176,9","24,4","75,1","0","0"],
    [16772,"2015-12-30T06:00:00","45","20","1,88","2,3","178","24","76,2","0","0"],
    [16773,"2015-12-30T07:00:00","64","24","2,41","2,3","224,9","23,3","78,7","9,8","0"],
    [16774,"2015-12-30T08:00:00","92","39","4,91","1,7","119,2","24,8","74,7","91,5","0"],
    [16775,"2015-12-30T09:00:00","69","21","20,33","3","117,7","26,6","68","195,2","0"],
    [16776,"2015-12-30T10:00:00","47","25","40,72","3,2","137,9","28,9","58,2","290,8","0"],
    [16777,"2015-12-30T11:00:00","50","23","63,54","1,8","135,2","30,4","51,8","369,4","0"],
    [16778,"2015-12-30T12:00:00","57","20","83,3","3,1","66,8","31,8","47,5","384,5","0"],
    [16779,"2015-12-30T13:00:00","74","21","129,95","3,3","40,2","33,1","42,7","405,5","0"],
    [16780,"2015-12-30T14:00:00","62","23","128,1","3,3","45,8","34,7","38,5","372,5","0"],
    [16781,"2015-12-30T15:00:00","52","30","108,91","4,4","83,7","35,5","35,3","311,3","0"],
    [16782,"2015-12-30T16:00:00","33","7","90,47","2,6","70,8","35,6","34,3","224,8","0"],
    [16783,"2015-12-30T17:00:00","55","6","70,08","6,3","304","34,7","37,6","120,6","0"],
    [16784,"2015-12-30T18:00:00","61","15","48,2","7,3","289,9","32,6","43,5","27,3","0"],
    [16785,"2015-12-30T19:00:00","62","10","28,24","6,5","294,2","30,7","48,9","0","0"],
    [16786,"2015-12-30T20:00:00","67","29","11,56","2,3","24,7","29,7","52,7","0","0"],
    [16787,"2015-12-30T21:00:00","54","13","4,81","3,4","108,9","28","60,5","0","0"],
    [16788,"2015-12-30T22:00:00","58","20","5,48","1,9","211,5","27,6","62,4","0","0"],
    [16789,"2015-12-30T23:00:00","67","24","3,94","2","164,3","26,9","65,4","0","0"],
    [16790,"2015-12-31T00:00:00","64","26","2,98","2,6","129,8","26,6","67,2","0","0"],
    [16791,"2015-12-31T01:00:00","71","31","4,14","2,2","156,9","26","70,1","0","0"],
    [16792,"2015-12-31T02:00:00","60","33","3,87","2","106,7","25,7","71","0","0"],
    [16793,"2015-12-31T03:00:00","57","23","5,57","2,5","202,9","25,4","72,1","0","0"],
    [16794,"2015-12-31T04:00:00","48","25","5,71","2,8","160,7","24,9","74,2","0","0"],
    [16795,"2015-12-31T05:00:00","45","17","2,35","2","150,4","24,1","77","0","0"],
    [16796,"2015-12-31T06:00:00","49","17","1,94","2,2","178,2","24","77,7","0","0"],
    [16797,"2015-12-31T07:00:00","57","20","2,12","2,1","179,5","24","77,5","12,3","0"],
    [16798,"2015-12-31T08:00:00","86","29","8,05","2,6","171,8","24,8","75,2","92,8","0"],
    [16799,"2015-12-31T09:00:00","54","25","19,68","3","136,8","26,7","67","194,5","0"],
    [16800,"2015-12-31T10:00:00","48","24","41,43","1,4","130,5","28,5","60,1","287,7","0"],
    [16801,"2015-12-31T11:00:00","35","16","56,87","2,4","67,8","30,3","52,5","367","0"],
    [16802,"2015-12-31T12:00:00","32","12","60,05","2,1","70","32,2","45,2","411,2","0"],
    [16803,"2015-12-31T13:00:00","39","16","69,02","2,5","53,9","33,6","39,6","415,4","0"],
    [16804,"2015-12-31T14:00:00","43","14","76,02","3,5","54,4","35","35,3","383,9","0"],
    [16805,"2015-12-31T15:00:00","55","21","90,88","5,2","75,2","36,1","31,8","325,1","0"],
    [16806,"2015-12-31T16:00:00","60","20","80,03","3,7","359,6","35,5","35,9","170,9","0"],
    [16807,"2015-12-31T17:00:00","65","14","62,36","7,7","287,2","34,7","37,1","116,3","0"],
    [16808,"2015-12-31T18:00:00","62","19","38,07","6,5","305,6","32,2","43,4","9,3","0"],
    [16809,"2015-12-31T19:00:00","54","17","22,96","6,3","306,1","30,7","48,5","0","0"],
    [16810,"2015-12-31T20:00:00","65","19","10,28","1,3","62,8","29,8","52,5","0","0"],
    [16811,"2015-12-31T21:00:00","50","21","5,44","3,4","104,6","27,8","61,2","0","0"],
    [16812,"2015-12-31T22:00:00","52","22","5,38","1,9","117,9","27,6","62,6","0","0"],
    [16813,"2015-12-31T23:00:00","52","22","6,32","1,4","154,6","28,1","60,2","0","0"],
    [16814,"2016-01-01T00:00:00","83","41","3,04","2,4","126,1","26,8","66,5","0","0"],
    [16815,"2016-01-01T01:00:00","166","115","3,98","2","175,9","26,6","67,3","0","0"],
    [16816,"2016-01-01T02:00:00","95","55","3,47","1,3","113,5","26,1","69,4","0","0"],
    [16817,"2016-01-01T03:00:00","50","25","2,92","2,4","120,1","25,7","70,2","0","0"],
    [16818,"2016-01-01T04:00:00","51","27","2,94","1,7","192,5","25,2","73,1","0","0"],
    [16819,"2016-01-01T05:00:00","58","22","2,69","2,1","171,5","24,9","75","0","0"],
    [16820,"2016-01-01T06:00:00","54","16","1,69","1,4","181,4","24,5","76,9","0","0"],
    [16821,"2016-01-01T07:00:00","51","17","1,67","2,9","139,2","24,1","77,2","5,4","0"],
    [16822,"2016-01-01T08:00:00","52","22","6,34","1,6","175,6","24,3","78","80,4","0"],
    [16823,"2016-01-01T09:00:00","41","17","20,7","1,2","96,2","26,3","69","191,9","0"],
    [16824,"2016-01-01T10:00:00","35","11","38,89","1,6","140,8","28,7","59","289,9","0"],
    [16825,"2016-01-01T11:00:00","36","13","55,63","2,4","94,3","30,3","52,4","329,1","0"],
    [16826,"2016-01-01T12:00:00","25","16","61,95","1,7","55,8","31,9","45,5","422,7","0"],
    [16827,"2016-01-01T13:00:00","31","11","70,14","2,9","76,7","33,5","39,9","405,2","0"],
    [16828,"2016-01-01T14:00:00","43","18","99,47","2,8","54,2","34,7","35,5","358,4","0"],
    [16829,"2016-01-01T15:00:00","40","15","111,03","2,8","82","35,1","33","227,4","0"],
    [16830,"2016-01-01T16:00:00","42","14","90,68","2,7","53,2","35,1","34","181,4","0"],
    [16831,"2016-01-01T17:00:00","43","12","51,02","6,8","289,7","34,2","37,8","103,1","0"],
    [16832,"2016-01-01T18:00:00","37","7","38,46","6,1","294,3","32,1","42,2","13,3","0"],
    [16833,"2016-01-01T19:00:00","39","18","24,27","4,8","309,1","30,8","46,4","0","0"],
    [16834,"2016-01-01T20:00:00","55","11","9,14","2,3","62,3","29,6","53","0","0"],
    [16835,"2016-01-01T21:00:00","42","17","8,28","2,9","105,5","28,3","58,5","0","0"],
    [16836,"2016-01-01T22:00:00","23","6","11,26","1,9","100,9","27,1","62,3","0","0"],
    [16837,"2016-01-01T23:00:00","31","6","13,7","1,1","213","27,7","59,4","0","0"],
    [16838,"2016-01-02T00:00:00","28","14","8,38","3,2","195,1","27","63,8","0","0"],
    [16839,"2016-01-02T01:00:00","29","8","8,99","1,9","98,1","26,4","65,9","0","0"],
    [16840,"2016-01-02T02:00:00","21","14","11,24","2,3","85,2","26,2","66,7","0","0"],
    [16841,"2016-01-02T03:00:00","21","16","16,01","1,8","98,8","26","65,7","0","0"],
    [16842,"2016-01-02T04:00:00","22","14","15,11","1,5","99","26","66,3","0","0"],
    [16843,"2016-01-02T05:00:00","31","12","3,81","1,6","110,6","25,5","70,3","0","0"],
    [16844,"2016-01-02T06:00:00","34","16","4,57","1,3","147,8","25,3","72,3","0","0"],
    [16845,"2016-01-02T07:00:00","31","9","2,94","2,2","145,1","24,2","79,2","0","0"],
    [16846,"2016-01-02T08:00:00","31","13","2,81","0,8","95","24","81,2","9,4","0"],
    [16847,"2016-01-02T09:00:00","29","17","6,75","2","124,9","24,3","80,2","85,2","0"],
    [16848,"2016-01-02T10:00:00","34","19","18,15","2,3","111,4","25,7","76,5","179,5","0"],
    [16849,"2016-01-02T11:00:00","33","14","22,7","3,8","175,1","26,4","73,1","118,9","0"],
    [16850,"2016-01-02T12:00:00","31","10","35,97","1","4,9","27,4","67,8","261,5","0"],
    [16851,"2016-01-02T13:00:00","27","12","56,36","1,5","85,9","29,2","58,3","295,8","0"],
    [16852,"2016-01-02T14:00:00","29","9","55,3","4,2","159,7","31,1","51","340,8","0"],
    [16853,"2016-01-02T15:00:00","28","17","72,35","3,9","237","31","49,8","235,3","0"],
    [16854,"2016-01-02T16:00:00","28","13","56,69","2,3","157,9","31,6","47,3","172,3","0"],
    [16855,"2016-01-02T17:00:00","25","13","49,77","2,4","155,7","31,2","47,1","70,4","0"],
    [16856,"2016-01-02T18:00:00","29","11","40,97","2,3","298,1","30,3","51,1","24,9","0"],
    [16857,"2016-01-02T19:00:00","25","7","22,88","3,3","280,3","29,7","50,9","0","0"],
    [16858,"2016-01-02T20:00:00","50","10","9,48","2","79,6","28,5","59","0","0"],
    [16859,"2016-01-02T21:00:00","ND","17","3,81","1,2","120,6","26,2","75","0","0"],
    [16860,"2016-01-02T22:00:00","42","18","1,22","0,5","313,6","25,9","77,8","0","0"],
    [16861,"2016-01-02T23:00:00","41","11","1,92","2,8","104,4","25,5","77,9","0","0"],
    [16862,"2016-01-03T00:00:00","27","10","1,02","0,5","118,6","25","78,9","0","0"],
    [16863,"2016-01-03T01:00:00","31","13","0,9","0,5","229,6","25","78,1","0","0"],
    [16864,"2016-01-03T02:00:00","19","8","1,59","2,9","207,7","24,6","76,9","0","0"],
    [16865,"2016-01-03T03:00:00","25","6","1,84","2,2","166,7","23,5","77,1","0","0"],
    [16866,"2016-01-03T04:00:00","17","3","0,75","2,4","143,4","22,8","80,9","0","0"],
    [16867,"2016-01-03T05:00:00","16","5","0,65","1,7","103,2","22,7","83","0","0"],
    [16868,"2016-01-03T06:00:00","27","5","0,61","2,4","69,8","22,7","82,1","0","0"],
    [16869,"2016-01-03T07:00:00","33","5","0,47","2,4","86,9","22,6","81,2","9","0"],
    [16870,"2016-01-03T08:00:00","28","ND","1,65","0,8","138,7","22,8","81,3","65,7","0"],
    [16871,"2016-01-03T09:00:00","38","16","12,15","1,4","200,2","24,9","73,8","199,5","0"],
    [16872,"2016-01-03T10:00:00","25","ND","30,4","2","80,8","27,2","62,9","294,3","0"],
    [16873,"2016-01-03T11:00:00","22","ND","41,25","3,8","81,7","29,3","55,4","366,3","0"],
    [16874,"2016-01-03T12:00:00","25","7","55,87","2,1","48,3","30,5","51,1","385,6","0"],
    [16875,"2016-01-03T13:00:00","30","6","65,46","2,2","72","31,6","47,4","341,8","0"],
    [16876,"2016-01-03T14:00:00","33","15","81,2","0,9","75,1","32,5","42,4","346,1","0"],
    [16877,"2016-01-03T15:00:00","35","18","83,13","1,9","83,7","33,5","39,7","212,7","0"],
    [16878,"2016-01-03T16:00:00","37","21","88,17","2,7","345,9","34,2","37,6","224","0"],
    [16879,"2016-01-03T17:00:00","24","6","43","4,9","304,8","33,9","38","136,1","0"],
    [16880,"2016-01-03T18:00:00","32","3","23,49","6,2","300,1","31,4","44,1","14,6","0"],
    [16881,"2016-01-03T19:00:00","28","4","18,01","6,4","286,3","29,9","48,1","0","0"],
    [16882,"2016-01-03T20:00:00","27","8","17,31","3,6","252,3","29,7","48,8","0","0"],
    [16883,"2016-01-03T21:00:00","30","ND","26,98","5,9","160,9","27,1","66","0","0"],
    [16884,"2016-01-03T22:00:00","20","7","19,53","4,4","202,7","25,2","73,4","0","0"],
    [16885,"2016-01-03T23:00:00","27","8","7,87","1,7","138","25","76,4","0","0"],
    [16886,"2016-01-04T00:00:00","23","6","7,26","2,8","93,5","24,7","77,6","0","0"],
    [16887,"2016-01-04T01:00:00","33","5","11,89","1,7","71","24,3","80,3","0","0"],
    [16888,"2016-01-04T02:00:00","34","9","13,91","1,7","105,7","24,6","79,5","0","0"],
    [16889,"2016-01-04T03:00:00","30","8","14,07","2,8","224,2","24,4","81,3","0","0"],
    [16890,"2016-01-04T04:00:00","17","ND","11,09","1,6","142,1","24,2","81,8","0","0"],
    [16891,"2016-01-04T05:00:00","30","ND","3,91","1,6","130,2","24","83,2","0","0"],
    [16892,"2016-01-04T06:00:00","21","8","1,84","1,9","192,9","23,8","84,9","0","0"],
    [16893,"2016-01-04T07:00:00","17","ND","1,45","0,8","154,2","24","84,6","0","0"],
    [16894,"2016-01-04T08:00:00","45","8","1,39","2,3","28,6","24","84,9","14,8","0"],
    [16895,"2016-01-04T09:00:00","46","19","3,69","1,8","71,5","24,3","83,8","58,5","0"],
    [16896,"2016-01-04T10:00:00","44","20","5,12","2,6","66,9","25,2","80,2","68","0"],
    [16897,"2016-01-04T11:00:00","38","ND","9,69","2,6","39,9","26","75,3","117,3","0"],
    [16898,"2016-01-04T12:00:00","34","9","30,18","0,9","31,3","27,4","67,7","288,9","0"],
    [16899,"2016-01-04T13:00:00","22","5","36,7","2,1","23,5","28,9","59,6","225,6","0"],
    [16900,"2016-01-04T14:00:00","28","ND","29,91","3,7","64,2","29,3","57,5","144","0"],
    [16901,"2016-01-04T15:00:00","35","10","29,67","3,4","59,4","29,5","56,5","115,3","0"],
    [16902,"2016-01-04T16:00:00","31","ND","23,35","3,8","17,2","29,9","52,2","112,3","0"],
    [16903,"2016-01-04T17:00:00","43","15","15,6","3","52,9","29,8","53,1","71,8","0"],
    [16904,"2016-01-04T18:00:00","42","9","10,07","3,2","38,8","29,1","53,6","19,7","0"],
    [16905,"2016-01-04T19:00:00","46","8","3,77","2,8","48,5","28","58,7","0","0"],
    [16906,"2016-01-04T20:00:00","48","ND","0,78","1,2","327,2","27,2","61,7","0","0"],
    [16907,"2016-01-04T21:00:00","84","36","1,06","1,9","214,2","27,1","63,1","0","0"],
    [16908,"2016-01-04T22:00:00","55","13","1,77","2,2","181,4","26,1","68,5","0","0"],
    [16909,"2016-01-04T23:00:00","58","20","1,73","1","186,2","26","69,7","0","0"],
    [16910,"2016-01-05T00:00:00","51","15","1,43","2,7","125,5","25,4","73,1","0","0"],
    [16911,"2016-01-05T01:00:00","42","14","2,98","1,8","66,9","24,6","75,7","0","0"],
    [16912,"2016-01-05T02:00:00","48","20","4,12","1,3","147,8","24,4","76,1","0","0"],
    [16913,"2016-01-05T03:00:00","44","10","7,3","2,9","165,8","23,6","77,8","0","0"],
    [16914,"2016-01-05T04:00:00","29","9","3,3","0,8","151,2","23,3","80,5","0","0"],
    [16915,"2016-01-05T05:00:00","35","11","1,55","1,2","150,8","22,9","81,9","0","0"],
    [16916,"2016-01-05T06:00:00","50","20","1,08","2,2","81","23","81,8","0","0"],
    [16917,"2016-01-05T07:00:00","54","23","1,24","2,8","15,5","22,9","81,4","0","0"],
    [16918,"2016-01-05T08:00:00","66","18","2,77","2,2","43,6","23,5","79,9","38,6","0"],
    [16919,"2016-01-05T09:00:00","45","14","6,06","0,1","63,1","24,2","75,9","75,9","0"],
    [16920,"2016-01-05T10:00:00","56","18","18,35","2,3","36","26,2","68,5","249,5","0"],
    [16921,"2016-01-05T11:00:00","53","25","48,53","2,6","45,7","28,7","58,7","359,9","0"],
    [16922,"2016-01-05T12:00:00","39","19","70,25","2,2","130","30,1","52,5","403,2","0"],
    [16923,"2016-01-05T13:00:00","31","12","63,93","2,8","74,2","32,3","44","418,4","0"],
    [16924,"2016-01-05T14:00:00","33","15","70,51","3,9","98,4","33,3","39,4","369,8","0"],
    [16925,"2016-01-05T15:00:00","32","11","88,82","2,6","9,6","33,9","38,1","277,4","0"],
    [16926,"2016-01-05T16:00:00","44","16","79,28","2,9","25,2","34","37,7","230,3","0"],
    [16927,"2016-01-05T17:00:00","38","1","42,92","7,3","283,3","33,9","36,1","136,9","0"],
    [16928,"2016-01-05T18:00:00","26","7","24","6,8","298,4","31,8","40,6","21,4","0"],
    [16929,"2016-01-05T19:00:00","32","6","15,01","7","299,5","30,3","46","0","0"],
    [16930,"2016-01-05T20:00:00","49","15","6,69","2,1","44,7","29,2","51,5","0","0"],
    [16931,"2016-01-05T21:00:00","40","10","2,9","2,2","94,1","28","58,4","0","0"],
    [16932,"2016-01-05T22:00:00","38","8","2,28","1,9","108,2","27","63,2","0","0"],
    [16933,"2016-01-05T23:00:00","38","6","2,34","0,7","247,2","27","63,6","0","0"],
    [16934,"2016-01-06T00:00:00","28","10","7,81","5","255,2","27,7","60,5","0","0"],
    [16935,"2016-01-06T01:00:00","28","15","3,79","2,2","135,1","26,3","67,5","0","0"],
    [16936,"2016-01-06T02:00:00","23","8","4,18","1,2","66,8","25,9","69,3","0","0"],
    [16937,"2016-01-06T03:00:00","30","21","9,34","1","47,6","26,2","67,5","0","0"],
    [16938,"2016-01-06T04:00:00","18","ND","6,36","2,6","120,2","25,9","69,4","0","0"],
    [16939,"2016-01-06T05:00:00","29","3","2,77","1,4","71,6","25,4","72,1","0","0"],
    [16940,"2016-01-06T06:00:00","33","5","2,3","3,2","73","25,1","75,1","0","0"],
    [16941,"2016-01-06T07:00:00","28","9","3,36","1,5","68,5","24,6","77,6","0","0"],
    [16942,"2016-01-06T08:00:00","27","6","2,73","1,4","179,1","24,5","79,8","12,8","0"],
    [16943,"2016-01-06T09:00:00","23","2","5,04","2,6","213,2","24,5","81,6","38,1","0"],
    [16944,"2016-01-06T10:00:00","25","6","4,71","2,6","168,2","24,7","82,4","51,8","0"],
    [16945,"2016-01-06T11:00:00","27","11","6,44","2,3","176,3","24,8","83","100,8","0"],
    [16946,"2016-01-06T12:00:00","41","17","21,64","1,7","150,2","26,1","77,1","182,9","0"],
    [16947,"2016-01-06T13:00:00","30","4","42,41","2,1","205","28","66,6","381","0"],
    [16948,"2016-01-06T14:00:00","15","4","58,34","1,6","167,3","30","55,2","322,9","0"],
    [16949,"2016-01-06T15:00:00","39","8","74,24","2,2","46,4","31","50,9","223,4","0"],
    [16950,"2016-01-06T16:00:00","42","20","84,7","5","0,1","30,7","51,6","148,3","0"],
    [16951,"2016-01-06T17:00:00","43","16","59,32","4,5","15,7","31,1","49,7","102","0"],
    [16952,"2016-01-06T18:00:00","38","9","19,21","3,8","20,3","30,1","53,6","11,7","0"],
    [16953,"2016-01-06T19:00:00","30","6","7,38","4,2","299,7","28,9","53,8","0","0"],
    [16954,"2016-01-06T20:00:00","49","10","2,94","1,6","26,6","28,1","58,3","0","0"],
    [16955,"2016-01-06T21:00:00","41","11","1,39","3,1","85,7","26,6","66,1","0","0"],
    [16956,"2016-01-06T22:00:00","58","24","2,92","2,9","49,2","25,6","70,2","0","0"],
    [16957,"2016-01-06T23:00:00","38","18","3,04","2,7","82,8","25,7","69,3","0","0"],
    [16958,"2016-01-07T00:00:00","30","ND","2,41","1,7","101","25,5","70,4","0","0"],
    [16959,"2016-01-07T01:00:00","28","17","1,96","2,4","70,9","25,1","72,5","0","0"],
    [16960,"2016-01-07T02:00:00","22","6","3,55","0,2","290,2","25,1","72","0","0"],
    [16961,"2016-01-07T03:00:00","29","6","2,28","3,4","179,4","25,3","72,6","0","0"],
    [16962,"2016-01-07T04:00:00","31","9","1,2","1,7","162,9","24,7","75,7","0","0"],
    [16963,"2016-01-07T05:00:00","34","8","1,33","0,8","233,7","24,3","78,4","0","0"],
    [16964,"2016-01-07T06:00:00","50","20","1,1","2,1","136,2","24,2","79,5","0","0"],
    [16965,"2016-01-07T07:00:00","43","9","1,06","1,5","188","24,3","80,4","7,1","0"],
    [16966,"2016-01-07T08:00:00","54","13","1,53","1,8","131,5","24,7","80,1","20,6","0"],
    [16967,"2016-01-07T09:00:00","126","19","5,91","2,7","126,5","25,2","77,8","57,5","0"],
    [16968,"2016-01-07T10:00:00","50","7","10,85","2,9","170,8","26,3","70,9","129,1","0"],
    [16969,"2016-01-07T11:00:00","40","9","27,89","1,3","169,1","28,3","62,2","355,4","0"],
    [16970,"2016-01-07T12:00:00","36","9","47,88","2,3","151,4","30,2","53,4","295,8","0"],
    [16971,"2016-01-07T13:00:00","42","17","65,25","1,4","177","31,2","50,3","421","0"],
    [16972,"2016-01-07T14:00:00","43","8","76,36","0,9","21,8","32,7","43,7","376,9","0"],
    [16973,"2016-01-07T15:00:00","44","27","95,86","2,3","52,8","33,3","40,4","284,5","0"],
    [16974,"2016-01-07T16:00:00","53","14","82,11","3","317,1","32,7","42,2","77,8","0"],
    [16975,"2016-01-07T17:00:00","49","11","55,54","4,7","284,9","31,9","44,1","21,8","0"],
    [16976,"2016-01-07T18:00:00","40","10","22,8","5,2","290,3","30,9","46","10,7","0"],
    [16977,"2016-01-07T19:00:00","44","14","10,58","4,3","291,5","30","49,1","0","0"],
    [16978,"2016-01-07T20:00:00","62","16","4,32","1,8","34,6","28,6","55,7","0","0"],
    [16979,"2016-01-07T21:00:00","56","21","2,26","2,9","98,4","27,5","62,2","0","0"],
    [16980,"2016-01-07T22:00:00","53","11","2,53","3,5","127,9","26,7","66","0","0"],
    [16981,"2016-01-07T23:00:00","45","10","3,14","2","232,9","27","65,8","0","0"],
    [16982,"2016-01-08T00:00:00","51","10","1,94","2,5","215,8","26,5","68,7","0","0"],
    [16983,"2016-01-08T01:00:00","34","8","3,14","2,7","108,1","26,2","70","0","0"],
    [16984,"2016-01-08T02:00:00","21","7","5,97","1,7","346,4","25,9","70,1","0","0"],
    [16985,"2016-01-08T03:00:00","33","4","2,39","0,5","292,9","26","70,1","0","0"],
    [16986,"2016-01-08T04:00:00","29","3","1,94","2,5","124,7","25,1","73,5","0","0"],
    [16987,"2016-01-08T05:00:00","53","10","1,59","2,3","152","24,7","76,8","0","0"],
    [16988,"2016-01-08T06:00:00","43","14","1,16","1,9","158,4","24,7","76,8","0","0"],
    [16989,"2016-01-08T07:00:00","51","10","1,73","2,3","243","25","75,9","9","0"],
    [16990,"2016-01-08T08:00:00","67","12","2,35","1,2","160,7","25,8","73,3","43,6","0"],
    [16991,"2016-01-08T09:00:00","55","19","6,61","0,8","55,6","26,4","70,4","77,4","0"],
    [16992,"2016-01-08T10:00:00","58","13","18,17","1,4","242,9","27,2","66,8","149,5","0"],
    [16993,"2016-01-08T11:00:00","74","23","34,28","2,3","204,7","28,7","61,3","265,7","0"],
    [16994,"2016-01-08T12:00:00","67","13","68,76","1,2","281,4","30","55,4","320,4","0"],
    [16995,"2016-01-08T13:00:00","52","17","71,51","3,1","72,7","31,3","49,4","307,4","0"],
    [16996,"2016-01-08T14:00:00","34","ND","60,34","3","77,9","32,5","43,6","400,3","0"],
    [16997,"2016-01-08T15:00:00","44","3","73,79","3,8","84,7","33,1","41","190,2","0"],
    [16998,"2016-01-08T16:00:00","39","13","54,73","3,8","87,2","32,8","43,5","90,9","0"],
    [16999,"2016-01-08T17:00:00","56","6","33,09","6,5","287,4","32","44,6","65","0"],
    [17000,"2016-01-08T18:00:00","41","5","25,84","6,5","294","30,6","47,1","17,5","0"],
    [17001,"2016-01-08T19:00:00","51","9","8,81","2,4","317,1","29,5","51,2","0","0"],
    [17002,"2016-01-08T20:00:00","55","14","3,24","3,7","95,4","27,9","59,4","0","0"],
    [17003,"2016-01-08T21:00:00","41","16","3,16","2,5","61,9","26,8","64,7","0","0"],
    [17004,"2016-01-08T22:00:00","60","20","3,02","2,8","226,6","26,9","64,2","0","0"],
    [17005,"2016-01-08T23:00:00","62","15","6,77","3,6","192,7","26,6","67","0","0"],
    [17006,"2016-01-09T00:00:00","48","ND","8,97","2,4","187,4","26,6","67,3","0","0"],
    [17007,"2016-01-09T01:00:00","58","ND","8,75","1,9","146,6","26,2","68,6","0","0"],
    [17008,"2016-01-09T02:00:00","56","ND","6,67","2,2","105,9","25,5","72,2","0","0"],
    [17009,"2016-01-09T03:00:00","36","ND","5,3","1,9","139,7","25,3","71,7","0","0"],
    [17010,"2016-01-09T04:00:00","62","ND","2,69","1,9","187,7","24,7","75,9","0","0"],
    [17011,"2016-01-09T05:00:00","46","ND","2,92","2,4","226,6","24,6","77,2","0","0"],
    [17012,"2016-01-09T06:00:00","59","ND","1,06","2,8","197,9","24,4","78,8","0","0"],
    [17013,"2016-01-09T07:00:00","69","ND","2,06","2,9","206,7","24,2","80,6","5,1","0"],
    [17014,"2016-01-09T08:00:00","60","ND","4,02","3,4","215,5","24,7","80","53","0"],
    [17015,"2016-01-09T09:00:00","48","ND","16,25","2,6","191,7","26,8","69,6","184,4","0"],
    [17016,"2016-01-09T10:00:00","39","ND","26,86","2,9","172,9","28,1","62,2","250,3","0"],
    [17017,"2016-01-09T11:00:00","37","ND","41,07","2,9","150,6","29,5","56,2","363,1","0"],
    [17018,"2016-01-09T12:00:00","49","ND","60,17","2,5","156,3","30,9","51,2","432,5","0"],
    [17019,"2016-01-09T13:00:00","54","ND","66,92","3","136,5","32,1","47,1","395,7","0"],
    [17020,"2016-01-09T14:00:00","56","ND","67,31","3,1","119,2","32,2","46,3","188,8","0"],
    [17021,"2016-01-09T15:00:00","55","ND","76,47","1,1","233,2","32,3","46","235,2","0"],
    [17022,"2016-01-09T16:00:00","77","ND","53,49","2,8","38,9","32,2","45,5","87,1","0"],
    [17023,"2016-01-09T17:00:00","50","ND","55,65","3,1","19,3","32,3","44,7","90,7","0"],
    [17024,"2016-01-09T18:00:00","49","ND","20,35","6,7","293,8","30,7","47,3","6","0"],
    [17025,"2016-01-09T19:00:00","40","ND","10,97","4","300,4","29,3","50,7","0","0"],
    [17026,"2016-01-09T20:00:00","76","ND","4,91","3,9","91,1","28,2","57,6","0","0"],
    [17027,"2016-01-09T21:00:00","53","ND","2,45","1,3","71,1","27,2","63,3","0","0"],
    [17028,"2016-01-09T22:00:00","101","ND","10,34","6","232,4","26,9","65,4","0","0"],
    [17029,"2016-01-09T23:00:00","55","ND","21,49","3,7","215,3","26,6","68,5","0","0"],
    [17030,"2016-01-10T00:00:00","52","ND","13,95","2,9","154,2","26,2","70,7","0","0"],
    [17031,"2016-01-10T01:00:00","35","ND","22,17","2","182,9","26,1","70,8","0","0"],
    [17032,"2016-01-10T02:00:00","40","ND","18,49","0,9","199,5","25,8","72,3","0","0"],
    [17033,"2016-01-10T03:00:00","54","ND","9,28","3,2","76,7","25,2","75,5","0","0"],
    [17034,"2016-01-10T04:00:00","55","ND","8,73","1,6","86,7","25,2","74,4","0","0"],
    [17035,"2016-01-10T05:00:00","53","ND","5,32","2,3","121,9","25,2","75","0","0"],
    [17036,"2016-01-10T06:00:00","71","ND","4,45","2,6","130,2","24,9","78,1","0","0"],
    [17037,"2016-01-10T07:00:00","74","ND","3,04","2,5","184,8","24,9","78,3","4,9","0"],
    [17038,"2016-01-10T08:00:00","46","ND","6,85","3,7","184,1","25,2","77,8","63,8","0"],
    [17039,"2016-01-10T09:00:00","57","ND","12,6","5,9","193","26","74,2","84,9","0"],
    [17040,"2016-01-10T10:00:00","23","ND","18,31","6,2","189,4","26,2","70,3","149,9","0"],
    [17041,"2016-01-10T11:00:00","33","ND","23,53","4,7","189,2","27,5","63,8","269,7","0"],
    [17042,"2016-01-10T12:00:00","40","ND","36,91","2,5","192,1","28,3","59,8","200,9","0"],
    [17043,"2016-01-10T13:00:00","43","ND","49,98","1,3","196,9","29","57,5","157","0"],
    [17044,"2016-01-10T14:00:00","38","ND","46,08","2,9","162,4","30,5","50,4","211,7","0"],
    [17045,"2016-01-10T15:00:00","35","ND","43,25","2,6","178,6","30,8","48,3","165,1","0"],
    [17046,"2016-01-10T16:00:00","27","ND","51,81","4,1","249,6","30,6","50,5","81,4","0"],
    [17047,"2016-01-10T17:00:00","35","ND","40,13","5,4","283,5","30,1","51,6","75,9","0"],
    [17048,"2016-01-10T18:00:00","29","ND","20,33","2,8","21,9","28,4","58,8","18,4","0"],
    [17049,"2016-01-10T19:00:00","33","ND","12,56","5,3","72,8","25,9","72,2","0","0"],
    [17050,"2016-01-10T20:00:00","26","ND","13,7","4,3","93,4","24,7","77,5","0","0"],
    [17051,"2016-01-10T21:00:00","21","ND","11,77","0,6","259,6","25,2","73,7","0","0"],
    [17052,"2016-01-10T22:00:00","45","ND","4,42","2,6","138,8","25,1","73,2","0","0"],
    [17053,"2016-01-10T23:00:00","49","ND","8,34","2,8","189,1","25,1","73,6","0","0"],
    [17054,"2016-01-11T00:00:00","42","ND","9,5","3","229","25","73,7","0","0"],
    [17055,"2016-01-11T01:00:00","28","ND","7,52","3,2","205,1","24,6","76,1","0","0"],
    [17056,"2016-01-11T02:00:00","16","ND","9,85","3,2","196","24,1","78,9","0","0"],
    [17057,"2016-01-11T03:00:00","18","ND","8,32","2,6","160,5","23,7","81,3","0","0"],
    [17058,"2016-01-11T04:00:00","25","ND","6,04","2,5","149,6","23,4","82,6","0","0"],
    [17059,"2016-01-11T05:00:00","24","ND","3,47","2,1","196","23,3","83,2","0","0"],
    [17060,"2016-01-11T06:00:00","24","ND","2,92","2,8","199,5","23,1","84,2","0","0"],
    [17061,"2016-01-11T07:00:00","41","ND","3,69","3","201,9","23,1","84,1","5,2","0"],
    [17062,"2016-01-11T08:00:00","30","ND","8,77","3,2","190,3","23,5","82,6","50,5","0"],
    [17063,"2016-01-11T09:00:00","30","ND","11,77","3","211,9","24,3","79,5","91,2","0"],
    [17064,"2016-01-11T10:00:00","37","ND","19,37","1,2","143,9","25,3","73,8","130,1","0"],
    [17065,"2016-01-11T11:00:00","30","ND","25,33","2,5","73,3","26,5","66,8","172,8","0"],
    [17066,"2016-01-11T12:00:00","27","ND","37,56","2,2","20,1","28","59,1","313,7","0"],
    [17067,"2016-01-11T13:00:00","28","ND","48,94","2,6","4,5","29","54,6","281,1","0"],
    [17068,"2016-01-11T14:00:00","32","ND","48,18","3","35,2","30,2","48,8","325,4","0"],
    [17069,"2016-01-11T15:00:00","29","ND","42,8","4,1","85,1","31,5","42,7","306,4","0"],
    [17070,"2016-01-11T16:00:00","22","ND","47,9","3,1","84,1","31,2","43,8","103,6","0"],
    [17071,"2016-01-11T17:00:00","35","ND","25,04","7,1","290,7","30,4","46,2","72,3","0"],
    [17072,"2016-01-11T18:00:00","33","ND","17,19","6,8","292,7","29,2","49,1","10,4","0"],
    [17073,"2016-01-11T19:00:00","31","ND","10,79","4,3","306,2","28,5","51,1","0","0"],
    [17074,"2016-01-11T20:00:00","47","ND","6,89","2,3","36,8","27,9","54,1","0","0"],
    [17075,"2016-01-11T21:00:00","30","ND","3,41","3,8","97,4","26,2","64,4","0","0"],
    [17076,"2016-01-11T22:00:00","30","ND","3,57","3,3","74,7","25,5","66,7","0","0"],
    [17077,"2016-01-11T23:00:00","28","ND","5,85","1,6","246,8","25,3","67,2","0","0"],
    [17078,"2016-01-12T00:00:00","19","ND","12,11","4,1","201,9","24,5","76,1","0","0"],
    [17079,"2016-01-12T01:00:00","18","ND","15,17","3,5","187","24,1","78,8","0","0"],
    [17080,"2016-01-12T02:00:00","21","ND","10,77","3,2","147,2","23,8","80,7","0","0"],
    [17081,"2016-01-12T03:00:00","33","ND","10,11","2,1","181,7","23,7","80,9","0","0"],
    [17082,"2016-01-12T04:00:00","23","ND","11,42","1,5","199,8","23,8","80,5","0","0"],
    [17083,"2016-01-12T05:00:00","43","ND","1,88","2,7","113,7","23,6","81,4","0","0"],
    [17084,"2016-01-12T06:00:00","70","ND","1,37","2","150,3","23,4","83","0","0"],
    [17085,"2016-01-12T07:00:00","62","ND","0,94","2,2","174,2","23,3","83,2","7","0"],
    [17086,"2016-01-12T08:00:00","62","ND","5,32","0,5","181,6","24","81,7","96,8","0"],
    [17087,"2016-01-12T09:00:00","45","ND","16,86","2,7","166,2","26,3","68,3","198,5","0"],
    [17088,"2016-01-12T10:00:00","52","ND","26,41","3,2","121,3","27,6","60,5","276,6","0"],
    [17089,"2016-01-12T11:00:00","52","ND","41,78","2,1","125,5","29,2","53,6","334,4","0"],
    [17090,"2016-01-12T12:00:00","59","ND","56,77","2,5","98,4","30,7","48,1","414,1","0"],
    [17091,"2016-01-12T13:00:00","52","ND","69,04","2","81,8","31,7","44,1","275,6","0"],
    [17092,"2016-01-12T14:00:00","43","ND","75,16","2,5","70,1","32","42,7","206,3","0"],
    [17093,"2016-01-12T15:00:00","46","ND","84,21","3,7","91,4","32,6","41,2","240,6","0"],
    [17094,"2016-01-12T16:00:00","65","ND","106,34","4,1","346,8","32,7","41,6","193,7","0"],
    [17095,"2016-01-12T17:00:00","72","ND","50,88","6,5","294,4","32,4","41","127,4","0"],
    [17096,"2016-01-12T18:00:00","56","ND","30,04","6,8","285,8","31","43,8","42,3","0"],
    [17097,"2016-01-12T19:00:00","53","ND","15,37","5,6","293,3","29,1","49,4","0","0"],
    [17098,"2016-01-12T20:00:00","95","ND","4,71","2,1","54,2","28,3","52,9","0","0"],
    [17099,"2016-01-12T21:00:00","110","ND","6","3,2","100","26,7","59,7","0","0"],
    [17100,"2016-01-12T22:00:00","103","ND","9,07","3,2","106,1","25,8","64","0","0"],
    [17101,"2016-01-12T23:00:00","38","ND","3,24","2,6","92","25,9","63,3","0","0"],
    [17102,"2016-01-13T00:00:00","26","ND","4,91","2,3","96,5","25,5","64,9","0","0"],
    [17103,"2016-01-13T01:00:00","23","ND","8,14","1,3","100,7","25,5","65,1","0","0"],
    [17104,"2016-01-13T02:00:00","49","ND","3,06","1,9","145,6","25,4","67,2","0","0"],
    [17105,"2016-01-13T03:00:00","57","ND","4,59","2","111,8","25","69","0","0"],
    [17106,"2016-01-13T04:00:00","39","ND","4,59","1,4","125,1","24,6","70,6","0","0"],
    [17107,"2016-01-13T05:00:00","62","ND","5,36","2,2","109,8","24,7","70,6","0","0"],
    [17108,"2016-01-13T06:00:00","45","ND","1,96","2,3","58,5","24,7","71,3","0","0"],
    [17109,"2016-01-13T07:00:00","44","ND","1,51","1,6","90","24,3","74,6","0","0"],
    [17110,"2016-01-13T08:00:00","62","ND","2,83","2,3","69,9","24,8","71,9","33,9","0"],
    [17111,"2016-01-13T09:00:00","70","ND","11,56","1,1","229,8","26","67","141,5","0"],
    [17112,"2016-01-13T10:00:00","77","ND","24,96","2,1","183,1","27,6","60,2","256,4","0"],
    [17113,"2016-01-13T11:00:00","50","ND","47,88","2,1","206,3","29,1","52,8","345,8","0"],
    [17114,"2016-01-13T12:00:00","50","ND","53,22","3,3","123,1","30,5","48","312,8","0"],
    [17115,"2016-01-13T13:00:00","62","ND","66,7","4,3","71,9","31,4","46","269,2","0"],
    [17116,"2016-01-13T14:00:00","63","ND","90,84","2,2","69,3","31,6","45","252,4","0"],
    [17117,"2016-01-13T15:00:00","55","ND","98,67","3,2","332,4","32,3","41,9","185,2","0"],
    [17118,"2016-01-13T16:00:00","46","ND","56,71","5,1","316,8","33,8","36,5","246,1","0"],
    [17119,"2016-01-13T17:00:00","45","ND","37,6","7,8","298","32,9","36,9","131,7","0"],
    [17120,"2016-01-13T18:00:00","55","ND","26,51","7,7","300,1","30,9","41,9","30","0"],
    [17121,"2016-01-13T19:00:00","44","ND","11,6","5,9","312,4","29,3","47,4","0","0"],
    [17122,"2016-01-13T20:00:00","81","ND","6,65","2,6","34,3","28,4","51,6","0","0"],
    [17123,"2016-01-13T21:00:00","77","ND","9,14","0,5","248,8","27,7","54,1","0","0"],
    [17124,"2016-01-13T22:00:00","54","ND","6,28","4","98","26,3","61,6","0","0"],
    [17125,"2016-01-13T23:00:00","38","ND","8,56","2,9","96,2","26,5","60","0","0"],
    [17126,"2016-01-14T00:00:00","32","ND","8,73","2,1","117,6","25,9","62,7","0","0"],
    [17127,"2016-01-14T01:00:00","34","ND","7,59","2,5","95,4","25,3","65,8","0","0"],
    [17128,"2016-01-14T02:00:00","68","ND","6,06","3,2","85,4","24,5","69,7","0","0"],
    [17129,"2016-01-14T03:00:00","31","ND","7,36","3,4","83,2","23,9","72,8","0","0"],
    [17130,"2016-01-14T04:00:00","33","ND","10,17","1,3","330,7","24,4","69,7","0","0"],
    [17131,"2016-01-14T05:00:00","37","ND","3,36","1,4","159,5","24,9","68,3","0","0"],
    [17132,"2016-01-14T06:00:00","52","ND","1,69","2,4","129,3","24,8","69,1","0","0"],
    [17133,"2016-01-14T07:00:00","58","ND","1,83","2,1","105,8","24,8","69,3","0","0"],
    [17134,"2016-01-14T08:00:00","59","ND","3,3","2,2","99,8","25","68,5","28,2","0"],
    [17135,"2016-01-14T09:00:00","73","ND","12,99","2,7","203,1","25,9","66,4","142,8","0"],
    [17136,"2016-01-14T10:00:00","78","ND","28,2","3,5","187,7","27,7","59,8","281,8","0"],
    [17137,"2016-01-14T11:00:00","63","ND","54,91","1,9","183,7","29,6","52,1","324,2","0"],
    [17138,"2016-01-14T12:00:00","78","ND","82,01","2,1","167,5","30,5","48,8","304,4","0"],
    [17139,"2016-01-14T13:00:00","56","ND","82,97","1,4","114,4","31,4","43,4","312,6","0"],
    [17140,"2016-01-14T14:00:00","68","ND","93,59","2,8","68,9","32,1","40,5","227,5","0"],
    [17141,"2016-01-14T15:00:00","73","ND","98,43","3,7","82,7","32,8","38,4","213,5","0"],
    [17142,"2016-01-14T16:00:00","81","ND","99,35","3,5","60","33,2","38,1","144,4","0"],
    [17143,"2016-01-14T17:00:00","60","ND","50,81","5,2","282","32,5","39","75,9","0"],
    [17144,"2016-01-14T18:00:00","48","ND","28,38","6,2","293,1","31","43,4","19,8","0"],
    [17145,"2016-01-14T19:00:00","53","ND","19,37","5,6","308,5","29,9","47,5","0","0"],
    [17146,"2016-01-14T20:00:00","42","ND","16,56","5,6","304,7","29","50,9","0","0"],
    [17147,"2016-01-14T21:00:00","60","ND","4,69","2,2","87,4","27,4","57,9","0","0"],
    [17148,"2016-01-14T22:00:00","55","ND","2,88","2,9","83,3","25,6","67,5","0","0"],
    [17149,"2016-01-14T23:00:00","38","ND","5,24","1,9","53,8","25,5","68","0","0"],
    [17150,"2016-01-15T00:00:00","45","ND","3,65","2,1","83,1","25,2","68,6","0","0"],
    [17151,"2016-01-15T01:00:00","32","ND","3,32","1,1","103,3","24,5","72","0","0"],
    [17152,"2016-01-15T02:00:00","58","ND","3,06","0,8","186","24,6","72,1","0","0"],
    [17153,"2016-01-15T03:00:00","55","ND","2,26","0,7","225,2","24,1","74","0","0"],
    [17154,"2016-01-15T04:00:00","66","ND","1,33","2","123,6","23,7","75,9","0","0"],
    [17155,"2016-01-15T05:00:00","59","ND","1,28","2,1","106,3","23,5","77,1","0","0"],
    [17156,"2016-01-15T06:00:00","62","ND","0,92","1,1","190,9","23,7","76","0","0"],
    [17157,"2016-01-15T07:00:00","73","ND","1,79","2,2","98,8","23,3","76,2","5,5","0"],
    [17158,"2016-01-15T08:00:00","81","ND","3,04","1,9","74,9","23,6","75,1","55,6","0"],
    [17159,"2016-01-15T09:00:00","65","ND","13,66","1,3","59,2","24,9","69,9","183,5","0"],
    [17160,"2016-01-15T10:00:00","86","ND","34,32","2,4","183,2","27,1","62,5","278,6","0"],
    [17161,"2016-01-15T11:00:00","80","ND","61,81","2,1","159,4","29,1","55,2","356","0"],
    [17162,"2016-01-15T12:00:00","82","ND","83,2","3,6","89,3","30,9","48,8","409,4","0"],
    [17163,"2016-01-15T13:00:00","46","ND","84,87","3,1","98,5","32,2","41,6","401,9","0"],
    [17164,"2016-01-15T14:00:00","53","ND","100,3","2,5","106,8","33,5","37,6","393,1","0"],
    [17165,"2016-01-15T15:00:00","55","ND","111,48","3,3","93,5","34,1","36,6","318,5","0"],
    [17166,"2016-01-15T16:00:00","73","ND","132,54","3","97,4","34,2","36,7","219,2","0"],
    [17167,"2016-01-15T17:00:00","85","ND","127,36","1,6","117,2","34,3","36,9","96,2","0"],
    [17168,"2016-01-15T18:00:00","76","ND","71,31","5,1","290,7","33","39,4","27,1","0"],
    [17169,"2016-01-15T19:00:00","62","ND","35,54","6,7","299,9","30,9","44","0","0"],
    [17170,"2016-01-15T20:00:00","65","ND","17,56","0,6","340,9","29,3","51,4","0","0"],
    [17171,"2016-01-15T21:00:00","73","ND","8,5","3,6","76,9","27,3","60,6","0","0"],
    [17172,"2016-01-15T22:00:00","48","ND","7,89","2,4","74,4","26,3","64,3","0","0"],
    [17173,"2016-01-15T23:00:00","61","ND","5,87","2","79,9","26,3","64","0","0"],
    [17174,"2016-01-16T00:00:00","42","ND","6,57","1,9","104,1","25,8","66","0","0"],
    [17175,"2016-01-16T01:00:00","100","ND","7,73","2","197,1","25,3","69,2","0","0"],
    [17176,"2016-01-16T02:00:00","99","ND","5,42","2,7","192,7","24,8","71,6","0","0"],
    [17177,"2016-01-16T03:00:00","87","ND","5,77","2,7","204,4","24,7","72,8","0","0"],
    [17178,"2016-01-16T04:00:00","161","ND","5,3","0,9","98,4","24,4","73,7","0","0"],
    [17179,"2016-01-16T05:00:00","86","ND","1,2","2,7","127,8","23,7","77,4","0","0"],
    [17180,"2016-01-16T06:00:00","85","ND","0,92","2,9","117,2","23,6","77,8","0","0"],
    [17181,"2016-01-16T07:00:00","85","ND","1,26","1,2","166,3","23,3","78,3","0","0"],
    [17182,"2016-01-16T08:00:00","108","ND","4,87","2,6","191,7","24,2","75,3","67,4","0"],
    [17183,"2016-01-16T09:00:00","65","ND","17,27","2,5","213,8","25,9","67","100,7","0"],
    [17184,"2016-01-16T10:00:00","82","ND","32,63","1,6","162,5","27,6","61,2","261,3","0"],
    [17185,"2016-01-16T11:00:00","77","ND","68,64","1,4","145,7","29,7","52,9","364,1","0"],
    [17186,"2016-01-16T12:00:00","60","ND","70,39","3,4","76,2","31,5","45,4","391,4","0"],
    [17187,"2016-01-16T13:00:00","53","ND","77,4","2,7","75,8","32,7","41,4","412","0"],
    [17188,"2016-01-16T14:00:00","80","ND","107,05","3,7","81,8","33,8","39,4","358,2","0"],
    [17189,"2016-01-16T15:00:00","82","ND","113,62","3,4","42,5","34,4","37,9","191,3","0"],
    [17190,"2016-01-16T16:00:00","58","ND","61,44","3,9","303","34,1","37,5","134,8","0"],
    [17191,"2016-01-16T17:00:00","61","ND","45,49","7,7","283,6","33","39,6","77,6","0"],
    [17192,"2016-01-16T18:00:00","62","ND","30,91","7,4","289,5","30,9","46,3","10,2","0"],
    [17193,"2016-01-16T19:00:00","47","ND","26,75","6,7","302,8","29,9","49,3","0","0"],
    [17194,"2016-01-16T20:00:00","76","ND","10,85","0,7","47,2","29","52,7","0","0"],
    [17195,"2016-01-16T21:00:00","63","ND","4,18","3","101,1","27,1","62","0","0"],
    [17196,"2016-01-16T22:00:00","63","ND","3,16","2,9","99,9","26,3","66,4","0","0"],
    [17197,"2016-01-16T23:00:00","55","ND","2,08","1,9","130,3","26,3","66,1","0","0"],
    [17198,"2016-01-17T00:00:00","72","ND","1,18","2,8","123","25,7","69","0","0"],
    [17199,"2016-01-17T01:00:00","63","ND","2,79","1,9","124,8","25,6","70","0","0"],
    [17200,"2016-01-17T02:00:00","69","ND","4,08","1","247,6","25,4","70,3","0","0"],
    [17201,"2016-01-17T03:00:00","70","ND","1,55","2,1","142,7","25,3","71,5","0","0"],
    [17202,"2016-01-17T04:00:00","75","ND","1,31","1,8","153,1","24,5","74,3","0","0"],
    [17203,"2016-01-17T05:00:00","80","ND","1,02","2","116,1","24,3","75,7","0","0"],
    [17204,"2016-01-17T06:00:00","75","ND","0,84","1,3","112,9","24,2","76,7","0","0"],
    [17205,"2016-01-17T07:00:00","67","ND","0,84","1","137,4","24,4","75,8","0","0"],
    [17206,"2016-01-17T08:00:00","79","ND","1,69","2,4","142,5","24,4","75,7","16,3","0"],
    [17207,"2016-01-17T09:00:00","75","ND","8,85","2,8","175,4","25,7","71,4","130,1","0"],
    [17208,"2016-01-17T10:00:00","66","ND","24,29","1,3","196,1","27,5","62,8","192,8","0"],
    [17209,"2016-01-17T11:00:00","60","ND","56,85","1,6","337,3","29,7","53,8","333,3","0"],
    [17210,"2016-01-17T12:00:00","61","ND","73,14","1,1","135,3","30,6","49,7","298,6","0"],
    [17211,"2016-01-17T13:00:00","59","ND","74,57","2,6","99,8","32,2","44,8","276,7","0"],
    [17212,"2016-01-17T14:00:00","60","ND","83,52","3,1","70,7","33,3","41,4","273,4","0"],
    [17213,"2016-01-17T15:00:00","57","ND","104,14","0,9","114,1","34,2","38,2","278,3","0"],
    [17214,"2016-01-17T16:00:00","61","ND","94,45","1,3","345,4","34,2","38,1","215,8","0"],
    [17215,"2016-01-17T17:00:00","60","ND","38,72","ND","285,9","34","37,7","126,5","0"],
    [17216,"2016-01-17T18:00:00","40","ND","28,28","7,1","293,7","32","42,8","35,2","0"],
    [17217,"2016-01-17T19:00:00","38","ND","23","6,1","302,4","30,2","48","0","0"],
    [17218,"2016-01-17T20:00:00","47","ND","10,85","1,5","21","29,2","52","0","0"],
    [17219,"2016-01-17T21:00:00","72","ND","3,24","2,7","94,5","27,9","58,6","0","0"],
    [17220,"2016-01-17T22:00:00","31","ND","13,48","5,1","268,2","28,3","56","0","0"],
    [17221,"2016-01-17T23:00:00","37","ND","6,4","2,7","86,5","27","63,1","0","0"],
    [17222,"2016-01-18T00:00:00","42","ND","5,93","2,8","69,5","25,7","68,8","0","0"],
    [17223,"2016-01-18T01:00:00","39","ND","7,04","1,2","299,6","25,9","68","0","0"],
    [17224,"2016-01-18T02:00:00","37","ND","5,02","0,9","85,6","26","67,7","0","0"],
    [17225,"2016-01-18T03:00:00","36","ND","5,61","2,4","106","25,1","71,3","0","0"],
    [17226,"2016-01-18T04:00:00","52","ND","1,12","2,8","112,8","24,9","73,8","0","0"],
    [17227,"2016-01-18T05:00:00","51","ND","3,02","1","75,9","24,8","74,7","0","0"],
    [17228,"2016-01-18T06:00:00","62","ND","1,73","0,8","132,8","25,3","72,3","0","0"],
    [17229,"2016-01-18T07:00:00","71","ND","2","0,5","156,5","25,6","70,7","0","0"],
    [17230,"2016-01-18T08:00:00","74","ND","4,04","2,4","186,3","25,8","70,6","34,5","0"],
    [17231,"2016-01-18T09:00:00","70","ND","16,56","3","206,4","27,3","64,4","200,5","0"],
    [17232,"2016-01-18T10:00:00","67","ND","34,91","3,3","226,3","28,5","59,5","285,3","0"],
    [17233,"2016-01-18T11:00:00","56","ND","59,85","3,5","224,9","30,1","53,8","340,9","0"],
    [17234,"2016-01-18T12:00:00","50","ND","75,08","2,2","166,7","31,7","46,6","375,9","0"],
    [17235,"2016-01-18T13:00:00","50","ND","79,79","4,1","94,2","33,3","39,9","427,8","0"],
    [17236,"2016-01-18T14:00:00","61","ND","117,88","2,2","28,3","33,9","37,4","305,8","0"],
    [17237,"2016-01-18T15:00:00","75","ND","132,56","4,3","330,7","33,9","37,8","150,9","0"],
    [17238,"2016-01-18T16:00:00","70","ND","101,55","4,2","322,5","34,5","36,1","237,8","0"],
    [17239,"2016-01-18T17:00:00","101","ND","64,64","7,5","283,7","33,9","36,6","125","0"],
    [17240,"2016-01-18T18:00:00","61","ND","42,07","6,8","289,8","31,8","41,8","35,2","0"],
    [17241,"2016-01-18T19:00:00","76","ND","27,36","5,1","295,5","30,4","45,7","0","0"],
    [17242,"2016-01-18T20:00:00","63","ND","13,27","1","10,2","29,4","49,1","0","0"],
    [17243,"2016-01-18T21:00:00","58","ND","4,28","2,8","105,7","27","60,1","0","0"],
    [17244,"2016-01-18T22:00:00","53","ND","5,04","1,8","109,8","26,9","62,4","0","0"],
    [17245,"2016-01-18T23:00:00","69","ND","6,22","3,5","81","26,5","64","0","0"],
    [17246,"2016-01-19T00:00:00","31","ND","7,61","2,6","105,9","26","67,2","0","0"],
    [17247,"2016-01-19T01:00:00","40","ND","5,53","2,2","146","25,9","68","0","0"],
    [17248,"2016-01-19T02:00:00","57","ND","3,79","2,2","124,2","25,4","69,8","0","0"],
    [17249,"2016-01-19T03:00:00","48","ND","5,71","0,9","103,9","25","72","0","0"],
    [17250,"2016-01-19T04:00:00","57","ND","5,24","2","105,2","25,3","71,1","0","0"],
    [17251,"2016-01-19T05:00:00","57","ND","2,1","1,9","135","24,9","72,6","0","0"],
    [17252,"2016-01-19T06:00:00","74","ND","1,31","1,8","176,8","25","72,8","0","0"],
    [17253,"2016-01-19T07:00:00","78","ND","1,37","1,6","187,1","24,7","73,9","0","0"],
    [17254,"2016-01-19T08:00:00","91","ND","5,61","2","190","25,6","70,8","63","0"],
    [17255,"2016-01-19T09:00:00","87","ND","18,8","2,3","204,7","26,6","66","140,8","0"],
    [17256,"2016-01-19T10:00:00","83","ND","40,82","2,3","180,2","27,8","61,8","261,5","0"],
    [17257,"2016-01-19T11:00:00","64","ND","ND","2,3","100","29,2","56,4","337","0"],
    [17258,"2016-01-19T12:00:00","53","12","71,45","2,4","51,8","30,6","48,9","285,3","0"],
    [17259,"2016-01-19T13:00:00","65","14","89,96","2,6","74,2","32,3","41,5","404,8","0"],
    [17260,"2016-01-19T14:00:00","74","32","136,9","2,8","86,9","33,5","37,9","388,2","0"],
    [17261,"2016-01-19T15:00:00","67","26","130,48","3,7","20,2","34","36,3","196,3","0"],
    [17262,"2016-01-19T16:00:00","74","15","79,32","5,2","331","33,7","37,2","185,5","0"],
    [17263,"2016-01-19T17:00:00","80","18","64,56","7,4","295,2","32,8","38,7","89,1","0"],
    [17264,"2016-01-19T18:00:00","77","15","42,39","7,8","294,5","30,6","44,7","14,2","0"],
    [17265,"2016-01-19T19:00:00","54","16","27,71","6,8","307,3","29,3","47,8","0","0"],
    [17266,"2016-01-19T20:00:00","84","37","9,32","2,2","23,6","28,6","51","0","0"],
    [17267,"2016-01-19T21:00:00","71","21","7,34","2,9","103,4","27,2","57,1","0","0"],
    [17268,"2016-01-19T22:00:00","64","28","9,2","3,3","77,8","26,5","60,3","0","0"],
    [17269,"2016-01-19T23:00:00","47","9","13,48","1,7","81,5","26,8","57,8","0","0"],
    [17270,"2016-01-20T00:00:00","49","11","13,82","1,6","119,2","26,4","60,3","0","0"],
    [17271,"2016-01-20T01:00:00","59","11","10,66","2,4","204,4","25,9","64","0","0"],
    [17272,"2016-01-20T02:00:00","76","22","6,5","2,3","180","25,4","67,1","0","0"],
    [17273,"2016-01-20T03:00:00","69","18","6,63","2,6","105,9","24,2","71,1","0","0"],
    [17274,"2016-01-20T04:00:00","52","16","8,73","2","87,8","24","71,6","0","0"],
    [17275,"2016-01-20T05:00:00","65","21","6,93","1,2","70,6","24,5","69,3","0","0"],
    [17276,"2016-01-20T06:00:00","68","21","5,85","0,5","72,4","24,2","69,7","0","0"],
    [17277,"2016-01-20T07:00:00","78","30","3,34","1,4","145,8","24,4","70,1","4,8","0"],
    [17278,"2016-01-20T08:00:00","72","21","8,36","2,1","182,7","24,8","69,5","28,9","0"],
    [17279,"2016-01-20T09:00:00","78","26","12,85","1,6","193,3","25,4","68,9","89,7","0"],
    [17280,"2016-01-20T10:00:00","79","29","31,69","2,4","214,6","26,8","62,7","190,1","0"],
    [17281,"2016-01-20T11:00:00","76","18","58,01","1,6","193,9","28,8","54,6","337,7","0"],
    [17282,"2016-01-20T12:00:00","68","21","79,93","1,5","107,5","30,4","48,6","380,9","0"],
    [17283,"2016-01-20T13:00:00","82","36","96,8","1,6","44,3","31,7","43,9","386,1","0"],
    [17284,"2016-01-20T14:00:00","75","32","112,33","3,7","74,2","33,1","38,5","364,3","0"],
    [17285,"2016-01-20T15:00:00","96","34","149,77","2,9","26,7","33,4","38,7","244","0"],
    [17286,"2016-01-20T16:00:00","72","24","98,04","4,1","327,5","33,7","38","213,4","0"],
    [17287,"2016-01-20T17:00:00","56","13","55,69","5,9","307,3","33,5","37,4","126,4","0"],
    [17288,"2016-01-20T18:00:00","68","13","40,01","5,6","288,4","31,7","41","12,5","0"],
    [17289,"2016-01-20T19:00:00","64","19","24,59","5,4","304,8","30,6","44,2","0","0"],
    [17290,"2016-01-20T20:00:00","72","20","19,35","2,1","300,9","29,8","47,8","0","0"],
    [17291,"2016-01-20T21:00:00","75","18","5,12","3,8","101,2","27,4","58,6","0","0"],
    [17292,"2016-01-20T22:00:00","71","18","5,89","2,8","101,3","26,2","64,3","0","0"],
    [17293,"2016-01-20T23:00:00","40","14","12,07","3,8","60,5","26,2","63,8","0","0"],
    [17294,"2016-01-21T00:00:00","53","10","13,4","2,5","73,9","25,9","65,1","0","0"],
    [17295,"2016-01-21T01:00:00","45","17","11,6","2,5","156,1","26","65,7","0","0"],
    [17296,"2016-01-21T02:00:00","70","22","7,26","2","129,4","25,6","67,7","0","0"],
    [17297,"2016-01-21T03:00:00","74","20","5,87","1,9","108,7","25,3","69,4","0","0"],
    [17298,"2016-01-21T04:00:00","72","20","6,95","1,2","122,9","25,1","70,1","0","0"],
    [17299,"2016-01-21T05:00:00","85","22","5,61","1,9","128,6","25,3","68,8","0","0"],
    [17300,"2016-01-21T06:00:00","81","29","3,47","1,5","192,8","25,2","69,5","0","0"],
    [17301,"2016-01-21T07:00:00","104","30","1,75","2,4","141","24,7","71,9","0","0"],
    [17302,"2016-01-21T08:00:00","132","44","2,02","1,9","116,3","24,5","74,1","16,8","0"],
    [17303,"2016-01-21T09:00:00","113","33","8,63","0,8","146,4","25,4","70,4","70,9","0"],
    [17304,"2016-01-21T10:00:00","100","26","28,12","2,1","186,1","27,5","61,5","245,1","0"],
    [17305,"2016-01-21T11:00:00","77","21","51","1,2","195,5","29,5","53,4","340","0"],
    [17306,"2016-01-21T12:00:00","69","19","79,73","0,7","203,3","31,2","47,3","401","0"],
    [17307,"2016-01-21T13:00:00","73","25","88,33","2,1","58,5","32,6","42,1","377,1","0"],
    [17308,"2016-01-21T14:00:00","79","27","108,48","2,5","45,7","32,9","40,5","164,6","0"],
    [17309,"2016-01-21T15:00:00","79","32","125,06","2,4","4,2","32,6","40,6","129,5","0"],
    [17310,"2016-01-21T16:00:00","77","15","71,43","6,6","284,6","33,3","38,6","205","0"],
    [17311,"2016-01-21T17:00:00","45","7","40,21","7,4","287,8","32,7","39","91,2","0"],
    [17312,"2016-01-21T18:00:00","57","7","28,94","6,1","288,2","31,3","42,7","14,5","0"],
    [17313,"2016-01-21T19:00:00","56","17","16,29","5,2","301,2","29,9","46,8","0","0"],
    [17314,"2016-01-21T20:00:00","78","24","7,32","2,1","3,7","29,2","50,3","0","0"],
    [17315,"2016-01-21T21:00:00","63","23","4,2","4","97,2","27,2","59,4","0","0"],
    [17316,"2016-01-21T22:00:00","49","12","5,2","2,5","55,8","26","65,3","0","0"],
    [17317,"2016-01-21T23:00:00","53","13","6,87","0,1","150,5","26,6","62,8","0","0"],
    [17318,"2016-01-22T00:00:00","57","18","6,46","2,2","121,6","25,9","65,7","0","0"],
    [17319,"2016-01-22T01:00:00","45","11","6,36","1,1","92,3","25,2","70,1","0","0"],
    [17320,"2016-01-22T02:00:00","70","24","4,83","0,9","128,2","25","71,2","0","0"],
    [17321,"2016-01-22T03:00:00","68","30","4,06","0,9","105,5","24,9","71,9","0","0"],
    [17322,"2016-01-22T04:00:00","61","22","4,65","1,8","104,9","25","71,1","0","0"],
    [17323,"2016-01-22T05:00:00","60","19","2,49","0,8","122,1","24,7","72,5","0","0"],
    [17324,"2016-01-22T06:00:00","76","25","1,31","1,1","182,8","24,6","73,1","0","0"],
    [17325,"2016-01-22T07:00:00","95","26","1,69","0,3","211,7","24,7","73,9","0","0"],
    [17326,"2016-01-22T08:00:00","95","21","3,16","1","125,1","25,2","71,7","30,7","0"],
    [17327,"2016-01-22T09:00:00","93","17","15,5","2,3","202,2","26,6","66,3","172","0"],
    [17328,"2016-01-22T10:00:00","64","17","39,31","2,2","187,8","28,4","58,5","273,9","0"],
    [17329,"2016-01-22T11:00:00","86","24","59,17","1,9","132,5","30,3","51,8","357,4","0"],
    [17330,"2016-01-22T12:00:00","57","21","73,9","3,4","67,2","31,9","46","402,1","0"],
    [17331,"2016-01-22T13:00:00","77","21","112,84","2,4","45,2","33,1","41,4","362,3","0"],
    [17332,"2016-01-22T14:00:00","84","27","123,9","3,5","83,6","34,4","37","398,5","0"],
    [17333,"2016-01-22T15:00:00","77","27","121,73","4,4","69,6","34,8","35,6","280,9","0"],
    [17334,"2016-01-22T16:00:00","59","25","96,84","2,7","93,2","34,8","35,6","208,5","0"],
    [17335,"2016-01-22T17:00:00","68","21","65,45","3,7","87,8","34,5","36,8","69,9","0"],
    [17336,"2016-01-22T18:00:00","89","22","44,74","5","340,9","33,3","40,5","24,4","0"],
    [17337,"2016-01-22T19:00:00","85","26","32,58","6,5","290,7","31,2","46,8","0","0"],
    [17338,"2016-01-22T20:00:00","79","25","23,02","4,8","297,7","30,1","49,9","0","0"],
    [17339,"2016-01-22T21:00:00","70","17","7,5","3,9","77,5","28,4","57,4","0","0"],
    [17340,"2016-01-22T22:00:00","58","14","7,01","2,5","85,1","27,1","62,6","0","0"],
    [17341,"2016-01-22T23:00:00","55","16","4,77","2,7","81,9","27","62,9","0","0"],
    [17342,"2016-01-23T00:00:00","37","12","6,12","2,6","102,8","26,5","65,8","0","0"],
    [17343,"2016-01-23T01:00:00","50","18","6,1","2,1","165,3","26,8","65,4","0","0"],
    [17344,"2016-01-23T02:00:00","70","9","4,57","2,4","144,8","26,2","67,7","0","0"],
    [17345,"2016-01-23T03:00:00","59","11","7,44","1,6","95,9","25,9","70,2","0","0"],
    [17346,"2016-01-23T04:00:00","57","18","9,48","0,8","76","25,6","73,7","0","0"],
    [17347,"2016-01-23T05:00:00","55","16","6,99","2,1","101,3","25,4","74,3","0","0"],
    [17348,"2016-01-23T06:00:00","91","29","3,24","2,1","156","25,9","70,6","0","0"],
    [17349,"2016-01-23T07:00:00","70","19","3,73","2","215,9","25,9","69,6","0","0"],
    [17350,"2016-01-23T08:00:00","75","33","1,41","2,1","93","25,1","78","10,1","0"],
    [17351,"2016-01-23T09:00:00","46","26","4,83","3,4","239,9","24,1","82,6","18,1","0"],
    [17352,"2016-01-23T10:00:00","34","9","9,99","3,8","306","24,4","84,1","105,7","0"],
    [17353,"2016-01-23T11:00:00","28","10","42,64","1,7","354","27","72","391,2","0"],
    [17354,"2016-01-23T12:00:00","36","14","72,57","1,5","339,8","30","56,8","440,8","0"],
    [17355,"2016-01-23T13:00:00","47","17","94,94","3,4","6,5","31,2","51,1","335,7","0"],
    [17356,"2016-01-23T14:00:00","51","18","79,63","3,7","13,1","32,9","44,3","399,7","0"],
    [17357,"2016-01-23T15:00:00","40","12","73","3,7","13,5","35,4","37,8","349,9","0"],
    [17358,"2016-01-23T16:00:00","42","12","63,23","3","40","38,1","31,4","229,4","0"],
    [17359,"2016-01-23T17:00:00","51","12","50,92","3,8","68,2","38,3","30,1","138,7","0"],
    [17360,"2016-01-23T18:00:00","38","8","26,41","3,9","275,6","36,2","34,4","15,1","0"],
    [17361,"2016-01-23T19:00:00","37","4","9,01","5,1","284,7","33,3","41","0","0"],
    [17362,"2016-01-23T20:00:00","37","7","4,36","4,4","306,9","31,5","45,8","0","0"],
    [17363,"2016-01-23T21:00:00","54","14","2,59","2,9","72,3","30","52,4","0","0"],
    [17364,"2016-01-23T22:00:00","67","20","1,67","2,4","75,7","27,8","60,6","0","0"],
    [17365,"2016-01-23T23:00:00","54","14","2","2,4","116,4","27","63,7","0","0"],
    [17366,"2016-01-24T00:00:00","49","13","3,2","3,1","88,1","26,7","65,3","0","0"],
    [17367,"2016-01-24T01:00:00","37","7","4,65","2,8","118","26,3","66,2","0","0"],
    [17368,"2016-01-24T02:00:00","43","4","4,51","2,2","104,3","26,2","67,2","0","0"],
    [17369,"2016-01-24T03:00:00","34","5","5,95","2,7","115,7","26,1","68,1","0","0"],
    [17370,"2016-01-24T04:00:00","46","11","4,2","1,1","175,2","26,1","68","0","0"],
    [17371,"2016-01-24T05:00:00","67","20","3,43","2,8","186,5","26,3","68,1","0","0"],
    [17372,"2016-01-24T06:00:00","63","20","2,02","1,4","199,8","26,2","68","0","0"],
    [17373,"2016-01-24T07:00:00","69","24","1,45","2,2","76,8","25,7","69,7","5,6","0"],
    [17374,"2016-01-24T08:00:00","88","24","4,38","1,7","149,5","26,1","70,3","40,7","0"],
    [17375,"2016-01-24T09:00:00","73","23","18,64","1,7","168,9","28,9","63,3","176,3","0"],
    [17376,"2016-01-24T10:00:00","62","19","33,89","2,1","108,4","32,5","48,6","281,3","0"],
    [17377,"2016-01-24T11:00:00","58","20","48,78","2,6","61","34,4","41,7","355,2","0"],
    [17378,"2016-01-24T12:00:00","59","16","70,67","1,8","157,1","36,2","36,8","434,5","0"],
    [17379,"2016-01-24T13:00:00","54","18","88,52","2,4","102,8","37,5","33,2","388,9","0"],
    [17380,"2016-01-24T14:00:00","46","27","100,36","1,3","96,4","38,5","30,4","364,3","0"],
    [17381,"2016-01-24T15:00:00","61","29","110,8","3,6","93,8","39,2","28,5","263,5","0"],
    [17382,"2016-01-24T16:00:00","46","20","84,05","3,9","333,2","37,8","31,1","123","0"],
    [17383,"2016-01-24T17:00:00","49","8","44,17","ND","289,8","36,3","34,1","81,4","0"],
    [17384,"2016-01-24T18:00:00","46","16","40,62","7,8","301,5","34,1","38,1","16,4","0"],
    [17385,"2016-01-24T19:00:00","36","16","28,87","5,6","315,8","32,7","40,5","0","0"],
    [17386,"2016-01-24T20:00:00","42","13","23,82","3,9","318,2","31,9","43,3","0","0"],
    [17387,"2016-01-24T21:00:00","47","16","10,15","1,7","121,7","30,8","48,9","0","0"],
    [17388,"2016-01-24T22:00:00","39","13","8,63","2,5","103,5","30,2","51,4","0","0"],
    [17389,"2016-01-24T23:00:00","28","9","9,16","4,2","115","29,3","54,3","0","0"],
    [17390,"2016-01-25T00:00:00","30","6","10,5","2,6","103,7","28,7","57,5","0","0"],
    [17391,"2016-01-25T01:00:00","24","6","15,29","2,4","97,2","28,1","59,9","0","0"],
    [17392,"2016-01-25T02:00:00","26","3","11,95","5","26,2","27,8","61,5","0","0"],
    [17393,"2016-01-25T03:00:00","11","3","32,67","5,2","7,3","26","66,3","0","0"],
    [17394,"2016-01-25T04:00:00","21","4","22,23","2,9","58,2","26","68,2","0","0"],
    [17395,"2016-01-25T05:00:00","16","3","17,9","1,5","103,4","25,4","70,7","0","0"],
    [17396,"2016-01-25T06:00:00","22","3","13,74","1,5","299,3","25,7","72","0","0"],
    [17397,"2016-01-25T07:00:00","51","9","2,51","3","93,7","26,1","70,9","0","0"],
    [17398,"2016-01-25T08:00:00","67","26","5,67","2,3","91,6","26,2","71,4","21,9","0"],
    [17399,"2016-01-25T09:00:00","39","9","21,37","1,5","326,9","27,3","69,6","100,1","0"],
    [17400,"2016-01-25T10:00:00","59","16","39,46","1,2","58,5","31,5","55,9","303,4","0"],
    [17401,"2016-01-25T11:00:00","40","5","49,59","3,7","72,8","35","41,7","390,9","0"],
    [17402,"2016-01-25T12:00:00","41","10","59,93","3,1","73,4","35,7","38,8","388","0"],
    [17403,"2016-01-25T13:00:00","39","13","65,01","3,3","45,6","37,1","34,7","439","0"],
    [17404,"2016-01-25T14:00:00","35","12","58,77","4,8","67,8","38,3","29,4","408,5","0"],
    [17405,"2016-01-25T15:00:00","48","16","60,34","4,8","84,4","39","28,2","285,9","0"],
    [17406,"2016-01-25T16:00:00","49","16","55,2","4,3","101,6","37,6","31,5","128,3","0"],
    [17407,"2016-01-25T17:00:00","85","31","63,8","5,5","139,2","35,8","36,2","49,4","0"],
    [17408,"2016-01-25T18:00:00","76","18","49,79","ND","245,9","32,5","40,7","6,3","0"],
    [17409,"2016-01-25T19:00:00","74","20","26,49","5,5","221,1","29,8","47,3","0","0"],
    [17410,"2016-01-25T20:00:00","75","23","15,86","2,7","150,4","29,8","49,8","0","0"],
    [17411,"2016-01-25T21:00:00","90","41","10,91","1,6","40,1","28,4","52","0","0"],
    [17412,"2016-01-25T22:00:00","88","27","10,44","2,6","18,7","27,9","54,1","0","0"],
    [17413,"2016-01-25T23:00:00","84","32","7,1","1,6","72,8","27,6","56,1","0","0"],
    [17414,"2016-01-26T00:00:00","81","34","4,24","1,5","94,6","27","59,1","0","0"],
    [17415,"2016-01-26T01:00:00","91","39","2,16","2,2","110,1","26,3","62,9","0","0"],
    [17416,"2016-01-26T02:00:00","95","31","3,36","2,9","115,4","26,2","63,5","0","0"],
    [17417,"2016-01-26T03:00:00","55","19","6,89","1,6","89,6","25,8","64,1","0","0"],
    [17418,"2016-01-26T04:00:00","56","21","4,32","1,2","179","25,7","65,4","0","0"],
    [17419,"2016-01-26T05:00:00","51","17","1,88","1,9","157,2","25,5","66,9","0","0"],
    [17420,"2016-01-26T06:00:00","45","15","1,79","2,6","171,3","25,4","68,6","0","0"],
    [17421,"2016-01-26T07:00:00","38","9","3,26","2,9","204,4","25,2","68,2","9,2","0"],
    [17422,"2016-01-26T08:00:00","61","18","3,92","3,1","129,8","26,1","66,4","78,9","0"],
    [17423,"2016-01-26T09:00:00","52","15","13,4","2,6","174","29,1","56,8","186,6","0"],
    [17424,"2016-01-26T10:00:00","38","9","30,73","2,3","180,3","32,6","43,3","290","0"],
    [17425,"2016-01-26T11:00:00","38","13","55,91","2,1","192,7","34,9","36,8","371,8","0"],
    [17426,"2016-01-26T12:00:00","46","15","65,99","2,1","82,4","36,5","33,3","419","0"],
    [17427,"2016-01-26T13:00:00","53","20","76,2","3,5","104,4","37,5","31,1","429,6","0"],
    [17428,"2016-01-26T14:00:00","57","25","107,58","3,7","86,9","38,5","29,2","389,6","0"],
    [17429,"2016-01-26T15:00:00","81","32","121,43","2,3","39,4","38,6","29,4","264,8","0"],
    [17430,"2016-01-26T16:00:00","50","19","61,89","4,9","313,1","39,3","27,8","248,9","0"],
    [17431,"2016-01-26T17:00:00","46","9","46,84","7,5","285,6","37,6","30,5","121,5","0"],
    [17432,"2016-01-26T18:00:00","48","10","32,28","6,3","289,9","35,2","35,8","21,9","0"],
    [17433,"2016-01-26T19:00:00","53","10","31,32","6","304,5","33,1","40,5","0","0"],
    [17434,"2016-01-26T20:00:00","75","29","19,9","2,1","344,2","31,7","44,3","0","0"],
    [17435,"2016-01-26T21:00:00","53","14","3,79","3","86,6","29,3","53,9","0","0"],
    [17436,"2016-01-26T22:00:00","40","11","4,59","2,7","102,6","27,7","60,1","0","0"],
    [17437,"2016-01-26T23:00:00","65","19","4,14","2,3","216,1","27,7","61,2","0","0"],
    [17438,"2016-01-27T00:00:00","78","22","1,57","2,1","152,6","28","61,1","0","0"],
    [17439,"2016-01-27T01:00:00","61","16","2,37","2,4","100,3","27,3","63,1","0","0"],
    [17440,"2016-01-27T02:00:00","89","29","5,32","2,5","110,6","26,8","65,1","0","0"],
    [17441,"2016-01-27T03:00:00","40","10","8,38","2,5","88,8","26,8","65,2","0","0"],
    [17442,"2016-01-27T04:00:00","38","8","8,36","2,3","99,1","26,6","65,6","0","0"],
    [17443,"2016-01-27T05:00:00","45","13","4,06","1,7","121,8","26,4","66,7","0","0"],
    [17444,"2016-01-27T06:00:00","88","21","1,57","2","129,5","26,1","67,7","0","0"],
    [17445,"2016-01-27T07:00:00","103","27","1,06","2,2","131,2","25,5","69,9","0","0"],
    [17446,"2016-01-27T08:00:00","94","27","4,42","2,6","210,1","26,3","70","46,7","0"],
    [17447,"2016-01-27T09:00:00","63","24","17,56","3,4","228,4","29,1","61,8","169,9","0"],
    [17448,"2016-01-27T10:00:00","70","27","33,67","2,6","200,3","32,1","49,5","254,9","0"],
    [17449,"2016-01-27T11:00:00","95","31","62,46","2,6","105,7","34,4","42,1","322,9","0"],
    [17450,"2016-01-27T12:00:00","76","39","85,28","2,8","68","36,1","37,5","428,1","0"],
    [17451,"2016-01-27T13:00:00","54","23","89,86","3,9","85,6","37,6","32,3","437,3","0"],
    [17452,"2016-01-27T14:00:00","73","26","124,89","3,1","63,2","38,6","29,6","387,2","0"],
    [17453,"2016-01-27T15:00:00","71","30","126,65","4,2","12,5","38,9","28,1","289,3","0"],
    [17454,"2016-01-27T16:00:00","47","13","74,71","4,1","331,6","39,1","27,8","260,2","0"],
    [17455,"2016-01-27T17:00:00","50","9","54,04","7,5","287","38,4","28,8","140,2","0"],
    [17456,"2016-01-27T18:00:00","53","5","34,01","7,7","288,7","35,7","34","37,4","0"],
    [17457,"2016-01-27T19:00:00","47","8","20,98","6,4","305,4","33,1","38,8","0","0"],
    [17458,"2016-01-27T20:00:00","71","25","11,97","2,2","351,5","31,5","43,6","0","0"],
    [17459,"2016-01-27T21:00:00","77","17","4,91","3,8","106","29,4","51,4","0","0"],
    [17460,"2016-01-27T22:00:00","44","12","4,61","2,7","70,3","28","58,3","0","0"],
    [17461,"2016-01-27T23:00:00","60","17","3,65","2,1","180,2","27,6","59,8","0","0"],
    [17462,"2016-01-28T00:00:00","86","31","2,59","2,7","199,2","27,3","61,5","0","0"],
    [17463,"2016-01-28T01:00:00","59","17","3,67","2,5","191,7","27,1","62,6","0","0"],
    [17464,"2016-01-28T02:00:00","84","28","2,59","2,3","112,9","26,3","64,9","0","0"],
    [17465,"2016-01-28T03:00:00","65","20","4,43","1,8","86,2","26","67","0","0"],
    [17466,"2016-01-28T04:00:00","65","34","3,53","2,1","102,5","25,9","67,2","0","0"],
    [17467,"2016-01-28T05:00:00","62","15","3,71","1,9","103,5","25,5","67,3","0","0"],
    [17468,"2016-01-28T06:00:00","47","13","4,24","0,7","287,6","25,6","66,8","0","0"],
    [17469,"2016-01-28T07:00:00","95","21","1,84","3,2","200,7","26,1","67,1","4,5","0"],
    [17470,"2016-01-28T08:00:00","95","26","3,91","2,9","177,1","26,7","66,9","59,2","0"],
    [17471,"2016-01-28T09:00:00","61","21","13,99","2,5","176,7","29,7","58,2","186,9","0"],
    [17472,"2016-01-28T10:00:00","63","25","38,38","1,1","152","32,7","45,2","285,1","0"],
    [17473,"2016-01-28T11:00:00","66","20","58,97","2,3","56,9","35","39,2","370,8","0"],
    [17474,"2016-01-28T12:00:00","53","21","70,7","2,2","87,2","36,4","34,7","424,5","0"],
    [17475,"2016-01-28T13:00:00","73","28","109,58","3","22,2","37,6","32,2","428,3","0"],
    [17476,"2016-01-28T14:00:00","60","20","113,99","3,2","35,6","38,6","28,3","304,8","0"],
    [17477,"2016-01-28T15:00:00","48","13","67,58","5,1","303,7","38,3","28,5","294,1","0"],
    [17478,"2016-01-28T16:00:00","72","11","47,55","ND","293,9","37,5","29,3","246,7","0"],
    [17479,"2016-01-28T17:00:00","69","12","43,15","ND","292,8","35,9","31,8","124,4","0"],
    [17480,"2016-01-28T18:00:00","54","11","32,42","6,4","310,5","34,2","35,3","23,8","0"],
    [17481,"2016-01-28T19:00:00","47","10","20,88","5,3","312,3","32,5","38,3","0","0"],
    [17482,"2016-01-28T20:00:00","61","16","11,26","2,5","345,4","31,1","41,8","0","0"],
    [17483,"2016-01-28T21:00:00","59","15","5,77","3,4","117,7","29,4","49","0","0"],
    [17484,"2016-01-28T22:00:00","61","14","8,01","3,1","77,7","27,7","55,7","0","0"],
    [17485,"2016-01-28T23:00:00","42","12","10,26","2,8","68","27,4","57,4","0","0"],
    [17486,"2016-01-29T00:00:00","48","15","8,73","2,5","73,4","27,5","57,5","0","0"],
    [17487,"2016-01-29T01:00:00","50","17","8,07","0,3","57,8","26,7","60,8","0","0"],
    [17488,"2016-01-29T02:00:00","33","5","14,21","1,1","132,8","27,3","58,8","0","0"],
    [17489,"2016-01-29T03:00:00","52","18","8,34","2,1","151,7","26,2","62,5","0","0"],
    [17490,"2016-01-29T04:00:00","55","13","4,12","2,1","118,9","25,8","64,7","0","0"],
    [17491,"2016-01-29T05:00:00","62","21","2,73","1,2","145,3","25,3","66,7","0","0"],
    [17492,"2016-01-29T06:00:00","83","26","1,67","2","135","25,7","67","0","0"],
    [17493,"2016-01-29T07:00:00","82","28","1,86","2,1","147,8","25,8","67,1","0","0"],
    [17494,"2016-01-29T08:00:00","101","34","3,2","2,2","117,5","26,6","65,7","63,1","0"],
    [17495,"2016-01-29T09:00:00","90","25","12,17","2,9","138,9","29,1","57,5","91,3","0"],
    [17496,"2016-01-29T10:00:00","84","27","22,27","2,3","138,2","30,3","52,4","183,1","0"],
    [17497,"2016-01-29T11:00:00","65","19","51,26","1,8","132,9","34,3","40,6","387,4","0"],
    [17498,"2016-01-29T12:00:00","71","20","79,97","2,8","85,7","36,2","34,9","322","0"],
    [17499,"2016-01-29T13:00:00","90","28","95,8","4,7","69,5","35,9","35,4","323","0"],
    [17500,"2016-01-29T14:00:00","75","27","111,46","4,7","46,8","37","32,8","356,5","0"],
    [17501,"2016-01-29T15:00:00","70","24","98,71","3,4","50,4","37,6","31,2","238,7","0"],
    [17502,"2016-01-29T16:00:00","57","11","62,62","4,1","303,9","37,7","29,4","183,8","0"],
    [17503,"2016-01-29T17:00:00","52","8","49,1","7,2","277,4","36,2","30,9","63,3","0"],
    [17504,"2016-01-29T18:00:00","65","11","46,55","6","255","33,2","38,6","5,4","0"],
    [17505,"2016-01-29T19:00:00","74","32","56,1","4,1","209","29,8","50,6","0","0"],
    [17506,"2016-01-29T20:00:00","97","49","30,14","4","149,1","28,7","56,4","0","0"],
    [17507,"2016-01-29T21:00:00","101","41","23,31","1,1","189,1","27,7","59,8","0","0"],
    [17508,"2016-01-29T22:00:00","97","34","18,66","0,6","177,9","27,4","60,5","0","0"],
    [17509,"2016-01-29T23:00:00","102","39","15,33","1,9","150,3","27,2","62,2","0","0"],
    [17510,"2016-01-30T00:00:00","54","24","17,05","3,2","144,2","27,1","63,3","0","0"],
    [17511,"2016-01-30T01:00:00","48","19","13,21","2,5","171,5","26,5","67,1","0","0"],
    [17512,"2016-01-30T02:00:00","65","23","16,13","2,2","149,3","26,4","68,8","0","0"],
    [17513,"2016-01-30T03:00:00","59","18","7,59","2","168,7","26,2","69,3","0","0"],
    [17514,"2016-01-30T04:00:00","34","11","9,67","1,1","268,4","25,4","71,8","0","0"],
    [17515,"2016-01-30T05:00:00","38","25","6,06","0,7","69,9","25,2","74,7","0","0"],
    [17516,"2016-01-30T06:00:00","44","20","4,42","1,9","29","25,1","75,7","0","0"],
    [17517,"2016-01-30T07:00:00","58","24","2,14","2,3","98,7","24,9","76,9","0","0"],
    [17518,"2016-01-30T08:00:00","77","30","3,81","2,2","137,1","25,2","77,2","27,6","0"],
    [17519,"2016-01-30T09:00:00","60","21","11,44","1,8","158","26,4","76,1","105,4","0"],
    [17520,"2016-01-30T10:00:00","63","31","29,18","2,4","105,5","29,3","65,6","257,3","0"],
    [17521,"2016-01-30T11:00:00","75","28","48,47","3,2","75,5","32,4","50,1","326,7","0"],
    [17522,"2016-01-30T12:00:00","55","24","71,43","1,9","107,6","34,2","42,3","420,4","0"],
    [17523,"2016-01-30T13:00:00","47","16","77,77","0,5","105,2","35,8","36,3","406,8","0"],
    [17524,"2016-01-30T14:00:00","55","14","75,53","2,5","90,9","37,5","30,9","375,3","0"],
    [17525,"2016-01-30T15:00:00","70","23","86,64","3,5","73,2","37,6","29,7","275,4","0"],
    [17526,"2016-01-30T16:00:00","54","20","87,72","4,6","342,1","37,2","31,5","195,7","0"],
    [17527,"2016-01-30T17:00:00","40","13","53,67","ND","294,7","36,3","32,6","146,7","0"],
    [17528,"2016-01-30T18:00:00","41","12","40,42","7,3","287,7","34,2","36,4","44","0"],
    [17529,"2016-01-30T19:00:00","56","26","24,06","2,1","327,5","31,4","41,6","0","0"],
    [17530,"2016-01-30T20:00:00","57","24","7,12","3","99,8","29,4","49,7","0","0"],
    [17531,"2016-01-30T21:00:00","58","20","6,93","2,6","58,2","27,7","57,1","0","0"],
    [17532,"2016-01-30T22:00:00","63","19","6,36","1,8","265,9","27,4","58,7","0","0"],
    [17533,"2016-01-30T23:00:00","71","25","5,61","2,5","145","26,8","60,8","0","0"],
    [17534,"2016-01-31T00:00:00","64","15","6,91","1,6","137","26,5","61,4","0","0"],
    [17535,"2016-01-31T01:00:00","54","15","10,28","2,6","207,5","26,3","61,7","0","0"],
    [17536,"2016-01-31T02:00:00","42","18","8,14","2,5","164","26,2","62,1","0","0"],
    [17537,"2016-01-31T03:00:00","45","11","9,01","2,1","173,2","26","62,7","0","0"],
    [17538,"2016-01-31T04:00:00","68","33","10,2","1,2","152","26","63,2","0","0"],
    [17539,"2016-01-31T05:00:00","50","12","6,83","1,1","67,1","25,9","62,8","0","0"],
    [17540,"2016-01-31T06:00:00","81","29","1,53","2,5","80,8","25,5","66,5","0","0"],
    [17541,"2016-01-31T07:00:00","81","29","2,43","1,2","108,1","25,1","68,6","5","0"],
    [17542,"2016-01-31T08:00:00","72","23","7,12","2,2","171,5","26,1","67","70,5","0"],
    [17543,"2016-01-31T09:00:00","69","19","16,72","2,5","106,7","29,2","56,6","192,2","0"],
    [17544,"2016-01-31T10:00:00","54","19","40,29","1,1","122,2","32,1","44,9","288,5","0"],
    [17545,"2016-01-31T11:00:00","48","14","63,72","2,2","72,6","34,6","37,2","378,8","0"],
    [17546,"2016-01-31T12:00:00","57","18","74,65","3,2","67,1","35,8","34,4","429,8","0"],
    [17547,"2016-01-31T13:00:00","50","21","81,26","3,2","84,3","37,2","31,4","439,8","0"],
    [17548,"2016-01-31T14:00:00","53","24","98,55","3,9","75,5","38,2","28,7","365,7","0"],
    [17549,"2016-01-31T15:00:00","57","19","101,61","4,7","72,3","38,2","27,9","308,5","0"],
    [17550,"2016-01-31T16:00:00","49","18","85,44","2,9","35,1","37,8","28,3","161,5","0"],
    [17551,"2016-01-31T17:00:00","39","7","65,52","4,7","326,6","37,7","28,7","153,7","0"],
    [17552,"2016-01-31T18:00:00","37","11","43,74","6,9","301,2","35,9","32,7","39,9","0"],
    [17553,"2016-01-31T19:00:00","43","10","31,1","5,8","299,1","33,1","38,4","0","0"],
    [17554,"2016-01-31T20:00:00","61","22","16,74","2,3","334,2","31,4","42,8","0","0"],
    [17555,"2016-01-31T21:00:00","69","21","6,2","3,8","102,4","29,3","51,2","0","0"],
    [17556,"2016-01-31T22:00:00","63","20","6,34","3,2","88,2","27,6","58,3","0","0"],
    [17557,"2016-01-31T23:00:00","59","24","5,12","1,3","56,4","26,7","61,9","0","0"],
    [17558,"2016-02-01T00:00:00","49","13","7,95","2,7","76,4","26,8","62,6","0","0"],
    [17559,"2016-02-01T01:00:00","48","17","7,4","2,5","105,1","ND","63,9","0","ND"],
    [17560,"2016-02-01T02:00:00","59","15","9,67","2,9","109,1","ND","64,2","0","ND"],
    [17561,"2016-02-01T03:00:00","38","13","9,67","0,3","77,4","ND","66,1","0","ND"],
    [17562,"2016-02-01T04:00:00","36","12","11,17","0,8","27,7","ND","66","0","ND"],
    [17563,"2016-02-01T05:00:00","52","12","5,12","2,1","89,1","ND","66,8","0","ND"],
    [17564,"2016-02-01T06:00:00","74","26","2,53","2,1","99,4","ND","68,2","0","ND"],
    [17565,"2016-02-01T07:00:00","78","18","1,94","1,6","47,3","ND","69,4","6,5","ND"],
    [17566,"2016-02-01T08:00:00","89","27","4,24","2,5","162,8","ND","69,1","35,3","ND"],
    [17567,"2016-02-01T09:00:00","77","27","15,97","3,4","204,4","ND","63,8","159,6","ND"],
    [17568,"2016-02-01T10:00:00","68","21","35,68","2,8","163,9","ND","48,2","284,1","ND"],
    [17569,"2016-02-01T11:00:00","52","16","60,09","1,1","108,3","ND","39,9","362,8","ND"],
    [17570,"2016-02-01T12:00:00","58","18","73,9","3,2","67,1","ND","36,3","436,4","ND"],
    [17571,"2016-02-01T13:00:00","53","23","82,79","2,6","63,4","ND","31,8","457,5","ND"],
    [17572,"2016-02-01T14:00:00","68","25","109,99","2,8","58,4","ND","29,4","358,2","ND"],
    [17573,"2016-02-01T15:00:00","73","30","126,61","4,5","52,2","ND","28,2","332","ND"],
    [17574,"2016-02-01T16:00:00","71","26","92,07","2,5","19,1","ND","28,8","183,4","ND"],
    [17575,"2016-02-01T17:00:00","65","17","51","ND","283,7","ND","29,6","139,4","ND"],
    [17576,"2016-02-01T18:00:00","69","18","37,48","7,2","291,1","ND","34","32,3","ND"],
    [17577,"2016-02-01T19:00:00","58","18","23,92","4,9","301,4","ND","38,6","0","ND"],
    [17578,"2016-02-01T20:00:00","88","28","14,13","0,7","36,3","ND","43,4","0","ND"],
    [17579,"2016-02-01T21:00:00","77","29","9,16","3,3","97","ND","49,7","0","ND"],
    [17580,"2016-02-01T22:00:00","88","42","13,6","3,9","103,5","ND","53,8","0","ND"],
    [17581,"2016-02-01T23:00:00","72","29","11,36","3,5","98","ND","57","0","ND"],
    [17582,"2016-02-02T00:00:00","64","26","9,18","1,9","112,6","ND","60,8","0","ND"],
    [17583,"2016-02-02T01:00:00","82","39","11,85","0,6","127,6","ND","62,5","0","ND"],
    [17584,"2016-02-02T02:00:00","59","22","11,87","0,1","236,3","ND","63,5","0","ND"],
    [17585,"2016-02-02T03:00:00","66","25","10,66","1,8","140,7","ND","63,6","0","ND"],
    [17586,"2016-02-02T04:00:00","84","23","6,28","2,5","134,5","ND","64,5","0","ND"],
    [17587,"2016-02-02T05:00:00","89","25","2,47","1,9","135,6","ND","67,3","0","ND"],
    [17588,"2016-02-02T06:00:00","77","26","3,61","2,6","198,9","ND","68,5","0","ND"],
    [17589,"2016-02-02T07:00:00","90","34","3,87","1,4","171","ND","66,8","4,1","ND"],
    [17590,"2016-02-02T08:00:00","103","43","3,41","3,1","120,5","ND","68,3","67,9","ND"],
    [17591,"2016-02-02T09:00:00","79","26","15,74","2","109,5","ND","59,4","179,3","ND"],
    [17592,"2016-02-02T10:00:00","55","24","37,52","2,1","118,8","ND","44,5","285,4","ND"],
    [17593,"2016-02-02T11:00:00","62","22","73,26","1,7","187,8","ND","38,1","372","ND"],
    [17594,"2016-02-02T12:00:00","57","27","93,11","2,2","99,3","ND","33,1","420","ND"],
    [17595,"2016-02-02T13:00:00","78","27","117,9","3,2","25","ND","30,4","433,7","ND"],
    [17596,"2016-02-02T14:00:00","74","29","121,94","4,3","53,7","ND","28","391,5","ND"],
    [17597,"2016-02-02T15:00:00","68","23","105,14","4,4","355,4","ND","28,7","178","ND"],
    [17598,"2016-02-02T16:00:00","ND","ND","62,07","8,3","295,5","ND","29,2","259,9","ND"],
    [17599,"2016-02-02T17:00:00","56","14","87,74","9,2","297,3","ND","30,5","142,6","ND"],
    [17600,"2016-02-02T18:00:00","50","9","33,11","7,3","297,7","ND","33,8","49,2","ND"],
    [17601,"2016-02-02T19:00:00","54","14","18,51","5,3","313,7","ND","37,6","0","ND"],
    [17602,"2016-02-02T20:00:00","89","26","5,67","2,2","65,3","ND","44,5","0","ND"],
    [17603,"2016-02-02T21:00:00","58","19","5,14","3,6","102,8","ND","52,1","0","ND"],
    [17604,"2016-02-02T22:00:00","62","29","4,95","3,4","90,2","ND","58,1","0","ND"],
    [17605,"2016-02-02T23:00:00","38","9","4,83","3,5","88,4","ND","60,4","0","ND"],
    [17606,"2016-02-03T00:00:00","29","7","7,99","3,3","116,8","ND","63,6","0","ND"],
    [17607,"2016-02-03T01:00:00","28","5","10,54","1,2","116,6","ND","64,2","0","ND"],
    [17608,"2016-02-03T02:00:00","51","17","7,67","2,5","197,5","ND","64,9","0","ND"],
    [17609,"2016-02-03T03:00:00","49","8","8,71","2,6","98","ND","65,4","0","ND"],
    [17610,"2016-02-03T04:00:00","66","15","6,24","2,6","120,7","ND","66,7","0","ND"],
    [17611,"2016-02-03T05:00:00","72","27","3,18","2,4","162","ND","67,7","0","ND"],
    [17612,"2016-02-03T06:00:00","86","27","1,94","1,9","168,4","ND","69","0","ND"],
    [17613,"2016-02-03T07:00:00","100","29","2,02","1,2","132,6","ND","70,2","0","ND"],
    [17614,"2016-02-03T08:00:00","94","31","3,14","1,9","93,9","ND","69,5","42","ND"],
    [17615,"2016-02-03T09:00:00","98","34","15,78","1,3","126,2","ND","62,7","162,9","ND"],
    [17616,"2016-02-03T10:00:00","61","21","42,74","2","89,6","ND","44,5","290,2","ND"],
    [17617,"2016-02-03T11:00:00","56","20","61,6","2,2","76,5","ND","37,4","375,6","ND"],
    [17618,"2016-02-03T12:00:00","70","24","82,01","1,8","170,1","ND","33,7","419,3","ND"],
    [17619,"2016-02-03T13:00:00","66","27","85,93","2,3","84,6","ND","30,6","394","ND"],
    [17620,"2016-02-03T14:00:00","64","24","107,4","2,9","63","ND","27,1","396","ND"],
    [17621,"2016-02-03T15:00:00","66","25","112,64","3,3","80,6","ND","24,8","338,1","ND"],
    [17622,"2016-02-03T16:00:00","76","27","97,02","3,4","327,9","ND","26,9","199,6","ND"],
    [17623,"2016-02-03T17:00:00","55","13","59,85","8,7","287","ND","30,2","142,1","ND"],
    [17624,"2016-02-03T18:00:00","55","18","52,83","6,3","294,4","ND","33,4","44,1","ND"],
    [17625,"2016-02-03T19:00:00","61","17","32,91","5,3","303","ND","37,3","0","ND"],
    [17626,"2016-02-03T20:00:00","72","27","16,07","2,1","22","ND","42,3","0","ND"],
    [17627,"2016-02-03T21:00:00","71","26","8,42","3,2","97,8","ND","48,6","0","ND"],
    [17628,"2016-02-03T22:00:00","40","7","20,76","4,1","262,4","ND","50,2","0","ND"],
    [17629,"2016-02-03T23:00:00","45","8","19,6","1,9","256,7","ND","50","0","ND"],
    [17630,"2016-02-04T00:00:00","54","8","9,97","2,2","79,3","ND","55","0","ND"],
    [17631,"2016-02-04T01:00:00","33","6","12,93","2,8","87,2","ND","59,6","0","ND"],
    [17632,"2016-02-04T02:00:00","35","7","13,36","1,2","90,5","ND","62,8","0","ND"],
    [17633,"2016-02-04T03:00:00","45","10","14,36","1,4","56,6","ND","64,2","0","ND"],
    [17634,"2016-02-04T04:00:00","46","14","9,38","1,6","88,9","ND","64,4","0","ND"],
    [17635,"2016-02-04T05:00:00","58","11","5,57","1,6","137,1","ND","64,3","0","ND"],
    [17636,"2016-02-04T06:00:00","88","30","2,71","3,1","156,7","ND","65,4","0","ND"],
    [17637,"2016-02-04T07:00:00","73","25","1,45","2","204,1","ND","69,2","0","ND"],
    [17638,"2016-02-04T08:00:00","78","22","4,38","2,9","203","ND","70,8","37,4","ND"],
    [17639,"2016-02-04T09:00:00","68","25","9,69","3,1","175,9","ND","66,6","69,5","ND"],
    [17640,"2016-02-04T10:00:00","80","28","17,84","2,4","134,8","ND","61,6","154,2","ND"],
    [17641,"2016-02-04T11:00:00","86","31","44,76","1,5","55","ND","52,1","296,1","ND"],
    [17642,"2016-02-04T12:00:00","101","41","97,47","2,2","3,9","ND","42,5","283,4","ND"],
    [17643,"2016-02-04T13:00:00","77","27","132,09","0,8","313,6","ND","37,9","249,1","ND"],
    [17644,"2016-02-04T14:00:00","84","26","135,82","2,7","106,3","ND","34,8","250,8","ND"],
    [17645,"2016-02-04T15:00:00","72","29","100,69","3,9","27,2","ND","35,2","142,9","ND"],
    [17646,"2016-02-04T16:00:00","51","14","52,41","6,1","297,4","ND","35,7","127,8","ND"],
    [17647,"2016-02-04T17:00:00","35","8","29,08","7,1","295,3","ND","38,9","62","ND"],
    [17648,"2016-02-04T18:00:00","31","2","22,96","6","305,4","ND","40,5","19,2","ND"],
    [17649,"2016-02-04T19:00:00","41","6","14,78","4,3","323,4","ND","45,3","0","ND"],
    [17650,"2016-02-04T20:00:00","118","15","14,38","2,1","195,4","ND","50,3","0","ND"],
    [17651,"2016-02-04T21:00:00","32","11","24,57","5,7","220,7","ND","57,7","0","ND"],
    [17652,"2016-02-04T22:00:00","34","10","26,75","4,9","211,4","ND","62","0","ND"],
    [17653,"2016-02-04T23:00:00","26","6","26,34","5,5","216,9","ND","63,6","0","ND"],
    [17654,"2016-02-05T00:00:00","29","10","22,7","5","200,1","ND","66,3","0","ND"],
    [17655,"2016-02-05T01:00:00","20","8","20,57","3,5","185","ND","69,7","0","ND"],
    [17656,"2016-02-05T02:00:00","23","5","23,67","4,5","183,1","ND","72,8","0","ND"],
    [17657,"2016-02-05T03:00:00","17","4","22,65","3,2","173","ND","74,2","0","ND"],
    [17658,"2016-02-05T04:00:00","18","6","17,68","2,7","183","ND","75,4","0","ND"],
    [17659,"2016-02-05T05:00:00","15","6","18,35","2,3","181,3","ND","76","0","ND"],
    [17660,"2016-02-05T06:00:00","38","16","5,63","2,5","99,4","ND","77,1","0","ND"],
    [17661,"2016-02-05T07:00:00","30","14","5,49","3","80,1","ND","77,3","0","ND"],
    [17662,"2016-02-05T08:00:00","24","11","11,15","1,8","6,6","ND","78,2","30,2","ND"],
    [17663,"2016-02-05T09:00:00","23","11","22,27","1,4","23,7","ND","78","93,8","ND"],
    [17664,"2016-02-05T10:00:00","33","11","30,04","2,1","4,2","ND","72,8","118,3","ND"],
    [17665,"2016-02-05T11:00:00","27","7","36,26","2,2","6,5","ND","65,6","333,3","ND"],
    [17666,"2016-02-05T12:00:00","27","5","43,96","3","39,5","ND","49,9","314,4","ND"],
    [17667,"2016-02-05T13:00:00","39","16","48,57","3,7","73,8","ND","44,8","322","ND"],
    [17668,"2016-02-05T14:00:00","33","11","55,59","4","98,2","ND","40,4","378,3","ND"],
    [17669,"2016-02-05T15:00:00","38","11","63,09","3,8","115","ND","37,9","227,5","ND"],
    [17670,"2016-02-05T16:00:00","42","8","65,37","3,1","102,9","ND","37,5","216,2","ND"],
    [17671,"2016-02-05T17:00:00","42","11","56,83","3,4","288,3","ND","36,1","111","ND"],
    [17672,"2016-02-05T18:00:00","35","10","38,31","4,2","275,2","ND","38,5","24,7","ND"],
    [17673,"2016-02-05T19:00:00","62","20","26,26","2,6","173,2","ND","47,5","0","ND"],
    [17674,"2016-02-05T20:00:00","73","21","9,22","1","171,8","ND","51","0","ND"],
    [17675,"2016-02-05T21:00:00","82","30","13,82","2,2","154,2","ND","53,6","0","ND"],
    [17676,"2016-02-05T22:00:00","56","20","21,15","2,9","155,5","ND","60,3","0","ND"],
    [17677,"2016-02-05T23:00:00","69","22","12,68","2,1","145,1","ND","64,1","0","ND"],
    [17678,"2016-02-06T00:00:00","89","52","10,71","1,6","194,9","ND","64,6","0","ND"],
    [17679,"2016-02-06T01:00:00","49","23","12,91","1,9","163,8","ND","67,5","0","ND"],
    [17680,"2016-02-06T02:00:00","53","22","9,99","1,2","225,2","ND","69,6","0","ND"],
    [17681,"2016-02-06T03:00:00","51","14","1,16","2,7","110,3","ND","71,7","0","ND"],
    [17682,"2016-02-06T04:00:00","71","20","0,77","0,3","103,6","ND","73,7","0","ND"],
    [17683,"2016-02-06T05:00:00","98","38","1,41","2,1","98,7","ND","75","0","ND"],
    [17684,"2016-02-06T06:00:00","75","36","1","0,9","95","ND","74,7","0","ND"],
    [17685,"2016-02-06T07:00:00","110","45","2,37","2,1","45,3","ND","73,8","0","ND"],
    [17686,"2016-02-06T08:00:00","108","40","2,26","2,2","79,1","ND","73,3","68,5","ND"],
    [17687,"2016-02-06T09:00:00","72","28","8,83","2,7","97,1","ND","64","141,9","ND"],
    [17688,"2016-02-06T10:00:00","56","20","31,32","0,7","25,8","ND","55,9","244,9","ND"],
    [17689,"2016-02-06T11:00:00","51","21","64,56","1,3","64,8","ND","44,1","381","ND"],
    [17690,"2016-02-06T12:00:00","61","29","84,19","2","128,7","ND","38,2","436,6","ND"],
    [17691,"2016-02-06T13:00:00","66","19","86,89","3,2","68,1","ND","34,2","446,6","ND"],
    [17692,"2016-02-06T14:00:00","47","16","84,7","3","95,6","ND","30,2","418,4","ND"],
    [17693,"2016-02-06T15:00:00","54","19","106,2","1,3","62,6","ND","27,5","355,7","ND"],
    [17694,"2016-02-06T16:00:00","56","23","101,71","4,4","89,3","ND","26,3","260,2","ND"],
    [17695,"2016-02-06T17:00:00","60","25","101,85","3,9","81,2","ND","26,6","147","ND"],
    [17696,"2016-02-06T18:00:00","84","36","96,74","2,6","105,8","ND","28,7","41,8","ND"],
    [17697,"2016-02-06T19:00:00","75","24","80,52","5,1","285,7","ND","33,2","0","ND"],
    [17698,"2016-02-06T20:00:00","68","22","54,51","5,6","286,1","ND","38,8","0","ND"],
    [17699,"2016-02-06T21:00:00","60","20","18,11","2,8","86,6","ND","48","0","ND"],
    [17700,"2016-02-06T22:00:00","63","21","7,97","2,7","110,2","ND","56,8","0","ND"],
    [17701,"2016-02-06T23:00:00","64","20","6,1","2,7","98,1","ND","59,5","0","ND"],
    [17702,"2016-02-07T00:00:00","52","16","7,57","3,8","98,1","ND","61,4","0","ND"],
    [17703,"2016-02-07T01:00:00","40","17","15,31","1,6","49","ND","63,1","0","ND"],
    [17704,"2016-02-07T02:00:00","49","9","10,85","3,2","106,6","ND","63,5","0","ND"],
    [17705,"2016-02-07T03:00:00","47","9","9,58","1,7","199,9","ND","66,1","0","ND"],
    [17706,"2016-02-07T04:00:00","67","21","4,93","1,7","129,6","ND","68","0","ND"],
    [17707,"2016-02-07T05:00:00","51","10","3,96","2","105,2","ND","68,4","0","ND"],
    [17708,"2016-02-07T06:00:00","60","10","5,3","2,2","93,9","ND","70","0","ND"],
    [17709,"2016-02-07T07:00:00","61","10","2,57","1,5","157,5","ND","70,5","5,2","ND"],
    [17710,"2016-02-07T08:00:00","79","25","5,22","3","189,3","ND","70,8","41,5","ND"],
    [17711,"2016-02-07T09:00:00","69","30","19,41","3,2","167,8","ND","62,3","180,9","ND"],
    [17712,"2016-02-07T10:00:00","55","18","40,11","3,1","158,9","ND","46,4","288,7","ND"],
    [17713,"2016-02-07T11:00:00","47","14","62,32","1,1","77,9","ND","39,3","346,3","ND"],
    [17714,"2016-02-07T12:00:00","37","16","71,12","3,3","84","ND","36,6","444,7","ND"],
    [17715,"2016-02-07T13:00:00","55","16","88,03","2,5","71,9","ND","33,4","409,9","ND"],
    [17716,"2016-02-07T14:00:00","48","22","98,28","3,3","85,8","ND","31,5","414,8","ND"],
    [17717,"2016-02-07T15:00:00","65","23","110,85","4,5","83,5","ND","30","312,8","ND"],
    [17718,"2016-02-07T16:00:00","51","19","87,4","1,8","30,8","ND","30,7","151,5","ND"],
    [17719,"2016-02-07T17:00:00","53","12","52,22","7,7","288","ND","34,2","57,4","ND"],
    [17720,"2016-02-07T18:00:00","45","15","42,86","6,7","290,5","ND","38,5","8,6","ND"],
    [17721,"2016-02-07T19:00:00","40","14","37,58","6,9","296,1","ND","40,3","0","ND"],
    [17722,"2016-02-07T20:00:00","50","12","16,92","1,5","39,5","ND","44,6","0","ND"],
    [17723,"2016-02-07T21:00:00","55","18","8,73","3,3","97,6","ND","50,1","0","ND"],
    [17724,"2016-02-07T22:00:00","54","17","7,61","2,8","97,2","ND","52,8","0","ND"],
    [17725,"2016-02-07T23:00:00","45","12","16,5","1,8","279,6","ND","53,3","0","ND"],
    [17726,"2016-02-08T00:00:00","65","19","10,36","2","115,2","ND","52,9","0","ND"],
    [17727,"2016-02-08T01:00:00","39","16","16,72","2,7","90,4","ND","57,1","0","ND"],
    [17728,"2016-02-08T02:00:00","68","14","13,74","2,7","85,8","ND","61,7","0","ND"],
    [17729,"2016-02-08T03:00:00","57","9","15,27","1,3","33,7","ND","64,3","0","ND"],
    [17730,"2016-02-08T04:00:00","52","12","11,89","1,8","120,9","ND","65,4","0","ND"],
    [17731,"2016-02-08T05:00:00","72","13","4,18","2,2","126,1","ND","66,7","0","ND"],
    [17732,"2016-02-08T06:00:00","81","19","2,41","0,4","91,8","ND","69,6","0","ND"],
    [17733,"2016-02-08T07:00:00","91","29","1,12","2,4","141,3","ND","70,8","0","ND"],
    [17734,"2016-02-08T08:00:00","80","20","2,45","2,7","168,8","ND","70,4","26,2","ND"],
    [17735,"2016-02-08T09:00:00","84","27","5,71","2,7","185,2","ND","68,2","70,8","ND"],
    [17736,"2016-02-08T10:00:00","79","23","17,99","2,5","195","ND","61,4","135,8","ND"],
    [17737,"2016-02-08T11:00:00","80","27","41,48","2,8","201,2","ND","50,7","157,8","ND"],
    [17738,"2016-02-08T12:00:00","59","13","45,8","2,2","91,4","ND","44,8","204,6","ND"],
    [17739,"2016-02-08T13:00:00","45","13","52,06","3,2","52,4","ND","39,6","368,2","ND"],
    [17740,"2016-02-08T14:00:00","43","18","62,99","3,4","74,7","ND","34,5","321,2","ND"],
    [17741,"2016-02-08T15:00:00","44","16","62,19","3,2","82,8","ND","32,9","179","ND"],
    [17742,"2016-02-08T16:00:00","57","20","66,96","3","149,7","ND","36,1","102,3","ND"],
    [17743,"2016-02-08T17:00:00","74","20","75,63","4,3","200,7","ND","38,7","98,5","ND"],
    [17744,"2016-02-08T18:00:00","68","15","72,47","4,5","218,2","ND","38,3","43,2","ND"],
    [17745,"2016-02-08T19:00:00","101","32","51,61","3,9","203,2","ND","45,7","0","ND"],
    [17746,"2016-02-08T20:00:00","72","10","15,95","3,8","252,1","ND","45,8","0","ND"],
    [17747,"2016-02-08T21:00:00","98","32","16,23","1,1","9","ND","49,2","0","ND"],
    [17748,"2016-02-08T22:00:00","118","52","7,36","2,4","81","ND","56,9","0","ND"],
    [17749,"2016-02-08T23:00:00","79","33","6,91","1,9","49,5","ND","58,4","0","ND"],
    [17750,"2016-02-09T00:00:00","81","31","4,28","2,3","64","ND","59,5","0","ND"],
    [17751,"2016-02-09T01:00:00","44","11","6,28","3,3","66,3","ND","59,2","0","ND"],
    [17752,"2016-02-09T02:00:00","43","8","5,91","2,7","82,6","ND","61,5","0","ND"],
    [17753,"2016-02-09T03:00:00","31","9","8,63","2,6","83,4","ND","63,4","0","ND"],
    [17754,"2016-02-09T04:00:00","47","7","8,52","2","214,5","ND","64,4","0","ND"],
    [17755,"2016-02-09T05:00:00","57","22","4,32","1,6","169,9","ND","66","0","ND"],
    [17756,"2016-02-09T06:00:00","72","22","1,2","2,3","195,5","ND","67,4","0","ND"],
    [17757,"2016-02-09T07:00:00","119","48","2,02","1,8","96,5","ND","68,8","6,2","ND"],
    [17758,"2016-02-09T08:00:00","87","28","3,67","1,5","179,3","ND","69","56,6","ND"],
    [17759,"2016-02-09T09:00:00","88","30","12,11","2,9","161","ND","61,5","130,3","ND"],
    [17760,"2016-02-09T10:00:00","78","30","16,44","2,8","150","ND","55,5","182,1","ND"],
    [17761,"2016-02-09T11:00:00","67","24","43,23","2,2","105,5","ND","45,5","328,6","ND"],
    [17762,"2016-02-09T12:00:00","70","25","78,4","3,2","101,6","ND","36,8","402,5","ND"],
    [17763,"2016-02-09T13:00:00","65","20","102,81","2,5","111,2","ND","32,8","398,8","ND"],
    [17764,"2016-02-09T14:00:00","68","25","102,44","3,4","59,4","ND","31,2","260,2","ND"],
    [17765,"2016-02-09T15:00:00","75","27","120,84","3,5","102,8","ND","30,9","256,4","ND"],
    [17766,"2016-02-09T16:00:00","59","16","69,21","4,3","28,4","ND","31,3","158,3","ND"],
    [17767,"2016-02-09T17:00:00","48","15","65,92","1,8","346,8","ND","31,1","143,9","ND"],
    [17768,"2016-02-09T18:00:00","57","12","49,12","6,8","292,2","ND","33","40,7","ND"],
    [17769,"2016-02-09T19:00:00","56","13","32,12","5,1","304,4","ND","38,8","0","ND"],
    [17770,"2016-02-09T20:00:00","70","20","18,86","2","321,3","ND","43,1","0","ND"],
    [17771,"2016-02-09T21:00:00","56","13","5,28","3,4","80,6","ND","52,1","0","ND"],
    [17772,"2016-02-09T22:00:00","55","10","3,53","3,2","81,8","ND","58,4","0","ND"],
    [17773,"2016-02-09T23:00:00","46","7","5,93","2,3","50,1","ND","59,5","0","ND"],
    [17774,"2016-02-10T00:00:00","47","9","5,18","1,9","136,4","ND","61,1","0","ND"],
    [17775,"2016-02-10T01:00:00","48","16","3,47","3","202,1","ND","62,6","0","ND"],
    [17776,"2016-02-10T02:00:00","55","16","1,45","1,5","182,6","ND","64,6","0","ND"],
    [17777,"2016-02-10T03:00:00","54","16","0,92","2,8","80,7","ND","66,3","0","ND"],
    [17778,"2016-02-10T04:00:00","61","19","1,63","2,5","76,7","ND","67,8","0","ND"],
    [17779,"2016-02-10T05:00:00","50","14","1,16","1,3","116,6","ND","67,8","0","ND"],
    [17780,"2016-02-10T06:00:00","54","12","2,3","1,1","108,2","ND","68,2","0","ND"],
    [17781,"2016-02-10T07:00:00","72","20","2,35","1,7","104,8","ND","66,8","0","ND"],
    [17782,"2016-02-10T08:00:00","66","21","4,36","1,5","100","ND","65,9","41,1","ND"],
    [17783,"2016-02-10T09:00:00","65","25","17,94","0","262","ND","59,8","136,7","ND"],
    [17784,"2016-02-10T10:00:00","77","29","31,89","1,7","85","ND","46,5","276,1","ND"],
    [17785,"2016-02-10T11:00:00","48","19","58,15","2,7","137,8","ND","38,2","362,7","ND"],
    [17786,"2016-02-10T12:00:00","61","21","86,11","2,6","102,4","ND","34,9","406,2","ND"],
    [17787,"2016-02-10T13:00:00","65","27","93,13","2,7","82,5","ND","32,5","387,4","ND"],
    [17788,"2016-02-10T14:00:00","70","21","93,13","5,5","69,7","ND","31,8","391,5","ND"],
    [17789,"2016-02-10T15:00:00","64","23","84,85","5,8","85,5","ND","32,9","236,7","ND"],
    [17790,"2016-02-10T16:00:00","69","27","100,32","4,1","74,6","ND","30,7","265,9","ND"],
    [17791,"2016-02-10T17:00:00","67","22","102,77","1,5","306,1","ND","29,8","151,4","ND"],
    [17792,"2016-02-10T18:00:00","72","18","64,27","5,1","289,5","ND","32,5","13,5","ND"],
    [17793,"2016-02-10T19:00:00","61","16","34,18","5,4","300,3","ND","37,8","0","ND"],
    [17794,"2016-02-10T20:00:00","75","26","19,13","0,9","7,2","ND","43,2","0","ND"],
    [17795,"2016-02-10T21:00:00","66","21","16,56","0,8","345","ND","48,4","0","ND"],
    [17796,"2016-02-10T22:00:00","63","15","12,25","4,2","81,4","ND","50,8","0","ND"],
    [17797,"2016-02-10T23:00:00","41","9","8,01","1,1","58,5","ND","56,8","0","ND"],
    [17798,"2016-02-11T00:00:00","63","12","4,12","2,9","181,7","ND","57,6","0","ND"],
    [17799,"2016-02-11T01:00:00","51","19","6,71","1,3","191,3","ND","59,9","0","ND"],
    [17800,"2016-02-11T02:00:00","34","6","10,03","1,3","197","ND","61,1","0","ND"],
    [17801,"2016-02-11T03:00:00","39","7","8,05","1,7","140,3","ND","62","0","ND"],
    [17802,"2016-02-11T04:00:00","48","8","5,55","2,6","128","ND","63,4","0","ND"],
    [17803,"2016-02-11T05:00:00","50","6","2,88","1,9","116,6","ND","65,4","0","ND"],
    [17804,"2016-02-11T06:00:00","63","20","2,63","0,9","117,3","ND","67,2","0","ND"],
    [17805,"2016-02-11T07:00:00","65","23","3,83","1,9","160,1","ND","66,5","6","ND"],
    [17806,"2016-02-11T08:00:00","69","22","6,08","3,4","168,8","ND","64,1","38","ND"],
    [17807,"2016-02-11T09:00:00","63","19","10,89","2,7","170,3","ND","62,2","89,6","ND"],
    [17808,"2016-02-11T10:00:00","55","16","24,98","3","208,8","ND","54,8","203,8","ND"],
    [17809,"2016-02-11T11:00:00","60","17","45,66","2,9","244,5","ND","43,4","333,4","ND"],
    [17810,"2016-02-11T12:00:00","50","17","64,35","2","169,4","ND","37","330,8","ND"],
    [17811,"2016-02-11T13:00:00","62","20","72,14","3,9","90,5","ND","33,3","426,8","ND"],
    [17812,"2016-02-11T14:00:00","72","22","116,02","3,8","53,1","ND","31","394,5","ND"],
    [17813,"2016-02-11T15:00:00","72","21","100,36","4,7","50,4","ND","30,4","271,7","ND"],
    [17814,"2016-02-11T16:00:00","53","16","67,41","4,9","36,4","ND","30,8","176,6","ND"],
    [17815,"2016-02-11T17:00:00","51","4","39,86","6,4","314,8","ND","32,6","92,7","ND"],
    [17816,"2016-02-11T18:00:00","48","6","24,86","5,5","305,2","ND","36,6","30,9","ND"],
    [17817,"2016-02-11T19:00:00","59","6","13,91","4,3","307,2","ND","39,8","0","ND"],
    [17818,"2016-02-11T20:00:00","79","28","7,3","2,9","0,5","ND","44,2","0","ND"],
    [17819,"2016-02-11T21:00:00","51","12","5,53","2","80","ND","49,1","0","ND"],
    [17820,"2016-02-11T22:00:00","50","10","7,69","3,2","253,7","ND","50,4","0","ND"],
    [17821,"2016-02-11T23:00:00","49","8","6,42","4,1","231","ND","54,5","0","ND"],
    [17822,"2016-02-12T00:00:00","36","9","4,4","3","114,2","ND","57,1","0","ND"],
    [17823,"2016-02-12T01:00:00","30","6","9,16","3,7","82","ND","60,4","0","ND"],
    [17824,"2016-02-12T02:00:00","33","9","11,81","0,9","86,8","ND","62,2","0","ND"],
    [17825,"2016-02-12T03:00:00","53","29","11,56","1,8","23,6","ND","63,1","0","ND"],
    [17826,"2016-02-12T04:00:00","39","13","8,58","2","83,4","ND","63,5","0","ND"],
    [17827,"2016-02-12T05:00:00","40","8","4,85","2,2","136,1","ND","64,7","0","ND"],
    [17828,"2016-02-12T06:00:00","54","15","2,41","2,1","207,3","ND","65,5","0","ND"],
    [17829,"2016-02-12T07:00:00","59","19","1,86","1,7","183,2","ND","65,8","10,2","ND"],
    [17830,"2016-02-12T08:00:00","78","19","3,49","2,7","111","ND","65,3","67,6","ND"],
    [17831,"2016-02-12T09:00:00","60","18","16,76","2,4","149,3","ND","56","207,7","ND"],
    [17832,"2016-02-12T10:00:00","63","20","44,25","1,2","157,3","ND","43,1","217,1","ND"],
    [17833,"2016-02-12T11:00:00","71","14","66,94","2,6","200,8","ND","40,5","324,3","ND"],
    [17834,"2016-02-12T12:00:00","51","17","78,89","1,5","130,6","ND","34,3","424,2","ND"],
    [17835,"2016-02-12T13:00:00","50","17","85,48","2,5","55","ND","31,2","439,4","ND"],
    [17836,"2016-02-12T14:00:00","61","19","114,76","3,7","0,4","ND","28,5","402,4","ND"],
    [17837,"2016-02-12T15:00:00","80","23","85,79","6,3","5,4","ND","31","222,4","ND"],
    [17838,"2016-02-12T16:00:00","63","9","54,53","7,4","9,2","ND","32,3","151,4","ND"],
    [17839,"2016-02-12T17:00:00","69","16","34,11","7,6","13,7","ND","35,3","130,8","ND"],
    [17840,"2016-02-12T18:00:00","47","6","22,65","7,1","25","ND","39,3","39,3","ND"],
    [17841,"2016-02-12T19:00:00","70","11","31,32","4,4","203,2","ND","44,3","0","ND"],
    [17842,"2016-02-12T20:00:00","54","14","24,86","5,3","178,7","ND","52,7","0","ND"],
    [17843,"2016-02-12T21:00:00","48","13","14,72","3,9","152,9","ND","60,5","0","ND"],
    [17844,"2016-02-12T22:00:00","41","16","10,99","3","115,1","ND","62,8","0","ND"],
    [17845,"2016-02-12T23:00:00","45","13","10,24","2,2","114,4","ND","63,1","0","ND"],
    [17846,"2016-02-13T00:00:00","58","14","8,5","2,8","107,6","ND","63,9","0","ND"],
    [17847,"2016-02-13T01:00:00","48","17","7,16","2,6","83,4","ND","64,8","0","ND"],
    [17848,"2016-02-13T02:00:00","70","18","9,4","2,2","62,5","ND","64,7","0","ND"],
    [17849,"2016-02-13T03:00:00","55","18","12,32","1","81","ND","64,8","0","ND"],
    [17850,"2016-02-13T04:00:00","59","21","8,22","1,8","169,1","ND","64,9","0","ND"],
    [17851,"2016-02-13T05:00:00","63","23","5,53","1,8","206,6","ND","65,6","0","ND"],
    [17852,"2016-02-13T06:00:00","66","24","1,81","1,1","139,9","ND","67","0","ND"],
    [17853,"2016-02-13T07:00:00","79","29","1,65","3,3","121,9","ND","67,8","6,8","ND"],
    [17854,"2016-02-13T08:00:00","77","25","2,92","2,5","140,4","ND","69,9","70,2","ND"],
    [17855,"2016-02-13T09:00:00","ND","ND","ND","2,2","177","ND","63,6","58,9","ND"],
    [17856,"2016-02-13T10:00:00","58","25","30,69","2","114,1","ND","54,8","284,4","ND"],
    [17857,"2016-02-13T11:00:00","61","22","55,38","2,1","117,3","ND","39,2","376,9","ND"],
    [17858,"2016-02-13T12:00:00","37","17","71,06","1","69,2","ND","33,7","436,1","ND"],
    [17859,"2016-02-13T13:00:00","38","6","76,02","2,9","53,4","ND","30,2","442,6","ND"],
    [17860,"2016-02-13T14:00:00","41","18","72,43","4,3","69,7","ND","27","407,8","ND"],
    [17861,"2016-02-13T15:00:00","43","18","75,04","4,1","93,8","ND","26,5","288,4","ND"],
    [17862,"2016-02-13T16:00:00","64","25","84,64","3,1","19,8","ND","27,8","145,8","ND"],
    [17863,"2016-02-13T17:00:00","47","10","69,04","7,7","288,8","ND","29,3","151,1","ND"],
    [17864,"2016-02-13T18:00:00","48","13","38,13","7,9","299,4","ND","34","38,8","ND"],
    [17865,"2016-02-13T19:00:00","40","8","21,66","5,8","314,6","ND","39,5","0","ND"],
    [17866,"2016-02-13T20:00:00","74","20","12,09","3","21,9","ND","44,7","0","ND"],
    [17867,"2016-02-13T21:00:00","74","19","8,73","2,5","76,9","ND","49,4","0","ND"],
    [17868,"2016-02-13T22:00:00","51","17","13,36","1","67,9","ND","51,3","0","ND"],
    [17869,"2016-02-13T23:00:00","38","12","8,05","1,8","108,2","ND","53,6","0","ND"],
    [17870,"2016-02-14T00:00:00","43","14","5,71","2,6","72","ND","56,7","0","ND"],
    [17871,"2016-02-14T01:00:00","33","10","6,89","2,3","112,4","ND","58,5","0","ND"],
    [17872,"2016-02-14T02:00:00","44","10","8,12","3,6","76,3","ND","59,3","0","ND"],
    [17873,"2016-02-14T03:00:00","36","13","10,68","1,6","14,5","ND","61,2","0","ND"],
    [17874,"2016-02-14T04:00:00","22","12","9,69","1,2","115,9","ND","62,8","0","ND"],
    [17875,"2016-02-14T05:00:00","37","17","9,91","0,8","119,3","ND","63,6","0","ND"],
    [17876,"2016-02-14T06:00:00","36","11","7,5","1,6","351,9","ND","63,6","0","ND"],
    [17877,"2016-02-14T07:00:00","50","18","1,83","2,1","153,1","ND","66,3","4,5","ND"],
    [17878,"2016-02-14T08:00:00","38","15","5,3","3","182,1","ND","67,5","43,6","ND"],
    [17879,"2016-02-14T09:00:00","58","22","15,25","1,4","167,6","ND","63,5","136,5","ND"],
    [17880,"2016-02-14T10:00:00","50","23","37,11","2,3","92,6","ND","50,4","286,6","ND"],
    [17881,"2016-02-14T11:00:00","51","23","67,58","1,7","107,5","ND","41,2","362,8","ND"],
    [17882,"2016-02-14T12:00:00","48","16","83,22","3,7","93,8","ND","35,9","442,5","ND"],
    [17883,"2016-02-14T13:00:00","40","19","84,89","3,5","108,5","ND","31,8","454,6","ND"],
    [17884,"2016-02-14T14:00:00","39","19","87,56","3","107,1","ND","29,3","372,2","ND"],
    [17885,"2016-02-14T15:00:00","38","19","85,74","2,9","84,4","ND","26,9","362,8","ND"],
    [17886,"2016-02-14T16:00:00","37","16","87,09","2,8","96,6","ND","25,6","232,1","ND"],
    [17887,"2016-02-14T17:00:00","46","13","84,13","4,3","292","ND","27,1","156","ND"],
    [17888,"2016-02-14T18:00:00","42","13","60,24","6,9","290,7","ND","33,3","45,3","ND"],
    [17889,"2016-02-14T19:00:00","37","11","41,17","7","298,9","ND","38,2","0","ND"],
    [17890,"2016-02-14T20:00:00","48","17","22,69","2,2","323,3","ND","42,5","0","ND"],
    [17891,"2016-02-14T21:00:00","60","28","9,4","4","83,9","ND","49,6","0","ND"],
    [17892,"2016-02-14T22:00:00","43","13","8,54","2,2","102,5","ND","54,9","0","ND"],
    [17893,"2016-02-14T23:00:00","43","11","8,46","1,9","160","ND","57,2","0","ND"],
    [17894,"2016-02-15T00:00:00","30","7","12,48","3,2","91,3","ND","57,8","0","ND"],
    [17895,"2016-02-15T01:00:00","29","8","11,38","2","144,8","ND","60,9","0","ND"],
    [17896,"2016-02-15T02:00:00","33","12","10,42","2,7","142,8","ND","62,4","0","ND"],
    [17897,"2016-02-15T03:00:00","44","17","7,42","2","167,5","ND","64,3","0","ND"],
    [17898,"2016-02-15T04:00:00","48","16","4,43","1,8","159,7","ND","66,5","0","ND"],
    [17899,"2016-02-15T05:00:00","54","14","2,59","1,7","178,7","ND","68,5","0","ND"],
    [17900,"2016-02-15T06:00:00","67","20","1,14","2,6","152,9","ND","69,4","0","ND"],
    [17901,"2016-02-15T07:00:00","52","18","0,92","0,8","183,7","ND","71,2","4,9","ND"],
    [17902,"2016-02-15T08:00:00","84","34","1,96","2","98,7","ND","70,7","39,8","ND"],
    [17903,"2016-02-15T09:00:00","66","21","6,85","3,1","109,9","ND","65","111,9","ND"],
    [17904,"2016-02-15T10:00:00","51","17","22,47","1,8","148,1","ND","54,4","223,5","ND"],
    [17905,"2016-02-15T11:00:00","41","17","51,51","2,1","71,6","ND","41,6","290,3","ND"],
    [17906,"2016-02-15T12:00:00","48","21","61,27","3,2","71,7","ND","37,7","379","ND"],
    [17907,"2016-02-15T13:00:00","39","16","64,82","2,6","90","ND","33,4","342,3","ND"],
    [17908,"2016-02-15T14:00:00","51","22","66,74","3,2","115,5","ND","31,2","268,8","ND"],
    [17909,"2016-02-15T15:00:00","58","21","81,3","2,9","122,9","ND","31,5","279,2","ND"],
    [17910,"2016-02-15T16:00:00","61","20","83,26","4,2","59,2","ND","29,7","268,5","ND"],
    [17911,"2016-02-15T17:00:00","67","24","68,17","4,9","34,1","ND","31,8","79","ND"],
    [17912,"2016-02-15T18:00:00","66","18","50,43","4,8","353,7","ND","38,2","25,1","ND"],
    [17913,"2016-02-15T19:00:00","68","24","36,93","3,8","319,6","ND","40,3","0","ND"],
    [17914,"2016-02-15T20:00:00","51","15","33,16","4,4","287,8","ND","40,3","0","ND"],
    [17915,"2016-02-15T21:00:00","68","24","14,09","1,4","55,9","ND","44,3","0","ND"],
    [17916,"2016-02-15T22:00:00","73","15","8,48","3,6","98,9","ND","51,7","0","ND"],
    [17917,"2016-02-15T23:00:00","53","18","7,16","2,2","116,2","ND","55,9","0","ND"],
    [17918,"2016-02-16T00:00:00","50","17","10,75","1,3","91,3","ND","57,9","0","ND"],
    [17919,"2016-02-16T01:00:00","41","12","12,28","1","65","ND","59,9","0","ND"],
    [17920,"2016-02-16T02:00:00","57","20","7,4","1,9","186,2","ND","61,2","0","ND"],
    [17921,"2016-02-16T03:00:00","63","21","8,48","2,6","167,6","ND","62,9","0","ND"],
    [17922,"2016-02-16T04:00:00","75","25","1,94","2,7","169","ND","65,7","0","ND"],
    [17923,"2016-02-16T05:00:00","96","32","1,08","1,4","171,5","ND","69,2","0","ND"],
    [17924,"2016-02-16T06:00:00","114","42","0,77","1,2","106,7","ND","71,5","0","ND"],
    [17925,"2016-02-16T07:00:00","96","41","1,04","1,8","128,8","ND","71,5","0","ND"],
    [17926,"2016-02-16T08:00:00","87","36","3,75","2,1","162,1","ND","70,3","41,4","ND"],
    [17927,"2016-02-16T09:00:00","78","32","12,74","3","137,9","ND","59,7","162,8","ND"],
    [17928,"2016-02-16T10:00:00","59","25","28,43","2,4","133,7","ND","46,2","177","ND"],
    [17929,"2016-02-16T11:00:00","52","18","48,98","2","101,3","ND","38,7","229,8","ND"],
    [17930,"2016-02-16T12:00:00","78","26","60,87","4,2","80,4","ND","35,8","276,7","ND"],
    [17931,"2016-02-16T13:00:00","62","21","94,8","1,8","68,6","ND","30,6","422,2","ND"],
    [17932,"2016-02-16T14:00:00","89","29","92,7","4,1","64","ND","31,4","231,9","ND"],
    [17933,"2016-02-16T15:00:00","72","29","90,84","4,6","84,1","ND","33","208,1","ND"],
    [17934,"2016-02-16T16:00:00","102","34","100,51","4,6","75,9","ND","33,6","176,3","ND"],
    [17935,"2016-02-16T17:00:00","85","33","78,71","4,7","74,4","ND","36,2","62,1","ND"],
    [17936,"2016-02-16T18:00:00","110","38","55,54","3,5","75,9","ND","37,6","27,3","ND"],
    [17937,"2016-02-16T19:00:00","100","37","30,32","1,7","115,1","ND","39,2","0","ND"],
    [17938,"2016-02-16T20:00:00","46","13","26,83","6,5","289,2","ND","41,9","0","ND"],
    [17939,"2016-02-16T21:00:00","26","8","14,01","4,4","307,9","ND","46,3","0","ND"],
    [17940,"2016-02-16T22:00:00","57","16","4,59","3","97,8","ND","55","0","ND"],
    [17941,"2016-02-16T23:00:00","44","12","6,57","2,7","40,6","ND","62","0","ND"],
    [17942,"2016-02-17T00:00:00","42","9","6,2","1,8","57,2","ND","62,5","0","ND"],
    [17943,"2016-02-17T01:00:00","46","6","5,67","2","108,4","ND","63,3","0","ND"],
    [17944,"2016-02-17T02:00:00","49","13","4,42","2,5","124,9","ND","66,2","0","ND"],
    [17945,"2016-02-17T03:00:00","67","29","3,08","2,9","141,5","ND","67","0","ND"],
    [17946,"2016-02-17T04:00:00","67","24","1,33","1,8","181,8","ND","68,8","0","ND"],
    [17947,"2016-02-17T05:00:00","63","29","2,35","1,4","180,6","ND","69,8","0","ND"],
    [17948,"2016-02-17T06:00:00","71","33","1,53","1,4","182,8","ND","69","0","ND"],
    [17949,"2016-02-17T07:00:00","116","44","1,28","1,2","90,1","ND","70,1","6,2","ND"],
    [17950,"2016-02-17T08:00:00","133","52","2,35","2,9","111","ND","70,8","54,4","ND"],
    [17951,"2016-02-17T09:00:00","94","28","14,74","2,7","134,1","ND","61,2","174,1","ND"],
    [17952,"2016-02-17T10:00:00","70","25","38,23","3,5","165,3","ND","45,4","291,9","ND"],
    [17953,"2016-02-17T11:00:00","59","22","56,79","3,5","132,7","ND","39,1","379,7","ND"],
    [17954,"2016-02-17T12:00:00","61","24","78,83","3,2","153,2","ND","34,6","443,1","ND"],
    [17955,"2016-02-17T13:00:00","61","19","102,04","1,8","81,2","ND","28,9","382,8","ND"],
    [17956,"2016-02-17T14:00:00","71","26","98,18","3,4","94","ND","28,5","235,5","ND"],
    [17957,"2016-02-17T15:00:00","49","10","71,02","4,2","315,2","ND","30,7","228,7","ND"],
    [17958,"2016-02-17T16:00:00","48","7","63,76","4,2","287,3","ND","28,3","180,3","ND"],
    [17959,"2016-02-17T17:00:00","37","8","54,99","7,4","300,3","ND","29,9","165,1","ND"],
    [17960,"2016-02-17T18:00:00","54","15","37,36","6,3","317,1","ND","32,8","50,5","ND"],
    [17961,"2016-02-17T19:00:00","68","16","23,98","5,1","336,8","ND","38,6","0","ND"],
    [17962,"2016-02-17T20:00:00","41","8","14,78","4,1","49,7","ND","48,2","0","ND"],
    [17963,"2016-02-17T21:00:00","37","7","13,74","3,7","116,4","ND","53,9","0","ND"],
    [17964,"2016-02-17T22:00:00","35","7","12,4","2,3","100","ND","56,2","0","ND"],
    [17965,"2016-02-17T23:00:00","43","13","8,08","1,6","144,4","ND","59,5","0","ND"],
    [17966,"2016-02-18T00:00:00","34","10","8,56","2,8","159,1","ND","60,4","0","ND"],
    [17967,"2016-02-18T01:00:00","40","8","4,16","3,6","97,3","ND","61,6","0","ND"],
    [17968,"2016-02-18T02:00:00","32","7","6,63","1,7","140,9","ND","64,8","0","ND"],
    [17969,"2016-02-18T03:00:00","34","12","8,03","2,5","177,7","ND","66,5","0","ND"],
    [17970,"2016-02-18T04:00:00","38","12","6,67","1,5","171,3","ND","67,4","0","ND"],
    [17971,"2016-02-18T05:00:00","90","20","1,65","1,6","79,4","ND","68,9","0","ND"],
    [17972,"2016-02-18T06:00:00","82","26","1,77","3,5","121,9","ND","69,3","0","ND"],
    [17973,"2016-02-18T07:00:00","74","26","1,61","1,5","163","ND","69,4","0","ND"],
    [17974,"2016-02-18T08:00:00","69","22","4,2","1,8","203,6","ND","68,7","46,4","ND"],
    [17975,"2016-02-18T09:00:00","77","28","9,44","2,2","144","ND","62,8","85,5","ND"],
    [17976,"2016-02-18T10:00:00","97","38","17,41","2,6","157,9","ND","57,1","97,2","ND"],
    [17977,"2016-02-18T11:00:00","106","34","21,72","2,7","162,6","ND","55,6","148,3","ND"],
    [17978,"2016-02-18T12:00:00","61","18","37,97","2","174,2","ND","49,2","244,4","ND"],
    [17979,"2016-02-18T13:00:00","55","18","55,34","1,5","151,8","ND","39,8","217,9","ND"],
    [17980,"2016-02-18T14:00:00","56","23","70,47","2,8","127,5","ND","35,9","396,9","ND"],
    [17981,"2016-02-18T15:00:00","62","22","80,67","3","82,9","ND","31,8","320,8","ND"],
    [17982,"2016-02-18T16:00:00","73","20","72,65","4,5","69,7","ND","29,9","221,6","ND"],
    [17983,"2016-02-18T17:00:00","74","25","61,23","4,4","76,8","ND","33,1","122,7","ND"],
    [17984,"2016-02-18T18:00:00","72","27","59,83","1,6","11,8","ND","33,6","63,3","ND"],
    [17985,"2016-02-18T19:00:00","61","14","38,05","6","296,1","ND","39","0","ND"],
    [17986,"2016-02-18T20:00:00","46","9","22,17","6,2","292","ND","45,5","0","ND"],
    [17987,"2016-02-18T21:00:00","62","22","11,17","3","95,5","ND","50,1","0","ND"],
    [17988,"2016-02-18T22:00:00","63","25","7,87","2,9","96","ND","57,1","0","ND"],
    [17989,"2016-02-18T23:00:00","82","24","10,17","2,2","354,3","ND","60","0","ND"],
    [17990,"2016-02-19T00:00:00","44","18","11,07","2,3","55,4","ND","60,7","0","ND"],
    [17991,"2016-02-19T01:00:00","49","13","4,06","0,9","125,6","ND","62,9","0","ND"],
    [17992,"2016-02-19T02:00:00","153","ND","14,76","2,8","147,7","ND","64","0","ND"],
    [17993,"2016-02-19T03:00:00","111","30","2,81","1,4","146,4","ND","65,8","0","ND"],
    [17994,"2016-02-19T04:00:00","51","14","6,87","2,1","210,4","ND","67,1","0","ND"],
    [17995,"2016-02-19T05:00:00","66","25","3,79","2,3","182,5","ND","68","0","ND"],
    [17996,"2016-02-19T06:00:00","76","24","1,31","1,7","129,8","ND","69,4","0","ND"],
    [17997,"2016-02-19T07:00:00","129","32","1,47","3,2","86,5","ND","71,1","0","ND"],
    [17998,"2016-02-19T08:00:00","139","35","1,77","2","100,6","ND","70,1","47,7","ND"],
    [17999,"2016-02-19T09:00:00","114","45","10,42","4,1","128,6","ND","62,4","181,3","ND"],
    [18000,"2016-02-19T10:00:00","78","24","33,16","4,2","186,8","ND","46,5","289,6","ND"],
    [18001,"2016-02-19T11:00:00","60","21","60,13","2,2","182","ND","38,7","378","ND"],
    [18002,"2016-02-19T12:00:00","57","19","77,61","2,7","152,2","ND","33,4","435","ND"],
    [18003,"2016-02-19T13:00:00","55","24","86,99","1,6","185,8","ND","29,5","449,7","ND"],
    [18004,"2016-02-19T14:00:00","46","15","85,17","0,2","128,5","ND","26","421,7","ND"],
    [18005,"2016-02-19T15:00:00","49","14","80,61","1,8","187,7","ND","23,2","326,1","ND"],
    [18006,"2016-02-19T16:00:00","48","13","64,07","3,3","122,8","ND","23","215","ND"],
    [18007,"2016-02-19T17:00:00","ND","ND","66,52","3,2","30,4","ND","24,7","144,7","ND"],
    [18008,"2016-02-19T18:00:00","81","15","62,29","6,1","296,4","ND","31,2","34,5","ND"],
    [18009,"2016-02-19T19:00:00","56","9","32,52","5,6","288,7","ND","37,4","0","ND"],
    [18010,"2016-02-19T20:00:00","63","16","18,8","2,6","301,6","ND","41,5","0","ND"],
    [18011,"2016-02-19T21:00:00","101","27","7,22","3,2","107,3","ND","49,6","0","ND"],
    [18012,"2016-02-19T22:00:00","67","16","17,11","2,8","310,3","ND","51,4","0","ND"],
    [18013,"2016-02-19T23:00:00","54","13","10,85","1,8","102,5","ND","51","0","ND"],
    [18014,"2016-02-20T00:00:00","43","15","12,58","2,3","77,6","ND","58,4","0","ND"],
    [18015,"2016-02-20T01:00:00","78","45","15,74","1,5","62,2","ND","59","0","ND"],
    [18016,"2016-02-20T02:00:00","57","17","13,56","2,5","146,7","ND","60,3","0","ND"],
    [18017,"2016-02-20T03:00:00","65","17","8,52","2,5","153,3","ND","61,9","0","ND"],
    [18018,"2016-02-20T04:00:00","59","23","13,21","3,7","191,5","ND","61,8","0","ND"],
    [18019,"2016-02-20T05:00:00","58","23","10,05","2,5","201,4","ND","62,1","0","ND"],
    [18020,"2016-02-20T06:00:00","78","26","2,77","1,5","124,5","ND","64,5","0","ND"],
    [18021,"2016-02-20T07:00:00","88","29","1,65","1,7","94,9","ND","66,9","7","ND"],
    [18022,"2016-02-20T08:00:00","111","42","4,42","4,3","123,7","ND","64,9","81,5","ND"],
    [18023,"2016-02-20T09:00:00","84","25","19,27","2,5","152","ND","52,7","190,6","ND"],
    [18024,"2016-02-20T10:00:00","69","23","43,72","0,9","68","ND","41,3","293,3","ND"],
    [18025,"2016-02-20T11:00:00","60","21","77,14","0,8","302,9","ND","34,6","384,5","ND"],
    [18026,"2016-02-20T12:00:00","60","20","85,78","3,7","64,3","ND","29,5","426,3","ND"],
    [18027,"2016-02-20T13:00:00","ND","ND","ND","3,1","80","ND","26,9","400,9","ND"],
    [18028,"2016-02-20T14:00:00","62","31","119,16","4","7,6","ND","26,6","406,8","ND"],
    [18029,"2016-02-20T15:00:00","52","17","84,75","4,1","299,3","ND","26,8","229,3","ND"],
    [18030,"2016-02-20T16:00:00","69","16","48,71","9,4","297,4","ND","29","209,3","ND"],
    [18031,"2016-02-20T17:00:00","62","12","43,15","8,9","287,9","ND","32","151,6","ND"],
    [18032,"2016-02-20T18:00:00","54","11","34,79","9,5","305,6","ND","36,2","41,5","ND"],
    [18033,"2016-02-20T19:00:00","45","10","19,88","5,3","334,1","ND","42,4","0","ND"],
    [18034,"2016-02-20T20:00:00","82","31","8,42","3,2","77,5","ND","45,9","0","ND"],
    [18035,"2016-02-20T21:00:00","46","17","11,05","2,6","126,6","ND","49,1","0","ND"],
    [18036,"2016-02-20T22:00:00","27","2","26,86","8,2","269,7","ND","47,5","0","ND"],
    [18037,"2016-02-20T23:00:00","37","14","18,52","3,5","220,7","ND","48,7","0","ND"],
    [18038,"2016-02-21T00:00:00","31","8","22,74","8,1","211,2","ND","58,6","0","ND"],
    [18039,"2016-02-21T01:00:00","6","4","24,14","5,9","221,7","ND","67,4","0","ND"],
    [18040,"2016-02-21T02:00:00","15","3","21,59","3,6","184,5","ND","68,3","0","ND"],
    [18041,"2016-02-21T03:00:00","13","3","14,64","2,5","139,9","ND","69,7","0","ND"],
    [18042,"2016-02-21T04:00:00","9","3","11,62","1,9","163,2","ND","72,6","0","ND"],
    [18043,"2016-02-21T05:00:00","16","ND","9,89","2,5","199,1","ND","74","0","ND"],
    [18044,"2016-02-21T06:00:00","21","6","6,87","1,7","207","ND","74,8","0","ND"],
    [18045,"2016-02-21T07:00:00","23","7","3,79","2,3","100,9","ND","76,1","0","ND"],
    [18046,"2016-02-21T08:00:00","24","13","6,28","1,4","170,7","ND","76,7","9,7","ND"],
    [18047,"2016-02-21T09:00:00","30","19","7,91","1,3","155,7","ND","76","25,8","ND"],
    [18048,"2016-02-21T10:00:00","40","23","9,64","2,6","72,6","ND","74","168,8","ND"],
    [18049,"2016-02-21T11:00:00","34","13","13,46","4","50,7","ND","63,9","182,6","ND"],
    [18050,"2016-02-21T12:00:00","24","12","35,26","4,9","62,8","ND","55,6","219,5","ND"],
    [18051,"2016-02-21T13:00:00","31","7","33,38","5,7","71","ND","52","135,6","ND"],
    [18052,"2016-02-21T14:00:00","35","13","32,71","4,8","75","ND","54","130,8","ND"],
    [18053,"2016-02-21T15:00:00","25","8","24,53","3,8","83,7","ND","52,6","126,2","ND"],
    [18054,"2016-02-21T16:00:00","28","9","16,27","3,9","11,1","ND","52,5","98,4","ND"],
    [18055,"2016-02-21T17:00:00","15","7","15,97","5,1","6","ND","55,2","68,2","ND"],
    [18056,"2016-02-21T18:00:00","22","4","10,56","3,8","23,8","ND","59","20,5","ND"],
    [18057,"2016-02-21T19:00:00","27","8","3,79","3,9","54,5","ND","62,8","0","ND"],
    [18058,"2016-02-21T20:00:00","24","12","7,54","3,8","21,1","ND","65,6","0","ND"],
    [18059,"2016-02-21T21:00:00","24","9","5,14","3,2","36,9","ND","66,8","0","ND"],
    [18060,"2016-02-21T22:00:00","19","7","5,08","2,3","34,2","ND","68,8","0","ND"],
    [18061,"2016-02-21T23:00:00","15","4","5,89","0,1","217,8","ND","70","0","ND"],
    [18062,"2016-02-22T00:00:00","17","4","3,83","3,5","193,1","ND","72,1","0","ND"],
    [18063,"2016-02-22T01:00:00","9","2","7,77","3,9","209","ND","73,5","0","ND"],
    [18064,"2016-02-22T02:00:00","6","ND","8,08","3,4","192","ND","75,6","0","ND"],
    [18065,"2016-02-22T03:00:00","2","ND","8,5","3,5","199,2","ND","77,3","0","ND"],
    [18066,"2016-02-22T04:00:00","6","ND","9,62","3","191,7","ND","77,8","0","ND"],
    [18067,"2016-02-22T05:00:00","17","ND","7,12","3,7","209,4","ND","78,3","0","ND"],
    [18068,"2016-02-22T06:00:00","17","3","3,43","3,5","203,9","ND","78,3","0","ND"],
    [18069,"2016-02-22T07:00:00","28","8","2,04","3,4","195,7","ND","78,1","0","ND"],
    [18070,"2016-02-22T08:00:00","26","6","6,46","2,1","177,1","ND","78,4","34,7","ND"],
    [18071,"2016-02-22T09:00:00","19","8","8,61","2,2","157,2","ND","76,7","83,2","ND"],
    [18072,"2016-02-22T10:00:00","23","5","18,86","0,9","205,2","ND","71,4","146,8","ND"],
    [18073,"2016-02-22T11:00:00","25","10","27,67","0,3","242,1","ND","62,2","203,6","ND"],
    [18074,"2016-02-22T12:00:00","24","6","44,13","0,8","84,6","ND","50,4","292,1","ND"],
    [18075,"2016-02-22T13:00:00","27","7","51,14","2,4","74,1","ND","40,5","357,5","ND"],
    [18076,"2016-02-22T14:00:00","17","5","39,84","2,3","60,9","ND","36,4","317,3","ND"],
    [18077,"2016-02-22T15:00:00","31","7","54,75","3,6","37,8","ND","34,7","325,9","ND"],
    [18078,"2016-02-22T16:00:00","34","9","75,77","4,8","2,5","ND","34,4","265,9","ND"],
    [18079,"2016-02-22T17:00:00","46","17","73,88","4,9","20,7","ND","36,5","107,8","ND"],
    [18080,"2016-02-22T18:00:00","49","21","59,91","4","31,8","ND","41,3","31,4","ND"],
    [18081,"2016-02-22T19:00:00","58","17","28,4","3,6","27,5","ND","46,4","0","ND"],
    [18082,"2016-02-22T20:00:00","47","10","6,46","3,1","11,8","ND","51","0","ND"],
    [18083,"2016-02-22T21:00:00","73","30","3,77","1,9","54,3","ND","56,1","0","ND"],
    [18084,"2016-02-22T22:00:00","41","16","2,39","1,8","119,1","ND","61,8","0","ND"],
    [18085,"2016-02-22T23:00:00","58","23","2,35","1,5","164,8","ND","64,5","0","ND"],
    [18086,"2016-02-23T00:00:00","70","29","3,02","1,8","158","ND","66","0","ND"],
    [18087,"2016-02-23T01:00:00","39","15","4,96","1,5","153,3","ND","66,8","0","ND"],
    [18088,"2016-02-23T02:00:00","36","11","4,51","2,5","86,9","ND","66,5","0","ND"],
    [18089,"2016-02-23T03:00:00","45","12","3,02","2,1","74,4","ND","67,6","0","ND"],
    [18090,"2016-02-23T04:00:00","39","12","1,47","1,2","108,4","ND","69,3","0","ND"],
    [18091,"2016-02-23T05:00:00","42","9","1,86","1,4","174","ND","70","0","ND"],
    [18092,"2016-02-23T06:00:00","57","23","0,98","1,6","158,5","ND","70,6","0","ND"],
    [18093,"2016-02-23T07:00:00","75","37","1,79","2,4","132,8","ND","71,6","0","ND"],
    [18094,"2016-02-23T08:00:00","57","18","4,65","1,4","157,6","ND","71,8","36,7","ND"],
    [18095,"2016-02-23T09:00:00","54","20","13,09","2","86,7","ND","64,5","192,2","ND"],
    [18096,"2016-02-23T10:00:00","50","15","35,68","2","128,5","ND","46,4","258","ND"],
    [18097,"2016-02-23T11:00:00","39","15","56,54","2,4","200,9","ND","40,3","282,6","ND"],
    [18098,"2016-02-23T12:00:00","46","15","70,06","2,4","259,7","ND","40,6","238,1","ND"],
    [18099,"2016-02-23T13:00:00","57","15","102,14","1,3","302,1","ND","36,2","352,9","ND"],
    [18100,"2016-02-23T14:00:00","51","25","117,45","1,7","358,9","ND","30,5","411,1","ND"],
    [18101,"2016-02-23T15:00:00","53","17","115,52","3,2","15,8","ND","28,9","242,4","ND"],
    [18102,"2016-02-23T16:00:00","53","11","73,9","4,6","321,7","ND","32,7","144,6","ND"],
    [18103,"2016-02-23T17:00:00","57","17","43,13","3,2","58","ND","36","116,4","ND"],
    [18104,"2016-02-23T18:00:00","63","21","23,96","6","120,6","ND","47,5","6,3","ND"],
    [18105,"2016-02-23T19:00:00","59","22","26,79","3,8","213,1","ND","52,5","0","ND"],
    [18106,"2016-02-23T20:00:00","49","15","30,12","3","247,6","ND","51,7","0","ND"],
    [18107,"2016-02-23T21:00:00","85","33","8,91","2,3","153","ND","51,3","0","ND"],
    [18108,"2016-02-23T22:00:00","57","22","10,73","2,2","121,2","ND","54,3","0","ND"],
    [18109,"2016-02-23T23:00:00","58","22","11,11","2,4","131,4","ND","58,7","0","ND"],
    [18110,"2016-02-24T00:00:00","69","20","4,79","2,3","90","ND","62,3","0","ND"],
    [18111,"2016-02-24T01:00:00","57","27","6,91","1,9","140,3","ND","64","0","ND"],
    [18112,"2016-02-24T02:00:00","55","21","9,95","1,7","192,8","ND","64,2","0","ND"],
    [18113,"2016-02-24T03:00:00","59","17","3,26","2,4","112,5","ND","66,5","0","ND"],
    [18114,"2016-02-24T04:00:00","53","17","4,95","1","88","ND","69,1","0","ND"],
    [18115,"2016-02-24T05:00:00","70","21","2,08","2,1","18,9","ND","69,9","0","ND"],
    [18116,"2016-02-24T06:00:00","80","42","1,71","1,8","145,1","ND","71,3","0","ND"],
    [18117,"2016-02-24T07:00:00","86","35","1,79","2,7","161,8","ND","71,6","10,6","ND"],
    [18118,"2016-02-24T08:00:00","72","21","4,08","2,6","131,7","ND","69,6","94,2","ND"],
    [18119,"2016-02-24T09:00:00","57","17","14,64","1,6","185,8","ND","55,9","179,1","ND"],
    [18120,"2016-02-24T10:00:00","ND","ND","ND","1,2","235","ND","44,5","295,4","ND"],
    [18121,"2016-02-24T11:00:00","51","20","ND","2","126,6","ND","38,7","337,1","ND"],
    [18122,"2016-02-24T12:00:00","44","20","66,49","1,4","100,5","ND","35,6","340,7","ND"],
    [18123,"2016-02-24T13:00:00","64","26","80,77","3,2","81,1","ND","32,3","400,7","ND"],
    [18124,"2016-02-24T14:00:00","59","25","112,54","5","330","ND","30,5","346,9","ND"],
    [18125,"2016-02-24T15:00:00","38","11","64,31","6,8","6,2","ND","28,3","275,6","ND"],
    [18126,"2016-02-24T16:00:00","48","14","50,08","6,2","30,6","ND","32,6","84,9","ND"],
    [18127,"2016-02-24T17:00:00","68","26","55,99","4,6","178,1","ND","43","9,7","ND"],
    [18128,"2016-02-24T18:00:00","57","18","50,45","5,2","208,2","ND","56,2","0","ND"],
    [18129,"2016-02-24T19:00:00","51","13","42,56","3,4","212,3","ND","59,7","0","ND"],
    [18130,"2016-02-24T20:00:00","63","27","34,83","2,4","236,9","ND","58,4","0","ND"],
    [18131,"2016-02-24T21:00:00","81","36","10,22","1,9","102,3","ND","57,1","0","ND"],
    [18132,"2016-02-24T22:00:00","49","27","8,93","3,5","110,7","ND","62,2","0","ND"],
    [18133,"2016-02-24T23:00:00","61","25","9,16","1,2","224,7","ND","65,7","0","ND"],
    [18134,"2016-02-25T00:00:00","48","20","8,65","1,1","134,6","ND","66,6","0","ND"],
    [18135,"2016-02-25T01:00:00","51","26","7,54","2,4","73,9","ND","67,9","0","ND"],
    [18136,"2016-02-25T02:00:00","60","27","8,18","1,9","65,9","ND","69,1","0","ND"],
    [18137,"2016-02-25T03:00:00","69","34","7,63","1,9","91,8","ND","69,5","0","ND"],
    [18138,"2016-02-25T04:00:00","58","28","4,24","1,8","105,9","ND","69,4","0","ND"],
    [18139,"2016-02-25T05:00:00","79","32","2,59","1,9","235,9","ND","70,3","0","ND"],
    [18140,"2016-02-25T06:00:00","80","30","3,08","2,9","162,8","ND","70,5","0","ND"],
    [18141,"2016-02-25T07:00:00","70","29","2,92","2,5","214,6","ND","72,5","0","ND"],
    [18142,"2016-02-25T08:00:00","61","31","5,12","1,1","164,8","ND","73,6","55,5","ND"],
    [18143,"2016-02-25T09:00:00","54","24","20,33","1,3","57,6","ND","63,2","182,3","ND"],
    [18144,"2016-02-25T10:00:00","61","25","28,98","4,2","97,6","ND","52,8","214,9","ND"],
    [18145,"2016-02-25T11:00:00","55","24","47,14","2,5","51,9","ND","45,6","273,9","ND"],
    [18146,"2016-02-25T12:00:00","50","17","57,97","3,4","96,7","ND","38,4","407,6","ND"],
    [18147,"2016-02-25T13:00:00","50","21","81,07","2","69,4","ND","33,1","408","ND"],
    [18148,"2016-02-25T14:00:00","58","21","79,77","3,9","23,7","ND","32,7","242,4","ND"],
    [18149,"2016-02-25T15:00:00","34","8","57,44","3,4","38,7","ND","32,9","218,9","ND"],
    [18150,"2016-02-25T16:00:00","72","12","41,9","6,4","50,8","ND","39","58,4","ND"],
    [18151,"2016-02-25T17:00:00","42","11","23","2,6","2,3","ND","49","15,3","ND"],
    [18152,"2016-02-25T18:00:00","61","27","12,89","3,1","67,2","ND","52,5","0","ND"],
    [18153,"2016-02-25T19:00:00","88","42","20,23","5","44,6","ND","56,6","0","ND"],
    [18154,"2016-02-25T20:00:00","52","18","24,41","3,4","192,9","ND","59,9","0","ND"],
    [18155,"2016-02-25T21:00:00","27","11","31,93","5,7","211,3","ND","63,8","0","ND"],
    [18156,"2016-02-25T22:00:00","38","15","24,84","3,7","194,6","ND","66,9","0","ND"],
    [18157,"2016-02-25T23:00:00","28","17","22,02","3,6","174,3","ND","68,8","0","ND"],
    [18158,"2016-02-26T00:00:00","22","8","27,26","4,9","201,3","ND","68,9","0","ND"],
    [18159,"2016-02-26T01:00:00","24","9","23,39","1,7","172,6","ND","70,6","0","ND"],
    [18160,"2016-02-26T02:00:00","30","9","21,74","2,8","142,1","ND","71,6","0","ND"],
    [18161,"2016-02-26T03:00:00","28","8","17,62","3","145","ND","72,9","0","ND"],
    [18162,"2016-02-26T04:00:00","33","11","13,83","1,9","147,8","ND","74,6","0","ND"],
    [18163,"2016-02-26T05:00:00","31","10","9,93","2,4","177,3","ND","75,2","0","ND"],
    [18164,"2016-02-26T06:00:00","38","19","5,91","2,8","166,7","ND","75,5","0","ND"],
    [18165,"2016-02-26T07:00:00","36","14","7,06","2,6","183,8","ND","75,4","6,2","ND"],
    [18166,"2016-02-26T08:00:00","46","12","9,65","3,1","204,4","ND","74,8","33,8","ND"],
    [18167,"2016-02-26T09:00:00","54","16","12,07","2,7","191,6","ND","72,7","60,4","ND"],
    [18168,"2016-02-26T10:00:00","48","16","20,9","2,9","194,4","ND","66,8","122,9","ND"],
    [18169,"2016-02-26T11:00:00","51","12","35,44","2,1","198,9","ND","57,4","167,3","ND"],
    [18170,"2016-02-26T12:00:00","44","12","52,93","1,6","95,4","ND","46,9","284,9","ND"],
    [18171,"2016-02-26T13:00:00","65","28","66,84","2,4","53,6","ND","42,7","119,8","ND"],
    [18172,"2016-02-26T14:00:00","61","19","92,6","3","62,1","ND","37,7","436,7","ND"],
    [18173,"2016-02-26T15:00:00","47","25","83,2","4,1","72,1","ND","32,5","337,8","ND"],
    [18174,"2016-02-26T16:00:00","50","21","89,09","2,2","51,1","ND","33,7","125,6","ND"],
    [18175,"2016-02-26T17:00:00","51","25","78,81","2,1","56,3","ND","38","25,6","ND"],
    [18176,"2016-02-26T18:00:00","46","10","46,49","4,3","284,3","ND","39,1","12,1","ND"],
    [18177,"2016-02-26T19:00:00","43","11","17,54","5,2","282,1","ND","40,9","0","ND"],
    [18178,"2016-02-26T20:00:00","38","10","13,46","4,4","279,5","ND","43,2","0","ND"],
    [18179,"2016-02-26T21:00:00","63","15","7,85","1,3","5,4","ND","46,5","0","ND"],
    [18180,"2016-02-26T22:00:00","59","15","2,3","1,7","116,5","ND","55,1","0","ND"],
    [18181,"2016-02-26T23:00:00","47","12","3,22","2,7","75,3","ND","58,3","0","ND"],
    [18182,"2016-02-27T00:00:00","34","7","4,67","2,4","78,8","ND","61,7","0","ND"],
    [18183,"2016-02-27T01:00:00","36","6","4,43","3,3","107,5","ND","62,7","0","ND"],
    [18184,"2016-02-27T02:00:00","28","6","5,38","1,7","105,6","ND","65,1","0","ND"],
    [18185,"2016-02-27T03:00:00","31","6","5,2","0,7","122,4","ND","66,5","0","ND"],
    [18186,"2016-02-27T04:00:00","44","9","5,38","1,9","105,6","ND","66,1","0","ND"],
    [18187,"2016-02-27T05:00:00","52","14","3,43","2,3","106,2","ND","66,6","0","ND"],
    [18188,"2016-02-27T06:00:00","41","9","2,08","0,6","37,5","ND","70,5","0","ND"],
    [18189,"2016-02-27T07:00:00","52","23","2,39","1","152,3","ND","73,3","6,9","ND"],
    [18190,"2016-02-27T08:00:00","65","27","3,26","0,6","163","ND","73,3","58,7","ND"],
    [18191,"2016-02-27T09:00:00","78","25","6,95","2,5","142,3","ND","68,1","83,7","ND"],
    [18192,"2016-02-27T10:00:00","64","17","14,97","3","127,2","ND","60,3","188,9","ND"],
    [18193,"2016-02-27T11:00:00","48","8","38,78","2,2","225,4","ND","47,4","335,3","ND"],
    [18194,"2016-02-27T12:00:00","49","10","59,83","2,3","203,6","ND","37,5","457","ND"],
    [18195,"2016-02-27T13:00:00","40","15","66,47","1,9","152,7","ND","34,1","424,6","ND"],
    [18196,"2016-02-27T14:00:00","47","13","77,93","3","127,9","ND","28,3","418,1","ND"],
    [18197,"2016-02-27T15:00:00","53","22","87,62","1,6","42,8","ND","29,7","155,9","ND"],
    [18198,"2016-02-27T16:00:00","55","21","87,13","5,4","324,3","ND","34,1","161,6","ND"],
    [18199,"2016-02-27T17:00:00","43","10","45,55","8,5","291,3","ND","32,7","140,3","ND"],
    [18200,"2016-02-27T18:00:00","27","5","30,5","8,2","303,2","ND","37","19","ND"],
    [18201,"2016-02-27T19:00:00","37","7","21,61","5,8","310,8","ND","41,2","0","ND"],
    [18202,"2016-02-27T20:00:00","65","25","9,18","2,4","349,5","ND","45,6","0","ND"],
    [18203,"2016-02-27T21:00:00","60","25","6,14","3,2","75,7","ND","50,4","0","ND"],
    [18204,"2016-02-27T22:00:00","42","11","11,68","3","290,4","ND","54","0","ND"],
    [18205,"2016-02-27T23:00:00","63","12","2,71","2,6","181,5","ND","55,6","0","ND"],
    [18206,"2016-02-28T00:00:00","64","14","2,43","2,4","128,6","ND","60,4","0","ND"],
    [18207,"2016-02-28T01:00:00","45","9","3,71","2,2","83,4","ND","62,7","0","ND"],
    [18208,"2016-02-28T02:00:00","39","9","6,02","1,3","109,5","ND","63,6","0","ND"],
    [18209,"2016-02-28T03:00:00","39","10","3,41","1,3","116,1","ND","64","0","ND"],
    [18210,"2016-02-28T04:00:00","44","9","1,84","2,3","104,6","ND","64,4","0","ND"],
    [18211,"2016-02-28T05:00:00","72","18","1,98","1,2","89,8","ND","66,2","0","ND"],
    [18212,"2016-02-28T06:00:00","53","15","4,18","0,8","185,9","ND","66,5","0","ND"],
    [18213,"2016-02-28T07:00:00","66","26","3","1,4","153,9","ND","65,3","0","ND"],
    [18214,"2016-02-28T08:00:00","86","23","4,73","1,2","142,7","ND","64,4","26,6","ND"],
    [18215,"2016-02-28T09:00:00","56","20","9,42","1,6","132,3","ND","61,1","71,1","ND"],
    [18216,"2016-02-28T10:00:00","69","20","16,5","2,1","109,2","ND","56,3","137","ND"],
    [18217,"2016-02-28T11:00:00","ND","ND","ND","ND","ND","ND","ND","ND","ND"],
    [18218,"2016-02-28T12:00:00","ND","ND","ND","ND","ND","ND","ND","ND","ND"],
    [18219,"2016-02-28T13:00:00","ND","ND","ND","ND","ND","ND","ND","ND","ND"],
    [18220,"2016-02-28T14:00:00","ND","ND","ND","ND","ND","ND","ND","ND","ND"],
    [18221,"2016-02-28T15:00:00","ND","ND","ND","ND","ND","ND","ND","ND","ND"],
    [18222,"2016-02-28T16:00:00","ND","ND","ND","ND","ND","ND","ND","ND","ND"],
    [18223,"2016-02-28T17:00:00","ND","ND","ND","ND","ND","ND","ND","ND","ND"],
    [18224,"2016-02-28T18:00:00","ND","ND","ND","ND","ND","ND","ND","ND","ND"],
    [18225,"2016-02-28T19:00:00","ND","ND","ND","ND","ND","ND","ND","ND","ND"],
    [18226,"2016-02-28T20:00:00","ND","ND","ND","ND","ND","ND","ND","ND","ND"],
    [18227,"2016-02-28T21:00:00","ND","ND","ND","ND","ND","ND","ND","ND","ND"],
    [18228,"2016-02-28T22:00:00","ND","ND","ND","ND","ND","ND","ND","ND","ND"],
    [18229,"2016-02-28T23:00:00","ND","ND","ND","ND","ND","ND","ND","ND","ND"],
    [18230,"2016-02-29T00:00:00","ND","ND","ND","ND","ND","ND","ND","ND","ND"],
    [18231,"2016-02-29T01:00:00","ND","ND","ND","ND","ND","ND","ND","ND","ND"],
    [18232,"2016-02-29T02:00:00","ND","ND","ND","ND","ND","ND","ND","ND","ND"],
    [18233,"2016-02-29T03:00:00","ND","ND","ND","ND","ND","ND","ND","ND","ND"],
    [18234,"2016-02-29T04:00:00","ND","ND","ND","ND","ND","ND","ND","ND","ND"],
    [18235,"2016-02-29T05:00:00","ND","ND","ND","ND","ND","ND","ND","ND","ND"],
    [18236,"2016-02-29T06:00:00","ND","ND","ND","ND","ND","ND","ND","ND","ND"],
    [18237,"2016-02-29T07:00:00","ND","ND","ND","ND","ND","ND","ND","ND","ND"],
    [18238,"2016-02-29T08:00:00","ND","ND","ND","ND","ND","ND","ND","ND","ND"],
    [18239,"2016-02-29T09:00:00","59","19","18,31","1,5","146,3","ND","57,9","205,1","ND"],
    [18240,"2016-02-29T10:00:00","48","13","22,86","3","193","ND","48,5","247,4","ND"],
    [18241,"2016-02-29T11:00:00","45","15","49,08","2,6","199,4","ND","40,6","347,3","ND"],
    [18242,"2016-02-29T12:00:00","44","18","70,67","1,7","174,4","ND","35","450,3","ND"],
    [18243,"2016-02-29T13:00:00","54","27","83,95","1,9","86,1","ND","31,5","359,8","ND"],
    [18244,"2016-02-29T14:00:00","68","28","100,87","3,3","109,9","ND","31,2","241,7","ND"],
    [18245,"2016-02-29T15:00:00","ND","ND","144,27","1,2","327,6","ND","30,4","297,9","ND"],
    [18246,"2016-02-29T16:00:00","42","6","ND","9,3","280,5","ND","29,4","214,9","ND"],
    [18247,"2016-02-29T17:00:00","45","3","38,6","8,1","284,6","ND","31,8","164,2","ND"],
    [18248,"2016-02-29T18:00:00","29","4","31,5","6,9","302,2","ND","31,9","72,6","ND"],
    [18249,"2016-02-29T19:00:00","37","6","15,27","5,7","308,6","ND","36,7","0","ND"],
    [18250,"2016-02-29T20:00:00","31","6","7,93","4,2","297,8","ND","40,2","0","ND"],
    [18251,"2016-02-29T21:00:00","25","3","10,13","1,9","276,7","ND","42,1","0","ND"],
    [18252,"2016-02-29T22:00:00","33","6","6","4,3","90,8","ND","51,1","0","ND"],
    [18253,"2016-02-29T23:00:00","33","4","6,1","2,8","73,4","ND","56,1","0","ND"],
    [18254,"2016-03-01T00:00:00","30","2","6,99","2,8","62,4","ND","57,4","0","ND"],
    [18255,"2016-03-01T01:00:00","19","3","11,42","2,6","32,6","ND","57,6","0","ND"],
    [18256,"2016-03-01T02:00:00","26","2","7,1","3,1","80,4","ND","58,7","0","ND"],
    [18257,"2016-03-01T03:00:00","25","2","7,4","1,7","127","ND","61,6","0","ND"],
    [18258,"2016-03-01T04:00:00","26","1","5,97","1,8","133,3","ND","62,8","0","ND"],
    [18259,"2016-03-01T05:00:00","29","2","4,34","2,1","117,3","ND","62,3","0","ND"],
    [18260,"2016-03-01T06:00:00","59","15","1,59","1,8","103,9","ND","64,2","0","ND"],
    [18261,"2016-03-01T07:00:00","80","24","1,73","1,9","99,3","ND","65,8","0","ND"],
    [18262,"2016-03-01T08:00:00","67","20","4,34","1,5","160,4","ND","64,9","71,9","ND"],
    [18263,"2016-03-01T09:00:00","73","20","8,75","2,9","108,4","ND","56,8","68,8","ND"],
    [18264,"2016-03-01T10:00:00","51","15","19,62","1,1","42,4","ND","53,9","158,2","ND"],
    [18265,"2016-03-01T11:00:00","43","10","40,01","1,9","81,7","ND","43,4","338,9","ND"],
    [18266,"2016-03-01T12:00:00","38","11","54,57","3,4","85,3","ND","35,3","405,4","ND"],
    [18267,"2016-03-01T13:00:00","35","9","73,82","2","23,1","ND","31","402,8","ND"],
    [18268,"2016-03-01T14:00:00","56","17","95,23","1,5","2,7","ND","29,5","322,4","ND"],
    [18269,"2016-03-01T15:00:00","48","18","70,82","4,4","70,1","ND","28,9","243,7","ND"],
    [18270,"2016-03-01T16:00:00","59","4","43,05","7,6","284,4","ND","30,6","206,2","ND"],
    [18271,"2016-03-01T17:00:00","43","3","36,19","8,3","285,4","ND","31,1","147,3","ND"],
    [18272,"2016-03-01T18:00:00","40","4","23,76","6,8","289,1","ND","34,6","37,1","ND"],
    [18273,"2016-03-01T19:00:00","40","6","11,21","4,9","288,8","ND","38,4","0","ND"],
    [18274,"2016-03-01T20:00:00","45","6","14,15","4,6","232,7","ND","43,6","0","ND"],
    [18275,"2016-03-01T21:00:00","37","15","19,25","3","158,5","ND","55,2","0","ND"],
    [18276,"2016-03-01T22:00:00","39","12","8,3","3,4","143","ND","57,4","0","ND"],
    [18277,"2016-03-01T23:00:00","41","10","5,08","3","170,5","ND","58,9","0","ND"],
    [18278,"2016-03-02T00:00:00","21","8","9,13","4","242,8","ND","56,8","0","ND"],
    [18279,"2016-03-02T01:00:00","34","7","3,65","1,5","116,3","ND","56,4","0","ND"],
    [18280,"2016-03-02T02:00:00","33","5","1,39","2,6","137,9","ND","62,3","0","ND"],
    [18281,"2016-03-02T03:00:00","33","2","1,26","3,4","166,3","ND","67,3","0","ND"],
    [18282,"2016-03-02T04:00:00","18","ND","5,3","2,2","152,1","ND","72,2","0","ND"],
    [18283,"2016-03-02T05:00:00","ND","ND","4,24","1,8","90,8","ND","75,4","0","ND"],
    [18284,"2016-03-02T06:00:00","ND","ND","ND","ND","ND","ND","ND","ND","ND"],
    [18285,"2016-03-02T07:00:00","ND","ND","ND","ND","ND","ND","ND","ND","ND"],
    [18286,"2016-03-02T08:00:00","ND","ND","ND","ND","ND","ND","ND","ND","ND"],
    [18287,"2016-03-02T09:00:00","ND","ND","ND","ND","ND","ND","ND","ND","ND"],
    [18288,"2016-03-02T10:00:00","ND","ND","ND","ND","ND","ND","ND","ND","ND"],
    [18289,"2016-03-02T11:00:00","ND","ND","ND","4,8","61,4","ND","80,1","32,6","ND"],
    [18290,"2016-03-02T12:00:00","15","ND","7,2","3,8","12,3","ND","80,1","80,5","ND"],
    [18291,"2016-03-02T13:00:00","15","ND","17,5","3,5","1,7","ND","78,2","217,4","ND"],
    [18292,"2016-03-02T14:00:00","29","1","24","3,4","58,4","ND","66,1","167,8","ND"],
    [18293,"2016-03-02T15:00:00","36","6","27,63","4,1","77,6","ND","58,1","180,6","ND"],
    [18294,"2016-03-02T16:00:00","43","4","31,34","2,3","54,2","ND","55","127,6","ND"],
    [18295,"2016-03-02T17:00:00","43","13","29,4","2","93,1","ND","54,5","68,7","ND"],
    [18296,"2016-03-02T18:00:00","43","11","20,7","1,9","111,3","ND","55,5","26,7","ND"],
    [18297,"2016-03-02T19:00:00","62","17","10,54","2,2","184,3","ND","58,9","0,5","ND"],
    [18298,"2016-03-02T20:00:00","54","11","13,36","3,3","205","ND","64,2","0","ND"],
    [18299,"2016-03-02T21:00:00","60","19","6,99","3","218,5","ND","67,3","0","ND"],
    [18300,"2016-03-02T22:00:00","58","13","2,49","2,1","259","ND","68,3","0","ND"],
    [18301,"2016-03-02T23:00:00","63","18","1,53","1","36,6","ND","66,3","0","ND"],
    [18302,"2016-03-03T00:00:00","49","16","1,33","2,4","78,4","ND","70,7","0","ND"],
    [18303,"2016-03-03T01:00:00","38","8","1,28","1,6","86,3","ND","73,1","0","ND"],
    [18304,"2016-03-03T02:00:00","38","9","1,31","1,6","77,9","ND","73","0","ND"],
    [18305,"2016-03-03T03:00:00","33","9","1,41","1,9","104,3","ND","72,3","0","ND"],
    [18306,"2016-03-03T04:00:00","33","9","3,2","0,6","234,9","ND","72","0","ND"],
    [18307,"2016-03-03T05:00:00","40","12","1,28","1,4","122,4","ND","71,3","0","ND"],
    [18308,"2016-03-03T06:00:00","80","25","1,12","1,7","135","ND","72,4","0","ND"],
    [18309,"2016-03-03T07:00:00","54","19","1,02","2,3","188,6","ND","73,2","3,5","ND"],
    [18310,"2016-03-03T08:00:00","58","18","0,59","1,8","229,3","ND","74","39,2","ND"],
    [18311,"2016-03-03T09:00:00","80","29","4,69","2,3","37,5","ND","71,3","94","ND"],
    [18312,"2016-03-03T10:00:00","66","22","16,54","3","85,8","ND","61,6","266,9","ND"],
    [18313,"2016-03-03T11:00:00","45","23","36,77","3,1","90,4","ND","49,3","369,9","ND"],
    [18314,"2016-03-03T12:00:00","56","27","52,49","4","89,5","ND","42,5","411,7","ND"],
    [18315,"2016-03-03T13:00:00","50","19","61,83","4,8","80,7","ND","37,2","419,7","ND"],
    [18316,"2016-03-03T14:00:00","57","24","83,2","4","74,6","ND","38,2","226,4","ND"],
    [18317,"2016-03-03T15:00:00","60","23","73,2","0,6","267,8","ND","38,4","134,6","ND"],
    [18318,"2016-03-03T16:00:00","41","15","39,78","6,9","284,2","ND","36","178,7","ND"],
    [18319,"2016-03-03T17:00:00","47","11","20,06","6,6","284","ND","39,2","47,3","ND"],
    [18320,"2016-03-03T18:00:00","35","7","16,43","6,1","280,4","ND","42,1","18,5","ND"],
    [18321,"2016-03-03T19:00:00","32","3","8,6","5","280,8","ND","45,2","0","ND"],
    [18322,"2016-03-03T20:00:00","39","6","8,3","2,8","288,5","ND","47,4","0","ND"],
    [18323,"2016-03-03T21:00:00","62","22","2,39","3,1","98","ND","53,7","0","ND"],
    [18324,"2016-03-03T22:00:00","45","15","2,02","3,3","91,7","ND","58,6","0","ND"],
    [18325,"2016-03-03T23:00:00","ND","11","6,57","2,3","17,8","ND","62,5","0","ND"],
    [18326,"2016-03-04T00:00:00","ND","20","5,89","2,3","320","ND","65,2","0","ND"],
    [18327,"2016-03-04T01:00:00","ND","9","5,14","2,6","77,4","ND","66,4","0","ND"],
    [18328,"2016-03-04T02:00:00","ND","8","4,98","2,1","81,2","ND","68,9","0","ND"],
    [18329,"2016-03-04T03:00:00","ND","12","6,73","1,5","34,1","ND","70,1","0","ND"],
    [18330,"2016-03-04T04:00:00","ND","8","6,14","2,8","35","ND","70,3","0","ND"],
    [18331,"2016-03-04T05:00:00","ND","6","4,24","1","80,2","ND","72,3","0","ND"],
    [18332,"2016-03-04T06:00:00","ND","6","1,65","2,5","323,1","ND","74,8","0","ND"],
    [18333,"2016-03-04T07:00:00","ND","7","3,2","1,8","358,3","ND","76,1","0","ND"],
    [18334,"2016-03-04T08:00:00","ND","11","4,43","1,1","174,7","ND","77,1","24,7","ND"],
    [18335,"2016-03-04T09:00:00","ND","17","8,34","1,8","197,6","ND","74,8","84,9","ND"],
    [18336,"2016-03-04T10:00:00","ND","7","20,76","1,9","203,4","ND","67,9","198,9","ND"],
    [18337,"2016-03-04T11:00:00","ND","12","31,54","2,8","174,5","ND","56,8","364,2","ND"],
    [18338,"2016-03-04T12:00:00","ND","8","43,82","2,6","171,8","ND","47,2","352,7","ND"],
    [18339,"2016-03-04T13:00:00","ND","4","49,63","2,1","261,7","ND","40,7","231,5","ND"],
    [18340,"2016-03-04T14:00:00","12","1","46,74","1,3","305,3","ND","39,2","324","ND"],
    [18341,"2016-03-04T15:00:00","30","2","47,29","2,7","92,7","ND","33,4","207,2","ND"],
    [18342,"2016-03-04T16:00:00","21","3","19,53","7,2","99,8","ND","57,2","0","ND"],
    [18343,"2016-03-04T17:00:00","21","6","9,44","3,1","142,3","ND","73,9","0","ND"],
    [18344,"2016-03-04T18:00:00","20","6","9,26","2,1","191,4","ND","76,5","0","ND"],
    [18345,"2016-03-04T19:00:00","30","16","11,75","4,2","232,4","ND","76,9","0","ND"],
    [18346,"2016-03-04T20:00:00","32","10","6,91","4,5","214,3","ND","77","0","ND"],
    [18347,"2016-03-04T21:00:00","26","12","4,71","2,8","175,1","ND","77,5","0","ND"],
    [18348,"2016-03-04T22:00:00","35","11","2,69","2,3","126,4","ND","78,1","0","ND"],
    [18349,"2016-03-04T23:00:00","42","12","1,84","1,1","152,8","ND","78,5","0","ND"],
    [18350,"2016-03-05T00:00:00","48","15","2,57","1,6","71,5","ND","78,8","0","ND"],
    [18351,"2016-03-05T01:00:00","44","14","2","1,8","2,7","ND","79,1","0","ND"],
    [18352,"2016-03-05T02:00:00","89","52","1,3","1,6","321,3","ND","79,2","0","ND"],
    [18353,"2016-03-05T03:00:00","77","45","1,41","1,2","355,2","ND","79,4","0","ND"],
    [18354,"2016-03-05T04:00:00","61","28","1,41","2,2","61,3","ND","79,6","0","ND"],
    [18355,"2016-03-05T05:00:00","55","17","1,51","1,2","75,9","ND","79,5","0","ND"],
    [18356,"2016-03-05T06:00:00","60","22","1,33","1,1","150,3","ND","80,1","0","ND"],
    [18357,"2016-03-05T07:00:00","66","23","1,37","1,8","187,7","ND","80,5","4,6","ND"],
    [18358,"2016-03-05T08:00:00","89","44","3,32","1,8","220,9","ND","80,5","81,7","ND"],
    [18359,"2016-03-05T09:00:00","93","48","8,48","1,2","144,7","ND","74,9","172,5","ND"],
    [18360,"2016-03-05T10:00:00","71","34","20,33","2","228,6","ND","64","225,7","ND"],
    [18361,"2016-03-05T11:00:00","37","17","33,85","1,1","175,9","ND","53,6","265,5","ND"],
    [18362,"2016-03-05T12:00:00","54","22","49,28","2,6","80,9","ND","46,4","322","ND"],
    [18363,"2016-03-05T13:00:00","55","20","59,68","3,7","81,8","ND","44,1","242","ND"],
    [18364,"2016-03-05T14:00:00","53","21","64,68","2,8","63,2","ND","41,5","225,1","ND"],
    [18365,"2016-03-05T15:00:00","67","24","64,21","3,7","73,8","ND","40,6","273,3","ND"],
    [18366,"2016-03-05T16:00:00","58","21","61,76","4,5","53,2","ND","36,2","316,1","ND"],
    [18367,"2016-03-05T17:00:00","52","18","51,16","2,6","48","ND","36,1","122,9","ND"],
    [18368,"2016-03-05T18:00:00","28","10","16,92","6,3","286,9","ND","37,6","22,3","ND"],
    [18369,"2016-03-05T19:00:00","31","6","6,1","4,8","291,7","ND","43,1","0","ND"],
    [18370,"2016-03-05T20:00:00","55","17","1,79","2,2","337,6","ND","47,9","0","ND"],
    [18371,"2016-03-05T21:00:00","63","14","1,73","2,7","106,8","ND","56,2","0","ND"],
    [18372,"2016-03-05T22:00:00","51","16","1,77","2,1","119,7","ND","61,9","0","ND"],
    [18373,"2016-03-05T23:00:00","51","16","1,18","2,2","189,9","ND","65,5","0","ND"],
    [18374,"2016-03-06T00:00:00","63","17","1,33","2","134,6","ND","66,8","0","ND"],
    [18375,"2016-03-06T01:00:00","71","13","1,31","1,8","89,3","ND","67,7","0","ND"],
    [18376,"2016-03-06T02:00:00","44","13","2,75","0,6","180,5","ND","68,6","0","ND"],
    [18377,"2016-03-06T03:00:00","33","6","2,47","1","350,2","ND","70,1","0","ND"],
    [18378,"2016-03-06T04:00:00","42","2","2,08","2,9","95,8","ND","70,9","0","ND"],
    [18379,"2016-03-06T05:00:00","48","2","1,59","1,6","190,5","ND","70,6","0","ND"],
    [18380,"2016-03-06T06:00:00","58","16","1,37","1,2","136,2","ND","71,7","0","ND"],
    [18381,"2016-03-06T07:00:00","32","6","2,83","2,2","280,8","ND","72,8","0","ND"],
    [18382,"2016-03-06T08:00:00","19","3","10,62","2,5","267,4","ND","72,7","52,4","ND"],
    [18383,"2016-03-06T09:00:00","42","16","14,34","4,7","225,1","ND","66,5","172","ND"],
    [18384,"2016-03-06T10:00:00","43","20","16,64","5","223,8","ND","59,3","173,7","ND"],
    [18385,"2016-03-06T11:00:00","42","17","27,28","3,2","197,9","ND","56,1","329,3","ND"],
    [18386,"2016-03-06T12:00:00","36","18","49,61","1,3","242,7","ND","44,8","366,1","ND"],
    [18387,"2016-03-06T13:00:00","35","12","75,81","4,5","299,3","ND","37,7","405","ND"],
    [18388,"2016-03-06T14:00:00","25","9","48,53","3,3","292,2","ND","36","307,4","ND"],
    [18389,"2016-03-06T15:00:00","17","4","31,08","9,2","299,8","ND","32,1","357","ND"],
    [18390,"2016-03-06T16:00:00","41","4","28,61","5,4","34","ND","38,8","165,3","ND"],
    [18391,"2016-03-06T17:00:00","39","8","20,27","4,7","102,3","ND","59,6","9","ND"],
    [18392,"2016-03-06T18:00:00","14","4","22,19","7,2","198,8","ND","66,4","0","ND"],
    [18393,"2016-03-06T19:00:00","16","3","20,59","5,6","186,7","ND","68,8","0","ND"],
    [18394,"2016-03-06T20:00:00","23","5","20,04","4,3","216,4","ND","71,2","0","ND"],
    [18395,"2016-03-06T21:00:00","30","6","8,16","2,5","232","ND","71,9","0","ND"],
    [18396,"2016-03-06T22:00:00","40","13","3,26","4,1","110,5","ND","72,7","0","ND"],
    [18397,"2016-03-06T23:00:00","45","14","4,45","1,1","89,5","ND","74,4","0","ND"],
    [18398,"2016-03-07T00:00:00","39","12","2,28","2,4","320,2","ND","75,5","0","ND"],
    [18399,"2016-03-07T01:00:00","47","13","4,26","2,4","81,1","ND","75,2","0","ND"],
    [18400,"2016-03-07T02:00:00","51","15","4,24","1,3","219","ND","76,2","0","ND"],
    [18401,"2016-03-07T03:00:00","43","16","2,22","1,7","143,5","ND","75,9","0","ND"],
    [18402,"2016-03-07T04:00:00","36","10","3,3","1,5","186","ND","76,4","0","ND"],
    [18403,"2016-03-07T05:00:00","38","13","2,37","0,7","160","ND","77,1","0","ND"],
    [18404,"2016-03-07T06:00:00","65","23","1,69","2,5","81,9","ND","77,7","0","ND"],
    [18405,"2016-03-07T07:00:00","64","22","1,49","1,8","104,8","ND","78,3","4,8","ND"],
    [18406,"2016-03-07T08:00:00","58","29","3,65","1,1","102,6","ND","78,4","60,2","ND"],
    [18407,"2016-03-07T09:00:00","67","28","12,85","1,6","50,9","ND","72,1","212,8","ND"],
    [18408,"2016-03-07T10:00:00","49","17","20,45","2,3","66,8","ND","55,5","282,7","ND"],
    [18409,"2016-03-07T11:00:00","41","13","33,01","2,7","16,7","ND","47,8","316,2","ND"],
    [18410,"2016-03-07T12:00:00","47","13","44,21","2,9","80,4","ND","43,2","484,4","ND"],
    [18411,"2016-03-07T13:00:00","44","25","57,07","3,1","75,2","ND","36,5","480,8","ND"],
    [18412,"2016-03-07T14:00:00","38","16","62,72","2,2","81,4","ND","33,8","332,3","ND"],
    [18413,"2016-03-07T15:00:00","43","16","75,08","2,6","105,6","ND","34,7","239,2","ND"],
    [18414,"2016-03-07T16:00:00","53","21","78,51","2","150,9","ND","35,7","80,8","ND"],
    [18415,"2016-03-07T17:00:00","39","11","44,33","5,2","275,4","ND","36,7","29,5","ND"],
    [18416,"2016-03-07T18:00:00","49","8","25,37","4,8","255,5","ND","44","0","ND"],
    [18417,"2016-03-07T19:00:00","44","17","36,01","2,8","189,8","ND","60,6","0","ND"],
    [18418,"2016-03-07T20:00:00","39","19","26,71","4,5","73,3","ND","68","0","ND"],
    [18419,"2016-03-07T21:00:00","35","13","26,39","3,7","23,2","ND","73,2","0","ND"],
    [18420,"2016-03-07T22:00:00","36","17","17,82","3,2","6,5","ND","75,2","0","ND"],
    [18421,"2016-03-07T23:00:00","53","13","7,22","0,5","24,3","ND","76,8","0","ND"],
    [18422,"2016-03-08T00:00:00","39","11","2,02","1,7","206,8","ND","77,2","0","ND"],
    [18423,"2016-03-08T01:00:00","36","16","7,5","2,1","191,8","ND","77,8","0","ND"],
    [18424,"2016-03-08T02:00:00","44","16","10,13","2,2","157,3","ND","78,5","0","ND"],
    [18425,"2016-03-08T03:00:00","43","12","11,89","0,8","155","ND","79","0","ND"],
    [18426,"2016-03-08T04:00:00","41","14","7,12","1,5","78,3","ND","79,4","0","ND"],
    [18427,"2016-03-08T05:00:00","49","14","1,61","0,6","127,1","ND","79,5","0","ND"],
    [18428,"2016-03-08T06:00:00","82","41","1,35","2,5","96,2","ND","80,2","0","ND"],
    [18429,"2016-03-08T07:00:00","61","19","1,47","0,8","13,7","ND","80,7","4,2","ND"],
    [18430,"2016-03-08T08:00:00","94","45","3,12","2","59","ND","81,2","42,7","ND"],
    [18431,"2016-03-08T09:00:00","93","54","9,99","1","34","ND","79,8","92,8","ND"],
    [18432,"2016-03-08T10:00:00","76","43","27,77","0,8","163,3","ND","74,3","198,5","ND"],
    [18433,"2016-03-08T11:00:00","69","29","59,42","1,8","100,4","ND","58,6","371,4","ND"],
    [18434,"2016-03-08T12:00:00","44","16","52,43","4,5","102,4","ND","46,4","447","ND"],
    [18435,"2016-03-08T13:00:00","46","12","48,22","2,5","97,7","ND","40,2","475,7","ND"],
    [18436,"2016-03-08T14:00:00","36","11","55,61","2,7","92,1","ND","35","432,9","ND"],
    [18437,"2016-03-08T15:00:00","36","14","67,07","3,5","41,5","ND","34,1","272,9","ND"],
    [18438,"2016-03-08T16:00:00","60","14","36,81","5,5","8,6","ND","40,8","110,2","ND"],
    [18439,"2016-03-08T17:00:00","47","18","30,42","3,2","323","ND","40,2","71,6","ND"],
    [18440,"2016-03-08T18:00:00","40","7","21,27","4,7","295,5","ND","39,5","25,8","ND"],
    [18441,"2016-03-08T19:00:00","40","7","12,79","4,6","302,5","ND","41,7","0","ND"],
    [18442,"2016-03-08T20:00:00","77","30","3","2,6","54,6","ND","50,7","0","ND"],
    [18443,"2016-03-08T21:00:00","77","23","2,14","2","88,3","ND","57,1","0","ND"],
    [18444,"2016-03-08T22:00:00","64","21","1,88","1","137,8","ND","59,9","0","ND"],
    [18445,"2016-03-08T23:00:00","65","19","1,59","1,1","234,9","ND","62,7","0","ND"],
    [18446,"2016-03-09T00:00:00","54","15","2,2","2,1","235,9","ND","65,2","0","ND"],
    [18447,"2016-03-09T01:00:00","57","13","2,51","2,8","180,7","ND","66,7","0","ND"],
    [18448,"2016-03-09T02:00:00","67","11","1,47","2","207,1","ND","69,9","0","ND"],
    [18449,"2016-03-09T03:00:00","63","21","2,22","2,1","178,4","ND","71,2","0","ND"],
    [18450,"2016-03-09T04:00:00","60","12","1,92","2,6","122,5","ND","72,4","0","ND"],
    [18451,"2016-03-09T05:00:00","82","17","1,33","1,3","38,4","ND","74","0","ND"],
    [18452,"2016-03-09T06:00:00","104","29","1,39","1,6","56,4","ND","75,8","0","ND"],
    [18453,"2016-03-09T07:00:00","87","26","1,28","0,6","272,8","ND","76,6","0","ND"],
    [18454,"2016-03-09T08:00:00","122","39","2,1","2,1","73,2","ND","75,1","41,5","ND"],
    [18455,"2016-03-09T09:00:00","91","23","4,24","3,5","90,8","ND","71,1","131,1","ND"],
    [18456,"2016-03-09T10:00:00","77","25","18,25","1,6","114,5","ND","62","249,7","ND"],
    [18457,"2016-03-09T11:00:00","67","23","47,57","1,4","194,1","ND","46,4","383,5","ND"],
    [18458,"2016-03-09T12:00:00","59","22","60,95","3,6","84,2","ND","38,9","438,7","ND"],
    [18459,"2016-03-09T13:00:00","60","24","79,5","3,3","76,1","ND","34,5","451,6","ND"],
    [18460,"2016-03-09T14:00:00","56","24","96,92","2,9","74","ND","32","390,4","ND"],
    [18461,"2016-03-09T15:00:00","ND","ND","84,91","3,3","9,2","ND","32,3","221,6","ND"],
    [18462,"2016-03-09T16:00:00","56","18","ND","5,3","350","ND","33,8","74,9","ND"],
    [18463,"2016-03-09T17:00:00","53","18","30,2","5,2","294,3","ND","36,8","43","ND"],
    [18464,"2016-03-09T18:00:00","74","24","19,02","3,6","352","ND","40,9","16,7","ND"],
    [18465,"2016-03-09T19:00:00","68","23","10,2","2,4","169,2","ND","47,1","0","ND"],
    [18466,"2016-03-09T20:00:00","48","16","24,82","4,3","192,3","ND","49,9","0","ND"],
    [18467,"2016-03-09T21:00:00","47","17","19,45","4","204,9","ND","54","0","ND"],
    [18468,"2016-03-09T22:00:00","49","16","9,52","2,2","163,2","ND","57,9","0","ND"],
    [18469,"2016-03-09T23:00:00","49","18","5,1","1,7","82,4","ND","61","0","ND"],
    [18470,"2016-03-10T00:00:00","75","35","2,92","0,7","85,9","ND","64,3","0","ND"],
    [18471,"2016-03-10T01:00:00","46","19","6,3","2,6","91,9","ND","64,3","0","ND"],
    [18472,"2016-03-10T02:00:00","61","26","6,77","2,3","186,2","ND","66,1","0","ND"],
    [18473,"2016-03-10T03:00:00","46","8","6,61","2,6","188,9","ND","67,4","0","ND"],
    [18474,"2016-03-10T04:00:00","57","14","1,9","1,6","216,4","ND","68,6","0","ND"],
    [18475,"2016-03-10T05:00:00","77","13","1,08","1,8","112,4","ND","70,3","0","ND"],
    [18476,"2016-03-10T06:00:00","69","29","1,35","1,6","139,1","ND","71,5","0","ND"],
    [18477,"2016-03-10T07:00:00","94","27","1,67","1,6","85,7","ND","71,9","4,5","ND"],
    [18478,"2016-03-10T08:00:00","88","31","2,55","1,5","212,2","ND","71,9","45,1","ND"],
    [18479,"2016-03-10T09:00:00","71","23","19,39","1,6","213,1","ND","65,1","152,8","ND"],
    [18480,"2016-03-10T10:00:00","59","21","26,02","2,4","137,3","ND","47,4","292,6","ND"],
    [18481,"2016-03-10T11:00:00","50","15","46,53","2,1","103,6","ND","39,9","384,1","ND"],
    [18482,"2016-03-10T12:00:00","46","22","75,24","4,4","74,4","ND","37,5","419,7","ND"],
    [18483,"2016-03-10T13:00:00","70","32","91,49","3,5","71,6","ND","35,3","404,6","ND"],
    [18484,"2016-03-10T14:00:00","57","24","83,07","2,9","22,3","ND","33,9","367,6","ND"],
    [18485,"2016-03-10T15:00:00","56","21","79,36","3,7","352,3","ND","30,9","287,4","ND"],
    [18486,"2016-03-10T16:00:00","52","11","48,22","6,8","304,8","ND","30,6","301,2","ND"],
    [18487,"2016-03-10T17:00:00","45","17","43,43","5,1","27,7","ND","29,3","210,9","ND"],
    [18488,"2016-03-10T18:00:00","46","16","28,63","5,2","340,1","ND","31,9","58,2","ND"],
    [18489,"2016-03-10T19:00:00","40","7","12,66","3,6","302,9","ND","37,6","0","ND"],
    [18490,"2016-03-10T20:00:00","53","15","4,96","2,4","116,9","ND","47,4","0","ND"],
    [18491,"2016-03-10T21:00:00","58","19","17,99","4,3","161,5","ND","54,1","0","ND"],
    [18492,"2016-03-10T22:00:00","42","15","25,81","3,9","190,8","ND","57,6","0","ND"],
    [18493,"2016-03-10T23:00:00","43","11","21,72","2,5","182","ND","59","0","ND"],
    [18494,"2016-03-11T00:00:00","35","15","29,38","2,8","207,4","ND","59,2","0","ND"],
    [18495,"2016-03-11T01:00:00","36","9","14,21","2,7","129,6","ND","61,2","0","ND"],
    [18496,"2016-03-11T02:00:00","53","14","4,61","2,6","147,6","ND","65,7","0","ND"],
    [18497,"2016-03-11T03:00:00","40","10","8,71","2,3","156,9","ND","68,1","0","ND"],
    [18498,"2016-03-11T04:00:00","25","13","14,09","3,1","216,2","ND","70,5","0","ND"],
    [18499,"2016-03-11T05:00:00","23","9","9,3","2","202,5","ND","73,1","0","ND"],
    [18500,"2016-03-11T06:00:00","47","19","4,91","2,9","88,8","ND","76,2","0","ND"],
    [18501,"2016-03-11T07:00:00","41","23","4,43","2,3","68,2","ND","77,4","0","ND"],
    [18502,"2016-03-11T08:00:00","44","17","5,32","1,5","44,1","ND","77,9","15,9","ND"],
    [18503,"2016-03-11T09:00:00","44","19","8,65","1,5","181,9","ND","77,4","52,4","ND"],
    [18504,"2016-03-11T10:00:00","59","27","20,15","1,2","222,2","ND","73,6","138,7","ND"],
    [18505,"2016-03-11T11:00:00","61","25","25,94","1,8","168,8","ND","64,1","154,3","ND"],
    [18506,"2016-03-11T12:00:00","63","27","32,77","2,9","123,5","ND","57,4","173,1","ND"],
    [18507,"2016-03-11T13:00:00","58","29","46,9","2,6","147,1","ND","53,2","196,2","ND"],
    [18508,"2016-03-11T14:00:00","54","23","56,58","1,8","191,2","ND","48,6","258,1","ND"],
    [18509,"2016-03-11T15:00:00","47","17","73,29","2","162,9","ND","42","264,9","ND"],
    [18510,"2016-03-11T16:00:00","58","20","93,64","3,1","153,5","ND","39,1","297,7","ND"],
    [18511,"2016-03-11T17:00:00","61","27","74,39","3,9","105,7","ND","37,6","124,4","ND"],
    [18512,"2016-03-11T18:00:00","84","34","50,61","3","78,4","ND","44,5","18,8","ND"],
    [18513,"2016-03-11T19:00:00","64","31","28","0,9","265,7","ND","48","0","ND"],
    [18514,"2016-03-11T20:00:00","48","8","10,58","4,3","280,3","ND","45,1","0","ND"],
    [18515,"2016-03-11T21:00:00","40","11","7,42","3,1","281","ND","46,5","0","ND"],
    [18516,"2016-03-11T22:00:00","56","17","1,79","3","109","ND","55,6","0","ND"],
    [18517,"2016-03-11T23:00:00","59","17","2,02","3","68,6","ND","61","0","ND"],
    [18518,"2016-03-12T00:00:00","58","9","2,65","2,4","347,2","ND","63,3","0","ND"],
    [18519,"2016-03-12T01:00:00","39","14","2,45","2","339,4","ND","63,5","0","ND"],
    [18520,"2016-03-12T02:00:00","35","10","16,44","2,2","331,6","ND","67,5","0","ND"],
    [18521,"2016-03-12T03:00:00","38","18","19,82","2","215,5","ND","75","0","ND"],
    [18522,"2016-03-12T04:00:00","29","12","18,52","1","240,7","ND","77,4","0","ND"],
    [18523,"2016-03-12T05:00:00","41","16","9,26","2,4","92,6","ND","78,1","0","ND"],
    [18524,"2016-03-12T06:00:00","46","22","3,98","0,5","68,4","ND","79","0","ND"],
    [18525,"2016-03-12T07:00:00","60","29","2,63","1,1","158,7","ND","79,4","0","ND"],
    [18526,"2016-03-12T08:00:00","48","20","4,53","1,9","194,6","ND","79,1","23,1","ND"],
    [18527,"2016-03-12T09:00:00","41","18","6,4","3,4","130,3","ND","77,6","79,4","ND"],
    [18528,"2016-03-12T10:00:00","32","17","20,7","0,9","220","ND","72,8","180,5","ND"],
    [18529,"2016-03-12T11:00:00","37","10","45,04","1,9","206,6","ND","56,7","385,4","ND"],
    [18530,"2016-03-12T12:00:00","31","6","54,65","1,8","199,9","ND","45,7","436","ND"],
    [18531,"2016-03-12T13:00:00","30","8","67,7","2","233,7","ND","38,2","431,2","ND"],
    [18532,"2016-03-12T14:00:00","22","6","37,42","7,7","290,7","ND","37,3","280,5","ND"],
    [18533,"2016-03-12T15:00:00","29","10","36,36","6,5","307,4","ND","40,5","164,4","ND"],
    [18534,"2016-03-12T16:00:00","38","14","31,46","2,5","40,2","ND","39,4","167,9","ND"],
    [18535,"2016-03-12T17:00:00","62","22","21,39","3,9","66,4","ND","40,4","74,3","ND"],
    [18536,"2016-03-12T18:00:00","162","19","18,37","4,5","85,4","ND","48,3","22,6","ND"],
    [18537,"2016-03-12T19:00:00","70","32","14,72","2,3","155,8","ND","53,4","0","ND"],
    [18538,"2016-03-12T20:00:00","99","30","11,15","2,5","208","ND","57,7","0","ND"],
    [18539,"2016-03-12T21:00:00","122","47","5,36","1,7","88","ND","61","0","ND"],
    [18540,"2016-03-12T22:00:00","143","66","2,96","2,1","68,8","ND","64,6","0","ND"],
    [18541,"2016-03-12T23:00:00","90","28","5,67","2,9","189,3","ND","66,9","0","ND"],
    [18542,"2016-03-13T00:00:00","70","22","8,22","1,3","176,9","ND","67,1","0","ND"],
    [18543,"2016-03-13T01:00:00","82","26","4,69","1,7","93,4","ND","69,1","0","ND"],
    [18544,"2016-03-13T02:00:00","65","14","2,49","1,9","152,6","ND","70,5","0","ND"],
    [18545,"2016-03-13T03:00:00","87","26","1,39","2,4","80,4","ND","72,1","0","ND"],
    [18546,"2016-03-13T04:00:00","63","18","2,12","1,6","15,6","ND","73,5","0","ND"],
    [18547,"2016-03-13T05:00:00","67","23","1,31","1,9","104,7","ND","73,9","0","ND"],
    [18548,"2016-03-13T06:00:00","68","22","1,2","1,5","115,2","ND","73,8","0","ND"],
    [18549,"2016-03-13T07:00:00","54","16","1,94","1,6","196,1","ND","74,1","7,5","ND"],
    [18550,"2016-03-13T08:00:00","70","20","2,69","2,3","141,5","ND","74,5","23,4","ND"],
    [18551,"2016-03-13T09:00:00","73","29","5,14","1,6","125,9","ND","72,4","63","ND"],
    [18552,"2016-03-13T10:00:00","77","29","12,17","2,5","129,6","ND","67,3","126,1","ND"],
    [18553,"2016-03-13T11:00:00","58","21","27,47","1,4","145,2","ND","56,5","182","ND"],
    [18554,"2016-03-13T12:00:00","60","20","36,48","3,1","116,5","ND","49,7","292,3","ND"],
    [18555,"2016-03-13T13:00:00","54","24","68,47","0,9","242,4","ND","43,2","287,9","ND"],
    [18556,"2016-03-13T14:00:00","73","25","88,78","1,8","182,5","ND","39,4","285,6","ND"],
    [18557,"2016-03-13T15:00:00","67","22","79,83","4","90,2","ND","38,1","228,9","ND"],
    [18558,"2016-03-13T16:00:00","65","24","63,27","1,1","63,7","ND","39,6","82,7","ND"],
    [18559,"2016-03-13T17:00:00","45","10","57,85","8,3","263,7","ND","50,5","16,5","ND"],
    [18560,"2016-03-13T18:00:00","49","22","29,2","4,5","249,5","ND","58,2","0","ND"],
    [18561,"2016-03-13T19:00:00","64","28","24,61","2,5","173,9","ND","60,5","0","ND"],
    [18562,"2016-03-13T20:00:00","70","29","11,17","0,7","131,3","ND","62,9","0","ND"],
    [18563,"2016-03-13T21:00:00","43","19","7,04","1,4","352,3","ND","69,1","0","ND"],
    [18564,"2016-03-13T22:00:00","ND","ND","ND","ND","ND","ND","ND","ND","ND"],
    [18565,"2016-03-13T23:00:00","ND","ND","ND","ND","ND","ND","ND","ND","ND"],
    [18566,"2016-03-14T00:00:00","ND","ND","ND","ND","ND","ND","ND","ND","ND"],
    [18567,"2016-03-14T01:00:00","ND","ND","ND","ND","ND","ND","ND","ND","ND"],
    [18568,"2016-03-14T02:00:00","ND","ND","ND","ND","ND","ND","ND","ND","ND"],
    [18569,"2016-03-14T03:00:00","ND","ND","ND","ND","ND","ND","ND","ND","ND"],
    [18570,"2016-03-14T04:00:00","ND","ND","ND","ND","ND","ND","ND","ND","ND"],
    [18571,"2016-03-14T05:00:00","ND","ND","ND","ND","ND","ND","ND","ND","ND"],
    [18572,"2016-03-14T06:00:00","ND","ND","ND","ND","ND","ND","ND","ND","ND"],
    [18573,"2016-03-14T07:00:00","ND","ND","ND","ND","ND","ND","ND","ND","ND"],
    [18574,"2016-03-14T08:00:00","ND","ND","ND","ND","ND","ND","ND","ND","ND"],
    [18575,"2016-03-14T09:00:00","ND","ND","ND","ND","ND","ND","ND","ND","ND"],
    [18576,"2016-03-14T10:00:00","ND","ND","ND","ND","ND","ND","ND","ND","ND"],
    [18577,"2016-03-14T11:00:00","ND","ND","ND","ND","ND","ND","ND","ND","ND"],
    [18578,"2016-03-14T12:00:00","ND","ND","ND","ND","ND","ND","ND","ND","ND"],
    [18579,"2016-03-14T13:00:00","ND","ND","ND","ND","ND","ND","ND","ND","ND"],
    [18580,"2016-03-14T14:00:00","ND","ND","ND","ND","ND","ND","ND","ND","ND"],
    [18581,"2016-03-14T15:00:00","ND","ND","ND","ND","ND","ND","ND","ND","ND"],
    [18582,"2016-03-14T16:00:00","ND","ND","ND","ND","ND","ND","ND","ND","ND"],
    [18583,"2016-03-14T17:00:00","ND","ND","ND","ND","ND","ND","ND","ND","ND"],
    [18584,"2016-03-14T18:00:00","46","16","33,16","7","283,4","ND","41,2","34","0"],
    [18585,"2016-03-14T19:00:00","61","23","20,21","0,9","319,8","ND","44,8","0","0"],
    [18586,"2016-03-14T20:00:00","62","22","14,13","3,5","64,6","ND","54","0","0"],
    [18587,"2016-03-14T21:00:00","54","26","19,15","2,3","95","ND","58,4","0","0"],
    [18588,"2016-03-14T22:00:00","66","27","13,38","2","157,8","ND","61,5","0","0"],
    [18589,"2016-03-14T23:00:00","60","19","13,54","2,6","216,8","ND","62","0","0"],
    [18590,"2016-03-15T00:00:00","62","19","9,07","2,5","176,5","ND","64,5","0","0"],
    [18591,"2016-03-15T01:00:00","57","16","18,6","0,5","242,6","ND","65,7","0","0"],
    [18592,"2016-03-15T02:00:00","49","24","11,3","1,7","1,8","ND","65,6","0","0"],
    [18593,"2016-03-15T03:00:00","80","19","1,65","2,6","100","ND","67,4","0","0"],
    [18594,"2016-03-15T04:00:00","36","15","13,91","2,1","141,3","ND","73,2","0","0"],
    [18595,"2016-03-15T05:00:00","27","15","14,97","2,8","232,3","ND","77,2","0","0"],
    [18596,"2016-03-15T06:00:00","35","13","7,06","1,9","321","ND","78,5","0","0"],
    [18597,"2016-03-15T07:00:00","53","33","1,92","1,6","64,7","ND","79,4","9","0"],
    [18598,"2016-03-15T08:00:00","59","31","3,87","1,8","192,9","ND","79,8","43","0"],
    [18599,"2016-03-15T09:00:00","57","26","9,09","2,5","150,2","ND","78,4","110","0"],
    [18600,"2016-03-15T10:00:00","48","21","31,26","1,5","216,8","ND","69,5","286","0"],
    [18601,"2016-03-15T11:00:00","ND","ND","ND","0,7","146,4","ND","54,2","388,4","ND"],
    [18602,"2016-03-15T12:00:00","38","17","35,62","2,4","104,4","ND","43,4","359,3","0"],
    [18603,"2016-03-15T13:00:00","53","27","47,04","2,6","134,2","ND","39,3","436,1","0"],
    [18604,"2016-03-15T14:00:00","60","22","51,67","3,7","97,8","ND","36,6","427,1","0"],
    [18605,"2016-03-15T15:00:00","81","22","58,05","3,1","109,4","ND","34,9","368,4","0"],
    [18606,"2016-03-15T16:00:00","55","21","56,34","2,6","87","ND","32,8","280,1","0"],
    [18607,"2016-03-15T17:00:00","58","20","57,63","2,8","93,7","ND","32","167,6","0"],
    [18608,"2016-03-15T18:00:00","54","22","43,78","5,5","290,1","ND","35,2","48,9","0"],
    [18609,"2016-03-15T19:00:00","52","15","24,14","6,6","295","ND","41,1","0","0"],
    [18610,"2016-03-15T20:00:00","43","17","21,13","6,5","294","ND","44","0","0"],
    [18611,"2016-03-15T21:00:00","72","26","8,67","4,3","79,9","ND","51","0","0"],
    [18612,"2016-03-15T22:00:00","63","24","10,24","2,1","200","ND","57,9","0","0"],
    [18613,"2016-03-15T23:00:00","59","24","6,61","3,1","138,1","ND","61","0","0"],
    [18614,"2016-03-16T00:00:00","79","33","4,91","2,4","116,4","ND","63,8","0","0"],
    [18615,"2016-03-16T01:00:00","68","30","6,08","1,2","230,5","ND","66,1","0","0"],
    [18616,"2016-03-16T02:00:00","39","12","14,23","1,9","221,7","ND","67,5","0","0"],
    [18617,"2016-03-16T03:00:00","71","25","7,14","2,6","101,1","ND","68,6","0","0"],
    [18618,"2016-03-16T04:00:00","92","46","4,4","2,2","125,5","ND","69,9","0","0"],
    [18619,"2016-03-16T05:00:00","100","42","2,63","1","134,2","ND","71,2","0","0"],
    [18620,"2016-03-16T06:00:00","138","49","2,87","1,8","95,2","ND","71,9","0","0"],
    [18621,"2016-03-16T07:00:00","129","57","3,18","1,5","136","ND","73,3","8,3","0"],
    [18622,"2016-03-16T08:00:00","113","50","3,47","2","162,6","ND","72,8","52","0"],
    [18623,"2016-03-16T09:00:00","85","34","7,65","2,1","144,6","ND","67,4","140,5","0"],
    [18624,"2016-03-16T10:00:00","52","18","16,46","4,1","119,3","ND","52,6","270,7","0"],
    [18625,"2016-03-16T11:00:00","51","16","31,04","2,8","124","ND","45,5","356","0"],
    [18626,"2016-03-16T12:00:00","55","20","43,9","3,1","62,8","ND","39,6","451,6","0"],
    [18627,"2016-03-16T13:00:00","55","17","54,32","3,7","95,5","ND","35,7","459,3","0"],
    [18628,"2016-03-16T14:00:00","50","23","72,43","2,5","29,4","ND","34","365,2","0"],
    [18629,"2016-03-16T15:00:00","ND","24","61,54","3","341,9","ND","33,6","228,2","0"],
    [18630,"2016-03-16T16:00:00","52","9","37,91","8","292,5","ND","32,5","263,2","0"],
    [18631,"2016-03-16T17:00:00","50","7","26,61","8,6","292,3","ND","34,8","91,7","0"],
    [18632,"2016-03-16T18:00:00","69","33","19,31","8,7","299,5","ND","39,5","49,2","0"],
    [18633,"2016-03-16T19:00:00","36","6","12,19","5,9","311,4","ND","44,4","0","0"],
    [18634,"2016-03-16T20:00:00","72","11","13,01","3,5","311","ND","47,7","0","0"],
    [18635,"2016-03-16T21:00:00","61","11","20,57","4,8","219,4","ND","57,5","0","0"],
    [18636,"2016-03-16T22:00:00","61","11","14,5","2,9","191,6","ND","62,2","0","0"],
    [18637,"2016-03-16T23:00:00","42","10","9,97","3,6","134,2","ND","63,2","0","0"],
    [18638,"2016-03-17T00:00:00","37","14","8,81","2,9","202","ND","66,3","0","0"],
    [18639,"2016-03-17T01:00:00","31","8","5,87","1,8","112,6","ND","68,6","0","0"],
    [18640,"2016-03-17T02:00:00","30","4","5,1","3","94,2","ND","69,9","0","0"],
    [18641,"2016-03-17T03:00:00","51","9","5,49","2,2","182","ND","71,5","0","0,25"],
    [18642,"2016-03-17T04:00:00","22","5","8,63","2,3","228,6","ND","72,7","0","0"],
    [18643,"2016-03-17T05:00:00","22","1","5,22","1,6","182,8","ND","74,1","0","0"],
    [18644,"2016-03-17T06:00:00","38","14","3,71","1,7","132,9","ND","74,8","0","0"],
    [18645,"2016-03-17T07:00:00","59","24","2,35","3","103,4","ND","75","0","0"],
    [18646,"2016-03-17T08:00:00","76","33","2,61","3,2","102,8","ND","75,3","22,8","0"],
    [18647,"2016-03-17T09:00:00","46","20","4,38","2,1","173,3","ND","75,6","59,2","0,25"],
    [18648,"2016-03-17T10:00:00","34","11","6,38","2","171,5","ND","73,1","78","0,51"],
    [18649,"2016-03-17T11:00:00","44","16","13,44","2,1","132,2","ND","68,4","350,6","0"],
    [18650,"2016-03-17T12:00:00","39","18","22,98","3,1","69,7","ND","48,5","406","0"],
    [18651,"2016-03-17T13:00:00","35","18","ND","3","40,6","ND","41,7","403,6","0"],
    [18652,"2016-03-17T14:00:00","45","ND","ND","3,2","71,5","ND","43,7","231,8","0"],
    [18653,"2016-03-17T15:00:00","39","ND","ND","4,2","99,2","ND","45","281,9","0"],
    [18654,"2016-03-17T16:00:00","27","ND","ND","0,3","187,5","ND","42,6","147,7","0"],
    [18655,"2016-03-17T17:00:00","39","ND","ND","1,1","305,9","ND","40,8","111","0"],
    [18656,"2016-03-17T18:00:00","33","ND","ND","5,7","295,8","ND","43","31,1","0"],
    [18657,"2016-03-17T19:00:00","46","ND","ND","6,2","36,4","ND","52,3","0","0"],
    [18658,"2016-03-17T20:00:00","25","ND","ND","6,3","46,2","ND","69,8","0","1,27"],
    [18659,"2016-03-17T21:00:00","31","ND","ND","2,2","40,8","ND","76,6","0","1,52"],
    [18660,"2016-03-17T22:00:00","33","ND","ND","4,8","189,4","ND","78,6","0","0,51"],
    [18661,"2016-03-17T23:00:00","26","ND","ND","4,8","203,1","ND","80,5","0","0"],
    [18662,"2016-03-18T00:00:00","16","ND","ND","2,8","177,1","ND","81,4","0","0"],
    [18663,"2016-03-18T01:00:00","14","ND","ND","1,9","162,9","ND","81,8","0","0"],
    [18664,"2016-03-18T02:00:00","16","ND","ND","1,5","214,8","ND","82,1","0","0,25"],
    [18665,"2016-03-18T03:00:00","25","ND","ND","2,5","89,3","ND","82,2","0","0"],
    [18666,"2016-03-18T04:00:00","40","ND","ND","1,4","99,9","ND","82,7","0","0"],
    [18667,"2016-03-18T05:00:00","41","ND","ND","2","103,7","ND","83","0","0"],
    [18668,"2016-03-18T06:00:00","40","ND","ND","1,3","222,2","ND","83,3","0","0"],
    [18669,"2016-03-18T07:00:00","36","ND","ND","2,2","187,9","ND","83,4","0","0"],
    [18670,"2016-03-18T08:00:00","37","ND","ND","2,1","209,6","ND","83,6","39","0"],
    [18671,"2016-03-18T09:00:00","53","ND","ND","1,8","131,3","ND","83,4","114,2","0"],
    [18672,"2016-03-18T10:00:00","46","ND","ND","2,4","74,3","ND","79","220,7","0"],
    [18673,"2016-03-18T11:00:00","50","ND","ND","3,5","96","ND","66,8","256,7","0"],
    [18674,"2016-03-18T12:00:00","35","ND","ND","3,1","89,2","ND","56,9","335,8","0"],
    [18675,"2016-03-18T13:00:00","52","ND","ND","3,4","122,6","ND","48,1","378,3","0"],
    [18676,"2016-03-18T14:00:00","52","ND","ND","3","155,9","ND","46,2","310,5","0"],
    [18677,"2016-03-18T15:00:00","45","ND","ND","3","190,3","ND","42,2","366,2","0"],
    [18678,"2016-03-18T16:00:00","52","ND","ND","3,2","103,8","ND","38,3","288,1","0"],
    [18679,"2016-03-18T17:00:00","61","ND","ND","4,2","82,6","ND","38,5","93,2","0"],
    [18680,"2016-03-18T18:00:00","72","ND","ND","3,8","81,9","ND","48,2","13,6","0"],
    [18681,"2016-03-18T19:00:00","57","ND","ND","1,5","300,7","ND","50,8","0","0"],
    [18682,"2016-03-18T20:00:00","46","ND","ND","4,7","298,7","ND","51,4","0","0"],
    [18683,"2016-03-18T21:00:00","58","ND","ND","1","15,4","ND","55,2","0","0"],
    [18684,"2016-03-18T22:00:00","46","ND","ND","3,3","93,9","ND","63,6","0","0"],
    [18685,"2016-03-18T23:00:00","59","ND","ND","2,1","47,8","ND","68,6","0","0"],
    [18686,"2016-03-19T00:00:00","47","ND","ND","2,9","59,8","ND","70,1","0","0"],
    [18687,"2016-03-19T01:00:00","39","ND","ND","0,9","79,5","ND","69,7","0","0"],
    [18688,"2016-03-19T02:00:00","41","ND","ND","1,4","185,7","ND","71","0","0"],
    [18689,"2016-03-19T03:00:00","67","ND","ND","1,3","150,1","ND","73,3","0","0"],
    [18690,"2016-03-19T04:00:00","59","ND","ND","1,9","176,6","ND","75,4","0","0"],
    [18691,"2016-03-19T05:00:00","62","ND","ND","2","144,2","ND","76,7","0","0"],
    [18692,"2016-03-19T06:00:00","89","ND","ND","1,5","133,7","ND","78,1","0","0"],
    [18693,"2016-03-19T07:00:00","69","ND","ND","1","168,4","ND","79","8,8","0"],
    [18694,"2016-03-19T08:00:00","105","ND","ND","1,6","100,1","ND","79,4","37,9","0"],
    [18695,"2016-03-19T09:00:00","71","ND","ND","3,4","113,9","ND","78,4","86","0"],
    [18696,"2016-03-19T10:00:00","67","ND","ND","2,6","114,7","ND","73,4","182,1","0"],
    [18697,"2016-03-19T11:00:00","67","ND","ND","2,6","112,1","ND","61,1","273,2","0"],
    [18698,"2016-03-19T12:00:00","107","ND","ND","3,4","99,2","ND","49,7","408,6","0"],
    [18699,"2016-03-19T13:00:00","68","ND","ND","2,6","122,9","ND","42,8","439,5","0"],
    [18700,"2016-03-19T14:00:00","175","ND","ND","4,3","93,5","ND","37,7","441,9","0"],
    [18701,"2016-03-19T15:00:00","63","ND","ND","5,1","79,7","ND","39","214,3","0"],
    [18702,"2016-03-19T16:00:00","61","ND","ND","3,5","71,7","ND","38,8","244,4","0"],
    [18703,"2016-03-19T17:00:00","52","ND","ND","2,9","318,6","ND","39,4","68,4","0"],
    [18704,"2016-03-19T18:00:00","49","ND","ND","5,9","289,1","ND","44,6","17,7","0"],
    [18705,"2016-03-19T19:00:00","36","ND","ND","6,5","289,1","ND","49,5","0","0"],
    [18706,"2016-03-19T20:00:00","56","ND","ND","2,2","0,2","ND","52,7","0","0"],
    [18707,"2016-03-19T21:00:00","45","ND","ND","2,8","118,4","ND","58,2","0","0"],
    [18708,"2016-03-19T22:00:00","35","ND","ND","3,7","107","ND","63,9","0","0"],
    [18709,"2016-03-19T23:00:00","41","ND","ND","2,9","94,5","ND","68,9","0","0"],
    [18710,"2016-03-20T00:00:00","36","ND","ND","2","72,5","ND","70,9","0","0"],
    [18711,"2016-03-20T01:00:00","33","ND","ND","1,6","139,4","ND","71","0","0"],
    [18712,"2016-03-20T02:00:00","35","ND","ND","2,6","99,7","ND","72","0","0"],
    [18713,"2016-03-20T03:00:00","37","ND","ND","1,9","144,2","ND","72,8","0","0"],
    [18714,"2016-03-20T04:00:00","36","ND","ND","1,9","191,2","ND","73,1","0","0"],
    [18715,"2016-03-20T05:00:00","37","ND","ND","2,3","155,1","ND","74,5","0","0"],
    [18716,"2016-03-20T06:00:00","41","ND","ND","2,8","182,6","ND","75,5","0","0"],
    [18717,"2016-03-20T07:00:00","39","ND","ND","3,1","203,3","ND","76,3","7,7","0"],
    [18718,"2016-03-20T08:00:00","33","ND","ND","3,3","179,6","ND","77","36,7","0"],
    [18719,"2016-03-20T09:00:00","24","ND","ND","2,7","215,9","ND","74,9","228,6","0"],
    [18720,"2016-03-20T10:00:00","28","ND","ND","1,6","142,1","ND","57","317","0"],
    [18721,"2016-03-20T11:00:00","32","ND","ND","2,2","105","ND","46,7","378,2","0"],
    [18722,"2016-03-20T12:00:00","38","ND","ND","3","196,3","ND","42,8","463,1","0"],
    [18723,"2016-03-20T13:00:00","26","ND","ND","3,1","139,4","ND","40,4","374,9","0"],
    [18724,"2016-03-20T14:00:00","37","ND","ND","2,6","102,7","ND","37,7","353,2","0"],
    [18725,"2016-03-20T15:00:00","48","ND","ND","3,6","70,1","ND","36,9","297,3","0"],
    [18726,"2016-03-20T16:00:00","38","ND","ND","4,5","317,1","ND","35,9","227,7","0"],
    [18727,"2016-03-20T17:00:00","36","ND","ND","8,1","287,7","ND","35,3","162","0"],
    [18728,"2016-03-20T18:00:00","29","ND","ND","5,9","294,1","ND","38,3","44,9","0"],
    [18729,"2016-03-20T19:00:00","27","ND","ND","5,6","281,1","ND","47,1","0","0"],
    [18730,"2016-03-20T20:00:00","26","ND","ND","4,2","310,6","ND","52,9","0","0"],
    [18731,"2016-03-20T21:00:00","22","ND","ND","1,9","335,3","ND","54,5","0","0"],
    [18732,"2016-03-20T22:00:00","41","ND","ND","3,5","69,1","ND","62","0","0"],
    [18733,"2016-03-20T23:00:00","49","ND","ND","3,6","84,7","ND","66,6","0","0"],
    [18734,"2016-03-21T00:00:00","38","ND","ND","1,6","118","ND","69","0","3,3"],
    [18735,"2016-03-21T01:00:00","8","ND","ND","4,8","237,8","ND","73","0","0"],
    [18736,"2016-03-21T02:00:00","15","ND","ND","1,7","148,8","ND","75,8","0","0,25"],
    [18737,"2016-03-21T03:00:00","33","ND","ND","1","118,9","ND","77,1","0","0"],
    [18738,"2016-03-21T04:00:00","22","ND","ND","2,4","252","ND","78","0","0"],
    [18739,"2016-03-21T05:00:00","28","ND","ND","1,4","124,3","ND","78,1","0","0,76"],
    [18740,"2016-03-21T06:00:00","22","ND","ND","1","143","ND","78,7","0","0"],
    [18741,"2016-03-21T07:00:00","26","ND","ND","1,4","161,2","ND","79,8","0","0"],
    [18742,"2016-03-21T08:00:00","31","ND","ND","1,7","101,4","ND","80,5","38,8","0"],
    [18743,"2016-03-21T09:00:00","37","ND","ND","1,7","187,6","ND","79,9","98,7","0"],
    [18744,"2016-03-21T10:00:00","29","ND","ND","1,9","175","ND","75,7","194","0"],
    [18745,"2016-03-21T11:00:00","35","ND","ND","3","133,3","ND","62,1","255,8","0"],
    [18746,"2016-03-21T12:00:00","32","ND","ND","3,7","95,8","ND","51,4","352,5","0"],
    [18747,"2016-03-21T13:00:00","40","ND","ND","3,9","98","ND","51,6","201,4","0"],
    [18748,"2016-03-21T14:00:00","36","ND","ND","4,5","76,1","ND","51","216,6","0"],
    [18749,"2016-03-21T15:00:00","32","ND","ND","2,6","48,8","ND","46,9","223,5","0"],
    [18750,"2016-03-21T16:00:00","50","ND","ND","2,3","38,7","ND","42,4","260,7","0"],
    [18751,"2016-03-21T17:00:00","47","ND","ND","4,1","63,8","ND","40,7","165,9","0"],
    [18752,"2016-03-21T18:00:00","50","ND","ND","4,1","85,6","ND","44,9","40,7","0"],
    [18753,"2016-03-21T19:00:00","65","ND","ND","2,6","136,6","ND","53,9","0","0"],
    [18754,"2016-03-21T20:00:00","46","ND","ND","3,2","268,1","ND","55,6","0","0"],
    [18755,"2016-03-21T21:00:00","34","ND","ND","2,2","296,5","ND","55,9","0","0"],
    [18756,"2016-03-21T22:00:00","47","ND","ND","4,1","97,5","ND","63,2","0","0"],
    [18757,"2016-03-21T23:00:00","57","ND","ND","3,6","82,9","ND","69,9","0","0"],
    [18758,"2016-03-22T00:00:00","42","ND","ND","2,1","51,5","ND","72,4","0","0"],
    [18759,"2016-03-22T01:00:00","25","ND","ND","2,3","57","ND","72,9","0","0"],
    [18760,"2016-03-22T02:00:00","28","ND","ND","0,9","7,4","ND","72,4","0","0"],
    [18761,"2016-03-22T03:00:00","35","ND","ND","0,9","77,1","ND","72,5","0","0"],
    [18762,"2016-03-22T04:00:00","39","ND","ND","1,6","140,4","ND","72,9","0","0"],
    [18763,"2016-03-22T05:00:00","41","ND","ND","2,2","197,8","ND","74,7","0","0"],
    [18764,"2016-03-22T06:00:00","49","ND","ND","2,8","187","ND","76,8","0","0"],
    [18765,"2016-03-22T07:00:00","59","ND","ND","0,4","186,3","ND","78,2","8","0"],
    [18766,"2016-03-22T08:00:00","79","ND","ND","2,6","82,8","ND","78,6","61,7","0"],
    [18767,"2016-03-22T09:00:00","75","ND","ND","2,8","113,5","ND","75,9","104,1","0"],
    [18768,"2016-03-22T10:00:00","46","ND","ND","2,3","232,4","ND","65,7","278,5","0"],
    [18769,"2016-03-22T11:00:00","48","ND","ND","2,5","185,4","ND","52,4","256,6","0"],
    [18770,"2016-03-22T12:00:00","49","ND","ND","3,1","141,7","ND","46,2","404,3","0"],
    [18771,"2016-03-22T13:00:00","54","ND","ND","2,5","172,3","ND","42","464,2","0"],
    [18772,"2016-03-22T14:00:00","48","ND","ND","1,8","177,8","ND","38,5","432,6","0"],
    [18773,"2016-03-22T15:00:00","46","ND","ND","3,1","130","ND","35,7","374,1","0"],
    [18774,"2016-03-22T16:00:00","53","ND","ND","3,4","85,6","ND","32,6","261,7","0"],
    [18775,"2016-03-22T17:00:00","46","ND","ND","3,6","309,4","ND","36,4","39,6","0"],
    [18776,"2016-03-22T18:00:00","52","ND","ND","6,4","287,1","ND","44,4","21,3","0"],
    [18777,"2016-03-22T19:00:00","51","ND","ND","6,4","289,9","ND","49,9","0","0"],
    [18778,"2016-03-22T20:00:00","55","ND","ND","1,6","358,1","ND","54,8","0","0"],
    [18779,"2016-03-22T21:00:00","62","ND","ND","2,7","77,1","ND","60,7","0","0"],
    [18780,"2016-03-22T22:00:00","41","ND","ND","3","100","ND","65","0","0"],
    [18781,"2016-03-22T23:00:00","46","ND","ND","0,8","149,9","ND","66,7","0","0"],
    [18782,"2016-03-23T00:00:00","37","ND","ND","3,1","199,2","ND","67,9","0","0"],
    [18783,"2016-03-23T01:00:00","35","ND","ND","1,9","142,3","ND","69,8","0","0"],
    [18784,"2016-03-23T02:00:00","29","ND","ND","1,5","115,1","ND","70,8","0","0"],
    [18785,"2016-03-23T03:00:00","38","ND","ND","0,6","190,4","ND","70,3","0","0"],
    [18786,"2016-03-23T04:00:00","51","ND","ND","2,1","161,1","ND","70","0","0"],
    [18787,"2016-03-23T05:00:00","62","ND","ND","2,8","169","ND","71,2","0","0"],
    [18788,"2016-03-23T06:00:00","50","ND","ND","2,4","191,2","ND","73,9","0","0"],
    [18789,"2016-03-23T07:00:00","60","ND","ND","1,4","142,6","ND","75,8","4,5","0"],
    [18790,"2016-03-23T08:00:00","58","ND","ND","2,4","149,9","ND","77,2","37,8","0"],
    [18791,"2016-03-23T09:00:00","45","ND","ND","3,6","180,2","ND","76,2","116,4","0"],
    [18792,"2016-03-23T10:00:00","49","ND","ND","4,7","205,7","ND","68,2","274,7","0"],
    [18793,"2016-03-23T11:00:00","43","ND","ND","4,3","172,4","ND","54,7","308","0"],
    [18794,"2016-03-23T12:00:00","45","ND","ND","2,9","171,2","ND","48,6","404,3","0"],
    [18795,"2016-03-23T13:00:00","34","ND","ND","2,2","140,2","ND","40,3","454,2","0"],
    [18796,"2016-03-23T14:00:00","41","ND","ND","1,3","125,6","ND","36,5","343,2","0"],
    [18797,"2016-03-23T15:00:00","47","ND","ND","4,7","98,5","ND","38,8","206,9","0"],
    [18798,"2016-03-23T16:00:00","53","ND","ND","4,2","77,7","ND","39,7","145,3","0"],
    [18799,"2016-03-23T17:00:00","52","11","28,98","2,2","45,7","ND","40","44,7","0"],
    [18800,"2016-03-23T18:00:00","58","10","31,75","3,4","328","ND","41,5","14,4","0"],
    [18801,"2016-03-23T19:00:00","46","8","18,96","4,8","294,8","ND","41,6","0","0"],
    [18802,"2016-03-23T20:00:00","47","5","15,09","5,1","288,8","ND","43,4","0","0"],
    [18803,"2016-03-23T21:00:00","47","8","8,42","0,7","1,4","ND","47,1","0","0"],
    [18804,"2016-03-23T22:00:00","57","18","4,16","3","97,9","ND","56,6","0","0"],
    [18805,"2016-03-23T23:00:00","50","13","3,39","2,1","67,8","ND","60,4","0","0"],
    [18806,"2016-03-24T00:00:00","40","9","4,65","1,7","47,5","ND","62","0","0"],
    [18807,"2016-03-24T01:00:00","50","18","2,87","1,5","201,6","ND","64,7","0","0"],
    [18808,"2016-03-24T02:00:00","54","21","2,65","2,1","206","ND","66,9","0","0"],
    [18809,"2016-03-24T03:00:00","49","12","2,57","2,4","122,9","ND","68,6","0","0"],
    [18810,"2016-03-24T04:00:00","54","17","2,92","2","130,9","ND","70,3","0","0"],
    [18811,"2016-03-24T05:00:00","41","16","2,28","1,6","126,9","ND","71,3","0","0"],
    [18812,"2016-03-24T06:00:00","43","17","2,3","2,5","136,4","ND","72,3","0","0"],
    [18813,"2016-03-24T07:00:00","43","11","2,41","2,1","165,3","ND","72,8","4,9","0"],
    [18814,"2016-03-24T08:00:00","44","14","2,65","3,1","89,7","ND","72,7","66,6","0"],
    [18815,"2016-03-24T09:00:00","54","19","6,5","2,1","88,3","ND","65,3","201,4","0"],
    [18816,"2016-03-24T10:00:00","74","21","17,35","2,2","89","ND","49","287,4","0"],
    [18817,"2016-03-24T11:00:00","58","23","35,68","2,3","112,9","ND","42,4","419","0"],
    [18818,"2016-03-24T12:00:00","42","20","49,29","2,6","125,4","ND","37,1","467,3","0"],
    [18819,"2016-03-24T13:00:00","43","12","55,55","2,9","92,3","ND","33,8","452","0"],
    [18820,"2016-03-24T14:00:00","56","25","65,21","4,3","97,8","ND","32,6","317,5","0"],
    [18821,"2016-03-24T15:00:00","56","24","71,74","4,5","92,4","ND","31,7","321,9","0"],
    [18822,"2016-03-24T16:00:00","46","18","67,27","2,3","29,6","ND","29,8","200","0"],
    [18823,"2016-03-24T17:00:00","39","5","42,8","5,9","287,2","ND","29,9","158,4","0"],
    [18824,"2016-03-24T18:00:00","43","8","29,89","7,5","285","ND","34,2","42","0"],
    [18825,"2016-03-24T19:00:00","30","11","19,58","5,9","295,6","ND","39,9","0","0"],
    [18826,"2016-03-24T20:00:00","46","14","10,66","1,7","354,6","ND","44,4","0","0"],
    [18827,"2016-03-24T21:00:00","55","14","5,12","3,1","86,2","ND","52,6","0","0"],
    [18828,"2016-03-24T22:00:00","49","11","5,18","2,1","119,4","ND","58,2","0","0"],
    [18829,"2016-03-24T23:00:00","45","16","4","2,1","195,8","ND","59,8","0","0"],
    [18830,"2016-03-25T00:00:00","31","2","4,34","2,8","89,4","ND","61,5","0","0"],
    [18831,"2016-03-25T01:00:00","25","1","6,3","1,5","66","ND","64,5","0","0"],
    [18832,"2016-03-25T02:00:00","27","ND","7,38","1,2","81,6","ND","65,9","0","0"],
    [18833,"2016-03-25T03:00:00","30","1","6,89","2","104,7","ND","67","0","0"],
    [18834,"2016-03-25T04:00:00","27","ND","5,75","1,4","181,4","ND","68,6","0","0"],
    [18835,"2016-03-25T05:00:00","47","17","3,04","3,5","195,2","ND","68,3","0","0"],
    [18836,"2016-03-25T06:00:00","42","11","2,04","2,2","170,3","ND","68,9","0","0"],
    [18837,"2016-03-25T07:00:00","46","13","2,39","2,4","109,6","ND","71","5,2","0"],
    [18838,"2016-03-25T08:00:00","36","16","3,59","1,8","116,8","ND","71,1","47,7","0"],
    [18839,"2016-03-25T09:00:00","41","16","9,93","2,2","123,3","ND","63,8","201,3","0"],
    [18840,"2016-03-25T10:00:00","38","15","23,71","1,9","116,4","ND","47,5","339,5","0"],
    [18841,"2016-03-25T11:00:00","31","12","35,6","2,2","85,6","ND","41,2","414,5","0"],
    [18842,"2016-03-25T12:00:00","21","8","41,17","2,8","128,2","ND","37,4","461,6","0"],
    [18843,"2016-03-25T13:00:00","28","8","48,82","2,6","115,4","ND","33,1","463,7","0"],
    [18844,"2016-03-25T14:00:00","37","12","56,63","2,6","129,7","ND","30,3","431","0"],
    [18845,"2016-03-25T15:00:00","51","13","47,57","3,6","142,8","ND","27,8","366,6","0"],
    [18846,"2016-03-25T16:00:00","48","13","ND","3,1","153,2","ND","26,9","279,9","0"],
    [18847,"2016-03-25T17:00:00","39","ND","ND","1,2","159,9","ND","29,7","117,6","0"],
    [18848,"2016-03-25T18:00:00","37","ND","ND","7,2","287,1","ND","37,4","41,2","0"],
    [18849,"2016-03-25T19:00:00","42","ND","ND","6,3","293,7","ND","43,9","0","0"],
    [18850,"2016-03-25T20:00:00","53","ND","ND","1,6","331,5","ND","49,1","0","0"],
    [18851,"2016-03-25T21:00:00","62","ND","ND","4,2","77,5","ND","56,9","0","0"],
    [18852,"2016-03-25T22:00:00","36","ND","ND","1,4","53,9","ND","62,1","0","0"],
    [18853,"2016-03-25T23:00:00","58","ND","ND","3,7","207,4","ND","62,6","0","0"],
    [18854,"2016-03-26T00:00:00","41","ND","ND","2,4","129,8","ND","65","0","0"],
    [18855,"2016-03-26T01:00:00","31","ND","ND","2,3","91,6","ND","68,2","0","0"],
    [18856,"2016-03-26T02:00:00","41","ND","ND","1","79,9","ND","69,5","0","0"],
    [18857,"2016-03-26T03:00:00","30","ND","ND","1,8","108,6","ND","70,2","0","0"],
    [18858,"2016-03-26T04:00:00","33","ND","ND","2","121,1","ND","69,8","0","0"],
    [18859,"2016-03-26T05:00:00","51","ND","ND","2,5","161,9","ND","70,8","0","0"],
    [18860,"2016-03-26T06:00:00","46","ND","ND","1,8","154,1","ND","71,9","0","0"],
    [18861,"2016-03-26T07:00:00","47","ND","ND","2,3","172","ND","74,9","14,1","0"],
    [18862,"2016-03-26T08:00:00","71","ND","ND","2,4","195,7","ND","75","104,1","0"],
    [18863,"2016-03-26T09:00:00","48","ND","ND","5","149,1","ND","59,8","218,3","0"],
    [18864,"2016-03-26T10:00:00","47","ND","ND","4,4","169,1","ND","52,1","295,8","0"],
    [18865,"2016-03-26T11:00:00","40","ND","ND","1","268,6","ND","44,8","397,1","0"],
    [18866,"2016-03-26T12:00:00","57","ND","ND","4,4","71,5","ND","39,6","447,4","0"],
    [18867,"2016-03-26T13:00:00","50","ND","ND","4,3","94,9","ND","36,6","408,3","0"],
    [18868,"2016-03-26T14:00:00","66","ND","ND","5","97","ND","35,3","342,3","0"],
    [18869,"2016-03-26T15:00:00","56","ND","ND","3,5","84,1","ND","32,7","352,7","0"],
    [18870,"2016-03-26T16:00:00","51","ND","ND","1,9","64,7","ND","31,4","152,6","0"],
    [18871,"2016-03-26T17:00:00","52","ND","ND","3,4","296,5","ND","33,2","163,2","0"],
    [18872,"2016-03-26T18:00:00","41","ND","ND","7,4","292","ND","38,3","42,7","0"],
    [18873,"2016-03-26T19:00:00","42","ND","ND","6,6","292,2","ND","46,4","0","0"],
    [18874,"2016-03-26T20:00:00","47","ND","ND","2,4","9,6","ND","51,7","0","0"],
    [18875,"2016-03-26T21:00:00","58","ND","ND","2,7","80,3","ND","57,1","0","0"],
    [18876,"2016-03-26T22:00:00","50","ND","ND","3,2","120,2","ND","62","0","0"],
    [18877,"2016-03-26T23:00:00","44","ND","ND","4,6","108,8","ND","64,6","0","0"],
    [18878,"2016-03-27T00:00:00","30","ND","ND","3,2","127,2","ND","65,6","0","0"],
    [18879,"2016-03-27T01:00:00","35","ND","ND","2,3","154,1","ND","65,7","0","0"],
    [18880,"2016-03-27T02:00:00","30","ND","ND","1,2","135,3","ND","66,2","0","0"],
    [18881,"2016-03-27T03:00:00","34","ND","ND","2,5","126,4","ND","66,1","0","3,81"],
    [18882,"2016-03-27T04:00:00","33","ND","ND","3,4","228,5","ND","70,3","0","4,83"],
    [18883,"2016-03-27T05:00:00","34","ND","ND","2,6","215,6","ND","74","0","0"],
    [18884,"2016-03-27T06:00:00","36","ND","ND","1,5","153,6","ND","75","0","0"],
    [18885,"2016-03-27T07:00:00","54","ND","ND","2,1","164","ND","76,4","14,2","0"],
    [18886,"2016-03-27T08:00:00","52","ND","ND","1,5","135,7","ND","77","83,9","0"],
    [18887,"2016-03-27T09:00:00","40","ND","ND","1,9","114,3","ND","67,5","221,8","0"],
    [18888,"2016-03-27T10:00:00","48","ND","ND","3,4","90,2","ND","52,1","311,6","0"],
    [18889,"2016-03-27T11:00:00","33","ND","ND","1,8","97","ND","45","361,6","0"],
    [18890,"2016-03-27T12:00:00","57","ND","ND","3","152,9","ND","40,2","444,8","0"],
    [18891,"2016-03-27T13:00:00","57","ND","ND","3,9","105,5","ND","36","460,8","0"],
    [18892,"2016-03-27T14:00:00","49","ND","ND","2,4","97,1","ND","33","372,3","0"],
    [18893,"2016-03-27T15:00:00","43","ND","ND","7","304,2","ND","36,4","237","0"],
    [18894,"2016-03-27T16:00:00","35","ND","ND","9,4","293,3","ND","36,4","195,6","0"],
    [18895,"2016-03-27T17:00:00","33","ND","ND","7,6","305,5","ND","41,2","67,4","0"],
    [18896,"2016-03-27T18:00:00","35","ND","ND","3,6","322,8","ND","44,7","25,8","0"],
    [18897,"2016-03-27T19:00:00","39","ND","ND","1,9","2,7","ND","49,9","0","0"],
    [18898,"2016-03-27T20:00:00","35","ND","ND","2","52,7","ND","53,7","0","0"],
    [18899,"2016-03-27T21:00:00","ND","ND","ND","2,3","70","ND","56,3","0","0"],
    [18900,"2016-03-27T22:00:00","ND","ND","ND","3","83,7","ND","60,3","0","0"],
    [18901,"2016-03-27T23:00:00","ND","ND","ND","1,9","76,6","ND","62,9","0","0"],
    [18902,"2016-03-28T00:00:00","34","ND","ND","2,9","96,6","ND","65,3","0","0"],
    [18903,"2016-03-28T01:00:00","37","ND","ND","1,3","51,1","ND","67,7","0","0"],
    [18904,"2016-03-28T02:00:00","46","ND","ND","2,6","73,8","ND","69,8","0","0"],
    [18905,"2016-03-28T03:00:00","34","ND","ND","2,7","355,7","ND","70,5","0","0"],
    [18906,"2016-03-28T04:00:00","39","ND","ND","2","7,9","ND","70,5","0","0"],
    [18907,"2016-03-28T05:00:00","52","ND","ND","0,8","27,8","ND","71","0","0"],
    [18908,"2016-03-28T06:00:00","61","ND","ND","1,1","97,2","ND","72,8","0","0"],
    [18909,"2016-03-28T07:00:00","74","ND","ND","2,6","119,8","ND","74,9","6,5","0"],
    [18910,"2016-03-28T08:00:00","99","ND","ND","2,6","90,1","ND","75,7","49,4","0"],
    [18911,"2016-03-28T09:00:00","59","ND","ND","1,7","215","ND","70","190,1","0"],
    [18912,"2016-03-28T10:00:00","43","ND","ND","1,8","198,6","ND","56,6","293,6","0"],
    [18913,"2016-03-28T11:00:00","39","ND","ND","2","130,2","ND","44,5","411,3","0"],
    [18914,"2016-03-28T12:00:00","53","ND","ND","3,9","75,1","ND","41,3","382","0"],
    [18915,"2016-03-28T13:00:00","55","ND","ND","2,8","74,2","ND","38,8","404,3","0"],
    [18916,"2016-03-28T14:00:00","56","ND","ND","4,1","80,8","ND","35,8","340,7","0"],
    [18917,"2016-03-28T15:00:00","66","ND","ND","4,8","62,4","ND","36,2","159,8","0"],
    [18918,"2016-03-28T16:00:00","63","ND","ND","5,4","6,2","ND","39,6","113,4","0"],
    [18919,"2016-03-28T17:00:00","51","ND","ND","5,9","324,4","ND","40,7","57,7","0"],
    [18920,"2016-03-28T18:00:00","47","ND","ND","5,7","311,3","ND","44","13,8","0"],
    [18921,"2016-03-28T19:00:00","69","ND","ND","0,7","52,2","ND","47,7","0,1","0"],
    [18922,"2016-03-28T20:00:00","51","ND","ND","3,5","161,5","ND","55,2","0","0"],
    [18923,"2016-03-28T21:00:00","52","ND","ND","3,1","189,3","ND","62","0","0"],
    [18924,"2016-03-28T22:00:00","57","ND","ND","2,3","161,2","ND","66,9","0","0"],
    [18925,"2016-03-28T23:00:00","52","ND","ND","1,4","135,8","ND","68,7","0","0"],
    [18926,"2016-03-29T00:00:00","53","ND","ND","2,2","57,6","ND","71,3","0","0"],
    [18927,"2016-03-29T01:00:00","45","ND","ND","2,1","121,9","ND","72,5","0","0"],
    [18928,"2016-03-29T02:00:00","67","ND","ND","1,8","124,7","ND","73,6","0","0"],
    [18929,"2016-03-29T03:00:00","54","ND","ND","1,4","123,9","ND","74,5","0","0"],
    [18930,"2016-03-29T04:00:00","44","ND","ND","0,4","168","ND","75,8","0","0"],
    [18931,"2016-03-29T05:00:00","60","ND","ND","1,6","109","ND","77,3","0","0"],
    [18932,"2016-03-29T06:00:00","69","ND","ND","1,8","123,3","ND","78,6","0","0"],
    [18933,"2016-03-29T07:00:00","87","ND","ND","2,4","198","ND","79,9","9,1","0"],
    [18934,"2016-03-29T08:00:00","94","ND","ND","1,6","154,5","ND","80,4","97,4","0"],
    [18935,"2016-03-29T09:00:00","68","ND","ND","1,3","171","ND","70,4","207,9","0"],
    [18936,"2016-03-29T10:00:00","68","ND","ND","3,1","113,4","ND","54,9","263,4","0"],
    [18937,"2016-03-29T11:00:00","ND","ND","ND","ND","ND","ND","ND","ND","ND"],
    [18938,"2016-03-29T12:00:00","ND","ND","ND","ND","ND","ND","ND","ND","ND"],
    [18939,"2016-03-29T13:00:00","ND","ND","ND","ND","ND","ND","ND","ND","ND"],
    [18940,"2016-03-29T14:00:00","ND","ND","ND","ND","ND","ND","ND","ND","ND"],
    [18941,"2016-03-29T15:00:00","ND","ND","ND","ND","ND","ND","ND","ND","ND"],
    [18942,"2016-03-29T16:00:00","ND","ND","ND","ND","ND","ND","ND","ND","ND"],
    [18943,"2016-03-29T17:00:00","ND","ND","ND","ND","ND","ND","ND","ND","ND"],
    [18944,"2016-03-29T18:00:00","ND","ND","ND","ND","ND","ND","ND","ND","ND"],
    [18945,"2016-03-29T19:00:00","ND","ND","ND","ND","ND","ND","ND","ND","ND"],
    [18946,"2016-03-29T20:00:00","ND","ND","ND","ND","ND","ND","ND","ND","ND"],
    [18947,"2016-03-29T21:00:00","ND","ND","ND","ND","ND","ND","ND","ND","ND"],
    [18948,"2016-03-29T22:00:00","ND","ND","ND","ND","ND","ND","ND","ND","ND"],
    [18949,"2016-03-29T23:00:00","ND","ND","ND","ND","ND","ND","ND","ND","ND"],
    [18950,"2016-03-30T00:00:00","ND","ND","ND","ND","ND","ND","ND","ND","ND"],
    [18951,"2016-03-30T01:00:00","ND","ND","ND","ND","ND","ND","ND","ND","ND"],
    [18952,"2016-03-30T02:00:00","ND","ND","ND","ND","ND","ND","ND","ND","ND"],
    [18953,"2016-03-30T03:00:00","ND","ND","ND","ND","ND","ND","ND","ND","ND"],
    [18954,"2016-03-30T04:00:00","ND","ND","ND","ND","ND","ND","ND","ND","ND"],
    [18955,"2016-03-30T05:00:00","ND","ND","ND","ND","ND","ND","ND","ND","ND"],
    [18956,"2016-03-30T06:00:00","ND","ND","ND","ND","ND","ND","ND","ND","ND"],
    [18957,"2016-03-30T07:00:00","ND","ND","ND","ND","ND","ND","ND","ND","ND"],
    [18958,"2016-03-30T08:00:00","ND","ND","ND","ND","ND","ND","ND","ND","ND"],
    [18959,"2016-03-30T09:00:00","ND","ND","ND","ND","ND","ND","ND","ND","ND"],
    [18960,"2016-03-30T10:00:00","ND","ND","ND","ND","ND","ND","ND","ND","ND"],
    [18961,"2016-03-30T11:00:00","ND","ND","ND","ND","ND","ND","ND","ND","ND"],
    [18962,"2016-03-30T12:00:00","ND","ND","ND","ND","ND","ND","ND","ND","ND"],
    [18963,"2016-03-30T13:00:00","ND","ND","ND","1,5","123","ND","81,9","128,3","0"],
    [18964,"2016-03-30T14:00:00","49","ND","ND","3,7","80,5","ND","70,4","243,2","0"],
    [18965,"2016-03-30T15:00:00","57","ND","ND","2,9","60,5","ND","58","167,6","0"],
    [18966,"2016-03-30T16:00:00","83","ND","ND","3,5","91,2","ND","51,7","197,2","0"],
    [18967,"2016-03-30T17:00:00","59","ND","ND","2,8","82,5","ND","50,7","81,9","0"],
    [18968,"2016-03-30T18:00:00","45","ND","ND","1","38,7","ND","54","9,1","0"],
    [18969,"2016-03-30T19:00:00","40","ND","ND","4,8","257,7","ND","59,1","0","0"],
    [18970,"2016-03-30T20:00:00","58","ND","ND","0,8","26,6","ND","62,5","0","0"],
    [18971,"2016-03-30T21:00:00","54","ND","ND","0,4","180,8","ND","67","0","0"],
    [18972,"2016-03-30T22:00:00","35","ND","ND","3,8","246,7","ND","67,6","0","0"],
    [18973,"2016-03-30T23:00:00","44","ND","ND","2,8","133,8","ND","70","0","0"],
    [18974,"2016-03-31T00:00:00","28","ND","ND","3,9","164,5","ND","74,3","0","0"],
    [18975,"2016-03-31T01:00:00","30","ND","ND","4,5","190,1","ND","76,9","0","0"],
    [18976,"2016-03-31T02:00:00","25","ND","ND","3,4","187,7","ND","78,8","0","0"],
    [18977,"2016-03-31T03:00:00","25","ND","ND","2,4","165,5","ND","80,1","0","0,25"],
    [18978,"2016-03-31T04:00:00","25","ND","ND","2,6","119,8","ND","81","0","0,25"],
    [18979,"2016-03-31T05:00:00","25","ND","ND","1,8","124,1","ND","81,9","0","0,76"],
    [18980,"2016-03-31T06:00:00","13","ND","ND","1,6","214,7","ND","82,4","0","0,25"],
    [18981,"2016-03-31T07:00:00","52","ND","ND","2,3","82,4","ND","82,9","0","0"],
    [18982,"2016-03-31T08:00:00","33","ND","ND","0,2","71,5","ND","83,5","35,3","0"],
    [18983,"2016-03-31T09:00:00","56","ND","ND","1,9","77,9","ND","82,9","102,5","0"],
    [18984,"2016-03-31T10:00:00","47","ND","ND","2,5","72,2","ND","78,6","242,9","0"],
    [18985,"2016-03-31T11:00:00","ND","ND","ND","ND","ND","ND","ND","ND","ND"],
    [18986,"2016-03-31T12:00:00","ND","ND","ND","ND","ND","ND","ND","ND","ND"],
    [18987,"2016-03-31T13:00:00","ND","ND","ND","ND","ND","ND","ND","ND","ND"],
    [18988,"2016-03-31T14:00:00","ND","ND","ND","ND","ND","ND","ND","ND","ND"],
    [18989,"2016-03-31T15:00:00","ND","ND","ND","ND","ND","ND","ND","ND","ND"],
    [18990,"2016-03-31T16:00:00","ND","ND","ND","ND","ND","ND","ND","ND","ND"],
    [18991,"2016-03-31T17:00:00","ND","ND","ND","ND","ND","ND","ND","ND","ND"],
    [18992,"2016-03-31T18:00:00","ND","ND","ND","ND","ND","ND","ND","ND","ND"],
    [18993,"2016-03-31T19:00:00","ND","ND","ND","ND","ND","ND","ND","ND","ND"],
    [18994,"2016-03-31T20:00:00","ND","ND","ND","ND","ND","ND","ND","ND","ND"],
    [18995,"2016-03-31T21:00:00","ND","ND","ND","ND","ND","ND","ND","ND","ND"],
    [18996,"2016-03-31T22:00:00","ND","ND","ND","ND","ND","ND","ND","ND","ND"],
    [18997,"2016-03-31T23:00:00","ND","ND","ND","ND","ND","ND","ND","ND","ND"],
    [18998,"2016-04-01T00:00:00","ND","ND","ND","ND","ND","ND","ND","ND","ND"],
    [18999,"2016-04-01T01:00:00","ND","ND","ND","ND","ND","ND","ND","ND","ND"],
    [19000,"2016-04-01T02:00:00","ND","ND","ND","ND","ND","ND","ND","ND","ND"],
    [19001,"2016-04-01T03:00:00","ND","ND","ND","ND","ND","ND","ND","ND","ND"],
    [19002,"2016-04-01T04:00:00","ND","ND","ND","ND","ND","ND","ND","ND","ND"],
    [19003,"2016-04-01T05:00:00","ND","ND","ND","ND","ND","ND","ND","ND","ND"],
    [19004,"2016-04-01T06:00:00","ND","ND","ND","ND","ND","ND","ND","ND","ND"],
    [19005,"2016-04-01T07:00:00","ND","ND","ND","ND","ND","ND","ND","ND","ND"],
    [19006,"2016-04-01T08:00:00","ND","ND","ND","ND","ND","ND","ND","ND","ND"],
    [19007,"2016-04-01T09:00:00","ND","ND","ND","ND","ND","ND","ND","ND","ND"],
    [19008,"2016-04-01T10:00:00","ND","ND","ND","ND","ND","ND","ND","ND","ND"],
    [19009,"2016-04-01T11:00:00","ND","ND","ND","ND","ND","ND","ND","ND","ND"],
    [19010,"2016-04-01T12:00:00","ND","ND","ND","ND","ND","ND","ND","ND","ND"],
    [19011,"2016-04-01T13:00:00","ND","ND","ND","ND","ND","ND","ND","ND","ND"],
    [19012,"2016-04-01T14:00:00","ND","ND","ND","ND","ND","ND","ND","ND","ND"],
    [19013,"2016-04-01T15:00:00","ND","ND","ND","ND","ND","ND","ND","ND","ND"],
    [19014,"2016-04-01T16:00:00","ND","ND","ND","ND","ND","ND","ND","ND","ND"],
    [19015,"2016-04-01T17:00:00","ND","ND","ND","ND","ND","ND","ND","ND","ND"],
    [19016,"2016-04-01T18:00:00","ND","ND","ND","ND","ND","ND","ND","ND","ND"],
    [19017,"2016-04-01T19:00:00","ND","ND","ND","ND","ND","ND","ND","ND","ND"],
    [19018,"2016-04-01T20:00:00","ND","ND","ND","ND","ND","ND","ND","ND","ND"],
    [19019,"2016-04-01T21:00:00","ND","ND","ND","ND","ND","ND","ND","ND","ND"],
    [19020,"2016-04-01T22:00:00","ND","ND","ND","ND","ND","ND","ND","ND","ND"],
    [19021,"2016-04-01T23:00:00","ND","ND","ND","ND","ND","ND","ND","ND","ND"],
    [19022,"2016-04-02T00:00:00","ND","ND","ND","ND","ND","ND","ND","ND","ND"],
    [19023,"2016-04-02T01:00:00","ND","ND","ND","ND","ND","ND","ND","ND","ND"],
    [19024,"2016-04-02T02:00:00","ND","ND","ND","ND","ND","ND","ND","ND","ND"],
    [19025,"2016-04-02T03:00:00","ND","ND","ND","ND","ND","ND","ND","ND","ND"],
    [19026,"2016-04-02T04:00:00","ND","ND","ND","ND","ND","ND","ND","ND","ND"],
    [19027,"2016-04-02T05:00:00","ND","ND","ND","ND","ND","ND","ND","ND","ND"],
    [19028,"2016-04-02T06:00:00","ND","ND","ND","ND","ND","ND","ND","ND","ND"],
    [19029,"2016-04-02T07:00:00","ND","ND","ND","ND","ND","ND","ND","ND","ND"],
    [19030,"2016-04-02T08:00:00","ND","ND","ND","ND","ND","ND","ND","ND","ND"],
    [19031,"2016-04-02T09:00:00","ND","ND","ND","ND","ND","ND","ND","ND","ND"],
    [19032,"2016-04-02T10:00:00","ND","ND","ND","ND","ND","ND","ND","ND","ND"],
    [19033,"2016-04-02T11:00:00","ND","ND","8,16","3,7","173,6","ND","82,6","141,7","0"],
    [19034,"2016-04-02T12:00:00","11","ND","19,96","2,9","212,8","ND","74","209,6","0"],
    [19035,"2016-04-02T13:00:00","16","ND","26,79","2,4","247,4","ND","62,7","101","0"],
    [19036,"2016-04-02T14:00:00","27","4","19,21","1,9","12,1","ND","64,8","49,4","6,1"],
    [19037,"2016-04-02T15:00:00","28","12","13,23","4,2","62,8","ND","70,3","40","2,29"],
    [19038,"2016-04-02T16:00:00","24","9","12,38","6","76,2","ND","72,8","26,9","10,16"],
    [19039,"2016-04-02T17:00:00","16","6","9,03","3,6","84,5","ND","76,6","16,6","2,29"],
    [19040,"2016-04-02T18:00:00","22","3","9,75","0,9","167,2","ND","77,8","7,1","1,02"],
    [19041,"2016-04-02T19:00:00","27","6","8,97","2,3","231,6","ND","78","0","0"],
    [19042,"2016-04-02T20:00:00","38","20","5,44","1,8","184","ND","78,3","0","0"],
    [19043,"2016-04-02T21:00:00","31","16","2,47","2,3","213,3","ND","78,7","0","0"],
    [19044,"2016-04-02T22:00:00","39","11","3,38","1,9","176,7","ND","78,8","0","0,25"],
    [19045,"2016-04-02T23:00:00","54","17","3,02","2,1","96,1","ND","79,3","0","0"],
    [19046,"2016-04-03T00:00:00","55","14","2,43","1,5","57,7","ND","79,9","0","0"],
    [19047,"2016-04-03T01:00:00","60","27","3,41","2,2","355","ND","80,6","0","0"],
    [19048,"2016-04-03T02:00:00","81","44","2,39","1,6","329,6","ND","81","0","0"],
    [19049,"2016-04-03T03:00:00","76","38","2,2","1,5","84,1","ND","81,2","0","0"],
    [19050,"2016-04-03T04:00:00","60","30","2,51","1,1","117,6","ND","81,4","0","0"],
    [19051,"2016-04-03T05:00:00","66","32","2,02","2,1","178,9","ND","81,6","0","0"],
    [19052,"2016-04-03T06:00:00","64","20","2,14","1,8","126,1","ND","81,5","0","0"],
    [19053,"2016-04-03T07:00:00","67","29","2,73","1,3","131,8","ND","81,8","0","0"],
    [19054,"2016-04-03T08:00:00","83","41","4,63","0,7","228,1","ND","81,8","34","0"],
    [19055,"2016-04-03T09:00:00","102","53","8,3","1,8","99,4","ND","80,3","115,8","0"],
    [19056,"2016-04-03T10:00:00","78","45","17,45","2,2","110,6","ND","73,8","235,7","0"],
    [19057,"2016-04-03T11:00:00","50","20","30,34","1,6","75","ND","61,4","198,5","0"],
    [19058,"2016-04-03T12:00:00","48","20","43,29","1,4","108,9","ND","51,2","330,1","0"],
    [19059,"2016-04-03T13:00:00","48","15","53,2","0,9","88","ND","44,4","424,6","0"],
    [19060,"2016-04-03T14:00:00","53","25","53,67","2,5","112,2","ND","39,6","435,7","0"],
    [19061,"2016-04-03T15:00:00","54","21","53,79","3,1","97,5","ND","37,8","348,6","0"],
    [19062,"2016-04-03T16:00:00","45","15","53,89","3,1","59,9","ND","37,2","246,8","0"],
    [19063,"2016-04-03T17:00:00","51","22","55,73","4,2","72,5","ND","38,2","139,8","0"],
    [19064,"2016-04-03T18:00:00","71","27","28,73","3,3","84,3","ND","43,6","14","0"],
    [19065,"2016-04-03T19:00:00","41","8","26,32","2,4","308,2","ND","47,5","0","0"],
    [19066,"2016-04-03T20:00:00","38","9","14,29","3,3","298,8","ND","49,3","0","0"],
    [19067,"2016-04-03T21:00:00","52","7","14,03","3,4","179,6","ND","54,1","0","0"],
    [19068,"2016-04-03T22:00:00","45","7","13,34","2,3","172,4","ND","58,4","0","0"],
    [19069,"2016-04-03T23:00:00","53","12","8,05","3,2","97,1","ND","61,9","0","0"],
    [19070,"2016-04-04T00:00:00","49","15","8,89","0,7","145,8","ND","64,3","0","0"],
    [19071,"2016-04-04T01:00:00","46","14","8,38","0,4","133,8","ND","65,3","0","0"],
    [19072,"2016-04-04T02:00:00","38","13","5,2","1,4","254,4","ND","66,9","0","0"],
    [19073,"2016-04-04T03:00:00","61","10","3,04","1,6","102,7","ND","68,7","0","0"],
    [19074,"2016-04-04T04:00:00","40","16","2,79","2,6","132,7","ND","71,5","0","1,02"],
    [19075,"2016-04-04T05:00:00","57","3","3,14","2,3","176,8","ND","74,3","0","0"],
    [19076,"2016-04-04T06:00:00","50","6","2,39","3","195,8","ND","75,3","0","0"],
    [19077,"2016-04-04T07:00:00","45","15","4,87","2,2","202,4","ND","76","0","0"],
    [19078,"2016-04-04T08:00:00","39","9","3,16","1,6","178,2","ND","75,6","14,9","0,76"],
    [19079,"2016-04-04T09:00:00","34","11","4,71","1,3","155,1","ND","76","74,5","0"],
    [19080,"2016-04-04T10:00:00","56","20","11,75","1,7","103,6","ND","72,2","168,6","0"],
    [19081,"2016-04-04T11:00:00","48","11","23,82","2,8","85,4","ND","61","188,8","0"],
    [19082,"2016-04-04T12:00:00","46","12","31,01","3,8","84,6","ND","52,9","243,6","0"],
    [19083,"2016-04-04T13:00:00","35","9","44,76","3,2","25,1","ND","49","257,4","0"],
    [19084,"2016-04-04T14:00:00","49","12","51,1","3,7","26,3","ND","44,9","347,5","0"],
    [19085,"2016-04-04T15:00:00","42","8","50,18","4,9","48,2","ND","39","360,9","0"],
    [19086,"2016-04-04T16:00:00","43","11","47,2","4,8","41,8","ND","35,7","258","0"],
    [19087,"2016-04-04T17:00:00","49","15","48,12","4,3","22,6","ND","37,4","47,9","0"],
    [19088,"2016-04-04T18:00:00","53","14","34,42","4,6","20,2","ND","46,8","11","0"],
    [19089,"2016-04-04T19:00:00","57","16","20,09","3,7","43,2","ND","51,5","0","0"],
    [19090,"2016-04-04T20:00:00","73","25","10,05","3,1","59,8","ND","57,1","0","0"],
    [19091,"2016-04-04T21:00:00","71","25","11,99","2,8","146,1","ND","58,9","0","0"],
    [19092,"2016-04-04T22:00:00","52","21","22,23","2,5","208,3","ND","61","0","0"],
    [19093,"2016-04-04T23:00:00","54","21","16,88","1,8","217,6","ND","64,4","0","0"],
    [19094,"2016-04-05T00:00:00","57","22","9,28","1,1","88,4","ND","66,7","0","0"],
    [19095,"2016-04-05T01:00:00","74","27","11,03","3,5","79,6","ND","67,3","0","0"],
    [19096,"2016-04-05T02:00:00","62","22","13,56","2,3","68,8","ND","70,2","0","0"],
    [19097,"2016-04-05T03:00:00","48","14","17,62","1,5","66,4","ND","71,3","0","0"],
    [19098,"2016-04-05T04:00:00","40","17","16,5","1,3","16,5","ND","71,9","0","0"],
    [19099,"2016-04-05T05:00:00","69","19","5,49","2,3","51,1","ND","72,4","0","0"],
    [19100,"2016-04-05T06:00:00","80","27","3,75","2,1","2,8","ND","73,3","0","0"],
    [19101,"2016-04-05T07:00:00","65","27","4,96","1,5","335,6","ND","73,1","11,3","0"],
    [19102,"2016-04-05T08:00:00","66","22","12,93","1,4","336,9","ND","71,6","54,5","0"],
    [19103,"2016-04-05T09:00:00","86","29","16,07","1,6","195,6","ND","67","107,5","0"],
    [19104,"2016-04-05T10:00:00","76","36","38,8","1,4","212,5","ND","59,9","232,6","0"],
    [19105,"2016-04-05T11:00:00","54","22","55,42","1,9","92,9","ND","48,6","397,2","0"],
    [19106,"2016-04-05T12:00:00","45","19","67,13","2,3","48","ND","43,5","383,3","0"],
    [19107,"2016-04-05T13:00:00","54","26","76,41","2,7","85,7","ND","38,5","416,2","0"],
    [19108,"2016-04-05T14:00:00","68","28","77,71","4,5","92","ND","37,4","383,4","0"],
    [19109,"2016-04-05T15:00:00","ND","ND","90,13","4","83,1","ND","35,7","257,5","0"],
    [19110,"2016-04-05T16:00:00","57","17","ND","5,1","333,2","ND","37,5","83,4","0"],
    [19111,"2016-04-05T17:00:00","47","10","ND","6,2","287,6","ND","44,8","27,4","0"],
    [19112,"2016-04-05T18:00:00","45","11","21,12","5,2","291,9","ND","47,3","9,3","0"],
    [19113,"2016-04-05T19:00:00","65","20","10,89","2","304,1","ND","49,5","0","0"],
    [19114,"2016-04-05T20:00:00","81","30","4,59","3,2","112,4","ND","56,3","0","0"],
    [19115,"2016-04-05T21:00:00","65","17","3,47","1,4","20,6","ND","62,4","0","0"],
    [19116,"2016-04-05T22:00:00","95","25","2,63","0,9","110,5","ND","63,9","0","0"],
    [19117,"2016-04-05T23:00:00","69","22","2,2","1,1","124,6","ND","64,9","0","0"],
    [19118,"2016-04-06T00:00:00","49","7","2,81","1,3","136,7","ND","67,4","0","0"],
    [19119,"2016-04-06T01:00:00","50","11","2,73","1,1","98,3","ND","69,7","0","0"],
    [19120,"2016-04-06T02:00:00","41","11","7,4","0,9","63,3","ND","70,3","0","0"],
    [19121,"2016-04-06T03:00:00","48","13","7,89","0,7","22,8","ND","69,9","0","0"],
    [19122,"2016-04-06T04:00:00","48","11","4,47","0,7","123,5","ND","69,1","0","0"],
    [19123,"2016-04-06T05:00:00","66","19","1,77","1,4","184,9","ND","71,3","0","0"],
    [19124,"2016-04-06T06:00:00","80","29","2,45","1,4","127","ND","72,2","0","0"],
    [19125,"2016-04-06T07:00:00","104","38","2,87","1,9","86,5","ND","72,1","11,9","0"],
    [19126,"2016-04-06T08:00:00","93","28","4,28","2,2","100,4","ND","71,2","84,9","0"],
    [19127,"2016-04-06T09:00:00","82","25","12,7","1,9","132,7","ND","61,2","206,6","0"],
    [19128,"2016-04-06T10:00:00","54","14","ND","2,5","193,2","ND","49,4","326,7","0"],
    [19129,"2016-04-06T11:00:00","63","16","76,92","1,9","176,5","ND","44,2","405,7","0"],
    [19130,"2016-04-06T12:00:00","60","25","91,41","3,1","131,2","ND","38,9","435,9","0"],
    [19131,"2016-04-06T13:00:00","53","23","90,64","3,4","95,1","ND","35,8","426,2","0"],
    [19132,"2016-04-06T14:00:00","64","16","89,05","4,1","86,5","ND","34,7","375,5","0"],
    [19133,"2016-04-06T15:00:00","57","22","96,98","3,8","84,6","ND","33,2","344,4","0"],
    [19134,"2016-04-06T16:00:00","75","25","ND","3,4","7,8","ND","32,4","200,1","0"],
    [19135,"2016-04-06T17:00:00","76","22","84,07","5,2","298,6","ND","35","90,1","0"],
    [19136,"2016-04-06T18:00:00","63","17","49,77","5,7","295,6","ND","39","41,5","0"],
    [19137,"2016-04-06T19:00:00","54","13","27,2","5,4","304,7","ND","41,8","0","0"],
    [19138,"2016-04-06T20:00:00","59","21","19,35","2,8","94,4","ND","49","0","0"],
    [19139,"2016-04-06T21:00:00","62","18","22,78","4,5","151,7","ND","54,3","0","0"],
    [19140,"2016-04-06T22:00:00","40","10","25,22","4,2","134,6","ND","55,6","0","0"],
    [19141,"2016-04-06T23:00:00","29","9","30,22","3,5","174,4","ND","60","0","0"],
    [19142,"2016-04-07T00:00:00","33","5","23,53","2,6","168,3","ND","64,5","0","0"],
    [19143,"2016-04-07T01:00:00","20","1","19,64","1,7","195,1","ND","67,5","0","0"],
    [19144,"2016-04-07T02:00:00","35","3","15,13","2,5","94,4","ND","68,3","0","0"],
    [19145,"2016-04-07T03:00:00","46","4","12,21","1,7","112","ND","70,6","0","0"],
    [19146,"2016-04-07T04:00:00","48","9","12,79","0,5","67,8","ND","71,1","0","0"],
    [19147,"2016-04-07T05:00:00","61","22","7,32","0,7","17,2","ND","70,8","0","0"],
    [19148,"2016-04-07T06:00:00","98","33","4,51","1,8","117,3","ND","70,2","0","0"],
    [19149,"2016-04-07T07:00:00","87","19","4,12","2,2","180,9","ND","71,9","16,7","0"],
    [19150,"2016-04-07T08:00:00","87","23","9,11","1,8","220","ND","71,1","114,8","0"],
    [19151,"2016-04-07T09:00:00","86","23","25,35","1,1","193,5","ND","56,7","202,4","0"],
    [19152,"2016-04-07T10:00:00","58","12","47","3","130,5","ND","46,4","321,9","0"],
    [19153,"2016-04-07T11:00:00","51","15","68,09","2,7","116,4","ND","42,2","357,5","0"],
    [19154,"2016-04-07T12:00:00","45","13","78,63","1,3","120","ND","39,3","426,8","0"],
    [19155,"2016-04-07T13:00:00","53","18","94,47","2,3","70,3","ND","35,8","446","0"],
    [19156,"2016-04-07T14:00:00","66","31","115,13","3,1","26,3","ND","35,8","227,7","0"],
    [19157,"2016-04-07T15:00:00","55","15","97,49","4,5","14,3","ND","35,6","267,2","0"],
    [19158,"2016-04-07T16:00:00","60","11","68,57","5,5","332,4","ND","35,5","218,1","0"],
    [19159,"2016-04-07T17:00:00","42","8","51,39","6,6","295,5","ND","36,2","39,3","0"],
    [19160,"2016-04-07T18:00:00","44","6","37,81","5,2","284,3","ND","41","10,3","0"],
    [19161,"2016-04-07T19:00:00","57","13","29,4","4","289,6","ND","44,1","0","0"],
    [19162,"2016-04-07T20:00:00","69","22","11,66","3,1","99,5","ND","50,7","0","0"],
    [19163,"2016-04-07T21:00:00","40","7","14,15","1,8","42,6","ND","54,4","0","0"],
    [19164,"2016-04-07T22:00:00","41","7","11,36","3,7","81,8","ND","54,5","0","0"],
    [19165,"2016-04-07T23:00:00","40","3","12,78","3,9","96,5","ND","58,1","0","0"],
    [19166,"2016-04-08T00:00:00","42","9","15,17","3","87,5","ND","61,5","0","0"],
    [19167,"2016-04-08T01:00:00","37","8","18,27","2,6","106,5","ND","63","0","0"],
    [19168,"2016-04-08T02:00:00","34","5","19,88","1,6","82","ND","63,7","0","0"],
    [19169,"2016-04-08T03:00:00","34","4","17,78","2,4","80,9","ND","64,8","0","0"],
    [19170,"2016-04-08T04:00:00","36","5","14,87","1,4","56,8","ND","66,2","0","0"],
    [19171,"2016-04-08T05:00:00","44","11","12,87","0,9","58","ND","66,8","0","0"],
    [19172,"2016-04-08T06:00:00","58","14","6,81","1,6","157,7","ND","67,4","0","0"],
    [19173,"2016-04-08T07:00:00","102","19","4,98","1,7","144,6","ND","68,2","4,2","0"],
    [19174,"2016-04-08T08:00:00","80","23","8,3","1,6","95,3","ND","67","47,9","0"],
    [19175,"2016-04-08T09:00:00","75","21","19","1,5","147,9","ND","61,7","117,7","0"],
    [19176,"2016-04-08T10:00:00","61","18","45,74","2,7","183,7","ND","50,3","311,7","0"],
    [19177,"2016-04-08T11:00:00","46","ND","58,87","2,6","129","ND","41,6","421,2","0"],
    [19178,"2016-04-08T12:00:00","48","19","76,47","2,3","81","ND","39","462,4","0"],
    [19179,"2016-04-08T13:00:00","51","8","75,26","3,7","76,4","ND","35,5","431,1","0"],
    [19180,"2016-04-08T14:00:00","48","12","81,38","3,7","81","ND","33,5","361,3","0"],
    [19181,"2016-04-08T15:00:00","51","17","86,99","3,8","78","ND","34,5","227,5","0"],
    [19182,"2016-04-08T16:00:00","57","15","79,53","2,9","23,7","ND","35,2","178,6","0"],
    [19183,"2016-04-08T17:00:00","64","11","63,01","5","319,4","ND","35,2","116,5","0"],
    [19184,"2016-04-08T18:00:00","66","20","37,17","7,5","292,9","ND","39,5","11","0"],
    [19185,"2016-04-08T19:00:00","52","20","31,26","7","294,7","ND","44,7","0","0"],
    [19186,"2016-04-08T20:00:00","72","28","10,2","3,3","70,3","ND","49,8","0","0"],
    [19187,"2016-04-08T21:00:00","68","26","8,1","2,2","73,9","ND","57,9","0","0"],
    [19188,"2016-04-08T22:00:00","57","11","9,07","3","191,8","ND","60,3","0","0"],
    [19189,"2016-04-08T23:00:00","56","18","13,13","3,7","189,9","ND","61,1","0","0"],
    [19190,"2016-04-09T00:00:00","53","13","11,6","2","181","ND","63,3","0","0"],
    [19191,"2016-04-09T01:00:00","29","11","16,05","2,4","168,6","ND","64,2","0","0"],
    [19192,"2016-04-09T02:00:00","34","11","12,72","2,2","153","ND","65,9","0","0"],
    [19193,"2016-04-09T03:00:00","25","6","10,58","1,6","153,9","ND","68,4","0","0"],
    [19194,"2016-04-09T04:00:00","27","2","7,65","2,7","144,3","ND","70,1","0","0"],
    [19195,"2016-04-09T05:00:00","34","3","13,68","2,8","159,1","ND","71,3","0","0,25"],
    [19196,"2016-04-09T06:00:00","34","6","11,36","2,6","184,2","ND","72,8","0","0,25"],
    [19197,"2016-04-09T07:00:00","29","9","9,26","2,1","152,5","ND","74,9","0","5,33"],
    [19198,"2016-04-09T08:00:00","25","9","8,63","1","57,5","ND","76,4","4,4","19,3"],
    [19199,"2016-04-09T09:00:00","37","16","7,48","2,3","36,8","ND","78,2","19","0"],
    [19200,"2016-04-09T10:00:00","48","23","8,12","2,3","17","ND","78","56,9","0"],
    [19201,"2016-04-09T11:00:00","44","20","8,97","4,7","79,3","ND","75,6","95","0"],
    [19202,"2016-04-09T12:00:00","25","9","11,64","2,2","73,3","ND","72,6","50,4","0,51"],
    [19203,"2016-04-09T13:00:00","45","15","17,66","2,4","87,1","ND","72","158,4","0"],
    [19204,"2016-04-09T14:00:00","38","13","31,77","0,8","44,5","ND","63,2","204","0"],
    [19205,"2016-04-09T15:00:00","49","12","59,05","2","325,7","ND","54,3","215,3","0"],
    [19206,"2016-04-09T16:00:00","41","17","74,63","1,6","148,6","ND","48,2","240,2","0"],
    [19207,"2016-04-09T17:00:00","42","14","47,63","2,6","135,8","ND","48,2","96,6","0"],
    [19208,"2016-04-09T18:00:00","46","17","22,72","3,3","126,7","ND","53,3","29","0"],
    [19209,"2016-04-09T19:00:00","51","15","17,94","1,1","136,1","ND","59,3","0","0"],
    [19210,"2016-04-09T20:00:00","74","32","20,33","1,5","162","ND","62,2","0","0"],
    [19211,"2016-04-09T21:00:00","77","26","6,52","2,1","107,8","ND","65,2","0","0"],
    [19212,"2016-04-09T22:00:00","67","21","4,87","2","2,4","ND","68,9","0","0"],
    [19213,"2016-04-09T23:00:00","94","38","4,16","2,3","110,2","ND","71,1","0","0"],
    [19214,"2016-04-10T00:00:00","63","15","2,59","1,3","116,8","ND","71,7","0","0"],
    [19215,"2016-04-10T01:00:00","59","21","3,2","1,5","171,2","ND","73,5","0","0"],
    [19216,"2016-04-10T02:00:00","59","16","3,55","1,5","199,5","ND","74,5","0","0"],
    [19217,"2016-04-10T03:00:00","63","23","4,26","2,1","146,1","ND","75,3","0","0"],
    [19218,"2016-04-10T04:00:00","43","11","3,53","1,9","190,9","ND","76,5","0","0"],
    [19219,"2016-04-10T05:00:00","49","11","3,41","1,9","107,8","ND","77,1","0","0"],
    [19220,"2016-04-10T06:00:00","54","19","2,87","2,1","115,4","ND","77,8","0","0"],
    [19221,"2016-04-10T07:00:00","43","15","2,81","2,2","173,7","ND","78,4","8,1","0"],
    [19222,"2016-04-10T08:00:00","49","15","5,06","2,3","207,1","ND","78,1","51,9","0"],
    [19223,"2016-04-10T09:00:00","62","20","10,73","2","150,7","ND","74,7","70,3","0"],
    [19224,"2016-04-10T10:00:00","56","20","21,88","0,5","44,7","ND","69,4","138,9","0"],
    [19225,"2016-04-10T11:00:00","62","26","59,73","1,6","69,2","ND","60,7","275,6","0"],
    [19226,"2016-04-10T12:00:00","45","17","67,33","3","48,8","ND","49,3","361","0"],
    [19227,"2016-04-10T13:00:00","43","16","60,34","4,4","64,7","ND","43,1","313,7","0"],
    [19228,"2016-04-10T14:00:00","56","ND","58,97","5,5","81,1","ND","42,9","224,2","0"],
    [19229,"2016-04-10T15:00:00","36","14","58,95","5,2","81,3","ND","42,4","268,3","0"],
    [19230,"2016-04-10T16:00:00","50","22","61,01","3,4","93,1","ND","42,9","110,7","0"],
    [19231,"2016-04-10T17:00:00","26","5","31,14","5,8","304,7","ND","42,9","32,2","0"],
    [19232,"2016-04-10T18:00:00","22","4","24,71","5,1","292,3","ND","47,9","13,1","0"],
    [19233,"2016-04-10T19:00:00","31","6","15,7","3,8","339,6","ND","48,9","0","0"],
    [19234,"2016-04-10T20:00:00","22","4","21,61","6,9","30,6","ND","59,1","0","0,25"],
    [19235,"2016-04-10T21:00:00","29","4","18,58","5,7","41,2","ND","70","0","0,25"],
    [19236,"2016-04-10T22:00:00","35","2","19,17","0,8","7,2","ND","71,3","0","0"],
    [19237,"2016-04-10T23:00:00","27","2","18,41","3,9","184,1","ND","71,6","0","0"],
    [19238,"2016-04-11T00:00:00","16","ND","20,35","3,8","187,2","ND","71,9","0","0"],
    [19239,"2016-04-11T01:00:00","12","ND","22,57","3,9","197,1","ND","73,8","0","0,25"],
    [19240,"2016-04-11T02:00:00","7","ND","22,02","3,7","205,4","ND","75,1","0","0"],
    [19241,"2016-04-11T03:00:00","15","ND","17,58","1,8","202","ND","76,1","0","0"],
    [19242,"2016-04-11T04:00:00","21","ND","17,66","1,5","190,1","ND","76","0","0"],
    [19243,"2016-04-11T05:00:00","28","ND","8,24","2,5","114,2","ND","75,9","0","0"],
    [19244,"2016-04-11T06:00:00","49","4","5,38","2,7","118,7","ND","76,3","0","0"],
    [19245,"2016-04-11T07:00:00","56","15","4,45","1,8","72,2","ND","77,1","0","0"],
    [19246,"2016-04-11T08:00:00","39","6","9,36","0,6","150,4","ND","77,2","77,8","0"],
    [19247,"2016-04-11T09:00:00","31","4","16,37","1,7","158,2","ND","70,1","138,1","0"],
    [19248,"2016-04-11T10:00:00","28","7","28,22","1,9","191,3","ND","60,6","243,4","0"],
    [19249,"2016-04-11T11:00:00","36","8","39,56","1,7","138,5","ND","49,7","359,2","0"],
    [19250,"2016-04-11T12:00:00","31","5","43,74","3","121,3","ND","44,1","411","0"],
    [19251,"2016-04-11T13:00:00","25","1","44,96","2,9","130,3","ND","38","427,2","0"],
    [19252,"2016-04-11T14:00:00","35","3","47,37","4,4","129,8","ND","37","450,2","0"],
    [19253,"2016-04-11T15:00:00","38","5","45,68","2,3","110,2","ND","36,9","135,6","0"],
    [19254,"2016-04-11T16:00:00","46","12","25,77","3,3","349","ND","47,6","19,6","19,3"],
    [19255,"2016-04-11T17:00:00","29","10","22,21","1,5","259,1","ND","63,5","16,9","1,78"],
    [19256,"2016-04-11T18:00:00","49","20","9,52","1,4","136,1","ND","68,1","4,1","0,25"],
    [19257,"2016-04-11T19:00:00","75","25","5,4","3","90,6","ND","69,5","0","0"],
    [19258,"2016-04-11T20:00:00","64","18","5,08","1,6","98","ND","70,8","0","0"],
    [19259,"2016-04-11T21:00:00","55","14","6,38","3,3","200","ND","71,5","0","0"],
    [19260,"2016-04-11T22:00:00","24","7","15,37","3,9","189,7","ND","71,1","0","0"],
    [19261,"2016-04-11T23:00:00","19","ND","16,25","4,8","201","ND","71,9","0","0"],
    [19262,"2016-04-12T00:00:00","14","ND","14,15","3,5","195","ND","74,8","0","11,68"],
    [19263,"2016-04-12T01:00:00","16","ND","13,64","2,8","164,6","ND","78,3","0","5,33"],
    [19264,"2016-04-12T02:00:00","20","ND","16,88","2,1","99,2","ND","79,6","0","10,16"],
    [19265,"2016-04-12T03:00:00","11","ND","16,58","2,8","21,5","ND","80,4","0","13,97"],
    [19266,"2016-04-12T04:00:00","12","ND","14,36","3,3","10,6","ND","81,2","0","13,97"],
    [19267,"2016-04-12T05:00:00","17","ND","6,61","2,3","55","ND","81,7","0","4,57"],
    [19268,"2016-04-12T06:00:00","23","ND","6,4","1,5","85,5","ND","82,2","0","9,65"],
    [19269,"2016-04-12T07:00:00","24","ND","4,22","1,2","105,6","ND","82,5","4,7","2,29"],
    [19270,"2016-04-12T08:00:00","22","ND","9,73","2,3","171,9","ND","82,3","28","0,76"],
    [19271,"2016-04-12T09:00:00","13","ND","13,76","2,8","209,9","ND","81,1","39,8","0,76"],
    [19272,"2016-04-12T10:00:00","8","ND","13,36","1,6","193,4","ND","80,1","52","4,06"],
    [19273,"2016-04-12T11:00:00","16","ND","14,36","0,5","219,3","ND","78,8","92,5","1,52"],
    [19274,"2016-04-12T12:00:00","17","ND","22,27","1,9","335,9","ND","74,6","118,2","0,51"],
    [19275,"2016-04-12T13:00:00","38","15","38,52","1,9","348,1","ND","70,4","169,3","0"],
    [19276,"2016-04-12T14:00:00","38","11","49,61","3,1","334","ND","62,5","146,7","0"],
    [19277,"2016-04-12T15:00:00","40","14","32,71","2,8","347,3","ND","59,8","87,9","0"],
    [19278,"2016-04-12T16:00:00","33","10","26,79","3,2","20,6","ND","62,5","76,2","0"],
    [19279,"2016-04-12T17:00:00","38","11","19,78","3,3","33,9","ND","62,2","42,6","0"],
    [19280,"2016-04-12T18:00:00","22","8","13,72","2,8","9,3","ND","64,4","25,9","0"],
    [19281,"2016-04-12T19:00:00","45","12","5,38","2,5","314,4","ND","67,8","0","0"],
    [19282,"2016-04-12T20:00:00","53","8","8,75","3","13,8","ND","70,1","0","0"],
    [19283,"2016-04-12T21:00:00","38","5","10,73","3,1","37,1","ND","72,2","0","0"],
    [19284,"2016-04-12T22:00:00","35","4","8,77","1,6","34,3","ND","74","0","0"],
    [19285,"2016-04-12T23:00:00","48","3","6,28","1,8","89,1","ND","75,2","0","0"],
    [19286,"2016-04-13T00:00:00","38","2","7,03","1,9","111,4","ND","76,3","0","0"],
    [19287,"2016-04-13T01:00:00","26","1","7,38","0,7","38,8","ND","77,2","0","0"],
    [19288,"2016-04-13T02:00:00","31","3","7,34","1,5","263,3","ND","77,6","0","0"],
    [19289,"2016-04-13T03:00:00","32","4","7,59","1,6","212,5","ND","77,6","0","0,25"],
    [19290,"2016-04-13T04:00:00","42","6","4,71","0,8","110,5","ND","78,2","0","0,51"],
    [19291,"2016-04-13T05:00:00","34","11","4","1,9","60,5","ND","78,9","0","0"],
    [19292,"2016-04-13T06:00:00","37","13","3,49","1,9","42,1","ND","79,4","0","0"],
    [19293,"2016-04-13T07:00:00","50","13","3,28","1,8","39,7","ND","79,8","0","0"],
    [19294,"2016-04-13T08:00:00","51","14","3,94","2,5","40,9","ND","80,2","24,2","0"],
    [19295,"2016-04-13T09:00:00","64","17","6,24","3","47","ND","79,2","62,2","0"],
    [19296,"2016-04-13T10:00:00","71","10","13,09","3,3","341,3","ND","76","94,5","0,25"],
    [19297,"2016-04-13T11:00:00","48","21","24,2","3,5","334,7","ND","73,2","225,9","0"],
    [19298,"2016-04-13T12:00:00","41","15","42,74","2,5","1,3","ND","61,9","357","0"],
    [19299,"2016-04-13T13:00:00","33","6","55,71","1,8","38,9","ND","49,4","440,2","0"],
    [19300,"2016-04-13T14:00:00","38","6","47,1","2,5","50,8","ND","42,1","407,6","0"],
    [19301,"2016-04-13T15:00:00","32","4","46,45","2,4","40,5","ND","38,4","375,5","0"],
    [19302,"2016-04-13T16:00:00","25","3","56,4","4","355","ND","37,6","254,7","0"],
    [19303,"2016-04-13T17:00:00","48","14","72,35","3,6","352,3","ND","38,6","100,6","0"],
    [19304,"2016-04-13T18:00:00","53","16","45,13","2,9","353","ND","46,4","21,9","0"],
    [19305,"2016-04-13T19:00:00","61","18","7,48","2,8","292,7","ND","51,9","0","0"],
    [19306,"2016-04-13T20:00:00","49","9","4,06","3,4","298,7","ND","54,4","0","0"],
    [19307,"2016-04-13T21:00:00","48","13","3,75","2,2","282,4","ND","58,4","0","0"],
    [19308,"2016-04-13T22:00:00","53","10","3,2","1,3","243,8","ND","61","0","0"],
    [19309,"2016-04-13T23:00:00","64","18","3,34","0,5","63,9","ND","64,1","0","0"],
    [19310,"2016-04-14T00:00:00","61","20","3,18","0,3","341","ND","67,4","0","0"],
    [19311,"2016-04-14T01:00:00","66","19","3,16","0,4","211,3","ND","69,2","0","0"],
    [19312,"2016-04-14T02:00:00","62","13","3,59","1,9","170","ND","71,2","0","0"],
    [19313,"2016-04-14T03:00:00","45","11","4,67","1,1","205,6","ND","73,3","0","0"],
    [19314,"2016-04-14T04:00:00","29","7","5,59","1,2","180,7","ND","74,9","0","0"],
    [19315,"2016-04-14T05:00:00","58","21","4,57","2","103,3","ND","75,2","0","0"],
    [19316,"2016-04-14T06:00:00","98","29","3,55","0,9","347,9","ND","75,5","0","0"],
    [19317,"2016-04-14T07:00:00","138","49","3,77","1,5","98,9","ND","77,5","22,1","0"],
    [19318,"2016-04-14T08:00:00","108","36","6,34","1,9","79,9","ND","74,2","102,1","0"],
    [19319,"2016-04-14T09:00:00","72","19","16,46","2,1","54,7","ND","63,6","221,8","0"],
    [19320,"2016-04-14T10:00:00","69","30","42,98","1,5","68,4","ND","52,7","306,9","0"],
    [19321,"2016-04-14T11:00:00","57","21","68,19","1","120,4","ND","46,5","268,1","0"],
    [19322,"2016-04-14T12:00:00","51","19","76,57","2,2","57,2","ND","42,7","411,4","0"],
    [19323,"2016-04-14T13:00:00","52","17","83,58","3,3","46,5","ND","38,4","425,3","0"],
    [19324,"2016-04-14T14:00:00","68","26","89,66","4,4","38","ND","38,4","213,9","0"],
    [19325,"2016-04-14T15:00:00","46","19","76,73","3,9","332,3","ND","39","256,4","0"],
    [19326,"2016-04-14T16:00:00","43","9","54,1","5,6","311,9","ND","34,8","256,8","0"],
    [19327,"2016-04-14T17:00:00","37","6","33,28","7,8","283,5","ND","35,2","143,3","0"],
    [19328,"2016-04-14T18:00:00","34","6","25,14","6,9","287,9","ND","38,7","41,9","0"],
    [19329,"2016-04-14T19:00:00","34","5","15,97","6,7","294,9","ND","43","0","0"],
    [19330,"2016-04-14T20:00:00","51","9","6,75","0,9","42,9","ND","48,1","0","0"],
    [19331,"2016-04-14T21:00:00","64","15","6,63","3,6","103,7","ND","55,7","0","0"],
    [19332,"2016-04-14T22:00:00","60","18","9,64","2,7","157,2","ND","60,1","0","0"],
    [19333,"2016-04-14T23:00:00","61","19","7,36","1,9","132,1","ND","62","0","0"],
    [19334,"2016-04-15T00:00:00","50","16","9,24","1,7","132,2","ND","63,7","0","0"],
    [19335,"2016-04-15T01:00:00","39","12","8,97","2,4","119,1","ND","65,9","0","0"],
    [19336,"2016-04-15T02:00:00","51","14","7,08","1,3","117","ND","67,9","0","0"],
    [19337,"2016-04-15T03:00:00","46","15","7,63","1,8","126","ND","70,2","0","0"],
    [19338,"2016-04-15T04:00:00","58","17","6,95","1,1","201,2","ND","72,1","0","0"],
    [19339,"2016-04-15T05:00:00","58","17","4,53","2,3","120","ND","72","0","0"],
    [19340,"2016-04-15T06:00:00","82","23","3,65","2,1","146,7","ND","72,6","0","0"],
    [19341,"2016-04-15T07:00:00","64","31","4,71","1,8","191,9","ND","73,1","22,3","0"],
    [19342,"2016-04-15T08:00:00","ND","ND","8,83","2","182,8","ND","67,9","113","0"],
    [19343,"2016-04-15T09:00:00","ND","ND","18,88","0,8","184,3","ND","55,8","226,5","0"],
    [19344,"2016-04-15T10:00:00","ND","ND","ND","ND","ND","ND","ND","ND","ND"],
    [19345,"2016-04-15T11:00:00","ND","ND","ND","ND","ND","ND","ND","ND","ND"],
    [19346,"2016-04-15T12:00:00","ND","ND","ND","3,2","117,6","ND","41","453,5","0"],
    [19347,"2016-04-15T13:00:00","48","7","60,54","2,1","89,1","ND","36,6","435,6","0"],
    [19348,"2016-04-15T14:00:00","39","7","64,35","3,5","81","ND","32,8","419","0"],
    [19349,"2016-04-15T15:00:00","60","14","89,78","4,2","90","ND","32,5","352,5","0"],
    [19350,"2016-04-15T16:00:00","82","36","103,61","2,6","326,4","ND","34,3","167,3","0"],
    [19351,"2016-04-15T17:00:00","50","16","53,16","8","289,5","ND","34,4","136,7","0"],
    [19352,"2016-04-15T18:00:00","41","7","34,81","7,1","292","ND","36,8","39,9","0"],
    [19353,"2016-04-15T19:00:00","45","5","18,9","4,3","310,7","ND","42","0","0"],
    [19354,"2016-04-15T20:00:00","62","19","9,77","2,8","112,6","ND","51,2","0","0"],
    [19355,"2016-04-15T21:00:00","43","9","17,39","5,1","271,8","ND","53,4","0","0"],
    [19356,"2016-04-15T22:00:00","41","12","12,28","2,1","265,1","ND","55,2","0","0"],
    [19357,"2016-04-15T23:00:00","49","16","6,61","1,8","112,4","ND","56,5","0","0"],
    [19358,"2016-04-16T00:00:00","48","13","12,4","2,1","141,5","ND","59,1","0","0"],
    [19359,"2016-04-16T01:00:00","34","7","16,27","3","190,6","ND","61,4","0","0"],
    [19360,"2016-04-16T02:00:00","27","7","27,39","5,7","252,8","ND","64","0","27,69"],
    [19361,"2016-04-16T03:00:00","19","4","27,71","3,8","263,6","ND","72","0","4,57"],
    [19362,"2016-04-16T04:00:00","24","2","19,45","1","113,3","ND","75,6","0","0,76"],
    [19363,"2016-04-16T05:00:00","25","7","14,62","0,2","151,3","ND","77,1","0","0"],
    [19364,"2016-04-16T06:00:00","26","7","8,18","1,5","221,3","ND","77,6","0","0"],
    [19365,"2016-04-16T07:00:00","59","23","4,1","2","64","ND","78","5,9","0"],
    [19366,"2016-04-16T08:00:00","58","21","6,02","3,7","34,4","ND","77,8","12,7","0"],
    [19367,"2016-04-16T09:00:00","41","9","16,58","3,8","9,9","ND","76,7","121,8","0"],
    [19368,"2016-04-16T10:00:00","38","10","25,22","2,7","81,3","ND","66,8","242,8","0"],
    [19369,"2016-04-16T11:00:00","24","9","34,28","2,4","59,6","ND","55","363,3","0"],
    [19370,"2016-04-16T12:00:00","35","8","39,44","3,7","74,4","ND","45,9","471,3","0"],
    [19371,"2016-04-16T13:00:00","30","4","42,8","4,7","60,7","ND","40,9","462,6","0"],
    [19372,"2016-04-16T14:00:00","26","ND","46,7","5,2","34,5","ND","37,7","430,2","0"],
    [19373,"2016-04-16T15:00:00","25","1","43,66","6,6","30,3","ND","38,5","360,4","0"],
    [19374,"2016-04-16T16:00:00","26","3","36,62","3","342,4","ND","36,5","302,6","0"],
    [19375,"2016-04-16T17:00:00","21","2","35,17","4,5","306,3","ND","34","143","0"],
    [19376,"2016-04-16T18:00:00","26","1","25,47","3,1","289,3","ND","39,2","9,2","0"],
    [19377,"2016-04-16T19:00:00","37","4","24,94","3,7","224,2","ND","46,1","0","0"],
    [19378,"2016-04-16T20:00:00","57","23","26,1","4,3","206,3","ND","57,6","0","0"],
    [19379,"2016-04-16T21:00:00","49","10","21,37","3,1","176,7","ND","63,3","0","0"],
    [19380,"2016-04-16T22:00:00","53","17","11,4","2,7","154,1","ND","66,4","0","0"],
    [19381,"2016-04-16T23:00:00","50","15","10,2","2,1","179,9","ND","69,6","0","0"],
    [19382,"2016-04-17T00:00:00","44","12","7,87","2","221,7","ND","71,4","0","0"],
    [19383,"2016-04-17T01:00:00","59","14","4,24","1","82","ND","72,8","0","0"],
    [19384,"2016-04-17T02:00:00","56","19","4,96","2,2","75,5","ND","74,3","0","0"],
    [19385,"2016-04-17T03:00:00","47","17","5,3","1,9","96,2","ND","75","0","0"],
    [19386,"2016-04-17T04:00:00","66","18","4,16","2,3","71,1","ND","75,1","0","0"],
    [19387,"2016-04-17T05:00:00","65","20","3,69","0,9","35,2","ND","75,8","0","0"],
    [19388,"2016-04-17T06:00:00","71","19","3,77","1,4","343,5","ND","76,4","0","0"],
    [19389,"2016-04-17T07:00:00","72","30","4,96","1,6","45,1","ND","76,6","36,4","0"],
    [19390,"2016-04-17T08:00:00","56","16","12,21","2,3","8,5","ND","69,8","124,8","0"],
    [19391,"2016-04-17T09:00:00","41","6","19,07","3","60,4","ND","58,5","114,2","0"],
    [19392,"2016-04-17T10:00:00","43","8","26,24","3,5","108,3","ND","56,9","177,5","0"],
    [19393,"2016-04-17T11:00:00","43","11","42,64","2,7","133","ND","51,4","240,7","0"],
    [19394,"2016-04-17T12:00:00","45","17","59,5","3,1","100","ND","46,4","323,8","0"],
    [19395,"2016-04-17T13:00:00","56","16","79,79","3,9","73,4","ND","40,5","381,3","0"],
    [19396,"2016-04-17T14:00:00","48","18","86,52","2,9","91,9","ND","40,1","329,3","0"],
    [19397,"2016-04-17T15:00:00","59","19","91,03","3,8","75,6","ND","39","197,7","0"],
    [19398,"2016-04-17T16:00:00","53","21","75,49","3,3","86,2","ND","41,8","135,2","0"],
    [19399,"2016-04-17T17:00:00","58","17","69,39","3,4","86,7","ND","42","102,9","0"],
    [19400,"2016-04-17T18:00:00","61","17","57,07","2,9","93,5","ND","44,2","24,3","0"],
    [19401,"2016-04-17T19:00:00","71","25","34,83","1,3","86,9","ND","48,9","0,4","0"],
    [19402,"2016-04-17T20:00:00","48","9","22,45","4","286,6","ND","48,6","0","0"],
    [19403,"2016-04-17T21:00:00","57","15","11,26","1,5","71,7","ND","52,9","0","0"],
    [19404,"2016-04-17T22:00:00","72","15","5,24","3,8","80,7","ND","62,2","0","0"],
    [19405,"2016-04-17T23:00:00","50","22","10,18","3","50,9","ND","64,6","0","0"],
    [19406,"2016-04-18T00:00:00","67","29","12,34","2,6","61,4","ND","64,5","0","0"],
    [19407,"2016-04-18T01:00:00","49","13","11,3","2","82,9","ND","65,6","0","0"],
    [19408,"2016-04-18T02:00:00","80","52","8,75","1,6","61,2","ND","67,5","0","0"],
    [19409,"2016-04-18T03:00:00","60","17","5,67","2,3","104","ND","68,4","0","0"],
    [19410,"2016-04-18T04:00:00","49","17","5,34","1,1","281,4","ND","70,9","0","0"],
    [19411,"2016-04-18T05:00:00","64","16","3,92","1,5","140,8","ND","72,6","0","0"],
    [19412,"2016-04-18T06:00:00","83","33","3,38","1,9","95","ND","73,7","0","0"],
    [19413,"2016-04-18T07:00:00","74","21","4,04","0,5","197,4","ND","74,7","10,2","0"],
    [19414,"2016-04-18T08:00:00","78","33","7,85","1,6","162,8","ND","72,4","91,8","0"],
    [19415,"2016-04-18T09:00:00","76","24","17,43","1,7","65,2","ND","59,4","226,8","0"],
    [19416,"2016-04-18T10:00:00","47","14","36,48","3,8","80,9","ND","47,9","328,9","0"],
    [19417,"2016-04-18T11:00:00","43","13","47,47","3,5","76,4","ND","43,4","375,4","0"],
    [19418,"2016-04-18T12:00:00","40","14","59,36","2,6","81,9","ND","40,9","332,8","0"],
    [19419,"2016-04-18T13:00:00","47","12","70,68","2,1","172,6","ND","41,1","185,7","0"],
    [19420,"2016-04-18T14:00:00","60","20","72,53","2,7","124,4","ND","41,4","238,7","0"],
    [19421,"2016-04-18T15:00:00","61","24","70,33","3,6","76,4","ND","40,3","204,9","0"],
    [19422,"2016-04-18T16:00:00","55","17","61,78","3,6","28,9","ND","41,3","146,8","0"],
    [19423,"2016-04-18T17:00:00","40","12","49,59","3,7","8,3","ND","37,8","129,3","0"],
    [19424,"2016-04-18T18:00:00","41","12","29,91","3,8","310","ND","38,2","37,2","0"],
    [19425,"2016-04-18T19:00:00","39","9","17,47","5,5","292,4","ND","43,9","0","0"],
    [19426,"2016-04-18T20:00:00","45","16","11,01","3,9","293,5","ND","48,2","0","0"],
    [19427,"2016-04-18T21:00:00","49","15","6,38","3,7","79,5","ND","54,9","0","0"],
    [19428,"2016-04-18T22:00:00","51","17","6,73","2,4","50,6","ND","63,7","0","0"],
    [19429,"2016-04-18T23:00:00","46","16","10,6","2,7","15,4","ND","65,8","0","0"],
    [19430,"2016-04-19T00:00:00","37","14","8,6","2,1","70,3","ND","65,4","0","0"],
    [19431,"2016-04-19T01:00:00","43","14","5,02","1,6","108,4","ND","67,3","0","0"],
    [19432,"2016-04-19T02:00:00","59","22","4,14","2,2","133,8","ND","69","0","0"],
    [19433,"2016-04-19T03:00:00","51","17","4,2","1,1","166,1","ND","70,5","0","0"],
    [19434,"2016-04-19T04:00:00","50","13","4,81","1,6","72,8","ND","71,3","0","0"],
    [19435,"2016-04-19T05:00:00","61","24","4,49","0,4","158,7","ND","71,8","0","0"],
    [19436,"2016-04-19T06:00:00","90","31","3,98","2,3","114,8","ND","71,9","0","0"],
    [19437,"2016-04-19T07:00:00","95","37","3,94","2,3","122,9","ND","73,3","19,2","0"],
    [19438,"2016-04-19T08:00:00","62","23","4,79","1,9","67,8","ND","71,6","67,8","0"],
    [19439,"2016-04-19T09:00:00","47","17","11,36","2,8","85,1","ND","62,3","220,1","0"],
    [19440,"2016-04-19T10:00:00","74","25","34,99","3,3","82,9","ND","49,2","322,3","0"],
    [19441,"2016-04-19T11:00:00","63","20","51,51","2,8","77,8","ND","44,7","421,2","0"],
    [19442,"2016-04-19T12:00:00","57","24","60,74","3,2","72,4","ND","40","459,4","0"],
    [19443,"2016-04-19T13:00:00","70","29","84,5","3,7","53,8","ND","37,4","331,6","0"],
    [19444,"2016-04-19T14:00:00","54","24","73,08","4,7","71,8","ND","37,9","253,2","0"],
    [19445,"2016-04-19T15:00:00","54","19","68,68","5,3","83,6","ND","37,9","318,9","0"],
    [19446,"2016-04-19T16:00:00","48","19","65,43","4,4","73,5","ND","34,3","247,1","0"],
    [19447,"2016-04-19T17:00:00","43","15","51,16","3,7","92,4","ND","33,3","128,3","0"],
    [19448,"2016-04-19T18:00:00","44","20","39,76","2,6","81,2","ND","34,7","52","0"],
    [19449,"2016-04-19T19:00:00","47","9","25,12","3,7","285,8","ND","39,6","0","0"],
    [19450,"2016-04-19T20:00:00","45","8","19,56","6,6","302,1","ND","45","0","0"],
    [19451,"2016-04-19T21:00:00","41","9","12,89","3,4","322,6","ND","48,3","0","0"],
    [19452,"2016-04-19T22:00:00","59","13","6,73","3,4","79,1","ND","58","0","0"],
    [19453,"2016-04-19T23:00:00","35","11","6,57","2,5","63,1","ND","63,8","0","0"],
    [19454,"2016-04-20T00:00:00","35","13","9,6","1,8","88,6","ND","64,2","0","0"],
    [19455,"2016-04-20T01:00:00","37","11","6,87","1,8","209,3","ND","65,6","0","0"],
    [19456,"2016-04-20T02:00:00","51","15","3,83","2,6","143,5","ND","67,7","0","0"],
    [19457,"2016-04-20T03:00:00","61","15","3,92","1,6","123,8","ND","69,2","0","0"],
    [19458,"2016-04-20T04:00:00","53","16","3,22","0,4","97,1","ND","70,6","0","0"],
    [19459,"2016-04-20T05:00:00","56","18","3,32","1,4","119,9","ND","70,8","0","0"],
    [19460,"2016-04-20T06:00:00","72","30","3,38","2,3","164,2","ND","70,8","0","0"],
    [19461,"2016-04-20T07:00:00","87","30","3,63","2","110,9","ND","71,7","14,2","0"],
    [19462,"2016-04-20T08:00:00","86","26","4,4","1,7","119","ND","71,2","42,4","0"],
    [19463,"2016-04-20T09:00:00","106","29","7,67","2,3","83,2","ND","67,5","101,4","0"],
    [19464,"2016-04-20T10:00:00","73","25","27,22","1,4","35,4","ND","58,5","272,8","0"],
    [19465,"2016-04-20T11:00:00","82","31","54,75","3,2","75,9","ND","45,9","400","0"],
    [19466,"2016-04-20T12:00:00","50","19","72,29","3,1","92,6","ND","40,4","387,1","0"],
    [19467,"2016-04-20T13:00:00","49","18","88,68","1,4","16,5","ND","38,1","440,5","0"],
    [19468,"2016-04-20T14:00:00","72","29","103,42","3,9","76","ND","36,7","392,4","0"],
    [19469,"2016-04-20T15:00:00","56","21","103,06","2,9","13","ND","35,3","280,5","0"],
    [19470,"2016-04-20T16:00:00","45","12","57,5","7,7","288","ND","32,6","255,2","0"],
    [19471,"2016-04-20T17:00:00","47","8","36,17","8,4","290,6","ND","37,8","87,3","0"],
    [19472,"2016-04-20T18:00:00","44","6","30,85","8","290","ND","39","32,1","0"],
    [19473,"2016-04-20T19:00:00","40","12","20,51","4,3","311,3","ND","44,1","0","0"],
    [19474,"2016-04-20T20:00:00","41","13","22,53","3,5","207,4","ND","49,2","0","0"],
    [19475,"2016-04-20T21:00:00","48","16","21,41","2,6","170,7","ND","55","0","0"],
    [19476,"2016-04-20T22:00:00","58","19","16,23","2,9","162,5","ND","58,8","0","0"],
    [19477,"2016-04-20T23:00:00","44","13","16,25","2,3","159,2","ND","61,1","0","0"],
    [19478,"2016-04-21T00:00:00","68","29","7,71","2,1","119,6","ND","64,4","0","0"],
    [19479,"2016-04-21T01:00:00","49","29","8,08","1,6","91,1","ND","66,4","0","0"],
    [19480,"2016-04-21T02:00:00","45","18","7,85","2,4","169,5","ND","67","0","0"],
    [19481,"2016-04-21T03:00:00","29","3","11,28","3,2","195,7","ND","67,6","0","0"],
    [19482,"2016-04-21T04:00:00","35","14","6,32","2,5","163","ND","70,2","0","0"],
    [19483,"2016-04-21T05:00:00","52","14","3,63","1,9","174,5","ND","72,1","0","0"],
    [19484,"2016-04-21T06:00:00","85","36","3,51","1,9","116,6","ND","73,2","0","0"],
    [19485,"2016-04-21T07:00:00","65","23","3,89","1,3","173,8","ND","73","0","0"],
    [19486,"2016-04-21T08:00:00","94","29","5,14","2,3","73,3","ND","72","96,4","0"],
    [19487,"2016-04-21T09:00:00","85","30","22,21","1,6","346,3","ND","63","176,1","0"],
    [19488,"2016-04-21T10:00:00","62","21","33,87","3,4","62,4","ND","51,8","324","0"],
    [19489,"2016-04-21T11:00:00","92","25","49,22","3,5","81,2","ND","44,2","407,5","0"],
    [19490,"2016-04-21T12:00:00","46","19","56,34","2,5","77,5","ND","39","414,4","0"],
    [19491,"2016-04-21T13:00:00","45","22","68,29","3,1","101,1","ND","36,4","420,3","0"],
    [19492,"2016-04-21T14:00:00","39","15","80,65","3,1","99,1","ND","33","418,2","0"],
    [19493,"2016-04-21T15:00:00","42","14","72,73","3","103,8","ND","30,2","348,5","0"],
    [19494,"2016-04-21T16:00:00","32","14","66,88","2,9","68,8","ND","28,2","250,9","0"],
    [19495,"2016-04-21T17:00:00","47","18","61,15","3,1","68","ND","27,6","135,8","0"],
    [19496,"2016-04-21T18:00:00","68","17","54,16","4,4","301,7","ND","33,2","36,5","0"],
    [19497,"2016-04-21T19:00:00","45","8","22,94","5,5","307,2","ND","42","0","0"],
    [19498,"2016-04-21T20:00:00","49","10","15,93","3,5","313,8","ND","46,2","0","0"],
    [19499,"2016-04-21T21:00:00","41","14","8,75","2,8","89","ND","54,9","0","0"],
    [19500,"2016-04-21T22:00:00","43","9","11,99","3,3","57,3","ND","60,1","0","0"],
    [19501,"2016-04-21T23:00:00","26","9","9,87","1,7","121,3","ND","61,2","0","0"],
    [19502,"2016-04-22T00:00:00","35","8","7,01","1,7","129,9","ND","62,8","0","0"],
    [19503,"2016-04-22T01:00:00","25","9","5,73","2,3","130,8","ND","65,3","0","0"],
    [19504,"2016-04-22T02:00:00","41","6","5,89","2,2","126,9","ND","67,3","0","0"],
    [19505,"2016-04-22T03:00:00","31","5","10,93","1,5","177,4","ND","68,3","0","0"],
    [19506,"2016-04-22T04:00:00","46","9","7,54","2,4","198,7","ND","67,7","0","0"],
    [19507,"2016-04-22T05:00:00","40","12","6,24","2,3","181,5","ND","69","0","0"],
    [19508,"2016-04-22T06:00:00","66","16","3,61","2,2","128,1","ND","69,4","0","0"],
    [19509,"2016-04-22T07:00:00","74","17","3,55","2,2","163,2","ND","71,9","11,8","0"],
    [19510,"2016-04-22T08:00:00","60","17","7,69","1,5","193,3","ND","70,1","109,9","0"],
    [19511,"2016-04-22T09:00:00","53","18","14,7","3,6","79,5","ND","56,4","204,6","0"],
    [19512,"2016-04-22T10:00:00","43","12","36,58","2,4","112,9","ND","46,7","297,7","0"],
    [19513,"2016-04-22T11:00:00","57","19","44,86","3,1","93","ND","44,6","200,2","0"],
    [19514,"2016-04-22T12:00:00","54","19","50,16","4","103","ND","45,5","183,9","0"],
    [19515,"2016-04-22T13:00:00","42","17","59,05","2","85,9","ND","45,4","248","0"],
    [19516,"2016-04-22T14:00:00","54","15","78,28","2,6","146,9","ND","40,9","204,3","0"],
    [19517,"2016-04-22T15:00:00","65","23","81,12","3,1","140,2","ND","44,3","132,1","0"],
    [19518,"2016-04-22T16:00:00","75","29","84,28","2,7","170,4","ND","47,1","83,6","0"],
    [19519,"2016-04-22T17:00:00","90","27","72,55","2,6","199,4","ND","49,6","27,1","0"],
    [19520,"2016-04-22T18:00:00","86","22","54,99","3,2","175,1","ND","52,3","8","0"],
    [19521,"2016-04-22T19:00:00","97","33","58,91","1,9","231,3","ND","54","0","0"],
    [19522,"2016-04-22T20:00:00","50","12","10,87","3,9","298,7","ND","51,7","0","0"],
    [19523,"2016-04-22T21:00:00","39","7","13,74","2,9","293,1","ND","50,3","0","0"],
    [19524,"2016-04-22T22:00:00","75","22","4,65","3,5","77,6","ND","56,6","0","0"],
    [19525,"2016-04-22T23:00:00","54","14","4,73","3,8","68,6","ND","63","0","0"],
    [19526,"2016-04-23T00:00:00","22","8","8,48","0,9","32","ND","64,8","0","0"],
    [19527,"2016-04-23T01:00:00","16","5","7,99","1,9","220","ND","65,2","0","0"],
    [19528,"2016-04-23T02:00:00","35","10","5,22","2,3","198,3","ND","67,5","0","0"],
    [19529,"2016-04-23T03:00:00","52","16","3,91","2,1","209,2","ND","69,3","0","0"],
    [19530,"2016-04-23T04:00:00","56","16","3,63","2,3","126,4","ND","70,4","0","0"],
    [19531,"2016-04-23T05:00:00","50","14","3,75","2,9","164,6","ND","71","0","0"],
    [19532,"2016-04-23T06:00:00","42","16","3,51","2","227,4","ND","70,9","0","0"],
    [19533,"2016-04-23T07:00:00","51","20","3,87","1,8","106","ND","70,9","6,2","0"],
    [19534,"2016-04-23T08:00:00","ND","ND","5,91","1,8","125,6","ND","70,1","80,5","0"],
    [19535,"2016-04-23T09:00:00","63","17","12,28","4,9","188,1","ND","63,1","142,4","0"],
    [19536,"2016-04-23T10:00:00","28","9","21,66","4,2","188,8","ND","55,9","216,3","0"],
    [19537,"2016-04-23T11:00:00","33","7","30,44","3,4","159,1","ND","48,5","275,4","0"],
    [19538,"2016-04-23T12:00:00","35","13","35,79","3,9","154,6","ND","42,8","319,8","0"],
    [19539,"2016-04-23T13:00:00","30","10","50,33","2","150,3","ND","39,2","370,3","0"],
    [19540,"2016-04-23T14:00:00","45","16","60,66","4,5","77,2","ND","35,7","325,5","0"],
    [19541,"2016-04-23T15:00:00","61","17","81,52","5,2","33,2","ND","36,9","215,5","0"],
    [19542,"2016-04-23T16:00:00","31","2","33,56","3,8","10,2","ND","37,6","156,8","0"],
    [19543,"2016-04-23T17:00:00","ND","6","28,32","5,2","14,8","ND","35,2","163,2","0"],
    [19544,"2016-04-23T18:00:00","27","11","21,23","4,1","28","ND","38,7","23,6","0"],
    [19545,"2016-04-23T19:00:00","65","14","13,5","3,3","19,6","ND","43,9","0,1","0"],
    [19546,"2016-04-23T20:00:00","53","14","7,1","2,4","64,6","ND","50,3","0","0"],
    [19547,"2016-04-23T21:00:00","36","10","5,63","3,9","83,8","ND","55,7","0","0"],
    [19548,"2016-04-23T22:00:00","40","7","4,51","1,1","171,6","ND","62,2","0","0"],
    [19549,"2016-04-23T23:00:00","54","14","4,75","2,8","202,8","ND","64,3","0","0"],
    [19550,"2016-04-24T00:00:00","42","17","3,57","1,9","175,8","ND","65,7","0","0"],
    [19551,"2016-04-24T01:00:00","40","11","4,98","1,3","139,8","ND","66,8","0","0"],
    [19552,"2016-04-24T02:00:00","53","8","3,79","2,6","80,9","ND","66,9","0","0"],
    [19553,"2016-04-24T03:00:00","43","5","3,96","2,4","102,8","ND","69,3","0","0"],
    [19554,"2016-04-24T04:00:00","26","2","8,32","2,4","100,6","ND","69,8","0","0"],
    [19555,"2016-04-24T05:00:00","27","ND","10,77","2,6","94,9","ND","69","0","0"],
    [19556,"2016-04-24T06:00:00","39","ND","6,32","2,6","103,9","ND","68,7","0","0"],
    [19557,"2016-04-24T07:00:00","44","7","6,67","2,3","99,9","ND","69,2","9,8","0"],
    [19558,"2016-04-24T08:00:00","36","7","10,11","1,4","118,4","ND","68,3","40,7","0"],
    [19559,"2016-04-24T09:00:00","41","9","15,46","2,6","168,3","ND","63,6","144,3","0"],
    [19560,"2016-04-24T10:00:00","38","11","24,53","1,5","117,2","ND","56,2","210,2","0"],
    [19561,"2016-04-24T11:00:00","34","15","36,79","3,9","79,3","ND","47,8","307","0"],
    [19562,"2016-04-24T12:00:00","40","8","41,66","4,5","79,5","ND","43,8","222,2","0"],
    [19563,"2016-04-24T13:00:00","41","8","45,88","5","77,4","ND","46,9","120,3","0"],
    [19564,"2016-04-24T14:00:00","32","9","28,75","5,6","93,6","ND","51,6","104,7","0"],
    [19565,"2016-04-24T15:00:00","19","5","29,83","2,9","109,8","ND","49,9","81,9","0"],
    [19566,"2016-04-24T16:00:00","38","2","23,84","3","151,2","ND","52,8","55,9","0"],
    [19567,"2016-04-24T17:00:00","42","8","28,81","4,3","189,1","ND","59,6","51,3","0"],
    [19568,"2016-04-24T18:00:00","37","14","21,8","3,9","54,5","ND","62,9","0","6,86"],
    [19569,"2016-04-24T19:00:00","28","7","11,13","2,6","75,3","ND","72","0","5,59"],
    [19570,"2016-04-24T20:00:00","14","2","9,71","0,9","147","ND","76,1","0","1,78"],
    [19571,"2016-04-24T21:00:00","17","6","9,54","1,1","174,1","ND","77,4","0","0,51"],
    [19572,"2016-04-24T22:00:00","19","5","8,79","1,1","138,5","ND","77,4","0","0"],
    [19573,"2016-04-24T23:00:00","27","5","7,59","2,1","155,2","ND","77,3","0","0"],
    [19574,"2016-04-25T00:00:00","25","4","8,38","2","195,3","ND","78","0","0"],
    [19575,"2016-04-25T01:00:00","21","3","8,22","1,4","162,3","ND","78,8","0","0"],
    [19576,"2016-04-25T02:00:00","22","6","8,61","1,2","135,1","ND","79","0","0"],
    [19577,"2016-04-25T03:00:00","26","4","9,89","2","118,1","ND","79","0","0"],
    [19578,"2016-04-25T04:00:00","28","8","7,04","2,4","108,7","ND","79,1","0","0"],
    [19579,"2016-04-25T05:00:00","34","10","5,99","2,5","132,8","ND","79,4","0","0"],
    [19580,"2016-04-25T06:00:00","39","15","7,59","2,2","180,2","ND","79,4","0","0"],
    [19581,"2016-04-25T07:00:00","41","15","7,57","2,7","182","ND","79,2","12,3","0"],
    [19582,"2016-04-25T08:00:00","40","15","9,89","2,4","153,5","ND","78,1","92,1","0"],
    [19583,"2016-04-25T09:00:00","43","19","20,23","2","151,5","ND","71,6","194,2","0"],
    [19584,"2016-04-25T10:00:00","46","17","29,49","2,7","140,1","ND","57,2","331,3","0"],
    [19585,"2016-04-25T11:00:00","ND","ND","41,43","1,8","143,7","ND","49","314,2","0"],
    [19586,"2016-04-25T12:00:00","34","14","49,57","2,2","158,5","ND","44,6","444,2","0"],
    [19587,"2016-04-25T13:00:00","32","14","57,65","1,9","132,2","ND","40,8","465,7","0"],
    [19588,"2016-04-25T14:00:00","43","18","55,52","4,9","80,4","ND","39,3","330,8","0"],
    [19589,"2016-04-25T15:00:00","45","16","58,91","4,7","88,8","ND","38,3","319,6","0"],
    [19590,"2016-04-25T16:00:00","36","19","66,78","2,9","37,2","ND","37,9","226,4","0"],
    [19591,"2016-04-25T17:00:00","49","17","83,83","3,6","347,6","ND","37,3","95,1","0"],
    [19592,"2016-04-25T18:00:00","64","22","49,06","3,9","34,7","ND","44","17,3","0"],
    [19593,"2016-04-25T19:00:00","68","22","34,56","2,3","0,4","ND","49,8","0","0"],
    [19594,"2016-04-25T20:00:00","66","17","12,11","2,4","11,9","ND","55,5","0","0"],
    [19595,"2016-04-25T21:00:00","61","22","6,22","3,4","115","ND","59,6","0","0"],
    [19596,"2016-04-25T22:00:00","46","10","5,63","4,3","93,8","ND","63,3","0","0"],
    [19597,"2016-04-25T23:00:00","40","15","5,4","3,6","240,8","ND","65,3","0","0,76"],
    [19598,"2016-04-26T00:00:00","17","8","14,15","4,1","276,6","ND","65,7","0","0"],
    [19599,"2016-04-26T01:00:00","24","6","6,02","2","140","ND","68,5","0","0"],
    [19600,"2016-04-26T02:00:00","27","5","8,22","2,3","54,9","ND","70,9","0","0,51"],
    [19601,"2016-04-26T03:00:00","12","4","10,44","0,5","80","ND","73,2","0","24,13"],
    [19602,"2016-04-26T04:00:00","14","5","7,75","2,8","117,6","ND","76","0","11,18"],
    [19603,"2016-04-26T05:00:00","12","3","8,54","1,5","38,3","ND","78","0","47,24"],
    [19604,"2016-04-26T06:00:00","12","7","6,04","1,2","17,4","ND","79,7","0","6,1"],
    [19605,"2016-04-26T07:00:00","15","8","5,42","2,7","256,8","ND","80,4","6,6","17,78"],
    [19606,"2016-04-26T08:00:00","12","5","8,32","3,7","274,2","ND","79,7","48,6","3,3"],
    [19607,"2016-04-26T09:00:00","19","7","8,67","1,9","245","ND","78,8","107,9","1,27"],
    [19608,"2016-04-26T10:00:00","22","8","38,99","1,3","315","ND","71,3","362,4","0"],
    [19609,"2016-04-26T11:00:00","23","8","58,87","2","175,5","ND","53,7","436,1","0"],
    [19610,"2016-04-26T12:00:00","16","3","50,32","3,7","199,5","ND","46,3","369,1","0"],
    [19611,"2016-04-26T13:00:00","23","9","48,31","2,4","168","ND","42,7","403,2","0"],
    [19612,"2016-04-26T14:00:00","30","6","54,51","2,2","91,8","ND","38,4","344,9","0"],
    [19613,"2016-04-26T15:00:00","48","11","69,8","3,4","77,4","ND","40,1","137,2","0"],
    [19614,"2016-04-26T16:00:00","22","9","47,27","1,1","337,1","ND","39,7","148,2","0"],
    [19615,"2016-04-26T17:00:00","43","14","40,92","3,8","76,1","ND","41,3","95,3","0"],
    [19616,"2016-04-26T18:00:00","27","7","19,09","2,7","300,3","ND","41,6","25,3","0"],
    [19617,"2016-04-26T19:00:00","59","15","6,3","0,5","19,4","ND","47,7","0","0"],
    [19618,"2016-04-26T20:00:00","42","17","12,68","3,8","159,1","ND","54,8","0","0"],
    [19619,"2016-04-26T21:00:00","29","12","13,01","3,6","181,5","ND","60,6","0","0"],
    [19620,"2016-04-26T22:00:00","44","10","10,91","1,9","211,4","ND","65,7","0","0"],
    [19621,"2016-04-26T23:00:00","52","16","6,36","1,5","198,9","ND","67","0","0"],
    [19622,"2016-04-27T00:00:00","45","7","4,04","2,2","86,1","ND","68,3","0","0"],
    [19623,"2016-04-27T01:00:00","49","17","3,94","0,5","225,7","ND","71","0","0"],
    [19624,"2016-04-27T02:00:00","30","6","5,44","2,7","151,1","ND","71,8","0","0"],
    [19625,"2016-04-27T03:00:00","29","6","2,81","3,2","210","ND","72,3","0","0"],
    [19626,"2016-04-27T04:00:00","24","4","3,45","2","198,3","ND","73,5","0","0"],
    [19627,"2016-04-27T05:00:00","18","6","5,44","2,5","224,9","ND","74,6","0","2,29"],
    [19628,"2016-04-27T06:00:00","17","8","5,28","2,8","228,4","ND","76","0","0,25"],
    [19629,"2016-04-27T07:00:00","25","11","4,57","1,9","181,6","ND","76,8","0","0,76"],
    [19630,"2016-04-27T08:00:00","24","11","4","2,1","251,9","ND","77,6","10,3","0"],
    [19631,"2016-04-27T09:00:00","42","16","7,81","0,9","30,5","ND","76,5","77,2","0"],
    [19632,"2016-04-27T10:00:00","25","11","45,45","2,2","272,2","ND","68,4","316,5","0"],
    [19633,"2016-04-27T11:00:00","33","14","80,95","1,6","331,5","ND","51,6","259,2","0"],
    [19634,"2016-04-27T12:00:00","39","17","81,75","2,4","14,9","ND","47,5","433,3","0"],
    [19635,"2016-04-27T13:00:00","42","9","92,13","2,9","73,2","ND","41","436,4","0"],
    [19636,"2016-04-27T14:00:00","33","12","69,08","3,1","60","ND","37,6","407,1","0"],
    [19637,"2016-04-27T15:00:00","43","16","71,21","3,9","63,9","ND","38,1","245","0"],
    [19638,"2016-04-27T16:00:00","43","17","64,01","5,6","12,3","ND","38,9","230,8","0"],
    [19639,"2016-04-27T17:00:00","37","8","23,76","5,1","349","ND","38,7","182,5","0"],
    [19640,"2016-04-27T18:00:00","31","9","15,13","3,5","16","ND","42,3","47,8","0"],
    [19641,"2016-04-27T19:00:00","34","12","12,26","2,1","86,8","ND","57,5","0","3,05"],
    [19642,"2016-04-27T20:00:00","23","11","20,47","2,7","199","ND","68","0","0"],
    [19643,"2016-04-27T21:00:00","24","9","24,77","3,7","194","ND","71,4","0","0"],
    [19644,"2016-04-27T22:00:00","19","4","18,09","4,2","200,9","ND","73,7","0","0,25"],
    [19645,"2016-04-27T23:00:00","20","3","15,31","3,2","207,9","ND","75,1","0","0"],
    [19646,"2016-04-28T00:00:00","22","5","14,89","1,8","184,4","ND","75,9","0","0"],
    [19647,"2016-04-28T01:00:00","22","4","11,36","2,6","95,2","ND","76,4","0","0"],
    [19648,"2016-04-28T02:00:00","32","11","10,34","0,9","71,6","ND","77,6","0","0"],
    [19649,"2016-04-28T03:00:00","28","9","10,26","1,7","105,1","ND","78,3","0","0"],
    [19650,"2016-04-28T04:00:00","33","8","10,66","1,7","157,7","ND","78,7","0","0"],
    [19651,"2016-04-28T05:00:00","30","9","8,67","2,9","159,6","ND","78,3","0","0"],
    [19652,"2016-04-28T06:00:00","22","8","7,77","3,4","171,2","ND","78,2","0","0"],
    [19653,"2016-04-28T07:00:00","22","9","9,5","3,2","168,3","ND","79,3","18,5","3,56"],
    [19654,"2016-04-28T08:00:00","ND","ND","9,95","2,7","167,2","ND","79,3","40,5","1,02"],
    [19655,"2016-04-28T09:00:00","ND","ND","13,23","3,8","229,6","ND","78,2","65,4","0"],
    [19656,"2016-04-28T10:00:00","27","11","22,29","2,5","237,1","ND","75,2","151,7","0"],
    [19657,"2016-04-28T11:00:00","30","10","28,75","1,3","180,7","ND","67,4","211,1","0"],
    [19658,"2016-04-28T12:00:00","27","9","43,53","1,9","158,6","ND","54,9","388","0"],
    [19659,"2016-04-28T13:00:00","27","6","47,2","2,9","139,3","ND","43,5","438,7","0"],
    [19660,"2016-04-28T14:00:00","39","19","51,08","3,8","152,7","ND","46,6","194,8","0"],
    [19661,"2016-04-28T15:00:00","35","15","54,3","2,8","159","ND","50,1","105,4","0"],
    [19662,"2016-04-28T16:00:00","41","13","48,59","1,9","161","ND","53,4","70,6","0"],
    [19663,"2016-04-28T17:00:00","40","9","26,98","5,3","3,5","ND","59,4","6,4","0,76"],
    [19664,"2016-04-28T18:00:00","26","7","14,01","4,1","15,4","ND","68,8","4,5","0,76"],
    [19665,"2016-04-28T19:00:00","39","7","8,93","3","354,7","ND","72,7","0","0"],
    [19666,"2016-04-28T20:00:00","39","15","8,26","0,7","275,6","ND","74,7","0","0"],
    [19667,"2016-04-28T21:00:00","45","14","8,65","3,2","195,4","ND","75,2","0","0"],
    [19668,"2016-04-28T22:00:00","21","7","10,66","3,3","208,2","ND","75,1","0","1,52"],
    [19669,"2016-04-28T23:00:00","21","4","12,09","2,2","221,4","ND","76,2","0","3,3"],
    [19670,"2016-04-29T00:00:00","21","5","7,56","1,5","195,5","ND","77,6","0","2,29"],
    [19671,"2016-04-29T01:00:00","7","5","6,63","1,4","134,9","ND","78","0","0"],
    [19672,"2016-04-29T02:00:00","27","5","6,5","2,4","111,2","ND","78,5","0","0,25"],
    [19673,"2016-04-29T03:00:00","35","5","4,77","1,8","96,7","ND","78,9","0","0"],
    [19674,"2016-04-29T04:00:00","29","7","13,78","1,5","93","ND","79,7","0","0"],
    [19675,"2016-04-29T05:00:00","39","16","7,28","0,5","89","ND","79,9","0","0"],
    [19676,"2016-04-29T06:00:00","51","20","4,36","1,1","107,3","ND","80,3","0","0"],
    [19677,"2016-04-29T07:00:00","40","19","3,3","0,6","233,6","ND","80,8","10,1","0"],
    [19678,"2016-04-29T08:00:00","82","39","4,51","1,8","91,6","ND","80,6","57,7","0"],
    [19679,"2016-04-29T09:00:00","82","36","7,52","1,9","99,9","ND","77,7","88,4","0"],
    [19680,"2016-04-29T10:00:00","67","33","13,17","2,1","113,2","ND","73","133,7","0"],
    [19681,"2016-04-29T11:00:00","40","14","29,1","1,3","125,7","ND","66,9","206,3","0"],
    [19682,"2016-04-29T12:00:00","39","20","67,45","0,9","196,8","ND","56,4","314","0"],
    [19683,"2016-04-29T13:00:00","49","23","80,58","1,5","114,9","ND","48,5","404,8","0"],
    [19684,"2016-04-29T14:00:00","41","11","69,25","2,2","88,1","ND","41,8","441,6","0"],
    [19685,"2016-04-29T15:00:00","39","11","56,71","2,6","68,5","ND","39,2","172,3","0"],
    [19686,"2016-04-29T16:00:00","51","17","34,54","3,8","121,9","ND","46,3","54,2","0"],
    [19687,"2016-04-29T17:00:00","66","24","28,14","2,9","85,7","ND","51,8","36,3","0"],
    [19688,"2016-04-29T18:00:00","58","21","16,07","0,4","182,5","ND","54,6","12,4","0"],
    [19689,"2016-04-29T19:00:00","80","27","5,63","2,5","108,2","ND","55,8","0,2","0"],
    [19690,"2016-04-29T20:00:00","63","15","4,51","2,3","85,1","ND","61,9","0","0"],
    [19691,"2016-04-29T21:00:00","66","16","3,89","2,2","50,5","ND","63,6","0","0"],
    [19692,"2016-04-29T22:00:00","58","18","4,4","1,8","40,3","ND","63,8","0","0"],
    [19693,"2016-04-29T23:00:00","61","17","4,16","1,7","35,3","ND","65","0","0"],
    [19694,"2016-04-30T00:00:00","62","12","4,45","2,2","71,1","ND","66,2","0","0"],
    [19695,"2016-04-30T01:00:00","50","11","3,47","1,4","88,1","ND","68,6","0","0"],
    [19696,"2016-04-30T02:00:00","44","10","3,2","1,5","189,3","ND","70,3","0","0"],
    [19697,"2016-04-30T03:00:00","42","17","2,88","2,1","174","ND","72,3","0","0"],
    [19698,"2016-04-30T04:00:00","30","6","3,06","2,4","209,3","ND","74,4","0","0"],
    [19699,"2016-04-30T05:00:00","35","7","4,12","2,2","184,4","ND","75,4","0","0"],
    [19700,"2016-04-30T06:00:00","31","13","5,38","2,9","184,3","ND","76","0","0"],
    [19701,"2016-04-30T07:00:00","42","13","6,52","1,4","155,8","ND","77,1","14,6","0"],
    [19702,"2016-04-30T08:00:00","64","17","7,75","1","97,7","ND","76,6","70","0"],
    [19703,"2016-04-30T09:00:00","57","14","14,46","1,2","63,5","ND","71,9","114,6","0"],
    [19704,"2016-04-30T10:00:00","44","11","23,21","2,7","147,6","ND","62,7","146,5","0"],
    [19705,"2016-04-30T11:00:00","38","9","32,28","3,2","199,5","ND","60","143,7","0"],
    [19706,"2016-04-30T12:00:00","34","9","47,92","3,5","207,6","ND","55,5","337,5","0"],
    [19707,"2016-04-30T13:00:00","52","27","52,45","3,4","209,1","ND","43,6","467,2","0"],
    [19708,"2016-04-30T14:00:00","41","14","47,41","3,1","165,7","ND","40,1","228,8","0"],
    [19709,"2016-04-30T15:00:00","39","12","32,85","3,2","62,3","ND","46,5","66,1","0"],
    [19710,"2016-04-30T16:00:00","40","7","15,38","5,6","34","ND","50","43,5","0"],
    [19711,"2016-04-30T17:00:00","35","12","12,17","7,1","57,2","ND","59,1","6","0,51"],
    [19712,"2016-04-30T18:00:00","26","12","14,74","4,8","200","ND","66,7","0,4","15,49"],
    [19713,"2016-04-30T19:00:00","20","6","9,42","3,3","179,3","ND","72,6","0","9,91"],
    [19714,"2016-04-30T20:00:00","33","11","5,34","2,8","87,8","ND","75,7","0","1,02"],
    [19715,"2016-04-30T21:00:00","30","7","5,79","2,6","2,1","ND","76,5","0","0,25"],
    [19716,"2016-04-30T22:00:00","20","3","7,01","0,5","4,9","ND","77,2","0","0,51"],
    [19717,"2016-04-30T23:00:00","30","8","4,85","1,5","65,5","ND","77,4","0","0"],
    [19718,"2016-05-01T00:00:00","45","11","4,02","0,7","24,1","ND","77,8","0","0"],
    [19719,"2016-05-01T01:00:00","26","5","4,59","2,3","91,5","ND","77,5","0","0"],
    [19720,"2016-05-01T02:00:00","24","ND","5,48","0,5","20,8","ND","78,4","0","0,25"],
    [19721,"2016-05-01T03:00:00","28","ND","5,55","0,6","304,6","ND","78,7","0","0"],
    [19722,"2016-05-01T04:00:00","34","7","3,71","1,6","76","ND","78,5","0","0"],
    [19723,"2016-05-01T05:00:00","40","5","4,16","2,2","110,7","ND","78,3","0","0"],
    [19724,"2016-05-01T06:00:00","41","4","3,79","1","146,2","ND","79,2","0","0"],
    [19725,"2016-05-01T07:00:00","43","10","3,77","1,3","89,9","ND","79,5","2,3","0"],
    [19726,"2016-05-01T08:00:00","49","13","4,55","2,1","99","ND","79,1","16,3","0"],
    [19727,"2016-05-01T09:00:00","40","21","6,12","1,3","103,3","ND","78,3","52,6","0"],
    [19728,"2016-05-01T10:00:00","40","14","12,11","0,9","28,2","ND","75,1","94,7","0"],
    [19729,"2016-05-01T11:00:00","32","21","15,42","2,7","94,5","ND","71,3","138,4","0,25"],
    [19730,"2016-05-01T12:00:00","44","19","27,06","0,6","59,6","ND","66,2","143,4","0"],
    [19731,"2016-05-01T13:00:00","58","23","48,02","1,1","140","ND","59,4","224,2","0"],
    [19732,"2016-05-01T14:00:00","55","25","45,8","2","109,6","ND","53,7","115,4","0"],
    [19733,"2016-05-01T15:00:00","36","20","55,73","1,3","336,3","ND","55,2","135,1","0"],
    [19734,"2016-05-01T16:00:00","38","23","64,21","2","311,3","ND","53,9","110,2","0"],
    [19735,"2016-05-01T17:00:00","56","28","64,42","2","338,7","ND","54,7","42,5","0"],
    [19736,"2016-05-01T18:00:00","79","33","47,47","1,3","359,2","ND","58,7","4,6","0"],
    [19737,"2016-05-01T19:00:00","104","47","14,19","1,9","58,5","ND","63,8","0","0"],
    [19738,"2016-05-01T20:00:00","111","42","7,12","2","77,9","ND","66,3","0","0"],
    [19739,"2016-05-01T21:00:00","89","27","6,79","2,2","97,9","ND","68,1","0","0"],
    [19740,"2016-05-01T22:00:00","72","14","4,06","0,7","46,5","ND","70,3","0","0"],
    [19741,"2016-05-01T23:00:00","79","14","3,87","2,1","70,4","ND","71","0","0"],
    [19742,"2016-05-02T00:00:00","60","10","4,34","2","77,7","ND","71,7","0","0"],
    [19743,"2016-05-02T01:00:00","35","12","5,71","1,4","3,8","ND","73,4","0","0"],
    [19744,"2016-05-02T02:00:00","44","9","5,16","1,5","153,2","ND","74,4","0","0,51"],
    [19745,"2016-05-02T03:00:00","22","2","14,5","2,8","179","ND","72,5","0","22,1"],
    [19746,"2016-05-02T04:00:00","15","ND","12,81","3,7","164,6","ND","75,7","0","43,94"],
    [19747,"2016-05-02T05:00:00","10","4","8,12","2,1","196","ND","78,7","0","5,33"],
    [19748,"2016-05-02T06:00:00","28","7","5,22","1,8","89,2","ND","80","0","5,59"],
    [19749,"2016-05-02T07:00:00","24","6","5,73","2,8","43,5","ND","80,6","8,7","2,03"],
    [19750,"2016-05-02T08:00:00","13","2","8,44","3","341,4","ND","80,6","41","0"],
    [19751,"2016-05-02T09:00:00","20","3","17,05","2,1","287,4","ND","79,7","186,5","0"],
    [19752,"2016-05-02T10:00:00","27","3","33,16","0,7","173,9","ND","65,3","323","0"],
    [19753,"2016-05-02T11:00:00","15","4","39,05","1,9","88,6","ND","50,7","422","0"],
    [19754,"2016-05-02T12:00:00","28","7","38,09","1,2","90,7","ND","44,9","367,1","0"],
    [19755,"2016-05-02T13:00:00","24","4","34,16","2,7","74,2","ND","40,2","462,5","0"],
    [19756,"2016-05-02T14:00:00","22","2","33,71","2,5","66,7","ND","37,7","428,5","0"],
    [19757,"2016-05-02T15:00:00","25","3","37,66","3,5","80,2","ND","37,6","298,8","0"],
    [19758,"2016-05-02T16:00:00","36","2","40,62","3","75,2","ND","36,9","219,5","0"],
    [19759,"2016-05-02T17:00:00","46","10","34,79","3,3","10,3","ND","40,7","24,3","0"],
    [19760,"2016-05-02T18:00:00","40","9","22,45","4,3","13","ND","50,4","9,2","0"],
    [19761,"2016-05-02T19:00:00","58","18","11,34","3,5","39,3","ND","54,9","0","0"],
    [19762,"2016-05-02T20:00:00","55","12","8,63","2,8","42,2","ND","60,2","0","0"],
    [19763,"2016-05-02T21:00:00","48","13","6,34","1,5","28,3","ND","64,9","0","0"],
    [19764,"2016-05-02T22:00:00","58","11","4,51","2,3","68,7","ND","66,7","0","0"],
    [19765,"2016-05-02T23:00:00","48","6","4,53","2,4","85,8","ND","69,7","0","0"],
    [19766,"2016-05-03T00:00:00","41","2","4,75","0,6","358,6","ND","71,5","0","0"],
    [19767,"2016-05-03T01:00:00","45","6","3,49","1,8","171","ND","73,2","0","0"],
    [19768,"2016-05-03T02:00:00","47","19","4,96","1,8","126,5","ND","73,8","0","0"],
    [19769,"2016-05-03T03:00:00","38","7","5,08","0,5","41,8","ND","74,6","0","0"],
    [19770,"2016-05-03T04:00:00","35","10","4,59","0,4","100,1","ND","74,9","0","0"],
    [19771,"2016-05-03T05:00:00","45","11","3,49","0,8","167,9","ND","75,4","0","0"],
    [19772,"2016-05-03T06:00:00","69","22","3,04","1,7","147,1","ND","76,5","0","0"],
    [19773,"2016-05-03T07:00:00","82","28","3,47","1,6","129","ND","76,8","9,5","0"],
    [19774,"2016-05-03T08:00:00","77","26","5,32","1,4","159,2","ND","76,2","127,9","0"],
    [19775,"2016-05-03T09:00:00","38","11","14,46","2,8","183,6","ND","62,8","229","0"],
    [19776,"2016-05-03T10:00:00","37","9","24,65","2,4","198,2","ND","51,7","347,6","0"],
    [19777,"2016-05-03T11:00:00","36","8","37,97","1,9","115,2","ND","43,2","381,4","0"],
    [19778,"2016-05-03T12:00:00","34","9","43,43","2,6","35,8","ND","40,5","434,6","0"],
    [19779,"2016-05-03T13:00:00","49","17","58,42","2,5","35,2","ND","38,4","414","0"],
    [19780,"2016-05-03T14:00:00","48","19","71,23","4,6","78,2","ND","36,2","368,2","0"],
    [19781,"2016-05-03T15:00:00","44","19","66,68","3,1","34,1","ND","37,6","183,8","0"],
    [19782,"2016-05-03T16:00:00","42","12","34,73","4,6","85,3","ND","38,4","135,6","0"],
    [19783,"2016-05-03T17:00:00","37","9","26,02","3","273,5","ND","39,5","47,8","0"],
    [19784,"2016-05-03T18:00:00","54","16","16,15","3,1","296,4","ND","42,3","12,5","0"],
    [19785,"2016-05-03T19:00:00","88","32","6,79","1,9","58","ND","49,3","0","0"],
    [19786,"2016-05-03T20:00:00","41","14","7,79","4,1","99,5","ND","57","0","0,76"],
    [19787,"2016-05-03T21:00:00","47","14","6,16","3,4","116,1","ND","65,2","0","0"],
    [19788,"2016-05-03T22:00:00","41","7","6,97","4","231,3","ND","67,7","0","0"],
    [19789,"2016-05-03T23:00:00","30","7","5,12","3,3","211,3","ND","68,6","0","0"],
    [19790,"2016-05-04T00:00:00","29","7","6,44","2","158,1","ND","69,9","0","0"],
    [19791,"2016-05-04T01:00:00","31","7","9,13","1,8","120,7","ND","70,6","0","0"],
    [19792,"2016-05-04T02:00:00","43","12","6,18","0,8","79,9","ND","72,1","0","0"],
    [19793,"2016-05-04T03:00:00","45","15","7,42","3,1","120,1","ND","73,3","0","0"],
    [19794,"2016-05-04T04:00:00","40","11","6,77","1,8","146,1","ND","74,6","0","6,86"],
    [19795,"2016-05-04T05:00:00","37","12","4,47","2,2","212,9","ND","77,1","0","0,76"],
    [19796,"2016-05-04T06:00:00","41","20","4,04","2,1","207,5","ND","77,8","0","2,03"],
    [19797,"2016-05-04T07:00:00","44","19","4,36","2,3","229,7","ND","78,4","14,7","0,25"],
    [19798,"2016-05-04T08:00:00","35","15","8,28","2","204,2","ND","78,4","109","0"],
    [19799,"2016-05-04T09:00:00","41","14","18,56","1,5","172,7","ND","71,7","203,7","0"],
    [19800,"2016-05-04T10:00:00","34","10","31,73","2,5","130,4","ND","54,9","304,6","0"],
    [19801,"2016-05-04T11:00:00","44","17","40,95","2,7","121,8","ND","50,6","330,3","0"],
    [19802,"2016-05-04T12:00:00","41","11","57,89","2,3","93,4","ND","44,5","428,3","0"],
    [19803,"2016-05-04T13:00:00","43","15","71,78","2,3","61,7","ND","39,5","425,3","0"],
    [19804,"2016-05-04T14:00:00","45","14","59,05","5,3","86,2","ND","38","416,8","0"],
    [19805,"2016-05-04T15:00:00","44","17","75,65","4","62,5","ND","36,9","322,1","0"],
    [19806,"2016-05-04T16:00:00","41","9","52,55","4,5","11","ND","39,5","98,6","0"],
    [19807,"2016-05-04T17:00:00","42","8","33,77","4,5","16,3","ND","40,8","84,9","0"],
    [19808,"2016-05-04T18:00:00","31","7","24,78","4,3","310","ND","39,2","37,2","0"],
    [19809,"2016-05-04T19:00:00","38","10","11,05","5","298,2","ND","44,2","0","0"],
    [19810,"2016-05-04T20:00:00","89","28","4,51","2","63,5","ND","50,6","0","0"],
    [19811,"2016-05-04T21:00:00","52","13","4,65","3","94,6","ND","59,2","0","0"],
    [19812,"2016-05-04T22:00:00","54","13","5,14","3,7","83,8","ND","64,7","0","0"],
    [19813,"2016-05-04T23:00:00","40","8","6,48","2,8","357,5","ND","65,8","0","0"],
    [19814,"2016-05-05T00:00:00","45","9","4,49","1,2","76,1","ND","66,5","0","0"],
    [19815,"2016-05-05T01:00:00","42","7","4,34","2,2","110,8","ND","67,5","0","0"],
    [19816,"2016-05-05T02:00:00","47","5","3,28","2,1","129,3","ND","70,9","0","0"],
    [19817,"2016-05-05T03:00:00","51","14","3,34","0,2","268,5","ND","72,7","0","0"],
    [19818,"2016-05-05T04:00:00","60","12","3,32","1,6","93","ND","73,7","0","0"],
    [19819,"2016-05-05T05:00:00","70","17","3,28","2,4","98,1","ND","74","0","0"],
    [19820,"2016-05-05T06:00:00","76","14","3,2","0,7","23,6","ND","74,9","0","0"],
    [19821,"2016-05-05T07:00:00","100","29","3,67","1,2","347,4","ND","76,1","18,6","0"],
    [19822,"2016-05-05T08:00:00","74","15","5,49","1","269,2","ND","74,2","76,6","0"],
    [19823,"2016-05-05T09:00:00","89","27","16,03","2,8","199,2","ND","64,8","191,5","0"],
    [19824,"2016-05-05T10:00:00","54","9","33,11","2,1","192,3","ND","54,5","275,1","0"],
    [19825,"2016-05-05T11:00:00","41","10","63,07","1,4","115,5","ND","47,3","389,2","0"],
    [19826,"2016-05-05T12:00:00","61","27","106,99","2,6","74,8","ND","42","432,7","0"],
    [19827,"2016-05-05T13:00:00","58","22","104,2","4,3","65,9","ND","38,2","350,9","0"],
    [19828,"2016-05-05T14:00:00","62","23","111,56","3,5","78,4","ND","38,6","349,9","0"],
    [19829,"2016-05-05T15:00:00","60","20","89,54","4","37,4","ND","37,7","150,5","0"],
    [19830,"2016-05-05T16:00:00","34","9","38,76","4,8","322,8","ND","38,7","91,2","0"],
    [19831,"2016-05-05T17:00:00","33","7","20,96","5,4","304,9","ND","38","60,4","0"],
    [19832,"2016-05-05T18:00:00","41","6","16,17","3,3","257,7","ND","40,8","14,1","0"],
    [19833,"2016-05-05T19:00:00","71","19","10,5","4","130,3","ND","50,6","0","0"],
    [19834,"2016-05-05T20:00:00","44","14","17,29","4,7","193,1","ND","57,6","0","0"],
    [19835,"2016-05-05T21:00:00","38","13","15,31","4,4","187,8","ND","63,4","0","0"],
    [19836,"2016-05-05T22:00:00","40","15","13,74","3,4","212,6","ND","68","0","0"],
    [19837,"2016-05-05T23:00:00","38","15","10,83","2,8","158,2","ND","70,8","0","0"],
    [19838,"2016-05-06T00:00:00","38","15","ND","2","115,1","ND","73","0","0"],
    [19839,"2016-05-06T01:00:00","49","ND","ND","2,5","107,2","ND","75,4","0","0"],
    [19840,"2016-05-06T02:00:00","38","ND","ND","2,1","219,4","ND","77,4","0","0"],
    [19841,"2016-05-06T03:00:00","42","ND","ND","1,7","135,4","ND","79,1","0","0"],
    [19842,"2016-05-06T04:00:00","45","ND","ND","1,2","95,4","ND","80,1","0","0"],
    [19843,"2016-05-06T05:00:00","71","ND","ND","2,3","36","ND","81,1","0","0"],
    [19844,"2016-05-06T06:00:00","73","ND","ND","1,3","43,5","ND","81,8","0","0"],
    [19845,"2016-05-06T07:00:00","62","ND","ND","1,1","143,2","ND","82,2","12,2","0"],
    [19846,"2016-05-06T08:00:00","57","ND","ND","3,1","197,2","ND","82,3","88,1","0"],
    [19847,"2016-05-06T09:00:00","74","ND","ND","1,5","234,4","ND","79,3","115,2","0"],
    [19848,"2016-05-06T10:00:00","69","ND","ND","2,3","107,6","ND","73,1","140","0"],
    [19849,"2016-05-06T11:00:00","42","15","29,4","1,6","132,7","ND","59,6","267,3","0"],
    [19850,"2016-05-06T12:00:00","46","11","49,31","2,7","83,6","ND","45,9","437,1","0"],
    [19851,"2016-05-06T13:00:00","57","16","ND","2,8","109,7","ND","39,8","345,2","0"],
    [19852,"2016-05-06T14:00:00","63","23","ND","3,7","49,5","ND","39,7","255,2","0"],
    [19853,"2016-05-06T15:00:00","61","11","ND","7,4","58,4","ND","48,1","79,6","0"],
    [19854,"2016-05-06T16:00:00","42","8","ND","5,9","46,9","ND","51,1","174,6","0"],
    [19855,"2016-05-06T17:00:00","52","6","ND","5,8","354,9","ND","40,9","111,5","0"],
    [19856,"2016-05-06T18:00:00","38","8","ND","3,3","293,1","ND","45,5","17","0"],
    [19857,"2016-05-06T19:00:00","57","17","ND","4,4","175,5","ND","53,7","0","0"],
    [19858,"2016-05-06T20:00:00","45","7","ND","4,4","181,4","ND","61,4","0","0"],
    [19859,"2016-05-06T21:00:00","40","15","ND","2,8","170,8","ND","65,7","0","1,02"],
    [19860,"2016-05-06T22:00:00","ND","ND","ND","2,1","81,7","ND","70,8","0","8,64"],
    [19861,"2016-05-06T23:00:00","ND","ND","ND","3,4","37,8","ND","74,5","0","16,51"],
    [19862,"2016-05-07T00:00:00","22","5","ND","1,3","16","ND","77,7","0","9,14"],
    [19863,"2016-05-07T01:00:00","ND","ND","ND","2,7","108,3","ND","79","0","3,3"],
    [19864,"2016-05-07T02:00:00","28","4","ND","2,6","170,8","ND","79,9","0","2,29"],
    [19865,"2016-05-07T03:00:00","12","ND","ND","2,4","206,4","ND","80,3","0","0,51"],
    [19866,"2016-05-07T04:00:00","12","ND","ND","2,1","188,7","ND","80,4","0","0,25"],
    [19867,"2016-05-07T05:00:00","29","6","ND","1,9","149,5","ND","80,8","0","0"],
    [19868,"2016-05-07T06:00:00","28","11","ND","2","81,7","ND","81,1","0","0"],
    [19869,"2016-05-07T07:00:00","39","20","ND","1,2","115,9","ND","81,2","0","0"],
    [19870,"2016-05-07T08:00:00","41","11","ND","0,7","121,7","ND","81","61,6","0,25"],
    [19871,"2016-05-07T09:00:00","38","10","ND","1,7","91,6","ND","75,1","187,6","0"],
    [19872,"2016-05-07T10:00:00","19","10","ND","0,2","255","ND","63,8","188,3","0"],
    [19873,"2016-05-07T11:00:00","27","6","ND","1,4","291,7","ND","54,6","294,8","0"],
    [19874,"2016-05-07T12:00:00","36","4","ND","2,7","96","ND","44,2","400,9","0"],
    [19875,"2016-05-07T13:00:00","38","10","ND","3,2","67,1","ND","41,5","260,5","0"],
    [19876,"2016-05-07T14:00:00","42","18","ND","4","78,4","ND","43,4","161,2","0"],
    [19877,"2016-05-07T15:00:00","35","7","ND","2,5","80,3","ND","42,3","169,5","0"],
    [19878,"2016-05-07T16:00:00","59","17","ND","3,6","77,1","ND","43,3","92,8","0"],
    [19879,"2016-05-07T17:00:00","ND","13","ND","2,9","7,6","ND","46,4","68,5","0"],
    [19880,"2016-05-07T18:00:00","ND","13","ND","2","52,9","ND","50,7","10,1","0"],
    [19881,"2016-05-07T19:00:00","ND","19","ND","4,8","183,6","ND","55,3","0","0"],
    [19882,"2016-05-07T20:00:00","28","8","ND","5,1","182,1","ND","64,2","0","0"],
    [19883,"2016-05-07T21:00:00","ND","11","ND","2,6","153","ND","69,6","0","0"],
    [19884,"2016-05-07T22:00:00","ND","11","ND","2,5","117,6","ND","72,9","0","0"],
    [19885,"2016-05-07T23:00:00","34","11","ND","1","179","ND","74,1","0","0"],
    [19886,"2016-05-08T00:00:00","34","11","ND","1,9","203,7","ND","73,9","0","0"],
    [19887,"2016-05-08T01:00:00","ND","10","ND","0,3","104,2","ND","74","0","0"],
    [19888,"2016-05-08T02:00:00","41","18","ND","1,8","139,6","ND","74,4","0","0"],
    [19889,"2016-05-08T03:00:00","30","11","ND","1,9","149,9","ND","75,9","0","0"],
    [19890,"2016-05-08T04:00:00","40","12","ND","1,9","89","ND","76,8","0","0"],
    [19891,"2016-05-08T05:00:00","36","11","ND","1,5","155","ND","77,7","0","0"],
    [19892,"2016-05-08T06:00:00","42","10","ND","1,2","246,7","ND","78,4","0","0"],
    [19893,"2016-05-08T07:00:00","44","9","ND","1,4","184,3","ND","78,5","14","0"],
    [19894,"2016-05-08T08:00:00","49","17","ND","1,8","134,3","ND","77,7","37,6","0"],
    [19895,"2016-05-08T09:00:00","51","16","ND","1,7","156,2","ND","74,1","154,7","0"],
    [19896,"2016-05-08T10:00:00","36","16","ND","1,9","134,8","ND","61,2","287,7","0"],
    [19897,"2016-05-08T11:00:00","30","6","ND","2,1","103","ND","49,8","260,1","0"],
    [19898,"2016-05-08T12:00:00","31","14","ND","2,4","90,6","ND","48","270,8","0"],
    [19899,"2016-05-08T13:00:00","34","20","ND","3","90,5","ND","43,7","372,2","0"],
    [19900,"2016-05-08T14:00:00","ND","20","ND","3,4","64,1","ND","41","387,1","0"],
    [19901,"2016-05-08T15:00:00","ND","22","ND","4,5","59,8","ND","40,8","281,3","0"],
    [19902,"2016-05-08T16:00:00","ND","19","ND","2,7","7","ND","41,8","79,1","0"],
    [19903,"2016-05-08T17:00:00","ND","7","ND","4","293,7","ND","43,7","42,7","0"],
    [19904,"2016-05-08T18:00:00","ND","5","ND","4,6","303,3","ND","44,4","13,7","0"],
    [19905,"2016-05-08T19:00:00","ND","4","ND","1,3","28,1","ND","49,4","0","0"],
    [19906,"2016-05-08T20:00:00","ND","15","ND","3,1","85,4","ND","56","0","0"],
    [19907,"2016-05-08T21:00:00","ND","10","ND","1,5","242,6","ND","57,4","0","0"],
    [19908,"2016-05-08T22:00:00","ND","13","ND","3,5","226,5","ND","61,8","0","0"],
    [19909,"2016-05-08T23:00:00","ND","15","ND","2,6","102,7","ND","66,7","0","0"],
    [19910,"2016-05-09T00:00:00","ND","6","ND","3","102,6","ND","66,8","0","0"],
    [19911,"2016-05-09T01:00:00","ND","6","ND","3,1","105,5","ND","68,9","0","0"],
    [19912,"2016-05-09T02:00:00","ND","6","ND","2,7","139,7","ND","71,5","0","0"],
    [19913,"2016-05-09T03:00:00","ND","6","ND","4,2","159,8","ND","72,4","0","0"],
    [19914,"2016-05-09T04:00:00","ND","3","ND","4,2","194,4","ND","72,8","0","0"],
    [19915,"2016-05-09T05:00:00","ND","2","ND","4,7","200,2","ND","73,6","0","0"],
    [19916,"2016-05-09T06:00:00","ND","1","ND","3","209,3","ND","74,5","0","0"],
    [19917,"2016-05-09T07:00:00","ND","ND","ND","1,9","152,5","ND","76,3","14,4","0"],
    [19918,"2016-05-09T08:00:00","ND","1","ND","0,8","166,9","ND","76,4","114,2","0"],
    [19919,"2016-05-09T09:00:00","ND","2","ND","1,2","180,8","ND","65","167,6","0"],
    [19920,"2016-05-09T10:00:00","ND","ND","ND","2,3","102,4","ND","55,7","244,7","0"],
    [19921,"2016-05-09T11:00:00","ND","1","ND","2,1","108,2","ND","47,2","393,4","0"],
    [19922,"2016-05-09T12:00:00","ND","5","ND","2,5","98,4","ND","39,9","479,7","0"],
    [19923,"2016-05-09T13:00:00","ND","9","ND","1,7","91,1","ND","38,4","176,1","0"],
    [19924,"2016-05-09T14:00:00","ND","7","ND","1","34,8","ND","42,8","130,9","0"],
    [19925,"2016-05-09T15:00:00","ND","11","ND","3,6","68,4","ND","44,3","87","0"],
    [19926,"2016-05-09T16:00:00","ND","ND","ND","2,1","47","ND","58,3","35","3,05"],
    [19927,"2016-05-09T17:00:00","ND","ND","ND","4,5","67,8","ND","68,4","65","0"],
    [19928,"2016-05-09T18:00:00","ND","ND","ND","ND","ND","ND","ND","ND","ND"],
    [19929,"2016-05-09T19:00:00","ND","ND","ND","2,6","10,8","ND","72","0","0"],
    [19930,"2016-05-09T20:00:00","ND","ND","ND","3","40,5","ND","74,6","0","0"],
    [19931,"2016-05-09T21:00:00","ND","ND","ND","1,9","68,3","ND","76,8","0","0"],
    [19932,"2016-05-09T22:00:00","ND","ND","ND","1","116,5","ND","78","0","0"],
    [19933,"2016-05-09T23:00:00","ND","ND","ND","2,1","187,3","ND","79,1","0","0"],
    [19934,"2016-05-10T00:00:00","ND","ND","ND","1,1","156,9","ND","79,9","0","0"],
    [19935,"2016-05-10T01:00:00","ND","ND","ND","1,5","169,1","ND","80,3","0","0"],
    [19936,"2016-05-10T02:00:00","22","ND","ND","1,9","152,7","ND","80,6","0","0,25"],
    [19937,"2016-05-10T03:00:00","ND","ND","ND","1,7","27,7","ND","80,8","0","21,08"],
    [19938,"2016-05-10T04:00:00","ND","ND","ND","2,9","261,9","ND","81,6","0","29,72"],
    [19939,"2016-05-10T05:00:00","ND","ND","ND","2,8","73,6","ND","82,7","0","8,13"],
    [19940,"2016-05-10T06:00:00","ND","ND","ND","3,7","60,5","ND","83,7","0","8,89"],
    [19941,"2016-05-10T07:00:00","ND","ND","ND","3,1","54,3","ND","84,5","0","5,84"],
    [19942,"2016-05-10T08:00:00","ND","ND","ND","ND","ND","ND","ND","ND","ND"],
    [19943,"2016-05-10T09:00:00","ND","ND","ND","ND","ND","ND","ND","ND","ND"],
    [19944,"2016-05-10T10:00:00","ND","ND","ND","ND","ND","ND","ND","ND","ND"],
    [19945,"2016-05-10T11:00:00","ND","ND","ND","ND","ND","ND","ND","ND","ND"],
    [19946,"2016-05-10T12:00:00","ND","ND","ND","ND","ND","ND","ND","ND","ND"],
    [19947,"2016-05-10T13:00:00","ND","ND","ND","ND","ND","ND","ND","ND","ND"],
    [19948,"2016-05-10T14:00:00","22","ND","ND","3,9","74,9","ND","53,4","306,5","0"],
    [19949,"2016-05-10T15:00:00","26","ND","ND","3,8","76,4","ND","53,1","208","0"],
    [19950,"2016-05-10T16:00:00","37","ND","ND","3,9","21,3","ND","55,5","38,1","0"],
    [19951,"2016-05-10T17:00:00","18","ND","ND","4,6","313,1","ND","66,1","0","1,02"],
    [19952,"2016-05-10T18:00:00","26","ND","ND","1,8","171,2","ND","72,5","0","0,51"],
    [19953,"2016-05-10T19:00:00","19","ND","ND","2,4","242,1","ND","74,9","0","0,25"],
    [19954,"2016-05-10T20:00:00","38","ND","ND","1,7","201,4","ND","76,9","0","0"],
    [19955,"2016-05-10T21:00:00","40","ND","ND","2,5","177,7","ND","78,8","0","0"],
    [19956,"2016-05-10T22:00:00","35","ND","ND","2,3","183,1","ND","80","0","0"],
    [19957,"2016-05-10T23:00:00","31","ND","ND","2","187,5","ND","81,1","0","0"],
    [19958,"2016-05-11T00:00:00","32","ND","ND","1,8","175,2","ND","81,8","0","0"],
    [19959,"2016-05-11T01:00:00","16","ND","ND","1,2","175","ND","82,5","0","0"],
    [19960,"2016-05-11T02:00:00","31","ND","ND","0,7","356,7","ND","82,8","0","0"],
    [19961,"2016-05-11T03:00:00","36","ND","ND","1","47,7","ND","83","0","0"],
    [19962,"2016-05-11T04:00:00","50","ND","ND","1,6","349,2","ND","83,3","0","0"],
    [19963,"2016-05-11T05:00:00","80","ND","ND","1,2","346,7","ND","83,6","0","1,27"],
    [19964,"2016-05-11T06:00:00","55","ND","ND","0,8","248,1","ND","83,8","0","1,27"],
    [19965,"2016-05-11T07:00:00","46","ND","ND","1,9","185,1","ND","84,2","11,9","0,25"],
    [19966,"2016-05-11T08:00:00","39","ND","ND","1","148,8","ND","84,6","73,2","0"],
    [19967,"2016-05-11T09:00:00","36","ND","ND","1,6","121,9","ND","84,1","138,1","0"],
    [19968,"2016-05-11T10:00:00","52","ND","ND","1,8","40,5","ND","84,7","191,1","0"],
    [19969,"2016-05-11T11:00:00","57","ND","40,09","2","52,3","ND","80,3","360,6","0"],
    [19970,"2016-05-11T12:00:00","ND","ND","53,3","2,4","35,7","ND","48,6","381,4","0"],
    [19971,"2016-05-11T13:00:00","37","2","59,3","2,2","64,8","ND","40,3","356,1","0"],
    [19972,"2016-05-11T14:00:00","50","15","75,9","1,1","117,2","ND","43,3","236,6","0"],
    [19973,"2016-05-11T15:00:00","58","12","101,49","3,2","20,5","ND","39,7","347,7","0"],
    [19974,"2016-05-11T16:00:00","77","26","94,02","3,9","54,3","ND","39,7","131,1","0"],
    [19975,"2016-05-11T17:00:00","ND","24","70,51","3,5","43,6","ND","43,4","102,2","0"],
    [19976,"2016-05-11T18:00:00","ND","21","49,02","2,7","27,7","ND","44,3","33,4","0"],
    [19977,"2016-05-11T19:00:00","ND","15","29,49","1,5","294,3","ND","52,3","0","0"],
    [19978,"2016-05-11T20:00:00","ND","9","6,44","2,4","270,4","ND","49,9","0","0"],
    [19979,"2016-05-11T21:00:00","ND","ND","5,61","2,5","66,6","ND","61","0","0"],
    [19980,"2016-05-11T22:00:00","ND","ND","ND","ND","ND","ND","ND","ND","ND"],
    [19981,"2016-05-11T23:00:00","ND","ND","ND","ND","ND","ND","ND","ND","ND"],
    [19982,"2016-05-12T00:00:00","ND","ND","6,34","1,4","30,9","ND","74,3","0","0"],
    [19983,"2016-05-12T01:00:00","ND","11","4,45","0,5","197","ND","73,6","0","0"],
    [19984,"2016-05-12T02:00:00","ND","11","4,53","1","138,4","ND","74,7","0","0"],
    [19985,"2016-05-12T03:00:00","ND","9","4,22","0,8","107,2","ND","75,7","0","0"],
    [19986,"2016-05-12T04:00:00","ND","25","4,96","1,4","117,8","ND","75,9","0","0"],
    [19987,"2016-05-12T05:00:00","ND","22","4,49","0,7","111","ND","78,6","0","0"],
    [19988,"2016-05-12T06:00:00","ND","30","5,08","1,5","64,3","ND","78,9","0","0"],
    [19989,"2016-05-12T07:00:00","ND","35","5,32","0,9","359,7","ND","80,1","13,7","0"],
    [19990,"2016-05-12T08:00:00","ND","47","5,59","1,4","305,8","ND","73,2","68,3","0"],
    [19991,"2016-05-12T09:00:00","ND","50","9,2","1,7","348,6","ND","66,6","127","0"],
    [19992,"2016-05-12T10:00:00","ND","25","28,98","3,6","58,6","ND","51,7","323,3","0"],
    [19993,"2016-05-12T11:00:00","40","18","55,83","2,2","66,5","ND","46,2","393,7","0"],
    [19994,"2016-05-12T12:00:00","38","9","67,53","1,6","52,8","ND","42,3","436,6","0"],
    [19995,"2016-05-12T13:00:00","48","15","70,27","2","57,4","ND","38,3","425,6","0"],
    [19996,"2016-05-12T14:00:00","55","13","74,02","2,9","68,1","ND","35,7","368,4","0"],
    [19997,"2016-05-12T15:00:00","43","13","90,5","2,5","36,7","ND","34,5","337,9","0"],
    [19998,"2016-05-12T16:00:00","49","15","78,38","3,5","65,2","ND","34,7","237,6","0"],
    [19999,"2016-05-12T17:00:00","77","22","95","3,7","32,1","ND","35,8","113,4","0"],
    [20000,"2016-05-12T18:00:00","77","15","57,44","3,3","309,9","ND","40,1","38,7","0"],
    [20001,"2016-05-12T19:00:00","65","10","26,96","5,5","264,7","ND","42,5","0,4","0"],
    [20002,"2016-05-12T20:00:00","60","10","13,17","2,5","275,6","ND","47,9","0","0"],
    [20003,"2016-05-12T21:00:00","67","16","7,87","3,4","46,9","ND","60,7","0","0"],
    [20004,"2016-05-12T22:00:00","77","18","6,75","2,9","48,4","ND","66,1","0","0"],
    [20005,"2016-05-12T23:00:00","56","14","6,08","2,2","46,8","ND","68,2","0","0"],
    [20006,"2016-05-13T00:00:00","54","7","7,4","1,9","28,3","ND","69,2","0","0"],
    [20007,"2016-05-13T01:00:00","54","14","7,54","0,1","279,7","ND","70,8","0","0"],
    [20008,"2016-05-13T02:00:00","49","11","6,12","1,9","129,6","ND","71,6","0","0"],
    [20009,"2016-05-13T03:00:00","46","9","5,85","0,4","89,8","ND","75,8","0","0"],
    [20010,"2016-05-13T04:00:00","62","13","5,28","1,8","54","ND","74,5","0","0"],
    [20011,"2016-05-13T05:00:00","74","11","5","1,7","65,4","ND","76,4","0","0"],
    [20012,"2016-05-13T06:00:00","72","20","4,95","1,5","160,2","ND","76,6","0","0"],
    [20013,"2016-05-13T07:00:00","85","22","5,71","1,9","180,7","ND","75","22,3","0"],
    [20014,"2016-05-13T08:00:00","75","23","10,62","2,6","142,3","ND","67,8","88,9","0"],
    [20015,"2016-05-13T09:00:00","64","16","21,7","2,1","152,8","ND","59,5","215,5","0"],
    [20016,"2016-05-13T10:00:00","55","11","40,94","1,7","125,8","ND","53,2","220","0"],
    [20017,"2016-05-13T11:00:00","55","16","52,06","1,9","82,9","ND","47,2","368,9","0"],
    [20018,"2016-05-13T12:00:00","64","22","68,68","2,8","54,6","ND","41,5","433,6","0"],
    [20019,"2016-05-13T13:00:00","55","16","75,16","3,2","62,9","ND","38","429","0"],
    [20020,"2016-05-13T14:00:00","48","16","68,64","3,5","55,9","ND","35,6","331","0"],
    [20021,"2016-05-13T15:00:00","53","21","78,14","3,8","68","ND","35,3","352","0"],
    [20022,"2016-05-13T16:00:00","110","60","93,25","3,8","33,3","ND","36,4","143,4","0"],
    [20023,"2016-05-13T17:00:00","53","9","48,47","4","332","ND","40","99,6","0"],
    [20024,"2016-05-13T18:00:00","73","18","44,07","4,2","282,4","ND","39,2","31,5","0"],
    [20025,"2016-05-13T19:00:00","58","13","22,14","4,5","261,8","ND","41,8","0","0"],
    [20026,"2016-05-13T20:00:00","61","19","10,83","2","42,9","ND","51,4","0","0"],
    [20027,"2016-05-13T21:00:00","70","21","7,65","3,1","41","ND","62,5","0","0"],
    [20028,"2016-05-13T22:00:00","59","16","7,81","2,2","2","ND","65","0","0"],
    [20029,"2016-05-13T23:00:00","50","4","7,48","2,1","41,8","ND","65,4","0","0"],
    [20030,"2016-05-14T00:00:00","51","16","7,3","1,6","61,6","ND","67,8","0","0"],
    [20031,"2016-05-14T01:00:00","49","14","6,38","2,6","91","ND","69","0","0"],
    [20032,"2016-05-14T02:00:00","48","8","6,55","0,7","128,8","ND","70,6","0","0"],
    [20033,"2016-05-14T03:00:00","43","8","ND","2,4","141,2","ND","71,8","0","0"],
    [20034,"2016-05-14T04:00:00","56","ND","ND","1,3","121,3","ND","78,8","0","0"],
    [20035,"2016-05-14T05:00:00","48","ND","ND","1,1","141,6","ND","83,5","0","0"],
    [20036,"2016-05-14T06:00:00","110","ND","ND","2,2","28","ND","83,9","0","0"],
    [20037,"2016-05-14T07:00:00","99","ND","ND","1,5","37,4","ND","84","14,9","0"],
    [20038,"2016-05-14T08:00:00","134","ND","ND","2,2","21,9","ND","76,4","101,7","0"],
    [20039,"2016-05-14T09:00:00","93","ND","ND","2,1","38,2","ND","61,4","231,7","0"],
    [20040,"2016-05-14T10:00:00","70","ND","ND","3,1","64,1","ND","53,8","305","0"],
    [20041,"2016-05-14T11:00:00","74","ND","ND","2,7","86,7","ND","51,3","387,9","0"],
    [20042,"2016-05-14T12:00:00","61","ND","ND","2,8","86,7","ND","44,3","438,5","0"],
    [20043,"2016-05-14T13:00:00","ND","ND","ND","4,9","51,7","ND","41","298,9","0"],
    [20044,"2016-05-14T14:00:00","64","8","58,54","5,7","45,3","ND","40,2","301,3","0"],
    [20045,"2016-05-14T15:00:00","56","9","47,18","4,9","51,2","ND","38,6","261,2","0"],
    [20046,"2016-05-14T16:00:00","45","6","34,91","3,7","26,8","ND","41,8","91,8","0"],
    [20047,"2016-05-14T17:00:00","48","6","24,59","5,7","265,7","ND","41,3","23,2","0"],
    [20048,"2016-05-14T18:00:00","45","6","15,7","4,8","265,2","ND","46","6,3","0"],
    [20049,"2016-05-14T19:00:00","37","7","9,67","5","275,3","ND","46,5","0","0"],
    [20050,"2016-05-14T20:00:00","43","10","7,63","1,4","291,1","ND","50,3","0","0"],
    [20051,"2016-05-14T21:00:00","54","14","6,3","2,5","44","ND","58,5","0","0"],
    [20052,"2016-05-14T22:00:00","46","10","5,42","3,4","46,1","ND","62,8","0","0"],
    [20053,"2016-05-14T23:00:00","43","7","5,57","2,3","318,8","ND","63,8","0","0"],
    [20054,"2016-05-15T00:00:00","53","9","4,38","2,4","121,5","ND","65,3","0","0"],
    [20055,"2016-05-15T01:00:00","39","10","10,07","2,8","195,4","ND","65,9","0","0"],
    [20056,"2016-05-15T02:00:00","37","7","23,98","4","188","ND","59,6","0","11,43"],
    [20057,"2016-05-15T03:00:00","20","5","15,25","1","255,9","ND","75,3","0","0"],
    [20058,"2016-05-15T04:00:00","25","3","6,44","2","12","ND","74,7","0","0"],
    [20059,"2016-05-15T05:00:00","34","9","7,03","1,7","12,4","ND","75,8","0","0"],
    [20060,"2016-05-15T06:00:00","35","9","4,36","2,4","229,5","ND","73,6","0","0"],
    [20061,"2016-05-15T07:00:00","39","12","4,91","2,3","185,4","ND","74,4","19,6","0"],
    [20062,"2016-05-15T08:00:00","44","13","7,54","2,6","129,2","ND","72,5","75,6","0"],
    [20063,"2016-05-15T09:00:00","35","18","14,6","2","157,1","ND","68,6","125,5","0"],
    [20064,"2016-05-15T10:00:00","44","10","30,02","0,8","93,4","ND","59,5","261,8","0"],
    [20065,"2016-05-15T11:00:00","34","10","46,49","3","112,2","ND","49","408,7","0"],
    [20066,"2016-05-15T12:00:00","34","13","54,77","2,1","97,1","ND","45,1","413,8","0"],
    [20067,"2016-05-15T13:00:00","32","9","54,36","1,8","114,4","ND","41,7","451,3","0"],
    [20068,"2016-05-15T14:00:00","34","10","52,83","3,3","90,7","ND","37,3","402,5","0"],
    [20069,"2016-05-15T15:00:00","30","9","52,87","3,8","55,8","ND","35,8","337,5","0"],
    [20070,"2016-05-15T16:00:00","33","7","47,94","3,5","53,9","ND","34,4","175","0"],
    [20071,"2016-05-15T17:00:00","38","7","43,21","4,4","61,4","ND","32,4","143,9","0"],
    [20072,"2016-05-15T18:00:00","37","13","43,94","1,1","345,1","ND","35,1","38,5","0"],
    [20073,"2016-05-15T19:00:00","30","9","34,01","5,1","257,7","ND","40,2","0","0"],
    [20074,"2016-05-15T20:00:00","48","9","14,03","1,4","294,3","ND","49,8","0","0"],
    [20075,"2016-05-15T21:00:00","58","16","7,34","3,9","71,5","ND","58,5","0","0"],
    [20076,"2016-05-15T22:00:00","46","10","7,83","2,9","62,8","ND","64,2","0","0"],
    [20077,"2016-05-15T23:00:00","30","7","9,14","2,3","42,5","ND","64,6","0","0"],
    [20078,"2016-05-16T00:00:00","53","13","7,14","1,7","167,1","ND","67,4","0","0"],
    [20079,"2016-05-16T01:00:00","43","12","5,26","2,6","151,3","ND","69,9","0","0"],
    [20080,"2016-05-16T02:00:00","43","7","3,89","3","70,4","ND","71,4","0","0"],
    [20081,"2016-05-16T03:00:00","54","5","5,26","2,4","91,9","ND","72,9","0","0"],
    [20082,"2016-05-16T04:00:00","34","4","4,3","2,1","133,4","ND","74","0","0"],
    [20083,"2016-05-16T05:00:00","39","3","3,96","2,3","143,1","ND","74,2","0","0"],
    [20084,"2016-05-16T06:00:00","52","7","3,81","1,4","125,1","ND","75,7","0","0"],
    [20085,"2016-05-16T07:00:00","69","18","4,04","3","96,4","ND","72,5","20,9","0"],
    [20086,"2016-05-16T08:00:00","38","8","6,12","2,6","144,6","ND","63,5","117,9","0"],
    [20087,"2016-05-16T09:00:00","45","8","18,64","2,5","159,2","ND","52,4","214,3","0"],
    [20088,"2016-05-16T10:00:00","45","11","28,08","3","73,7","ND","47","225,7","0"],
    [20089,"2016-05-16T11:00:00","48","13","39,8","2,6","61,9","ND","46,3","217,9","0"],
    [20090,"2016-05-16T12:00:00","44","12","41,78","3","56,6","ND","45","294,2","0"],
    [20091,"2016-05-16T13:00:00","35","14","50,49","3,1","40,7","ND","40","395","0"],
    [20092,"2016-05-16T14:00:00","43","14","64,72","3,2","34,4","ND","38","398,5","0"],
    [20093,"2016-05-16T15:00:00","42","10","78,24","3","106,8","ND","37,6","324,9","0"],
    [20094,"2016-05-16T16:00:00","50","12","81,03","2,7","99","ND","34,9","223,9","0"],
    [20095,"2016-05-16T17:00:00","47","18","65,84","1,9","85,3","ND","37,4","52,8","0"],
    [20096,"2016-05-16T18:00:00","49","15","51,3","2,4","256,5","ND","40,9","11,2","0"],
    [20097,"2016-05-16T19:00:00","52","12","19,51","4,9","256,2","ND","41,3","0","0"],
    [20098,"2016-05-16T20:00:00","68","17","10,66","2,5","295,3","ND","46,1","0","0"],
    [20099,"2016-05-16T21:00:00","57","16","7,4","3,8","61,9","ND","56,9","0","0"],
    [20100,"2016-05-16T22:00:00","49","13","8,03","3,2","47,7","ND","61,4","0","0"],
    [20101,"2016-05-16T23:00:00","26","11","9,18","2,3","30","ND","63,8","0","0"],
    [20102,"2016-05-17T00:00:00","35","7","7,85","2,7","190","ND","62,5","0","0"],
    [20103,"2016-05-17T01:00:00","29","6","9,07","2,8","171,1","ND","64,3","0","0"],
    [20104,"2016-05-17T02:00:00","33","6","7,91","3,7","187","ND","66,5","0","0"],
    [20105,"2016-05-17T03:00:00","28","6","10,91","3","146,1","ND","69","0","0"],
    [20106,"2016-05-17T04:00:00","26","7","12,03","1,9","146,7","ND","73,2","0","0"],
    [20107,"2016-05-17T05:00:00","41","11","9,91","1,5","149,3","ND","73,9","0","0"],
    [20108,"2016-05-17T06:00:00","44","14","5,67","1,2","172,4","ND","74,5","0,1","0"],
    [20109,"2016-05-17T07:00:00","76","31","4,98","2,5","100,3","ND","73,1","42","0"],
    [20110,"2016-05-17T08:00:00","54","17","10,2","2","129,2","ND","65,6","122,7","0"],
    [20111,"2016-05-17T09:00:00","50","14","21,59","3,2","122,7","ND","53,8","222,1","0"],
    [20112,"2016-05-17T10:00:00","46","9","27,22","2,5","143,8","ND","56,8","303,2","0"],
    [20113,"2016-05-17T11:00:00","42","16","39,27","1,5","128,3","ND","49,1","271,7","0"],
    [20114,"2016-05-17T12:00:00","46","7","49,37","2,7","73,7","ND","45,8","304,2","0"],
    [20115,"2016-05-17T13:00:00","55","16","60,66","3,1","93,8","ND","44","330","0"],
    [20116,"2016-05-17T14:00:00","55","15","71,96","3,1","72","ND","39,2","401,1","0"],
    [20117,"2016-05-17T15:00:00","52","19","69,9","3,9","71,7","ND","38,2","281,3","0"],
    [20118,"2016-05-17T16:00:00","58","19","78,28","3,2","62,1","ND","39,4","205,5","0"],
    [20119,"2016-05-17T17:00:00","54","12","59,54","1,3","304,7","ND","40,3","117,2","0"],
    [20120,"2016-05-17T18:00:00","41","7","27,32","6,5","274,5","ND","45,4","18,5","0"],
    [20121,"2016-05-17T19:00:00","41","3","10,26","4,4","273","ND","49,6","0","0"],
    [20122,"2016-05-17T20:00:00","53","4","8,03","1,1","344,9","ND","55,3","0","0"],
    [20123,"2016-05-17T21:00:00","48","6","7,85","4,9","37","ND","62,9","0","0"],
    [20124,"2016-05-17T22:00:00","38","9","8,4","3,7","32","ND","66,3","0","0"],
    [20125,"2016-05-17T23:00:00","35","7","6,71","2,3","32,1","ND","70,4","0","0"],
    [20126,"2016-05-18T00:00:00","24","5","6,69","0,7","132,1","ND","71,3","0","0"],
    [20127,"2016-05-18T01:00:00","16","4","8,38","0,3","145,8","ND","73,6","0","0"],
    [20128,"2016-05-18T02:00:00","24","3","6,93","2,9","188,7","ND","77,6","0","0"],
    [20129,"2016-05-18T03:00:00","27","ND","5,02","2,4","168,6","ND","78,7","0","0"],
    [20130,"2016-05-18T04:00:00","35","ND","5,18","3,2","123,2","ND","78,7","0","0"],
    [20131,"2016-05-18T05:00:00","46","5","4,95","2,2","83,3","ND","79,1","0","0"],
    [20132,"2016-05-18T06:00:00","55","16","4,14","1,6","63,8","ND","79,7","0","0"],
    [20133,"2016-05-18T07:00:00","61","16","4,16","2,9","62,5","ND","79,8","10,7","0"],
    [20134,"2016-05-18T08:00:00","64","15","5,18","2,1","345,3","ND","79,1","47,6","0"],
    [20135,"2016-05-18T09:00:00","68","20","7,54","2","41,4","ND","72","77,9","0"],
    [20136,"2016-05-18T10:00:00","52","13","13,58","2,4","83,9","ND","65,8","180,1","0"],
    [20137,"2016-05-18T11:00:00","53","18","27,51","1,5","94,7","ND","57,6","242,3","0"],
    [20138,"2016-05-18T12:00:00","51","12","41,21","3,2","46,6","ND","55,8","232,3","0"],
    [20139,"2016-05-18T13:00:00","44","14","51,28","2,4","39,4","ND","49,5","345,2","0"],
    [20140,"2016-05-18T14:00:00","46","16","64,8","3","46,8","ND","45,3","365,3","0"],
    [20141,"2016-05-18T15:00:00","43","22","72,25","3,4","64","ND","41,4","321","0"],
    [20142,"2016-05-18T16:00:00","48","16","65,52","4,3","58,1","ND","41,3","237","0"],
    [20143,"2016-05-18T17:00:00","53","17","52,81","3,5","54,1","ND","45,3","69,1","0"],
    [20144,"2016-05-18T18:00:00","57","15","29,71","2,2","346,9","ND","49,7","13,4","0"],
    [20145,"2016-05-18T19:00:00","62","18","10,5","3,4","352,4","ND","57,2","0","0"],
    [20146,"2016-05-18T20:00:00","70","26","11,13","3","271,6","ND","57,3","0","0"],
    [20147,"2016-05-18T21:00:00","43","10","6,52","3,9","47,6","ND","66,8","0","0"],
    [20148,"2016-05-18T22:00:00","58","25","6,34","3,3","26,6","ND","71,7","0","0"],
    [20149,"2016-05-18T23:00:00","37","6","6","0,9","282,4","ND","72,5","0","0"],
    [20150,"2016-05-19T00:00:00","56","15","5,83","3","164,6","ND","73,5","0","0"],
    [20151,"2016-05-19T01:00:00","33","9","4,75","1,9","85,6","ND","75,1","0","0"],
    [20152,"2016-05-19T02:00:00","68","9","4,4","2,2","126,7","ND","78,7","0","1,02"],
    [20153,"2016-05-19T03:00:00","21","9","6,57","2,9","338,6","ND","82,9","0","1,52"],
    [20154,"2016-05-19T04:00:00","24","6","7,42","3,7","329,9","ND","86,7","0","2,03"],
    [20155,"2016-05-19T05:00:00","24","5","6,38","0,9","358,7","ND","87,3","0","2,03"],
    [20156,"2016-05-19T06:00:00","39","8","5,83","2","67,2","ND","86,6","0","0,76"],
    [20157,"2016-05-19T07:00:00","59","23","4,26","1,6","51,2","ND","87,3","26,8","0"],
    [20158,"2016-05-19T08:00:00","47","21","6,04","1,9","58,2","ND","82,1","102","0"],
    [20159,"2016-05-19T09:00:00","40","13","15,86","0,8","199,9","ND","67,8","171","0"],
    [20160,"2016-05-19T10:00:00","48","16","23,67","1,9","123,3","ND","64,2","184,4","0"],
    [20161,"2016-05-19T11:00:00","44","9","35,4","2,9","71,2","ND","56,2","291,2","0"],
    [20162,"2016-05-19T12:00:00","48","19","58,22","1,4","79,6","ND","51,2","457,3","0"],
    [20163,"2016-05-19T13:00:00","51","20","59,6","2,1","62","ND","49","211,9","0"],
    [20164,"2016-05-19T14:00:00","64","19","53,46","4,3","46,8","ND","53,4","152","0"],
    [20165,"2016-05-19T15:00:00","70","26","65,13","3,2","33,4","ND","53,2","249,2","0"],
    [20166,"2016-05-19T16:00:00","63","15","97,14","3","337,3","ND","49,6","83,7","0"],
    [20167,"2016-05-19T17:00:00","89","36","44,68","3,4","30,1","ND","57,1","26,6","0"],
    [20168,"2016-05-19T18:00:00","59","12","15,27","2,4","346,9","ND","61,6","15,2","0"],
    [20169,"2016-05-19T19:00:00","52","14","14,36","1,8","235,8","ND","59,6","0","0"],
    [20170,"2016-05-19T20:00:00","69","22","5,49","2,6","58,1","ND","68,4","0","0"],
    [20171,"2016-05-19T21:00:00","69","17","5,24","2,3","39,4","ND","75,3","0","0"],
    [20172,"2016-05-19T22:00:00","69","19","4,79","3","41,6","ND","77,6","0","0"],
    [20173,"2016-05-19T23:00:00","62","8","5,1","3,1","45,1","ND","79,4","0","0"],
    [20174,"2016-05-20T00:00:00","43","7","5,63","1,6","28,5","ND","78,8","0","0"],
    [20175,"2016-05-20T01:00:00","48","10","3,94","1,9","177,7","ND","79,7","0","0"],
    [20176,"2016-05-20T02:00:00","55","11","4,26","1,8","121,4","ND","79,7","0","0"],
    [20177,"2016-05-20T03:00:00","45","15","4,53","2,1","140,5","ND","79,3","0","0"],
    [20178,"2016-05-20T04:00:00","48","14","4,73","1,9","163,8","ND","80,4","0","0"],
    [20179,"2016-05-20T05:00:00","57","15","4,38","1,8","121","ND","81,3","0","0"],
    [20180,"2016-05-20T06:00:00","70","18","3,98","1,4","157,6","ND","83","0","0"],
    [20181,"2016-05-20T07:00:00","101","28","3,89","2,3","60,8","ND","83,8","9,8","0"],
    [20182,"2016-05-20T08:00:00","95","30","4,63","2,3","50,6","ND","79,6","86,5","0"],
    [20183,"2016-05-20T09:00:00","78","28","11,21","1,5","44,3","ND","66,7","168,2","0"],
    [20184,"2016-05-20T10:00:00","58","15","37,83","1,1","136,6","ND","54","297,7","0"],
    [20185,"2016-05-20T11:00:00","45","13","63,48","2","142,6","ND","48,5","383,5","0"],
    [20186,"2016-05-20T12:00:00","58","14","75,57","3,6","64,3","ND","45,6","433,5","0"],
    [20187,"2016-05-20T13:00:00","61","24","88,17","3,4","33,7","ND","43,6","415","0"],
    [20188,"2016-05-20T14:00:00","55","22","92,57","3,2","42,3","ND","44","289,3","0"],
    [20189,"2016-05-20T15:00:00","59","18","88,7","2,8","36,8","ND","46,7","148,1","0"],
    [20190,"2016-05-20T16:00:00","60","16","64,07","3,3","50,2","ND","48,9","108,1","0"],
    [20191,"2016-05-20T17:00:00","49","12","51","1,2","200,7","ND","46,5","83,3","0"],
    [20192,"2016-05-20T18:00:00","47","8","25,57","3,6","275,5","ND","45,9","18,5","0"],
    [20193,"2016-05-20T19:00:00","38","6","12,81","5","264,5","ND","52,3","0","0"],
    [20194,"2016-05-20T20:00:00","65","14","5,99","1,3","277,3","ND","57,4","0","0"],
    [20195,"2016-05-20T21:00:00","59","18","5,79","3,7","73,2","ND","70,9","0","0"],
    [20196,"2016-05-20T22:00:00","50","11","4,16","1,9","356,1","ND","74","0","0"],
    [20197,"2016-05-20T23:00:00","46","10","4,93","2,8","51,9","ND","75,6","0","0"],
    [20198,"2016-05-21T00:00:00","37","5","6,2","3,3","35,7","ND","77,3","0","0"],
    [20199,"2016-05-21T01:00:00","31","9","6,59","1,3","74,7","ND","76,4","0","0"],
    [20200,"2016-05-21T02:00:00","48","9","ND","2","164,2","ND","77,2","0","0"],
    [20201,"2016-05-21T03:00:00","74","ND","ND","2,8","169,1","ND","79,6","0","0"],
    [20202,"2016-05-21T04:00:00","84","ND","ND","2","164,5","ND","81,2","0","0"],
    [20203,"2016-05-21T05:00:00","63","ND","ND","2,1","149","ND","81,8","0","0"],
    [20204,"2016-05-21T06:00:00","80","ND","ND","1,1","122,1","ND","83","0","0"],
    [20205,"2016-05-21T07:00:00","82","ND","ND","1,7","91,6","ND","83,3","18,5","0"],
    [20206,"2016-05-21T08:00:00","77","ND","ND","2","132,9","ND","72,3","124,7","0"],
    [20207,"2016-05-21T09:00:00","62","ND","ND","3,3","143,3","ND","75,5","222","0"],
    [20208,"2016-05-21T10:00:00","62","9","ND","2,6","110,7","ND","89,1","322,1","0"],
    [20209,"2016-05-21T11:00:00","ND","ND","ND","2,5","63,3","ND","86,7","381,6","0"],
    [20210,"2016-05-21T12:00:00","ND","ND","ND","3,1","74,5","ND","45","378,3","0"],
    [20211,"2016-05-21T13:00:00","55","13","65,25","3,3","67,6","ND","43,6","394,7","0"],
    [20212,"2016-05-21T14:00:00","63","14","83,68","2,4","20,4","ND","43,2","241,4","0"],
    [20213,"2016-05-21T15:00:00","56","15","93,78","2,4","24,4","ND","42,3","266,4","0"],
    [20214,"2016-05-21T16:00:00","56","17","76,67","1,8","21,3","ND","43,3","65,1","0"],
    [20215,"2016-05-21T17:00:00","51","20","64,15","1,6","54,5","ND","46,6","47,6","0"],
    [20216,"2016-05-21T18:00:00","41","4","24,24","4,6","252,8","ND","47,1","5,5","0"],
    [20217,"2016-05-21T19:00:00","39","2","12,17","5,7","249,3","ND","52,6","0","0"],
    [20218,"2016-05-21T20:00:00","37","2","8,61","3,7","266,1","ND","55,1","0","0"],
    [20219,"2016-05-21T21:00:00","58","18","6,36","3,2","55,4","ND","64,1","0","0"],
    [20220,"2016-05-21T22:00:00","45","6","5,08","1","172,3","ND","68,9","0","0"],
    [20221,"2016-05-21T23:00:00","47","6","4,91","2,5","49,6","ND","71","0","0"],
    [20222,"2016-05-22T00:00:00","37","8","3,65","0,2","322,5","ND","73,8","0","0"],
    [20223,"2016-05-22T01:00:00","60","13","6,42","2,6","203,6","ND","70","0","0"],
    [20224,"2016-05-22T02:00:00","79","16","5,61","3,2","93,8","ND","73,6","0","0"],
    [20225,"2016-05-22T03:00:00","28","4","5,28","1,3","107,1","ND","76,1","0","0"],
    [20226,"2016-05-22T04:00:00","47","7","3,79","1,1","190,1","ND","80,1","0","0"],
    [20227,"2016-05-22T05:00:00","48","14","3,79","1,2","107,6","ND","82,7","0","0"],
    [20228,"2016-05-22T06:00:00","37","9","3,91","1,9","89,3","ND","83,5","0","0"],
    [20229,"2016-05-22T07:00:00","49","14","4,93","2,1","165,2","ND","83,8","23,4","0"],
    [20230,"2016-05-22T08:00:00","45","17","9,11","2,7","169,1","ND","75,2","86,7","0"],
    [20231,"2016-05-22T09:00:00","55","14","15,78","2,4","161,3","ND","67","162,4","0"],
    [20232,"2016-05-22T10:00:00","48","18","29,77","2,5","152,2","ND","59,5","244,1","0"],
    [20233,"2016-05-22T11:00:00","50","18","50,69","1,9","103,9","ND","53,3","352,9","0"],
    [20234,"2016-05-22T12:00:00","43","14","56,69","3,2","46,3","ND","45,9","453,3","0"],
    [20235,"2016-05-22T13:00:00","43","16","67","2,5","17,1","ND","43,4","375,3","0"],
    [20236,"2016-05-22T14:00:00","47","17","69,06","3,9","28,7","ND","41,2","375,2","0"],
    [20237,"2016-05-22T15:00:00","50","19","65,43","4,7","23,2","ND","42","236,9","0"],
    [20238,"2016-05-22T16:00:00","49","10","38,4","4,7","39,2","ND","42,9","90,7","0"],
    [20239,"2016-05-22T17:00:00","35","8","28,67","2","307,7","ND","45,8","92,9","0"],
    [20240,"2016-05-22T18:00:00","32","6","29,08","4,9","255,7","ND","45,6","26,4","0"],
    [20241,"2016-05-22T19:00:00","38","7","17,11","4,6","273,1","ND","52,1","0","0"],
    [20242,"2016-05-22T20:00:00","26","4","13,7","4,5","265,6","ND","54,4","0","0"],
    [20243,"2016-05-22T21:00:00","42","5","6,06","4","65","ND","66,2","0","0"],
    [20244,"2016-05-22T22:00:00","43","8","6,04","4","39,1","ND","71,8","0","0"],
    [20245,"2016-05-22T23:00:00","37","8","6,91","2,9","33,6","ND","70,3","0","0"],
    [20246,"2016-05-23T00:00:00","31","8","6,61","1,6","43","ND","72,6","0","0"],
    [20247,"2016-05-23T01:00:00","32","4","5,61","1,8","122,3","ND","76","0","0"],
    [20248,"2016-05-23T02:00:00","28","2","6,34","1,3","118,2","ND","76,1","0","0"],
    [20249,"2016-05-23T03:00:00","40","2","3,71","1,8","77,2","ND","78,8","0","0"],
    [20250,"2016-05-23T04:00:00","48","3","3,43","0,6","345,7","ND","81,3","0","0"],
    [20251,"2016-05-23T05:00:00","55","5","3,71","1,8","142,1","ND","82,9","0","0"],
    [20252,"2016-05-23T06:00:00","65","13","3,67","1,7","129,1","ND","82","0","0"],
    [20253,"2016-05-23T07:00:00","95","24","4,3","1,5","124,3","ND","83","30,7","0"],
    [20254,"2016-05-23T08:00:00","84","23","5,61","3,1","74,6","ND","71,5","120,9","0"],
    [20255,"2016-05-23T09:00:00","79","21","15,23","3,4","75,2","ND","59,6","224,7","0"],
    [20256,"2016-05-23T10:00:00","51","11","31,28","2","77,4","ND","50,8","315,5","0"],
    [20257,"2016-05-23T11:00:00","47","17","43,03","2,2","58,7","ND","47,5","383,3","0"],
    [20258,"2016-05-23T12:00:00","72","21","64,52","2","47,6","ND","42,7","419,8","0"],
    [20259,"2016-05-23T13:00:00","65","22","78,51","4,7","48,7","ND","39,4","422,4","0"],
    [20260,"2016-05-23T14:00:00","79","29","94,66","4,3","25","ND","38,4","346,3","0"],
    [20261,"2016-05-23T15:00:00","48","10","66,17","5,2","27","ND","40,5","227,4","0"],
    [20262,"2016-05-23T16:00:00","ND","ND","39,66","3,9","349,8","ND","40,8","116,3","0"],
    [20263,"2016-05-23T17:00:00","45","13","31,44","3,9","345","ND","40","91","0"],
    [20264,"2016-05-23T18:00:00","57","10","26,81","3,5","279","ND","44,2","8,6","0"],
    [20265,"2016-05-23T19:00:00","52","6","13,7","5,8","261,8","ND","52","0","0"],
    [20266,"2016-05-23T20:00:00","47","10","5,89","2,3","297,3","ND","56,1","0","0"],
    [20267,"2016-05-23T21:00:00","50","12","6,24","4","55,4","ND","69,2","0","0"],
    [20268,"2016-05-23T22:00:00","47","16","5,67","2,5","42,8","ND","72,7","0","0"],
    [20269,"2016-05-23T23:00:00","41","9","6,2","2,9","39,6","ND","71,2","0","0"],
    [20270,"2016-05-24T00:00:00","44","7","6,52","2,3","57,3","ND","72,7","0","0"],
    [20271,"2016-05-24T01:00:00","36","5","6,02","2,2","76,8","ND","73,7","0","0"],
    [20272,"2016-05-24T02:00:00","42","7","5,36","2,7","107,8","ND","74,9","0","0"],
    [20273,"2016-05-24T03:00:00","36","7","5","1,6","211,9","ND","78,1","0","0"],
    [20274,"2016-05-24T04:00:00","46","11","4,47","1,1","163,5","ND","79","0","0"],
    [20275,"2016-05-24T05:00:00","56","15","5,77","2,8","174,8","ND","78","0","0"],
    [20276,"2016-05-24T06:00:00","78","24","4,4","2","79,8","ND","79,4","0","0"],
    [20277,"2016-05-24T07:00:00","92","30","4,67","2,7","72,6","ND","81,2","15,1","0"],
    [20278,"2016-05-24T08:00:00","78","17","6,28","2,3","129,2","ND","73,8","55,8","0"],
    [20279,"2016-05-24T09:00:00","56","14","10,01","2,3","95,3","ND","63,9","134,1","0"],
    [20280,"2016-05-24T10:00:00","59","16","17,05","2,6","79,3","ND","55,2","202,6","0"],
    [20281,"2016-05-24T11:00:00","71","22","32,36","2,3","72,4","ND","52,6","317","0"],
    [20282,"2016-05-24T12:00:00","68","21","52,02","3,1","60,2","ND","47,2","330,3","0"],
    [20283,"2016-05-24T13:00:00","58","17","53,44","4,2","44,1","ND","41,4","345,8","0"],
    [20284,"2016-05-24T14:00:00","57","12","61,32","5,1","43,6","ND","43","341,7","0"],
    [20285,"2016-05-24T15:00:00","54","13","56,99","4,8","39,9","ND","43,4","218,7","0"],
    [20286,"2016-05-24T16:00:00","64","17","40,52","2,4","329,9","ND","45,4","53,8","0"],
    [20287,"2016-05-24T17:00:00","83","15","22,76","4,8","258,8","ND","47,7","47,4","0"],
    [20288,"2016-05-24T18:00:00","43","4","19,13","5,2","253","ND","48,4","18,2","0"],
    [20289,"2016-05-24T19:00:00","67","13","10,09","1,7","278,3","ND","54,5","0","0"],
    [20290,"2016-05-24T20:00:00","41","7","7,59","3,1","260,1","ND","55,8","0","0"],
    [20291,"2016-05-24T21:00:00","50","6","5,42","3,8","52,9","ND","66,2","0","0"],
    [20292,"2016-05-24T22:00:00","40","7","6,04","2,6","87,6","ND","67,5","0","0"],
    [20293,"2016-05-24T23:00:00","31","5","6,97","2,4","66,7","ND","68,7","0","0"],
    [20294,"2016-05-25T00:00:00","29","9","6,08","2,1","64,5","ND","71,3","0","0"],
    [20295,"2016-05-25T01:00:00","21","6","10,87","1,6","171,7","ND","76,9","0","2,03"],
    [20296,"2016-05-25T02:00:00","38","10","8,14","1,3","108,2","ND","82,4","0","0"],
    [20297,"2016-05-25T03:00:00","51","9","4,34","0,7","108,6","ND","82,7","0","0"],
    [20298,"2016-05-25T04:00:00","59","6","4,4","2,1","187,6","ND","82","0","0"],
    [20299,"2016-05-25T05:00:00","62","10","4,04","2,1","175,5","ND","81,4","0","0"],
    [20300,"2016-05-25T06:00:00","78","19","3,94","2,1","150,7","ND","84,1","0","0"],
    [20301,"2016-05-25T07:00:00","73","26","4,24","1,9","159,4","ND","83,6","25,2","0"],
    [20302,"2016-05-25T08:00:00","70","21","5,48","2,5","136,9","ND","78","67,4","0"],
    [20303,"2016-05-25T09:00:00","48","13","9,91","1,4","165,9","ND","69","186,8","0"],
    [20304,"2016-05-25T10:00:00","68","18","22,41","2","117,9","ND","56,8","299","0"],
    [20305,"2016-05-25T11:00:00","56","17","40,88","2,2","58,1","ND","49,2","367,7","0"],
    [20306,"2016-05-25T12:00:00","45","11","47","2,7","55,5","ND","42,8","424,7","0"],
    [20307,"2016-05-25T13:00:00","45","12","65,27","2,6","355,4","ND","40,1","357,2","0"],
    [20308,"2016-05-25T14:00:00","65","19","82,07","3,2","17,7","ND","37,2","364,7","0"],
    [20309,"2016-05-25T15:00:00","58","16","84,72","4,7","47,4","ND","35,9","325,3","0"],
    [20310,"2016-05-25T16:00:00","51","19","70,12","4","60,9","ND","34,7","138,5","0"],
    [20311,"2016-05-25T17:00:00","71","18","49,65","3,1","20,1","ND","39,7","39,9","0"],
    [20312,"2016-05-25T18:00:00","56","9","25,88","4,1","259,5","ND","46,5","10","0"],
    [20313,"2016-05-25T19:00:00","60","16","18,62","5","269,2","ND","50,2","0","0"],
    [20314,"2016-05-25T20:00:00","42","10","14,89","2,7","261","ND","53,3","0","0"],
    [20315,"2016-05-25T21:00:00","68","21","13,85","3,4","152","ND","61,4","0","0"],
    [20316,"2016-05-25T22:00:00","42","15","20,02","2,9","227,3","ND","65,7","0","0,25"],
    [20317,"2016-05-25T23:00:00","36","34","12,46","2,9","198,6","ND","71","0","0"],
    [20318,"2016-05-26T00:00:00","32","6","13,34","2,1","108,4","ND","77,4","0","0"],
    [20319,"2016-05-26T01:00:00","30","7","16,64","1,6","124,1","ND","78,8","0","0"],
    [20320,"2016-05-26T02:00:00","23","7","19,8","1,4","126,7","ND","76,3","0","0"],
    [20321,"2016-05-26T03:00:00","34","14","13,58","2,4","94,3","ND","80,6","0","0,76"],
    [20322,"2016-05-26T04:00:00","34","12","12,95","2,9","115","ND","83,6","0","0,25"],
    [20323,"2016-05-26T05:00:00","33","13","9,07","3,8","83,1","ND","85,6","0","7,37"],
    [20324,"2016-05-26T06:00:00","25","7","12,01","3,4","359,8","ND","86","0","1,78"],
    [20325,"2016-05-26T07:00:00","24","3","7,22","1,2","298,8","ND","86","0","3,3"],
    [20326,"2016-05-26T08:00:00","33","13","7,22","2,6","119,6","ND","85,3","29,3","0,25"],
    [20327,"2016-05-26T09:00:00","25","12","11,64","3,5","140,5","ND","82","59,5","0"],
    [20328,"2016-05-26T10:00:00","35","5","10,34","2,9","116,1","ND","80,8","55,6","0"],
    [20329,"2016-05-26T11:00:00","36","6","13,91","2,6","35,4","ND","76","80,5","0"],
    [20330,"2016-05-26T12:00:00","47","23","12,95","2,1","22,8","ND","75,6","65,1","0,25"],
    [20331,"2016-05-26T13:00:00","39","18","12,93","2,6","82","ND","75,7","71,6","0"],
    [20332,"2016-05-26T14:00:00","34","9","13,82","3","105","ND","76,7","71,6","0,25"],
    [20333,"2016-05-26T15:00:00","33","6","25,29","1,6","169,9","ND","73","169,4","0"],
    [20334,"2016-05-26T16:00:00","28","13","35,56","4,1","213,1","ND","66,5","140,1","0"],
    [20335,"2016-05-26T17:00:00","41","11","36,99","2,9","188,6","ND","65,5","64","0"],
    [20336,"2016-05-26T18:00:00","50","16","20,37","2,4","111,4","ND","68,5","22,1","0"],
    [20337,"2016-05-26T19:00:00","99","25","8,97","2,9","29,9","ND","75,7","0","0"],
    [20338,"2016-05-26T20:00:00","53","15","12,17","1","298,6","ND","78,5","0","0"],
    [20339,"2016-05-26T21:00:00","53","12","11,24","2,2","241,5","ND","77,2","0","0"],
    [20340,"2016-05-26T22:00:00","75","21","4,87","3","219,9","ND","77,7","0","0"],
    [20341,"2016-05-26T23:00:00","84","21","4,16","1,5","69,7","ND","80","0","0"],
    [20342,"2016-05-27T00:00:00","78","19","4,83","3,4","75","ND","84,6","0","0"],
    [20343,"2016-05-27T01:00:00","66","16","4,22","1,7","294,2","ND","86,4","0","0"],
    [20344,"2016-05-27T02:00:00","63","18","4,2","1,7","3,4","ND","87,5","0","0"],
    [20345,"2016-05-27T03:00:00","64","12","4,18","1,9","59,1","ND","87,4","0","0"],
    [20346,"2016-05-27T04:00:00","57","12","4,18","0,6","183,4","ND","88,1","0","0"],
    [20347,"2016-05-27T05:00:00","67","17","4,18","2","173","ND","88,3","0","0"],
    [20348,"2016-05-27T06:00:00","74","19","4,32","2,4","98,9","ND","86,5","0","0"],
    [20349,"2016-05-27T07:00:00","131","42","4,26","1,9","79,4","ND","88,9","5,1","0"],
    [20350,"2016-05-27T08:00:00","72","32","5,75","1,9","170,1","ND","88,8","72,4","0"],
    [20351,"2016-05-27T09:00:00","62","24","11,38","1,5","139","ND","77,4","197,9","0"],
    [20352,"2016-05-27T10:00:00","84","41","27,12","2,9","44,4","ND","64,7","292,4","0"],
    [20353,"2016-05-27T11:00:00","59","27","49,37","2,7","49,3","ND","54","370,5","0"],
    [20354,"2016-05-27T12:00:00","62","28","75,67","2,2","1,8","ND","47,7","389,5","0"],
    [20355,"2016-05-27T13:00:00","73","35","98,39","2,3","352,7","ND","44","420,4","0"],
    [20356,"2016-05-27T14:00:00","63","19","81,75","3,2","33,3","ND","42,1","337,9","0"],
    [20357,"2016-05-27T15:00:00","51","14","67,35","3,5","36,4","ND","42,6","207","0"],
    [20358,"2016-05-27T16:00:00","60","19","52,94","3,3","45,5","ND","47,2","64,8","0"],
    [20359,"2016-05-27T17:00:00","73","17","37,72","2,2","337","ND","49,2","33,3","0"],
    [20360,"2016-05-27T18:00:00","45","6","16,9","4,6","258,2","ND","52,8","16,9","0"],
    [20361,"2016-05-27T19:00:00","59","14","5,49","2","290,5","ND","53,8","0","0"],
    [20362,"2016-05-27T20:00:00","75","23","5","2,1","240,5","ND","57,1","0","0"],
    [20363,"2016-05-27T21:00:00","58","16","6,36","2,1","3","ND","59,6","0","0"],
    [20364,"2016-05-27T22:00:00","60","15","6,97","2,2","37,5","ND","65,8","0","0"],
    [20365,"2016-05-27T23:00:00","38","13","6,69","0,6","17,9","ND","69,6","0","0"],
    [20366,"2016-05-28T00:00:00","50","15","6,99","0,2","162,7","ND","73,6","0","0"],
    [20367,"2016-05-28T01:00:00","77","27","4,85","1,5","161,1","ND","78,4","0","0"],
    [20368,"2016-05-28T02:00:00","86","40","7,26","2,2","130,1","ND","81,5","0","0"],
    [20369,"2016-05-28T03:00:00","65","21","7,5","0,7","118,5","ND","84,4","0","0"],
    [20370,"2016-05-28T04:00:00","66","26","6,32","1,3","70,8","ND","83,8","0","0"],
    [20371,"2016-05-28T05:00:00","60","22","5,63","1,7","136","ND","82,1","0","0"],
    [20372,"2016-05-28T06:00:00","60","20","4,57","0,9","92,7","ND","83,9","0","0"],
    [20373,"2016-05-28T07:00:00","80","23","4,53","1,8","52,9","ND","83,8","10,4","0"],
    [20374,"2016-05-28T08:00:00","99","33","5,75","1,2","127,4","ND","79,7","56,2","0"],
    [20375,"2016-05-28T09:00:00","102","38","8,77","2,8","62,4","ND","74,2","82,8","0"],
    [20376,"2016-05-28T10:00:00","86","30","18,72","2,1","13,5","ND","65,7","169,1","0"],
    [20377,"2016-05-28T11:00:00","63","21","33,3","1,5","61,9","ND","54,5","199,1","0"],
    [20378,"2016-05-28T12:00:00","54","8","40,19","3,4","52,1","ND","51,7","225,4","0"],
    [20379,"2016-05-28T13:00:00","43","14","42,52","3","38","ND","49,1","295,3","0"],
    [20380,"2016-05-28T14:00:00","49","15","56,03","2,3","36,9","ND","46,7","293,8","0"],
    [20381,"2016-05-28T15:00:00","44","13","60,56","3,3","5","ND","49,5","136,7","0"],
    [20382,"2016-05-28T16:00:00","54","10","34,73","7,5","236,6","ND","58,9","10,8","0"],
    [20383,"2016-05-28T17:00:00","19","7","11,58","2,4","216","ND","78","0","22,61"],
    [20384,"2016-05-28T18:00:00","27","6","7,3","4,5","55,2","ND","85,4","0","7,11"],
    [20385,"2016-05-28T19:00:00","27","11","8,77","4,5","49","ND","86,4","0","2,29"],
    [20386,"2016-05-28T20:00:00","35","11","7,22","1,8","46,6","ND","87,2","0","1,52"],
    [20387,"2016-05-28T21:00:00","29","10","7,32","1,3","153,1","ND","87","0","0"],
    [20388,"2016-05-28T22:00:00","28","14","5,75","2,1","169,1","ND","86,7","0","0"],
    [20389,"2016-05-28T23:00:00","25","11","5,69","2","144,2","ND","86,7","0","0"],
    [20390,"2016-05-29T00:00:00","20","8","6","1,4","165,7","ND","87,2","0","0"],
    [20391,"2016-05-29T01:00:00","18","5","6,34","1,4","203,6","ND","87,1","0","0"],
    [20392,"2016-05-29T02:00:00","36","9","3,53","0,9","343,8","ND","87","0","0"],
    [20393,"2016-05-29T03:00:00","42","8","3,92","2,9","47,2","ND","87,4","0","0"],
    [20394,"2016-05-29T04:00:00","37","11","4,28","0,9","42,6","ND","88,2","0","0"],
    [20395,"2016-05-29T05:00:00","51","11","3,69","1,1","254,3","ND","88,5","0","0"],
    [20396,"2016-05-29T06:00:00","49","11","3,47","1,7","86","ND","88,6","0","0"],
    [20397,"2016-05-29T07:00:00","59","20","4,06","1,2","39,6","ND","89","15","0"],
    [20398,"2016-05-29T08:00:00","64","26","6,08","1,2","103,7","ND","86,5","66,4","0"],
    [20399,"2016-05-29T09:00:00","71","29","12,09","1,7","175,8","ND","77,2","157,8","0,25"],
    [20400,"2016-05-29T10:00:00","47","21","31,77","1,4","101","ND","59,9","321,5","0"],
    [20401,"2016-05-29T11:00:00","36","12","36,81","1,6","77,6","ND","52,8","312,4","0"],
    [20402,"2016-05-29T12:00:00","35","14","39,15","3","66,9","ND","50,9","337,4","0"],
    [20403,"2016-05-29T13:00:00","44","11","46,61","3,4","49,5","ND","46,3","375,7","0"],
    [20404,"2016-05-29T14:00:00","61","14","44,55","4,3","44,5","ND","45,4","335,4","0"],
    [20405,"2016-05-29T15:00:00","54","22","48,37","3,6","29,4","ND","47","209,4","0"],
    [20406,"2016-05-29T16:00:00","39","22","ND","2,1","334,3","ND","46,2","88,5","0"],
    [20407,"2016-05-29T17:00:00","23","ND","ND","3,5","271,4","ND","46,4","49,4","0"],
    [20408,"2016-05-29T18:00:00","25","ND","ND","4,4","262,8","ND","49,7","14,7","0"],
    [20409,"2016-05-29T19:00:00","30","ND","ND","3,5","259,4","ND","55,5","0","0"],
    [20410,"2016-05-29T20:00:00","43","ND","ND","3,9","214,1","ND","57,8","0","0"],
    [20411,"2016-05-29T21:00:00","43","ND","ND","3,9","135,5","ND","70,5","0","0"],
    [20412,"2016-05-29T22:00:00","33","ND","ND","3,1","175,4","ND","75","0","0"],
    [20413,"2016-05-29T23:00:00","37","ND","ND","3,1","174,7","ND","77,7","0","0"],
    [20414,"2016-05-30T00:00:00","28","ND","ND","2,8","153,1","ND","79,2","0","0"],
    [20415,"2016-05-30T01:00:00","22","ND","ND","2,9","138,9","ND","82,8","0","0"],
    [20416,"2016-05-30T02:00:00","23","ND","ND","2,6","158,1","ND","84,3","0","0"],
    [20417,"2016-05-30T03:00:00","26","ND","ND","2","172,8","ND","83,1","0","0"],
    [20418,"2016-05-30T04:00:00","24","ND","ND","1,3","95,6","ND","82,7","0","0"],
    [20419,"2016-05-30T05:00:00","30","ND","ND","1,9","103,7","ND","83,2","0","0"],
    [20420,"2016-05-30T06:00:00","30","ND","ND","1,6","158,9","ND","81,5","0","0"],
    [20421,"2016-05-30T07:00:00","32","ND","ND","1,8","148,2","ND","81,2","17,4","0"],
    [20422,"2016-05-30T08:00:00","105","ND","ND","2,1","128,7","ND","71,9","124,5","0"],
    [20423,"2016-05-30T09:00:00","45","ND","ND","2","148,1","ND","60,1","231,2","0"],
    [20424,"2016-05-30T10:00:00","59","ND","24,94","2,6","124,5","ND","52,4","307","0"],
    [20425,"2016-05-30T11:00:00","50","9","42,8","1,9","138,3","ND","48","310","0"],
    [20426,"2016-05-30T12:00:00","50","7","ND","3,1","65,1","ND","43","450,6","0"],
    [20427,"2016-05-30T13:00:00","49","9","ND","2,5","45,1","ND","40,5","439,2","0"],
    [20428,"2016-05-30T14:00:00","53","11","ND","3","9,6","ND","39,3","393,6","0"],
    [20429,"2016-05-30T15:00:00","66","15","ND","2,5","4,4","ND","39,3","334,5","0"],
    [20430,"2016-05-30T16:00:00","61","21","ND","5","40,6","ND","40,7","178,1","0"],
    [20431,"2016-05-30T17:00:00","69","17","ND","3","6,9","ND","47,7","27,6","0"],
    [20432,"2016-05-30T18:00:00","85","29","ND","3,5","301,1","ND","51,9","23","0"],
    [20433,"2016-05-30T19:00:00","40","14","ND","4,4","266,7","ND","57,1","0","0"],
    [20434,"2016-05-30T20:00:00","36","7","ND","3,4","267,2","ND","57,7","0","0"],
    [20435,"2016-05-30T21:00:00","62","16","ND","3,1","91,9","ND","65,3","0","0"],
    [20436,"2016-05-30T22:00:00","43","9","ND","2,1","24,7","ND","65,7","0","0"],
    [20437,"2016-05-30T23:00:00","53","14","ND","0,3","227,3","ND","70,8","0","0"],
    [20438,"2016-05-31T00:00:00","20","7","ND","3,4","232,8","ND","66,3","0","0"],
    [20439,"2016-05-31T01:00:00","25","6","ND","1,4","58,4","ND","70,5","0","0"],
    [20440,"2016-05-31T02:00:00","33","7","ND","3,5","139,8","ND","73,6","0","0"],
    [20441,"2016-05-31T03:00:00","ND","6","ND","1,7","58,6","ND","79,6","0","3,3"],
    [20442,"2016-05-31T04:00:00","ND","3","ND","3","53,7","ND","84,3","0","5,33"],
    [20443,"2016-05-31T05:00:00","ND","4","ND","2,2","64,9","ND","86,6","0","3,56"],
    [20444,"2016-05-31T06:00:00","ND","9","ND","4","101,9","ND","87","0","12,45"],
    [20445,"2016-05-31T07:00:00","26","8","ND","2,4","166,2","ND","87,8","0","8,13"],
    [20446,"2016-05-31T08:00:00","20","5","ND","2,9","245","ND","89","57,9","0,51"],
    [20447,"2016-05-31T09:00:00","31","12","ND","1,6","58,3","ND","78,1","153,7","0"],
    [20448,"2016-05-31T10:00:00","ND","ND","ND","ND","ND","ND","ND","ND","ND"],
    [20449,"2016-05-31T11:00:00","ND","ND","ND","ND","ND","ND","ND","ND","ND"],
    [20450,"2016-05-31T12:00:00","ND","ND","ND","ND","ND","ND","ND","ND","ND"],
    [20451,"2016-05-31T13:00:00","ND","ND","ND","ND","ND","ND","ND","ND","ND"],
    [20452,"2016-05-31T14:00:00","ND","ND","ND","ND","ND","ND","ND","ND","ND"],
    [20453,"2016-05-31T15:00:00","ND","ND","ND","ND","ND","ND","ND","ND","ND"],
    [20454,"2016-05-31T16:00:00","ND","ND","ND","ND","ND","ND","ND","ND","ND"],
    [20455,"2016-05-31T17:00:00","ND","ND","ND","ND","ND","ND","ND","ND","ND"],
    [20456,"2016-05-31T18:00:00","ND","ND","ND","ND","ND","ND","ND","ND","ND"],
    [20457,"2016-05-31T19:00:00","ND","ND","ND","ND","ND","ND","ND","ND","ND"],
    [20458,"2016-05-31T20:00:00","ND","ND","ND","ND","ND","ND","ND","ND","ND"],
    [20459,"2016-05-31T21:00:00","ND","ND","ND","ND","ND","ND","ND","ND","ND"],
    [20460,"2016-05-31T22:00:00","ND","ND","ND","ND","ND","ND","ND","ND","ND"],
    [20461,"2016-05-31T23:00:00","ND","ND","ND","ND","ND","ND","ND","ND","ND"],
    [20462,"2016-06-01T00:00:00","ND","ND","ND","ND","ND","ND","ND","ND","ND"],
    [20463,"2016-06-01T01:00:00","ND","ND","ND","ND","ND","ND","ND","ND","ND"],
    [20464,"2016-06-01T02:00:00","ND","ND","ND","ND","ND","ND","ND","ND","ND"],
    [20465,"2016-06-01T03:00:00","ND","ND","ND","ND","ND","ND","ND","ND","ND"],
    [20466,"2016-06-01T04:00:00","ND","ND","ND","ND","ND","ND","ND","ND","ND"],
    [20467,"2016-06-01T05:00:00","ND","ND","ND","ND","ND","ND","ND","ND","ND"],
    [20468,"2016-06-01T06:00:00","ND","ND","ND","ND","ND","ND","ND","ND","ND"],
    [20469,"2016-06-01T07:00:00","ND","ND","ND","ND","ND","ND","ND","ND","ND"],
    [20470,"2016-06-01T08:00:00","ND","ND","ND","ND","ND","ND","ND","ND","ND"],
    [20471,"2016-06-01T09:00:00","ND","ND","ND","ND","ND","ND","ND","ND","ND"],
    [20472,"2016-06-01T10:00:00","ND","ND","ND","ND","ND","ND","ND","ND","ND"],
    [20473,"2016-06-01T11:00:00","ND","ND","ND","ND","ND","ND","ND","ND","ND"],
    [20474,"2016-06-01T12:00:00","ND","ND","ND","ND","ND","ND","ND","ND","ND"],
    [20475,"2016-06-01T13:00:00","ND","ND","ND","ND","ND","ND","ND","ND","ND"],
    [20476,"2016-06-01T14:00:00","ND","ND","ND","ND","ND","ND","ND","ND","ND"],
    [20477,"2016-06-01T15:00:00","ND","ND","ND","ND","ND","ND","ND","ND","ND"],
    [20478,"2016-06-01T16:00:00","ND","ND","ND","ND","ND","ND","ND","ND","ND"],
    [20479,"2016-06-01T17:00:00","ND","ND","ND","ND","ND","ND","ND","ND","ND"],
    [20480,"2016-06-01T18:00:00","ND","ND","ND","ND","ND","ND","ND","ND","ND"],
    [20481,"2016-06-01T19:00:00","ND","ND","ND","ND","ND","ND","ND","ND","ND"],
    [20482,"2016-06-01T20:00:00","ND","ND","ND","ND","ND","ND","ND","ND","ND"],
    [20483,"2016-06-01T21:00:00","ND","ND","ND","ND","ND","ND","ND","ND","ND"],
    [20484,"2016-06-01T22:00:00","ND","ND","ND","ND","ND","ND","ND","ND","ND"],
    [20485,"2016-06-01T23:00:00","ND","ND","ND","ND","ND","ND","ND","ND","ND"],
    [20486,"2016-06-02T00:00:00","ND","ND","ND","ND","ND","ND","ND","ND","ND"],
    [20487,"2016-06-02T01:00:00","ND","ND","ND","ND","ND","ND","ND","ND","ND"],
    [20488,"2016-06-02T02:00:00","ND","ND","ND","ND","ND","ND","ND","ND","ND"],
    [20489,"2016-06-02T03:00:00","ND","ND","ND","ND","ND","ND","ND","ND","ND"],
    [20490,"2016-06-02T04:00:00","ND","ND","ND","ND","ND","ND","ND","ND","ND"],
    [20491,"2016-06-02T05:00:00","ND","ND","ND","ND","ND","ND","ND","ND","ND"],
    [20492,"2016-06-02T06:00:00","ND","ND","ND","ND","ND","ND","ND","ND","ND"],
    [20493,"2016-06-02T07:00:00","ND","ND","ND","ND","ND","ND","ND","ND","ND"],
    [20494,"2016-06-02T08:00:00","ND","ND","ND","ND","ND","ND","ND","ND","ND"],
    [20495,"2016-06-02T09:00:00","ND","ND","ND","ND","ND","ND","ND","ND","ND"],
    [20496,"2016-06-02T10:00:00","ND","ND","ND","ND","ND","ND","ND","ND","ND"],
    [20497,"2016-06-02T11:00:00","ND","ND","ND","ND","ND","ND","ND","ND","ND"],
    [20498,"2016-06-02T12:00:00","ND","ND","ND","ND","ND","ND","ND","ND","ND"],
    [20499,"2016-06-02T13:00:00","ND","ND","ND","ND","ND","ND","ND","ND","ND"],
    [20500,"2016-06-02T14:00:00","ND","ND","ND","ND","ND","ND","ND","ND","ND"],
    [20501,"2016-06-02T15:00:00","ND","ND","ND","ND","ND","ND","ND","ND","ND"],
    [20502,"2016-06-02T16:00:00","ND","ND","ND","ND","ND","ND","ND","ND","ND"],
    [20503,"2016-06-02T17:00:00","ND","ND","ND","ND","ND","ND","ND","ND","ND"],
    [20504,"2016-06-02T18:00:00","ND","ND","ND","ND","ND","ND","ND","ND","ND"],
    [20505,"2016-06-02T19:00:00","ND","ND","ND","ND","ND","ND","ND","ND","ND"],
    [20506,"2016-06-02T20:00:00","ND","ND","ND","ND","ND","ND","ND","ND","ND"],
    [20507,"2016-06-02T21:00:00","ND","ND","ND","ND","ND","ND","ND","ND","ND"],
    [20508,"2016-06-02T22:00:00","ND","ND","ND","ND","ND","ND","ND","ND","ND"],
    [20509,"2016-06-02T23:00:00","ND","ND","ND","ND","ND","ND","ND","ND","ND"],
    [20510,"2016-06-03T00:00:00","ND","ND","ND","ND","ND","ND","ND","ND","ND"],
    [20511,"2016-06-03T01:00:00","ND","ND","ND","ND","ND","ND","ND","ND","ND"],
    [20512,"2016-06-03T02:00:00","ND","ND","ND","ND","ND","ND","ND","ND","ND"],
    [20513,"2016-06-03T03:00:00","ND","ND","ND","ND","ND","ND","ND","ND","ND"],
    [20514,"2016-06-03T04:00:00","ND","ND","ND","ND","ND","ND","ND","ND","ND"],
    [20515,"2016-06-03T05:00:00","ND","ND","ND","ND","ND","ND","ND","ND","ND"],
    [20516,"2016-06-03T06:00:00","ND","ND","ND","ND","ND","ND","ND","ND","ND"],
    [20517,"2016-06-03T07:00:00","ND","ND","ND","ND","ND","ND","ND","ND","ND"],
    [20518,"2016-06-03T08:00:00","ND","ND","ND","ND","ND","ND","ND","ND","ND"],
    [20519,"2016-06-03T09:00:00","ND","ND","ND","ND","ND","ND","ND","ND","ND"],
    [20520,"2016-06-03T10:00:00","ND","ND","ND","ND","ND","ND","ND","ND","ND"],
    [20521,"2016-06-03T11:00:00","ND","ND","ND","ND","ND","ND","ND","ND","ND"],
    [20522,"2016-06-03T12:00:00","ND","ND","ND","ND","ND","ND","ND","ND","ND"],
    [20523,"2016-06-03T13:00:00","ND","ND","ND","ND","ND","ND","ND","ND","ND"],
    [20524,"2016-06-03T14:00:00","ND","ND","ND","ND","ND","ND","ND","ND","ND"],
    [20525,"2016-06-03T15:00:00","ND","ND","ND","ND","ND","ND","ND","ND","ND"],
    [20526,"2016-06-03T16:00:00","ND","ND","ND","ND","ND","ND","ND","ND","ND"],
    [20527,"2016-06-03T17:00:00","ND","ND","ND","ND","ND","ND","ND","ND","ND"],
    [20528,"2016-06-03T18:00:00","ND","ND","ND","ND","ND","ND","ND","ND","ND"],
    [20529,"2016-06-03T19:00:00","ND","ND","ND","ND","ND","ND","ND","ND","ND"],
    [20530,"2016-06-03T20:00:00","ND","ND","ND","ND","ND","ND","ND","ND","ND"],
    [20531,"2016-06-03T21:00:00","ND","ND","ND","ND","ND","ND","ND","ND","ND"],
    [20532,"2016-06-03T22:00:00","ND","ND","ND","ND","ND","ND","ND","ND","ND"],
    [20533,"2016-06-03T23:00:00","ND","ND","ND","ND","ND","ND","ND","ND","ND"],
    [20534,"2016-06-04T00:00:00","ND","ND","ND","ND","ND","ND","ND","ND","ND"],
    [20535,"2016-06-04T01:00:00","ND","ND","ND","ND","ND","ND","ND","ND","ND"],
    [20536,"2016-06-04T02:00:00","ND","ND","ND","ND","ND","ND","ND","ND","ND"],
    [20537,"2016-06-04T03:00:00","ND","ND","ND","ND","ND","ND","ND","ND","ND"],
    [20538,"2016-06-04T04:00:00","ND","ND","ND","ND","ND","ND","ND","ND","ND"],
    [20539,"2016-06-04T05:00:00","ND","ND","ND","ND","ND","ND","ND","ND","ND"],
    [20540,"2016-06-04T06:00:00","ND","ND","ND","ND","ND","ND","ND","ND","ND"],
    [20541,"2016-06-04T07:00:00","ND","ND","ND","ND","ND","ND","ND","ND","ND"],
    [20542,"2016-06-04T08:00:00","ND","ND","ND","ND","ND","ND","ND","ND","ND"],
    [20543,"2016-06-04T09:00:00","ND","ND","ND","ND","ND","ND","ND","ND","ND"],
    [20544,"2016-06-04T10:00:00","ND","ND","ND","ND","ND","ND","ND","ND","ND"],
    [20545,"2016-06-04T11:00:00","ND","ND","ND","ND","ND","ND","ND","ND","ND"],
    [20546,"2016-06-04T12:00:00","ND","ND","ND","ND","ND","ND","ND","ND","ND"],
    [20547,"2016-06-04T13:00:00","ND","ND","ND","ND","ND","ND","ND","ND","ND"],
    [20548,"2016-06-04T14:00:00","ND","ND","ND","ND","ND","ND","ND","ND","ND"],
    [20549,"2016-06-04T15:00:00","ND","ND","ND","ND","ND","ND","ND","ND","ND"],
    [20550,"2016-06-04T16:00:00","ND","ND","ND","ND","ND","ND","ND","ND","ND"],
    [20551,"2016-06-04T17:00:00","ND","ND","ND","ND","ND","ND","ND","ND","ND"],
    [20552,"2016-06-04T18:00:00","ND","ND","ND","ND","ND","ND","ND","ND","ND"],
    [20553,"2016-06-04T19:00:00","ND","ND","ND","ND","ND","ND","ND","ND","ND"],
    [20554,"2016-06-04T20:00:00","ND","ND","ND","ND","ND","ND","ND","ND","ND"],
    [20555,"2016-06-04T21:00:00","ND","ND","ND","ND","ND","ND","ND","ND","ND"],
    [20556,"2016-06-04T22:00:00","ND","ND","ND","ND","ND","ND","ND","ND","ND"],
    [20557,"2016-06-04T23:00:00","ND","ND","ND","ND","ND","ND","ND","ND","ND"],
    [20558,"2016-06-05T00:00:00","ND","ND","ND","ND","ND","ND","ND","ND","ND"],
    [20559,"2016-06-05T01:00:00","ND","ND","ND","ND","ND","ND","ND","ND","ND"],
    [20560,"2016-06-05T02:00:00","ND","ND","ND","ND","ND","ND","ND","ND","ND"],
    [20561,"2016-06-05T03:00:00","ND","ND","ND","ND","ND","ND","ND","ND","ND"],
    [20562,"2016-06-05T04:00:00","ND","ND","ND","ND","ND","ND","ND","ND","ND"],
    [20563,"2016-06-05T05:00:00","ND","ND","ND","ND","ND","ND","ND","ND","ND"],
    [20564,"2016-06-05T06:00:00","ND","ND","ND","ND","ND","ND","ND","ND","ND"],
    [20565,"2016-06-05T07:00:00","ND","ND","ND","ND","ND","ND","ND","ND","ND"],
    [20566,"2016-06-05T08:00:00","ND","ND","ND","ND","ND","ND","ND","ND","ND"],
    [20567,"2016-06-05T09:00:00","ND","ND","ND","ND","ND","ND","ND","ND","ND"],
    [20568,"2016-06-05T10:00:00","ND","ND","ND","ND","ND","ND","ND","ND","ND"],
    [20569,"2016-06-05T11:00:00","ND","ND","ND","ND","ND","ND","ND","ND","ND"],
    [20570,"2016-06-05T12:00:00","ND","ND","ND","ND","ND","ND","ND","ND","ND"],
    [20571,"2016-06-05T13:00:00","ND","ND","ND","ND","ND","ND","ND","ND","ND"],
    [20572,"2016-06-05T14:00:00","ND","ND","ND","ND","ND","ND","ND","ND","ND"],
    [20573,"2016-06-05T15:00:00","ND","ND","ND","ND","ND","ND","ND","ND","ND"],
    [20574,"2016-06-05T16:00:00","ND","ND","ND","ND","ND","ND","ND","ND","ND"],
    [20575,"2016-06-05T17:00:00","ND","ND","ND","ND","ND","ND","ND","ND","ND"],
    [20576,"2016-06-05T18:00:00","ND","ND","ND","ND","ND","ND","ND","ND","ND"],
    [20577,"2016-06-05T19:00:00","ND","ND","ND","ND","ND","ND","ND","ND","ND"],
    [20578,"2016-06-05T20:00:00","ND","ND","ND","ND","ND","ND","ND","ND","ND"],
    [20579,"2016-06-05T21:00:00","ND","ND","ND","ND","ND","ND","ND","ND","ND"],
    [20580,"2016-06-05T22:00:00","ND","ND","ND","ND","ND","ND","ND","ND","ND"],
    [20581,"2016-06-05T23:00:00","ND","ND","ND","ND","ND","ND","ND","ND","ND"],
    [20582,"2016-06-06T00:00:00","ND","ND","ND","ND","ND","ND","ND","ND","ND"],
    [20583,"2016-06-06T01:00:00","ND","ND","ND","ND","ND","ND","ND","ND","ND"],
    [20584,"2016-06-06T02:00:00","ND","ND","ND","ND","ND","ND","ND","ND","ND"],
    [20585,"2016-06-06T03:00:00","ND","ND","ND","ND","ND","ND","ND","ND","ND"],
    [20586,"2016-06-06T04:00:00","ND","ND","ND","ND","ND","ND","ND","ND","ND"],
    [20587,"2016-06-06T05:00:00","ND","ND","ND","ND","ND","ND","ND","ND","ND"],
    [20588,"2016-06-06T06:00:00","ND","ND","ND","ND","ND","ND","ND","ND","ND"],
    [20589,"2016-06-06T07:00:00","ND","ND","ND","ND","ND","ND","ND","ND","ND"],
    [20590,"2016-06-06T08:00:00","ND","ND","ND","ND","ND","ND","ND","ND","ND"],
    [20591,"2016-06-06T09:00:00","ND","ND","ND","ND","ND","ND","ND","ND","ND"],
    [20592,"2016-06-06T10:00:00","ND","ND","ND","ND","ND","ND","ND","ND","ND"],
    [20593,"2016-06-06T11:00:00","ND","ND","ND","ND","ND","ND","ND","ND","ND"],
    [20594,"2016-06-06T12:00:00","ND","ND","ND","ND","ND","ND","ND","ND","ND"],
    [20595,"2016-06-06T13:00:00","ND","ND","ND","ND","ND","ND","ND","ND","ND"],
    [20596,"2016-06-06T14:00:00","ND","ND","ND","ND","ND","ND","ND","ND","ND"],
    [20597,"2016-06-06T15:00:00","ND","ND","ND","ND","ND","ND","ND","ND","ND"],
    [20598,"2016-06-06T16:00:00","ND","ND","ND","ND","ND","ND","ND","ND","ND"],
    [20599,"2016-06-06T17:00:00","ND","ND","ND","ND","ND","ND","ND","ND","ND"],
    [20600,"2016-06-06T18:00:00","ND","ND","ND","ND","ND","ND","ND","ND","ND"],
    [20601,"2016-06-06T19:00:00","ND","ND","ND","ND","ND","ND","ND","ND","ND"],
    [20602,"2016-06-06T20:00:00","ND","ND","ND","ND","ND","ND","ND","ND","ND"],
    [20603,"2016-06-06T21:00:00","ND","ND","ND","ND","ND","ND","ND","ND","ND"],
    [20604,"2016-06-06T22:00:00","ND","ND","ND","ND","ND","ND","ND","ND","ND"],
    [20605,"2016-06-06T23:00:00","ND","ND","ND","ND","ND","ND","ND","ND","ND"],
    [20606,"2016-06-07T00:00:00","ND","ND","ND","ND","ND","ND","ND","ND","ND"],
    [20607,"2016-06-07T01:00:00","ND","ND","ND","ND","ND","ND","ND","ND","ND"],
    [20608,"2016-06-07T02:00:00","ND","ND","ND","ND","ND","ND","ND","ND","ND"],
    [20609,"2016-06-07T03:00:00","ND","ND","ND","ND","ND","ND","ND","ND","ND"],
    [20610,"2016-06-07T04:00:00","ND","ND","ND","ND","ND","ND","ND","ND","ND"],
    [20611,"2016-06-07T05:00:00","ND","ND","ND","ND","ND","ND","ND","ND","ND"],
    [20612,"2016-06-07T06:00:00","ND","ND","ND","ND","ND","ND","ND","ND","ND"],
    [20613,"2016-06-07T07:00:00","ND","ND","ND","ND","ND","ND","ND","ND","ND"],
    [20614,"2016-06-07T08:00:00","ND","ND","ND","ND","ND","ND","ND","ND","ND"],
    [20615,"2016-06-07T09:00:00","ND","ND","ND","ND","ND","ND","ND","ND","ND"],
    [20616,"2016-06-07T10:00:00","ND","ND","ND","ND","ND","ND","ND","ND","ND"],
    [20617,"2016-06-07T11:00:00","ND","ND","ND","ND","ND","ND","ND","ND","ND"],
    [20618,"2016-06-07T12:00:00","ND","ND","ND","ND","ND","ND","ND","ND","ND"],
    [20619,"2016-06-07T13:00:00","ND","ND","ND","ND","ND","ND","ND","ND","ND"],
    [20620,"2016-06-07T14:00:00","ND","ND","ND","ND","ND","ND","ND","ND","ND"],
    [20621,"2016-06-07T15:00:00","ND","ND","ND","ND","ND","ND","ND","ND","ND"],
    [20622,"2016-06-07T16:00:00","ND","ND","ND","ND","ND","ND","ND","ND","ND"],
    [20623,"2016-06-07T17:00:00","ND","ND","ND","ND","ND","ND","ND","ND","ND"],
    [20624,"2016-06-07T18:00:00","ND","ND","ND","ND","ND","ND","ND","ND","ND"],
    [20625,"2016-06-07T19:00:00","ND","ND","ND","ND","ND","ND","ND","ND","ND"],
    [20626,"2016-06-07T20:00:00","ND","ND","ND","ND","ND","ND","ND","ND","ND"],
    [20627,"2016-06-07T21:00:00","ND","ND","ND","ND","ND","ND","ND","ND","ND"],
    [20628,"2016-06-07T22:00:00","ND","ND","ND","ND","ND","ND","ND","ND","ND"],
    [20629,"2016-06-07T23:00:00","ND","ND","ND","ND","ND","ND","ND","ND","ND"],
    [20630,"2016-06-08T00:00:00","ND","ND","ND","ND","ND","ND","ND","ND","ND"],
    [20631,"2016-06-08T01:00:00","ND","ND","ND","ND","ND","ND","ND","ND","ND"],
    [20632,"2016-06-08T02:00:00","ND","ND","ND","ND","ND","ND","ND","ND","ND"],
    [20633,"2016-06-08T03:00:00","ND","ND","ND","ND","ND","ND","ND","ND","ND"],
    [20634,"2016-06-08T04:00:00","ND","ND","ND","ND","ND","ND","ND","ND","ND"],
    [20635,"2016-06-08T05:00:00","ND","ND","ND","ND","ND","ND","ND","ND","ND"],
    [20636,"2016-06-08T06:00:00","ND","ND","ND","ND","ND","ND","ND","ND","ND"],
    [20637,"2016-06-08T07:00:00","ND","ND","ND","ND","ND","ND","ND","ND","ND"],
    [20638,"2016-06-08T08:00:00","ND","ND","ND","ND","ND","ND","ND","ND","ND"],
    [20639,"2016-06-08T09:00:00","ND","ND","ND","ND","ND","ND","ND","ND","ND"],
    [20640,"2016-06-08T10:00:00","ND","ND","ND","ND","ND","ND","ND","ND","ND"],
    [20641,"2016-06-08T11:00:00","ND","ND","ND","ND","ND","ND","ND","ND","ND"],
    [20642,"2016-06-08T12:00:00","ND","ND","ND","ND","ND","ND","ND","ND","ND"],
    [20643,"2016-06-08T13:00:00","ND","ND","ND","ND","ND","ND","ND","ND","ND"],
    [20644,"2016-06-08T14:00:00","ND","ND","ND","ND","ND","ND","ND","ND","ND"],
    [20645,"2016-06-08T15:00:00","ND","ND","ND","ND","ND","ND","ND","ND","ND"],
    [20646,"2016-06-08T16:00:00","ND","ND","ND","ND","ND","ND","ND","ND","ND"],
    [20647,"2016-06-08T17:00:00","ND","ND","ND","ND","ND","ND","ND","ND","ND"],
    [20648,"2016-06-08T18:00:00","ND","ND","ND","ND","ND","ND","ND","ND","ND"],
    [20649,"2016-06-08T19:00:00","ND","ND","ND","ND","ND","ND","ND","ND","ND"],
    [20650,"2016-06-08T20:00:00","ND","ND","ND","ND","ND","ND","ND","ND","ND"],
    [20651,"2016-06-08T21:00:00","ND","ND","ND","ND","ND","ND","ND","ND","ND"],
    [20652,"2016-06-08T22:00:00","ND","ND","ND","ND","ND","ND","ND","ND","ND"],
    [20653,"2016-06-08T23:00:00","ND","ND","ND","ND","ND","ND","ND","ND","ND"],
    [20654,"2016-06-09T00:00:00","ND","ND","ND","ND","ND","ND","ND","ND","ND"],
    [20655,"2016-06-09T01:00:00","ND","ND","ND","ND","ND","ND","ND","ND","ND"],
    [20656,"2016-06-09T02:00:00","ND","ND","ND","ND","ND","ND","ND","ND","ND"],
    [20657,"2016-06-09T03:00:00","ND","ND","ND","ND","ND","ND","ND","ND","ND"],
    [20658,"2016-06-09T04:00:00","ND","ND","ND","ND","ND","ND","ND","ND","ND"],
    [20659,"2016-06-09T05:00:00","ND","ND","ND","ND","ND","ND","ND","ND","ND"],
    [20660,"2016-06-09T06:00:00","ND","ND","ND","ND","ND","ND","ND","ND","ND"],
    [20661,"2016-06-09T07:00:00","ND","ND","ND","ND","ND","ND","ND","ND","ND"],
    [20662,"2016-06-09T08:00:00","ND","ND","ND","ND","ND","ND","ND","ND","ND"],
    [20663,"2016-06-09T09:00:00","ND","ND","ND","ND","ND","ND","ND","ND","ND"],
    [20664,"2016-06-09T10:00:00","ND","ND","ND","ND","ND","ND","ND","ND","ND"],
    [20665,"2016-06-09T11:00:00","ND","ND","ND","ND","ND","ND","ND","ND","ND"],
    [20666,"2016-06-09T12:00:00","ND","ND","ND","ND","ND","ND","ND","ND","ND"],
    [20667,"2016-06-09T13:00:00","ND","ND","ND","ND","ND","ND","ND","ND","ND"],
    [20668,"2016-06-09T14:00:00","ND","ND","ND","ND","ND","ND","ND","ND","ND"],
    [20669,"2016-06-09T15:00:00","ND","ND","ND","ND","ND","ND","ND","ND","ND"],
    [20670,"2016-06-09T16:00:00","ND","ND","ND","ND","ND","ND","ND","ND","ND"],
    [20671,"2016-06-09T17:00:00","ND","ND","ND","ND","ND","ND","ND","ND","ND"],
    [20672,"2016-06-09T18:00:00","ND","ND","ND","ND","ND","ND","ND","ND","ND"],
    [20673,"2016-06-09T19:00:00","ND","ND","ND","ND","ND","ND","ND","ND","ND"],
    [20674,"2016-06-09T20:00:00","ND","ND","ND","ND","ND","ND","ND","ND","ND"],
    [20675,"2016-06-09T21:00:00","ND","ND","ND","ND","ND","ND","ND","ND","ND"],
    [20676,"2016-06-09T22:00:00","ND","ND","ND","ND","ND","ND","ND","ND","ND"],
    [20677,"2016-06-09T23:00:00","ND","ND","ND","ND","ND","ND","ND","ND","ND"],
    [20678,"2016-06-10T00:00:00","ND","ND","ND","ND","ND","ND","ND","ND","ND"],
    [20679,"2016-06-10T01:00:00","ND","ND","ND","ND","ND","ND","ND","ND","ND"],
    [20680,"2016-06-10T02:00:00","ND","ND","ND","ND","ND","ND","ND","ND","ND"],
    [20681,"2016-06-10T03:00:00","ND","ND","ND","ND","ND","ND","ND","ND","ND"],
    [20682,"2016-06-10T04:00:00","ND","ND","ND","ND","ND","ND","ND","ND","ND"],
    [20683,"2016-06-10T05:00:00","ND","ND","ND","ND","ND","ND","ND","ND","ND"],
    [20684,"2016-06-10T06:00:00","ND","ND","ND","ND","ND","ND","ND","ND","ND"],
    [20685,"2016-06-10T07:00:00","ND","ND","ND","ND","ND","ND","ND","ND","ND"],
    [20686,"2016-06-10T08:00:00","ND","ND","ND","ND","ND","ND","ND","ND","ND"],
    [20687,"2016-06-10T09:00:00","ND","ND","ND","ND","ND","ND","ND","ND","ND"],
    [20688,"2016-06-10T10:00:00","ND","ND","ND","ND","ND","ND","ND","ND","ND"],
    [20689,"2016-06-10T11:00:00","ND","ND","ND","ND","ND","ND","ND","ND","ND"],
    [20690,"2016-06-10T12:00:00","ND","ND","ND","ND","ND","ND","ND","ND","ND"],
    [20691,"2016-06-10T13:00:00","ND","ND","ND","ND","ND","ND","ND","ND","ND"],
    [20692,"2016-06-10T14:00:00","ND","ND","ND","ND","ND","ND","ND","ND","ND"],
    [20693,"2016-06-10T15:00:00","ND","ND","ND","ND","ND","ND","ND","ND","ND"],
    [20694,"2016-06-10T16:00:00","ND","ND","ND","ND","ND","ND","ND","ND","ND"],
    [20695,"2016-06-10T17:00:00","ND","ND","ND","ND","ND","ND","ND","ND","ND"],
    [20696,"2016-06-10T18:00:00","ND","ND","ND","ND","ND","ND","ND","ND","ND"],
    [20697,"2016-06-10T19:00:00","ND","ND","ND","ND","ND","ND","ND","ND","ND"],
    [20698,"2016-06-10T20:00:00","ND","ND","ND","ND","ND","ND","ND","ND","ND"],
    [20699,"2016-06-10T21:00:00","ND","ND","ND","ND","ND","ND","ND","ND","ND"],
    [20700,"2016-06-10T22:00:00","ND","ND","ND","ND","ND","ND","ND","ND","ND"],
    [20701,"2016-06-10T23:00:00","ND","ND","ND","ND","ND","ND","ND","ND","ND"],
    [20702,"2016-06-11T00:00:00","ND","ND","ND","ND","ND","ND","ND","ND","ND"],
    [20703,"2016-06-11T01:00:00","ND","ND","ND","ND","ND","ND","ND","ND","ND"],
    [20704,"2016-06-11T02:00:00","ND","ND","ND","ND","ND","ND","ND","ND","ND"],
    [20705,"2016-06-11T03:00:00","ND","ND","ND","ND","ND","ND","ND","ND","ND"],
    [20706,"2016-06-11T04:00:00","ND","ND","ND","ND","ND","ND","ND","ND","ND"],
    [20707,"2016-06-11T05:00:00","ND","ND","ND","ND","ND","ND","ND","ND","ND"],
    [20708,"2016-06-11T06:00:00","ND","ND","ND","ND","ND","ND","ND","ND","ND"],
    [20709,"2016-06-11T07:00:00","ND","ND","ND","ND","ND","ND","ND","ND","ND"],
    [20710,"2016-06-11T08:00:00","ND","ND","ND","ND","ND","ND","ND","ND","ND"],
    [20711,"2016-06-11T09:00:00","ND","ND","ND","ND","ND","ND","ND","ND","ND"],
    [20712,"2016-06-11T10:00:00","ND","ND","ND","ND","ND","ND","ND","ND","ND"],
    [20713,"2016-06-11T11:00:00","ND","ND","ND","ND","ND","ND","ND","ND","ND"],
    [20714,"2016-06-11T12:00:00","ND","ND","ND","ND","ND","ND","ND","ND","ND"],
    [20715,"2016-06-11T13:00:00","ND","ND","ND","ND","ND","ND","ND","ND","ND"],
    [20716,"2016-06-11T14:00:00","ND","ND","ND","ND","ND","ND","ND","ND","ND"],
    [20717,"2016-06-11T15:00:00","ND","ND","ND","ND","ND","ND","ND","ND","ND"],
    [20718,"2016-06-11T16:00:00","ND","ND","ND","ND","ND","ND","ND","ND","ND"],
    [20719,"2016-06-11T17:00:00","ND","ND","ND","ND","ND","ND","ND","ND","ND"],
    [20720,"2016-06-11T18:00:00","ND","ND","ND","ND","ND","ND","ND","ND","ND"],
    [20721,"2016-06-11T19:00:00","ND","ND","ND","ND","ND","ND","ND","ND","ND"],
    [20722,"2016-06-11T20:00:00","ND","ND","ND","ND","ND","ND","ND","ND","ND"],
    [20723,"2016-06-11T21:00:00","ND","ND","ND","ND","ND","ND","ND","ND","ND"],
    [20724,"2016-06-11T22:00:00","ND","ND","ND","ND","ND","ND","ND","ND","ND"],
    [20725,"2016-06-11T23:00:00","ND","ND","ND","ND","ND","ND","ND","ND","ND"],
    [20726,"2016-06-12T00:00:00","ND","ND","ND","ND","ND","ND","ND","ND","ND"],
    [20727,"2016-06-12T01:00:00","ND","ND","ND","ND","ND","ND","ND","ND","ND"],
    [20728,"2016-06-12T02:00:00","ND","ND","ND","ND","ND","ND","ND","ND","ND"],
    [20729,"2016-06-12T03:00:00","ND","ND","ND","ND","ND","ND","ND","ND","ND"],
    [20730,"2016-06-12T04:00:00","ND","ND","ND","ND","ND","ND","ND","ND","ND"],
    [20731,"2016-06-12T05:00:00","ND","ND","ND","ND","ND","ND","ND","ND","ND"],
    [20732,"2016-06-12T06:00:00","ND","ND","ND","ND","ND","ND","ND","ND","ND"],
    [20733,"2016-06-12T07:00:00","ND","ND","ND","ND","ND","ND","ND","ND","ND"],
    [20734,"2016-06-12T08:00:00","ND","ND","ND","ND","ND","ND","ND","ND","ND"],
    [20735,"2016-06-12T09:00:00","ND","ND","ND","ND","ND","ND","ND","ND","ND"],
    [20736,"2016-06-12T10:00:00","ND","ND","ND","ND","ND","ND","ND","ND","ND"],
    [20737,"2016-06-12T11:00:00","ND","ND","ND","ND","ND","ND","ND","ND","ND"],
    [20738,"2016-06-12T12:00:00","ND","ND","ND","ND","ND","ND","ND","ND","ND"],
    [20739,"2016-06-12T13:00:00","ND","ND","ND","ND","ND","ND","ND","ND","ND"],
    [20740,"2016-06-12T14:00:00","ND","ND","ND","ND","ND","ND","ND","ND","ND"],
    [20741,"2016-06-12T15:00:00","ND","ND","ND","ND","ND","ND","ND","ND","ND"],
    [20742,"2016-06-12T16:00:00","ND","ND","ND","ND","ND","ND","ND","ND","ND"],
    [20743,"2016-06-12T17:00:00","ND","ND","ND","ND","ND","ND","ND","ND","ND"],
    [20744,"2016-06-12T18:00:00","ND","ND","ND","ND","ND","ND","ND","ND","ND"],
    [20745,"2016-06-12T19:00:00","ND","ND","ND","ND","ND","ND","ND","ND","ND"],
    [20746,"2016-06-12T20:00:00","ND","ND","ND","ND","ND","ND","ND","ND","ND"],
    [20747,"2016-06-12T21:00:00","ND","ND","ND","ND","ND","ND","ND","ND","ND"],
    [20748,"2016-06-12T22:00:00","ND","ND","ND","ND","ND","ND","ND","ND","ND"],
    [20749,"2016-06-12T23:00:00","ND","ND","ND","ND","ND","ND","ND","ND","ND"],
    [20750,"2016-06-13T00:00:00","ND","ND","ND","ND","ND","ND","ND","ND","ND"],
    [20751,"2016-06-13T01:00:00","ND","ND","ND","ND","ND","ND","ND","ND","ND"],
    [20752,"2016-06-13T02:00:00","ND","ND","ND","ND","ND","ND","ND","ND","ND"],
    [20753,"2016-06-13T03:00:00","ND","ND","ND","ND","ND","ND","ND","ND","ND"],
    [20754,"2016-06-13T04:00:00","ND","ND","ND","ND","ND","ND","ND","ND","ND"],
    [20755,"2016-06-13T05:00:00","ND","ND","ND","ND","ND","ND","ND","ND","ND"],
    [20756,"2016-06-13T06:00:00","ND","ND","ND","ND","ND","ND","ND","ND","ND"],
    [20757,"2016-06-13T07:00:00","ND","ND","ND","ND","ND","ND","ND","ND","ND"],
    [20758,"2016-06-13T08:00:00","ND","ND","ND","ND","ND","ND","ND","ND","ND"],
    [20759,"2016-06-13T09:00:00","ND","ND","ND","ND","ND","ND","ND","ND","ND"],
    [20760,"2016-06-13T10:00:00","ND","ND","ND","ND","ND","ND","ND","ND","ND"],
    [20761,"2016-06-13T11:00:00","ND","ND","ND","ND","ND","ND","ND","ND","ND"],
    [20762,"2016-06-13T12:00:00","ND","ND","ND","ND","ND","ND","ND","ND","ND"],
    [20763,"2016-06-13T13:00:00","ND","ND","ND","ND","ND","ND","ND","ND","ND"],
    [20764,"2016-06-13T14:00:00","ND","ND","ND","ND","ND","ND","ND","ND","ND"],
    [20765,"2016-06-13T15:00:00","ND","ND","ND","ND","ND","ND","ND","ND","ND"],
    [20766,"2016-06-13T16:00:00","ND","ND","ND","ND","ND","ND","ND","ND","ND"],
    [20767,"2016-06-13T17:00:00","ND","ND","ND","ND","ND","ND","ND","ND","ND"],
    [20768,"2016-06-13T18:00:00","ND","ND","ND","ND","ND","ND","ND","ND","ND"],
    [20769,"2016-06-13T19:00:00","ND","ND","ND","ND","ND","ND","ND","ND","ND"],
    [20770,"2016-06-13T20:00:00","ND","ND","ND","ND","ND","ND","ND","ND","ND"],
    [20771,"2016-06-13T21:00:00","ND","ND","ND","ND","ND","ND","ND","ND","ND"],
    [20772,"2016-06-13T22:00:00","ND","ND","ND","ND","ND","ND","ND","ND","ND"],
    [20773,"2016-06-13T23:00:00","ND","ND","ND","ND","ND","ND","ND","ND","ND"],
    [20774,"2016-06-14T00:00:00","ND","ND","ND","ND","ND","ND","ND","ND","ND"],
    [20775,"2016-06-14T01:00:00","ND","ND","ND","ND","ND","ND","ND","ND","ND"],
    [20776,"2016-06-14T02:00:00","ND","ND","ND","ND","ND","ND","ND","ND","ND"],
    [20777,"2016-06-14T03:00:00","ND","ND","ND","ND","ND","ND","ND","ND","ND"],
    [20778,"2016-06-14T04:00:00","ND","ND","ND","ND","ND","ND","ND","ND","ND"],
    [20779,"2016-06-14T05:00:00","ND","ND","ND","ND","ND","ND","ND","ND","ND"],
    [20780,"2016-06-14T06:00:00","ND","ND","ND","ND","ND","ND","ND","ND","ND"],
    [20781,"2016-06-14T07:00:00","ND","ND","ND","ND","ND","ND","ND","ND","ND"],
    [20782,"2016-06-14T08:00:00","ND","ND","ND","ND","ND","ND","ND","ND","ND"],
    [20783,"2016-06-14T09:00:00","ND","ND","ND","ND","ND","ND","ND","ND","ND"],
    [20784,"2016-06-14T10:00:00","ND","ND","ND","ND","ND","ND","ND","ND","ND"],
    [20785,"2016-06-14T11:00:00","ND","ND","ND","ND","ND","ND","ND","ND","ND"],
    [20786,"2016-06-14T12:00:00","ND","ND","ND","ND","ND","ND","ND","ND","ND"],
    [20787,"2016-06-14T13:00:00","ND","ND","ND","ND","ND","ND","ND","ND","ND"],
    [20788,"2016-06-14T14:00:00","ND","ND","ND","ND","ND","ND","ND","ND","ND"],
    [20789,"2016-06-14T15:00:00","ND","ND","ND","ND","ND","ND","ND","ND","ND"],
    [20790,"2016-06-14T16:00:00","ND","ND","ND","ND","ND","ND","ND","ND","ND"],
    [20791,"2016-06-14T17:00:00","ND","ND","ND","ND","ND","ND","ND","ND","ND"],
    [20792,"2016-06-14T18:00:00","ND","ND","ND","ND","ND","ND","ND","ND","ND"],
    [20793,"2016-06-14T19:00:00","ND","ND","ND","ND","ND","ND","ND","ND","ND"],
    [20794,"2016-06-14T20:00:00","ND","ND","ND","ND","ND","ND","ND","ND","ND"],
    [20795,"2016-06-14T21:00:00","ND","ND","ND","ND","ND","ND","ND","ND","ND"],
    [20796,"2016-06-14T22:00:00","ND","ND","ND","ND","ND","ND","ND","ND","ND"],
    [20797,"2016-06-14T23:00:00","ND","ND","ND","ND","ND","ND","ND","ND","ND"],
    [20798,"2016-06-15T00:00:00","ND","ND","ND","ND","ND","ND","ND","ND","ND"],
    [20799,"2016-06-15T01:00:00","ND","ND","ND","ND","ND","ND","ND","ND","ND"],
    [20800,"2016-06-15T02:00:00","ND","ND","ND","ND","ND","ND","ND","ND","ND"],
    [20801,"2016-06-15T03:00:00","ND","ND","ND","ND","ND","ND","ND","ND","ND"],
    [20802,"2016-06-15T04:00:00","ND","ND","ND","ND","ND","ND","ND","ND","ND"],
    [20803,"2016-06-15T05:00:00","ND","ND","ND","ND","ND","ND","ND","ND","ND"],
    [20804,"2016-06-15T06:00:00","ND","ND","ND","ND","ND","ND","ND","ND","ND"],
    [20805,"2016-06-15T07:00:00","ND","ND","ND","ND","ND","ND","ND","ND","ND"],
    [20806,"2016-06-15T08:00:00","ND","ND","ND","ND","ND","ND","ND","ND","ND"],
    [20807,"2016-06-15T09:00:00","ND","ND","ND","ND","ND","ND","ND","ND","ND"],
    [20808,"2016-06-15T10:00:00","ND","ND","ND","ND","ND","ND","ND","ND","ND"],
    [20809,"2016-06-15T11:00:00","ND","ND","ND","ND","ND","ND","ND","ND","ND"],
    [20810,"2016-06-15T12:00:00","ND","ND","ND","ND","ND","ND","ND","ND","ND"],
    [20811,"2016-06-15T13:00:00","ND","ND","ND","ND","ND","ND","ND","ND","ND"],
    [20812,"2016-06-15T14:00:00","ND","ND","ND","ND","ND","ND","ND","ND","ND"],
    [20813,"2016-06-15T15:00:00","ND","ND","ND","ND","ND","ND","ND","ND","ND"],
    [20814,"2016-06-15T16:00:00","ND","ND","ND","ND","ND","ND","ND","ND","ND"],
    [20815,"2016-06-15T17:00:00","ND","ND","ND","ND","ND","ND","ND","ND","ND"],
    [20816,"2016-06-15T18:00:00","ND","ND","ND","ND","ND","ND","ND","ND","ND"],
    [20817,"2016-06-15T19:00:00","ND","ND","ND","ND","ND","ND","ND","ND","ND"],
    [20818,"2016-06-15T20:00:00","ND","ND","ND","ND","ND","ND","ND","ND","ND"],
    [20819,"2016-06-15T21:00:00","ND","ND","ND","ND","ND","ND","ND","ND","ND"],
    [20820,"2016-06-15T22:00:00","ND","ND","ND","ND","ND","ND","ND","ND","ND"],
    [20821,"2016-06-15T23:00:00","ND","ND","ND","ND","ND","ND","ND","ND","ND"],
    [20822,"2016-06-16T00:00:00","ND","ND","ND","ND","ND","ND","ND","ND","ND"],
    [20823,"2016-06-16T01:00:00","ND","ND","ND","ND","ND","ND","ND","ND","ND"],
    [20824,"2016-06-16T02:00:00","ND","ND","ND","ND","ND","ND","ND","ND","ND"],
    [20825,"2016-06-16T03:00:00","ND","ND","ND","ND","ND","ND","ND","ND","ND"],
    [20826,"2016-06-16T04:00:00","ND","ND","ND","ND","ND","ND","ND","ND","ND"],
    [20827,"2016-06-16T05:00:00","ND","ND","ND","ND","ND","ND","ND","ND","ND"],
    [20828,"2016-06-16T06:00:00","ND","ND","ND","ND","ND","ND","ND","ND","ND"],
    [20829,"2016-06-16T07:00:00","ND","ND","ND","ND","ND","ND","ND","ND","ND"],
    [20830,"2016-06-16T08:00:00","ND","ND","ND","ND","ND","ND","ND","ND","ND"],
    [20831,"2016-06-16T09:00:00","ND","ND","ND","ND","ND","ND","ND","ND","ND"],
    [20832,"2016-06-16T10:00:00","ND","ND","ND","ND","ND","ND","ND","ND","ND"],
    [20833,"2016-06-16T11:00:00","ND","ND","ND","ND","ND","ND","ND","ND","ND"],
    [20834,"2016-06-16T12:00:00","ND","ND","ND","ND","ND","ND","ND","ND","ND"],
    [20835,"2016-06-16T13:00:00","ND","ND","ND","ND","ND","ND","ND","ND","ND"],
    [20836,"2016-06-16T14:00:00","ND","ND","ND","ND","ND","ND","ND","ND","ND"],
    [20837,"2016-06-16T15:00:00","ND","ND","ND","ND","ND","ND","ND","ND","ND"],
    [20838,"2016-06-16T16:00:00","ND","ND","ND","ND","ND","ND","ND","ND","ND"],
    [20839,"2016-06-16T17:00:00","ND","ND","ND","ND","ND","ND","ND","ND","ND"],
    [20840,"2016-06-16T18:00:00","ND","ND","ND","ND","ND","ND","ND","ND","ND"],
    [20841,"2016-06-16T19:00:00","ND","ND","ND","ND","ND","ND","ND","ND","ND"],
    [20842,"2016-06-16T20:00:00","ND","ND","ND","ND","ND","ND","ND","ND","ND"],
    [20843,"2016-06-16T21:00:00","ND","ND","ND","ND","ND","ND","ND","ND","ND"],
    [20844,"2016-06-16T22:00:00","ND","ND","ND","ND","ND","ND","ND","ND","ND"],
    [20845,"2016-06-16T23:00:00","ND","ND","ND","ND","ND","ND","ND","ND","ND"],
    [20846,"2016-06-17T00:00:00","ND","ND","ND","ND","ND","ND","ND","ND","ND"],
    [20847,"2016-06-17T01:00:00","ND","ND","ND","ND","ND","ND","ND","ND","ND"],
    [20848,"2016-06-17T02:00:00","ND","ND","ND","ND","ND","ND","ND","ND","ND"],
    [20849,"2016-06-17T03:00:00","ND","ND","ND","ND","ND","ND","ND","ND","ND"],
    [20850,"2016-06-17T04:00:00","ND","ND","ND","ND","ND","ND","ND","ND","ND"],
    [20851,"2016-06-17T05:00:00","ND","ND","ND","ND","ND","ND","ND","ND","ND"],
    [20852,"2016-06-17T06:00:00","ND","ND","ND","ND","ND","ND","ND","ND","ND"],
    [20853,"2016-06-17T07:00:00","ND","ND","ND","ND","ND","ND","ND","ND","ND"],
    [20854,"2016-06-17T08:00:00","ND","ND","ND","ND","ND","ND","ND","ND","ND"],
    [20855,"2016-06-17T09:00:00","ND","ND","ND","ND","ND","ND","ND","ND","ND"],
    [20856,"2016-06-17T10:00:00","ND","ND","ND","ND","ND","ND","ND","ND","ND"],
    [20857,"2016-06-17T11:00:00","ND","ND","ND","ND","ND","ND","ND","ND","ND"],
    [20858,"2016-06-17T12:00:00","67","25","ND","1,9","198,5","ND","41,7","ND","0"],
    [20859,"2016-06-17T13:00:00","45","14","68,51","2,9","141,8","ND","37","ND","0"],
    [20860,"2016-06-17T14:00:00","70","22","81,83","2,9","112,1","ND","38,8","ND","0"],
    [20861,"2016-06-17T15:00:00","77","23","91,49","2,9","84,2","ND","38,5","ND","0"],
    [20862,"2016-06-17T16:00:00","62","18","75,3","4","77,4","ND","40,4","ND","0"],
    [20863,"2016-06-17T17:00:00","73","19","72,16","3,3","79,9","ND","40,9","ND","0"],
    [20864,"2016-06-17T18:00:00","65","12","57,05","2,9","301,4","ND","42","ND","0"],
    [20865,"2016-06-17T19:00:00","67","11","17,19","4,2","296,5","ND","44,3","ND","0"],
    [20866,"2016-06-17T20:00:00","49","9","7,97","3,1","301,5","ND","48,3","ND","0"],
    [20867,"2016-06-17T21:00:00","45","11","7,34","3,5","85,5","ND","61,3","ND","0"],
    [20868,"2016-06-17T22:00:00","65","16","6,63","2,5","77,1","ND","64","ND","0"],
    [20869,"2016-06-17T23:00:00","57","13","6,02","2,4","82","ND","64,6","ND","0"],
    [20870,"2016-06-18T00:00:00","48","11","6,57","1","167,2","ND","66,4","ND","0"],
    [20871,"2016-06-18T01:00:00","51","17","6,1","2,5","154","ND","70,3","ND","0"],
    [20872,"2016-06-18T02:00:00","47","17","6,3","1,2","142,7","ND","71,5","ND","0"],
    [20873,"2016-06-18T03:00:00","59","22","6,83","2","176,8","ND","73","ND","0"],
    [20874,"2016-06-18T04:00:00","62","22","ND","1,8","191,3","ND","71,4","ND","0"],
    [20875,"2016-06-18T05:00:00","67","ND","ND","1,9","128,9","ND","76,1","ND","0"],
    [20876,"2016-06-18T06:00:00","89","ND","ND","1","101,6","ND","80,9","ND","0"],
    [20877,"2016-06-18T07:00:00","82","ND","ND","1,2","147,9","ND","80,9","ND","0"],
    [20878,"2016-06-18T08:00:00","99","ND","ND","1,3","100,7","ND","75","ND","0"],
    [20879,"2016-06-18T09:00:00","89","ND","ND","1,9","172,5","ND","59,9","ND","0"],
    [20880,"2016-06-18T10:00:00","77","ND","45,13","1,4","170,5","ND","52","ND","0"],
    [20881,"2016-06-18T11:00:00","84","20","74,71","2,6","82,8","ND","47,1","ND","0"],
    [20882,"2016-06-18T12:00:00","62","16","ND","3,2","75,6","ND","41,8","ND","0"],
    [20883,"2016-06-18T13:00:00","54","16","ND","3,5","78,2","ND","40","ND","0"],
    [20884,"2016-06-18T14:00:00","58","17","ND","3,7","60,3","ND","37,5","ND","0"],
    [20885,"2016-06-18T15:00:00","62","21","ND","4","52,5","ND","39,3","ND","0"],
    [20886,"2016-06-18T16:00:00","59","12","72","4,5","43,3","ND","36,8","ND","0"],
    [20887,"2016-06-18T17:00:00","59","19","68,78","2,5","28,1","ND","35,1","ND","0"],
    [20888,"2016-06-18T18:00:00","49","6","43,35","5","296,3","ND","38,5","ND","0"],
    [20889,"2016-06-18T19:00:00","42","6","25,45","5","296,1","ND","44","ND","0"],
    [20890,"2016-06-18T20:00:00","54","9","20,02","4","276,9","ND","46,3","ND","0"],
    [20891,"2016-06-18T21:00:00","60","17","11,34","3,2","109,6","ND","55,1","ND","0"],
    [20892,"2016-06-18T22:00:00","66","18","8,71","2,1","78,4","ND","59,8","ND","0"],
    [20893,"2016-06-18T23:00:00","61","13","6,77","3","127,7","ND","62","ND","0"],
    [20894,"2016-06-19T00:00:00","73","33","7,61","2,4","93,9","ND","63,1","ND","0"],
    [20895,"2016-06-19T01:00:00","48","11","6,3","0,6","168,2","ND","64,2","ND","0"],
    [20896,"2016-06-19T02:00:00","91","37","5,67","2,4","154,2","ND","67,4","ND","0"],
    [20897,"2016-06-19T03:00:00","67","14","8,1","3,3","156,2","ND","68,3","ND","0"],
    [20898,"2016-06-19T04:00:00","52","12","9,13","3,2","187,9","ND","66,9","ND","0"],
    [20899,"2016-06-19T05:00:00","37","14","11,99","3","210,7","ND","69,5","ND","0"],
    [20900,"2016-06-19T06:00:00","33","7","8,16","3,3","222","ND","72,9","ND","0"],
    [20901,"2016-06-19T07:00:00","53","18","4,91","2,2","178,3","ND","76,2","ND","0"],
    [20902,"2016-06-19T08:00:00","64","34","7,87","3","158,2","ND","73,4","ND","0"],
    [20903,"2016-06-19T09:00:00","46","15","17,62","2,5","185,5","ND","66,7","ND","0"],
    [20904,"2016-06-19T10:00:00","58","19","28,24","2,6","180,3","ND","59,6","ND","0"],
    [20905,"2016-06-19T11:00:00","44","10","48,59","2","222,2","ND","56,6","ND","0"],
    [20906,"2016-06-19T12:00:00","38","17","66,13","3,5","226,5","ND","50,8","ND","0"],
    [20907,"2016-06-19T13:00:00","34","6","60,91","2,7","152,5","ND","40,9","ND","0"],
    [20908,"2016-06-19T14:00:00","34","10","68,29","2,2","112,6","ND","38,8","ND","0"],
    [20909,"2016-06-19T15:00:00","47","22","88,95","2,7","99,3","ND","39,3","ND","0"],
    [20910,"2016-06-19T16:00:00","63","27","117,35","1,4","76,9","ND","39","ND","0"],
    [20911,"2016-06-19T17:00:00","34","8","54,99","4,4","313","ND","39,1","ND","0"],
    [20912,"2016-06-19T18:00:00","41","6","36,05","6","292,1","ND","42,9","ND","0"],
    [20913,"2016-06-19T19:00:00","47","6","22,49","2,7","310,4","ND","45,6","ND","0"],
    [20914,"2016-06-19T20:00:00","52","16","11,56","3,2","108,8","ND","55,8","ND","0"],
    [20915,"2016-06-19T21:00:00","32","8","17,13","2","253,9","ND","55,1","ND","0"],
    [20916,"2016-06-19T22:00:00","32","6","10,97","3,1","101,5","ND","61,9","ND","0"],
    [20917,"2016-06-19T23:00:00","29","4","10,6","3,1","103,3","ND","66,4","ND","0"],
    [20918,"2016-06-20T00:00:00","23","1","9,93","1,7","84,3","ND","68,5","ND","0,25"],
    [20919,"2016-06-20T01:00:00","26","1","12,05","1,7","107,7","ND","67,6","ND","0"],
    [20920,"2016-06-20T02:00:00","23","5","11,03","1,2","189,2","ND","72,3","ND","0"],
    [20921,"2016-06-20T03:00:00","27","5","12,93","1,7","228,9","ND","75,3","ND","2,79"],
    [20922,"2016-06-20T04:00:00","34","4","10,62","2,1","182,5","ND","75,3","ND","0,76"],
    [20923,"2016-06-20T05:00:00","25","5","6,57","0,7","82,1","ND","79,8","ND","2,79"],
    [20924,"2016-06-20T06:00:00","13","4","8,91","3,6","310,1","ND","78,3","ND","0,25"],
    [20925,"2016-06-20T07:00:00","19","5","5,3","1,7","331,3","ND","76,8","ND","2,29"],
    [20926,"2016-06-20T08:00:00","23","11","7,54","1,7","53,4","ND","77,1","ND","3,81"],
    [20927,"2016-06-20T09:00:00","17","11","12,79","1,7","115,5","ND","69,1","ND","0"],
    [20928,"2016-06-20T10:00:00","28","8","35,34","0,8","231,1","ND","57,8","ND","0"],
    [20929,"2016-06-20T11:00:00","26","6","51,45","1,8","177,5","ND","50,9","ND","0"],
    [20930,"2016-06-20T12:00:00","27","9","54,5","2","103,4","ND","45,3","ND","0"],
    [20931,"2016-06-20T13:00:00","43","18","57,18","3,9","85,5","ND","45,1","ND","0"],
    [20932,"2016-06-20T14:00:00","40","14","93,47","2","51,4","ND","42,2","ND","0"],
    [20933,"2016-06-20T15:00:00","45","13","67,74","5,3","58,6","ND","41,9","ND","0"],
    [20934,"2016-06-20T16:00:00","35","9","53,89","3,5","12,6","ND","41,2","ND","0"],
    [20935,"2016-06-20T17:00:00","ND","8","29,4","6","275,1","ND","49,2","ND","6,86"],
    [20936,"2016-06-20T18:00:00","ND","ND","20,84","7,1","282,2","ND","77,2","ND","11,43"],
    [20937,"2016-06-20T19:00:00","ND","ND","ND","ND","ND","ND","ND","ND","ND"],
    [20938,"2016-06-20T20:00:00","ND","ND","ND","ND","ND","ND","ND","ND","ND"],
    [20939,"2016-06-20T21:00:00","ND","ND","ND","ND","ND","ND","ND","ND","ND"],
    [20940,"2016-06-20T22:00:00","ND","ND","ND","ND","ND","ND","ND","ND","ND"],
    [20941,"2016-06-20T23:00:00","ND","ND","ND","ND","ND","ND","ND","ND","ND"],
    [20942,"2016-06-21T00:00:00","30","ND","5,12","2,2","176,8","ND","81,4","ND","0"],
    [20943,"2016-06-21T01:00:00","28","ND","5,44","2,3","192,1","ND","78","ND","0"],
    [20944,"2016-06-21T02:00:00","32","1","6,1","1,7","224,4","ND","78,4","ND","0"],
    [20945,"2016-06-21T03:00:00","19","1","6,38","1,2","171,6","ND","77,4","ND","0"],
    [20946,"2016-06-21T04:00:00","25","ND","ND","1","111,1","ND","81,1","ND","0"],
    [20947,"2016-06-21T05:00:00","59","ND","ND","1,6","120,9","ND","86,5","ND","0"],
    [20948,"2016-06-21T06:00:00","68","ND","ND","1,4","130,5","ND","87,4","ND","0"],
    [20949,"2016-06-21T07:00:00","76","ND","ND","1,1","121","ND","87,9","ND","0"],
    [20950,"2016-06-21T08:00:00","ND","ND","ND","ND","ND","ND","ND","ND","ND"],
    [20951,"2016-06-21T09:00:00","ND","ND","11,5","3,3","75,1","ND","68,4","ND","9,4"],
    [20952,"2016-06-21T10:00:00","48","17","27,47","1,1","148,2","ND","58,5","ND","0"],
    [20953,"2016-06-21T11:00:00","56","14","47,53","2,1","163,6","ND","51,8","ND","0"],
    [20954,"2016-06-21T12:00:00","49","14","63,03","1,8","112,2","ND","47,2","ND","0"],
    [20955,"2016-06-21T13:00:00","39","13","65,94","2","100,8","ND","41,3","ND","0"],
    [20956,"2016-06-21T14:00:00","49","17","64,07","3,7","92,3","ND","40,4","ND","0"],
    [20957,"2016-06-21T15:00:00","44","13","64,92","3,3","86,1","ND","39,6","ND","0"],
    [20958,"2016-06-21T16:00:00","48","12","56,46","4,2","101,7","ND","41,6","ND","0"],
    [20959,"2016-06-21T17:00:00","66","15","50,92","3,7","105,2","ND","43,8","ND","0"],
    [20960,"2016-06-21T18:00:00","84","28","47,94","2,2","122,5","ND","48","ND","0"],
    [20961,"2016-06-21T19:00:00","73","18","32,38","2","225,3","ND","49,8","ND","0"],
    [20962,"2016-06-21T20:00:00","47","11","12,32","4","278,2","ND","51,4","ND","0"],
    [20963,"2016-06-21T21:00:00","25","7","17,23","3,9","289,5","ND","53,6","ND","0"],
    [20964,"2016-06-21T22:00:00","69","17","7,5","2,6","87","ND","65,3","ND","0"],
    [20965,"2016-06-21T23:00:00","57","14","6,83","1,4","56,6","ND","68,7","ND","0"],
    [20966,"2016-06-22T00:00:00","61","27","6,69","1,4","72","ND","68,8","ND","0"],
    [20967,"2016-06-22T01:00:00","24","13","7,99","2","82,9","ND","70,1","ND","0"],
    [20968,"2016-06-22T02:00:00","23","7","8,01","1,9","97,4","ND","71,2","ND","0"],
    [20969,"2016-06-22T03:00:00","25","1","7,97","1,1","87,1","ND","73","ND","0"],
    [20970,"2016-06-22T04:00:00","28","17","7,06","0,8","206,1","ND","72,2","ND","0"],
    [20971,"2016-06-22T05:00:00","104","59","7,97","1,2","167,5","ND","73,9","ND","0"],
    [20972,"2016-06-22T06:00:00","107","56","7,36","1,3","178,6","ND","75,4","ND","0"],
    [20973,"2016-06-22T07:00:00","98","31","4,63","0,8","166,2","ND","73,9","ND","0"],
    [20974,"2016-06-22T08:00:00","103","34","6,63","2,3","101,8","ND","70,6","ND","0"],
    [20975,"2016-06-22T09:00:00","61","20","18,76","0,3","19,4","ND","61,4","ND","0"],
    [20976,"2016-06-22T10:00:00","68","24","54,4","1,6","284,4","ND","53,5","ND","0"],
    [20977,"2016-06-22T11:00:00","84","25","87,56","1,1","156,7","ND","48,1","ND","0"],
    [20978,"2016-06-22T12:00:00","89","31","95,51","3,4","97,4","ND","47,6","ND","0"],
    [20979,"2016-06-22T13:00:00","69","21","90,15","3,1","72","ND","43,3","ND","0"],
    [20980,"2016-06-22T14:00:00","71","23","118,06","2,7","73,4","ND","40,5","ND","0"],
    [20981,"2016-06-22T15:00:00","79","21","108,21","4","68,1","ND","39,8","ND","0"],
    [20982,"2016-06-22T16:00:00","80","29","96,16","4,5","78","ND","40,4","ND","0"],
    [20983,"2016-06-22T17:00:00","79","25","91,37","1,7","78,4","ND","40,9","ND","0"],
    [20984,"2016-06-22T18:00:00","68","24","46,98","4","296,5","ND","40,2","ND","0"],
    [20985,"2016-06-22T19:00:00","60","18","19,51","5,3","294,1","ND","44,6","ND","0"],
    [20986,"2016-06-22T20:00:00","45","9","16,19","4,7","299,7","ND","47,4","ND","0"],
    [20987,"2016-06-22T21:00:00","45","12","13,8","1,2","81,5","ND","54,2","ND","0"],
    [20988,"2016-06-22T22:00:00","48","14","10,07","2,3","72,6","ND","60","ND","0"],
    [20989,"2016-06-22T23:00:00","48","13","8,93","2","65,8","ND","60,5","ND","0"],
    [20990,"2016-06-23T00:00:00","32","8","9,11","1,9","103,5","ND","64,3","ND","0"],
    [20991,"2016-06-23T01:00:00","35","6","8,73","1,4","94,7","ND","65,5","ND","0"],
    [20992,"2016-06-23T02:00:00","48","12","6,44","1,8","112,7","ND","66,9","ND","0"],
    [20993,"2016-06-23T03:00:00","35","8","8,42","2,6","97","ND","68,3","ND","0"],
    [20994,"2016-06-23T04:00:00","41","5","9,58","1,9","88,6","ND","68,7","ND","0"],
    [20995,"2016-06-23T05:00:00","37","6","7,77","1,3","302,2","ND","68,4","ND","0"],
    [20996,"2016-06-23T06:00:00","67","20","6,52","2,2","185,5","ND","69,3","ND","0"],
    [20997,"2016-06-23T07:00:00","77","25","7,06","3,2","180,1","ND","70,1","ND","0"],
    [20998,"2016-06-23T08:00:00","66","21","11,72","2,8","207,7","ND","66,8","ND","0"],
    [20999,"2016-06-23T09:00:00","59","17","18,7","1,9","204,8","ND","61,4","ND","0"],
    [21000,"2016-06-23T10:00:00","ND","ND","ND","1,6","119,7","ND","52,7","ND","0"],
    [21001,"2016-06-23T11:00:00","73","25","ND","4,2","81,4","ND","51,4","ND","0"],
    [21002,"2016-06-23T12:00:00","67","24","71,19","2,9","86,2","ND","48,5","ND","0"],
    [21003,"2016-06-23T13:00:00","63","26","92,94","3,6","88,6","ND","42,8","ND","0"],
    [21004,"2016-06-23T14:00:00","63","25","90,84","3,6","75,2","ND","42,7","ND","0"],
    [21005,"2016-06-23T15:00:00","71","23","90,9","4,9","46,6","ND","42,8","ND","0"],
    [21006,"2016-06-23T16:00:00","74","24","66,37","4,6","64,3","ND","46,3","ND","0"],
    [21007,"2016-06-23T17:00:00","71","30","49,63","2,8","73,9","ND","48,2","ND","0"],
    [21008,"2016-06-23T18:00:00","50","11","38,62","2,5","308,4","ND","46,3","ND","0"],
    [21009,"2016-06-23T19:00:00","61","10","17,92","3,9","285,1","ND","45,2","ND","0"],
    [21010,"2016-06-23T20:00:00","47","5","15,8","4,1","303,4","ND","47,3","ND","0"],
    [21011,"2016-06-23T21:00:00","65","16","7,73","3,3","86,9","ND","57,6","ND","0"],
    [21012,"2016-06-23T22:00:00","24","8","8,34","2,8","106,2","ND","61,8","ND","0"],
    [21013,"2016-06-23T23:00:00","33","4","12,13","3,4","84,8","ND","61","ND","0"],
    [21014,"2016-06-24T00:00:00","31","5","12,28","1,1","349","ND","60,8","ND","0"],
    [21015,"2016-06-24T01:00:00","31","8","11,93","1,5","123,1","ND","62,3","ND","0"],
    [21016,"2016-06-24T02:00:00","52","20","11,15","1,7","96","ND","63,9","ND","0"],
    [21017,"2016-06-24T03:00:00","41","8","12,11","2,5","183,5","ND","66,2","ND","0"],
    [21018,"2016-06-24T04:00:00","40","8","6,97","1,5","162","ND","69","ND","0"],
    [21019,"2016-06-24T05:00:00","63","17","4,87","2,7","91,3","ND","71,2","ND","0"],
    [21020,"2016-06-24T06:00:00","99","28","5,16","1,8","91,2","ND","73","ND","0"],
    [21021,"2016-06-24T07:00:00","105","37","6,18","0,6","25,1","ND","70,5","ND","0"],
    [21022,"2016-06-24T08:00:00","112","36","6,28","3","118,4","ND","71,3","ND","0"],
    [21023,"2016-06-24T09:00:00","79","26","14,38","1,2","140,9","ND","63,3","ND","0"],
    [21024,"2016-06-24T10:00:00","77","21","28,73","1,8","59,9","ND","56","ND","0"],
    [21025,"2016-06-24T11:00:00","71","23","47,67","2,5","101,3","ND","52,9","ND","0"],
    [21026,"2016-06-24T12:00:00","57","24","61,38","3,7","64,2","ND","51,2","ND","0"],
    [21027,"2016-06-24T13:00:00","53","19","61,4","4,8","80,4","ND","50,4","ND","0"],
    [21028,"2016-06-24T14:00:00","48","17","74,51","3,5","47,6","ND","45,1","ND","0"],
    [21029,"2016-06-24T15:00:00","41","12","56,52","4,1","62,1","ND","44,6","ND","0"],
    [21030,"2016-06-24T16:00:00","51","12","47,69","5","69,4","ND","45,8","ND","0"],
    [21031,"2016-06-24T17:00:00","53","12","33,6","4,2","60,8","ND","44,7","ND","0"],
    [21032,"2016-06-24T18:00:00","47","10","25,33","4,4","16,8","ND","42,4","ND","0"],
    [21033,"2016-06-24T19:00:00","52","5","12,44","3,3","318,5","ND","48,2","ND","0"],
    [21034,"2016-06-24T20:00:00","74","31","8,75","3,2","64,3","ND","55,5","ND","0"],
    [21035,"2016-06-24T21:00:00","42","3","13,48","4,9","51,3","ND","63,4","ND","0"],
    [21036,"2016-06-24T22:00:00","42","6","10,73","2,3","74,1","ND","66,3","ND","0"],
    [21037,"2016-06-24T23:00:00","34","7","12,23","3,4","194,2","ND","68,8","ND","0"],
    [21038,"2016-06-25T00:00:00","26","5","11,11","2","177,2","ND","76","ND","2,79"],
    [21039,"2016-06-25T01:00:00","15","4","10,71","1,4","146,1","ND","76,9","ND","0,51"],
    [21040,"2016-06-25T02:00:00","23","5","10,48","1,7","132,8","ND","77,6","ND","0,25"],
    [21041,"2016-06-25T03:00:00","17","4","10,56","0,8","192,3","ND","76,4","ND","0"],
    [21042,"2016-06-25T04:00:00","22","2","10,09","0,9","149,2","ND","75,2","ND","0"],
    [21043,"2016-06-25T05:00:00","42","9","5,71","2,3","116,3","ND","78,8","ND","0"],
    [21044,"2016-06-25T06:00:00","45","21","6,2","1,4","127,2","ND","78,2","ND","0"],
    [21045,"2016-06-25T07:00:00","55","18","5,79","1,6","154,5","ND","77,5","ND","0"],
    [21046,"2016-06-25T08:00:00","44","9","7,56","1,6","158,8","ND","73,7","ND","0"],
    [21047,"2016-06-25T09:00:00","40","7","11,38","2,3","195,6","ND","70,5","ND","0"],
    [21048,"2016-06-25T10:00:00","34","4","24,63","2,2","175,8","ND","59,3","ND","0"],
    [21049,"2016-06-25T11:00:00","28","11","47,45","1,6","92,2","ND","51","ND","0"],
    [21050,"2016-06-25T12:00:00","33","7","50,45","2,7","92,2","ND","44,2","ND","0"],
    [21051,"2016-06-25T13:00:00","27","3","60,85","2,4","90,7","ND","39,5","ND","0"],
    [21052,"2016-06-25T14:00:00","24","5","65,35","3,1","141,3","ND","37,3","ND","0"],
    [21053,"2016-06-25T15:00:00","36","9","54,4","4,5","107","ND","39","ND","0"],
    [21054,"2016-06-25T16:00:00","47","13","53,4","3,7","85,4","ND","38,3","ND","0"],
    [21055,"2016-06-25T17:00:00","60","16","68,96","4,1","60,9","ND","38,6","ND","0"],
    [21056,"2016-06-25T18:00:00","36","8","43,33","3,7","355,1","ND","40,6","ND","0"],
    [21057,"2016-06-25T19:00:00","33","10","41,39","4,9","302,8","ND","44,2","ND","0"],
    [21058,"2016-06-25T20:00:00","34","7","36,15","5,6","294,6","ND","46,7","ND","0"],
    [21059,"2016-06-25T21:00:00","46","10","20,25","1,3","346,7","ND","49,4","ND","0"],
    [21060,"2016-06-25T22:00:00","47","11","11,73","4,5","90,9","ND","60,7","ND","0"],
    [21061,"2016-06-25T23:00:00","46","18","10,32","1,7","30,6","ND","61,5","ND","0"],
    [21062,"2016-06-26T00:00:00","62","17","8,18","1,7","118,6","ND","61,4","ND","0"],
    [21063,"2016-06-26T01:00:00","49","14","9,24","1,9","111,9","ND","63,7","ND","0"],
    [21064,"2016-06-26T02:00:00","48","7","8,95","2","144,8","ND","66","ND","0"],
    [21065,"2016-06-26T03:00:00","53","14","6,77","2,7","155,2","ND","69,6","ND","0,76"],
    [21066,"2016-06-26T04:00:00","36","14","8,05","2,9","208,6","ND","79,6","ND","3,05"],
    [21067,"2016-06-26T05:00:00","27","13","7,04","1,3","105,2","ND","78,1","ND","0"],
    [21068,"2016-06-26T06:00:00","40","12","6,91","2","128,7","ND","77,5","ND","0"],
    [21069,"2016-06-26T07:00:00","59","21","6,79","1,9","51,5","ND","74,7","ND","0"],
    [21070,"2016-06-26T08:00:00","36","16","7,63","1,8","342,6","ND","76,9","ND","5,33"],
    [21071,"2016-06-26T09:00:00","26","14","12,21","1,8","343,4","ND","73,7","ND","0"],
    [21072,"2016-06-26T10:00:00","31","16","32,12","0,9","270,1","ND","62,9","ND","0"],
    [21073,"2016-06-26T11:00:00","29","3","36,42","1,9","99,7","ND","58,1","ND","0"],
    [21074,"2016-06-26T12:00:00","23","6","43,27","2","115","ND","55,3","ND","0"],
    [21075,"2016-06-26T13:00:00","26","6","50,55","0,9","124,7","ND","51,4","ND","0"],
    [21076,"2016-06-26T14:00:00","37","17","55,44","2,4","121,9","ND","49,5","ND","0"],
    [21077,"2016-06-26T15:00:00","38","11","64,72","2,6","152,9","ND","48,4","ND","0"],
    [21078,"2016-06-26T16:00:00","44","11","58,66","2,8","126,8","ND","47,4","ND","0"],
    [21079,"2016-06-26T17:00:00","39","12","77,47","2,7","195,7","ND","45,5","ND","0"],
    [21080,"2016-06-26T18:00:00","48","16","68,74","3,1","197,9","ND","46,8","ND","0"],
    [21081,"2016-06-26T19:00:00","63","18","49,73","1,3","192,4","ND","50,5","ND","0"],
    [21082,"2016-06-26T20:00:00","98","35","26,45","1,6","306","ND","56,6","ND","0"],
    [21083,"2016-06-26T21:00:00","79","26","8,81","2,2","89,6","ND","61,9","ND","0"],
    [21084,"2016-06-26T22:00:00","55","20","8,85","2,7","81,3","ND","68,1","ND","0"],
    [21085,"2016-06-26T23:00:00","50","10","9,58","1,9","74,7","ND","67,7","ND","0"],
    [21086,"2016-06-27T00:00:00","38","7","10,85","1,3","152,9","ND","69,5","ND","0"],
    [21087,"2016-06-27T01:00:00","41","14","10,11","1,3","192","ND","70,9","ND","0"],
    [21088,"2016-06-27T02:00:00","48","17","7,71","1,9","148,1","ND","73,9","ND","0"],
    [21089,"2016-06-27T03:00:00","60","17","7,97","2","216,7","ND","77,3","ND","0"],
    [21090,"2016-06-27T04:00:00","56","23","8,03","1","167,3","ND","76,9","ND","0"],
    [21091,"2016-06-27T05:00:00","69","25","5,85","2,1","79,7","ND","79,8","ND","0"],
    [21092,"2016-06-27T06:00:00","107","36","6,2","2,2","100,7","ND","79","ND","0"],
    [21093,"2016-06-27T07:00:00","113","42","6,46","1,5","102","ND","77,8","ND","0"],
    [21094,"2016-06-27T08:00:00","75","26","8,93","1,3","80,2","ND","70,4","ND","0"],
    [21095,"2016-06-27T09:00:00","87","37","23,33","2,4","111,8","ND","62,5","ND","0"],
    [21096,"2016-06-27T10:00:00","52","21","53,67","1,4","184,1","ND","55,1","ND","0"],
    [21097,"2016-06-27T11:00:00","50","17","71,65","1,8","114","ND","48,7","ND","0"],
    [21098,"2016-06-27T12:00:00","47","22","81,14","1,4","115,9","ND","42,8","ND","0"],
    [21099,"2016-06-27T13:00:00","48","18","92,64","1,9","166,4","ND","37,9","ND","0"],
    [21100,"2016-06-27T14:00:00","43","11","85,21","2,5","122,4","ND","34,2","ND","0"],
    [21101,"2016-06-27T15:00:00","41","9","78,67","2,7","111,7","ND","30,6","ND","0"],
    [21102,"2016-06-27T16:00:00","41","11","75,96","2,7","86,6","ND","29,2","ND","0"],
    [21103,"2016-06-27T17:00:00","61","14","79,36","4,8","16,4","ND","34,9","ND","0"],
    [21104,"2016-06-27T18:00:00","72","16","46,9","4,6","356,1","ND","41,1","ND","0"],
    [21105,"2016-06-27T19:00:00","64","17","27,36","4,2","315,3","ND","44,4","ND","0"],
    [21106,"2016-06-27T20:00:00","59","15","15,09","1,7","359","ND","48,7","ND","0"],
    [21107,"2016-06-27T21:00:00","65","13","12,28","2,8","124,2","ND","58,7","ND","0"],
    [21108,"2016-06-27T22:00:00","59","18","11,36","1,3","195,3","ND","60,3","ND","0"],
    [21109,"2016-06-27T23:00:00","65","19","11,05","2,6","217,4","ND","60,1","ND","0"],
    [21110,"2016-06-28T00:00:00","56","15","8,83","2","158,7","ND","66","ND","0"],
    [21111,"2016-06-28T01:00:00","56","17","9,69","3,2","101,6","ND","68,1","ND","0"],
    [21112,"2016-06-28T02:00:00","51","15","13,76","1,3","170,3","ND","66,4","ND","0"],
    [21113,"2016-06-28T03:00:00","54","18","12,93","1,6","192,4","ND","67,5","ND","0"],
    [21114,"2016-06-28T04:00:00","55","13","11,5","2","172","ND","68,3","ND","0"],
    [21115,"2016-06-28T05:00:00","47","11","9,11","2,5","165,8","ND","71,3","ND","0"],
    [21116,"2016-06-28T06:00:00","74","19","6,71","1,6","129,6","ND","73,8","ND","0"],
    [21117,"2016-06-28T07:00:00","81","25","7,01","1,7","138,7","ND","73,5","ND","0"],
    [21118,"2016-06-28T08:00:00","75","21","8,99","1,4","151,7","ND","70,4","ND","0"],
    [21119,"2016-06-28T09:00:00","83","22","17,72","1,2","160,5","ND","60,3","ND","0"],
    [21120,"2016-06-28T10:00:00","92","27","35,77","2,6","108,8","ND","53,6","ND","0"],
    [21121,"2016-06-28T11:00:00","55","13","63,97","1,7","107,6","ND","44,5","ND","0"],
    [21122,"2016-06-28T12:00:00","48","22","73,61","2,9","83,9","ND","41,3","ND","0"],
    [21123,"2016-06-28T13:00:00","50","8","78,77","2,7","66,1","ND","39,1","ND","0"],
    [21124,"2016-06-28T14:00:00","66","16","83,09","3,4","73,4","ND","37,7","ND","0"],
    [21125,"2016-06-28T15:00:00","71","22","117,62","5,2","68,6","ND","36,6","ND","0"],
    [21126,"2016-06-28T16:00:00","71","21","112,93","4,7","91,2","ND","35,2","ND","0"],
    [21127,"2016-06-28T17:00:00","59","14","84,4","3,8","278,8","ND","38,9","ND","0"],
    [21128,"2016-06-28T18:00:00","53","10","52,55","5,4","289,1","ND","42,6","ND","0"],
    [21129,"2016-06-28T19:00:00","45","9","32,1","5,4","289,9","ND","46,2","ND","0"],
    [21130,"2016-06-28T20:00:00","40","5","28,85","6","297,8","ND","49,4","ND","0"],
    [21131,"2016-06-28T21:00:00","72","7","11,77","3,8","100,7","ND","56,5","ND","0"],
    [21132,"2016-06-28T22:00:00","51","9","9,97","1,5","53,2","ND","61,4","ND","0"],
    [21133,"2016-06-28T23:00:00","56","11","8,6","2,6","96,8","ND","62,6","ND","0"],
    [21134,"2016-06-29T00:00:00","25","5","8,61","1,9","74,7","ND","66","ND","0"],
    [21135,"2016-06-29T01:00:00","28","ND","9,3","1,2","63","ND","66,1","ND","0"],
    [21136,"2016-06-29T02:00:00","46","7","9,85","1,3","32,6","ND","68,5","ND","0"],
    [21137,"2016-06-29T03:00:00","37","6","10,28","0,2","97,8","ND","68,3","ND","0"],
    [21138,"2016-06-29T04:00:00","49","22","7,14","1,9","142,1","ND","73,4","ND","0"],
    [21139,"2016-06-29T05:00:00","67","17","6,06","2,1","187","ND","74,1","ND","0"],
    [21140,"2016-06-29T06:00:00","74","23","7,01","2,4","149,3","ND","71,1","ND","0"],
    [21141,"2016-06-29T07:00:00","56","11","6,81","2,7","179,7","ND","69,7","ND","0"],
    [21142,"2016-06-29T08:00:00","78","17","8,79","1,7","189,7","ND","64,8","ND","0"],
    [21143,"2016-06-29T09:00:00","79","14","17,07","1,8","213","ND","54,8","ND","0"],
    [21144,"2016-06-29T10:00:00","63","9","26,1","2,7","144,9","ND","51,3","ND","0"],
    [21145,"2016-06-29T11:00:00","52","13","44,94","2,4","165,6","ND","48","ND","0"],
    [21146,"2016-06-29T12:00:00","59","14","63,03","2,1","141,2","ND","44,6","ND","0"],
    [21147,"2016-06-29T13:00:00","44","11","64,46","3,1","76,9","ND","43,1","ND","0"],
    [21148,"2016-06-29T14:00:00","55","13","84,09","3,6","99,7","ND","41,2","ND","0"],
    [21149,"2016-06-29T15:00:00","71","18","125,89","2,6","74,6","ND","40,1","ND","0"],
    [21150,"2016-06-29T16:00:00","79","29","96,47","4,2","92,5","ND","42","ND","0"],
    [21151,"2016-06-29T17:00:00","64","13","69,86","1,1","171,5","ND","42,3","ND","0"],
    [21152,"2016-06-29T18:00:00","54","10","28,55","5","277,2","ND","43","ND","0"],
    [21153,"2016-06-29T19:00:00","59","7","19,64","4,8","288,8","ND","45,2","ND","0"],
    [21154,"2016-06-29T20:00:00","47","10","12,99","3,7","283,9","ND","47,4","ND","0"],
    [21155,"2016-06-29T21:00:00","62","14","9,69","3,8","89,3","ND","57,3","ND","0"],
    [21156,"2016-06-29T22:00:00","72","18","7,71","2","66,6","ND","61,8","ND","0"],
    [21157,"2016-06-29T23:00:00","82","40","8,22","0,2","4,1","ND","63,1","ND","0"],
    [21158,"2016-06-30T00:00:00","56","12","6,87","1,5","196,4","ND","63,4","ND","0"],
    [21159,"2016-06-30T01:00:00","49","8","6,81","1,4","100,1","ND","67,7","ND","0"],
    [21160,"2016-06-30T02:00:00","43","6","6,4","1,6","191,6","ND","67,1","ND","0"],
    [21161,"2016-06-30T03:00:00","57","9","6,57","2","150,3","ND","69,2","ND","0"],
    [21162,"2016-06-30T04:00:00","50","15","6,97","1,8","119,8","ND","70,3","ND","0"],
    [21163,"2016-06-30T05:00:00","49","13","6,75","1,2","185,2","ND","69,8","ND","0"],
    [21164,"2016-06-30T06:00:00","65","18","7,03","1,5","174,7","ND","72,2","ND","0"],
    [21165,"2016-06-30T07:00:00","85","31","7,81","2,2","185,8","ND","72,3","ND","0"],
    [21166,"2016-06-30T08:00:00","70","22","11,73","2,6","175,4","ND","68,1","ND","0"],
    [21167,"2016-06-30T09:00:00","57","17","24,9","3,2","170,6","ND","57,2","ND","0"],
    [21168,"2016-06-30T10:00:00","45","15","48,55","1,3","175,1","ND","49,9","ND","0"],
    [21169,"2016-06-30T11:00:00","48","16","56,1","2","103,1","ND","46,5","ND","0"],
    [21170,"2016-06-30T12:00:00","54","13","78,77","2,5","130,4","ND","41,6","ND","0"],
    [21171,"2016-06-30T13:00:00","68","18","83,77","2,7","118,6","ND","40,2","ND","0"],
    [21172,"2016-06-30T14:00:00","67","14","91,17","2,7","119,9","ND","39,1","ND","0"],
    [21173,"2016-06-30T15:00:00","68","19","105,73","2,9","112,1","ND","38,7","ND","0"],
    [21174,"2016-06-30T16:00:00","67","11","47,78","6,6","30,6","ND","51,2","ND","0"],
    [21175,"2016-06-30T17:00:00","53","9","31,83","4,6","0,4","ND","56,9","ND","0"],
    [21176,"2016-06-30T18:00:00","59","8","33,16","1,3","293,8","ND","50,6","ND","0"],
    [21177,"2016-06-30T19:00:00","70","21","12,28","3,4","85,3","ND","59,5","ND","0"],
    [21178,"2016-06-30T20:00:00","60","8","9,52","3,7","78,3","ND","62,9","ND","0"],
    [21179,"2016-06-30T21:00:00","53","10","9,89","2,3","68,9","ND","63","ND","0"],
    [21180,"2016-06-30T22:00:00","42","14","12,52","3,4","57,6","ND","60,5","ND","0"],
    [21181,"2016-06-30T23:00:00","39","16","8,75","1,4","125,2","ND","60,7","ND","0"],
    [21182,"2016-07-01T00:00:00","28","9","8,32","2,3","116,6","ND","67,8","ND","0"],
    [21183,"2016-07-01T01:00:00","32","16","16,03","2,4","220,8","ND","71,1","ND","0"],
    [21184,"2016-07-01T02:00:00","28","7","18,23","1,8","138,8","ND","71,6","ND","0"],
    [21185,"2016-07-01T03:00:00","34","10","12,74","1,6","232,1","ND","73,1","ND","0"],
    [21186,"2016-07-01T04:00:00","41","13","9,75","1,5","216,5","ND","73,3","ND","0"],
    [21187,"2016-07-01T05:00:00","63","25","7,59","1,9","91,8","ND","76,1","ND","0"],
    [21188,"2016-07-01T06:00:00","63","25","7,59","1,8","141,6","ND","77,6","ND","0"],
    [21189,"2016-07-01T07:00:00","76","25","7,75","2,2","105,3","ND","76,6","ND","0"],
    [21190,"2016-07-01T08:00:00","64","17","7,79","2,1","149,1","ND","74,3","ND","0"],
    [21191,"2016-07-01T09:00:00","55","15","15,11","1,1","174,2","ND","64,7","ND","0"],
    [21192,"2016-07-01T10:00:00","55","14","39,07","1,6","111,6","ND","53,9","ND","0"],
    [21193,"2016-07-01T11:00:00","44","19","63,29","1,5","126,8","ND","47,8","ND","0"],
    [21194,"2016-07-01T12:00:00","47","15","69,98","2","83","ND","43,6","ND","0"],
    [21195,"2016-07-01T13:00:00","59","22","88,7","3,6","60,5","ND","42,2","ND","0"],
    [21196,"2016-07-01T14:00:00","60","23","110,97","3,8","32,3","ND","40,8","ND","0"],
    [21197,"2016-07-01T15:00:00","48","8","76,24","4,2","48,1","ND","41,1","ND","0"],
    [21198,"2016-07-01T16:00:00","47","8","47,72","3,6","313,9","ND","41,2","ND","0"],
    [21199,"2016-07-01T17:00:00","35","7","45,63","4,7","282,7","ND","40,2","ND","0"],
    [21200,"2016-07-01T18:00:00","45","8","36,03","5,2","284,7","ND","41,9","ND","0"],
    [21201,"2016-07-01T19:00:00","62","10","15,62","3,7","289","ND","46,8","ND","0"],
    [21202,"2016-07-01T20:00:00","69","15","10,01","1,3","75,2","ND","51,9","ND","0"],
    [21203,"2016-07-01T21:00:00","53","7","9,18","3","100,8","ND","60,7","ND","0"],
    [21204,"2016-07-01T22:00:00","30","5","10,17","4","102,6","ND","62,2","ND","0"],
    [21205,"2016-07-01T23:00:00","26","5","12,09","3,9","99,7","ND","63,2","ND","0"],
    [21206,"2016-07-02T00:00:00","23","6","10,58","2,2","94,4","ND","64,1","ND","0"],
    [21207,"2016-07-02T01:00:00","14","5","13,07","1,9","45","ND","66,5","ND","0"],
    [21208,"2016-07-02T02:00:00","23","3","10,54","2,9","75,8","ND","70,3","ND","0,25"],
    [21209,"2016-07-02T03:00:00","26","4","10,5","1","31","ND","77,2","ND","4,83"],
    [21210,"2016-07-02T04:00:00","20","4","9,01","1,8","135,6","ND","77,2","ND","0"],
    [21211,"2016-07-02T05:00:00","22","1","7,48","1,1","123,5","ND","75,9","ND","0"],
    [21212,"2016-07-02T06:00:00","39","11","7,48","0,8","172,1","ND","74,7","ND","0"],
    [21213,"2016-07-02T07:00:00","49","15","7,85","1,6","160,4","ND","74,2","ND","0"],
    [21214,"2016-07-02T08:00:00","69","23","8,03","2","105","ND","74,3","ND","0"],
    [21215,"2016-07-02T09:00:00","63","17","12,05","2,3","125,8","ND","70,5","ND","0"],
    [21216,"2016-07-02T10:00:00","58","19","36,99","1","307,9","ND","60,6","ND","0"],
    [21217,"2016-07-02T11:00:00","61","27","53,4","1,4","43,7","ND","54,1","ND","0"],
    [21218,"2016-07-02T12:00:00","52","19","59,64","3","107","ND","49,2","ND","0,25"],
    [21219,"2016-07-02T13:00:00","40","14","69,19","4","108,5","ND","44,9","ND","0"],
    [21220,"2016-07-02T14:00:00","36","9","79,08","2,8","71,1","ND","41,1","ND","0"],
    [21221,"2016-07-02T15:00:00","38","13","63,97","3,4","55,1","ND","40,8","ND","0"],
    [21222,"2016-07-02T16:00:00","45","8","37,66","3,1","73","ND","45,3","ND","1,78"],
    [21223,"2016-07-02T17:00:00","34","7","39,31","4,4","264,5","ND","50,5","ND","0"],
    [21224,"2016-07-02T18:00:00","39","ND","33,77","5,2","294,5","ND","45","ND","0"],
    [21225,"2016-07-02T19:00:00","52","ND","19,72","3,5","296,5","ND","46,7","ND","0"],
    [21226,"2016-07-02T20:00:00","59","ND","9,5","1,6","93,8","ND","54,5","ND","0"],
    [21227,"2016-07-02T21:00:00","51","ND","9,01","3,8","83","ND","61,7","ND","0"],
    [21228,"2016-07-02T22:00:00","44","ND","9,01","0,6","82","ND","63,9","ND","0"],
    [21229,"2016-07-02T23:00:00","45","ND","8,73","4,2","236,4","ND","66,1","ND","0"],
    [21230,"2016-07-03T00:00:00","35","ND","21,82","5","235,9","ND","65,5","ND","0"],
    [21231,"2016-07-03T01:00:00","21","ND","23,74","3,4","198,6","ND","67,8","ND","0"],
    [21232,"2016-07-03T02:00:00","27","ND","24,59","3,3","187,9","ND","67,5","ND","0"],
    [21233,"2016-07-03T03:00:00","32","ND","17,5","1,2","106,1","ND","70,1","ND","0"],
    [21234,"2016-07-03T04:00:00","47","ND","11,66","1,9","73,8","ND","71,5","ND","0"],
    [21235,"2016-07-03T05:00:00","41","ND","9,56","2,4","66,1","ND","74,7","0","0,76"],
    [21236,"2016-07-03T06:00:00","33","ND","8,87","2,6","62","ND","79,5","0","0,76"],
    [21237,"2016-07-03T07:00:00","27","ND","8,42","1,9","3,3","ND","78,9","ND","0,51"],
    [21238,"2016-07-03T08:00:00","40","ND","8,2","1","340,3","ND","76,6","ND","0"],
    [21239,"2016-07-03T09:00:00","67","ND","9,6","0,5","76,7","ND","73,3","ND","0"],
    [21240,"2016-07-03T10:00:00","47","ND","20,62","2,5","95,7","ND","66,7","ND","0"],
    [21241,"2016-07-03T11:00:00","36","ND","42,78","2","131","ND","55,4","ND","0"],
    [21242,"2016-07-03T12:00:00","37","ND","56,95","2,5","130,6","ND","51,9","ND","0"],
    [21243,"2016-07-03T13:00:00","40","ND","78,99","2,4","98,6","ND","47,2","ND","0"],
    [21244,"2016-07-03T14:00:00","56","ND","91,37","3,4","59,4","ND","43,5","ND","0"],
    [21245,"2016-07-03T15:00:00","41","ND","69,27","4,7","70,9","ND","44,9","ND","0"],
    [21246,"2016-07-03T16:00:00","38","ND","63,64","4,1","62,1","ND","43,1","ND","0"],
    [21247,"2016-07-03T17:00:00","38","ND","43,33","4,1","47,9","ND","42,8","ND","0"],
    [21248,"2016-07-03T18:00:00","76","ND","24,41","3,4","14,8","ND","45","ND","0"],
    [21249,"2016-07-03T19:00:00","47","ND","12,76","2,4","26","ND","51","ND","0"],
    [21250,"2016-07-03T20:00:00","54","ND","9,22","2,2","64,2","ND","56,9","ND","0"],
    [21251,"2016-07-03T21:00:00","52","ND","8,16","3,2","106,9","ND","62,6","ND","0"],
    [21252,"2016-07-03T22:00:00","50","ND","8,28","1,5","77,2","ND","66,8","ND","0"],
    [21253,"2016-07-03T23:00:00","45","ND","9,14","2,5","185,4","ND","66","ND","0"],
    [21254,"2016-07-04T00:00:00","49","ND","12,38","2,5","179,7","ND","67,9","ND","0"],
    [21255,"2016-07-04T01:00:00","54","ND","10,66","2","163,4","ND","68,8","ND","0"],
    [21256,"2016-07-04T02:00:00","41","ND","14,6","1,1","160,2","ND","70,5","ND","0"],
    [21257,"2016-07-04T03:00:00","56","ND","12,07","2","96,2","ND","71,8","ND","0"],
    [21258,"2016-07-04T04:00:00","47","ND","11,05","2,5","123,1","ND","72,3","ND","0"],
    [21259,"2016-07-04T05:00:00","49","ND","8,12","2","91","ND","73,6","ND","0"],
    [21260,"2016-07-04T06:00:00","39","ND","7,65","1,7","158,3","ND","74,3","ND","0"],
    [21261,"2016-07-04T07:00:00","31","ND","9,2","2,6","182,6","ND","77,5","ND","0"],
    [21262,"2016-07-04T08:00:00","34","ND","11,79","2,1","191,2","ND","72,5","ND","0"],
    [21263,"2016-07-04T09:00:00","30","ND","18,17","2,1","197,1","ND","65,6","ND","0"],
    [21264,"2016-07-04T10:00:00","36","ND","27,16","3,3","172,5","ND","59,7","ND","0"],
    [21265,"2016-07-04T11:00:00","34","ND","39,25","2,9","175","ND","52,1","ND","0"],
    [21266,"2016-07-04T12:00:00","35","ND","54,28","2,2","185,2","ND","44","ND","0"],
    [21267,"2016-07-04T13:00:00","34","ND","58,5","3,4","164,8","ND","41,5","ND","0"],
    [21268,"2016-07-04T14:00:00","44","ND","57,65","4,2","156,3","ND","46","ND","0"],
    [21269,"2016-07-04T15:00:00","41","ND","74,86","3,9","180,6","ND","45,7","ND","0"],
    [21270,"2016-07-04T16:00:00","60","ND","66,23","1","285,2","ND","50,8","ND","0"],
    [21271,"2016-07-04T17:00:00","27","ND","29,47","5,7","306,5","ND","53,8","ND","0"],
    [21272,"2016-07-04T18:00:00","33","ND","21,9","2,6","337,7","ND","51,7","ND","0"],
    [21273,"2016-07-04T19:00:00","57","ND","14,23","2,9","110,4","ND","59,2","ND","0"],
    [21274,"2016-07-04T20:00:00","68","ND","11,34","3","124","ND","61","ND","0"],
    [21275,"2016-07-04T21:00:00","49","ND","9,54","2,3","98,4","ND","63,4","ND","0"],
    [21276,"2016-07-04T22:00:00","58","ND","7,87","2,2","187,8","ND","67,4","ND","0"],
    [21277,"2016-07-04T23:00:00","58","ND","7,91","2,1","130,5","ND","70,6","ND","0"],
    [21278,"2016-07-05T00:00:00","39","ND","7,3","0,2","9","ND","71,1","ND","0"],
    [21279,"2016-07-05T01:00:00","43","ND","9,09","1,6","207,1","ND","70,3","ND","0"],
    [21280,"2016-07-05T02:00:00","52","ND","8,87","1,8","158,4","ND","72,9","ND","0"],
    [21281,"2016-07-05T03:00:00","51","ND","7,36","2,1","101","ND","74,7","ND","0"],
    [21282,"2016-07-05T04:00:00","33","ND","6,99","1,7","74,6","ND","73,5","ND","0"],
    [21283,"2016-07-05T05:00:00","60","ND","7,95","0,8","280,8","ND","74","ND","0"],
    [21284,"2016-07-05T06:00:00","46","ND","7,42","1,1","192,1","ND","71,6","ND","0"],
    [21285,"2016-07-05T07:00:00","78","ND","7,85","2,7","95,8","ND","75,9","ND","0,76"],
    [21286,"2016-07-05T08:00:00","80","ND","8,01","1,4","113,8","ND","76,1","ND","0"],
    [21287,"2016-07-05T09:00:00","62","ND","15,07","3,2","215,4","ND","67","ND","0"],
    [21288,"2016-07-05T10:00:00","55","ND","22,55","1,3","158,9","ND","61,6","ND","0"],
    [21289,"2016-07-05T11:00:00","48","ND","36,11","1,7","224,2","ND","56","ND","0"],
    [21290,"2016-07-05T12:00:00","62","ND","46,37","2,7","95","ND","50,4","ND","0"],
    [21291,"2016-07-05T13:00:00","68","ND","55,73","2,8","115,7","ND","53,6","ND","0,25"],
    [21292,"2016-07-05T14:00:00","56","ND","80,75","1,8","94,3","ND","43,9","ND","0"],
    [21293,"2016-07-05T15:00:00","31","ND","50,24","5","44,6","ND","42,6","ND","0"],
    [21294,"2016-07-05T16:00:00","34","ND","36,5","4,4","59,6","ND","42,4","ND","0"],
    [21295,"2016-07-05T17:00:00","36","ND","39,33","3,2","350","ND","41,3","ND","0"],
    [21296,"2016-07-05T18:00:00","32","ND","28,18","6,9","302","ND","42,6","ND","0"],
    [21297,"2016-07-05T19:00:00","41","ND","14,38","4,8","309,7","ND","45,9","ND","0"],
    [21298,"2016-07-05T20:00:00","68","ND","20,78","1,9","208","ND","51,5","ND","0"],
    [21299,"2016-07-05T21:00:00","51","ND","22,43","3,2","146,2","ND","63","ND","0"],
    [21300,"2016-07-05T22:00:00","47","ND","23,41","3,1","205,2","ND","66,8","ND","0"],
    [21301,"2016-07-05T23:00:00","56","ND","14,48","2,3","214,9","ND","67,7","ND","0"],
    [21302,"2016-07-06T00:00:00","58","ND","9,13","2,2","78,8","ND","69,8","ND","0"],
    [21303,"2016-07-06T01:00:00","57","ND","8,63","1,9","94,5","ND","75,8","ND","0"],
    [21304,"2016-07-06T02:00:00","58","ND","10,75","1,6","190,8","ND","75,6","ND","0"],
    [21305,"2016-07-06T03:00:00","44","ND","11,56","1,3","72,8","ND","75,3","ND","0"],
    [21306,"2016-07-06T04:00:00","58","ND","9,64","2,2","43,9","ND","76,3","ND","0,76"],
    [21307,"2016-07-06T05:00:00","38","ND","8,32","2,8","57","ND","80,2","ND","4,57"],
    [21308,"2016-07-06T06:00:00","35","ND","8,4","1,5","21,2","ND","80,9","ND","2,79"],
    [21309,"2016-07-06T07:00:00","27","ND","8,87","1,9","8,9","ND","78,9","ND","0,51"],
    [21310,"2016-07-06T08:00:00","31","ND","10,07","4,1","20,9","ND","77,8","ND","0"],
    [21311,"2016-07-06T09:00:00","52","ND","13,66","5,7","7,9","ND","74,5","ND","0"],
    [21312,"2016-07-06T10:00:00","27","ND","20,11","6,4","2,2","ND","68,5","ND","0"],
    [21313,"2016-07-06T11:00:00","22","ND","24,92","5,5","17,5","ND","62,1","ND","0"],
    [21314,"2016-07-06T12:00:00","35","ND","ND","5,2","12,5","ND","60,1","ND","0"],
    [21315,"2016-07-06T13:00:00","20","ND","38,87","4,5","353,1","ND","55,7","ND","0"],
    [21316,"2016-07-06T14:00:00","30","3","41,01","1,9","85,8","ND","51,3","ND","0"],
    [21317,"2016-07-06T15:00:00","43","8","42,9","3,4","92","ND","52,5","ND","0"],
    [21318,"2016-07-06T16:00:00","54","17","51,51","3,4","74,4","ND","52,8","ND","0"],
    [21319,"2016-07-06T17:00:00","64","16","51,81","2,8","84,4","ND","50,1","ND","0"],
    [21320,"2016-07-06T18:00:00","56","20","44,98","1,7","18,8","ND","48,8","ND","0"],
    [21321,"2016-07-06T19:00:00","62","17","26,28","1,1","9,1","ND","52,1","ND","0"],
    [21322,"2016-07-06T20:00:00","127","51","11,11","1,2","173,9","ND","56,6","ND","0"],
    [21323,"2016-07-06T21:00:00","117","43","8,05","1,7","120,9","ND","62,8","ND","0"],
    [21324,"2016-07-06T22:00:00","120","44","5,48","2,2","79,2","ND","68","ND","0"],
    [21325,"2016-07-06T23:00:00","88","37","5,12","0,4","224","ND","72","ND","0"],
    [21326,"2016-07-07T00:00:00","93","48","5,67","1","169","ND","72","ND","0"],
    [21327,"2016-07-07T01:00:00","67","32","7,54","2","182,3","ND","73,8","ND","0"],
    [21328,"2016-07-07T02:00:00","55","26","7,91","1,2","174,1","ND","73,4","ND","0"],
    [21329,"2016-07-07T03:00:00","54","23","5,57","1,8","185,6","ND","75,2","ND","0"],
    [21330,"2016-07-07T04:00:00","54","16","5,16","1,9","176,2","ND","76,6","ND","0"],
    [21331,"2016-07-07T05:00:00","74","23","5,1","2,3","137,6","ND","78,3","ND","0"],
    [21332,"2016-07-07T06:00:00","70","23","5,06","1,3","166,4","ND","80,1","ND","0"],
    [21333,"2016-07-07T07:00:00","84","27","5,49","2,6","114,1","ND","80","ND","0"],
    [21334,"2016-07-07T08:00:00","72","26","6,5","0,3","113,8","ND","73,9","ND","0"],
    [21335,"2016-07-07T09:00:00","98","45","18,15","1,9","2,3","ND","66,3","ND","0"],
    [21336,"2016-07-07T10:00:00","98","38","50,39","1,8","121,6","ND","56,5","ND","0"],
    [21337,"2016-07-07T11:00:00","64","32","79,44","1,3","132,5","ND","49,8","ND","0"],
    [21338,"2016-07-07T12:00:00","57","25","76,22","3,1","57,9","ND","43,2","ND","0"],
    [21339,"2016-07-07T13:00:00","64","20","92,45","3,2","45,5","ND","40,2","ND","0"],
    [21340,"2016-07-07T14:00:00","55","20","83,91","4,5","63,8","ND","38,8","ND","0"],
    [21341,"2016-07-07T15:00:00","53","19","93,11","3,3","57,5","ND","37,4","ND","0"],
    [21342,"2016-07-07T16:00:00","51","19","82,58","4,1","56,7","ND","36,8","ND","0"],
    [21343,"2016-07-07T17:00:00","68","17","60,23","3,9","82,3","ND","37,5","ND","0"],
    [21344,"2016-07-07T18:00:00","57","11","47,86","5,7","294,6","ND","40,6","ND","0"],
    [21345,"2016-07-07T19:00:00","51","17","26,12","5","304","ND","44,9","ND","0"],
    [21346,"2016-07-07T20:00:00","89","8","15,44","3,9","299,8","ND","47,3","ND","0"],
    [21347,"2016-07-07T21:00:00","66","14","8,56","3,5","83,3","ND","57,3","ND","0"],
    [21348,"2016-07-07T22:00:00","53","13","7,06","2,9","68,7","ND","62,3","ND","0"],
    [21349,"2016-07-07T23:00:00","42","9","6,32","2,2","102","ND","65,3","ND","0"],
    [21350,"2016-07-08T00:00:00","41","4","6,95","1,8","98,6","ND","66,7","ND","0"],
    [21351,"2016-07-08T01:00:00","32","8","8,18","1,5","90,8","ND","67,1","ND","0"],
    [21352,"2016-07-08T02:00:00","54","15","6,87","1,3","194,7","ND","69,3","ND","0"],
    [21353,"2016-07-08T03:00:00","52","15","5,67","0,4","162,7","ND","71,4","ND","0"],
    [21354,"2016-07-08T04:00:00","58","18","5,75","1,9","103,8","ND","74,5","ND","0"],
    [21355,"2016-07-08T05:00:00","65","18","6,02","1,7","127,3","ND","74,6","ND","0"],
    [21356,"2016-07-08T06:00:00","80","30","6,14","1,8","197,6","ND","75,7","ND","0"],
    [21357,"2016-07-08T07:00:00","82","27","6,36","1,6","179,1","ND","73,8","ND","0"],
    [21358,"2016-07-08T08:00:00","76","25","11,68","3","198,6","ND","65,9","ND","0"],
    [21359,"2016-07-08T09:00:00","61","20","23,65","3,1","192,5","ND","58","ND","0"],
    [21360,"2016-07-08T10:00:00","64","16","38,64","3,6","132,4","ND","52,6","ND","0"],
    [21361,"2016-07-08T11:00:00","50","16","56,59","2,3","127,4","ND","46","ND","0"],
    [21362,"2016-07-08T12:00:00","51","18","85,76","2,5","23,4","ND","41,8","ND","0"],
    [21363,"2016-07-08T13:00:00","65","24","109,62","4,3","51,9","ND","40,1","ND","0"],
    [21364,"2016-07-08T14:00:00","52","26","117,78","3,8","55,7","ND","37,1","ND","0"],
    [21365,"2016-07-08T15:00:00","43","9","96,02","2,4","51,8","ND","34,9","ND","0"],
    [21366,"2016-07-08T16:00:00","46","11","89,11","2","16,1","ND","34,1","ND","0"],
    [21367,"2016-07-08T17:00:00","40","6","82,11","4,4","308","ND","33,9","ND","0"],
    [21368,"2016-07-08T18:00:00","57","6","52,08","5,5","292,5","ND","38,1","ND","0"],
    [21369,"2016-07-08T19:00:00","56","8","20,08","5,3","310,5","ND","42,9","ND","0"],
    [21370,"2016-07-08T20:00:00","56","8","11,7","2,4","324,7","ND","45","ND","0"],
    [21371,"2016-07-08T21:00:00","73","11","8,12","3,2","92,2","ND","58,1","ND","0"],
    [21372,"2016-07-08T22:00:00","63","14","8,14","1,7","70","ND","60,8","ND","0"],
    [21373,"2016-07-08T23:00:00","50","9","8,79","3","118,2","ND","61,5","ND","0"],
    [21374,"2016-07-09T00:00:00","52","6","8,16","2,2","79,7","ND","63,8","ND","0"],
    [21375,"2016-07-09T01:00:00","47","5","8,07","2,6","105,2","ND","67,1","ND","0"],
    [21376,"2016-07-09T02:00:00","38","4","10,87","1,6","112,7","ND","65,6","ND","0"],
    [21377,"2016-07-09T03:00:00","47","4","10,66","0,2","238,9","ND","66,2","ND","0"],
    [21378,"2016-07-09T04:00:00","51","14","10,15","0,3","253","ND","66,3","ND","0"],
    [21379,"2016-07-09T05:00:00","60","17","7,26","1,4","154,9","ND","68,1","ND","0"],
    [21380,"2016-07-09T06:00:00","52","15","6,5","1,6","151,4","ND","74,1","ND","0"],
    [21381,"2016-07-09T07:00:00","93","26","7,1","2,2","76,5","ND","72,6","ND","0"],
    [21382,"2016-07-09T08:00:00","64","17","11,64","1,3","133,7","ND","63,3","ND","0"],
    [21383,"2016-07-09T09:00:00","74","25","28,1","2,3","149,6","ND","56,9","ND","0"],
    [21384,"2016-07-09T10:00:00","58","16","48,31","1,1","208,4","ND","50,7","ND","0"],
    [21385,"2016-07-09T11:00:00","50","14","68,39","1,7","141,4","ND","42,8","ND","0"],
    [21386,"2016-07-09T12:00:00","54","18","72","2,4","127,5","ND","37,1","ND","0"],
    [21387,"2016-07-09T13:00:00","68","12","86,32","1","84,4","ND","34,5","ND","0"],
    [21388,"2016-07-09T14:00:00","61","23","80,28","3,6","81,8","ND","30,5","ND","0"],
    [21389,"2016-07-09T15:00:00","48","12","88,48","2,6","45,5","ND","25,6","ND","0"],
    [21390,"2016-07-09T16:00:00","58","10","113,15","3,3","0","ND","31","ND","0"],
    [21391,"2016-07-09T17:00:00","46","13","96,51","5,2","325,6","ND","33,8","ND","0"],
    [21392,"2016-07-09T18:00:00","52","10","58,03","5,4","302,7","ND","37,8","ND","0"],
    [21393,"2016-07-09T19:00:00","48","13","26,59","4,3","317,7","ND","41","ND","0"],
    [21394,"2016-07-09T20:00:00","59","13","19,04","2,8","346,3","ND","46,8","ND","0"],
    [21395,"2016-07-09T21:00:00","184","92","29,95","3,5","115,1","ND","54,7","ND","0"],
    [21396,"2016-07-09T22:00:00","85","25","7,28","2,4","86,4","ND","64,3","ND","0"],
    [21397,"2016-07-09T23:00:00","62","8","8,07","2,5","82,8","ND","64,6","ND","0"],
    [21398,"2016-07-10T00:00:00","51","9","8,03","3,1","101","ND","66,4","ND","0"],
    [21399,"2016-07-10T01:00:00","55","16","11,26","2,2","144,4","ND","67,8","ND","0"],
    [21400,"2016-07-10T02:00:00","47","12","10,24","1","173,4","ND","64,1","ND","0"],
    [21401,"2016-07-10T03:00:00","58","12","10,85","2,7","188,3","ND","64,9","ND","0"],
    [21402,"2016-07-10T04:00:00","53","12","10,36","2,6","205,4","ND","66,7","ND","0"],
    [21403,"2016-07-10T05:00:00","70","14","7,67","1,6","159,6","ND","69,4","ND","0"],
    [21404,"2016-07-10T06:00:00","69","19","8,14","1,9","106,5","ND","71","ND","0"],
    [21405,"2016-07-10T07:00:00","70","18","7,52","1,2","128,8","ND","70,9","ND","0"],
    [21406,"2016-07-10T08:00:00","81","25","10,34","2,2","133,9","ND","67,5","ND","0"],
    [21407,"2016-07-10T09:00:00","52","17","19,9","2,5","99,8","ND","60,9","ND","0"],
    [21408,"2016-07-10T10:00:00","51","15","40,64","1,9","117,9","ND","51,6","ND","0"],
    [21409,"2016-07-10T11:00:00","51","14","60,89","3","73","ND","45","ND","0"],
    [21410,"2016-07-10T12:00:00","52","12","74,69","3,2","68,3","ND","40,9","ND","0"],
    [21411,"2016-07-10T13:00:00","44","12","87,5","3,8","89,4","ND","38,4","ND","0"],
    [21412,"2016-07-10T14:00:00","56","17","85,27","4,6","62,7","ND","37,9","ND","0"],
    [21413,"2016-07-10T15:00:00","59","14","69,9","4,2","85,4","ND","40,3","ND","0"],
    [21414,"2016-07-10T16:00:00","40","8","71,31","1,5","285,1","ND","37,4","ND","0"],
    [21415,"2016-07-10T17:00:00","39","7","52,75","6,5","284,1","ND","36,1","ND","0"],
    [21416,"2016-07-10T18:00:00","39","2","41,96","6,3","292,3","ND","39,1","ND","0"],
    [21417,"2016-07-10T19:00:00","37","ND","27,51","4,9","302","ND","43,3","ND","0"],
    [21418,"2016-07-10T20:00:00","42","4","20,45","1,7","324,8","ND","49,8","ND","0"],
    [21419,"2016-07-10T21:00:00","52","9","11,48","2,5","43,8","ND","57,6","ND","0"],
    [21420,"2016-07-10T22:00:00","51","7","10,17","3,1","88,8","ND","61,3","ND","0"],
    [21421,"2016-07-10T23:00:00","39","6","11,09","3,3","67,1","ND","65,2","ND","0"],
    [21422,"2016-07-11T00:00:00","27","5","11,4","1,9","76,9","ND","64,3","ND","0"],
    [21423,"2016-07-11T01:00:00","47","22","13,42","2,3","73,8","ND","64,9","ND","0"],
    [21424,"2016-07-11T02:00:00","25","1","13,76","1,9","153,2","ND","66,3","ND","0"],
    [21425,"2016-07-11T03:00:00","35","1","11,34","2,8","195,1","ND","67,8","ND","0"],
    [21426,"2016-07-11T04:00:00","55","19","10,07","1","170,1","ND","70,3","ND","0"],
    [21427,"2016-07-11T05:00:00","64","23","9,58","1,2","154,5","ND","69,8","ND","0"],
    [21428,"2016-07-11T06:00:00","81","28","8,61","0,2","125,1","ND","69,8","ND","0"],
    [21429,"2016-07-11T07:00:00","83","20","8,05","1,8","75","ND","72,8","ND","0"],
    [21430,"2016-07-11T08:00:00","86","32","12,09","2,4","133,7","ND","66,5","ND","0"],
    [21431,"2016-07-11T09:00:00","58","18","24,45","3","145,6","ND","56,9","ND","0"],
    [21432,"2016-07-11T10:00:00","50","15","40,9","3","141,1","ND","50,6","ND","0"],
    [21433,"2016-07-11T11:00:00","46","10","56,22","1,6","157,4","ND","44,8","ND","0"],
    [21434,"2016-07-11T12:00:00","46","10","68,88","1,5","111,7","ND","39,9","ND","0"],
    [21435,"2016-07-11T13:00:00","60","19","85,3","3","74,3","ND","37,8","ND","0"],
    [21436,"2016-07-11T14:00:00","69","24","115,8","4","87,6","ND","36,6","ND","0"],
    [21437,"2016-07-11T15:00:00","67","25","112,25","3,7","86,1","ND","34","ND","0"],
    [21438,"2016-07-11T16:00:00","58","16","102,95","3","45,3","ND","33","ND","0"],
    [21439,"2016-07-11T17:00:00","53","13","80,4","4,9","291,8","ND","35,2","ND","0"],
    [21440,"2016-07-11T18:00:00","62","9","49,06","5,8","293","ND","38,6","ND","0"],
    [21441,"2016-07-11T19:00:00","54","6","27,28","5,3","311","ND","42,9","ND","0"],
    [21442,"2016-07-11T20:00:00","65","19","16,64","4,3","51,9","ND","51,5","ND","0"],
    [21443,"2016-07-11T21:00:00","48","6","14,36","3,4","81,5","ND","59,8","ND","0"],
    [21444,"2016-07-11T22:00:00","44","4","12,11","3","65,3","ND","62,6","ND","0"],
    [21445,"2016-07-11T23:00:00","64","6","11,03","3,2","88,8","ND","67,1","ND","0"],
    [21446,"2016-07-12T00:00:00","49","6","10,71","2,2","117,2","ND","67,1","ND","0"],
    [21447,"2016-07-12T01:00:00","23","3","13,4","1,2","96,3","ND","67,7","ND","0"],
    [21448,"2016-07-12T02:00:00","42","5","11,03","1,2","60,5","ND","69","ND","0"],
    [21449,"2016-07-12T03:00:00","32","5","12,01","2,6","118,2","ND","70,1","ND","0"],
    [21450,"2016-07-12T04:00:00","42","3","12,83","0,6","160,4","ND","71,6","ND","0"],
    [21451,"2016-07-12T05:00:00","47","7","9,05","1,6","206,1","ND","71,7","ND","0"],
    [21452,"2016-07-12T06:00:00","63","19","8,58","1,2","173,7","ND","71,7","ND","0"],
    [21453,"2016-07-12T07:00:00","53","15","9,09","3","189,8","ND","71,6","ND","0"],
    [21454,"2016-07-12T08:00:00","53","16","14,8","2,8","211,5","ND","65,4","ND","0"],
    [21455,"2016-07-12T09:00:00","61","14","22,55","2,5","177,7","ND","58,4","ND","0"],
    [21456,"2016-07-12T10:00:00","42","14","41,58","2,6","178,2","ND","51,4","ND","0"],
    [21457,"2016-07-12T11:00:00","50","15","59,81","2,4","128,3","ND","45,6","ND","0"],
    [21458,"2016-07-12T12:00:00","43","10","78,69","1,8","183,9","ND","41","ND","0"],
    [21459,"2016-07-12T13:00:00","41","10","87,03","1","124,8","ND","36,2","ND","0"],
    [21460,"2016-07-12T14:00:00","44","7","102,2","1,4","227,9","ND","31","ND","0"],
    [21461,"2016-07-12T15:00:00","47","12","80,56","4,1","108,7","ND","31,2","ND","0"],
    [21462,"2016-07-12T16:00:00","69","19","84,64","3,8","60,1","ND","31,5","ND","0"],
    [21463,"2016-07-12T17:00:00","63","10","85,19","7,5","294,1","ND","36,1","ND","0"],
    [21464,"2016-07-12T18:00:00","57","8","48,84","6,3","308,3","ND","40,8","ND","0"],
    [21465,"2016-07-12T19:00:00","51","14","25,37","5,2","317","ND","42,7","ND","0"],
    [21466,"2016-07-12T20:00:00","73","20","17,78","2,9","72,7","ND","51,4","ND","0"],
    [21467,"2016-07-12T21:00:00","83","25","13,11","3,5","82","ND","60,2","ND","0"],
    [21468,"2016-07-12T22:00:00","95","40","13,66","2,1","100,7","ND","61,1","ND","0"],
    [21469,"2016-07-12T23:00:00","148","35","12,3","1,3","108,8","ND","59,2","ND","0"],
    [21470,"2016-07-13T00:00:00","37","8","14,99","1,8","117,5","ND","62,1","ND","0"],
    [21471,"2016-07-13T01:00:00","26","5","15,17","2,1","136","ND","64,3","ND","0"],
    [21472,"2016-07-13T02:00:00","53","7","12,93","2,7","91,5","ND","66,1","ND","0"],
    [21473,"2016-07-13T03:00:00","82","5","12,95","2,2","105,6","ND","66,5","ND","0"],
    [21474,"2016-07-13T04:00:00","45","7","12,93","2,3","137,5","ND","66,4","ND","0"],
    [21475,"2016-07-13T05:00:00","47","15","12,09","2,3","178,1","ND","68,1","ND","0"],
    [21476,"2016-07-13T06:00:00","58","16","10,26","2,7","169,6","ND","69","ND","0"],
    [21477,"2016-07-13T07:00:00","47","10","10,52","2,3","178,7","ND","71,3","ND","0"],
    [21478,"2016-07-13T08:00:00","87","21","12,42","2,7","124,1","ND","69,2","ND","0"],
    [21479,"2016-07-13T09:00:00","59","15","23,59","3,2","174,3","ND","56,2","ND","0"],
    [21480,"2016-07-13T10:00:00","65","15","34,03","3,4","170,6","ND","53","ND","0"],
    [21481,"2016-07-13T11:00:00","61","15","50,43","2,2","83,8","ND","48,4","ND","0"],
    [21482,"2016-07-13T12:00:00","59","20","81,36","1,7","36,6","ND","43","ND","0"],
    [21483,"2016-07-13T13:00:00","64","19","92,92","3,8","60,1","ND","39,7","ND","0"],
    [21484,"2016-07-13T14:00:00","67","21","88,46","4,5","45,8","ND","37,1","ND","0"],
    [21485,"2016-07-13T15:00:00","43","2","53,3","5,2","52,3","ND","36,5","ND","0"],
    [21486,"2016-07-13T16:00:00","40","6","49,47","4,7","317,9","ND","39,8","ND","0"],
    [21487,"2016-07-13T17:00:00","33","6","52,69","7,1","306,1","ND","39,3","ND","0"],
    [21488,"2016-07-13T18:00:00","27","4","33,01","6,3","305,2","ND","41,5","ND","0"],
    [21489,"2016-07-13T19:00:00","45","6","19,17","4,7","305,5","ND","44,5","ND","0"],
    [21490,"2016-07-13T20:00:00","48","10","24,2","2,6","239","ND","48,5","ND","0"],
    [21491,"2016-07-13T21:00:00","38","8","36,48","3,7","194,4","ND","59,6","ND","0"],
    [21492,"2016-07-13T22:00:00","52","13","31,42","2,8","201,5","ND","62,6","ND","0"],
    [21493,"2016-07-13T23:00:00","37","11","26,02","1,8","163,2","ND","63","ND","0"],
    [21494,"2016-07-14T00:00:00","59","17","17,76","2,1","87","ND","65,5","ND","0"],
    [21495,"2016-07-14T01:00:00","59","14","18,21","1,9","82,3","ND","66,8","ND","0"],
    [21496,"2016-07-14T02:00:00","40","12","18,9","2,4","126,9","ND","67,7","ND","0"],
    [21497,"2016-07-14T03:00:00","35","7","19,35","2,7","150,1","ND","68,9","ND","0"],
    [21498,"2016-07-14T04:00:00","48","8","13,83","2,7","173,4","ND","71,9","ND","0"],
    [21499,"2016-07-14T05:00:00","59","9","11,42","1,9","158,4","ND","73,3","ND","0"],
    [21500,"2016-07-14T06:00:00","53","9","10,71","1,6","152","ND","72","ND","0"],
    [21501,"2016-07-14T07:00:00","69","16","11,3","2,1","142","ND","72,8","ND","0"],
    [21502,"2016-07-14T08:00:00","65","13","13,07","2,2","145,6","ND","69,6","ND","0"],
    [21503,"2016-07-14T09:00:00","47","8","25,39","2,2","204","ND","59,5","ND","0"],
    [21504,"2016-07-14T10:00:00","52","17","39,74","2,5","141,3","ND","52,9","ND","0"],
    [21505,"2016-07-14T11:00:00","58","14","61,5","2,1","178","ND","49","ND","0"],
    [21506,"2016-07-14T12:00:00","67","25","78,02","2,6","144,2","ND","45,5","ND","0"],
    [21507,"2016-07-14T13:00:00","79","26","92,13","3","95,1","ND","43,3","ND","0"],
    [21508,"2016-07-14T14:00:00","71","22","102,28","3,1","85,1","ND","40,6","ND","0"],
    [21509,"2016-07-14T15:00:00","76","24","122,31","3,1","73,5","ND","37,7","ND","0"],
    [21510,"2016-07-14T16:00:00","76","23","117,06","4,5","26,4","ND","38,4","ND","0"],
    [21511,"2016-07-14T17:00:00","63","18","91,29","3,1","13,9","ND","37,5","ND","0"],
    [21512,"2016-07-14T18:00:00","54","4","65,05","5,2","294","ND","38,3","ND","0"],
    [21513,"2016-07-14T19:00:00","49","16","49,84","5,4","294","ND","43","ND","0"],
    [21514,"2016-07-14T20:00:00","58","10","30,26","3,9","329,9","ND","47,7","ND","0"],
    [21515,"2016-07-14T21:00:00","101","23","17,78","2,9","70,6","ND","55","ND","0"],
    [21516,"2016-07-14T22:00:00","77","25","15,68","2","83,3","ND","62,3","ND","0"],
    [21517,"2016-07-14T23:00:00","76","17","17,05","1,2","142,1","ND","58,4","ND","0"],
    [21518,"2016-07-15T00:00:00","90","16","14,86","3,1","104,9","ND","62,2","ND","0"],
    [21519,"2016-07-15T01:00:00","68","14","15,13","2,3","77,1","ND","63,2","ND","0"],
    [21520,"2016-07-15T02:00:00","29","7","19,8","2,2","67","ND","62,5","ND","0"],
    [21521,"2016-07-15T03:00:00","49","14","17,66","1,3","129,8","ND","62,5","ND","0"],
    [21522,"2016-07-15T04:00:00","47","17","15,58","1,8","220,2","ND","68,2","ND","0"],
    [21523,"2016-07-15T05:00:00","74","18","14,09","0,7","169,4","ND","67,1","ND","0"],
    [21524,"2016-07-15T06:00:00","92","24","12,21","2,5","132,8","ND","69","ND","0"],
    [21525,"2016-07-15T07:00:00","71","24","13,01","2,2","148,8","ND","68,6","ND","0"],
    [21526,"2016-07-15T08:00:00","50","13","14,29","1,7","183,8","ND","67,5","ND","0"],
    [21527,"2016-07-15T09:00:00","44","12","23,86","1,9","193,7","ND","57,2","ND","0"],
    [21528,"2016-07-15T10:00:00","52","16","33,5","2","124,6","ND","50,8","ND","0"],
    [21529,"2016-07-15T11:00:00","40","5","47,04","2,7","137,2","ND","44,3","ND","0"],
    [21530,"2016-07-15T12:00:00","35","9","59,73","2,1","85,8","ND","45,7","ND","0"],
    [21531,"2016-07-15T13:00:00","55","16","76,53","4,1","38,7","ND","45,9","ND","0"],
    [21532,"2016-07-15T14:00:00","56","12","67,88","4,6","62,9","ND","44,8","ND","0"],
    [21533,"2016-07-15T15:00:00","39","9","63,31","4","38,1","ND","44,6","ND","0"],
    [21534,"2016-07-15T16:00:00","43","8","52,75","4,8","60,6","ND","45,2","ND","0"],
    [21535,"2016-07-15T17:00:00","ND","11","35,01","3,7","41","ND","45","ND","0"],
    [21536,"2016-07-15T18:00:00","57","7","37,46","4,3","308,8","ND","43,2","ND","0"],
    [21537,"2016-07-15T19:00:00","45","7","22,98","3,7","302,9","ND","44","ND","0"],
    [21538,"2016-07-15T20:00:00","109","60","17,15","3,1","58,3","ND","50,1","ND","0"],
    [21539,"2016-07-15T21:00:00","52","10","15,42","4,2","75,8","ND","59,1","ND","0"],
    [21540,"2016-07-15T22:00:00","52","20","17,58","3,1","55,2","ND","61,6","ND","0"],
    [21541,"2016-07-15T23:00:00","42","8","15,72","1","159","ND","61,7","ND","0"],
    [21542,"2016-07-16T00:00:00","40","7","15,93","1,8","174,8","ND","62,3","ND","0"],
    [21543,"2016-07-16T01:00:00","38","8","16,07","3,1","209,6","ND","67,4","ND","0"],
    [21544,"2016-07-16T02:00:00","42","16","16,66","1,9","166,9","ND","68,1","ND","0"],
    [21545,"2016-07-16T03:00:00","53","17","13,76","1,5","110,2","ND","72,3","ND","0"],
    [21546,"2016-07-16T04:00:00","51","21","14,4","0,9","156,9","ND","70,3","ND","0"],
    [21547,"2016-07-16T05:00:00","92","20","12,42","2,9","79,5","ND","74,5","ND","0"],
    [21548,"2016-07-16T06:00:00","92","21","13,38","1,7","40,6","ND","75,6","ND","0"],
    [21549,"2016-07-16T07:00:00","79","18","13,78","3,2","1,6","ND","73,2","ND","0"],
    [21550,"2016-07-16T08:00:00","105","23","17,88","3,6","50,1","ND","66,8","ND","0"],
    [21551,"2016-07-16T09:00:00","76","15","25,37","5,1","39,8","ND","61,8","ND","0"],
    [21552,"2016-07-16T10:00:00","54","7","33,67","5,5","36","ND","57,6","ND","0"],
    [21553,"2016-07-16T11:00:00","36","7","42,64","5,1","42,8","ND","49,9","ND","0"],
    [21554,"2016-07-16T12:00:00","30","5","49,84","4,3","23,1","ND","47,3","ND","0"],
    [21555,"2016-07-16T13:00:00","34","7","53,12","4,1","36,8","ND","45,7","ND","0"],
    [21556,"2016-07-16T14:00:00","34","6","64,97","3,8","357,1","ND","40,3","ND","0"],
    [21557,"2016-07-16T15:00:00","21","4","57,3","2,7","1,6","ND","35,9","ND","0"],
    [21558,"2016-07-16T16:00:00","44","3","51,69","3,1","96,9","ND","39,5","ND","0"],
    [21559,"2016-07-16T17:00:00","60","16","52,89","4,3","130,4","ND","45,5","ND","0"],
    [21560,"2016-07-16T18:00:00","63","18","46,43","3,3","124,7","ND","47","ND","0"],
    [21561,"2016-07-16T19:00:00","97","30","30,83","2,4","136,6","ND","48,2","ND","0"],
    [21562,"2016-07-16T20:00:00","99","26","33,6","1,4","148,3","ND","50,3","ND","0"],
    [21563,"2016-07-16T21:00:00","125","38","31,83","1,1","349,1","ND","53,1","ND","0"],
    [21564,"2016-07-16T22:00:00","153","48","15,97","2,5","117,2","ND","58,6","ND","0"],
    [21565,"2016-07-16T23:00:00","142","42","16,78","2,3","139,3","ND","62,7","ND","0"],
    [21566,"2016-07-17T00:00:00","122","39","15,76","1,2","58,8","ND","64,7","ND","0"],
    [21567,"2016-07-17T01:00:00","110","36","16,15","2,2","189,6","ND","65,8","ND","0"],
    [21568,"2016-07-17T02:00:00","123","44","15,27","1,3","101,3","ND","67,9","ND","0"],
    [21569,"2016-07-17T03:00:00","110","40","15,42","1,9","155,3","ND","70,9","ND","0"],
    [21570,"2016-07-17T04:00:00","85","36","16,09","1,9","189,3","ND","72,2","ND","0"],
    [21571,"2016-07-17T05:00:00","82","28","14,95","1,6","183,8","ND","75,8","ND","0"],
    [21572,"2016-07-17T06:00:00","55","20","14,72","0,8","198,5","ND","71,9","ND","0"],
    [21573,"2016-07-17T07:00:00","106","39","14,99","1,7","58,6","ND","75","ND","0"],
    [21574,"2016-07-17T08:00:00","127","47","17,62","2,5","105","ND","71,2","ND","0"],
    [21575,"2016-07-17T09:00:00","90","34","36,26","2,5","120,9","ND","61,1","ND","0"],
    [21576,"2016-07-17T10:00:00","68","23","54,51","3","109,7","ND","52,7","ND","0"],
    [21577,"2016-07-17T11:00:00","59","18","75,08","3,5","61,6","ND","47,7","ND","0"],
    [21578,"2016-07-17T12:00:00","63","21","83,15","4,2","82,1","ND","47,7","ND","0"],
    [21579,"2016-07-17T13:00:00","78","24","95,29","4,2","86,2","ND","44,2","ND","0"],
    [21580,"2016-07-17T14:00:00","59","20","111,5","1,9","2,4","ND","38,5","ND","0"],
    [21581,"2016-07-17T15:00:00","56","15","107,05","4,3","32,4","ND","38,9","ND","0"],
    [21582,"2016-07-17T16:00:00","58","9","79,67","5,5","301,7","ND","39,5","ND","0"],
    [21583,"2016-07-17T17:00:00","41","4","60,7","6,7","287,3","ND","38,2","ND","0"],
    [21584,"2016-07-17T18:00:00","36","2","53,98","5,9","291,1","ND","39,8","ND","0"],
    [21585,"2016-07-17T19:00:00","46","4","39,35","3","306,7","ND","43,8","ND","0"],
    [21586,"2016-07-17T20:00:00","65","18","31,5","4,6","135,6","ND","49,5","ND","0"],
    [21587,"2016-07-17T21:00:00","59","17","32,4","3,2","218,2","ND","51,4","ND","0"],
    [21588,"2016-07-17T22:00:00","60","19","29,4","3,2","195,7","ND","52,4","ND","0"],
    [21589,"2016-07-17T23:00:00","48","13","33,32","1,5","193,9","ND","55","ND","0"],
    [21590,"2016-07-18T00:00:00","39","10","25,24","2,4","118,6","ND","61,8","ND","0"],
    [21591,"2016-07-18T01:00:00","27","7","30,51","2,6","164,2","ND","62,1","ND","0"],
    [21592,"2016-07-18T02:00:00","32","5","27,14","2,3","144","ND","65,4","ND","0"],
    [21593,"2016-07-18T03:00:00","32","4","24,27","2,6","167,4","ND","67,7","ND","0"],
    [21594,"2016-07-18T04:00:00","34","4","22,61","4,5","205,2","ND","71","ND","0"],
    [21595,"2016-07-18T05:00:00","32","6","22,23","2,9","182","ND","71,4","ND","0"],
    [21596,"2016-07-18T06:00:00","41","7","19,35","2,6","170,1","ND","74,3","ND","0"],
    [21597,"2016-07-18T07:00:00","30","9","19,6","2,1","202","ND","76,8","ND","0,25"],
    [21598,"2016-07-18T08:00:00","35","16","19,39","1,6","174,4","ND","74","ND","0"],
    [21599,"2016-07-18T09:00:00","46","14","23,04","2,7","127,5","ND","69,7","ND","0"],
    [21600,"2016-07-18T10:00:00","39","8","33,46","2,3","175,9","ND","60,7","ND","0"],
    [21601,"2016-07-18T11:00:00","44","12","52,59","0,9","183,8","ND","52,8","ND","0"],
    [21602,"2016-07-18T12:00:00","33","6","63,13","2,3","159,8","ND","47,6","ND","0"],
    [21603,"2016-07-18T13:00:00","35","5","62,78","2,7","132,2","ND","43,4","ND","0"],
    [21604,"2016-07-18T14:00:00","40","15","63,11","4,3","94,2","ND","43,3","ND","0"],
    [21605,"2016-07-18T15:00:00","84","15","65,8","4,2","93,1","ND","41,3","ND","0"],
    [21606,"2016-07-18T16:00:00","92","23","69,57","2,8","87,6","ND","39,1","ND","0"],
    [21607,"2016-07-18T17:00:00","71","15","ND","3,1","50,3","ND","39,8","ND","0"],
    [21608,"2016-07-18T18:00:00","67","13","ND","3,9","348","ND","41,2","ND","0"],
    [21609,"2016-07-18T19:00:00","59","9","ND","3,9","298,3","ND","44,4","ND","0"],
    [21610,"2016-07-18T20:00:00","62","18","ND","4","291,3","ND","46,6","ND","0"],
    [21611,"2016-07-18T21:00:00","51","8","ND","1,8","308,3","ND","50,8","ND","0"],
    [21612,"2016-07-18T22:00:00","72","7","ND","4,2","83,5","ND","62,8","ND","0"],
    [21613,"2016-07-18T23:00:00","57","17","ND","2,9","65,6","ND","64,9","ND","0"],
    [21614,"2016-07-19T00:00:00","38","7","ND","2,6","41,7","ND","64,5","ND","0"],
    [21615,"2016-07-19T01:00:00","25","6","ND","0,9","72","ND","63,2","ND","0"],
    [21616,"2016-07-19T02:00:00","16","2","ND","0,9","132,9","ND","61,8","ND","0"],
    [21617,"2016-07-19T03:00:00","25","6","ND","2,6","138,2","ND","65,8","ND","0"],
    [21618,"2016-07-19T04:00:00","39","10","ND","1","169,9","ND","66,8","ND","0"],
    [21619,"2016-07-19T05:00:00","50","8","ND","2,1","141","ND","68,2","ND","0"],
    [21620,"2016-07-19T06:00:00","62","20","ND","2","154,3","ND","71,1","ND","0"],
    [21621,"2016-07-19T07:00:00","63","12","ND","2,3","157,1","ND","71,2","ND","0"],
    [21622,"2016-07-19T08:00:00","59","13","ND","2,1","188,2","ND","71,5","ND","0"],
    [21623,"2016-07-19T09:00:00","48","20","ND","2,5","156,9","ND","70,1","ND","0"],
    [21624,"2016-07-19T10:00:00","61","5","ND","3,3","176,9","ND","57,8","ND","0"],
    [21625,"2016-07-19T11:00:00","46","8","ND","1,8","162","ND","47,4","ND","0"],
    [21626,"2016-07-19T12:00:00","38","9","ND","2,8","193,9","ND","40,3","ND","0"],
    [21627,"2016-07-19T13:00:00","42","7","ND","3,3","140,5","ND","36,6","ND","0"],
    [21628,"2016-07-19T14:00:00","51","17","ND","3,7","114,9","ND","38,9","ND","0"],
    [21629,"2016-07-19T15:00:00","64","24","ND","3,6","84","ND","38,9","ND","0"],
    [21630,"2016-07-19T16:00:00","66","22","ND","4,3","70,2","ND","37,5","ND","0"],
    [21631,"2016-07-19T17:00:00","54","16","ND","1,6","337,2","ND","36,4","ND","0"],
    [21632,"2016-07-19T18:00:00","45","8","ND","6,8","285,9","ND","37,9","ND","0"],
    [21633,"2016-07-19T19:00:00","56","8","ND","6,4","288,4","ND","43,9","ND","0"],
    [21634,"2016-07-19T20:00:00","48","10","ND","4,9","301,2","ND","48","ND","0"],
    [21635,"2016-07-19T21:00:00","148","27","ND","3,7","76,7","ND","56,4","ND","0"],
    [21636,"2016-07-19T22:00:00","88","22","ND","2,9","66,2","ND","62","ND","0"],
    [21637,"2016-07-19T23:00:00","53","14","ND","2,1","91","ND","61","ND","0"],
    [21638,"2016-07-20T00:00:00","68","9","ND","3,5","76,5","ND","64,4","ND","0"],
    [21639,"2016-07-20T01:00:00","23","7","ND","0,9","37,6","ND","64,5","ND","0"],
    [21640,"2016-07-20T02:00:00","49","18","ND","2","181,8","ND","64","ND","0"],
    [21641,"2016-07-20T03:00:00","120","59","ND","2,1","138,1","ND","67,6","ND","0"],
    [21642,"2016-07-20T04:00:00","65","20","ND","0,3","68","ND","65,9","ND","0"],
    [21643,"2016-07-20T05:00:00","61","23","ND","1,4","351,5","ND","66,2","ND","0"],
    [21644,"2016-07-20T06:00:00","128","78","ND","2,5","170,6","ND","67,9","ND","0"],
    [21645,"2016-07-20T07:00:00","82","26","ND","2","145,1","ND","74,3","ND","0"],
    [21646,"2016-07-20T08:00:00","61","23","ND","2,7","156,5","ND","70,8","ND","0"],
    [21647,"2016-07-20T09:00:00","46","14","ND","3,6","133","ND","66,3","ND","0"],
    [21648,"2016-07-20T10:00:00","41","12","ND","2,4","137,8","ND","64,9","ND","0"],
    [21649,"2016-07-20T11:00:00","38","14","ND","2,5","185,1","ND","55,5","ND","0"],
    [21650,"2016-07-20T12:00:00","47","19","ND","2,2","150,5","ND","46,7","ND","0"],
    [21651,"2016-07-20T13:00:00","69","31","ND","1,8","165,1","ND","40,9","ND","0"],
    [21652,"2016-07-20T14:00:00","58","18","ND","2,3","96,2","ND","36","ND","0"],
    [21653,"2016-07-20T15:00:00","67","25","ND","2,9","69","ND","36,9","ND","0"],
    [21654,"2016-07-20T16:00:00","71","22","ND","3,8","51,8","ND","38,4","ND","0"],
    [21655,"2016-07-20T17:00:00","47","16","ND","4,5","310,1","ND","40,7","ND","0"],
    [21656,"2016-07-20T18:00:00","36","4","ND","4,7","305,8","ND","39,3","ND","0"],
    [21657,"2016-07-20T19:00:00","42","7","ND","2,1","336,5","ND","42,4","ND","0"],
    [21658,"2016-07-20T20:00:00","77","15","ND","1,9","90,5","ND","49,9","ND","0"],
    [21659,"2016-07-20T21:00:00","69","30","ND","4,3","174,7","ND","50,9","ND","0"],
    [21660,"2016-07-20T22:00:00","53","22","ND","4,4","168,8","ND","57,6","ND","0"],
    [21661,"2016-07-20T23:00:00","29","6","ND","4","151,9","ND","64,9","ND","0"],
    [21662,"2016-07-21T00:00:00","36","16","ND","2,3","182,6","ND","68,7","ND","0"],
    [21663,"2016-07-21T01:00:00","40","16","ND","2,2","111,9","ND","70,5","ND","0"],
    [21664,"2016-07-21T02:00:00","55","13","ND","3","73,5","ND","71,8","ND","0"],
    [21665,"2016-07-21T03:00:00","44","10","ND","1,8","101,8","ND","72,1","ND","0"],
    [21666,"2016-07-21T04:00:00","51","16","ND","1,6","146,4","ND","71,3","ND","0"],
    [21667,"2016-07-21T05:00:00","51","18","ND","1,3","214","ND","72,4","ND","0"],
    [21668,"2016-07-21T06:00:00","90","26","ND","1,9","109,7","ND","73,7","ND","0"],
    [21669,"2016-07-21T07:00:00","75","20","ND","1,3","148,8","ND","73,5","ND","0"],
    [21670,"2016-07-21T08:00:00","102","29","ND","2,1","79,7","ND","69,7","ND","0"],
    [21671,"2016-07-21T09:00:00","77","24","ND","1,9","99,4","ND","65,2","ND","0"],
    [21672,"2016-07-21T10:00:00","74","14","ND","2,3","140,1","ND","56,9","ND","0"],
    [21673,"2016-07-21T11:00:00","56","22","ND","2,7","134,6","ND","52,8","ND","0"],
    [21674,"2016-07-21T12:00:00","58","17","ND","3,3","171,7","ND","46,5","ND","0"],
    [21675,"2016-07-21T13:00:00","48","9","ND","4,6","162,1","ND","45,1","ND","0"],
    [21676,"2016-07-21T14:00:00","40","8","ND","3,3","172,6","ND","41,8","ND","0"],
    [21677,"2016-07-21T15:00:00","56","17","ND","3","169,6","ND","39,6","ND","0"],
    [21678,"2016-07-21T16:00:00","49","14","ND","6,3","200,4","ND","43,3","ND","0"],
    [21679,"2016-07-21T17:00:00","49","9","ND","5,5","196,5","ND","45,2","ND","0"],
    [21680,"2016-07-21T18:00:00","36","9","ND","1,5","272,3","ND","49","ND","0"],
    [21681,"2016-07-21T19:00:00","67","9","ND","4,4","8,1","ND","62,1","ND","0"],
    [21682,"2016-07-21T20:00:00","65","20","ND","3,3","71,6","ND","63,1","ND","0"],
    [21683,"2016-07-21T21:00:00","54","13","ND","3,5","59,3","ND","67","ND","0"],
    [21684,"2016-07-21T22:00:00","45","15","ND","2,9","49,4","ND","65,1","ND","0"],
    [21685,"2016-07-21T23:00:00","52","16","ND","1,4","140,3","ND","68,3","ND","0"],
    [21686,"2016-07-22T00:00:00","55","19","ND","2,4","140,2","ND","67,5","ND","0"],
    [21687,"2016-07-22T01:00:00","37","14","ND","1,3","172","ND","69","ND","0"],
    [21688,"2016-07-22T02:00:00","42","13","ND","2,6","184,9","ND","70","ND","0"],
    [21689,"2016-07-22T03:00:00","51","14","ND","3,1","171,6","ND","74,7","ND","0"],
    [21690,"2016-07-22T04:00:00","49","13","ND","0,8","165,8","ND","77,2","ND","0"],
    [21691,"2016-07-22T05:00:00","47","11","ND","1,5","155","ND","75,1","ND","0"],
    [21692,"2016-07-22T06:00:00","80","23","ND","2","100,3","ND","77,6","ND","0"],
    [21693,"2016-07-22T07:00:00","97","29","ND","2,6","113,1","ND","77,4","ND","0"],
    [21694,"2016-07-22T08:00:00","69","21","ND","2","175,3","ND","71,3","ND","0"],
    [21695,"2016-07-22T09:00:00","60","21","ND","1,4","182,6","ND","62,9","ND","0"],
    [21696,"2016-07-22T10:00:00","52","17","ND","1","94,9","ND","51,1","ND","0"],
    [21697,"2016-07-22T11:00:00","56","16","46,45","3","89,3","ND","48,4","ND","0"],
    [21698,"2016-07-22T12:00:00","50","19","59,89","2,8","96,4","ND","46,3","ND","0"],
    [21699,"2016-07-22T13:00:00","53","21","71,43","2","122,5","ND","39,2","ND","0"],
    [21700,"2016-07-22T14:00:00","50","11","82,69","1,6","78","ND","34,4","ND","0"],
    [21701,"2016-07-22T15:00:00","56","17","87,93","3,6","49,1","ND","33,1","ND","0"],
    [21702,"2016-07-22T16:00:00","59","17","75,16","4,5","27,6","ND","37,5","ND","0"],
    [21703,"2016-07-22T17:00:00","50","7","51,34","4,4","4,7","ND","38,2","ND","0"],
    [21704,"2016-07-22T18:00:00","52","14","44,27","4","330,2","ND","37,7","ND","0"],
    [21705,"2016-07-22T19:00:00","55","10","37,29","5,8","284,2","ND","42,7","ND","0"],
    [21706,"2016-07-22T20:00:00","46","10","33,69","4,6","288,2","ND","45,8","ND","0"],
    [21707,"2016-07-22T21:00:00","47","12","20,96","2,1","214,3","ND","47,5","ND","0"],
    [21708,"2016-07-22T22:00:00","57","9","18,05","3,9","176,9","ND","51,5","ND","0"],
    [21709,"2016-07-22T23:00:00","50","12","15,33","3,8","222,1","ND","55,2","ND","0"],
    [21710,"2016-07-23T00:00:00","49","12","7,79","2,1","146,7","ND","58,9","ND","0"],
    [21711,"2016-07-23T01:00:00","50","8","7,65","2,4","140,5","ND","64,7","ND","0"],
    [21712,"2016-07-23T02:00:00","77","15","5,97","2,5","91,8","ND","67,5","ND","0"],
    [21713,"2016-07-23T03:00:00","49","5","6,02","2,1","121,5","ND","66,6","ND","0"],
    [21714,"2016-07-23T04:00:00","69","14","3,32","2,3","145,5","ND","70,4","ND","0"],
    [21715,"2016-07-23T05:00:00","58","10","2,73","2,3","155,9","ND","71,9","ND","0"],
    [21716,"2016-07-23T06:00:00","51","6","2,2","1,5","194,9","ND","72,2","ND","0"],
    [21717,"2016-07-23T07:00:00","96","21","2,55","2,4","81,9","ND","73,1","ND","0"],
    [21718,"2016-07-23T08:00:00","78","12","5,53","1,6","39,6","ND","68,9","ND","0"],
    [21719,"2016-07-23T09:00:00","74","19","17,45","1,5","104,9","ND","59,9","ND","0"],
    [21720,"2016-07-23T10:00:00","63","16","32,1","3,2","130,3","ND","53,4","ND","0"],
    [21721,"2016-07-23T11:00:00","91","27","43,39","3,5","90,6","ND","52,7","ND","0"],
    [21722,"2016-07-23T12:00:00","105","36","61,83","2,7","82,1","ND","48,5","ND","0"],
    [21723,"2016-07-23T13:00:00","84","30","73,22","3,7","107,2","ND","43,9","ND","0"],
    [21724,"2016-07-23T14:00:00","56","15","68,6","3,8","67,2","ND","39,4","ND","0"],
    [21725,"2016-07-23T15:00:00","53","11","73,04","4,2","84,8","ND","37,8","ND","0"],
    [21726,"2016-07-23T16:00:00","54","12","59,15","4,3","111,7","ND","40,6","ND","0"],
    [21727,"2016-07-23T17:00:00","40","6","40,37","3,4","320,5","ND","39,4","ND","0"],
    [21728,"2016-07-23T18:00:00","38","2","34,48","7,2","289,8","ND","40","ND","0"],
    [21729,"2016-07-23T19:00:00","38","6","23,23","6,3","307,1","ND","45,8","ND","0"],
    [21730,"2016-07-23T20:00:00","59","8","12,17","3,7","351,1","ND","48,2","ND","0"],
    [21731,"2016-07-23T21:00:00","87","17","7,48","2,8","72,6","ND","55,9","ND","0"],
    [21732,"2016-07-23T22:00:00","52","9","9,34","0,1","103,2","ND","56,2","ND","0"],
    [21733,"2016-07-23T23:00:00","59","10","9,01","4,5","243,9","ND","60,9","ND","0"],
    [21734,"2016-07-24T00:00:00","64","10","4,79","2,4","180,7","ND","63,8","ND","0"],
    [21735,"2016-07-24T01:00:00","33","6","6,95","3,4","211,5","ND","68,1","ND","0"],
    [21736,"2016-07-24T02:00:00","28","3","11,07","4,2","228,3","ND","68,3","ND","0"],
    [21737,"2016-07-24T03:00:00","29","2","15,05","3,9","194,6","ND","67,5","ND","0"],
    [21738,"2016-07-24T04:00:00","22","3","8,79","4,4","149,6","ND","72,7","ND","0,25"],
    [21739,"2016-07-24T05:00:00","24","5","6,48","2,1","78,9","ND","77,3","ND","0,5"],
    [21740,"2016-07-24T06:00:00","37","8","3,34","0,9","74,6","ND","77,9","ND","0"],
    [21741,"2016-07-24T07:00:00","39","13","3,14","0,8","28,2","ND","77,3","ND","1,5"],
    [21742,"2016-07-24T08:00:00","40","16","6,87","1,7","181,5","ND","73,8","ND","0,3"],
    [21743,"2016-07-24T09:00:00","41","13","13,54","2,5","131,6","ND","69,4","ND","0"],
    [21744,"2016-07-24T10:00:00","38","11","27,28","1,8","140,6","ND","60,9","ND","0"],
    [21745,"2016-07-24T11:00:00","25","8","50,43","1,9","177,9","ND","48","ND","0"],
    [21746,"2016-07-24T12:00:00","32","4","57,69","1,6","185,5","ND","40,6","ND","0"],
    [21747,"2016-07-24T13:00:00","31","8","67,31","2,8","113,3","ND","38,2","ND","0"],
    [21748,"2016-07-24T14:00:00","43","13","79,67","1,8","109,9","ND","37","ND","0"],
    [21749,"2016-07-24T15:00:00","51","16","77,71","4,9","49,5","ND","39,6","ND","0"],
    [21750,"2016-07-24T16:00:00","49","11","50,83","5,8","67,6","ND","46","ND","0"],
    [21751,"2016-07-24T17:00:00","26","7","39,25","2,7","23,7","ND","42,4","ND","0"],
    [21752,"2016-07-24T18:00:00","34","3","31,2","6,7","285,6","ND","43,5","ND","0"],
    [21753,"2016-07-24T19:00:00","36","6","22,76","5,1","298,3","ND","46,2","ND","0"],
    [21754,"2016-07-24T20:00:00","59","19","13,74","1,6","321,3","ND","48,1","ND","0"],
    [21755,"2016-07-24T21:00:00","42","16","6,48","3,8","90","ND","57,5","ND","0"],
    [21756,"2016-07-24T22:00:00","63","20","6,67","2,4","69","ND","61,7","ND","0"],
    [21757,"2016-07-24T23:00:00","48","13","5,69","0,6","278,2","ND","63,2","ND","0,3"],
    [21758,"2016-07-25T00:00:00","36","10","4,91","1,9","144,2","ND","65,2","ND","0"],
    [21759,"2016-07-25T01:00:00","33","7","6,08","2,6","134,7","ND","67,2","ND","0"],
    [21760,"2016-07-25T02:00:00","29","8","8,05","3,3","194,6","ND","69","ND","0"],
    [21761,"2016-07-25T03:00:00","27","8","9,03","1,8","170,1","ND","75,5","ND","1,3"],
    [21762,"2016-07-25T04:00:00","24","5","8,63","2,3","94,6","ND","77,1","ND","0,3"],
    [21763,"2016-07-25T05:00:00","27","4","4,51","2,1","44","ND","77,9","ND","0"],
    [21764,"2016-07-25T06:00:00","27","4","4,71","1,6","353","ND","76,1","ND","0"],
    [21765,"2016-07-25T07:00:00","52","13","2,75","0,8","117,1","ND","75","ND","0"],
    [21766,"2016-07-25T08:00:00","53","21","2,94","2,3","157","ND","75","ND","0"],
    [21767,"2016-07-25T09:00:00","43","17","7,65","2,7","157,2","ND","70,4","ND","0"],
    [21768,"2016-07-25T10:00:00","40","19","22,17","2,4","161","ND","61,3","ND","0"],
    [21769,"2016-07-25T11:00:00","44","18","34,34","3,7","117,2","ND","54,5","ND","0"],
    [21770,"2016-07-25T12:00:00","ND","ND","ND","2,3","100,6","ND","45,4","ND","0"],
    [21771,"2016-07-25T13:00:00","33","13","65,94","2,3","117,5","ND","39,9","ND","0"],
    [21772,"2016-07-25T14:00:00","31","10","66,92","2","179,9","ND","38,7","ND","0"],
    [21773,"2016-07-25T15:00:00","32","8","65,94","3,1","113,4","ND","35,5","ND","0"],
    [21774,"2016-07-25T16:00:00","34","13","62,99","2,7","157,5","ND","33,8","ND","0"],
    [21775,"2016-07-25T17:00:00","39","23","55,14","3,6","136,2","ND","35,5","ND","0"],
    [21776,"2016-07-25T18:00:00","92","32","25,31","3,2","111,1","ND","40,3","ND","0"],
    [21777,"2016-07-25T19:00:00","136","43","23,94","2,2","65,8","ND","45,4","ND","0"],
    [21778,"2016-07-25T20:00:00","116","48","23,35","1,9","318,7","ND","50,1","ND","0"],
    [21779,"2016-07-25T21:00:00","64","13","18,84","3,8","280,9","ND","49,7","ND","0"],
    [21780,"2016-07-25T22:00:00","85","29","6,08","2,8","117,6","ND","61,8","ND","0"],
    [21781,"2016-07-25T23:00:00","69","20","6,67","1,1","50,7","ND","66,8","ND","0"],
    [21782,"2016-07-26T00:00:00","101","38","4,51","1,7","215,7","ND","66,8","ND","0"],
    [21783,"2016-07-26T01:00:00","75","24","3,92","1,9","186,5","ND","68,1","ND","0"],
    [21784,"2016-07-26T02:00:00","53","18","4,51","2","180,8","ND","67,8","ND","0"],
    [21785,"2016-07-26T03:00:00","43","18","2,94","1,5","166,3","ND","70,7","ND","0"],
    [21786,"2016-07-26T04:00:00","48","13","1,96","2,4","111,9","ND","74,8","ND","0"],
    [21787,"2016-07-26T05:00:00","56","12","2,16","2,2","113,7","ND","76,4","ND","0"],
    [21788,"2016-07-26T06:00:00","58","21","2,75","1,5","116","ND","75,3","ND","0"],
    [21789,"2016-07-26T07:00:00","54","17","2,55","1,2","150,5","ND","72,7","ND","0"],
    [21790,"2016-07-26T08:00:00","83","26","5,3","1,1","83","ND","67,2","ND","0"],
    [21791,"2016-07-26T09:00:00","82","23","14,33","3,1","82,6","ND","60,4","ND","0"],
    [21792,"2016-07-26T10:00:00","67","23","42,98","2,6","112,5","ND","51","ND","0"],
    [21793,"2016-07-26T11:00:00","70","27","90,86","0,7","149,3","ND","45,4","ND","0"],
    [21794,"2016-07-26T12:00:00","55","20","89,29","2","108","ND","40,5","ND","0"],
    [21795,"2016-07-26T13:00:00","56","20","101,26","1,8","61,1","ND","35,9","ND","0"],
    [21796,"2016-07-26T14:00:00","68","20","123,63","2,5","25,2","ND","33,9","ND","0"],
    [21797,"2016-07-26T15:00:00","60","26","113,43","3,4","54","ND","33,3","ND","0"],
    [21798,"2016-07-26T16:00:00","55","22","97,73","3,1","17,7","ND","33,4","ND","0"],
    [21799,"2016-07-26T17:00:00","46","6","62,8","6,6","286,5","ND","34,7","ND","0"],
    [21800,"2016-07-26T18:00:00","53","10","43,17","6,6","295,7","ND","38,8","ND","0"],
    [21801,"2016-07-26T19:00:00","58","13","14,91","5,5","317,7","ND","43,1","ND","0"],
    [21802,"2016-07-26T20:00:00","83","13","7,06","3,3","41,1","ND","49,5","ND","0"],
    [21803,"2016-07-26T21:00:00","85","15","4,91","3,6","65,2","ND","59,2","ND","0"],
    [21804,"2016-07-26T22:00:00","56","10","5,89","1,8","66,2","ND","60,8","ND","0"],
    [21805,"2016-07-26T23:00:00","58","18","5,1","2,4","108,7","ND","63,9","ND","0"],
    [21806,"2016-07-27T00:00:00","51","15","2,94","1,6","170,9","ND","64,3","ND","0"],
    [21807,"2016-07-27T01:00:00","34","9","3,92","2,1","133,6","ND","66,9","ND","0"],
    [21808,"2016-07-27T02:00:00","35","5","4,91","1,2","300,2","ND","66,8","ND","0"],
    [21809,"2016-07-27T03:00:00","38","10","4,32","3,3","222,5","ND","66,8","ND","0"],
    [21810,"2016-07-27T04:00:00","36","9","6,28","2,8","174,6","ND","70,6","ND","0"],
    [21811,"2016-07-27T05:00:00","51","10","6,87","2,7","105,7","ND","70,1","ND","0"],
    [21812,"2016-07-27T06:00:00","42","14","6,87","2,4","139,3","ND","67,8","ND","0"],
    [21813,"2016-07-27T07:00:00","49","10","5,3","1,5","143,8","ND","69","ND","0"],
    [21814,"2016-07-27T08:00:00","57","14","9,42","2,3","141,7","ND","66,5","ND","0"],
    [21815,"2016-07-27T09:00:00","51","15","23,94","0,9","129,9","ND","58,7","ND","0"],
    [21816,"2016-07-27T10:00:00","72","18","34,93","2,7","88,9","ND","54,2","ND","0"],
    [21817,"2016-07-27T11:00:00","64","18","58,28","2,7","72","ND","46,1","ND","0"],
    [21818,"2016-07-27T12:00:00","53","15","59,46","3,7","72","ND","40,8","ND","0"],
    [21819,"2016-07-27T13:00:00","53","17","73,39","2,7","85,1","ND","39,6","ND","0"],
    [21820,"2016-07-27T14:00:00","57","18","80,65","3,5","103,2","ND","39,4","ND","0"],
    [21821,"2016-07-27T15:00:00","57","10","66,33","2,6","318,5","ND","39,5","ND","0"],
    [21822,"2016-07-27T16:00:00","52","10","50,63","6,6","282,9","ND","37,4","ND","0"],
    [21823,"2016-07-27T17:00:00","54","7","43,76","5,8","272,5","ND","38","ND","0"],
    [21824,"2016-07-27T18:00:00","59","6","30,61","4,5","288,3","ND","40,4","ND","0"],
    [21825,"2016-07-27T19:00:00","66","15","26,3","2,8","213,5","ND","58,2","ND","2"],
    [21826,"2016-07-27T20:00:00","40","15","12,76","3","231,4","ND","65,2","ND","0"],
    [21827,"2016-07-27T21:00:00","72","19","5,1","3,1","115,3","ND","69,3","ND","0"],
    [21828,"2016-07-27T22:00:00","43","15","18,45","5,7","238,6","ND","70,8","ND","0"],
    [21829,"2016-07-27T23:00:00","24","8","25,51","4,5","264,9","ND","66","ND","0"],
    [21830,"2016-07-28T00:00:00","36","9","8,05","2,5","124,1","ND","67,7","ND","0"],
    [21831,"2016-07-28T01:00:00","31","12","13,15","1,8","173,9","ND","67,9","ND","0"],
    [21832,"2016-07-28T02:00:00","29","7","16,48","2,9","232,9","ND","68,9","ND","0"],
    [21833,"2016-07-28T03:00:00","36","12","13,15","2,9","246,5","ND","70,7","ND","0"],
    [21834,"2016-07-28T04:00:00","41","15","4,91","1,8","121,3","ND","73,4","ND","0"],
    [21835,"2016-07-28T05:00:00","64","30","3,14","2,5","104,6","ND","77,5","ND","0"],
    [21836,"2016-07-28T06:00:00","55","24","2,55","0,5","350,4","ND","76,5","ND","0"],
    [21837,"2016-07-28T07:00:00","110","45","3,73","2,5","100","ND","76,3","ND","0"],
    [21838,"2016-07-28T08:00:00","71","26","4,51","1,1","219,5","ND","72,6","ND","0"],
    [21839,"2016-07-28T09:00:00","63","22","14,52","2,4","214,7","ND","68,1","ND","0"],
    [21840,"2016-07-28T10:00:00","46","21","28,85","2,1","164,5","ND","57,2","ND","0"],
    [21841,"2016-07-28T11:00:00","53","24","42,19","2,6","91,7","ND","51,7","ND","0"],
    [21842,"2016-07-28T12:00:00","50","15","59,66","2,8","67,6","ND","46,4","ND","0"],
    [21843,"2016-07-28T13:00:00","47","11","72,22","3","78,7","ND","39,8","ND","0"],
    [21844,"2016-07-28T14:00:00","34","12","94,39","1,1","197","ND","35,4","ND","0"],
    [21845,"2016-07-28T15:00:00","57","17","91,64","3,4","71,7","ND","34,9","ND","0"],
    [21846,"2016-07-28T16:00:00","51","16","80,65","4,3","66,4","ND","35","ND","0"],
    [21847,"2016-07-28T17:00:00","60","19","91,25","4","32","ND","35,8","ND","0"],
    [21848,"2016-07-28T18:00:00","58","12","61,81","3,8","27,6","ND","38,8","ND","0"],
    [21849,"2016-07-28T19:00:00","68","11","30,02","2,8","325,8","ND","41,3","ND","0"],
    [21850,"2016-07-28T20:00:00","41","6","23,55","5,5","292,3","ND","45,1","ND","0"],
    [21851,"2016-07-28T21:00:00","50","10","14,91","0,7","339,1","ND","49,3","ND","0"],
    [21852,"2016-07-28T22:00:00","64","12","6,67","3,5","114","ND","58,8","ND","0"],
    [21853,"2016-07-28T23:00:00","65","26","8,05","0,9","25,8","ND","57,8","ND","0"],
    [21854,"2016-07-29T00:00:00","65","14","3,14","2,7","212","ND","58,4","ND","0"],
    [21855,"2016-07-29T01:00:00","53","15","5,89","2,3","177,5","ND","63,2","ND","0"],
    [21856,"2016-07-29T02:00:00","46","16","7,26","1,8","204,1","ND","62,9","ND","0"],
    [21857,"2016-07-29T03:00:00","38","9","8,44","3,1","151,2","ND","62,2","ND","0"],
    [21858,"2016-07-29T04:00:00","53","11","7,26","0,7","229,2","ND","62,7","ND","0"],
    [21859,"2016-07-29T05:00:00","71","18","3,34","2,1","131,8","ND","65,5","ND","0"],
    [21860,"2016-07-29T06:00:00","65","20","3,53","1,1","146,2","ND","63,8","ND","0"],
    [21861,"2016-07-29T07:00:00","74","24","3,92","2,4","192,7","ND","65","ND","0"],
    [21862,"2016-07-29T08:00:00","70","21","6,87","2","158,3","ND","60,2","ND","0"],
    [21863,"2016-07-29T09:00:00","60","19","11,97","2,5","144,1","ND","56,3","ND","0"],
    [21864,"2016-07-29T10:00:00","66","17","23,35","1,6","140,4","ND","49,3","ND","0"],
    [21865,"2016-07-29T11:00:00","39","12","45,53","1,9","142,1","ND","41,4","ND","0"],
    [21866,"2016-07-29T12:00:00","36","7","61,42","0,8","90,5","ND","38,6","ND","0"],
    [21867,"2016-07-29T13:00:00","39","16","66,52","1,7","101","ND","35,8","ND","0"],
    [21868,"2016-07-29T14:00:00","49","14","72,8","3,3","132,6","ND","34,6","ND","0"],
    [21869,"2016-07-29T15:00:00","52","13","79,87","2,8","97,1","ND","34,9","ND","0"],
    [21870,"2016-07-29T16:00:00","48","11","74,96","2,8","113,4","ND","34,4","ND","0"],
    [21871,"2016-07-29T17:00:00","66","22","58,09","4,2","78,7","ND","37,5","ND","0"],
    [21872,"2016-07-29T18:00:00","81","26","28,85","3,7","75,1","ND","49,3","ND","0"],
    [21873,"2016-07-29T19:00:00","62","8","26,3","3,4","282","ND","46,1","ND","0"],
    [21874,"2016-07-29T20:00:00","76","7","17,07","2,5","292,2","ND","48","ND","0"],
    [21875,"2016-07-29T21:00:00","135","26","4,91","3,8","80,5","ND","59","ND","0"],
    [21876,"2016-07-29T22:00:00","84","21","4,12","1,9","103,2","ND","62,6","ND","0"],
    [21877,"2016-07-29T23:00:00","79","17","3,34","0,9","167,4","ND","62,7","ND","0"],
    [21878,"2016-07-30T00:00:00","82","25","2,94","2,5","159,2","ND","65,5","ND","0"],
    [21879,"2016-07-30T01:00:00","70","21","2,94","1,4","151,3","ND","67,3","ND","0"],
    [21880,"2016-07-30T02:00:00","59","19","2,35","1,4","175,3","ND","69,4","ND","0"],
    [21881,"2016-07-30T03:00:00","88","30","2,35","1,9","138","ND","72,4","ND","0"],
    [21882,"2016-07-30T04:00:00","78","20","2,94","0,8","220,8","ND","71,8","ND","0"],
    [21883,"2016-07-30T05:00:00","59","12","3,92","2,1","218,6","ND","69,2","ND","0"],
    [21884,"2016-07-30T06:00:00","85","26","3,34","2,7","123,6","ND","71,3","ND","0"],
    [21885,"2016-07-30T07:00:00","85","26","3,14","2,5","156,5","ND","72,5","ND","0"],
    [21886,"2016-07-30T08:00:00","70","29","5,1","2,4","151,9","ND","66,3","ND","0"],
    [21887,"2016-07-30T09:00:00","59","18","10,6","3,4","167,8","ND","61,5","ND","0"],
    [21888,"2016-07-30T10:00:00","65","25","24,33","2,5","160,5","ND","58,5","ND","0"],
    [21889,"2016-07-30T11:00:00","52","22","42,58","2,7","169,9","ND","52,9","ND","0"],
    [21890,"2016-07-30T12:00:00","44","16","66,72","1,7","172,2","ND","40,8","ND","0"],
    [21891,"2016-07-30T13:00:00","54","22","70,45","3","111,3","ND","38","ND","0"],
    [21892,"2016-07-30T14:00:00","52","17","82,03","2,9","66","ND","34,6","ND","0"],
    [21893,"2016-07-30T15:00:00","59","25","98,51","3,8","43,7","ND","36,7","ND","0"],
    [21894,"2016-07-30T16:00:00","75","24","96,16","3,5","41,5","ND","37,6","ND","0"],
    [21895,"2016-07-30T17:00:00","44","4","69,08","4,8","290,8","ND","36,8","ND","0"],
    [21896,"2016-07-30T18:00:00","45","3","42,39","6,4","290,9","ND","39,3","ND","0"],
    [21897,"2016-07-30T19:00:00","46","4","24,73","4,9","292,5","ND","43,4","ND","0"],
    [21898,"2016-07-30T20:00:00","78","22","8,63","2,6","46,3","ND","48","ND","0"],
    [21899,"2016-07-30T21:00:00","56","12","6,28","4,3","79,8","ND","59,3","ND","0"],
    [21900,"2016-07-30T22:00:00","43","13","5,69","2,5","91,4","ND","61,6","ND","0"],
    [21901,"2016-07-30T23:00:00","54","12","6,08","2,4","77,8","ND","60,9","ND","0"],
    [21902,"2016-07-31T00:00:00","37","8","8,24","1,5","80,4","ND","60,3","ND","0"],
    [21903,"2016-07-31T01:00:00","40","7","6,67","1,9","163,7","ND","64,2","ND","0"],
    [21904,"2016-07-31T02:00:00","43","8","6,48","3,1","208,5","ND","66,4","ND","0"],
    [21905,"2016-07-31T03:00:00","44","13","3,73","2,2","211","ND","70","ND","0"],
    [21906,"2016-07-31T04:00:00","51","11","3,92","1,1","185,1","ND","68,8","ND","0"],
    [21907,"2016-07-31T05:00:00","64","13","2,35","1,5","134,6","ND","69,7","ND","0"],
    [21908,"2016-07-31T06:00:00","62","12","2,35","1,7","110,5","ND","73,6","ND","0"],
    [21909,"2016-07-31T07:00:00","73","18","2,75","1,1","80,2","ND","74,2","ND","0"],
    [21910,"2016-07-31T08:00:00","78","24","6,48","2,2","166","ND","68","ND","0"],
    [21911,"2016-07-31T09:00:00","65","20","20,21","3","207,6","ND","60","ND","0"],
    [21912,"2016-07-31T10:00:00","47","17","31,59","2,9","178,6","ND","53,1","ND","0"],
    [21913,"2016-07-31T11:00:00","46","20","49,06","3,2","180","ND","49,8","ND","0"],
    [21914,"2016-07-31T12:00:00","51","9","64,95","2,9","172,6","ND","44,1","ND","0"],
    [21915,"2016-07-31T13:00:00","56","13","78,89","3,6","168","ND","39,7","ND","0"],
    [21916,"2016-07-31T14:00:00","54","21","84,58","3,5","157,8","ND","38,2","ND","0"],
    [21917,"2016-07-31T15:00:00","48","12","93,61","2,9","112,4","ND","36,8","ND","0"],
    [21918,"2016-07-31T16:00:00","56","23","81,44","4,2","85,7","ND","36,1","ND","0"],
    [21919,"2016-07-31T17:00:00","66","19","79,87","4,6","66,7","ND","36,8","ND","0"],
    [21920,"2016-07-31T18:00:00","65","15","80,65","3,6","22,8","ND","38,8","ND","0"],
    [21921,"2016-07-31T19:00:00","74","17","47,88","3,4","310,2","ND","42,7","ND","0"],
    [21922,"2016-07-31T20:00:00","56","10","31,79","5","284,4","ND","46,1","ND","0"],
    [21923,"2016-07-31T21:00:00","58","11","22,76","1,9","288,8","ND","49,9","ND","0"],
    [21924,"2016-07-31T22:00:00","84","21","6,08","3,3","87,8","ND","62,6","ND","0"],
    [21925,"2016-07-31T23:00:00","43","15","5,89","2","71,3","ND","62,3","ND","0"],
    [21926,"2016-08-01T00:00:00","63","19","5,3","0,2","355,9","ND","61,6","ND","0"],
    [21927,"2016-08-01T01:00:00","42","14","4,71","1,8","124,5","ND","65,3","ND","0"],
    [21928,"2016-08-01T02:00:00","45","8","4,96","1,8","130,5","ND","68,5","ND","0"],
    [21929,"2016-08-01T03:00:00","56","15","4,42","2,1","143,1","ND","68,5","ND","0"],
    [21930,"2016-08-01T04:00:00","42","11","6,16","2,2","168,8","ND","63,4","ND","0"],
    [21931,"2016-08-01T05:00:00","36","14","5,26","2,3","173,7","ND","64,9","ND","0"],
    [21932,"2016-08-01T06:00:00","50","11","4,06","2,7","192,8","ND","64,8","ND","0"],
    [21933,"2016-08-01T07:00:00","29","10","4","2","175,1","ND","66,9","ND","0"],
    [21934,"2016-08-01T08:00:00","62","12","5,42","2","110,2","ND","64,4","ND","0"],
    [21935,"2016-08-01T09:00:00","68","14","12,21","3,3","101,1","ND","58,1","ND","0"],
    [21936,"2016-08-01T10:00:00","70","19","28,83","2,7","122,7","ND","48,3","ND","0"],
    [21937,"2016-08-01T11:00:00","54","13","52,43","2,8","162,6","ND","41,7","ND","0"],
    [21938,"2016-08-01T12:00:00","48","9","70,94","2,8","180,1","ND","38,4","ND","0"],
    [21939,"2016-08-01T13:00:00","47","12","66,98","3,2","150","ND","34,2","ND","0"],
    [21940,"2016-08-01T14:00:00","40","8","69,92","3,3","148,7","ND","31,2","ND","0"],
    [21941,"2016-08-01T15:00:00","39","6","71,16","2,8","146,9","ND","30,2","ND","0"],
    [21942,"2016-08-01T16:00:00","34","8","59,97","3,7","162,2","ND","28,2","ND","0"],
    [21943,"2016-08-01T17:00:00","59","25","48,41","3,6","115,6","ND","31,1","ND","0"],
    [21944,"2016-08-01T18:00:00","80","24","33,81","3,4","78,5","ND","34,3","ND","0"],
    [21945,"2016-08-01T19:00:00","107","28","17,9","1,7","85,1","ND","36,4","ND","0"],
    [21946,"2016-08-01T20:00:00","73","17","14,48","3","307,5","ND","43","ND","0"],
    [21947,"2016-08-01T21:00:00","47","6","14,38","3,7","287,4","ND","45,3","ND","0"],
    [21948,"2016-08-01T22:00:00","67","19","8,75","3","106,6","ND","53,7","ND","0"],
    [21949,"2016-08-01T23:00:00","59","8","6,2","2","106,8","ND","58,3","ND","0"],
    [21950,"2016-08-02T00:00:00","51","12","6,87","1,6","119,5","ND","58,6","ND","0"],
    [21951,"2016-08-02T01:00:00","ND","17","5,16","1,8","192,2","ND","62,1","ND","0"],
    [21952,"2016-08-02T02:00:00","ND","17","5,85","2,2","123,4","ND","63,9","ND","0"],
    [21953,"2016-08-02T03:00:00","ND","11","7,24","2","114,4","ND","65,9","ND","0"],
    [21954,"2016-08-02T04:00:00","ND","16","5,48","1,7","147,1","ND","67,4","ND","0"],
    [21955,"2016-08-02T05:00:00","ND","17","2,92","1,3","157,1","ND","66","ND","0"],
    [21956,"2016-08-02T06:00:00","ND","36","3,39","1,7","143,9","ND","63,2","ND","0"],
    [21957,"2016-08-02T07:00:00","ND","56","3,51","1,9","165,9","ND","65,1","ND","0"],
    [21958,"2016-08-02T08:00:00","ND","26","5,87","2","190,1","ND","62,2","ND","0"],
    [21959,"2016-08-02T09:00:00","ND","17","16,72","3,6","170,5","ND","53,7","ND","0"],
    [21960,"2016-08-02T10:00:00","ND","14","32,6","2,5","167,2","ND","48,1","ND","0"],
    [21961,"2016-08-02T11:00:00","66","30","52,43","2,7","160,6","ND","46,1","ND","0"],
    [21962,"2016-08-02T12:00:00","99","40","67,64","2,1","138,6","ND","45,2","ND","0"],
    [21963,"2016-08-02T13:00:00","81","25","71,02","2,5","137,5","ND","43,4","ND","0"],
    [21964,"2016-08-02T14:00:00","59","21","84,17","2,2","142,3","ND","39","ND","0"],
    [21965,"2016-08-02T15:00:00","67","19","80,67","2,1","87","ND","37,3","ND","0"],
    [21966,"2016-08-02T16:00:00","66","18","81,2","3,4","69,3","ND","37,8","ND","0"],
    [21967,"2016-08-02T17:00:00","96","27","69,33","4,1","67,7","ND","40","ND","0"],
    [21968,"2016-08-02T18:00:00","57","14","38,58","2","312,9","ND","41,6","ND","0"],
    [21969,"2016-08-02T19:00:00","59","9","20,76","3,5","305","ND","43,7","ND","0"],
    [21970,"2016-08-02T20:00:00","65","15","13,56","3,3","312,1","ND","46,2","ND","0"],
    [21971,"2016-08-02T21:00:00","133","27","5,93","2,2","76","ND","52,8","ND","0"],
    [21972,"2016-08-02T22:00:00","99","20","4,28","3","96,6","ND","60,3","ND","0"],
    [21973,"2016-08-02T23:00:00","78","22","4,89","1,4","231,5","ND","60,7","ND","0"],
    [21974,"2016-08-03T00:00:00","71","17","2,77","2,7","195,1","ND","63,2","ND","0"],
    [21975,"2016-08-03T01:00:00","54","18","6,63","4","198,9","ND","63,3","ND","0"],
    [21976,"2016-08-03T02:00:00","47","16","10,17","3,1","179,1","ND","65,2","ND","0"],
    [21977,"2016-08-03T03:00:00","46","11","6,04","2,4","159,9","ND","67","ND","0"],
    [21978,"2016-08-03T04:00:00","49","14","4,53","1,1","121,9","ND","67,3","ND","0"],
    [21979,"2016-08-03T05:00:00","43","20","2,92","1,4","106","ND","69,8","ND","0"],
    [21980,"2016-08-03T06:00:00","52","12","3,26","1,8","206,4","ND","67,2","ND","0"],
    [21981,"2016-08-03T07:00:00","81","22","3,08","2,2","128,7","ND","67,9","ND","0"],
    [21982,"2016-08-03T08:00:00","71","17","5,38","2,2","199,5","ND","63,2","ND","0"],
    [21983,"2016-08-03T09:00:00","79","24","10,32","2,8","118,4","ND","55,3","ND","0"],
    [21984,"2016-08-03T10:00:00","58","15","27,96","2,1","135,1","ND","45,8","ND","0"],
    [21985,"2016-08-03T11:00:00","54","17","46,76","2,9","92,9","ND","42,9","ND","0"],
    [21986,"2016-08-03T12:00:00","46","10","59,01","3","70,9","ND","38,3","ND","0"],
    [21987,"2016-08-03T13:00:00","52","15","71","3,2","48,1","ND","38","ND","0"],
    [21988,"2016-08-03T14:00:00","43","14","60,56","3,8","64,3","ND","39,3","ND","0"],
    [21989,"2016-08-03T15:00:00","46","11","53,98","3,7","72,7","ND","38,7","ND","0"],
    [21990,"2016-08-03T16:00:00","65","16","48,78","4,9","58,7","ND","38,8","ND","0"],
    [21991,"2016-08-03T17:00:00","56","9","36,19","4,5","51,8","ND","40,1","ND","0"],
    [21992,"2016-08-03T18:00:00","69","12","23,76","4","2,8","ND","41,5","ND","0"],
    [21993,"2016-08-03T19:00:00","62","11","11,72","3,5","292,1","ND","44,3","ND","0"],
    [21994,"2016-08-03T20:00:00","42","6","14,66","5,3","283,8","ND","47,3","ND","0"],
    [21995,"2016-08-03T21:00:00","66","16","8,32","2,4","81,4","ND","53,1","ND","0"],
    [21996,"2016-08-03T22:00:00","65","10","5,61","1,8","101,3","ND","59,5","ND","0"],
    [21997,"2016-08-03T23:00:00","64","12","5,71","1,3","167,7","ND","59,7","ND","0"],
    [21998,"2016-08-04T00:00:00","70","25","7,73","1,9","179","ND","61,7","ND","0"],
    [21999,"2016-08-04T01:00:00","49","19","10,22","2,2","188,3","ND","62,5","ND","0"],
    [22000,"2016-08-04T02:00:00","43","12","16,15","2,7","179,1","ND","64,3","ND","0"],
    [22001,"2016-08-04T03:00:00","58","15","11,22","2,8","199,1","ND","68,9","ND","0"],
    [22002,"2016-08-04T04:00:00","48","16","8,42","0,3","215,9","ND","68,6","ND","0"],
    [22003,"2016-08-04T05:00:00","58","21","2,87","2,5","129","ND","70,9","ND","0"],
    [22004,"2016-08-04T06:00:00","52","17","2,3","0,4","177,4","ND","72,7","ND","0"],
    [22005,"2016-08-04T07:00:00","122","36","3,65","3","80,5","ND","72,3","ND","0"],
    [22006,"2016-08-04T08:00:00","121","34","5,08","0,5","299,7","ND","67,5","ND","0"],
    [22007,"2016-08-04T09:00:00","126","39","10,48","3,3","109,6","ND","61,6","ND","0"],
    [22008,"2016-08-04T10:00:00","62","22","27,89","0,3","102","ND","52,7","ND","0"],
    [22009,"2016-08-04T11:00:00","52","13","45,61","2,4","89,6","ND","44,9","ND","0"],
    [22010,"2016-08-04T12:00:00","49","11","66,19","2,4","47,4","ND","40,1","ND","0"],
    [22011,"2016-08-04T13:00:00","55","15","67,47","1,7","162,3","ND","36,7","ND","0"],
    [22012,"2016-08-04T14:00:00","59","15","76,18","2,6","114,9","ND","33,9","ND","0"],
    [22013,"2016-08-04T15:00:00","62","11","69,64","3,1","152,7","ND","33,9","ND","0"],
    [22014,"2016-08-04T16:00:00","55","15","79,34","1,9","192,1","ND","33,8","ND","0"],
    [22015,"2016-08-04T17:00:00","68","11","61,11","4,7","11,6","ND","38,2","ND","0"],
    [22016,"2016-08-04T18:00:00","84","19","43,88","4,5","22,8","ND","40,2","ND","0"],
    [22017,"2016-08-04T19:00:00","58","16","14,99","4,8","324,4","ND","40,6","ND","0"],
    [22018,"2016-08-04T20:00:00","92","21","10,54","2,9","23,3","ND","44,8","ND","0"],
    [22019,"2016-08-04T21:00:00","82","19","7,91","3,8","79,2","ND","54","ND","0"],
    [22020,"2016-08-04T22:00:00","68","31","9,42","2,6","53,5","ND","55,9","ND","0"],
    [22021,"2016-08-04T23:00:00","74","21","7,08","1,7","48,6","ND","59,3","ND","0"],
    [22022,"2016-08-05T00:00:00","54","16","5,53","2,4","115,5","ND","62,4","ND","0"],
    [22023,"2016-08-05T01:00:00","52","15","7,42","1,4","149,6","ND","61,7","ND","0"],
    [22024,"2016-08-05T02:00:00","50","14","7,42","1,1","180,7","ND","61,2","ND","0"],
    [22025,"2016-08-05T03:00:00","68","18","9,87","1,9","199,8","ND","63,4","ND","0"],
    [22026,"2016-08-05T04:00:00","75","18","5,38","1,9","99","ND","67,2","ND","0"],
    [22027,"2016-08-05T05:00:00","111","ND","ND","2","116,6","ND","73,9","ND","0"],
    [22028,"2016-08-05T06:00:00","150","ND","ND","2,4","89,1","ND","77,4","ND","0"],
    [22029,"2016-08-05T07:00:00","109","ND","ND","0,5","138,7","ND","78,8","ND","0"],
    [22030,"2016-08-05T08:00:00","117","ND","ND","2,9","160,6","ND","73,2","ND","0"],
    [22031,"2016-08-05T09:00:00","88","ND","ND","1,7","279,6","ND","59,6","ND","0"],
    [22032,"2016-08-05T10:00:00","ND","ND","ND","ND","ND","ND","ND","ND","ND"],
    [22033,"2016-08-05T11:00:00","ND","ND","ND","ND","ND","ND","ND","ND","ND"],
    [22034,"2016-08-05T12:00:00","ND","ND","ND","ND","ND","ND","ND","ND","ND"],
    [22035,"2016-08-05T13:00:00","ND","ND","ND","ND","ND","ND","ND","ND","ND"],
    [22036,"2016-08-05T14:00:00","ND","ND","ND","ND","ND","ND","ND","ND","ND"],
    [22037,"2016-08-05T15:00:00","ND","ND","ND","ND","ND","ND","ND","ND","ND"],
    [22038,"2016-08-05T16:00:00","ND","ND","ND","ND","ND","ND","ND","ND","ND"],
    [22039,"2016-08-05T17:00:00","ND","ND","ND","ND","ND","ND","ND","ND","ND"],
    [22040,"2016-08-05T18:00:00","ND","ND","ND","ND","ND","ND","ND","ND","ND"],
    [22041,"2016-08-05T19:00:00","ND","ND","ND","ND","ND","ND","ND","ND","ND"],
    [22042,"2016-08-05T20:00:00","ND","ND","ND","ND","ND","ND","ND","ND","ND"],
    [22043,"2016-08-05T21:00:00","ND","ND","ND","ND","ND","ND","ND","ND","ND"],
    [22044,"2016-08-05T22:00:00","ND","ND","ND","ND","ND","ND","ND","ND","ND"],
    [22045,"2016-08-05T23:00:00","ND","ND","ND","ND","ND","ND","ND","ND","ND"],
    [22046,"2016-08-06T00:00:00","ND","ND","ND","ND","ND","ND","ND","ND","ND"],
    [22047,"2016-08-06T01:00:00","ND","ND","ND","ND","ND","ND","ND","ND","ND"],
    [22048,"2016-08-06T02:00:00","ND","ND","ND","ND","ND","ND","ND","ND","ND"],
    [22049,"2016-08-06T03:00:00","ND","ND","ND","ND","ND","ND","ND","ND","ND"],
    [22050,"2016-08-06T04:00:00","ND","ND","ND","ND","ND","ND","ND","ND","ND"],
    [22051,"2016-08-06T05:00:00","ND","ND","ND","ND","ND","ND","ND","ND","ND"],
    [22052,"2016-08-06T06:00:00","ND","ND","ND","ND","ND","ND","ND","ND","ND"],
    [22053,"2016-08-06T07:00:00","ND","ND","ND","ND","ND","ND","ND","ND","ND"],
    [22054,"2016-08-06T08:00:00","ND","ND","ND","ND","ND","ND","ND","ND","ND"],
    [22055,"2016-08-06T09:00:00","ND","ND","ND","ND","ND","ND","ND","ND","ND"],
    [22056,"2016-08-06T10:00:00","ND","ND","47,41","1,8","201,4","ND","52","ND","0"],
    [22057,"2016-08-06T11:00:00","62","15","70,23","1","38,4","ND","43,1","ND","0"],
    [22058,"2016-08-06T12:00:00","61","12","83,13","2","13,9","ND","37,3","ND","0"],
    [22059,"2016-08-06T13:00:00","49","12","93,98","1,2","42","ND","33,3","ND","0"],
    [22060,"2016-08-06T14:00:00","62","19","110,07","2,5","60,2","ND","29,3","ND","0"],
    [22061,"2016-08-06T15:00:00","67","25","128,5","3,7","43,5","ND","30,6","ND","0"],
    [22062,"2016-08-06T16:00:00","56","17","96,53","4,1","328,6","ND","33","ND","0"],
    [22063,"2016-08-06T17:00:00","ND","ND","76,36","8,2","298,1","ND","35,2","ND","0"],
    [22064,"2016-08-06T18:00:00","ND","ND","53,63","7,5","305,9","ND","38,6","ND","0"],
    [22065,"2016-08-06T19:00:00","75","17","28,45","6,2","314,4","ND","43,7","ND","0"],
    [22066,"2016-08-06T20:00:00","56","12","16,58","3,4","12","ND","46,8","ND","0"],
    [22067,"2016-08-06T21:00:00","72","15","10,79","3,1","90,6","ND","54,1","ND","0"],
    [22068,"2016-08-06T22:00:00","54","12","11,07","0,6","256,2","ND","53,2","ND","0"],
    [22069,"2016-08-06T23:00:00","54","15","9,2","1,2","177,9","ND","59,1","ND","0"],
    [22070,"2016-08-07T00:00:00","58","13","7,14","2,8","129,6","ND","62,9","ND","0"],
    [22071,"2016-08-07T01:00:00","37","15","8,36","2,1","95,1","ND","64,2","ND","0"],
    [22072,"2016-08-07T02:00:00","40","18","10,42","3","123","ND","65,5","ND","0"],
    [22073,"2016-08-07T03:00:00","39","4","9,36","0,9","110,6","ND","66,2","ND","0"],
    [22074,"2016-08-07T04:00:00","54","16","8,93","2,1","113,3","ND","67,6","ND","0"],
    [22075,"2016-08-07T05:00:00","67","20","6,12","2,9","182,5","ND","69,3","ND","0"],
    [22076,"2016-08-07T06:00:00","71","22","5,77","2,1","147","ND","70,2","ND","0"],
    [22077,"2016-08-07T07:00:00","99","26","5,95","1,3","162,8","ND","71,5","ND","0"],
    [22078,"2016-08-07T08:00:00","87","21","7,81","2,2","138,1","ND","68,5","ND","0"],
    [22079,"2016-08-07T09:00:00","69","22","16,43","0,6","82,1","ND","61,7","ND","0"],
    [22080,"2016-08-07T10:00:00","63","17","42,35","1,6","166,9","ND","49,6","ND","0"],
    [22081,"2016-08-07T11:00:00","57","14","57,05","0,6","172,6","ND","46,6","ND","0"],
    [22082,"2016-08-07T12:00:00","54","21","77,71","2,2","48,3","ND","41,9","ND","0"],
    [22083,"2016-08-07T13:00:00","48","15","75,88","2","117,7","ND","37,3","ND","0"],
    [22084,"2016-08-07T14:00:00","52","13","77,12","2,9","154,4","ND","35,3","ND","0"],
    [22085,"2016-08-07T15:00:00","59","17","74,59","3,3","139","ND","36,4","ND","0"],
    [22086,"2016-08-07T16:00:00","59","12","88,7","2,5","109,4","ND","34,7","ND","0"],
    [22087,"2016-08-07T17:00:00","70","20","85,81","3,1","105,7","ND","35,1","ND","0"],
    [22088,"2016-08-07T18:00:00","75","13","57,44","3,9","113,1","ND","36,6","ND","0"],
    [22089,"2016-08-07T19:00:00","124","28","39,44","2,5","149,7","ND","40,4","ND","0"],
    [22090,"2016-08-07T20:00:00","71","16","37,25","4,7","296,2","ND","45,6","ND","0"],
    [22091,"2016-08-07T21:00:00","35","7","29,2","4,8","296,3","ND","47,9","ND","0"],
    [22092,"2016-08-07T22:00:00","66","20","10,71","3,3","105,1","ND","58,6","ND","0"],
    [22093,"2016-08-07T23:00:00","43","13","10,52","2,8","81,9","ND","61,9","ND","0"],
    [22094,"2016-08-08T00:00:00","49","10","10,62","0,6","264,5","ND","60,3","ND","0"],
    [22095,"2016-08-08T01:00:00","68","19","12,81","3,4","224,6","ND","61,3","ND","0"],
    [22096,"2016-08-08T02:00:00","44","16","16,72","2,8","191,6","ND","57,2","ND","0"],
    [22097,"2016-08-08T03:00:00","78","16","8,03","4,6","111,7","ND","66,4","ND","0"],
    [22098,"2016-08-08T04:00:00","42","15","18,11","3,7","187,9","ND","63,7","ND","0"],
    [22099,"2016-08-08T05:00:00","39","9","11,56","2,7","185,5","ND","63,4","ND","0"],
    [22100,"2016-08-08T06:00:00","54","14","6,48","1,9","177,9","ND","66","ND","0"],
    [22101,"2016-08-08T07:00:00","76","24","6,22","2,6","133","ND","70,4","ND","0"],
    [22102,"2016-08-08T08:00:00","74","15","8,3","2,4","153,7","ND","66","ND","0"],
    [22103,"2016-08-08T09:00:00","68","12","17,54","3,5","192,2","ND","58,7","ND","0"],
    [22104,"2016-08-08T10:00:00","72","22","32,58","2,7","170,3","ND","53,2","ND","0"],
    [22105,"2016-08-08T11:00:00","54","18","55,14","2,1","126,4","ND","44,8","ND","0"],
    [22106,"2016-08-08T12:00:00","58","15","65,58","2,8","116,5","ND","42,5","ND","0"],
    [22107,"2016-08-08T13:00:00","66","19","59,36","4,3","109,5","ND","42,4","ND","0"],
    [22108,"2016-08-08T14:00:00","61","20","58,5","4","102,8","ND","42,3","ND","0"],
    [22109,"2016-08-08T15:00:00","54","11","62,05","3,1","103,5","ND","40","ND","0"],
    [22110,"2016-08-08T16:00:00","53","14","76,75","4","56,3","ND","37,5","ND","0"],
    [22111,"2016-08-08T17:00:00","68","18","68,15","3","54,9","ND","38","ND","0"],
    [22112,"2016-08-08T18:00:00","64","16","24,57","4,7","66,2","ND","44,9","ND","0"],
    [22113,"2016-08-08T19:00:00","71","12","19,07","2,8","344,8","ND","47,3","ND","0"],
    [22114,"2016-08-08T20:00:00","63","15","17,23","3,5","296,1","ND","47,4","ND","0"],
    [22115,"2016-08-08T21:00:00","69","16","11,19","3","81,1","ND","57,4","ND","0"],
    [22116,"2016-08-08T22:00:00","44","12","9,62","3,8","83,3","ND","64,3","ND","0"],
    [22117,"2016-08-08T23:00:00","33","9","11,24","3,9","79,3","ND","65,1","ND","0"],
    [22118,"2016-08-09T00:00:00","35","6","13,32","2,5","79,9","ND","65,9","ND","0"],
    [22119,"2016-08-09T01:00:00","26","6","13,74","1,7","112,9","ND","65","ND","0"],
    [22120,"2016-08-09T02:00:00","37","12","10,93","2,2","148,1","ND","66,1","ND","0"],
    [22121,"2016-08-09T03:00:00","56","19","7,12","1,7","189,3","ND","69,2","ND","0"],
    [22122,"2016-08-09T04:00:00","71","23","6,89","2","126,7","ND","71,3","ND","0"],
    [22123,"2016-08-09T05:00:00","67","15","7,16","1,1","234,8","ND","70,5","ND","0"],
    [22124,"2016-08-09T06:00:00","104","23","6,46","2,6","150","ND","72,4","ND","0"],
    [22125,"2016-08-09T07:00:00","97","22","6,59","2,1","183,2","ND","73","ND","0"],
    [22126,"2016-08-09T08:00:00","103","31","8,6","1,5","98,4","ND","67,8","ND","0"],
    [22127,"2016-08-09T09:00:00","74","20","23,96","0,5","231,6","ND","57","ND","0"],
    [22128,"2016-08-09T10:00:00","58","16","42,8","1,8","176,8","ND","50,4","ND","0"],
    [22129,"2016-08-09T11:00:00","62","20","64,5","2,8","156,4","ND","45,8","ND","0"],
    [22130,"2016-08-09T12:00:00","87","26","83,54","2,5","91,2","ND","42,3","ND","0"],
    [22131,"2016-08-09T13:00:00","101","30","89,86","2,3","80,3","ND","41,2","ND","0"],
    [22132,"2016-08-09T14:00:00","78","26","94,65","3,1","79,6","ND","38,5","ND","0"],
    [22133,"2016-08-09T15:00:00","57","23","101,93","2,6","94,4","ND","32,8","ND","0"],
    [22134,"2016-08-09T16:00:00","49","13","92,51","3,5","45","ND","29,7","ND","0"],
    [22135,"2016-08-09T17:00:00","77","25","83,34","4,6","48,4","ND","35,1","ND","0"],
    [22136,"2016-08-09T18:00:00","76","16","50,43","4,7","8,2","ND","38,8","ND","0"],
    [22137,"2016-08-09T19:00:00","73","19","37,44","4,3","297,3","ND","42,4","ND","0"],
    [22138,"2016-08-09T20:00:00","53","10","33,26","4,9","297,5","ND","46,4","ND","0"],
    [22139,"2016-08-09T21:00:00","65","19","11,77","3,6","88,9","ND","54,5","ND","0"],
    [22140,"2016-08-09T22:00:00","54","13","9,3","2,4","110,3","ND","59,5","ND","0"],
    [22141,"2016-08-09T23:00:00","45","12","10,01","2,8","99,4","ND","60,6","ND","0"],
    [22142,"2016-08-10T00:00:00","40","7","10,15","2,4","121,1","ND","63,3","ND","0"],
    [22143,"2016-08-10T01:00:00","13","3","11,81","0,5","6,8","ND","64,6","ND","0"],
    [22144,"2016-08-10T02:00:00","44","4","8,14","2,5","205,7","ND","66,1","ND","0"],
    [22145,"2016-08-10T03:00:00","48","5","10,44","1,8","190,8","ND","66,1","ND","0"],
    [22146,"2016-08-10T04:00:00","58","17","7,89","1,4","103,5","ND","69,3","ND","0"],
    [22147,"2016-08-10T05:00:00","58","16","6,75","2,3","131","ND","69,9","ND","0"],
    [22148,"2016-08-10T06:00:00","91","26","6,59","1,8","120,1","ND","71,5","ND","0"],
    [22149,"2016-08-10T07:00:00","108","27","6,48","1,6","129,7","ND","70,8","ND","0"],
    [22150,"2016-08-10T08:00:00","113","30","7,63","1,4","108,9","ND","66","ND","0"],
    [22151,"2016-08-10T09:00:00","76","21","13,58","3,1","160,2","ND","60,8","ND","0"],
    [22152,"2016-08-10T10:00:00","74","20","26,32","2,1","195,9","ND","56","ND","0"],
    [22153,"2016-08-10T11:00:00","91","26","49,73","2,2","177,9","ND","51,4","ND","0"],
    [22154,"2016-08-10T12:00:00","57","17","69,96","1","146,9","ND","45,7","ND","0"],
    [22155,"2016-08-10T13:00:00","52","15","73,8","1,6","87,9","ND","38,3","ND","0"],
    [22156,"2016-08-10T14:00:00","48","17","88,01","2,5","93","ND","36,1","ND","0"],
    [22157,"2016-08-10T15:00:00","70","17","82,91","4,6","31,9","ND","35,6","ND","0"],
    [22158,"2016-08-10T16:00:00","59","16","71,84","6,4","4,9","ND","37,9","ND","0"],
    [22159,"2016-08-10T17:00:00","53","17","64,33","3,7","17,2","ND","37,8","ND","0"],
    [22160,"2016-08-10T18:00:00","57","13","50,73","2,9","312,5","ND","40","ND","0"],
    [22161,"2016-08-10T19:00:00","57","11","36,23","5,6","292,9","ND","43,8","ND","0"],
    [22162,"2016-08-10T20:00:00","54","16","32,48","4,8","295,9","ND","45,9","ND","0"],
    [22163,"2016-08-10T21:00:00","53","12","24,1","2","327","ND","48,3","ND","0"],
    [22164,"2016-08-10T22:00:00","69","12","ND","4,7","96,3","ND","62,2","ND","0"],
    [22165,"2016-08-10T23:00:00","58","ND","ND","2,7","65,9","ND","66,4","ND","0"],
    [22166,"2016-08-11T00:00:00","34","ND","ND","2,8","70","ND","67,3","ND","0"],
    [22167,"2016-08-11T01:00:00","46","ND","ND","2,8","42,7","ND","68,6","ND","0"],
    [22168,"2016-08-11T02:00:00","39","ND","ND","1,5","1,9","ND","71,6","ND","0"],
    [22169,"2016-08-11T03:00:00","26","ND","ND","1","149","ND","72,8","ND","0"],
    [22170,"2016-08-11T04:00:00","29","ND","ND","2,2","152,9","ND","74,2","ND","0"],
    [22171,"2016-08-11T05:00:00","44","ND","ND","1,4","167","ND","74,2","ND","0"],
    [22172,"2016-08-11T06:00:00","71","ND","ND","0,1","345,4","ND","78,2","ND","0"],
    [22173,"2016-08-11T07:00:00","131","ND","ND","1,5","95,1","ND","78,7","ND","0"],
    [22174,"2016-08-11T08:00:00","88","ND","ND","1,1","204,1","ND","72,7","ND","0"],
    [22175,"2016-08-11T09:00:00","ND","ND","ND","2,3","177,2","ND","61,2","ND","0"],
    [22176,"2016-08-11T10:00:00","ND","ND","ND","2,8","194,4","ND","49,7","ND","0"],
    [22177,"2016-08-11T11:00:00","ND","ND","ND","1,8","110,5","ND","44","ND","0"],
    [22178,"2016-08-11T12:00:00","ND","ND","ND","3,6","86,6","ND","39,8","ND","0"],
    [22179,"2016-08-11T13:00:00","ND","ND","ND","2,5","41,8","ND","37,6","ND","0"],
    [22180,"2016-08-11T14:00:00","ND","ND","ND","1,8","189,7","ND","32,5","ND","0"],
    [22181,"2016-08-11T15:00:00","ND","ND","ND","2,5","141,9","ND","32,6","ND","0"],
    [22182,"2016-08-11T16:00:00","ND","ND","ND","2","110","ND","32,6","ND","0"],
    [22183,"2016-08-11T17:00:00","ND","ND","ND","1,3","275,9","ND","35,9","ND","0"],
    [22184,"2016-08-11T18:00:00","ND","ND","ND","4,7","303,1","ND","41,9","ND","0"],
    [22185,"2016-08-11T19:00:00","ND","ND","ND","4,7","293,2","ND","47,1","ND","0"],
    [22186,"2016-08-11T20:00:00","ND","ND","ND","3,8","291,5","ND","50,2","ND","0"],
    [22187,"2016-08-11T21:00:00","ND","ND","ND","1,6","30,8","ND","54,1","ND","0"],
    [22188,"2016-08-11T22:00:00","ND","ND","ND","4","80,1","ND","64,6","ND","0"],
    [22189,"2016-08-11T23:00:00","ND","ND","ND","2,4","82,9","ND","66,3","ND","0"],
    [22190,"2016-08-12T00:00:00","ND","ND","ND","2,7","94,7","ND","67","ND","0"],
    [22191,"2016-08-12T01:00:00","ND","ND","ND","2,8","71,4","ND","69,3","ND","0"],
    [22192,"2016-08-12T02:00:00","ND","ND","ND","2,4","66,3","ND","73,3","ND","0"],
    [22193,"2016-08-12T03:00:00","ND","ND","ND","2,2","42,1","ND","74,3","ND","0"],
    [22194,"2016-08-12T04:00:00","ND","ND","ND","2","73,5","ND","75,6","ND","0"],
    [22195,"2016-08-12T05:00:00","ND","ND","ND","0,6","33,1","ND","76,7","ND","0"],
    [22196,"2016-08-12T06:00:00","ND","ND","ND","2,2","98,9","ND","74,8","ND","0"],
    [22197,"2016-08-12T07:00:00","ND","ND","ND","0,9","107,9","ND","74,7","ND","0"],
    [22198,"2016-08-12T08:00:00","ND","ND","ND","1,1","140,2","ND","68,7","ND","0"],
    [22199,"2016-08-12T09:00:00","ND","ND","ND","2,8","203,7","ND","58,8","ND","0"],
    [22200,"2016-08-12T10:00:00","ND","ND","ND","ND","ND","ND","ND","ND","ND"],
    [22201,"2016-08-12T11:00:00","ND","ND","ND","ND","ND","ND","ND","ND","ND"],
    [22202,"2016-08-12T12:00:00","ND","ND","ND","ND","ND","ND","ND","ND","ND"],
    [22203,"2016-08-12T13:00:00","ND","ND","ND","ND","ND","ND","ND","ND","ND"],
    [22204,"2016-08-12T14:00:00","ND","ND","ND","ND","ND","ND","ND","ND","ND"],
    [22205,"2016-08-12T15:00:00","ND","ND","ND","ND","ND","ND","ND","ND","ND"],
    [22206,"2016-08-12T16:00:00","ND","ND","ND","ND","ND","ND","ND","ND","ND"],
    [22207,"2016-08-12T17:00:00","ND","ND","ND","ND","ND","ND","ND","ND","ND"],
    [22208,"2016-08-12T18:00:00","ND","ND","ND","ND","ND","ND","ND","ND","ND"],
    [22209,"2016-08-12T19:00:00","ND","ND","ND","ND","ND","ND","ND","ND","ND"],
    [22210,"2016-08-12T20:00:00","ND","ND","ND","ND","ND","ND","ND","ND","ND"],
    [22211,"2016-08-12T21:00:00","ND","ND","ND","ND","ND","ND","ND","ND","ND"],
    [22212,"2016-08-12T22:00:00","ND","ND","ND","ND","ND","ND","ND","ND","ND"],
    [22213,"2016-08-12T23:00:00","ND","ND","ND","ND","ND","ND","ND","ND","ND"],
    [22214,"2016-08-13T00:00:00","ND","ND","ND","ND","ND","ND","ND","ND","ND"],
    [22215,"2016-08-13T01:00:00","ND","ND","ND","ND","ND","ND","ND","ND","ND"],
    [22216,"2016-08-13T02:00:00","ND","ND","ND","ND","ND","ND","ND","ND","ND"],
    [22217,"2016-08-13T03:00:00","ND","ND","ND","ND","ND","ND","ND","ND","ND"],
    [22218,"2016-08-13T04:00:00","ND","ND","ND","ND","ND","ND","ND","ND","ND"],
    [22219,"2016-08-13T05:00:00","ND","ND","ND","ND","ND","ND","ND","ND","ND"],
    [22220,"2016-08-13T06:00:00","ND","ND","ND","ND","ND","ND","ND","ND","ND"],
    [22221,"2016-08-13T07:00:00","ND","ND","ND","ND","ND","ND","ND","ND","ND"],
    [22222,"2016-08-13T08:00:00","ND","ND","ND","ND","ND","ND","ND","ND","ND"],
    [22223,"2016-08-13T09:00:00","ND","ND","ND","ND","ND","ND","ND","ND","ND"],
    [22224,"2016-08-13T10:00:00","ND","ND","ND","ND","ND","ND","ND","ND","ND"],
    [22225,"2016-08-13T11:00:00","ND","12","53,22","3,1","147,9","ND","45,4","ND","0"],
    [22226,"2016-08-13T12:00:00","ND","15","71,12","1,6","124,9","ND","38,8","ND","0"],
    [22227,"2016-08-13T13:00:00","40","10","84,48","3","137,7","ND","37,1","ND","0"],
    [22228,"2016-08-13T14:00:00","64","15","113,88","2","90,3","ND","34,4","ND","0"],
    [22229,"2016-08-13T15:00:00","59","16","98,43","3,4","102,8","ND","32,7","ND","0"],
    [22230,"2016-08-13T16:00:00","66","19","103,02","2,6","88,8","ND","32,5","ND","0"],
    [22231,"2016-08-13T17:00:00","78","26","99,75","3,2","111","ND","32","ND","0"],
    [22232,"2016-08-13T18:00:00","69","19","80,42","3,8","261,5","ND","36,3","ND","0"],
    [22233,"2016-08-13T19:00:00","65","19","45,06","3,9","306,3","ND","42,4","ND","0"],
    [22234,"2016-08-13T20:00:00","51","9","30,32","4,5","289,9","ND","45,6","ND","0"],
    [22235,"2016-08-13T21:00:00","84","20","15,86","1,8","65","ND","50,6","ND","0"],
    [22236,"2016-08-13T22:00:00","95","33","13,25","2,6","60,4","ND","56,5","ND","0"],
    [22237,"2016-08-13T23:00:00","69","26","11,17","2,9","77,2","ND","59","ND","0"],
    [22238,"2016-08-14T00:00:00","47","9","9,97","2,5","121","ND","62,3","ND","0"],
    [22239,"2016-08-14T01:00:00","48","7","10,91","2","99,4","ND","64,6","ND","0"],
    [22240,"2016-08-14T02:00:00","60","9","8,91","1,2","139,8","ND","64,9","ND","0"],
    [22241,"2016-08-14T03:00:00","62","15","9,81","2,3","166,5","ND","66,2","ND","0"],
    [22242,"2016-08-14T04:00:00","65","27","14,8","2,7","202","ND","63,3","ND","0"],
    [22243,"2016-08-14T05:00:00","61","19","11,66","2,3","133","ND","64,7","ND","0"],
    [22244,"2016-08-14T06:00:00","52","17","9,36","1,8","159,9","ND","66,3","ND","0"],
    [22245,"2016-08-14T07:00:00","60","19","9,46","1,4","154,9","ND","66,9","ND","0"],
    [22246,"2016-08-14T08:00:00","95","27","16,13","1,5","141","ND","58,6","ND","0"],
    [22247,"2016-08-14T09:00:00","63","25","34,95","2,4","134","ND","51,7","ND","0"],
    [22248,"2016-08-14T10:00:00","69","21","64,31","1,6","76,1","ND","46,9","ND","0"],
    [22249,"2016-08-14T11:00:00","57","24","87,72","1,6","79,4","ND","40,7","ND","0"],
    [22250,"2016-08-14T12:00:00","57","17","95,55","3,1","31,9","ND","35,9","ND","0"],
    [22251,"2016-08-14T13:00:00","50","15","111,68","1,8","358,2","ND","32,1","ND","0"],
    [22252,"2016-08-14T14:00:00","48","18","120,08","1,5","359,6","ND","28,4","ND","0"],
    [22253,"2016-08-14T15:00:00","47","14","112,31","3,2","29,1","ND","27,6","ND","0"],
    [22254,"2016-08-14T16:00:00","49","10","80,63","5,4","328,9","ND","34,6","ND","0"],
    [22255,"2016-08-14T17:00:00","59","6","67,21","7,6","306,5","ND","38,2","ND","0"],
    [22256,"2016-08-14T18:00:00","44","6","48,16","6,2","313,4","ND","41,4","ND","0"],
    [22257,"2016-08-14T19:00:00","42","5","31,95","4,8","326,6","ND","43,2","ND","0"],
    [22258,"2016-08-14T20:00:00","65","15","18,07","3,2","73,3","ND","49,7","ND","0"],
    [22259,"2016-08-14T21:00:00","55","9","16,52","3","76,1","ND","52,6","ND","0"],
    [22260,"2016-08-14T22:00:00","49","12","17,78","1,1","66,2","ND","55","ND","0"],
    [22261,"2016-08-14T23:00:00","41","10","16,5","1,6","71","ND","56,5","ND","0"],
    [22262,"2016-08-15T00:00:00","38","7","18,25","2,4","85,9","ND","58","ND","0"],
    [22263,"2016-08-15T01:00:00","46","11","15,03","0,8","145,6","ND","60,3","ND","0"],
    [22264,"2016-08-15T02:00:00","48","7","14,64","2,3","112,7","ND","60,5","ND","0"],
    [22265,"2016-08-15T03:00:00","36","5","18,92","2,3","126","ND","62,9","ND","0"],
    [22266,"2016-08-15T04:00:00","50","11","16,88","2,6","201,1","ND","63,6","ND","0"],
    [22267,"2016-08-15T05:00:00","59","11","13,13","2,4","193,2","ND","64","ND","0"],
    [22268,"2016-08-15T06:00:00","54","10","10,69","1,4","168,2","ND","63,4","ND","0"],
    [22269,"2016-08-15T07:00:00","60","16","10,85","2,3","196,6","ND","65","ND","0"],
    [22270,"2016-08-15T08:00:00","56","14","19,27","2,3","186,3","ND","60,7","ND","0"],
    [22271,"2016-08-15T09:00:00","50","14","25,82","1,9","154,4","ND","56,8","ND","0"],
    [22272,"2016-08-15T10:00:00","49","13","43,86","2,5","130,9","ND","50","ND","0"],
    [22273,"2016-08-15T11:00:00","49","10","63,09","3,3","122,6","ND","44,5","ND","0"],
    [22274,"2016-08-15T12:00:00","61","20","74,06","2,2","134,7","ND","42,2","ND","0"],
    [22275,"2016-08-15T13:00:00","60","21","98,39","3,3","61,5","ND","40,2","ND","0"],
    [22276,"2016-08-15T14:00:00","51","10","85,72","4,2","53,4","ND","40,3","ND","0"],
    [22277,"2016-08-15T15:00:00","47","14","65,68","4,1","59,9","ND","39,8","ND","0"],
    [22278,"2016-08-15T16:00:00","26","9","61,95","4","287,3","ND","38,7","ND","0"],
    [22279,"2016-08-15T17:00:00","37","6","56,22","5,5","288,6","ND","38,4","ND","0"],
    [22280,"2016-08-15T18:00:00","45","4","45,19","5,8","289,6","ND","42","ND","0"],
    [22281,"2016-08-15T19:00:00","38","3","30,34","3,9","293,9","ND","44,8","ND","0"],
    [22282,"2016-08-15T20:00:00","80","23","14,62","1,8","5,6","ND","49,8","ND","0"],
    [22283,"2016-08-15T21:00:00","70","12","10,32","3,6","82,9","ND","56","ND","0"],
    [22284,"2016-08-15T22:00:00","55","9","11,79","3,9","88,9","ND","60,8","ND","0"],
    [22285,"2016-08-15T23:00:00","43","9","12,5","1,5","88,7","ND","58,7","ND","0"],
    [22286,"2016-08-16T00:00:00","33","6","14,58","1,9","179,6","ND","60,4","ND","0"],
    [22287,"2016-08-16T01:00:00","44","4","13,85","2","205,2","ND","62,5","ND","0"],
    [22288,"2016-08-16T02:00:00","53","17","12,5","1,3","234,8","ND","63,7","ND","0"],
    [22289,"2016-08-16T03:00:00","54","3","12,6","2,6","83,8","ND","64,9","ND","0"],
    [22290,"2016-08-16T04:00:00","36","ND","16,13","2,4","87,2","ND","69,7","ND","0"],
    [22291,"2016-08-16T05:00:00","30","4","13,91","0,3","286,9","ND","69,8","ND","0"],
    [22292,"2016-08-16T06:00:00","56","10","8,44","2,2","210","ND","70","ND","0"],
    [22293,"2016-08-16T07:00:00","101","29","8,87","2,1","107,1","ND","70,5","ND","0"],
    [22294,"2016-08-16T08:00:00","94","14","10,5","2","85,6","ND","67,3","ND","0"],
    [22295,"2016-08-16T09:00:00","62","16","24,94","1,6","225,6","ND","59,5","ND","0"],
    [22296,"2016-08-16T10:00:00","65","17","39,33","1,5","169,6","ND","50,5","ND","0"],
    [22297,"2016-08-16T11:00:00","54","17","61,3","3,3","92,8","ND","43,5","ND","0"],
    [22298,"2016-08-16T12:00:00","52","9","79,28","2,6","83,7","ND","40,4","ND","0"],
    [22299,"2016-08-16T13:00:00","62","18","82,28","2,8","66,5","ND","39,5","ND","0"],
    [22300,"2016-08-16T14:00:00","78","27","83,5","4,1","116,2","ND","41,6","ND","0"],
    [22301,"2016-08-16T15:00:00","57","18","75,67","4,1","121,5","ND","40,8","ND","0"],
    [22302,"2016-08-16T16:00:00","57","14","70,31","3,7","92,1","ND","40","ND","0"],
    [22303,"2016-08-16T17:00:00","57","18","58,07","3,1","85,2","ND","41,1","ND","0"],
    [22304,"2016-08-16T18:00:00","45","11","58,62","3,2","294","ND","38,9","ND","0"],
    [22305,"2016-08-16T19:00:00","58","13","29,14","4,3","303,8","ND","42","ND","0"],
    [22306,"2016-08-16T20:00:00","50","11","24,51","5,2","286,2","ND","44,1","ND","0"],
    [22307,"2016-08-16T21:00:00","60","13","14,87","2","66,8","ND","48,5","ND","0"],
    [22308,"2016-08-16T22:00:00","48","12","12,95","3,6","100,6","ND","56,5","ND","0"],
    [22309,"2016-08-16T23:00:00","31","7","12,6","2,4","76,5","ND","57,6","ND","0"],
    [22310,"2016-08-17T00:00:00","45","9","11,4","1,4","157,1","ND","56,5","ND","0"],
    [22311,"2016-08-17T01:00:00","26","9","12,87","2","144,8","ND","58,8","ND","0"],
    [22312,"2016-08-17T02:00:00","41","9","12,97","1,4","150,9","ND","60,6","ND","0"],
    [22313,"2016-08-17T03:00:00","27","5","13,3","2,3","117,2","ND","63,5","ND","0"],
    [22314,"2016-08-17T04:00:00","21","4","16,92","1,2","179,5","ND","63,5","ND","0"],
    [22315,"2016-08-17T05:00:00","38","8","12,28","1","305","ND","63,4","ND","0"],
    [22316,"2016-08-17T06:00:00","64","18","10,18","2,4","71,4","ND","63,6","ND","0"],
    [22317,"2016-08-17T07:00:00","72","18","9,5","2,1","194,1","ND","67,8","ND","0"],
    [22318,"2016-08-17T08:00:00","71","24","12,72","3","163,7","ND","66,3","ND","0"],
    [22319,"2016-08-17T09:00:00","59","17","23,84","3,1","186","ND","60","ND","0"],
    [22320,"2016-08-17T10:00:00","41","16","46,8","2,3","184","ND","50,8","ND","0"],
    [22321,"2016-08-17T11:00:00","48","17","63,82","1,6","119,2","ND","42,3","ND","0"],
    [22322,"2016-08-17T12:00:00","44","11","82,85","0,7","118,6","ND","38,8","ND","0"],
    [22323,"2016-08-17T13:00:00","50","21","90,6","2,6","100,1","ND","38,6","ND","0"],
    [22324,"2016-08-17T14:00:00","50","15","73,26","4,6","91,1","ND","40,2","ND","0"],
    [22325,"2016-08-17T15:00:00","60","17","96,43","2","66,7","ND","38,3","ND","0"],
    [22326,"2016-08-17T16:00:00","72","20","132,68","1,4","24,4","ND","37,2","ND","0"],
    [22327,"2016-08-17T17:00:00","58","4","72,14","5,2","288,5","ND","35,7","ND","0"],
    [22328,"2016-08-17T18:00:00","64","4","35,28","7,2","293,8","ND","40,3","ND","0"],
    [22329,"2016-08-17T19:00:00","73","7","23,51","5,2","305,5","ND","44,1","ND","0"],
    [22330,"2016-08-17T20:00:00","74","18","18,68","2,6","22,9","ND","49,5","ND","0"],
    [22331,"2016-08-17T21:00:00","77","26","14,01","3,7","73,4","ND","57,7","ND","0"],
    [22332,"2016-08-17T22:00:00","69","29","14,86","3,5","64,6","ND","60,8","ND","0"],
    [22333,"2016-08-17T23:00:00","33","6","14,13","1,2","152,3","ND","62","ND","0"],
    [22334,"2016-08-18T00:00:00","46","10","11,77","4,3","196,4","ND","63,1","ND","0"],
    [22335,"2016-08-18T01:00:00","50","13","11,87","3,6","220,4","ND","66,6","ND","0"],
    [22336,"2016-08-18T02:00:00","46","15","13,82","1,8","236,4","ND","63,9","ND","0"],
    [22337,"2016-08-18T03:00:00","48","18","12,32","1,7","125,3","ND","65,7","ND","0"],
    [22338,"2016-08-18T04:00:00","55","12","9,99","2,1","99","ND","68,5","ND","0"],
    [22339,"2016-08-18T05:00:00","89","30","9,56","2,1","116,8","ND","67,8","ND","0"],
    [22340,"2016-08-18T06:00:00","71","31","10,42","2","156,2","ND","68","ND","0"],
    [22341,"2016-08-18T07:00:00","94","32","10,11","1,9","151,7","ND","68,1","ND","0"],
    [22342,"2016-08-18T08:00:00","87","28","12,34","2","172,3","ND","65,6","ND","0"],
    [22343,"2016-08-18T09:00:00","96","28","19,43","3","168,1","ND","60,5","ND","0"],
    [22344,"2016-08-18T10:00:00","74","23","39,15","2,6","143,3","ND","51,9","ND","0"],
    [22345,"2016-08-18T11:00:00","49","14","63,54","2","163,3","ND","44,1","ND","0"],
    [22346,"2016-08-18T12:00:00","52","11","70,72","3,1","48,2","ND","39,7","ND","0"],
    [22347,"2016-08-18T13:00:00","55","10","84,34","3,1","40,8","ND","37,1","ND","0"],
    [22348,"2016-08-18T14:00:00","63","21","102,4","3,8","80,9","ND","35,8","ND","0"],
    [22349,"2016-08-18T15:00:00","47","14","82,18","4,4","53,6","ND","34,9","ND","0"],
    [22350,"2016-08-18T16:00:00","39","9","65,88","4,3","46,5","ND","38,1","ND","0"],
    [22351,"2016-08-18T17:00:00","44","9","55,36","2,7","15,1","ND","37,6","ND","0"],
    [22352,"2016-08-18T18:00:00","62","11","67,72","6,6","294,8","ND","39,7","ND","0"],
    [22353,"2016-08-18T19:00:00","48","10","36,36","5,4","307,6","ND","43,2","ND","0"],
    [22354,"2016-08-18T20:00:00","50","7","29,69","3,8","308,3","ND","44,8","ND","0"],
    [22355,"2016-08-18T21:00:00","57","8","16,9","4,3","90,6","ND","55","ND","0"],
    [22356,"2016-08-18T22:00:00","41","7","16,35","2,4","42,4","ND","56,6","ND","0"],
    [22357,"2016-08-18T23:00:00","40","6","15,17","3,3","110,2","ND","57,4","ND","0"],
    [22358,"2016-08-19T00:00:00","33","9","17,47","3,2","69,8","ND","58,6","ND","0"],
    [22359,"2016-08-19T01:00:00","19","6","21,76","3,1","98,1","ND","60,8","ND","0"],
    [22360,"2016-08-19T02:00:00","33","5","18,78","3,3","100,8","ND","64,3","ND","0"],
    [22361,"2016-08-19T03:00:00","28","4","17,05","2,6","88,5","ND","66,7","ND","0"],
    [22362,"2016-08-19T04:00:00","17","4","15,15","2,1","95,7","ND","68,1","ND","0"],
    [22363,"2016-08-19T05:00:00","27","2","15,52","1,1","321,3","ND","67,4","ND","0"],
    [22364,"2016-08-19T06:00:00","64","14","11,17","1,7","49,9","ND","64,3","ND","0"],
    [22365,"2016-08-19T07:00:00","50","10","11,34","3,1","112,5","ND","71,9","ND","1,02"],
    [22366,"2016-08-19T08:00:00","32","12","16,6","0,8","258,2","ND","71,7","ND","0,25"],
    [22367,"2016-08-19T09:00:00","62","24","31,99","2,6","169,2","ND","59,4","ND","0"],
    [22368,"2016-08-19T10:00:00","39","14","49,18","1,3","177,4","ND","52,8","ND","0"],
    [22369,"2016-08-19T11:00:00","36","13","62,36","2,2","38,9","ND","47,1","ND","0"],
    [22370,"2016-08-19T12:00:00","35","9","69,33","2,7","44,5","ND","38,9","ND","0"],
    [22371,"2016-08-19T13:00:00","44","10","91,92","2,8","54,8","ND","35,2","ND","0"],
    [22372,"2016-08-19T14:00:00","47","14","91,76","3,8","55,7","ND","30,4","ND","0"],
    [22373,"2016-08-19T15:00:00","48","8","84,62","3,7","34,9","ND","31,8","ND","0"],
    [22374,"2016-08-19T16:00:00","57","7","63,6","5,4","6,3","ND","34,5","ND","0"],
    [22375,"2016-08-19T17:00:00","38","9","47,98","6,4","313","ND","38,1","ND","0"],
    [22376,"2016-08-19T18:00:00","45","10","35,85","5,5","314,1","ND","40,8","ND","0"],
    [22377,"2016-08-19T19:00:00","103","20","17,48","2,2","358,4","ND","44,3","ND","0"],
    [22378,"2016-08-19T20:00:00","73","22","14,23","3,4","89,9","ND","52,3","ND","0"],
    [22379,"2016-08-19T21:00:00","59","14","14,87","3,8","84,3","ND","58,4","ND","0"],
    [22380,"2016-08-19T22:00:00","56","19","17,43","3,6","51,5","ND","57,8","ND","0"],
    [22381,"2016-08-19T23:00:00","37","6","14,17","1,4","95,2","ND","62,8","ND","0"],
    [22382,"2016-08-20T00:00:00","82","33","13,6","2,5","96","ND","63,4","ND","0"],
    [22383,"2016-08-20T01:00:00","42","12","13,82","1,5","116,7","ND","65,1","ND","0"],
    [22384,"2016-08-20T02:00:00","43","8","12,95","1,5","105,3","ND","66,9","ND","0"],
    [22385,"2016-08-20T03:00:00","40","12","14,64","2","96,1","ND","66,8","ND","0"],
    [22386,"2016-08-20T04:00:00","51","22","15,07","2,2","120,7","ND","66,8","ND","0"],
    [22387,"2016-08-20T05:00:00","66","17","12,54","2,4","178,2","ND","69,3","ND","0"],
    [22388,"2016-08-20T06:00:00","75","26","10,48","1,5","135,7","ND","71,7","ND","0"],
    [22389,"2016-08-20T07:00:00","79","27","10,99","1,4","164","ND","72,7","ND","0"],
    [22390,"2016-08-20T08:00:00","71","23","16,03","2,3","175,1","ND","67,1","ND","0"],
    [22391,"2016-08-20T09:00:00","56","20","39,13","1,1","293,4","ND","55","ND","0"],
    [22392,"2016-08-20T10:00:00","72","24","56,85","2,2","44,8","ND","50,3","ND","0"],
    [22393,"2016-08-20T11:00:00","76","23","80,06","3,1","110,2","ND","44,7","ND","0"],
    [22394,"2016-08-20T12:00:00","69","21","112,35","2,2","96,4","ND","40,4","ND","0"],
    [22395,"2016-08-20T13:00:00","ND","25","138,84","2,6","33","ND","36,5","ND","0"],
    [22396,"2016-08-20T14:00:00","50","23","139,47","1,8","69,1","ND","33,9","ND","0"],
    [22397,"2016-08-20T15:00:00","63","23","139,8","3,1","84,6","ND","30,1","ND","0"],
    [22398,"2016-08-20T16:00:00","61","21","109,97","3,3","114","ND","26,8","ND","0"],
    [22399,"2016-08-20T17:00:00","73","17","107,2","3,9","310,6","ND","31,5","ND","0"],
    [22400,"2016-08-20T18:00:00","59","16","83,05","6,1","306,5","ND","37,7","ND","0"],
    [22401,"2016-08-20T19:00:00","53","8","47,1","4,8","317,6","ND","39,5","ND","0"],
    [22402,"2016-08-20T20:00:00","58","14","34,36","1,4","336,7","ND","44,4","ND","0"],
    [22403,"2016-08-20T21:00:00","57","16","20,17","2,8","96,5","ND","53","ND","0"],
    [22404,"2016-08-20T22:00:00","56","12","20,09","1,4","107,2","ND","52,7","ND","0"],
    [22405,"2016-08-20T23:00:00","41","13","17,68","2","87,3","ND","58","ND","0"],
    [22406,"2016-08-21T00:00:00","33","9","16,62","3,5","118,7","ND","61,3","ND","0"],
    [22407,"2016-08-21T01:00:00","38","12","19,7","0,8","86,2","ND","63,6","ND","0"],
    [22408,"2016-08-21T02:00:00","45","8","17,54","1,7","111,7","ND","63,8","ND","0"],
    [22409,"2016-08-21T03:00:00","62","19","15,54","2,4","137,3","ND","67,1","ND","0"],
    [22410,"2016-08-21T04:00:00","58","17","16,68","1,4","161,4","ND","69,1","ND","0"],
    [22411,"2016-08-21T05:00:00","72","20","13,23","2,3","129,1","ND","70,5","ND","0"],
    [22412,"2016-08-21T06:00:00","65","21","12,87","1,6","190,5","ND","68,5","ND","0"],
    [22413,"2016-08-21T07:00:00","96","28","12,07","2,2","126,4","ND","70","ND","0"],
    [22414,"2016-08-21T08:00:00","66","24","18,76","2,7","131,4","ND","62,7","ND","0"],
    [22415,"2016-08-21T09:00:00","49","15","42,17","3,1","144,1","ND","49,8","ND","0"],
    [22416,"2016-08-21T10:00:00","42","16","65,82","2","157,3","ND","44,7","ND","0"],
    [22417,"2016-08-21T11:00:00","44","16","83,32","1","89,1","ND","38,3","ND","0"],
    [22418,"2016-08-21T12:00:00","47","15","88,99","3,2","102,4","ND","33,6","ND","0"],
    [22419,"2016-08-21T13:00:00","38","10","96,69","2,2","136,9","ND","27,1","ND","0"],
    [22420,"2016-08-21T14:00:00","36","8","116","1,8","302,6","ND","21,7","ND","0"],
    [22421,"2016-08-21T15:00:00","29","10","92,09","1,3","143,5","ND","16,4","ND","0"],
    [22422,"2016-08-21T16:00:00","41","8","87,11","2,3","154,4","ND","16,9","ND","0"],
    [22423,"2016-08-21T17:00:00","53","4","79,46","4,8","294,9","ND","26,2","ND","0"],
    [22424,"2016-08-21T18:00:00","41","3","64,58","6,5","296,4","ND","33,1","ND","0"],
    [22425,"2016-08-21T19:00:00","52","15","41,74","3,1","319,5","ND","37,7","ND","0"],
    [22426,"2016-08-21T20:00:00","90","26","22,74","2,2","40,5","ND","43,3","ND","0"],
    [22427,"2016-08-21T21:00:00","96","37","18,37","1,9","48,6","ND","48,6","ND","0"],
    [22428,"2016-08-21T22:00:00","57","10","14,66","3,9","114,9","ND","57,2","ND","0"],
    [22429,"2016-08-21T23:00:00","49","14","18,33","4,3","72","ND","60,3","ND","0"],
    [22430,"2016-08-22T00:00:00","60","15","12,6","2","194","ND","58,2","ND","0"],
    [22431,"2016-08-22T01:00:00","40","8","13,91","2,5","93,2","ND","65,1","ND","0"],
    [22432,"2016-08-22T02:00:00","39","11","18,64","1,4","37,2","ND","65,8","ND","0"],
    [22433,"2016-08-22T03:00:00","51","13","16,07","2,1","226,1","ND","64,7","ND","0"],
    [22434,"2016-08-22T04:00:00","61","18","14,44","1,8","207,5","ND","60,5","ND","0"],
    [22435,"2016-08-22T05:00:00","70","27","13,19","1,9","150,4","ND","61,2","ND","0"],
    [22436,"2016-08-22T06:00:00","73","30","12,68","2,6","203,4","ND","64,9","ND","0"],
    [22437,"2016-08-22T07:00:00","92","26","12,83","1,5","159,2","ND","65,6","ND","0"],
    [22438,"2016-08-22T08:00:00","102","30","15,37","2,5","101,5","ND","63,4","ND","0"],
    [22439,"2016-08-22T09:00:00","96","26","23,61","2,4","149,7","ND","56,8","ND","0"],
    [22440,"2016-08-22T10:00:00","87","33","37,64","2,7","150,3","ND","51,3","ND","0"],
    [22441,"2016-08-22T11:00:00","72","23","58,67","2,4","190,3","ND","46,3","ND","0"],
    [22442,"2016-08-22T12:00:00","62","28","67,45","3","109,2","ND","39,1","ND","0"],
    [22443,"2016-08-22T13:00:00","84","23","82,54","2,4","9,1","ND","35","ND","0"],
    [22444,"2016-08-22T14:00:00","62","15","95,27","2,9","161,5","ND","26,3","ND","0"],
    [22445,"2016-08-22T15:00:00","28","5","89,31","2,2","216,8","ND","20,8","ND","0"],
    [22446,"2016-08-22T16:00:00","28","7","88,6","1,5","185,9","ND","18,3","ND","0"],
    [22447,"2016-08-22T17:00:00","77","18","75,08","2,7","175,1","ND","20,9","ND","0"],
    [22448,"2016-08-22T18:00:00","ND","ND","62,23","6,7","218,4","ND","24","ND","0"],
    [22449,"2016-08-22T19:00:00","117","12","39,05","5,8","241,4","ND","29,8","ND","0"],
    [22450,"2016-08-22T20:00:00","48","9","ND","3,7","298,5","ND","38,7","ND","0"],
    [22451,"2016-08-22T21:00:00","72","15","ND","2,9","84,1","ND","48","ND","0"],
    [22452,"2016-08-22T22:00:00","46","13","ND","4,3","95,8","ND","57,9","ND","0"],
    [22453,"2016-08-22T23:00:00","38","10","ND","2","74,4","ND","62,3","ND","0"],
    [22454,"2016-08-23T00:00:00","38","9","ND","1,7","39,8","ND","65,2","ND","0"],
    [22455,"2016-08-23T01:00:00","41","7","ND","2,2","35,1","ND","65,1","ND","0"],
    [22456,"2016-08-23T02:00:00","41","11","ND","3","107,2","ND","69,4","ND","0"],
    [22457,"2016-08-23T03:00:00","25","6","ND","0,7","128,8","ND","68,7","ND","0"],
    [22458,"2016-08-23T04:00:00","48","8","ND","2,3","201,1","ND","66,1","ND","0"],
    [22459,"2016-08-23T05:00:00","110","76","ND","2,4","228","ND","59,7","ND","0"],
    [22460,"2016-08-23T06:00:00","164","101","ND","2","95,5","ND","62,4","ND","0"],
    [22461,"2016-08-23T07:00:00","ND","ND","ND","2,4","160,6","ND","66,6","ND","0"],
    [22462,"2016-08-23T08:00:00","184","107","ND","2,3","172,5","ND","57","ND","0"],
    [22463,"2016-08-23T09:00:00","135","72","ND","2,2","167,9","ND","48,4","ND","0"],
    [22464,"2016-08-23T10:00:00","114","62","ND","1,9","123,6","ND","41,7","ND","0"],
    [22465,"2016-08-23T11:00:00","109","56","ND","2,4","156,6","ND","34","ND","0"],
    [22466,"2016-08-23T12:00:00","125","31","ND","2,7","134,8","ND","30","ND","0"],
    [22467,"2016-08-23T13:00:00","65","25","ND","3,2","154,2","ND","22,4","ND","0"],
    [22468,"2016-08-23T14:00:00","45","15","ND","3","121,3","ND","18,3","ND","0"],
    [22469,"2016-08-23T15:00:00","52","12","ND","2,2","119,7","ND","15,6","ND","0"],
    [22470,"2016-08-23T16:00:00","68","17","ND","5,8","62,6","ND","20,2","ND","0"],
    [22471,"2016-08-23T17:00:00","74","19","ND","3,5","340,4","ND","28,7","ND","0"],
    [22472,"2016-08-23T18:00:00","74","10","ND","5,3","295,5","ND","36","ND","0"],
    [22473,"2016-08-23T19:00:00","85","13","ND","3,3","310,3","ND","38,6","ND","0"],
    [22474,"2016-08-23T20:00:00","83","16","ND","0,6","333","ND","44,3","ND","0"],
    [22475,"2016-08-23T21:00:00","82","25","ND","2,2","69,3","ND","50,4","ND","0"],
    [22476,"2016-08-23T22:00:00","95","42","ND","2,8","104,8","ND","57,6","ND","0"],
    [22477,"2016-08-23T23:00:00","52","15","ND","2,9","113,4","ND","62,5","ND","0"],
    [22478,"2016-08-24T00:00:00","38","6","ND","0,9","109,9","ND","63,4","ND","0"],
    [22479,"2016-08-24T01:00:00","95","32","ND","1,2","142,7","ND","60,9","ND","0"],
    [22480,"2016-08-24T02:00:00","78","26","ND","3","134,5","ND","64,2","ND","0"],
    [22481,"2016-08-24T03:00:00","77","29","ND","2,2","201,4","ND","61,4","ND","0"],
    [22482,"2016-08-24T04:00:00","74","27","ND","1,7","181,3","ND","62,2","ND","0"],
    [22483,"2016-08-24T05:00:00","79","28","ND","2","135,1","ND","62,6","ND","0"],
    [22484,"2016-08-24T06:00:00","69","24","ND","1,8","189,9","ND","58,5","ND","0"],
    [22485,"2016-08-24T07:00:00","107","37","ND","1,1","75,7","ND","58,4","ND","0"],
    [22486,"2016-08-24T08:00:00","121","36","ND","2,6","111,2","ND","55,2","ND","0"],
    [22487,"2016-08-24T09:00:00","128","40","28,42","3,9","124,3","ND","51,1","ND","0"],
    [22488,"2016-08-24T10:00:00","84","26","60,93","4,2","165,2","ND","41,1","ND","0"],
    [22489,"2016-08-24T11:00:00","53","12","75,75","3,6","194,9","ND","31,1","ND","0"],
    [22490,"2016-08-24T12:00:00","59","11","80,65","2,9","127,9","ND","29,2","ND","0"],
    [22491,"2016-08-24T13:00:00","76","23","99,55","4,1","85,3","ND","30","ND","0"],
    [22492,"2016-08-24T14:00:00","81","24","123,08","4,9","98,2","ND","30","ND","0"],
    [22493,"2016-08-24T15:00:00","77","24","128,73","3,6","34,5","ND","27,8","ND","0"],
    [22494,"2016-08-24T16:00:00","57","13","96,65","4,6","24,8","ND","28,8","ND","0"],
    [22495,"2016-08-24T17:00:00","47","14","72,22","4,3","20,1","ND","28,6","ND","0"],
    [22496,"2016-08-24T18:00:00","55","8","57,89","6,8","307,8","ND","35,2","ND","0"],
    [22497,"2016-08-24T19:00:00","69","13","38,23","6,7","313,2","ND","39,7","ND","0"],
    [22498,"2016-08-24T20:00:00","47","9","27,57","5,4","314,2","ND","42","ND","0"],
    [22499,"2016-08-24T21:00:00","70","18","13,72","2","65","ND","47,4","ND","0"],
    [22500,"2016-08-24T22:00:00","53","16","22,25","1","234,1","ND","50,6","ND","0"],
    [22501,"2016-08-24T23:00:00","108","33","12,44","3,1","189,7","ND","51,7","ND","0"],
    [22502,"2016-08-25T00:00:00","93","27","9,67","2","153,8","ND","55,8","ND","0"],
    [22503,"2016-08-25T01:00:00","76","25","13,46","1,9","175,4","ND","56,3","ND","0"],
    [22504,"2016-08-25T02:00:00","88","29","12,58","3,2","205,7","ND","61,8","ND","0"],
    [22505,"2016-08-25T03:00:00","62","19","20,27","3,5","205,7","ND","59,6","ND","0"],
    [22506,"2016-08-25T04:00:00","80","25","11,58","2,1","142,8","ND","62","ND","0"],
    [22507,"2016-08-25T05:00:00","97","35","5,83","2,9","133,9","ND","65,2","ND","0"],
    [22508,"2016-08-25T06:00:00","69","24","8,56","3,3","169,3","ND","59,4","ND","0"],
    [22509,"2016-08-25T07:00:00","82","31","8,63","3,9","180,4","ND","61,3","ND","0"],
    [22510,"2016-08-25T08:00:00","59","16","19,49","3,8","181,4","ND","53,1","ND","0"],
    [22511,"2016-08-25T09:00:00","68","19","40,31","3,3","168,6","ND","47,3","ND","0"],
    [22512,"2016-08-25T10:00:00","80","26","61,44","3,4","118,7","ND","44,4","ND","0"],
    [22513,"2016-08-25T11:00:00","57","14","78,71","2,5","95,2","ND","38,7","ND","0"],
    [22514,"2016-08-25T12:00:00","55","12","87,95","2,2","9,1","ND","35,9","ND","0"],
    [22515,"2016-08-25T13:00:00","53","21","78,24","2,5","72,6","ND","31,9","ND","0"],
    [22516,"2016-08-25T14:00:00","75","25","107,68","4,4","51,3","ND","30,6","ND","0"],
    [22517,"2016-08-25T15:00:00","69","20","92,7","4,6","320,4","ND","34","ND","0"],
    [22518,"2016-08-25T16:00:00","89","14","79,55","7,7","285,4","ND","35,4","ND","0"],
    [22519,"2016-08-25T17:00:00","75","9","68,74","7,7","286,4","ND","36","ND","0"],
    [22520,"2016-08-25T18:00:00","109","6","40,48","8,3","291","ND","41,1","ND","0"],
    [22521,"2016-08-25T19:00:00","69","7","30,42","9,5","310","ND","46,6","ND","0"],
    [22522,"2016-08-25T20:00:00","38","7","22,21","6,1","333,8","ND","47,9","ND","0"],
    [22523,"2016-08-25T21:00:00","ND","ND","12,23","3,6","78,1","ND","56","ND","0"],
    [22524,"2016-08-25T22:00:00","ND","ND","20,49","4,6","55,8","ND","57,8","ND","0"],
    [22525,"2016-08-25T23:00:00","ND","ND","ND","ND","ND","ND","ND","ND","ND"],
    [22526,"2016-08-26T00:00:00","ND","ND","ND","ND","ND","ND","ND","ND","ND"],
    [22527,"2016-08-26T01:00:00","53","4","12,48","1,8","209,4","ND","62,7","ND","0"],
    [22528,"2016-08-26T02:00:00","56","12","12,7","2,7","221,5","ND","65,1","ND","0"],
    [22529,"2016-08-26T03:00:00","49","10","11,66","1,7","154,9","ND","67,2","ND","0"],
    [22530,"2016-08-26T04:00:00","54","10","ND","0,4","208,7","ND","66,6","ND","0"],
    [22531,"2016-08-26T05:00:00","68","ND","ND","2,5","124,3","ND","72,5","ND","0"],
    [22532,"2016-08-26T06:00:00","69","ND","ND","3","164,5","ND","73,9","ND","0"],
    [22533,"2016-08-26T07:00:00","68","ND","ND","2,5","183,2","ND","72,8","ND","0"],
    [22534,"2016-08-26T08:00:00","110","ND","ND","2","93,9","ND","70,4","ND","0"],
    [22535,"2016-08-26T09:00:00","109","ND","ND","3,2","116,9","ND","66,8","ND","0"],
    [22536,"2016-08-26T10:00:00","ND","ND","35,11","1,7","106,9","ND","56,3","ND","0"],
    [22537,"2016-08-26T11:00:00","73","22","59,46","2","115","ND","47,8","ND","0"],
    [22538,"2016-08-26T12:00:00","48","9","67,25","2,2","119","ND","42,6","ND","0"],
    [22539,"2016-08-26T13:00:00","46","6","67,56","3,4","74,3","ND","38,8","ND","0"],
    [22540,"2016-08-26T14:00:00","52","8","74,71","3,7","329,9","ND","42,5","ND","1,02"],
    [22541,"2016-08-26T15:00:00","56","20","103,95","4,5","320,5","ND","39,5","ND","0"],
    [22542,"2016-08-26T16:00:00","55","12","111,46","2,8","319,3","ND","34","ND","0"],
    [22543,"2016-08-26T17:00:00","66","11","60,44","8,1","286,1","ND","36,6","ND","0"],
    [22544,"2016-08-26T18:00:00","53","8","38,76","7","294,9","ND","42,3","ND","0"],
    [22545,"2016-08-26T19:00:00","38","6","19,76","7","318,4","ND","46","ND","0"],
    [22546,"2016-08-26T20:00:00","58","13","15,05","2,9","357,5","ND","48,9","ND","0"],
    [22547,"2016-08-26T21:00:00","75","17","10,99","2,6","76,7","ND","52,1","ND","0"],
    [22548,"2016-08-26T22:00:00","49","16","17,92","1,8","110,1","ND","54,8","ND","0"],
    [22549,"2016-08-26T23:00:00","42","14","16,62","1,8","149","ND","57","ND","0"],
    [22550,"2016-08-27T00:00:00","45","7","12,78","2,5","103,6","ND","59,7","ND","0"],
    [22551,"2016-08-27T01:00:00","36","4","17,25","2,3","123,3","ND","61","ND","0"],
    [22552,"2016-08-27T02:00:00","46","6","18,29","2,4","113,6","ND","63,8","ND","0"],
    [22553,"2016-08-27T03:00:00","34","5","9,65","1,6","79,8","ND","68,1","ND","0"],
    [22554,"2016-08-27T04:00:00","30","5","6,44","2,1","129,7","ND","69,2","ND","0"],
    [22555,"2016-08-27T05:00:00","41","9","4,85","1,8","44,7","ND","69,9","ND","0"],
    [22556,"2016-08-27T06:00:00","59","16","4,1","1,3","43,5","ND","68,3","ND","0"],
    [22557,"2016-08-27T07:00:00","69","21","4,49","2,2","35","ND","68,2","ND","0"],
    [22558,"2016-08-27T08:00:00","63","16","6,48","2,5","39,9","ND","67,3","ND","0"],
    [22559,"2016-08-27T09:00:00","63","18","23,61","1,5","96,5","ND","57,3","ND","0"],
    [22560,"2016-08-27T10:00:00","60","16","43,29","1,6","146,4","ND","51,3","ND","0"],
    [22561,"2016-08-27T11:00:00","48","15","58,11","2,8","104,8","ND","44,7","ND","0"],
    [22562,"2016-08-27T12:00:00","41","14","66,68","2,8","76,1","ND","40,5","ND","0"],
    [22563,"2016-08-27T13:00:00","43","12","77,69","2,7","51,4","ND","36,1","ND","0"],
    [22564,"2016-08-27T14:00:00","49","17","91,84","2,4","11,4","ND","33,7","ND","0"],
    [22565,"2016-08-27T15:00:00","52","14","108,05","0,9","143,2","ND","32,2","ND","0"],
    [22566,"2016-08-27T16:00:00","61","17","81,14","4,3","126,2","ND","31,2","ND","0"],
    [22567,"2016-08-27T17:00:00","83","30","75,32","4,4","101,5","ND","35,5","ND","0"],
    [22568,"2016-08-27T18:00:00","102","37","65,8","2,9","69,6","ND","37,2","ND","0"],
    [22569,"2016-08-27T19:00:00","56","15","39,91","4,9","305","ND","44,6","ND","0"],
    [22570,"2016-08-27T20:00:00","42","11","32,95","4,4","308,9","ND","44,3","ND","0"],
    [22571,"2016-08-27T21:00:00","69","20","16,15","2,6","90","ND","51","ND","0"],
    [22572,"2016-08-27T22:00:00","57","15","13,29","2,7","108,7","ND","59,7","ND","0"],
    [22573,"2016-08-27T23:00:00","57","18","10,15","1,9","65,6","ND","62,3","ND","0"],
    [22574,"2016-08-28T00:00:00","48","8","10,83","2,2","54,5","ND","62,8","ND","0"],
    [22575,"2016-08-28T01:00:00","59","28","12,34","1,5","101,5","ND","64,5","ND","0"],
    [22576,"2016-08-28T02:00:00","42","14","11,3","2,1","106,6","ND","65,2","ND","0"],
    [22577,"2016-08-28T03:00:00","48","14","8,99","1,5","203,3","ND","68,5","ND","0"],
    [22578,"2016-08-28T04:00:00","64","24","4,22","2,3","148","ND","71,2","ND","0"],
    [22579,"2016-08-28T05:00:00","55","17","3,59","1,5","166,8","ND","71","ND","0"],
    [22580,"2016-08-28T06:00:00","77","28","3,85","2,9","210,6","ND","70,9","ND","0"],
    [22581,"2016-08-28T07:00:00","67","23","5,4","1,7","161,4","ND","69,8","ND","0"],
    [22582,"2016-08-28T08:00:00","92","30","8,99","3,4","106,7","ND","68,1","ND","0"],
    [22583,"2016-08-28T09:00:00","75","27","24,78","2,6","179,7","ND","55,3","ND","0"],
    [22584,"2016-08-28T10:00:00","67","24","51,81","1,9","186,8","ND","49,5","ND","0"],
    [22585,"2016-08-28T11:00:00","47","13","74,32","0,7","29,2","ND","42,3","ND","0"],
    [22586,"2016-08-28T12:00:00","41","12","77,91","1,9","107,6","ND","36,9","ND","0"],
    [22587,"2016-08-28T13:00:00","45","9","87,7","2,1","97,9","ND","33,1","ND","0"],
    [22588,"2016-08-28T14:00:00","52","16","95,18","2,5","61,2","ND","29,6","ND","0"],
    [22589,"2016-08-28T15:00:00","61","14","97,69","4","359,3","ND","30","ND","0"],
    [22590,"2016-08-28T16:00:00","50","9","76,55","7,1","313,2","ND","34,3","ND","0"],
    [22591,"2016-08-28T17:00:00","42","7","61,17","7,5","307,3","ND","35,3","ND","0"],
    [22592,"2016-08-28T18:00:00","42","6","39,4","6,4","300,5","ND","40,8","ND","0"],
    [22593,"2016-08-28T19:00:00","50","3","29,77","6,1","296,1","ND","45,6","ND","0"],
    [22594,"2016-08-28T20:00:00","64","14","41,43","7,6","262,5","ND","48,2","ND","0"],
    [22595,"2016-08-28T21:00:00","45","10","30,44","1,4","298","ND","47,9","ND","0,51"],
    [22596,"2016-08-28T22:00:00","38","9","15,42","1","252,4","ND","62,9","ND","0,51"],
    [22597,"2016-08-28T23:00:00","54","20","26,92","4","208,6","ND","61,9","ND","0"],
    [22598,"2016-08-29T00:00:00","53","12","15,72","3","257,5","ND","61,8","ND","0"],
    [22599,"2016-08-29T01:00:00","25","10","11,83","1,6","290,5","ND","60,5","ND","0"],
    [22600,"2016-08-29T02:00:00","51","18","8,26","3","86,8","ND","69,9","ND","0"],
    [22601,"2016-08-29T03:00:00","63","19","12,72","1,8","77,1","ND","68,9","ND","0"],
    [22602,"2016-08-29T04:00:00","57","15","10,52","2,5","115,6","ND","68,5","ND","0"],
    [22603,"2016-08-29T05:00:00","37","13","6,16","0,5","270,4","ND","69,8","ND","0"],
    [22604,"2016-08-29T06:00:00","74","24","5,04","2,7","202,1","ND","67,8","ND","0"],
    [22605,"2016-08-29T07:00:00","81","25","4,91","2,5","170,6","ND","67","ND","0"],
    [22606,"2016-08-29T08:00:00","110","28","9,73","2,3","180","ND","68,1","ND","0"],
    [22607,"2016-08-29T09:00:00","69","22","28,96","1,5","165,4","ND","54,3","ND","0"],
    [22608,"2016-08-29T10:00:00","56","17","54,06","1,4","157","ND","48,9","ND","0"],
    [22609,"2016-08-29T11:00:00","41","16","62,91","1,8","108,4","ND","42,9","ND","0"],
    [22610,"2016-08-29T12:00:00","54","18","79,79","2,8","62,7","ND","40,3","ND","0"],
    [22611,"2016-08-29T13:00:00","63","22","97,31","4,8","59,8","ND","38,6","ND","0"],
    [22612,"2016-08-29T14:00:00","58","18","106,01","4","57","ND","37,6","ND","0"],
    [22613,"2016-08-29T15:00:00","56","17","90,48","3,8","56,2","ND","34,8","ND","0"],
    [22614,"2016-08-29T16:00:00","32","4","53","6,2","302,6","ND","35,1","ND","0"],
    [22615,"2016-08-29T17:00:00","28","7","45,35","7,4","296,2","ND","37","ND","0"],
    [22616,"2016-08-29T18:00:00","48","10","33,81","5,7","294,5","ND","39,7","ND","0"],
    [22617,"2016-08-29T19:00:00","37","12","13,76","5,8","315,8","ND","44,9","ND","0"],
    [22618,"2016-08-29T20:00:00","33","8","9,77","3,5","320,2","ND","47,8","ND","0"],
    [22619,"2016-08-29T21:00:00","52","11","8,05","4","80,6","ND","55,5","ND","0"],
    [22620,"2016-08-29T22:00:00","33","8","12,76","3,6","58","ND","57,3","ND","0"],
    [22621,"2016-08-29T23:00:00","34","6","12,58","3,8","99,4","ND","60,1","ND","0"],
    [22622,"2016-08-30T00:00:00","25","5","13,36","2,7","91,3","ND","63,2","ND","0"],
    [22623,"2016-08-30T01:00:00","26","2","15,33","1,8","83,6","ND","62,9","ND","0"],
    [22624,"2016-08-30T02:00:00","28","4","16,46","2,3","108,5","ND","63,6","ND","0"],
    [22625,"2016-08-30T03:00:00","38","7","15,01","2,5","90,5","ND","65","ND","0"],
    [22626,"2016-08-30T04:00:00","74","29","9,73","1,4","35,4","ND","65,5","ND","0"],
    [22627,"2016-08-30T05:00:00","63","18","4,42","2,1","66,4","ND","67,5","ND","0"],
    [22628,"2016-08-30T06:00:00","63","19","2,61","1,6","69,3","ND","69,7","ND","0"],
    [22629,"2016-08-30T07:00:00","96","34","4,96","1,6","100,4","ND","68,5","ND","0"],
    [22630,"2016-08-30T08:00:00","93","23","5,06","3","83,5","ND","65,2","ND","0"],
    [22631,"2016-08-30T09:00:00","55","9","11,56","2,4","26","ND","62,6","ND","0"],
    [22632,"2016-08-30T10:00:00","53","14","23,49","0,1","54,5","ND","57,5","ND","0"],
    [22633,"2016-08-30T11:00:00","69","17","40,35","2,6","193","ND","54,1","ND","0"],
    [22634,"2016-08-30T12:00:00","65","23","55,93","3,2","153","ND","49","ND","0"],
    [22635,"2016-08-30T13:00:00","69","17","55,12","3,1","87,8","ND","45","ND","0"],
    [22636,"2016-08-30T14:00:00","55","18","84,79","4,2","20,7","ND","43,8","ND","0"],
    [22637,"2016-08-30T15:00:00","64","18","106,34","3,4","34,1","ND","40,1","ND","0"],
    [22638,"2016-08-30T16:00:00","45","14","76,87","5,4","32,8","ND","42,3","ND","0"],
    [22639,"2016-08-30T17:00:00","41","11","59,48","4,6","31,3","ND","41,4","ND","0"],
    [22640,"2016-08-30T18:00:00","47","10","49,53","3,6","343,8","ND","42,2","ND","0"],
    [22641,"2016-08-30T19:00:00","68","11","22,98","2,7","296,4","ND","45,9","ND","0"],
    [22642,"2016-08-30T20:00:00","87","26","10,17","3,2","324,5","ND","47,3","ND","0"],
    [22643,"2016-08-30T21:00:00","63","16","12,48","2,3","343","ND","51,3","ND","0"],
    [22644,"2016-08-30T22:00:00","70","18","6,75","3,2","93,1","ND","58,1","ND","0"],
    [22645,"2016-08-30T23:00:00","36","8","14,09","4,6","82,4","ND","62,1","ND","0"],
    [22646,"2016-08-31T00:00:00","42","9","15,8","2,1","39,6","ND","59,1","ND","0"],
    [22647,"2016-08-31T01:00:00","34","7","18,58","0,5","267,8","ND","60,6","ND","0"],
    [22648,"2016-08-31T02:00:00","40","9","6,81","1,3","142,9","ND","63,6","ND","0"],
    [22649,"2016-08-31T03:00:00","64","15","3,98","2,5","136,2","ND","68,3","ND","0"],
    [22650,"2016-08-31T04:00:00","59","18","3,2","2,1","122,7","ND","72,2","ND","0"],
    [22651,"2016-08-31T05:00:00","77","31","4,24","0,4","228,3","ND","69,3","ND","0"],
    [22652,"2016-08-31T06:00:00","90","33","3,83","2","121,7","ND","68,8","ND","0"],
    [22653,"2016-08-31T07:00:00","96","35","4,14","1,3","226,3","ND","70,7","ND","0"],
    [22654,"2016-08-31T08:00:00","97","33","9,46","2,2","196,5","ND","66,2","ND","0"],
    [22655,"2016-08-31T09:00:00","103","34","19,58","1,8","94,8","ND","58,4","ND","0"],
    [22656,"2016-08-31T10:00:00","84","30","46,53","2,1","81,3","ND","46,6","ND","0"],
    [22657,"2016-08-31T11:00:00","83","21","75,24","2","7,5","ND","41,5","ND","0"],
    [22658,"2016-08-31T12:00:00","77","21","85,5","3,9","55,2","ND","38,7","ND","0"],
    [22659,"2016-08-31T13:00:00","70","21","72,27","5,5","81,6","ND","42,6","ND","0"],
    [22660,"2016-08-31T14:00:00","69","21","77,49","3,3","72,8","ND","40,3","ND","0"],
    [22661,"2016-08-31T15:00:00","ND","39","99,43","2,6","352,3","ND","36,5","ND","0"],
    [22662,"2016-08-31T16:00:00","131","15","55,36","4,3","303,2","ND","37,9","ND","0,76"],
    [22663,"2016-08-31T17:00:00","ND","ND","19,31","3","85,9","ND","72,3","ND","14,99"],
    [22664,"2016-08-31T18:00:00","ND","ND","15,8","3","141,5","ND","70,1","ND","0"],
    [22665,"2016-08-31T19:00:00","ND","ND","ND","ND","ND","ND","ND","ND","ND"],
    [22666,"2016-08-31T20:00:00","ND","ND","7,04","3,5","75,6","ND","76,2","ND","2,54"],
    [22667,"2016-08-31T21:00:00","27","10","7,85","2,7","121,8","ND","79","ND","6,6"],
    [22668,"2016-08-31T22:00:00","30","11","7,69","2,4","210,2","ND","78,2","ND","0"],
    [22669,"2016-08-31T23:00:00","28","11","9,11","3,6","203,4","ND","76,8","ND","0"],
    [22670,"2016-09-01T00:00:00","26","ND","ND","3,2","192,7","ND","81,3","ND","0"],
    [22671,"2016-09-01T01:00:00","30","ND","ND","3","189,6","ND","83,9","ND","0"],
    [22672,"2016-09-01T02:00:00","25","ND","ND","2,4","193,7","ND","83,1","ND","0"],
    [22673,"2016-09-01T03:00:00","24","ND","ND","3,7","72,1","ND","84,4","ND","17,78"],
    [22674,"2016-09-01T04:00:00","16","ND","ND","3,9","81,7","ND","86,6","ND","9,4"],
    [22675,"2016-09-01T05:00:00","19","ND","ND","1,3","92,4","ND","87,3","ND","2,03"],
    [22676,"2016-09-01T06:00:00","41","ND","6,79","2,6","71,1","ND","84,2","ND","20,07"],
    [22677,"2016-09-01T07:00:00","27","ND","ND","2,2","60","ND","85,7","ND","27,18"],
    [22678,"2016-09-01T08:00:00","22","ND","ND","2,5","12,4","ND","88,1","ND","12,95"],
    [22679,"2016-09-01T09:00:00","35","6","12,99","2,1","28,2","ND","83,5","ND","2,03"],
    [22680,"2016-09-01T10:00:00","27","6","ND","1,4","2,6","ND","76,7","ND","0"],
    [22681,"2016-09-01T11:00:00","30","ND","ND","2,8","109,5","ND","60,5","ND","0"],
    [22682,"2016-09-01T12:00:00","55","ND","ND","3,5","131,7","ND","56","ND","0"],
    [22683,"2016-09-01T13:00:00","31","ND","ND","2,3","147,6","ND","50,8","ND","0"],
    [22684,"2016-09-01T14:00:00","37","ND","ND","2,4","99,6","ND","46,1","ND","0"],
    [22685,"2016-09-01T15:00:00","41","ND","ND","2,1","100,5","ND","43,6","ND","0"],
    [22686,"2016-09-01T16:00:00","49","ND","ND","3,5","75,9","ND","43,7","ND","0"],
    [22687,"2016-09-01T17:00:00","53","ND","ND","4,3","94,9","ND","47,3","ND","0"],
    [22688,"2016-09-01T18:00:00","ND","ND","ND","1,9","107,1","ND","48,5","ND","0"],
    [22689,"2016-09-01T19:00:00","ND","ND","ND","3,4","298,6","ND","46,5","ND","0"],
    [22690,"2016-09-01T20:00:00","ND","ND","ND","1,6","296,3","ND","52,9","ND","0"],
    [22691,"2016-09-01T21:00:00","ND","ND","ND","0,5","99,1","ND","60,1","ND","0"],
    [22692,"2016-09-01T22:00:00","ND","ND","ND","3,1","95,4","ND","71,2","ND","0"],
    [22693,"2016-09-01T23:00:00","ND","ND","ND","3,3","76,8","ND","73,9","ND","0"],
    [22694,"2016-09-02T00:00:00","ND","ND","ND","1,6","58,1","ND","73,7","ND","0"],
    [22695,"2016-09-02T01:00:00","ND","ND","ND","1,1","186,8","ND","74,6","ND","0"],
    [22696,"2016-09-02T02:00:00","ND","ND","ND","2,9","206,1","ND","77,5","ND","0"],
    [22697,"2016-09-02T03:00:00","37","ND","ND","2,3","192,5","ND","77,6","ND","0"],
    [22698,"2016-09-02T04:00:00","38","ND","ND","1,5","119","ND","79","ND","0"],
    [22699,"2016-09-02T05:00:00","64","ND","ND","1,3","69,3","ND","79,6","ND","0"],
    [22700,"2016-09-02T06:00:00","59","ND","ND","0,5","293,8","ND","80,2","ND","0"],
    [22701,"2016-09-02T07:00:00","101","ND","ND","2,1","130,9","ND","80,5","ND","0"],
    [22702,"2016-09-02T08:00:00","68","ND","ND","2,5","145,1","ND","71,9","ND","0"],
    [22703,"2016-09-02T09:00:00","71","ND","10,5","1,3","101,8","ND","65,2","ND","0"],
    [22704,"2016-09-02T10:00:00","71","ND","ND","3,4","218,6","ND","54,2","ND","0,25"],
    [22705,"2016-09-02T11:00:00","ND","ND","ND","1,5","218,6","ND","44,5","ND","0,25"],
    [22706,"2016-09-02T12:00:00","ND","ND","82,42","0,5","120,6","ND","39,3","ND","0"],
    [22707,"2016-09-02T13:00:00","59","19","110,83","3,5","60","ND","36,8","ND","0"],
    [22708,"2016-09-02T14:00:00","69","29","141,25","3,6","70,7","ND","32,9","ND","0"],
    [22709,"2016-09-02T15:00:00","46","20","103,22","4,8","64,1","ND","31,6","ND","0"],
    [22710,"2016-09-02T16:00:00","33","7","58,64","5,6","7,9","ND","35,1","ND","0"],
    [22711,"2016-09-02T17:00:00","44","9","45,19","4,5","17,8","ND","34,8","ND","0"],
    [22712,"2016-09-02T18:00:00","45","8","37,5","4,2","336,8","ND","37,4","ND","0"],
    [22713,"2016-09-02T19:00:00","53","12","27,06","2,7","315,1","ND","41,1","ND","0"],
    [22714,"2016-09-02T20:00:00","99","39","9,62","3,7","78,7","ND","51,5","ND","0"],
    [22715,"2016-09-02T21:00:00","53","14","7,56","2,4","92","ND","59,9","ND","0"],
    [22716,"2016-09-02T22:00:00","46","17","6,75","2,4","102","ND","63,8","ND","0"],
    [22717,"2016-09-02T23:00:00","39","12","6,91","2,1","118,3","ND","65,2","ND","0"],
    [22718,"2016-09-03T00:00:00","33","9","6,32","1,5","104,7","ND","65,4","ND","0"],
    [22719,"2016-09-03T01:00:00","23","7","6,2","1,8","96,4","ND","67,2","ND","0"],
    [22720,"2016-09-03T02:00:00","30","8","9,75","1,8","101,7","ND","65,2","ND","0"],
    [22721,"2016-09-03T03:00:00","23","7","9,01","0,9","116,6","ND","68,1","ND","0"],
    [22722,"2016-09-03T04:00:00","41","12","6,99","1,5","190,5","ND","69,5","ND","0"],
    [22723,"2016-09-03T05:00:00","57","17","4,2","1,9","102,8","ND","70,7","ND","0"],
    [22724,"2016-09-03T06:00:00","78","27","4,59","2,5","107,8","ND","71,4","ND","0"],
    [22725,"2016-09-03T07:00:00","85","29","4,77","2,3","107,6","ND","74","ND","0"],
    [22726,"2016-09-03T08:00:00","79","31","10,79","2,7","155,5","ND","65,1","ND","0"],
    [22727,"2016-09-03T09:00:00","50","18","27,36","2,3","135,4","ND","55,6","ND","0"],
    [22728,"2016-09-03T10:00:00","51","22","52,45","1,5","172,9","ND","49,3","ND","0"],
    [22729,"2016-09-03T11:00:00","44","19","78,91","1,8","53,3","ND","41,9","ND","0"],
    [22730,"2016-09-03T12:00:00","44","14","88,86","3,2","90,5","ND","38,7","ND","0"],
    [22731,"2016-09-03T13:00:00","36","13","95,84","2,9","27,1","ND","35,4","ND","0"],
    [22732,"2016-09-03T14:00:00","43","15","93,08","4","56,6","ND","30,2","ND","0"],
    [22733,"2016-09-03T15:00:00","47","20","115,37","4,1","40,2","ND","30,6","ND","0"],
    [22734,"2016-09-03T16:00:00","41","13","88,56","3,8","31,9","ND","33,2","ND","0"],
    [22735,"2016-09-03T17:00:00","39","13","74,79","7,2","302,4","ND","35,5","ND","0"],
    [22736,"2016-09-03T18:00:00","37","12","58,38","6,8","295,1","ND","39,6","ND","0"],
    [22737,"2016-09-03T19:00:00","41","10","27,71","4,8","308,6","ND","42,8","ND","0"],
    [22738,"2016-09-03T20:00:00","49","19","16,92","1,3","352,9","ND","49","ND","0"],
    [22739,"2016-09-03T21:00:00","48","12","11,28","3,8","100,8","ND","56,1","ND","0"],
    [22740,"2016-09-03T22:00:00","37","6","12,58","2,2","57,3","ND","59,8","ND","0"],
    [22741,"2016-09-03T23:00:00","35","9","10,77","3,3","72,8","ND","60,7","ND","0"],
    [22742,"2016-09-04T00:00:00","37","6","6,02","1,7","87,1","ND","64,1","ND","0"],
    [22743,"2016-09-04T01:00:00","33","10","5,65","2,1","145,2","ND","66,7","ND","0"],
    [22744,"2016-09-04T02:00:00","33","6","6,32","1,8","99","ND","69,4","ND","0"],
    [22745,"2016-09-04T03:00:00","35","8","10,69","1,4","54","ND","65,2","ND","0"],
    [22746,"2016-09-04T04:00:00","38","5","8,14","1,4","126,8","ND","67,6","ND","0"],
    [22747,"2016-09-04T05:00:00","46","8","4,18","2,4","131,1","ND","71,6","ND","0"],
    [22748,"2016-09-04T06:00:00","55","8","4,24","1","239,8","ND","71,6","ND","0"],
    [22749,"2016-09-04T07:00:00","58","20","5,42","1,2","169,4","ND","68","ND","0"],
    [22750,"2016-09-04T08:00:00","89","23","6,24","4","109","ND","71,5","ND","0"],
    [22751,"2016-09-04T09:00:00","61","17","16,76","0,9","211,7","ND","64,3","ND","0"],
    [22752,"2016-09-04T10:00:00","59","16","33,07","0,9","167,2","ND","56,6","ND","0"],
    [22753,"2016-09-04T11:00:00","66","18","64,44","1,6","206,9","ND","46,5","ND","0"],
    [22754,"2016-09-04T12:00:00","48","20","74,9","3","160","ND","43,9","ND","0"],
    [22755,"2016-09-04T13:00:00","44","24","98,16","1,3","196,8","ND","38,1","ND","0"],
    [22756,"2016-09-04T14:00:00","94","20","96,2","1,9","56,2","ND","36,2","ND","0"],
    [22757,"2016-09-04T15:00:00","51","21","109,7","3","23,1","ND","38","ND","0"],
    [22758,"2016-09-04T16:00:00","78","2","75,88","5,1","280","ND","36,5","ND","0"],
    [22759,"2016-09-04T17:00:00","ND","ND","50,86","5","251,1","ND","56,4","ND","9,4"],
    [22760,"2016-09-04T18:00:00","30","12","26,67","5,3","39,6","ND","75,7","ND","3,05"],
    [22761,"2016-09-04T19:00:00","20","12","20,31","4,9","72,7","ND","76,7","ND","0"],
    [22762,"2016-09-04T20:00:00","28","15","21,8","2,3","324,8","ND","74,4","ND","0"],
    [22763,"2016-09-04T21:00:00","34","15","ND","1","300,1","ND","72,1","ND","0"],
    [22764,"2016-09-04T22:00:00","39","ND","ND","4","135","ND","78,7","ND","0"],
    [22765,"2016-09-04T23:00:00","51","ND","ND","2,1","142,2","ND","82,5","ND","0"],
    [22766,"2016-09-05T00:00:00","39","ND","ND","0,8","272,9","ND","83,1","ND","0"],
    [22767,"2016-09-05T01:00:00","28","ND","ND","1,8","204,1","ND","82,6","ND","0"],
    [22768,"2016-09-05T02:00:00","35","ND","ND","2,3","129,1","ND","81,8","ND","0"],
    [22769,"2016-09-05T03:00:00","31","7","5,69","1,2","213,8","ND","77,7","ND","0"],
    [22770,"2016-09-05T04:00:00","41","7","ND","2,6","89,5","ND","79,3","ND","0"],
    [22771,"2016-09-05T05:00:00","57","ND","ND","1,5","75,6","ND","84,8","ND","0"],
    [22772,"2016-09-05T06:00:00","67","ND","ND","0,2","31","ND","86,2","ND","0"],
    [22773,"2016-09-05T07:00:00","74","ND","ND","1,7","178,4","ND","85,2","ND","0"],
    [22774,"2016-09-05T08:00:00","77","27","7,93","2","123","ND","75,7","ND","0"],
    [22775,"2016-09-05T09:00:00","66","27","ND","2,5","74,8","ND","65,9","ND","0"],
    [22776,"2016-09-05T10:00:00","64","ND","ND","1,2","30,6","ND","64","ND","0"],
    [22777,"2016-09-05T11:00:00","66","ND","ND","3,1","78,4","ND","55,1","ND","0"],
    [22778,"2016-09-05T12:00:00","32","ND","ND","2,8","29,8","ND","46,4","ND","0"],
    [22779,"2016-09-05T13:00:00","37","ND","ND","3,9","49,8","ND","42,1","ND","0"],
    [22780,"2016-09-05T14:00:00","37","ND","ND","4,3","93,4","ND","37,9","ND","0"],
    [22781,"2016-09-05T15:00:00","ND","ND","ND","3,9","75,6","ND","38,2","ND","0"],
    [22782,"2016-09-05T16:00:00","ND","ND","ND","4,4","60,2","ND","37,9","ND","0"],
    [22783,"2016-09-05T17:00:00","ND","ND","ND","4,3","36,6","ND","40,7","ND","0"],
    [22784,"2016-09-05T18:00:00","ND","ND","ND","4,6","321,9","ND","40,4","ND","0"],
    [22785,"2016-09-05T19:00:00","ND","ND","ND","6,5","289","ND","48,3","ND","0"],
    [22786,"2016-09-05T20:00:00","ND","ND","ND","2,4","353,9","ND","52,5","ND","0"],
    [22787,"2016-09-05T21:00:00","ND","ND","ND","3,6","102,7","ND","63","ND","0"],
    [22788,"2016-09-05T22:00:00","ND","ND","ND","3,3","80","ND","70,1","ND","0"],
    [22789,"2016-09-05T23:00:00","ND","ND","ND","1,4","82,9","ND","69,3","ND","0"],
    [22790,"2016-09-06T00:00:00","ND","ND","ND","1,7","168,5","ND","68,7","ND","0"],
    [22791,"2016-09-06T01:00:00","ND","ND","ND","3","101","ND","71,6","ND","0"],
    [22792,"2016-09-06T02:00:00","ND","ND","ND","1,7","294,8","ND","75,5","ND","0,25"],
    [22793,"2016-09-06T03:00:00","ND","ND","ND","1,5","97","ND","79,7","ND","0"],
    [22794,"2016-09-06T04:00:00","ND","ND","ND","0,2","45,8","ND","79,1","ND","0"],
    [22795,"2016-09-06T05:00:00","ND","ND","ND","0,5","310,6","ND","78,7","ND","0"],
    [22796,"2016-09-06T06:00:00","91","ND","ND","1,9","112,7","ND","79,6","ND","0"],
    [22797,"2016-09-06T07:00:00","89","ND","ND","1,9","114,7","ND","79,8","ND","0"],
    [22798,"2016-09-06T08:00:00","90","ND","ND","1,8","154,2","ND","76,5","ND","0"],
    [22799,"2016-09-06T09:00:00","90","ND","ND","2,1","170,4","ND","67,3","ND","0"],
    [22800,"2016-09-06T10:00:00","83","16","35,4","2,9","117,7","ND","55,2","ND","0"],
    [22801,"2016-09-06T11:00:00","73","18","ND","3,4","47,2","ND","49,6","ND","0"],
    [22802,"2016-09-06T12:00:00","72","29","ND","3,5","60,7","ND","43,5","ND","0"],
    [22803,"2016-09-06T13:00:00","ND","14","ND","3,7","56,8","ND","39,6","ND","0"],
    [22804,"2016-09-06T14:00:00","ND","10","ND","4,6","57,3","ND","40,5","ND","0"],
    [22805,"2016-09-06T15:00:00","ND","31","ND","3,5","94,4","ND","40,7","ND","0"],
    [22806,"2016-09-06T16:00:00","ND","8","ND","3,4","275,9","ND","37,4","ND","0"],
    [22807,"2016-09-06T17:00:00","ND","6","ND","7,6","291,3","ND","40,5","ND","0"],
    [22808,"2016-09-06T18:00:00","ND","6","ND","7,7","250,4","ND","49,9","ND","0"],
    [22809,"2016-09-06T19:00:00","ND","19","ND","6,6","212,6","ND","66,3","ND","0,51"],
    [22810,"2016-09-06T20:00:00","ND","14","ND","3,8","211,2","ND","77,6","ND","1,27"],
    [22811,"2016-09-06T21:00:00","ND","12","ND","1,5","214,3","ND","81,2","ND","19,05"],
    [22812,"2016-09-06T22:00:00","ND","21","ND","2,6","123,4","ND","79,4","ND","0"],
    [22813,"2016-09-06T23:00:00","ND","16","ND","2,2","260,5","ND","78,4","ND","0"],
    [22814,"2016-09-07T00:00:00","ND","15","ND","2","214","ND","79,3","ND","0"],
    [22815,"2016-09-07T01:00:00","ND","8","ND","2,2","170,3","ND","80,3","ND","0"],
    [22816,"2016-09-07T02:00:00","ND","8","ND","2","166,9","ND","80,7","ND","0"],
    [22817,"2016-09-07T03:00:00","ND","7","ND","1,7","188,7","ND","81,6","ND","0"],
    [22818,"2016-09-07T04:00:00","ND","15","ND","1,5","123,8","ND","81,5","ND","0"],
    [22819,"2016-09-07T05:00:00","ND","13","ND","1,2","247,7","ND","81,4","ND","0"],
    [22820,"2016-09-07T06:00:00","ND","37","ND","1,8","98,3","ND","81,6","ND","0"],
    [22821,"2016-09-07T07:00:00","ND","34","ND","0,3","136,7","ND","82","ND","0"],
    [22822,"2016-09-07T08:00:00","ND","45","ND","2,8","70","ND","79,4","ND","0"],
    [22823,"2016-09-07T09:00:00","ND","41","ND","1,8","74,5","ND","75,6","ND","0"],
    [22824,"2016-09-07T10:00:00","ND","37","ND","2,6","42,6","ND","69,7","ND","0"],
    [22825,"2016-09-07T11:00:00","ND","30","ND","2,2","10,8","ND","59,8","ND","0"],
    [22826,"2016-09-07T12:00:00","ND","13","ND","3,3","40,9","ND","53,1","ND","0"],
    [22827,"2016-09-07T13:00:00","ND","13","ND","3,7","27,3","ND","52,5","ND","0"],
    [22828,"2016-09-07T14:00:00","ND","16","ND","4,3","32,2","ND","52,6","ND","0"],
    [22829,"2016-09-07T15:00:00","ND","12","69,78","4,5","17,8","ND","46,2","ND","0"],
    [22830,"2016-09-07T16:00:00","ND","17","63,74","5,3","43,3","ND","44","ND","0"],
    [22831,"2016-09-07T17:00:00","ND","19","63,23","5,3","66,1","ND","45,5","ND","0"],
    [22832,"2016-09-07T18:00:00","ND","20","40,41","4,5","78,5","ND","46,4","ND","0"],
    [22833,"2016-09-07T19:00:00","ND","21","20,74","3,4","57,6","ND","52,4","ND","0"],
    [22834,"2016-09-07T20:00:00","ND","25","11,34","2","71,6","ND","60,2","ND","0"],
    [22835,"2016-09-07T21:00:00","48","19","11,19","0,3","255,4","ND","58,9","ND","0"],
    [22836,"2016-09-07T22:00:00","ND","18","10,01","2,1","91,4","ND","67,4","ND","0"],
    [22837,"2016-09-07T23:00:00","42","15","10,38","0,9","50,1","ND","65,9","ND","0"],
    [22838,"2016-09-08T00:00:00","51","16","7,54","1,6","92,1","ND","68,1","ND","0"],
    [22839,"2016-09-08T01:00:00","52","16","7,81","0,4","95,8","ND","72","ND","0"],
    [22840,"2016-09-08T02:00:00","61","19","8,26","1,5","53,7","ND","71,6","ND","0"],
    [22841,"2016-09-08T03:00:00","60","29","8,69","2","87,8","ND","72,1","ND","0"],
    [22842,"2016-09-08T04:00:00","68","28","5,28","1,2","157,3","ND","74,1","ND","0"],
    [22843,"2016-09-08T05:00:00","64","22","4,85","2,7","108,2","ND","76,5","ND","0"],
    [22844,"2016-09-08T06:00:00","94","35","5,28","1,7","102,7","ND","75,3","ND","0"],
    [22845,"2016-09-08T07:00:00","68","24","5,4","0,7","82,3","ND","72,2","ND","0"],
    [22846,"2016-09-08T08:00:00","75","30","7,24","2,5","132,2","ND","69,1","ND","0"],
    [22847,"2016-09-08T09:00:00","62","25","16,31","2,1","160,9","ND","64,3","ND","0"],
    [22848,"2016-09-08T10:00:00","78","24","30,38","2,5","160,5","ND","59,4","ND","0"],
    [22849,"2016-09-08T11:00:00","66","27","63,88","1,3","77,9","ND","48,7","ND","0"],
    [22850,"2016-09-08T12:00:00","50","18","95,1","2","120,9","ND","43,1","ND","0"],
    [22851,"2016-09-08T13:00:00","69","25","117,62","2","145,8","ND","39,1","ND","0"],
    [22852,"2016-09-08T14:00:00","79","25","132,05","2,8","51,7","ND","36,1","ND","0"],
    [22853,"2016-09-08T15:00:00","74","26","123,79","3,8","62,8","ND","36,3","ND","0"],
    [22854,"2016-09-08T16:00:00","54","15","100,73","3,8","61,3","ND","34,1","ND","0"],
    [22855,"2016-09-08T17:00:00","44","10","87,21","4,5","315,3","ND","36,3","ND","0"],
    [22856,"2016-09-08T18:00:00","44","15","59,79","6,3","302","ND","42,3","ND","0"],
    [22857,"2016-09-08T19:00:00","46","4","39,68","5,9","297,3","ND","46","ND","0"],
    [22858,"2016-09-08T20:00:00","52","13","22,21","2","342,6","ND","46,9","ND","0"],
    [22859,"2016-09-08T21:00:00","52","17","11,56","3,8","88,9","ND","61,7","ND","0"],
    [22860,"2016-09-08T22:00:00","47","9","11,21","3,6","82,8","ND","63,2","ND","0"],
    [22861,"2016-09-08T23:00:00","53","11","10,62","2,5","87","ND","64","ND","0"],
    [22862,"2016-09-09T00:00:00","42","13","6,61","2,5","143,9","ND","66","ND","0"],
    [22863,"2016-09-09T01:00:00","48","16","7,14","2,4","128","ND","69,3","ND","0"],
    [22864,"2016-09-09T02:00:00","35","10","10,24","1,6","177,7","ND","66,8","ND","0"],
    [22865,"2016-09-09T03:00:00","39","8","8,6","1,1","129,8","ND","67,1","ND","0"],
    [22866,"2016-09-09T04:00:00","63","16","7,46","2,3","156,3","ND","68","ND","0,25"],
    [22867,"2016-09-09T05:00:00","42","13","12,17","1,9","278,9","ND","75,7","ND","0"],
    [22868,"2016-09-09T06:00:00","44","20","5,22","1,5","174,1","ND","76,6","ND","0"],
    [22869,"2016-09-09T07:00:00","52","20","5,36","0,9","315,8","ND","76,8","ND","2,79"],
    [22870,"2016-09-09T08:00:00","37","19","11,03","2","276,9","25,6","75,5","103,7","0,25"],
    [22871,"2016-09-09T09:00:00","45","29","29,28","1,4","169,1","27,8","65,7","219,9","0"],
    [22872,"2016-09-09T10:00:00","32","9","59,32","2,6","186,4","29,8","55,3","324,9","0"],
    [22873,"2016-09-09T11:00:00","24","13","78,51","1,5","202,9","31,4","48,5","410,2","0"],
    [22874,"2016-09-09T12:00:00","29","14","96,2","2,3","357,3","33,2","41,6","427","0"],
    [22875,"2016-09-09T13:00:00","43","18","100,71","2,9","37,4","34,1","39,5","422,7","0"],
    [22876,"2016-09-09T14:00:00","23","11","86,54","2,9","105,7","35,2","34,5","406,6","0"],
    [22877,"2016-09-09T15:00:00","27","12","85,91","3","54,4","36,3","30,4","365","0"],
    [22878,"2016-09-09T16:00:00","44","19","107,87","3,1","26,8","35,6","32,4","182,7","0"],
    [22879,"2016-09-09T17:00:00","53","15","99,53","2,8","11,2","35,7","33,2","139","0"],
    [22880,"2016-09-09T18:00:00","ND","2","40,56","5,8","299,3","32","40,9","6,1","0"],
    [22881,"2016-09-09T19:00:00","30","9","26,34","5,3","306,1","30,7","44,6","0","0"],
    [22882,"2016-09-09T20:00:00","44","9","ND","1,3","50","29,4","52,6","0","0"],
    [22883,"2016-09-09T21:00:00","87","ND","ND","2,8","57,9","27,5","60,4","0","0"],
    [22884,"2016-09-09T22:00:00","84","ND","ND","4,2","58,6","26,8","62,8","0","0"],
    [22885,"2016-09-09T23:00:00","ND","ND","ND","3,5","79","25,9","66,7","0","0"],
    [22886,"2016-09-10T00:00:00","ND","ND","ND","1,1","185,5","25,4","69,5","0","0"],
    [22887,"2016-09-10T01:00:00","ND","ND","ND","1,7","140,8","24,9","72,5","0","0"],
    [22888,"2016-09-10T02:00:00","ND","ND","ND","3,8","93","24,4","73,9","0","0"],
    [22889,"2016-09-10T03:00:00","ND","ND","ND","1,1","47,4","24,4","72,4","0","0"],
    [22890,"2016-09-10T04:00:00","ND","ND","ND","2,2","70,3","24,5","70,7","0","0"],
    [22891,"2016-09-10T05:00:00","ND","ND","ND","2,6","83,1","24,2","74,2","0","0,76"],
    [22892,"2016-09-10T06:00:00","ND","ND","ND","1,9","102,6","23,6","78,8","0","0"],
    [22893,"2016-09-10T07:00:00","ND","ND","ND","1,9","93","23,5","79,3","0","0"],
    [22894,"2016-09-10T08:00:00","ND","ND","ND","2,1","54,2","23,9","77,4","32,4","0"],
    [22895,"2016-09-10T09:00:00","ND","ND","ND","2,8","45,2","25,2","72,4","143,8","0"],
    [22896,"2016-09-10T10:00:00","ND","ND","ND","2,2","110,3","27,8","60,5","190,3","0"],
    [22897,"2016-09-10T11:00:00","ND","ND","ND","3,2","121,3","29,8","53,3","316,8","0"],
    [22898,"2016-09-10T12:00:00","ND","ND","ND","1,8","135","32","44,4","436,7","0"],
    [22899,"2016-09-10T13:00:00","ND","ND","ND","1,2","145","33,9","39,4","446,3","0"],
    [22900,"2016-09-10T14:00:00","ND","ND","ND","2,8","158,2","34,8","37,1","305,1","0"],
    [22901,"2016-09-10T15:00:00","ND","ND","ND","3,2","121","34,5","37,7","181,5","0"],
    [22902,"2016-09-10T16:00:00","ND","ND","ND","1,9","352,6","30,6","50,2","27,6","0,25"],
    [22903,"2016-09-10T17:00:00","ND","ND","ND","6","298,4","27,3","56,5","63,3","0"],
    [22904,"2016-09-10T18:00:00","ND","ND","ND","3,7","302,2","28,2","50","13,6","0"],
    [22905,"2016-09-10T19:00:00","ND","ND","ND","2,8","353,6","27,5","55,9","0","0"],
    [22906,"2016-09-10T20:00:00","ND","ND","ND","3,7","87,7","26,6","62,9","0","0"],
    [22907,"2016-09-10T21:00:00","ND","ND","ND","2,5","83,5","26","64,9","0","0"],
    [22908,"2016-09-10T22:00:00","ND","ND","ND","2,3","59","25,6","65","0","0"],
    [22909,"2016-09-10T23:00:00","ND","ND","ND","3","86","25,5","65,8","0","0"],
    [22910,"2016-09-11T00:00:00","ND","ND","ND","3,1","73,2","24,6","70,7","0","0"],
    [22911,"2016-09-11T01:00:00","ND","ND","ND","2,3","5,1","24,5","71,3","0","0"],
    [22912,"2016-09-11T02:00:00","ND","ND","ND","2,8","30,8","24,5","70,9","0","0"],
    [22913,"2016-09-11T03:00:00","ND","ND","ND","2,3","69,6","23,9","73,3","0","0"],
    [22914,"2016-09-11T04:00:00","ND","ND","ND","1,7","6,9","23,5","75,5","0","0"],
    [22915,"2016-09-11T05:00:00","ND","ND","ND","1,9","69,1","23,4","76,7","0","0"],
    [22916,"2016-09-11T06:00:00","ND","ND","ND","2","87,4","23,3","77,6","0","0"],
    [22917,"2016-09-11T07:00:00","ND","ND","ND","2,3","15,5","23,5","76,5","7,2","0"],
    [22918,"2016-09-11T08:00:00","ND","ND","ND","1,3","316","25,2","70,9","99,9","0"],
    [22919,"2016-09-11T09:00:00","ND","ND","ND","3,1","115,7","27,5","61,5","152,6","0"],
    [22920,"2016-09-11T10:00:00","ND","ND","ND","2,4","111,8","28,7","57,2","231,5","0"],
    [22921,"2016-09-11T11:00:00","ND","ND","ND","2,5","82,7","31","48,2","301","0"],
    [22922,"2016-09-11T12:00:00","ND","ND","ND","2,8","79,2","31,9","44,7","282,3","0"],
    [22923,"2016-09-11T13:00:00","ND","ND","ND","3,6","70,6","32,2","43,1","273,5","0"],
    [22924,"2016-09-11T14:00:00","ND","ND","ND","4,3","37,2","33,3","39,8","355,2","0"],
    [22925,"2016-09-11T15:00:00","ND","ND","ND","5","31,8","33,3","37,5","303,3","0"],
    [22926,"2016-09-11T16:00:00","ND","ND","ND","3,7","25,6","32,8","36,8","136,5","0"],
    [22927,"2016-09-11T17:00:00","ND","ND","ND","7,1","216,2","27,9","51,7","14,4","0"],
    [22928,"2016-09-11T18:00:00","ND","ND","ND","2,3","131,6","24,6","70,6","0","3,3"],
    [22929,"2016-09-11T19:00:00","ND","ND","ND","4,5","87,9","22,9","83,5","0","3,05"],
    [22930,"2016-09-11T20:00:00","ND","ND","ND","1,7","28,9","22,3","83,7","0","0"],
    [22931,"2016-09-11T21:00:00","ND","ND","ND","0,6","339,2","22,5","82,1","0","0"],
    [22932,"2016-09-11T22:00:00","ND","ND","ND","2,1","148,4","22,8","81,5","0","0"],
    [22933,"2016-09-11T23:00:00","ND","ND","ND","2,8","192,4","22,5","81,5","0","0"],
    [22934,"2016-09-12T00:00:00","ND","ND","ND","2,8","194,4","22","84","0","0"],
    [22935,"2016-09-12T01:00:00","ND","ND","ND","2","164,4","21,7","86,1","0","0"],
    [22936,"2016-09-12T02:00:00","ND","ND","ND","2,1","162,9","21,6","86,4","0","0"],
    [22937,"2016-09-12T03:00:00","ND","ND","ND","1,9","147,7","21,6","86,2","0","0"],
    [22938,"2016-09-12T04:00:00","ND","ND","ND","2","79,3","21,4","86","0","0"],
    [22939,"2016-09-12T05:00:00","ND","ND","ND","1,3","172,4","21","86,5","0","0"],
    [22940,"2016-09-12T06:00:00","ND","ND","ND","1,9","186,5","20,8","87,4","0","0"],
    [22941,"2016-09-12T07:00:00","ND","ND","ND","2,2","146,5","21,1","87,9","20","0"],
    [22942,"2016-09-12T08:00:00","ND","ND","ND","0,9","79,2","22,1","85,2","94,1","0"],
    [22943,"2016-09-12T09:00:00","ND","ND","ND","2,3","44,5","25,3","69,5","184,5","0"],
    [22944,"2016-09-12T10:00:00","ND","ND","ND","1,3","15,9","25,7","65,1","121,8","0"],
    [22945,"2016-09-12T11:00:00","ND","ND","ND","ND","ND","ND","ND","ND","ND"],
    [22946,"2016-09-12T12:00:00","ND","ND","ND","ND","ND","ND","ND","ND","ND"],
    [22947,"2016-09-12T13:00:00","ND","ND","ND","ND","ND","ND","ND","ND","ND"],
    [22948,"2016-09-12T14:00:00","ND","ND","ND","ND","ND","ND","ND","ND","ND"],
    [22949,"2016-09-12T15:00:00","ND","ND","ND","ND","ND","ND","ND","ND","ND"],
    [22950,"2016-09-12T16:00:00","ND","ND","ND","5","37,4","32,9","39,4","204,4","0"],
    [22951,"2016-09-12T17:00:00","ND","ND","35,26","3,2","26,8","31,7","42,5","50,5","0"],
    [22952,"2016-09-12T18:00:00","36","3","29,85","3,2","319,3","30,8","43,7","16,7","0"],
    [22953,"2016-09-12T19:00:00","32","3","28,18","5,1","295,2","29,2","47,2","0","0"],
    [22954,"2016-09-12T20:00:00","56","10","12,26","2,1","13,4","28,7","48,5","0","0"],
    [22955,"2016-09-12T21:00:00","52","13","10,77","2,9","66,6","27,6","53,5","0","0"],
    [22956,"2016-09-12T22:00:00","33","12","10,95","4","84,4","26,3","60,4","0","0"],
    [22957,"2016-09-12T23:00:00","32","6","12,95","2,6","71,1","25,9","60,5","0","0"],
    [22958,"2016-09-13T00:00:00","29","1","16,01","0,4","119,2","25,7","61,2","0","0"],
    [22959,"2016-09-13T01:00:00","19","3","14,99","1,7","159,4","25,4","64,2","0","0"],
    [22960,"2016-09-13T02:00:00","20","1","15,27","1,6","145,6","25,2","64,8","0","0"],
    [22961,"2016-09-13T03:00:00","30","1","13,72","1,4","191,7","25","66,8","0","0"],
    [22962,"2016-09-13T04:00:00","32","4","11,64","1,3","98,5","25,3","66,7","0","0"],
    [22963,"2016-09-13T05:00:00","48","10","8,05","1,7","77,5","25,1","67,7","0","0"],
    [22964,"2016-09-13T06:00:00","54","12","5,87","1,1","352,1","25","68,2","0","0"],
    [22965,"2016-09-13T07:00:00","114","29","4,61","2,1","73,9","25,3","68,9","11","0"],
    [22966,"2016-09-13T08:00:00","144","33","5,85","2,8","76,5","25,7","69,3","57,7","0"],
    [22967,"2016-09-13T09:00:00","83","27","15,11","1,5","123,3","27,3","61,6","129,6","0"],
    [22968,"2016-09-13T10:00:00","66","14","32,77","0,7","146,5","28,8","54,8","186,3","0"],
    [22969,"2016-09-13T11:00:00","67","21","47,53","2","88,2","29,8","50,9","230,7","0"],
    [22970,"2016-09-13T12:00:00","56","23","61,21","2,9","138,4","30,3","49,2","243,6","0"],
    [22971,"2016-09-13T13:00:00","44","10","72,55","3,2","65,1","32,4","40,8","389,6","0"],
    [22972,"2016-09-13T14:00:00","36","9","73,65","2,9","54,7","32,9","39,3","256,2","0"],
    [22973,"2016-09-13T15:00:00","32","6","52,55","3,3","21,1","32,6","38,5","123,8","0"],
    [22974,"2016-09-13T16:00:00","29","3","41,84","4,1","14,5","32,2","38,4","76,6","0"],
    [22975,"2016-09-13T17:00:00","34","1","40,25","5,1","306,7","32,7","36,8","147","0"],
    [22976,"2016-09-13T18:00:00","30","2","31,04","4,8","260,4","30,3","42,9","12,3","0"],
    [22977,"2016-09-13T19:00:00","37","14","20,78","4,1","171,9","27,1","58,1","0","0"],
    [22978,"2016-09-13T20:00:00","23","9","21,04","4,8","182,4","24,7","71,3","0","1,27"],
    [22979,"2016-09-13T21:00:00","23","15","15,31","3,6","126,4","23","81,7","0","34,04"],
    [22980,"2016-09-13T22:00:00","13","9","16,72","0,7","105,4","22,5","83","0","6,1"],
    [22981,"2016-09-13T23:00:00","11","8","10,46","2,1","90,3","22,8","82,1","0","0,25"],
    [22982,"2016-09-14T00:00:00","13","5","13,66","3,4","88,5","22,7","82","0","1,78"],
    [22983,"2016-09-14T01:00:00","5","ND","19,47","1,4","75,9","22,6","82","0","5,59"],
    [22984,"2016-09-14T02:00:00","1","1","19,9","0,7","127,8","22,8","81,7","0","4,83"],
    [22985,"2016-09-14T03:00:00","10","6","16,86","2","195","22,9","82,1","0","0"],
    [22986,"2016-09-14T04:00:00","13","4","15,9","1","223,8","22,9","80,6","0","0"],
    [22987,"2016-09-14T05:00:00","19","8","10,2","0,8","85,3","23,2","80,4","0","0"],
    [22988,"2016-09-14T06:00:00","48","21","5,34","2,4","95,1","23,1","81,4","0","0"],
    [22989,"2016-09-14T07:00:00","47","21","4,83","1,4","130,7","23,3","80,6","10,7","0"],
    [22990,"2016-09-14T08:00:00","44","17","8,32","1,4","155,7","24,4","76,4","78","0"],
    [22991,"2016-09-14T09:00:00","24","11","17,19","2,1","178,3","26,2","68,3","204,8","0"],
    [22992,"2016-09-14T10:00:00","21","7","25,1","2,3","160,1","27,7","61","272,5","0"],
    [22993,"2016-09-14T11:00:00","12","3","24,47","2,8","163,3","28,6","59","327,7","0"],
    [22994,"2016-09-14T12:00:00","10","3","35,75","3","146,4","29,8","53,1","424,6","0"],
    [22995,"2016-09-14T13:00:00","16","3","48,14","1,7","165,5","31,3","47,8","492,9","0"],
    [22996,"2016-09-14T14:00:00","34","16","52,36","5,3","100,4","31,7","46,2","343,2","0"],
    [22997,"2016-09-14T15:00:00","48","20","53,2","5,5","78,5","29,9","54,3","211,6","0"],
    [22998,"2016-09-14T16:00:00","38","20","73,69","2,6","337,6","30,3","49,4","122","0"],
    [22999,"2016-09-14T17:00:00","49","17","45,19","1,8","20,5","29,9","46,7","46,2","0"],
    [23000,"2016-09-14T18:00:00","82","29","30,46","3,3","94","28,5","61,2","9,3","0"],
    [23001,"2016-09-14T19:00:00","35","7","22,31","3,4","168","26,9","56,2","0","0"],
    [23002,"2016-09-14T20:00:00","30","6","18,98","1,8","176,9","25,9","61,2","0","0"],
    [23003,"2016-09-14T21:00:00","50","16","9,71","2,4","105,5","25,6","63,9","0","0"],
    [23004,"2016-09-14T22:00:00","69","21","7,59","3","91,4","25,1","67,6","0","0"],
    [23005,"2016-09-14T23:00:00","68","9","8,81","1,9","0,9","24,7","70,7","0","0,51"],
    [23006,"2016-09-15T00:00:00","53","11","6,53","2,6","353,2","24,3","74","0","0,51"],
    [23007,"2016-09-15T01:00:00","35","8","9,09","3","348,3","24","74,8","0","0,25"],
    [23008,"2016-09-15T02:00:00","19","7","14,89","2,7","15,3","23,7","75,6","0","0"],
    [23009,"2016-09-15T03:00:00","21","7","14,78","2,3","36,2","23,4","77","0","0"],
    [23010,"2016-09-15T04:00:00","14","4","22,69","2,3","94,8","22,9","75,8","0","0"],
    [23011,"2016-09-15T05:00:00","12","3","15,8","1,5","140,9","22,7","75,5","0","0"],
    [23012,"2016-09-15T06:00:00","48","17","9,67","1,6","45,3","22,9","74,6","0","0"],
    [23013,"2016-09-15T07:00:00","46","8","8,36","3","14,1","22,8","76,4","6,4","0"],
    [23014,"2016-09-15T08:00:00","56","20","9,44","1,9","34,4","24,3","72,4","89,4","0"],
    [23015,"2016-09-15T09:00:00","15","4","32,42","4,4","3,9","25,9","62","209,1","0"],
    [23016,"2016-09-15T10:00:00","30","13","40,56","2,9","21,6","27,2","57,7","189,1","0"],
    [23017,"2016-09-15T11:00:00","37","19","60,46","2,1","347,4","28,5","53,5","289,8","0"],
    [23018,"2016-09-15T12:00:00","50","20","73,04","2,8","80,4","30,4","45,8","362","0"],
    [23019,"2016-09-15T13:00:00","39","16","66,98","4,9","88,3","30,5","47,2","315,1","0"],
    [23020,"2016-09-15T14:00:00","32","16","80,69","2,3","57,8","31,8","43,9","310,9","0"],
    [23021,"2016-09-15T15:00:00","38","15","88,97","3,7","63,1","32,1","43,6","310,7","0"],
    [23022,"2016-09-15T16:00:00","48","26","91,05","3,7","66,2","32,2","43,2","166,7","0"],
    [23023,"2016-09-15T17:00:00","65","27","71,1","4,4","78,3","31,5","45,1","66,6","0"],
    [23024,"2016-09-15T18:00:00","57","25","58,95","2","141,8","30,8","48,1","10,7","0"],
    [23025,"2016-09-15T19:00:00","64","27","64,31","1,7","218,9","29,9","50,6","0","0"],
    [23026,"2016-09-15T20:00:00","33","5","21,55","4","279,5","29,2","49,5","0","0"],
    [23027,"2016-09-15T21:00:00","36","11","11,38","0,3","133,4","28","55,9","0","0"],
    [23028,"2016-09-15T22:00:00","62","23","8,34","1,8","53,3","26,8","61,9","0","0"],
    [23029,"2016-09-15T23:00:00","34","12","5,69","1,4","147,6","26,2","66,1","0","0"],
    [23030,"2016-09-16T00:00:00","67","26","18,33","2,7","202,9","25,8","68,8","0","0"],
    [23031,"2016-09-16T01:00:00","53","26","23,47","2,9","164,5","25,5","70,5","0","0"],
    [23032,"2016-09-16T02:00:00","76","18","13,32","2,3","170,8","24,5","74,6","0","0"],
    [23033,"2016-09-16T03:00:00","58","17","12,21","1,4","177,3","24,2","73,6","0","0"],
    [23034,"2016-09-16T04:00:00","79","13","7,89","2,5","187","23,7","75,8","0","0"],
    [23035,"2016-09-16T05:00:00","68","10","6,24","1,9","166,7","23,2","77","0","0"],
    [23036,"2016-09-16T06:00:00","83","28","4,45","1,4","145,6","22,8","77,8","0","0"],
    [23037,"2016-09-16T07:00:00","99","30","4,81","3,3","74,2","22,4","77,6","23,2","0"],
    [23038,"2016-09-16T08:00:00","89","32","6,89","2,5","88,5","24,5","70,3","126,1","0"],
    [23039,"2016-09-16T09:00:00","66","22","17,86","2,5","110,5","26,8","63,1","230,3","0"],
    [23040,"2016-09-16T10:00:00","47","20","43,58","2,4","136,4","28,7","54,6","332,2","0"],
    [23041,"2016-09-16T11:00:00","37","10","67,56","1,1","103","31","48,3","402,8","0"],
    [23042,"2016-09-16T12:00:00","50","20","87,46","2","49,2","32,2","43,7","462,9","0"],
    [23043,"2016-09-16T13:00:00","40","22","91,21","3","55,1","33,6","37,9","454,7","0"],
    [23044,"2016-09-16T14:00:00","45","22","101,55","3,3","78,6","34,6","32,6","416,5","0"],
    [23045,"2016-09-16T15:00:00","39","17","99,98","3,6","78,9","35,5","30,7","342","0"],
    [23046,"2016-09-16T16:00:00","36","16","86,5","4,4","74,8","35,7","28,5","236,7","0"],
    [23047,"2016-09-16T17:00:00","45","10","61,8","4,3","60,5","35,8","27,2","132,8","0"],
    [23048,"2016-09-16T18:00:00","44","13","51,47","3,9","341,5","33,9","36,6","21,1","0"],
    [23049,"2016-09-16T19:00:00","57","14","44,07","5,6","291,8","31,3","46,3","0","0"],
    [23050,"2016-09-16T20:00:00","41","10","37,66","3,7","301,1","30,4","48,2","0","0"],
    [23051,"2016-09-16T21:00:00","61","14","10,15","3","90,6","28,4","58,2","0","0"],
    [23052,"2016-09-16T22:00:00","46","18","9,28","2,6","102,6","27","64,2","0","0"],
    [23053,"2016-09-16T23:00:00","30","9","12,21","1,9","45,5","26,7","64,9","0","0"],
    [23054,"2016-09-17T00:00:00","38","8","9,85","0,8","323,9","26,6","65,4","0","0"],
    [23055,"2016-09-17T01:00:00","48","11","8,61","1,7","144,9","26,2","66,9","0","0"],
    [23056,"2016-09-17T02:00:00","34","15","8,46","0,5","90,6","25,4","70,4","0","0"],
    [23057,"2016-09-17T03:00:00","48","13","6,99","1,8","225,9","25,6","70,2","0","0"],
    [23058,"2016-09-17T04:00:00","71","28","6,75","2,3","173,6","24,8","72,8","0","0"],
    [23059,"2016-09-17T05:00:00","75","22","6,63","1,6","166,5","24,4","72,7","0","0"],
    [23060,"2016-09-17T06:00:00","68","28","5,3","1,3","179,2","24,7","71,5","0","0"],
    [23061,"2016-09-17T07:00:00","80","30","6,32","1,4","152,8","25,2","69,4","25,7","0"],
    [23062,"2016-09-17T08:00:00","93","39","9,4","4,3","134","25,7","69,4","118","0"],
    [23063,"2016-09-17T09:00:00","48","14","29,3","2,7","179,3","27,8","59,5","231,5","0"],
    [23064,"2016-09-17T10:00:00","41","15","57,42","1,7","195,1","30,1","51,7","335,4","0"],
    [23065,"2016-09-17T11:00:00","39","15","86,42","1,2","332,9","32,1","44,2","412,6","0"],
    [23066,"2016-09-17T12:00:00","43","15","98,57","2,3","352,5","33,2","39,8","437,8","0"],
    [23067,"2016-09-17T13:00:00","37","18","94,84","2,3","8,1","35","33,6","459,1","0"],
    [23068,"2016-09-17T14:00:00","55","21","118,35","3,3","14,4","36,2","31,1","415","0"],
    [23069,"2016-09-17T15:00:00","62","10","89,03","7,8","310,5","35,5","34,6","315,1","0"],
    [23070,"2016-09-17T16:00:00","33","10","60,5","7,7","319,3","34,7","35,5","241,2","0"],
    [23071,"2016-09-17T17:00:00","20","9","47,23","6,4","317,8","33,6","36","87,8","0"],
    [23072,"2016-09-17T18:00:00","31","6","33,32","6,2","283,2","31,9","40,2","11,3","0"],
    [23073,"2016-09-17T19:00:00","52","18","38,72","3,7","214,9","30","47,1","0","0"],
    [23074,"2016-09-17T20:00:00","50","21","48,39","3,8","209,7","28","55,9","0","0"],
    [23075,"2016-09-17T21:00:00","56","19","37,54","2,8","209,6","27,5","57,4","0","0"],
    [23076,"2016-09-17T22:00:00","63","14","26,77","2,6","295,9","28,2","53,4","0","0"],
    [23077,"2016-09-17T23:00:00","78","38","15,66","3","51,3","27","60,6","0","0"],
    [23078,"2016-09-18T00:00:00","56","22","7,4","2","108","25,4","68,5","0","0"],
    [23079,"2016-09-18T01:00:00","61","24","6,57","2,5","166,9","25,3","69,2","0","0"],
    [23080,"2016-09-18T02:00:00","64","25","7,54","0,9","140","25,3","68,5","0","0"],
    [23081,"2016-09-18T03:00:00","41","17","14,34","1,9","222","25,8","65,1","0","0"],
    [23082,"2016-09-18T04:00:00","71","19","7,24","2","111,1","25,2","69,2","0","0"],
    [23083,"2016-09-18T05:00:00","66","21","8,03","2,9","189,2","24,7","72,8","0","0"],
    [23084,"2016-09-18T06:00:00","39","15","8,01","1,8","127,6","24,4","73,4","0","0"],
    [23085,"2016-09-18T07:00:00","40","15","7,12","3,2","178","24","76,9","4,5","1,52"],
    [23086,"2016-09-18T08:00:00","33","19","10,77","3,7","233,2","24,3","77,1","51,5","0"],
    [23087,"2016-09-18T09:00:00","28","17","25,29","2,6","225,8","26,8","67,5","215,5","0"],
    [23088,"2016-09-18T10:00:00","18","13","39,6","2,6","178,1","29,3","56,4","304,9","0"],
    [23089,"2016-09-18T11:00:00","21","9","60,44","1,5","253,2","30,2","51,6","221,6","0"],
    [23090,"2016-09-18T12:00:00","24","16","77,44","1","153,8","31,7","45,2","327,4","0"],
    [23091,"2016-09-18T13:00:00","26","10","79,65","2,4","92,8","33,3","39,9","353,6","0"],
    [23092,"2016-09-18T14:00:00","34","15","89,03","2,2","47,4","34,3","36,4","349","0"],
    [23093,"2016-09-18T15:00:00","49","23","95,31","4,8","46,5","33,6","38,8","176,7","0"],
    [23094,"2016-09-18T16:00:00","33","11","63,56","4","16","33,5","38,6","131,3","0"],
    [23095,"2016-09-18T17:00:00","24","7","50,32","3,8","307,4","32,7","38,9","76","0"],
    [23096,"2016-09-18T18:00:00","33","4","42,66","4,4","279,9","31,6","40,4","18,6","0"],
    [23097,"2016-09-18T19:00:00","45","17","35,01","2,1","195,1","30,1","44,6","0","0"],
    [23098,"2016-09-18T20:00:00","65","19","22,23","3,7","139,8","28,2","53,1","0","0"],
    [23099,"2016-09-18T21:00:00","59","17","27,94","3","227,3","26,6","60,4","0","0"],
    [23100,"2016-09-18T22:00:00","61","20","22,61","2,2","230,9","26,9","57,8","0","0"],
    [23101,"2016-09-18T23:00:00","67","26","8,54","1,9","134,6","27","57,9","0","0"],
    [23102,"2016-09-19T00:00:00","63","17","10,09","2,6","137,7","25","67,5","0","0"],
    [23103,"2016-09-19T01:00:00","77","17","9,09","2,3","133,6","24,4","71,5","0","0"],
    [23104,"2016-09-19T02:00:00","74","14","7,42","0,5","178,4","23,9","73,5","0","0"],
    [23105,"2016-09-19T03:00:00","64","27","6,99","1,3","155,7","23,9","73,3","0","0"],
    [23106,"2016-09-19T04:00:00","107","13","3,96","2,4","96","22,7","77,6","0","0"],
    [23107,"2016-09-19T05:00:00","98","14","4,36","2,2","87,5","22,4","78,7","0","0"],
    [23108,"2016-09-19T06:00:00","80","ND","4,36","2,2","188,3","22,4","77,7","0","0"],
    [23109,"2016-09-19T07:00:00","62","ND","5,08","0,7","262","23,1","74,2","28,3","0"],
    [23110,"2016-09-19T08:00:00","95","ND","8,69","2,4","93,3","25,4","67,6","126,1","0"],
    [23111,"2016-09-19T09:00:00","82","ND","26,22","2,3","141,7","27,3","60,7","239,7","0"],
    [23112,"2016-09-19T10:00:00","70","ND","55,1","1,4","188,5","29,7","51,1","338,3","0"],
    [23113,"2016-09-19T11:00:00","41","ND","70,33","2,4","140,1","31,8","43,9","412,9","0"],
    [23114,"2016-09-19T12:00:00","43","ND","81,4","1,8","139,9","34,1","37,5","523","0"],
    [23115,"2016-09-19T13:00:00","28","6","76,77","3,5","174,9","35","32,8","412,2","0"],
    [23116,"2016-09-19T14:00:00","29","3","86,78","2,6","171,2","35,5","32,7","363,2","0"],
    [23117,"2016-09-19T15:00:00","75","16","77,28","4,5","92,5","34,3","37,5","137,3","0"],
    [23118,"2016-09-19T16:00:00","82","21","62,54","3,4","53","33,1","40,7","55,1","0"],
    [23119,"2016-09-19T17:00:00","79","27","63,99","2,8","9,1","32,8","40,6","51,2","0"],
    [23120,"2016-09-19T18:00:00","92","25","37,23","3,1","17,8","32","43,9","14,9","0"],
    [23121,"2016-09-19T19:00:00","90","21","18,94","1,6","48,6","30,5","49,1","0","0"],
    [23122,"2016-09-19T20:00:00","54","15","12,05","3,3","91,5","28,5","57,3","0","0"],
    [23123,"2016-09-19T21:00:00","54","14","12,72","3,2","101,2","27,6","60,2","0","0"],
    [23124,"2016-09-19T22:00:00","48","10","11,05","2,6","83,4","27,3","61,1","0","0"],
    [23125,"2016-09-19T23:00:00","38","8","9,36","1,4","96,9","27,2","61,9","0","0"],
    [23126,"2016-09-20T00:00:00","37","6","9,95","2,3","87,5","26,6","64,6","0","0"],
    [23127,"2016-09-20T01:00:00","30","ND","9,93","0,9","83,1","26,3","66","0","0"],
    [23128,"2016-09-20T02:00:00","32","ND","9,77","0,7","154","26,3","66,7","0","0"],
    [23129,"2016-09-20T03:00:00","59","11","10,22","1,1","247,7","26,6","64,3","0","0"],
    [23130,"2016-09-20T04:00:00","58","18","7,03","1,9","137,1","25,9","67,3","0","0"],
    [23131,"2016-09-20T05:00:00","80","15","4,18","2,6","120,3","25","69,9","0","0"],
    [23132,"2016-09-20T06:00:00","110","29","5,06","1,5","157,4","24,7","70,8","0","0"],
    [23133,"2016-09-20T07:00:00","116","31","5,99","2,1","143,3","25,4","65,1","24,7","0"],
    [23134,"2016-09-20T08:00:00","59","16","15,99","1,8","131,9","27,4","51,4","136","0"],
    [23135,"2016-09-20T09:00:00","69","13","37,05","2,2","177,8","29,1","49,6","238,2","0"],
    [23136,"2016-09-20T10:00:00","78","27","69,17","2,6","162,5","30,8","45,9","338","0"],
    [23137,"2016-09-20T11:00:00","56","19","84,7","1,5","113,5","32,7","39,7","411,5","0"],
    [23138,"2016-09-20T12:00:00","40","11","99,24","2","162,9","34,5","33,4","452,4","0"],
    [23139,"2016-09-20T13:00:00","49","15","96,2","2,6","98,4","36,1","28,4","453","0"],
    [23140,"2016-09-20T14:00:00","54","12","128,06","2,9","43,7","37,1","26,2","417,1","0"],
    [23141,"2016-09-20T15:00:00","55","12","126,46","3,6","34,3","37,4","26,6","277,2","0"],
    [23142,"2016-09-20T16:00:00","57","6","94,45","7","297,6","35","34,4","150,4","0"],
    [23143,"2016-09-20T17:00:00","62","4","64,82","7,7","297,4","33,4","37,8","67,2","0"],
    [23144,"2016-09-20T18:00:00","44","ND","38,99","6,3","305,9","32","39,7","15,9","0"],
    [23145,"2016-09-20T19:00:00","66","4","18,76","2,1","319,9","31","43,8","0","0"],
    [23146,"2016-09-20T20:00:00","52","12","12,81","3,6","99,3","29,4","52,5","0","0"],
    [23147,"2016-09-20T21:00:00","44","7","13,95","3,6","76,5","28,5","55,5","0","0"],
    [23148,"2016-09-20T22:00:00","58","13","12,25","1,6","177,6","28,2","57,2","0","0"],
    [23149,"2016-09-20T23:00:00","52","ND","13,68","3,4","208,6","27,5","62,6","ND","0"],
    [23150,"2016-09-21T00:00:00","43","ND","14,64","2,3","179,7","27,1","63,4","ND","0"],
    [23151,"2016-09-21T01:00:00","56","ND","7,73","1,6","104,5","26,5","64,9","ND","0"],
    [23152,"2016-09-21T02:00:00","50","ND","11,17","0,3","166,2","26,5","64,4","ND","0"],
    [23153,"2016-09-21T03:00:00","37","ND","12,46","1,2","134,3","26,2","63,4","ND","0"],
    [23154,"2016-09-21T04:00:00","64","ND","7,16","0,8","186,1","25,9","69","ND","0"],
    [23155,"2016-09-21T05:00:00","76","ND","4,87","2,2","144,8","25,5","70,1","ND","0"],
    [23156,"2016-09-21T06:00:00","98","ND","5,06","1,3","177,5","25,1","69,4","ND","0"],
    [23157,"2016-09-21T07:00:00","89","ND","7,81","1,2","204,1","25,7","66,8","36,1","0"],
    [23158,"2016-09-21T08:00:00","63","ND","24,63","1,8","243,1","27,6","58,7","133,9","0"],
    [23159,"2016-09-21T09:00:00","55","ND","33,73","2,3","177,4","28,7","55,1","194,9","0"],
    [23160,"2016-09-21T10:00:00","65","ND","71,78","2,1","143,2","31,2","47,8","338,5","0"],
    [23161,"2016-09-21T11:00:00","52","ND","93,13","1,6","100,9","31,9","43,3","287,3","0"],
    [23162,"2016-09-21T12:00:00","62","16","97,51","4,1","72,9","32,7","39,9","340,2","0"],
    [23163,"2016-09-21T13:00:00","52","7","113,03","3,8","30,2","33,6","38,2","409,2","0"],
    [23164,"2016-09-21T14:00:00","48","24","131,22","4,6","20,2","34,1","37,8","337,3","0"],
    [23165,"2016-09-21T15:00:00","44","12","75,2","4,7","45,9","34,1","37,3","225,7","0"],
    [23166,"2016-09-21T16:00:00","37","6","55,1","3,4","307,5","32,9","38,3","64,3","0"],
    [23167,"2016-09-21T17:00:00","32","2","44,09","6,1","298,8","31,7","40,5","52","0"],
    [23168,"2016-09-21T18:00:00","33","ND","31,3","7,1","287,6","30,8","44,1","9,6","0"],
    [23169,"2016-09-21T19:00:00","28","ND","18,74","4,7","308,2","30,2","45,9","0","0"],
    [23170,"2016-09-21T20:00:00","67","20","8,67","3,8","88,7","29,2","51,8","0","0"],
    [23171,"2016-09-21T21:00:00","70","10","9,91","2,8","107,4","28,1","57,5","0","0"],
    [23172,"2016-09-21T22:00:00","15","4","20,39","2,6","262,2","28,7","53","0","0"],
    [23173,"2016-09-21T23:00:00","40","1","12,62","1,8","98,5","27,9","57,3","0","0"],
    [23174,"2016-09-22T00:00:00","26","2","13,66","3,4","101,1","26,9","60,8","0","0"],
    [23175,"2016-09-22T01:00:00","26","6","16,17","2,9","107,8","25,9","66,1","0","0"],
    [23176,"2016-09-22T02:00:00","18","5","19,19","2,1","88,2","25,9","65,4","0","0"],
    [23177,"2016-09-22T03:00:00","20","1","21,74","1,8","103,5","25,8","65,8","0","0"],
    [23178,"2016-09-22T04:00:00","29","ND","18,45","2","123,1","26","65,4","0","0"],
    [23179,"2016-09-22T05:00:00","41","1","9,26","2,3","176,7","25,9","67,4","0","0"],
    [23180,"2016-09-22T06:00:00","46","16","6,99","2,5","212","24,7","74,2","0,2","0"],
    [23181,"2016-09-22T07:00:00","75","24","6,95","2,3","136,3","25","72,6","25,2","0"],
    [23182,"2016-09-22T08:00:00","54","16","12,6","2,7","200,5","26,1","67,6","75,9","0"],
    [23183,"2016-09-22T09:00:00","60","22","27,55","2,4","143,7","28,8","56,1","262,8","0"],
    [23184,"2016-09-22T10:00:00","44","11","45,06","3,2","156,8","30,1","51,7","272","0"],
    [23185,"2016-09-22T11:00:00","46","10","66,27","2,2","133,9","31,8","46,6","385,8","0"],
    [23186,"2016-09-22T12:00:00","48","8","88,92","2,7","75,5","32,8","42,1","435,4","0"],
    [23187,"2016-09-22T13:00:00","47","ND","109,64","3,8","65,3","34,4","36,8","469,5","0"],
    [23188,"2016-09-22T14:00:00","43","ND","87,84","5,5","59,9","35,2","35,2","447,2","0"],
    [23189,"2016-09-22T15:00:00","43","ND","77,61","4,8","43,7","35,3","34,9","316,5","0"],
    [23190,"2016-09-22T16:00:00","38","ND","73,9","4,3","327,5","34,8","34,2","200,2","0"],
    [23191,"2016-09-22T17:00:00","33","ND","64,13","6","305,2","33,9","34,7","151,2","0"],
    [23192,"2016-09-22T18:00:00","43","ND","50,1","8","288,1","32","38,8","36,8","0"],
    [23193,"2016-09-22T19:00:00","39","ND","34,05","6,7","301,2","30,2","43,8","0","0"],
    [23194,"2016-09-22T20:00:00","56","ND","15,74","2,2","75,6","29,3","48,4","0","0"],
    [23195,"2016-09-22T21:00:00","33","ND","19,15","0,3","115,2","28,2","54,1","0","0"],
    [23196,"2016-09-22T22:00:00","61","ND","16,52","4,4","249,5","28,1","55,1","0","0"],
    [23197,"2016-09-22T23:00:00","43","ND","28,96","3,3","267,1","26,6","64,2","0","1,78"],
    [23198,"2016-09-23T00:00:00","19","ND","19,55","2,5","212,1","25,5","72,8","0","5,33"],
    [23199,"2016-09-23T01:00:00","15","ND","26,63","4,3","253,5","25,1","73,4","0","0"],
    [23200,"2016-09-23T02:00:00","5","ND","26,94","1,9","238,9","25,4","71,1","0","0"],
    [23201,"2016-09-23T03:00:00","23","ND","25,26","2","144,9","24,7","73,3","0","0"],
    [23202,"2016-09-23T04:00:00","14","ND","20,66","0,5","145","25,1","71,6","0","0"],
    [23203,"2016-09-23T05:00:00","20","ND","11,38","1,6","220,6","25,3","73,1","0","0"],
    [23204,"2016-09-23T06:00:00","52","ND","5,67","2,1","155,5","25,3","73,9","0","0"],
    [23205,"2016-09-23T07:00:00","46","ND","6,93","2,7","206,6","25,3","72,8","25,4","0"],
    [23206,"2016-09-23T08:00:00","44","ND","13,01","2,4","183,6","26,6","68,1","108,6","0"],
    [23207,"2016-09-23T09:00:00","44","ND","28,1","2,5","163,4","27,8","62,1","144,1","0"],
    [23208,"2016-09-23T10:00:00","44","ND","49,35","3,2","206,3","29","57","301","0"],
    [23209,"2016-09-23T11:00:00","22","8","63,52","2,7","176,4","31,4","47","425","0"],
    [23210,"2016-09-23T12:00:00","35","8","75,55","1,9","154,4","32,6","42,1","458,1","0"],
    [23211,"2016-09-23T13:00:00","27","7","82,22","1,3","146,9","34,2","36,2","416,4","0"],
    [23212,"2016-09-23T14:00:00","38","14","68,35","3,7","137,5","34,5","34,9","280,2","0"],
    [23213,"2016-09-23T15:00:00","36","9","88,88","3,2","139","35,5","32,8","367,5","0"],
    [23214,"2016-09-23T16:00:00","40","11","95,18","3,3","91,1","35,6","32,2","244,5","0"],
    [23215,"2016-09-23T17:00:00","47","17","81,2","2,1","71,9","35,4","33,8","133,7","0"],
    [23216,"2016-09-23T18:00:00","44","11","78,18","6,3","293,9","32,6","40,7","17,9","0"],
    [23217,"2016-09-23T19:00:00","43","8","34,56","5,5","308,2","31,1","42,9","0","0"],
    [23218,"2016-09-23T20:00:00","37","9","29,75","2,5","305,6","30,3","46,1","0","0"],
    [23219,"2016-09-23T21:00:00","67","25","13,68","3,5","117,9","28,4","56,5","0","0"],
    [23220,"2016-09-23T22:00:00","41","15","14,29","3,3","97,4","27,2","60,9","0","0"],
    [23221,"2016-09-23T23:00:00","44","14","15,93","2,5","73","27,3","60,1","0","0"],
    [23222,"2016-09-24T00:00:00","58","19","7,24","2","165","27,1","62,2","0","0"],
    [23223,"2016-09-24T01:00:00","53","7","8,22","3,1","106,7","25,9","67,2","0","0"],
    [23224,"2016-09-24T02:00:00","45","11","13,29","2,2","285,2","26,1","66,7","0","0"],
    [23225,"2016-09-24T03:00:00","65","17","11,07","0,4","130,8","26,3","66,2","0","0,25"],
    [23226,"2016-09-24T04:00:00","53","14","7,61","3,1","230,1","25,4","74,1","0","3,56"],
    [23227,"2016-09-24T05:00:00","30","17","5,22","0,2","293,7","25,3","75,7","0","0"],
    [23228,"2016-09-24T06:00:00","76","22","3,63","1,3","115,8","25,1","76,4","0","0"],
    [23229,"2016-09-24T07:00:00","70","24","3,79","1,1","190,8","25,1","75,6","0","0"],
    [23230,"2016-09-24T08:00:00","63","26","4,55","1,3","232,2","25,7","74","24,4","0"],
    [23231,"2016-09-24T09:00:00","99","47","6,83","1,3","62,5","26,9","71,7","88,9","0,25"],
    [23232,"2016-09-24T10:00:00","73","33","20,27","1,9","157,3","28","65,9","154,2","0"],
    [23233,"2016-09-24T11:00:00","49","18","38,15","1,6","168,7","29,5","57","177,8","0"],
    [23234,"2016-09-24T12:00:00","46","20","56,32","2,2","129,9","30,4","53,6","266,5","0"],
    [23235,"2016-09-24T13:00:00","53","25","72,73","2,4","96,9","32,1","48,5","275,4","0"],
    [23236,"2016-09-24T14:00:00","55","25","87,8","3,5","138,1","32,9","44,2","336,8","0"],
    [23237,"2016-09-24T15:00:00","50","22","67,53","2,8","110,2","32,3","44,2","118,7","0"],
    [23238,"2016-09-24T16:00:00","45","19","76","4,5","213,4","30,7","50","55,1","0"],
    [23239,"2016-09-24T17:00:00","24","6","45,61","4,7","271,5","30,1","48,3","47,3","0"],
    [23240,"2016-09-24T18:00:00","31","8","26,98","2,6","338,2","29,4","51,1","6,1","0"],
    [23241,"2016-09-24T19:00:00","41","11","10,97","4,5","57,7","27,1","67","0","0"],
    [23242,"2016-09-24T20:00:00","37","8","11,21","3,9","51,7","26,2","68,2","0","0"],
    [23243,"2016-09-24T21:00:00","48","15","7,44","3,1","71,4","25,8","69,6","0","0"],
    [23244,"2016-09-24T22:00:00","42","9","6,83","3,1","79,1","25,3","71,4","0","0"],
    [23245,"2016-09-24T23:00:00","40","9","5,32","1,2","141,7","25,4","69,9","0","0"],
    [23246,"2016-09-25T00:00:00","40","12","6,46","2,4","199,4","25","72,2","0","0"],
    [23247,"2016-09-25T01:00:00","52","7","5,16","2,6","203,2","24,9","73,7","0","0"],
    [23248,"2016-09-25T02:00:00","47","14","5,04","2,3","191,7","25,2","71,1","0","0"],
    [23249,"2016-09-25T03:00:00","40","11","4,73","1,9","144,5","25","72,6","0","0"],
    [23250,"2016-09-25T04:00:00","59","9","4,36","1,8","139","24,4","74,1","0","0"],
    [23251,"2016-09-25T05:00:00","52","7","3,92","1,5","149,4","24,1","74,9","0","0"],
    [23252,"2016-09-25T06:00:00","56","11","3,75","2","97,4","23,4","77,5","0","0"],
    [23253,"2016-09-25T07:00:00","83","19","4,28","1,7","68,2","23,7","76,7","12,4","0"],
    [23254,"2016-09-25T08:00:00","59","20","7,54","0,8","164,7","25,1","71","93,7","0"],
    [23255,"2016-09-25T09:00:00","56","12","21,37","1,8","160,5","27,7","60,2","228,4","0"],
    [23256,"2016-09-25T10:00:00","38","15","38,23","1,5","138,6","28,9","56,2","201,4","0"],
    [23257,"2016-09-25T11:00:00","43","19","66,05","2,1","178,1","30,8","50","400,4","0"],
    [23258,"2016-09-25T12:00:00","32","15","80,46","3","184,9","32","44,2","401,4","0"],
    [23259,"2016-09-25T13:00:00","32","11","81,09","1,7","115","34,5","35,3","425","0"],
    [23260,"2016-09-25T14:00:00","42","17","78,14","3,6","93,1","33,5","38,1","211,3","0"],
    [23261,"2016-09-25T15:00:00","37","16","82,34","3,8","59,1","33,4","39,2","232,8","0"],
    [23262,"2016-09-25T16:00:00","44","19","93,96","2,7","61,6","33,5","39,2","160","0"],
    [23263,"2016-09-25T17:00:00","40","20","82,42","3,7","334,6","32,2","41,9","47,1","0"],
    [23264,"2016-09-25T18:00:00","45","18","40,11","2,3","28,7","31,2","44,4","9,3","0"],
    [23265,"2016-09-25T19:00:00","41","10","20,02","1,6","353,7","29,5","49,3","0","0"],
    [23266,"2016-09-25T20:00:00","44","13","15,42","1,7","73,7","28,3","53,5","0","0"],
    [23267,"2016-09-25T21:00:00","48","13","8,3","2,2","54,3","27,2","58,2","0","0"],
    [23268,"2016-09-25T22:00:00","54","16","7,2","3,1","115,2","26,9","59,4","0","0"],
    [23269,"2016-09-25T23:00:00","24","5","11,64","2,1","96,2","26,4","62,6","0","0"],
    [23270,"2016-09-26T00:00:00","28","6","15,4","0,4","21,4","26,7","60,9","0","0"],
    [23271,"2016-09-26T01:00:00","56","18","8,58","2,7","217,6","26,2","64,5","0","0"],
    [23272,"2016-09-26T02:00:00","46","15","10,15","1,5","179,2","26,1","65,1","0","0"],
    [23273,"2016-09-26T03:00:00","41","7","8,61","1,2","183,3","25,5","68,5","0","0"],
    [23274,"2016-09-26T04:00:00","40","12","5,57","2,3","111,4","25,3","70,4","0","0"],
    [23275,"2016-09-26T05:00:00","68","12","4,51","2","84,3","24,9","72,3","0","0"],
    [23276,"2016-09-26T06:00:00","72","26","4,57","1,5","155,2","25,3","70,2","0","0"],
    [23277,"2016-09-26T07:00:00","62","19","5,91","2,4","198,7","25,6","68,1","16,8","0"],
    [23278,"2016-09-26T08:00:00","70","17","9,48","2,6","175,4","26,3","64,7","61,5","0"],
    [23279,"2016-09-26T09:00:00","64","19","17,56","1,5","171,4","27,3","61,2","130,2","0"],
    [23280,"2016-09-26T10:00:00","52","10","37,62","1,4","163,6","29,3","54,4","273,6","0"],
    [23281,"2016-09-26T11:00:00","54","15","65,37","1,6","35,7","31,5","46,5","363,7","0"],
    [23282,"2016-09-26T12:00:00","50","14","88,01","1","62,8","32,5","42,2","406,9","0"],
    [23283,"2016-09-26T13:00:00","42","10","88,56","3,1","139,2","34,6","37,2","451,5","0"],
    [23284,"2016-09-26T14:00:00","36","17","91,64","2,9","101,4","35,2","34,6","361,5","0"],
    [23285,"2016-09-26T15:00:00","60","21","76,67","4","49,8","33,5","37","78,3","0"],
    [23286,"2016-09-26T16:00:00","69","26","58,3","4,2","14,5","32,6","40,2","41,1","0"],
    [23287,"2016-09-26T17:00:00","42","5","45,02","6,2","303,2","30,8","46,1","13,7","0"],
    [23288,"2016-09-26T18:00:00","38","8","25,02","3,2","289,6","30,3","45,6","0","0"],
    [23289,"2016-09-26T19:00:00","61","24","15,88","2,4","110,5","29,2","50,3","0","0"],
    [23290,"2016-09-26T20:00:00","56","12","9,83","3,3","91,7","27,8","57,5","0","0"],
    [23291,"2016-09-26T21:00:00","46","15","8,58","0,8","142,5","27,3","59,9","0","0"],
    [23292,"2016-09-26T22:00:00","70","14","5,55","2,7","198,6","26,9","62,8","0","0"],
    [23293,"2016-09-26T23:00:00","43","11","10,81","2,6","91,4","26,6","61,9","0","0"],
    [23294,"2016-09-27T00:00:00","41","9","13,82","1,6","15,2","26,1","62,2","0","0"],
    [23295,"2016-09-27T01:00:00","32","7","15,25","1,6","126,3","25,9","63,5","0","0"],
    [23296,"2016-09-27T02:00:00","30","6","12,01","1,6","143,1","25,7","65,1","0","0"],
    [23297,"2016-09-27T03:00:00","43","11","7,34","1,9","135,2","25,3","67,9","0","0"],
    [23298,"2016-09-27T04:00:00","52","16","9,16","1,5","254,6","25,3","67,5","0","0"],
    [23299,"2016-09-27T05:00:00","67","18","4,87","2","98,9","24,7","71,4","0","0"],
    [23300,"2016-09-27T06:00:00","81","23","4,36","1,5","116,3","24,6","72,6","0","0"],
    [23301,"2016-09-27T07:00:00","89","32","4,95","2,6","100,9","24,8","71,8","18,8","0"],
    [23302,"2016-09-27T08:00:00","67","19","10,91","2","177,5","26,3","65,4","100,8","0"],
    [23303,"2016-09-27T09:00:00","61","25","19,17","1,6","162,2","28,3","58","193,3","0"],
    [23304,"2016-09-27T10:00:00","45","8","39,48","2,3","125,9","29,9","51,3","330,8","0"],
    [23305,"2016-09-27T11:00:00","43","13","64,27","2,4","85,5","31,5","46","417,1","0"],
    [23306,"2016-09-27T12:00:00","54","12","84,62","2,2","105,9","33,5","39,9","443","0"],
    [23307,"2016-09-27T13:00:00","61","20","103,42","3,5","56,2","34","38,5","399,4","0"],
    [23308,"2016-09-27T14:00:00","64","23","113,35","3,4","88,3","34,3","37,7","235","0"],
    [23309,"2016-09-27T15:00:00","52","15","107,5","3,8","80,6","35","36,2","275,2","0"],
    [23310,"2016-09-27T16:00:00","69","21","84,15","5,3","88,5","33,7","38,9","121,4","0"],
    [23311,"2016-09-27T17:00:00","44","17","69,98","3,4","339,5","34,2","36,8","134,1","0"],
    [23312,"2016-09-27T18:00:00","53","15","39,91","6,1","302,2","32,3","38,3","36,1","0"],
    [23313,"2016-09-27T19:00:00","45","9","21,35","4,6","306,6","30,9","41,6","0","0"],
    [23314,"2016-09-27T20:00:00","39","6","17,09","1,9","305,5","29,8","46,1","0","0"],
    [23315,"2016-09-27T21:00:00","39","12","11,64","4","105","27,7","58,2","0","0"],
    [23316,"2016-09-27T22:00:00","48","12","12,6","2,9","64,4","26,7","62,1","0","0"],
    [23317,"2016-09-27T23:00:00","40","11","12,66","2,9","59,7","26,6","61,9","0","0"],
    [23318,"2016-09-28T00:00:00","45","8","10,44","1,9","65,4","26,1","63,7","0","0"],
    [23319,"2016-09-28T01:00:00","33","4","13,58","2,7","110,3","25,4","66,6","0","0"],
    [23320,"2016-09-28T02:00:00","45","4","12,26","2,1","104,7","25,1","68,1","0","0"],
    [23321,"2016-09-28T03:00:00","31","10","11,09","0,9","141,6","25,2","67,6","0","0"],
    [23322,"2016-09-28T04:00:00","33","7","12,58","1,3","212,8","25,5","66,5","0","0"],
    [23323,"2016-09-28T05:00:00","63","9","5,55","1,8","146,7","25","69,5","0","0"],
    [23324,"2016-09-28T06:00:00","81","23","5,12","1,4","209,4","24,8","70,7","0","0"],
    [23325,"2016-09-28T07:00:00","108","32","5,49","2,2","109","25,4","68,5","10","0"],
    [23326,"2016-09-28T08:00:00","115","28","6,87","2,9","103,5","25,9","68,3","69,1","0"],
    [23327,"2016-09-28T09:00:00","ND","ND","ND","3,1","164,6","28,1","57,4","190,9","0"],
    [23328,"2016-09-28T10:00:00","63","18","30,2","3,1","147,9","29","54,3","190,6","0"],
    [23329,"2016-09-28T11:00:00","ND","15","54,97","2,7","154,9","30,9","47,8","296,8","0"],
    [23330,"2016-09-28T12:00:00","44","16","69,78","2,5","129,6","32","43,1","352,3","0"],
    [23331,"2016-09-28T13:00:00","36","13","65,7","4,1","134","32,7","40,8","258,6","0"],
    [23332,"2016-09-28T14:00:00","84","29","86,78","2,7","121,6","32,5","42,8","239,5","0"],
    [23333,"2016-09-28T15:00:00","57","25","117,53","1,7","267,2","33,4","39,7","215,1","0"],
    [23334,"2016-09-28T16:00:00","57","19","100,36","1,5","90,6","33,7","38,3","131,2","0"],
    [23335,"2016-09-28T17:00:00","88","34","81,09","3,9","51,2","32,7","42","33,9","0"],
    [23336,"2016-09-28T18:00:00","62","12","39,01","2,2","330,9","31,6","41,8","7,8","0"],
    [23337,"2016-09-28T19:00:00","41","7","22,06","4,2","288","30,2","44,5","0","0"],
    [23338,"2016-09-28T20:00:00","78","15","9,52","1,5","19,4","29,1","50,4","0","0"],
    [23339,"2016-09-28T21:00:00","57","9","6,44","3,7","75,1","27","62,1","0","0"],
    [23340,"2016-09-28T22:00:00","58","17","11,28","2","30,4","27,1","60","0","0"],
    [23341,"2016-09-28T23:00:00","28","4","14,46","1,2","306,4","27,8","55,6","0","0"],
    [23342,"2016-09-29T00:00:00","30","1","10,6","3,1","85,1","25,9","65,2","0","0"],
    [23343,"2016-09-29T01:00:00","48","2","10,75","2,7","88,2","25,8","65,8","0","0"],
    [23344,"2016-09-29T02:00:00","38","3","15,44","2,5","93","25,6","66,5","0","0"],
    [23345,"2016-09-29T03:00:00","35","3","13,97","2","102,4","25,4","66,9","0","0"],
    [23346,"2016-09-29T04:00:00","27","7","12,97","1,6","118,5","25,2","67,3","0","0"],
    [23347,"2016-09-29T05:00:00","30","11","8,2","1,1","138,9","25,1","67,4","0","0"],
    [23348,"2016-09-29T06:00:00","62","21","5,83","2,7","121,2","25,1","67,7","0","0"],
    [23349,"2016-09-29T07:00:00","53","22","6,85","1,1","188,4","25,4","67,2","28,5","0"],
    [23350,"2016-09-29T08:00:00","90","27","13,76","1,7","59,5","26,6","64,5","98,8","0"],
    [23351,"2016-09-29T09:00:00","58","19","28,77","2,6","180,2","28,7","58,1","238","0"],
    [23352,"2016-09-29T10:00:00","43","11","51,28","1,6","152","30,6","49,6","336,6","0"],
    [23353,"2016-09-29T11:00:00","40","17","64,58","2,4","127,9","31,8","45,7","340,4","0"],
    [23354,"2016-09-29T12:00:00","47","18","74,59","2,7","94,5","33,2","40,6","391,8","0"],
    [23355,"2016-09-29T13:00:00","55","16","90,29","2,2","62,5","33,6","39","254,7","0"],
    [23356,"2016-09-29T14:00:00","51","8","54,08","4","322,1","32,1","45,5","310","0"],
    [23357,"2016-09-29T15:00:00","20","11","68,92","6,9","308,7","32,7","40,2","332,7","0"],
    [23358,"2016-09-29T16:00:00","46","11","48,04","6,9","53,2","32,2","43,7","144","0"],
    [23359,"2016-09-29T17:00:00","43","10","24,59","5,6","83,9","27,6","66,2","16,7","0,25"],
    [23360,"2016-09-29T18:00:00","48","18","33,36","3,6","188,2","27,3","64,6","4,9","0"],
    [23361,"2016-09-29T19:00:00","37","16","31,06","4,2","178,3","26","66","0","0"],
    [23362,"2016-09-29T20:00:00","49","27","24,06","3,3","165,6","25","68,8","0","0"],
    [23363,"2016-09-29T21:00:00","38","11","21,9","1,1","155,4","25","69,3","0","0"],
    [23364,"2016-09-29T22:00:00","45","17","14,66","1,8","110,1","25,1","67,5","0","0"],
    [23365,"2016-09-29T23:00:00","55","20","11,79","1,8","82,7","24,9","67,7","0","0"],
    [23366,"2016-09-30T00:00:00","73","22","10,58","3,7","63,6","23,8","73,1","0","0"],
    [23367,"2016-09-30T01:00:00","67","19","8,63","1,1","167,8","23,6","74","0","0"],
    [23368,"2016-09-30T02:00:00","61","24","15,82","2,4","210,4","24,2","71,2","0","0"],
    [23369,"2016-09-30T03:00:00","67","15","16,95","1,6","192,3","24,6","70,7","0","0"],
    [23370,"2016-09-30T04:00:00","63","21","15,4","0,5","174,1","24,6","70,6","0","0"],
    [23371,"2016-09-30T05:00:00","72","22","4,32","3,1","92,8","23,1","77,6","0","0"],
    [23372,"2016-09-30T06:00:00","120","40","5,1","2,2","122,4","23,1","77,7","0","0"],
    [23373,"2016-09-30T07:00:00","77","24","4,85","1,9","171,4","23,7","77,6","35,4","0"],
    [23374,"2016-09-30T08:00:00","78","38","14,46","2,5","238,8","25,5","70,2","129,9","0"],
    [23375,"2016-09-30T09:00:00","86","35","45,02","1,1","144,4","28,3","57,2","252,1","0"],
    [23376,"2016-09-30T10:00:00","60","24","60,72","2,6","90","30,1","50,8","296,3","0"],
    [23377,"2016-09-30T11:00:00","48","17","73,98","2,9","67","31,1","46,7","303,8","0"],
    [23378,"2016-09-30T12:00:00","49","19","105,36","2,1","49,7","32,8","41","402,2","0"],
    [23379,"2016-09-30T13:00:00","68","28","131,05","2,6","36,6","34,3","37,6","426,1","0"],
    [23380,"2016-09-30T14:00:00","45","19","87,21","5,4","355,2","34,1","36,8","293,3","0"],
    [23381,"2016-09-30T15:00:00","41","1","59,11","8,6","310,2","34,3","33,6","338,9","0"],
    [23382,"2016-09-30T16:00:00","55","ND","54,71","4","303,6","31,4","40,8","99,6","0"],
    [23383,"2016-09-30T17:00:00","38","9","65,8","4,9","172,2","26,1","59,9","21,1","0"],
    [23384,"2016-09-30T18:00:00","35","7","34,93","3,5","134,3","25","68,1","0","0,25"],
    [23385,"2016-09-30T19:00:00","47","22","13,72","2,6","106,9","23,8","77,8","0","4,83"],
    [23386,"2016-09-30T20:00:00","45","27","9,65","2,3","96,9","23,8","79,6","0","2,54"],
    [23387,"2016-09-30T21:00:00","42","24","7,79","2,4","102,4","23,9","80,2","0","1,02"],
    [23388,"2016-09-30T22:00:00","38","24","5,65","2,6","122,2","24","80","0","0,51"],
    [23389,"2016-09-30T23:00:00","34","18","10,18","2,1","155,3","24","79,9","0","0,25"],
    [23390,"2016-10-01T00:00:00","24","12","11,7","2","105","23,9","80,2","0","0,51"],
    [23391,"2016-10-01T01:00:00","12","8","22,59","2,3","82,7","23,4","80,1","0","0,76"],
    [23392,"2016-10-01T02:00:00","9","2","25,96","2","73,8","23,2","80,3","0","3,05"],
    [23393,"2016-10-01T03:00:00","12","1","24,18","2,4","72,2","23","81,3","0","1,78"],
    [23394,"2016-10-01T04:00:00","7","2","23,43","1,4","86","22,8","81,2","0","7,87"],
    [23395,"2016-10-01T05:00:00","ND","ND","24,43","1,3","343,9","22,8","81,4","0","9,14"],
    [23396,"2016-10-01T06:00:00","ND","ND","23,08","1,9","313,9","22,8","81,4","0","6,35"],
    [23397,"2016-10-01T07:00:00","ND","ND","ND","ND","ND","ND","ND","ND","ND"],
    [23398,"2016-10-01T08:00:00","ND","ND","ND","ND","ND","ND","ND","ND","ND"],
    [23399,"2016-10-01T09:00:00","ND","ND","ND","ND","ND","ND","ND","ND","ND"],
    [23400,"2016-10-01T10:00:00","ND","ND","ND","1,9","96,1","27,3","62,5","156","0"],
    [23401,"2016-10-01T11:00:00","43","18","43,92","2,4","109,6","27,9","61,5","169,5","0"],
    [23402,"2016-10-01T12:00:00","45","17","88,68","1,1","36,2","29,8","53,2","354,8","0"],
    [23403,"2016-10-01T13:00:00","30","8","90,54","2,7","353,2","30,8","48,1","290,1","0"],
    [23404,"2016-10-01T14:00:00","36","14","97,8","4,3","297,1","29,3","54,5","124,2","0"],
    [23405,"2016-10-01T15:00:00","35","19","70,29","6,4","328,1","29,2","55,5","270,1","0"],
    [23406,"2016-10-01T16:00:00","12","6","43,78","5,2","5,2","30,4","46,5","175,7","0"],
    [23407,"2016-10-01T17:00:00","9","2","36,87","5,6","320","29,3","47,8","63,9","0"],
    [23408,"2016-10-01T18:00:00","28","8","24,71","3,6","1","28,8","50,1","23,8","0"],
    [23409,"2016-10-01T19:00:00","48","10","11,91","3,3","40,8","28","56,6","0","0"],
    [23410,"2016-10-01T20:00:00","31","9","18,86","3,3","253","25,8","68,6","0","1,02"],
    [23411,"2016-10-01T21:00:00","28","15","12,87","2,4","188,7","24,3","78,3","0","11,43"],
    [23412,"2016-10-01T22:00:00","63","27","9,26","2,5","151,1","24,4","77,7","0","0"],
    [23413,"2016-10-01T23:00:00","52","15","9,4","2,2","164,4","24,1","77,9","0","0"],
    [23414,"2016-10-02T00:00:00","29","8","9,73","1,8","180,9","24,2","78","0","0"],
    [23415,"2016-10-02T01:00:00","37","13","7,83","2,1","120,5","24","79,3","0","16,76"],
    [23416,"2016-10-02T02:00:00","8","7","11,75","1,7","87","23,3","82,5","0","2,29"],
    [23417,"2016-10-02T03:00:00","15","2","11,13","1,3","192,4","23,8","80,8","0","0,25"],
    [23418,"2016-10-02T04:00:00","12","11","12,36","1,8","235,6","23,8","79,9","0","0"],
    [23419,"2016-10-02T05:00:00","12","6","7,08","3,1","126,6","23,4","81,4","0","0"],
    [23420,"2016-10-02T06:00:00","22","11","6,69","1,7","168,7","23,4","80,8","0","0"],
    [23421,"2016-10-02T07:00:00","22","11","7,48","1,1","194","23,6","79,3","15,5","0"],
    [23422,"2016-10-02T08:00:00","27","13","15,03","2,1","202,8","25,1","72,6","116,7","0"],
    [23423,"2016-10-02T09:00:00","27","9","27,18","1,9","234,3","26,3","66,4","174,2","0"],
    [23424,"2016-10-02T10:00:00","13","12","39,21","3,1","148,6","29","56,2","386,6","0"],
    [23425,"2016-10-02T11:00:00","14","12","51,81","2,3","144,9","30,4","50,2","439,3","0"],
    [23426,"2016-10-02T12:00:00","20","9","59,56","3","80,9","31,9","43,7","484,5","0"],
    [23427,"2016-10-02T13:00:00","17","8","64,92","2,9","93,9","32,4","42","406,1","0"],
    [23428,"2016-10-02T14:00:00","25","14","74,32","3,2","79,3","33,1","40,7","352,7","0"],
    [23429,"2016-10-02T15:00:00","29","11","80,03","1,3","109,4","33,1","40,7","190","0"],
    [23430,"2016-10-02T16:00:00","16","7","44,94","8,5","306,3","29,2","51,4","165,5","0"],
    [23431,"2016-10-02T17:00:00","7","3","30,5","6,8","287,3","30,5","47,2","89,8","0"],
    [23432,"2016-10-02T18:00:00","13","2","24,33","5,9","306,6","29,3","51,2","12","0"],
    [23433,"2016-10-02T19:00:00","28","6","16,7","1,6","346,9","28,6","54,6","0","0"],
    [23434,"2016-10-02T20:00:00","35","8","8,58","2,8","58,9","27,9","58,6","0","0"],
    [23435,"2016-10-02T21:00:00","31","6","9,34","2,5","290,2","26,9","65,8","0","6,35"],
    [23436,"2016-10-02T22:00:00","25","6","9,64","1,3","85,9","25,6","73,7","0","0,25"],
    [23437,"2016-10-02T23:00:00","24","4","10,11","1,8","15,2","24,8","77,9","0","10,16"],
    [23438,"2016-10-03T00:00:00","3","3","16,27","0,5","152,6","24","82","0","12,7"],
    [23439,"2016-10-03T01:00:00","17","6","14,84","1,3","150,8","24,6","79,3","0","0"],
    [23440,"2016-10-03T02:00:00","17","9","13,56","1","168,3","24,6","78,9","0","2,29"],
    [23441,"2016-10-03T03:00:00","14","7","11,5","2,1","23,5","24,1","80,2","0","0"],
    [23442,"2016-10-03T04:00:00","8","ND","11,13","1,2","254","24,2","79","0","0"],
    [23443,"2016-10-03T05:00:00","21","6","5,49","3,9","128,1","23,8","80,8","0","0"],
    [23444,"2016-10-03T06:00:00","19","6","4,38","2,2","291,7","23,8","79,7","0","0"],
    [23445,"2016-10-03T07:00:00","26","9","4,96","1","282,6","24,3","77,2","11,9","0"],
    [23446,"2016-10-03T08:00:00","65","26","6,59","2,1","11","25,5","74,4","70,5","0"],
    [23447,"2016-10-03T09:00:00","52","23","7,73","0,9","307,8","26,2","69,8","86,3","0"],
    [23448,"2016-10-03T10:00:00","33","13","22,53","3,8","157,3","27,8","63,5","198,6","0"],
    [23449,"2016-10-03T11:00:00","33","10","36,74","3,5","192,7","29,6","56,3","372,8","0"],
    [23450,"2016-10-03T12:00:00","32","8","54,97","2,1","223,5","30,6","52,4","350,4","0"],
    [23451,"2016-10-03T13:00:00","18","7","78,3","1,4","225,4","32,6","42,1","402,7","0"],
    [23452,"2016-10-03T14:00:00","27","7","83,13","1,4","107,7","33,8","38,7","377,9","0"],
    [23453,"2016-10-03T15:00:00","30","16","105,4","3,6","3,7","33,9","37,3","291","0"],
    [23454,"2016-10-03T16:00:00","37","17","86,32","3,9","347,3","33,9","38,6","227,2","0"],
    [23455,"2016-10-03T17:00:00","14","ND","31,61","8,9","306,1","32,3","41,2","125,9","0"],
    [23456,"2016-10-03T18:00:00","25","ND","18,56","7,4","309,9","30,2","47,6","6","0"],
    [23457,"2016-10-03T19:00:00","25","5","9,65","6,4","324,5","29,5","50,3","0","0"],
    [23458,"2016-10-03T20:00:00","41","6","7,93","2,1","44,6","29","53,5","0","0"],
    [23459,"2016-10-03T21:00:00","38","10","6,63","2,9","67,8","27,5","61,5","0","0"],
    [23460,"2016-10-03T22:00:00","23","6","7,65","0,6","5,9","27,5","60,8","0","0"],
    [23461,"2016-10-03T23:00:00","29","2","8,01","1,5","140,3","27,8","59,2","0","0"],
    [23462,"2016-10-04T00:00:00","20","1","9,24","3,1","121,4","26,1","67,4","0","0"],
    [23463,"2016-10-04T01:00:00","4","ND","16,88","2,7","308,6","25,9","67,3","0","0"],
    [23464,"2016-10-04T02:00:00","9","ND","13,29","3,6","327,5","25,2","73,2","0","3,3"],
    [23465,"2016-10-04T03:00:00","8","ND","7,79","3,1","38,9","24,2","78,5","0","3,05"],
    [23466,"2016-10-04T04:00:00","12","ND","15,31","3,9","61,9","23,5","79,8","0","0,25"],
    [23467,"2016-10-04T05:00:00","11","ND","9,28","1,7","189,7","23,7","80,3","0","0"],
    [23468,"2016-10-04T06:00:00","10","1","7,97","5,1","197,5","23,6","80,4","0","0,76"],
    [23469,"2016-10-04T07:00:00","20","2","19,05","7,4","230,7","23,2","78,1","6,6","0"],
    [23470,"2016-10-04T08:00:00","15","4","26,47","5,8","239,7","23,8","71","43,7","0"],
    [23471,"2016-10-04T09:00:00","5","3","41,9","4,2","269,9","25,8","59,9","109,5","0"],
    [23472,"2016-10-04T10:00:00","38","7","40,92","5,3","97,7","27,2","58,4","212,5","0"],
    [23473,"2016-10-04T11:00:00","28","11","50,85","4","117,4","27,7","55,5","218,6","0"],
    [23474,"2016-10-04T12:00:00","34","10","59,3","4,1","157","29","50,3","256,9","0"],
    [23475,"2016-10-04T13:00:00","27","7","62,72","4,4","176,2","30","46,3","372,3","0"],
    [23476,"2016-10-04T14:00:00","17","4","87,8","2,4","232,3","31,2","42,2","365,5","0"],
    [23477,"2016-10-04T15:00:00","18","5","109,56","4,4","290","31,3","43,7","289,7","0"],
    [23478,"2016-10-04T16:00:00","12","1","47,55","7,7","291,9","31,9","40,6","235,6","0"],
    [23479,"2016-10-04T17:00:00","8","ND","41,5","7,3","288,8","31,2","40,9","113,7","0"],
    [23480,"2016-10-04T18:00:00","15","2","29,61","4,7","297,2","30,4","42,7","14,5","0"],
    [23481,"2016-10-04T19:00:00","28","2","10,05","5","297,8","29","48,9","0","0"],
    [23482,"2016-10-04T20:00:00","31","4","9,24","4,6","297,5","28,2","51,4","0","0"],
    [23483,"2016-10-04T21:00:00","33","4","11,38","1,4","344,4","27,1","56,5","0","0"],
    [23484,"2016-10-04T22:00:00","47","5","6,52","2,4","97,1","25,3","67,1","0","0"],
    [23485,"2016-10-04T23:00:00","34","6","6,44","2,3","70,8","24,8","68,9","0","0"],
    [23486,"2016-10-05T00:00:00","24","5","6,59","0,4","291,4","25","67,2","0","0"],
    [23487,"2016-10-05T01:00:00","43","10","4,85","0,7","196,5","24,6","69,4","0","0"],
    [23488,"2016-10-05T02:00:00","33","7","5,12","1,3","143","24,3","71,2","0","0"],
    [23489,"2016-10-05T03:00:00","27","8","6,24","0,2","156,7","24,3","70,9","0","0"],
    [23490,"2016-10-05T04:00:00","39","10","4,63","1,2","81,8","24,1","72,2","0","0"],
    [23491,"2016-10-05T05:00:00","33","11","4,73","1,4","186,5","24,1","71,9","0","0"],
    [23492,"2016-10-05T06:00:00","60","11","4,02","1,3","210,9","23,9","74,3","0","0"],
    [23493,"2016-10-05T07:00:00","68","17","4,91","1,2","156,8","24,2","73,5","18,2","0"],
    [23494,"2016-10-05T08:00:00","69","20","7,65","1,1","213,3","25,4","68,2","80,4","0"],
    [23495,"2016-10-05T09:00:00","94","22","22,55","1,2","102,7","27,8","59,1","192,6","0"],
    [23496,"2016-10-05T10:00:00","53","9","50,92","2","41,4","30,1","50,2","368,1","0"],
    [23497,"2016-10-05T11:00:00","31","11","66,41","2,2","30,2","30,8","46,8","272","0"],
    [23498,"2016-10-05T12:00:00","28","9","ND","3,2","40,3","31,1","46,7","260,1","0"],
    [23499,"2016-10-05T13:00:00","28","9","ND","2,4","67,1","32,6","42,9","374,8","0"],
    [23500,"2016-10-05T14:00:00","ND","ND","73,33","4,1","78,7","33,3","40,9","320,7","0"],
    [23501,"2016-10-05T15:00:00","42","9","54,87","3,4","31,2","32,9","41,5","184,1","0"],
    [23502,"2016-10-05T16:00:00","43","8","44,31","3,6","345,2","32,1","45,1","111,1","0"],
    [23503,"2016-10-05T17:00:00","44","9","34,77","3,1","352","32,2","44","63,1","0"],
    [23504,"2016-10-05T18:00:00","49","13","21,78","2,2","14,2","31,7","44,2","27,8","0"],
    [23505,"2016-10-05T19:00:00","71","20","8,91","1,5","12,4","30,2","50,1","0","0"],
    [23506,"2016-10-05T20:00:00","53","17","5,95","2,9","93,1","28,6","59,2","0","0"],
    [23507,"2016-10-05T21:00:00","55","22","4,91","2,1","94,6","27,4","64","0","0"],
    [23508,"2016-10-05T22:00:00","36","5","5,02","3,2","115,1","26,6","67,2","0","0"],
    [23509,"2016-10-05T23:00:00","30","10","6,63","3,1","40,5","26,2","68,1","0","0"],
    [23510,"2016-10-06T00:00:00","48","16","7,3","1,4","22,9","26,6","65","0","0"],
    [23511,"2016-10-06T01:00:00","19","7","7,24","3,3","93,9","25,9","68,4","0","0"],
    [23512,"2016-10-06T02:00:00","21","4","6,34","1,3","59,9","25,7","70,1","0","0"],
    [23513,"2016-10-06T03:00:00","20","1","6,32","1,6","19,4","25,4","71,5","0","0"],
    [23514,"2016-10-06T04:00:00","31","1","6,42","0,9","145,8","25,4","71,5","0","0"],
    [23515,"2016-10-06T05:00:00","34","3","4,71","1,7","165,8","25,2","72,7","0","0"],
    [23516,"2016-10-06T06:00:00","54","15","4,59","1,8","196,9","25,1","74,6","0","0"],
    [23517,"2016-10-06T07:00:00","51","14","5,12","2,1","198","25,6","73,2","24,7","0"],
    [23518,"2016-10-06T08:00:00","56","16","7,2","1,4","147,3","27,1","66,2","84,7","0"],
    [23519,"2016-10-06T09:00:00","36","6","11,3","1,8","147,3","28,1","62,1","140,6","0"],
    [23520,"2016-10-06T10:00:00","42","6","28,63","2,5","206,7","29,9","55,8","280,9","0"],
    [23521,"2016-10-06T11:00:00","33","7","57,14","1,9","184,8","32,3","46,7","427,4","0"],
    [23522,"2016-10-06T12:00:00","26","10","66,72","2,7","198","32,7","44,8","289,7","0"],
    [23523,"2016-10-06T13:00:00","35","8","67,27","3,9","275,5","32,1","43,5","155,4","0"],
    [23524,"2016-10-06T14:00:00","26","10","55,18","6,4","274,3","30,8","47,2","169","0"],
    [23525,"2016-10-06T15:00:00","18","6","36,93","6,2","301,7","31,2","44,4","141,8","0"],
    [23526,"2016-10-06T16:00:00","21","ND","33,91","3,1","289,7","29,8","46,6","39,6","0"],
    [23527,"2016-10-06T17:00:00","21","5","32,12","3,1","149,9","23,9","75","0","6,35"],
    [23528,"2016-10-06T18:00:00","31","8","19,33","4,2","105,9","23,1","79","0","4,06"],
    [23529,"2016-10-06T19:00:00","17","7","20,02","1,2","339,5","22,6","81,9","0","10,16"],
    [23530,"2016-10-06T20:00:00","17","4","9,11","2,4","291,7","23,2","80,7","0","1,52"],
    [23531,"2016-10-06T21:00:00","20","7","6,32","2,1","188,4","23,7","79,4","0","0"],
    [23532,"2016-10-06T22:00:00","43","18","6,36","2,6","146","23,1","80,8","0","0"],
    [23533,"2016-10-06T23:00:00","46","12","6,99","2,4","99","22,6","81,3","0","0"],
    [23534,"2016-10-07T00:00:00","46","18","7,04","0,4","82,5","22,6","80,7","0","0"],
    [23535,"2016-10-07T01:00:00","36","17","8,63","1,5","160,5","22,9","80,1","0","0"],
    [23536,"2016-10-07T02:00:00","40","12","9,28","1,7","93","22,4","81","0","0"],
    [23537,"2016-10-07T03:00:00","29","14","8,46","1","205,9","23","79,9","0","0"],
    [23538,"2016-10-07T04:00:00","44","17","7,57","2,5","137,5","22,7","80,3","0","0"],
    [23539,"2016-10-07T05:00:00","60","19","5,67","1,2","91,4","22,6","80,5","0","0"],
    [23540,"2016-10-07T06:00:00","59","18","5,48","1,3","190,2","22,9","79,5","0","0"],
    [23541,"2016-10-07T07:00:00","100","34","5,81","1,8","93","23,1","79,1","8,2","0"],
    [23542,"2016-10-07T08:00:00","97","37","5,91","2,2","119,3","23,6","77,7","32,4","0"],
    [23543,"2016-10-07T09:00:00","60","27","12,93","0,3","214,4","25,5","70,4","137,6","0"],
    [23544,"2016-10-07T10:00:00","38","13","41,03","1,9","259,7","28","58,1","385,1","0"],
    [23545,"2016-10-07T11:00:00","25","10","48,55","2,6","171","29,6","51,2","414,4","0"],
    [23546,"2016-10-07T12:00:00","16","6","58,26","2,4","153,9","30,8","46,1","450,9","0"],
    [23547,"2016-10-07T13:00:00","41","15","69,74","2,6","156,4","30,9","45,6","283,6","0"],
    [23548,"2016-10-07T14:00:00","54","23","83,97","3,8","112,7","31,4","44,4","280,3","0"],
    [23549,"2016-10-07T15:00:00","48","23","74,96","4,2","72,5","31,1","46,3","176,3","0"],
    [23550,"2016-10-07T16:00:00","21","7","47,76","6,3","303","27,3","57,7","22,6","0"],
    [23551,"2016-10-07T17:00:00","22","8","17,11","4,9","276,3","27,1","60,9","19","0"],
    [23552,"2016-10-07T18:00:00","24","7","12,72","3,6","282,8","26,9","60,9","4,2","0"],
    [23553,"2016-10-07T19:00:00","69","26","7,52","2,2","89,7","27,2","60,9","0","0"],
    [23554,"2016-10-07T20:00:00","59","20","8,91","1,7","163,3","27,1","61,9","0","0"],
    [23555,"2016-10-07T21:00:00","40","9","7,34","3,5","242,8","26,6","59,9","0","0"],
    [23556,"2016-10-07T22:00:00","45","13","5,34","1,6","147,5","25,6","69,8","0","0"],
    [23557,"2016-10-07T23:00:00","68","15","8,58","2,9","107,4","25,6","70,4","0","0"],
    [23558,"2016-10-08T00:00:00","47","8","10,05","2,6","80","25,3","69,3","0","0"],
    [23559,"2016-10-08T01:00:00","38","10","14,82","2,5","27","24,8","71,5","0","0"],
    [23560,"2016-10-08T02:00:00","35","6","17,5","1,9","358,6","24,5","71,9","0","0"],
    [23561,"2016-10-08T03:00:00","36","9","10,85","2","86,9","24,3","73,8","0","0"],
    [23562,"2016-10-08T04:00:00","41","8","7,81","1,9","79,5","24,1","75,6","0","0"],
    [23563,"2016-10-08T05:00:00","32","6","7,12","1,7","107,4","24","76,6","0","0"],
    [23564,"2016-10-08T06:00:00","53","15","5,97","1,7","171,6","24","77,7","0","0"],
    [23565,"2016-10-08T07:00:00","30","12","7,95","2,7","213,6","24,2","77,1","15,4","0"],
    [23566,"2016-10-08T08:00:00","37","13","13,83","2,4","208,5","25,1","73,4","93,8","0"],
    [23567,"2016-10-08T09:00:00","25","12","29,18","3","193,2","27,1","64","232,9","0"],
    [23568,"2016-10-08T10:00:00","15","9","51,45","2,1","193,7","29","54,5","325,2","0"],
    [23569,"2016-10-08T11:00:00","26","10","62,74","1,1","139,5","30,8","48,1","321,7","0"],
    [23570,"2016-10-08T12:00:00","27","8","66,58","2,6","105,6","31,3","45","308,3","0"],
    [23571,"2016-10-08T13:00:00","27","9","67,21","3,4","73,2","32,1","41,8","310,7","0"],
    [23572,"2016-10-08T14:00:00","40","15","85,28","3","46,1","33","40,7","367,4","0"],
    [23573,"2016-10-08T15:00:00","37","19","96,04","3,8","32","33","40,6","245,9","0"],
    [23574,"2016-10-08T16:00:00","48","23","61,48","3,2","47,9","32,4","42,6","82","0"],
    [23575,"2016-10-08T17:00:00","32","10","38,19","3,1","294,4","31,8","42,2","70,7","0"],
    [23576,"2016-10-08T18:00:00","39","7","46,61","6","213,9","27,6","60,5","0","4,32"],
    [23577,"2016-10-08T19:00:00","18","4","30,75","3,4","226","24,3","78,8","0","8,89"],
    [23578,"2016-10-08T20:00:00","44","24","15,86","0,5","2,9","25,4","75,2","0","1,02"],
    [23579,"2016-10-08T21:00:00","69","34","9,62","2,2","156","25","76,4","0","0"],
    [23580,"2016-10-08T22:00:00","40","16","11,81","1,4","191,8","25,4","72,9","0","0"],
    [23581,"2016-10-08T23:00:00","26","15","9,62","2,8","96,1","24,5","79,1","0","3,81"],
    [23582,"2016-10-09T00:00:00","17","10","11,81","2,6","63,4","24,1","80,7","0","3,05"],
    [23583,"2016-10-09T01:00:00","12","6","12,52","2,6","59,4","23,9","81","0","0,25"],
    [23584,"2016-10-09T02:00:00","6","2","12,93","2,6","79,8","23,6","81,8","0","0,51"],
    [23585,"2016-10-09T03:00:00","16","4","13,42","2","182,2","23,6","81,8","0","0"],
    [23586,"2016-10-09T04:00:00","12","3","13,27","1,8","183,1","23,7","81,1","0","0"],
    [23587,"2016-10-09T05:00:00","16","3","11,01","2","189,4","23,9","80,8","0","0"],
    [23588,"2016-10-09T06:00:00","9","2","14,8","2,5","213,9","23,7","78,9","0","0"],
    [23589,"2016-10-09T07:00:00","6","2","18,88","1,7","236,4","23,7","79","7","0"],
    [23590,"2016-10-09T08:00:00","31","14","14,48","1,1","179,8","24,1","77,7","27,6","0"],
    [23591,"2016-10-09T09:00:00","23","10","13,89","1,7","153,4","25","74,8","76,7","0"],
    [23592,"2016-10-09T10:00:00","23","16","23,23","1,9","197,8","26,5","69","196,2","0"],
    [23593,"2016-10-09T11:00:00","15","10","42,84","2,8","193,3","29,2","58,3","507,2","0"],
    [23594,"2016-10-09T12:00:00","9","5","51","2,4","170,6","30,6","51,1","398,3","0"],
    [23595,"2016-10-09T13:00:00","13","6","52,94","3,4","122,3","30,3","51","264,3","0"],
    [23596,"2016-10-09T14:00:00","25","7","74,41","2,6","21","32,3","44,6","424","0"],
    [23597,"2016-10-09T15:00:00","25","9","42,45","4,4","36,9","28","64,4","34,8","4,32"],
    [23598,"2016-10-09T16:00:00","22","5","22,94","1,7","13,8","26,5","67,6","26,3","0"],
    [23599,"2016-10-09T17:00:00","29","5","20,96","2,3","215,1","26,6","68,1","30,3","0"],
    [23600,"2016-10-09T18:00:00","32","10","17,96","4","111,1","26","73,1","6,2","0,51"],
    [23601,"2016-10-09T19:00:00","23","6","14,25","1,3","71,9","25","77,1","0","0,51"],
    [23602,"2016-10-09T20:00:00","21","6","9,32","2","236","25,3","76,9","0","0"],
    [23603,"2016-10-09T21:00:00","38","12","7,73","1,6","204,9","25,5","75,2","0","0"],
    [23604,"2016-10-09T22:00:00","60","18","5,75","2,3","97,7","25,1","77,5","0","0"],
    [23605,"2016-10-09T23:00:00","50","13","4,87","1,2","83,2","24,6","78,5","0","0"],
    [23606,"2016-10-10T00:00:00","45","9","5,53","1","173,4","24,6","78,9","0","0"],
    [23607,"2016-10-10T01:00:00","30","8","7,03","1,4","181","24,3","79,7","0","0"],
    [23608,"2016-10-10T02:00:00","15","8","5","1,5","88,6","23,6","81,7","0","0"],
    [23609,"2016-10-10T03:00:00","20","8","4,91","2,2","84,1","23,3","82,3","0","0"],
    [23610,"2016-10-10T04:00:00","26","12","4,57","0,4","275,3","23,5","81,9","0","0"],
    [23611,"2016-10-10T05:00:00","34","9","4,98","1,6","121,1","23,6","80,4","0","0"],
    [23612,"2016-10-10T06:00:00","62","16","5,16","1,4","154,2","23,7","80,2","0","0"],
    [23613,"2016-10-10T07:00:00","81","38","5,36","1,1","134,9","24","79,7","13,5","0"],
    [23614,"2016-10-10T08:00:00","60","24","5,77","1,4","159,7","24,7","77,7","44,5","0"],
    [23615,"2016-10-10T09:00:00","53","23","12,64","2,4","130,9","26,1","71,6","165,5","0"],
    [23616,"2016-10-10T10:00:00","50","19","31,93","2,1","164,5","28,1","62","252,4","0"],
    [23617,"2016-10-10T11:00:00","39","13","36,3","2","132","29,4","55,7","245,2","0"],
    [23618,"2016-10-10T12:00:00","19","14","37,76","2","142,2","30,1","52,6","259,6","0"],
    [23619,"2016-10-10T13:00:00","27","11","57,89","1,2","83,6","31,4","48,2","303,1","0"],
    [23620,"2016-10-10T14:00:00","33","16","70,25","2,5","53,3","31,6","47,6","271","0"],
    [23621,"2016-10-10T15:00:00","40","23","82,73","2,8","71,3","32,1","46,5","215,7","0"],
    [23622,"2016-10-10T16:00:00","54","16","72,57","3,9","56,5","32,2","47,2","137,7","0"],
    [23623,"2016-10-10T17:00:00","69","19","30,97","4,2","101,9","30,4","55,7","38","0"],
    [23624,"2016-10-10T18:00:00","50","17","29,87","2,6","152,5","29,5","57,7","7,5","0"],
    [23625,"2016-10-10T19:00:00","58","17","13,62","2,1","214,5","29","56,5","0","0"],
    [23626,"2016-10-10T20:00:00","82","31","6,85","0,4","357,3","28","61,1","0","0"],
    [23627,"2016-10-10T21:00:00","83","11","5,93","3,2","104,1","26,6","67,6","0","0"],
    [23628,"2016-10-10T22:00:00","65","8","5,95","2","141,1","26","69,4","0","0"],
    [23629,"2016-10-10T23:00:00","37","4","6,69","1,8","180,1","26,2","68","0","0"],
    [23630,"2016-10-11T00:00:00","53","7","5,69","2,2","195,9","25,9","71","0","0"],
    [23631,"2016-10-11T01:00:00","27","5","14,68","3,1","194,6","25,4","72,3","0","0"],
    [23632,"2016-10-11T02:00:00","19","ND","20,59","2,2","180,8","25,6","71","0","0"],
    [23633,"2016-10-11T03:00:00","20","ND","15,25","1,7","90,4","25,2","73,3","0","0"],
    [23634,"2016-10-11T04:00:00","58","17","7,93","2,5","92,4","24,7","76,5","0","0"],
    [23635,"2016-10-11T05:00:00","62","22","5,99","1,8","119,2","25","75,7","0","0"],
    [23636,"2016-10-11T06:00:00","72","35","6,46","1,1","136,3","25","75,4","0","0"],
    [23637,"2016-10-11T07:00:00","48","12","6,28","1,6","186,1","25,2","75,3","12,6","0"],
    [23638,"2016-10-11T08:00:00","55","22","10,54","1,9","207,8","26,2","70,7","70,6","0"],
    [23639,"2016-10-11T09:00:00","44","14","17,07","2,5","159,7","27,5","64,6","144,5","0"],
    [23640,"2016-10-11T10:00:00","28","10","29,02","3,4","199,2","29,2","59","274,8","0"],
    [23641,"2016-10-11T11:00:00","43","13","28,91","3,6","140,2","29,3","58,3","178,3","0"],
    [23642,"2016-10-11T12:00:00","35","12","54,16","2,7","195,4","30,1","55,7","248,3","0"],
    [23643,"2016-10-11T13:00:00","23","9","74,24","2,4","262,6","30,8","52","242,7","0"],
    [23644,"2016-10-11T14:00:00","31","5","31,1","3,9","333,9","28,7","53,9","36,6","0"],
    [23645,"2016-10-11T15:00:00","20","5","17,62","2,9","31,1","24,8","76,6","14,6","27,18"],
    [23646,"2016-10-11T16:00:00","48","16","13,38","2,6","100,8","25,5","74,9","53,5","0"],
    [23647,"2016-10-11T17:00:00","49","8","13,19","2,4","125,9","26,3","72,9","46,5","0"],
    [23648,"2016-10-11T18:00:00","39","10","12,95","4","195,1","25,8","74,7","7,9","0"],
    [23649,"2016-10-11T19:00:00","45","7","13,32","3,8","213,7","24,9","75","0","0"],
    [23650,"2016-10-11T20:00:00","45","8","8,99","2,9","211,7","24,9","74,6","0","0"],
    [23651,"2016-10-11T21:00:00","43","12","7,48","2,6","218,9","25,1","75,1","0","0"],
    [23652,"2016-10-11T22:00:00","70","24","5,61","1,1","116,3","24,8","76,8","0","0"],
    [23653,"2016-10-11T23:00:00","90","33","4,93","1,9","77,6","24,2","78,6","0","0"],
    [23654,"2016-10-12T00:00:00","58","11","6,36","2,4","98,7","24,1","77,7","0","0"],
    [23655,"2016-10-12T01:00:00","52","21","5,65","0,8","324,4","24,1","78","0","0"],
    [23656,"2016-10-12T02:00:00","63","22","5,04","0,5","72,5","24,2","78","0","0"],
    [23657,"2016-10-12T03:00:00","62","24","6,26","0,8","66,5","24","78,7","0","0"],
    [23658,"2016-10-12T04:00:00","82","29","6,02","0,9","199,4","24,1","78,6","0","0"],
    [23659,"2016-10-12T05:00:00","70","24","5,26","1,1","110,4","23,8","79,7","0","0"],
    [23660,"2016-10-12T06:00:00","97","30","5,55","1,3","105","23,8","79,3","0","0"],
    [23661,"2016-10-12T07:00:00","122","54","6,1","1,2","124,8","24,1","78,3","14,7","0"],
    [23662,"2016-10-12T08:00:00","93","28","6,28","1","48,3","25","74,5","57,6","0"],
    [23663,"2016-10-12T09:00:00","75","30","11,28","1,8","37,9","26","70,6","95,3","0"],
    [23664,"2016-10-12T10:00:00","58","18","17,07","2,8","45,5","27","66,5","163","0"],
    [23665,"2016-10-12T11:00:00","42","14","31,97","2,6","47","28,2","60,3","200","0"],
    [23666,"2016-10-12T12:00:00","44","12","37,48","3,2","69,9","28,9","57,6","221,3","0"],
    [23667,"2016-10-12T13:00:00","25","10","61,27","1,9","46,2","30,4","51,9","333,5","0"],
    [23668,"2016-10-12T14:00:00","30","9","67,49","1,8","35,6","31,7","47,3","363","0"],
    [23669,"2016-10-12T15:00:00","27","10","68,86","2,6","28,6","32,4","43,3","295,7","0"],
    [23670,"2016-10-12T16:00:00","21","5","58,77","3,6","26","32,4","42,7","204","0"],
    [23671,"2016-10-12T17:00:00","45","14","41,33","3,7","49,4","31,8","45,2","54,8","0"],
    [23672,"2016-10-12T18:00:00","49","10","26,96","2,6","6,4","30,3","51,2","0","0"],
    [23673,"2016-10-12T19:00:00","34","6","11,83","2,2","303","29,1","52,1","0","0"],
    [23674,"2016-10-12T20:00:00","91","33","6,87","1,2","55,7","28,3","57,6","0","0"],
    [23675,"2016-10-12T21:00:00","51","14","6,91","1,5","112,9","28","57,6","0","0"],
    [23676,"2016-10-12T22:00:00","49","10","7,1","3,1","86,1","26,9","64","0","0"],
    [23677,"2016-10-12T23:00:00","28","5","8,12","2","360","26,6","63","0","0"],
    [23678,"2016-10-13T00:00:00","38","9","8,77","1,9","344,4","26,8","62,3","0","0"],
    [23679,"2016-10-13T01:00:00","35","6","6,87","2,2","90,3","26,2","66,2","0","0"],
    [23680,"2016-10-13T02:00:00","48","2","5,22","1,3","88,9","24,9","72,3","0","0"],
    [23681,"2016-10-13T03:00:00","69","19","5,89","1,6","344,8","25,2","69,9","0","0"],
    [23682,"2016-10-13T04:00:00","31","11","6,08","0,7","18,4","25,3","69,1","0","0"],
    [23683,"2016-10-13T05:00:00","51","13","5,53","1,3","107,7","24,9","72,1","0","0"],
    [23684,"2016-10-13T06:00:00","93","12","5,36","2,4","94,2","24,2","74,6","0","0"],
    [23685,"2016-10-13T07:00:00","100","17","5,77","1,7","59","24,3","74,9","12","0"],
    [23686,"2016-10-13T08:00:00","88","16","7,93","2,8","352,9","25,8","70,1","95,3","0"],
    [23687,"2016-10-13T09:00:00","81","20","22,02","1,1","252,9","28,2","61,7","226,1","0"],
    [23688,"2016-10-13T10:00:00","40","11","41,8","1,9","194,8","30,4","53,2","258","0"],
    [23689,"2016-10-13T11:00:00","59","18","67,33","0,6","141","31,4","48,5","307,1","0"],
    [23690,"2016-10-13T12:00:00","38","11","73,84","3","103,1","33,3","42","455,2","0"],
    [23691,"2016-10-13T13:00:00","44","14","102,61","2,4","355,5","33,8","40,4","436,8","0"],
    [23692,"2016-10-13T14:00:00","39","13","99,14","3,7","25,3","34,6","38,6","365,2","0"],
    [23693,"2016-10-13T15:00:00","37","11","72,78","5,8","21,7","34,5","38,2","315,3","0"],
    [23694,"2016-10-13T16:00:00","31","7","46,78","6,8","44,1","33,3","39,5","162,5","0"],
    [23695,"2016-10-13T17:00:00","49","8","33,5","4,2","52,2","31,9","46,4","33,7","0"],
    [23696,"2016-10-13T18:00:00","48","6","20,72","2,6","246,7","31","47,3","0","0"],
    [23697,"2016-10-13T19:00:00","68","22","13,03","1,9","125,9","29,3","56,8","0","0"],
    [23698,"2016-10-13T20:00:00","47","12","27,34","3,8","169,6","27,5","57,7","0","0"],
    [23699,"2016-10-13T21:00:00","79","36","22,61","2,9","159,7","26,9","57,5","0","0"],
    [23700,"2016-10-13T22:00:00","48","10","23,16","2,4","177,3","26,4","60,1","0","0"],
    [23701,"2016-10-13T23:00:00","59","22","17,58","1,7","184,5","26,1","62,3","0","0"],
    [23702,"2016-10-14T00:00:00","43","16","14,03","1","151,4","26","63,2","0","0"],
    [23703,"2016-10-14T01:00:00","31","16","16,48","1,9","181","25,8","65","0","0"],
    [23704,"2016-10-14T02:00:00","34","10","10,79","3,2","174,3","25,4","68,8","0","0"],
    [23705,"2016-10-14T03:00:00","20","6","34,73","6,3","197","24,4","70,4","0","1,3"],
    [23706,"2016-10-14T04:00:00","11","ND","38,66","3,1","166,5","23,6","71,5","0","0"],
    [23707,"2016-10-14T05:00:00","14","ND","29,63","2,5","188,5","23,1","73,4","0","0,3"],
    [23708,"2016-10-14T06:00:00","34","16","12,95","1,9","87,1","23","76,2","0","0,3"],
    [23709,"2016-10-14T07:00:00","37","10","13,15","2,5","13,4","23,2","76,9","17,8","0,3"],
    [23710,"2016-10-14T08:00:00","62","22","12,36","3,4","60,2","24,1","74,8","59,5","0"],
    [23711,"2016-10-14T09:00:00","48","9","15,11","2,1","84,9","25,4","70,7","89,6","0"],
    [23712,"2016-10-14T10:00:00","35","7","28,06","2,4","185,3","27,2","64,1","194,7","0"],
    [23713,"2016-10-14T11:00:00","28","11","41,21","3,4","187,4","28,6","58,6","325,4","0"],
    [23714,"2016-10-14T12:00:00","42","14","56,52","3,7","183,6","29,6","54,1","324","0"],
    [23715,"2016-10-14T13:00:00","25","10","70,84","1,4","150,4","30,9","47,8","360,1","0"],
    [23716,"2016-10-14T14:00:00","37","13","99,69","2,6","44,9","31,8","45,1","331,8","0"],
    [23717,"2016-10-14T15:00:00","37","8","87,72","3,9","66,8","31,9","45","211,3","0"],
    [23718,"2016-10-14T16:00:00","44","18","93,02","3,9","45,4","32,7","43,1","207,9","0"],
    [23719,"2016-10-14T17:00:00","42","17","84,77","3,4","38,2","32,6","44,7","89,2","0"],
    [23720,"2016-10-14T18:00:00","60","21","47,69","2,1","11,4","31,3","49,4","5,6","0"],
    [23721,"2016-10-14T19:00:00","24","4","18,64","4,3","291,7","29,9","51,6","0","0"],
    [23722,"2016-10-14T20:00:00","22","ND","9,22","4","290,2","29,4","53,6","0","0"],
    [23723,"2016-10-14T21:00:00","50","17","7,06","3,5","70,8","27,7","62,8","0","0"],
    [23724,"2016-10-14T22:00:00","63","14","6,67","2,4","62,4","26,5","68","0","0"],
    [23725,"2016-10-14T23:00:00","42","10","8,05","2,3","37,7","26,5","66,3","0","0"],
    [23726,"2016-10-15T00:00:00","39","6","7,46","2,5","86,4","26,2","67,1","0","0"],
    [23727,"2016-10-15T01:00:00","42","5","9,22","2,4","56,3","25,5","70,1","0","0"],
    [23728,"2016-10-15T02:00:00","36","6","6,67","1,5","69,2","25,1","71,8","0","0"],
    [23729,"2016-10-15T03:00:00","30","5","7,65","0,9","137,9","25,1","71,5","0","0"],
    [23730,"2016-10-15T04:00:00","38","4","10,2","0,9","44,3","25,6","68,8","0","0"],
    [23731,"2016-10-15T05:00:00","52","6","7,26","1,7","214","25,5","69,8","0","0"],
    [23732,"2016-10-15T06:00:00","57","18","6,28","1,3","209,3","25,6","71,2","0","0"],
    [23733,"2016-10-15T07:00:00","82","25","5,69","3,5","117,6","25,1","74,4","14,9","0"],
    [23734,"2016-10-15T08:00:00","68","17","12,36","1,7","239,8","26,5","68,6","68,9","0"],
    [23735,"2016-10-15T09:00:00","63","17","28,65","1,4","324,2","28,5","60,4","199,5","0"],
    [23736,"2016-10-15T10:00:00","74","24","51,22","1,8","35,4","31","51,6","266,4","0"],
    [23737,"2016-10-15T11:00:00","36","13","53,38","3,9","56,8","31,8","48,8","304,3","0"],
    [23738,"2016-10-15T12:00:00","81","13","51,41","5,4","57,6","32,5","45,8","314,3","0"],
    [23739,"2016-10-15T13:00:00","48","7","60,64","4,4","61,3","33,8","40,2","380,8","0"],
    [23740,"2016-10-15T14:00:00","39","9","76,73","4","65,6","34,4","36,9","298,4","0"],
    [23741,"2016-10-15T15:00:00","34","6","77,32","2,4","324,3","34,5","36,3","264,5","0"],
    [23742,"2016-10-15T16:00:00","24","1","55,93","7,8","294,7","34,2","35,4","217,2","0"],
    [23743,"2016-10-15T17:00:00","41","2","43,37","5,2","258,1","31,2","42,7","29,4","0"],
    [23744,"2016-10-15T18:00:00","50","4","57,69","6","199,3","24,9","62","0,5","7,4"],
    [23745,"2016-10-15T19:00:00","30","7","21,98","3,5","90,1","23","76","0","2,5"],
    [23746,"2016-10-15T20:00:00","29","6","22,57","3","11,8","22,8","79","0","2"],
    [23747,"2016-10-15T21:00:00","27","5","25,51","3,2","351,9","22,9","77,5","0","0"],
    [23748,"2016-10-15T22:00:00","45","12","8,63","1,2","309,9","23,4","76,1","0","0"],
    [23749,"2016-10-15T23:00:00","57","8","7,46","2,8","140,7","23,4","77,1","0","0"],
    [23750,"2016-10-16T00:00:00","36","8","10,79","2,3","211,5","23,1","77,9","0","0"],
    [23751,"2016-10-16T01:00:00","31","6","17,47","3,3","208,9","22,8","78,1","0","0"],
    [23752,"2016-10-16T02:00:00","32","9","17,66","1,3","168,5","22,7","78","0","0"],
    [23753,"2016-10-16T03:00:00","27","9","13,74","1,6","99,5","22,5","78,7","0","0"],
    [23754,"2016-10-16T04:00:00","46","14","7,06","2,9","74,5","22","81,3","0","0"],
    [23755,"2016-10-16T05:00:00","48","13","8,44","1,2","84,4","22,6","79,2","0","0"],
    [23756,"2016-10-16T06:00:00","51","14","9,42","2","301,2","23,1","77,1","0,1","0"],
    [23757,"2016-10-16T07:00:00","49","17","13,15","1,7","268,8","23,5","75,3","21,6","0"],
    [23758,"2016-10-16T08:00:00","77","31","19,04","1,5","160,5","24,7","70,8","86,2","0"],
    [23759,"2016-10-16T09:00:00","52","25","38,66","2,1","168","26,7","63,7","259,3","0"],
    [23760,"2016-10-16T10:00:00","49","15","50,83","2,3","151,9","27,8","60,3","192,1","0"],
    [23761,"2016-10-16T11:00:00","48","19","67,7","1,8","104,8","29,3","54,3","297,1","0"],
    [23762,"2016-10-16T12:00:00","38","21","108,13","2,6","354,2","31,4","47,3","433,7","0"],
    [23763,"2016-10-16T13:00:00","44","19","115,98","2,7","78,1","32,6","43,5","450","0"],
    [23764,"2016-10-16T14:00:00","48","22","103,81","3,5","106,4","33,2","42","330,7","0"],
    [23765,"2016-10-16T15:00:00","39","11","98,71","2,7","84,8","33,4","40,8","242,6","0"],
    [23766,"2016-10-16T16:00:00","34","11","80,85","2,2","79,3","32,8","42","102,6","0"],
    [23767,"2016-10-16T17:00:00","26","6","41,41","5,3","322,1","29,6","50,2","12,6","0"],
    [23768,"2016-10-16T18:00:00","26","4","20,41","4,2","316,1","29,1","52,1","1,5","0"],
    [23769,"2016-10-16T19:00:00","32","7","11,58","1,7","331,1","28,6","54,6","0","0"],
    [23770,"2016-10-16T20:00:00","57","10","7,65","3,7","86,4","26,6","66,3","0","0"],
    [23771,"2016-10-16T21:00:00","35","8","7,65","2,9","96,5","26","68,2","0","0"],
    [23772,"2016-10-16T22:00:00","55","5","6,87","2,6","83,2","25,4","69,9","0","0"],
    [23773,"2016-10-16T23:00:00","41","4","7,46","1,2","104","25,7","67,7","0","0"],
    [23774,"2016-10-17T00:00:00","28","2","9,03","1,2","145,9","25,6","67,4","0","0"],
    [23775,"2016-10-17T01:00:00","30","5","8,24","2","117,8","25,5","69,2","0","0"],
    [23776,"2016-10-17T02:00:00","33","4","7,26","3,4","123,9","25,2","71,8","0","0"],
    [23777,"2016-10-17T03:00:00","13","1","13,54","1,9","69,6","24,6","73,9","0","0"],
    [23778,"2016-10-17T04:00:00","7","ND","14,91","2,3","48,5","24","77,7","0","1,8"],
    [23779,"2016-10-17T05:00:00","9","ND","12,95","1,8","16,5","23,9","77,3","0","0,3"],
    [23780,"2016-10-17T06:00:00","17","ND","12,95","1","319,3","23,9","75,7","0,1","0"],
    [23781,"2016-10-17T07:00:00","31","1","11,38","1,7","232,3","24,5","74,3","36,5","0"],
    [23782,"2016-10-17T08:00:00","41","14","18,84","2,6","175,6","26,5","68,3","133","0"],
    [23783,"2016-10-17T09:00:00","58","15","21,19","2,9","167","27,9","64,4","212,5","0"],
    [23784,"2016-10-17T10:00:00","61","10","39,05","3,4","109,9","29,7","55,5","333,2","0"],
    [23785,"2016-10-17T11:00:00","41","8","56,71","3,5","119,9","31,3","49,4","424,6","0"],
    [23786,"2016-10-17T12:00:00","26","11","73,2","2,5","62","32,7","45","457,9","0"],
    [23787,"2016-10-17T13:00:00","26","12","90,07","3,4","51,6","33,5","42,5","450","0"],
    [23788,"2016-10-17T14:00:00","48","20","108,13","5,1","63,9","34,4","40,3","407","0"],
    [23789,"2016-10-17T15:00:00","34","14","88,7","3,7","66,7","34,1","40,6","187,5","0"],
    [23790,"2016-10-17T16:00:00","32","7","50,43","5","296,8","30,9","44,7","39,3","0"],
    [23791,"2016-10-17T17:00:00","35","14","30,42","3,4","306,8","31,4","44,7","47,1","0"],
    [23792,"2016-10-17T18:00:00","36","9","19,82","2,7","92,5","30,6","50,8","5,9","0"],
    [23793,"2016-10-17T19:00:00","40","7","15,7","2,4","114,6","28,2","61,3","0","0"],
    [23794,"2016-10-17T20:00:00","48","19","12,36","2,1","196","27,7","62,9","0","0"],
    [23795,"2016-10-17T21:00:00","45","13","17,47","2,4","190,4","27,3","61,5","0","0"],
    [23796,"2016-10-17T22:00:00","46","10","13,34","2","184,9","26,6","63,9","0","0"],
    [23797,"2016-10-17T23:00:00","58","14","10,4","3,4","116,9","26,2","66,9","0","0"],
    [23798,"2016-10-18T00:00:00","36","9","10,2","1,7","176,7","25,8","69,7","0","0"],
    [23799,"2016-10-18T01:00:00","49","7","11,77","0,9","226,4","25,4","71","0","0"],
    [23800,"2016-10-18T02:00:00","49","14","9,42","0,8","178,9","25,6","69,8","0","0"],
    [23801,"2016-10-18T03:00:00","54","11","7,26","1,9","103,7","25,2","72,9","0","0"],
    [23802,"2016-10-18T04:00:00","40","4","12,17","3,3","39,3","24,7","75,2","0","0"],
    [23803,"2016-10-18T05:00:00","19","ND","16,48","2,2","353","24,2","76,6","0","0"],
    [23804,"2016-10-18T06:00:00","30","3","11,38","2,8","17,3","24,1","77,9","0","0,3"],
    [23805,"2016-10-18T07:00:00","29","7","8,24","2,1","31,3","24,1","78","1,1","0"],
    [23806,"2016-10-18T08:00:00","30","10","9,42","1,6","42,9","24,2","79,7","42,1","5,6"],
    [23807,"2016-10-18T09:00:00","22","11","18,64","1,9","343,8","25,7","72,6","157,7","0"],
    [23808,"2016-10-18T10:00:00","15","6","33,56","2","69,5","28,6","57,3","262,8","0"],
    [23809,"2016-10-18T11:00:00","16","2","52,2","2,5","64,7","30,1","49,7","325,2","0"],
    [23810,"2016-10-18T12:00:00","8","ND","54,16","2,4","42,5","31,4","45,9","392,4","0"],
    [23811,"2016-10-18T13:00:00","13","ND","54,95","4,2","49,1","31,7","46,2","344,7","0"],
    [23812,"2016-10-18T14:00:00","33","2","53,57","6,1","62,8","31,8","46,6","297,4","0"],
    [23813,"2016-10-18T15:00:00","28","2","55,34","5,8","40,9","31,3","47,8","165,2","0"],
    [23814,"2016-10-18T16:00:00","36","3","45,72","5,1","39,7","30,5","49,8","90,2","0"],
    [23815,"2016-10-18T17:00:00","39","7","47,1","5,5","27,4","30","50,1","84,2","0"],
    [23816,"2016-10-18T18:00:00","41","6","36,7","5,6","33,2","28,5","51","14,5","0"],
    [23817,"2016-10-18T19:00:00","37","9","27,08","4,2","16,6","27,2","53","0","0"],
    [23818,"2016-10-18T20:00:00","36","10","15,9","2,9","38","26,3","61,4","0","0"],
    [23819,"2016-10-18T21:00:00","64","12","8,63","3,1","70,8","25,5","64,8","0","0"],
    [23820,"2016-10-18T22:00:00","34","11","9,62","1","75,7","25,6","63,7","0","0"],
    [23821,"2016-10-18T23:00:00","43","10","11,38","2,6","176,4","25,3","65,4","0","0"],
    [23822,"2016-10-19T00:00:00","35","8","8,44","2,2","135,7","24,7","69","0","0"],
    [23823,"2016-10-19T01:00:00","28","7","10,01","0,8","202,3","24,2","70,6","0","0"],
    [23824,"2016-10-19T02:00:00","49","10","9,03","1,4","141,4","24,2","71","0","0"],
    [23825,"2016-10-19T03:00:00","42","9","10,2","1,7","50,9","23,6","73,5","0","0"],
    [23826,"2016-10-19T04:00:00","60","25","5,69","0,9","16,7","23,3","74,9","0","0"],
    [23827,"2016-10-19T05:00:00","81","27","6,28","0,4","332,9","23,3","75,5","0","0"],
    [23828,"2016-10-19T06:00:00","122","36","6,28","1,4","70,6","22,8","76,7","0","0"],
    [23829,"2016-10-19T07:00:00","89","28","6,48","1,9","50,6","23,3","75,4","19,1","0"],
    [23830,"2016-10-19T08:00:00","60","12","9,03","2,3","24,3","24,1","73,3","66,9","0"],
    [23831,"2016-10-19T09:00:00","59","22","20,21","1","165,8","26,9","62,7","225,5","0"],
    [23832,"2016-10-19T10:00:00","55","18","52,79","1,4","253,4","29","54,7","323,6","0"],
    [23833,"2016-10-19T11:00:00","63","24","85,95","2","107,5","31,1","45,2","391,4","0"],
    [23834,"2016-10-19T12:00:00","51","17","92,04","2","53,3","32,3","41,2","401,6","0"],
    [23835,"2016-10-19T13:00:00","47","21","102,83","2,6","49,5","33,6","38,3","433,7","0"],
    [23836,"2016-10-19T14:00:00","43","16","97,53","3","49,4","34,2","37,4","394,7","0"],
    [23837,"2016-10-19T15:00:00","37","9","87,91","3,5","21,9","34,3","37,6","277,4","0"],
    [23838,"2016-10-19T16:00:00","20","8","69,47","3,8","309,4","34,2","36,7","215,8","0"],
    [23839,"2016-10-19T17:00:00","31","5","46,9","6,5","300,2","32,8","38,5","106,4","0"],
    [23840,"2016-10-19T18:00:00","39","6","22,96","5,8","320,5","30,8","43","11,6","0"],
    [23841,"2016-10-19T19:00:00","42","8","19,23","4,8","308,3","29,8","45,7","0","0"],
    [23842,"2016-10-19T20:00:00","93","24","9,03","3,4","75,1","27,7","56,4","0","0"],
    [23843,"2016-10-19T21:00:00","169","21","6,28","2,7","79,9","26","65,2","0","0"],
    [23844,"2016-10-19T22:00:00","60","7","6,08","1,5","88,8","25,8","66,2","0","0"],
    [23845,"2016-10-19T23:00:00","59","5","7,85","3,3","120,6","25,6","67,1","0","0"],
    [23846,"2016-10-20T00:00:00","27","1","8,63","1,5","77,9","25,5","67,6","0","0"],
    [23847,"2016-10-20T01:00:00","30","4","11,38","0,8","36,4","25,4","67,1","0","0"],
    [23848,"2016-10-20T02:00:00","43","8","9,22","0,9","45,4","24,9","69","0","0"],
    [23849,"2016-10-20T03:00:00","42","8","9,22","1","87","25,1","68,8","0","0"],
    [23850,"2016-10-20T04:00:00","63","3","6,87","2","127,3","24,6","70,9","0","0"],
    [23851,"2016-10-20T05:00:00","49","14","6,48","2","174,4","24,6","71,9","0","0"],
    [23852,"2016-10-20T06:00:00","67","19","5,89","1,8","207,3","24,2","76,4","0","2,5"],
    [23853,"2016-10-20T07:00:00","59","21","5,89","1","161,7","24,2","77,7","15,4","0"],
    [23854,"2016-10-20T08:00:00","67","21","8,05","1,3","157,9","25,5","72,4","58,3","0"],
    [23855,"2016-10-20T09:00:00","77","25","12,17","1,7","113","26,8","67,2","144","0"],
    [23856,"2016-10-20T10:00:00","52","18","31,59","1,5","130,9","29,3","56,8","283,4","0"],
    [23857,"2016-10-20T11:00:00","52","14","56,12","1,5","34,9","31,8","45,9","421,3","0"],
    [23858,"2016-10-20T12:00:00","52","20","84,77","2,6","53,9","32,8","42,1","417,6","0"],
    [23859,"2016-10-20T13:00:00","51","15","69,27","4,5","103,9","32,9","43","320,5","0"],
    [23860,"2016-10-20T14:00:00","41","10","74,57","4,4","82,5","33,5","41,1","357,3","0"],
    [23861,"2016-10-20T15:00:00","48","10","102,24","2,6","36","34,3","39,4","320,3","0"],
    [23862,"2016-10-20T16:00:00","61","16","72,8","4,2","87,9","33,4","42","123,7","0"],
    [23863,"2016-10-20T17:00:00","76","24","61,81","4,5","107,3","32,3","45,7","48,7","0"],
    [23864,"2016-10-20T18:00:00","80","28","56,52","1,4","187,5","31,6","45,9","7,1","0"],
    [23865,"2016-10-20T19:00:00","43","9","21","4,1","296,3","30,1","47,2","0","0"],
    [23866,"2016-10-20T20:00:00","38","6","15,31","2,3","310","29,1","51,4","0","0"],
    [23867,"2016-10-20T21:00:00","59","19","7,85","3,3","96,5","27,1","63,7","0","0"],
    [23868,"2016-10-20T22:00:00","57","8","5,69","2,2","87,9","26,3","66,6","0","0"],
    [23869,"2016-10-20T23:00:00","38","6","6,28","2,5","90","26,1","66,9","0","0"],
    [23870,"2016-10-21T00:00:00","41","6","7,46","1,3","18,8","26","66,1","0","0"],
    [23871,"2016-10-21T01:00:00","40","7","8,24","0,7","99,1","26,1","66,3","0","0"],
    [23872,"2016-10-21T02:00:00","43","6","6,08","2,1","177,3","25,6","69,6","0","0"],
    [23873,"2016-10-21T03:00:00","67","15","6,08","2,6","175,2","25,3","72","0","0"],
    [23874,"2016-10-21T04:00:00","73","13","6,48","2,8","191,1","25,1","71,9","0","0"],
    [23875,"2016-10-21T05:00:00","62","20","6,08","2,1","181,1","25,2","71,3","0","0"],
    [23876,"2016-10-21T06:00:00","81","26","6,08","1,3","130,4","25,2","71,7","0","0"],
    [23877,"2016-10-21T07:00:00","118","32","6,28","2,2","69,3","24,9","73,3","32,2","0"],
    [23878,"2016-10-21T08:00:00","90","30","8,24","1,5","164,6","26,3","67,1","67,1","0"],
    [23879,"2016-10-21T09:00:00","55","14","26,69","2,1","213,1","28,6","57","233,8","0"],
    [23880,"2016-10-21T10:00:00","69","10","40,42","2,4","161,5","30,8","49,3","336,6","0"],
    [23881,"2016-10-21T11:00:00","ND","ND","67,9","2,2","75,2","32,3","44,3","385,1","0"],
    [23882,"2016-10-21T12:00:00","71","24","ND","3,1","12,3","33,2","40,9","384","0"],
    [23883,"2016-10-21T13:00:00","53","16","85,17","3,9","47,7","34,9","36,7","465,3","0"],
    [23884,"2016-10-21T14:00:00","43","15","73,39","5","57,2","35,3","35","354,1","0"],
    [23885,"2016-10-21T15:00:00","38","8","61,23","3","44,2","34,4","36","146","0"],
    [23886,"2016-10-21T16:00:00","35","8","55,93","1,7","342,8","34,5","34,4","144,7","0"],
    [23887,"2016-10-21T17:00:00","34","5","42,58","7,7","291,4","32,8","37,7","98,2","0"],
    [23888,"2016-10-21T18:00:00","35","2","26,49","6,9","297","30,7","43,7","5,4","0"],
    [23889,"2016-10-21T19:00:00","36","1","21","7,1","287,8","29,4","49,1","0","0"],
    [23890,"2016-10-21T20:00:00","44","4","13,15","1,7","354,9","28,8","51,8","0","0"],
    [23891,"2016-10-21T21:00:00","89","23","17,47","1,8","205,5","28,2","55,8","0","0"],
    [23892,"2016-10-21T22:00:00","67","18","14,72","3,2","189","27,7","59,8","0","0"],
    [23893,"2016-10-21T23:00:00","54","18","12,76","2,8","187,6","27,4","60,8","0","0"],
    [23894,"2016-10-22T00:00:00","88","15","7,85","3","131,9","26,6","65,6","0","0"],
    [23895,"2016-10-22T01:00:00","40","11","12,76","2,2","154,3","26,2","66,6","0","0"],
    [23896,"2016-10-22T02:00:00","38","8","10,79","1,9","134,8","25,9","68,4","0","0"],
    [23897,"2016-10-22T03:00:00","28","5","11,77","3","177,4","25,4","72","0","0"],
    [23898,"2016-10-22T04:00:00","20","5","10,79","2,7","144,5","24,7","77,6","0","1,5"],
    [23899,"2016-10-22T05:00:00","41","5","7,46","1,3","149,9","24,3","78,8","0","0"],
    [23900,"2016-10-22T06:00:00","48","7","6,08","1,5","200,4","24,3","79","0","0"],
    [23901,"2016-10-22T07:00:00","54","11","6,48","1,3","154,1","24,6","77,7","14,2","0"],
    [23902,"2016-10-22T08:00:00","52","11","7,85","1,5","127,6","25,5","73,7","58,2","0"],
    [23903,"2016-10-22T09:00:00","50","11","13,74","3,1","115","26,5","68,3","138,7","0"],
    [23904,"2016-10-22T10:00:00","49","16","32,77","1,5","120,7","29,4","56","311,8","0"],
    [23905,"2016-10-22T11:00:00","42","10","63,78","2,5","98,5","31,5","46,9","393,6","0"],
    [23906,"2016-10-22T12:00:00","54","16","65,74","4,3","125,4","31,7","46,3","318,1","0"],
    [23907,"2016-10-22T13:00:00","53","16","88,11","3,8","135,1","33,6","41,1","382,9","0"],
    [23908,"2016-10-22T14:00:00","58","12","63,78","5,3","337,8","30,2","47","55,8","0"],
    [23909,"2016-10-22T15:00:00","23","11","54,16","4,8","9,1","29,2","53,5","91,5","0"],
    [23910,"2016-10-22T16:00:00","31","7","33,56","4","6","29,4","55,2","96,4","0"],
    [23911,"2016-10-22T17:00:00","39","10","20,41","3,1","56,2","30","53","49,1","0"],
    [23912,"2016-10-22T18:00:00","72","10","11,38","2,6","102,6","29,1","55,8","4,3","0"],
    [23913,"2016-10-22T19:00:00","56","9","8,63","1,8","79,8","28,2","57,4","0","0"],
    [23914,"2016-10-22T20:00:00","27","4","17,27","3,3","301,7","28,6","51,3","0","0"],
    [23915,"2016-10-22T21:00:00","59","6","7,26","2,3","69,5","27,7","58,7","0","0"],
    [23916,"2016-10-22T22:00:00","48","8","7,46","3,6","88,1","26,9","62,5","0","0"],
    [23917,"2016-10-22T23:00:00","46","5","7,85","2,1","44,5","26,7","63,4","0","0"],
    [23918,"2016-10-23T00:00:00","25","4","8,05","1,3","58,9","26,2","67,4","0","0,5"],
    [23919,"2016-10-23T01:00:00","37","6","6,28","2,3","161,4","25,9","70,9","0","0"],
    [23920,"2016-10-23T02:00:00","46","5","7,06","3,1","186","25,4","73,1","0","0"],
    [23921,"2016-10-23T03:00:00","14","2","21,78","3,8","208,6","24,8","73,2","0","0"],
    [23922,"2016-10-23T04:00:00","16","ND","22,37","3,4","166,3","24,4","74,3","0","0"],
    [23923,"2016-10-23T05:00:00","11","ND","21,78","3,4","210,6","23,4","79,9","0","14,7"],
    [23924,"2016-10-23T06:00:00","8","ND","22,57","4,7","205,7","22,8","82,5","0","10,9"],
    [23925,"2016-10-23T07:00:00","5","ND","24,92","4,2","194,8","22,5","82,7","2,2","4,6"],
    [23926,"2016-10-23T08:00:00","8","ND","29,24","2,9","261","23","80,5","47,2","0,5"],
    [23927,"2016-10-23T09:00:00","7","ND","38,85","1,4","273,3","24,9","70,9","158,7","0"],
    [23928,"2016-10-23T10:00:00","15","ND","53,57","0,6","64,2","27,7","59,8","271","0"],
    [23929,"2016-10-23T11:00:00","21","ND","62,21","2,3","104,3","28,1","57,4","237,6","0"],
    [23930,"2016-10-23T12:00:00","26","ND","81,63","2,3","156,8","30,3","49,4","425,4","0"],
    [23931,"2016-10-23T13:00:00","16","1","67,11","2,8","148,2","31,3","44,6","340,8","0"],
    [23932,"2016-10-23T14:00:00","11","2","59,46","1,8","141,8","32,4","41,8","371,7","0"],
    [23933,"2016-10-23T15:00:00","21","2","58,67","4","98,3","32,5","40","307,6","0"],
    [23934,"2016-10-23T16:00:00","29","9","49,26","4,7","85,7","31,8","43,1","149,2","0"],
    [23935,"2016-10-23T17:00:00","29","5","48,27","4,6","78,6","32,1","40","100","0"],
    [23936,"2016-10-23T18:00:00","64","17","25,9","3","62,6","30,4","47,1","1,5","0"],
    [23937,"2016-10-23T19:00:00","30","6","23,74","2,8","297,3","29,1","52,6","0","0"],
    [23938,"2016-10-23T20:00:00","58","12","9,81","2,1","326,3","28,7","53,9","0","0"],
    [23939,"2016-10-23T21:00:00","51","9","7,06","3,3","93,3","27,4","61,5","0","0"],
    [23940,"2016-10-23T22:00:00","52","9","8,05","3","76,6","26,6","65,2","0","0"],
    [23941,"2016-10-23T23:00:00","29","6","10,01","2,4","101,2","26,8","61,6","0","0"],
    [23942,"2016-10-24T00:00:00","25","2","9,42","1,2","177,2","26,1","66,3","0","0"],
    [23943,"2016-10-24T01:00:00","31","4","9,62","1,8","142,6","25,9","68,2","0","0"],
    [23944,"2016-10-24T02:00:00","25","3","5,1","2","84,8","25,1","71,8","0","0"],
    [23945,"2016-10-24T03:00:00","29","ND","7,65","1,4","102,6","25,1","69,9","0","0"],
    [23946,"2016-10-24T04:00:00","30","ND","9,03","2,1","104,7","25","69,8","0","0"],
    [23947,"2016-10-24T05:00:00","34","ND","8,24","0,7","299,3","24,8","70,4","0","0"],
    [23948,"2016-10-24T06:00:00","54","7","6,67","0,8","191","25,1","70,2","0","0"],
    [23949,"2016-10-24T07:00:00","79","16","6,28","0,9","164,5","25,4","70,5","16,3","0"],
    [23950,"2016-10-24T08:00:00","67","10","8,44","2,3","139,4","26,1","69","49,7","0"],
    [23951,"2016-10-24T09:00:00","52","11","14,33","1,7","86,2","27,4","62,3","124,5","0"],
    [23952,"2016-10-24T10:00:00","68","16","32,97","1,6","54,9","29,5","54,9","262,9","0"],
    [23953,"2016-10-24T11:00:00","ND","ND","73","1,6","132,7","31,8","46,2","432,2","0"],
    [23954,"2016-10-24T12:00:00","33","8","76,92","3,6","43,2","32,9","40,6","450,6","0"],
    [23955,"2016-10-24T13:00:00","40","9","91,84","2","355,8","34","37,8","384,8","0"],
    [23956,"2016-10-24T14:00:00","27","6","69,47","4,5","14,7","34,2","36","397,8","0"],
    [23957,"2016-10-24T15:00:00","29","5","58,48","3,3","44,1","34,5","34,3","273","0"],
    [23958,"2016-10-24T16:00:00","36","3","48,86","3,7","17,7","33,6","36,2","113,7","0"],
    [23959,"2016-10-24T17:00:00","34","9","45,72","3,5","289,3","32,1","40,5","44,9","0"],
    [23960,"2016-10-24T18:00:00","53","13","54,75","5,6","235,5","29","55,3","11,9","0"],
    [23961,"2016-10-24T19:00:00","56","18","22,96","3,2","257,1","29","52,6","0","0"],
    [23962,"2016-10-24T20:00:00","82","26","8,44","1,4","74,3","28,3","57,9","0","0"],
    [23963,"2016-10-24T21:00:00","38","15","31,59","5,6","223,3","27,1","64,3","0","0"],
    [23964,"2016-10-24T22:00:00","33","10","31,01","4,3","206,1","25,8","70,5","0","0"],
    [23965,"2016-10-24T23:00:00","34","8","22,17","4,3","149,8","25,6","72,4","0","0"],
    [23966,"2016-10-25T00:00:00","12","4","26,88","3,8","183,2","24,6","75,4","0","0"],
    [23967,"2016-10-25T01:00:00","10","ND","32,38","3,7","198,5","24,1","74,5","0","0"],
    [23968,"2016-10-25T02:00:00","10","ND","35,52","2","208,4","24,1","73,1","0","0"],
    [23969,"2016-10-25T03:00:00","14","ND","27,87","1,7","100,1","24","76,1","0","0"],
    [23970,"2016-10-25T04:00:00","15","2","18,64","2,1","40","23,8","78,6","0","0"],
    [23971,"2016-10-25T05:00:00","26","2","17,66","3","43,7","23,5","78,8","0","0"],
    [23972,"2016-10-25T06:00:00","22","3","15,31","2,9","30,4","23,3","79,1","0","0,3"],
    [23973,"2016-10-25T07:00:00","27","4","15,31","1,8","340,4","23,2","78,3","14,7","0,3"],
    [23974,"2016-10-25T08:00:00","39","12","17,07","0,4","346,8","24,5","74,1","71,5","0"],
    [23975,"2016-10-25T09:00:00","30","16","29,83","1,8","197,1","26,2","67","137,6","0"],
    [23976,"2016-10-25T10:00:00","31","8","34,15","1,7","175,6","27,1","63,4","130","0"],
    [23977,"2016-10-25T11:00:00","31","12","37,29","2,6","112,9","27,9","59,6","178,2","0"],
    [23978,"2016-10-25T12:00:00","34","11","64,17","3","22,4","28,4","56,4","160,5","0"],
    [23979,"2016-10-25T13:00:00","38","12","58,67","4,2","6,2","28","59,3","127,2","0"],
    [23980,"2016-10-25T14:00:00","24","7","41,8","4,5","22","28,5","58,9","186,1","0"],
    [23981,"2016-10-25T15:00:00","23","5","47,1","4,7","27,3","29,4","54,1","204,1","0"],
    [23982,"2016-10-25T16:00:00","27","6","39,25","6,4","54,8","29,2","54,3","123,9","0"],
    [23983,"2016-10-25T17:00:00","30","5","32,38","5","50,4","28","57,2","24,7","0"],
    [23984,"2016-10-25T18:00:00","41","8","21,78","3,4","37,6","27","61,4","3,1","0"],
    [23985,"2016-10-25T19:00:00","27","5","18,64","0,9","272","25,7","66,5","0","0,3"],
    [23986,"2016-10-25T20:00:00","32","8","7,85","2,6","191","25,3","70,8","0","0"],
    [23987,"2016-10-25T21:00:00","41","11","10,6","2,3","179,9","25","71,7","0","0"],
    [23988,"2016-10-25T22:00:00","34","9","10,6","1,8","183,3","24,9","71,5","0","0"],
    [23989,"2016-10-25T23:00:00","38","6","10,99","2,9","155","24,5","75,3","0","0"],
    [23990,"2016-10-26T00:00:00","29","5","12,17","1,7","178,3","24,1","76,9","0","0"],
    [23991,"2016-10-26T01:00:00","32","4","8,24","0,8","196,9","24,2","76,4","0","0"],
    [23992,"2016-10-26T02:00:00","30","5","7,85","0,5","190","24,4","74,5","0","0"],
    [23993,"2016-10-26T03:00:00","39","7","6,67","0,9","125,8","24","77,6","0","0"],
    [23994,"2016-10-26T04:00:00","24","4","6,67","1,7","135,3","24","78","0","0"],
    [23995,"2016-10-26T05:00:00","36","4","5,89","1,7","134,6","23,7","79","0","0"],
    [23996,"2016-10-26T06:00:00","41","11","5,69","1,4","162,4","23,4","79,9","0","0"],
    [23997,"2016-10-26T07:00:00","41","15","5,89","1,4","173,7","23,5","79,8","22,5","0"],
    [23998,"2016-10-26T08:00:00","58","17","10,6","0,8","95,5","25,4","71,5","130,9","0"],
    [23999,"2016-10-26T09:00:00","54","13","27,67","1,2","57,1","27,4","61","128,3","0"],
    [24000,"2016-10-26T10:00:00","55","17","44,94","1,9","61,5","28,3","57,1","254,9","0"],
    [24001,"2016-10-26T11:00:00","36","10","58,67","1,4","74,9","30,5","47,5","351,6","0"],
    [24002,"2016-10-26T12:00:00","33","6","61,03","1,8","77","32,5","38,8","408,4","0"],
    [24003,"2016-10-26T13:00:00","34","5","91,05","2,5","2,5","32,6","39,4","411,6","0"],
    [24004,"2016-10-26T14:00:00","43","17","107,34","3,4","351,2","32,7","40,2","286,4","0"],
    [24005,"2016-10-26T15:00:00","43","11","66,92","4,6","0,5","31,8","43,4","113,3","0"],
    [24006,"2016-10-26T16:00:00","31","3","31,4","8,2","295,3","30,9","42,4","149,9","0"],
    [24007,"2016-10-26T17:00:00","26","ND","27,28","8,8","309","29,7","44,6","69,1","0"],
    [24008,"2016-10-26T18:00:00","26","ND","18,84","4,8","315,9","29,1","46,1","12,1","0"],
    [24009,"2016-10-26T19:00:00","49","9","9,81","2,7","7,8","27,8","52","0","0"],
    [24010,"2016-10-26T20:00:00","80","31","8,24","2,5","56,9","26,6","59","0","0"],
    [24011,"2016-10-26T21:00:00","60","14","5,69","0,6","355,2","26,1","62,5","0","0"],
    [24012,"2016-10-26T22:00:00","51","12","6,08","1,9","188","25,8","64,7","0","0"],
    [24013,"2016-10-26T23:00:00","88","10","5,89","2,8","105,8","25,5","65,5","0","0"],
    [24014,"2016-10-27T00:00:00","73","5","7,26","3,1","86,5","25","67,5","0","0"],
    [24015,"2016-10-27T01:00:00","44","ND","7,46","1,8","85,7","24,9","68,1","0","0"],
    [24016,"2016-10-27T02:00:00","29","ND","8,63","1,9","95,8","24,9","67,6","0","0"],
    [24017,"2016-10-27T03:00:00","46","1","8,24","2,2","80,2","24,6","69,1","0","0"],
    [24018,"2016-10-27T04:00:00","31","1","9,42","1,5","345,7","24,3","69,6","0","0"],
    [24019,"2016-10-27T05:00:00","50","12","6,67","0,4","119,5","24,2","70","0","0"],
    [24020,"2016-10-27T06:00:00","97","26","6,28","2,2","91,5","23,5","73,4","0,1","0"],
    [24021,"2016-10-27T07:00:00","91","16","7,06","2,1","50,6","23,6","73,4","35,2","0"],
    [24022,"2016-10-27T08:00:00","69","10","12,36","1,2","49,9","25,6","65,7","134","0"],
    [24023,"2016-10-27T09:00:00","53","16","22,37","2","157,8","28,3","56,1","248,6","0"],
    [24024,"2016-10-27T10:00:00","39","8","41,41","2,6","185,7","29,7","51,2","300,6","0"],
    [24025,"2016-10-27T11:00:00","35","6","57,5","1,8","151,4","31,6","43,9","421,9","0"],
    [24026,"2016-10-27T12:00:00","43","7","72,02","1,1","153,9","33,1","38,8","408,2","0"],
    [24027,"2016-10-27T13:00:00","41","6","82,42","1,7","4,2","33,7","36","432,4","0"],
    [24028,"2016-10-27T14:00:00","44","17","111,46","3,1","15,5","34,5","34,2","385","0"],
    [24029,"2016-10-27T15:00:00","72","24","150,71","2,3","23,7","34,4","35,5","195,4","0"],
    [24030,"2016-10-27T16:00:00","60","25","107,15","2,7","299,9","32,9","39,4","79,9","0"],
    [24031,"2016-10-27T17:00:00","29","ND","49,45","7,6","288,1","32,3","39","79,3","0"],
    [24032,"2016-10-27T18:00:00","37","3","24,53","5,8","297","30,4","44,2","4,8","0"],
    [24033,"2016-10-27T19:00:00","31","4","11,38","5,6","308,9","29,8","45,7","0","0"],
    [24034,"2016-10-27T20:00:00","86","27","7,85","3,4","80,1","27,9","55,2","0","0"],
    [24035,"2016-10-27T21:00:00","96","20","7,06","3,2","79,9","26,8","59,9","0","0"],
    [24036,"2016-10-27T22:00:00","50","3","13,15","3","260,1","27,5","57","0","0"],
    [24037,"2016-10-27T23:00:00","64","10","8,83","3,4","136,7","27","60,9","0","0"],
    [24038,"2016-10-28T00:00:00","27","4","11,19","2,3","121","26,2","64,6","0","0"],
    [24039,"2016-10-28T01:00:00","36","11","13,93","2","156,3","26","66,7","0","0"],
    [24040,"2016-10-28T02:00:00","35","8","11,19","1,7","101,7","25,4","70,1","0","0"],
    [24041,"2016-10-28T03:00:00","71","17","7,65","1,5","96,1","25,1","71,2","0","0"],
    [24042,"2016-10-28T04:00:00","38","ND","7,06","0,9","116,8","24,9","70,8","0","0"],
    [24043,"2016-10-28T05:00:00","52","6","8,83","3","213,5","24,9","73,3","0","0"],
    [24044,"2016-10-28T06:00:00","33","10","11,38","3","182,9","24,8","72,9","0","0"],
    [24045,"2016-10-28T07:00:00","27","6","18,64","3,2","186,3","24,5","70,4","23,3","0"],
    [24046,"2016-10-28T08:00:00","36","4","30,22","4,2","247,6","25,5","66,2","126,4","0"],
    [24047,"2016-10-28T09:00:00","28","5","37,09","2,1","215,5","28,3","54,5","232,8","0"],
    [24048,"2016-10-28T10:00:00","48","13","42,98","4","168,5","29,6","51,8","287,2","0"],
    [24049,"2016-10-28T11:00:00","61","17","56,12","2,7","179,4","30,9","49","385,8","0"],
    [24050,"2016-10-28T12:00:00","ND","ND","79,67","2,3","136,9","32,4","41,8","425,5","0"],
    [24051,"2016-10-28T13:00:00","48","10","98,51","2,1","167,2","33,8","38,7","431,5","0"],
    [24052,"2016-10-28T14:00:00","67","19","101,85","3","100,9","33,8","38,2","269","0"],
    [24053,"2016-10-28T15:00:00","60","22","118,72","3,4","42,6","33,8","38,7","216,8","0"],
    [24054,"2016-10-28T16:00:00","57","20","88,7","3,4","84,5","33,1","39,8","61,6","0"],
    [24055,"2016-10-28T17:00:00","48","16","75,55","4,2","283","30,9","48,2","29,5","0"],
    [24056,"2016-10-28T18:00:00","30","6","19,82","6,1","289,1","30,4","46,7","9,6","0"],
    [24057,"2016-10-28T19:00:00","25","4","12,56","5,2","308,6","29,7","47,9","0","0"],
    [24058,"2016-10-28T20:00:00","98","17","9,81","1,7","40,1","29,2","52","0","0"],
    [24059,"2016-10-28T21:00:00","67","8","6,08","3,4","101","27,3","63,2","0","0"],
    [24060,"2016-10-28T22:00:00","47","7","9,03","3,6","53,7","27,1","62,6","0","0"],
    [24061,"2016-10-28T23:00:00","30","4","11,58","1,6","26,3","27,1","61,6","0","0"],
    [24062,"2016-10-29T00:00:00","37","7","8,24","2","128,1","26,4","66,1","0","11,7"],
    [24063,"2016-10-29T01:00:00","35","9","9,62","2,4","156,2","25,2","75,1","0","0,3"],
    [24064,"2016-10-29T02:00:00","21","20","17,86","1,7","340,5","24,7","75","0","4,3"],
    [24065,"2016-10-29T03:00:00","8","ND","20,02","4,4","22,4","22,7","83,3","0","12,7"],
    [24066,"2016-10-29T04:00:00","6","ND","20,21","4,9","30,1","22,5","82,3","0","6,6"],
    [24067,"2016-10-29T05:00:00","17","ND","14,72","1,4","77,8","22,6","80,4","0","1"],
    [24068,"2016-10-29T06:00:00","19","ND","12,36","2,5","218,1","22,7","80,6","0","0"],
    [24069,"2016-10-29T07:00:00","14","2","12,76","1,8","235,4","23,1","78,3","12,1","0"],
    [24070,"2016-10-29T08:00:00","34","7","10,79","2,7","118,2","24","75,1","66,2","0"],
    [24071,"2016-10-29T09:00:00","38","10","14,52","2,3","116,7","25,1","70,7","133,4","0"],
    [24072,"2016-10-29T10:00:00","38","7","23,74","2,1","124,3","26,4","64,1","203,5","0"],
    [24073,"2016-10-29T11:00:00","39","12","40,82","1,9","106,6","28,2","56,2","285,5","0"],
    [24074,"2016-10-29T12:00:00","34","10","44,94","3,5","90,1","28,8","52,7","316","0"],
    [24075,"2016-10-29T13:00:00","36","12","56,91","3,1","59,9","30,7","45,8","305,9","0"],
    [24076,"2016-10-29T14:00:00","26","13","62,8","2,6","55,3","32","40,7","374,3","0"],
    [24077,"2016-10-29T15:00:00","41","12","59,26","4,5","73,3","31,2","44,5","161","0"],
    [24078,"2016-10-29T16:00:00","49","13","52,98","4,3","85,2","30,2","48","92,9","0"],
    [24079,"2016-10-29T17:00:00","51","17","44,94","3,5","44,9","30,3","49,3","51,7","0"],
    [24080,"2016-10-29T18:00:00","81","16","23,35","2,7","46","29,5","51,9","4","0"],
    [24081,"2016-10-29T19:00:00","38","13","14,91","1,4","358","28,6","54,3","0","0"],
    [24082,"2016-10-29T20:00:00","55","11","7,85","0,7","355,2","27,8","55,9","0","0"],
    [24083,"2016-10-29T21:00:00","59","12","6,48","2,7","90,5","26","66,7","0","0"],
    [24084,"2016-10-29T22:00:00","59","10","7,06","2,1","71","25,1","69","0","0"],
    [24085,"2016-10-29T23:00:00","36","10","9,62","2,1","347,8","25,2","66,9","0","0"],
    [24086,"2016-10-30T00:00:00","53","13","7,85","1,4","95,5","25,4","66,5","0","0"],
    [24087,"2016-10-30T01:00:00","38","8","7,06","1","98","24,6","70,5","0","0"],
    [24088,"2016-10-30T02:00:00","44","5","6,48","2","6,2","24,3","71,9","0","0"],
    [24089,"2016-10-30T03:00:00","49","12","6,08","0,8","69,6","24,4","71,7","0","0"],
    [24090,"2016-10-30T04:00:00","43","7","5,89","2,1","176,5","23,4","76,2","0","0"],
    [24091,"2016-10-30T05:00:00","46","10","6,08","1,2","186,9","23,5","74,8","0","0"],
    [24092,"2016-10-30T06:00:00","49","13","6,08","0,5","269,2","24,1","72,7","0,2","0"],
    [24093,"2016-10-30T07:00:00","83","22","6,48","2,9","115,4","24","74,8","31,8","0"],
    [24094,"2016-10-30T08:00:00","59","13","13,54","2,5","172,9","25,8","67,4","111","0"],
    [24095,"2016-10-30T09:00:00","49","17","26,49","2,9","196,1","27,4","60,9","216,4","0"],
    [24096,"2016-10-30T10:00:00","38","14","44,74","3,1","205,6","29,1","54,4","320,1","0"],
    [24097,"2016-10-30T11:00:00","38","15","77,32","2,2","223,6","30,9","48,8","402,3","0"],
    [24098,"2016-10-30T12:00:00","45","16","91,84","1,5","74","32,4","42,9","386,2","0"],
    [24099,"2016-10-30T13:00:00","43","15","102,83","3,2","29","33,3","39,7","402,4","0"],
    [24100,"2016-10-30T14:00:00","40","13","101,65","2,3","9,5","34,4","37,4","349,3","0"],
    [24101,"2016-10-30T15:00:00","31","16","109,11","3,3","10,4","34,2","38,2","301,1","0"],
    [24102,"2016-10-30T16:00:00","40","12","41,41","4,9","66,5","33","41,2","64,9","0"],
    [24103,"2016-10-30T17:00:00","22","6","34,93","3,8","331,2","32,3","42,1","78,3","0"],
    [24104,"2016-10-30T18:00:00","27","4","26,3","4,7","296,3","30,9","44,9","10,9","0"],
    [24105,"2016-10-30T19:00:00","25","3","17,86","4,7","302,3","29,7","47,5","0","0"],
    [24106,"2016-10-30T20:00:00","17","4","13,93","2,9","333,9","29","51,2","0","0"],
    [24107,"2016-10-30T21:00:00","42","4","7,65","3,5","98,3","27,2","62,9","0","0"],
    [24108,"2016-10-30T22:00:00","32","8","7,65","2","101,9","26,9","63,8","0","0"],
    [24109,"2016-10-30T23:00:00","31","5","8,05","2","164,5","27,4","60,8","0","0"],
    [24110,"2016-10-31T00:00:00","21","5","7,65","1,7","140,2","26,1","67,5","0","0"],
    [24111,"2016-10-31T01:00:00","15","4","7,46","2,2","176,6","25,9","69,2","0","0"],
    [24112,"2016-10-31T02:00:00","21","ND","7,26","1,6","84,4","25,1","71,8","0","0"],
    [24113,"2016-10-31T03:00:00","19","ND","9,42","1","202,1","25,6","69,8","0","0"],
    [24114,"2016-10-31T04:00:00","21","ND","9,22","2,1","147,9","25,6","70,8","0","0"],
    [24115,"2016-10-31T05:00:00","26","1","6,87","1,5","123,7","25,4","71,8","0","0"],
    [24116,"2016-10-31T06:00:00","55","20","6,67","2,5","142,6","25,3","72,1","0,1","0"],
    [24117,"2016-10-31T07:00:00","41","11","6,28","1,3","162,9","25,5","71,5","13,4","0"],
    [24118,"2016-10-31T08:00:00","40","8","10,01","0,9","185,3","26,4","67,3","60,2","0"],
    [24119,"2016-10-31T09:00:00","52","12","19,62","1,8","161,1","28,7","57,8","226,2","0"],
    [24120,"2016-10-31T10:00:00","44","10","40,03","1,6","159","30,4","51","273,5","0"],
    [24121,"2016-10-31T11:00:00","32","6","50,43","1,9","146,8","32","45","373,5","0"],
    [24122,"2016-10-31T12:00:00","32","4","56,12","2,6","126,2","32,5","43,9","295,1","0"],
    [24123,"2016-10-31T13:00:00","39","15","72,02","2,1","103,8","32,6","43","239,6","0"],
    [24124,"2016-10-31T14:00:00","38","6","40,23","5","346,2","30,5","49,3","61,7","0"],
    [24125,"2016-10-31T15:00:00","14","1","32,77","7,3","313,5","30,1","47,6","227,9","0"],
    [24126,"2016-10-31T16:00:00","15","ND","32,18","6,3","312","30,4","43,6","85,3","0"],
    [24127,"2016-10-31T17:00:00","39","5","41,21","6,9","220,1","26,2","65,5","19,8","0,5"],
    [24128,"2016-10-31T18:00:00","29","9","27,67","6,4","230","23,1","79,1","0,2","8,6"],
    [24129,"2016-10-31T19:00:00","19","7","16,29","3,2","222,5","23,1","80,1","0","10,2"],
    [24130,"2016-10-31T20:00:00","28","8","8,63","1,4","191","23,8","78,5","0","0,3"],
    [24131,"2016-10-31T21:00:00","19","9","10,79","2,4","182","24","77,1","0","0"],
    [24132,"2016-10-31T22:00:00","19","7","10,6","1,5","166,4","24","77,7","0","0"],
    [24133,"2016-10-31T23:00:00","35","9","10,2","2,3","142,5","23,9","78,2","0","0"],
    [24134,"2016-11-01T00:00:00","28","5","11,58","1,8","220,2","24,1","76,1","0","0"],
    [24135,"2016-11-01T01:00:00","27","2","10,99","1,6","217,8","24","76,2","0","0"],
    [24136,"2016-11-01T02:00:00","30","1","8,83","1","143,2","23,9","77,5","0","0"],
    [24137,"2016-11-01T03:00:00","39","7","7,26","1,8","120","23,8","79,1","0","0"],
    [24138,"2016-11-01T04:00:00","42","7","7,65","1,2","190,2","23,9","78,1","0","0"],
    [24139,"2016-11-01T05:00:00","61","15","6,67","1,7","104,9","24,1","77,8","0","0"],
    [24140,"2016-11-01T06:00:00","76","19","6,08","1,7","53,2","23,9","78,9","0","0"],
    [24141,"2016-11-01T07:00:00","96","31","6,08","1,9","34,4","24,1","78,7","16,1","0"],
    [24142,"2016-11-01T08:00:00","81","28","7,06","1,7","83,7","24,7","75,6","56,7","0"],
    [24143,"2016-11-01T09:00:00","81","21","11,58","2,8","107,8","25,9","69,4","156,5","0"],
    [24144,"2016-11-01T10:00:00","58","20","24,33","3,3","123,6","28,2","58,9","358,2","0"],
    [24145,"2016-11-01T11:00:00","49","10","46,12","2,4","133,6","29,5","51","343,5","0"],
    [24146,"2016-11-01T12:00:00","49","21","56,12","3","91,3","30,4","49,5","344,8","0"],
    [24147,"2016-11-01T13:00:00","55","20","66,33","2,3","113,5","31,2","46,8","306,1","0"],
    [24148,"2016-11-01T14:00:00","59","17","80,85","2,5","79,1","32","44,2","364,1","0"],
    [24149,"2016-11-01T15:00:00","52","26","106,95","2,4","11,3","32,7","42,1","232,2","0"],
    [24150,"2016-11-01T16:00:00","66","23","80,65","3","54,7","31,8","44,5","53,2","0"],
    [24151,"2016-11-01T17:00:00","48","17","63,19","3","267,9","31,1","45,9","35,2","0"],
    [24152,"2016-11-01T18:00:00","35","5","21,39","5,1","274,6","30","45,3","3","0"],
    [24153,"2016-11-01T19:00:00","59","17","10,01","0,7","124,5","29,3","48,9","0","0"],
    [24154,"2016-11-01T20:00:00","64","19","15,9","4,5","122","26,8","64,5","0","0"],
    [24155,"2016-11-01T21:00:00","65","27","13,93","2,6","118,4","25,4","72,8","0","0"],
    [24156,"2016-11-01T22:00:00","47","10","10,4","1,8","246,5","25,9","66,2","0","0"],
    [24157,"2016-11-01T23:00:00","50","19","7,06","3,1","147,1","25,6","71,9","0","0"],
    [24158,"2016-11-02T00:00:00","37","8","14,33","2,5","156,8","24,8","74,6","0","0"],
    [24159,"2016-11-02T01:00:00","28","7","20,21","2","222,6","24,8","73,6","0","0"],
    [24160,"2016-11-02T02:00:00","25","6","16,09","1,7","142,3","24,7","74,6","0","0"],
    [24161,"2016-11-02T03:00:00","30","6","12,36","2","195,5","24,4","76,6","0","0"],
    [24162,"2016-11-02T04:00:00","34","8","11,38","2","206,5","24,5","75,9","0","0"],
    [24163,"2016-11-02T05:00:00","47","11","8,44","2,2","203,1","24,6","75,1","0","0"],
    [24164,"2016-11-02T06:00:00","44","13","8,24","2,3","225,7","24,6","74,5","0,1","0"],
    [24165,"2016-11-02T07:00:00","48","17","8,83","2,1","215,8","24,8","73,5","6,7","0"],
    [24166,"2016-11-02T08:00:00","53","15","10,79","1,6","186","25,6","70,4","62,1","0"],
    [24167,"2016-11-02T09:00:00","ND","ND","19,82","2,6","130,8","27,5","63,3","217,8","0"],
    [24168,"2016-11-02T10:00:00","38","16","28,45","1,7","148,9","27,8","60,3","121,8","0"],
    [24169,"2016-11-02T11:00:00","56","23","39,84","1,6","59,4","29,2","55,4","183,2","0"],
    [24170,"2016-11-02T12:00:00","50","22","68,68","1,9","8,1","30","52,1","294,9","0"],
    [24171,"2016-11-02T13:00:00","58","24","96,94","1,2","27,4","31,8","44,4","274","0"],
    [24172,"2016-11-02T14:00:00","35","14","99,69","2,1","22,4","33","39,1","430,7","0"],
    [24173,"2016-11-02T15:00:00","49","15","75,75","5,3","74,3","32,1","45,9","300,3","0"],
    [24174,"2016-11-02T16:00:00","25","9","58,28","3,6","39,8","33","40,5","200,3","0"],
    [24175,"2016-11-02T17:00:00","27","11","39,25","4,4","7","31,7","42,6","54,2","0"],
    [24176,"2016-11-02T18:00:00","43","11","17,86","3,5","344,6","30,3","45,7","6,2","0"],
    [24177,"2016-11-02T19:00:00","30","6","11,38","3,8","297,4","29","48,8","0","0"],
    [24178,"2016-11-02T20:00:00","76","24","8,24","2,3","67,2","27,8","55,3","0","0"],
    [24179,"2016-11-02T21:00:00","34","13","8,24","3","97,5","26","64,7","0","0"],
    [24180,"2016-11-02T22:00:00","26","10","7,46","1,1","87,5","25,5","66,8","0","0"],
    [24181,"2016-11-02T23:00:00","38","9","6,67","2,9","219,7","25,8","66,2","0","0"],
    [24182,"2016-11-03T00:00:00","41","9","6,67","2,9","188","25,5","68,8","0","0"],
    [24183,"2016-11-03T01:00:00","20","5","9,03","2,4","188,6","25,3","68,6","0","0"],
    [24184,"2016-11-03T02:00:00","30","1","6,48","1,3","111,5","24,4","73,1","0","0"],
    [24185,"2016-11-03T03:00:00","24","1","7,46","0,5","86,3","24,6","71,5","0","0"],
    [24186,"2016-11-03T04:00:00","31","6","9,42","1,1","93,4","25,1","69,2","0","0"],
    [24187,"2016-11-03T05:00:00","39","6","5,89","2,3","119,1","24,4","73,3","0","0"],
    [24188,"2016-11-03T06:00:00","53","11","5,89","2,4","249,2","24,6","72,9","0","0"],
    [24189,"2016-11-03T07:00:00","60","14","6,87","2,4","246,6","25,5","69,1","15,9","0"],
    [24190,"2016-11-03T08:00:00","58","16","10,2","2,3","183,5","26,4","66,1","56,3","0"],
    [24191,"2016-11-03T09:00:00","40","9","23,16","1,1","150,3","28,3","58,4","233,5","0"],
    [24192,"2016-11-03T10:00:00","26","5","37,68","1,3","119,5","29,9","51,6","220,3","0"],
    [24193,"2016-11-03T11:00:00","23","9","43,37","3,4","110,7","31,4","46,5","356,6","0"],
    [24194,"2016-11-03T12:00:00","29","6","53,77","2,7","95","32,8","42,5","371,3","0"],
    [24195,"2016-11-03T13:00:00","42","9","87,52","3,7","307,9","32,4","43,9","394,2","0"],
    [24196,"2016-11-03T14:00:00","37","11","125,4","3,8","292,8","33,5","40,2","393,6","0"],
    [24197,"2016-11-03T15:00:00","32","7","68,49","4,6","349,3","33,6","38,6","258,9","0"],
    [24198,"2016-11-03T16:00:00","34","5","45,13","4","325,4","33,9","37,4","220,9","0"],
    [24199,"2016-11-03T17:00:00","39","11","37,48","4,1","331,8","33,3","37,3","130,3","0"],
    [24200,"2016-11-03T18:00:00","32","7","22,96","6","290,9","31,4","41,1","27,6","0"],
    [24201,"2016-11-03T19:00:00","29","4","12,36","5,2","301,7","29,8","46,4","0","0"],
    [24202,"2016-11-03T20:00:00","34","3","9,81","1,8","344,3","29,1","50,7","0","0"],
    [24203,"2016-11-03T21:00:00","51","10","7,65","2,5","115","28,4","54,5","0","0"],
    [24204,"2016-11-03T22:00:00","34","6","8,83","0,9","195,1","27,8","58,2","0","0"],
    [24205,"2016-11-03T23:00:00","47","9","10,2","4,2","251,1","27,7","59,7","0","0"],
    [24206,"2016-11-04T00:00:00","34","10","8,44","3,9","213,3","26,6","64,1","0","0"],
    [24207,"2016-11-04T01:00:00","36","5","9,62","4,1","206","26","67,6","0","0"],
    [24208,"2016-11-04T02:00:00","28","ND","13,54","3,7","194,1","25,7","70,3","0","0"],
    [24209,"2016-11-04T03:00:00","17","ND","14,72","3,5","209,8","25,1","72,8","0","0"],
    [24210,"2016-11-04T04:00:00","25","2","14,13","3,4","212,4","25","73,8","0","0"],
    [24211,"2016-11-04T05:00:00","22","5","10,99","2,7","187,8","25,1","74,3","0","0"],
    [24212,"2016-11-04T06:00:00","25","4","9,81","1,3","201,4","25,4","72","0","0"],
    [24213,"2016-11-04T07:00:00","62","17","6,87","3,6","100,5","25,1","75,1","9","0"],
    [24214,"2016-11-04T08:00:00","56","9","11,58","0,7","254,9","26,2","70","62,6","0"],
    [24215,"2016-11-04T09:00:00","43","15","19,62","1,8","45,1","28,2","61,6","202,6","0"],
    [24216,"2016-11-04T10:00:00","31","3","30,02","1,4","359,2","29,3","55,8","229,2","0"],
    [24217,"2016-11-04T11:00:00","39","8","47,49","1,6","145","30,9","49,9","259,7","0"],
    [24218,"2016-11-04T12:00:00","38","11","59,07","2,6","143,7","32,5","44,7","374,5","0"],
    [24219,"2016-11-04T13:00:00","38","12","66,72","2,4","141,5","34","39,5","416,9","0"],
    [24220,"2016-11-04T14:00:00","38","12","70,45","2,3","150,2","34,2","39,4","223,7","0"],
    [24221,"2016-11-04T15:00:00","38","8","66,92","2,8","102,8","34,2","39","217,4","0"],
    [24222,"2016-11-04T16:00:00","43","7","42,98","4,9","8,3","32,3","44,4","62,3","0"],
    [24223,"2016-11-04T17:00:00","34","7","37,48","5,9","295,1","29,1","52,7","30,8","0"],
    [24224,"2016-11-04T18:00:00","48","12","21,39","1,8","228,1","29,4","51,2","1,3","0"],
    [24225,"2016-11-04T19:00:00","65","23","16,88","3,4","125,2","28,3","53,8","0","0"],
    [24226,"2016-11-04T20:00:00","57","18","10,4","2,6","145,9","27,7","60,8","0","0"],
    [24227,"2016-11-04T21:00:00","65","17","13,54","2,3","179,5","27,2","62,8","0","0"],
    [24228,"2016-11-04T22:00:00","62","14","13,74","3,2","210,1","27","61,9","0","0"],
    [24229,"2016-11-04T23:00:00","53","18","11,77","2","173,9","26,5","66,3","0","0"],
    [24230,"2016-11-05T00:00:00","51","17","9,03","0,3","151,6","26,4","67,3","0","0"],
    [24231,"2016-11-05T01:00:00","46","16","11,77","1","196,5","26,2","67,3","0","0"],
    [24232,"2016-11-05T02:00:00","54","17","6,08","2,6","82,4","25","73,4","0","0"],
    [24233,"2016-11-05T03:00:00","46","7","5,89","1,7","124,8","24,8","74,4","0","0"],
    [24234,"2016-11-05T04:00:00","70","17","6,08","1,7","172,7","24,8","74,4","0","0"],
    [24235,"2016-11-05T05:00:00","69","17","5,69","0,5","264,4","24,9","73,5","0","0"],
    [24236,"2016-11-05T06:00:00","101","39","6,67","1,2","101,1","24,9","74","0,4","0"],
    [24237,"2016-11-05T07:00:00","107","31","6,48","1,8","194,3","25,1","73,2","15,6","0"],
    [24238,"2016-11-05T08:00:00","120","28","7,06","2,4","168,3","25,7","71,2","48","0"],
    [24239,"2016-11-05T09:00:00","68","18","20,8","1","237,2","28,4","60,4","232,4","0"],
    [24240,"2016-11-05T10:00:00","46","13","54,95","1,2","351,5","30,2","52,1","279","0"],
    [24241,"2016-11-05T11:00:00","46","15","58,87","3,1","83,9","31,5","47,9","381,8","0"],
    [24242,"2016-11-05T12:00:00","31","10","70,06","2","73,4","32,8","42,5","291,2","0"],
    [24243,"2016-11-05T13:00:00","43","11","94,59","1,4","116","33,6","40,3","350,5","0"],
    [24244,"2016-11-05T14:00:00","52","17","100,67","3","56,9","34,1","38,7","231,9","0"],
    [24245,"2016-11-05T15:00:00","57","22","109,11","2,5","43","34","38,3","131,1","0"],
    [24246,"2016-11-05T16:00:00","48","23","94,39","2,7","88","34,3","37,8","153,4","0"],
    [24247,"2016-11-05T17:00:00","63","12","52,98","3,1","27","33,4","40,4","59,3","0"],
    [24248,"2016-11-05T18:00:00","29","6","33,56","4,6","311,8","32","42,9","15,8","0"],
    [24249,"2016-11-05T19:00:00","31","3","20,6","4,1","304,2","30,7","46,5","0","0"],
    [24250,"2016-11-05T20:00:00","49","11","10,4","3,3","79,6","28,9","55,9","0","0"],
    [24251,"2016-11-05T21:00:00","52","18","8,24","3,9","78,1","28,1","60,3","0","0"],
    [24252,"2016-11-05T22:00:00","35","8","9,22","4,3","71,3","27,5","62,4","0","0"],
    [24253,"2016-11-05T23:00:00","32","5","9,03","2,6","76,4","27,5","61,9","0","0"],
    [24254,"2016-11-06T00:00:00","35","3","7,85","2,1","169,4","27,6","62,6","0","0"],
    [24255,"2016-11-06T01:00:00","44","9","7,06","2,5","140,3","26,9","66,5","0","0"],
    [24256,"2016-11-06T02:00:00","44","7","6,67","1,6","129,3","26,5","68,4","0","0"],
    [24257,"2016-11-06T03:00:00","42","5","8,63","2,2","157,3","26,6","67,4","0","0"],
    [24258,"2016-11-06T04:00:00","42","13","8,63","2,6","141,5","26,8","67,2","0","0"],
    [24259,"2016-11-06T05:00:00","40","8","8,05","2,5","96,1","26,9","65,2","0","0"],
    [24260,"2016-11-06T06:00:00","30","3","9,42","1,8","42,7","26","67","0,1","0"],
    [24261,"2016-11-06T07:00:00","39","2","8,05","1,7","74","26","68,1","28,6","0"],
    [24262,"2016-11-06T08:00:00","28","3","12,76","0,4","342,6","26,6","65,5","50,6","0"],
    [24263,"2016-11-06T09:00:00","44","12","20,6","1,6","213,9","28,7","59,2","140,3","0"],
    [24264,"2016-11-06T10:00:00","47","13","34,34","0,8","86,1","30,8","52,2","192,2","0"],
    [24265,"2016-11-06T11:00:00","34","8","53,18","2","60,7","33,9","40,2","357,4","0"],
    [24266,"2016-11-06T12:00:00","46","6","70,45","4,7","83,3","35,2","36,6","416","0"],
    [24267,"2016-11-06T13:00:00","28","7","80,06","3,5","67,4","35,3","36","334,8","0"],
    [24268,"2016-11-06T14:00:00","43","9","67,11","4,4","58,7","35,3","36,2","207","0"],
    [24269,"2016-11-06T15:00:00","24","7","42,98","6,6","54","35,4","36","265,4","0"],
    [24270,"2016-11-06T16:00:00","23","6","47,29","5,4","45,9","35,2","35,8","178","0"],
    [24271,"2016-11-06T17:00:00","24","2","31,4","5,1","297,9","33,3","38,8","38,9","0"],
    [24272,"2016-11-06T18:00:00","32","ND","25,71","4,8","264,6","31,2","43,6","5","0"],
    [24273,"2016-11-06T19:00:00","54","4","37,68","4,3","190,6","29,9","43,7","0","0"],
    [24274,"2016-11-06T20:00:00","47","13","23,16","4,5","124,6","28,5","52,5","0","0"],
    [24275,"2016-11-06T21:00:00","45","12","20,41","1,8","146,3","26,5","60,9","0","0"],
    [24276,"2016-11-06T22:00:00","53","17","20,8","1,7","168,2","26,2","62,4","0","0"],
    [24277,"2016-11-06T23:00:00","44","9","20,21","1,8","136,4","26,7","60,8","0","0"],
    [24278,"2016-11-07T00:00:00","43","6","13,93","2,5","158,5","26,5","62,9","0","0"],
    [24279,"2016-11-07T01:00:00","39","6","9,42","2,5","150,8","26,2","67,1","0","0"],
    [24280,"2016-11-07T02:00:00","32","5","9,03","2","123,5","25","72,1","0","0"],
    [24281,"2016-11-07T03:00:00","47","6","6,67","1,3","102,9","24,9","72,5","0","0"],
    [24282,"2016-11-07T04:00:00","21","6","9,22","1,5","156,7","24,7","74,5","0","3,6"],
    [24283,"2016-11-07T05:00:00","28","3","8,24","2","126,6","24,3","77,8","0","0,3"],
    [24284,"2016-11-07T06:00:00","36","10","6,48","1,8","163,1","24,5","77,6","0","0,5"],
    [24285,"2016-11-07T07:00:00","41","7","6,67","1,7","187,5","24,3","79,4","14,2","0"],
    [24286,"2016-11-07T08:00:00","29","4","8,24","1,7","159","25,3","75,7","46,7","0"],
    [24287,"2016-11-07T09:00:00","29","5","14,13","1,7","190,3","27,1","68,4","142,5","0"],
    [24288,"2016-11-07T10:00:00","16","6","34,15","3,4","215,8","30,5","54,3","345,9","0"],
    [24289,"2016-11-07T11:00:00","8","5","48,47","1,6","200,8","32,6","44,5","411,6","0"],
    [24290,"2016-11-07T12:00:00","27","6","51,81","2,1","84,1","34,2","38,9","330,2","0"],
    [24291,"2016-11-07T13:00:00","22","4","55,93","2,6","69,6","35,3","35,7","407,8","0"],
    [24292,"2016-11-07T14:00:00","ND","4","ND","2,2","36,6","35","36,2","159,4","0"],
    [24293,"2016-11-07T15:00:00","37","ND","42,58","5,4","325,5","32,4","43,5","115,5","6,1"],
    [24294,"2016-11-07T16:00:00","37","ND","27,08","4,4","79,2","26,5","67,2","16,6","5,8"],
    [24295,"2016-11-07T17:00:00","28","ND","19,82","2,7","97,3","26,4","70,3","32,4","2"],
    [24296,"2016-11-07T18:00:00","32","ND","23,94","1,3","0,6","26,4","69","15,4","0,3"],
    [24297,"2016-11-07T19:00:00","48","ND","11,38","0,3","228,6","26","71,6","0","0"],
    [24298,"2016-11-07T20:00:00","68","ND","8,83","1,7","141,6","25,7","72,1","0","0"],
    [24299,"2016-11-07T21:00:00","75","ND","7,85","2,4","52,6","25,6","72,7","0","0"],
    [24300,"2016-11-07T22:00:00","29","ND","11,58","1,5","39,2","25,2","72,9","0","0"],
    [24301,"2016-11-07T23:00:00","27","ND","8,83","3,3","118,9","25,3","72,5","0","0"],
    [24302,"2016-11-08T00:00:00","19","ND","9,42","0,7","43,5","24,1","77","0","0"],
    [24303,"2016-11-08T01:00:00","19","ND","8,63","2,7","340,5","24,3","76,2","0","0"],
    [24304,"2016-11-08T02:00:00","31","ND","5,1","0,9","32,9","24,3","77,6","0","0"],
    [24305,"2016-11-08T03:00:00","27","ND","7,85","1,6","126,5","24,5","75,8","0","0"],
    [24306,"2016-11-08T04:00:00","39","ND","7,65","1,9","165,4","23,6","78,9","0","0"],
    [24307,"2016-11-08T05:00:00","36","ND","6,67","1,2","270","23,2","81,3","0","0"],
    [24308,"2016-11-08T06:00:00","59","ND","7,06","1,6","178","23,9","77,7","0,1","0"],
    [24309,"2016-11-08T07:00:00","55","ND","6,28","0,5","51,7","24","77,7","24","0"],
    [24310,"2016-11-08T08:00:00","40","ND","10,79","0,9","261,2","25,5","72,4","108","0"],
    [24311,"2016-11-08T09:00:00","57","ND","15,11","0,7","172,2","27,4","64","89","0"],
    [24312,"2016-11-08T10:00:00","51","ND","21,59","2,3","121,6","29,1","59,7","250,1","0"],
    [24313,"2016-11-08T11:00:00","24","ND","39,84","2,1","106,6","32,1","47,5","407,4","0"],
    [24314,"2016-11-08T12:00:00","28","ND","50,63","2,1","101,3","33,8","41,1","431","0"],
    [24315,"2016-11-08T13:00:00","21","ND","52,59","2,6","70,2","34,9","36,4","312,6","0"],
    [24316,"2016-11-08T14:00:00","27","ND","69,86","3","65,6","35,3","35,9","389,2","0"],
    [24317,"2016-11-08T15:00:00","39","ND","103,81","1,9","331","36","33,8","283","0"],
    [24318,"2016-11-08T16:00:00","34","ND","98,9","3,5","357,2","35,4","34,8","139","0"],
    [24319,"2016-11-08T17:00:00","41","ND","55,34","3,9","312,9","33,5","38,8","45,8","0"],
    [24320,"2016-11-08T18:00:00","ND","ND","23,16","5,3","296,6","31,7","43,2","8","0"],
    [24321,"2016-11-08T19:00:00","46","ND","8,83","2,5","9,7","30,1","49,7","0","0"],
    [24322,"2016-11-08T20:00:00","52","ND","8,05","5,1","74","28,4","58,5","0","0"],
    [24323,"2016-11-08T21:00:00","45","ND","10,4","5,1","67,5","27,8","59,9","0","0"],
    [24324,"2016-11-08T22:00:00","38","ND","8,83","3,6","61,1","27,3","62","0","0"],
    [24325,"2016-11-08T23:00:00","29","ND","8,05","0,8","10,6","27","63,1","0","0"],
    [24326,"2016-11-09T00:00:00","24","ND","7,06","1,5","112,1","27,1","63,5","0","0"],
    [24327,"2016-11-09T01:00:00","30","ND","7,85","1,8","173,2","26,3","67,3","0","0"],
    [24328,"2016-11-09T02:00:00","25","ND","8,05","2,6","121,6","26,6","66,8","0","0"],
    [24329,"2016-11-09T03:00:00","27","ND","7,06","3,3","110,7","26,7","66,6","0","0"],
    [24330,"2016-11-09T04:00:00","18","ND","7,65","0,6","106","25,7","69,5","0","0"],
    [24331,"2016-11-09T05:00:00","41","ND","6,08","1,2","195,4","25,3","72","0","0"],
    [24332,"2016-11-09T06:00:00","35","ND","7,06","2","180,2","25,6","71,5","0,5","0"],
    [24333,"2016-11-09T07:00:00","43","ND","7,26","2,7","161,7","25,7","72,2","25,9","0"],
    [24334,"2016-11-09T08:00:00","36","ND","10,6","2,3","204,1","26,9","67,7","84,1","0"],
    [24335,"2016-11-09T09:00:00","35","ND","22,17","2,5","174,2","30","55","173,6","0"],
    [24336,"2016-11-09T10:00:00","41","ND","34,54","2,2","175,2","31,5","49,7","241","0"],
    [24337,"2016-11-09T11:00:00","40","ND","48,86","0,9","27,5","32","46,9","270,4","0"],
    [24338,"2016-11-09T12:00:00","28","ND","59,85","2,1","110,2","34,8","38,5","402,6","0"],
    [24339,"2016-11-09T13:00:00","36","ND","60,83","2,8","77,8","35,7","35,5","362","0"],
    [24340,"2016-11-09T14:00:00","27","ND","88,5","3,4","349,9","36,4","34,5","395,5","0"],
    [24341,"2016-11-09T15:00:00","30","ND","90,66","4,3","17,8","36,8","33,5","280,7","0"],
    [24342,"2016-11-09T16:00:00","42","ND","72,02","5,2","0,6","35,8","35,4","179,7","0"],
    [24343,"2016-11-09T17:00:00","37","ND","39,44","4,5","2,3","35,1","36,9","86,8","0"],
    [24344,"2016-11-09T18:00:00","37","ND","23,35","4,2","312","33,8","39","12,4","0"],
    [24345,"2016-11-09T19:00:00","35","ND","11,97","4,6","303,9","31,4","44,1","0","0"],
    [24346,"2016-11-09T20:00:00","83","ND","6,67","1,5","77","29,9","51,5","0","0"],
    [24347,"2016-11-09T21:00:00","57","ND","6,48","3,3","74,9","28,3","60,4","0","0"],
    [24348,"2016-11-09T22:00:00","50","ND","6,48","2,3","79,8","27,2","63,8","0","0"],
    [24349,"2016-11-09T23:00:00","30","ND","6,67","2,9","90,7","27,5","62","0","0"],
    [24350,"2016-11-10T00:00:00","16","ND","6,28","2","97,2","27","64,2","0","0"],
    [24351,"2016-11-10T01:00:00","29","ND","7,06","2,6","100","26,9","65","0","0"],
    [24352,"2016-11-10T02:00:00","34","ND","8,05","1,6","16,8","25,9","68,6","0","0"],
    [24353,"2016-11-10T03:00:00","30","ND","7,85","0,6","99,7","25,6","70,7","0","0"],
    [24354,"2016-11-10T04:00:00","35","ND","6,08","1,3","126,3","25,7","71,1","0","0"],
    [24355,"2016-11-10T05:00:00","46","ND","5,69","2","110,1","26,3","69","0","0"],
    [24356,"2016-11-10T06:00:00","57","ND","5,69","1,8","198,2","25,8","71,3","0,4","0"],
    [24357,"2016-11-10T07:00:00","66","ND","6,08","1,7","232,9","25,9","71,2","19,7","0"],
    [24358,"2016-11-10T08:00:00","98","ND","6,48","2,7","96,3","27,1","67,7","18,4","0"],
    [24359,"2016-11-10T09:00:00","71","ND","8,44","2,1","97,6","27,8","66,6","121,5","0"],
    [24360,"2016-11-10T10:00:00","54","ND","25,51","1,5","206,4","31","53","267,2","0"],
    [24361,"2016-11-10T11:00:00","69","ND","48,86","1,1","5","33","45,7","262,2","0"],
    [24362,"2016-11-10T12:00:00","62","ND","60,64","2,9","20,5","32,7","46,8","229,1","0"],
    [24363,"2016-11-10T13:00:00","51","ND","56,52","3,7","36,1","34,2","42,3","267,3","0"],
    [24364,"2016-11-10T14:00:00","40","ND","50,24","4,1","29,7","34,7","40","299,5","0"],
    [24365,"2016-11-10T15:00:00","51","ND","25,51","6,1","56,3","32,7","47,1","61,4","0"],
    [24366,"2016-11-10T16:00:00","38","ND","15,5","5","61,6","29,9","58,4","27,5","0"],
    [24367,"2016-11-10T17:00:00","42","ND","9,62","2,6","119,8","29,5","59,3","3,2","0"],
    [24368,"2016-11-10T18:00:00","69","ND","20,41","3,9","183,9","28,3","62,7","1,1","0"],
    [24369,"2016-11-10T19:00:00","41","ND","16,29","3,5","172,8","26,3","69,4","0","0"],
    [24370,"2016-11-10T20:00:00","28","ND","16,48","3,1","157,4","25,4","70,9","0","0"],
    [24371,"2016-11-10T21:00:00","49","ND","11,19","2,6","132,4","25,2","73","0","0"],
    [24372,"2016-11-10T22:00:00","38","ND","14,72","2,2","158,6","25,3","71,4","0","0"],
    [24373,"2016-11-10T23:00:00","37","ND","14,13","2,5","191,7","25","72,7","0","0"],
    [24374,"2016-11-11T00:00:00","27","ND","10,6","1,5","184,4","25,1","74,2","0","0"],
    [24375,"2016-11-11T01:00:00","26","ND","8,63","2","74,2","25,4","73,9","0","0"],
    [24376,"2016-11-11T02:00:00","32","ND","9,42","3,7","72,5","25,2","76,9","0","14,5"],
    [24377,"2016-11-11T03:00:00","34","ND","17,07","2,1","47,3","24","82,8","0","9,9"],
    [24378,"2016-11-11T04:00:00","9","ND","16,48","2,8","90,3","24","84,5","0","6,6"],
    [24379,"2016-11-11T05:00:00","8","ND","13,34","2,6","80,4","23,9","84,1","0","11,2"],
    [24380,"2016-11-11T06:00:00","37","ND","9,42","1,4","49,7","23,4","84,5","0","3,8"],
    [24381,"2016-11-11T07:00:00","14","ND","8,83","2,7","355,1","23,5","84,8","3","0,3"],
    [24382,"2016-11-11T08:00:00","24","ND","11,58","3,5","21,3","23,8","81,6","7,9","0"],
    [24383,"2016-11-11T09:00:00","37","ND","14,52","3,5","57,7","24,3","76,4","32,8","0"],
    [24384,"2016-11-11T10:00:00","33","ND","16,09","2,4","44,4","24,6","75,8","67,1","0"],
    [24385,"2016-11-11T11:00:00","24","ND","29,44","2,2","3,6","27,1","65,8","242,2","0"],
    [24386,"2016-11-11T12:00:00","20","ND","38,27","3,5","18","28,8","54,9","161,1","0"],
    [24387,"2016-11-11T13:00:00","18","ND","28,85","4,3","15,5","26,8","65,6","55","2"],
    [24388,"2016-11-11T14:00:00","16","ND","21,98","4","5,9","25,7","73,2","34,1","2,8"],
    [24389,"2016-11-11T15:00:00","22","ND","23,16","3,5","22,7","25,2","74,2","58,5","0,5"],
    [24390,"2016-11-11T16:00:00","13","ND","25,9","3,3","14,2","25,5","70,1","52","0"],
    [24391,"2016-11-11T17:00:00","30","ND","19,23","2,6","28,4","25,3","70,2","23,9","0"],
    [24392,"2016-11-11T18:00:00","55","ND","15,31","2,4","356,5","24,9","71,9","4,8","0"],
    [24393,"2016-11-11T19:00:00","54","ND","13,34","2,2","341,4","24,3","74,9","0","0"],
    [24394,"2016-11-11T20:00:00","73","ND","10,99","1,2","91,4","23,7","77,8","0","0"],
    [24395,"2016-11-11T21:00:00","69","ND","7,46","0,9","163,2","23,8","77,9","0","0"],
    [24396,"2016-11-11T22:00:00","79","ND","7,85","1,1","229","23,5","79,7","0","0"],
    [24397,"2016-11-11T23:00:00","96","ND","7,46","1,6","105,4","23,8","78,8","0","0"],
    [24398,"2016-11-12T00:00:00","83","ND","7,26","0,6","11,5","23,2","81,2","0","0"],
    [24399,"2016-11-12T01:00:00","82","ND","7,65","0,8","348,3","23,3","80,4","0","0"],
    [24400,"2016-11-12T02:00:00","59","ND","7,85","1","48,5","23,1","80,8","0","0"],
    [24401,"2016-11-12T03:00:00","47","ND","7,26","1","324,7","22,5","83,3","0","0"],
    [24402,"2016-11-12T04:00:00","47","ND","7,46","1","311,1","22,7","81,8","0","0"],
    [24403,"2016-11-12T05:00:00","48","ND","7,46","1,7","120","22,8","80","0","0"],
    [24404,"2016-11-12T06:00:00","89","ND","7,26","1,9","85,2","23","80","0,1","0"],
    [24405,"2016-11-12T07:00:00","74","ND","7,26","1,5","8,7","22,5","82,1","14,4","0"],
    [24406,"2016-11-12T08:00:00","87","ND","9,03","2","14","23,6","79,9","81,5","0"],
    [24407,"2016-11-12T09:00:00","98","ND","16,29","1,8","15,5","25,5","70,6","110,8","0"],
    [24408,"2016-11-12T10:00:00","69","ND","36,3","1,9","354,6","27,6","61","291,1","0"],
    [24409,"2016-11-12T11:00:00","60","ND","56,71","1,8","69,3","30,2","51,2","410,9","0"],
    [24410,"2016-11-12T12:00:00","41","ND","65,35","2,1","61,9","31,6","45","242,1","0"],
    [24411,"2016-11-12T13:00:00","64","ND","72,61","2,4","74,2","32,2","44,2","250,1","0"],
    [24412,"2016-11-12T14:00:00","61","ND","79,48","2,5","70,7","33,4","41,6","354,9","0"],
    [24413,"2016-11-12T15:00:00","57","ND","105,18","2,6","14,8","34,2","39,5","279,3","0"],
    [24414,"2016-11-12T16:00:00","47","ND","71,82","4,6","14,6","33,4","40,1","172","0"],
    [24415,"2016-11-12T17:00:00","51","ND","82,03","4,3","16,8","33,6","41,1","89,1","0"],
    [24416,"2016-11-12T18:00:00","38","ND","21,19","3,3","330,3","31","46,8","3,2","0"],
    [24417,"2016-11-12T19:00:00","24","ND","13,34","3,3","295,1","29,6","50,5","0","0"],
    [24418,"2016-11-12T20:00:00","52","ND","9,81","2,8","97,9","28,6","58,5","0","0"],
    [24419,"2016-11-12T21:00:00","54","ND","8,83","2,8","104,9","27,7","62,6","0","0"],
    [24420,"2016-11-12T22:00:00","52","ND","8,63","2,2","104,9","27,3","63,8","0","0"],
    [24421,"2016-11-12T23:00:00","48","ND","9,03","3,2","202,8","27,3","64,2","0","0"],
    [24422,"2016-11-13T00:00:00","34","ND","11,58","2,4","195","26,6","71,2","0","10,9"],
    [24423,"2016-11-13T01:00:00","21","ND","13,93","3,2","140,2","25,2","78,2","0","0,8"],
    [24424,"2016-11-13T02:00:00","19","ND","17,27","3,3","187,4","25,2","77,7","0","0"],
    [24425,"2016-11-13T03:00:00","26","ND","13,74","1,4","118,7","24,9","77,2","0","0,8"],
    [24426,"2016-11-13T04:00:00","22","ND","20,8","3,1","359,5","24,6","70,2","0","0,5"],
    [24427,"2016-11-13T05:00:00","25","ND","14,91","1,2","57,1","23,5","76,6","0","0"],
    [24428,"2016-11-13T06:00:00","44","ND","10,2","2,6","132,8","23,8","76,4","0","0"],
    [24429,"2016-11-13T07:00:00","47","ND","9,81","1,4","169,7","23,7","77,4","19,9","0"],
    [24430,"2016-11-13T08:00:00","40","ND","16,09","1,4","183","25,6","70","132,4","0"],
    [24431,"2016-11-13T09:00:00","47","ND","25,12","1,7","222,8","28,2","60,9","210,2","0"],
    [24432,"2016-11-13T10:00:00","26","ND","41,6","3,7","233","30,2","51,8","349,1","0"],
    [24433,"2016-11-13T11:00:00","9","ND","52,79","1,7","147","32","43","408,1","0"],
    [24434,"2016-11-13T12:00:00","21","ND","57,3","2,5","115,1","33,5","38,6","439,8","0"],
    [24435,"2016-11-13T13:00:00","29","ND","61,23","3","82,5","34,4","37,7","430,6","0"],
    [24436,"2016-11-13T14:00:00","30","ND","68,88","2,6","71,2","35,4","36,1","427,8","0"],
    [24437,"2016-11-13T15:00:00","44","ND","81,24","2,5","45,6","35,3","36,8","210","0"],
    [24438,"2016-11-13T16:00:00","47","ND","86,93","3,7","72,6","34,6","38,3","157,9","0"],
    [24439,"2016-11-13T17:00:00","47","ND","75,75","3,3","68,8","34,4","39,3","81,3","0"],
    [24440,"2016-11-13T18:00:00","21","ND","29,04","4,4","297,1","32,9","40,4","24,6","0"],
    [24441,"2016-11-13T19:00:00","27","ND","18,64","5,3","313","30,4","46,1","0","0"],
    [24442,"2016-11-13T20:00:00","29","ND","13,54","2,9","316,3","29,5","49,6","0","0"],
    [24443,"2016-11-13T21:00:00","46","ND","9,62","3,7","75,2","28","60,2","0","0"],
    [24444,"2016-11-13T22:00:00","38","ND","8,83","3,3","79,9","26,7","65,1","0","0"],
    [24445,"2016-11-13T23:00:00","35","ND","9,03","2,9","78,8","26,3","65,8","0","0"],
    [24446,"2016-11-14T00:00:00","24","ND","11,19","2,6","69","26,6","65,3","0","0"],
    [24447,"2016-11-14T01:00:00","17","ND","9,62","2,4","106,6","26,3","67,6","0","0"],
    [24448,"2016-11-14T02:00:00","22","ND","10,79","3,1","87,1","26,3","66,8","0","0"],
    [24449,"2016-11-14T03:00:00","21","ND","11,19","2,2","126,5","25,7","69,9","0","0"],
    [24450,"2016-11-14T04:00:00","16","ND","12,95","1,6","73","25,2","71","0","0"],
    [24451,"2016-11-14T05:00:00","39","ND","10,2","1,6","328,8","25,2","71,6","0","0"],
    [24452,"2016-11-14T06:00:00","44","ND","7,46","2,1","26,9","25,3","72,7","0","0"],
    [24453,"2016-11-14T07:00:00","35","ND","8,44","3,2","11,9","25,3","72,4","4,6","2,8"],
    [24454,"2016-11-14T08:00:00","22","ND","19,04","3,3","49,7","24,5","73,2","48,3","0"],
    [24455,"2016-11-14T09:00:00","27","ND","27,87","1,6","323,7","25,5","68,4","145,4","0"],
    [24456,"2016-11-14T10:00:00","28","ND","44,55","2","115,6","29,4","49,9","310,5","0"],
    [24457,"2016-11-14T11:00:00","22","ND","42,98","6,1","87,1","31","45,3","252,1","0"],
    [24458,"2016-11-14T12:00:00","22","ND","49,06","4,1","73,9","31,6","43,2","359,5","0"],
    [24459,"2016-11-14T13:00:00","36","ND","59,07","2,7","50,8","32,1","41,8","247,2","0"],
    [24460,"2016-11-14T14:00:00","20","ND","55,73","6,1","4,2","32,5","41,3","311,5","0"],
    [24461,"2016-11-14T15:00:00","20","ND","46,7","4,7","25,3","31,3","42,4","176","0"],
    [24462,"2016-11-14T16:00:00","18","ND","44,94","4,3","38,6","31,4","40","115,2","0"],
    [24463,"2016-11-14T17:00:00","34","ND","32,38","5,3","58,3","30,9","44,3","52,2","0"],
    [24464,"2016-11-14T18:00:00","49","ND","21,39","4,1","58,5","28,7","52,7","5,4","0"],
    [24465,"2016-11-14T19:00:00","29","ND","20,41","4,8","31,8","27,7","54,6","0","0"],
    [24466,"2016-11-14T20:00:00","27","ND","21,98","4,2","24,7","26,5","58,1","0","0"],
    [24467,"2016-11-14T21:00:00","28","ND","16,09","1,8","307,7","26,2","62,3","0","0,3"],
    [24468,"2016-11-14T22:00:00","6","ND","14,52","3,5","271,1","25,4","70,5","0","1,5"],
    [24469,"2016-11-14T23:00:00","6","ND","11,38","1","318,3","24","76,7","0","8,9"],
    [24470,"2016-11-15T00:00:00","14","ND","11,77","2","148,9","23,8","80","0","6,4"],
    [24471,"2016-11-15T01:00:00","11","ND","14,13","1,7","59","23,8","78,7","0","0,5"],
    [24472,"2016-11-15T02:00:00","19","ND","14,13","2,8","69,2","24","77","0","1"],
    [24473,"2016-11-15T03:00:00","15","ND","11,19","1,9","19,2","23,4","79","0","0"],
    [24474,"2016-11-15T04:00:00","18","ND","12,36","1,4","9,7","23,3","78,7","0","0"],
    [24475,"2016-11-15T05:00:00","23","ND","11,77","0,7","221","22,9","79,2","0","0"],
    [24476,"2016-11-15T06:00:00","51","ND","7,85","1,7","128,4","23,1","79,9","0,1","0"],
    [24477,"2016-11-15T07:00:00","49","ND","8,44","2","150,6","23,4","79,5","11,3","0"],
    [24478,"2016-11-15T08:00:00","42","ND","11,19","1,7","130","24,3","75,5","74,4","0"],
    [24479,"2016-11-15T09:00:00","32","ND","19,23","0,9","164","26,8","63,3","168,8","0"],
    [24480,"2016-11-15T10:00:00","30","ND","27,28","1","147,9","27,9","58,6","188,8","0"],
    [24481,"2016-11-15T11:00:00","32","ND","39,25","1,9","72,5","30","48,7","380,6","0"],
    [24482,"2016-11-15T12:00:00","31","ND","58,09","2,3","63,5","31,6","43,8","343,7","0"],
    [24483,"2016-11-15T13:00:00","37","ND","62,6","2","57,1","32,3","41,2","212,4","0"],
    [24484,"2016-11-15T14:00:00","39","ND","55,54","3,2","334,1","30,4","49,9","102,3","0,5"],
    [24485,"2016-11-15T15:00:00","35","ND","28,45","3,2","319,4","27,4","62,1","68,1","0,5"],
    [24486,"2016-11-15T16:00:00","36","ND","54,75","2,7","247,8","28,5","56,2","149,5","0"],
    [24487,"2016-11-15T17:00:00","25","ND","60,64","2,4","200,3","32,3","42","114","0"],
    [24488,"2016-11-15T18:00:00","49","ND","41,21","2","183,8","30,7","45,8","9,9","0"],
    [24489,"2016-11-15T19:00:00","87","ND","20,02","2,3","212,7","28,4","54,5","0","0"],
    [24490,"2016-11-15T20:00:00","101","ND","10,79","2","233,3","27,5","61,2","0","0"],
    [24491,"2016-11-15T21:00:00","101","ND","8,24","1,1","259,2","26,1","64,8","0","0"],
    [24492,"2016-11-15T22:00:00","48","ND","7,85","2,4","302,3","26","58,4","0","0"],
    [24493,"2016-11-15T23:00:00","104","ND","7,85","1,1","74,1","25,6","66,6","0","0"],
    [24494,"2016-11-16T00:00:00","66","ND","7,46","1,5","216,1","24,3","74,8","0","0"],
    [24495,"2016-11-16T01:00:00","58","ND","7,65","0,7","251,2","23,7","77,8","0","0"],
    [24496,"2016-11-16T02:00:00","50","ND","7,85","1,4","63,7","23,9","77,3","0","0"],
    [24497,"2016-11-16T03:00:00","60","ND","7,26","1,8","80,6","24,2","75,7","0","0"],
    [24498,"2016-11-16T04:00:00","63","ND","7,85","1,3","27,7","24","76,4","0","0"],
    [24499,"2016-11-16T05:00:00","49","ND","7,85","2,2","330,5","23,8","74,7","0","0"],
    [24500,"2016-11-16T06:00:00","75","ND","7,85","1,8","191","23,5","76,1","0","0"],
    [24501,"2016-11-16T07:00:00","62","ND","7,85","2,1","182,6","23,5","76,8","24,2","0"],
    [24502,"2016-11-16T08:00:00","55","ND","12,36","1,7","201,6","25,7","67,9","136","0"],
    [24503,"2016-11-16T09:00:00","54","ND","21,59","2,5","86","29,2","54,1","224,2","0"],
    [24504,"2016-11-16T10:00:00","49","ND","30,81","2,8","87,8","30,4","51,3","255,7","0"],
    [24505,"2016-11-16T11:00:00","41","ND","48,67","2,5","11,1","30,9","49,3","269,5","0"],
    [24506,"2016-11-16T12:00:00","50","ND","66,72","4,5","322,3","30,5","51,8","125,4","0,8"],
    [24507,"2016-11-16T13:00:00","44","17","84,77","3,7","301,6","29,4","52,2","157","0"],
    [24508,"2016-11-16T14:00:00","31","11","82,03","4,2","284","30,8","45,5","170,4","0"],
    [24509,"2016-11-16T15:00:00","15","5","48,86","5","275,3","31,5","41,9","140,7","0"],
    [24510,"2016-11-16T16:00:00","26","3","39,64","3","208,7","31,1","41,9","131,1","0"],
    [24511,"2016-11-16T17:00:00","32","8","39,05","3,3","183,7","31,1","43,8","50,1","0"],
    [24512,"2016-11-16T18:00:00","62","23","32,18","3,4","235,3","29,3","49,9","7,9","0"],
    [24513,"2016-11-16T19:00:00","73","24","14,13","0,8","67,3","28,1","54,9","0","0"],
    [24514,"2016-11-16T20:00:00","88","33","9,81","2","92,6","27,5","60,2","0","0"],
    [24515,"2016-11-16T21:00:00","62","15","8,44","1,6","91,5","26,2","66,7","0","0"],
    [24516,"2016-11-16T22:00:00","65","9","8,05","2,1","95,3","25,5","69,1","0","0"],
    [24517,"2016-11-16T23:00:00","53","12","7,65","2,2","44,1","24,8","71,9","0","0"],
    [24518,"2016-11-17T00:00:00","41","6","8,05","0,8","14,7","24,2","74,3","0","0"],
    [24519,"2016-11-17T01:00:00","33","4","8,05","0,7","222,8","24","75,7","0","0"],
    [24520,"2016-11-17T02:00:00","32","3","7,26","2","132,1","24,2","75,2","0","0"],
    [24521,"2016-11-17T03:00:00","40","6","7,46","0,4","146","23,8","77,1","0","0"],
    [24522,"2016-11-17T04:00:00","35","7","7,46","0,4","154,6","23,9","77,1","0","0"],
    [24523,"2016-11-17T05:00:00","45","8","7,65","1,2","67,9","24,1","76,1","0","0"],
    [24524,"2016-11-17T06:00:00","63","17","7,46","1,7","107,7","24,1","76,4","0","0"],
    [24525,"2016-11-17T07:00:00","68","17","7,85","2","106,1","24,4","76","17,2","0"],
    [24526,"2016-11-17T08:00:00","58","10","10,01","1,4","15,6","25,5","72,4","82,3","0"],
    [24527,"2016-11-17T09:00:00","55","13","22,37","1,3","304,4","27,4","62,7","154,3","0"],
    [24528,"2016-11-17T10:00:00","58","23","39,25","2,8","104,3","30,7","49,7","296,1","0"],
    [24529,"2016-11-17T11:00:00","41","8","52","2,7","85,5","32,3","44,7","365,4","0"],
    [24530,"2016-11-17T12:00:00","27","4","50,63","2,7","64,7","33,7","39,9","442,9","0"],
    [24531,"2016-11-17T13:00:00","21","ND","53,38","1,5","33,9","34,3","37,4","311,1","0"],
    [24532,"2016-11-17T14:00:00","28","5","71,63","2","313,9","34,5","37,5","259,3","0"],
    [24533,"2016-11-17T15:00:00","41","11","67,7","3,9","326,5","32,4","44,5","148,9","0"],
    [24534,"2016-11-17T16:00:00","27","4","46,9","3,9","12,1","34,1","38","162,8","0"],
    [24535,"2016-11-17T17:00:00","23","ND","33,75","5,1","297,8","34,1","36,8","148","0"],
    [24536,"2016-11-17T18:00:00","28","1","21,19","3,2","333,7","32,8","39,3","22,1","0"],
    [24537,"2016-11-17T19:00:00","61","13","10,99","4,3","74,2","29,6","51,9","0","0"],
    [24538,"2016-11-17T20:00:00","63","17","9,42","3,3","85","27,7","59,9","0","0"],
    [24539,"2016-11-17T21:00:00","42","5","9,62","3,4","78,5","26,9","63,5","0","0"],
    [24540,"2016-11-17T22:00:00","43","5","9,22","1,9","44,5","26","66,7","0","0"],
    [24541,"2016-11-17T23:00:00","35","5","10,4","1,4","151,1","25,8","66,4","0","0"],
    [24542,"2016-11-18T00:00:00","63","18","8,44","1,4","152,6","25,9","67,2","0","0"],
    [24543,"2016-11-18T01:00:00","30","1","8,24","2","99,5","26,4","66,5","0","0"],
    [24544,"2016-11-18T02:00:00","25","ND","10,4","1,6","187,7","25,6","70,4","0","0"],
    [24545,"2016-11-18T03:00:00","36","ND","9,03","2,4","120,3","25,6","71,8","0","0"],
    [24546,"2016-11-18T04:00:00","36","ND","8,24","1,2","157,1","24,6","75,8","0","0"],
    [24547,"2016-11-18T05:00:00","32","5","7,26","0,2","175,6","24,1","77,4","0","0"],
    [24548,"2016-11-18T06:00:00","74","26","7,65","2","68,5","24,7","76,1","0","0"],
    [24549,"2016-11-18T07:00:00","81","26","8,24","2,1","71,1","25,1","74,4","7,2","0"],
    [24550,"2016-11-18T08:00:00","71","20","8,83","1,9","84","25,8","72,3","56,3","0"],
    [24551,"2016-11-18T09:00:00","54","20","14,13","1,6","40","27,3","65,8","149,9","0"],
    [24552,"2016-11-18T10:00:00","56","14","21,98","1,9","68,2","29,8","55,6","190,8","0"],
    [24553,"2016-11-18T11:00:00","38","11","43,96","1,7","110","31,4","48,7","277,9","0"],
    [24554,"2016-11-18T12:00:00","36","6","63,19","2,2","69","33,9","41,1","447,7","0"],
    [24555,"2016-11-18T13:00:00","35","10","62,4","3,6","70,6","35","38,2","424,5","0"],
    [24556,"2016-11-18T14:00:00","48","17","51,22","3","51,9","33,2","44,3","58,2","0"],
    [24557,"2016-11-18T15:00:00","46","16","39,25","2,9","230,9","30,3","56,5","49","0"],
    [24558,"2016-11-18T16:00:00","34","4","29,63","3,4","344,3","31,6","44,4","113,1","0"],
    [24559,"2016-11-18T17:00:00","33","2","20,6","5,3","328,3","31,8","41,7","48,3","0"],
    [24560,"2016-11-18T18:00:00","34","ND","17,47","3,9","313","30,3","45,9","8,7","0"],
    [24561,"2016-11-18T19:00:00","31","1","14,33","2,4","326,1","29,2","50,5","0","0"],
    [24562,"2016-11-18T20:00:00","44","12","13,54","4,2","255,1","28,6","56,9","0","0"],
    [24563,"2016-11-18T21:00:00","50","7","20,02","3,8","217,2","27,4","64,1","0","0"],
    [24564,"2016-11-18T22:00:00","37","3","17,86","3,5","205,9","26,8","65,1","0","0"],
    [24565,"2016-11-18T23:00:00","28","1","20,21","5,7","232,9","26,6","65,2","0","0"],
    [24566,"2016-11-19T00:00:00","5","ND","18,05","4,6","238,2","25,5","70","0","0"],
    [24567,"2016-11-19T01:00:00","17","ND","17,27","2,1","180,8","24,7","72,6","0","0"],
    [24568,"2016-11-19T02:00:00","17","ND","15,5","2,9","150,8","24,5","74,4","0","1,3"],
    [24569,"2016-11-19T03:00:00","14","ND","14,72","1,6","150,8","23,8","79,3","0","15"],
    [24570,"2016-11-19T04:00:00","13","ND","12,95","2,3","120,4","23,4","82,6","0","3,6"],
    [24571,"2016-11-19T05:00:00","15","ND","10,01","1,5","101,9","23,3","82,4","0","0,5"],
    [24572,"2016-11-19T06:00:00","40","9","7,26","2,2","41","23,4","83","0","1,5"],
    [24573,"2016-11-19T07:00:00","36","9","6,28","2,8","19,9","23,6","82,4","3,8","1,3"],
    [24574,"2016-11-19T08:00:00","23","8","7,46","2,3","22,7","23,9","81,6","23","0,3"],
    [24575,"2016-11-19T09:00:00","15","3","11,77","1,6","342,2","24,8","77,2","83,5","0"],
    [24576,"2016-11-19T10:00:00","23","8","13,74","2,1","165,3","26,4","70","84,9","0"],
    [24577,"2016-11-19T11:00:00","21","6","14,72","3,1","202,4","26,8","70,3","108,1","1,5"],
    [24578,"2016-11-19T12:00:00","17","2","22,57","2,2","207,4","27,5","66,5","164,4","0,3"],
    [24579,"2016-11-19T13:00:00","23","3","29,24","1,9","193,4","28,4","61","153,8","0"],
    [24580,"2016-11-19T14:00:00","40","12","30,81","1,9","104,6","29,8","56,2","238,6","0"],
    [24581,"2016-11-19T15:00:00","37","11","34,73","2,7","88,1","30,2","52,7","151,7","0"],
    [24582,"2016-11-19T16:00:00","30","6","43,76","1,8","349,8","29,8","51","76,4","0"],
    [24583,"2016-11-19T17:00:00","32","4","39,84","5,8","283,3","27,8","59,5","21,5","0"],
    [24584,"2016-11-19T18:00:00","34","5","18,84","4,6","276,6","26,5","61,5","3,6","0"],
    [24585,"2016-11-19T19:00:00","28","3","9,03","3,5","283,5","26,5","60,3","0","0"],
    [24586,"2016-11-19T20:00:00","43","5","5,89","3,1","265,6","25,9","63,1","0","0"],
    [24587,"2016-11-19T21:00:00","41","7","5,49","2,6","273,6","25,6","64,3","0","0"],
    [24588,"2016-11-19T22:00:00","50","5","5,89","2,2","287,3","25,5","64,1","0","0"],
    [24589,"2016-11-19T23:00:00","71","18","6,08","1,2","252,6","25,2","65,4","0","0"],
    [24590,"2016-11-20T00:00:00","89","23","5,69","1,3","151,6","25,1","69,5","0","0"],
    [24591,"2016-11-20T01:00:00","51","6","5,49","0,4","206,1","24,5","73,6","0","0"],
    [24592,"2016-11-20T02:00:00","50","5","5,49","2","252,7","24,6","71,1","0","0"],
    [24593,"2016-11-20T03:00:00","35","8","5,69","1,3","305","24,4","70,5","0","0"],
    [24594,"2016-11-20T04:00:00","49","8","5,69","0,8","251,1","23,9","72,9","0","0"],
    [24595,"2016-11-20T05:00:00","38","6","5,1","1","163,6","23,7","76,9","0","0"],
    [24596,"2016-11-20T06:00:00","45","2","5,1","1,2","176,3","23,4","80,4","0","0"],
    [24597,"2016-11-20T07:00:00","54","7","5,69","1,7","219,1","23,6","80","13,2","0"],
    [24598,"2016-11-20T08:00:00","59","9","6,67","1,2","144,4","24,8","73,9","53,8","0"],
    [24599,"2016-11-20T09:00:00","35","6","16,48","1","210,9","27,1","63,1","214,6","0"],
    [24600,"2016-11-20T10:00:00","54","14","47,69","1,6","193,7","30,9","49,1","330,5","0"],
    [24601,"2016-11-20T11:00:00","35","13","62,21","1,3","158","32,1","44,9","381,1","0"],
    [24602,"2016-11-20T12:00:00","36","8","62,99","1,8","117,4","33,4","40,5","434,1","0"],
    [24603,"2016-11-20T13:00:00","37","7","73,39","2,5","52,2","34,5","36","348,4","0"],
    [24604,"2016-11-20T14:00:00","54","20","85,17","2,8","28,3","33,6","37,7","205,6","0"],
    [24605,"2016-11-20T15:00:00","44","11","94,98","2,9","331,2","34,3","36,2","242,3","0"],
    [24606,"2016-11-20T16:00:00","16","5","31,99","6,2","296,9","33,2","36,9","121,1","0"],
    [24607,"2016-11-20T17:00:00","21","ND","32,97","5,6","284,1","32,1","38,1","68,5","0"],
    [24608,"2016-11-20T18:00:00","24","7","25,31","4,8","286,7","31,2","39,6","10,2","0"],
    [24609,"2016-11-20T19:00:00","57","13","13,93","1,5","339,8","29,1","47,1","0","0"],
    [24610,"2016-11-20T20:00:00","71","17","7,65","2,9","80,5","27,6","57,7","0","0"],
    [24611,"2016-11-20T21:00:00","73","21","7,65","2,5","75,9","26","63,3","0","0"],
    [24612,"2016-11-20T22:00:00","47","10","7,85","2,1","67,5","25,4","63,5","0","0"],
    [24613,"2016-11-20T23:00:00","47","7","6,28","1","76,8","24,5","66,5","0","0"],
    [24614,"2016-11-21T00:00:00","42","3","6,08","1,7","158,3","23,5","70,5","0","0"],
    [24615,"2016-11-21T01:00:00","38","3","5,69","1,2","193,4","22,7","74,3","0","0"],
    [24616,"2016-11-21T02:00:00","42","11","5,49","1,4","146,7","22,6","75,7","0","0"],
    [24617,"2016-11-21T03:00:00","34","8","5,89","1,7","197,8","22,3","76,2","0","0"],
    [24618,"2016-11-21T04:00:00","30","7","6,28","1,6","177,5","21,8","71,7","0","0"],
    [24619,"2016-11-21T05:00:00","57","6","6,08","2","119,3","21,1","74,1","0","0"],
    [24620,"2016-11-21T06:00:00","103","28","6,08","1,5","97","21,2","75","0","0"],
    [24621,"2016-11-21T07:00:00","92","23","7,26","2","11,6","21,2","76,1","27,2","0"],
    [24622,"2016-11-21T08:00:00","81","23","9,03","3,1","71,6","23,9","65","131,2","0"],
    [24623,"2016-11-21T09:00:00","59","10","19,62","3,3","43,4","26,5","54,4","236,3","0"],
    [24624,"2016-11-21T10:00:00","45","9","32,77","2,1","67,5","29,1","46,7","330","0"],
    [24625,"2016-11-21T11:00:00","26","8","49,26","1,8","56,5","31,3","39,9","400,3","0"],
    [24626,"2016-11-21T12:00:00","71","9","60,24","2,1","90,1","32,6","38,1","424,4","0"],
    [24627,"2016-11-21T13:00:00","47","19","63,58","2,9","93,4","33,7","34,8","431,3","0"],
    [24628,"2016-11-21T14:00:00","37","11","82,22","2","55,1","34,7","33,3","387,9","0"],
    [24629,"2016-11-21T15:00:00","46","15","105,97","3","34,2","35,3","32,3","307","0"],
    [24630,"2016-11-21T16:00:00","45","14","98,9","3,3","32,6","35,5","30,9","190","0"],
    [24631,"2016-11-21T17:00:00","46","10","60,83","2,8","2,3","35","31,5","95","0"],
    [24632,"2016-11-21T18:00:00","57","8","19,23","3,7","309,1","32,6","35,6","12","0"],
    [24633,"2016-11-21T19:00:00","58","8","8,63","2,8","295,4","29,6","42,8","0","0"],
    [24634,"2016-11-21T20:00:00","92","20","7,26","2,8","84,5","27,6","52,6","0","0"],
    [24635,"2016-11-21T21:00:00","62","15","7,65","3,2","81,5","25,7","60,4","0","0"],
    [24636,"2016-11-21T22:00:00","53","11","7,85","2,5","82","24,7","63,3","0","0"],
    [24637,"2016-11-21T23:00:00","60","10","7,06","1,5","85,8","23,9","65,1","0","0"],
    [24638,"2016-11-22T00:00:00","48","9","6,28","0,8","167,1","23,2","67,6","0","0"],
    [24639,"2016-11-22T01:00:00","81","31","6,28","1,4","170,9","22,6","72,7","0","0"],
    [24640,"2016-11-22T02:00:00","59","8","6,08","0,2","62,7","22,1","73,8","0","0"],
    [24641,"2016-11-22T03:00:00","35","8","12,95","1,9","266,5","21,6","58,9","0","0"],
    [24642,"2016-11-22T04:00:00","62","13","6,28","0,8","126","21,3","71,4","0","0"],
    [24643,"2016-11-22T05:00:00","79","14","6,28","2,2","111,9","20,5","77,4","0","0"],
    [24644,"2016-11-22T06:00:00","94","29","6,28","1,2","68,6","20,2","77","0","0"],
    [24645,"2016-11-22T07:00:00","109","37","8,44","1,7","5,9","20,2","69,4","34,7","0"],
    [24646,"2016-11-22T08:00:00","122","37","11,38","2","87,5","23,5","59,8","132,8","0"],
    [24647,"2016-11-22T09:00:00","83","25","25,9","1,5","118,3","26,6","51,8","236,7","0"],
    [24648,"2016-11-22T10:00:00","ND","ND","43,76","1,2","69,7","28,9","44,4","329,1","0"],
    [24649,"2016-11-22T11:00:00","73","21","ND","2","85,2","30,7","38,8","398,4","0"],
    [24650,"2016-11-22T12:00:00","47","14","72,22","2","63,4","32,3","33,9","432,9","0"],
    [24651,"2016-11-22T13:00:00","38","10","79,87","2,3","58,1","33,7","31,2","424,7","0"],
    [24652,"2016-11-22T14:00:00","62","15","95,18","3,2","58,9","34,6","29,6","383,1","0"],
    [24653,"2016-11-22T15:00:00","56","9","100,67","2,8","53,4","35,6","27,9","308,9","0"],
    [24654,"2016-11-22T16:00:00","51","13","99,69","3,7","43,7","36,2","26","208,2","0"],
    [24655,"2016-11-22T17:00:00","55","12","60,24","3,7","346,2","35,6","27,1","104,8","0"],
    [24656,"2016-11-22T18:00:00","36","7","26,3","5,1","302,6","32,5","34,1","17,7","0"],
    [24657,"2016-11-22T19:00:00","51","8","13,74","4,7","289,5","29,7","39,8","0","0"],
    [24658,"2016-11-22T20:00:00","64","16","11,19","2,8","79,8","27,9","47,7","0","0"],
    [24659,"2016-11-22T21:00:00","56","14","10,01","2,8","83","25,4","57","0","0"],
    [24660,"2016-11-22T22:00:00","55","14","10,6","2,4","78,6","24,6","56,4","0","0"],
    [24661,"2016-11-22T23:00:00","67","20","8,44","1,8","85,2","24,1","57,8","0","0"],
    [24662,"2016-11-23T00:00:00","53","6","8,44","0,8","39","23,2","62,5","0","0"],
    [24663,"2016-11-23T01:00:00","70","12","6,87","0,9","199,1","22,4","66,4","0","0"],
    [24664,"2016-11-23T02:00:00","51","10","7,06","1,3","129,6","22,4","67,3","0","0"],
    [24665,"2016-11-23T03:00:00","54","14","6,87","1,1","88,4","22,6","66,6","0","0"],
    [24666,"2016-11-23T04:00:00","71","20","5,89","1","86,1","21,8","69,7","0","0"],
    [24667,"2016-11-23T05:00:00","75","25","6,28","1,1","103","21","73","0","0"],
    [24668,"2016-11-23T06:00:00","107","31","6,87","1","99","20,7","72,9","0","0"],
    [24669,"2016-11-23T07:00:00","128","44","7,46","1,7","124,4","21,2","71,3","18,8","0"],
    [24670,"2016-11-23T08:00:00","89","25","11,38","1,7","198,4","22,3","66,9","85,9","0"],
    [24671,"2016-11-23T09:00:00","95","26","25,51","2,3","207,9","25,9","55,3","207,6","0"],
    [24672,"2016-11-23T10:00:00","64","19","61,23","0,2","211,8","29,2","42,4","322,5","0"],
    [24673,"2016-11-23T11:00:00","53","14","81,24","2,3","41,3","31,3","36,6","381,2","0"],
    [24674,"2016-11-23T12:00:00","44","17","108,52","2,9","46,2","32,6","33,9","411,8","0"],
    [24675,"2016-11-23T13:00:00","34","11","99,88","3,1","55,2","33,8","29,5","403,4","0"],
    [24676,"2016-11-23T14:00:00","42","9","92,04","4,1","51,2","35,1","29","377,9","0"],
    [24677,"2016-11-23T15:00:00","44","7","71,43","5,6","43,4","35,6","29,8","307,1","0"],
    [24678,"2016-11-23T16:00:00","46","12","46,31","6,3","1,5","34,7","33,1","180,7","0"],
    [24679,"2016-11-23T17:00:00","49","7","37,48","5,9","300,2","33","36,3","39,2","0"],
    [24680,"2016-11-23T18:00:00","40","7","22,96","3,8","293,9","30,7","41,1","4,5","0"],
    [24681,"2016-11-23T19:00:00","138","44","10,01","2,5","65","29,4","46,8","0","0"],
    [24682,"2016-11-23T20:00:00","76","26","8,44","2,8","90,9","28,2","50,8","0","0"],
    [24683,"2016-11-23T21:00:00","60","21","9,22","2,6","76,6","26,9","57","0","0"],
    [24684,"2016-11-23T22:00:00","69","35","9,62","1","39,8","26,2","59,5","0","0"],
    [24685,"2016-11-23T23:00:00","69","22","8,44","1,8","128,7","26","60,7","0","0"],
    [24686,"2016-11-24T00:00:00","49","5","7,65","2,8","85,2","25,7","63,5","0","0"],
    [24687,"2016-11-24T01:00:00","47","6","7,85","1,6","108","24,3","69,7","0","0"],
    [24688,"2016-11-24T02:00:00","62","14","6,87","1,7","223,5","23,6","72,8","0","0"],
    [24689,"2016-11-24T03:00:00","84","19","6,48","1,1","218,6","23,4","73,5","0","0"],
    [24690,"2016-11-24T04:00:00","60","14","7,06","0,9","152,3","24,1","71,6","0","0"],
    [24691,"2016-11-24T05:00:00","81","18","6,48","1,5","177,7","24,7","69,1","0","0"],
    [24692,"2016-11-24T06:00:00","72","21","5,89","1,5","145,4","24,5","70,2","0","0"],
    [24693,"2016-11-24T07:00:00","88","26","6,48","2","161,2","24,4","71,5","27,7","0"],
    [24694,"2016-11-24T08:00:00","81","23","13,74","2,6","193,3","27,1","61,1","119,9","0"],
    [24695,"2016-11-24T09:00:00","65","23","30,81","2,3","183,8","29,7","52,1","232,3","0"],
    [24696,"2016-11-24T10:00:00","69","19","50,24","1,8","146,3","31,7","46,1","288,4","0"],
    [24697,"2016-11-24T11:00:00","45","15","66,33","2,1","50,2","32,9","42,6","392,6","0"],
    [24698,"2016-11-24T12:00:00","53","17","88,11","3","23,7","33,8","39,9","404,7","0"],
    [24699,"2016-11-24T13:00:00","38","5","80,85","4,2","352,1","34,7","37,7","351,3","0"],
    [24700,"2016-11-24T14:00:00","41","8","60,05","5,1","17,1","33,9","38,5","160,6","0"],
    [24701,"2016-11-24T15:00:00","28","6","50,43","3,9","5,7","33,3","39","122,5","0"],
    [24702,"2016-11-24T16:00:00","54","5","27,67","5,6","33,6","31,9","45,6","61,9","0"],
    [24703,"2016-11-24T17:00:00","74","15","15,5","4,1","52,1","30,4","49,9","27,7","0"],
    [24704,"2016-11-24T18:00:00","67","17","12,76","3,5","62,9","29,5","52,7","8,3","0"],
    [24705,"2016-11-24T19:00:00","59","21","8,24","2,2","75,8","28,1","58,2","0","0"],
    [24706,"2016-11-24T20:00:00","59","20","7,65","2","68,8","28,2","58,4","0","0"],
    [24707,"2016-11-24T21:00:00","53","9","6,48","3","194,2","26,9","63,6","0","0"],
    [24708,"2016-11-24T22:00:00","66","15","7,26","1,5","152,6","26,4","66","0","0"],
    [24709,"2016-11-24T23:00:00","37","11","9,81","1,7","151,9","26,8","63,9","0","0"],
    [24710,"2016-11-25T00:00:00","44","6","7,26","1","118,7","26","67,3","0","0"],
    [24711,"2016-11-25T01:00:00","26","4","8,83","2,5","118","26","67,2","0","0"],
    [24712,"2016-11-25T02:00:00","27","6","10,4","1,9","151,1","25,3","70","0","0"],
    [24713,"2016-11-25T03:00:00","45","6","6,48","1,6","167,3","25,2","71,6","0","0"],
    [24714,"2016-11-25T04:00:00","39","4","7,26","2,3","193,6","25,3","70,9","0","0"],
    [24715,"2016-11-25T05:00:00","38","5","6,87","1,7","176,3","25,1","71,7","0","0"],
    [24716,"2016-11-25T06:00:00","58","9","5,3","2,2","196,8","25,2","71,6","0","0"],
    [24717,"2016-11-25T07:00:00","53","15","6,08","2","205,6","24,9","73,6","8,4","0"],
    [24718,"2016-11-25T08:00:00","64","15","8,24","1,1","173,9","25,6","70,6","53,1","0"],
    [24719,"2016-11-25T09:00:00","56","15","24,14","1,7","241,9","28,4","58,9","210,1","0"],
    [24720,"2016-11-25T10:00:00","62","19","35,13","3,7","83,7","31,2","48,4","170,5","0"],
    [24721,"2016-11-25T11:00:00","39","4","35,32","3,3","36,6","30,9","48,7","188,4","0"],
    [24722,"2016-11-25T12:00:00","35","9","42,58","3,8","23,9","31,5","47,3","177,8","0"],
    [24723,"2016-11-25T13:00:00","37","5","49,26","3,2","16,2","32,3","45,5","207,1","0"],
    [24724,"2016-11-25T14:00:00","37","1","41,21","3,4","62","33,3","41,6","141,4","0"],
    [24725,"2016-11-25T15:00:00","27","1","41,21","2,4","11,1","32,8","43,5","208","0"],
    [24726,"2016-11-25T16:00:00","22","ND","47,1","2,3","281,5","34,7","37,6","170","0"],
    [24727,"2016-11-25T17:00:00","40","ND","22,37","6,5","283,4","31,5","43,8","23,4","0"],
    [24728,"2016-11-25T18:00:00","37","ND","17,07","4,3","288,6","29,7","48,4","2,1","0"],
    [24729,"2016-11-25T19:00:00","44","7","13,54","4,8","115,8","28,5","60,5","0","0,5"],
    [24730,"2016-11-25T20:00:00","37","10","9,62","2,2","163,7","26,6","69,9","0","1,8"],
    [24731,"2016-11-25T21:00:00","21","7","9,81","2,4","181,3","25,6","76,6","0","3,8"],
    [24732,"2016-11-25T22:00:00","31","11","7,46","1,6","159,8","24,6","80,8","0","4,1"],
    [24733,"2016-11-25T23:00:00","15","5","11,97","2,2","174,5","24,3","81,7","0","9,1"],
    [24734,"2016-11-26T00:00:00","12","ND","11,38","2,3","179,9","24","83,4","0","4,3"],
    [24735,"2016-11-26T01:00:00","10","ND","11,58","2,8","185,1","24","84","0","1,5"],
    [24736,"2016-11-26T02:00:00","18","ND","14,52","1,9","195,6","24,1","82,7","0","1"],
    [24737,"2016-11-26T03:00:00","9","ND","19,43","1,7","198,8","23,8","83,7","0","0,8"],
    [24738,"2016-11-26T04:00:00","13","ND","20,02","1,4","235,1","23,7","83,2","0","0"],
    [24739,"2016-11-26T05:00:00","31","7","9,62","2,4","72,1","23,9","83,5","0","0"],
    [24740,"2016-11-26T06:00:00","46","15","7,46","2","87,1","24","82,1","0","0"],
    [24741,"2016-11-26T07:00:00","59","28","7,26","1,8","94,8","24,1","81,6","8,3","0"],
    [24742,"2016-11-26T08:00:00","50","32","7,65","2,3","85,7","24,7","79,8","33,8","0,3"],
    [24743,"2016-11-26T09:00:00","52","22","10,01","1,6","107","25,5","75,4","61,9","0"],
    [24744,"2016-11-26T10:00:00","45","9","20,6","1,8","208,5","27,4","67,6","156,4","0"],
    [24745,"2016-11-26T11:00:00","25","6","34,34","1","170,5","29,8","57,1","270,4","0"],
    [24746,"2016-11-26T12:00:00","61","26","44,55","3,6","339,8","30,1","56,3","107,1","0"],
    [24747,"2016-11-26T13:00:00","41","14","57,3","3,7","356","30,2","54,6","166,1","0"],
    [24748,"2016-11-26T14:00:00","25","7","53,57","2,7","29,4","32,4","44,1","361,8","0"],
    [24749,"2016-11-26T15:00:00","40","9","69,86","3,3","27,4","33,6","40,5","160,2","0"],
    [24750,"2016-11-26T16:00:00","57","21","44,15","2,8","64,3","32,7","42,6","85,2","0"],
    [24751,"2016-11-26T17:00:00","31","6","30,02","3,1","317","31,7","43,7","42,1","0"],
    [24752,"2016-11-26T18:00:00","37","6","21","0,5","311,3","30,3","49","7,3","0"],
    [24753,"2016-11-26T19:00:00","49","13","19,23","3,7","95","28,4","61,4","0","0"],
    [24754,"2016-11-26T20:00:00","56","12","11,38","1,5","71,4","27,4","63,7","0","0"],
    [24755,"2016-11-26T21:00:00","40","9","14,13","1,1","225,6","26,9","64,6","0","0"],
    [24756,"2016-11-26T22:00:00","44","12","18,45","3","188,1","26,6","67,1","0","0"],
    [24757,"2016-11-26T23:00:00","35","6","16,29","2,7","178,6","26","69,2","0","0"],
    [24758,"2016-11-27T00:00:00","23","ND","9,03","1,8","182,3","24,6","75,6","0","0"],
    [24759,"2016-11-27T01:00:00","43","3","6,87","0,7","68","24","78,2","0","0"],
    [24760,"2016-11-27T02:00:00","27","5","7,26","1,9","124,2","24,2","77,7","0","0"],
    [24761,"2016-11-27T03:00:00","24","3","7,85","1,7","159,3","24,2","77,3","0","0"],
    [24762,"2016-11-27T04:00:00","22","3","7,65","0,8","211,5","24","78,2","0","0"],
    [24763,"2016-11-27T05:00:00","37","3","5,89","0,8","135,3","24,2","78,1","0","0"],
    [24764,"2016-11-27T06:00:00","50","3","5,69","0,7","120,4","24,2","78,5","0","0"],
    [24765,"2016-11-27T07:00:00","54","10","5,89","2,6","108,5","24,8","76,1","5,6","0"],
    [24766,"2016-11-27T08:00:00","66","20","7,26","1,6","126,3","25,5","74,2","49,5","0"],
    [24767,"2016-11-27T09:00:00","60","21","18,64","0,3","194,7","27,4","66,2","178,1","0"],
    [24768,"2016-11-27T10:00:00","63","26","39,64","2,3","90,5","30,6","52,6","246,6","0"],
    [24769,"2016-11-27T11:00:00","46","16","59,66","2,3","36,4","32","48","279,2","0"],
    [24770,"2016-11-27T12:00:00","30","14","85,36","1","6","33,3","43,3","370,5","0"],
    [24771,"2016-11-27T13:00:00","50","17","86,74","2,5","63,1","34,2","39,7","288,8","0"],
    [24772,"2016-11-27T14:00:00","40","16","70,25","3,9","3,5","33,7","40,2","174","0"],
    [24773,"2016-11-27T15:00:00","28","3","36,3","5,4","277,2","31,9","44,4","137,1","0"],
    [24774,"2016-11-27T16:00:00","26","3","39,05","2,8","359,6","33,8","37,9","203,7","0"],
    [24775,"2016-11-27T17:00:00","17","3","36,7","4,3","23","33,2","39,8","75,3","0"],
    [24776,"2016-11-27T18:00:00","33","10","26,1","3,8","42,6","30,4","50,9","13,1","0"],
    [24777,"2016-11-27T19:00:00","43","8","12,95","1,2","15,2","28,8","53,2","0","0"],
    [24778,"2016-11-27T20:00:00","48","11","10,79","2,6","52,3","28","56,3","0","0"],
    [24779,"2016-11-27T21:00:00","39","8","8,83","1,6","66,7","26,6","62,6","0","0"],
    [24780,"2016-11-27T22:00:00","38","10","9,22","2,5","81,6","26","64,5","0","0"],
    [24781,"2016-11-27T23:00:00","47","7","7,46","2,3","81,1","25,7","67,2","0","0"],
    [24782,"2016-11-28T00:00:00","39","2","8,24","1,1","312,5","24,8","70,4","0","0"],
    [24783,"2016-11-28T01:00:00","53","6","5,89","1","127,5","25","70,9","0","0"],
    [24784,"2016-11-28T02:00:00","30","6","6,87","1,1","65,8","24,7","72","0","0"],
    [24785,"2016-11-28T03:00:00","32","1","9,22","0,8","73,3","24,5","72,6","0","0"],
    [24786,"2016-11-28T04:00:00","38","4","7,85","0,7","58,1","24,2","74,1","0","0"],
    [24787,"2016-11-28T05:00:00","52","10","5,89","2,3","108,6","24,8","73,1","0","0"],
    [24788,"2016-11-28T06:00:00","67","17","5,89","0,3","84,4","24,4","74,3","0","0"],
    [24789,"2016-11-28T07:00:00","80","19","5,69","1,5","192,4","24,7","73,7","4","0"],
    [24790,"2016-11-28T08:00:00","76","24","8,44","1,7","213,3","25,7","70,7","58,1","0"],
    [24791,"2016-11-28T09:00:00","61","14","25,9","1,5","223,5","28,4","60","179,4","0"],
    [24792,"2016-11-28T10:00:00","61","15","31,59","2,6","127,7","30,8","51,7","237,5","0"],
    [24793,"2016-11-28T11:00:00","44","13","46,9","2,1","84,1","32,8","44,8","375,7","0"],
    [24794,"2016-11-28T12:00:00","33","9","64,37","2,3","47,2","33,5","41,2","322,5","0"],
    [24795,"2016-11-28T13:00:00","43","12","72,61","3,2","70","34,8","38,2","392,6","0"],
    [24796,"2016-11-28T14:00:00","41","16","81,24","2,6","68,6","35,6","35,5","361,8","0"],
    [24797,"2016-11-28T15:00:00","40","12","92,82","2,4","52,4","35,9","34,6","187,9","0"],
    [24798,"2016-11-28T16:00:00","45","9","61,42","6,9","299,3","34","38,6","142,6","0"],
    [24799,"2016-11-28T17:00:00","34","5","45,72","6,9","301,8","33,5","38,7","119,2","0"],
    [24800,"2016-11-28T18:00:00","35","2","26,3","4,4","317,6","31,8","41,8","22","0"],
    [24801,"2016-11-28T19:00:00","69","21","14,91","3,8","47,9","29,9","49","0","0"],
    [24802,"2016-11-28T20:00:00","41","15","11,77","5,7","60,8","28,2","58,7","0","0"],
    [24803,"2016-11-28T21:00:00","37","10","10,79","3,9","39,1","26,4","68","0","0"],
    [24804,"2016-11-28T22:00:00","28","6","9,22","1,9","195,4","25,9","70","0","0"],
    [24805,"2016-11-28T23:00:00","ND","ND","9,22","2,9","172,6","25,6","74,7","0","1,3"],
    [24806,"2016-11-29T00:00:00","ND","ND","ND","ND","ND","ND","ND","ND","ND"],
    [24807,"2016-11-29T01:00:00","ND","ND","ND","ND","ND","ND","ND","ND","ND"],
    [24808,"2016-11-29T02:00:00","38","4","10,01","1","136,7","23,9","79,4","0","0"],
    [24809,"2016-11-29T03:00:00","32","2","5,89","2","91,5","24,8","77,1","0","0"],
    [24810,"2016-11-29T04:00:00","33","3","5,69","2,3","110","24,6","76,7","0","0"],
    [24811,"2016-11-29T05:00:00","39","3","7,06","0,8","151,5","23,6","78,4","0","0"],
    [24812,"2016-11-29T06:00:00","53","9","6,08","0,8","94,2","23,6","78,9","0","0"],
    [24813,"2016-11-29T07:00:00","65","18","6,08","0,9","17,8","24","77,8","6,5","0"],
    [24814,"2016-11-29T08:00:00","61","12","6,67","2","30,1","24,9","76","50,3","0"],
    [24815,"2016-11-29T09:00:00","54","14","9,81","0,6","47,7","26,3","70,3","85,3","0"],
    [24816,"2016-11-29T10:00:00","70","24","12,95","2,8","105,7","27,9","64,2","97,3","0"],
    [24817,"2016-11-29T11:00:00","52","18","29,44","1","132,5","29,2","59,5","276","0"],
    [24818,"2016-11-29T12:00:00","59","29","67,31","1,7","91,1","32","48","298,4","0"],
    [24819,"2016-11-29T13:00:00","45","9","72,8","1,6","66,6","33,1","43,4","272,1","0"],
    [24820,"2016-11-29T14:00:00","36","9","62,01","2,3","22,4","33,5","42,5","298,6","0"],
    [24821,"2016-11-29T15:00:00","25","6","67,7","3,2","30,4","34","41,2","223,7","0"],
    [24822,"2016-11-29T16:00:00","35","5","51,41","3,6","55,9","34,1","40,7","168","0"],
    [24823,"2016-11-29T17:00:00","56","12","30,22","3,9","75,8","32,5","44,6","53,2","0"],
    [24824,"2016-11-29T18:00:00","55","20","24,53","3,1","98,8","32,1","46,6","11,2","0"],
    [24825,"2016-11-29T19:00:00","78","28","15,11","3,1","90,4","30,5","53,8","0","0"],
    [24826,"2016-11-29T20:00:00","62","22","13,34","4,1","98,7","29,2","59,7","0","0"],
    [24827,"2016-11-29T21:00:00","46","10","12,56","2","24,4","27,2","66,1","0","0"],
    [24828,"2016-11-29T22:00:00","47","11","9,03","2,3","317,2","26,4","68,9","0","0"],
    [24829,"2016-11-29T23:00:00","58","17","7,46","2,1","92,7","26,5","68,9","0","0"],
    [24830,"2016-11-30T00:00:00","38","6","10,4","2,6","115,4","26,5","67,2","0","0"],
    [24831,"2016-11-30T01:00:00","30","6","12,36","0,6","324,6","25,5","69,4","0","0"],
    [24832,"2016-11-30T02:00:00","67","18","7,65","2","219,9","25,4","71,7","0","0"],
    [24833,"2016-11-30T03:00:00","59","6","9,62","0,6","154,5","25","72,9","0","0"],
    [24834,"2016-11-30T04:00:00","56","17","6,87","1,3","22,3","25","73,9","0","0"],
    [24835,"2016-11-30T05:00:00","74","24","5,89","1,4","90,2","25,1","74,1","0","0"],
    [24836,"2016-11-30T06:00:00","95","27","5,49","1,8","113,6","25","75","0","0"],
    [24837,"2016-11-30T07:00:00","95","25","6,08","0,4","207","24,8","76,4","14,3","0"],
    [24838,"2016-11-30T08:00:00","112","40","7,85","2,1","106,4","26,6","69,6","81,4","0"],
    [24839,"2016-11-30T09:00:00","92","35","13,74","2,2","102,1","29","59,4","126,1","0"],
    [24840,"2016-11-30T10:00:00","72","17","33,75","2,3","203,6","30,6","53,5","285,7","0"],
    [24841,"2016-11-30T11:00:00","61","20","56,91","1,7","150,5","33,2","44,5","393,5","0"],
    [24842,"2016-11-30T12:00:00","51","15","73,39","1,9","125,4","35","38,8","459,5","0"],
    [24843,"2016-11-30T13:00:00","47","22","79,67","1,9","96,2","35,5","37,1","326,9","0"],
    [24844,"2016-11-30T14:00:00","55","21","93,8","1,3","101","36","34,9","250","0"],
    [24845,"2016-11-30T15:00:00","47","19","93,21","2,2","46,7","36,3","33,4","236,8","0"],
    [24846,"2016-11-30T16:00:00","59","23","81,44","2,9","92,3","36","34,1","83,8","0"],
    [24847,"2016-11-30T17:00:00","59","11","64,76","1,9","309,4","35,9","35","143,4","0"],
    [24848,"2016-11-30T18:00:00","33","6","28,65","5,8","310,5","33","40,2","17,9","0"],
    [24849,"2016-11-30T19:00:00","42","3","10,6","5,9","323,4","30,7","46","0","0"],
    [24850,"2016-11-30T20:00:00","56","7","9,62","3,3","61,2","29,7","52,3","0","0"],
    [24851,"2016-11-30T21:00:00","39","11","8,44","3,3","62","28,6","58","0","0"],
    [24852,"2016-11-30T22:00:00","39","11","8,44","2,2","67","28,1","59,3","0","0"],
    [24853,"2016-11-30T23:00:00","22","8","7,65","1,8","154,4","27,6","61,6","0","0"],
    [24854,"2016-12-01T00:00:00","31","5","7,06","2,1","179,7","26,2","68,5","0","0"],
    [24855,"2016-12-01T01:00:00","27","2","7,26","2,4","146,7","25,9","69,3","0","0"],
    [24856,"2016-12-01T02:00:00","27","4","6,87","1,5","99,4","25,6","70,8","0","0"],
    [24857,"2016-12-01T03:00:00","31","8","5,89","0,8","196","25,3","72,6","0","0"],
    [24858,"2016-12-01T04:00:00","30","6","10,2","0,9","136,6","25","72","0","0"],
    [24859,"2016-12-01T05:00:00","45","5","7,46","2,2","121,4","25,1","71,1","0","0"],
    [24860,"2016-12-01T06:00:00","70","18","5,89","1,8","128","24,8","73,2","0,8","0"],
    [24861,"2016-12-01T07:00:00","60","15","6,48","1,6","181,3","25,1","72,7","21,4","0"],
    [24862,"2016-12-01T08:00:00","70","21","8,44","1,1","152,3","26,4","68,7","60,1","0"],
    [24863,"2016-12-01T09:00:00","64","22","17,27","1,9","150,6","29,1","58,7","167,7","0"],
    [24864,"2016-12-01T10:00:00","80","25","30,22","2,8","86,1","31,3","51,7","273,9","0"],
    [24865,"2016-12-01T11:00:00","69","23","38,46","4,8","67,2","32,5","46,8","303,1","0"],
    [24866,"2016-12-01T12:00:00","41","11","47,1","3,5","57,9","33,5","42,8","283,1","0"],
    [24867,"2016-12-01T13:00:00","72","14","49,06","3,8","339,9","32,1","46","82,8","0"],
    [24868,"2016-12-01T14:00:00","30","7","39,25","4,8","278,8","26,9","64,3","34,9","2,8"],
    [24869,"2016-12-01T15:00:00","28","5","26,69","1,6","218,8","28","63,9","119,8","0"],
    [24870,"2016-12-01T16:00:00","31","4","35,13","3,4","184,2","30,2","56,1","126,3","0"],
    [24871,"2016-12-01T17:00:00","37","12","30,22","3,5","179,1","29,1","59,6","32,3","0"],
    [24872,"2016-12-01T18:00:00","43","10","24,33","3,1","182,5","27,8","64,5","10,1","0"],
    [24873,"2016-12-01T19:00:00","57","21","15,7","3,2","226,2","26,9","68,9","0","0"],
    [24874,"2016-12-01T20:00:00","66","18","16,88","1,6","192,3","26","69,5","0","0"],
    [24875,"2016-12-01T21:00:00","73","28","6,87","1,5","105,6","25,7","73","0","0"],
    [24876,"2016-12-01T22:00:00","57","25","8,83","1,9","158,9","25,4","74,4","0","0"],
    [24877,"2016-12-01T23:00:00","73","25","6,87","2,6","118,8","25,4","74,6","0","0"],
    [24878,"2016-12-02T00:00:00","85","32","5,69","1,1","77,8","25","75,3","0","0"],
    [24879,"2016-12-02T01:00:00","67","21","6,28","0,8","173,2","24,5","77,7","0","0"],
    [24880,"2016-12-02T02:00:00","53","12","6,2","2,1","122,8","25","75,3","0","0"],
    [24881,"2016-12-02T03:00:00","39","7","7,03","1","236,8","24,2","78,5","0","0"],
    [24882,"2016-12-02T04:00:00","39","10","5,73","1,3","97,3","24,5","77,7","0","1,78"],
    [24883,"2016-12-02T05:00:00","40","13","5,38","1,3","134","24,4","78,7","0","0,76"],
    [24884,"2016-12-02T06:00:00","55","20","5,77","0,4","4,8","23,7","81,7","0","0"],
    [24885,"2016-12-02T07:00:00","57","20","5,93","1,8","154,2","24","80,7","15,1","0"],
    [24886,"2016-12-02T08:00:00","59","14","6,52","2,2","172,4","25","76,9","46,5","0"],
    [24887,"2016-12-02T09:00:00","50","14","6,57","1,2","136,4","25,5","74,8","46,8","0"],
    [24888,"2016-12-02T10:00:00","84","34","17,68","2,3","89,7","27,4","67,3","191,7","0"],
    [24889,"2016-12-02T11:00:00","57","22","44,25","2,8","102,6","30,1","53,7","216,7","0"],
    [24890,"2016-12-02T12:00:00","48","19","47,8","1,5","108,5","32,1","47","278,1","0,25"],
    [24891,"2016-12-02T13:00:00","38","11","52,55","3,4","33,6","32,3","45,6","159,5","0"],
    [24892,"2016-12-02T14:00:00","54","16","62,32","4,5","8,5","31","51,4","109","0"],
    [24893,"2016-12-02T15:00:00","56","13","47,04","3,8","34,2","30,6","51,1","98,6","0"],
    [24894,"2016-12-02T16:00:00","43","13","23,82","4,3","61","30,5","51,6","81","0"],
    [24895,"2016-12-02T17:00:00","48","9","21,29","1,6","29,3","30,2","50,3","36,7","0"],
    [24896,"2016-12-02T18:00:00","28","6","16,56","4,8","298,9","29,5","50,2","5,3","0"],
    [24897,"2016-12-02T19:00:00","33","3","9,3","3,9","307,7","28,6","52","0","0"],
    [24898,"2016-12-02T20:00:00","54","6","6,61","2,1","85,8","27,8","60,3","0","0"],
    [24899,"2016-12-02T21:00:00","55","16","6,52","2,8","72,9","26,4","65,8","0","0"],
    [24900,"2016-12-02T22:00:00","47","12","7,1","1,8","51","25,9","66,2","0","0"],
    [24901,"2016-12-02T23:00:00","49","12","6,83","1,2","78,3","26,2","66","0","0"],
    [24902,"2016-12-03T00:00:00","33","7","6,63","1,5","121,8","26","67","0","0"],
    [24903,"2016-12-03T01:00:00","40","16","6,28","2,4","123,2","25,7","70,1","0","0"],
    [24904,"2016-12-03T02:00:00","52","6","5,77","2,2","132,8","25,6","70,1","0","0"],
    [24905,"2016-12-03T03:00:00","46","4","6,34","1,5","156,1","25,2","72,4","0","0"],
    [24906,"2016-12-03T04:00:00","27","7","10,32","2,3","185,2","24,9","75,4","0","1,02"],
    [24907,"2016-12-03T05:00:00","20","6","8,56","1,8","202,4","24,5","78,2","0","0,76"],
    [24908,"2016-12-03T06:00:00","48","12","6,52","1,7","113,7","24,4","79,3","0","0"],
    [24909,"2016-12-03T07:00:00","45","14","5,87","1,6","75,2","24,3","79,6","0","1,78"],
    [24910,"2016-12-03T08:00:00","55","21","6,46","2,1","51,2","24,3","80,3","4,5","2,79"],
    [24911,"2016-12-03T09:00:00","46","24","7,22","2,2","35,5","24,7","80,4","40","4,57"],
    [24912,"2016-12-03T10:00:00","37","17","9,13","2,9","32,9","25,1","78","30,6","2,79"],
    [24913,"2016-12-03T11:00:00","30","14","9,03","2,8","27,5","24,8","79,5","29,3","4,32"],
    [24914,"2016-12-03T12:00:00","32","10","8,65","3","53,4","25","79,4","40,8","2,03"],
    [24915,"2016-12-03T13:00:00","20","5","11,21","1,3","48,1","25,6","77,1","76,8","1,52"],
    [24916,"2016-12-03T14:00:00","25","1","20,88","1,7","0,7","27,2","69,8","263,9","0"],
    [24917,"2016-12-03T15:00:00","39","4","26,92","2,9","85,1","29,7","56,1","159,3","0"],
    [24918,"2016-12-03T16:00:00","22","5","30,99","1,7","91","29,6","55,5","148,2","0"],
    [24919,"2016-12-03T17:00:00","57","7","25,49","2,6","104","29,4","56,1","38,3","0"],
    [24920,"2016-12-03T18:00:00","79","21","14,8","2,2","77,9","27,9","62,9","5,4","0"],
    [24921,"2016-12-03T19:00:00","78","17","7,89","0,9","101,3","26,4","69,9","0","0"],
    [24922,"2016-12-03T20:00:00","93","37","7,06","0,5","197","25,4","74,5","0","0"],
    [24923,"2016-12-03T21:00:00","116","39","7,42","0,8","93,1","25,3","75,8","0","0"],
    [24924,"2016-12-03T22:00:00","110","33","6,18","1,6","95,4","25,2","75,8","0","0"],
    [24925,"2016-12-03T23:00:00","84","24","5,61","1,2","99,2","24,3","78,9","0","0"],
    [24926,"2016-12-04T00:00:00","94","31","5,73","1,3","89,6","23,9","80,6","0","0"],
    [24927,"2016-12-04T01:00:00","77","25","6,04","0,9","121,5","23,9","81,1","0","0"],
    [24928,"2016-12-04T02:00:00","68","27","6,08","1,2","198,5","24,3","79,8","0","0"],
    [24929,"2016-12-04T03:00:00","68","25","5,91","1,3","165,4","24,2","79,9","0","0"],
    [24930,"2016-12-04T04:00:00","49","24","6","1,2","189","23,8","81,7","0","0"],
    [24931,"2016-12-04T05:00:00","57","23","5,89","0,9","178,8","23,9","81,3","0","0"],
    [24932,"2016-12-04T06:00:00","65","18","5,55","0,9","138,1","23,8","81,3","0","0"],
    [24933,"2016-12-04T07:00:00","67","13","5,83","2,4","133,3","24,4","78,2","21,6","0"],
    [24934,"2016-12-04T08:00:00","62","22","7,36","1,6","186,4","25,1","74,7","48","0"],
    [24935,"2016-12-04T09:00:00","58","25","17,56","1,4","124,7","27,3","66,9","161,2","0"],
    [24936,"2016-12-04T10:00:00","70","25","42,23","2","95,7","29,6","57,8","188,9","0"],
    [24937,"2016-12-04T11:00:00","53","19","70,45","0,4","198,4","31,1","50,5","294","0"],
    [24938,"2016-12-04T12:00:00","52","23","109,05","1,4","321,3","32,7","44","324,8","0"],
    [24939,"2016-12-04T13:00:00","59","25","107,15","1,3","83,9","34,3","39,5","389,6","0"],
    [24940,"2016-12-04T14:00:00","53","23","86,23","3,1","51,3","34,5","38,7","198,8","0"],
    [24941,"2016-12-04T15:00:00","37","12","44,23","5,3","320,1","31,4","45,4","86,4","0"],
    [24942,"2016-12-04T16:00:00","37","8","23,65","1,9","16,4","29,9","53,2","41,8","0"],
    [24943,"2016-12-04T17:00:00","64","14","19,92","4","68,7","29,2","59,6","35,5","0"],
    [24944,"2016-12-04T18:00:00","55","16","19,8","2,5","162,4","28,7","59,3","9,2","0"],
    [24945,"2016-12-04T19:00:00","39","2","23,96","5,1","169,8","25,6","63,9","0","0"],
    [24946,"2016-12-04T20:00:00","30","2","20,43","3,3","149,3","24","70,3","0","0"],
    [24947,"2016-12-04T21:00:00","34","8","18,09","2,4","10,6","23,9","73,1","0","0"],
    [24948,"2016-12-04T22:00:00","126","5","15,48","0,5","310,3","23,4","75,4","0","0,25"],
    [24949,"2016-12-04T23:00:00","31","1","15,62","2,5","208,2","23,4","75,6","0","0"],
    [24950,"2016-12-05T00:00:00","32","ND","12,01","1,8","114,4","23,1","77,4","0","0"],
    [24951,"2016-12-05T01:00:00","34","3","8,28","1,2","331,3","22,7","79,6","0","0"],
    [24952,"2016-12-05T02:00:00","33","2","7,14","1,4","186,6","22,7","79,9","0","0"],
    [24953,"2016-12-05T03:00:00","26","2","9,44","2,4","138","22,6","80,2","0","0"],
    [24954,"2016-12-05T04:00:00","37","7","10,13","1,8","132,1","22,9","78,5","0","0"],
    [24955,"2016-12-05T05:00:00","45","11","10,38","1,8","149,8","22,6","79,2","0","0"],
    [24956,"2016-12-05T06:00:00","67","26","8,63","2,3","152,5","22,8","77,3","0","0"],
    [24957,"2016-12-05T07:00:00","69","19","9,09","2,2","160,7","22,6","78,7","12,6","0"],
    [24958,"2016-12-05T08:00:00","52","14","10,22","2,4","210,7","23,6","75,7","43,8","0"],
    [24959,"2016-12-05T09:00:00","44","11","13,44","0,8","139","24,7","71,2","80,3","0"],
    [24960,"2016-12-05T10:00:00","38","7","22,25","1","162,6","26,5","63,6","147,2","0"],
    [24961,"2016-12-05T11:00:00","27","4","44,94","0,6","157,9","29,3","52,5","289,2","0"],
    [24962,"2016-12-05T12:00:00","30","4","54,38","2,3","115,2","31,9","44,6","359,6","0"],
    [24963,"2016-12-05T13:00:00","26","6","61,99","2,2","102,4","32,6","41,8","309,1","0"],
    [24964,"2016-12-05T14:00:00","34","8","93,86","1,4","175,4","33,3","39,8","243,1","0"],
    [24965,"2016-12-05T15:00:00","52","18","80,48","4","105,2","32,8","41,8","136,7","0"],
    [24966,"2016-12-05T16:00:00","54","6","40,82","1,3","102","30,8","49,8","26,6","3,05"],
    [24967,"2016-12-05T17:00:00","33","5","19,05","5,2","276,7","27","63,8","16,9","0,51"],
    [24968,"2016-12-05T18:00:00","28","12","11,11","1,8","299,1","26","66,6","6,2","0"],
    [24969,"2016-12-05T19:00:00","54","14","6,87","0,5","96,4","26","66,6","0","0"],
    [24970,"2016-12-05T20:00:00","67","16","6,22","0,4","272,4","25,8","67,9","0","0"],
    [24971,"2016-12-05T21:00:00","74","25","6,42","2","208,8","25,8","69,9","0","0"],
    [24972,"2016-12-05T22:00:00","48","17","9,28","1,8","171,6","25,9","68,5","0","0"],
    [24973,"2016-12-05T23:00:00","73","19","6,95","1","122,5","25,4","71,7","0","0"],
    [24974,"2016-12-06T00:00:00","35","7","10,3","0,7","216,7","24,7","73,2","0","0"],
    [24975,"2016-12-06T01:00:00","82","39","7,57","1,4","60,7","24,9","73,6","0","0"],
    [24976,"2016-12-06T02:00:00","84","25","7,3","1,5","51","24,5","74,7","0","0"],
    [24977,"2016-12-06T03:00:00","51","10","5,34","2,6","120,3","24,8","74,5","0","0"],
    [24978,"2016-12-06T04:00:00","67","8","5,97","0,5","164,4","23,8","78,1","0","0"],
    [24979,"2016-12-06T05:00:00","73","27","6,3","0,5","65,1","23,5","78,9","0","0"],
    [24980,"2016-12-06T06:00:00","91","28","7,22","0,7","181,7","23,1","80,3","0","0"],
    [24981,"2016-12-06T07:00:00","94","30","6,4","2,3","94,5","23,8","77,5","14,1","0"],
    [24982,"2016-12-06T08:00:00","73","17","7,69","2,3","44,7","24,6","71,6","50,6","0"],
    [24983,"2016-12-06T09:00:00","59","9","11,75","2,2","72,2","26,4","65,4","152,2","0"],
    [24984,"2016-12-06T10:00:00","56","16","34,03","1,7","334,3","28,8","56,5","161,8","0"],
    [24985,"2016-12-06T11:00:00","55","23","65,96","0,6","346,8","29,6","52,5","261,3","0"],
    [24986,"2016-12-06T12:00:00","60","24","78,36","3","111,2","32,6","42,4","427,1","0"],
    [24987,"2016-12-06T13:00:00","52","17","80,87","2,5","88,8","33,8","39","415,2","0"],
    [24988,"2016-12-06T14:00:00","49","19","86,62","2,3","95,7","34,1","37,1","276,9","0"],
    [24989,"2016-12-06T15:00:00","59","21","117,8","3,1","15,8","34,9","36,7","217,7","0"],
    [24990,"2016-12-06T16:00:00","56","17","68,98","4,3","7,9","33,3","39,7","105,7","0"],
    [24991,"2016-12-06T17:00:00","33","ND","40,92","5,8","295,3","33","39,6","90,8","0"],
    [24992,"2016-12-06T18:00:00","17","ND","23,8","6,7","292,6","30,9","44,6","9,1","0"],
    [24993,"2016-12-06T19:00:00","48","6","15,9","2,2","288,7","29,6","49,3","0","0"],
    [24994,"2016-12-06T20:00:00","58","13","20,02","3,3","157","28,5","53,1","0","0"],
    [24995,"2016-12-06T21:00:00","121","54","21,19","3,5","142,2","27,5","57,7","0","0"],
    [24996,"2016-12-06T22:00:00","38","4","26,96","2,8","180,8","25,9","64","0","0"],
    [24997,"2016-12-06T23:00:00","38","4","16,01","1,8","187,7","25,2","67,3","0","0"],
    [24998,"2016-12-07T00:00:00","70","20","12,25","2,4","82,8","25,2","69","0","0"],
    [24999,"2016-12-07T01:00:00","55","11","14,54","2,6","74,1","25","70,2","0","0"],
    [25000,"2016-12-07T02:00:00","69","24","9,6","1,4","166,3","24,9","71,8","0","0"],
    [25001,"2016-12-07T03:00:00","49","8","12,01","2","213,9","24,7","73,7","0","0"],
    [25002,"2016-12-07T04:00:00","19","10","13,85","0,6","232,9","24,1","77,3","0","2,29"],
    [25003,"2016-12-07T05:00:00","33","9","8,87","1,7","208,1","23,7","80,4","0","0"],
    [25004,"2016-12-07T06:00:00","44","14","8,52","1,6","179","23,5","81","0","0,25"],
    [25005,"2016-12-07T07:00:00","31","10","7,44","1,8","177,2","23,5","81,5","12,2","0"],
    [25006,"2016-12-07T08:00:00","57","17","10,66","1,5","147,9","24,8","77","63,4","0"],
    [25007,"2016-12-07T09:00:00","43","20","17,58","0,7","147,5","26,4","69,5","117,1","0"],
    [25008,"2016-12-07T10:00:00","45","13","30,5","2","104,7","28,9","58,1","235,8","0"],
    [25009,"2016-12-07T11:00:00","39","19","46,27","1,9","106,2","31","50,2","224,5","0"],
    [25010,"2016-12-07T12:00:00","33","8","50,86","2,5","104,1","31,5","47,7","213,2","0"],
    [25011,"2016-12-07T13:00:00","54","16","59,56","3,8","82,5","31,8","48,5","263,9","0"],
    [25012,"2016-12-07T14:00:00","60","23","103,97","2,7","19,6","33,1","43,3","287,7","0"],
    [25013,"2016-12-07T15:00:00","65","20","103,2","2,1","3,3","33,8","41","229,2","0"],
    [25014,"2016-12-07T16:00:00","58","20","55,2","3,5","93","32,4","48,2","89,2","2,03"],
    [25015,"2016-12-07T17:00:00","63","14","23,18","1,9","82,4","29,9","55,4","24","0"],
    [25016,"2016-12-07T18:00:00","53","11","13,99","2,9","225,2","29,2","53,5","3,8","0"],
    [25017,"2016-12-07T19:00:00","86","31","9,83","2,8","203,6","27,8","56,7","0","0"],
    [25018,"2016-12-07T20:00:00","81","26","6,69","3,1","222,4","27,9","56","0","0"],
    [25019,"2016-12-07T21:00:00","161","88","8,16","1,4","157,6","27,4","59,4","0","0"],
    [25020,"2016-12-07T22:00:00","165","88","7,97","2,2","108,7","26,7","64,7","0","0"],
    [25021,"2016-12-07T23:00:00","140","62","8,01","1,9","137,2","26,1","68,9","0","0"],
    [25022,"2016-12-08T00:00:00","93","28","8,24","0,3","175,2","25,3","72,8","0","0"],
    [25023,"2016-12-08T01:00:00","93","35","6,83","1,6","159,9","24,8","74,6","0","0"],
    [25024,"2016-12-08T02:00:00","102","45","7,52","1,3","158,9","24,2","77,1","0","0"],
    [25025,"2016-12-08T03:00:00","68","18","6,59","1","218,2","24,2","75,9","0","0"],
    [25026,"2016-12-08T04:00:00","78","27","7,24","2,3","146,1","24,5","74,8","0","0"],
    [25027,"2016-12-08T05:00:00","72","25","7,06","1,6","114,6","24,2","75,6","0","0"],
    [25028,"2016-12-08T06:00:00","84","21","5,83","0,7","344,5","23,7","77","0","0"],
    [25029,"2016-12-08T07:00:00","114","34","6,61","1,5","92,2","24,4","76","12,9","0"],
    [25030,"2016-12-08T08:00:00","100","39","7,59","3,1","95,9","25,8","70,6","51","0"],
    [25031,"2016-12-08T09:00:00","78","27","18,88","0,4","223,1","27,3","63,3","177,4","0"],
    [25032,"2016-12-08T10:00:00","51","13","36,83","1,7","149,5","30,8","49","253,1","0"],
    [25033,"2016-12-08T11:00:00","63","16","46,96","2,4","127,9","31,7","47,5","307,6","0"],
    [25034,"2016-12-08T12:00:00","58","17","76,43","2,2","91,2","33,8","40,1","428,8","0"],
    [25035,"2016-12-08T13:00:00","46","14","84,83","1,4","357,7","34,3","38,2","181,7","0"],
    [25036,"2016-12-08T14:00:00","54","20","99,3","1,7","14,5","34","39,5","334,4","0"],
    [25037,"2016-12-08T15:00:00","39","6","74,49","4,2","26,1","33,5","40,5","121,9","0"],
    [25038,"2016-12-08T16:00:00","51","17","63,99","2,2","72,3","33,1","39,6","90,2","0"],
    [25039,"2016-12-08T17:00:00","55","12","35,36","1,1","221","32,5","41,5","10,3","0"],
    [25040,"2016-12-08T18:00:00","26","5","17,17","6,2","267,7","29,3","53,8","0,9","0"],
    [25041,"2016-12-08T19:00:00","44","1","10,73","3","187,6","27,4","62,3","0","0"],
    [25042,"2016-12-08T20:00:00","46","16","16,99","3,4","203,5","27,2","63,6","0","0"],
    [25043,"2016-12-08T21:00:00","42","10","24,47","3,6","199,8","26,5","68,3","0","0"],
    [25044,"2016-12-08T22:00:00","36","10","22,08","2,6","179,9","25,7","70,9","0","0"],
    [25045,"2016-12-08T23:00:00","39","9","19,07","2,7","182,9","25,4","73,2","0","0,25"],
    [25046,"2016-12-09T00:00:00","60","24","15,72","2","101,5","24,9","75,9","0","0"],
    [25047,"2016-12-09T01:00:00","51","9","14,15","1,9","101,5","24,4","78,1","0","0"],
    [25048,"2016-12-09T02:00:00","30","7","11,42","2,8","70,5","24,4","77,9","0","1,27"],
    [25049,"2016-12-09T03:00:00","20","ND","12,07","3,1","67,2","24,6","76,9","0","2,54"],
    [25050,"2016-12-09T04:00:00","34","ND","12,19","2,2","69,5","23,8","79,4","0","2,54"],
    [25051,"2016-12-09T05:00:00","27","3","8,83","1,3","353","23,3","80,3","0","0"],
    [25052,"2016-12-09T06:00:00","35","5","6,5","1,5","261,3","23,1","81,5","0","0,25"],
    [25053,"2016-12-09T07:00:00","38","16","6,5","1,5","149,5","23,7","80,5","7","0"],
    [25054,"2016-12-09T08:00:00","72","22","7,65","2,7","107,3","24,8","76","55","0"],
    [25055,"2016-12-09T09:00:00","58","24","13,07","1,5","124,4","26,5","67,9","161,2","0"],
    [25056,"2016-12-09T10:00:00","42","18","25,82","1,2","133,3","28,8","57,5","250,5","0"],
    [25057,"2016-12-09T11:00:00","34","12","43,33","3,4","102,1","31,4","46,5","402,4","0"],
    [25058,"2016-12-09T12:00:00","34","13","61,78","3,4","73","32,4","44,2","375,8","0"],
    [25059,"2016-12-09T13:00:00","42","14","65,74","5,7","81,2","32,4","43,2","309,3","0"],
    [25060,"2016-12-09T14:00:00","31","9","73,86","4,7","59,8","33","41,3","332,2","0"],
    [25061,"2016-12-09T15:00:00","34","7","61,32","4,8","51,6","33,7","39,7","212,5","0"],
    [25062,"2016-12-09T16:00:00","36","5","38,89","2,1","348","33","39,8","141,1","0"],
    [25063,"2016-12-09T17:00:00","28","1","35,28","5,2","283,9","33,9","36,6","123,5","0"],
    [25064,"2016-12-09T18:00:00","27","2","25,12","6,1","289,1","32","40,1","22","0"],
    [25065,"2016-12-09T19:00:00","35","5","14,13","3,8","298","29,3","47,9","0","0"],
    [25066,"2016-12-09T20:00:00","67","13","8,12","2,7","84,8","28,2","55,8","0","0"],
    [25067,"2016-12-09T21:00:00","56","12","7,16","2,7","129,1","26,7","62,4","0","0"],
    [25068,"2016-12-09T22:00:00","59","11","9,44","2,8","185,6","25,6","68,3","0","0"],
    [25069,"2016-12-09T23:00:00","63","16","9,16","1,7","144,2","25,2","71,6","0","0"],
    [25070,"2016-12-10T00:00:00","38","3","13,56","2,7","167,4","24,9","71,6","0","0"],
    [25071,"2016-12-10T01:00:00","20","ND","16,9","2,1","157,8","25","70,5","0","0"],
    [25072,"2016-12-10T02:00:00","47","8","16,9","1,1","133,2","24,3","72,7","0","0"],
    [25073,"2016-12-10T03:00:00","41","9","14,4","0,5","166,4","23,8","74,7","0","0"],
    [25074,"2016-12-10T04:00:00","42","7","15,13","2,1","198,3","24,5","72,4","0","0"],
    [25075,"2016-12-10T05:00:00","55","8","8,54","1,6","109,8","24,3","73,4","0","0"],
    [25076,"2016-12-10T06:00:00","86","23","6,99","1","88,7","23,8","74,8","0","0"],
    [25077,"2016-12-10T07:00:00","95","25","7,34","0,5","167,6","23,5","76,6","22,8","0"],
    [25078,"2016-12-10T08:00:00","96","36","12,32","1,7","100,1","26,4","66,4","109,4","0"],
    [25079,"2016-12-10T09:00:00","64","17","21,94","3,2","92,2","29","55,7","212,4","0"],
    [25080,"2016-12-10T10:00:00","60","18","35,73","2,3","145,7","30,7","48,4","213","0"],
    [25081,"2016-12-10T11:00:00","67","25","63,27","0,9","114,9","31,4","46,2","307,9","0"],
    [25082,"2016-12-10T12:00:00","62","20","84,03","2,2","101,8","33,5","40,2","363,8","0"],
    [25083,"2016-12-10T13:00:00","68","26","78,1","3,1","101,8","34,7","36,7","382,9","0"],
    [25084,"2016-12-10T14:00:00","62","25","91,01","2,8","112,1","35,1","34,7","324","0"],
    [25085,"2016-12-10T15:00:00","54","13","100,02","2,1","57,6","35,6","33,8","228,7","0"],
    [25086,"2016-12-10T16:00:00","55","24","121,53","2,7","342,1","34,3","37,1","97,9","0"],
    [25087,"2016-12-10T17:00:00","59","16","111,7","2,5","334,7","34,3","36,7","90,3","0"],
    [25088,"2016-12-10T18:00:00","52","2","24,73","4,4","284,3","32,5","40,1","9,5","0"],
    [25089,"2016-12-10T19:00:00","62","14","10,05","2,8","334,7","30","46,5","0","0"],
    [25090,"2016-12-10T20:00:00","77","20","9,4","1,8","31,3","28,4","52,5","0","0"],
    [25091,"2016-12-10T21:00:00","58","8","6,73","2,2","94,6","27,2","61,4","0","0"],
    [25092,"2016-12-10T22:00:00","48","10","6,87","3,3","82,7","26,4","64,4","0","0"],
    [25093,"2016-12-10T23:00:00","44","7","7,54","1,5","36,8","26","65,2","0","0"],
    [25094,"2016-12-11T00:00:00","58","7","7,12","2,8","114,2","25,6","67,1","0","0"],
    [25095,"2016-12-11T01:00:00","42","4","6,04","1,7","103,8","25,1","69,9","0","0"],
    [25096,"2016-12-11T02:00:00","51","3","6,2","1","192,7","24,8","72,4","0","0"],
    [25097,"2016-12-11T03:00:00","45","7","8,2","3,4","194,9","25,2","72,1","0","0"],
    [25098,"2016-12-11T04:00:00","31","5","12,97","3","168","24,6","74,5","0","0,51"],
    [25099,"2016-12-11T05:00:00","19","4","10,52","1,5","171,4","23,7","79,6","0","6,6"],
    [25100,"2016-12-11T06:00:00","27","5","9,48","0,8","13,4","23,2","81,6","0","0"],
    [25101,"2016-12-11T07:00:00","26","3","8,01","1","199","23,4","81,6","11,8","0"],
    [25102,"2016-12-11T08:00:00","36","7","11,22","1,9","178,6","25,1","76,1","103,5","0"],
    [25103,"2016-12-11T09:00:00","42","15","19,47","2,9","118,8","28,1","63,2","184,1","0"],
    [25104,"2016-12-11T10:00:00","59","18","33,91","2,8","119,9","29,6","56,4","209,9","0"],
    [25105,"2016-12-11T11:00:00","39","16","55,1","2","141,5","31,5","48,8","313,5","0"],
    [25106,"2016-12-11T12:00:00","36","17","75,55","0,8","50,5","31,8","46,5","302,1","0"],
    [25107,"2016-12-11T13:00:00","43","15","107,38","1,3","11,9","34,4","38,5","366,3","0"],
    [25108,"2016-12-11T14:00:00","40","16","102,36","3,4","48,1","34,6","38,2","308","0"],
    [25109,"2016-12-11T15:00:00","38","13","86,07","4","63,8","34,4","38,8","246,1","0"],
    [25110,"2016-12-11T16:00:00","41","11","56,85","1,7","98,4","34,2","37,8","92,5","0"],
    [25111,"2016-12-11T17:00:00","22","8","40,88","5,2","287,7","32,8","37,7","93,1","0"],
    [25112,"2016-12-11T18:00:00","26","5","31,77","6,1","287,3","32","39,9","23,4","0"],
    [25113,"2016-12-11T19:00:00","29","2","21,57","5,4","283,5","29,8","47,4","0","0"],
    [25114,"2016-12-11T20:00:00","38","4","14,44","1,4","334,3","29,1","51,4","0","0"],
    [25115,"2016-12-11T21:00:00","51","7","8,4","3,7","85","28","59,9","0","0"],
    [25116,"2016-12-11T22:00:00","38","6","7,56","1,7","44,7","26,2","64,9","0","0"],
    [25117,"2016-12-11T23:00:00","51","11","6,5","1,6","89,4","26","65,8","0","0"],
    [25118,"2016-12-12T00:00:00","27","7","7,65","1,2","114,2","25,1","68,1","0","0"],
    [25119,"2016-12-12T01:00:00","23","2","7,34","1,7","116,6","25","68,5","0","0"],
    [25120,"2016-12-12T02:00:00","33","ND","6,65","1,6","148,7","24,8","70","0","0"],
    [25121,"2016-12-12T03:00:00","49","ND","7,34","1,4","104,1","24,7","70,3","0","0"],
    [25122,"2016-12-12T04:00:00","40","4","6,61","1,4","179,7","24,4","72,4","0","0"],
    [25123,"2016-12-12T05:00:00","52","4","6,14","1,7","166,6","24,4","73,2","0","0"],
    [25124,"2016-12-12T06:00:00","72","10","6,48","1","90,4","24,2","73,9","0","0"],
    [25125,"2016-12-12T07:00:00","79","10","6,69","1,3","141","24,4","73","12,8","0"],
    [25126,"2016-12-12T08:00:00","57","9","7,34","2,1","174,6","25,3","71,3","52,2","0"],
    [25127,"2016-12-12T09:00:00","48","7","13,95","2,4","188,9","27,1","62,2","105,9","0"],
    [25128,"2016-12-12T10:00:00","51","8","21,12","2,2","198,6","28,5","56,9","151,4","0"],
    [25129,"2016-12-12T11:00:00","57","12","32,79","2,9","210","30,4","50,8","255,9","0"],
    [25130,"2016-12-12T12:00:00","59","11","47,37","1,8","117,3","32,7","43,6","360,7","0"],
    [25131,"2016-12-12T13:00:00","51","17","64,13","2,4","109,1","34,6","38,4","450,8","0"],
    [25132,"2016-12-12T14:00:00","41","16","75,88","2","125,4","34,3","38,4","226,8","0"],
    [25133,"2016-12-12T15:00:00","63","19","98,59","2,4","97,7","35,5","35,6","256,4","0"],
    [25134,"2016-12-12T16:00:00","72","26","126,61","2,1","53","34,2","38","100,3","0"],
    [25135,"2016-12-12T17:00:00","47","16","72,94","4,1","295,9","33,2","38,9","57,6","0"],
    [25136,"2016-12-12T18:00:00","44","7","19,25","4,7","288,5","31,4","42,8","10,8","0"],
    [25137,"2016-12-12T19:00:00","54","6","10,44","3,5","304,8","30","46,8","0","0"],
    [25138,"2016-12-12T20:00:00","88","20","7,57","2,6","69,7","28,8","54,6","0","0"],
    [25139,"2016-12-12T21:00:00","72","13","6,85","2,6","87,1","27","63,4","0","0"],
    [25140,"2016-12-12T22:00:00","52","11","6,73","2,6","99","26,2","66,1","0","0"],
    [25141,"2016-12-12T23:00:00","36","8","7,22","2,9","91,6","25,7","67,8","0","0"],
    [25142,"2016-12-13T00:00:00","32","4","8,44","3,5","86,9","25,2","69,4","0","0"],
    [25143,"2016-12-13T01:00:00","32","1","8,97","2","88,4","25,2","69","0","0"],
    [25144,"2016-12-13T02:00:00","40","2","9,6","0,8","64,1","24,5","71,5","0","0"],
    [25145,"2016-12-13T03:00:00","32","3","8,2","1,4","140,7","24,2","72,9","0","0"],
    [25146,"2016-12-13T04:00:00","43","2","9,05","1,2","219,4","24,2","73","0","0"],
    [25147,"2016-12-13T05:00:00","71","15","6,55","1,6","201,2","24,2","74,6","0","0"],
    [25148,"2016-12-13T06:00:00","98","30","6,55","1,2","91,1","24,1","75,6","0","0"],
    [25149,"2016-12-13T07:00:00","105","34","6,63","1,1","116,7","24","75,9","11","0"],
    [25150,"2016-12-13T08:00:00","115","30","7,16","1,9","120,4","25,5","71,3","43,8","0"],
    [25151,"2016-12-13T09:00:00","74","19","18,64","1,2","263,7","27,4","62,6","177,7","0"],
    [25152,"2016-12-13T10:00:00","62","17","32,28","2,6","208,9","31","49,3","269,1","0"],
    [25153,"2016-12-13T11:00:00","75","16","47","2,1","114,9","32,4","45","361,9","0"],
    [25154,"2016-12-13T12:00:00","50","19","74,16","2,4","105,9","33,8","39,9","349,7","0"],
    [25155,"2016-12-13T13:00:00","53","17","80,18","3","67,9","35","36,7","275,9","0"],
    [25156,"2016-12-13T14:00:00","39","12","59,58","1,5","319,7","34","38,4","121,6","0"],
    [25157,"2016-12-13T15:00:00","42","7","43,15","5,1","276,1","32,8","39,4","141,3","0"],
    [25158,"2016-12-13T16:00:00","38","3","51,71","3,4","266,2","33,2","38,1","82,4","0"],
    [25159,"2016-12-13T17:00:00","42","3","27,41","4,1","276,2","31,9","41","29,4","0"],
    [25160,"2016-12-13T18:00:00","49","5","15,5","3,5","300,9","30,8","43,5","10,9","0"],
    [25161,"2016-12-13T19:00:00","55","4","13,4","2,5","298,9","29,5","47,7","0","0"],
    [25162,"2016-12-13T20:00:00","73","11","7,65","1,9","98,1","28,4","53,9","0","0"],
    [25163,"2016-12-13T21:00:00","51","11","9,6","2,8","62,6","27,8","58","0","0"],
    [25164,"2016-12-13T22:00:00","52","13","11,26","2,5","72,1","26,8","60,6","0","0"],
    [25165,"2016-12-13T23:00:00","48","10","11,56","1,5","87,2","25,4","66,9","0","0"],
    [25166,"2016-12-14T00:00:00","31","5","12,76","1,5","125,6","24,9","68,7","0","0"],
    [25167,"2016-12-14T01:00:00","27","ND","12,91","2","100,9","25,2","67,4","0","0"],
    [25168,"2016-12-14T02:00:00","59","11","7,87","0,5","128,4","24,6","70,7","0","0"],
    [25169,"2016-12-14T03:00:00","56","11","9,44","1,3","149,1","24,2","75,3","0","0"],
    [25170,"2016-12-14T04:00:00","63","8","6,52","1,3","75,8","24","76,6","0","0"],
    [25171,"2016-12-14T05:00:00","60","16","6,26","1,6","59,4","23,8","76","0","0"],
    [25172,"2016-12-14T06:00:00","96","27","6,93","1,6","88,8","23,2","77,8","0","0"],
    [25173,"2016-12-14T07:00:00","77","16","7,1","0,8","12,6","22,7","80,8","13,6","0"],
    [25174,"2016-12-14T08:00:00","ND","ND","ND","1,5","27,5","25,3","71,9","102,9","0"],
    [25175,"2016-12-14T09:00:00","ND","37","ND","0,3","97,5","27,2","63,2","145","0"],
    [25176,"2016-12-14T10:00:00","ND","37","46,08","1","157,5","30,6","50,3","291,7","0"],
    [25177,"2016-12-14T11:00:00","ND","ND","59,01","3,2","97","32,4","44,6","290,9","0"],
    [25178,"2016-12-14T12:00:00","59","21","83,46","2,2","66,6","33,3","41,1","289,1","0"],
    [25179,"2016-12-14T13:00:00","59","21","105,22","1,2","48,9","33,6","40,6","320","0"],
    [25180,"2016-12-14T14:00:00","55","21","113,33","0,9","104,7","35,5","35,6","277,6","0"],
    [25181,"2016-12-14T15:00:00","63","19","109,6","2","15,4","34,4","37","96,8","0"],
    [25182,"2016-12-14T16:00:00","59","14","76,65","2,9","14,6","33,4","39,2","59,9","0"],
    [25183,"2016-12-14T17:00:00","38","9","51,18","4","296,8","33,2","38,3","59,6","0"],
    [25184,"2016-12-14T18:00:00","46","7","33,03","5,2","283,9","31,8","40,8","13,9","0"],
    [25185,"2016-12-14T19:00:00","42","10","27,61","4,6","290,3","30,3","44,6","0","0"],
    [25186,"2016-12-14T20:00:00","54","13","21,72","2,8","246","29,6","48,1","0","0"],
    [25187,"2016-12-14T21:00:00","108","23","46,19","3,5","213,2","28,5","56,7","0","0"],
    [25188,"2016-12-14T22:00:00","76","22","29,81","3,8","214,7","27,4","63,4","0","0"],
    [25189,"2016-12-14T23:00:00","59","21","29,51","3,1","201,3","26,9","66,5","0","0"],
    [25190,"2016-12-15T00:00:00","57","23","24,65","2,4","198,2","26,3","68,4","0","0"],
    [25191,"2016-12-15T01:00:00","48","14","20,96","2,4","152,2","25,9","70,7","0","0"],
    [25192,"2016-12-15T02:00:00","48","18","21,33","1","147,9","25,4","73,1","0","0"],
    [25193,"2016-12-15T03:00:00","66","18","15,42","1,4","83,6","25,4","73,2","0","0"],
    [25194,"2016-12-15T04:00:00","47","22","14,44","1,1","89,7","24,7","75,4","0","0"],
    [25195,"2016-12-15T05:00:00","71","25","10,44","0,5","148,9","25,2","72,8","0","0"],
    [25196,"2016-12-15T06:00:00","76","31","9,71","1,9","172,3","24,7","75,6","0","0"],
    [25197,"2016-12-15T07:00:00","83","34","6,85","0,7","145,8","24,4","77,5","12,5","0"],
    [25198,"2016-12-15T08:00:00","107","31","9,5","1,4","32,4","25,8","72","64,8","0"],
    [25199,"2016-12-15T09:00:00","119","43","11,52","2,2","124,9","27,3","66,2","48,5","0"],
    [25200,"2016-12-15T10:00:00","137","50","15,27","2,8","89","28,1","63,8","96,3","0"],
    [25201,"2016-12-15T11:00:00","100","39","46,8","1,4","160,3","30,9","51,5","342,8","0"],
    [25202,"2016-12-15T12:00:00","68","27","74,69","1,7","131,5","33,9","41","378,6","0"],
    [25203,"2016-12-15T13:00:00","56","18","92,49","1,6","48,7","34,9","37,5","311","0"],
    [25204,"2016-12-15T14:00:00","50","24","85,36","3,5","63,1","34,3","39,3","192,6","0"],
    [25205,"2016-12-15T15:00:00","68","25","98,92","3,7","49,9","34,2","40,2","135,6","0"],
    [25206,"2016-12-15T16:00:00","47","17","84,72","4,6","24,1","33,5","41,9","127,6","0"],
    [25207,"2016-12-15T17:00:00","30","5","40,52","4,7","345,3","33,9","37,9","85,5","0"],
    [25208,"2016-12-15T18:00:00","41","14","24,25","5,4","307,8","31,5","42,2","0","0"],
    [25209,"2016-12-15T19:00:00","60","9","12,28","2,5","353,9","29,9","45,7","0","0"],
    [25210,"2016-12-15T20:00:00","63","16","10,4","3,1","113,3","29,3","52,5","0","0,25"],
    [25211,"2016-12-15T21:00:00","59","22","29,1","4,6","207","27,1","61,7","0","0"],
    [25212,"2016-12-15T22:00:00","26","7","36,52","3,5","206,5","26","63,4","0","0"],
    [25213,"2016-12-15T23:00:00","22","8","27,34","2,9","180,8","25,3","66,9","0","0"],
    [25214,"2016-12-16T00:00:00","35","12","18,66","2,1","125,9","24,7","70,4","0","0"],
    [25215,"2016-12-16T01:00:00","53","23","15,88","2,3","77,4","24,3","72,8","0","0"],
    [25216,"2016-12-16T02:00:00","40","8","17,43","1,4","178,7","24","73,8","0","0"],
    [25217,"2016-12-16T03:00:00","26","5","17,64","0,6","163,9","24","73,9","0","0"],
    [25218,"2016-12-16T04:00:00","36","12","15,33","1,3","117,3","24,3","71,7","0","0"],
    [25219,"2016-12-16T05:00:00","46","16","11,21","1,1","124,3","23,9","73,6","0","0"],
    [25220,"2016-12-16T06:00:00","74","20","6,59","1,1","93,2","23,6","75,4","0","0"],
    [25221,"2016-12-16T07:00:00","97","34","6,63","1,4","148,1","23,4","77","16,5","0"],
    [25222,"2016-12-16T08:00:00","93","31","9,99","1,2","104","26,1","67,9","92,3","0"],
    [25223,"2016-12-16T09:00:00","120","37","16,13","2,6","80,7","27,8","61,7","119,5","0"],
    [25224,"2016-12-16T10:00:00","80","33","31,89","1,8","45,9","28,6","57,4","231,3","0"],
    [25225,"2016-12-16T11:00:00","38","10","53,63","4,7","79,5","32,5","42,3","364,8","0"],
    [25226,"2016-12-16T12:00:00","19","8","69,61","3,2","65,5","33,9","39","389,1","0"],
    [25227,"2016-12-16T13:00:00","32","10","85,64","3,3","70,4","35,1","36,3","342,5","0"],
    [25228,"2016-12-16T14:00:00","56","16","77,97","4,5","85","33,8","39,9","128,2","0"],
    [25229,"2016-12-16T15:00:00","47","14","88,23","3,1","115,4","33","42,6","181,4","0"],
    [25230,"2016-12-16T16:00:00","39","10","79,91","1,7","43,4","34,6","37,5","110,2","0"],
    [25231,"2016-12-16T17:00:00","50","6","38,17","3,6","203,4","31,5","45,8","6,5","5,59"],
    [25232,"2016-12-16T18:00:00","25","9","40,6","5,1","200,8","24,7","75,9","0","25,91"],
    [25233,"2016-12-16T19:00:00","34","16","16,97","2,8","140,6","23,9","81,5","0","7,62"],
    [25234,"2016-12-16T20:00:00","33","15","10,38","1,4","135,8","23,6","81,9","0","2,03"],
    [25235,"2016-12-16T21:00:00","40","18","8,52","1,7","43,5","23,4","82,4","0","0"],
    [25236,"2016-12-16T22:00:00","53","19","8,38","2,9","78,6","23,6","81,6","0","0"],
    [25237,"2016-12-16T23:00:00","38","8","6,97","0,6","124,2","23,4","80,7","0","0"],
    [25238,"2016-12-17T00:00:00","42","11","7,93","2","234,2","23,4","81,9","0","0"],
    [25239,"2016-12-17T01:00:00","32","8","7,44","2,3","208,9","23,8","81,1","0","0"],
    [25240,"2016-12-17T02:00:00","31","9","5,42","2,3","175,7","24","80,7","0","0"],
    [25241,"2016-12-17T03:00:00","22","5","6,02","1,3","147,1","23,5","81,2","0","0"],
    [25242,"2016-12-17T04:00:00","23","3","7,44","1,9","172,4","23,5","80,9","0","0"],
    [25243,"2016-12-17T05:00:00","37","5","6,06","1,9","120,9","23,6","80,3","0","0"],
    [25244,"2016-12-17T06:00:00","49","6","5,77","0,9","51,6","23,6","79,8","0","0"],
    [25245,"2016-12-17T07:00:00","73","28","6,71","1,4","110,8","23,4","81,3","17,1","0"],
    [25246,"2016-12-17T08:00:00","81","23","6,99","1,3","102,6","24,7","75,9","36,8","0"],
    [25247,"2016-12-17T09:00:00","73","35","14,13","0,2","5,4","26,7","68,5","190,8","0"],
    [25248,"2016-12-17T10:00:00","67","24","36,42","1,9","80,9","29,8","53,8","296,3","0"],
    [25249,"2016-12-17T11:00:00","43","13","46,12","1,6","49,9","31,3","48","355,4","0"],
    [25250,"2016-12-17T12:00:00","25","7","51,47","3,1","83,3","32,9","41,9","417,9","0"],
    [25251,"2016-12-17T13:00:00","29","3","56,46","3,3","91,9","34,1","38,4","350,5","0"],
    [25252,"2016-12-17T14:00:00","31","14","72,12","3","37,1","34","39,3","262","0"],
    [25253,"2016-12-17T15:00:00","32","8","54,91","3,7","37,8","34,5","37,7","183,3","0"],
    [25254,"2016-12-17T16:00:00","27","4","42,72","5","4,1","34,3","36,4","176,5","0"],
    [25255,"2016-12-17T17:00:00","22","3","38,56","5","8,3","33,5","37,6","110,6","0"],
    [25256,"2016-12-17T18:00:00","39","13","25,82","3,3","13,9","32,4","40","20,6","0"],
    [25257,"2016-12-17T19:00:00","32","9","20,15","3,1","284,7","29,7","46,5","0","0"],
    [25258,"2016-12-17T20:00:00","36","9","29,14","3,7","180,1","28,2","58","0","0"],
    [25259,"2016-12-17T21:00:00","33","8","20,62","2,5","162,7","26,2","65,6","0","0"],
    [25260,"2016-12-17T22:00:00","48","10","14,42","2,1","146,3","25,1","70,3","0","0"],
    [25261,"2016-12-17T23:00:00","59","8","9,05","1,4","132,8","24,3","74","0","0"],
    [25262,"2016-12-18T00:00:00","53","10","8,01","2,7","141,9","24,1","74,3","0","0"],
    [25263,"2016-12-18T01:00:00","42","8","8,93","1,8","149,7","23,4","75,3","0","0"],
    [25264,"2016-12-18T02:00:00","36","6","7,87","1,1","193,9","23,4","76,2","0","0"],
    [25265,"2016-12-18T03:00:00","41","7","7,12","1,1","35,9","23,9","75","0","0"],
    [25266,"2016-12-18T04:00:00","ND","22","6,42","1,9","59,4","24,3","73,7","0","0"],
    [25267,"2016-12-18T05:00:00","47","8","5,93","2","73","23,6","76,5","0","0"],
    [25268,"2016-12-18T06:00:00","57","10","6,44","1,5","125","23,2","77,6","0","0"],
    [25269,"2016-12-18T07:00:00","41","6","6,5","1","238,9","22,7","80,7","7,5","0"],
    [25270,"2016-12-18T08:00:00","70","16","7,57","1,9","103,3","24,5","75","97,8","0"],
    [25271,"2016-12-18T09:00:00","62","22","23,08","1,1","193,8","28,2","58,9","219,4","0"],
    [25272,"2016-12-18T10:00:00","71","24","42,29","1,5","186,5","30,6","51,5","295,7","0"],
    [25273,"2016-12-18T11:00:00","62","30","72,82","2,2","339,4","31,8","47,4","268","0"],
    [25274,"2016-12-18T12:00:00","38","ND","86,23","1,9","64,5","33,2","42,5","399,6","0"],
    [25275,"2016-12-18T13:00:00","34","ND","83,34","2,5","85,1","34,6","36,8","372,6","0"],
    [25276,"2016-12-18T14:00:00","36","ND","95,69","2,7","57,6","35,2","35,9","333,9","0"],
    [25277,"2016-12-18T15:00:00","47","ND","110,03","3","29,7","35,4","35,9","240,7","0"],
    [25278,"2016-12-18T16:00:00","52","ND","79,2","5,1","54,9","34,2","38,1","123,2","0"],
    [25279,"2016-12-18T17:00:00","37","ND","52,12","3,8","358,8","34,2","37,4","81,7","0"],
    [25280,"2016-12-18T18:00:00","30","ND","39,25","5,4","298,9","32,2","39,8","18,3","0"],
    [25281,"2016-12-18T19:00:00","38","ND","20,27","3,5","311,6","30,2","45","0","0"],
    [25282,"2016-12-18T20:00:00","73","ND","10,18","2,7","75,4","29,1","51,5","0","0"],
    [25283,"2016-12-18T21:00:00","76","ND","8,58","3,3","82,6","27,4","61,2","0","0"],
    [25284,"2016-12-18T22:00:00","59","ND","7,85","1,8","103,1","26,2","65,4","0","0"],
    [25285,"2016-12-18T23:00:00","55","ND","6,48","1,5","213,9","25,9","66,5","0","0"],
    [25286,"2016-12-19T00:00:00","42","ND","6,28","1,9","135,5","25,8","67,2","0","0"],
    [25287,"2016-12-19T01:00:00","44","ND","7,67","1,2","62","26,1","66,9","0","0"],
    [25288,"2016-12-19T02:00:00","65","ND","7,24","1,1","311,4","24,9","71,7","0","0"],
    [25289,"2016-12-19T03:00:00","46","ND","5,75","2,3","120,2","25,3","70,8","0","0"],
    [25290,"2016-12-19T04:00:00","37","ND","6,2","0,9","186,8","25,1","70,7","0","0"],
    [25291,"2016-12-19T05:00:00","38","ND","6,42","0,9","227,2","24,3","73,5","0","0"],
    [25292,"2016-12-19T06:00:00","76","ND","6,38","1,6","147,1","24,9","71,9","0","0"],
    [25293,"2016-12-19T07:00:00","71","ND","6,24","1,5","229,7","24,9","72,7","12,5","0"],
    [25294,"2016-12-19T08:00:00","75","ND","7,79","1,5","125,4","26","70","60,6","0"],
    [25295,"2016-12-19T09:00:00","52","ND","16,88","2,4","212,7","28,6","59,3","167,2","0"],
    [25296,"2016-12-19T10:00:00","57","ND","26,39","2,7","177,3","30,3","52,7","204,7","0"],
    [25297,"2016-12-19T11:00:00","59","ND","41,15","2","159,5","31,7","48,1","259,7","0"],
    [25298,"2016-12-19T12:00:00","53","ND","59,99","1,8","102","32,6","44,1","237,7","0"],
    [25299,"2016-12-19T13:00:00","64","ND","73,41","2,3","105,5","33,2","42,5","203,1","0"],
    [25300,"2016-12-19T14:00:00","59","ND","93,11","2,9","116,2","34","40,1","242,9","0"],
    [25301,"2016-12-19T15:00:00","54","ND","73,45","3,6","112,9","33,8","39,8","127,1","0"],
    [25302,"2016-12-19T16:00:00","48","ND","67,09","2,3","94,6","33","42,2","88,9","0"],
    [25303,"2016-12-19T17:00:00","53","ND","67,39","3,1","236,8","32,4","42,8","56,5","0"],
    [25304,"2016-12-19T18:00:00","ND","ND","31,4","2,6","284","31,8","42,3","20,2","0"],
    [25305,"2016-12-19T19:00:00","ND","ND","9,05","1,4","26,5","29,7","50","0","0"],
    [25306,"2016-12-19T20:00:00","ND","ND","7,1","1,9","135,8","28,5","56,3","0","0"],
    [25307,"2016-12-19T21:00:00","ND","ND","7,36","0,3","258,2","28","55,8","0","0"],
    [25308,"2016-12-19T22:00:00","ND","ND","6,42","3","99,9","27,8","61,1","0","0"],
    [25309,"2016-12-19T23:00:00","ND","ND","6,99","1,9","93,1","26,4","65,3","0","0"],
    [25310,"2016-12-20T00:00:00","ND","ND","6,77","1,5","61,6","25,7","67,5","0","0"],
    [25311,"2016-12-20T01:00:00","ND","ND","7,1","1,2","120,3","25,2","69,2","0","0"],
    [25312,"2016-12-20T02:00:00","ND","ND","7,89","1,7","154,3","25,4","69,7","0","0"],
    [25313,"2016-12-20T03:00:00","ND","ND","6,91","1,6","174,6","25,1","73,5","0","0"],
    [25314,"2016-12-20T04:00:00","ND","ND","5,83","1,3","211,4","24,7","75,5","0","0"],
    [25315,"2016-12-20T05:00:00","ND","ND","5,99","1,5","165","25","73,9","0","0"],
    [25316,"2016-12-20T06:00:00","ND","ND","6,46","2,2","202,6","25","74","0","0"],
    [25317,"2016-12-20T07:00:00","ND","ND","6,36","2,4","177,9","25,3","73,5","5,4","0"],
    [25318,"2016-12-20T08:00:00","ND","ND","5,61","2,6","78","25,6","72,8","11,7","0"],
    [25319,"2016-12-20T09:00:00","ND","ND","6,89","3,2","108","26,2","70,8","40,6","0"],
    [25320,"2016-12-20T10:00:00","ND","ND","9,97","3,7","103,1","26,6","69,9","59,1","0,76"],
    [25321,"2016-12-20T11:00:00","ND","ND","14,42","3,5","112,4","26,8","68,7","130,8","0"],
    [25322,"2016-12-20T12:00:00","ND","ND","25,14","1,6","91,9","28,6","61,4","210","0"],
    [25323,"2016-12-20T13:00:00","ND","ND","43,58","2,3","100,1","30,2","54,4","165,4","0"],
    [25324,"2016-12-20T14:00:00","ND","ND","48,73","2,9","149,4","30,2","54,2","131,3","0"],
    [25325,"2016-12-20T15:00:00","ND","ND","50,24","4","188,1","29,4","57,7","48,8","0"],
    [25326,"2016-12-20T16:00:00","ND","ND","36,76","5,2","237,4","27,7","66,8","43,7","2,29"],
    [25327,"2016-12-20T17:00:00","ND","ND","35,91","3,2","243,9","26,4","68,1","17,8","0,25"],
    [25328,"2016-12-20T18:00:00","ND","ND","13,64","0,6","55,4","25,9","72,4","0","0,51"],
    [25329,"2016-12-20T19:00:00","ND","ND","7,46","1,8","3,1","25,5","76","0","0,25"],
    [25330,"2016-12-20T20:00:00","ND","ND","9,2","2,7","19,7","25,5","74","0","0"],
    [25331,"2016-12-20T21:00:00","ND","ND","8,81","2,9","352,2","25,1","74,9","0","0"],
    [25332,"2016-12-20T22:00:00","ND","ND","10,97","2,7","348,3","24,5","76","0","0"],
    [25333,"2016-12-20T23:00:00","ND","ND","10,54","2,2","0,7","24,1","76,9","0","0"],
    [25334,"2016-12-21T00:00:00","ND","ND","9,81","1,2","29,8","23,9","77,3","0","0,51"],
    [25335,"2016-12-21T01:00:00","ND","ND","7,48","0,9","303,8","23,5","79,1","0","2,29"],
    [25336,"2016-12-21T02:00:00","ND","ND","6,32","0,9","139","23,4","81,4","0","15,24"],
    [25337,"2016-12-21T03:00:00","ND","ND","6,55","2,1","98,4","23,5","82,6","0","7,62"],
    [25338,"2016-12-21T04:00:00","ND","ND","11,09","1,4","193,5","23","82,6","0","3,56"],
    [25339,"2016-12-21T05:00:00","ND","ND","12,99","2,7","232,9","22,9","84","0","3,3"],
    [25340,"2016-12-21T06:00:00","ND","ND","8,54","2,1","232,1","22,6","84,6","0","10,92"],
    [25341,"2016-12-21T07:00:00","ND","ND","8,6","2","223,4","22,5","85","0","8,64"],
    [25342,"2016-12-21T08:00:00","ND","ND","6,79","1,9","221,1","22,7","85,3","8,8","2,29"],
    [25343,"2016-12-21T09:00:00","ND","ND","9,4","1,8","223,4","23,5","84,2","69,3","2,54"],
    [25344,"2016-12-21T10:00:00","ND","ND","26,18","1,7","272,8","24,7","73,9","114,6","0,25"],
    [25345,"2016-12-21T11:00:00","ND","ND","33,77","0,9","56,9","26,2","67,3","126,7","0,25"],
    [25346,"2016-12-21T12:00:00","ND","ND","51,22","1,6","338,2","26,5","66,3","151,4","2,03"],
    [25347,"2016-12-21T13:00:00","ND","ND","44,82","2,3","4,4","27,7","62,6","219,9","0"],
    [25348,"2016-12-21T14:00:00","ND","ND","50,2","2,2","347,1","29,1","54,1","218","0"],
    [25349,"2016-12-21T15:00:00","ND","ND","59,32","1,5","358,4","29,8","51,7","186,7","0"],
    [25350,"2016-12-21T16:00:00","ND","ND","42,47","3,7","334,3","29","55,9","80,5","0"],
    [25351,"2016-12-21T17:00:00","52","17","32,5","2,3","30,9","27,7","59,8","53,3","0"],
    [25352,"2016-12-21T18:00:00","53","21","22,16","4","109,6","26,9","63,6","7,9","0"],
    [25353,"2016-12-21T19:00:00","46","15","13,15","1,8","84,7","24,7","73,2","0","0"],
    [25354,"2016-12-21T20:00:00","33","14","12,25","1,8","204,3","24,3","75,8","0","0"],
    [25355,"2016-12-21T21:00:00","32","9","15,01","1,6","185,6","24,2","75,7","0","0"],
    [25356,"2016-12-21T22:00:00","39","15","11,24","1,4","6,8","24","75,5","0","0"],
    [25357,"2016-12-21T23:00:00","43","12","10,87","1,4","56,5","24,3","72,1","0","0"],
    [25358,"2016-12-22T00:00:00","31","10","8,75","1,7","92,7","24,2","73,1","0","0"],
    [25359,"2016-12-22T01:00:00","23","9","7,95","0,9","53,7","23,5","75,7","0","0"],
    [25360,"2016-12-22T02:00:00","27","5","7,81","0,7","92,7","22,9","78,5","0","0"],
    [25361,"2016-12-22T03:00:00","16","5","10,22","1,6","109,7","23,1","78,4","0","0"],
    [25362,"2016-12-22T04:00:00","17","5","8,32","1,2","15,4","23,2","78,1","0","0"],
    [25363,"2016-12-22T05:00:00","36","10","7,06","0,7","275,6","22,8","79,6","0","0"],
    [25364,"2016-12-22T06:00:00","47","11","6,34","1,9","195,7","22,8","80,2","0","0"],
    [25365,"2016-12-22T07:00:00","40","14","7,04","1,7","182,6","22,9","79","0","0"],
    [25366,"2016-12-22T08:00:00","35","13","10,11","2","182,5","23,8","76","80,9","0"],
    [25367,"2016-12-22T09:00:00","24","8","19,94","2,3","178,5","27,1","62,9","210,7","0"],
    [25368,"2016-12-22T10:00:00","ND","ND","33,26","1,5","202,7","28,2","57,6","189","0"],
    [25369,"2016-12-22T11:00:00","ND","ND","47,43","1,3","118,5","29,5","52,5","270,9","0"],
    [25370,"2016-12-22T12:00:00","ND","ND","ND","ND","ND","ND","ND","ND","ND"],
    [25371,"2016-12-22T13:00:00","ND","ND","ND","ND","ND","ND","ND","ND","ND"],
    [25372,"2016-12-22T14:00:00","52","16","93","2,3","15","31,5","44,2","156,3","0"],
    [25373,"2016-12-22T15:00:00","52","18","85,58","3","356,4","31,6","44,9","132,5","0"],
    [25374,"2016-12-22T16:00:00","36","15","64,09","2,9","21,2","31,2","46,4","84","0"],
    [25375,"2016-12-22T17:00:00","33","11","33,46","4,1","10,7","30,8","46,7","83,3","0"],
    [25376,"2016-12-22T18:00:00","42","8","24,14","2,5","341,6","31","45,5","20,3","0"],
    [25377,"2016-12-22T19:00:00","39","14","11,32","2","290,4","28,6","50,1","0","0"],
    [25378,"2016-12-22T20:00:00","102","33","7,93","2,2","69","27,1","58","0","0"],
    [25379,"2016-12-22T21:00:00","66","15","6,89","3,5","88,9","26,3","63,9","0","0"],
    [25380,"2016-12-22T22:00:00","50","12","7,2","1,5","51,4","24,5","69,7","0","0"],
    [25381,"2016-12-22T23:00:00","49","10","7,57","1,3","38,6","24,1","70,6","0","0"],
    [25382,"2016-12-23T00:00:00","57","18","6,71","1,1","90,1","23,5","73,1","0","0"],
    [25383,"2016-12-23T01:00:00","42","3","6,52","2","109,1","23,7","72,3","0","0"],
    [25384,"2016-12-23T02:00:00","53","10","6,3","1","223,2","22,4","77,6","0","0"],
    [25385,"2016-12-23T03:00:00","41","9","6,1","1","113,8","22,3","78,7","0","0"],
    [25386,"2016-12-23T04:00:00","57","10","5,91","1,8","97,2","22,5","77,2","0","0"],
    [25387,"2016-12-23T05:00:00","71","25","6,1","0,3","280,9","22,1","79,3","0","0"],
    [25388,"2016-12-23T06:00:00","87","36","6,5","0,6","172,8","22,3","79,2","0","0"],
    [25389,"2016-12-23T07:00:00","77","14","6,5","1,5","150,3","23","76,4","10,3","0"],
    [25390,"2016-12-23T08:00:00","83","28","7,32","1,9","141,3","23,6","74,8","46,8","0"],
    [25391,"2016-12-23T09:00:00","55","14","17,23","2,4","213,8","27,3","62","240,9","0"],
    [25392,"2016-12-23T10:00:00","50","10","31,36","2,2","162,2","29,6","52,5","263,2","0"],
    [25393,"2016-12-23T11:00:00","35","13","54,08","1,1","93,5","31,2","46,4","329,1","0"],
    [25394,"2016-12-23T12:00:00","37","18","67,78","2","59,3","32,7","41,8","425,2","0"],
    [25395,"2016-12-23T13:00:00","41","21","95,9","1,8","44,2","33,6","38,6","350,7","0"],
    [25396,"2016-12-23T14:00:00","69","34","123,98","1,9","86,7","34,5","36,3","349,7","0"],
    [25397,"2016-12-23T15:00:00","80","20","146,14","2,7","71","35,3","34,8","239,7","0"],
    [25398,"2016-12-23T16:00:00","68","27","129,34","3,4","338,4","33,6","38,5","42,2","0"],
    [25399,"2016-12-23T17:00:00","31","3","48,86","5,8","284","32,8","38,2","75,9","0"],
    [25400,"2016-12-23T18:00:00","25","3","24,77","5,9","291,8","31,4","41,3","18,6","0"],
    [25401,"2016-12-23T19:00:00","34","4","9,62","3,1","322,7","29,5","46,9","0","0"],
    [25402,"2016-12-23T20:00:00","62","14","8,71","3,6","92,2","28,1","56,5","0","0"],
    [25403,"2016-12-23T21:00:00","51","16","7,04","2,4","82,9","27,1","62,3","0","0"],
    [25404,"2016-12-23T22:00:00","51","17","7,2","2,6","82,6","26,9","62,2","0","0"],
    [25405,"2016-12-23T23:00:00","38","7","7,2","1,2","86,1","26,4","63,6","0","0"],
    [25406,"2016-12-24T00:00:00","43","7","7,16","1,8","116,8","25,9","66","0","0"],
    [25407,"2016-12-24T01:00:00","38","5","5,79","1,1","79,9","25,4","68,5","0","0"],
    [25408,"2016-12-24T02:00:00","33","6","5,83","2,4","87,8","25,2","70,7","0","0"],
    [25409,"2016-12-24T03:00:00","19","3","6,28","2,7","85,7","25,2","71,7","0","1,02"],
    [25410,"2016-12-24T04:00:00","21","2","6,65","2","86,9","24,4","77","0","1,02"],
    [25411,"2016-12-24T05:00:00","7","3","6,3","1","354,5","23,7","80,3","0","20,83"],
    [25412,"2016-12-24T06:00:00","15","6","6","0,6","239,3","23,2","82,7","0","0,76"],
    [25413,"2016-12-24T07:00:00","24","16","6,16","1,1","184,9","23,6","82,7","0","0"],
    [25414,"2016-12-24T08:00:00","33","18","7,08","1,4","234,7","24,2","81,2","30","0"],
    [25415,"2016-12-24T09:00:00","35","16","10,4","1,1","34,4","25,9","73,9","126,4","1,02"],
    [25416,"2016-12-24T10:00:00","34","11","22,59","2,3","170,4","29,4","58,9","282,2","0"],
    [25417,"2016-12-24T11:00:00","35","11","37,66","1,1","122,3","31,7","49,8","369,1","0"],
    [25418,"2016-12-24T12:00:00","35","14","47,27","3,2","88,8","33,1","43,9","436,2","0"],
    [25419,"2016-12-24T13:00:00","29","10","65,72","1,8","350,2","33,8","41,1","350,2","0"],
    [25420,"2016-12-24T14:00:00","28","6","71,1","1,1","34,6","34,6","37,9","296,2","0"],
    [25421,"2016-12-24T15:00:00","37","8","77,59","2,2","15,4","34,9","37,8","275,3","0"],
    [25422,"2016-12-24T16:00:00","44","7","41,37","5","74,1","34,7","38","133,6","0"],
    [25423,"2016-12-24T17:00:00","45","7","21,57","2","15,5","32,5","43","33,3","0"],
    [25424,"2016-12-24T18:00:00","34","6","17,43","3,7","277,7","30,9","45,4","21,8","0"],
    [25425,"2016-12-24T19:00:00","45","10","10,4","1,4","100,5","29,8","51,6","0","0"],
    [25426,"2016-12-24T20:00:00","50","13","10,75","3","163,6","28,1","59,8","0","0"],
    [25427,"2016-12-24T21:00:00","47","14","18,29","4","207,5","27,6","59,1","0","0"],
    [25428,"2016-12-24T22:00:00","44","15","16,68","2,7","182,7","25,9","68,1","0","0"],
    [25429,"2016-12-24T23:00:00","52","27","12,42","2,5","148,5","25,5","70,9","0","0"],
    [25430,"2016-12-25T00:00:00","54","21","12,15","1,2","187,9","25,1","72,4","0","0"],
    [25431,"2016-12-25T01:00:00","70","23","8,01","1,2","70,5","24,7","74,2","0","0"],
    [25432,"2016-12-25T02:00:00","81","18","9,32","0,3","84,9","24,3","75,6","0","0"],
    [25433,"2016-12-25T03:00:00","63","17","6,81","2","89,5","25","73","0","0"],
    [25434,"2016-12-25T04:00:00","60","20","5,87","1","75","24,2","76","0","0"],
    [25435,"2016-12-25T05:00:00","53","7","5,73","1,2","85,3","23,9","77,4","0","0"],
    [25436,"2016-12-25T06:00:00","46","12","5,99","1,5","117","23,7","79,5","0","0"],
    [25437,"2016-12-25T07:00:00","39","10","6,87","1,1","125,9","24","77,5","5,3","0"],
    [25438,"2016-12-25T08:00:00","43","17","8,12","0,3","234,9","24,3","77,4","42,9","0"],
    [25439,"2016-12-25T09:00:00","52","16","18,15","0,9","155,9","26,7","68,1","149,9","0"],
    [25440,"2016-12-25T10:00:00","39","16","37,78","2","141,3","30,2","53,9","213,9","0"],
    [25441,"2016-12-25T11:00:00","40","20","57,79","2,3","162,8","31,5","48,7","313,3","0"],
    [25442,"2016-12-25T12:00:00","36","15","59,89","2,1","132,6","32,9","43,3","254,6","0"],
    [25443,"2016-12-25T13:00:00","32","12","70,53","2,1","103,5","33,4","42","298,5","0"],
    [25444,"2016-12-25T14:00:00","42","18","95,14","1,8","62","34,3","39,7","193,2","0"],
    [25445,"2016-12-25T15:00:00","40","18","102,06","2,2","347","33","42,4","137,9","0"],
    [25446,"2016-12-25T16:00:00","36","12","38,33","3,6","55,9","33,6","39,8","115,7","0"],
    [25447,"2016-12-25T17:00:00","41","10","32,63","2,1","88,1","32,1","46,5","34,1","0"],
    [25448,"2016-12-25T18:00:00","36","6","16,78","0,8","325,8","30,4","48,1","4,4","0"],
    [25449,"2016-12-25T19:00:00","40","6","9,34","1,7","50","28,7","55,2","0","0"],
    [25450,"2016-12-25T20:00:00","38","6","9,09","1,3","312,5","28,1","54,8","0","0"],
    [25451,"2016-12-25T21:00:00","42","10","7,63","0,7","157,6","27,8","59,6","0","0"],
    [25452,"2016-12-25T22:00:00","33","8","10,83","3,6","208,6","26,9","65,3","0","0"],
    [25453,"2016-12-25T23:00:00","31","6","14,95","2,6","186,5","26,7","65","0","0"],
    [25454,"2016-12-26T00:00:00","40","13","12,48","2,1","156,9","25,8","69,9","0","0"],
    [25455,"2016-12-26T01:00:00","25","6","14,15","2,1","139,8","25,6","70,8","0","0"],
    [25456,"2016-12-26T02:00:00","27","7","9,3","0,5","148,1","25,1","72,1","0","0"],
    [25457,"2016-12-26T03:00:00","22","3","9,32","1,8","168","24,9","73,2","0","0"],
    [25458,"2016-12-26T04:00:00","30","2","6,5","1,4","109,1","24,7","75,4","0","0"],
    [25459,"2016-12-26T05:00:00","43","4","6,04","1,4","134,8","24,6","75,5","0","0"],
    [25460,"2016-12-26T06:00:00","35","6","5,99","0,8","157,6","24,2","76,8","0","0"],
    [25461,"2016-12-26T07:00:00","55","14","5,71","1,6","350,2","24,3","76,8","0","0"],
    [25462,"2016-12-26T08:00:00","82","17","6,42","1,9","77,6","25,3","74,5","40,4","0"],
    [25463,"2016-12-26T09:00:00","57","11","8,61","1","88,2","26,8","68,1","137,9","0"],
    [25464,"2016-12-26T10:00:00","62","13","19,82","1,9","101,4","30,4","53,9","241","0"],
    [25465,"2016-12-26T11:00:00","46","18","33,52","2,3","80,9","31,8","47","337,4","0"],
    [25466,"2016-12-26T12:00:00","40","12","44,27","2,8","99","33,6","41,1","396,1","0"],
    [25467,"2016-12-26T13:00:00","25","8","50,59","2,4","88,1","34,6","38,6","367,6","0"],
    [25468,"2016-12-26T14:00:00","26","6","58,18","1","138","34,5","38,2","306,4","0"],
    [25469,"2016-12-26T15:00:00","28","6","63,76","2,3","1,9","35,2","36,3","140,3","0"],
    [25470,"2016-12-26T16:00:00","32","8","53","3,2","322,4","33,4","39,6","147,6","0"],
    [25471,"2016-12-26T17:00:00","32","8","35,54","3,9","320,1","34,3","36,6","116,6","0"],
    [25472,"2016-12-26T18:00:00","37","12","14,05","3,4","96,6","31,2","55,3","30,7","0,76"],
    [25473,"2016-12-26T19:00:00","41","13","7,52","2,6","118,2","27,8","68,5","0","0,25"],
    [25474,"2016-12-26T20:00:00","49","13","6,5","2,1","127,7","27,3","66,4","0","0"],
    [25475,"2016-12-26T21:00:00","42","8","6,87","0,5","59,7","27","64,3","0","0"],
    [25476,"2016-12-26T22:00:00","42","6","6,73","3","184,4","26,7","70","0","0"],
    [25477,"2016-12-26T23:00:00","44","8","7,18","2,1","166,7","25,8","73,8","0","0"],
    [25478,"2016-12-27T00:00:00","33","6","6,63","1,5","142,4","25,8","71,3","0","0"],
    [25479,"2016-12-27T01:00:00","31","7","7,73","1,7","204,9","25,1","74,5","0","0"],
    [25480,"2016-12-27T02:00:00","33","6","8,95","1,5","190,2","25,3","74,6","0","0"],
    [25481,"2016-12-27T03:00:00","33","5","7,79","1,8","156,3","25,1","75,7","0","0"],
    [25482,"2016-12-27T04:00:00","42","5","7,14","2,1","104,5","25,5","74,1","0","0"],
    [25483,"2016-12-27T05:00:00","40","11","5,71","1","49,8","24,8","76,7","0","0"],
    [25484,"2016-12-27T06:00:00","63","21","6,26","1,3","126,3","24,8","76,6","0","0"],
    [25485,"2016-12-27T07:00:00","61","22","6,46","1,7","136","24,8","76,2","9,7","0"],
    [25486,"2016-12-27T08:00:00","47","16","8,1","2","150,4","25,9","72,3","66,6","0"],
    [25487,"2016-12-27T09:00:00","55","9","12,38","3,7","141,4","28,6","61,7","174,4","0"],
    [25488,"2016-12-27T10:00:00","53","16","15,23","3,5","94,7","28,9","60,6","184,4","0"],
    [25489,"2016-12-27T11:00:00","42","12","28,89","3,9","326,3","31","51,8","245,1","0"],
    [25490,"2016-12-27T12:00:00","29","8","42,76","2,9","315,4","30,3","50,5","304,8","0"],
    [25491,"2016-12-27T13:00:00","26","6","69,59","3,2","33","33,9","38,2","425,6","0"],
    [25492,"2016-12-27T14:00:00","37","17","69,78","4,1","93","35,2","36,2","355,2","0"],
    [25493,"2016-12-27T15:00:00","33","6","50,04","5,9","82,8","34,6","38,5","273,4","0"],
    [25494,"2016-12-27T16:00:00","57","18","44,45","4,4","166,9","32,3","46,8","48,6","0"],
    [25495,"2016-12-27T17:00:00","54","20","43,58","5,7","253,4","29,5","52,9","13,9","0"],
    [25496,"2016-12-27T18:00:00","60","16","30,2","2,1","317","28,4","56,8","5,8","0"],
    [25497,"2016-12-27T19:00:00","45","18","19,56","2,3","5,6","27,8","64,9","0","1,02"],
    [25498,"2016-12-27T20:00:00","66","25","13,6","2,5","85,9","26,8","68,8","0","0"],
    [25499,"2016-12-27T21:00:00","69","23","10,83","0,9","140,1","26,2","68,9","0","0"],
    [25500,"2016-12-27T22:00:00","66","18","10,32","2","176,6","26,3","69","0","0"],
    [25501,"2016-12-27T23:00:00","46","9","11,91","1,7","182,4","25,8","71,3","0","0"],
    [25502,"2016-12-28T00:00:00","57","24","8,99","1,4","140,3","25,5","72,3","0","0"],
    [25503,"2016-12-28T01:00:00","56","8","6,34","2,5","96,3","25,4","73,7","0","0"],
    [25504,"2016-12-28T02:00:00","53","20","5,95","2","123,5","25,4","73,5","0","0"],
    [25505,"2016-12-28T03:00:00","43","8","6,93","1,2","167,4","24,8","75,8","0","0"],
    [25506,"2016-12-28T04:00:00","39","7","6,18","1,6","148,1","25,2","74,3","0","0"],
    [25507,"2016-12-28T05:00:00","54","12","6,2","1,8","158,6","24,7","75,9","0","0"],
    [25508,"2016-12-28T06:00:00","67","13","6,02","1,9","155,1","24,9","75,4","0","0"],
    [25509,"2016-12-28T07:00:00","58","22","6,46","2","148,6","24,6","75,6","5,1","0"],
    [25510,"2016-12-28T08:00:00","52","9","6,83","2","203,3","25,5","71,7","38,3","0"],
    [25511,"2016-12-28T09:00:00","49","13","12,42","1,5","189,5","27,5","61","171,2","0"],
    [25512,"2016-12-28T10:00:00","61","21","32,12","2,3","96,1","30,8","50,9","263,9","0"],
    [25513,"2016-12-28T11:00:00","55","23","57,62","1,3","121,5","32,1","46,5","358","0"],
    [25514,"2016-12-28T12:00:00","44","17","73,71","2,7","128,9","34,1","40,7","410,9","0"],
    [25515,"2016-12-28T13:00:00","64","23","99,67","3,6","80","34,7","38,6","375,9","0"],
    [25516,"2016-12-28T14:00:00","50","24","110,95","2,8","38,1","35,4","37,2","377,4","0"],
    [25517,"2016-12-28T15:00:00","50","18","111,33","2,9","15,1","35,9","36,1","252,2","0"],
    [25518,"2016-12-28T16:00:00","48","18","94,9","3,1","16,9","35,2","37,9","153,8","0"],
    [25519,"2016-12-28T17:00:00","49","17","68,6","2,7","358,1","34","40,6","52,8","0"],
    [25520,"2016-12-28T18:00:00","36","14","29,61","2,9","340,3","33","42,2","15,2","0"],
    [25521,"2016-12-28T19:00:00","42","17","16,84","4,1","293,7","31,1","46,1","0","0"],
    [25522,"2016-12-28T20:00:00","36","6","12,28","2,3","310,3","30","50","0","0"],
    [25523,"2016-12-28T21:00:00","53","18","7,87","3,6","86,9","28,6","59,6","0","0"],
    [25524,"2016-12-28T22:00:00","47","8","8,08","3,5","78,6","27,8","61,9","0","0"],
    [25525,"2016-12-28T23:00:00","23","4","7,63","2","93,2","27,5","62,7","0","0"],
    [25526,"2016-12-29T00:00:00","72","11","7,1","1,7","169,3","26,8","65,9","0","0"],
    [25527,"2016-12-29T01:00:00","60","9","7,28","2,1","143,9","26,6","67,9","0","0"],
    [25528,"2016-12-29T02:00:00","54","7","7,04","1,8","148,3","25,9","70,6","0","0"],
    [25529,"2016-12-29T03:00:00","46","7","7,03","1,6","171,1","25,7","70,9","0","0"],
    [25530,"2016-12-29T04:00:00","83","15","6,57","1,6","93,1","25,9","70,9","0","0"],
    [25531,"2016-12-29T05:00:00","71","10","6,65","1","223,8","25","74,3","0","0"],
    [25532,"2016-12-29T06:00:00","61","12","6,91","2,1","201,7","25,7","71","0","0"],
    [25533,"2016-12-29T07:00:00","71","16","7,93","1,3","170,4","25,5","70,9","8,2","0"],
    [25534,"2016-12-29T08:00:00","83","29","11,56","1,5","165,1","26,7","66,6","70,5","0"],
    [25535,"2016-12-29T09:00:00","50","17","18,19","0,8","165,7","28,4","59,3","98,5","0"],
    [25536,"2016-12-29T10:00:00","53","18","26,12","0,6","271,5","29,4","56","90,3","0"],
    [25537,"2016-12-29T11:00:00","76","14","35,93","1,1","74,9","30,9","52,3","238,4","0"],
    [25538,"2016-12-29T12:00:00","63","19","50,22","2,2","96,8","32,7","45,2","206","0"],
    [25539,"2016-12-29T13:00:00","60","17","62,05","2,6","52,6","33,3","43,5","202,1","0"],
    [25540,"2016-12-29T14:00:00","47","13","76,77","2,2","30","33,7","42,8","312,3","0"],
    [25541,"2016-12-29T15:00:00","50","21","91,45","4,8","1,2","34,6","39,6","207,9","0"],
    [25542,"2016-12-29T16:00:00","38","ND","42,78","5","5,5","34,4","38,4","250,2","0"],
    [25543,"2016-12-29T17:00:00","42","3","23,96","4,3","13,2","33,1","40,8","78,9","0"],
    [25544,"2016-12-29T18:00:00","51","9","15,4","3,2","353,1","31,7","43,2","13,2","0"],
    [25545,"2016-12-29T19:00:00","27","6","12,48","3,6","306,9","30,1","47,5","0","0"],
    [25546,"2016-12-29T20:00:00","48","15","8,95","2,9","90,9","29,1","54,4","0","0"],
    [25547,"2016-12-29T21:00:00","62","12","10,95","2,6","180,9","28,3","58,9","0","0"],
    [25548,"2016-12-29T22:00:00","28","7","31,81","6,5","196,6","26,5","66,5","0","0"],
    [25549,"2016-12-29T23:00:00","11","3","24,84","4,1","178,1","24,9","69,7","0","0"],
    [25550,"2016-12-30T00:00:00","20","3","23","0,8","193,2","24,5","71,5","0","0"],
    [25551,"2016-12-30T01:00:00","25","3","15,91","0,7","231,4","24,1","72,3","0","0"],
    [25552,"2016-12-30T02:00:00","19","3","11,4","4,2","83,9","24,9","70,4","0","0"],
    [25553,"2016-12-30T03:00:00","35","6","12,46","2","218,3","23,6","75,4","0","0"],
    [25554,"2016-12-30T04:00:00","40","6","15,62","2,3","232,5","23,6","75,4","0","0"],
    [25555,"2016-12-30T05:00:00","28","9","12,66","0,9","316,7","23,1","77,3","0","0"],
    [25556,"2016-12-30T06:00:00","54","8","7,48","1,2","290","23,2","77,2","0","0"],
    [25557,"2016-12-30T07:00:00","73","25","7,52","1,6","120,9","24","74,4","0","0"],
    [25558,"2016-12-30T08:00:00","79","25","10,38","2,1","163,6","25,5","69,9","92,2","0"],
    [25559,"2016-12-30T09:00:00","45","19","20,51","2,7","176,9","28,7","58,8","189,8","0"],
    [25560,"2016-12-30T10:00:00","31","6","34,5","2","198,5","30,3","50","222,5","0"],
    [25561,"2016-12-30T11:00:00","30","5","50,49","1,7","167,1","31,9","44,2","376,7","0"],
    [25562,"2016-12-30T12:00:00","27","5","54,4","2,7","79,1","33,7","39,1","341,8","0"],
    [25563,"2016-12-30T13:00:00","19","4","52,06","2,2","87,5","34,7","36,2","398,1","0"],
    [25564,"2016-12-30T14:00:00","22","2","58,26","2,3","67","35,3","33,4","254,2","0"],
    [25565,"2016-12-30T15:00:00","32","4","82,52","2,5","12,3","35,7","32,8","214,4","0"],
    [25566,"2016-12-30T16:00:00","35","5","83,97","2,6","43,5","35,7","32,2","155,5","0"],
    [25567,"2016-12-30T17:00:00","49","12","59,28","3,3","49,4","34,4","37,2","47,5","0"],
    [25568,"2016-12-30T18:00:00","52","ND","21,57","1,4","291,8","32,3","42,5","4,1","0"],
    [25569,"2016-12-30T19:00:00","47","14","36,81","9,1","243,8","27,4","65,8","0","33,78"],
    [25570,"2016-12-30T20:00:00","19","13","24,24","5,7","264,2","23,7","84,5","0","0,25"],
    [25571,"2016-12-30T21:00:00","33","17","8,63","1","225,1","24,7","78,7","0","0"],
    [25572,"2016-12-30T22:00:00","46","16","8,42","1,9","156,1","25,5","75,6","0","0"],
    [25573,"2016-12-30T23:00:00","55","13","12,07","3","194,6","25,5","75,4","0","0"],
    [25574,"2016-12-31T00:00:00","32","8","13,38","1,9","170,8","25,1","75,8","0","0"],
    [25575,"2016-12-31T01:00:00","23","5","14,72","3,6","204,2","25,1","76,6","0","3,3"],
    [25576,"2016-12-31T02:00:00","14","8","13,58","3,1","213,4","24,6","79,6","0","2,29"],
    [25577,"2016-12-31T03:00:00","25","6","13,52","1,2","187,4","23,8","82,1","0","0"],
    [25578,"2016-12-31T04:00:00","21","3","11,22","1,4","115,7","23,9","82,4","0","0"],
    [25579,"2016-12-31T05:00:00","24","5","8,75","2,3","137,4","23,7","81,4","0","0"],
    [25580,"2016-12-31T06:00:00","25","4","8,34","1,6","191,8","23,3","82,1","0","0"],
    [25581,"2016-12-31T07:00:00","29","13","7,24","1,2","164,1","23,3","82,3","12,1","0"],
    [25582,"2016-12-31T08:00:00","41","11","9,5","1","181,3","24,8","77,2","83,3","0"],
    [25583,"2016-12-31T09:00:00","38","16","16,52","1","116,6","27,3","66,8","158,7","0,25"],
    [25584,"2016-12-31T10:00:00","52","12","26","2,9","65","29,2","57,9","211,8","0"],
    [25585,"2016-12-31T11:00:00","39","13","33,09","3","72","29,9","54,3","185,8","0"],
    [25586,"2016-12-31T12:00:00","44","14","37,4","3,1","87,5","30,5","51,9","178,2","0"],
    [25587,"2016-12-31T13:00:00","62","27","45,25","4,8","55,8","30,4","52,2","181,1","0"],
    [25588,"2016-12-31T14:00:00","42","18","51,65","3,7","16,8","30,2","51","155","0"],
    [25589,"2016-12-31T15:00:00","49","23","49,67","1,7","59,1","30,2","49,8","106,8","0"],
    [25590,"2016-12-31T16:00:00","49","20","43,39","2,8","89,7","30,9","47,8","111,1","0"],
    [25591,"2016-12-31T17:00:00","43","14","41,09","1,6","82","30,2","48,6","51,5","0"],
    [25592,"2016-12-31T18:00:00","67","25","27,63","1,9","162,9","29,4","54","7,2","0"],
    [25593,"2016-12-31T19:00:00","93","41","26,22","1,9","220,1","27,8","61,4","0","0"],
    [25594,"2016-12-31T20:00:00","138","68","17,62","0,7","202,8","26,9","65,9","0","0"],
    [25595,"2016-12-31T21:00:00","167","83","8,89","1,2","97,8","27","68,2","0","0"],
    [25596,"2016-12-31T22:00:00","123","69","7,24","1,9","132,6","26,6","71,4","0","0"],
    [25597,"2016-12-31T23:00:00","116","45","7,01","1,8","139,6","26,1","73,2","0","0"],
    [25598,"2017-01-01T00:00:00","123","67","7,99","2,3","161,1","25,6","75,4","0","0"],
    [25599,"2017-01-01T01:00:00","221","161","8,5","1,4","208,6","25,3","75,9","0","0"],
    [25600,"2017-01-01T02:00:00","229","147","8,2","0,8","65,2","25","77,3","0","0"],
    [25601,"2017-01-01T03:00:00","136","78","6,7","1,4","86,8","24,6","77,6","0","0"],
    [25602,"2017-01-01T04:00:00","101","46","6","1,5","216","24,1","79,2","0","0"],
    [25603,"2017-01-01T05:00:00","90","54","6,5","1,9","271,8","24,1","79,9","0","0"],
    [25604,"2017-01-01T06:00:00","94","49","6,1","1,6","70,2","24,5","78,7","0","0"],
    [25605,"2017-01-01T07:00:00","107","47","6,2","0,7","68,7","24,6","79","6,6","0"],
    [25606,"2017-01-01T08:00:00","101","46","7,1","0,1","320","25","78,3","42,6","0"],
    [25607,"2017-01-01T09:00:00","77","42","21,5","1,7","312,5","27,4","67,8","155,6","0"],
    [25608,"2017-01-01T10:00:00","67","37","53,1","1,5","116,8","30,4","53,4","247,3","0"],
    [25609,"2017-01-01T11:00:00","59","31","74,9","2,5","105,8","33","44","343,8","0"],
    [25610,"2017-01-01T12:00:00","60","28","83,5","1,5","96","33,6","41,8","298,4","0"],
    [25611,"2017-01-01T13:00:00","52","23","91,2","2,4","358,2","34,6","38,8","378,4","0"],
    [25612,"2017-01-01T14:00:00","41","17","87","3,6","3,3","35,5","37,3","389,1","0"],
    [25613,"2017-01-01T15:00:00","36","19","76,7","3,3","38,6","36,1","35,1","248,6","0"],
    [25614,"2017-01-01T16:00:00","25","3","45","3,8","19,7","34,4","37,2","79,6","0"],
    [25615,"2017-01-01T17:00:00","24","2","32,1","4,4","15,1","34,2","37,7","103,6","0"],
    [25616,"2017-01-01T18:00:00","80","3","24","3,2","352,7","33,2","39,4","19,6","0"],
    [25617,"2017-01-01T19:00:00","42","6","13,5","1,6","41,7","30,5","48,5","0","0"],
    [25618,"2017-01-01T20:00:00","39","9","11,4","1,1","107,5","29,1","53,7","0","0"],
    [25619,"2017-01-01T21:00:00","25","6","8,7","1,6","49,4","27,8","60,7","0","0"],
    [25620,"2017-01-01T22:00:00","30","1","8","2,2","188,2","26,8","64,7","0","0"],
    [25621,"2017-01-01T23:00:00","31","1","9,3","2,5","215,4","26,4","67,2","0","0"],
    [25622,"2017-01-02T00:00:00","24","ND","8,5","2","182,3","26,1","68,3","0","0"],
    [25623,"2017-01-02T01:00:00","20","ND","7","0,7","150,4","25,5","70,2","0","0"],
    [25624,"2017-01-02T02:00:00","16","1","6,5","2,2","138,3","25,4","70,9","0","0"],
    [25625,"2017-01-02T03:00:00","29","1","7,2","1,3","158,7","24,8","73,6","0","0"],
    [25626,"2017-01-02T04:00:00","25","1","9,1","2,2","203,8","25,1","72,4","0","0,51"],
    [25627,"2017-01-02T05:00:00","11","ND","8","1","250,1","24,5","75,5","0","0,25"],
    [25628,"2017-01-02T06:00:00","25","3","6,3","2,1","126","24,6","76","0","0"],
    [25629,"2017-01-02T07:00:00","58","12","6,2","2,3","194,3","24,9","75,4","11,8","0"],
    [25630,"2017-01-02T08:00:00","22","7","7,6","2,1","197,7","26","71,4","45","0"],
    [25631,"2017-01-02T09:00:00","31","3","12,4","1,2","215,9","27,3","65,6","114,1","0"],
    [25632,"2017-01-02T10:00:00","31","5","19,3","1,7","178,1","29,6","56,8","188,9","0"],
    [25633,"2017-01-02T11:00:00","30","4","29","1,4","131,4","31,5","49,3","235,9","0"],
    [25634,"2017-01-02T12:00:00","31","8","34,8","2,4","116,9","32,3","47,6","263,8","0"],
    [25635,"2017-01-02T13:00:00","26","7","48,7","2,6","80,6","34","42,8","387,9","0"],
    [25636,"2017-01-02T14:00:00","32","13","65,1","1,7","87,4","34,7","39,6","345,1","0"],
    [25637,"2017-01-02T15:00:00","33","17","81,4","2,4","76,2","35,6","36,6","257,6","0"],
    [25638,"2017-01-02T16:00:00","40","13","83,9","2,9","103,9","36,2","35,2","222,2","0"],
    [25639,"2017-01-02T17:00:00","46","16","85,2","2,3","351,9","35,1","37,9","66,6","0"],
    [25640,"2017-01-02T18:00:00","ND","ND","63,9","2,4","224","33,3","42,1","19,7","0"],
    [25641,"2017-01-02T19:00:00","ND","ND","15,8","3,9","284,3","31,6","44","0","0"],
    [25642,"2017-01-02T20:00:00","37","9","8,8","2,4","291,7","29,8","50,4","0","0"],
    [25643,"2017-01-02T21:00:00","46","12","8,1","2,7","99,7","28,9","57,2","0","0"],
    [25644,"2017-01-02T22:00:00","34","8","6,8","1,9","74,9","27,4","64,7","0","0"],
    [25645,"2017-01-02T23:00:00","43","5","6,8","2,2","28,3","26,6","66,4","0","0"],
    [25646,"2017-01-03T00:00:00","32","8","6,9","0,7","68,7","26","67,7","0","0"],
    [25647,"2017-01-03T01:00:00","30","5","6,5","1,3","189,3","25,2","71,7","0","0"],
    [25648,"2017-01-03T02:00:00","21","1","6,8","1,8","168,9","24,9","73,3","0","0"],
    [25649,"2017-01-03T03:00:00","28","1","7,1","1","234,7","24,9","73,5","0","0"],
    [25650,"2017-01-03T04:00:00","29","11","6,7","1,4","161,8","25,3","73,5","0","0"],
    [25651,"2017-01-03T05:00:00","39","8","6","2,3","79,7","24,9","74","0","0"],
    [25652,"2017-01-03T06:00:00","66","16","6,4","1,5","107,4","24,3","75,2","0","0"],
    [25653,"2017-01-03T07:00:00","54","7","6,4","1,4","197,3","24,2","75,9","0","0"],
    [25654,"2017-01-03T08:00:00","48","11","7,7","1,6","197,3","25,4","72,1","41,1","0"],
    [25655,"2017-01-03T09:00:00","48","13","11,4","2,1","167,8","27,4","63,9","148,3","0"],
    [25656,"2017-01-03T10:00:00","37","8","27,9","2,1","267,2","30,4","52,4","261,2","0"],
    [25657,"2017-01-03T11:00:00","35","14","53,4","1,1","202,2","32,9","44,8","376,3","0"],
    [25658,"2017-01-03T12:00:00","56","14","79,6","2","94","34,9","39,2","416,5","0"],
    [25659,"2017-01-03T13:00:00","49","18","98,1","2,6","82,7","35,8","36,2","373,6","0"],
    [25660,"2017-01-03T14:00:00","44","18","95,8","3,1","65,8","36,7","33,7","360","0"],
    [25661,"2017-01-03T15:00:00","44","13","94,3","1,7","39,9","36,7","32,7","299,4","0"],
    [25662,"2017-01-03T16:00:00","43","18","95","1,9","14,5","36,4","33","111,9","0"],
    [25663,"2017-01-03T17:00:00","30","5","47,1","6,7","284,3","35,4","34,3","115,5","0"],
    [25664,"2017-01-03T18:00:00","27","3","28,6","6,6","299,2","33,4","38,6","38,4","0"],
    [25665,"2017-01-03T19:00:00","23","9","13,9","4,8","308,7","31,2","44","0","0"],
    [25666,"2017-01-03T20:00:00","36","9","12,5","1,6","4,2","30,3","48,8","0","0"],
    [25667,"2017-01-03T21:00:00","48","18","7,5","2,8","78,5","28,4","58,1","0","0"],
    [25668,"2017-01-03T22:00:00","34","12","8,1","1,6","145,9","28,2","58,5","0","0"],
    [25669,"2017-01-03T23:00:00","36","10","8","2","68,7","27,5","61,1","0","0"],
    [25670,"2017-01-04T00:00:00","27","8","7,8","2,3","114,9","27","62,9","0","0"],
    [25671,"2017-01-04T01:00:00","13","4","7,1","0,2","44,6","26","67,2","0","0"],
    [25672,"2017-01-04T02:00:00","16","ND","9,9","1,4","328,5","26","66,4","0","0"],
    [25673,"2017-01-04T03:00:00","28","ND","7,3","3,7","206","26,9","65,7","0","0"],
    [25674,"2017-01-04T04:00:00","12","ND","11,9","4,1","201,3","26,5","69","0","0"],
    [25675,"2017-01-04T05:00:00","21","ND","14","4,2","180,6","25,8","71,8","0","3,56"],
    [25676,"2017-01-04T06:00:00","22","2","12,6","1,8","205,9","24,7","77,8","0","4,83"],
    [25677,"2017-01-04T07:00:00","30","4","7,6","1,7","345,9","24,5","80,9","0","0"],
    [25678,"2017-01-04T08:00:00","34","6","7,5","3,3","42,6","25","75,8","9,9","0"],
    [25679,"2017-01-04T09:00:00","38","8","9,5","2,2","47,2","24,8","75,3","50,1","0"],
    [25680,"2017-01-04T10:00:00","34","11","12,8","2,3","60,4","25,8","70,7","141","0"],
    [25681,"2017-01-04T11:00:00","27","7","21","2,4","45,9","27,3","64,1","206,2","0"],
    [25682,"2017-01-04T12:00:00","29","6","37","2,1","345,4","28,3","60","204","0"],
    [25683,"2017-01-04T13:00:00","49","10","73,7","1,3","35,6","30,8","51,2","340,4","0"],
    [25684,"2017-01-04T14:00:00","50","15","65,5","4,5","84,1","31","50,1","271,2","0"],
    [25685,"2017-01-04T15:00:00","33","10","55,9","4,6","67,8","31,2","47,6","240,8","0"],
    [25686,"2017-01-04T16:00:00","40","12","54,3","4,8","38,5","31,2","47,3","169,1","0"],
    [25687,"2017-01-04T17:00:00","34","7","39,9","4,7","20,5","30,1","49,4","73,7","0"],
    [25688,"2017-01-04T18:00:00","41","15","25","3,7","36,3","29,2","54,5","20,5","0"],
    [25689,"2017-01-04T19:00:00","47","9","18,6","3","24,8","28","58,7","0,1","0"],
    [25690,"2017-01-04T20:00:00","46","15","11,8","1,3","77,6","27,4","60,6","0","0"],
    [25691,"2017-01-04T21:00:00","55","12","9,8","3,1","58,4","26,5","63,4","0","0"],
    [25692,"2017-01-04T22:00:00","40","16","8","1,8","63,3","25,5","67,9","0","0"],
    [25693,"2017-01-04T23:00:00","54","9","7,6","0,8","317,5","25,2","69,8","0","0"],
    [25694,"2017-01-05T00:00:00","48","17","6,9","1,6","131,7","25,1","71,2","0","0"],
    [25695,"2017-01-05T01:00:00","47","16","7,4","0,9","149,9","24,8","72,6","0","0"],
    [25696,"2017-01-05T02:00:00","39","14","6,7","0,5","6,7","24,7","73,1","0","0"],
    [25697,"2017-01-05T03:00:00","50","12","7,1","1,6","87,9","24","75","0","0"],
    [25698,"2017-01-05T04:00:00","44","12","6,9","1,4","21,8","23,6","76,8","0","0"],
    [25699,"2017-01-05T05:00:00","67","25","6,6","3,2","96,6","23,2","78,5","0","0"],
    [25700,"2017-01-05T06:00:00","59","21","6,4","1,2","48,8","23,6","76,9","0","0"],
    [25701,"2017-01-05T07:00:00","52","10","7","0,7","299,1","23,9","73,2","2,1","0"],
    [25702,"2017-01-05T08:00:00","96","37","7,4","1,8","162,3","24,8","71,1","19,8","0"],
    [25703,"2017-01-05T09:00:00","67","21","7,7","2,6","122,7","25,2","70","50,4","0"],
    [25704,"2017-01-05T10:00:00","67","29","9,8","1,3","126,8","26,2","66,8","89,3","0"],
    [25705,"2017-01-05T11:00:00","50","15","16,4","1,3","292,7","26,6","64","82,2","0"],
    [25706,"2017-01-05T12:00:00","64","27","31,5","2,3","318,4","27,5","62,8","191,8","0"],
    [25707,"2017-01-05T13:00:00","56","16","47,9","3","11,2","28,7","55,8","173,1","0"],
    [25708,"2017-01-05T14:00:00","43","11","42,4","3,9","16,7","28,2","58,1","131","0"],
    [25709,"2017-01-05T15:00:00","48","11","50,7","3,4","29,1","28,6","56,1","112,3","0"],
    [25710,"2017-01-05T16:00:00","49","18","58,6","4,2","339,7","29","57,5","186,8","0"],
    [25711,"2017-01-05T17:00:00","37","11","42,2","2,8","54,9","29,6","52,9","118,9","0"],
    [25712,"2017-01-05T18:00:00","36","13","36,1","2,4","336,9","28,5","57","14,8","0"],
    [25713,"2017-01-05T19:00:00","76","27","16,9","2,4","357,1","28,1","59,5","0","0"],
    [25714,"2017-01-05T20:00:00","93","36","10,1","0,7","134,2","27,5","62,3","0","0"],
    [25715,"2017-01-05T21:00:00","84","40","12,2","2,2","157,3","26,8","65,1","0","0"],
    [25716,"2017-01-05T22:00:00","85","44","12,4","1,6","178,2","25,9","70,7","0","0"],
    [25717,"2017-01-05T23:00:00","93","33","7,8","0,9","197,9","25,7","72,3","0","0"],
    [25718,"2017-01-06T00:00:00","96","34","7","1,8","64,7","25,2","72,6","0","0"],
    [25719,"2017-01-06T01:00:00","76","12","6,7","1,5","44,1","24,2","76,4","0","0"],
    [25720,"2017-01-06T02:00:00","68","27","6,6","1,1","350,8","24,7","74,4","0","0"],
    [25721,"2017-01-06T03:00:00","52","20","6,8","2,2","348,4","24,5","74,7","0","0"],
    [25722,"2017-01-06T04:00:00","39","15","7","1,4","34,6","24","76,4","0","0"],
    [25723,"2017-01-06T05:00:00","37","13","7,4","0,7","316,2","24","74,4","0","0"],
    [25724,"2017-01-06T06:00:00","35","17","8,1","0,7","344,4","24,1","72,4","0","0"],
    [25725,"2017-01-06T07:00:00","64","22","7,6","0,6","77,3","24,3","72","2,4","0"],
    [25726,"2017-01-06T08:00:00","74","26","7,8","2,1","87","25","69,9","51,6","0"],
    [25727,"2017-01-06T09:00:00","68","17","14,4","2","19,4","26","68,1","105,6","0"],
    [25728,"2017-01-06T10:00:00","68","23","24,9","2,7","62,5","27,6","61,7","182,7","0"],
    [25729,"2017-01-06T11:00:00","70","23","48,9","1,1","56,6","29,5","55,1","306,3","0"],
    [25730,"2017-01-06T12:00:00","60","27","88,7","0,8","61,2","30,9","47,6","291,6","0"],
    [25731,"2017-01-06T13:00:00","49","18","105,1","2,2","47,8","33","40,1","367,6","0"],
    [25732,"2017-01-06T14:00:00","54","17","116,2","3,1","341,8","33,6","38,9","420,6","0"],
    [25733,"2017-01-06T15:00:00","43","19","94,6","2,7","38,8","33,6","38,4","201","0"],
    [25734,"2017-01-06T16:00:00","40","14","66,9","3,2","48,7","33,5","38,8","167,3","0"],
    [25735,"2017-01-06T17:00:00","45","12","46,1","1,7","333,6","32,3","40,8","37,7","0"],
    [25736,"2017-01-06T18:00:00","39","9","29","4,4","292,1","30,7","44,2","11,4","0"],
    [25737,"2017-01-06T19:00:00","37","5","19","4,8","300,2","29,7","47,3","0,3","0"],
    [25738,"2017-01-06T20:00:00","32","7","13,3","3,3","320,9","28,9","51,3","0","0"],
    [25739,"2017-01-06T21:00:00","69","9","8,2","3,6","80,5","26,5","63,7","0","0"],
    [25740,"2017-01-06T22:00:00","37","9","10,2","2,8","38,3","26","65","0","0"],
    [25741,"2017-01-06T23:00:00","29","8","9,7","1,8","50,3","26,1","63,6","0","0"],
    [25742,"2017-01-07T00:00:00","54","8","7,4","2,3","112,1","25,4","66,8","0","0"],
    [25743,"2017-01-07T01:00:00","36","4","8,2","1,4","131","24,5","70,6","0","0"],
    [25744,"2017-01-07T02:00:00","54","11","7,5","1,1","129","24,5","70,9","0","0"],
    [25745,"2017-01-07T03:00:00","46","11","7,5","0,8","122,6","24,9","69,6","0","0"],
    [25746,"2017-01-07T04:00:00","50","11","7,2","0,2","261,3","24,7","70,7","0","0"],
    [25747,"2017-01-07T05:00:00","56","9","7,2","0,5","149,5","25","69,9","0","0"],
    [25748,"2017-01-07T06:00:00","70","15","7,3","1,7","109,5","24,4","72,4","0","0"],
    [25749,"2017-01-07T07:00:00","73","24","7","2","132,5","24,4","72,3","2,4","0"],
    [25750,"2017-01-07T08:00:00","52","12","7,7","2,3","188,9","25,2","70","31,9","0"],
    [25751,"2017-01-07T09:00:00","59","17","13,1","2","196,1","26,7","63,9","130","0"],
    [25752,"2017-01-07T10:00:00","41","10","26,8","1,8","204,2","28,8","55","191,7","0"],
    [25753,"2017-01-07T11:00:00","65","18","37,8","2,6","75,8","29,6","53,1","195,3","0"],
    [25754,"2017-01-07T12:00:00","55","12","58,6","1,1","118,8","31,8","46,3","381,3","0"],
    [25755,"2017-01-07T13:00:00","51","18","81,5","1,8","90,6","33,1","41,1","352,8","0"],
    [25756,"2017-01-07T14:00:00","70","25","115,5","1,9","122","33","39,7","219","0"],
    [25757,"2017-01-07T15:00:00","69","33","149,2","1,1","65,5","34,1","37,4","278,6","0"],
    [25758,"2017-01-07T16:00:00","73","32","126,5","2,3","35,3","34","36,9","149,9","0"],
    [25759,"2017-01-07T17:00:00","45","12","71,4","3,8","317,5","33,4","38,3","130,2","0"],
    [25760,"2017-01-07T18:00:00","33","10","33,6","6,4","294,5","31,4","42,6","36","0"],
    [25761,"2017-01-07T19:00:00","25","5","24,6","6,2","300,3","29,5","48,5","0,1","0"],
    [25762,"2017-01-07T20:00:00","41","12","14","1,9","16,4","28,8","52","0","0"],
    [25763,"2017-01-07T21:00:00","52","12","9,4","4","78","26,8","62,8","0","0"],
    [25764,"2017-01-07T22:00:00","34","12","9,1","2,7","79,3","26,6","62,9","0","0"],
    [25765,"2017-01-07T23:00:00","27","10","9,8","0,6","330","27,1","60,3","0","0"],
    [25766,"2017-01-08T00:00:00","22","5","18,4","5,8","272","27,5","57,7","0","0"],
    [25767,"2017-01-08T01:00:00","25","4","31,9","4,8","272,7","25","71,5","0","7,11"],
    [25768,"2017-01-08T02:00:00","12","3","22,8","4,7","291,6","23,8","77,8","0","2,03"],
    [25769,"2017-01-08T03:00:00","16","ND","22,3","3,3","299,1","23,6","78,7","0","2,03"],
    [25770,"2017-01-08T04:00:00","12","ND","13,6","2,7","63,7","23,7","79,1","0","0,51"],
    [25771,"2017-01-08T05:00:00","10","ND","16,7","3,1","38,9","23,5","79,4","0","1,52"],
    [25772,"2017-01-08T06:00:00","17","1","18,4","2,6","13,1","22,8","80,8","0","4,06"],
    [25773,"2017-01-08T07:00:00","19","5","14,5","2,3","86,6","22,5","81,1","0,2","5,08"],
    [25774,"2017-01-08T08:00:00","21","3","12,5","2","119","22,3","82","12,6","3,3"],
    [25775,"2017-01-08T09:00:00","17","7","12,7","2,1","184,2","22,9","81,1","45","1,27"],
    [25776,"2017-01-08T10:00:00","24","5","17,1","2,7","185,1","23,8","78,1","79,8","0,25"],
    [25777,"2017-01-08T11:00:00","27","8","20,4","2,5","227,4","24,6","74,2","92,8","0"],
    [25778,"2017-01-08T12:00:00","24","6","31","1,3","237,5","26","67,2","160,3","0"],
    [25779,"2017-01-08T13:00:00","11","4","51,6","0,7","336,5","28,1","57,1","280","0"],
    [25780,"2017-01-08T14:00:00","21","14","62,2","4,1","352,1","28,8","55,1","309,1","0"],
    [25781,"2017-01-08T15:00:00","26","11","56,9","5,5","340,6","29","55,2","267","0"],
    [25782,"2017-01-08T16:00:00","20","9","45,8","4,3","7,9","28,9","52,3","88,3","0"],
    [25783,"2017-01-08T17:00:00","36","6","30,4","3,6","45,4","28,4","54,9","30,7","0"],
    [25784,"2017-01-08T18:00:00","41","13","20,6","3,7","61,2","27,6","58,7","6,5","0"],
    [25785,"2017-01-08T19:00:00","43","10","16,5","0,9","119,6","26,8","60,6","0","0"],
    [25786,"2017-01-08T20:00:00","44","11","12,8","2,3","154","25,9","68,5","0","0"],
    [25787,"2017-01-08T21:00:00","47","14","14,2","1,5","207,1","25,4","71,2","0","0"],
    [25788,"2017-01-08T22:00:00","70","20","12,8","1,9","263,9","25,5","70,4","0","0"],
    [25789,"2017-01-08T23:00:00","93","35","7,4","1,6","82","25,4","71,6","0","0"],
    [25790,"2017-01-09T00:00:00","49","13","6,4","2,4","75,2","24","77,1","0","0"],
    [25791,"2017-01-09T01:00:00","34","8","6,3","0,8","85,9","23,7","78,4","0","0"],
    [25792,"2017-01-09T02:00:00","35","8","6,5","0,9","154,7","23,7","78,4","0","0"],
    [25793,"2017-01-09T03:00:00","48","20","7,1","1,7","235,6","23,8","78","0","0"],
    [25794,"2017-01-09T04:00:00","41","14","7,3","1,7","191,9","23,7","77,2","0","0"],
    [25795,"2017-01-09T05:00:00","37","14","7,1","2,5","212","23,2","78,7","0","0"],
    [25796,"2017-01-09T06:00:00","54","20","7,2","2,3","172,5","22,9","79,8","0","0"],
    [25797,"2017-01-09T07:00:00","46","18","7,2","1,3","123,2","22,6","81,7","8,9","0"],
    [25798,"2017-01-09T08:00:00","46","12","8,7","2,5","64,6","23,7","77,3","80","0"],
    [25799,"2017-01-09T09:00:00","41","14","16","2,9","28","24,9","72,5","167","0"],
    [25800,"2017-01-09T10:00:00","38","16","32,6","3,5","27,9","27,2","63,3","256,6","0"],
    [25801,"2017-01-09T11:00:00","43","13","50,1","3,7","74,9","28,1","57,4","188,5","0"],
    [25802,"2017-01-09T12:00:00","46","19","58,4","2,7","58,2","29,3","53,1","248,5","0"],
    [25803,"2017-01-09T13:00:00","44","12","73,6","2,2","44,6","30,9","45,9","360,7","0"],
    [25804,"2017-01-09T14:00:00","34","7","86,7","3,3","354,9","31,1","45,3","241","0"],
    [25805,"2017-01-09T15:00:00","38","17","82,1","4","331,3","30,5","47","119,4","0"],
    [25806,"2017-01-09T16:00:00","42","19","58,3","4,6","346,5","29,9","47","56,3","0"],
    [25807,"2017-01-09T17:00:00","27","15","37,7","3,6","346,8","29,7","45","31,5","0"],
    [25808,"2017-01-09T18:00:00","35","13","21,4","1,6","345,3","29,2","46","4,9","0"],
    [25809,"2017-01-09T19:00:00","53","15","9,7","2,6","121,1","28","56,7","0","0"],
    [25810,"2017-01-09T20:00:00","48","15","24,1","4,4","191,2","25,3","70,1","0","1,52"],
    [25811,"2017-01-09T21:00:00","26","8","19,1","3,7","212,3","23,6","79","0","2,79"],
    [25812,"2017-01-09T22:00:00","27","8","17,1","3,2","187,5","23,3","80,6","0","2,03"],
    [25813,"2017-01-09T23:00:00","22","3","16,2","2","180,9","23,1","81,5","0","2,29"],
    [25814,"2017-01-10T00:00:00","18","1","17,5","1,3","193,4","23","81,7","0","1,52"],
    [25815,"2017-01-10T01:00:00","21","4","11,8","2,1","102","23","82","0","0,25"],
    [25816,"2017-01-10T02:00:00","20","ND","15,2","2,6","150,4","22,9","81,8","0","0,51"],
    [25817,"2017-01-10T03:00:00","21","ND","14,2","1,4","123,5","22,8","81,6","0","0,25"],
    [25818,"2017-01-10T04:00:00","27","3","12","1","73,3","22,7","81,3","0","0,25"],
    [25819,"2017-01-10T05:00:00","28","15","10,3","1,3","95,8","22,8","81","0","0"],
    [25820,"2017-01-10T06:00:00","53","19","7,8","1,3","329,7","22,7","81,6","0","0"],
    [25821,"2017-01-10T07:00:00","65","29","8","1,7","353,9","22,9","79,8","3,9","0"],
    [25822,"2017-01-10T08:00:00","66","37","8,3","1,5","291,3","23,6","77,7","40,1","0"],
    [25823,"2017-01-10T09:00:00","77","40","13,5","2,1","133,8","25","72,3","143,3","0"],
    [25824,"2017-01-10T10:00:00","53","17","29,7","2,7","187,8","26,7","63","209,6","0"],
    [25825,"2017-01-10T11:00:00","29","7","41,5","3,4","181","29,4","51,1","390,7","0"],
    [25826,"2017-01-10T12:00:00","31","5","51","2,2","135,3","30,8","44,9","404,9","0"],
    [25827,"2017-01-10T13:00:00","30","4","61,3","1,7","81,1","31,4","43,4","304,9","0"],
    [25828,"2017-01-10T14:00:00","32","9","82,2","0,2","30,4","32,6","40,4","330,5","0"],
    [25829,"2017-01-10T15:00:00","50","16","112,6","2,7","28,7","32,4","40,2","275,5","0"],
    [25830,"2017-01-10T16:00:00","58","23","102,7","3,5","29,5","31,8","42,3","93,8","0"],
    [25831,"2017-01-10T17:00:00","58","19","56,5","3,7","30,6","31","46,5","41,4","0"],
    [25832,"2017-01-10T18:00:00","51","10","21,5","3,3","18","30,4","47","13,4","0"],
    [25833,"2017-01-10T19:00:00","56","12","10,4","2,1","312,6","28,8","51,1","0","0"],
    [25834,"2017-01-10T20:00:00","45","8","9,1","1,7","322,6","28,1","53,5","0","0"],
    [25835,"2017-01-10T21:00:00","57","18","7,4","3,1","101,8","26,9","63,3","0","0"],
    [25836,"2017-01-10T22:00:00","51","10","9","3,3","81,3","26,4","64,7","0","0"],
    [25837,"2017-01-10T23:00:00","33","8","10,7","1,9","358,2","26,4","63,3","0","0"],
    [25838,"2017-01-11T00:00:00","25","6","10,7","1,3","83","26,3","63,7","0","0"],
    [25839,"2017-01-11T01:00:00","15","1","10","2,5","132,1","25,6","68","0","0"],
    [25840,"2017-01-11T02:00:00","38","13","13,5","2,4","166,7","25,2","72,4","0","0"],
    [25841,"2017-01-11T03:00:00","17","7","20,6","3,2","204,9","24,4","76,3","0","0,51"],
    [25842,"2017-01-11T04:00:00","14","ND","19,6","2,5","194,4","24,3","77,1","0","0"],
    [25843,"2017-01-11T05:00:00","28","3","16,9","2,7","161,9","24,3","76,4","0","0"],
    [25844,"2017-01-11T06:00:00","39","9","11,6","2","166,7","24","78","0","0"],
    [25845,"2017-01-11T07:00:00","28","7","11,2","1,6","169,7","23,9","77,5","3,9","0"],
    [25846,"2017-01-11T08:00:00","31","5","11,2","1,1","169,6","24,7","74,2","41,5","0"],
    [25847,"2017-01-11T09:00:00","49","11","13,3","1,9","144,5","26","69,8","74,5","0"],
    [25848,"2017-01-11T10:00:00","38","6","22,2","2,5","150,2","27,6","62,1","180,8","0"],
    [25849,"2017-01-11T11:00:00","30","6","31,9","3,5","237,6","27,5","63,8","164,8","0"],
    [25850,"2017-01-11T12:00:00","28","8","45,4","3,3","214","29,6","56","345,5","0"],
    [25851,"2017-01-11T13:00:00","32","7","60,3","2,9","220","31","49,6","382,9","0"],
    [25852,"2017-01-11T14:00:00","48","11","61,2","3,1","165,1","31,9","45,4","341,1","0"],
    [25853,"2017-01-11T15:00:00","26","10","74,1","2,2","182,7","32,9","40,8","323,1","0"],
    [25854,"2017-01-11T16:00:00","31","10","65,4","2,5","92,3","32,3","42,1","112,6","0"],
    [25855,"2017-01-11T17:00:00","59","17","48,7","0,9","353,7","30,7","47,8","25,9","0"],
    [25856,"2017-01-11T18:00:00","37","11","35","2,7","83,3","26,2","68,6","6,9","14,99"],
    [25857,"2017-01-11T19:00:00","54","19","16,4","2,5","61,7","25,4","73,8","0","0"],
    [25858,"2017-01-11T20:00:00","57","22","11,2","2,2","97,1","25,4","72,5","0","0"],
    [25859,"2017-01-11T21:00:00","51","22","10,6","2,7","184,1","25,2","74,8","0","0"],
    [25860,"2017-01-11T22:00:00","42","9","13,7","2,5","180,5","25,3","73,7","0","0"],
    [25861,"2017-01-11T23:00:00","29","6","14,9","3,3","199,6","25","74","0","0"],
    [25862,"2017-01-12T00:00:00","24","6","12,4","3,4","142,8","24,6","76,9","0","0,51"],
    [25863,"2017-01-12T01:00:00","14","2","17,9","2,6","190,5","24,3","76,9","0","0,51"],
    [25864,"2017-01-12T02:00:00","10","2","22,3","2,4","199,1","23,3","82,6","0","23,37"],
    [25865,"2017-01-12T03:00:00","18","3","18,3","2,2","241,6","23,2","83,7","0","3,81"],
    [25866,"2017-01-12T04:00:00","9","ND","19,2","0,9","200,1","23,1","82,7","0","2,29"],
    [25867,"2017-01-12T05:00:00","8","ND","15","0,7","109,7","23,2","80,6","0","0"],
    [25868,"2017-01-12T06:00:00","21","16","7,3","1,1","97,7","23,6","79,6","0","0"],
    [25869,"2017-01-12T07:00:00","33","19","8","1,5","93,2","23,7","78,5","5,3","0"],
    [25870,"2017-01-12T08:00:00","34","14","11","0,7","296,8","24,5","75,5","32,8","0"],
    [25871,"2017-01-12T09:00:00","66","21","10","0,5","69,5","25,1","74","34,8","0"],
    [25872,"2017-01-12T10:00:00","50","22","26,3","0,8","278,5","27,1","65,7","179","0,25"],
    [25873,"2017-01-12T11:00:00","48","13","41,1","2,1","97,5","28,3","60,1","256,6","0"],
    [25874,"2017-01-12T12:00:00","36","15","57,6","2,3","140,2","30,9","51,1","415,9","0"],
    [25875,"2017-01-12T13:00:00","31","11","62,6","2,4","108,1","31,9","45,3","364,3","0"],
    [25876,"2017-01-12T14:00:00","42","20","75","2,1","100,9","32,4","44,5","364,3","0"],
    [25877,"2017-01-12T15:00:00","56","15","75,6","2,9","87,6","32,9","41,4","285","0"],
    [25878,"2017-01-12T16:00:00","54","19","82,3","2,2","100,8","33,4","39,7","243","0"],
    [25879,"2017-01-12T17:00:00","50","20","74","2,6","103,7","32,7","41,5","114,3","0"],
    [25880,"2017-01-12T18:00:00","46","19","52,8","2,7","301,9","31,1","46,6","19,5","0"],
    [25881,"2017-01-12T19:00:00","35","8","15,5","4,8","290,3","28,6","53,6","0","0"],
    [25882,"2017-01-12T20:00:00","38","7","16,8","3","313,2","28,3","53,9","0","0"],
    [25883,"2017-01-12T21:00:00","52","18","9,1","3,5","82,4","26,8","63,4","0","0"],
    [25884,"2017-01-12T22:00:00","50","13","8,6","3","98,3","26,2","65,9","0","0"],
    [25885,"2017-01-12T23:00:00","34","7","11,1","2","15,1","26,3","62,9","0","0"],
    [25886,"2017-01-13T00:00:00","37","2","10","2,4","95,9","26,2","63,6","0","0"],
    [25887,"2017-01-13T01:00:00","22","ND","8,2","1,7","145,5","25,7","67,3","0","0"],
    [25888,"2017-01-13T02:00:00","24","ND","8,7","2","173,7","25,4","69,6","0","0"],
    [25889,"2017-01-13T03:00:00","31","2","8,7","2,2","200,4","25,1","72,2","0","0"],
    [25890,"2017-01-13T04:00:00","24","3","9,6","1,1","171,2","25","73","0","0"],
    [25891,"2017-01-13T05:00:00","29","7","9,2","0,2","342,3","25,1","72,7","0","0"],
    [25892,"2017-01-13T06:00:00","76","17","7,7","1,6","49,7","25,1","73","0","0"],
    [25893,"2017-01-13T07:00:00","71","15","7","2,9","117,2","24,8","75","0","0"],
    [25894,"2017-01-13T08:00:00","76","14","7,8","1,8","113","25,4","69,9","16,4","0"],
    [25895,"2017-01-13T09:00:00","50","12","10","0,6","26,1","26","64,6","40,4","0"],
    [25896,"2017-01-13T10:00:00","43","7","15,4","2,6","72,6","26,8","61,9","145,2","0"],
    [25897,"2017-01-13T11:00:00","44","9","34,7","1,7","46,6","29,1","53,7","304,8","0"],
    [25898,"2017-01-13T12:00:00","46","15","70,6","2,2","6,7","30,3","49,8","333,4","0"],
    [25899,"2017-01-13T13:00:00","48","16","94,6","2,8","108,3","32","44,3","426,3","0"],
    [25900,"2017-01-13T14:00:00","38","17","101,3","1,2","344,3","32,9","40,2","277,1","0"],
    [25901,"2017-01-13T15:00:00","40","3","75","4,6","296,9","32","42,2","196,3","0"],
    [25902,"2017-01-13T16:00:00","37","18","77,3","2,2","25,6","32,8","40,4","182,1","0"],
    [25903,"2017-01-13T17:00:00","36","3","44,9","4,2","320","32,3","40,3","143,8","0"],
    [25904,"2017-01-13T18:00:00","34","3","22,9","5,6","294,1","30,4","44,5","37,7","0"],
    [25905,"2017-01-13T19:00:00","29","2","15,1","6,6","295,1","28,9","49,4","0","0"],
    [25906,"2017-01-13T20:00:00","69","20","9,1","2,2","43,2","28,2","53,4","0","0"],
    [25907,"2017-01-13T21:00:00","61","17","8","2,1","90,3","27","59,4","0","0"],
    [25908,"2017-01-13T22:00:00","57","6","7,6","2,3","63,4","25,6","67,5","0","0"],
    [25909,"2017-01-13T23:00:00","44","12","8","2,9","223,9","26,3","63,9","0","0"],
    [25910,"2017-01-14T00:00:00","43","8","8,4","2,5","226,1","25,5","68,7","0","0"],
    [25911,"2017-01-14T01:00:00","36","6","7,8","2,3","184,7","25,5","70,6","0","0"],
    [25912,"2017-01-14T02:00:00","48","5","7,7","2,1","136,1","24,8","73,3","0","0"],
    [25913,"2017-01-14T03:00:00","41","7","7,6","2,3","11,2","24,9","71,4","0","0"],
    [25914,"2017-01-14T04:00:00","42","4","8,2","2,3","6,3","24,8","71,5","0","0"],
    [25915,"2017-01-14T05:00:00","39","1","8,1","4,4","93,8","24,2","74,3","0","0"],
    [25916,"2017-01-14T06:00:00","38","5","10","0,3","87,8","23,8","74,4","0","0"],
    [25917,"2017-01-14T07:00:00","44","7","8,5","2","212,7","24,2","73,1","0","0"],
    [25918,"2017-01-14T08:00:00","72","21","8,8","2,1","88,7","24,6","72,9","38,2","0"],
    [25919,"2017-01-14T09:00:00","49","12","14,6","2,5","31,5","25,9","66,6","79,4","0"],
    [25920,"2017-01-14T10:00:00","41","10","16,8","3,8","58,1","26","66,5","81,3","0"],
    [25921,"2017-01-14T11:00:00","41","9","23,1","2,9","60,8","27","62,8","200,4","0"],
    [25922,"2017-01-14T12:00:00","38","10","39,1","1,4","3,8","28,3","58,3","263,7","0"],
    [25923,"2017-01-14T13:00:00","51","14","52,1","2,4","98,7","29","54,8","165,8","0"],
    [25924,"2017-01-14T14:00:00","35","8","59,5","2,5","149,7","31","48,3","383,5","0"],
    [25925,"2017-01-14T15:00:00","35","6","69,3","2","158,6","31,8","44,7","270,8","0"],
    [25926,"2017-01-14T16:00:00","41","11","71,6","2,1","141,2","31,1","45,3","148","0"],
    [25927,"2017-01-14T17:00:00","54","11","57,3","1,7","120,7","30,3","48","26,5","0"],
    [25928,"2017-01-14T18:00:00","56","16","32,9","1,8","30,6","29,5","52,8","9,5","0"],
    [25929,"2017-01-14T19:00:00","49","11","12,9","1,1","105,9","28,6","54,6","0","0"],
    [25930,"2017-01-14T20:00:00","54","6","8,6","1,3","45,3","27,3","59,9","0","0"],
    [25931,"2017-01-14T21:00:00","75","27","8,8","1,4","88,5","26,6","60,6","0","0"],
    [25932,"2017-01-14T22:00:00","55","15","7,8","2,3","104","25,4","67,3","0","0"],
    [25933,"2017-01-14T23:00:00","48","10","7,8","3,2","73,1","24,9","68,6","0","0"],
    [25934,"2017-01-15T00:00:00","46","7","7,5","2,5","80,3","24,6","69,4","0","0"],
    [25935,"2017-01-15T01:00:00","27","5","8,4","2,6","89,9","24","70,3","0","0"],
    [25936,"2017-01-15T02:00:00","29","4","8,7","0,4","312,9","23,4","71,9","0","0"],
    [25937,"2017-01-15T03:00:00","49","14","8,3","0,4","279,7","23,4","71,2","0","0"],
    [25938,"2017-01-15T04:00:00","34","9","7,1","1,8","160,8","23,1","73,6","0","0"],
    [25939,"2017-01-15T05:00:00","49","7","7,1","2","197,5","22,6","78,2","0","0"],
    [25940,"2017-01-15T06:00:00","53","8","7,2","1,5","130,9","22,6","78,3","0","0"],
    [25941,"2017-01-15T07:00:00","43","13","7,1","0,7","348,2","22,7","77,5","6,1","0"],
    [25942,"2017-01-15T08:00:00","61","11","8,3","0,9","69,2","24,2","71,5","81,1","0"],
    [25943,"2017-01-15T09:00:00","53","9","17,4","2","143,1","26","64,8","189,8","0"],
    [25944,"2017-01-15T10:00:00","40","11","34,3","3,3","183,5","28,5","54,6","290,6","0"],
    [25945,"2017-01-15T11:00:00","32","6","51,8","2,4","180,5","30,6","46,7","354,9","0"],
    [25946,"2017-01-15T12:00:00","28","6","67,2","1,3","79,8","32,2","40,9","426,2","0"],
    [25947,"2017-01-15T13:00:00","35","10","80","2,3","86","33,1","37,6","428,5","0"],
    [25948,"2017-01-15T14:00:00","43","8","89,9","2,7","74","33,3","37,2","332,7","0"],
    [25949,"2017-01-15T15:00:00","40","8","83,7","3,4","30,3","33","37,5","186,5","0"],
    [25950,"2017-01-15T16:00:00","36","13","78,2","4,1","49,2","33,1","37,7","182,7","0"],
    [25951,"2017-01-15T17:00:00","25","6","40,3","3,4","324,7","31,8","39,8","70,7","0"],
    [25952,"2017-01-15T18:00:00","27","2","25,6","5,7","302,1","30,1","43,3","22,7","0"],
    [25953,"2017-01-15T19:00:00","29","1","14,7","3,4","318,2","29,2","46,2","0","0"],
    [25954,"2017-01-15T20:00:00","17","ND","18,7","5,5","296,7","28,4","49,9","0","0"],
    [25955,"2017-01-15T21:00:00","38","ND","19,6","3,1","304,7","28,1","50,2","0","0"],
    [25956,"2017-01-15T22:00:00","47","ND","9","2,6","105,2","26,3","61,7","0","0"],
    [25957,"2017-01-15T23:00:00","37","ND","9,6","1,5","127,2","26,6","59,5","0","0"],
    [25958,"2017-01-16T00:00:00","38","ND","12,4","2","242,8","26","64,6","0","0"],
    [25959,"2017-01-16T01:00:00","23","ND","8,6","3,2","101,8","25,2","69,4","0","0"],
    [25960,"2017-01-16T02:00:00","25","ND","8,9","3,2","111,9","24,4","73,8","0","0"],
    [25961,"2017-01-16T03:00:00","16","ND","10,5","2,4","89,1","24,1","75,6","0","0"],
    [25962,"2017-01-16T04:00:00","19","ND","8,3","2,4","90,3","23,7","76,8","0","0"],
    [25963,"2017-01-16T05:00:00","31","ND","9,5","2,3","132,3","23,5","77,9","0","0"],
    [25964,"2017-01-16T06:00:00","46","ND","9,9","1,9","129,2","23,3","77,8","0","0"],
    [25965,"2017-01-16T07:00:00","44","ND","8,4","1,2","159","23,3","77,4","0","0"],
    [25966,"2017-01-16T08:00:00","59","ND","11,7","2,2","189","23,8","75,5","31,2","0"],
    [25967,"2017-01-16T09:00:00","45","ND","16,7","1,9","211,7","25,5","70,1","140,3","0"],
    [25968,"2017-01-16T10:00:00","43","ND","31,4","1,9","183,6","28,2","57,5","226,1","0"],
    [25969,"2017-01-16T11:00:00","37","ND","37,8","1,5","110,9","29,2","53","274,8","0"],
    [25970,"2017-01-16T12:00:00","42","ND","50,4","1","110,3","29,5","51,7","233,4","0"],
    [25971,"2017-01-16T13:00:00","39","ND","77,1","1,4","145","32,6","40,7","450,4","0"],
    [25972,"2017-01-16T14:00:00","34","ND","100,9","1,2","195,1","32,7","39,9","261,2","0"],
    [25973,"2017-01-16T15:00:00","47","ND","136,6","1,4","38,9","32,2","40,2","119,1","0"],
    [25974,"2017-01-16T16:00:00","28","ND","74,6","3,7","288,6","31,9","41,6","99,6","0"],
    [25975,"2017-01-16T17:00:00","31","ND","39,4","3,6","313","31,4","42,4","58,1","0"],
    [25976,"2017-01-16T18:00:00","36","ND","19,7","4,2","289,1","30,5","43,5","16,3","0"],
    [25977,"2017-01-16T19:00:00","43","ND","11,2","4,5","289,7","29,3","47,3","0","0"],
    [25978,"2017-01-16T20:00:00","37","ND","10,3","3,9","294,3","28,5","50,2","0","0"],
    [25979,"2017-01-16T21:00:00","53","ND","8,6","2,9","87,7","26,5","61,3","0","0"],
    [25980,"2017-01-16T22:00:00","44","ND","8,2","2,4","72,5","25,7","65,3","0","0"],
    [25981,"2017-01-16T23:00:00","59","ND","7,3","1,4","197,6","25,2","67,7","0","0"],
    [25982,"2017-01-17T00:00:00","58","ND","7,6","2,2","151,7","24,6","71,3","0","0"],
    [25983,"2017-01-17T01:00:00","55","ND","7,2","2,9","214,3","24,6","71,2","0","0"],
    [25984,"2017-01-17T02:00:00","44","ND","6,9","1,4","147,6","24,7","70,4","0","0"],
    [25985,"2017-01-17T03:00:00","46","ND","7","1,7","104","24,6","71,9","0","0"],
    [25986,"2017-01-17T04:00:00","43","ND","7,1","2,1","64,8","24,6","71,2","0","0"],
    [25987,"2017-01-17T05:00:00","48","ND","7,4","1,5","96,4","25,1","68,9","0","0"],
    [25988,"2017-01-17T06:00:00","52","ND","7,1","1,3","183,3","25,1","69,3","0","0"],
    [25989,"2017-01-17T07:00:00","64","ND","7,2","1,7","176,7","25","71,3","0","0"],
    [25990,"2017-01-17T08:00:00","76","ND","7,5","2,2","168","25,3","71,7","22,4","0"],
    [25991,"2017-01-17T09:00:00","53","ND","8,2","2,8","156,7","25,5","71,5","53,6","0"],
    [25992,"2017-01-17T10:00:00","38","ND","11,7","2,9","178,9","26,4","69","170,8","0"],
    [25993,"2017-01-17T11:00:00","ND","ND","ND","3","179,7","28,3","59,8","249","0"],
    [25994,"2017-01-17T12:00:00","21","ND","40,6","1,3","200","31,1","48,3","382,7","0"],
    [25995,"2017-01-17T13:00:00","38","ND","56","2","170,2","30,6","49,4","160,4","0"],
    [25996,"2017-01-17T14:00:00","42","ND","78,6","1,6","196,9","31,4","46,5","214,4","0"],
    [25997,"2017-01-17T15:00:00","23","ND","79,2","3,3","279,3","32,3","40","185,5","0"],
    [25998,"2017-01-17T16:00:00","28","ND","49,5","5,8","293,2","32,5","39","230,5","0"],
    [25999,"2017-01-17T17:00:00","23","ND","34,5","6,6","299,7","32","38,6","128,1","0"],
    [26000,"2017-01-17T18:00:00","23","ND","24,8","6,6","290,5","30,6","42,7","31,3","0"],
    [26001,"2017-01-17T19:00:00","41","ND","14","5,6","306","29","47,8","0","0"],
    [26002,"2017-01-17T20:00:00","32","ND","13,7","5,7","305,5","28,4","50,6","0","0"],
    [26003,"2017-01-17T21:00:00","48","ND","9,6","3","74","27,6","55,5","0","0"],
    [26004,"2017-01-17T22:00:00","38","ND","10,5","3","271,4","27,2","58,9","0","1,02"],
    [26005,"2017-01-17T23:00:00","54","ND","8,4","5,1","241,1","25,8","68,2","0","0,76"],
    [26006,"2017-01-18T00:00:00","41","ND","9,5","3,9","224,3","26,1","65,6","0","0"],
    [26007,"2017-01-18T01:00:00","19","ND","10,4","3,2","212,9","24,7","74,9","0","23,88"],
    [26008,"2017-01-18T02:00:00","18","ND","14,3","3,4","188,6","23,3","83,3","0","13,97"],
    [26009,"2017-01-18T03:00:00","12","ND","9,9","2","189,6","23,5","82,2","0","1,02"],
    [26010,"2017-01-18T04:00:00","12","ND","10,2","1,6","89,3","23,4","80,4","0","0,25"],
    [26011,"2017-01-18T05:00:00","19","ND","9,9","2,1","199,3","23,6","78,8","0","0"],
    [26012,"2017-01-18T06:00:00","23","ND","8","2,9","229,9","23,6","79,5","0","0,25"],
    [26013,"2017-01-18T07:00:00","25","ND","7,5","2,6","207,9","23,5","79,5","0","0,25"],
    [26014,"2017-01-18T08:00:00","24","ND","9,2","3","232,6","23,6","79,5","24,3","0,25"],
    [26015,"2017-01-18T09:00:00","17","ND","11,1","3,6","232,3","23,9","78,5","61,2","0,51"],
    [26016,"2017-01-18T10:00:00","10","ND","16","3,5","221","24,2","77","109","0"],
    [26017,"2017-01-18T11:00:00","22","ND","24,7","2","231,1","25,9","69,4","173","0"],
    [26018,"2017-01-18T12:00:00","18","ND","37","1,5","179,5","28,8","56,5","308,7","0"],
    [26019,"2017-01-18T13:00:00","13","ND","36,9","2,1","176,3","30,4","47","316,5","0"],
    [26020,"2017-01-18T14:00:00","22","ND","44,3","1,3","187,8","31,1","44,3","294,1","0"],
    [26021,"2017-01-18T15:00:00","21","ND","52,3","2,2","70","32,1","41,1","290,2","0"],
    [26022,"2017-01-18T16:00:00","25","ND","53,7","2,7","330","31,6","40,5","135,5","0"],
    [26023,"2017-01-18T17:00:00","32","ND","46,1","5,4","311","29,8","46,8","71,6","0"],
    [26024,"2017-01-18T18:00:00","35","ND","16,2","4","301,9","29,2","47","20,7","0"],
    [26025,"2017-01-18T19:00:00","37","ND","25,8","2,5","341,5","27,7","54,9","0","0"],
    [26026,"2017-01-18T20:00:00","47","ND","19,8","1,9","53,9","26,8","60,7","0","0"],
    [26027,"2017-01-18T21:00:00","47","ND","16","2,5","45,3","25,9","64,9","0","0"],
    [26028,"2017-01-18T22:00:00","43","ND","13,2","2,6","69,4","25,3","68,8","0","0"],
    [26029,"2017-01-18T23:00:00","29","ND","14","1,6","110,2","24,8","71,3","0","0"],
    [26030,"2017-01-19T00:00:00","32","ND","14","1,8","190,3","24,7","72,3","0","0"],
    [26031,"2017-01-19T01:00:00","36","ND","13,7","3,2","209","24,2","76,3","0","0,51"],
    [26032,"2017-01-19T02:00:00","32","ND","13,2","2,2","221,2","23,6","80","0","1,27"],
    [26033,"2017-01-19T03:00:00","23","ND","12","0,8","304,1","23,5","80,1","0","0,25"],
    [26034,"2017-01-19T04:00:00","39","3","6,9","2,7","83,8","23,1","81,6","0","0"],
    [26035,"2017-01-19T05:00:00","49","6","6,7","1,3","89,2","22,7","82,2","0","0"],
    [26036,"2017-01-19T06:00:00","62","10","7,4","0,4","338,7","22,8","82,1","0","0"],
    [26037,"2017-01-19T07:00:00","77","12","7,2","1","38,7","23,1","81","6,2","0"],
    [26038,"2017-01-19T08:00:00","119","38","8,4","1,6","76,3","23,5","80","22,9","0,25"],
    [26039,"2017-01-19T09:00:00","83","9","8,7","2","90","24,1","78,3","56,4","0"],
    [26040,"2017-01-19T10:00:00","82","23","18,8","2","95","25,9","70,1","146,3","0"],
    [26041,"2017-01-19T11:00:00","58","7","35,9","1,8","125,8","28,5","58,1","301,9","0"],
    [26042,"2017-01-19T12:00:00","43","6","60","1,6","190","29,7","53","207,3","0"],
    [26043,"2017-01-19T13:00:00","39","6","70,4","1,7","155,7","30,2","51,3","213,7","0"],
    [26044,"2017-01-19T14:00:00","60","15","115,2","2,5","128,2","32,1","43,8","395,9","0"],
    [26045,"2017-01-19T15:00:00","60","11","113,4","2,6","68,5","32,5","41,9","273,2","0"],
    [26046,"2017-01-19T16:00:00","49","6","74,7","4,3","289,9","31,3","43,7","108,7","0"],
    [26047,"2017-01-19T17:00:00","27","ND","25,4","6,6","282,5","30,2","45,2","68,8","0"],
    [26048,"2017-01-19T18:00:00","14","ND","22,4","6,1","287,2","29,5","47,4","43,1","0"],
    [26049,"2017-01-19T19:00:00","50","ND","11,7","3,2","336,8","28,9","50,1","0,8","0"],
    [26050,"2017-01-19T20:00:00","58","6","8,7","2,3","52,9","27,4","58,7","0","0"],
    [26051,"2017-01-19T21:00:00","63","18","9,8","2,2","87,4","26,9","60","0","0"],
    [26052,"2017-01-19T22:00:00","34","ND","9,2","2,4","53,5","26,1","64,1","0","0"],
    [26053,"2017-01-19T23:00:00","40","ND","8,8","2,4","221,7","25,8","67,3","0","0"],
    [26054,"2017-01-20T00:00:00","19","ND","11,8","2,7","176,2","25,2","71","0","0"],
    [26055,"2017-01-20T01:00:00","20","ND","13,6","2,3","162,2","24,8","74,2","0","0"],
    [26056,"2017-01-20T02:00:00","23","ND","14,5","2,4","192,6","24,5","76,1","0","0"],
    [26057,"2017-01-20T03:00:00","15","ND","19,2","1,8","167,2","24,3","74,8","0","0"],
    [26058,"2017-01-20T04:00:00","31","ND","11","2,7","96,6","23,9","78,1","0","0"],
    [26059,"2017-01-20T05:00:00","27","ND","20,7","2,8","171,5","23,6","73,9","0","0"],
    [26060,"2017-01-20T06:00:00","26","ND","14,4","1,8","232,3","23,4","76,2","0","0"],
    [26061,"2017-01-20T07:00:00","39","ND","8,4","2,3","133,6","23,5","78,2","1,6","0,25"],
    [26062,"2017-01-20T08:00:00","62","1","8","1,5","84,1","23,8","78,2","33,6","0"],
    [26063,"2017-01-20T09:00:00","45","5","13,4","2,4","120,9","24,8","72,6","77,3","0"],
    [26064,"2017-01-20T10:00:00","40","9","21,6","2,2","102,5","25,9","67,4","142,9","0"],
    [26065,"2017-01-20T11:00:00","28","7","37,2","2,2","139,5","29,3","54","369,6","0"],
    [26066,"2017-01-20T12:00:00","29","ND","56,5","2,8","116","30,7","46,6","441,8","0"],
    [26067,"2017-01-20T13:00:00","23","ND","60,4","2,9","87,1","31,7","43,1","326,7","0"],
    [26068,"2017-01-20T14:00:00","30","ND","64,4","2,6","24,1","30,9","45,6","121,6","0"],
    [26069,"2017-01-20T15:00:00","24","ND","72,7","0,8","335,6","31,2","44,8","166,3","0"],
    [26070,"2017-01-20T16:00:00","36","ND","75,6","3,4","270,5","32,7","39,8","259,6","0"],
    [26071,"2017-01-20T17:00:00","42","ND","36","2,8","88,3","31,1","46,4","162,5","0"],
    [26072,"2017-01-20T18:00:00","29","ND","26,6","4,3","294,2","29,4","47,4","18,4","0"],
    [26073,"2017-01-20T19:00:00","22","ND","19,3","5,8","304,7","27,9","50","0","0"],
    [26074,"2017-01-20T20:00:00","41","ND","11,7","1,1","44,8","27,5","54,3","0","0"],
    [26075,"2017-01-20T21:00:00","36","ND","20","6","246,1","26,6","60,7","0","0"],
    [26076,"2017-01-20T22:00:00","32","ND","18,2","5,7","230,6","25,6","67,2","0","0"],
    [26077,"2017-01-20T23:00:00","19","ND","23,5","4,4","214,1","25,3","67,9","0","0"],
    [26078,"2017-01-21T00:00:00","23","ND","20,1","2,8","180,1","25,1","70","0","0"],
    [26079,"2017-01-21T01:00:00","17","ND","17,4","2,4","119,4","24,2","75,5","0","1,02"],
    [26080,"2017-01-21T02:00:00","23","ND","13,5","3,9","91,8","23,3","81,2","0","0,51"],
    [26081,"2017-01-21T03:00:00","18","ND","13,9","3","86,9","22,8","81,3","0","0,76"],
    [26082,"2017-01-21T04:00:00","16","ND","13,7","1,8","126,4","22,6","80,6","0","0,51"],
    [26083,"2017-01-21T05:00:00","24","ND","11,9","2,3","152,8","22,7","80,4","0","0,51"],
    [26084,"2017-01-21T06:00:00","36","ND","10,2","2,1","136,6","22,5","80,7","0","0,51"],
    [26085,"2017-01-21T07:00:00","33","ND","11","2,3","126","22,5","79,2","0","0"],
    [26086,"2017-01-21T08:00:00","39","3","12,6","2,1","135,7","22,6","76,9","17,2","0"],
    [26087,"2017-01-21T09:00:00","32","3","20,1","2,3","195,3","23,6","72,6","68,3","0"],
    [26088,"2017-01-21T10:00:00","37","ND","25,6","3,3","202,6","24,4","70,1","156,4","0"],
    [26089,"2017-01-21T11:00:00","65","19","33,7","3,6","204,3","25,7","64,3","203,7","0"],
    [26090,"2017-01-21T12:00:00","18","ND","42,4","3,4","192,8","26,8","59","216,7","0"],
    [26091,"2017-01-21T13:00:00","27","ND","52","2,3","143,2","28,1","52","251,1","0"],
    [26092,"2017-01-21T14:00:00","26","4","66,5","0,8","144,3","29","47,9","238,8","0"],
    [26093,"2017-01-21T15:00:00","34","6","60,9","3","99,4","28,9","47,9","179,4","0"],
    [26094,"2017-01-21T16:00:00","57","6","56,2","4","109,6","28,7","48,8","145,1","0"],
    [26095,"2017-01-21T17:00:00","47","10","59,6","3,3","134,6","29,1","47","119,3","0"],
    [26096,"2017-01-21T18:00:00","57","15","42,6","3","104,6","28,5","48,2","41","0"],
    [26097,"2017-01-21T19:00:00","80","23","24,6","1,4","66,5","27,1","53,9","0","0"],
    [26098,"2017-01-21T20:00:00","111","29","18,4","1,6","15,9","26,4","57,1","0","0"],
    [26099,"2017-01-21T21:00:00","121","46","10,1","1","303,1","25,5","61,4","0","0"],
    [26100,"2017-01-21T22:00:00","109","33","8,6","1,3","120,1","24,3","68,5","0","0"],
    [26101,"2017-01-21T23:00:00","69","17","7,7","1,5","169,9","23,6","71,2","0","0"],
    [26102,"2017-01-22T00:00:00","80","27","8,3","1,7","180,8","23,1","74,4","0","0"],
    [26103,"2017-01-22T01:00:00","42","ND","7","1,2","206,3","22,5","75,8","0","0"],
    [26104,"2017-01-22T02:00:00","52","ND","7,1","1,6","159,1","22,1","74,6","0","0"],
    [26105,"2017-01-22T03:00:00","38","ND","7,1","2","161","21,2","79,9","0","0"],
    [26106,"2017-01-22T04:00:00","34","ND","7,3","1,6","177,9","20,9","79,5","0","0"],
    [26107,"2017-01-22T05:00:00","32","ND","7,6","0,7","200","20,9","79","0","0"],
    [26108,"2017-01-22T06:00:00","38","ND","7,3","1,1","160,9","21","77,4","0","0"],
    [26109,"2017-01-22T07:00:00","36","ND","7,6","1,6","210,1","21","75,4","10,4","0"],
    [26110,"2017-01-22T08:00:00","47","ND","10,3","0,8","138,3","23","68,9","108,6","0"],
    [26111,"2017-01-22T09:00:00","59","7","17,9","2,4","118,9","24,2","66,7","194,8","0"],
    [26112,"2017-01-22T10:00:00","57","6","40,5","2,3","187,5","27,1","53,5","297,1","0"],
    [26113,"2017-01-22T11:00:00","26","3","38,1","2,5","171,3","29,1","45,6","379,5","0"],
    [26114,"2017-01-22T12:00:00","27","ND","56,6","1,8","163,8","30,5","39,8","430,4","0"],
    [26115,"2017-01-22T13:00:00","30","ND","65,4","1,4","150,6","32,1","35,5","445","0"],
    [26116,"2017-01-22T14:00:00","33","ND","65,1","1,5","92,1","33,4","32,2","418,4","0"],
    [26117,"2017-01-22T15:00:00","22","ND","69,5","2,6","101,3","33,5","30,7","353","0"],
    [26118,"2017-01-22T16:00:00","29","ND","68,3","3","86,8","34","28,9","262,6","0"],
    [26119,"2017-01-22T17:00:00","38","ND","66,4","4,2","63,4","33,6","30,5","175,7","0"],
    [26120,"2017-01-22T18:00:00","33","2","73,9","5,1","15,6","32,7","34,1","77","0"],
    [26121,"2017-01-22T19:00:00","41","9","37,8","3,3","5,8","30,5","40,9","0","0"],
    [26122,"2017-01-22T20:00:00","63","10","12,8","1,4","54,8","28,7","47,8","0","0"],
    [26123,"2017-01-22T21:00:00","65","9","10,4","2,4","107,5","26,6","59,2","0","0"],
    [26124,"2017-01-22T22:00:00","57","15","9,7","1,4","77,6","25,6","62,2","0","0"],
    [26125,"2017-01-22T23:00:00","65","9","8,3","0,8","182,5","25,1","60,4","0","0"],
    [26126,"2017-01-23T00:00:00","68","7","8,6","2","196,1","24,7","59,4","0","0"],
    [26127,"2017-01-23T01:00:00","61","12","10","1,3","173,5","22,9","68,1","0","0"],
    [26128,"2017-01-23T02:00:00","63","8","9,8","1,2","155,5","22,2","68,7","0","0"],
    [26129,"2017-01-23T03:00:00","49","5","7,5","1,8","93,8","21,7","68,9","0","0"],
    [26130,"2017-01-23T04:00:00","52","13","8","2,3","106,1","20,7","68,6","0","0"],
    [26131,"2017-01-23T05:00:00","45","8","8,7","1,2","146,3","20,3","64,9","0","0"],
    [26132,"2017-01-23T06:00:00","66","15","7,9","1,7","139,4","19,7","66,8","0","0"],
    [26133,"2017-01-23T07:00:00","73","9","7,8","1,9","171,3","19,3","72,9","8,5","0"],
    [26134,"2017-01-23T08:00:00","67","16","11,5","2,1","195,1","21,4","66,8","90,5","0"],
    [26135,"2017-01-23T09:00:00","52","1","25,2","1,9","196,9","24,3","55,5","198,7","0"],
    [26136,"2017-01-23T10:00:00","83","9","42,6","1,6","155,2","27,3","43,4","300","0"],
    [26137,"2017-01-23T11:00:00","64","9","ND","2,2","94,1","29,2","38,4","381,5","0"],
    [26138,"2017-01-23T12:00:00","39","5","73,3","2,8","115,8","31","35,1","432","0"],
    [26139,"2017-01-23T13:00:00","34","5","75,7","2,1","102,7","33","30,7","446,1","0"],
    [26140,"2017-01-23T14:00:00","37","3","86,8","3,5","94,5","33,2","31","413,5","0"],
    [26141,"2017-01-23T15:00:00","36","ND","105,4","3,3","90,5","33,9","29,4","345,2","0"],
    [26142,"2017-01-23T16:00:00","39","6","97,1","1,2","58,8","34","28,7","227,7","0"],
    [26143,"2017-01-23T17:00:00","47","5","55,8","6,4","288,3","32,3","32,5","86,5","0"],
    [26144,"2017-01-23T18:00:00","39","2","39,9","5,2","299,8","31,1","34,9","30,9","0"],
    [26145,"2017-01-23T19:00:00","45","ND","24,5","4,4","296,7","29,5","40,6","0","0"],
    [26146,"2017-01-23T20:00:00","47","ND","14,5","2,7","314,7","28,3","45,7","0","0"],
    [26147,"2017-01-23T21:00:00","65","9","9,4","2,9","106,7","25,1","59,7","0","0"],
    [26148,"2017-01-23T22:00:00","72","7","13,3","1,8","206,3","25,7","58,2","0","0"],
    [26149,"2017-01-23T23:00:00","90","14","10,7","3,1","206","25,1","62,4","0","0"],
    [26150,"2017-01-24T00:00:00","63","7","7,8","1,8","105,9","23,8","67,2","0","0"],
    [26151,"2017-01-24T01:00:00","61","7","9,7","1","185,7","23,6","67,3","0","0"],
    [26152,"2017-01-24T02:00:00","59","6","14,1","1,7","166,6","23,5","65,9","0","0"],
    [26153,"2017-01-24T03:00:00","60","4","11,9","1,2","152,1","22,9","67,8","0","0"],
    [26154,"2017-01-24T04:00:00","75","1","8,6","2,4","100","22,4","70,7","0","0"],
    [26155,"2017-01-24T05:00:00","79","ND","7,4","1,5","116,4","21,9","72,1","0","0"],
    [26156,"2017-01-24T06:00:00","73","21","8,1","1","185,2","22,3","68,5","0","0"],
    [26157,"2017-01-24T07:00:00","86","16","8,2","1,3","186,2","22,4","68,7","7,2","0"],
    [26158,"2017-01-24T08:00:00","72","16","12,3","1,4","186,5","23,2","64,9","56","0"],
    [26159,"2017-01-24T09:00:00","65","8","24,3","2,1","191,6","25,6","55,7","197,3","0"],
    [26160,"2017-01-24T10:00:00","55","4","40,1","2,5","152,6","27,8","47","287,9","0"],
    [26161,"2017-01-24T11:00:00","49","4","64,7","1,7","195,1","29,7","42","369","0"],
    [26162,"2017-01-24T12:00:00","50","6","80,1","2,2","132,9","30,9","39,5","415,5","0"],
    [26163,"2017-01-24T13:00:00","48","8","94,5","2,5","127,2","32,4","35,5","434,8","0"],
    [26164,"2017-01-24T14:00:00","58","6","111,1","2,5","61,3","33,5","33,6","378,8","0"],
    [26165,"2017-01-24T15:00:00","70","6","133,1","3,2","352,8","33,1","34","301,9","0"],
    [26166,"2017-01-24T16:00:00","48","5","62,8","4,8","12,4","32,8","34,2","182,7","0"],
    [26167,"2017-01-24T17:00:00","47","1","56,5","4,3","1,4","32,2","34,8","82,5","0"],
    [26168,"2017-01-24T18:00:00","55","1","37,6","4,7","320,4","30,9","37","16,4","0"],
    [26169,"2017-01-24T19:00:00","52","2","20,3","5,1","318","29,4","41,4","0","0"],
    [26170,"2017-01-24T20:00:00","53","11","22,1","3,8","303,7","28,7","44,7","0","0"],
    [26171,"2017-01-24T21:00:00","66","13","12,5","2,9","80,9","26,3","55,8","0","0"],
    [26172,"2017-01-24T22:00:00","69","25","12,6","2,3","104,1","24,9","60,9","0","0"],
    [26173,"2017-01-24T23:00:00","72","28","11,4","1,3","139,2","25,3","60,2","0","0"],
    [26174,"2017-01-25T00:00:00","44","6","15,1","2,5","30,2","24,8","61,5","0","0"],
    [26175,"2017-01-25T01:00:00","32","1","13","0,7","173,7","24,3","63,7","0","0"],
    [26176,"2017-01-25T02:00:00","51","6","12","1,7","156,9","23,8","66,7","0","0"],
    [26177,"2017-01-25T03:00:00","50","7","10","1,5","154,1","23,3","69,1","0","0"],
    [26178,"2017-01-25T04:00:00","67","15","8,4","2,4","146","22,5","72,3","0","0"],
    [26179,"2017-01-25T05:00:00","70","9","7,3","2","192,9","22,3","73,1","0","0"],
    [26180,"2017-01-25T06:00:00","70","11","7,7","0,6","213","22,3","72,7","0","0"],
    [26181,"2017-01-25T07:00:00","119","27","8,3","2,6","106,7","21,7","75,5","6,1","0"],
    [26182,"2017-01-25T08:00:00","129","41","9,3","2","102,8","22,7","71,5","77,7","0"],
    [26183,"2017-01-25T09:00:00","132","39","16,6","2,6","105,9","25,6","61,2","174,4","0"],
    [26184,"2017-01-25T10:00:00","86","21","41,6","2,7","133,6","27,3","53,3","263,2","0"],
    [26185,"2017-01-25T11:00:00","66","8","77","1,2","131,5","29,6","45,5","359,7","0"],
    [26186,"2017-01-25T12:00:00","74","12","97,6","2,3","112,9","31,8","39,4","410,2","0"],
    [26187,"2017-01-25T13:00:00","63","11","103,2","2,1","56,7","33,3","34,8","413,1","0"],
    [26188,"2017-01-25T14:00:00","65","21","120,7","3,1","86,5","33,7","33,8","396,1","0"],
    [26189,"2017-01-25T15:00:00","72","9","127","3","125,7","34,7","32,1","331","0"],
    [26190,"2017-01-25T16:00:00","83","8","121","3,6","76,4","34,1","34,4","164,1","0"],
    [26191,"2017-01-25T17:00:00","72","6","87,7","6,1","303,1","32,7","37,7","132,4","0"],
    [26192,"2017-01-25T18:00:00","50","4","51","7,1","289,5","30,7","42,1","33,9","0"],
    [26193,"2017-01-25T19:00:00","51","5","34,8","5,3","297,6","29,3","45,5","0","0"],
    [26194,"2017-01-25T20:00:00","106","29","15","2,4","63,5","28,1","51,3","0","0"],
    [26195,"2017-01-25T21:00:00","62","13","10,7","3,8","83,9","25,7","63,2","0","0"],
    [26196,"2017-01-25T22:00:00","45","10","11,3","1,7","84,3","25,3","64,6","0","0"],
    [26197,"2017-01-25T23:00:00","64","7","8,3","1,1","145,9","25,1","65,6","0","0"],
    [26198,"2017-01-26T00:00:00","56","10","11,1","0,6","173,1","24,8","66,4","0","0"],
    [26199,"2017-01-26T01:00:00","46","3","13,2","2,3","228,1","24,9","66,4","0","0"],
    [26200,"2017-01-26T02:00:00","54","10","9,2","2,5","89,4","24","70,1","0","0"],
    [26201,"2017-01-26T03:00:00","72","5","9,9","0,9","89,9","24,5","68,1","0","0"],
    [26202,"2017-01-26T04:00:00","66","11","11,3","1,7","194,2","24,7","67,3","0","0"],
    [26203,"2017-01-26T05:00:00","74","15","8,2","1,5","130,2","24,3","70,6","0","0"],
    [26204,"2017-01-26T06:00:00","86","24","8,4","1,2","155,7","24,3","70","0","0"],
    [26205,"2017-01-26T07:00:00","101","26","8","1,3","150,1","24,5","69,1","0","0"],
    [26206,"2017-01-26T08:00:00","90","21","9,3","2,4","175,2","24,8","68,9","29,8","0"],
    [26207,"2017-01-26T09:00:00","96","17","15,4","1,8","172,6","26,2","64,5","97,9","0"],
    [26208,"2017-01-26T10:00:00","82","12","25,7","2,3","125,2","27,7","57","121,6","0"],
    [26209,"2017-01-26T11:00:00","75","17","39,2","2","92","28,9","54,3","219,2","0"],
    [26210,"2017-01-26T12:00:00","99","25","84,2","1,9","29,3","30,5","48,7","288,9","0"],
    [26211,"2017-01-26T13:00:00","77","19","88,6","3,6","106,5","31,8","42,3","314,6","0"],
    [26212,"2017-01-26T14:00:00","65","16","104,9","2,6","119,9","32,9","40,2","275,6","0"],
    [26213,"2017-01-26T15:00:00","91","22","117,6","3,6","67,8","32,6","39,8","174,6","0"],
    [26214,"2017-01-26T16:00:00","87","17","72,3","5,1","63,4","32","43,1","120","0"],
    [26215,"2017-01-26T17:00:00","46","ND","54,1","2,3","355,1","31,6","43","73,4","0"],
    [26216,"2017-01-26T18:00:00","56","3","32,7","2,4","333,7","30,5","44,4","11,9","0"],
    [26217,"2017-01-26T19:00:00","84","24","17,1","1,4","52,3","29,6","48,7","0","0"],
    [26218,"2017-01-26T20:00:00","85","11","11,3","2,5","66,6","28,4","53,4","0","0"],
    [26219,"2017-01-26T21:00:00","59","7","9","1,8","69,8","26,8","59,9","0","0"],
    [26220,"2017-01-26T22:00:00","48","3","9,4","2,3","101,9","25,6","65,1","0","0"],
    [26221,"2017-01-26T23:00:00","52","6","8,2","0,5","191,6","25,8","64,2","0","0"],
    [26222,"2017-01-27T00:00:00","78","6","8","2,1","182,8","25,8","65,4","0","0"],
    [26223,"2017-01-27T01:00:00","65","10","8,9","2,3","209,4","25,7","65,6","0","0"],
    [26224,"2017-01-27T02:00:00","53","8","10,2","2,7","210,1","25,3","68","0","0"],
    [26225,"2017-01-27T03:00:00","53","6","11,8","2,1","163","25,2","69,4","0","0"],
    [26226,"2017-01-27T04:00:00","55","4","10,2","1","155","24,7","72,2","0","0"],
    [26227,"2017-01-27T05:00:00","66","6","8","1,5","138,1","24,2","75,1","0","0"],
    [26228,"2017-01-27T06:00:00","65","7","7,7","1,6","145,7","24,3","73,5","0","0"],
    [26229,"2017-01-27T07:00:00","99","17","7,7","1","130","24,1","74,8","0","0"],
    [26230,"2017-01-27T08:00:00","144","21","8,9","0,6","195","25","70,6","31,4","0"],
    [26231,"2017-01-27T09:00:00","107","18","15,8","1,9","76","27","62,9","149,1","0"],
    [26232,"2017-01-27T10:00:00","97","19","34,2","1,6","98,7","28,9","54,8","173,7","0"],
    [26233,"2017-01-27T11:00:00","68","11","57,7","3","121,1","30,7","46,6","268,9","0"],
    [26234,"2017-01-27T12:00:00","69","15","74,5","2,8","70,4","31,5","44,4","249,2","0"],
    [26235,"2017-01-27T13:00:00","70","12","116,9","3,1","56,6","33","40,1","353,4","0"],
    [26236,"2017-01-27T14:00:00","91","19","133,6","3,7","59,7","33,6","38,4","339","0"],
    [26237,"2017-01-27T15:00:00","54","3","78,6","4,6","46,7","33,6","38,2","233,1","0"],
    [26238,"2017-01-27T16:00:00","63","4","48","4,3","69,4","32,5","41,5","92,4","0"],
    [26239,"2017-01-27T17:00:00","69","3","33,5","3,1","90,9","32","43,4","38","0"],
    [26240,"2017-01-27T18:00:00","42","5","49,5","2,5","272,6","31,6","41,8","19,8","0"],
    [26241,"2017-01-27T19:00:00","53","5","26,2","5","274,5","30,1","45,5","0","0"],
    [26242,"2017-01-27T20:00:00","81","20","24,9","2,5","221","29,2","52,9","0","0"],
    [26243,"2017-01-27T21:00:00","75","11","15,7","1","181,2","28,6","54,6","0","0"],
    [26244,"2017-01-27T22:00:00","103","39","12,4","3,1","96,3","26,5","68","0","0"],
    [26245,"2017-01-27T23:00:00","92","22","11,3","2,4","83,1","26,1","68,5","0","0"],
    [26246,"2017-01-28T00:00:00","65","13","13,6","1,4","118,9","25,8","68,9","0","0"],
    [26247,"2017-01-28T01:00:00","42","4","11","2,2","130,3","25,3","71,3","0","0"],
    [26248,"2017-01-28T02:00:00","48","10","15,4","2,3","150,1","25,6","69","0","0"],
    [26249,"2017-01-28T03:00:00","52","7","14,6","1,7","149,9","25,5","70,2","0","0"],
    [26250,"2017-01-28T04:00:00","53","4","11,9","2","169,6","25","71,6","0","0"],
    [26251,"2017-01-28T05:00:00","32","4","10","0,9","167,7","24,9","70,9","0","0"],
    [26252,"2017-01-28T06:00:00","61","7","7,8","1,4","78,8","24,9","71,6","0","0"],
    [26253,"2017-01-28T07:00:00","48","7","8,9","1,5","159","25","70,3","0","0"],
    [26254,"2017-01-28T08:00:00","55","7","10,2","2,2","166,3","25,2","70,2","45,4","0"],
    [26255,"2017-01-28T09:00:00","60","2","19,3","1,8","198,7","26,9","63,1","115,8","0"],
    [26256,"2017-01-28T10:00:00","46","ND","48,1","0,8","184,2","29,5","50,1","244,9","0"],
    [26257,"2017-01-28T11:00:00","48","ND","60,1","1,6","181,6","32,2","40,6","346,9","0"],
    [26258,"2017-01-28T12:00:00","55","6","65","2","101","32,7","39,3","317,4","0"],
    [26259,"2017-01-28T13:00:00","60","6","63,5","3,4","101,6","32,8","39,3","243,1","0"],
    [26260,"2017-01-28T14:00:00","56","7","83,7","3,5","80,6","33,5","38,2","251","0"],
    [26261,"2017-01-28T15:00:00","58","15","93,7","5","25,4","32,9","41,3","197,4","0"],
    [26262,"2017-01-28T16:00:00","58","1","55,7","5,3","46,2","32,3","43,7","126,3","0"],
    [26263,"2017-01-28T17:00:00","48","2","42,3","5,1","49,4","32,7","41,3","131,6","0"],
    [26264,"2017-01-28T18:00:00","39","1","41,1","2,6","26,1","32,4","41,7","57,4","0"],
    [26265,"2017-01-28T19:00:00","44","3","20,6","3,5","288,5","30,5","44,9","0","0"],
    [26266,"2017-01-28T20:00:00","51","5","13,1","1,7","333,4","29,5","50,4","0","0"],
    [26267,"2017-01-28T21:00:00","54","1","11,5","1,3","17,4","28,8","55,1","0","0"],
    [26268,"2017-01-28T22:00:00","50","13","8,9","3,6","86,9","27,6","62,1","0","0"],
    [26269,"2017-01-28T23:00:00","37","3","8,9","2,7","69","26,9","64","0","0"],
    [26270,"2017-01-29T00:00:00","58","5","9,1","2,5","65,2","26,7","63,4","0","0"],
    [26271,"2017-01-29T01:00:00","41","6","8,7","1","269","27","63,2","0","0"],
    [26272,"2017-01-29T02:00:00","44","ND","8,1","2,2","126,2","26,4","66,1","0","0"],
    [26273,"2017-01-29T03:00:00","46","ND","7,6","0,5","163,8","24,8","75,3","0","1,78"],
    [26274,"2017-01-29T04:00:00","44","ND","7,9","0,9","145,9","25","76,2","0","0"],
    [26275,"2017-01-29T05:00:00","37","ND","6,9","0,8","82,6","24,8","75,7","0","0"],
    [26276,"2017-01-29T06:00:00","42","3","7,9","1","155,3","25","74,7","0","0"],
    [26277,"2017-01-29T07:00:00","57","10","7,8","0,9","77,5","25,1","74,3","0","0"],
    [26278,"2017-01-29T08:00:00","70","11","8,5","1,8","137,8","25,8","71,1","26,5","0"],
    [26279,"2017-01-29T09:00:00","61","15","14,9","1,6","137,3","26,9","66,5","100,2","0"],
    [26280,"2017-01-29T10:00:00","55","8","32,6","1,8","141,6","28,9","58,4","227,6","0"],
    [26281,"2017-01-29T11:00:00","50","13","59,6","1,6","139,6","30,6","51,7","303,1","0"],
    [26282,"2017-01-29T12:00:00","71","10","77,9","2,4","111,2","32,3","45,7","349,9","0"],
    [26283,"2017-01-29T13:00:00","72","17","81,3","3,2","100,3","32,9","42,7","291,8","0"],
    [26284,"2017-01-29T14:00:00","66","3","78,8","2,9","97,9","33,3","41,7","233,7","0"],
    [26285,"2017-01-29T15:00:00","57","5","82","4,1","104,5","33,1","43","166,7","0"],
    [26286,"2017-01-29T16:00:00","52","5","84","2,5","118,7","33,3","42,3","98,8","0"],
    [26287,"2017-01-29T17:00:00","46","4","61,8","1","228,2","32,2","43,5","40,7","0"],
    [26288,"2017-01-29T18:00:00","39","2","47,9","3,3","278,5","32","42,3","26,1","0"],
    [26289,"2017-01-29T19:00:00","37","ND","28,1","4,9","293,2","30,3","46,8","0","0"],
    [26290,"2017-01-29T20:00:00","41","2","16,2","1,8","308,8","29,4","50,1","0","0"],
    [26291,"2017-01-29T21:00:00","60","1","10,1","3,6","70,9","27","63,8","0","0"],
    [26292,"2017-01-29T22:00:00","25","ND","11,6","1,7","38,2","26,6","63,9","0","0"],
    [26293,"2017-01-29T23:00:00","39","ND","10,5","2,3","84,2","26,5","63,7","0","0"],
    [26294,"2017-01-30T00:00:00","38","ND","8,9","1,7","106,9","25,8","66,6","0","0"],
    [26295,"2017-01-30T01:00:00","25","ND","9,9","1,1","181,8","25,5","68,2","0","0"],
    [26296,"2017-01-30T02:00:00","52","ND","10,4","0,6","212,9","25,6","67,8","0","0"],
    [26297,"2017-01-30T03:00:00","64","7","8,4","2,8","113,5","25,1","71,2","0","0"],
    [26298,"2017-01-30T04:00:00","56","11","9,5","1,3","173,4","25,2","70,9","0","0"],
    [26299,"2017-01-30T05:00:00","60","19","10,4","1,5","174,7","25,3","71,2","0","0"],
    [26300,"2017-01-30T06:00:00","76","15","8,7","0,9","356,1","25,7","69,2","0","0"],
    [26301,"2017-01-30T07:00:00","91","16","8,4","3","86,7","25","73","7","0"],
    [26302,"2017-01-30T08:00:00","84","8","8,6","1,1","104,9","25,5","70,8","43,5","0"],
    [26303,"2017-01-30T09:00:00","80","8","17","2","187,8","27,2","64,1","123,3","0"],
    [26304,"2017-01-30T10:00:00","74","14","27,6","3,1","135,8","28,9","58,1","219,7","0"],
    [26305,"2017-01-30T11:00:00","74","11","39,5","3,5","110,6","29,8","53,4","208,8","0"],
    [26306,"2017-01-30T12:00:00","71","7","48,8","3,1","95,9","30,8","49,6","208,5","0"],
    [26307,"2017-01-30T13:00:00","44","6","64,3","3,7","84,8","31,6","46,3","241,7","0"],
    [26308,"2017-01-30T14:00:00","49","3","75,7","3,6","73,8","32,9","41,4","290,1","0"],
    [26309,"2017-01-30T15:00:00","42","1","86,4","2,9","62,4","34","37,8","262,5","0"],
    [26310,"2017-01-30T16:00:00","46","ND","69,7","3,2","114,2","34","37,6","183,6","0"],
    [26311,"2017-01-30T17:00:00","48","1","67","2,7","248,2","32,3","40,7","37,8","0"],
    [26312,"2017-01-30T18:00:00","53","ND","41,1","4,9","280,6","30,6","46,1","12,6","0"],
    [26313,"2017-01-30T19:00:00","45","10","41,7","3,8","332,2","26,2","66,6","0","0,25"],
    [26314,"2017-01-30T20:00:00","55","8","13,4","4,2","351,1","25,8","70,2","0","0"],
    [26315,"2017-01-30T21:00:00","51","2","12","2,9","70,2","25,5","71,4","0","0"],
    [26316,"2017-01-30T22:00:00","48","ND","11,6","2,4","83,4","25,7","70,5","0","0"],
    [26317,"2017-01-30T23:00:00","48","ND","10,2","1,9","72,3","25,4","71,5","0","0"],
    [26318,"2017-01-31T00:00:00","48","ND","9,5","2,3","204,3","25,1","72,7","0","0"],
    [26319,"2017-01-31T01:00:00","36","ND","10,8","2","204,8","24,8","72,6","0","0"],
    [26320,"2017-01-31T02:00:00","52","4","16,8","1,6","227,7","25,2","70,2","0","0"],
    [26321,"2017-01-31T03:00:00","67","12","13","1","103,2","25,1","71,4","0","0"],
    [26322,"2017-01-31T04:00:00","53","13","7,8","1,9","97,4","24,3","75,6","0","0"],
    [26323,"2017-01-31T05:00:00","56","8","8","1,8","16,8","24,5","74,8","0","0"],
    [26324,"2017-01-31T06:00:00","69","8","8","2,7","100,9","24,3","75,5","0","0"],
    [26325,"2017-01-31T07:00:00","58","5","6,8","0,8","336,5","24,3","75,1","0","0"],
    [26326,"2017-01-31T08:00:00","69","6","8,4","2","346,5","25,3","71,9","44,7","0"],
    [26327,"2017-01-31T09:00:00","81","23","13,1","0,5","81","26,8","65,5","77,9","0"],
    [26328,"2017-01-31T10:00:00","71","6","26,7","3,1","96,6","28","62,2","249","0"],
    [26329,"2017-01-31T11:00:00","57","9","61,5","2,4","136,9","30,5","50,7","298,7","0"],
    [26330,"2017-01-31T12:00:00","59","12","77,5","2,1","130,9","32,2","45,3","373,7","0"],
    [26331,"2017-01-31T13:00:00","73","21","90,2","2,6","99,7","32,9","42,2","297,9","0"],
    [26332,"2017-01-31T14:00:00","75","11","124,6","2,2","13,1","34,1","38,9","386,4","0"],
    [26333,"2017-01-31T15:00:00","74","16","141,2","2,9","49,6","34,2","38,7","273,6","0"],
    [26334,"2017-01-31T16:00:00","78","25","127,6","3,9","34,7","33,6","39,5","96,4","0"],
    [26335,"2017-01-31T17:00:00","65","5","41,3","3,8","39,2","30,9","49,7","11,4","1,52"],
    [26336,"2017-01-31T18:00:00","29","2","37,7","6,4","207,9","25,4","69,4","0","0,76"],
    [26337,"2017-01-31T19:00:00","67","11","23,2","3,6","172,6","24,6","65,4","0","0"],
    [26338,"2017-01-31T20:00:00","60","8","17,8","4,2","161,2","24,1","68,9","0","0"],
    [26339,"2017-01-31T21:00:00","40","3","22,3","3,1","250,8","23,8","67,9","0","0"],
    [26340,"2017-01-31T22:00:00","46","1","12,7","0,2","330,6","24,7","63,3","0","0"],
    [26341,"2017-01-31T23:00:00","65","8","8,4","3,1","69,1","23,9","68,8","0","0"],
    [26342,"2017-02-01T00:00:00","55","13","8,2","2,4","133,3","23","72,9","0","0"],
    [26343,"2017-02-01T01:00:00","56","9","10,8","2,5","249,1","23","72,7","0","0"],
    [26344,"2017-02-01T02:00:00","47","2","9,5","0,9","277,2","23,5","70,3","0","0"],
    [26345,"2017-02-01T03:00:00","39","5","8","1,7","123,7","23,1","72,7","0","0"],
    [26346,"2017-02-01T04:00:00","36","2","7,4","2,1","186,4","22,4","76,7","0","0"],
    [26347,"2017-02-01T05:00:00","43","ND","7,7","1,5","155,7","22,2","78","0","0"],
    [26348,"2017-02-01T06:00:00","62","18","7,7","2,5","101,2","21,8","78,5","0","0"],
    [26349,"2017-02-01T07:00:00","73","20","7,6","0,9","37,8","22,4","77,2","0","0"],
    [26350,"2017-02-01T08:00:00","77","13","8","0,5","198,1","23,4","73,6","33","0"],
    [26351,"2017-02-01T09:00:00","70","9","17,2","1,2","185,9","26,5","60,8","177,1","0"],
    [26352,"2017-02-01T10:00:00","49","1","34,2","2,1","161,4","28,8","50,9","285,7","0"],
    [26353,"2017-02-01T11:00:00","43","9","43,3","3,2","113,6","29,5","50,7","300,6","0"],
    [26354,"2017-02-01T12:00:00","58","5","59,5","3","105,8","31,8","44,1","440,5","0"],
    [26355,"2017-02-01T13:00:00","57","5","69,5","3,5","110,2","32,3","41,5","329,9","0"],
    [26356,"2017-02-01T14:00:00","63","3","84,6","4,9","85,6","32,7","41,1","337,1","0"],
    [26357,"2017-02-01T15:00:00","62","5","88","3,9","93,6","33,3","38,9","290,1","0"],
    [26358,"2017-02-01T16:00:00","62","4","98,1","3,1","93,5","33,3","38,5","174,5","0"],
    [26359,"2017-02-01T17:00:00","78","18","77,6","3,4","70,9","32,5","41,6","58,2","0"],
    [26360,"2017-02-01T18:00:00","61","6","44,8","1,5","265,8","31,8","42,5","13,1","0"],
    [26361,"2017-02-01T19:00:00","43","ND","22,1","3,4","295,8","30,3","45,4","0","0"],
    [26362,"2017-02-01T20:00:00","117","27","10,8","0,6","81,4","29","51,8","0","0"],
    [26363,"2017-02-01T21:00:00","53","ND","9,7","3","96,4","27","61","0","0"],
    [26364,"2017-02-01T22:00:00","60","3","10,8","2,6","31","26,2","64,1","0","0"],
    [26365,"2017-02-01T23:00:00","38","1","11,3","1,6","16,7","26,4","61,9","0","0"],
    [26366,"2017-02-02T00:00:00","59","ND","9,7","1,9","109,4","25,8","63,9","0","0"],
    [26367,"2017-02-02T01:00:00","42","1","9,1","2,3","126,2","25,2","66,6","0","0"],
    [26368,"2017-02-02T02:00:00","62","8","8,3","1,7","180,5","25,2","67","0","0"],
    [26369,"2017-02-02T03:00:00","60","9","6,8","1","173,8","24,7","71,2","0","0"],
    [26370,"2017-02-02T04:00:00","54","6","7,5","2,8","171,2","24,9","70","0","0"],
    [26371,"2017-02-02T05:00:00","58","5","8,6","2,2","159,8","25","69,2","0","0"],
    [26372,"2017-02-02T06:00:00","78","20","6,6","1,4","156,6","23,8","74,3","0","0"],
    [26373,"2017-02-02T07:00:00","90","25","7,4","1,6","162,2","23,5","74,4","0","0"],
    [26374,"2017-02-02T08:00:00","91","13","9,8","0,4","255","25,3","68,5","80,5","0"],
    [26375,"2017-02-02T09:00:00","68","13","20,7","2,8","96,1","27,8","56,9","183,6","0"],
    [26376,"2017-02-02T10:00:00","64","8","39,7","1,1","39,6","29,5","51,1","256,5","0"],
    [26377,"2017-02-02T11:00:00","63","3","68,4","2,2","148","31,7","44,1","349,6","0"],
    [26378,"2017-02-02T12:00:00","54","8","84","2,2","117,9","33","39,5","421,5","0"],
    [26379,"2017-02-02T13:00:00","57","6","92,8","2,7","84,2","34,2","36,6","398,1","0"],
    [26380,"2017-02-02T14:00:00","75","15","111,1","2,7","88,8","34,4","35,6","246,2","0"],
    [26381,"2017-02-02T15:00:00","62","11","93,1","4,2","5,5","33,4","37,2","109","0"],
    [26382,"2017-02-02T16:00:00","55","9","81,8","2,2","18,6","34,6","33,7","233,5","0"],
    [26383,"2017-02-02T17:00:00","42","5","55,6","3,8","339,2","34,4","33,1","157,7","0"],
    [26384,"2017-02-02T18:00:00","48","ND","36,6","5,5","304,3","32,1","38,2","30,9","0"],
    [26385,"2017-02-02T19:00:00","80","6","13,4","2,4","337","30,8","42,1","0","0"],
    [26386,"2017-02-02T20:00:00","68","11","10,5","3,1","104,9","28,8","51,4","0","0"],
    [26387,"2017-02-02T21:00:00","54","6","20","2","230,6","28,5","53,3","0","0"],
    [26388,"2017-02-02T22:00:00","47","ND","27,7","2,9","190","28,1","56,2","0","0"],
    [26389,"2017-02-02T23:00:00","61","1","11,5","2,2","103,6","26,9","62,1","0","0"],
    [26390,"2017-02-03T00:00:00","38","2","12,5","2,7","83,8","26,3","62,8","0","0"],
    [26391,"2017-02-03T01:00:00","32","ND","10,3","3,2","102,9","25,2","67,3","0","0"],
    [26392,"2017-02-03T02:00:00","38","ND","10","2,5","91,7","25,2","66,7","0","0"],
    [26393,"2017-02-03T03:00:00","27","ND","13,1","0,5","107,4","25,1","66,7","0","0"],
    [26394,"2017-02-03T04:00:00","40","1","8,2","1,3","91,4","24,7","69,4","0","0"],
    [26395,"2017-02-03T05:00:00","56","3","6,4","1,5","170,6","24,7","71,3","0","0"],
    [26396,"2017-02-03T06:00:00","79","11","7,1","1,5","138,3","24,6","70,8","0","0"],
    [26397,"2017-02-03T07:00:00","94","24","7,8","2,9","130","24,6","70,2","4","0"],
    [26398,"2017-02-03T08:00:00","116","32","10,8","1,1","84,5","25,6","66,7","60,4","0"],
    [26399,"2017-02-03T09:00:00","121","26","20,6","2,9","110,1","27,3","61,5","167,3","0"],
    [26400,"2017-02-03T10:00:00","76","18","35,3","2,5","117","29,3","53,1","247","0"],
    [26401,"2017-02-03T11:00:00","51","7","59,2","2,1","176,6","31,9","44,3","374,6","0"],
    [26402,"2017-02-03T12:00:00","63","8","78,3","1,9","115,8","33,2","39,8","383,9","0"],
    [26403,"2017-02-03T13:00:00","62","11","99,7","1,2","354,2","33,1","38,6","267,7","0"],
    [26404,"2017-02-03T14:00:00","67","21","141,1","1,8","354,8","34,7","34,9","325,1","0"],
    [26405,"2017-02-03T15:00:00","79","16","151","2,5","23,4","34,2","35,2","159,4","0"],
    [26406,"2017-02-03T16:00:00","60","6","77,4","4,2","327,6","33,6","36","121,9","0"],
    [26407,"2017-02-03T17:00:00","54","1","52","7,8","283,6","33,4","35,9","136,5","0"],
    [26408,"2017-02-03T18:00:00","51","1","39,2","6,3","293,1","32","38,5","33,8","0"],
    [26409,"2017-02-03T19:00:00","48","2","24,4","5,4","296,9","30,1","44,5","0","0"],
    [26410,"2017-02-03T20:00:00","55","4","16,8","2,5","331,1","29,4","47,4","0","0"],
    [26411,"2017-02-03T21:00:00","54","4","12","4","110,6","27,1","58,8","0","0"],
    [26412,"2017-02-03T22:00:00","50","4","11,3","0,7","120,3","26,8","60,3","0","0"],
    [26413,"2017-02-03T23:00:00","62","4","13,2","3,1","183","26,8","61,6","0","0"],
    [26414,"2017-02-04T00:00:00","58","14","13,3","2,5","168,8","26,8","63,4","0","0"],
    [26415,"2017-02-04T01:00:00","36","7","16,7","2,5","149","26,4","65,7","0","0"],
    [26416,"2017-02-04T02:00:00","41","1","20,4","1,9","177,2","26,3","65,7","0","0"],
    [26417,"2017-02-04T03:00:00","36","2","15,8","1,9","200,6","26","66","0","0"],
    [26418,"2017-02-04T04:00:00","43","ND","11,7","2,6","117,6","25,2","71","0","0"],
    [26419,"2017-02-04T05:00:00","63","2","6,3","1,2","108,3","24,8","72,1","0","0"],
    [26420,"2017-02-04T06:00:00","67","6","6,6","1,6","88,9","25","71,6","0","0"],
    [26421,"2017-02-04T07:00:00","84","8","7,3","0,6","55,1","25","71,1","0","0"],
    [26422,"2017-02-04T08:00:00","98","20","8,6","2,9","77,9","25,5","70,5","20,1","0"],
    [26423,"2017-02-04T09:00:00","85","16","12,1","1,5","203,3","26,9","65,6","98,4","0"],
    [26424,"2017-02-04T10:00:00","84","ND","26,4","2,2","82,9","29,5","55,2","281,4","0"],
    [26425,"2017-02-04T11:00:00","80","13","42,2","3,1","75,1","31,1","47,5","332,8","0"],
    [26426,"2017-02-04T12:00:00","67","10","57,8","3,3","68,4","31,6","45,7","266,3","0"],
    [26427,"2017-02-04T13:00:00","52","8","62,3","3,9","71","32,4","42,2","333,8","0"],
    [26428,"2017-02-04T14:00:00","47","3","78,5","4,1","76,8","34,1","36,9","430,9","0"],
    [26429,"2017-02-04T15:00:00","40","ND","78,8","3,2","79,8","34,7","35,6","357,6","0"],
    [26430,"2017-02-04T16:00:00","48","ND","84,9","2,5","74,1","35,4","33,9","253,8","0"],
    [26431,"2017-02-04T17:00:00","57","1","77,4","3,7","71","35","33,5","117,9","0"],
    [26432,"2017-02-04T18:00:00","54","2","55,6","0,7","305,4","34,1","36,6","41,3","0"],
    [26433,"2017-02-04T19:00:00","52","3","40,7","5,4","296,8","31,2","45,1","0","0"],
    [26434,"2017-02-04T20:00:00","61","6","35,9","4,8","293","30,5","47","0","0"],
    [26435,"2017-02-04T21:00:00","59","10","15","3,7","80,4","28","58,5","0","0"],
    [26436,"2017-02-04T22:00:00","67","20","12,8","2,7","85,1","27,1","61,4","0","0"],
    [26437,"2017-02-04T23:00:00","71","11","11,8","1,5","64,9","27,7","58,1","0","0"],
    [26438,"2017-02-05T00:00:00","59","9","11,2","2,3","352,3","26,9","60,5","0","0"],
    [26439,"2017-02-05T01:00:00","49","4","14,6","1,4","43,7","26,8","60,3","0","0"],
    [26440,"2017-02-05T02:00:00","43","ND","13,4","1,5","120","25,9","64,3","0","0"],
    [26441,"2017-02-05T03:00:00","42","ND","11,8","1,9","148,5","25,7","65,5","0","0"],
    [26442,"2017-02-05T04:00:00","50","13","8,9","1,9","157,2","25,4","68,6","0","0"],
    [26443,"2017-02-05T05:00:00","58","14","6,8","1,4","180,5","24,8","72,1","0","0"],
    [26444,"2017-02-05T06:00:00","56","7","6,6","1,4","164,8","24,9","72,7","0","0"],
    [26445,"2017-02-05T07:00:00","84","20","6,1","2,3","101,4","25,1","72","8,5","0"],
    [26446,"2017-02-05T08:00:00","68","17","8","1,5","121","25,9","69,3","75,2","0"],
    [26447,"2017-02-05T09:00:00","76","12","18,9","3,1","171,7","28,2","58,3","178,4","0"],
    [26448,"2017-02-05T10:00:00","46","7","35,2","3,3","175,6","30,2","49,3","282,4","0"],
    [26449,"2017-02-05T11:00:00","51","4","61,3","1,5","92,3","32,2","43,1","351,3","0"],
    [26450,"2017-02-05T12:00:00","56","5","80,8","2,7","80,5","33,1","40,9","388,7","0"],
    [26451,"2017-02-05T13:00:00","54","15","85,3","2,8","117,7","34,4","37,6","438,5","0"],
    [26452,"2017-02-05T14:00:00","44","6","94,9","2,3","81,5","35,7","33,7","415,6","0"],
    [26453,"2017-02-05T15:00:00","56","8","112,1","3,5","112,5","36,5","31,3","354,3","0"],
    [26454,"2017-02-05T16:00:00","68","17","141,9","2,8","72,5","36,8","31,8","240,5","0"],
    [26455,"2017-02-05T17:00:00","57","13","82,2","3,9","19,8","35,1","35,8","68,9","0"],
    [26456,"2017-02-05T18:00:00","53","8","69,3","5,2","307,7","33,6","38,9","53,4","0"],
    [26457,"2017-02-05T19:00:00","48","1","52","4,8","294,5","32","42,5","0","0"],
    [26458,"2017-02-05T20:00:00","62","17","25,1","1,3","71","30,2","49,6","0","0"],
    [26459,"2017-02-05T21:00:00","64","1","12","3","106,8","28,2","58,3","0","0"],
    [26460,"2017-02-05T22:00:00","52","6","12,9","2,5","146,3","28","58,6","0","0"],
    [26461,"2017-02-05T23:00:00","48","3","9,7","2,5","115,1","27,2","61,5","0","0"],
    [26462,"2017-02-06T00:00:00","42","ND","10,6","2,8","118","26,3","65,2","0","0"],
    [26463,"2017-02-06T01:00:00","34","ND","9,4","2","136,4","26,2","66,7","0","0"],
    [26464,"2017-02-06T02:00:00","38","ND","11,2","1,2","109,6","26","67,5","0","0"],
    [26465,"2017-02-06T03:00:00","47","ND","11,7","2","167,4","25,9","67,7","0","0"],
    [26466,"2017-02-06T04:00:00","62","5","9,4","2,2","208,1","24,8","71,6","0","0"],
    [26467,"2017-02-06T05:00:00","80","5","7,7","1,8","155","24,5","71,2","0","0"],
    [26468,"2017-02-06T06:00:00","73","21","6,8","2,3","195,6","24,2","71,8","0","0"],
    [26469,"2017-02-06T07:00:00","78","14","6,9","1,8","175,6","24,3","71,6","5,9","0"],
    [26470,"2017-02-06T08:00:00","127","16","9","3,4","149,5","24,9","68,5","72,2","0"],
    [26471,"2017-02-06T09:00:00","66","17","15,9","2,6","175,1","26,9","59,9","148,9","0"],
    [26472,"2017-02-06T10:00:00","54","10","36,3","2,2","162","29,7","50,3","287,4","0"],
    [26473,"2017-02-06T11:00:00","41","4","60,6","1,9","136,3","31,7","45,2","363,9","0"],
    [26474,"2017-02-06T12:00:00","61","ND","84","0,8","123,7","33,4","40,2","417,6","0"],
    [26475,"2017-02-06T13:00:00","66","7","101,1","2,2","69,9","34,7","36,2","401,2","0"],
    [26476,"2017-02-06T14:00:00","59","18","111","3,8","109,9","35,7","32,5","409,7","0"],
    [26477,"2017-02-06T15:00:00","67","11","140,7","3,1","100,9","36,5","31,4","308,3","0"],
    [26478,"2017-02-06T16:00:00","70","9","114,1","2,8","339,4","35,3","34","127,7","0"],
    [26479,"2017-02-06T17:00:00","71","2","57,3","7,5","287,1","34,8","34,5","161,8","0"],
    [26480,"2017-02-06T18:00:00","62","ND","45,6","6,9","287","33","38,3","47,7","0"],
    [26481,"2017-02-06T19:00:00","59","1","32","5,3","292,3","31,3","42,7","0","0"],
    [26482,"2017-02-06T20:00:00","64","9","23,8","1,7","311,1","30,1","47,7","0","0"],
    [26483,"2017-02-06T21:00:00","53","6","9,3","3,4","89,9","27,7","58,1","0","0"],
    [26484,"2017-02-06T22:00:00","45","ND","8,7","1,9","91,7","27,3","59,9","0","0"],
    [26485,"2017-02-06T23:00:00","48","ND","7,6","1,9","114,2","27","61,4","0","0"],
    [26486,"2017-02-07T00:00:00","28","ND","9,3","1,9","103,4","26,1","65,1","0","0"],
    [26487,"2017-02-07T01:00:00","47","ND","11,6","2,2","263,1","26,1","64,6","0","0"],
    [26488,"2017-02-07T02:00:00","40","ND","20,4","1,6","195,1","26,4","60,8","0","0"],
    [26489,"2017-02-07T03:00:00","46","ND","7,2","0,7","117","24,8","69,9","0","0"],
    [26490,"2017-02-07T04:00:00","61","1","8,9","1,2","185,9","25,2","69,2","0","0"],
    [26491,"2017-02-07T05:00:00","58","2","9,5","1,6","225,5","25,1","68,9","0","0"],
    [26492,"2017-02-07T06:00:00","80","7","7,4","2,4","199,8","25,1","68,4","0","0"],
    [26493,"2017-02-07T07:00:00","87","12","7,4","2,4","159,3","25,1","68,8","0","0"],
    [26494,"2017-02-07T08:00:00","122","25","7,8","2,2","150,6","24,9","70,4","45,8","0"],
    [26495,"2017-02-07T09:00:00","89","11","16,6","1,4","195,7","27","61,4","117","0"],
    [26496,"2017-02-07T10:00:00","90","14","33,7","2,4","159,7","29,6","52,2","259","0"],
    [26497,"2017-02-07T11:00:00","61","9","62,4","2,2","125,9","31,9","44,3","361,6","0"],
    [26498,"2017-02-07T12:00:00","57","11","81,5","1,9","112,1","33,6","38,8","413,1","0"],
    [26499,"2017-02-07T13:00:00","73","11","100,6","2,5","95,2","34,6","37","397,9","0"],
    [26500,"2017-02-07T14:00:00","74","11","122,3","2,3","83,5","35,5","35,1","352,7","0"],
    [26501,"2017-02-07T15:00:00","73","17","138,7","2,4","48,1","35,6","34,2","203,7","0"],
    [26502,"2017-02-07T16:00:00","62","16","89,8","2,4","31,4","34,8","34,8","85,1","0"],
    [26503,"2017-02-07T17:00:00","53","ND","60","5,8","293,3","35","34,4","151,2","0"],
    [26504,"2017-02-07T18:00:00","55","ND","47,2","6,4","290,4","33,4","37,5","44,8","0"],
    [26505,"2017-02-07T19:00:00","58","4","29,2","4,6","295,1","31,5","42,2","0","0"],
    [26506,"2017-02-07T20:00:00","70","8","16,7","1,6","312,2","30,6","46","0","0"],
    [26507,"2017-02-07T21:00:00","56","9","9,6","3,7","95,2","28","57,1","0","0"],
    [26508,"2017-02-07T22:00:00","63","20","8,8","2,3","78,4","27,3","61,2","0","0"],
    [26509,"2017-02-07T23:00:00","45","ND","11,1","2,9","89,9","27,3","60,9","0","0"],
    [26510,"2017-02-08T00:00:00","39","ND","12","2,5","110,4","26,8","63,5","0","0"],
    [26511,"2017-02-08T01:00:00","37","ND","12,3","2,3","108,6","26,5","65","0","0"],
    [26512,"2017-02-08T02:00:00","39","ND","11,3","1,9","129,7","26,1","66,5","0","0"],
    [26513,"2017-02-08T03:00:00","67","1","8,4","0,9","301,4","25,8","68,7","0","0"],
    [26514,"2017-02-08T04:00:00","65","5","8,7","0,1","321,1","26,2","66,6","0","0"],
    [26515,"2017-02-08T05:00:00","53","ND","8,1","1,9","174,5","25,7","68,8","0","0"],
    [26516,"2017-02-08T06:00:00","ND","9","7,2","1,2","172,2","25,8","68,3","0","0"],
    [26517,"2017-02-08T07:00:00","102","12","7,6","2,2","150,7","25,4","70,5","0","0"],
    [26518,"2017-02-08T08:00:00","123","17","8,8","1,2","148,8","26,4","67,6","54,6","0"],
    [26519,"2017-02-08T09:00:00","92","12","17,2","2,4","135,9","28,8","58","177,3","0"],
    [26520,"2017-02-08T10:00:00","88","15","37,8","3,7","162,4","30,8","49,7","283,3","0"],
    [26521,"2017-02-08T11:00:00","92","10","68,8","3,1","166,8","32,5","45,6","361,9","0"],
    [26522,"2017-02-08T12:00:00","76","8","86,1","2,5","149,8","34","39,9","350,8","0"],
    [26523,"2017-02-08T13:00:00","86","6","107,6","2","105,6","35,3","36","399,4","0"],
    [26524,"2017-02-08T14:00:00","76","18","147,8","3","58,1","36","34,5","365,1","0"],
    [26525,"2017-02-08T15:00:00","82","12","117,8","3","343,5","35,8","33,5","220,6","0"],
    [26526,"2017-02-08T16:00:00","94","5","59,8","9,1","288,5","35,3","32,8","251,6","0"],
    [26527,"2017-02-08T17:00:00","ND","ND","52,8","8,1","285,9","34,5","34,8","145,2","0"],
    [26528,"2017-02-08T18:00:00","17","ND","43,9","6,7","294,9","33,1","38,6","37,5","0"],
    [26529,"2017-02-08T19:00:00","61","3","23,9","5,2","307,8","31,2","43,2","0","0"],
    [26530,"2017-02-08T20:00:00","50","3","15,8","3,2","313,6","30,7","44,7","0","0"],
    [26531,"2017-02-08T21:00:00","61","5","11,3","3","105,7","28,5","55,3","0","0"],
    [26532,"2017-02-08T22:00:00","66","8","9,3","1,5","130,4","28,1","57,9","0","0"],
    [26533,"2017-02-08T23:00:00","56","7","8,4","2,1","124,9","27,6","60,4","0","0"],
    [26534,"2017-02-09T00:00:00","38","2","8,8","1,1","99","27,1","62,6","0","0"],
    [26535,"2017-02-09T01:00:00","28","ND","9,4","2,2","85","26,8","63,3","0","0"],
    [26536,"2017-02-09T02:00:00","26","ND","14","1,8","107,6","26,6","63","0","0"],
    [26537,"2017-02-09T03:00:00","32","ND","14,4","2,5","142,8","26,4","64,5","0","0"],
    [26538,"2017-02-09T04:00:00","67","6","8,4","1,2","187,3","26,2","68","0","0"],
    [26539,"2017-02-09T05:00:00","65","9","8,4","0,5","176,3","26,4","66,6","0","0"],
    [26540,"2017-02-09T06:00:00","99","27","8,4","2,6","137,6","26,3","67,6","0","0,51"],
    [26541,"2017-02-09T07:00:00","82","23","7,3","0,6","79,2","25,6","74,1","0","3,81"],
    [26542,"2017-02-09T08:00:00","53","12","8,6","1,7","239,1","25,9","71,2","20,2","0"],
    [26543,"2017-02-09T09:00:00","69","11","12","2,1","126,5","27,1","65","74,5","0"],
    [26544,"2017-02-09T10:00:00","73","12","21,2","2,3","123","28,9","58,5","176,8","0"],
    [26545,"2017-02-09T11:00:00","73","9","49,6","2,4","140,8","31,2","49,2","340,9","0"],
    [26546,"2017-02-09T12:00:00","ND","ND","ND","2,1","228,4","33,2","42,1","400,8","0"],
    [26547,"2017-02-09T13:00:00","66","15","75,3","2,3","93,3","34","38","321,1","0"],
    [26548,"2017-02-09T14:00:00","61","10","89,9","2,3","50,7","34,7","36,2","319,2","0"],
    [26549,"2017-02-09T15:00:00","54","7","103,2","3,4","15,4","34,9","35,3","268,1","0"],
    [26550,"2017-02-09T16:00:00","52","9","69,6","4,2","25,9","34,5","35,4","157,1","0"],
    [26551,"2017-02-09T17:00:00","51","10","58,4","4,5","357,6","33,9","35,5","101,5","0"],
    [26552,"2017-02-09T18:00:00","56","5","30,4","4,3","338,6","32,7","37","33","0"],
    [26553,"2017-02-09T19:00:00","42","ND","21","5,8","311,4","30,7","42,1","0","0"],
    [26554,"2017-02-09T20:00:00","44","ND","17,3","3,9","319,3","30,2","43,9","0","0"],
    [26555,"2017-02-09T21:00:00","51","3","13,8","4,8","78,5","28,2","53,5","0","0"],
    [26556,"2017-02-09T22:00:00","39","1","19,7","4,1","56,8","28,1","54,2","0","0"],
    [26557,"2017-02-09T23:00:00","46","ND","19,4","2,9","72,3","28,2","53,5","0","0"],
    [26558,"2017-02-10T00:00:00","36","3","19,4","1,7","186,5","27,7","55,7","0","0"],
    [26559,"2017-02-10T01:00:00","39","ND","12,6","3,2","196,6","27,3","59,7","0","0"],
    [26560,"2017-02-10T02:00:00","25","ND","18,1","2,8","158,9","26,4","63,9","0","0"],
    [26561,"2017-02-10T03:00:00","33","ND","22","2,1","105,7","25,9","65,5","0","0"],
    [26562,"2017-02-10T04:00:00","32","ND","27,2","4","51,9","25","68,9","0","0"],
    [26563,"2017-02-10T05:00:00","24","ND","22,4","3,6","16,4","24,4","72","0","0"],
    [26564,"2017-02-10T06:00:00","29","ND","14","1,7","52,5","24,2","74,1","0","0"],
    [26565,"2017-02-10T07:00:00","64","8","10,7","1,7","141","24,2","73,7","5","0"],
    [26566,"2017-02-10T08:00:00","48","7","17,5","2,3","192,6","25,2","69","53,9","0"],
    [26567,"2017-02-10T09:00:00","43","5","30,3","3,4","215,4","26,1","64,7","84,4","0"],
    [26568,"2017-02-10T10:00:00","37","1","34","3","198,1","27,3","59,7","129,1","0"],
    [26569,"2017-02-10T11:00:00","43","3","41,2","2,4","171,3","27,9","55,7","76,4","0"],
    [26570,"2017-02-10T12:00:00","49","6","50,6","1,9","190,2","29,3","52,2","176,9","0"],
    [26571,"2017-02-10T13:00:00","43","6","57,9","2,2","187,6","29,7","49,4","156,7","0"],
    [26572,"2017-02-10T14:00:00","25","11","69,8","1,5","206,9","31,4","43","254,2","0"],
    [26573,"2017-02-10T15:00:00","39","6","82,2","1,5","32,6","33,3","37,3","358,4","0"],
    [26574,"2017-02-10T16:00:00","53","7","102,4","3,7","350","32,5","39","116,1","0"],
    [26575,"2017-02-10T17:00:00","50","7","45,8","5,6","288,7","30,6","45,3","33,9","0"],
    [26576,"2017-02-10T18:00:00","37","4","37,3","2,5","296,7","30,1","45,8","14,2","0"],
    [26577,"2017-02-10T19:00:00","94","21","17,1","0,5","33,3","29,5","48,7","0","0"],
    [26578,"2017-02-10T20:00:00","75","26","11,3","2","70,2","28,5","55,1","0","0"],
    [26579,"2017-02-10T21:00:00","63","7","8,8","1,8","96,4","26,9","62,7","0","0"],
    [26580,"2017-02-10T22:00:00","72","8","8,7","2,1","216,6","26,8","63,2","0","0"],
    [26581,"2017-02-10T23:00:00","96","15","7,6","1,7","190,9","27,1","61,7","0","0"],
    [26582,"2017-02-11T00:00:00","81","15","7,5","1,7","160,7","26,4","63,7","0","0"],
    [26583,"2017-02-11T01:00:00","50","9","7,7","1,5","217,6","25,5","69,4","0","0"],
    [26584,"2017-02-11T02:00:00","52","12","10,5","1,6","254,8","25,8","65,8","0","0"],
    [26585,"2017-02-11T03:00:00","56","14","7,2","0,9","107,6","25,6","66","0","0"],
    [26586,"2017-02-11T04:00:00","72","21","7,4","2,3","116,6","24,7","71,7","0","0"],
    [26587,"2017-02-11T05:00:00","64","16","6,5","0,3","73,8","24,3","74","0","0"],
    [26588,"2017-02-11T06:00:00","75","16","7","0,8","253,9","24,8","71,3","0","0"],
    [26589,"2017-02-11T07:00:00","85","21","7,2","2,7","127,9","24,1","74,1","4,8","0"],
    [26590,"2017-02-11T08:00:00","77","12","8,3","1,7","193,9","24,9","69,1","33,7","0"],
    [26591,"2017-02-11T09:00:00","73","14","23,5","1,1","266,4","27,5","57,1","158,5","0"],
    [26592,"2017-02-11T10:00:00","61","12","58,7","1,1","17,8","30,2","46,1","274,1","0"],
    [26593,"2017-02-11T11:00:00","71","13","121","2,4","110,9","31,7","42,3","363,3","0"],
    [26594,"2017-02-11T12:00:00","85","17","147,6","2,7","130,1","34,1","37","429,3","0"],
    [26595,"2017-02-11T13:00:00","57","6","116,7","2,4","124,1","35,2","33,8","409,7","0"],
    [26596,"2017-02-11T14:00:00","72","11","130,1","3,1","354,9","34,6","35,1","233,5","0"],
    [26597,"2017-02-11T15:00:00","64","10","145,7","3,4","328,1","35,3","33,5","332,8","0"],
    [26598,"2017-02-11T16:00:00","53","10","81,5","4,6","345,3","34,4","35","183,9","0"],
    [26599,"2017-02-11T17:00:00","40","4","66,7","6,4","300,4","34","35","167","0"],
    [26600,"2017-02-11T18:00:00","28","ND","42,3","5,8","302,5","32,5","38,8","44","0"],
    [26601,"2017-02-11T19:00:00","37","ND","28,5","4,3","298,5","30,7","44","0","0"],
    [26602,"2017-02-11T20:00:00","56","4","34,8","2,6","240,5","29,2","51,4","0","0"],
    [26603,"2017-02-11T21:00:00","43","2","48,6","5,1","222,8","27,3","58,5","0","0"],
    [26604,"2017-02-11T22:00:00","38","ND","39,3","3,8","200,4","26,6","59,1","0","0"],
    [26605,"2017-02-11T23:00:00","43","ND","32,6","4,2","219,1","26,1","64,7","0","0"],
    [26606,"2017-02-12T00:00:00","49","ND","25,6","3,4","221","26,3","66,5","0","0"],
    [26607,"2017-02-12T01:00:00","32","ND","25","2,2","191,8","27","63,4","0","0"],
    [26608,"2017-02-12T02:00:00","47","6","12,3","2,4","85,5","25,4","71,1","0","0"],
    [26609,"2017-02-12T03:00:00","55","17","13,5","2,1","91,3","25,2","72,4","0","0"],
    [26610,"2017-02-12T04:00:00","48","2","11,6","1,5","165,5","24,9","76","0","0"],
    [26611,"2017-02-12T05:00:00","27","ND","11,3","1,3","151,7","24,7","76,2","0","0"],
    [26612,"2017-02-12T06:00:00","38","1","9,8","1,9","170","24,7","76,1","0","0"],
    [26613,"2017-02-12T07:00:00","17","1","9,8","2,3","183,9","24,9","76","4,6","0"],
    [26614,"2017-02-12T08:00:00","31","ND","10,4","3","182,4","24,9","76,2","25,8","0"],
    [26615,"2017-02-12T09:00:00","24","ND","10,2","3,1","179,1","24,8","78,3","28,6","4,83"],
    [26616,"2017-02-12T10:00:00","23","ND","14,8","2,4","210,3","24,9","78","96,6","6,6"],
    [26617,"2017-02-12T11:00:00","35","ND","32,1","2,4","242,1","26,3","71,2","165,1","0,25"],
    [26618,"2017-02-12T12:00:00","28","3","57,4","1,7","289,8","28,1","62,9","287,9","0"],
    [26619,"2017-02-12T13:00:00","27","5","65,1","1,8","154,3","31,8","44,7","393,1","0"],
    [26620,"2017-02-12T14:00:00","35","6","93,9","3,1","235,7","32,4","42,3","355,3","0"],
    [26621,"2017-02-12T15:00:00","35","2","84,7","0,7","206,2","32,5","39,3","199","0"],
    [26622,"2017-02-12T16:00:00","37","ND","78,1","3,4","207,8","32,6","41,7","217,6","0"],
    [26623,"2017-02-12T17:00:00","32","ND","53,6","3,2","261,4","32,3","39,3","73,1","0"],
    [26624,"2017-02-12T18:00:00","17","ND","37,7","6,8","283,3","31","42,2","46,4","0"],
    [26625,"2017-02-12T19:00:00","19","ND","30,2","6","299,1","29,5","45,2","0","0"],
    [26626,"2017-02-12T20:00:00","27","ND","27,6","5,4","308,4","29,2","45","0","0"],
    [26627,"2017-02-12T21:00:00","49","ND","15,2","3,6","49,3","27,9","54,9","0","0"],
    [26628,"2017-02-12T22:00:00","25","1","16,1","3,1","36,8","26,9","61","0","0"],
    [26629,"2017-02-12T23:00:00","33","ND","14,6","1,3","49,9","26,6","60,9","0","0"],
    [26630,"2017-02-13T00:00:00","30","ND","8,4","3","215,8","25,7","67,2","0","0"],
    [26631,"2017-02-13T01:00:00","30","ND","9,8","3,4","211,2","25,3","69,4","0","0"],
    [26632,"2017-02-13T02:00:00","34","1","7,9","1,9","117,7","24,6","72,2","0","0"],
    [26633,"2017-02-13T03:00:00","33","2","8,2","2","103,1","24,2","72,1","0","0"],
    [26634,"2017-02-13T04:00:00","31","2","9,9","0,2","69,1","24,6","69,1","0","0"],
    [26635,"2017-02-13T05:00:00","54","3","8","0,8","120,8","24,5","69,4","0","0"],
    [26636,"2017-02-13T06:00:00","60","10","8","0,9","146,2","24,3","69,4","0","0"],
    [26637,"2017-02-13T07:00:00","51","8","7,3","1","301,7","24,2","70,4","12","0"],
    [26638,"2017-02-13T08:00:00","67","14","11,8","1,5","273,8","26","64","88,2","0"],
    [26639,"2017-02-13T09:00:00","59","16","28,8","1,7","193,5","28","56,8","196,1","0"],
    [26640,"2017-02-13T10:00:00","47","4","39,2","2,8","126,6","29,8","50,8","308,2","0"],
    [26641,"2017-02-13T11:00:00","51","4","58","2,1","96,5","31,5","43,2","347,6","0"],
    [26642,"2017-02-13T12:00:00","39","2","82,7","1,8","53,7","32,6","38","333,9","0"],
    [26643,"2017-02-13T13:00:00","60","8","104,5","0,8","119,3","33,2","36","305,5","0"],
    [26644,"2017-02-13T14:00:00","46","12","132,7","2,8","313,2","34","33,3","322,5","0"],
    [26645,"2017-02-13T15:00:00","58","7","86,1","7,3","322","31","42,5","82","0"],
    [26646,"2017-02-13T16:00:00","48","4","31,8","6,3","329,7","28,4","51","55,3","0"],
    [26647,"2017-02-13T17:00:00","47","4","25,6","3,1","351","31,6","39,5","120,1","0"],
    [26648,"2017-02-13T18:00:00","52","5","24,5","3,8","64,4","31,7","40,6","44,7","0"],
    [26649,"2017-02-13T19:00:00","63","7","15,5","0,6","161,7","29,3","47,3","0","0"],
    [26650,"2017-02-13T20:00:00","47","5","14,1","1,6","274,5","29,4","45,1","0","0"],
    [26651,"2017-02-13T21:00:00","41","ND","19,3","3","278,9","28,5","49,2","0","0"],
    [26652,"2017-02-13T22:00:00","26","ND","20,8","2,7","284","28,2","48,2","0","0"],
    [26653,"2017-02-13T23:00:00","41","ND","9,3","2,4","80","25,8","61,2","0","0"],
    [26654,"2017-02-14T00:00:00","29","3","11,3","2,6","100,8","25,4","62,1","0","0"],
    [26655,"2017-02-14T01:00:00","17","2","14,2","2","122,4","25,2","62,2","0","0"],
    [26656,"2017-02-14T02:00:00","39","ND","12,1","2,2","103,6","25,1","62,7","0","0"],
    [26657,"2017-02-14T03:00:00","42","ND","10,6","2,8","77,8","24,6","65,7","0","0"],
    [26658,"2017-02-14T04:00:00","38","ND","10,6","0,9","19,8","24,1","68","0","0"],
    [26659,"2017-02-14T05:00:00","36","ND","7,9","1,1","232,9","24,4","66,9","0","0"],
    [26660,"2017-02-14T06:00:00","80","20","7,9","1,4","130,4","24,3","68,2","0","0"],
    [26661,"2017-02-14T07:00:00","69","12","7,8","0,8","161,7","24,2","68,6","6,5","0"],
    [26662,"2017-02-14T08:00:00","92","23","10,8","2,1","73,5","25,8","62,1","84,5","0"],
    [26663,"2017-02-14T09:00:00","45","3","22","2,4","88,4","27,5","55,6","195","0"],
    [26664,"2017-02-14T10:00:00","40","ND","40,9","2,7","198,2","29,8","48,1","301,9","0"],
    [26665,"2017-02-14T11:00:00","37","ND","61,8","1","138,8","31,2","43,5","357,4","0"],
    [26666,"2017-02-14T12:00:00","33","ND","77,7","2","95,3","33,1","36,9","452,5","0"],
    [26667,"2017-02-14T13:00:00","53","ND","95,7","2,2","69,2","33,9","33,8","409","0"],
    [26668,"2017-02-14T14:00:00","45","4","98,9","1,2","35,2","34","32,1","248,5","0"],
    [26669,"2017-02-14T15:00:00","37","ND","109,7","1,8","328,3","34,5","30,8","254,8","0"],
    [26670,"2017-02-14T16:00:00","49","3","128,9","2,8","357","34,9","30,7","222,1","0"],
    [26671,"2017-02-14T17:00:00","48","3","88,2","3,9","25,2","34,4","31,4","118","0"],
    [26672,"2017-02-14T18:00:00","45","ND","47,6","3,7","355,7","33,8","31,6","53,3","0"],
    [26673,"2017-02-14T19:00:00","33","1","22,6","5,3","296,9","31,5","36,8","0","0"],
    [26674,"2017-02-14T20:00:00","35","ND","12,4","4,4","289,2","30,1","42,3","0","0"],
    [26675,"2017-02-14T21:00:00","51","ND","11,6","1,5","51,4","28,3","49,6","0","0"],
    [26676,"2017-02-14T22:00:00","59","12","10,5","2,5","81,5","26,8","56,4","0","0"],
    [26677,"2017-02-14T23:00:00","72","20","9,4","0,4","222,2","26","59,4","0","0"],
    [26678,"2017-02-15T00:00:00","84","17","8,3","1,6","227,9","25,7","61,6","0","0"],
    [26679,"2017-02-15T01:00:00","92","19","8,8","1,9","119,3","24,7","65,8","0","0"],
    [26680,"2017-02-15T02:00:00","109","26","7,9","2","142,8","24,4","67,1","0","0"],
    [26681,"2017-02-15T03:00:00","81","23","7,7","1,8","113,2","23,7","69","0","0"],
    [26682,"2017-02-15T04:00:00","56","14","10","1,7","161,2","23,5","67,6","0","0"],
    [26683,"2017-02-15T05:00:00","54","13","10,3","1,1","154","23,2","68","0","0"],
    [26684,"2017-02-15T06:00:00","92","35","8","2,9","108,2","22,5","70,5","0","0"],
    [26685,"2017-02-15T07:00:00","114","42","8,2","1,7","68,1","22,3","71,9","6,2","0"],
    [26686,"2017-02-15T08:00:00","127","39","10,4","0,9","118,9","23,8","66,4","73,8","0"],
    [26687,"2017-02-15T09:00:00","92","30","22,6","2,1","137","26,3","57,7","176,7","0"],
    [26688,"2017-02-15T10:00:00","51","9","48,3","2,4","140","29,4","45,2","330,5","0"],
    [26689,"2017-02-15T11:00:00","48","10","65,7","1,9","133,3","31,6","38,9","391","0"],
    [26690,"2017-02-15T12:00:00","53","7","85,9","1,4","185,6","33,2","35,7","439,8","0"],
    [26691,"2017-02-15T13:00:00","47","11","93,5","1,1","168","34,3","33,2","455,7","0"],
    [26692,"2017-02-15T14:00:00","51","6","91,4","1,4","95,3","35,4","30","397,6","0"],
    [26693,"2017-02-15T15:00:00","55","4","90,9","3,9","78,5","35,2","29,4","272,4","0"],
    [26694,"2017-02-15T16:00:00","67","14","97,6","1,9","83,1","34,2","30,6","87,7","0"],
    [26695,"2017-02-15T17:00:00","49","7","68,3","7","287,9","33,7","34,8","150,1","0"],
    [26696,"2017-02-15T18:00:00","50","ND","43,9","6,8","285,5","32,4","37","44,9","0"],
    [26697,"2017-02-15T19:00:00","47","ND","20,8","4,8","286,3","30,9","39,1","0","0"],
    [26698,"2017-02-15T20:00:00","59","8","12,1","1,2","318,9","29,5","43,8","0","0"],
    [26699,"2017-02-15T21:00:00","70","13","9,9","2,7","100,7","27,8","52","0","0"],
    [26700,"2017-02-15T22:00:00","50","7","9,5","2,5","135,5","27","54,7","0","0"],
    [26701,"2017-02-15T23:00:00","52","6","8,9","3,3","115,7","26,2","58,4","0","0"],
    [26702,"2017-02-16T00:00:00","28","4","9,7","2,5","94,1","25,2","62,8","0","0"],
    [26703,"2017-02-16T01:00:00","35","ND","10,3","1,8","78","24,9","63,4","0","0"],
    [26704,"2017-02-16T02:00:00","34","ND","12,4","2","119,9","24,7","63,9","0","0"],
    [26705,"2017-02-16T03:00:00","72","8","9,6","0,8","287,3","24,3","65,7","0","0"],
    [26706,"2017-02-16T04:00:00","49","8","11,8","0,9","20,4","24,6","65","0","0"],
    [26707,"2017-02-16T05:00:00","48","8","8,3","1,3","191,5","24,3","66,5","0","0"],
    [26708,"2017-02-16T06:00:00","78","18","7,9","1,5","149,5","24","66,8","0","0"],
    [26709,"2017-02-16T07:00:00","122","37","8,3","2,5","99,9","22,7","73,2","7,3","0"],
    [26710,"2017-02-16T08:00:00","101","27","11,6","1,9","354,8","24,2","67,2","67,5","0"],
    [26711,"2017-02-16T09:00:00","98","27","22,3","2","82,1","26,9","57,7","172,5","0"],
    [26712,"2017-02-16T10:00:00","86","28","49,8","2,3","70,7","29,2","50,2","289,4","0"],
    [26713,"2017-02-16T11:00:00","55","12","79,2","2,2","89,6","31,6","40,9","380,5","0"],
    [26714,"2017-02-16T12:00:00","63","9","99,8","2","93,5","33","36,9","443","0"],
    [26715,"2017-02-16T13:00:00","61","4","114,6","2,1","44,2","34,2","34,3","461,7","0"],
    [26716,"2017-02-16T14:00:00","71","12","122,4","1,1","225,6","33,8","35,2","181,2","0"],
    [26717,"2017-02-16T15:00:00","66","11","138,2","3,2","244,6","33,6","36,5","237,6","0"],
    [26718,"2017-02-16T16:00:00","68","15","116,6","0,9","72,3","35,2","32","165,4","0"],
    [26719,"2017-02-16T17:00:00","48","6","66,1","4,3","305,2","34,2","32,2","141,6","0"],
    [26720,"2017-02-16T18:00:00","34","1","25,4","6,4","300,3","31,8","36,7","13,6","0"],
    [26721,"2017-02-16T19:00:00","38","3","12,5","6,3","316,3","30,4","40,7","0","0"],
    [26722,"2017-02-16T20:00:00","36","ND","14,1","4,3","326,3","29,5","42,3","0","0"],
    [26723,"2017-02-16T21:00:00","61","3","10,7","3,4","83,8","27,9","50,3","0","0"],
    [26724,"2017-02-16T22:00:00","56","4","9,9","2,4","81,1","27","53,5","0","0"],
    [26725,"2017-02-16T23:00:00","37","ND","10,3","2,9","99,9","25,8","58,9","0","0"],
    [26726,"2017-02-17T00:00:00","37","3","9,7","0,7","231,8","25,2","61,6","0","0"],
    [26727,"2017-02-17T01:00:00","32","3","9,3","2,1","193,5","25,4","61,7","0","0"],
    [26728,"2017-02-17T02:00:00","51","11","9,2","2","96,5","24","66,6","0","0"],
    [26729,"2017-02-17T03:00:00","35","10","8,1","2,4","105,3","23,7","67,7","0","0"],
    [26730,"2017-02-17T04:00:00","41","5","8,1","2","119,7","24","65,7","0","0"],
    [26731,"2017-02-17T05:00:00","58","6","8","1,3","188,2","24,2","65,7","0","0"],
    [26732,"2017-02-17T06:00:00","71","17","7,9","2,5","233","24,1","66,5","0","0"],
    [26733,"2017-02-17T07:00:00","74","20","8,4","1","236,8","23,8","68,5","0","0"],
    [26734,"2017-02-17T08:00:00","136","25","13,4","1,9","209,8","25,8","61,2","88,4","0"],
    [26735,"2017-02-17T09:00:00","77","24","31,4","2,5","170","28","52,9","184","0"],
    [26736,"2017-02-17T10:00:00","69","9","55,6","0,7","120,6","29,7","45","301,9","0"],
    [26737,"2017-02-17T11:00:00","43","5","66,6","2,5","122,4","31,6","37,7","395,3","0"],
    [26738,"2017-02-17T12:00:00","32","2","64,2","2,2","103","33,4","33,1","436,9","0"],
    [26739,"2017-02-17T13:00:00","44","1","76,5","2,7","124,6","34,4","31,7","434,5","0"],
    [26740,"2017-02-17T14:00:00","57","5","112,2","2,7","266","33,6","32,9","211","0"],
    [26741,"2017-02-17T15:00:00","72","3","119,6","4,7","286,7","33,8","33,1","248,8","0"],
    [26742,"2017-02-17T16:00:00","47","ND","33,7","7","279,6","32,2","36,6","104,5","0"],
    [26743,"2017-02-17T17:00:00","37","ND","31,5","6,8","288,8","31,9","36,5","94,8","0"],
    [26744,"2017-02-17T18:00:00","47","ND","21,8","5,3","309,7","31,4","36,2","25,9","0"],
    [26745,"2017-02-17T19:00:00","38","7","14","4,6","299,6","30,1","40","0","0"],
    [26746,"2017-02-17T20:00:00","95","16","9,5","2,1","26,1","29","44,4","0","0"],
    [26747,"2017-02-17T21:00:00","80","22","10,2","2,8","77,8","27","53,3","0","0"],
    [26748,"2017-02-17T22:00:00","59","15","9,9","2,4","83,1","25,8","58,4","0","0"],
    [26749,"2017-02-17T23:00:00","46","10","9,1","2,3","70,5","25,7","58,6","0","0"],
    [26750,"2017-02-18T00:00:00","40","9","9,7","1,4","54,3","25,1","61,4","0","0"],
    [26751,"2017-02-18T01:00:00","43","10","9","0,2","152,2","24,7","63,5","0","0"],
    [26752,"2017-02-18T02:00:00","37","9","7,8","1,5","91,4","24,3","64,9","0","0"],
    [26753,"2017-02-18T03:00:00","43","4","8,3","1,2","96,6","24,2","65,4","0","0"],
    [26754,"2017-02-18T04:00:00","44","ND","8,8","1,6","105,3","23,9","65,9","0","0"],
    [26755,"2017-02-18T05:00:00","87","22","8,2","2","108,1","23,4","68,6","0","0"],
    [26756,"2017-02-18T06:00:00","89","27","8,4","1,7","84","23,5","67,7","0","0"],
    [26757,"2017-02-18T07:00:00","79","21","8,4","0,4","332,2","23,5","66,8","0","0"],
    [26758,"2017-02-18T08:00:00","89","31","9,5","1,4","140,2","25","62,4","47,8","0"],
    [26759,"2017-02-18T09:00:00","69","16","18,1","2,3","130,6","26,1","58,3","134,8","0"],
    [26760,"2017-02-18T10:00:00","ND","5","42,6","1,5","189,7","28,4","50,1","260,5","0"],
    [26761,"2017-02-18T11:00:00","64","6","64,1","1,8","102,2","30,9","42,2","376,3","0"],
    [26762,"2017-02-18T12:00:00","53","5","93,1","1,1","74,5","32,9","37","445,3","0"],
    [26763,"2017-02-18T13:00:00","48","2","83,1","2,9","92,7","33,9","33","446","0"],
    [26764,"2017-02-18T14:00:00","42","ND","101,1","2,1","33","34,9","29,5","430,1","0"],
    [26765,"2017-02-18T15:00:00","43","ND","109,4","2,4","92,8","35,5","28,2","355,4","0"],
    [26766,"2017-02-18T16:00:00","70","10","125","3,3","332,2","34,1","32,1","120,7","0"],
    [26767,"2017-02-18T17:00:00","60","6","51,7","9","284,8","33,3","34,5","152,9","0"],
    [26768,"2017-02-18T18:00:00","38","ND","52,9","6,6","286,6","32,3","37,1","48,3","0"],
    [26769,"2017-02-18T19:00:00","38","ND","38,6","5,1","291","30,5","40,9","0","0"],
    [26770,"2017-02-18T20:00:00","58","21","16,2","1,6","11,5","29","46,3","0","0"],
    [26771,"2017-02-18T21:00:00","57","2","11,8","2,6","98,2","27,1","55,3","0","0"],
    [26772,"2017-02-18T22:00:00","47","5","12,7","1","193,5","26,7","56,8","0","0"],
    [26773,"2017-02-18T23:00:00","66","16","15,4","2,9","228,9","27,4","53,8","0","0"],
    [26774,"2017-02-19T00:00:00","59","12","8,5","2,2","156,8","25,6","62,3","0","0"],
    [26775,"2017-02-19T01:00:00","49","7","8,5","1,6","205,8","25,7","62,3","0","0"],
    [26776,"2017-02-19T02:00:00","61","9","9,2","0,9","43,1","25,4","63,5","0","0"],
    [26777,"2017-02-19T03:00:00","42","13","9,3","1,2","80,3","24,6","66,2","0","0"],
    [26778,"2017-02-19T04:00:00","44","10","9,3","1,2","118,6","24,5","66,8","0","0"],
    [26779,"2017-02-19T05:00:00","58","10","7,7","1,4","136,1","24,3","67,5","0","0"],
    [26780,"2017-02-19T06:00:00","71","15","7,6","2,1","113,5","23,7","69,8","0","0"],
    [26781,"2017-02-19T07:00:00","93","27","8,8","1,5","139,7","23,2","71,9","6,7","0"],
    [26782,"2017-02-19T08:00:00","88","20","9,4","2,4","121,1","24","68,7","56,7","0"],
    [26783,"2017-02-19T09:00:00","69","21","15,9","1,3","145,6","25,6","63,6","138,3","0"],
    [26784,"2017-02-19T10:00:00","61","15","44,2","1,8","105,2","29,1","50,1","294","0"],
    [26785,"2017-02-19T11:00:00","37","8","72,2","2,1","112,9","31","42,7","378,8","0"],
    [26786,"2017-02-19T12:00:00","39","2","87,8","0,6","92,7","32,8","37,9","434,8","0"],
    [26787,"2017-02-19T13:00:00","36","3","94,8","1,1","131,7","34,3","33,8","414,3","0"],
    [26788,"2017-02-19T14:00:00","42","2","102,5","0,4","304,6","34,9","31,5","323,5","0"],
    [26789,"2017-02-19T15:00:00","43","5","133,5","3,4","341,5","35,2","31,1","325,5","0"],
    [26790,"2017-02-19T16:00:00","43","4","67,1","5,4","332,6","34,4","33,4","163,2","0"],
    [26791,"2017-02-19T17:00:00","36","ND","53,4","6,8","289,1","33,6","34,3","148,2","0"],
    [26792,"2017-02-19T18:00:00","32","ND","49,3","5,9","289,9","32,6","36,4","46,7","0"],
    [26793,"2017-02-19T19:00:00","38","3","43,6","6","296,1","30,6","40,6","0","0"],
    [26794,"2017-02-19T20:00:00","42","4","39,2","5,2","305,5","29,8","43,4","0","0"],
    [26795,"2017-02-19T21:00:00","58","11","17,7","3,8","79,4","28,2","52,1","0","0"],
    [26796,"2017-02-19T22:00:00","49","14","12,6","3,9","77,3","26,5","59,3","0","0"],
    [26797,"2017-02-19T23:00:00","45","8","15,8","3,2","49,8","27,1","56,6","0","0"],
    [26798,"2017-02-20T00:00:00","42","8","11,5","2","79,5","26,8","58,3","0","0"],
    [26799,"2017-02-20T01:00:00","50","6","13","1","220,9","26,9","58,1","0","0"],
    [26800,"2017-02-20T02:00:00","51","2","12,5","3","192","26,3","61,7","0","0"],
    [26801,"2017-02-20T03:00:00","47","ND","8,6","2,4","88,5","25,6","65,4","0","0"],
    [26802,"2017-02-20T04:00:00","49","ND","7,9","2,3","2,1","25,2","68,5","0","0"],
    [26803,"2017-02-20T05:00:00","40","5","8,1","2","78,3","25,2","69","0","0"],
    [26804,"2017-02-20T06:00:00","35","4","9,2","0,5","186,3","24,3","74,4","0","1,52"],
    [26805,"2017-02-20T07:00:00","27","6","8,3","1,5","223","24,1","75,4","0","1,52"],
    [26806,"2017-02-20T08:00:00","47","6","7,3","1,1","145,2","24,3","78,3","24,5","0,51"],
    [26807,"2017-02-20T09:00:00","38","5","16,3","1,3","224,9","26","70,6","143,7","0"],
    [26808,"2017-02-20T10:00:00","41","3","36,5","0,8","134,6","27,9","61","195,5","0"],
    [26809,"2017-02-20T11:00:00","33","8","63","2","172,4","30,1","51,3","338,6","0"],
    [26810,"2017-02-20T12:00:00","40","4","83,1","2,4","116,5","31,9","42,2","360,1","0"],
    [26811,"2017-02-20T13:00:00","36","ND","93,3","2,1","132,1","33,2","37,6","371,6","0"],
    [26812,"2017-02-20T14:00:00","34","ND","88,8","2,3","126,5","34,4","34,7","386,1","0"],
    [26813,"2017-02-20T15:00:00","37","3","91,5","3,1","148,9","34,6","35,7","371,7","0"],
    [26814,"2017-02-20T16:00:00","40","5","118,6","1,2","257,3","34,6","34,8","229,6","0"],
    [26815,"2017-02-20T17:00:00","47","1","54,6","6,1","316,8","28,3","56,2","14,3","1,78"],
    [26816,"2017-02-20T18:00:00","21","ND","20,4","3,6","296,1","28,3","61","10,7","0"],
    [26817,"2017-02-20T19:00:00","64","10","11,4","1,6","52,4","28,5","58,3","0","0"],
    [26818,"2017-02-20T20:00:00","56","8","12,5","3,2","97,3","27,7","59,1","0","0"],
    [26819,"2017-02-20T21:00:00","55","9","10,4","1,9","56,7","26,4","62,1","0","0"],
    [26820,"2017-02-20T22:00:00","83","25","9,8","1,8","42,9","26,7","60,6","0","0"],
    [26821,"2017-02-20T23:00:00","53","6","9,4","0,5","193,6","26,6","61,6","0","0"],
    [26822,"2017-02-21T00:00:00","35","3","9,3","2,2","187,3","25,7","64,9","0","0"],
    [26823,"2017-02-21T01:00:00","47","3","9,3","1,6","118","26","66,7","0","0"],
    [26824,"2017-02-21T02:00:00","42","5","9,6","2,1","117,9","25,7","68,5","0","0"],
    [26825,"2017-02-21T03:00:00","36","7","8,7","1,5","112,6","25,1","71,2","0","0"],
    [26826,"2017-02-21T04:00:00","28","4","12,7","1,5","177,1","24,9","71,5","0","0"],
    [26827,"2017-02-21T05:00:00","40","7","11,8","1,2","125,6","25,1","70,6","0","0"],
    [26828,"2017-02-21T06:00:00","67","18","8,1","2,4","68,8","24,7","72,4","0","0"],
    [26829,"2017-02-21T07:00:00","56","9","8,4","1,3","174,9","24,7","72,3","0","0"],
    [26830,"2017-02-21T08:00:00","71","13","8,5","0,6","142,9","25,4","69,7","47,5","0"],
    [26831,"2017-02-21T09:00:00","95","27","13,1","2","72,9","26,7","65,7","96,7","0"],
    [26832,"2017-02-21T10:00:00","71","16","21,6","3,5","80,1","27,5","62,1","154,5","0"],
    [26833,"2017-02-21T11:00:00","38","7","60,3","1,2","20","30,4","48,4","326,1","0"],
    [26834,"2017-02-21T12:00:00","43","4","72,5","3","80,3","32,5","39,4","442,2","0"],
    [26835,"2017-02-21T13:00:00","35","5","64,8","3,4","45,4","34,2","33,7","414,9","0"],
    [26836,"2017-02-21T14:00:00","24","5","104,7","1","14,2","34,4","32,6","359,8","0"],
    [26837,"2017-02-21T15:00:00","44","11","119,7","1,5","36,7","35,1","31,5","237,7","0"],
    [26838,"2017-02-21T16:00:00","44","7","56,4","4,9","15","34","32,9","159,3","0"],
    [26839,"2017-02-21T17:00:00","38","3","44,7","5,1","344,4","34,4","28,7","190,1","0"],
    [26840,"2017-02-21T18:00:00","36","4","34,7","6,1","306,1","32,9","29,1","37","0"],
    [26841,"2017-02-21T19:00:00","40","3","18,7","5,8","310,2","31,2","32,4","0","0"],
    [26842,"2017-02-21T20:00:00","46","8","17","3,8","268","29,9","40,8","0","0"],
    [26843,"2017-02-21T21:00:00","42","7","22,7","4,9","233,9","28,8","50,2","0","0"],
    [26844,"2017-02-21T22:00:00","37","4","17","2,7","281,7","28,7","41,9","0","0"],
    [26845,"2017-02-21T23:00:00","41","5","12,7","0,9","41,1","28,1","45,5","0","0"],
    [26846,"2017-02-22T00:00:00","52","8","11,8","1,7","84,8","26","57,8","0","0"],
    [26847,"2017-02-22T01:00:00","37","6","11","2","121,3","25,3","59,8","0","0"],
    [26848,"2017-02-22T02:00:00","36","5","12","1,9","102","24,9","62,1","0","0"],
    [26849,"2017-02-22T03:00:00","35","ND","13,6","1,5","111,5","25,2","60,9","0","0"],
    [26850,"2017-02-22T04:00:00","39","1","16,1","1,4","260,7","25,8","58,5","0","0"],
    [26851,"2017-02-22T05:00:00","85","12","10,3","1,9","169,8","25,6","60,6","0","0"],
    [26852,"2017-02-22T06:00:00","89","15","8,8","2,5","163,4","24,8","65,5","0","0"],
    [26853,"2017-02-22T07:00:00","85","14","8,7","2,3","134,7","24,5","67,5","ND","0"],
    [26854,"2017-02-22T08:00:00","57","19","14","2,6","230","25,1","62,3","ND","0"],
    [26855,"2017-02-22T09:00:00","55","ND","23","3,3","221,6","27,2","53,9","ND","0"],
    [26856,"2017-02-22T10:00:00","64","ND","24,3","4","168,8","28,3","53","ND","0"],
    [26857,"2017-02-22T11:00:00","51","8","36","3,3","152,3","29","49","ND","0"],
    [26858,"2017-02-22T12:00:00","40","6","24,2","4,2","317,6","26,8","54,2","ND","0"],
    [26859,"2017-02-22T13:00:00","28","1","19,3","3,4","289,7","24,3","69","ND","1,52"],
    [26860,"2017-02-22T14:00:00","29","3","33,2","3","305,5","26","59,5","ND","0"],
    [26861,"2017-02-22T15:00:00","40","7","56,2","2,2","326,8","28,1","49,2","ND","0"],
    [26862,"2017-02-22T16:00:00","36","ND","46,4","4,6","5,6","28,3","50,5","ND","0"],
    [26863,"2017-02-22T17:00:00","52","5","30,5","3,3","51,9","28,1","49,5","ND","0"],
    [26864,"2017-02-22T18:00:00","43","6","24,5","2,5","6,9","27,2","53,1","ND","0"],
    [26865,"2017-02-22T19:00:00","61","17","23,9","1,6","287","26,9","53,6","0","0"],
    [26866,"2017-02-22T20:00:00","112","31","11,7","2,6","158,4","26,6","57,4","0","0"],
    [26867,"2017-02-22T21:00:00","80","14","13,7","3,4","200,5","25,6","63,2","0","0"],
    [26868,"2017-02-22T22:00:00","80","19","13,1","1,7","176,3","24,7","65,6","0","0"],
    [26869,"2017-02-22T23:00:00","79","27","10,2","2,5","137,2","24,3","67,7","0","0"],
    [26870,"2017-02-23T00:00:00","94","39","9,5","1,4","98,1","24,2","68,3","0","0"],
    [26871,"2017-02-23T01:00:00","71","17","9,4","1,7","17,2","23,5","70,1","0","0"],
    [26872,"2017-02-23T02:00:00","73","26","9,7","1,4","325,9","23","71,8","0","0"],
    [26873,"2017-02-23T03:00:00","73","31","8,6","1","300,7","22,7","72","0","0"],
    [26874,"2017-02-23T04:00:00","39","6","10,9","0,1","4","22,8","63,6","0","0"],
    [26875,"2017-02-23T05:00:00","67","19","8,1","1,7","91,4","21,4","76,8","0","0"],
    [26876,"2017-02-23T06:00:00","88","19","8,7","2,2","107","21,6","76","0","0"],
    [26877,"2017-02-23T07:00:00","66","21","8,8","1,2","7,8","21,9","69,8","8","0"],
    [26878,"2017-02-23T08:00:00","80","20","12,2","0,6","246,3","23,6","65,1","89,3","0"],
    [26879,"2017-02-23T09:00:00","114","31","15,3","1,8","110,6","24,9","62,6","122,4","0"],
    [26880,"2017-02-23T10:00:00","82","22","44,6","2,5","87,7","27,5","53,8","304,3","0"],
    [26881,"2017-02-23T11:00:00","74","26","82,6","0,7","64,4","29,9","45","380,4","0"],
    [26882,"2017-02-23T12:00:00","84","17","110,8","2,2","98,2","31,2","39,8","404","0"],
    [26883,"2017-02-23T13:00:00","72","23","109,8","2,5","116,3","31,8","37,3","270,7","0"],
    [26884,"2017-02-23T14:00:00","56","11","103","1,5","103,8","33,7","30","344,6","0"],
    [26885,"2017-02-23T15:00:00","59","19","108,9","2,7","84,8","34,3","29","279,6","0"],
    [26886,"2017-02-23T16:00:00","65","14","126,2","3,2","32,9","34,3","31,6","199","0"],
    [26887,"2017-02-23T17:00:00","44","11","81,7","4","329,3","33,8","33","139,7","0"],
    [26888,"2017-02-23T18:00:00","36","5","45,6","6,2","290,5","31,9","36,9","45,2","0"],
    [26889,"2017-02-23T19:00:00","49","3","28,6","5,1","294,6","29,9","41,4","0","0"],
    [26890,"2017-02-23T20:00:00","57","18","13,7","1","40,8","28,7","46,3","0","0"],
    [26891,"2017-02-23T21:00:00","60","14","10,6","1,8","105,8","27,3","52,9","0","0"],
    [26892,"2017-02-23T22:00:00","73","16","18,9","2,5","231,7","27,3","52,6","0","0"],
    [26893,"2017-02-23T23:00:00","80","17","12,2","3","190,6","26,9","56,4","0","0"],
    [26894,"2017-02-24T00:00:00","68","18","10,2","2,2","104,6","25,9","60","0","0"],
    [26895,"2017-02-24T01:00:00","47","4","11,4","1,3","176,8","25,4","61,4","0","0"],
    [26896,"2017-02-24T02:00:00","67","16","10,7","1,9","119,1","24,9","63,9","0","0"],
    [26897,"2017-02-24T03:00:00","69","22","10,3","1","127,1","24,4","65,1","0","0"],
    [26898,"2017-02-24T04:00:00","79","20","10,1","1,5","143,2","24,6","63,9","0","0"],
    [26899,"2017-02-24T05:00:00","64","21","10","1,8","132,4","23,5","67,1","0","0"],
    [26900,"2017-02-24T06:00:00","74","27","9,8","2,2","139,6","23,1","68,9","0","0"],
    [26901,"2017-02-24T07:00:00","69","17","9,5","0,7","61,1","23","69,2","0","0"],
    [26902,"2017-02-24T08:00:00","89","28","11,5","1,8","62,7","24,4","63,5","45,6","0"],
    [26903,"2017-02-24T09:00:00","86","17","16,9","2,1","58,5","25,7","58,4","92,3","0"],
    [26904,"2017-02-24T10:00:00","67","16","34,9","1,6","205,3","27,8","50,8","167","0"],
    [26905,"2017-02-24T11:00:00","67","4","54,6","2","122,1","30,7","40,7","336,3","0"],
    [26906,"2017-02-24T12:00:00","52","15","82,9","3,3","157,3","31,6","37,6","345,6","0"],
    [26907,"2017-02-24T13:00:00","64","12","96","2","143,8","32,2","36","259,1","0"],
    [26908,"2017-02-24T14:00:00","66","15","105","2,3","104,5","33","35,9","282,2","0"],
    [26909,"2017-02-24T15:00:00","61","15","102,5","3,1","114,6","33,4","34,3","289,8","0"],
    [26910,"2017-02-24T16:00:00","72","10","124,7","2,6","81,6","34,2","32,8","304,1","0"],
    [26911,"2017-02-24T17:00:00","77","28","149","3,3","13,9","33,7","34","137,6","0"],
    [26912,"2017-02-24T18:00:00","59","9","67,8","3,8","329,9","32,5","35,6","53,6","0"],
    [26913,"2017-02-24T19:00:00","42","6","35,1","5,4","288,6","30,6","39,3","0","0"],
    [26914,"2017-02-24T20:00:00","47","2","28,4","4,5","307,2","29,7","42,9","0","0"],
    [26915,"2017-02-24T21:00:00","59","12","12,3","2,7","75,4","27,4","55","0","0"],
    [26916,"2017-02-24T22:00:00","46","7","11,9","3,2","68,2","26,6","57,7","0","0"],
    [26917,"2017-02-24T23:00:00","53","15","17,1","2,4","33","26,6","56,5","0","0"],
    [26918,"2017-02-25T00:00:00","59","8","11,3","1,7","67,8","26,4","57,8","0","0"],
    [26919,"2017-02-25T01:00:00","36","3","11,2","2,5","68,1","25,9","60,9","0","0"],
    [26920,"2017-02-25T02:00:00","42","6","14,4","1,4","19","25,9","60,9","0","0"],
    [26921,"2017-02-25T03:00:00","46","6","12,4","0,6","69,2","25,7","61,7","0","0"],
    [26922,"2017-02-25T04:00:00","48","5","9,8","2,7","90,4","25,3","63,8","0","0"],
    [26923,"2017-02-25T05:00:00","49","2","9,2","1,7","71,3","25,1","65,1","0","0"],
    [26924,"2017-02-25T06:00:00","77","25","9,2","2,3","112,5","25,2","65,4","0","0"],
    [26925,"2017-02-25T07:00:00","68","19","8,8","0,7","133,6","25,1","66,8","0","0"],
    [26926,"2017-02-25T08:00:00","58","16","9,3","2,3","167,1","24,1","76,1","19,3","8,89"],
    [26927,"2017-02-25T09:00:00","54","16","13","3,4","215,8","24,9","73,8","77,6","0,25"],
    [26928,"2017-02-25T10:00:00","84","22","12,2","2,7","154,5","25,4","71,8","35,4","0"],
    [26929,"2017-02-25T11:00:00","65","4","19,7","3,9","194,3","25,3","70,5","72,7","0"],
    [26930,"2017-02-25T12:00:00","56","10","25,7","3,4","140,1","25,4","72,3","175,9","0,25"],
    [26931,"2017-02-25T13:00:00","40","9","62,5","1,8","264","28,4","60,9","321","0"],
    [26932,"2017-02-25T14:00:00","37","6","86,2","1","185,6","32","45","413,8","0"],
    [26933,"2017-02-25T15:00:00","42","9","105,6","2,4","65","32,3","41,8","229,6","0"],
    [26934,"2017-02-25T16:00:00","66","11","69,5","1,3","334,7","31,1","44,2","45,5","0"],
    [26935,"2017-02-25T17:00:00","57","16","45,1","4,8","102,9","27,9","56,3","20","0,76"],
    [26936,"2017-02-25T18:00:00","67","15","34,3","3,3","183,8","26,4","64,2","0","0"],
    [26937,"2017-02-25T19:00:00","45","10","36,7","5","196,9","25","70,6","0","0"],
    [26938,"2017-02-25T20:00:00","25","5","37,2","5,4","204","23,7","73,5","0","0"],
    [26939,"2017-02-25T21:00:00","31","1","26,9","3,1","205,4","23,6","73,6","0","0"],
    [26940,"2017-02-25T22:00:00","48","3","18,1","3,8","108,1","23,5","73,2","0","0"],
    [26941,"2017-02-25T23:00:00","49","6","13,5","1,5","81,6","23,3","73,6","0","0"],
    [26942,"2017-02-26T00:00:00","59","11","19,2","2","351,3","23,6","72","0","0"],
    [26943,"2017-02-26T01:00:00","70","17","16,8","1,4","47,4","23,9","70,3","0","0"],
    [26944,"2017-02-26T02:00:00","51","14","19,3","0,8","79,5","24,1","69,5","0","0"],
    [26945,"2017-02-26T03:00:00","56","8","13,2","1,5","167,4","23,7","72,6","0","0"],
    [26946,"2017-02-26T04:00:00","38","ND","11,6","1,5","205,5","23,6","74,6","0","0"],
    [26947,"2017-02-26T05:00:00","41","ND","8","1,9","159,7","23,5","76,7","0","0"],
    [26948,"2017-02-26T06:00:00","35","1","8,6","0,5","127,4","23,5","75,7","0","0"],
    [26949,"2017-02-26T07:00:00","69","20","8,8","2,2","65,9","23,5","75,4","0","0"],
    [26950,"2017-02-26T08:00:00","63","17","11,2","2,4","7,2","23,6","73,9","11,9","0"],
    [26951,"2017-02-26T09:00:00","44","5","17,2","1,1","315,1","24,4","70,7","54,2","0"],
    [26952,"2017-02-26T10:00:00","73","27","24,4","2,1","181,6","25,7","66,6","94,2","0"],
    [26953,"2017-02-26T11:00:00","64","23","42,7","2,8","185,2","27,3","60","199,9","0"],
    [26954,"2017-02-26T12:00:00","52","18","58,8","1,9","145,5","28,8","53,1","259,9","0"],
    [26955,"2017-02-26T13:00:00","45","4","87","1,2","107,8","30,2","45,5","256,2","0"],
    [26956,"2017-02-26T14:00:00","42","12","79,5","2,2","119,5","31,4","42,2","314,6","0"],
    [26957,"2017-02-26T15:00:00","51","9","81,6","3,3","267,1","30,2","43,8","98,2","0"],
    [26958,"2017-02-26T16:00:00","28","4","65,2","4,8","275,8","29","45,9","87,2","0"],
    [26959,"2017-02-26T17:00:00","32","8","73,3","1,8","244,7","30,1","43,9","81,3","0"],
    [26960,"2017-02-26T18:00:00","56","7","56,3","4,8","102,3","27,6","58,4","26,5","0"],
    [26961,"2017-02-26T19:00:00","71","13","37","1,9","75,1","26,9","63,5","0","0"],
    [26962,"2017-02-26T20:00:00","63","24","29,9","1,4","87,9","26,7","63,2","0","0"],
    [26963,"2017-02-26T21:00:00","75","12","23,2","1,8","215,6","26,3","61,8","0","0"],
    [26964,"2017-02-26T22:00:00","69","15","9,8","1,1","102,7","25,7","64","0","0"],
    [26965,"2017-02-26T23:00:00","65","22","10","0,7","46,2","25,2","67,3","0","0"],
    [26966,"2017-02-27T00:00:00","43","10","14,1","1","29,3","24,9","65,3","0","0"],
    [26967,"2017-02-27T01:00:00","45","10","12,3","1,7","198,8","25,1","66,1","0","0"],
    [26968,"2017-02-27T02:00:00","49","11","11,4","1,8","102,9","24,7","69,4","0","0"],
    [26969,"2017-02-27T03:00:00","42","5","9","2,5","98,7","23,7","72,6","0","0"],
    [26970,"2017-02-27T04:00:00","48","ND","8,6","2,1","340,2","23,6","73,5","0","0"],
    [26971,"2017-02-27T05:00:00","37","6","8,6","1,8","325,6","23,8","73,3","0","0"],
    [26972,"2017-02-27T06:00:00","82","26","8,7","1,2","64,2","23,8","73,3","0","0"],
    [26973,"2017-02-27T07:00:00","56","17","9,1","0,5","184,4","24,1","72,2","0","0"],
    [26974,"2017-02-27T08:00:00","78","15","9,7","1,8","188,7","24,3","71,4","18,7","0"],
    [26975,"2017-02-27T09:00:00","56","12","16,5","1,3","202","25,6","63,3","72,4","0"],
    [26976,"2017-02-27T10:00:00","50","11","32","1,7","184,8","28","54,8","257,4","0"],
    [26977,"2017-02-27T11:00:00","33","7","45,1","2,5","211,9","29,3","50,5","352,3","0"],
    [26978,"2017-02-27T12:00:00","31","2","68,2","1,7","165,3","31,6","42,1","385,3","0"],
    [26979,"2017-02-27T13:00:00","49","2","82,2","3,3","105,7","32,2","40,1","417,1","0"],
    [26980,"2017-02-27T14:00:00","47","12","119,3","1,5","28,4","34,2","35,1","400","0"],
    [26981,"2017-02-27T15:00:00","60","22","142,6","2,7","358,5","34","34,8","247,9","0"],
    [26982,"2017-02-27T16:00:00","63","14","105,6","3,3","38,9","33","36,4","119,7","0"],
    [26983,"2017-02-27T17:00:00","51","12","57,4","3,9","20,3","32,5","36,8","60,8","0"],
    [26984,"2017-02-27T18:00:00","43","11","47,2","4,6","334,9","31,7","38,1","44,1","0"],
    [26985,"2017-02-27T19:00:00","40","7","31,8","5,1","289","30","42,5","0","0"],
    [26986,"2017-02-27T20:00:00","69","14","17,6","1,9","356,4","29,6","44,8","0","0"],
    [26987,"2017-02-27T21:00:00","64","19","15,2","2,5","73,7","28,1","51,9","0","0"],
    [26988,"2017-02-27T22:00:00","37","5","15,8","1,5","288,4","27,2","56,8","0","0"],
    [26989,"2017-02-27T23:00:00","67","11","11,9","3,1","223,6","27,5","57,2","0","0"],
    [26990,"2017-02-28T00:00:00","64","6","15,8","3,4","216,8","27,2","58,6","0","0"],
    [26991,"2017-02-28T01:00:00","24","ND","27,6","3,4","191,4","26,9","59,8","0","0"],
    [26992,"2017-02-28T02:00:00","23","ND","23,5","3,7","293,7","25,1","69,7","0","1,52"],
    [26993,"2017-02-28T03:00:00","22","ND","21,8","2,8","236,8","24,2","75,6","0","2,54"],
    [26994,"2017-02-28T04:00:00","20","ND","20,2","2,4","210,8","23,5","79,7","0","6,86"],
    [26995,"2017-02-28T05:00:00","35","ND","13,7","1,7","163,5","23,4","80,5","0","1,52"],
    [26996,"2017-02-28T06:00:00","41","3","10,8","2,3","153","23,5","79,6","0","0"],
    [26997,"2017-02-28T07:00:00","44","13","9,8","2,1","147,5","23,6","79,3","0","0"],
    [26998,"2017-02-28T08:00:00","34","8","13,1","2,1","222,8","24","76,4","15,4","0"],
    [26999,"2017-02-28T09:00:00","41","11","12,9","0,5","153,3","24,9","72,9","37,9","0"],
    [27000,"2017-02-28T10:00:00","43","8","19,4","2,3","90,7","26,1","68,4","138,7","0"],
    [27001,"2017-02-28T11:00:00","32","6","38","1,8","80,8","27,9","59,8","247,6","0"],
    [27002,"2017-02-28T12:00:00","36","6","68,7","1","92,1","30,4","49,6","472","0"],
    [27003,"2017-02-28T13:00:00","35","4","61,4","3,8","91,3","31,7","44,9","370,9","0"],
    [27004,"2017-02-28T14:00:00","42","3","76,4","4,8","52,9","32,8","40,9","411,8","0"],
    [27005,"2017-02-28T15:00:00","38","4","69,1","2,7","14,2","31,8","42,9","184,8","0"],
    [27006,"2017-02-28T16:00:00","38","6","34,1","6,7","254,3","27,7","57,6","31,8","0"],
    [27007,"2017-02-28T17:00:00","46","3","35,1","7,5","214,6","24,9","69,5","6","0"],
    [27008,"2017-02-28T18:00:00","45","6","23,7","2,9","185,9","24,1","73","0","0,25"],
    [27009,"2017-02-28T19:00:00","46","9","17,6","3,6","135","23,7","72,9","0","0"],
    [27010,"2017-02-28T20:00:00","30","5","28,9","2,6","276,8","24,1","68,7","0","0"],
    [27011,"2017-02-28T21:00:00","28","1","19,8","2,1","307,2","24,4","68","0","0"],
    [27012,"2017-02-28T22:00:00","61","17","8","3,1","92,8","24","74,4","0","0"],
    [27013,"2017-02-28T23:00:00","55","7","9,1","2","212","23,6","75,5","0","0"],
    [27014,"2017-03-01T00:00:00","53","19","8,5","1,4","315","23,8","75,3","0","0"],
    [27015,"2017-03-01T01:00:00","55","ND","7,8","2,5","67,5","23,4","76,6","0","0"],
    [27016,"2017-03-01T02:00:00","50","9","7,7","0,8","1,7","23,2","78,1","0","0"],
    [27017,"2017-03-01T03:00:00","52","7","8,8","1,1","150,9","23,6","75,7","0","0"],
    [27018,"2017-03-01T04:00:00","45","4","7,1","2,5","197,3","23,1","78,3","0","0"],
    [27019,"2017-03-01T05:00:00","44","3","7,8","1,6","127","22,7","80,1","0","0"],
    [27020,"2017-03-01T06:00:00","76","19","7,7","2,3","79,4","22,6","81","0","0"],
    [27021,"2017-03-01T07:00:00","88","30","8,2","2,1","119,6","23","79,4","0","0"],
    [27022,"2017-03-01T08:00:00","66","20","8,6","0,8","265,4","23,8","75,9","42,3","0"],
    [27023,"2017-03-01T09:00:00","98","30","16,9","2","54,6","26,4","66,2","194,1","0"],
    [27024,"2017-03-01T10:00:00","59","11","32,3","3,1","75,6","27,7","59,2","327,2","0"],
    [27025,"2017-03-01T11:00:00","66","13","52,5","2,3","88,6","29,1","52,1","266,9","0"],
    [27026,"2017-03-01T12:00:00","62","19","71,3","1,7","133,6","31","46,2","333,2","0"],
    [27027,"2017-03-01T13:00:00","65","14","85,1","2,5","137,9","32,6","39,9","379","0"],
    [27028,"2017-03-01T14:00:00","70","16","104,6","0,6","149,5","32,3","39,9","151","0"],
    [27029,"2017-03-01T15:00:00","60","3","120,5","4,5","315,3","32,3","40,3","293,6","0"],
    [27030,"2017-03-01T16:00:00","42","6","56,2","5,3","27,7","32,8","37","192,9","0"],
    [27031,"2017-03-01T17:00:00","41","10","44,9","5,5","357","32,3","37,8","118,4","0"],
    [27032,"2017-03-01T18:00:00","46","11","29,2","4,6","340,9","30,3","42,8","33","0"],
    [27033,"2017-03-01T19:00:00","54","12","23","2,9","26","29,1","47,2","0","0"],
    [27034,"2017-03-01T20:00:00","52","19","21,7","2,5","178,7","27,4","58,3","0","0"],
    [27035,"2017-03-01T21:00:00","42","11","37,6","5,2","196,3","25,9","67,1","0","0"],
    [27036,"2017-03-01T22:00:00","51","7","29,9","4","188,6","25,8","67,5","0","0"],
    [27037,"2017-03-01T23:00:00","29","2","18,9","3,1","158,5","24,6","71,9","0","0"],
    [27038,"2017-03-02T00:00:00","34","ND","17,2","1,6","139,4","24,4","70,9","0","0"],
    [27039,"2017-03-02T01:00:00","21","ND","24,3","2,3","122,8","24,3","72","0","0"],
    [27040,"2017-03-02T02:00:00","29","ND","22","2,1","117,7","24,2","73,2","0","0"],
    [27041,"2017-03-02T03:00:00","40","ND","14,2","2,6","67,8","23,7","76,2","0","0"],
    [27042,"2017-03-02T04:00:00","42","2","16,6","1,9","341,6","23,6","76,2","0","0"],
    [27043,"2017-03-02T05:00:00","44","2","12,3","1,8","141,2","23,8","75,8","0","0"],
    [27044,"2017-03-02T06:00:00","54","5","9,3","2,5","201,4","23,8","76,7","0","0"],
    [27045,"2017-03-02T07:00:00","40","5","13","2,7","205,3","23,6","76,2","0","0"],
    [27046,"2017-03-02T08:00:00","47","7","ND","1,4","161,8","24,4","72,7","37,4","0"],
    [27047,"2017-03-02T09:00:00","37","4","33,6","1,5","182,6","26,1","64,4","94,6","0"],
    [27048,"2017-03-02T10:00:00","36","5","35,7","2,4","117,9","27,6","58,6","266,8","0"],
    [27049,"2017-03-02T11:00:00","46","2","55","1,1","62,7","30,6","47,3","403,8","0"],
    [27050,"2017-03-02T12:00:00","27","ND","71,8","1,7","142,7","31,5","43","415,7","0"],
    [27051,"2017-03-02T13:00:00","31","3","74,7","1,9","108,9","33,6","36,5","407,9","0"],
    [27052,"2017-03-02T14:00:00","48","14","76,4","4","89,6","33,4","37,7","330,1","0"],
    [27053,"2017-03-02T15:00:00","ND","ND","79,3","4,3","61","33,5","37,7","274","0"],
    [27054,"2017-03-02T16:00:00","55","19","86,1","3,6","347,5","32,8","37,7","137,5","0"],
    [27055,"2017-03-02T17:00:00","31","2","62,2","5,8","302,8","32,6","37,6","134,9","0"],
    [27056,"2017-03-02T18:00:00","57","4","38,2","4,7","304,4","31,1","40,8","16,6","0"],
    [27057,"2017-03-02T19:00:00","71","17","19","1,8","1,9","30,4","45","0","0"],
    [27058,"2017-03-02T20:00:00","71","11","12,1","1,7","179,3","29,6","48,9","0","0"],
    [27059,"2017-03-02T21:00:00","56","8","11,3","2,5","107,6","28,4","55,1","0","0"],
    [27060,"2017-03-02T22:00:00","54","7","12,3","0,5","217,6","27,8","59,1","0","0"],
    [27061,"2017-03-02T23:00:00","39","5","24,4","3,6","191,9","27,2","62,4","0","0"],
    [27062,"2017-03-03T00:00:00","36","2","18","2,8","145,3","26,8","64,3","0","0"],
    [27063,"2017-03-03T01:00:00","24","ND","20,9","2","151,1","26,3","65,9","0","0"],
    [27064,"2017-03-03T02:00:00","31","ND","17","2,9","114,5","25,8","69,2","0","0"],
    [27065,"2017-03-03T03:00:00","40","ND","14,1","1,2","125,5","25,6","70,4","0","0"],
    [27066,"2017-03-03T04:00:00","49","8","10,8","2,6","74,9","25,7","69,5","0","0"],
    [27067,"2017-03-03T05:00:00","60","4","8,1","2,5","77,8","25,4","69,8","0","0"],
    [27068,"2017-03-03T06:00:00","81","7","8,3","2,1","92,3","25,5","69,2","0","0"],
    [27069,"2017-03-03T07:00:00","67","5","7,7","2,2","114,2","25,5","71,2","0","0"],
    [27070,"2017-03-03T08:00:00","61","4","8,6","2,4","157,8","25,3","74,6","19,6","0,51"],
    [27071,"2017-03-03T09:00:00","25","ND","18,1","4,5","210","23,8","78,6","54,2","2,03"],
    [27072,"2017-03-03T10:00:00","20","ND","27,4","3,1","210,6","25,5","72,8","186,2","0"],
    [27073,"2017-03-03T11:00:00","20","ND","44,9","2,4","181,5","29,1","57,3","357,7","0"],
    [27074,"2017-03-03T12:00:00","17","ND","62,5","1,7","105,3","31,5","45,5","443,6","0"],
    [27075,"2017-03-03T13:00:00","ND","ND","ND","ND","ND","ND","ND","ND","ND"],
    [27076,"2017-03-03T14:00:00","43","3","101,7","0,5","87,9","33","40,4","229","0"],
    [27077,"2017-03-03T15:00:00","38","ND","118,1","2,1","327,6","32,9","39,8","215,5","0"],
    [27078,"2017-03-03T16:00:00","40","ND","104,8","3","348","34,1","35,9","288","0"],
    [27079,"2017-03-03T17:00:00","24","ND","76,3","5,8","318,7","33,7","33,1","204,5","0"],
    [27080,"2017-03-03T18:00:00","24","ND","58,8","6,2","299,7","32,6","34","66,5","0"],
    [27081,"2017-03-03T19:00:00","56","ND","32,5","5","307,7","30,4","39,1","0","0"],
    [27082,"2017-03-03T20:00:00","95","27","13,8","2,1","63,1","29","45,2","0","0"],
    [27083,"2017-03-03T21:00:00","74","14","12,9","2,3","88,1","27,7","51,9","0","0"],
    [27084,"2017-03-03T22:00:00","70","25","14,6","0,8","210,9","26,8","55,8","0","0"],
    [27085,"2017-03-03T23:00:00","72","19","13,8","3,5","221,6","26,4","59,4","0","0"],
    [27086,"2017-03-04T00:00:00","54","2","19,4","3","204,5","26,1","64","0","0"],
    [27087,"2017-03-04T01:00:00","37","5","18,7","1,2","227","25,5","67,4","0","0"],
    [27088,"2017-03-04T02:00:00","39","3","11,8","1,3","104,4","24,9","69,5","0","0"],
    [27089,"2017-03-04T03:00:00","71","16","8,7","0,9","59,4","24,3","70,8","0","0"],
    [27090,"2017-03-04T04:00:00","97","25","10,4","1,2","69,2","23,8","70,9","0","0"],
    [27091,"2017-03-04T05:00:00","71","12","7,7","1,1","108,4","23,4","71,8","0","0"],
    [27092,"2017-03-04T06:00:00","88","26","8,8","1","131,2","23,5","72,6","0","0"],
    [27093,"2017-03-04T07:00:00","112","32","8,6","1,6","92,9","23,3","72,7","5,7","0"],
    [27094,"2017-03-04T08:00:00","118","38","10,4","1,9","79,7","23,9","70,4","71,8","0"],
    [27095,"2017-03-04T09:00:00","83","20","21,1","1,8","131,8","26,7","61","192","0"],
    [27096,"2017-03-04T10:00:00","54","10","52,4","1,4","138,7","29,5","49,7","305,9","0"],
    [27097,"2017-03-04T11:00:00","55","7","79,1","2,2","165,8","31,6","42,6","398,3","0"],
    [27098,"2017-03-04T12:00:00","61","11","91","1,8","88,2","33,3","37,6","445,5","0"],
    [27099,"2017-03-04T13:00:00","54","8","100,7","3","85,9","34,3","34,5","443,3","0"],
    [27100,"2017-03-04T14:00:00","45","7","108,4","3,1","110,9","35,8","30,2","440,6","0"],
    [27101,"2017-03-04T15:00:00","48","13","142,6","2,9","44,1","35,9","29,6","365","0"],
    [27102,"2017-03-04T16:00:00","58","13","119","4,1","107,5","35,3","31","150,1","0"],
    [27103,"2017-03-04T17:00:00","62","15","72,9","5,1","99,2","34","35,1","75,1","0"],
    [27104,"2017-03-04T18:00:00","66","13","54,3","3,4","100,6","33,4","36,6","37,1","0"],
    [27105,"2017-03-04T19:00:00","52","7","50,6","4,6","276,3","31,6","42","0","0"],
    [27106,"2017-03-04T20:00:00","35","6","39,2","6,1","296,7","30,3","46,3","0","0"],
    [27107,"2017-03-04T21:00:00","57","6","17,7","2,9","101,3","28,8","53,1","0","0"],
    [27108,"2017-03-04T22:00:00","58","5","15,8","3,5","93,2","27,1","60,8","0","0"],
    [27109,"2017-03-04T23:00:00","50","8","17,4","3","36,9","27,1","60,6","0","0"],
    [27110,"2017-03-05T00:00:00","40","8","20,1","1,5","71,2","27,5","58,4","0","0"],
    [27111,"2017-03-05T01:00:00","45","4","13,6","3,1","121,3","26,3","64,2","0","0"],
    [27112,"2017-03-05T02:00:00","49","4","11,4","2","120,4","26,3","64,7","0","0"],
    [27113,"2017-03-05T03:00:00","51","8","11,7","0,2","21","25,7","66,9","0","0"],
    [27114,"2017-03-05T04:00:00","65","11","9,7","1","294,1","26","66,4","0","0"],
    [27115,"2017-03-05T05:00:00","67","9","8,2","2,6","128,7","25,4","70,2","0","0"],
    [27116,"2017-03-05T06:00:00","58","11","9,2","0,4","212,5","25,1","70,8","0","0"],
    [27117,"2017-03-05T07:00:00","56","6","11,1","2,3","213,3","25,6","68,1","0","0"],
    [27118,"2017-03-05T08:00:00","66","13","10,2","2","145","25,7","69,9","33,4","0,25"],
    [27119,"2017-03-05T09:00:00","61","19","23,5","1,2","159","27,5","59,5","120,3","0"],
    [27120,"2017-03-05T10:00:00","54","2","39,1","3,1","100,5","29,6","54,4","279,2","0"],
    [27121,"2017-03-05T11:00:00","51","8","67,3","2,7","147,8","32,2","45,5","364,9","0"],
    [27122,"2017-03-05T12:00:00","50","6","78,5","2,4","158,9","32,3","43,6","278,4","0"],
    [27123,"2017-03-05T13:00:00","43","8","94,6","3,2","44,5","32,9","41,2","275,7","0"],
    [27124,"2017-03-05T14:00:00","55","17","90,5","3,9","52,2","33,1","41,2","237","0"],
    [27125,"2017-03-05T15:00:00","43","ND","85","3,8","25","32,9","41,4","168,3","0"],
    [27126,"2017-03-05T16:00:00","39","ND","72,1","4,3","34,5","32,9","40,5","153","0"],
    [27127,"2017-03-05T17:00:00","40","ND","62,9","5","27,9","32,2","41,3","82,6","0"],
    [27128,"2017-03-05T18:00:00","32","ND","41,5","3,1","8,5","31,3","44,6","28,1","0"],
    [27129,"2017-03-05T19:00:00","33","1","25,6","2,5","333,3","30,1","47,6","0","0"],
    [27130,"2017-03-05T20:00:00","46","8","20,4","2,7","18,8","29","49,6","0","0"],
    [27131,"2017-03-05T21:00:00","57","15","14,1","2","55","28,2","53,5","0","0"],
    [27132,"2017-03-05T22:00:00","41","7","11,9","3,5","107,1","26,3","63,6","0","0"],
    [27133,"2017-03-05T23:00:00","37","ND","11,9","3","92,3","25,8","65,3","0","0"],
    [27134,"2017-03-06T00:00:00","27","ND","14,2","2,7","87,9","25,6","65,2","0","0"],
    [27135,"2017-03-06T01:00:00","27","ND","19,3","2,5","95,2","25,6","64,7","0","0"],
    [27136,"2017-03-06T02:00:00","26","ND","19,1","2,4","107,2","25,7","65,5","0","0"],
    [27137,"2017-03-06T03:00:00","38","ND","21,1","1,4","81,7","25,8","65,2","0","0"],
    [27138,"2017-03-06T04:00:00","41","ND","22,8","0,8","164,2","25,9","63,9","0","0"],
    [27139,"2017-03-06T05:00:00","48","ND","15,3","1,9","180,8","26","65,9","0","0"],
    [27140,"2017-03-06T06:00:00","62","12","9","1,8","121,9","26","67,5","0","0"],
    [27141,"2017-03-06T07:00:00","83","17","8,8","2,1","90,6","26","66,2","4,7","0"],
    [27142,"2017-03-06T08:00:00","85","16","11,7","1,9","39,1","26,3","64,9","40,1","0"],
    [27143,"2017-03-06T09:00:00","65","ND","24,3","1","151,2","28,1","58,6","185,6","0"],
    [27144,"2017-03-06T10:00:00","56","9","41,9","2,4","169,6","29,9","53,6","271,3","0"],
    [27145,"2017-03-06T11:00:00","34","4","65","3,2","179,2","31,4","48","349,5","0"],
    [27146,"2017-03-06T12:00:00","28","5","110,2","1,2","246,8","32,6","41,5","432,7","0"],
    [27147,"2017-03-06T13:00:00","59","14","ND","1,5","111,9","34,1","37,9","304,1","0"],
    [27148,"2017-03-06T14:00:00","48","13","ND","2,9","108,8","35","35,4","350,5","0"],
    [27149,"2017-03-06T15:00:00","57","12","ND","2,4","103,6","35,5","33,8","261,3","0"],
    [27150,"2017-03-06T16:00:00","58","19","ND","2,1","47,2","35,3","34,4","139,6","0"],
    [27151,"2017-03-06T17:00:00","32","ND","65,4","4,7","313,2","33,9","37,4","70,6","0"],
    [27152,"2017-03-06T18:00:00","49","4","44,9","2,1","101,1","30,7","48,6","12","0,25"],
    [27153,"2017-03-06T19:00:00","43","16","30,9","4,3","40,5","26,5","67,6","0","2,03"],
    [27154,"2017-03-06T20:00:00","31","4","22,4","4,3","48","25","76,9","0","14,99"],
    [27155,"2017-03-06T21:00:00","26","4","16,9","1,8","358,9","25,2","72,1","0","1,27"],
    [27156,"2017-03-06T22:00:00","43","10","11,1","2,9","92,7","24,6","77,3","0","0"],
    [27157,"2017-03-06T23:00:00","36","11","12,4","3,4","229,3","24,6","75,8","0","0"],
    [27158,"2017-03-07T00:00:00","28","6","13","2,3","233","25,4","70","0","0"],
    [27159,"2017-03-07T01:00:00","29","ND","12,3","2,8","133,6","24,9","73,4","0","0"],
    [27160,"2017-03-07T02:00:00","38","ND","10,5","1,6","62","24,6","75,5","0","0"],
    [27161,"2017-03-07T03:00:00","37","ND","9,5","2,4","70,9","24,4","76,6","0","0"],
    [27162,"2017-03-07T04:00:00","45","ND","8,4","2,6","85,2","24,2","78,2","0","0"],
    [27163,"2017-03-07T05:00:00","42","ND","8,5","1,5","73,7","24,3","76,8","0","0"],
    [27164,"2017-03-07T06:00:00","35","ND","12,6","1,7","346,2","24,5","74,1","0","0"],
    [27165,"2017-03-07T07:00:00","41","5","9,7","1,2","100,3","24,5","74,3","0","0,25"],
    [27166,"2017-03-07T08:00:00","23","4","12,2","1,3","148,9","24,7","73,6","13,9","0,25"],
    [27167,"2017-03-07T09:00:00","23","ND","19","3,4","200,6","25,1","73,1","89","0"],
    [27168,"2017-03-07T10:00:00","26","ND","34,1","1,3","139","27,3","62,7","267","0"],
    [27169,"2017-03-07T11:00:00","26","ND","63,4","0,9","38,8","29,6","52,3","349,1","0"],
    [27170,"2017-03-07T12:00:00","38","ND","69,6","3,1","102,1","31","48,2","428,6","0"],
    [27171,"2017-03-07T13:00:00","42","7","83,4","3,6","73","32,1","43,3","368,4","0"],
    [27172,"2017-03-07T14:00:00","38","7","88,9","4,2","77,7","32,8","40,4","278","0"],
    [27173,"2017-03-07T15:00:00","42","8","65,7","2,4","16,1","31,3","44,5","44,5","0"],
    [27174,"2017-03-07T16:00:00","44","3","50","3,1","213,3","27,2","60,8","11,7","0"],
    [27175,"2017-03-07T17:00:00","32","ND","45,4","6,1","232,2","25,4","67,5","21,9","0"],
    [27176,"2017-03-07T18:00:00","45","2","31,2","1,6","201,8","26,1","63,1","12,9","0"],
    [27177,"2017-03-07T19:00:00","62","14","14,1","3,4","86","25,5","68,9","0","0"],
    [27178,"2017-03-07T20:00:00","68","18","14,4","1,1","93,1","25,9","67,8","0","0"],
    [27179,"2017-03-07T21:00:00","81","17","14,1","0,5","208,7","26,1","67,8","0","0"],
    [27180,"2017-03-07T22:00:00","76","17","20,8","1,7","233,4","26,1","66,5","0","0"],
    [27181,"2017-03-07T23:00:00","49","3","20,7","0,6","126,7","26,6","62,8","0","0"],
    [27182,"2017-03-08T00:00:00","48","7","9,8","2","125,7","26","68,5","0","0"],
    [27183,"2017-03-08T01:00:00","26","4","12,9","2,9","77,2","24,3","79,1","0","4,06"],
    [27184,"2017-03-08T02:00:00","37","ND","24,6","2","85,8","24","78,9","0","0,76"],
    [27185,"2017-03-08T03:00:00","18","ND","25,1","1,2","28,7","23,8","79,4","0","0,25"],
    [27186,"2017-03-08T04:00:00","29","ND","20","2,4","76,7","23,8","80,4","0","1,52"],
    [27187,"2017-03-08T05:00:00","26","ND","17,8","3,4","81,9","23,4","82,3","0","12,95"],
    [27188,"2017-03-08T06:00:00","30","ND","12,9","2,6","49,5","23,2","82,7","0","15,49"],
    [27189,"2017-03-08T07:00:00","30","ND","13,6","2,5","50,8","22,9","84","0","19,56"],
    [27190,"2017-03-08T08:00:00","16","ND","13,6","2,2","353,2","23","82,9","0","5,59"],
    [27191,"2017-03-08T09:00:00","31","ND","10,9","0,3","310,2","23,6","80,6","13,6","0,25"],
    [27192,"2017-03-08T10:00:00","28","4","11,4","0,4","138,8","24,7","77,4","50,9","0,25"],
    [27193,"2017-03-08T11:00:00","52","6","18,2","2,4","80,7","25,8","73,2","106,7","0"],
    [27194,"2017-03-08T12:00:00","43","6","30,4","2,4","25,9","26,3","69,5","118,3","0"],
    [27195,"2017-03-08T13:00:00","36","8","36,5","2,1","12,4","27,1","65,1","143,1","0"],
    [27196,"2017-03-08T14:00:00","36","4","47,5","1,5","43,4","28,2","60,4","160,1","0"],
    [27197,"2017-03-08T15:00:00","52","7","49","2,5","93,9","28,8","58","176,6","0"],
    [27198,"2017-03-08T16:00:00","38","5","47,3","2,6","77,2","29,3","55,8","143,1","0"],
    [27199,"2017-03-08T17:00:00","41","1","48,1","2,5","53,9","29,5","53","113,7","0"],
    [27200,"2017-03-08T18:00:00","46","3","46,5","2,9","19","28,7","57,5","30,2","0"],
    [27201,"2017-03-08T19:00:00","61","9","23","2,1","1,6","27,8","60,7","0","0"],
    [27202,"2017-03-08T20:00:00","83","18","13,3","1,7","32,9","27,5","61,8","0","0"],
    [27203,"2017-03-08T21:00:00","64","5","17,7","0,6","63,3","27,3","62,3","0","0"],
    [27204,"2017-03-08T22:00:00","73","19","11,4","2,2","143,2","27,2","64,4","0","0"],
    [27205,"2017-03-08T23:00:00","54","12","10,4","1,3","188,6","26,3","70,5","0","0"],
    [27206,"2017-03-09T00:00:00","87","12","9,4","0,5","34,4","25,9","71,9","0","0"],
    [27207,"2017-03-09T01:00:00","67","13","9,1","1,9","53","25,4","73,9","0","0"],
    [27208,"2017-03-09T02:00:00","47","5","9,1","2,3","42,7","25","74,2","0","0"],
    [27209,"2017-03-09T03:00:00","44","ND","9","0,9","111,1","24,9","74,2","0","0"],
    [27210,"2017-03-09T04:00:00","44","5","9,3","1,5","123,3","24,9","73,8","0","0"],
    [27211,"2017-03-09T05:00:00","66","3","8,5","2,6","103","24,5","75,8","0","0"],
    [27212,"2017-03-09T06:00:00","68","13","8,4","1,1","3,1","24,7","74,8","0","0"],
    [27213,"2017-03-09T07:00:00","61","8","8,8","0,2","41,9","24,8","73,5","0","0"],
    [27214,"2017-03-09T08:00:00","73","12","11,7","1,8","211,7","25,5","71,7","60,9","0"],
    [27215,"2017-03-09T09:00:00","54","9","29,9","0,5","265,7","27,3","64,6","199,9","0"],
    [27216,"2017-03-09T10:00:00","60","16","44,9","4","101,2","28,8","59,1","300,5","0"],
    [27217,"2017-03-09T11:00:00","57","7","67,9","3","81,3","30,6","51,9","316,2","0"],
    [27218,"2017-03-09T12:00:00","43","6","83,2","1,9","15,8","32,3","44,5","356,1","0"],
    [27219,"2017-03-09T13:00:00","55","6","123,4","2,4","6","33,9","39,7","466,9","0"],
    [27220,"2017-03-09T14:00:00","60","20","123,7","3,3","28,1","34,1","38,7","334,2","0"],
    [27221,"2017-03-09T15:00:00","72","18","116,1","4,5","8,5","33,9","39,9","247,5","0"],
    [27222,"2017-03-09T16:00:00","48","1","48","4,9","33,5","33","41,4","100,5","0"],
    [27223,"2017-03-09T17:00:00","58","3","28","4,8","55,9","31,3","48","50,7","0"],
    [27224,"2017-03-09T18:00:00","63","9","27,6","3,7","77,2","28,5","55,7","9,1","0"],
    [27225,"2017-03-09T19:00:00","55","9","21","2,5","152,9","27,6","58,8","0","0"],
    [27226,"2017-03-09T20:00:00","62","9","23","3","181","27,5","63,2","0","0"],
    [27227,"2017-03-09T21:00:00","68","12","19,9","2,9","187,6","26,6","66,6","0","0"],
    [27228,"2017-03-09T22:00:00","58","7","22,8","1,9","233","26,4","66,1","0","0"],
    [27229,"2017-03-09T23:00:00","70","18","14,8","2","93,4","26,2","67,6","0","0"],
    [27230,"2017-03-10T00:00:00","85","21","10,1","1,8","88,9","25,3","72,2","0","0"],
    [27231,"2017-03-10T01:00:00","77","14","9,9","1,1","199,5","24,9","74,3","0","0"],
    [27232,"2017-03-10T02:00:00","67","10","11,3","0,7","152,2","25,6","71,5","0","0"],
    [27233,"2017-03-10T03:00:00","85","15","7,9","2,5","102,5","25,5","73,1","0","0"],
    [27234,"2017-03-10T04:00:00","53","8","12,1","3,4","127,8","25","76,2","0","2,79"],
    [27235,"2017-03-10T05:00:00","ND","ND","21,2","4,5","182,3","23,7","77,9","0","35,81"],
    [27236,"2017-03-10T06:00:00","19","1","15,3","3,6","141,7","22,6","81,4","0","15,49"],
    [27237,"2017-03-10T07:00:00","28","2","10,7","2,9","95,5","22,6","82,2","0","22,61"],
    [27238,"2017-03-10T08:00:00","28","2","11,1","2,4","94,7","22,7","82,6","34","11,43"],
    [27239,"2017-03-10T09:00:00","25","ND","23","1,3","331,2","24,1","79","186,5","0,51"],
    [27240,"2017-03-10T10:00:00","19","ND","45,5","2,6","288,6","28,1","60,6","378,9","0"],
    [27241,"2017-03-10T11:00:00","16","ND","74,7","1,1","233,8","30,7","47,6","323,4","0"],
    [27242,"2017-03-10T12:00:00","33","ND","96,6","1,6","79,2","32,3","41,8","247,1","0"],
    [27243,"2017-03-10T13:00:00","47","3","78,5","4,2","80,4","31,9","44","215,3","0"],
    [27244,"2017-03-10T14:00:00","32","ND","56,7","4,4","77,2","32,3","45,7","354,3","0"],
    [27245,"2017-03-10T15:00:00","34","ND","70,4","6","73,7","33,5","41,1","303,5","0"],
    [27246,"2017-03-10T16:00:00","46","7","65,8","6,2","68,2","31,8","46,5","141,7","0"],
    [27247,"2017-03-10T17:00:00","37","6","53,4","5,7","50,6","31,2","47,6","83","0"],
    [27248,"2017-03-10T18:00:00","58","7","29,8","3,8","58,2","30","51,2","14,4","0"],
    [27249,"2017-03-10T19:00:00","55","8","26,8","1,6","5,4","28,8","55,9","0","0"],
    [27250,"2017-03-10T20:00:00","64","16","18,6","2","99,1","28,2","58,9","0","0"],
    [27251,"2017-03-10T21:00:00","69","19","10,7","1,1","127","27,6","61,7","0","0"],
    [27252,"2017-03-10T22:00:00","80","20","11","1,1","39,6","26,6","66,1","0","0"],
    [27253,"2017-03-10T23:00:00","74","15","10,5","1,5","223,9","26,5","67,4","0","0"],
    [27254,"2017-03-11T00:00:00","39","1","10,7","3,4","201,4","26,6","67,3","0","0"],
    [27255,"2017-03-11T01:00:00","36","ND","11,7","1,6","173,6","25,4","71,8","0","0"],
    [27256,"2017-03-11T02:00:00","48","ND","10,6","1,8","124,3","25,2","72,7","0","0"],
    [27257,"2017-03-11T03:00:00","33","ND","10,6","1,8","172,7","24,9","74,3","0","0"],
    [27258,"2017-03-11T04:00:00","43","ND","9,4","1,3","115","24,9","74,2","0","0"],
    [27259,"2017-03-11T05:00:00","47","2","9,3","1,7","156,9","24,7","75,2","0","0"],
    [27260,"2017-03-11T06:00:00","59","5","7,5","1,8","181,4","24,8","74,9","0","0"],
    [27261,"2017-03-11T07:00:00","39","3","8,1","2,2","180,3","24,8","74","1,7","0"],
    [27262,"2017-03-11T08:00:00","56","5","9,5","1","146,6","25,1","72,8","31,2","0"],
    [27263,"2017-03-11T09:00:00","67","5","11,3","1","65,5","25,9","71,1","62,6","0"],
    [27264,"2017-03-11T10:00:00","53","11","40,5","2,4","262,8","28,5","59,1","337","0"],
    [27265,"2017-03-11T11:00:00","53","10","58,3","3,3","161,9","32,7","44,5","348,3","0"],
    [27266,"2017-03-11T12:00:00","72","20","57,7","5","122,1","32,4","47,1","261,4","0"],
    [27267,"2017-03-11T13:00:00","66","18","85,5","2,7","97,6","33,8","41,7","292,4","0"],
    [27268,"2017-03-11T14:00:00","43","6","67,9","4,8","298,7","32,4","43,2","119,2","0"],
    [27269,"2017-03-11T15:00:00","44","3","61,2","1,7","187,3","32","42,8","203,2","0"],
    [27270,"2017-03-11T16:00:00","44","6","51","5,3","65,2","34,2","39,2","166,8","0"],
    [27271,"2017-03-11T17:00:00","43","5","26,8","3,2","54,3","30,4","53,6","25,6","0"],
    [27272,"2017-03-11T18:00:00","33","9","18,2","0,5","159,2","28,6","61,8","5,2","0,25"],
    [27273,"2017-03-11T19:00:00","33","4","28,6","5,1","205,3","26,8","64,4","0","0"],
    [27274,"2017-03-11T20:00:00","25","ND","28,9","5,5","205,5","25,2","70,9","0","5,08"],
    [27275,"2017-03-11T21:00:00","26","1","19,3","3,5","182,6","23,8","78,8","0","0,25"],
    [27276,"2017-03-11T22:00:00","19","1","19,2","2","173,9","23,2","80,2","0","4,32"],
    [27277,"2017-03-11T23:00:00","15","ND","18,8","0,6","171,7","23","81,1","0","4,83"],
    [27278,"2017-03-12T00:00:00","26","ND","13,4","3","77,4","23,1","82,2","0","0"],
    [27279,"2017-03-12T01:00:00","22","ND","15,4","2,9","55,5","23,3","81,1","0","0,25"],
    [27280,"2017-03-12T02:00:00","14","ND","20,8","2,4","6,8","23,3","78,6","0","1,02"],
    [27281,"2017-03-12T03:00:00","10","ND","24","2,1","6","23,1","78,4","0","2,54"],
    [27282,"2017-03-12T04:00:00","23","ND","19,8","1,6","95,6","22,8","80,1","0","0,76"],
    [27283,"2017-03-12T05:00:00","15","ND","14,8","2,1","138,2","22,4","82,3","0","0,25"],
    [27284,"2017-03-12T06:00:00","21","ND","14,2","1,2","183,6","22,4","81,7","0","0"],
    [27285,"2017-03-12T07:00:00","30","1","13,3","2","211","22,9","80,7","3,1","0"],
    [27286,"2017-03-12T08:00:00","21","3","12,5","2","186,5","23,5","79","15","0,25"],
    [27287,"2017-03-12T09:00:00","26","3","12,4","1,6","177,1","23,7","79,3","32,2","0,76"],
    [27288,"2017-03-12T10:00:00","11","ND","18,4","1,4","135,8","24,2","76,5","63","1,02"],
    [27289,"2017-03-12T11:00:00","16","ND","17,8","2,1","111,9","25,2","73,5","67,3","0,51"],
    [27290,"2017-03-12T12:00:00","26","3","19,5","2,3","94,1","25,4","72,8","101,2","0,51"],
    [27291,"2017-03-12T13:00:00","30","6","27,3","1,8","141,2","26,7","67,7","179,5","0"],
    [27292,"2017-03-12T14:00:00","26","5","29,6","2,6","172,8","27,5","63,6","135,2","0,25"],
    [27293,"2017-03-12T15:00:00","28","1","37,7","1,7","173,2","27,8","61,2","180,4","0"],
    [27294,"2017-03-12T16:00:00","30","ND","47,6","1,5","225,5","29,1","54,5","148,3","0"],
    [27295,"2017-03-12T17:00:00","37","ND","36,6","2,4","123,2","29","55","88","0"],
    [27296,"2017-03-12T18:00:00","41","4","30,7","2,4","97,5","28,3","55,8","28,8","0"],
    [27297,"2017-03-12T19:00:00","61","14","18,6","1,4","70,2","26,8","60,7","0,7","0"],
    [27298,"2017-03-12T20:00:00","75","13","10,7","0,4","86,1","25,9","64,7","0","0"],
    [27299,"2017-03-12T21:00:00","88","20","10,2","1,1","38,9","25,8","66,1","0","0"],
    [27300,"2017-03-12T22:00:00","63","9","8,3","1,9","268,5","25,4","67,7","0","0"],
    [27301,"2017-03-12T23:00:00","87","14","8,1","0,8","83,6","25,1","71,5","0","0"],
    [27302,"2017-03-13T00:00:00","46","5","8,1","2","83","24,9","74,1","0","0"],
    [27303,"2017-03-13T01:00:00","28","ND","11,2","0,8","234","24,2","77,5","0","0"],
    [27304,"2017-03-13T02:00:00","37","1","9,4","0,5","318,2","24,2","77,4","0","0"],
    [27305,"2017-03-13T03:00:00","33","3","7,9","0,3","278,8","24,1","78,2","0","0"],
    [27306,"2017-03-13T04:00:00","37","ND","7,7","0,7","267,5","23,8","73,9","0","0"],
    [27307,"2017-03-13T05:00:00","59","18","7,9","1,6","137,1","23,7","78,3","0","0"],
    [27308,"2017-03-13T06:00:00","54","9","7,4","1,4","177,4","23,3","80,6","0","0"],
    [27309,"2017-03-13T07:00:00","54","9","7,8","1,1","205,8","23,2","80,8","4,3","0"],
    [27310,"2017-03-13T08:00:00","68","13","8,2","2","122,9","24,2","78","50,3","0"],
    [27311,"2017-03-13T09:00:00","40","7","12,7","0,3","161","25,7","70,4","94,6","0"],
    [27312,"2017-03-13T10:00:00","73","15","26,7","2","81,7","27,5","63,7","196,8","0"],
    [27313,"2017-03-13T11:00:00","58","16","61,6","2,7","61,2","30,4","52,3","385,2","0"],
    [27314,"2017-03-13T12:00:00","36","2","66,3","3,2","82,6","32,6","43,1","427,7","0"],
    [27315,"2017-03-13T13:00:00","42","3","73,4","2,9","53,9","34,3","38,1","470,7","0"],
    [27316,"2017-03-13T14:00:00","51","11","82,7","3,9","57,5","35,3","35,8","430","0"],
    [27317,"2017-03-13T15:00:00","43","7","81,7","3,7","86,8","35,5","35,3","372,2","0"],
    [27318,"2017-03-13T16:00:00","42","7","87,5","2,9","114,1","35,9","34,2","243,3","0"],
    [27319,"2017-03-13T17:00:00","38","4","57,9","5,7","295,4","32,3","42,4","18","0"],
    [27320,"2017-03-13T18:00:00","22","ND","27,7","7,8","282,7","28,7","56,6","13,8","0"],
    [27321,"2017-03-13T19:00:00","44","ND","22,5","2,8","36,8","28,8","55,4","0","0"],
    [27322,"2017-03-13T20:00:00","41","2","21,7","6,3","54,7","25,2","74,6","0","7,11"],
    [27323,"2017-03-13T21:00:00","41","2","14,8","1,9","34,2","24,1","80,4","0","5,08"],
    [27324,"2017-03-13T22:00:00","19","ND","14,7","1","281,6","23,6","81,3","0","0,76"],
    [27325,"2017-03-13T23:00:00","38","ND","15,4","4,2","223,8","24,2","80,1","0","0"],
    [27326,"2017-03-14T00:00:00","28","ND","22,7","3,9","206,9","24","78,4","0","0"],
    [27327,"2017-03-14T01:00:00","19","ND","20,3","2,5","129,6","23,8","78,9","0","0"],
    [27328,"2017-03-14T02:00:00","38","5","18,2","1,5","64,7","23,3","79,5","0","0"],
    [27329,"2017-03-14T03:00:00","36","2","17,8","2,5","109,1","23,6","77,9","0","0"],
    [27330,"2017-03-14T04:00:00","26","4","13,9","2,4","203,7","23,4","79,2","0","0,51"],
    [27331,"2017-03-14T05:00:00","29","8","11,6","0,8","132,2","23,5","80","0","0"],
    [27332,"2017-03-14T06:00:00","55","7","8,5","1","92,5","23,3","80,2","0","0"],
    [27333,"2017-03-14T07:00:00","44","8","9,4","1,6","202,8","23,2","81,1","11,4","0"],
    [27334,"2017-03-14T08:00:00","83","17","9,6","2,7","78,2","24,3","78","58,9","0"],
    [27335,"2017-03-14T09:00:00","69","21","18,2","1,3","347,7","26,3","69,5","170,1","0"],
    [27336,"2017-03-14T10:00:00","50","8","44,2","3,2","149,6","29,7","51,9","331,5","0"],
    [27337,"2017-03-14T11:00:00","26","5","51,3","2,4","180,7","32","42,8","387","0"],
    [27338,"2017-03-14T12:00:00","27","ND","52,2","3,5","107,2","33,6","38","329,2","0"],
    [27339,"2017-03-14T13:00:00","43","ND","54,9","2,6","71,4","32,5","41,7","141,9","0"],
    [27340,"2017-03-14T14:00:00","33","ND","41,2","6","290,6","30,3","48,8","44,2","3,81"],
    [27341,"2017-03-14T15:00:00","29","2","51,4","9,1","314,8","26,8","53,6","55","0,76"],
    [27342,"2017-03-14T16:00:00","38","ND","55,6","8,9","354,2","27,2","47,7","26,6","0"],
    [27343,"2017-03-14T17:00:00","47","2","36,1","6,4","44,3","26,6","56,5","24,9","0"],
    [27344,"2017-03-14T18:00:00","35","7","27,6","4,7","58,6","25,1","66","0","0"],
    [27345,"2017-03-14T19:00:00","33","7","33,8","5,5","195,9","24,9","65,3","0","0"],
    [27346,"2017-03-14T20:00:00","37","3","29,9","4,9","237,9","24,5","67","0","0"],
    [27347,"2017-03-14T21:00:00","58","2","20,7","2","173","24,4","69,2","0","0"],
    [27348,"2017-03-14T22:00:00","59","7","15,2","4","94,4","24,5","70,4","0","0"],
    [27349,"2017-03-14T23:00:00","65","8","15,5","0,8","23,1","23,5","74,5","0","0"],
    [27350,"2017-03-15T00:00:00","46","7","15,4","0,8","76,7","23,3","75,4","0","0"],
    [27351,"2017-03-15T01:00:00","48","4","18,8","1","28,7","23,3","75","0","0"],
    [27352,"2017-03-15T02:00:00","63","11","19,6","0,2","314,6","22,9","75,9","0","0"],
    [27353,"2017-03-15T03:00:00","49","16","21,8","1","261,6","23","74,5","0","0"],
    [27354,"2017-03-15T04:00:00","72","14","17,5","2,5","337,6","23,2","74,6","0","0"],
    [27355,"2017-03-15T05:00:00","70","21","10,9","1,9","130,7","23,6","74,3","0","0"],
    [27356,"2017-03-15T06:00:00","72","21","9,2","2,1","172,4","23","77,7","0","0"],
    [27357,"2017-03-15T07:00:00","63","10","9,6","1,7","160,1","23,2","77,7","0","0"],
    [27358,"2017-03-15T08:00:00","70","20","8,7","1,1","113,9","23,1","78,2","6,8","0"],
    [27359,"2017-03-15T09:00:00","60","21","9,3","1,7","149,3","23,6","76,8","16,8","2,29"],
    [27360,"2017-03-15T10:00:00","44","17","12,4","2,3","153,6","23,9","76,9","64,6","1,52"],
    [27361,"2017-03-15T11:00:00","25","ND","19,9","1,9","204,1","24,5","74,5","75,1","0,76"],
    [27362,"2017-03-15T12:00:00","19","ND","26,2","1,8","189,5","25,3","70","116,2","0"],
    [27363,"2017-03-15T13:00:00","24","3","32,8","1,6","192,2","26,4","64,6","143,3","0"],
    [27364,"2017-03-15T14:00:00","28","1","44,9","1,6","203,6","28","56,3","159","0"],
    [27365,"2017-03-15T15:00:00","36","ND","53,3","1,5","194,6","29,2","50,7","258,2","0"],
    [27366,"2017-03-15T16:00:00","32","ND","51,1","1,4","143","29,7","47,3","108,8","0"],
    [27367,"2017-03-15T17:00:00","49","7","38,5","1,9","132,7","28,8","50,2","63,9","0"],
    [27368,"2017-03-15T18:00:00","79","15","23,5","2,4","108,5","28,5","51,6","17,9","0"],
    [27369,"2017-03-15T19:00:00","110","24","12,7","1,6","83,3","26,8","56,9","0","0"],
    [27370,"2017-03-15T20:00:00","108","32","9,8","1,2","135,1","25,9","61,6","0","0"],
    [27371,"2017-03-15T21:00:00","118","56","12,5","2,1","214,1","25,5","65,4","0","0"],
    [27372,"2017-03-15T22:00:00","86","16","8,6","1,2","243,3","24,8","70,8","0","0"],
    [27373,"2017-03-15T23:00:00","89","11","8,9","1,3","255,9","24,3","70,8","0","0"],
    [27374,"2017-03-16T00:00:00","79","8","8,7","1","166,2","23,8","72,1","0","0"],
    [27375,"2017-03-16T01:00:00","39","5","8,4","1,1","167,5","23","76","0","0"],
    [27376,"2017-03-16T02:00:00","59","17","8,7","0,7","238","22,6","78,2","0","0"],
    [27377,"2017-03-16T03:00:00","39","5","8,5","0,8","183,9","22,9","77,4","0","0"],
    [27378,"2017-03-16T04:00:00","31","ND","8,9","1,3","160,8","22,8","74,5","0","0"],
    [27379,"2017-03-16T05:00:00","41","8","8,7","2,2","118,3","23,3","74,1","0","0"],
    [27380,"2017-03-16T06:00:00","66","13","8,4","1,5","123,4","23,1","76,3","0","0"],
    [27381,"2017-03-16T07:00:00","83","20","8,5","1","79","22,7","78,9","7,7","0"],
    [27382,"2017-03-16T08:00:00","113","31","9,5","1,5","55,6","23,4","77,2","49,2","0"],
    [27383,"2017-03-16T09:00:00","84","27","15,5","1,1","345","24,8","70,9","116,1","0"],
    [27384,"2017-03-16T10:00:00","67","17","35,4","1,5","61,5","28,5","56,1","329,2","0"],
    [27385,"2017-03-16T11:00:00","36","1","51,4","1,9","102,8","31,8","44,1","428,3","0"],
    [27386,"2017-03-16T12:00:00","32","ND","56,6","1,5","123,6","33,2","38,9","451,2","0"],
    [27387,"2017-03-16T13:00:00","34","6","67,5","3,1","68,5","34,4","34,4","447","0"],
    [27388,"2017-03-16T14:00:00","52","16","93,9","3","89,5","35,3","33,1","419,5","0"],
    [27389,"2017-03-16T15:00:00","48","18","112,3","2,6","42,9","36","32,6","354,8","0"],
    [27390,"2017-03-16T16:00:00","57","23","124,3","2,6","15,9","36,3","33,2","239","0"],
    [27391,"2017-03-16T17:00:00","48","7","69,7","4,5","342,3","35,3","35","115,1","0"],
    [27392,"2017-03-16T18:00:00","47","5","41,9","5,7","293,2","33,8","37,1","43,7","0"],
    [27393,"2017-03-16T19:00:00","47","9","30,7","5,8","298,5","30,7","45,5","0","0"],
    [27394,"2017-03-16T20:00:00","59","11","25,7","3,4","304,5","29,8","47,5","0","0"],
    [27395,"2017-03-16T21:00:00","60","13","12,5","3,2","104,9","28,7","56,8","0","0"],
    [27396,"2017-03-16T22:00:00","47","12","13,6","2,2","125,5","27,6","61","0","0"],
    [27397,"2017-03-16T23:00:00","65","16","10,4","2,4","145,2","27,7","61,7","0","0"],
    [27398,"2017-03-17T00:00:00","43","3","22,2","2,6","245,4","28","56,1","0","0"],
    [27399,"2017-03-17T01:00:00","9","ND","30,2","4,1","234,3","27,8","55,4","0","0"],
    [27400,"2017-03-17T02:00:00","48","4","21,4","3","236","27,1","61,3","0","0"],
    [27401,"2017-03-17T03:00:00","34","7","23,4","2,8","186,6","26,5","64,4","0","0"],
    [27402,"2017-03-17T04:00:00","38","6","22,5","2,6","182,5","26,1","67,2","0","0,25"],
    [27403,"2017-03-17T05:00:00","14","2","24,9","4,2","179,5","25,3","69,8","0","0,51"],
    [27404,"2017-03-17T06:00:00","38","ND","18,6","5","150,3","24,6","72,5","0","1,52"],
    [27405,"2017-03-17T07:00:00","29","2","14,8","2,2","167,4","23,4","78,5","0","3,3"],
    [27406,"2017-03-17T08:00:00","36","6","12","2,6","119,3","23,4","79,7","5,4","0,76"],
    [27407,"2017-03-17T09:00:00","44","11","12,6","2,8","59,2","23,9","77,9","50,7","0,51"],
    [27408,"2017-03-17T10:00:00","52","9","19,2","2,8","29,4","25,1","72,1","116,4","0"],
    [27409,"2017-03-17T11:00:00","48","6","36,5","2,9","38,2","28,4","59,7","440,5","0"],
    [27410,"2017-03-17T12:00:00","38","3","48,8","2,1","61,9","31,4","44,8","458,1","0"],
    [27411,"2017-03-17T13:00:00","26","ND","53,2","2,5","81","33","39,5","449,9","0"],
    [27412,"2017-03-17T14:00:00","45","ND","60,2","3","64,1","34,3","35,5","421,4","0"],
    [27413,"2017-03-17T15:00:00","35","1","59,8","4,4","74","34,9","32,4","366,7","0"],
    [27414,"2017-03-17T16:00:00","38","ND","62,6","4,1","54,5","35,4","31,8","252,6","0"],
    [27415,"2017-03-17T17:00:00","47","4","50,3","4,1","18,3","34,7","35,4","86,1","0"],
    [27416,"2017-03-17T18:00:00","52","8","30,5","4,2","13,3","33,3","38,2","40,8","0"],
    [27417,"2017-03-17T19:00:00","66","11","14,2","3,1","330,7","31,1","43,2","0","0"],
    [27418,"2017-03-17T20:00:00","107","33","11,2","1,8","45,8","28,6","52,4","0","0"],
    [27419,"2017-03-17T21:00:00","110","32","12,5","2,5","52,1","27,6","56,3","0","0"],
    [27420,"2017-03-17T22:00:00","76","26","10,9","2,7","92,9","26,2","63,5","0","0"],
    [27421,"2017-03-17T23:00:00","59","8","10","3,6","91,6","24,8","70,3","0","0"],
    [27422,"2017-03-18T00:00:00","55","11","10,1","2","126,1","24,8","69,8","0","0"],
    [27423,"2017-03-18T01:00:00","39","11","12,1","2,4","94,4","24,7","69,8","0","0"],
    [27424,"2017-03-18T02:00:00","39","4","12,4","1,9","132,1","24,8","69,8","0","0"],
    [27425,"2017-03-18T03:00:00","44","ND","13","0,7","135,3","25,2","68,2","0","0"],
    [27426,"2017-03-18T04:00:00","44","3","14,5","1","344,8","25,4","67","0","0"],
    [27427,"2017-03-18T05:00:00","54","12","10,6","1,2","164,5","25,2","68","0","0"],
    [27428,"2017-03-18T06:00:00","60","11","9","1,8","212","25,1","69","0","0"],
    [27429,"2017-03-18T07:00:00","66","14","9,3","1,4","222,2","25,2","69,5","14,1","0"],
    [27430,"2017-03-18T08:00:00","82","9","15,8","2,3","178,5","26,9","62,3","109,1","0"],
    [27431,"2017-03-18T09:00:00","59","5","23,8","2,2","94,3","28","55,8","163,2","0"],
    [27432,"2017-03-18T10:00:00","48","3","37,9","2,1","111,5","29,9","49,8","292,8","0"],
    [27433,"2017-03-18T11:00:00","53","8","50","2,4","151,6","29,7","50,8","262,7","0"],
    [27434,"2017-03-18T12:00:00","42","5","57,7","4,7","196,2","30,4","47,4","187,7","0"],
    [27435,"2017-03-18T13:00:00","38","2","56,3","4,1","167,2","31,6","42","371,6","0"],
    [27436,"2017-03-18T14:00:00","25","ND","56,8","3,5","163,7","32,8","36,9","364,3","0"],
    [27437,"2017-03-18T15:00:00","33","ND","57,7","3,2","131","32,9","37,9","280,8","0"],
    [27438,"2017-03-18T16:00:00","47","8","53,2","3,8","86,1","32,3","38,7","132,2","0"],
    [27439,"2017-03-18T17:00:00","58","10","60,7","2,6","41,7","31,6","40,8","39,7","0"],
    [27440,"2017-03-18T18:00:00","47","5","48","6,5","263","28,4","53,3","10,4","0,25"],
    [27441,"2017-03-18T19:00:00","37","ND","37,6","4,8","140,2","24,9","74,2","0","25,4"],
    [27442,"2017-03-18T20:00:00","47","15","19,5","3,8","79,2","24,6","76,8","0","0,25"],
    [27443,"2017-03-18T21:00:00","ND","4","18,8","0,8","351,3","24,9","74,7","0","0,76"],
    [27444,"2017-03-18T22:00:00","ND","23","11,2","2,3","137,9","24,8","76,9","0","0"],
    [27445,"2017-03-18T23:00:00","64","6","13,6","1,8","158,9","24,6","76,7","0","0"],
    [27446,"2017-03-19T00:00:00","56","8","14,7","2","225,2","24,7","75,7","0","0"],
    [27447,"2017-03-19T01:00:00","54","11","11,2","1,3","182,1","24,8","75,2","0","0"],
    [27448,"2017-03-19T02:00:00","52","9","12,9","1,4","159,4","24,8","75,6","0","0"],
    [27449,"2017-03-19T03:00:00","52","10","11,1","3","100,5","24,2","78,7","0","0,25"],
    [27450,"2017-03-19T04:00:00","43","9","13,5","1,6","168,8","23,8","79,3","0","2,29"],
    [27451,"2017-03-19T05:00:00","37","7","20,5","2,5","194,2","23,1","80,3","0","2,79"],
    [27452,"2017-03-19T06:00:00","32","4","17,8","1,4","157,3","23","79,9","0","1,27"],
    [27453,"2017-03-19T07:00:00","34","7","13,9","1,1","136,1","23","79,7","0","1,27"],
    [27454,"2017-03-19T08:00:00","41","10","14,5","2,2","96,6","23","80,3","16,8","0,51"],
    [27455,"2017-03-19T09:00:00","34","15","20,3","1,9","82,1","23,7","77,9","69,7","0,51"],
    [27456,"2017-03-19T10:00:00","41","15","29,1","1,7","42,6","25,3","71,4","161","0"],
    [27457,"2017-03-19T11:00:00","44","11","46","1,2","117,7","27,7","60,6","259,4","0"],
    [27458,"2017-03-19T12:00:00","44","26","54,3","1,6","148,3","28,6","56,9","192,1","0"],
    [27459,"2017-03-19T13:00:00","39","11","64,3","2,2","141,4","29,3","52,7","231,6","0"],
    [27460,"2017-03-19T14:00:00","31","7","80,8","0,7","29,3","31,1","45,6","423,2","0"],
    [27461,"2017-03-19T15:00:00","52","10","95","1,5","24,2","32,1","44,9","356,4","0"],
    [27462,"2017-03-19T16:00:00","48","14","110,8","3","347","31,5","45,1","167,9","0"],
    [27463,"2017-03-19T17:00:00","34","10","70,3","5,1","312,2","30,4","44,8","73,2","0"],
    [27464,"2017-03-19T18:00:00","44","13","35,5","2,3","9,3","30,1","50,3","39,6","0"],
    [27465,"2017-03-19T19:00:00","64","15","24,1","3,2","116,3","28","63,7","0","0"],
    [27466,"2017-03-19T20:00:00","69","18","24,6","2,2","112","26","69,1","0","0,25"],
    [27467,"2017-03-19T21:00:00","65","23","19,9","0,7","192,5","25,7","69,6","0","0"],
    [27468,"2017-03-19T22:00:00","83","13","15,8","1,3","153,1","26","69,1","0","0"],
    [27469,"2017-03-19T23:00:00","85","13","11","2,5","94,6","24,8","74,3","0","0"],
    [27470,"2017-03-20T00:00:00","71","19","10","1,2","134,9","24,9","72,9","0","0"],
    [27471,"2017-03-20T01:00:00","41","14","11,3","0,9","111,3","24,9","73,1","0","0"],
    [27472,"2017-03-20T02:00:00","53","11","9,9","2,3","84,3","24,5","75","0","0"],
    [27473,"2017-03-20T03:00:00","51","9","11","1,6","75,5","24,3","74","0","0"],
    [27474,"2017-03-20T04:00:00","53","17","10,3","0,6","127,8","24","74","0","0"],
    [27475,"2017-03-20T05:00:00","54","13","9,5","1","220","24","74,6","0","0"],
    [27476,"2017-03-20T06:00:00","51","15","8,7","1,3","137,6","24,2","74,4","0","0"],
    [27477,"2017-03-20T07:00:00","62","17","8,8","1,1","129,8","24,1","74,9","0","0"],
    [27478,"2017-03-20T08:00:00","59","20","14,1","2,4","6,7","23,4","79,5","4,7","39,62"],
    [27479,"2017-03-20T09:00:00","33","10","23,9","1","223,2","22,9","83,2","41,6","3,3"],
    [27480,"2017-03-20T10:00:00","39","6","16,9","2,1","153,7","24,4","78,3","68,9","0,51"],
    [27481,"2017-03-20T11:00:00","39","16","23,2","1,9","136,9","26,2","71,6","193,5","0"],
    [27482,"2017-03-20T12:00:00","30","ND","48","1","169,5","30,5","50,8","461","0"],
    [27483,"2017-03-20T13:00:00","35","7","70,3","1,6","46,2","32,2","44,7","434,2","0"],
    [27484,"2017-03-20T14:00:00","37","6","80,8","2","49,1","33,4","36,9","442,2","0"],
    [27485,"2017-03-20T15:00:00","38","4","82,3","2,3","87,2","34,5","33,9","391,4","0"],
    [27486,"2017-03-20T16:00:00","30","7","86,8","2,4","307,1","34,6","34,4","266,5","0"],
    [27487,"2017-03-20T17:00:00","32","5","65,2","7,6","311,6","31,6","41,7","97,6","0"],
    [27488,"2017-03-20T18:00:00","23","ND","45,3","5,9","316,8","30,3","43,3","40,6","0"],
    [27489,"2017-03-20T19:00:00","50","10","29,9","2,7","85,1","29","50,8","0","0,25"],
    [27490,"2017-03-20T20:00:00","38","6","20,1","2,7","178,9","26,4","65,9","0","1,78"],
    [27491,"2017-03-20T21:00:00","38","9","21,4","3,7","193,8","24,3","76,1","0","0,76"],
    [27492,"2017-03-20T22:00:00","30","6","22","2,1","191,2","24,2","75,4","0","0,25"],
    [27493,"2017-03-20T23:00:00","62","5","14,4","1,7","71,8","23,9","77,6","0","0"],
    [27494,"2017-03-21T00:00:00","55","4","14,3","2","179,7","24","77,6","0","0"],
    [27495,"2017-03-21T01:00:00","32","ND","14,7","0,1","114,4","24,3","76,9","0","0"],
    [27496,"2017-03-21T02:00:00","48","ND","11,8","2","83,5","23,9","79,5","0","0"],
    [27497,"2017-03-21T03:00:00","44","5","13,1","1,6","93,8","23,8","79,2","0","0"],
    [27498,"2017-03-21T04:00:00","43","6","13,1","1,1","186,4","23,9","78","0","0"],
    [27499,"2017-03-21T05:00:00","48","8","11,6","0,9","164,6","24,1","77,1","0","0"],
    [27500,"2017-03-21T06:00:00","48","17","8,5","0,9","179,1","24,1","77,6","0","0,25"],
    [27501,"2017-03-21T07:00:00","67","18","8,8","1,1","135,2","24,2","78,9","0","0"],
    [27502,"2017-03-21T08:00:00","82","19","9","3","74,3","24,3","78,7","44,3","0"],
    [27503,"2017-03-21T09:00:00","82","17","12,9","2,5","63,6","25,6","73,6","143,9","0"],
    [27504,"2017-03-21T10:00:00","59","17","33,8","2,2","34,6","27,9","61,9","234,8","0"],
    [27505,"2017-03-21T11:00:00","45","17","57,2","2,6","94,7","29,9","52,7","422,3","0"],
    [27506,"2017-03-21T12:00:00","38","6","75,6","2,4","108,7","31,6","45,7","468,7","0"],
    [27507,"2017-03-21T13:00:00","52","18","72,6","4,2","102,6","32","44,7","382,6","0"],
    [27508,"2017-03-21T14:00:00","51","3","94,7","2,4","92,4","33,3","40,3","426,8","0"],
    [27509,"2017-03-21T15:00:00","48","11","91,4","2,6","70,8","34,1","38","341","0"],
    [27510,"2017-03-21T16:00:00","46","9","103,6","3,2","349,3","33,6","38,6","186,5","0"],
    [27511,"2017-03-21T17:00:00","51","12","86,3","3,1","354,9","32,9","40","55,7","0"],
    [27512,"2017-03-21T18:00:00","58","12","35,7","1,5","244,4","31,4","43,9","6,3","0"],
    [27513,"2017-03-21T19:00:00","73","23","24,3","3,3","202,7","29,6","51,8","0","0"],
    [27514,"2017-03-21T20:00:00","81","21","11,4","2,6","209,3","29,1","55,4","0","0"],
    [27515,"2017-03-21T21:00:00","86","27","12","1,6","172,2","28,7","58,3","0","0"],
    [27516,"2017-03-21T22:00:00","75","16","16,3","2,2","202,1","28,4","57,8","0","0"],
    [27517,"2017-03-21T23:00:00","87","20","10,9","2,7","127,9","27,8","61,3","0","0"],
    [27518,"2017-03-22T00:00:00","61","18","16,5","1,9","213","27,1","62,2","0","0"],
    [27519,"2017-03-22T01:00:00","53","18","14,3","1,7","131,7","26,7","64","0","0"],
    [27520,"2017-03-22T02:00:00","72","14","11,5","2,3","89,9","26,1","66,9","0","0"],
    [27521,"2017-03-22T03:00:00","67","16","11,4","1,9","74","26,3","65,8","0","0"],
    [27522,"2017-03-22T04:00:00","66","12","10,5","1,9","141","26,1","67,6","0","0"],
    [27523,"2017-03-22T05:00:00","71","13","11,6","3,3","211,4","25,5","66,6","0","0"],
    [27524,"2017-03-22T06:00:00","62","15","9,6","3,9","231,2","24,9","72,5","0","0,25"],
    [27525,"2017-03-22T07:00:00","51","9","9,4","2,6","216,8","25","75,4","5,4","0"],
    [27526,"2017-03-22T08:00:00","55","5","10,3","2,1","138,1","24,8","77,1","29,6","3,81"],
    [27527,"2017-03-22T09:00:00","40","17","18,1","1,5","212,3","26,1","72,5","123,8","0"],
    [27528,"2017-03-22T10:00:00","78","10","33","1,5","183","28,9","59,9","307","0"],
    [27529,"2017-03-22T11:00:00","45","7","54,8","1,5","106,5","31,2","50,8","392","0"],
    [27530,"2017-03-22T12:00:00","31","2","70,1","0,9","94,9","32,6","45,2","442,6","0"],
    [27531,"2017-03-22T13:00:00","46","12","68,1","3,6","99,9","33,4","40,2","396,8","0"],
    [27532,"2017-03-22T14:00:00","45","8","64,6","4,2","70,4","33,6","39,4","295,3","0"],
    [27533,"2017-03-22T15:00:00","65","9","58,5","6,5","76,9","32,4","44,8","186,6","0"],
    [27534,"2017-03-22T16:00:00","49","8","47","0,6","295,6","31,9","43","81,4","0"],
    [27535,"2017-03-22T17:00:00","47","5","39,5","6,1","213,8","28,8","44,4","4,9","0"],
    [27536,"2017-03-22T18:00:00","28","2","27,1","4,7","172,5","24","73,5","0","7,11"],
    [27537,"2017-03-22T19:00:00","27","5","17,9","1,1","205,1","23,6","80","0","3,05"],
    [27538,"2017-03-22T20:00:00","55","22","13,2","2,8","77,5","23,8","78,5","0","0"],
    [27539,"2017-03-22T21:00:00","45","4","14,9","3,5","336,6","23,8","77,9","0","0"],
    [27540,"2017-03-22T22:00:00","30","6","9,4","2,1","317","24,1","76","0","0,25"],
    [27541,"2017-03-22T23:00:00","53","6","8,5","2,5","133,2","24","78,5","0","0"],
    [27542,"2017-03-23T00:00:00","43","5","10,4","2","171,9","23,7","80","0","0"],
    [27543,"2017-03-23T01:00:00","24","1","15","1,7","197,5","23,6","78,8","0","0"],
    [27544,"2017-03-23T02:00:00","30","1","14,1","0,9","167,2","23,6","78,5","0","0"],
    [27545,"2017-03-23T03:00:00","33","3","13,8","1,1","150,3","23,5","79,6","0","0"],
    [27546,"2017-03-23T04:00:00","22","1","14,1","0,9","163,2","23,6","77,3","0","0"],
    [27547,"2017-03-23T05:00:00","41","4","10,5","2,8","111,5","23,3","79,9","0","0"],
    [27548,"2017-03-23T06:00:00","88","37","9","2,1","62,7","23,3","80,1","0","0"],
    [27549,"2017-03-23T07:00:00","78","24","9,7","2,1","12,5","23,6","78,8","11,9","0"],
    [27550,"2017-03-23T08:00:00","78","33","11,6","1,3","75","24,7","74,2","69,8","0"],
    [27551,"2017-03-23T09:00:00","67","25","19","1,4","216,3","25,8","70","100,4","0"],
    [27552,"2017-03-23T10:00:00","59","21","32,6","3,1","197","27,1","64,7","200","0"],
    [27553,"2017-03-23T11:00:00","44","17","51,4","1,9","184,8","28,9","56,2","300,3","0"],
    [27554,"2017-03-23T12:00:00","39","5","76,8","0,4","271,4","31","47,4","439,7","0"],
    [27555,"2017-03-23T13:00:00","58","19","101,9","2,6","94,5","32,3","43,9","459,1","0"],
    [27556,"2017-03-23T14:00:00","40","11","85,3","3,1","94,1","33,4","40,7","449,5","0"],
    [27557,"2017-03-23T15:00:00","41","10","72,5","5,3","98,8","33,2","40,3","381,8","0"],
    [27558,"2017-03-23T16:00:00","38","7","62,2","2,3","337,7","31,6","42,6","74,6","0"],
    [27559,"2017-03-23T17:00:00","36","2","32,2","2,9","285,7","30","47,9","30,5","0"],
    [27560,"2017-03-23T18:00:00","41","7","23,2","4","295,5","29,5","51","7,6","0"],
    [27561,"2017-03-23T19:00:00","60","8","19,6","2,1","325","29","50","0","0"],
    [27562,"2017-03-23T20:00:00","50","6","21,7","5,8","63,3","26,9","62,4","0","0"],
    [27563,"2017-03-23T21:00:00","52","4","16,6","4,1","74,4","25,4","72","0","0"],
    [27564,"2017-03-23T22:00:00","49","ND","14,6","3,3","64,4","24,8","76,2","0","2,03"],
    [27565,"2017-03-23T23:00:00","34","ND","15,4","2,2","34,8","24,3","78,9","0","0,51"],
    [27566,"2017-03-24T00:00:00","30","ND","14,2","0,6","273,1","24,5","78,3","0","0,25"],
    [27567,"2017-03-24T01:00:00","28","ND","14,1","2,8","176,8","24,3","79,7","0","0"],
    [27568,"2017-03-24T02:00:00","16","ND","14","2,2","154,9","24,2","80","0","0,51"],
    [27569,"2017-03-24T03:00:00","32","ND","14,2","1,6","161,2","24,2","79,7","0","0,51"],
    [27570,"2017-03-24T04:00:00","28","6","12,2","1,9","156","24,2","79,6","0","0"],
    [27571,"2017-03-24T05:00:00","43","5","10,7","2,6","116","24,1","79,6","0","0"],
    [27572,"2017-03-24T06:00:00","38","6","10,2","3,5","88,7","23,6","80","0","0,51"],
    [27573,"2017-03-24T07:00:00","29","ND","10,8","1","146,2","23,4","79,7","0","1,27"],
    [27574,"2017-03-24T08:00:00","28","ND","11,2","2,2","228,8","23,6","79,6","13","0,25"],
    [27575,"2017-03-24T09:00:00","26","ND","14,5","1,4","205","24,7","73,6","85,7","0"],
    [27576,"2017-03-24T10:00:00","28","1","18,9","2,6","152,4","25,8","69,3","129,9","0"],
    [27577,"2017-03-24T11:00:00","23","ND","32","3","218,9","26,9","64,6","201,1","0"],
    [27578,"2017-03-24T12:00:00","32","1","37,9","3,1","179,3","28,6","59,3","224,1","0"],
    [27579,"2017-03-24T13:00:00","27","3","42,2","3,2","183,7","29,1","57,1","220","0"],
    [27580,"2017-03-24T14:00:00","31","ND","46,5","2,6","139,8","30,1","51","250,7","0"],
    [27581,"2017-03-24T15:00:00","31","ND","52,8","2,8","128,1","30,2","48,6","211,9","0"],
    [27582,"2017-03-24T16:00:00","45","3","63,2","2","132,1","30,4","48,7","129,6","0"],
    [27583,"2017-03-24T17:00:00","37","4","63,3","2,8","79,4","31,1","47","160,4","0"],
    [27584,"2017-03-24T18:00:00","60","19","58,7","3,9","38,8","30,2","51,2","20,3","0"],
    [27585,"2017-03-24T19:00:00","68","14","29,6","3,5","44,3","29,1","54","0","0"],
    [27586,"2017-03-24T20:00:00","84","15","18,5","2,1","79,3","28,3","59,3","0","0"],
    [27587,"2017-03-24T21:00:00","81","7","10,3","2,2","85,8","27,1","62,5","0","0"],
    [27588,"2017-03-24T22:00:00","63","8","10,8","1,2","55","25,9","63,2","0","0"],
    [27589,"2017-03-24T23:00:00","47","7","10,4","1,2","128,5","25,4","64,8","0","0"],
    [27590,"2017-03-25T00:00:00","44","2","10,1","2,5","220,2","25,1","69,4","0","0"],
    [27591,"2017-03-25T01:00:00","36","ND","11,6","1,5","212,4","25,1","71,4","0","0"],
    [27592,"2017-03-25T02:00:00","37","ND","12","1,9","117,3","24,7","73,7","0","0"],
    [27593,"2017-03-25T03:00:00","29","ND","16,7","1,1","187,6","24,7","72,7","0","0"],
    [27594,"2017-03-25T04:00:00","13","ND","13,4","1,6","156,2","24,5","74,1","0","0"],
    [27595,"2017-03-25T05:00:00","28","ND","10,1","0,6","174,5","24,5","74","0","0"],
    [27596,"2017-03-25T06:00:00","28","ND","9,2","1,3","183,3","24,4","73,4","0","0"],
    [27597,"2017-03-25T07:00:00","66","4","9,1","1,6","154,3","24,1","75,5","8,5","0"],
    [27598,"2017-03-25T08:00:00","57","4","13,9","1,2","169,6","25,9","68,3","108","0"],
    [27599,"2017-03-25T09:00:00","62","3","31,8","1,5","127,4","28,2","57,6","213,8","0"],
    [27600,"2017-03-25T10:00:00","63","14","44,5","3","108,1","29,2","55","319","0"],
    [27601,"2017-03-25T11:00:00","51","10","66,3","1,8","119,5","31,1","47,7","349,3","0"],
    [27602,"2017-03-25T12:00:00","76","12","78,2","2,7","109,5","32,2","43,6","430,3","0"],
    [27603,"2017-03-25T13:00:00","45","5","73,5","2,7","116,2","34","36,5","451,5","0"],
    [27604,"2017-03-25T14:00:00","45","ND","75,7","3,6","86,9","33,4","39,4","321,7","0"],
    [27605,"2017-03-25T15:00:00","41","8","68,5","3,4","86,1","34,6","34,8","383,9","0"],
    [27606,"2017-03-25T16:00:00","42","7","64,2","4,7","107,9","34,1","35,9","177,7","0"],
    [27607,"2017-03-25T17:00:00","66","10","50,7","7,5","250,4","29,4","51,4","7,8","3,56"],
    [27608,"2017-03-25T18:00:00","33","5","29,8","3,7","233,1","25,4","71,1","0","3,56"],
    [27609,"2017-03-25T19:00:00","37","12","23,6","4,1","120,3","25,7","71,2","0","0"],
    [27610,"2017-03-25T20:00:00","47","20","23","2,7","237,7","25,7","70,2","0","0"],
    [27611,"2017-03-25T21:00:00","60","4","10,5","1,1","246,3","26,2","68,9","0","0"],
    [27612,"2017-03-25T22:00:00","82","26","9,1","1,9","156,5","25,7","72,2","0","0"],
    [27613,"2017-03-25T23:00:00","58","9","11","3","137,7","24,9","73,2","0","0"],
    [27614,"2017-03-26T00:00:00","49","5","12,7","1,6","217,1","24,9","72,4","0","0"],
    [27615,"2017-03-26T01:00:00","49","ND","10,8","2,1","110,9","25","72,9","0","0"],
    [27616,"2017-03-26T02:00:00","32","ND","14,1","2,7","159,3","24,5","74,9","0","0"],
    [27617,"2017-03-26T03:00:00","31","1","15,2","2,4","193,2","23,8","79,1","0","2,03"],
    [27618,"2017-03-26T04:00:00","20","ND","14,9","1,8","177,6","23,7","79","0","0,25"],
    [27619,"2017-03-26T05:00:00","14","ND","19,1","1,6","102,9","23,1","80,2","0","9,65"],
    [27620,"2017-03-26T06:00:00","19","ND","15,9","2,7","83,7","22,8","83","0","13,46"],
    [27621,"2017-03-26T07:00:00","31","8","16,1","3,1","85,1","22,6","84,3","0","42,93"],
    [27622,"2017-03-26T08:00:00","20","1","14,3","1,7","85,4","22,3","86,3","0","23,11"],
    [27623,"2017-03-26T09:00:00","20","ND","12,9","2,8","82,7","22,5","85,4","9,9","11,94"],
    [27624,"2017-03-26T10:00:00","16","ND","14,9","2,6","99,2","23","84,7","42,6","2,29"],
    [27625,"2017-03-26T11:00:00","24","ND","15,7","3,1","162,3","23,9","80,8","63,1","0,51"],
    [27626,"2017-03-26T12:00:00","17","7","23,4","4","193,9","24,1","76","98,1","0"],
    [27627,"2017-03-26T13:00:00","18","ND","27,3","3,8","221,8","24,5","74,1","122,6","0"],
    [27628,"2017-03-26T14:00:00","32","ND","33,9","3,1","216,7","25,6","69,2","192","0"],
    [27629,"2017-03-26T15:00:00","22","ND","50,3","2","202,9","27,9","59,4","263,8","0"],
    [27630,"2017-03-26T16:00:00","25","ND","69,8","2,1","240,8","28,9","55","223,7","0"],
    [27631,"2017-03-26T17:00:00","24","4","85,3","1,9","351,3","29","52,1","157,2","0"],
    [27632,"2017-03-26T18:00:00","35","9","80,5","1,6","224,2","28,5","54,4","43,2","0"],
    [27633,"2017-03-26T19:00:00","55","12","60,7","2,4","260,2","27,4","59,2","0","0"],
    [27634,"2017-03-26T20:00:00","83","22","20,5","1,7","230,4","26,9","63","0","0"],
    [27635,"2017-03-26T21:00:00","79","26","13,9","1,4","12,1","26","69","0","0"],
    [27636,"2017-03-26T22:00:00","68","8","14,4","1,8","21,8","25,4","70,9","0","0"],
    [27637,"2017-03-26T23:00:00","59","12","13,9","1,4","343,3","25,2","69,4","0","0"],
    [27638,"2017-03-27T00:00:00","44","7","14,1","1,2","64,2","25,1","69,2","0","0"],
    [27639,"2017-03-27T01:00:00","28","ND","11,5","1,5","106,4","24,4","73,6","0","0"],
    [27640,"2017-03-27T02:00:00","35","1","15,7","1,1","2,5","24,2","73,7","0","0"],
    [27641,"2017-03-27T03:00:00","40","5","14,1","1,5","71,6","24,1","74,1","0","0"],
    [27642,"2017-03-27T04:00:00","30","1","11,8","1,7","57","23,6","77,8","0","0,25"],
    [27643,"2017-03-27T05:00:00","28","ND","9,9","1","148","23,3","79,5","0","0"],
    [27644,"2017-03-27T06:00:00","48","ND","9,5","0,7","11,6","23,4","79,3","0","0"],
    [27645,"2017-03-27T07:00:00","76","15","9,4","2,2","21,6","23,6","78,7","0","0"],
    [27646,"2017-03-27T08:00:00","96","19","9,1","1,6","69,8","23,9","77,4","14,3","0"],
    [27647,"2017-03-27T09:00:00","62","3","12,3","2,1","343,9","24,6","74,8","87","0,25"],
    [27648,"2017-03-27T10:00:00","52","ND","23,5","0,4","67","26,7","64,8","190,3","0"],
    [27649,"2017-03-27T11:00:00","54","2","42,6","2","224,6","28","59,9","209,1","0"],
    [27650,"2017-03-27T12:00:00","53","11","59","2,6","177","29,4","55,1","284,3","0"],
    [27651,"2017-03-27T13:00:00","46","8","60,6","3,4","166,2","29,8","52,6","252,5","0"],
    [27652,"2017-03-27T14:00:00","26","5","58,8","2,3","199,1","30,3","50,3","266","0"],
    [27653,"2017-03-27T15:00:00","29","ND","51,4","2,8","128","31,7","42,1","294,8","0"],
    [27654,"2017-03-27T16:00:00","27","ND","58,4","2,8","110,4","32,4","39,8","278","0"],
    [27655,"2017-03-27T17:00:00","28","ND","65,8","2,9","72,6","32,6","39,2","205,1","0"],
    [27656,"2017-03-27T18:00:00","64","13","50","2,9","68,6","31,7","42,7","51,4","0"],
    [27657,"2017-03-27T19:00:00","107","27","23,5","2,5","81,3","30,3","50,5","0","0"],
    [27658,"2017-03-27T20:00:00","68","22","25,4","2,2","238,3","29,7","50,2","0","0"],
    [27659,"2017-03-27T21:00:00","50","15","20,2","2,9","281,2","29,2","50,3","0","0"],
    [27660,"2017-03-27T22:00:00","61","9","11","1,5","233,7","28,6","54","0","0"],
    [27661,"2017-03-27T23:00:00","62","6","10,4","1,9","84,5","26,9","66,3","0","0"],
    [27662,"2017-03-28T00:00:00","49","10","13,9","1,8","13,9","26,7","64,8","0","0"],
    [27663,"2017-03-28T01:00:00","36","9","10,6","1,1","250,7","26,2","69,6","0","0"],
    [27664,"2017-03-28T02:00:00","60","8","8,9","1,7","119,6","25,9","72","0","0"],
    [27665,"2017-03-28T03:00:00","49","9","13,6","2,9","114,6","25,4","69,9","0","0"],
    [27666,"2017-03-28T04:00:00","54","9","11,3","1,3","129,7","25,3","70,6","0","0"],
    [27667,"2017-03-28T05:00:00","66","7","9,1","1,7","215,8","24,9","73,6","0","0"],
    [27668,"2017-03-28T06:00:00","85","23","9","1,7","96,6","24,8","73,9","0","0"],
    [27669,"2017-03-28T07:00:00","70","6","8,5","1","165,3","24,5","75,7","16,8","0"],
    [27670,"2017-03-28T08:00:00","70","6","10","1,6","176,7","25,4","71,9","65,9","0"],
    [27671,"2017-03-28T09:00:00","ND","ND","ND","0,6","221,1","27,6","63,5","188,8","0"],
    [27672,"2017-03-28T10:00:00","52","17","ND","2,3","41,8","29,8","54","317,8","0"],
    [27673,"2017-03-28T11:00:00","45","4","49,1","3,1","54","31,3","49,6","369,4","0"],
    [27674,"2017-03-28T12:00:00","41","7","65,5","2","83,6","32","46,7","397,9","0"],
    [27675,"2017-03-28T13:00:00","53","8","81,5","2,8","92,3","33,4","41,3","432,5","0"],
    [27676,"2017-03-28T14:00:00","47","15","93,5","3","66,8","34,1","38,5","350,4","0"],
    [27677,"2017-03-28T15:00:00","53","15","116,7","2,7","29","35","37,7","365,8","0"],
    [27678,"2017-03-28T16:00:00","62","12","71,4","1,6","20,9","33,9","38,7","105,9","0"],
    [27679,"2017-03-28T17:00:00","ND","ND","54,8","6,8","300,8","26,3","67,8","11,8","61,47"],
    [27680,"2017-03-28T18:00:00","ND","ND","ND","ND","ND","ND","ND","ND","ND"],
    [27681,"2017-03-28T19:00:00","ND","ND","ND","ND","ND","ND","ND","ND","ND"],
    [27682,"2017-03-28T20:00:00","ND","ND","ND","ND","ND","ND","ND","ND","ND"],
    [27683,"2017-03-28T21:00:00","ND","ND","ND","ND","ND","ND","ND","ND","ND"],
    [27684,"2017-03-28T22:00:00","ND","15","8,1","1,5","303,4","25,6","73","0","0"],
    [27685,"2017-03-28T23:00:00","ND","31","7,9","1,1","64,4","26,2","70,5","0","0"],
    [27686,"2017-03-29T00:00:00","ND","3","7,7","2,5","76,8","25,3","73,1","0","0"],
    [27687,"2017-03-29T01:00:00","ND","7","10,3","0,8","162,3","24,7","74,9","0","0"],
    [27688,"2017-03-29T02:00:00","ND","7","8,9","1,1","187,3","24,7","75,8","0","0"],
    [27689,"2017-03-29T03:00:00","ND","9","8,6","1,6","92,9","24,9","74,9","0","0"],
    [27690,"2017-03-29T04:00:00","ND","9","11,6","0,6","25,3","25,1","72,1","0","0"],
    [27691,"2017-03-29T05:00:00","ND","38","9,9","1,2","60,8","24,9","73,7","0","0"],
    [27692,"2017-03-29T06:00:00","ND","36","8,9","1,6","64,1","24,9","73,9","0","0"],
    [27693,"2017-03-29T07:00:00","ND","25","8,4","0,8","73,6","25","73,6","0","0"],
    [27694,"2017-03-29T08:00:00","ND","28","7,7","2,1","52,9","25,1","74,9","27,2","0"],
    [27695,"2017-03-29T09:00:00","ND","21","15,8","1","356,2","26,8","68","139,7","0"],
    [27696,"2017-03-29T10:00:00","ND","20","41,3","2,2","183,4","29,4","58,1","311,9","0"],
    [27697,"2017-03-29T11:00:00","ND","16","52,2","2,7","122,8","31,4","51,2","410,3","0"],
    [27698,"2017-03-29T12:00:00","ND","ND","71,7","2,1","80,1","32,7","45,1","402","0"],
    [27699,"2017-03-29T13:00:00","ND","16","80,3","2,5","49,3","32,3","45,6","170,4","0"],
    [27700,"2017-03-29T14:00:00","ND","ND","38","5,1","3,2","26,8","71,9","47,1","4,57"],
    [27701,"2017-03-29T15:00:00","ND","ND","26,6","3,5","9,9","27,5","70,7","151,9","0"],
    [27702,"2017-03-29T16:00:00","ND","ND","ND","ND","ND","ND","ND","ND","ND"],
    [27703,"2017-03-29T17:00:00","ND","8","29,5","3,8","179,9","27,7","59,8","31,8","0"],
    [27704,"2017-03-29T18:00:00","ND","8","33,9","4,7","205,2","26,1","65,4","15,8","0"],
    [27705,"2017-03-29T19:00:00","ND","11","24,6","3,7","215,5","25,5","69,6","0","0"],
    [27706,"2017-03-29T20:00:00","ND","12","21","3,7","224,4","25,7","67,7","0","0"],
    [27707,"2017-03-29T21:00:00","ND","6","19","2,3","185,7","26,1","66,8","0","0"],
    [27708,"2017-03-29T22:00:00","ND","15","12,6","2,5","101,9","25,4","71,9","0","0"],
    [27709,"2017-03-29T23:00:00","ND","17","10,2","0,7","172","24,8","74,7","0","0"],
    [27710,"2017-03-30T00:00:00","ND","6","14,2","1,9","164,8","24,8","74,6","0","0"],
    [27711,"2017-03-30T01:00:00","ND","10","12","1,1","147,4","24,4","76,9","0","0"],
    [27712,"2017-03-30T02:00:00","ND","13","12,7","0,9","127","24,4","76,5","0","0"],
    [27713,"2017-03-30T03:00:00","ND","11","8,5","2","86,5","24","79,7","0","1,27"],
    [27714,"2017-03-30T04:00:00","ND","12","8,7","1,1","75,7","24,1","79,8","0","0,51"],
    [27715,"2017-03-30T05:00:00","ND","18","8,1","2","79,1","24","80,4","0","0,51"],
    [27716,"2017-03-30T06:00:00","ND","17","7,8","1","335,9","23,9","79,8","0","0"],
    [27717,"2017-03-30T07:00:00","ND","41","8","1,1","65,7","24,1","79,7","0","0"],
    [27718,"2017-03-30T08:00:00","ND","38","8,7","1,7","73","24,5","78,2","21,2","0"],
    [27719,"2017-03-30T09:00:00","ND","21","13,9","1,6","85,5","25,5","74,2","77","0"],
    [27720,"2017-03-30T10:00:00","ND","20","22,5","2,7","67,2","27,3","66,1","221","0"],
    [27721,"2017-03-30T11:00:00","ND","16","30,2","3,1","51","28,4","60","216,4","0"],
    [27722,"2017-03-30T12:00:00","ND","ND","42,6","3,6","55,8","30,4","52","459,3","0"],
    [27723,"2017-03-30T13:00:00","21","ND","47,6","3,5","63","32","44,5","443,1","0"],
    [27724,"2017-03-30T14:00:00","19","ND","56,7","3,6","75,2","32,3","43,3","276,2","0"],
    [27725,"2017-03-30T15:00:00","45","7","50","2,5","113,1","30,5","53","81,4","0,25"],
    [27726,"2017-03-30T16:00:00","22","8","40,3","2,2","238,5","25,8","70,5","5,1","12,95"],
    [27727,"2017-03-30T17:00:00","ND","6","19","1,8","74,8","25,6","73,8","9,4","0"],
    [27728,"2017-03-30T18:00:00","81","8","15,8","2,1","330","25,5","73","0","0"],
    [27729,"2017-03-30T19:00:00","68","13","9,9","3,5","112,2","25,5","75,1","0","0"],
    [27730,"2017-03-30T20:00:00","60","11","10,3","1,9","156,6","25,6","73,5","0","0"],
    [27731,"2017-03-30T21:00:00","38","7","13,1","3,3","211,4","25,1","75,1","0","0"],
    [27732,"2017-03-30T22:00:00","18","4","20,6","4,3","202,3","24,4","77","0","1,02"],
    [27733,"2017-03-30T23:00:00","9","2","21,7","3,4","193,8","23,8","80,1","0","1,27"],
    [27734,"2017-03-31T00:00:00","6","ND","22,6","2,6","182,5","23,6","80,2","0","0"],
    [27735,"2017-03-31T01:00:00","3","ND","23,7","2,3","196,4","23,5","80,1","0","0"],
    [27736,"2017-03-31T02:00:00","13","ND","23,8","2","176","23,5","80,2","0","2,54"],
    [27737,"2017-03-31T03:00:00","ND","1","23","3,4","177,1","23","82,1","0","18,29"],
    [27738,"2017-03-31T04:00:00","ND","ND","22,3","2,3","178,6","22,7","82,7","0","7,11"],
    [27739,"2017-03-31T05:00:00","ND","ND","15,7","1,7","126,3","22,8","82,5","0","1,02"],
    [27740,"2017-03-31T06:00:00","ND","14","10,7","1,5","107,8","22,9","82,1","0","0,51"],
    [27741,"2017-03-31T07:00:00","ND","8","10,4","0,4","61,9","23,1","81,2","0","0,25"],
    [27742,"2017-03-31T08:00:00","ND","6","10,5","1,2","137,8","23,5","80,6","11,9","0,76"],
    [27743,"2017-03-31T09:00:00","ND","9","19,1","1,6","175,7","23,5","79,9","27,2","2,03"],
    [27744,"2017-03-31T10:00:00","ND","8","24","2","184,4","23,8","79","61","2,03"],
    [27745,"2017-03-31T11:00:00","13","2","27,7","2,6","172,6","24,7","76,1","100","0"],
    [27746,"2017-03-31T12:00:00","11","ND","45,1","0,5","219,4","26,5","66,8","218,4","0"],
    [27747,"2017-03-31T13:00:00","14","ND","77,4","1,8","314,3","28,9","56,2","359","0"],
    [27748,"2017-03-31T14:00:00","44","10","81,6","1,6","83,5","29,8","50,8","271,4","0"],
    [27749,"2017-03-31T15:00:00","26","6","69,4","2,7","39,1","31,3","42,7","394,5","0"],
    [27750,"2017-03-31T16:00:00","36","3","62,3","4,8","46,9","31,1","43,7","245,2","0"],
    [27751,"2017-03-31T17:00:00","58","7","58,6","4,5","60,3","30,8","46","126,4","0"],
    [27752,"2017-03-31T18:00:00","68","14","40,1","3,4","57,9","30","49,7","23,5","0"],
    [27753,"2017-03-31T19:00:00","111","32","21,6","2","44,9","28,7","54,8","0","0"],
    [27754,"2017-03-31T20:00:00","83","23","13,2","1,7","281","27,7","56,6","0","0"],
    [27755,"2017-03-31T21:00:00","116","28","9,7","1,9","200,9","26,8","64,3","0","0"],
    [27756,"2017-03-31T22:00:00","67","6","11,8","1,7","166,7","26","71,5","0","0"],
    [27757,"2017-03-31T23:00:00","80","8","9,9","1,1","115,7","25,5","73,6","0","0"],
    [27758,"2017-04-01T00:00:00","62","7","9,9","1,8","81,5","24,9","75,6","0","0"],
    [27759,"2017-04-01T01:00:00","71","13","9,6","1,9","351,1","24,5","76,2","0","0"],
    [27760,"2017-04-01T02:00:00","36","7","9,3","1,3","42","24,1","78,4","0","4,32"],
    [27761,"2017-04-01T03:00:00","39","17","9,9","0,7","114,9","23,8","80,8","0","2,54"],
    [27762,"2017-04-01T04:00:00","27","7","9,6","0,4","225,6","23,9","80,9","0","1,52"],
    [27763,"2017-04-01T05:00:00","28","3","10,4","2,1","165,2","23,7","81,1","0","0"],
    [27764,"2017-04-01T06:00:00","25","ND","8,6","0,6","193,6","23,8","80,8","0","0"],
    [27765,"2017-04-01T07:00:00","39","4","9","0,1","174,9","24","80","4,4","0"],
    [27766,"2017-04-01T08:00:00","58","16","10","2,2","78,6","24,4","79,7","49,2","0"],
    [27767,"2017-04-01T09:00:00","56","11","17,7","1,3","98,9","25,7","72,5","101,2","0"],
    [27768,"2017-04-01T10:00:00","60","15","28,6","1,5","54,3","27","66","148,5","0"],
    [27769,"2017-04-01T11:00:00","51","10","49,3","2","124,4","29","58","332,1","0"],
    [27770,"2017-04-01T12:00:00","38","7","50,2","2,5","157,3","30,3","53","321,2","0"],
    [27771,"2017-04-01T13:00:00","29","2","51,1","1,6","178","30,8","49,6","259,7","0"],
    [27772,"2017-04-01T14:00:00","43","2","58,2","3,2","94,9","31,2","49,2","327,7","0"],
    [27773,"2017-04-01T15:00:00","46","6","53,8","2,9","82,1","31,8","44","248,9","0"],
    [27774,"2017-04-01T16:00:00","41","8","62,9","2,8","48,4","32,2","44,5","212,2","0"],
    [27775,"2017-04-01T17:00:00","35","5","56","2,7","68,9","32,1","43","131,9","0"],
    [27776,"2017-04-01T18:00:00","49","11","52,6","2,8","19,7","31,1","47,2","14,4","0"],
    [27777,"2017-04-01T19:00:00","104","19","41,3","2","29,5","30,1","53,8","0","0"],
    [27778,"2017-04-01T20:00:00","83","7","17,5","2,2","225,9","29,3","55,3","0","0"],
    [27779,"2017-04-01T21:00:00","100","21","13,9","1","163,5","28,9","58","0","0"],
    [27780,"2017-04-01T22:00:00","122","36","10,5","1,9","137,7","27,9","65","0","0"],
    [27781,"2017-04-01T23:00:00","83","11","12,5","2,8","182,5","27,3","66,6","0","0"],
    [27782,"2017-04-02T00:00:00","65","17","14,8","2,5","196,2","26,4","68,6","0","0"],
    [27783,"2017-04-02T01:00:00","48","13","16,5","1,4","146,3","26","69,5","0","0"],
    [27784,"2017-04-02T02:00:00","52","8","14,5","1,6","80,1","25,4","73,1","0","0"],
    [27785,"2017-04-02T03:00:00","48","4","15,2","2,7","147,4","25","74,9","0","0"],
    [27786,"2017-04-02T04:00:00","32","ND","13,3","1,2","190,1","24,7","76,3","0","0"],
    [27787,"2017-04-02T05:00:00","40","2","10","0,7","131","24,8","75,9","0","0"],
    [27788,"2017-04-02T06:00:00","53","1","8,7","1,7","105,4","24,8","76,8","0","0"],
    [27789,"2017-04-02T07:00:00","51","6","9,4","0,6","73,2","24,7","76,6","5,5","0"],
    [27790,"2017-04-02T08:00:00","94","22","9,6","2,1","109,1","25,5","74,5","25","0"],
    [27791,"2017-04-02T09:00:00","76","10","17,3","0,8","223,3","27","69,6","125,4","0"],
    [27792,"2017-04-02T10:00:00","77","13","47,1","1,5","148,2","30,3","55,4","286,6","0"],
    [27793,"2017-04-02T11:00:00","65","13","75,2","2,3","169,7","31,2","52","371,3","0"],
    [27794,"2017-04-02T12:00:00","59","11","77,4","2,7","145,3","31,8","47,9","263,1","0"],
    [27795,"2017-04-02T13:00:00","44","6","87,3","1,7","183,6","33,3","43,1","433,2","0"],
    [27796,"2017-04-02T14:00:00","64","20","97,8","2,3","76,9","34,5","39,8","398,9","0"],
    [27797,"2017-04-02T15:00:00","51","19","102,1","3,1","82,7","34,3","40,6","285,4","0"],
    [27798,"2017-04-02T16:00:00","66","19","114,8","3,4","60,4","34,8","38,4","249","0"],
    [27799,"2017-04-02T17:00:00","62","17","119,9","3,3","12,2","34,2","41,3","114,3","0"],
    [27800,"2017-04-02T18:00:00","40","4","51,5","3,9","306,4","32,6","42,1","34,6","0"],
    [27801,"2017-04-02T19:00:00","41","6","27,9","4,9","301","30,3","47,8","0","0"],
    [27802,"2017-04-02T20:00:00","48","9","18,7","3,4","310,2","29,7","49,9","0","0"],
    [27803,"2017-04-02T21:00:00","85","10","12,9","3,4","90,8","27,6","61,6","0","0"],
    [27804,"2017-04-02T22:00:00","59","7","12,9","2","69,7","26,6","65,8","0","0"],
    [27805,"2017-04-02T23:00:00","59","2","12,2","2,6","93,3","26,7","64,3","0","0"],
    [27806,"2017-04-03T00:00:00","48","ND","13,3","2,7","88,9","26","67,3","0","0"],
    [27807,"2017-04-03T01:00:00","20","ND","14","2","116,2","25,6","69,3","0","0"],
    [27808,"2017-04-03T02:00:00","26","ND","15,5","2,2","142,5","25,5","70,2","0","0"],
    [27809,"2017-04-03T03:00:00","25","ND","14,3","1","217,8","25,7","70","0","0"],
    [27810,"2017-04-03T04:00:00","39","6","13,1","1,9","120,8","25,8","69,3","0","0"],
    [27811,"2017-04-03T05:00:00","66","6","12,3","1,6","93,9","25,7","69,8","0","0"],
    [27812,"2017-04-03T06:00:00","86","3","9,5","1,8","105","25,2","72,6","0","0"],
    [27813,"2017-04-03T07:00:00","102","9","9,5","1,4","179,9","25,2","73,5","23,6","0"],
    [27814,"2017-04-03T08:00:00","84","9","13,6","2,1","184,8","26,5","68,4","64,9","0"],
    [27815,"2017-04-03T09:00:00","66","12","20,3","1,4","170,1","28,1","62,4","136,7","0"],
    [27816,"2017-04-03T10:00:00","94","9","36,7","2,7","161,6","30,5","53,7","320,8","0"],
    [27817,"2017-04-03T11:00:00","45","11","56,7","2,5","137,5","31,2","50","273,2","0"],
    [27818,"2017-04-03T12:00:00","45","7","83,7","1,9","172,1","32,9","44,5","435,5","0"],
    [27819,"2017-04-03T13:00:00","50","9","103,3","2,8","100,7","33,8","39,8","391","0"],
    [27820,"2017-04-03T14:00:00","70","16","117,3","4","67,2","34,7","37,2","417,2","0"],
    [27821,"2017-04-03T15:00:00","59","19","113,5","4,3","68,9","35,5","33,8","347,2","0"],
    [27822,"2017-04-03T16:00:00","68","12","85,4","5","72,4","35,8","33,4","252,2","0"],
    [27823,"2017-04-03T17:00:00","62","6","53,2","4,2","63,3","35","35,5","69,2","0"],
    [27824,"2017-04-03T18:00:00","74","12","35,2","1,2","338,1","34","38","34,1","0"],
    [27825,"2017-04-03T19:00:00","59","13","29,7","5,9","302,6","31,2","44","0","0"],
    [27826,"2017-04-03T20:00:00","64","15","23,6","5,6","309,4","30,2","47,6","0","0"],
    [27827,"2017-04-03T21:00:00","69","9","15,1","2,9","105,3","28","58","0","0"],
    [27828,"2017-04-03T22:00:00","73","12","13","2,6","70,7","26,7","63,3","0","0"],
    [27829,"2017-04-03T23:00:00","70","12","13,4","0,2","1,8","26,9","61,9","0","0"],
    [27830,"2017-04-04T00:00:00","76","13","12,8","1,6","80,5","26,4","64,7","0","0"],
    [27831,"2017-04-04T01:00:00","56","7","15,7","1,1","100,7","25,7","67","0","0"],
    [27832,"2017-04-04T02:00:00","47","5","16,8","1,9","90,6","25,8","66,6","0","0"],
    [27833,"2017-04-04T03:00:00","49","6","16,6","1,5","82,5","25,4","68,7","0","0"],
    [27834,"2017-04-04T04:00:00","53","9","14,3","0,5","16,8","25,7","67,8","0","0"],
    [27835,"2017-04-04T05:00:00","70","15","10,1","2,2","138,8","25,4","70,8","0","0"],
    [27836,"2017-04-04T06:00:00","94","27","9,9","1,3","118","25,6","69,5","0","0"],
    [27837,"2017-04-04T07:00:00","85","19","10,2","1,1","177,7","25,7","68,8","13,2","0"],
    [27838,"2017-04-04T08:00:00","74","11","15,2","2,1","170,3","26,8","65,8","88,7","0"],
    [27839,"2017-04-04T09:00:00","70","17","25,5","2,7","185,3","28,2","60,9","172,3","0"],
    [27840,"2017-04-04T10:00:00","69","7","48,9","1,8","137,8","30,6","51","322,1","0"],
    [27841,"2017-04-04T11:00:00","48","6","70,5","2,5","191,8","32,1","46","407,1","0"],
    [27842,"2017-04-04T12:00:00","43","4","70,3","2,4","145,5","33,7","38,6","446,9","0"],
    [27843,"2017-04-04T13:00:00","55","9","90,6","3,6","77,2","34,3","37","447,9","0"],
    [27844,"2017-04-04T14:00:00","62","16","131,2","3","57,7","35,2","35,8","408,7","0"],
    [27845,"2017-04-04T15:00:00","89","23","147,9","4,2","28,5","35,4","35,7","270,5","0"],
    [27846,"2017-04-04T16:00:00","66","12","85,6","3,3","347,8","34,8","35,1","180,1","0"],
    [27847,"2017-04-04T17:00:00","63","8","64","5","304,7","34,4","34,9","139,8","0"],
    [27848,"2017-04-04T18:00:00","52","5","50,6","5,4","294,2","32,7","38,1","37,2","0"],
    [27849,"2017-04-04T19:00:00","64","14","31,7","5","296,4","30,9","42,9","0","0"],
    [27850,"2017-04-04T20:00:00","88","21","20,4","3","331,3","29,8","48,1","0","0"],
    [27851,"2017-04-04T21:00:00","115","33","13","3,3","97,9","27,8","59,1","0","0"],
    [27852,"2017-04-04T22:00:00","82","7","13,6","2,2","73,8","26,7","64,4","0","0"],
    [27853,"2017-04-04T23:00:00","109","30","10,8","1,3","142,6","27,1","62,2","0","0"],
    [27854,"2017-04-05T00:00:00","72","6","12,4","2,3","121,2","26,2","66,1","0","0"],
    [27855,"2017-04-05T01:00:00","61","14","13,1","0,9","271,9","26,1","67,3","0","0"],
    [27856,"2017-04-05T02:00:00","59","10","11,1","2,7","108,2","25,7","69,8","0","0"],
    [27857,"2017-04-05T03:00:00","44","12","11,3","2,3","118,3","25,4","70,5","0","0"],
    [27858,"2017-04-05T04:00:00","59","9","13,2","1,9","193,3","25,4","70,4","0","0"],
    [27859,"2017-04-05T05:00:00","56","5","11,9","1,3","209,3","25","71,9","0","0"],
    [27860,"2017-04-05T06:00:00","85","15","9,9","2,5","225,5","25","71,9","0","0"],
    [27861,"2017-04-05T07:00:00","110","25","9,9","1,4","161,9","25,3","70,3","16,9","0"],
    [27862,"2017-04-05T08:00:00","90","10","14,2","1,1","169,2","26,6","65,2","63,6","0"],
    [27863,"2017-04-05T09:00:00","80","17","28,8","2,1","105,5","28,6","56,4","229,2","0"],
    [27864,"2017-04-05T10:00:00","95","23","52","2,6","82,1","30,1","52,4","327","0"],
    [27865,"2017-04-05T11:00:00","87","21","73","3,1","94,3","32","46","397","0"],
    [27866,"2017-04-05T12:00:00","74","17","84,3","3,3","83,4","32,7","43,2","318,5","0"],
    [27867,"2017-04-05T13:00:00","66","21","86,3","3,3","80,9","33,5","40,3","359,4","0"],
    [27868,"2017-04-05T14:00:00","77","22","124","3,5","60,9","34,5","38,1","323,5","0"],
    [27869,"2017-04-05T15:00:00","78","20","116,3","4,3","59,9","34,3","37,9","193,3","0"],
    [27870,"2017-04-05T16:00:00","69","15","78,9","2,1","58,9","33,9","38,4","113,5","0"],
    [27871,"2017-04-05T17:00:00","51","4","63","5,4","281,8","33","38,6","79,2","0"],
    [27872,"2017-04-05T18:00:00","75","18","50,9","5","289,8","32,1","40,2","28","0"],
    [27873,"2017-04-05T19:00:00","67","17","31,8","4,8","288","30,9","43,4","0","0"],
    [27874,"2017-04-05T20:00:00","98","10","19,8","1,9","68,1","29,3","52,3","0","0"],
    [27875,"2017-04-05T21:00:00","84","11","13,7","1,7","32,6","27,7","60,5","0","0"],
    [27876,"2017-04-05T22:00:00","119","37","11,3","1,1","28,9","27,6","60,1","0","0"],
    [27877,"2017-04-05T23:00:00","100","24","9,3","0,6","145,3","27,1","61,9","0","0"],
    [27878,"2017-04-06T00:00:00","95","35","10,9","2","169,9","26,7","65,4","0","0"],
    [27879,"2017-04-06T01:00:00","86","16","9,9","2,1","192,6","26,1","68,2","0","0"],
    [27880,"2017-04-06T02:00:00","97","23","12,7","2,3","188,7","25,4","70,4","0","0"],
    [27881,"2017-04-06T03:00:00","85","20","12,9","1,1","144,1","25,2","70,8","0","0"],
    [27882,"2017-04-06T04:00:00","86","25","11,4","2,5","109,5","24,6","72,6","0","0"],
    [27883,"2017-04-06T05:00:00","92","34","9,5","0,4","100,2","24,2","74,1","0","0"],
    [27884,"2017-04-06T06:00:00","147","62","10","1,7","87,2","24,1","74,3","0","0"],
    [27885,"2017-04-06T07:00:00","153","48","9,4","2,2","116,8","24,1","74","15,1","0"],
    [27886,"2017-04-06T08:00:00","105","25","13,2","2","182,7","25,2","71,2","83,7","0"],
    [27887,"2017-04-06T09:00:00","90","31","31","1,8","153,8","28,1","59,5","214,9","0"],
    [27888,"2017-04-06T10:00:00","63","14","58,6","2,2","141","30,4","51","324,1","0"],
    [27889,"2017-04-06T11:00:00","61","18","85,4","2,7","120,3","32,4","42,7","416,1","0"],
    [27890,"2017-04-06T12:00:00","77","14","92,5","3,6","103,1","32,7","42,3","299,3","0"],
    [27891,"2017-04-06T13:00:00","67","21","84","3,1","104,1","33,4","39,5","268,2","0"],
    [27892,"2017-04-06T14:00:00","81","17","87,5","3,6","73,2","34","38,4","253,3","0"],
    [27893,"2017-04-06T15:00:00","97","19","107,9","5,1","57,4","34,3","39,1","246,3","0"],
    [27894,"2017-04-06T16:00:00","92","24","86,6","5,5","41,8","34,3","39,2","167,6","0"],
    [27895,"2017-04-06T17:00:00","78","12","45,6","4,5","349,1","33,2","39,3","68,5","0"],
    [27896,"2017-04-06T18:00:00","59","11","36,4","4,9","300,4","32","40,9","23","0"],
    [27897,"2017-04-06T19:00:00","101","14","19,1","1,5","331,1","30,6","45,7","0","0"],
    [27898,"2017-04-06T20:00:00","124","35","10,9","3,1","81","28,9","53,6","0","0"],
    [27899,"2017-04-06T21:00:00","97","21","12,8","3,9","96,7","27","63","0","0"],
    [27900,"2017-04-06T22:00:00","80","26","14,2","2,1","38,2","26,7","63,9","0","0"],
    [27901,"2017-04-06T23:00:00","74","25","15,8","0,3","273,3","27,1","61,4","0","0"],
    [27902,"2017-04-07T00:00:00","89","28","11,3","2,1","118,7","27,1","62,2","0","0"],
    [27903,"2017-04-07T01:00:00","51","10","17,2","1,8","107,4","26,3","64,8","0","0"],
    [27904,"2017-04-07T02:00:00","55","9","15,8","1,5","75,5","25,6","67,8","0","0"],
    [27905,"2017-04-07T03:00:00","56","15","14,9","1,2","128,1","25,5","69,2","0","0"],
    [27906,"2017-04-07T04:00:00","74","11","11,7","2,5","129,3","25","72,1","0","0"],
    [27907,"2017-04-07T05:00:00","75","11","10,7","1,5","205,4","24,8","72,5","0","0"],
    [27908,"2017-04-07T06:00:00","77","18","10,6","1,4","183,9","24,6","72,5","0","0"],
    [27909,"2017-04-07T07:00:00","108","28","9,3","1,8","141,9","24,8","72,2","9,4","0"],
    [27910,"2017-04-07T08:00:00","85","21","15,8","2,1","195,3","26,6","64,7","97,5","0"],
    [27911,"2017-04-07T09:00:00","89","19","30,8","2,2","142,6","28,7","56,3","186,6","0"],
    [27912,"2017-04-07T10:00:00","83","19","47,5","3,2","132,5","30,4","52,1","303,5","0"],
    [27913,"2017-04-07T11:00:00","78","13","70,9","2,7","135,9","32,2","46,2","369,1","0"],
    [27914,"2017-04-07T12:00:00","70","22","86,1","3","73,6","33,3","41,3","423,2","0"],
    [27915,"2017-04-07T13:00:00","71","22","113,9","3,5","34,4","34,6","38,1","426,1","0"],
    [27916,"2017-04-07T14:00:00","76","21","124,8","3,6","57,7","35,4","35,5","408,9","0"],
    [27917,"2017-04-07T15:00:00","61","23","103,5","4,7","79,2","35,7","33,8","339,7","0"],
    [27918,"2017-04-07T16:00:00","59","8","65,5","4,4","59,8","35,3","34,1","150","0"],
    [27919,"2017-04-07T17:00:00","74","8","41,8","5,4","291,2","32,6","41,1","28,4","0"],
    [27920,"2017-04-07T18:00:00","ND","ND","41,8","6,6","267,2","29,2","55,2","4,6","0"],
    [27921,"2017-04-07T19:00:00","30","2","26,1","5,3","270,7","29,2","54,1","0","0"],
    [27922,"2017-04-07T20:00:00","63","11","17","1,7","314,8","29,5","51,4","0","0"],
    [27923,"2017-04-07T21:00:00","100","35","12,8","3,1","113,6","28,5","56,5","0","0"],
    [27924,"2017-04-07T22:00:00","89","27","13,3","1,3","174,4","28,1","58","0","0"],
    [27925,"2017-04-07T23:00:00","69","18","12,7","1,9","125,3","27,7","60","0","0"],
    [27926,"2017-04-08T00:00:00","66","17","14","2,6","101","27","62,6","0","0"],
    [27927,"2017-04-08T01:00:00","43","3","16,4","1,9","188,5","26,2","67,6","0","0"],
    [27928,"2017-04-08T02:00:00","51","5","19,2","2,2","220,9","26,1","70,4","0","0"],
    [27929,"2017-04-08T03:00:00","59","11","18,2","2,4","188,7","26,1","71,2","0","0"],
    [27930,"2017-04-08T04:00:00","61","14","20,8","1,5","182,6","26,3","68,8","0","0"],
    [27931,"2017-04-08T05:00:00","64","16","12,4","2,4","133,9","25,9","71,2","0","0,25"],
    [27932,"2017-04-08T06:00:00","53","15","12,2","2,1","204","25,1","75","0","0,25"],
    [27933,"2017-04-08T07:00:00","57","22","10,5","0,3","140,2","25,1","75,6","8","0"],
    [27934,"2017-04-08T08:00:00","72","32","12,3","1,5","149","25,9","72,9","41,1","0"],
    [27935,"2017-04-08T09:00:00","40","19","25,1","1,8","216,1","27,1","66,2","120,3","0"],
    [27936,"2017-04-08T10:00:00","44","15","40,5","1,7","197,4","29,2","57,3","205,2","0"],
    [27937,"2017-04-08T11:00:00","53","12","55,2","2,9","86,6","30,5","51,4","290,9","0"],
    [27938,"2017-04-08T12:00:00","54","9","71,1","3,1","76,6","31,7","47,9","344,3","0"],
    [27939,"2017-04-08T13:00:00","74","23","96,9","3,4","77","32,8","43,6","290,4","0"],
    [27940,"2017-04-08T14:00:00","73","17","92,3","4,2","84,8","32,7","43","247,7","0"],
    [27941,"2017-04-08T15:00:00","70","19","110,5","2,9","46,7","33,8","39,3","256,5","0"],
    [27942,"2017-04-08T16:00:00","46","ND","73,1","5,1","293,1","32","41,6","57,3","0"],
    [27943,"2017-04-08T17:00:00","30","6","42,4","6,8","284,3","30,6","45,4","32,9","0"],
    [27944,"2017-04-08T18:00:00","43","6","35","4,4","209,9","27,9","58,4","0","0"],
    [27945,"2017-04-08T19:00:00","43","5","23,6","2,5","183,6","25,6","72,3","0","0,51"],
    [27946,"2017-04-08T20:00:00","56","11","27,9","0,6","107,7","25,9","70,2","0","0"],
    [27947,"2017-04-08T21:00:00","71","18","22","0,4","129,5","26,5","66,8","0","0"],
    [27948,"2017-04-08T22:00:00","61","22","14,4","2,3","120","26","72,7","0","2,79"],
    [27949,"2017-04-08T23:00:00","73","32","12,9","2","104,8","25,7","75","0","0"],
    [27950,"2017-04-09T00:00:00","46","21","15,6","2,5","86,7","25,3","75,3","0","26,16"],
    [27951,"2017-04-09T01:00:00","18","ND","20,1","4,2","56,3","23,5","84,8","0","11,18"],
    [27952,"2017-04-09T02:00:00","27","ND","23","2,7","84,6","23,5","82,8","0","0"],
    [27953,"2017-04-09T03:00:00","21","ND","25,6","1","121,1","23,8","80,3","0","0,76"],
    [27954,"2017-04-09T04:00:00","31","ND","25","1,5","121,4","23,8","80,1","0","5,59"],
    [27955,"2017-04-09T05:00:00","28","7","23,1","1,3","159,1","23,7","81","0","2,29"],
    [27956,"2017-04-09T06:00:00","42","10","20,6","0,9","203,5","23,8","80,6","0","0,51"],
    [27957,"2017-04-09T07:00:00","37","6","18,9","2,2","196","23,8","80,9","0","0,25"],
    [27958,"2017-04-09T08:00:00","30","11","17,8","1,7","163,1","24","80,8","10,2","1,02"],
    [27959,"2017-04-09T09:00:00","35","7","23,6","3,3","196,7","24,4","79,1","54","0"],
    [27960,"2017-04-09T10:00:00","20","1","30,4","2,8","191,4","25,6","73,6","96,2","0"],
    [27961,"2017-04-09T11:00:00","24","ND","39,1","2,4","179,5","26,4","68,2","107,8","0"],
    [27962,"2017-04-09T12:00:00","35","ND","44,8","2","197,2","27,2","64,8","126,4","0"],
    [27963,"2017-04-09T13:00:00","28","6","52,7","1,9","142,4","27,7","61,8","177,4","0"],
    [27964,"2017-04-09T14:00:00","41","4","48,9","3,2","97,7","28,1","60,3","212,7","0"],
    [27965,"2017-04-09T15:00:00","39","14","71,8","2","85,2","29,4","53,6","184","0"],
    [27966,"2017-04-09T16:00:00","37","13","87,4","2,5","2,2","29,1","54,2","102,3","0"],
    [27967,"2017-04-09T17:00:00","42","8","47,8","5,1","8,3","27,6","57,5","40,5","0"],
    [27968,"2017-04-09T18:00:00","52","3","31,8","4,8","52,9","25,8","62,6","13,6","0"],
    [27969,"2017-04-09T19:00:00","66","ND","18,6","3,9","80,5","24,1","72","0","0,25"],
    [27970,"2017-04-09T20:00:00","24","ND","24,4","1,5","1,5","23,8","73,2","0","0,25"],
    [27971,"2017-04-09T21:00:00","41","4","15","2","79,7","23,9","74","0","0,25"],
    [27972,"2017-04-09T22:00:00","53","4","14,4","1,6","180,7","23,9","73,9","0","0"],
    [27973,"2017-04-09T23:00:00","40","8","23,8","2,1","193,4","23,9","74,3","0","0"],
    [27974,"2017-04-10T00:00:00","32","1","24,9","1","205,5","23,7","76,6","0","0"],
    [27975,"2017-04-10T01:00:00","25","ND","21,2","1,7","130,3","23,7","76,6","0","0"],
    [27976,"2017-04-10T02:00:00","32","ND","17,4","1,6","62,2","23,3","78,7","0","0"],
    [27977,"2017-04-10T03:00:00","44","15","18","1,4","51,6","23,3","78,1","0","0"],
    [27978,"2017-04-10T04:00:00","38","7","18,8","0,9","9,4","23,3","77,6","0","0"],
    [27979,"2017-04-10T05:00:00","91","35","10,3","1,8","60,6","23,3","78,7","0","0,25"],
    [27980,"2017-04-10T06:00:00","70","24","9","2,1","45,6","23","80,4","0","0,25"],
    [27981,"2017-04-10T07:00:00","60","12","10","2,4","8,3","22,8","80,2","8,3","0"],
    [27982,"2017-04-10T08:00:00","63","16","11,2","2,7","20,8","23,4","78,5","47,1","0"],
    [27983,"2017-04-10T09:00:00","61","10","23","3","5,7","25,6","69,1","199,8","0"],
    [27984,"2017-04-10T10:00:00","44","6","39,6","2,2","76,2","28,6","56,6","349,6","0"],
    [27985,"2017-04-10T11:00:00","52","8","56,7","3,2","104,3","29,5","52,7","376,7","0"],
    [27986,"2017-04-10T12:00:00","46","15","69,1","3,1","128","30,8","48,1","379,8","0"],
    [27987,"2017-04-10T13:00:00","44","18","90,6","1,9","108,6","32","44,2","410,7","0"],
    [27988,"2017-04-10T14:00:00","54","17","101,1","2,8","121,2","32,8","41,5","380,2","0"],
    [27989,"2017-04-10T15:00:00","56","17","105,7","2,8","86,6","32,8","41,3","267","0"],
    [27990,"2017-04-10T16:00:00","53","13","110,2","1,4","63,9","33,1","41,1","206,8","0"],
    [27991,"2017-04-10T17:00:00","68","16","93,2","1,7","328,6","31,5","46","36,4","0"],
    [27992,"2017-04-10T18:00:00","27","2","54,3","4,9","275,2","29,9","48,8","28,3","0"],
    [27993,"2017-04-10T19:00:00","38","ND","25,7","4,3","286,4","29,9","49,3","0","0"],
    [27994,"2017-04-10T20:00:00","48","ND","13,7","3,5","300,3","29,4","50,4","0","0"],
    [27995,"2017-04-10T21:00:00","83","10","11,5","2,5","104,8","28,5","57","0","0"],
    [27996,"2017-04-10T22:00:00","80","18","10,5","2","155,2","27,7","62","0","0"],
    [27997,"2017-04-10T23:00:00","64","14","12,4","1,6","173,3","27,3","63,1","0","0"],
    [27998,"2017-04-11T00:00:00","58","12","19,3","2,8","131,4","26,6","67,3","0","0"],
    [27999,"2017-04-11T01:00:00","28","6","34,3","4","160,2","25,5","70,2","0","0"],
    [28000,"2017-04-11T02:00:00","19","5","30,2","2,5","191,5","24,9","73,6","0","0"],
    [28001,"2017-04-11T03:00:00","23","3","26","1,1","128,3","24,8","74,5","0","0"],
    [28002,"2017-04-11T04:00:00","30","ND","20,2","1,9","118,2","24,3","76,7","0","0"],
    [28003,"2017-04-11T05:00:00","33","7","13,2","0,4","86,7","24,3","76,9","0","0"],
    [28004,"2017-04-11T06:00:00","70","8","8,9","0,3","349,6","24,9","75","0","0"],
    [28005,"2017-04-11T07:00:00","79","24","9,1","1,1","130,5","25,1","75,1","0","2,29"],
    [28006,"2017-04-11T08:00:00","34","16","13","1,1","283,4","24,3","79,1","23,7","4,83"],
    [28007,"2017-04-11T09:00:00","33","8","12,6","1,9","176,3","24,6","79,1","30,7","2,54"],
    [28008,"2017-04-11T10:00:00","24","5","16,8","1,9","186,7","24,3","80,5","42,1","6,86"],
    [28009,"2017-04-11T11:00:00","42","22","21,9","1,1","107,5","25,5","76,4","111,2","0,25"],
    [28010,"2017-04-11T12:00:00","32","15","41,2","2,8","347,1","26,8","69,1","179,3","0"],
    [28011,"2017-04-11T13:00:00","44","9","69,4","3","335,7","29,2","59,1","402,1","0"],
    [28012,"2017-04-11T14:00:00","30","4","77,8","3,3","345","31,6","44,7","430,2","0"],
    [28013,"2017-04-11T15:00:00","39","3","77,9","4,3","14,2","33","39,4","347,6","0"],
    [28014,"2017-04-11T16:00:00","43","6","68,5","3,8","43,9","33,5","37,7","212,3","0"],
    [28015,"2017-04-11T17:00:00","41","3","ND","4,4","315,5","31,7","42,7","79,7","0"],
    [28016,"2017-04-11T18:00:00","29","2","25,3","5,1","290,5","29,6","49,4","11,9","0"],
    [28017,"2017-04-11T19:00:00","44","7","16,5","2,7","287,3","29,3","48,9","0","0"],
    [28018,"2017-04-11T20:00:00","65","14","12,4","1,2","287,6","28,5","53,4","0","0"],
    [28019,"2017-04-11T21:00:00","79","12","16,2","3","190,9","27","64","0","0"],
    [28020,"2017-04-11T22:00:00","103","5","17,4","2,8","158,1","26,7","66,7","0","0"],
    [28021,"2017-04-11T23:00:00","71","9","15,3","1,9","173,3","25,9","71,6","0","0"],
    [28022,"2017-04-12T00:00:00","58","7","15,1","1,3","150,3","26","72","0","0"],
    [28023,"2017-04-12T01:00:00","40","11","14,3","0,9","121,5","26","72,2","0","0"],
    [28024,"2017-04-12T02:00:00","45","6","17,7","1,5","89,7","26","72","0","0"],
    [28025,"2017-04-12T03:00:00","36","5","10,5","3,6","89","25,2","75,6","0","0"],
    [28026,"2017-04-12T04:00:00","27","2","13,5","3,8","94,5","24,3","79,6","0","1,52"],
    [28027,"2017-04-12T05:00:00","31","4","23,3","1,2","63,7","24,1","80,7","0","5,33"],
    [28028,"2017-04-12T06:00:00","31","7","11,7","2,3","71,3","23,9","82,1","0","3,05"],
    [28029,"2017-04-12T07:00:00","17","4","15,3","0,3","263","24,1","80,4","16,3","0"],
    [28030,"2017-04-12T08:00:00","48","11","18,3","0,9","84,7","25,3","76,2","75,2","0"],
    [28031,"2017-04-12T09:00:00","39","9","27,8","1,5","154,2","26,6","69,6","111,4","0"],
    [28032,"2017-04-12T10:00:00","42","12","35,7","2,8","92,7","28,2","63,5","253,6","0"],
    [28033,"2017-04-12T11:00:00","42","8","54,8","2,8","80,8","30","56","363,7","0"],
    [28034,"2017-04-12T12:00:00","43","11","61,2","3,3","86","30,8","51,6","307,4","0"],
    [28035,"2017-04-12T13:00:00","43","6","72,3","2","88,7","32,7","45","393,6","0"],
    [28036,"2017-04-12T14:00:00","46","4","76,3","3,6","101,1","32,8","42,5","346,2","0"],
    [28037,"2017-04-12T15:00:00","34","4","81,2","2,2","158,1","34,5","38,9","341,6","0"],
    [28038,"2017-04-12T16:00:00","40","6","76,2","4","147,9","34","39,6","221","0"],
    [28039,"2017-04-12T17:00:00","80","18","66,9","4,7","132,6","32,3","47,2","60,2","0"],
    [28040,"2017-04-12T18:00:00","97","24","51,4","3,8","145,5","31,3","51,2","16,9","0"],
    [28041,"2017-04-12T19:00:00","63","13","39,6","4,7","191,3","29,4","53,9","0","0"],
    [28042,"2017-04-12T20:00:00","60","7","26,6","4,5","226,5","27,9","58,8","0","0"],
    [28043,"2017-04-12T21:00:00","43","1","22,9","2,1","244,4","27,9","56,5","0","0"],
    [28044,"2017-04-12T22:00:00","77","13","14,9","2,3","76,8","27,4","61,4","0","0"],
    [28045,"2017-04-12T23:00:00","68","10","13","3,2","114,1","26,4","68,1","0","0"],
    [28046,"2017-04-13T00:00:00","72","7","12","2","169,9","26,3","68","0","0"],
    [28047,"2017-04-13T01:00:00","52","4","13,6","1,8","240,7","25,7","71","0","0"],
    [28048,"2017-04-13T02:00:00","37","6","13,6","2,1","205,1","26","69,4","0","0"],
    [28049,"2017-04-13T03:00:00","41","4","9,8","2,4","162,5","25,7","71,6","0","0"],
    [28050,"2017-04-13T04:00:00","34","ND","9,9","1,7","89,7","25","76,6","0","0"],
    [28051,"2017-04-13T05:00:00","66","10","8,8","1,7","84,4","24,7","77,4","0","0"],
    [28052,"2017-04-13T06:00:00","55","7","8,3","0,6","325,5","24,5","77","0","0"],
    [28053,"2017-04-13T07:00:00","65","8","8,5","0,9","15,9","24,8","76,7","22,4","0"],
    [28054,"2017-04-13T08:00:00","75","9","13,9","0,5","135,4","26,5","68,9","105","0"],
    [28055,"2017-04-13T09:00:00","65","13","33,6","1,4","217,3","28,6","61","198,7","0"],
    [28056,"2017-04-13T10:00:00","60","12","62,5","0,7","291,2","30,1","55,5","269,9","0"],
    [28057,"2017-04-13T11:00:00","56","10","70,7","2","138,2","32,1","47,6","385,8","0"],
    [28058,"2017-04-13T12:00:00","52","8","70,6","2,8","101,3","33,3","44,2","404,9","0"],
    [28059,"2017-04-13T13:00:00","42","8","73,9","2","115,9","33,6","42,5","350,4","0"],
    [28060,"2017-04-13T14:00:00","46","7","64,9","3,8","82,2","34,4","38","331,8","0"],
    [28061,"2017-04-13T15:00:00","41","7","64,1","4,2","83,4","34,6","37,4","255,4","0"],
    [28062,"2017-04-13T16:00:00","54","6","68,9","4,1","91,8","34,2","39,6","186,3","0"],
    [28063,"2017-04-13T17:00:00","55","9","65,2","4,1","42,6","33,7","42,4","92,8","0"],
    [28064,"2017-04-13T18:00:00","45","5","41,1","5,3","308,2","32,2","45,1","20,1","0"],
    [28065,"2017-04-13T19:00:00","34","ND","34,4","6,6","291,2","30,7","49,5","0,1","0"],
    [28066,"2017-04-13T20:00:00","55","3","20,8","0,9","22,6","30","53,8","0","0"],
    [28067,"2017-04-13T21:00:00","40","3","17","0,8","115,7","29,3","57,2","0","0"],
    [28068,"2017-04-13T22:00:00","38","ND","14,1","1,6","98,4","27,7","67,1","0","5,84"],
    [28069,"2017-04-13T23:00:00","5","ND","24,1","2,2","281,9","26,9","67,9","0","2,03"],
    [28070,"2017-04-14T00:00:00","17","ND","26,5","2,9","268,5","26,7","67,7","0","0"],
    [28071,"2017-04-14T01:00:00","4","ND","30","2","262,5","27","60,6","0","0"],
    [28072,"2017-04-14T02:00:00","17","ND","28","3","205,5","26,3","68,3","0","6,35"],
    [28073,"2017-04-14T03:00:00","15","ND","32,9","5,1","249","24,6","78,7","0","1,02"],
    [28074,"2017-04-14T04:00:00","20","ND","26,9","1,8","105,1","24,7","76,9","0","0,51"],
    [28075,"2017-04-14T05:00:00","18","ND","22","2,1","90,2","24,6","78,5","0","1,78"],
    [28076,"2017-04-14T06:00:00","20","1","15,2","3,4","67,3","24,4","81,1","0","2,03"],
    [28077,"2017-04-14T07:00:00","11","ND","20,3","4,2","61,4","23,4","83,1","0,2","42,42"],
    [28078,"2017-04-14T08:00:00","14","ND","21,9","3,3","35,4","23,1","84,5","39,2","14,73"],
    [28079,"2017-04-14T09:00:00","12","ND","28,7","3,4","19,3","25,6","74,8","188,9","0"],
    [28080,"2017-04-14T10:00:00","8","ND","37","2,1","3,3","27,8","63,8","216,4","0"],
    [28081,"2017-04-14T11:00:00","14","ND","44","0,9","54,7","29,8","56","331,5","0"],
    [28082,"2017-04-14T12:00:00","14","ND","45,4","1,7","83,1","30,8","51,5","274","0"],
    [28083,"2017-04-14T13:00:00","17","ND","47,3","3,3","53,1","31,5","48","225","0"],
    [28084,"2017-04-14T14:00:00","21","ND","52,1","6","40,3","31,3","47,2","246,2","0"],
    [28085,"2017-04-14T15:00:00","19","ND","45,1","5,6","31,1","31","45","160,7","0"],
    [28086,"2017-04-14T16:00:00","31","ND","45,5","5,2","44,1","30,6","46,8","83,4","0"],
    [28087,"2017-04-14T17:00:00","27","ND","ND","3","94","29,2","55,6","49,5","0"],
    [28088,"2017-04-14T18:00:00","17","ND","ND","3,7","181,9","26","72,2","8,3","1,02"],
    [28089,"2017-04-14T19:00:00","15","ND","ND","3,4","195,6","24,9","78,6","0","0,51"],
    [28090,"2017-04-14T20:00:00","22","ND","ND","3,2","201","24,5","78,1","ND","0"],
    [28091,"2017-04-14T21:00:00","40","ND","ND","2,2","186,3","24,8","78","ND","0"],
    [28092,"2017-04-14T22:00:00","41","2","ND","2","158,9","24,9","76,9","0","0"],
    [28093,"2017-04-14T23:00:00","43","ND","ND","1,6","118,2","24,2","78,7","0","0"],
    [28094,"2017-04-15T00:00:00","34","ND","ND","1","168","24,4","76,7","0","0"],
    [28095,"2017-04-15T01:00:00","29","ND","ND","1,3","105,7","24,3","77","0","0"],
    [28096,"2017-04-15T02:00:00","29","ND","ND","0,3","178,4","24,2","77","0","0"],
    [28097,"2017-04-15T03:00:00","39","ND","ND","1,6","88,3","24","78,6","0","0"],
    [28098,"2017-04-15T04:00:00","33","1","ND","1,9","78,1","23,9","78,4","0","0"],
    [28099,"2017-04-15T05:00:00","37","1","ND","1,6","40,6","23,9","78,8","0","0"],
    [28100,"2017-04-15T06:00:00","32","1","ND","1","1,4","24","78,8","0","0"],
    [28101,"2017-04-15T07:00:00","75","14","ND","2,3","72,1","23,9","78,9","9,9","0"],
    [28102,"2017-04-15T08:00:00","60","14","ND","2,8","62,1","24,5","78","50,8","0"],
    [28103,"2017-04-15T09:00:00","63","8","ND","1,6","45,6","26,4","69,3","136","0"],
    [28104,"2017-04-15T10:00:00","63","8","ND","2,1","85,9","27,6","64,3","165,7","0"],
    [28105,"2017-04-15T11:00:00","55","12","ND","2,8","96,6","29,3","56,5","356,4","0"],
    [28106,"2017-04-15T12:00:00","38","10","ND","3,1","114,6","31","49,6","414,4","0"],
    [28107,"2017-04-15T13:00:00","36","6","ND","2,9","121,5","32,4","45,3","433,6","0"],
    [28108,"2017-04-15T14:00:00","31","9","ND","2,9","81,8","32,9","44,2","396","0"],
    [28109,"2017-04-15T15:00:00","45","3","ND","3,6","67,3","33,7","42,7","340,7","0"],
    [28110,"2017-04-15T16:00:00","54","6","ND","5,3","52,7","34","42,4","227,1","0"],
    [28111,"2017-04-15T17:00:00","41","1","ND","4,4","14,1","33,6","42,5","104,9","0"],
    [28112,"2017-04-15T18:00:00","28","ND","ND","3,5","336,1","32,7","43,6","42,9","0"],
    [28113,"2017-04-15T19:00:00","38","ND","ND","4,3","290","30,6","50,7","0,6","0"],
    [28114,"2017-04-15T20:00:00","56","ND","ND","2,2","351,7","30,2","52,8","0","0"],
    [28115,"2017-04-15T21:00:00","50","8","ND","2,1","95,5","29,2","58,8","0","0"],
    [28116,"2017-04-15T22:00:00","45","5","ND","1,6","145,3","28,1","65,1","0","0"],
    [28117,"2017-04-15T23:00:00","60","1","ND","1,8","177,4","27,8","68,2","0","0"],
    [28118,"2017-04-16T00:00:00","61","20","ND","2,8","232,7","27,2","68","0","0"],
    [28119,"2017-04-16T01:00:00","59","ND","ND","2,5","110,5","26,7","69,2","0","0"],
    [28120,"2017-04-16T02:00:00","33","2","ND","1,2","147,2","26,4","69,4","0","0"],
    [28121,"2017-04-16T03:00:00","43","1","ND","2,3","120,7","26","71,6","0","0"],
    [28122,"2017-04-16T04:00:00","43","ND","ND","1","193,1","25,9","72,2","0","0"],
    [28123,"2017-04-16T05:00:00","39","5","ND","1,3","183,3","26","71,8","0","0"],
    [28124,"2017-04-16T06:00:00","50","2","ND","1,8","102,4","25,5","75,5","0","3,3"],
    [28125,"2017-04-16T07:00:00","25","ND","ND","2,5","328","25","79,1","7,5","5,59"],
    [28126,"2017-04-16T08:00:00","39","3","ND","1","149,2","25,9","76,9","48,3","0"],
    [28127,"2017-04-16T09:00:00","ND","ND","ND","ND","ND","ND","ND","ND","ND"],
    [28128,"2017-04-16T10:00:00","ND","ND","ND","ND","ND","ND","ND","ND","ND"],
    [28129,"2017-04-16T11:00:00","36","7","ND","3","74,1","31,2","52","338,2","0"],
    [28130,"2017-04-16T12:00:00","26","1","ND","3,5","66,8","32","48,3","254,5","0"],
    [28131,"2017-04-16T13:00:00","34","ND","ND","4,1","43,3","32,4","47,4","317","0"],
    [28132,"2017-04-16T14:00:00","41","ND","ND","4,2","72,8","34,4","41,5","412,1","0"],
    [28133,"2017-04-16T15:00:00","38","ND","ND","5,1","66,7","34,7","41,3","355,7","0"],
    [28134,"2017-04-16T16:00:00","39","ND","ND","4,8","70,9","35","40,3","242,2","0"],
    [28135,"2017-04-16T17:00:00","45","ND","ND","4,9","48,9","33,9","42,7","61","0"],
    [28136,"2017-04-16T18:00:00","25","ND","ND","5","296,9","32,1","44,1","12,8","0"],
    [28137,"2017-04-16T19:00:00","35","ND","ND","5,6","296,5","30,6","49,1","0","0"],
    [28138,"2017-04-16T20:00:00","36","ND","16,1","3,5","316,3","30,1","51,4","0","0"],
    [28139,"2017-04-16T21:00:00","55","9","11,1","3,7","102,6","28,4","61,5","0","0"],
    [28140,"2017-04-16T22:00:00","60","3","11","1,9","108,2","27,7","65","0","0"],
    [28141,"2017-04-16T23:00:00","44","ND","14,3","2,5","179,7","27,7","64,9","0","0"],
    [28142,"2017-04-17T00:00:00","26","ND","22,1","3,3","159","27,1","64,8","0","0"],
    [28143,"2017-04-17T01:00:00","17","ND","26,8","2,1","199,1","26","68,4","0","0"],
    [28144,"2017-04-17T02:00:00","10","ND","26","2","312,6","25,5","73","0","0"],
    [28145,"2017-04-17T03:00:00","20","ND","16,6","0,4","252,4","25,8","73,3","0","15,75"],
    [28146,"2017-04-17T04:00:00","17","ND","19,3","1,4","331","24,5","79,6","0","5,33"],
    [28147,"2017-04-17T05:00:00","13","ND","11,9","2","140,1","24,5","81,2","0","25,15"],
    [28148,"2017-04-17T06:00:00","26","1","9,9","2,3","136,7","24,1","81,8","0","7,87"],
    [28149,"2017-04-17T07:00:00","32","1","10,2","2","122,5","23,8","81,2","0","4,06"],
    [28150,"2017-04-17T08:00:00","37","ND","9,9","2,2","123","23,9","81,6","9,8","7,11"],
    [28151,"2017-04-17T09:00:00","25","4","15,4","0,2","265,6","24,9","78,4","86","0,25"],
    [28152,"2017-04-17T10:00:00","27","2","31,8","1,8","321,1","27,3","67,1","231,3","0"],
    [28153,"2017-04-17T11:00:00","42","14","38,1","1,9","359,6","28,5","62,3","237,3","0"],
    [28154,"2017-04-17T12:00:00","29","4","59,6","2,3","87,1","31,3","50,4","431,4","0"],
    [28155,"2017-04-17T13:00:00","ND","ND","77,8","2,3","96,9","31,6","48,8","247","0"],
    [28156,"2017-04-17T14:00:00","43","7","66,7","3,6","101,1","32","48,9","266,9","0"],
    [28157,"2017-04-17T15:00:00","56","11","52,4","4,1","74,6","31,3","50,1","97,1","0"],
    [28158,"2017-04-17T16:00:00","41","6","27,6","2,2","303,1","27,6","65,3","13,4","37,59"],
    [28159,"2017-04-17T17:00:00","34","2","18,4","2,1","347,1","26","76,3","19,6","0"],
    [28160,"2017-04-17T18:00:00","22","1","13,3","3,1","23,4","25,9","70,9","0","0"],
    [28161,"2017-04-17T19:00:00","58","5","9,9","1,8","73,7","25,8","72,7","0","0"],
    [28162,"2017-04-17T20:00:00","46","5","11","2,1","227,1","25,8","72,2","0","0"],
    [28163,"2017-04-17T21:00:00","48","2","9,4","2,4","165,8","25,8","74","0","2,29"],
    [28164,"2017-04-17T22:00:00","19","ND","10","2,5","221,2","24,8","79,7","0","3,81"],
    [28165,"2017-04-17T23:00:00","22","ND","9,1","2","149,8","24,9","79,9","0","1,02"],
    [28166,"2017-04-18T00:00:00","26","ND","10,7","2","198,8","24,3","79,4","0","1,27"],
    [28167,"2017-04-18T01:00:00","13","ND","12","1,6","124,6","24,1","79,8","0","0,25"],
    [28168,"2017-04-18T02:00:00","24","ND","11,6","0,5","149,9","23,9","80,8","0","0,25"],
    [28169,"2017-04-18T03:00:00","23","ND","10","1,8","76,4","23,7","81,5","0","0"],
    [28170,"2017-04-18T04:00:00","37","ND","9,1","1,2","99","23,8","80,6","0","0"],
    [28171,"2017-04-18T05:00:00","34","ND","9,4","1,5","171","23,9","80,6","0","0"],
    [28172,"2017-04-18T06:00:00","39","ND","8,6","1,7","153,1","23,9","80","0","1,78"],
    [28173,"2017-04-18T07:00:00","28","3","8,6","1","92,4","23,9","80,8","6,8","3,56"],
    [28174,"2017-04-18T08:00:00","36","3","12,6","1","173,4","24,8","77,9","70,9","0"],
    [28175,"2017-04-18T09:00:00","38","3","31,5","1","343,2","27","67,1","168,4","0"],
    [28176,"2017-04-18T10:00:00","31","5","49,6","1,9","76,2","29,4","57,3","302,7","0"],
    [28177,"2017-04-18T11:00:00","31","ND","46,4","2,8","105,8","30,9","51,1","364,2","0"],
    [28178,"2017-04-18T12:00:00","32","ND","42,6","2,7","94,4","32,1","47,3","406,5","0"],
    [28179,"2017-04-18T13:00:00","39","ND","55","2,6","56,2","33,3","43,8","437,3","0"],
    [28180,"2017-04-18T14:00:00","46","2","66","3,7","85,6","34,1","41,4","394,7","0"],
    [28181,"2017-04-18T15:00:00","51","3","57,3","4,3","96,3","33,8","41,8","238,6","0"],
    [28182,"2017-04-18T16:00:00","40","1","34,4","5,8","289,4","30","49,1","34,4","0"],
    [28183,"2017-04-18T17:00:00","45","ND","16,8","5","283,8","29,2","55,4","35,9","0"],
    [28184,"2017-04-18T18:00:00","51","ND","13,2","3,7","304,1","29,9","51","9,9","0"],
    [28185,"2017-04-18T19:00:00","94","10","10,9","2,9","61,9","29,1","58,5","0","0"],
    [28186,"2017-04-18T20:00:00","78","10","11","2,2","63,9","27,9","64,2","0","0"],
    [28187,"2017-04-18T21:00:00","38","4","14,5","3,1","289,8","27","65,9","0","0"],
    [28188,"2017-04-18T22:00:00","23","ND","13,6","3,4","305,4","26,3","68,4","0","0"],
    [28189,"2017-04-18T23:00:00","55","1","10","1,5","137,7","26,6","68,3","0","12,19"],
    [28190,"2017-04-19T00:00:00","19","ND","10,7","1,6","139,2","24,2","82,3","0","24,38"],
    [28191,"2017-04-19T01:00:00","6","ND","15,4","0,6","81,3","23,9","82,9","0","5,08"],
    [28192,"2017-04-19T02:00:00","5","ND","16,2","1,7","91","23,7","84","0","7,37"],
    [28193,"2017-04-19T03:00:00","18","ND","15,7","2,2","231,5","23,9","82,9","0","0"],
    [28194,"2017-04-19T04:00:00","20","ND","14,7","1,1","206,7","24,1","80,6","0","0"],
    [28195,"2017-04-19T05:00:00","21","5","12,4","0,9","181,5","24,3","79","0","0"],
    [28196,"2017-04-19T06:00:00","37","8","9,5","2,5","67,2","24,3","79,6","0","0,25"],
    [28197,"2017-04-19T07:00:00","31","9","11","3,9","80,3","23,4","78,4","0","0,76"],
    [28198,"2017-04-19T08:00:00","ND","6","12","2,8","117,4","22,8","80,5","10,4","2,54"],
    [28199,"2017-04-19T09:00:00","ND","2","15,1","1","197,2","23","79,6","26,4","1,78"],
    [28200,"2017-04-19T10:00:00","11","ND","20,6","2,2","283,9","23,7","77,6","75,4","2,03"],
    [28201,"2017-04-19T11:00:00","23","1","31,2","0,2","44,9","26,1","69,9","266,8","0,25"],
    [28202,"2017-04-19T12:00:00","26","2","45,9","2,4","48,8","29,1","56,4","414,2","0"],
    [28203,"2017-04-19T13:00:00","24","ND","75,6","0,9","351,4","30,6","48,3","388,7","0"],
    [28204,"2017-04-19T14:00:00","37","4","108","1,4","52","31,1","47,2","325,4","0"],
    [28205,"2017-04-19T15:00:00","46","11","105,8","3,6","38,2","31,9","45,4","335,8","0"],
    [28206,"2017-04-19T16:00:00","30","4","67,3","4,1","7,8","31,7","44,6","254,7","0"],
    [28207,"2017-04-19T17:00:00","23","ND","54,3","3,8","16,5","31,5","43,7","116,7","0"],
    [28208,"2017-04-19T18:00:00","47","2","40,9","3,2","13,8","30,2","50,4","20,3","0"],
    [28209,"2017-04-19T19:00:00","67","16","28","1,5","347,9","29,2","54","0","0"],
    [28210,"2017-04-19T20:00:00","99","21","13,1","1","55,3","28,6","56,1","0","0"],
    [28211,"2017-04-19T21:00:00","84","ND","17","3,9","95","26,6","66,6","0","0"],
    [28212,"2017-04-19T22:00:00","50","3","17,6","1,9","66,8","25,9","71,5","0","0,25"],
    [28213,"2017-04-19T23:00:00","26","ND","20,7","1,2","220,8","25,4","74,1","0","1,27"],
    [28214,"2017-04-20T00:00:00","22","ND","19","3,5","215,2","24,9","75,4","0","0,25"],
    [28215,"2017-04-20T01:00:00","14","ND","14,7","1,9","170,5","24,6","77,5","0","1,02"],
    [28216,"2017-04-20T02:00:00","22","ND","14,8","2,8","145,4","24,5","78,6","0","0"],
    [28217,"2017-04-20T03:00:00","27","ND","16,5","1,6","73,8","24,4","78,4","0","0"],
    [28218,"2017-04-20T04:00:00","38","5","14,7","1,6","73,6","24,4","77,6","0","0"],
    [28219,"2017-04-20T05:00:00","33","4","12,6","0,2","55,3","24,3","77,5","0","0"],
    [28220,"2017-04-20T06:00:00","43","1","8,9","0,9","220,7","24,5","77,4","0","0"],
    [28221,"2017-04-20T07:00:00","45","8","9,2","2,2","191,6","24,5","78,3","0","0"],
    [28222,"2017-04-20T08:00:00","50","7","9,9","0,5","275","25","76,7","33,5","0"],
    [28223,"2017-04-20T09:00:00","63","9","15,3","0,6","260","26,8","66,6","90,2","0"],
    [28224,"2017-04-20T10:00:00","51","13","24,3","1,9","111,1","28,3","59,7","158,7","0"],
    [28225,"2017-04-20T11:00:00","43","6","31,8","3,3","91,9","29,2","56,9","274,2","0"],
    [28226,"2017-04-20T12:00:00","44","ND","43,5","3,9","89,7","29,6","55,4","255,4","0"],
    [28227,"2017-04-20T13:00:00","34","4","41,3","5,1","36,7","28,7","58,4","183","0"],
    [28228,"2017-04-20T14:00:00","48","7","25,1","3,6","359,3","26,1","68,1","35,4","0"],
    [28229,"2017-04-20T15:00:00","37","5","22,1","5,2","46,4","25,4","72,6","54,8","0,25"],
    [28230,"2017-04-20T16:00:00","35","6","23,8","4","19","25,4","73,9","62,9","0,25"],
    [28231,"2017-04-20T17:00:00","20","4","19,1","4,1","31,4","25","75,9","22,9","6,6"],
    [28232,"2017-04-20T18:00:00","24","ND","13,6","2,7","145,1","23,7","79,3","0","11,68"],
    [28233,"2017-04-20T19:00:00","24","ND","17,4","3,5","203,4","23","81,3","0","7,11"],
    [28234,"2017-04-20T20:00:00","13","ND","16,3","2,6","205,6","22,8","81,3","0","3,05"],
    [28235,"2017-04-20T21:00:00","19","ND","15,8","2,9","230,9","22,8","80,2","0","0,25"],
    [28236,"2017-04-20T22:00:00","30","ND","13,1","1,6","196,3","23,1","79,3","0","0"],
    [28237,"2017-04-20T23:00:00","38","3","9,7","1,9","126,8","23,2","80,2","0","0"],
    [28238,"2017-04-21T00:00:00","37","3","11,2","2","102,2","22,9","80,9","0","0"],
    [28239,"2017-04-21T01:00:00","26","ND","12,2","1","182,1","22,9","80,3","0","0"],
    [28240,"2017-04-21T02:00:00","34","1","14","0,9","157,4","22,9","79,8","0","0"],
    [28241,"2017-04-21T03:00:00","35","2","12,1","1,5","100,1","22,9","80,4","0","0"],
    [28242,"2017-04-21T04:00:00","52","17","10,5","2,7","101,2","22,6","81,4","0","0"],
    [28243,"2017-04-21T05:00:00","62","18","9,4","0,6","141,4","22,6","81,4","0","0"],
    [28244,"2017-04-21T06:00:00","71","23","9,1","0,5","22,6","22,7","80,4","0","0,25"],
    [28245,"2017-04-21T07:00:00","99","28","9,9","1,7","51,8","23","79,7","6,1","0"],
    [28246,"2017-04-21T08:00:00","78","14","11,9","0,4","108,5","23,7","76,3","48,2","0"],
    [28247,"2017-04-21T09:00:00","63","16","20,4","0,8","4,3","24,9","70,8","97,6","0"],
    [28248,"2017-04-21T10:00:00","76","22","31,2","2,5","49,2","26,6","64,6","212,7","0"],
    [28249,"2017-04-21T11:00:00","51","12","41,1","2,5","61,3","28","58,1","282,7","0"],
    [28250,"2017-04-21T12:00:00","48","6","45,8","2,7","71,7","29,2","54,5","274,5","0"],
    [28251,"2017-04-21T13:00:00","42","11","54,4","2,6","87,2","30,1","50,8","361,9","0"],
    [28252,"2017-04-21T14:00:00","41","3","60,9","3,2","101,2","31,3","46,7","326,5","0"],
    [28253,"2017-04-21T15:00:00","42","1","51,7","3,3","91","30,6","48,2","173,9","0"],
    [28254,"2017-04-21T16:00:00","48","1","52,1","2,9","119,7","30,6","49,2","120,7","0"],
    [28255,"2017-04-21T17:00:00","62","9","45,1","2,9","135,9","30,2","50,9","67","0"],
    [28256,"2017-04-21T18:00:00","59","10","43,8","2,1","181,8","29,5","51,7","23,1","0"],
    [28257,"2017-04-21T19:00:00","76","18","37,9","2","224,2","28,7","55,6","0","0"],
    [28258,"2017-04-21T20:00:00","143","38","13,8","2,3","141,1","27,7","63,1","0","0"],
    [28259,"2017-04-21T21:00:00","92","19","18,6","1,7","186,2","26,7","67,4","0","0"],
    [28260,"2017-04-21T22:00:00","112","26","12,8","2,1","120,4","26,1","71,4","0","0"],
    [28261,"2017-04-21T23:00:00","91","12","11,8","1","188","25,9","71,2","0","0"],
    [28262,"2017-04-22T00:00:00","99","15","10","1,4","123,5","25,4","73,5","0","0"],
    [28263,"2017-04-22T01:00:00","70","20","10,3","1,3","158,7","24,6","76,9","0","0"],
    [28264,"2017-04-22T02:00:00","62","21","10,8","1,2","159,9","24,4","77,3","0","0"],
    [28265,"2017-04-22T03:00:00","70","20","11,5","0,9","255,7","24,5","76,9","0","0"],
    [28266,"2017-04-22T04:00:00","75","20","9,5","1,3","100,6","24,5","76,7","0","0"],
    [28267,"2017-04-22T05:00:00","93","28","9,4","1,4","80,3","24,2","78,5","0","0"],
    [28268,"2017-04-22T06:00:00","124","36","9,1","1,8","102,7","24,2","78,2","0","0"],
    [28269,"2017-04-22T07:00:00","93","23","9","0,7","149,4","24,2","78,7","10,1","0"],
    [28270,"2017-04-22T08:00:00","131","46","12,2","1,1","168,1","25,7","72,3","100,2","0"],
    [28271,"2017-04-22T09:00:00","120","42","27,3","2,8","95,4","28","63,2","206,3","0"],
    [28272,"2017-04-22T10:00:00","79","8","51,6","1,8","101,9","30,1","54,2","314,2","0"],
    [28273,"2017-04-22T11:00:00","62","16","64","2,6","88,9","31,7","48,4","388,3","0"],
    [28274,"2017-04-22T12:00:00","48","6","63,3","2,2","66,5","33,3","42,8","430,3","0"],
    [28275,"2017-04-22T13:00:00","41","8","68,3","2,4","68,6","34,3","38,2","433,5","0"],
    [28276,"2017-04-22T14:00:00","60","10","84","3,2","88,4","34,7","37,5","392,9","0"],
    [28277,"2017-04-22T15:00:00","62","16","97,1","3,6","72,2","35,1","37,1","313,6","0"],
    [28278,"2017-04-22T16:00:00","49","1","97,8","3,7","26,8","35,4","36,6","220","0"],
    [28279,"2017-04-22T17:00:00","64","10","75,8","4","29,4","34,3","39,3","93","0"],
    [28280,"2017-04-22T18:00:00","81","6","37,4","2,9","62,7","33,6","42,9","23,7","0"],
    [28281,"2017-04-22T19:00:00","39","1","20,3","4,1","295,9","31,6","48","0","0"],
    [28282,"2017-04-22T20:00:00","63","1","12,7","1,9","342,3","30,3","52,3","0","0"],
    [28283,"2017-04-22T21:00:00","103","28","10,3","4,2","120,5","28,6","61,8","0","0"],
    [28284,"2017-04-22T22:00:00","98","29","11,8","3,4","135,5","28,3","57,6","0","0"],
    [28285,"2017-04-22T23:00:00","48","ND","16,5","3","180,9","27,4","57","0","0"],
    [28286,"2017-04-23T00:00:00","52","5","14,6","1,6","218,6","26,7","60,5","0","0"],
    [28287,"2017-04-23T01:00:00","71","19","11,4","2","66,2","26,2","63,7","0","0"],
    [28288,"2017-04-23T02:00:00","58","10","11,4","1,9","151","25","69,1","0","0"],
    [28289,"2017-04-23T03:00:00","55","9","11,5","1,3","211,2","24,5","71,8","0","0"],
    [28290,"2017-04-23T04:00:00","45","6","10,8","0,8","148,4","24,8","71,3","0","0"],
    [28291,"2017-04-23T05:00:00","51","6","9,6","1,7","103,7","24,7","73","0","0"],
    [28292,"2017-04-23T06:00:00","81","14","9,3","2,1","88,1","24,4","74,5","0","0"],
    [28293,"2017-04-23T07:00:00","60","8","9,9","1,2","188,5","24,5","73,6","19,3","0"],
    [28294,"2017-04-23T08:00:00","57","5","13,1","2,4","115,1","26","68,9","99,7","0"],
    [28295,"2017-04-23T09:00:00","66","22","31,2","1,1","121,7","28,3","60,7","204","0"],
    [28296,"2017-04-23T10:00:00","69","4","50,2","0,9","109,8","30,7","52,4","307,3","0"],
    [28297,"2017-04-23T11:00:00","52","7","73,8","1","59,8","32,5","46,4","371,9","0"],
    [28298,"2017-04-23T12:00:00","54","8","71,5","3","86,1","33,6","43","429,7","0"],
    [28299,"2017-04-23T13:00:00","39","6","67,2","3,7","69,7","34,6","39,3","426,4","0"],
    [28300,"2017-04-23T14:00:00","64","10","81,9","3,8","65,7","35,2","38,8","381,9","0"],
    [28301,"2017-04-23T15:00:00","58","9","90,3","4,6","30,9","35,5","38,9","306,1","0"],
    [28302,"2017-04-23T16:00:00","52","5","51,8","3,2","314,2","34,9","38,5","192,4","0"],
    [28303,"2017-04-23T17:00:00","25","2","37,4","6,8","290,2","34,2","38,5","126,8","0"],
    [28304,"2017-04-23T18:00:00","29","ND","26,6","7","297,5","32,4","43,5","27,6","0"],
    [28305,"2017-04-23T19:00:00","39","ND","18,2","5,6","303,6","31,2","47,5","0","0"],
    [28306,"2017-04-23T20:00:00","70","1","12,7","3,1","82,7","30,2","53,3","0","0"],
    [28307,"2017-04-23T21:00:00","55","4","16,3","1,8","173,4","29,3","54,6","0","0"],
    [28308,"2017-04-23T22:00:00","68","15","17,9","2,5","142,8","28,2","56,3","0","2,03"],
    [28309,"2017-04-23T23:00:00","45","11","13,3","2,3","122,4","26,8","66,9","0","0,25"],
    [28310,"2017-04-24T00:00:00","35","11","19,4","2,1","223,4","26,6","67,7","0","0"],
    [28311,"2017-04-24T01:00:00","33","7","17,4","1","108,4","26,6","67,1","0","0"],
    [28312,"2017-04-24T02:00:00","31","ND","15,6","1,7","123,6","26,6","68,9","0","0"],
    [28313,"2017-04-24T03:00:00","35","ND","16,3","1,5","170,2","25,9","72,1","0","0"],
    [28314,"2017-04-24T04:00:00","31","ND","18,2","1,7","167","26","71,5","0","0"],
    [28315,"2017-04-24T05:00:00","48","ND","14,5","2,6","213","25,6","72,9","0","0"],
    [28316,"2017-04-24T06:00:00","69","15","11,1","1,1","137","25,9","71,8","0","0"],
    [28317,"2017-04-24T07:00:00","98","19","10,2","1,8","79,5","25,8","73,2","7,1","0"],
    [28318,"2017-04-24T08:00:00","68","13","11,8","1","318,1","26,7","70,9","73,6","0"],
    [28319,"2017-04-24T09:00:00","82","17","17,8","1,9","163,2","28,5","64","113,6","0"],
    [28320,"2017-04-24T10:00:00","88","14","32,2","0,4","41","29,7","59","147,4","0"],
    [28321,"2017-04-24T11:00:00","81","12","41,2","3,2","66,9","30,3","56,4","190,2","0"],
    [28322,"2017-04-24T12:00:00","56","7","41,8","3,8","47","30,8","55,4","188,7","0"],
    [28323,"2017-04-24T13:00:00","54","2","33,9","4,6","49,8","30,7","55,5","163","0"],
    [28324,"2017-04-24T14:00:00","50","10","38,7","4,3","48,1","30,9","54,9","196","0"],
    [28325,"2017-04-24T15:00:00","42","2","40,6","3,4","17,6","31,2","52","153,3","0"],
    [28326,"2017-04-24T16:00:00","53","10","34,4","4,3","56,7","31,7","49,1","136,2","0"],
    [28327,"2017-04-24T17:00:00","61","8","23,1","4","72,1","31,8","49,3","97,9","0"],
    [28328,"2017-04-24T18:00:00","39","3","22,8","1,7","265,1","31","47,2","24,5","0"],
    [28329,"2017-04-24T19:00:00","79","16","12,5","1,6","95,2","29,6","55,6","0","0"],
    [28330,"2017-04-24T20:00:00","71","5","10,2","1,5","342,1","28,6","59","0","0"],
    [28331,"2017-04-24T21:00:00","66","7","10,6","1,1","57,2","27,9","59,4","0","0"],
    [28332,"2017-04-24T22:00:00","50","6","11,1","2,6","64,7","25,9","69,5","0","0"],
    [28333,"2017-04-24T23:00:00","37","2","13,4","2,3","13","26,1","67,5","0","0"],
    [28334,"2017-04-25T00:00:00","33","ND","12,6","2,2","101,8","25,9","68","0","0"],
    [28335,"2017-04-25T01:00:00","24","ND","14,6","2","80,2","25,3","70,3","0","0"],
    [28336,"2017-04-25T02:00:00","37","ND","12,4","1,8","189,3","25,4","70,9","0","0"],
    [28337,"2017-04-25T03:00:00","35","ND","12,3","1,3","211,3","25,4","70,9","0","0"],
    [28338,"2017-04-25T04:00:00","48","ND","11,1","1,9","121,1","25,2","72,6","0","0"],
    [28339,"2017-04-25T05:00:00","52","ND","9,8","1,4","333,3","24,9","74","0","0"],
    [28340,"2017-04-25T06:00:00","79","19","10,7","1","95,3","24,7","74,3","0","0"],
    [28341,"2017-04-25T07:00:00","101","26","10,8","0,6","12,2","24,7","74,3","12,3","0"],
    [28342,"2017-04-25T08:00:00","114","20","12,2","1","57,7","25,8","70,7","70,4","0"],
    [28343,"2017-04-25T09:00:00","85","14","20,9","2,2","57,8","28,5","61,1","188,9","0"],
    [28344,"2017-04-25T10:00:00","66","16","35,7","2,1","133,6","30,4","54,7","300,8","0"],
    [28345,"2017-04-25T11:00:00","72","16","57,5","2,4","70,4","31,2","51,4","247,5","0"],
    [28346,"2017-04-25T12:00:00","75","20","90,1","2,9","23,5","32,9","46,2","432,8","0"],
    [28347,"2017-04-25T13:00:00","48","5","66,2","5,8","25,6","32,5","46,9","321,2","0"],
    [28348,"2017-04-25T14:00:00","43","ND","48,9","4,1","16,9","32,8","44,6","319,2","0"],
    [28349,"2017-04-25T15:00:00","31","ND","43","6","257,6","31,3","46,1","212,8","0"],
    [28350,"2017-04-25T16:00:00","39","ND","32,1","3,1","87,6","31,3","48,4","61,9","0"],
    [28351,"2017-04-25T17:00:00","43","ND","35","1,1","267,2","30,8","46,8","35,2","0"],
    [28352,"2017-04-25T18:00:00","64","5","20,6","4,8","77,1","29,2","56,5","9","0"],
    [28353,"2017-04-25T19:00:00","61","9","17,2","0,8","341,7","28,3","59,4","0","0"],
    [28354,"2017-04-25T20:00:00","67","10","19,1","5,3","246,3","27,8","62,6","0","0"],
    [28355,"2017-04-25T21:00:00","113","6","17,7","4","223,6","27,4","64,3","0","0"],
    [28356,"2017-04-25T22:00:00","48","ND","15,8","2,4","187,8","27,1","66,6","0","0"],
    [28357,"2017-04-25T23:00:00","42","7","15,5","2","129,4","26,9","68,8","0","0"],
    [28358,"2017-04-26T00:00:00","58","6","13,1","2,4","79,2","26,1","72,9","0","0"],
    [28359,"2017-04-26T01:00:00","41","4","16","1,9","113,3","26","73,1","0","0"],
    [28360,"2017-04-26T02:00:00","43","2","21,4","1,9","160,9","25,7","73,7","0","1,52"],
    [28361,"2017-04-26T03:00:00","20","ND","26,1","2,7","155","24,6","77,9","0","8,38"],
    [28362,"2017-04-26T04:00:00","22","ND","27,1","2","151","23,6","81,5","0","7,11"],
    [28363,"2017-04-26T05:00:00","18","ND","25,4","3","195,4","23,4","81,1","0","1,52"],
    [28364,"2017-04-26T06:00:00","20","ND","20,5","2,4","205,6","23,6","80,9","0","0,76"],
    [28365,"2017-04-26T07:00:00","32","ND","16,5","2","170,5","23,6","81,4","0","5,33"],
    [28366,"2017-04-26T08:00:00","24","ND","18,5","1,3","212,3","23,7","80,7","17,2","2,29"],
    [28367,"2017-04-26T09:00:00","27","ND","16,2","1,8","113,4","24,2","79,6","37,7","1,52"],
    [28368,"2017-04-26T10:00:00","15","ND","22,7","1,2","156,7","24,9","77,3","82,3","1,02"],
    [28369,"2017-04-26T11:00:00","21","ND","28","1,4","78,7","26,3","70,8","158","0"],
    [28370,"2017-04-26T12:00:00","16","ND","40,5","1,4","92","27,8","61,6","244,3","0"],
    [28371,"2017-04-26T13:00:00","ND","ND","ND","1,2","328,7","29,4","52,7","245,6","0,25"],
    [28372,"2017-04-26T14:00:00","34","2","84,9","1,6","320,9","29,7","52","193,9","0"],
    [28373,"2017-04-26T15:00:00","46","2","80","2,8","35,3","30,3","50,3","208,6","0"],
    [28374,"2017-04-26T16:00:00","39","ND","64,1","3,7","43,7","30,9","47,6","220,2","0"],
    [28375,"2017-04-26T17:00:00","55","ND","49,2","4,2","57,9","31,2","46,4","147,2","0"],
    [28376,"2017-04-26T18:00:00","51","5","45,5","4,3","20,3","29,7","54","34,7","0"],
    [28377,"2017-04-26T19:00:00","63","6","30,7","3,2","14","27,8","60","0","0"],
    [28378,"2017-04-26T20:00:00","69","15","20,6","1,2","67,5","27,4","61,9","0","0"],
    [28379,"2017-04-26T21:00:00","88","8","13","2,5","96,9","26,9","65,3","0","0"],
    [28380,"2017-04-26T22:00:00","80","9","14,1","2","75,7","26,3","67,8","0","0"],
    [28381,"2017-04-26T23:00:00","59","4","12,4","0,5","145,3","25,6","71","0","0"],
    [28382,"2017-04-27T00:00:00","69","9","9,4","0,8","154,2","25,4","72,6","0","0"],
    [28383,"2017-04-27T01:00:00","56","10","11,7","1,2","168,6","24,6","73,3","0","0"],
    [28384,"2017-04-27T02:00:00","48","6","10,5","0,6","130,9","24,4","72,4","0","0"],
    [28385,"2017-04-27T03:00:00","57","6","9,9","1,4","101,7","23,8","75","0","0"],
    [28386,"2017-04-27T04:00:00","63","12","9,3","1,1","62,2","23,8","75,8","0","0"],
    [28387,"2017-04-27T05:00:00","71","13","8,4","2,4","97,2","23,7","76,4","0","0"],
    [28388,"2017-04-27T06:00:00","81","17","8,4","1,4","163","23,8","75,3","0","0"],
    [28389,"2017-04-27T07:00:00","138","52","9,9","0,9","168,6","24,2","73,3","12,4","0"],
    [28390,"2017-04-27T08:00:00","73","19","13,5","1,3","345,2","25,6","67,5","93,2","0"],
    [28391,"2017-04-27T09:00:00","78","13","21,7","2","71,8","27,4","61","212,7","0"],
    [28392,"2017-04-27T10:00:00","59","8","38,1","2,4","73,7","29,4","54,7","315,8","0"],
    [28393,"2017-04-27T11:00:00","61","20","65,8","2,4","108,7","30,6","50,5","371,5","0"],
    [28394,"2017-04-27T12:00:00","70","17","88,5","2,8","77,9","32,2","45,4","414,9","0"],
    [28395,"2017-04-27T13:00:00","62","20","106,6","2,8","66,7","33,2","41,8","414,5","0"],
    [28396,"2017-04-27T14:00:00","64","13","119,3","3","84,4","33,8","39,8","390,2","0"],
    [28397,"2017-04-27T15:00:00","63","8","119,3","3,4","53","34,2","40,4","301,4","0"],
    [28398,"2017-04-27T16:00:00","60","10","90,7","4","23,4","33,9","41,5","159,7","0"],
    [28399,"2017-04-27T17:00:00","58","4","45,6","3,6","26,8","33,2","41,7","73,9","0"],
    [28400,"2017-04-27T18:00:00","58","ND","29,2","3,7","355,6","32,3","43,8","33,1","0"],
    [28401,"2017-04-27T19:00:00","86","20","17,1","1,9","324,6","30,8","48,1","0","0"],
    [28402,"2017-04-27T20:00:00","66","11","12,9","2,2","307,2","29,9","49,4","0","0"],
    [28403,"2017-04-27T21:00:00","79","11","13,5","3,3","94,7","28","60,7","0","0"],
    [28404,"2017-04-27T22:00:00","98","24","12,5","2,4","74,3","26,9","66","0","0"],
    [28405,"2017-04-27T23:00:00","83","12","12,5","1,6","42,6","26,5","66,9","0","0"],
    [28406,"2017-04-28T00:00:00","91","20","10,9","0,9","86,1","26,4","66,9","0","0"],
    [28407,"2017-04-28T01:00:00","44","ND","12,2","1,4","129,5","26,1","68,3","0","0"],
    [28408,"2017-04-28T02:00:00","60","5","12,4","1,1","293","25,5","71,2","0","0"],
    [28409,"2017-04-28T03:00:00","49","6","11","2,4","114","24,8","73,5","0","0"],
    [28410,"2017-04-28T04:00:00","67","10","10,9","1,3","115,1","24,7","74,1","0","0"],
    [28411,"2017-04-28T05:00:00","136","55","10,4","1,1","70,4","24,6","74,7","0","0"],
    [28412,"2017-04-28T06:00:00","104","27","10,5","0,5","215,3","24,9","73,9","0","0"],
    [28413,"2017-04-28T07:00:00","ND","30","10,7","1,7","116,9","24,8","74,4","13,5","0"],
    [28414,"2017-04-28T08:00:00","73","14","15,1","1,2","187,8","26","70","70,9","0"],
    [28415,"2017-04-28T09:00:00","114","20","19,5","0,8","150,2","27,1","67,2","91,2","0"],
    [28416,"2017-04-28T10:00:00","95","19","33,8","2,1","159,4","29","61","233,1","0"],
    [28417,"2017-04-28T11:00:00","69","9","54,4","2,6","156,5","31,3","51,5","375,6","0"],
    [28418,"2017-04-28T12:00:00","58","10","67,5","2,1","138","33,5","43,1","427,2","0"],
    [28419,"2017-04-28T13:00:00","62","10","72,6","3,3","88,6","34,2","40,4","473,2","0"],
    [28420,"2017-04-28T14:00:00","59","11","74,8","4,5","93,9","34,3","40,5","379,7","0"],
    [28421,"2017-04-28T15:00:00","80","6","78,8","3,3","105,6","34,5","41,3","301","0"],
    [28422,"2017-04-28T16:00:00","73","16","83,6","3,3","85,4","34,7","38,2","168,2","0"],
    [28423,"2017-04-28T17:00:00","87","15","93,3","2","73,6","33,9","40,8","53,8","0"],
    [28424,"2017-04-28T18:00:00","60","17","57,4","4,3","299,9","32,3","43","10,9","0"],
    [28425,"2017-04-28T19:00:00","73","10","24,1","3,5","320,9","30,9","47,5","0","0"],
    [28426,"2017-04-28T20:00:00","82","9","17,5","1,3","37,1","29,7","53,1","0","0"],
    [28427,"2017-04-28T21:00:00","71","12","15,6","3,2","47,2","28,2","60,4","0","0"],
    [28428,"2017-04-28T22:00:00","82","9","13,6","3,6","74,3","27,2","65,2","0","0"],
    [28429,"2017-04-28T23:00:00","79","20","12,3","1,3","66,3","27,4","64,4","0","0"],
    [28430,"2017-04-29T00:00:00","84","10","11,7","1,5","166,3","27,8","62,8","0","0"],
    [28431,"2017-04-29T01:00:00","43","5","14,9","2,3","74,2","26,8","66,5","0","0"],
    [28432,"2017-04-29T02:00:00","37","ND","15,7","1,5","192,5","27","65,5","0","0"],
    [28433,"2017-04-29T03:00:00","61","4","14,8","1,7","205,8","26,8","67,8","0","0"],
    [28434,"2017-04-29T04:00:00","63","5","12,1","0,9","158,7","25,8","75,3","0","3,05"],
    [28435,"2017-04-29T05:00:00","62","6","11","0,5","46,2","25,5","77,5","0","0"],
    [28436,"2017-04-29T06:00:00","67","12","10,3","1,7","118,1","25,4","77,7","0","0"],
    [28437,"2017-04-29T07:00:00","89","24","10,1","1,6","142,8","26","74,6","33,7","0"],
    [28438,"2017-04-29T08:00:00","44","25","14","2,8","114,6","27,4","68,3","109,6","0"],
    [28439,"2017-04-29T09:00:00","54","21","26,3","2,3","110,7","28,6","63","194,1","0"],
    [28440,"2017-04-29T10:00:00","82","11","42,4","2,7","55,8","30,9","54","227,1","0"],
    [28441,"2017-04-29T11:00:00","59","11","55","3,2","66,5","32,1","49,2","362,2","0"],
    [28442,"2017-04-29T12:00:00","62","6","66","3,7","83,5","32,5","46,6","281,9","0"],
    [28443,"2017-04-29T13:00:00","58","7","73,7","3,4","87,3","33,8","41,6","338,7","0"],
    [28444,"2017-04-29T14:00:00","56","9","75,2","5","64,9","33,9","42","339,6","0"],
    [28445,"2017-04-29T15:00:00","57","7","57,6","5,9","55","33,7","44,3","208,1","0"],
    [28446,"2017-04-29T16:00:00","59","ND","32","4,6","70,5","33,1","46,1","133,6","0"],
    [28447,"2017-04-29T17:00:00","27","ND","38,4","4,3","296,8","32,3","42,3","49,5","0"],
    [28448,"2017-04-29T18:00:00","36","ND","27,3","5","286,9","30,8","46,6","8,4","0"],
    [28449,"2017-04-29T19:00:00","40","ND","19,4","2,2","306,5","30,3","48,2","0","0"],
    [28450,"2017-04-29T20:00:00","54","ND","13,1","4,3","116","29","57,8","0","0"],
    [28451,"2017-04-29T21:00:00","44","2","15,3","1,9","250,2","28,5","57,7","0","0"],
    [28452,"2017-04-29T22:00:00","69","3","18,8","4,5","224,1","27,5","61,6","0","0"],
    [28453,"2017-04-29T23:00:00","60","9","15,2","2,1","100,4","26,8","67,2","0","0"],
    [28454,"2017-04-30T00:00:00","57","7","12,4","1,8","111,2","26,6","69,1","0","0"],
    [28455,"2017-04-30T01:00:00","40","10","13,1","1,9","187,2","26,4","69,5","0","0"],
    [28456,"2017-04-30T02:00:00","36","ND","17,5","2,8","207,9","26,3","69,6","0","0"],
    [28457,"2017-04-30T03:00:00","38","3","17,1","1,7","174,1","26,3","69,5","0","0"],
    [28458,"2017-04-30T04:00:00","48","8","11,5","3,6","79,4","25,3","76,6","0","1,02"],
    [28459,"2017-04-30T05:00:00","22","ND","11,2","1,6","28,8","24,6","77,9","0","0"],
    [28460,"2017-04-30T06:00:00","17","ND","11,9","1,3","8,7","24,7","76,3","0","0"],
    [28461,"2017-04-30T07:00:00","40","2","11,8","1,7","19,5","25","76,2","12,3","0"],
    [28462,"2017-04-30T08:00:00","53","8","14,4","0,5","55,2","26,1","72,7","68,7","0"],
    [28463,"2017-04-30T09:00:00","58","16","23,3","0,8","96,8","27,5","67,3","108,4","0"],
    [28464,"2017-04-30T10:00:00","55","15","27,8","3,4","111,6","27,8","66","133,6","0"],
    [28465,"2017-04-30T11:00:00","53","13","44,1","3","113,6","29","60,4","228,2","0"],
    [28466,"2017-04-30T12:00:00","36","7","64,4","1,9","51,9","30,8","52","347,8","0"],
    [28467,"2017-04-30T13:00:00","20","ND","75,7","2,6","335,2","32,6","45,2","449,1","0"],
    [28468,"2017-04-30T14:00:00","44","ND","68,7","2,9","66,4","33","42,5","253,9","0"],
    [28469,"2017-04-30T15:00:00","ND","4","50","2,3","135,1","28,8","59","19,2","4,83"],
    [28470,"2017-04-30T16:00:00","ND","ND","27,6","1","345,6","24,2","78,2","4,4","4,32"],
    [28471,"2017-04-30T17:00:00","26","6","17,5","4,2","82,3","24,3","78,2","5,2","1,02"],
    [28472,"2017-04-30T18:00:00","23","2","15,7","3,9","88,3","24,3","80,8","5,5","1,02"],
    [28473,"2017-04-30T19:00:00","29","ND","14,3","1,3","175,3","24,9","77,8","0","0,25"],
    [28474,"2017-04-30T20:00:00","27","2","13,4","1,7","151,5","24,8","78,7","0","4,83"],
    [28475,"2017-04-30T21:00:00","31","ND","11,3","2,1","89,2","24,4","80,7","0","1,27"],
    [28476,"2017-04-30T22:00:00","23","ND","12,1","2,4","94,4","24,4","78,4","0","0"],
    [28477,"2017-04-30T23:00:00","24","ND","15,7","1,5","28,7","24","78,3","0","0"],
    [28478,"2017-05-01T00:00:00","36","ND","15,1","0,6","46,6","24","77,8","0","0"],
    [28479,"2017-05-01T01:00:00","12","ND","16,8","1,3","75,9","23,9","77,7","0","0"],
    [28480,"2017-05-01T02:00:00","21","ND","16,2","0,9","176,7","23,9","77,6","0","0"],
    [28481,"2017-05-01T03:00:00","25","ND","13,9","1,7","108,5","23,7","78,5","0","0"],
    [28482,"2017-05-01T04:00:00","30","ND","12,2","1","95,4","23,6","79,3","0","0"],
    [28483,"2017-05-01T05:00:00","38","ND","10,8","1,3","107","23,7","79,2","0","0"],
    [28484,"2017-05-01T06:00:00","44","6","10,3","1,7","50,5","23,3","80,4","0","0"],
    [28485,"2017-05-01T07:00:00","34","3","10,7","0,8","330,3","23,4","80","16,3","0"],
    [28486,"2017-05-01T08:00:00","58","12","14,2","2,4","96,3","24,5","76,4","80,7","0"],
    [28487,"2017-05-01T09:00:00","55","10","22,5","2","110,7","26,3","69,5","165","0"],
    [28488,"2017-05-01T10:00:00","61","9","29,9","2,7","96,9","27,5","63,3","188,1","0"],
    [28489,"2017-05-01T11:00:00","37","4","45,4","1,2","81,6","29,8","54,5","328","0"],
    [28490,"2017-05-01T12:00:00","39","3","51,8","3,2","79,6","30,9","51,1","365","0"],
    [28491,"2017-05-01T13:00:00","35","ND","55,3","3,2","100,4","32","46,4","383,4","0"],
    [28492,"2017-05-01T14:00:00","28","ND","52,1","3,2","79,6","33,2","41,3","328,1","0"],
    [28493,"2017-05-01T15:00:00","53","ND","54,9","5,6","155,3","30,9","52","126,7","0"],
    [28494,"2017-05-01T16:00:00","40","ND","48,3","2,3","280,7","29","57,3","27,3","0"],
    [28495,"2017-05-01T17:00:00","19","ND","25,3","5","6,1","26,3","65,9","17,4","0"],
    [28496,"2017-05-01T18:00:00","40","ND","17,9","3,3","55,4","25,9","72","10,1","0"],
    [28497,"2017-05-01T19:00:00","62","ND","15,5","4,3","61,6","25,4","72,4","0","0"],
    [28498,"2017-05-01T20:00:00","44","ND","12,9","3,2","342,5","25,1","74,4","0","0"],
    [28499,"2017-05-01T21:00:00","54","4","10","0,6","305,5","25,3","73","0","0"],
    [28500,"2017-05-01T22:00:00","69","9","9,9","2,2","133,5","25,4","74,3","0","0"],
    [28501,"2017-05-01T23:00:00","54","9","10,5","2,5","98,9","24,9","76,2","0","0"],
    [28502,"2017-05-02T00:00:00","38","2","12,3","2,1","68,2","24,6","76,8","0","0"],
    [28503,"2017-05-02T01:00:00","21","ND","12,3","1,9","346,8","24,8","76,2","0","0"],
    [28504,"2017-05-02T02:00:00","14","ND","14,1","2,5","44,6","24,4","78,6","0","5,84"],
    [28505,"2017-05-02T03:00:00","17","ND","13,5","2,5","322,9","23,7","82,4","0","23,88"],
    [28506,"2017-05-02T04:00:00","24","ND","9,5","1,7","328","23,6","82,4","0","18,03"],
    [28507,"2017-05-02T05:00:00","20","ND","9,6","1,4","18,2","23,7","82,1","0","6,1"],
    [28508,"2017-05-02T06:00:00","38","ND","9,9","2,2","19,4","23,7","81,5","0","0,25"],
    [28509,"2017-05-02T07:00:00","24","3","11,7","2,1","345,7","23,9","79,6","17,9","0"],
    [28510,"2017-05-02T08:00:00","47","4","12,7","2,8","68,8","24,9","76,4","52,9","0"],
    [28511,"2017-05-02T09:00:00","42","4","16,8","3,3","52,7","25,6","73,8","97,6","0"],
    [28512,"2017-05-02T10:00:00","32","ND","24,5","3","36,2","27,4","65,3","209","0"],
    [28513,"2017-05-02T11:00:00","21","ND","36,3","2,6","355,8","29","57,9","269,8","0"],
    [28514,"2017-05-02T12:00:00","22","ND","40,5","2,5","84,7","30,6","50,9","290,4","0"],
    [28515,"2017-05-02T13:00:00","31","ND","49","2,8","84,3","31,9","47,8","407,1","0"],
    [28516,"2017-05-02T14:00:00","29","ND","68,4","1,8","83,3","33,2","42,2","363,4","0"],
    [28517,"2017-05-02T15:00:00","51","ND","50,5","4,4","88,6","31,4","49,9","191","0"],
    [28518,"2017-05-02T16:00:00","50","4","47,5","3,8","31,6","31,7","47,7","117,7","0"],
    [28519,"2017-05-02T17:00:00","55","5","30,2","4,9","54,6","30,6","49,8","53,7","0"],
    [28520,"2017-05-02T18:00:00","61","10","17,7","3,2","32,8","29,8","53,2","5,1","0"],
    [28521,"2017-05-02T19:00:00","92","12","11,2","2,7","78,7","28,4","60,5","0","0"],
    [28522,"2017-05-02T20:00:00","64","6","10,4","1,5","97,3","27,7","63,4","0","0"],
    [28523,"2017-05-02T21:00:00","51","1","10,3","2,5","135,2","26,5","70","0","0"],
    [28524,"2017-05-02T22:00:00","55","2","13,4","3,1","184","25,6","73,4","0","0"],
    [28525,"2017-05-02T23:00:00","41","ND","14","2","200,4","25,1","75,5","0","0"],
    [28526,"2017-05-03T00:00:00","51","ND","10","0,4","353,3","25,7","73,7","0","0"],
    [28527,"2017-05-03T01:00:00","47","ND","11","2,8","82,9","25,1","76,1","0","0"],
    [28528,"2017-05-03T02:00:00","44","1","12,5","1,3","96,3","24,4","77,1","0","0"],
    [28529,"2017-05-03T03:00:00","42","ND","10,7","0,9","118,9","24,1","78,1","0","0"],
    [28530,"2017-05-03T04:00:00","41","4","10,3","1,1","133,9","23,7","79,6","0","0"],
    [28531,"2017-05-03T05:00:00","47","ND","9,7","1,6","234,1","23,9","79,2","0","0"],
    [28532,"2017-05-03T06:00:00","67","ND","9,6","1,5","310,9","24,4","77,1","0","0"],
    [28533,"2017-05-03T07:00:00","128","28","10,3","1,9","65,7","24,8","76,1","12,4","0"],
    [28534,"2017-05-03T08:00:00","81","15","11,8","1,3","96","25,4","73,7","76,7","0"],
    [28535,"2017-05-03T09:00:00","79","21","21,2","1,2","239,3","27,4","67","148,7","0"],
    [28536,"2017-05-03T10:00:00","82","14","40,2","0,4","71,5","28,6","60,5","181,7","0"],
    [28537,"2017-05-03T11:00:00","ND","ND","46","3,3","59,4","30,1","54,5","290,4","0"],
    [28538,"2017-05-03T12:00:00","49","4","51,4","3,6","53,1","31,9","47,2","402,9","0"],
    [28539,"2017-05-03T13:00:00","47","6","55,6","4,1","55,5","32,7","43,9","399,2","0"],
    [28540,"2017-05-03T14:00:00","42","ND","49,5","5","64,2","33","42,9","371,3","0"],
    [28541,"2017-05-03T15:00:00","39","ND","49,7","3,4","36,4","32,2","44,6","157,2","0"],
    [28542,"2017-05-03T16:00:00","50","2","40,8","1,9","169,1","31,1","47,5","103,1","0"],
    [28543,"2017-05-03T17:00:00","59","5","49,3","2,8","238,5","28,5","61,3","24,7","2,54"],
    [28544,"2017-05-03T18:00:00","44","9","29,2","0,6","349","27,1","69,9","9,3","0,51"],
    [28545,"2017-05-03T19:00:00","53","9","23,5","2,8","191,8","26,7","69,6","0","1,02"],
    [28546,"2017-05-03T20:00:00","45","8","21,3","3,9","202,2","25,4","74,2","0","0"],
    [28547,"2017-05-03T21:00:00","60","14","13,5","2,2","166,8","25,9","72,3","0","0"],
    [28548,"2017-05-03T22:00:00","80","17","11,9","3,4","128,2","25,3","75,1","0","0"],
    [28549,"2017-05-03T23:00:00","58","9","15,2","1,3","194,9","25,2","72,9","0","0"],
    [28550,"2017-05-04T00:00:00","47","7","14,1","0,8","229,6","25,4","70,5","0","0"],
    [28551,"2017-05-04T01:00:00","68","7","10,1","1,6","79,3","25,2","74","0","0"],
    [28552,"2017-05-04T02:00:00","72","15","9,6","0,1","225,1","25,1","74,3","0","0"],
    [28553,"2017-05-04T03:00:00","53","8","10,6","1,9","144","24,9","74,8","0","0"],
    [28554,"2017-05-04T04:00:00","46","5","9,7","2,1","148,2","24,4","77,1","0","0"],
    [28555,"2017-05-04T05:00:00","63","ND","9,7","1,4","117,7","24,2","77","0","0"],
    [28556,"2017-05-04T06:00:00","132","27","10","2,2","109,9","23,9","77,9","0","0"],
    [28557,"2017-05-04T07:00:00","90","15","10,3","1,4","189,8","24,5","74,5","34","0"],
    [28558,"2017-05-04T08:00:00","80","13","12,3","1,2","227,8","25,7","70,1","61,9","0"],
    [28559,"2017-05-04T09:00:00","102","23","20,1","1,4","262,9","27,4","65,4","161,1","0"],
    [28560,"2017-05-04T10:00:00","94","23","47,5","1,2","168,9","29,9","55,5","264,9","0"],
    [28561,"2017-05-04T11:00:00","77","17","73,9","1,4","171,8","31,2","51,4","319,4","0"],
    [28562,"2017-05-04T12:00:00","60","5","76","1,9","144,2","33,1","44,1","406,7","0"],
    [28563,"2017-05-04T13:00:00","44","12","66,3","2,5","107,8","34","40,5","402,4","0"],
    [28564,"2017-05-04T14:00:00","52","10","61,7","2,5","83,1","33,6","40,1","165,5","0"],
    [28565,"2017-05-04T15:00:00","97","24","60,9","3,9","76,8","32,2","48,1","115,2","0"],
    [28566,"2017-05-04T16:00:00","71","8","69,1","3,4","60,2","33,6","39,8","203,2","0"],
    [28567,"2017-05-04T17:00:00","46","ND","37","8,4","195,4","25,7","68,1","14,6","27,18"],
    [28568,"2017-05-04T18:00:00","24","ND","27,1","1,5","199,5","23,2","83,1","0","39,37"],
    [28569,"2017-05-04T19:00:00","28","ND","13,5","1,9","268,5","23,8","79,9","0","0"],
    [28570,"2017-05-04T20:00:00","37","4","10,3","2,2","319,2","24,8","76","0","0"],
    [28571,"2017-05-04T21:00:00","66","23","9,8","0,9","107,9","24,5","76,9","0","0,25"],
    [28572,"2017-05-04T22:00:00","89","27","10,3","2,5","120,1","23,5","79,5","0","0"],
    [28573,"2017-05-04T23:00:00","76","11","10,2","0,8","2,5","24,1","76,4","0","0"],
    [28574,"2017-05-05T00:00:00","70","11","9,9","1,2","251,2","23,8","78","0","0"],
    [28575,"2017-05-05T01:00:00","45","4","9,8","1,4","254,8","23,8","77,9","0","0"],
    [28576,"2017-05-05T02:00:00","48","ND","9,9","1,6","168,1","23,7","77,8","0","0"],
    [28577,"2017-05-05T03:00:00","47","ND","9,4","2,3","173,5","22,8","80","0","0"],
    [28578,"2017-05-05T04:00:00","40","ND","9,7","1,3","219,5","22,7","80,6","0","0"],
    [28579,"2017-05-05T05:00:00","47","ND","9,9","1,6","176","22,9","80,1","0","0"],
    [28580,"2017-05-05T06:00:00","55","12","10,1","1,8","166,8","22,5","80,9","0","0"],
    [28581,"2017-05-05T07:00:00","60","8","10,1","2,2","144,6","22,5","81,6","12,7","0"],
    [28582,"2017-05-05T08:00:00","54","3","10,7","2,4","135,2","23,1","78,9","52,2","0"],
    [28583,"2017-05-05T09:00:00","64","9","13,4","1,4","17","24,6","73,1","137,7","0"],
    [28584,"2017-05-05T10:00:00","47","8","28,1","1,6","39","28,1","59,6","336","0"],
    [28585,"2017-05-05T11:00:00","46","4","41,3","2,7","75,7","30,1","52,5","436,5","0"],
    [28586,"2017-05-05T12:00:00","48","ND","50,2","3,4","88,5","30,6","51","281","0"],
    [28587,"2017-05-05T13:00:00","59","3","53,4","3,3","89,7","31,1","49,8","320,8","0"],
    [28588,"2017-05-05T14:00:00","47","5","59,1","3","56","32,2","45,5","286,6","0"],
    [28589,"2017-05-05T15:00:00","40","7","75,1","2,7","41,5","32,9","41,9","311,2","0"],
    [28590,"2017-05-05T16:00:00","52","9","61,3","3,8","57,2","32,2","42,5","114,5","0"],
    [28591,"2017-05-05T17:00:00","52","4","41,4","3,1","290,8","30,1","50,2","38,7","0"],
    [28592,"2017-05-05T18:00:00","53","2","17,1","0,4","250,9","29,3","53,5","5,9","0"],
    [28593,"2017-05-05T19:00:00","55","8","12,8","4,3","100,5","26,8","70,9","0","0,51"],
    [28594,"2017-05-05T20:00:00","45","5","10,8","1,3","179,7","26,4","72,3","0","0"],
    [28595,"2017-05-05T21:00:00","33","ND","14,9","3,5","172,4","25,4","74,2","0","4,32"],
    [28596,"2017-05-05T22:00:00","7","ND","20,6","5,5","195,6","23,7","82,7","0","14,22"],
    [28597,"2017-05-05T23:00:00","17","ND","17","2,9","186,5","23,5","83,9","0","10,92"],
    [28598,"2017-05-06T00:00:00","12","ND","15","2,2","166","23,4","83,8","0","11,94"],
    [28599,"2017-05-06T01:00:00","8","ND","15,2","1,7","125,8","23,2","84,1","0","14,99"],
    [28600,"2017-05-06T02:00:00","15","ND","14,5","0,7","47,7","23,2","83,9","0","0,76"],
    [28601,"2017-05-06T03:00:00","11","ND","16","1,8","23,3","23,5","82,1","0","0"],
    [28602,"2017-05-06T04:00:00","28","ND","15,8","2","20","23,5","81,4","0","0,51"],
    [28603,"2017-05-06T05:00:00","16","ND","16,7","1,8","288","23,5","79,9","0","0,51"],
    [28604,"2017-05-06T06:00:00","14","ND","11,6","2","304,5","23,7","78,6","0","0"],
    [28605,"2017-05-06T07:00:00","29","ND","10,2","1,5","0,8","23,8","76,9","5","0,25"],
    [28606,"2017-05-06T08:00:00","37","6","10,5","0,5","80,7","24,3","76,9","20,1","0,25"],
    [28607,"2017-05-06T09:00:00","39","10","12,6","1","30,9","24,4","77,2","39,1","0,51"],
    [28608,"2017-05-06T10:00:00","43","15","18,3","1,2","57","25,5","72,5","97,9","0"],
    [28609,"2017-05-06T11:00:00","42","13","27,6","1,7","84,6","27,3","65,2","192,3","0"],
    [28610,"2017-05-06T12:00:00","35","4","42,1","1,3","96,5","29,5","55,4","321,2","0"],
    [28611,"2017-05-06T13:00:00","28","ND","50","0,8","68,5","30,6","48,3","278,8","0"],
    [28612,"2017-05-06T14:00:00","32","ND","46,3","1,7","65,9","31,4","45,8","305,9","0"],
    [28613,"2017-05-06T15:00:00","47","ND","37,4","4,3","79,5","30,6","50,1","205,5","0"],
    [28614,"2017-05-06T16:00:00","53","ND","33,1","3","107,6","30,8","49","147,3","0"],
    [28615,"2017-05-06T17:00:00","54","ND","32,6","4,1","140,3","30,4","50,8","72,4","0"],
    [28616,"2017-05-06T18:00:00","64","1","30,7","2,9","176","29,1","58","15,2","0"],
    [28617,"2017-05-06T19:00:00","83","18","29,5","2,6","209,9","28,4","60,5","0","0"],
    [28618,"2017-05-06T20:00:00","103","21","25,3","2,3","242,6","27,9","61,9","0","0"],
    [28619,"2017-05-06T21:00:00","142","38","11,2","1,5","139,9","27,3","67,2","0","0"],
    [28620,"2017-05-06T22:00:00","116","17","10,5","2,4","63,7","26,1","73,5","0","0"],
    [28621,"2017-05-06T23:00:00","95","17","10,1","1,2","84,7","25,7","74,3","0","0"],
    [28622,"2017-05-07T00:00:00","99","17","10,2","1,2","211,8","25,7","74,4","0","0"],
    [28623,"2017-05-07T01:00:00","71","11","10,3","0,8","204,5","25,9","72,8","0","0"],
    [28624,"2017-05-07T02:00:00","67","5","10,1","1,1","146,4","25,5","74,3","0","0"],
    [28625,"2017-05-07T03:00:00","54","7","10,1","1,7","139,5","25,1","76,4","0","0"],
    [28626,"2017-05-07T04:00:00","49","7","9,9","1,6","167,2","25","77,4","0","0"],
    [28627,"2017-05-07T05:00:00","61","2","9,9","2","68","24,8","77,3","0","0"],
    [28628,"2017-05-07T06:00:00","27","ND","11,5","3,3","7,9","23,9","79,4","0","10,16"],
    [28629,"2017-05-07T07:00:00","25","ND","12,3","1,1","112,6","23,2","81,7","6,3","24,64"],
    [28630,"2017-05-07T08:00:00","20","ND","12,2","2,6","101,3","23,4","81,6","14,2","4,57"],
    [28631,"2017-05-07T09:00:00","17","ND","15,7","1,4","134,4","24,2","80","78,2","1,52"],
    [28632,"2017-05-07T10:00:00","24","ND","19,1","2,9","120,4","25","77,2","85","0,25"],
    [28633,"2017-05-07T11:00:00","30","1","24,6","2,6","164,3","27","69,7","214,4","0"],
    [28634,"2017-05-07T12:00:00","34","3","36,5","2,9","166,6","28,3","63,3","213","0"],
    [28635,"2017-05-07T13:00:00","32","1","42,9","3,5","155","29,2","59,6","231,8","0"],
    [28636,"2017-05-07T14:00:00","39","ND","47,8","3,3","153,2","29,7","57,1","239,4","0"],
    [28637,"2017-05-07T15:00:00","37","ND","57,2","2,1","191,3","30,5","52,9","237,7","0"],
    [28638,"2017-05-07T16:00:00","47","3","56,8","2,1","85,1","30,7","50,2","114,8","0"],
    [28639,"2017-05-07T17:00:00","53","12","36,1","3,2","170,1","29,2","56,7","10,8","0"],
    [28640,"2017-05-07T18:00:00","30","3","31,1","2,7","277,1","27,7","61,4","0","0"],
    [28641,"2017-05-07T19:00:00","22","ND","17,1","2,9","294,2","27,2","61,7","0","0"],
    [28642,"2017-05-07T20:00:00","58","10","10,5","1,3","289","27,5","64,7","0","0"],
    [28643,"2017-05-07T21:00:00","72","7","11,9","3","80,4","26,5","68,4","0","0"],
    [28644,"2017-05-07T22:00:00","47","1","16,3","1,2","63,4","26","70,7","0","0"],
    [28645,"2017-05-07T23:00:00","18","ND","17,3","0,1","223,3","25","75,2","0","0,51"],
    [28646,"2017-05-08T00:00:00","23","ND","13,5","1,6","160,8","25,1","77","0","0"],
    [28647,"2017-05-08T01:00:00","21","ND","16,1","2,4","185,4","24,6","78,6","0","0"],
    [28648,"2017-05-08T02:00:00","26","ND","15,8","2","197,8","24,3","79,6","0","0"],
    [28649,"2017-05-08T03:00:00","29","ND","17,2","2,5","121,5","24,2","79,3","0","0"],
    [28650,"2017-05-08T04:00:00","49","ND","16,1","2,5","75","24","78,3","0","0"],
    [28651,"2017-05-08T05:00:00","46","ND","13,6","2,3","80,6","24,1","77,5","0","0"],
    [28652,"2017-05-08T06:00:00","61","1","10,8","1,1","63,5","24,1","78,3","0","0"],
    [28653,"2017-05-08T07:00:00","52","22","10,7","1,6","64,7","24,2","78,8","0","0,25"],
    [28654,"2017-05-08T08:00:00","75","20","11,3","2","62,2","24,5","77,9","16,7","0"],
    [28655,"2017-05-08T09:00:00","48","4","16,3","0,7","62,7","25,6","72,9","74,4","0"],
    [28656,"2017-05-08T10:00:00","41","6","22,1","1,3","149,2","27,1","66,1","141,2","0"],
    [28657,"2017-05-08T11:00:00","44","3","28,7","2,8","123,1","28,1","60,5","179,9","0"],
    [28658,"2017-05-08T12:00:00","38","2","32,9","2,3","143","28,9","57,2","177,9","0"],
    [28659,"2017-05-08T13:00:00","40","3","39,9","2","104,7","29,2","56,6","177,9","0"],
    [28660,"2017-05-08T14:00:00","45","8","64","1,6","16,5","30,2","51,8","251,5","0"],
    [28661,"2017-05-08T15:00:00","63","18","60,2","3,4","100","30,4","51,4","177,4","0"],
    [28662,"2017-05-08T16:00:00","ND","ND","45,3","6,2","103,4","29,5","55,5","113,4","0"],
    [28663,"2017-05-08T17:00:00","32","ND","31,8","1,9","2,1","27,5","64,6","23,1","0"],
    [28664,"2017-05-08T18:00:00","36","1","18,2","1,5","41,4","26,4","70,5","9,6","0,25"],
    [28665,"2017-05-08T19:00:00","47","14","11,6","0,9","175,4","25,4","75,6","0","1,78"],
    [28666,"2017-05-08T20:00:00","30","7","10,6","1,7","195,1","25","76,8","0","0,51"],
    [28667,"2017-05-08T21:00:00","36","2","10,6","2,1","202,1","24,8","77,8","0","0"],
    [28668,"2017-05-08T22:00:00","40","6","10,1","1,2","196","25","75,4","0","0"],
    [28669,"2017-05-08T23:00:00","64","6","10,5","1,6","145","25","76","0","0"],
    [28670,"2017-05-09T00:00:00","45","ND","11,9","1,9","153,3","24,6","78,3","0","0"],
    [28671,"2017-05-09T01:00:00","33","ND","14,9","1,8","151,8","24,4","79","0","0"],
    [28672,"2017-05-09T02:00:00","35","ND","14,3","1,8","200,3","24,4","78,8","0","0"],
    [28673,"2017-05-09T03:00:00","25","ND","13,1","1,8","155,4","24,3","79,2","0","0"],
    [28674,"2017-05-09T04:00:00","32","ND","ND","1,8","162,9","24,1","79,6","0","0"],
    [28675,"2017-05-09T05:00:00","39","ND","ND","1,8","157,8","24,1","79","0","0"],
    [28676,"2017-05-09T06:00:00","59","ND","ND","1,9","109,9","24","79,4","0","0"],
    [28677,"2017-05-09T07:00:00","54","3","ND","1,4","104","24","78,5","0","1,27"],
    [28678,"2017-05-09T08:00:00","45","5","ND","2","50,9","24,1","79,5","22,2","3,05"],
    [28679,"2017-05-09T09:00:00","21","4","ND","1,7","45","24,9","76,1","103,8","0"],
    [28680,"2017-05-09T10:00:00","22","ND","ND","2","120,6","26,8","68","203,5","0,25"],
    [28681,"2017-05-09T11:00:00","22","ND","35,4","0,7","311,6","28,7","59,3","265,4","0"],
    [28682,"2017-05-09T12:00:00","38","ND","37,9","2,6","46,9","30,1","54,9","314,6","0"],
    [28683,"2017-05-09T13:00:00","47","ND","41,9","4,2","27,6","29,9","55,6","198,5","0"],
    [28684,"2017-05-09T14:00:00","43","1","54,7","4,5","35","30,8","52,2","359,3","0"],
    [28685,"2017-05-09T15:00:00","48","3","39,3","5,5","63,7","30,5","53","101,8","0"],
    [28686,"2017-05-09T16:00:00","38","8","28,4","1,6","263,1","29,3","54,1","102,1","0"],
    [28687,"2017-05-09T17:00:00","45","4","22,6","3,6","61,8","29,4","52,8","57,6","0"],
    [28688,"2017-05-09T18:00:00","45","1","19,1","1,5","28,1","28,2","56,3","14,7","0"],
    [28689,"2017-05-09T19:00:00","62","15","19,7","3,6","159,7","27,3","65,1","0","0"],
    [28690,"2017-05-09T20:00:00","69","8","15,3","2,9","148,6","26,2","69","0","0"],
    [28691,"2017-05-09T21:00:00","70","10","12","3,4","129,7","25,4","72,1","0","0"],
    [28692,"2017-05-09T22:00:00","65","11","11,1","2,6","146,5","25,1","73,2","0","0"],
    [28693,"2017-05-09T23:00:00","48","7","11,6","2,3","184,9","24,8","74,3","0","0"],
    [28694,"2017-05-10T00:00:00","50","4","11,3","2,5","140,3","24,6","75,8","0","0"],
    [28695,"2017-05-10T01:00:00","21","ND","16","2,2","172,4","24,3","78,4","0","0,25"],
    [28696,"2017-05-10T02:00:00","15","ND","20,9","3","192,9","24,1","78,7","0","0"],
    [28697,"2017-05-10T03:00:00","15","ND","21,1","3,5","209,3","23,6","79,5","0","2,79"],
    [28698,"2017-05-10T04:00:00","7","ND","21","2,3","231,4","23,1","81,5","0","6,6"],
    [28699,"2017-05-10T05:00:00","8","ND","13,8","1,7","318","23,2","81","0","2,29"],
    [28700,"2017-05-10T06:00:00","21","ND","10,2","1,5","333,6","23,4","80,5","0","0"],
    [28701,"2017-05-10T07:00:00","50","3","11","2","79","23,7","80,6","5,7","0"],
    [28702,"2017-05-10T08:00:00","43","13","12,4","1,7","67,6","24,1","78,8","27,1","0"],
    [28703,"2017-05-10T09:00:00","38","7","15,9","1,2","73,5","25,5","73,7","99,2","0"],
    [28704,"2017-05-10T10:00:00","32","3","26","1","107,6","28,5","60,7","329,7","0"],
    [28705,"2017-05-10T11:00:00","44","6","39,2","2","124,5","29,6","54,9","281,1","0"],
    [28706,"2017-05-10T12:00:00","44","7","46,1","2,5","156,4","31","49,8","342,2","0"],
    [28707,"2017-05-10T13:00:00","38","4","49,3","2,1","130,6","31,4","47,3","247,4","0"],
    [28708,"2017-05-10T14:00:00","38","4","66,4","1,7","74,7","32,3","44,7","277,9","0"],
    [28709,"2017-05-10T15:00:00","47","9","68,4","2,3","315,8","30,6","49,8","65,3","0,51"],
    [28710,"2017-05-10T16:00:00","29","7","23","3,6","239,6","24,8","77,4","12,8","44,96"],
    [28711,"2017-05-10T17:00:00","29","1","13,9","0,9","178,6","24,4","78,6","6","1,27"],
    [28712,"2017-05-10T18:00:00","27","ND","14,6","1,1","316","24,5","79","0","7,11"],
    [28713,"2017-05-10T19:00:00","38","4","10,9","0,6","100","24,8","78,1","0","0"],
    [28714,"2017-05-10T20:00:00","52","5","11,7","3,4","97,1","24,5","78,7","0","0"],
    [28715,"2017-05-10T21:00:00","53","1","11,7","2,4","46,6","24,5","76,9","0","0"],
    [28716,"2017-05-10T22:00:00","32","1","12,8","2,9","59,9","23,8","78","0","1,27"],
    [28717,"2017-05-10T23:00:00","15","ND","12,9","1,7","89,7","23,2","79,6","0","1,78"],
    [28718,"2017-05-11T00:00:00","16","ND","12,8","1,9","224,2","23,3","79,2","0","0,25"],
    [28719,"2017-05-11T01:00:00","20","ND","14,8","2,9","204,1","23","81,1","0","0,51"],
    [28720,"2017-05-11T02:00:00","9","ND","16,5","3","204,7","23","81,2","0","0"],
    [28721,"2017-05-11T03:00:00","13","ND","16,9","2,6","198","23,1","80,2","0","0"],
    [28722,"2017-05-11T04:00:00","19","ND","19,2","2,3","179,3","23,1","78,7","0","0"],
    [28723,"2017-05-11T05:00:00","29","ND","15,4","2,3","155,9","22,9","79,4","0","0"],
    [28724,"2017-05-11T06:00:00","43","ND","12,6","1,8","121,7","22,9","79,5","0","0"],
    [28725,"2017-05-11T07:00:00","60","5","12,1","2,6","107,3","23","79","7","0"],
    [28726,"2017-05-11T08:00:00","62","11","12,9","1,9","124,2","23,7","75,7","51,5","0"],
    [28727,"2017-05-11T09:00:00","35","4","17,3","1,1","111,9","25,1","70","99","0"],
    [28728,"2017-05-11T10:00:00","36","4","20,5","1,5","111,3","26,2","65,5","166,8","0"],
    [28729,"2017-05-11T11:00:00","45","9","28,4","2","83,8","27,6","59,7","236,2","0"],
    [28730,"2017-05-11T12:00:00","21","ND","40,5","1,5","172","29,5","52,1","302,3","0"],
    [28731,"2017-05-11T13:00:00","27","ND","41,8","2,3","100,3","29,8","50,9","252,8","0"],
    [28732,"2017-05-11T14:00:00","35","2","51,1","2,5","69,8","31,5","46,7","354,6","0"],
    [28733,"2017-05-11T15:00:00","38","1","75,4","2,4","53,9","32,1","43,7","285,6","0"],
    [28734,"2017-05-11T16:00:00","41","4","51,4","2,9","45,3","32,5","41,7","222,8","0"],
    [28735,"2017-05-11T17:00:00","37","5","37,8","4,6","313,3","31,6","43,4","122,1","0"],
    [28736,"2017-05-11T18:00:00","24","1","18,8","5,5","290,7","29,1","49","8,4","0"],
    [28737,"2017-05-11T19:00:00","55","5","12,8","4,7","327","28,4","50","0","0"],
    [28738,"2017-05-11T20:00:00","44","5","13,1","3,2","264,2","27,9","52","0","0"],
    [28739,"2017-05-11T21:00:00","49","4","18,9","3,9","182,6","26,7","63,8","0","0"],
    [28740,"2017-05-11T22:00:00","37","ND","22,5","4,1","195,2","25,2","72,8","0","0"],
    [28741,"2017-05-11T23:00:00","32","ND","19,5","3,9","212,4","24,8","74,5","0","0"],
    [28742,"2017-05-12T00:00:00","23","ND","23,6","4,4","239,9","24,3","77","0","0,25"],
    [28743,"2017-05-12T01:00:00","5","ND","24,9","3,5","243,9","23,8","78,2","0","1,27"],
    [28744,"2017-05-12T02:00:00","17","ND","23,7","1,3","202,4","23,7","78,3","0","0,25"],
    [28745,"2017-05-12T03:00:00","17","ND","21","0,6","238,3","23,6","78,4","0","0,51"],
    [28746,"2017-05-12T04:00:00","9","ND","20,6","1,2","196,5","23,7","78,3","0","0,25"],
    [28747,"2017-05-12T05:00:00","16","ND","18,1","1,7","219,7","23,7","77,9","0","0"],
    [28748,"2017-05-12T06:00:00","14","ND","14,6","1,5","200,3","23,7","77","0","0"],
    [28749,"2017-05-12T07:00:00","14","ND","12,1","2,2","235","23,8","77,2","0","0"],
    [28750,"2017-05-12T08:00:00","35","ND","15,2","3,1","256,9","24,5","73,6","64,1","0"],
    [28751,"2017-05-12T09:00:00","30","ND","28,6","2,8","212,8","26,8","63,6","196,6","0"],
    [28752,"2017-05-12T10:00:00","25","ND","31,4","2,8","132,6","28","58,7","247,8","0"],
    [28753,"2017-05-12T11:00:00","42","ND","30,9","3,8","109,1","28,1","58,3","216","0"],
    [28754,"2017-05-12T12:00:00","43","14","39,1","3","109,6","28,8","54,5","204,9","0"],
    [28755,"2017-05-12T13:00:00","52","13","52,3","2,2","97,4","30,1","51,4","297,4","0"],
    [28756,"2017-05-12T14:00:00","43","12","80,4","2,5","55,1","31,2","47,7","326,3","0"],
    [28757,"2017-05-12T15:00:00","41","4","77,4","2,9","85,9","31,8","45,7","269,7","0"],
    [28758,"2017-05-12T16:00:00","62","11","87,6","2,3","63,9","31,7","45,5","138,8","0"],
    [28759,"2017-05-12T17:00:00","57","7","38,2","6,5","290,3","28,2","58,1","31,2","0"],
    [28760,"2017-05-12T18:00:00","38","1","17,1","4,4","283,4","27","63,9","9,2","0"],
    [28761,"2017-05-12T19:00:00","82","3","12,3","1,5","349,6","27,7","61,2","0","0"],
    [28762,"2017-05-12T20:00:00","93","19","12,8","2,9","66,9","27,2","63,4","0","0"],
    [28763,"2017-05-12T21:00:00","76","11","12,3","3,1","77,7","26,2","67,5","0","0"],
    [28764,"2017-05-12T22:00:00","56","6","14,2","2,8","92,6","25,5","71,7","0","0"],
    [28765,"2017-05-12T23:00:00","44","2","15,5","1,5","221","25,4","72,3","0","0"],
    [28766,"2017-05-13T00:00:00","39","4","11,8","2,2","196,9","25,5","72,8","0","0"],
    [28767,"2017-05-13T01:00:00","33","ND","13,7","2,6","179,7","25,1","75,3","0","0"],
    [28768,"2017-05-13T02:00:00","22","ND","18,1","2,6","179,7","24,4","77,9","0","0,25"],
    [28769,"2017-05-13T03:00:00","21","ND","20,4","2","205,1","23,9","78,5","0","2,79"],
    [28770,"2017-05-13T04:00:00","16","ND","18,6","1,9","166,9","23,5","80","0","0,76"],
    [28771,"2017-05-13T05:00:00","16","ND","16,6","2","169,8","23,3","80,6","0","0,76"],
    [28772,"2017-05-13T06:00:00","33","ND","12,5","2","133,6","23,4","80,9","0","1,78"],
    [28773,"2017-05-13T07:00:00","35","4","13,4","2,7","137,9","23,1","81,3","0","1,02"],
    [28774,"2017-05-13T08:00:00","40","5","14,6","2,2","178,6","23,3","80,3","19,5","0"],
    [28775,"2017-05-13T09:00:00","39","8","15,6","2,7","189,2","23,7","79,5","38,8","0,25"],
    [28776,"2017-05-13T10:00:00","40","9","16,9","1,8","187,8","24,4","77,5","60,7","0,25"],
    [28777,"2017-05-13T11:00:00","24","3","20,8","1,1","144,9","25,1","73","100","0"],
    [28778,"2017-05-13T12:00:00","26","ND","28,5","1,3","177","26,5","66,3","180,8","0"],
    [28779,"2017-05-13T13:00:00","28","ND","34,5","2,6","187,1","28,7","58,4","365,1","0"],
    [28780,"2017-05-13T14:00:00","13","ND","36,9","1,8","169,5","30,8","49,2","372,9","0"],
    [28781,"2017-05-13T15:00:00","19","ND","39,4","2,8","94,7","31","47,7","329,7","0"],
    [28782,"2017-05-13T16:00:00","18","ND","50,5","1,5","115,3","31,4","44,4","208,7","0"],
    [28783,"2017-05-13T17:00:00","48","1","53,1","3","85,4","31,3","45,7","120,3","0"],
    [28784,"2017-05-13T18:00:00","59","5","35,3","3,2","77,6","30,3","49,6","27,5","0"],
    [28785,"2017-05-13T19:00:00","90","9","16,2","1","107,1","28,9","53,9","0","0"],
    [28786,"2017-05-13T20:00:00","93","13","15,5","0,4","255,1","28,4","56,8","0","0"],
    [28787,"2017-05-13T21:00:00","91","25","12,6","1,4","278","27,8","58,8","0","0"],
    [28788,"2017-05-13T22:00:00","65","17","12,3","0,7","257,9","27,5","59,3","0","0"],
    [28789,"2017-05-13T23:00:00","113","23","11,7","3,1","120,3","26,3","70,2","0","0"],
    [28790,"2017-05-14T00:00:00","57","ND","12,5","1,2","209,6","25,7","72,2","0","0"],
    [28791,"2017-05-14T01:00:00","38","ND","13,6","1,5","172,6","25,7","71,8","0","0"],
    [28792,"2017-05-14T02:00:00","70","18","12,1","1,3","68","25,2","75,5","0","0"],
    [28793,"2017-05-14T03:00:00","58","12","12,3","1,4","14,4","25","76","0","0,25"],
    [28794,"2017-05-14T04:00:00","37","5","14,8","3","49,7","24,5","77,4","0","0"],
    [28795,"2017-05-14T05:00:00","34","ND","15,6","3,2","42,4","24,1","79,1","0","1,78"],
    [28796,"2017-05-14T06:00:00","29","ND","15,5","1,9","14,4","23,8","80,5","0","2,29"],
    [28797,"2017-05-14T07:00:00","21","ND","14","1,1","184,9","24","80,2","0","0,76"],
    [28798,"2017-05-14T08:00:00","27","ND","14,3","2","157,4","24","80,6","7,6","0,51"],
    [28799,"2017-05-14T09:00:00","37","9","15,5","2,5","177,1","24,5","79,5","42,5","0,25"],
    [28800,"2017-05-14T10:00:00","24","7","19,2","2,8","168,2","25,4","75,8","74,2","0"],
    [28801,"2017-05-14T11:00:00","20","9","23","3,1","179,1","25,8","73,4","119,8","0,25"],
    [28802,"2017-05-14T12:00:00","28","6","30,7","2,8","154","27,7","64,6","224,2","0"],
    [28803,"2017-05-14T13:00:00","22","ND","38,8","2,4","163,6","28,9","57,8","275,9","0"],
    [28804,"2017-05-14T14:00:00","40","4","43,1","1,1","98,1","29,7","54,4","264,1","0"],
    [28805,"2017-05-14T15:00:00","39","5","47,7","2,7","91","30,9","49,4","279,3","0"],
    [28806,"2017-05-14T16:00:00","62","3","42,8","3,1","61,2","30,4","50,7","127,6","0"],
    [28807,"2017-05-14T17:00:00","18","1","52","2,7","10,9","29,9","51,3","80,6","0"],
    [28808,"2017-05-14T18:00:00","51","4","38,5","1,9","62,7","29,7","51,5","34,1","0"],
    [28809,"2017-05-14T19:00:00","49","7","36,1","1,4","8,5","28,8","55,6","0","0"],
    [28810,"2017-05-14T20:00:00","76","12","20,3","2,2","44,6","28","62,6","0","0"],
    [28811,"2017-05-14T21:00:00","75","12","13,9","1,6","7,5","27,1","68,8","0","0"],
    [28812,"2017-05-14T22:00:00","76","12","13,8","1,5","9,2","26,9","68,1","0","0"],
    [28813,"2017-05-14T23:00:00","78","13","11,4","1,5","93,7","26,1","72,9","0","0"],
    [28814,"2017-05-15T00:00:00","71","7","11,4","0,9","153,4","25,8","74,4","0","0"],
    [28815,"2017-05-15T01:00:00","50","ND","11,3","1","154,4","25,5","74,5","0","0"],
    [28816,"2017-05-15T02:00:00","45","ND","12,1","1,2","225,1","25,6","71,8","0","0"],
    [28817,"2017-05-15T03:00:00","38","ND","11,3","2,3","123","24,7","76,4","0","1,78"],
    [28818,"2017-05-15T04:00:00","33","ND","11,6","2,1","105,7","24","79,6","0","2,54"],
    [28819,"2017-05-15T05:00:00","42","ND","11,3","0,7","65,4","23,5","80,5","0","0,25"],
    [28820,"2017-05-15T06:00:00","46","3","12,6","0,5","354,4","23,4","78,9","0","0"],
    [28821,"2017-05-15T07:00:00","69","13","12,6","1,5","44,6","24","79,2","8,4","0"],
    [28822,"2017-05-15T08:00:00","55","14","14,5","2,3","48,4","24,6","75,2","58,3","0"],
    [28823,"2017-05-15T09:00:00","55","11","20,3","0,6","100,2","26,5","69,6","157,1","0"],
    [28824,"2017-05-15T10:00:00","55","9","53,2","0,9","42","29,3","58,1","293,8","0"],
    [28825,"2017-05-15T11:00:00","63","18","90,2","1,8","130,3","30,7","53,9","379,4","0"],
    [28826,"2017-05-15T12:00:00","45","9","104,1","1,7","111","31,6","49,9","288,6","0"],
    [28827,"2017-05-15T13:00:00","48","13","78,7","2,9","107,8","32,9","45,1","403,7","0"],
    [28828,"2017-05-15T14:00:00","54","12","89,4","2","109","33,5","42,3","289,7","0"],
    [28829,"2017-05-15T15:00:00","47","9","80,3","3,9","5,5","32,7","44,9","176,3","0"],
    [28830,"2017-05-15T16:00:00","68","13","59,3","3,5","70,7","32,6","43,1","106,4","0"],
    [28831,"2017-05-15T17:00:00","65","8","38,4","1,1","34,2","28,3","60,9","6,8","0,51"],
    [28832,"2017-05-15T18:00:00","32","1","36,7","5,3","199,8","24,8","74,9","0","6,1"],
    [28833,"2017-05-15T19:00:00","20","3","29,2","3,1","200,1","23,6","80,6","0","22,86"],
    [28834,"2017-05-15T20:00:00","30","4","24,6","2,8","190,5","23,4","81,1","0","6,6"],
    [28835,"2017-05-15T21:00:00","22","1","25,6","1,4","225,6","23,1","79,7","0","2,03"],
    [28836,"2017-05-15T22:00:00","26","ND","17,2","2,3","324,8","23,5","78,9","0","0"],
    [28837,"2017-05-15T23:00:00","34","ND","14","2,4","90,5","23,5","80","0","1,27"],
    [28838,"2017-05-16T00:00:00","27","1","15,2","1,4","94,6","23,3","80,7","0","3,05"],
    [28839,"2017-05-16T01:00:00","18","ND","16,9","0,9","146,9","23,4","80,6","0","3,56"],
    [28840,"2017-05-16T02:00:00","33","3","16,8","1,2","166","23,4","81,1","0","4,32"],
    [28841,"2017-05-16T03:00:00","16","ND","23,8","2,3","207,7","23,1","80,9","0","3,56"],
    [28842,"2017-05-16T04:00:00","11","ND","32,6","2,1","234,6","22,7","80,3","0","2,54"],
    [28843,"2017-05-16T05:00:00","13","ND","18,8","0,3","338,6","22,9","79,8","0","2,29"],
    [28844,"2017-05-16T06:00:00","30","1","13,7","1,9","55,4","23","81,3","0","0,51"],
    [28845,"2017-05-16T07:00:00","36","2","14,8","1,1","53,1","23","80,6","7,5","0"],
    [28846,"2017-05-16T08:00:00","28","6","18,4","1,4","192,8","23,6","78,4","30,9","0"],
    [28847,"2017-05-16T09:00:00","24","5","20,4","2,4","182,1","24,5","75,7","78,6","0"],
    [28848,"2017-05-16T10:00:00","22","3","37,2","2,5","216,9","26,4","67,5","176,8","0"],
    [28849,"2017-05-16T11:00:00","20","ND","49,3","1,6","134,3","28,9","55,9","325,7","0"],
    [28850,"2017-05-16T12:00:00","19","ND","59,3","0,8","199,9","30,4","48,1","373,3","0"],
    [28851,"2017-05-16T13:00:00","22","ND","56,6","1,7","118,8","31,6","44,8","386,2","0"],
    [28852,"2017-05-16T14:00:00","34","1","54,2","2,7","106,4","31,7","44,1","333,5","0"],
    [28853,"2017-05-16T15:00:00","32","ND","57,6","2,5","104,2","32,4","42","254,7","0"],
    [28854,"2017-05-16T16:00:00","62","ND","48,2","3,5","59,1","31,3","45,6","88,4","0"],
    [28855,"2017-05-16T17:00:00","41","2","62,5","3,8","24,1","30,9","48,9","51,5","0"],
    [28856,"2017-05-16T18:00:00","63","3","36,4","4,1","36,6","29,9","53,8","12,7","0"],
    [28857,"2017-05-16T19:00:00","74","6","18,8","2,3","24,5","28,8","57,8","0","0"],
    [28858,"2017-05-16T20:00:00","91","21","13,8","2,6","93","28,1","61,3","0","0"],
    [28859,"2017-05-16T21:00:00","95","4","15","1,6","181,9","27,5","64,1","0","0"],
    [28860,"2017-05-16T22:00:00","33","2","33,7","5,5","246,3","25,7","69,8","0","0"],
    [28861,"2017-05-16T23:00:00","34","1","24,1","1,3","192,6","25,9","64,7","0","0"],
    [28862,"2017-05-17T00:00:00","33","ND","21,2","3,2","152,8","25,2","72,7","0","0"],
    [28863,"2017-05-17T01:00:00","42","ND","26,1","0,9","263,7","25","75,2","0","0"],
    [28864,"2017-05-17T02:00:00","37","3","25","1,7","318,7","25","75,1","0","0"],
    [28865,"2017-05-17T03:00:00","48","6","17,8","1,3","89,5","24,9","76,4","0","0"],
    [28866,"2017-05-17T04:00:00","55","3","13,6","2,4","101,1","24","79,2","0","0"],
    [28867,"2017-05-17T05:00:00","68","9","13,6","1,8","144,9","23,7","79,6","0","0"],
    [28868,"2017-05-17T06:00:00","64","12","12,9","0,6","110,4","23,9","78,6","0","0"],
    [28869,"2017-05-17T07:00:00","74","14","13,9","2,1","260,7","24,6","77","27,1","0"],
    [28870,"2017-05-17T08:00:00","103","35","20,2","1,6","233,3","26,5","69,7","105,1","0"],
    [28871,"2017-05-17T09:00:00","76","14","27,2","2","130,7","27,8","65,3","174","0"],
    [28872,"2017-05-17T10:00:00","71","27","41,3","3,5","90,2","28,5","61,4","226,4","0"],
    [28873,"2017-05-17T11:00:00","58","13","61,9","1,2","112,2","31,1","51,3","388,3","0"],
    [28874,"2017-05-17T12:00:00","56","10","74,3","2,2","125,2","32,4","45,8","373,1","0"],
    [28875,"2017-05-17T13:00:00","61","11","80","3,1","76,6","33,6","39,3","415,5","0"],
    [28876,"2017-05-17T14:00:00","55","12","93,2","2,2","83,7","33,6","39","261,9","0"],
    [28877,"2017-05-17T15:00:00","56","13","92,5","3","61,3","34,3","37,4","249,8","0"],
    [28878,"2017-05-17T16:00:00","65","14","105,3","3,5","5,7","33,1","41,8","122,2","0"],
    [28879,"2017-05-17T17:00:00","92","22","74,2","4","69,2","33,1","43,7","88,8","0"],
    [28880,"2017-05-17T18:00:00","63","7","32,8","2,8","26,8","32","45,6","18,4","0"],
    [28881,"2017-05-17T19:00:00","86","16","18,2","2,1","20,7","30,2","51,2","0","0"],
    [28882,"2017-05-17T20:00:00","101","31","15,9","2","74,6","29","56,7","0","0"],
    [28883,"2017-05-17T21:00:00","77","9","14","2,8","84,5","27,9","62,4","0","0"],
    [28884,"2017-05-17T22:00:00","73","6","14,5","3,1","93,9","26,8","66,4","0","0"],
    [28885,"2017-05-17T23:00:00","46","2","15,5","2,3","24,3","26,1","67,2","0","0"],
    [28886,"2017-05-18T00:00:00","49","6","15,2","1,8","57","26,3","66","0","0"],
    [28887,"2017-05-18T01:00:00","20","4","17","1,6","90,8","25,6","68,8","0","0"],
    [28888,"2017-05-18T02:00:00","40","ND","17,3","1,9","63,5","25,6","70,2","0","0"],
    [28889,"2017-05-18T03:00:00","24","ND","15,3","0,9","108,8","25,2","72,3","0","0"],
    [28890,"2017-05-18T04:00:00","43","1","13","2,1","118,6","24,6","74,5","0","0"],
    [28891,"2017-05-18T05:00:00","48","12","13","1,7","315,9","24,4","75,4","0","0"],
    [28892,"2017-05-18T06:00:00","107","22","13,6","1,5","96,5","24,9","73,6","0","0"],
    [28893,"2017-05-18T07:00:00","97","15","13,3","0,2","60,9","25","73,8","7,1","0"],
    [28894,"2017-05-18T08:00:00","89","10","14,9","0,7","93,9","26,4","69,3","57,8","0"],
    [28895,"2017-05-18T09:00:00","82","12","24,7","0,4","150,2","27,8","63,7","114,4","0"],
    [28896,"2017-05-18T10:00:00","81","10","34,7","2,1","146,9","28,9","59,4","159,7","0"],
    [28897,"2017-05-18T11:00:00","78","9","41,6","3","151,6","29,7","57,9","203,3","0"],
    [28898,"2017-05-18T12:00:00","76","10","48,9","2,7","122,2","29,9","56,3","158,6","0"],
    [28899,"2017-05-18T13:00:00","77","16","62,2","1,8","116,5","30,8","53,4","199","0"],
    [28900,"2017-05-18T14:00:00","84","16","83,4","3,1","101,4","32","48,7","275","0"],
    [28901,"2017-05-18T15:00:00","68","17","118,8","1,8","38,7","32,9","45,3","277,3","0"],
    [28902,"2017-05-18T16:00:00","64","1","101,6","2,5","21,8","33,6","41,4","219,4","0"],
    [28903,"2017-05-18T17:00:00","67","7","68,7","4,6","71,1","32,8","43,6","105,4","0"],
    [28904,"2017-05-18T18:00:00","75","8","34,8","3,8","80,2","31,7","48,1","32","0"],
    [28905,"2017-05-18T19:00:00","88","12","16,4","2,1","74,5","30,1","53,4","0","0"],
    [28906,"2017-05-18T20:00:00","68","9","16,3","1,2","337,5","29,2","54","0","0"],
    [28907,"2017-05-18T21:00:00","94","15","15,8","1,8","14,7","29,2","53,5","0","0"],
    [28908,"2017-05-18T22:00:00","88","23","14,3","1,4","293,9","28,2","57,1","0","0"],
    [28909,"2017-05-18T23:00:00","96","23","14,2","1,4","125,1","27,1","66,3","0","0"],
    [28910,"2017-05-19T00:00:00","92","10","14,2","1,1","139,5","26,5","70,9","0","0"],
    [28911,"2017-05-19T01:00:00","62","7","17","1,5","173,1","26,3","68,4","0","0"],
    [28912,"2017-05-19T02:00:00","44","8","18,9","0,1","226,9","25,2","75,9","0","0"],
    [28913,"2017-05-19T03:00:00","69","9","13,5","2","64,7","24,4","77,2","0","0"],
    [28914,"2017-05-19T04:00:00","52","5","13,9","1,1","60","23,9","77,9","0","0"],
    [28915,"2017-05-19T05:00:00","56","5","13,6","2,4","86,7","23,7","77,4","0","0"],
    [28916,"2017-05-19T06:00:00","65","8","14,1","1,6","3,4","24,1","75,9","0","0"],
    [28917,"2017-05-19T07:00:00","59","8","14,4","3","7,1","24,5","73,6","11,9","0"],
    [28918,"2017-05-19T08:00:00","103","14","15,8","2,4","101,1","24,9","71,5","49,8","0"],
    [28919,"2017-05-19T09:00:00","71","11","22,2","2,2","174","27,4","63,7","257,2","0"],
    [28920,"2017-05-19T10:00:00","55","10","42","1,7","184,8","30,7","52,6","325,5","0"],
    [28921,"2017-05-19T11:00:00","52","12","71,1","2,5","174","31,6","50","357,9","0"],
    [28922,"2017-05-19T12:00:00","53","14","77,5","2,3","138,7","33,1","45,5","363,7","0"],
    [28923,"2017-05-19T13:00:00","49","8","85,9","1,3","170,6","32,9","44,4","176,4","0"],
    [28924,"2017-05-19T14:00:00","56","10","114,9","2","11,2","34,3","41,1","363,2","0"],
    [28925,"2017-05-19T15:00:00","79","11","133,1","3,3","18,3","34,7","40,8","280,1","0"],
    [28926,"2017-05-19T16:00:00","51","11","88,7","4,1","345,7","33,6","41,6","126,9","0"],
    [28927,"2017-05-19T17:00:00","45","4","47,8","7,2","284,4","33,3","39,7","134,1","0"],
    [28928,"2017-05-19T18:00:00","44","ND","33,7","5,9","289","31,9","43,3","51,3","0"],
    [28929,"2017-05-19T19:00:00","96","14","17,1","2,7","10,5","30,9","48,3","0","0"],
    [28930,"2017-05-19T20:00:00","97","21","16,6","1,9","122,3","29,5","53,5","0","0"],
    [28931,"2017-05-19T21:00:00","69","14","21,4","4,3","148,1","28,3","58,4","0","0"],
    [28932,"2017-05-19T22:00:00","55","7","25","2,6","165,5","26,4","65,8","0","0"],
    [28933,"2017-05-19T23:00:00","50","6","20,6","1,5","189,7","26,3","67,2","0","0"],
    [28934,"2017-05-20T00:00:00","59","9","19,6","1,9","189,3","26,5","66,7","0","0"],
    [28935,"2017-05-20T01:00:00","36","5","15,9","1,7","158,3","25,8","70,9","0","0"],
    [28936,"2017-05-20T02:00:00","34","6","17,9","1,6","173,5","25,4","72,4","0","0"],
    [28937,"2017-05-20T03:00:00","35","2","17,3","2,5","81,4","25,1","74,4","0","0"],
    [28938,"2017-05-20T04:00:00","59","6","16","1,2","97,9","24,9","75,3","0","0"],
    [28939,"2017-05-20T05:00:00","77","10","14,8","1,5","100,4","24,9","75,2","0","0"],
    [28940,"2017-05-20T06:00:00","69","6","15,2","0,4","131,8","25","74,8","0","0"],
    [28941,"2017-05-20T07:00:00","77","9","15,3","1,7","95,3","25,2","74,8","17,4","0"],
    [28942,"2017-05-20T08:00:00","77","18","18,1","0,4","49,3","26,3","70,2","60,2","0"],
    [28943,"2017-05-20T09:00:00","83","15","26,4","0,9","284,5","28","62,5","98,7","0"],
    [28944,"2017-05-20T10:00:00","107","32","41,3","1,3","198,4","29,3","59,7","129,1","0"],
    [28945,"2017-05-20T11:00:00","122","31","55,8","2,6","84,3","30","56,7","148,7","0"],
    [28946,"2017-05-20T12:00:00","94","17","80","2,7","41,6","31","52,5","207,2","0"],
    [28947,"2017-05-20T13:00:00","95","25","106,5","3,2","49,1","32","48,7","249","0"],
    [28948,"2017-05-20T14:00:00","60","6","70","3,8","47,3","32,3","46,4","219,1","0"],
    [28949,"2017-05-20T15:00:00","48","3","57,6","3,5","58","32,8","44,7","203,5","0"],
    [28950,"2017-05-20T16:00:00","45","4","42,3","1,8","151,1","32","44,9","47,1","0"],
    [28951,"2017-05-20T17:00:00","58","3","34,6","2,4","200,5","31,4","47","46,4","0"],
    [28952,"2017-05-20T18:00:00","54","1","27,5","4,4","266,1","30,4","46,8","18,8","0"],
    [28953,"2017-05-20T19:00:00","40","ND","25","5,7","275,3","28,8","53,8","0","0"],
    [28954,"2017-05-20T20:00:00","26","ND","25,4","4,2","281,6","27,9","55,1","0","0"],
    [28955,"2017-05-20T21:00:00","ND","ND","19,2","0,5","46","28,2","53,5","0","0"],
    [28956,"2017-05-20T22:00:00","ND","ND","16,9","3,1","85","26,9","64,8","0","0"],
    [28957,"2017-05-20T23:00:00","ND","ND","18,1","2,5","84","26,6","65,1","0","0"],
    [28958,"2017-05-21T00:00:00","ND","ND","21,2","1,1","53,4","26,1","67,1","0","0"],
    [28959,"2017-05-21T01:00:00","ND","ND","23,7","0,7","76,1","26","67,9","0","0"],
    [28960,"2017-05-21T02:00:00","28","ND","ND","2,3","115,1","25,8","69,5","0","0"],
    [28961,"2017-05-21T03:00:00","24","ND","ND","2,7","124,5","25,5","71,6","0","0"],
    [28962,"2017-05-21T04:00:00","34","ND","ND","1,7","196,2","25,6","71,4","0","0"],
    [28963,"2017-05-21T05:00:00","41","ND","ND","1,5","139,9","25,4","73,9","0","0"],
    [28964,"2017-05-21T06:00:00","41","ND","ND","2,2","144","25,3","74,2","0","0"],
    [28965,"2017-05-21T07:00:00","35","ND","ND","2,4","155,6","25,2","74,3","0","1,27"],
    [28966,"2017-05-21T08:00:00","25","2","ND","1,5","208,1","24,9","78,6","43,6","7,37"],
    [28967,"2017-05-21T09:00:00","49","9","ND","2,2","145","26,5","72,7","101,3","0"],
    [28968,"2017-05-21T10:00:00","50","11","ND","1,9","130,6","28,4","62,3","150","0"],
    [28969,"2017-05-21T11:00:00","30","14","ND","2,3","37,5","29,4","58,8","271","0"],
    [28970,"2017-05-21T12:00:00","40","6","ND","2,9","70,6","31","51,5","352,8","0"],
    [28971,"2017-05-21T13:00:00","39","2","ND","2,9","82,6","32,7","45,3","414,4","0"],
    [28972,"2017-05-21T14:00:00","38","3","ND","3,9","53,1","33","43","272,1","0"],
    [28973,"2017-05-21T15:00:00","37","ND","ND","4,1","60,2","33,5","41,4","216,3","0"],
    [28974,"2017-05-21T16:00:00","51","ND","ND","3,6","35,1","32,9","42,3","110,6","0"],
    [28975,"2017-05-21T17:00:00","22","ND","ND","5,7","301,6","32,7","40,6","126,1","0"],
    [28976,"2017-05-21T18:00:00","16","ND","ND","5,7","288,1","31","43,6","33,4","0"],
    [28977,"2017-05-21T19:00:00","21","ND","ND","3,2","311,6","29,5","48","0","0"],
    [28978,"2017-05-21T20:00:00","54","ND","ND","2,6","129,8","28,6","54,3","0","0"],
    [28979,"2017-05-21T21:00:00","48","ND","ND","4,1","152","27,5","61,7","0","0"],
    [28980,"2017-05-21T22:00:00","28","ND","ND","3,2","197,5","26,3","68","0","1,78"],
    [28981,"2017-05-21T23:00:00","17","ND","ND","3,7","243,8","25,2","75,2","0","1,02"],
    [28982,"2017-05-22T00:00:00","15","ND","ND","1,7","226,6","25,4","74,5","0","0"],
    [28983,"2017-05-22T01:00:00","11","ND","ND","1,8","178,6","25,5","73,7","0","0"],
    [28984,"2017-05-22T02:00:00","22","ND","ND","2,4","172","25,2","75,9","0","0"],
    [28985,"2017-05-22T03:00:00","18","ND","ND","2,8","173,4","24,2","79,7","0","4,83"],
    [28986,"2017-05-22T04:00:00","20","ND","ND","1,6","184,2","23,7","81,6","0","5,08"],
    [28987,"2017-05-22T05:00:00","12","ND","ND","1,7","247,5","23,9","81,3","0","4,32"],
    [28988,"2017-05-22T06:00:00","15","ND","ND","1,3","167,9","24,1","79,9","0","0"],
    [28989,"2017-05-22T07:00:00","31","4","ND","1,5","158,2","24,2","80,3","4,6","0,25"],
    [28990,"2017-05-22T08:00:00","19","6","ND","1,3","169,2","24,8","77,4","26,4","0"],
    [28991,"2017-05-22T09:00:00","41","9","ND","1,8","206,8","25,5","74,6","88","0"],
    [28992,"2017-05-22T10:00:00","31","2","ND","0,9","150,3","27,2","66","127,4","0"],
    [28993,"2017-05-22T11:00:00","35","2","ND","3,2","100,9","27,1","66,5","121,7","0"],
    [28994,"2017-05-22T12:00:00","38","5","ND","3,2","84,8","26,8","69,6","87,7","0,51"],
    [28995,"2017-05-22T13:00:00","34","ND","ND","3,3","45,3","26,4","73,5","97,2","1,02"],
    [28996,"2017-05-22T14:00:00","19","ND","ND","3,9","36,5","26,5","71,8","110,9","0,25"],
    [28997,"2017-05-22T15:00:00","32","2","ND","2,7","70,1","27","68,6","96,7","0"],
    [28998,"2017-05-22T16:00:00","40","8","ND","1,7","131,8","27,5","66","93,9","0"],
    [28999,"2017-05-22T17:00:00","45","8","ND","1","115,2","29","59,2","126,3","0"],
    [29000,"2017-05-22T18:00:00","67","14","ND","2,1","117,6","27,9","60,6","14,5","0"],
    [29001,"2017-05-22T19:00:00","96","22","ND","1,4","70,4","26,4","68,6","0","0"],
    [29002,"2017-05-22T20:00:00","81","22","ND","2,1","16,6","26","68,5","0","0"],
    [29003,"2017-05-22T21:00:00","103","27","ND","1,4","77,1","25,3","70","0","0"],
    [29004,"2017-05-22T22:00:00","80","4","ND","0,7","75,2","25","71,7","0","0"],
    [29005,"2017-05-22T23:00:00","65","10","ND","1,5","155,7","24,9","72,2","0","0"],
    [29006,"2017-05-23T00:00:00","55","11","ND","1","241,6","24,2","76,8","0","0"],
    [29007,"2017-05-23T01:00:00","51","16","ND","0,4","3,7","24,3","75,5","0","0"],
    [29008,"2017-05-23T02:00:00","78","27","ND","1,4","101,7","23,3","79","0","0"],
    [29009,"2017-05-23T03:00:00","44","11","ND","0,3","164,7","23,1","80,1","0","0"],
    [29010,"2017-05-23T04:00:00","65","11","ND","1,5","60,8","23","80,2","0","0"],
    [29011,"2017-05-23T05:00:00","72","25","ND","1","53,7","22,6","80,5","0","0"],
    [29012,"2017-05-23T06:00:00","83","26","ND","1,9","60,6","21,9","82,3","0","0"],
    [29013,"2017-05-23T07:00:00","75","25","ND","1,3","53,3","22,1","81,8","6,8","0"],
    [29014,"2017-05-23T08:00:00","76","15","ND","2,1","335","23,9","77,8","100,1","0"],
    [29015,"2017-05-23T09:00:00","82","27","ND","2,7","56,7","26,3","68,5","209,5","0"],
    [29016,"2017-05-23T10:00:00","60","16","ND","2,3","72,9","28,6","57,9","304,2","0"],
    [29017,"2017-05-23T11:00:00","44","6","ND","2,7","113,1","30,6","48,9","383,1","0"],
    [29018,"2017-05-23T12:00:00","44","9","ND","2,6","97,8","31,8","45,6","385,6","0"],
    [29019,"2017-05-23T13:00:00","40","4","ND","2,6","110,4","32,9","40,2","424,3","0"],
    [29020,"2017-05-23T14:00:00","39","5","ND","3,6","66,3","33,4","39,1","368,9","0"],
    [29021,"2017-05-23T15:00:00","38","5","ND","2,9","54,3","34,1","38,2","300,2","0"],
    [29022,"2017-05-23T16:00:00","56","7","ND","3,3","67,1","34,1","39","210,2","0"],
    [29023,"2017-05-23T17:00:00","59","9","ND","3,4","64,8","33,5","40,2","86,4","0"],
    [29024,"2017-05-23T18:00:00","60","12","ND","2,4","359,1","32,4","44,1","21,2","0"],
    [29025,"2017-05-23T19:00:00","48","6","ND","4,6","287,1","30,5","47,2","0","0"],
    [29026,"2017-05-23T20:00:00","53","6","ND","3,4","299,1","29,5","50,7","0","0"],
    [29027,"2017-05-23T21:00:00","101","27","ND","2,7","102,2","27,8","60,7","0","0"],
    [29028,"2017-05-23T22:00:00","56","1","ND","2,4","88","26,6","65,2","0","0"],
    [29029,"2017-05-23T23:00:00","65","4","ND","2,5","39,2","26,3","65,7","0","0"],
    [29030,"2017-05-24T00:00:00","62","10","ND","1,1","265","26,5","65,6","0","0"],
    [29031,"2017-05-24T01:00:00","78","24","ND","1","139,5","26","68,3","0","0"],
    [29032,"2017-05-24T02:00:00","58","14","ND","1,8","169","25,7","69,9","0","0"],
    [29033,"2017-05-24T03:00:00","61","12","ND","2,1","138,5","25","74,2","0","0"],
    [29034,"2017-05-24T04:00:00","67","19","ND","2,2","77,8","24,1","76,9","0","0"],
    [29035,"2017-05-24T05:00:00","70","21","ND","1,3","322,6","24,6","74,5","0","0"],
    [29036,"2017-05-24T06:00:00","90","18","ND","1,3","169,3","25","72,6","0","0"],
    [29037,"2017-05-24T07:00:00","92","11","ND","1,7","167,5","24,7","74,5","22,9","0"],
    [29038,"2017-05-24T08:00:00","81","18","ND","1,9","184","26,2","69,9","101,1","0"],
    [29039,"2017-05-24T09:00:00","90","29","ND","2","150,2","28,7","60,1","193,4","0"],
    [29040,"2017-05-24T10:00:00","58","8","ND","1,8","183,8","30,7","51,3","289,5","0"],
    [29041,"2017-05-24T11:00:00","ND","ND","ND","2,6","137,1","32,4","47,2","360","0"],
    [29042,"2017-05-24T12:00:00","54","7","ND","3,3","87,2","33,5","43,4","396,1","0"],
    [29043,"2017-05-24T13:00:00","56","10","ND","3,2","81,1","34,4","40,3","391,9","0"],
    [29044,"2017-05-24T14:00:00","58","10","ND","2,7","80,2","35,2","38,2","354,1","0"],
    [29045,"2017-05-24T15:00:00","67","12","ND","3,6","78,3","35,4","38,1","293,2","0"],
    [29046,"2017-05-24T16:00:00","86","19","ND","4,5","76,4","35,2","38,4","179,9","0"],
    [29047,"2017-05-24T17:00:00","48","1","ND","2,2","297,1","34,9","38","95,1","0"],
    [29048,"2017-05-24T18:00:00","53","4","ND","6,2","286,6","32,4","42,5","12,9","0"],
    [29049,"2017-05-24T19:00:00","49","7","ND","4,6","292,4","31,4","45,4","0","0"],
    [29050,"2017-05-24T20:00:00","61","11","ND","0,9","42,3","30,4","50,6","0","0"],
    [29051,"2017-05-24T21:00:00","94","24","ND","2,8","83,5","29,4","56,7","0","0"],
    [29052,"2017-05-24T22:00:00","44","ND","ND","3,4","104,8","28,2","62,7","0","0"],
    [29053,"2017-05-24T23:00:00","31","ND","ND","3","83,2","27,9","63,5","0","0"],
    [29054,"2017-05-25T00:00:00","26","ND","ND","1,6","30,5","27,7","63,7","0","0"],
    [29055,"2017-05-25T01:00:00","21","ND","ND","2,2","77","27,2","65,7","0","0"],
    [29056,"2017-05-25T02:00:00","31","ND","ND","1,3","101,3","26,3","72,1","0","1,02"],
    [29057,"2017-05-25T03:00:00","16","ND","ND","1,3","127,1","26,2","72,8","0","0"],
    [29058,"2017-05-25T04:00:00","19","ND","ND","1,5","183,7","25,9","74,4","0","0"],
    [29059,"2017-05-25T05:00:00","32","ND","ND","1,9","200,3","25,4","75,4","0","0"],
    [29060,"2017-05-25T06:00:00","46","13","ND","0,4","169,6","25,1","76,5","0","0"],
    [29061,"2017-05-25T07:00:00","95","22","ND","2,1","100,2","25,4","75,1","28,8","0"],
    [29062,"2017-05-25T08:00:00","90","8","ND","2,4","136,2","27,7","66,5","97,6","0"],
    [29063,"2017-05-25T09:00:00","64","10","ND","2,9","112,8","28,7","61,4","160,6","0"],
    [29064,"2017-05-25T10:00:00","64","6","ND","2,7","118,8","30,8","54","295,5","0"],
    [29065,"2017-05-25T11:00:00","62","2","ND","2,9","99,3","31,4","51,9","204,2","0"],
    [29066,"2017-05-25T12:00:00","36","2","ND","1,3","113,1","33,5","46,1","398,6","0"],
    [29067,"2017-05-25T13:00:00","55","13","ND","2,7","81,1","34,2","43,4","263,9","0"],
    [29068,"2017-05-25T14:00:00","50","10","ND","3,4","95,6","34,7","42,3","334,6","0"],
    [29069,"2017-05-25T15:00:00","50","2","ND","4","86,9","34,8","40,7","226,8","0"],
    [29070,"2017-05-25T16:00:00","52","6","ND","0,9","130","34,9","39,4","162,4","0"],
    [29071,"2017-05-25T17:00:00","51","6","ND","1,3","349,6","34,5","41,3","102,2","0"],
    [29072,"2017-05-25T18:00:00","35","ND","ND","5,4","294,2","32,1","43,6","22,1","0"],
    [29073,"2017-05-25T19:00:00","51","5","ND","4,4","306,2","30,7","47,5","0","0"],
    [29074,"2017-05-25T20:00:00","ND","ND","ND","1","12,2","29,3","53,4","0","0"],
    [29075,"2017-05-25T21:00:00","ND","ND","ND","ND","ND","ND","ND","ND","ND"],
    [29076,"2017-05-25T22:00:00","ND","ND","ND","ND","ND","ND","ND","ND","ND"],
    [29077,"2017-05-25T23:00:00","ND","ND","ND","2,2","87,9","26,2","67,5","0","0"],
    [29078,"2017-05-26T00:00:00","27","ND","ND","1,3","121,5","26,3","66,5","0","0"],
    [29079,"2017-05-26T01:00:00","23","ND","ND","1,3","52,1","25,8","67,9","0","0"],
    [29080,"2017-05-26T02:00:00","28","ND","ND","2,1","113,7","25,1","71,4","0","0"],
    [29081,"2017-05-26T03:00:00","30","ND","ND","1,1","349,2","24,8","72,6","0","0"],
    [29082,"2017-05-26T04:00:00","37","4","ND","1","162,8","25","73","0","0"],
    [29083,"2017-05-26T05:00:00","72","22","ND","1,7","160,5","24,1","75,9","0","0"],
    [29084,"2017-05-26T06:00:00","56","9","ND","1,9","184,2","23,8","77,7","0","0"],
    [29085,"2017-05-26T07:00:00","91","22","ND","1,5","127","24,3","74,7","20,3","0"],
    [29086,"2017-05-26T08:00:00","70","22","ND","1,9","122,4","25,8","68,6","112","0"],
    [29087,"2017-05-26T09:00:00","56","ND","ND","2","194,7","28,7","56,8","225,5","0"],
    [29088,"2017-05-26T10:00:00","69","3","ND","1,7","173,1","30,8","49,6","285,6","0"],
    [29089,"2017-05-26T11:00:00","59","6","ND","3","105,2","31,7","47","304,1","0"],
    [29090,"2017-05-26T12:00:00","42","6","ND","2,9","73,5","33,1","43","390,3","0"],
    [29091,"2017-05-26T13:00:00","55","12","ND","4","68,8","34,3","39,8","395,8","0"],
    [29092,"2017-05-26T14:00:00","53","13","ND","5,2","75,7","34,7","38,7","360,6","0"],
    [29093,"2017-05-26T15:00:00","50","10","ND","5,1","75,5","34,9","37,9","307,7","0"],
    [29094,"2017-05-26T16:00:00","44","4","ND","2,7","40","34,3","38,8","112","0"],
    [29095,"2017-05-26T17:00:00","37","ND","ND","5,4","285,9","33,2","38,4","73,1","0"],
    [29096,"2017-05-26T18:00:00","38","ND","ND","5,2","283,9","31,7","42,4","17,5","0"],
    [29097,"2017-05-26T19:00:00","41","ND","ND","3,6","300,1","30,5","46,1","0","0"],
    [29098,"2017-05-26T20:00:00","77","3","ND","4,2","76,4","28,8","57,2","0","0"],
    [29099,"2017-05-26T21:00:00","68","16","ND","2,7","63","27,4","63","0","0"],
    [29100,"2017-05-26T22:00:00","51","8","ND","2,6","76,3","27","63,4","0","0"],
    [29101,"2017-05-26T23:00:00","33","4","ND","1,9","98,7","26,8","64,5","0","0"],
    [29102,"2017-05-27T00:00:00","35","1","ND","2","156,7","26,4","66,7","0","0"],
    [29103,"2017-05-27T01:00:00","34","2","ND","2","176,6","26,1","68,6","0","0"],
    [29104,"2017-05-27T02:00:00","28","3","ND","1,7","194,8","26,3","67,6","0","0"],
    [29105,"2017-05-27T03:00:00","28","1","ND","1","166","25,6","70,5","0","0"],
    [29106,"2017-05-27T04:00:00","40","5","ND","2,4","129","25,3","71,9","0","0"],
    [29107,"2017-05-27T05:00:00","45","5","ND","1,8","142,9","25,6","69,5","0","0"],
    [29108,"2017-05-27T06:00:00","68","17","ND","1,3","151,8","25,2","70,5","0","0"],
    [29109,"2017-05-27T07:00:00","84","17","ND","2,5","114,7","24,9","73,1","14,3","0"],
    [29110,"2017-05-27T08:00:00","79","22","ND","2","230,7","26,3","67,4","60,2","0"],
    [29111,"2017-05-27T09:00:00","89","17","ND","2,2","184,2","28,6","60,3","170,3","0"],
    [29112,"2017-05-27T10:00:00","60","11","ND","2,4","160,4","30,3","53,4","225,3","0"],
    [29113,"2017-05-27T11:00:00","64","10","ND","2","167,8","31,7","48,5","315,7","0"],
    [29114,"2017-05-27T12:00:00","62","16","ND","2,8","46,2","33,2","42,8","402,9","0"],
    [29115,"2017-05-27T13:00:00","61","22","ND","3","42,1","33,8","40,5","357,6","0"],
    [29116,"2017-05-27T14:00:00","69","20","ND","4,7","65,4","34","40","297,9","0"],
    [29117,"2017-05-27T15:00:00","48","12","ND","5,3","66,5","34,3","38,8","287,9","0"],
    [29118,"2017-05-27T16:00:00","56","8","ND","5,3","56,3","33,6","39,4","124","0"],
    [29119,"2017-05-27T17:00:00","40","5","ND","4,7","21,4","33,6","37,3","113,4","0"],
    [29120,"2017-05-27T18:00:00","37","6","ND","3,1","331","32,4","39,1","26,5","0"],
    [29121,"2017-05-27T19:00:00","41","3","ND","4,9","295,9","30,1","45,1","0","0"],
    [29122,"2017-05-27T20:00:00","60","6","ND","2,9","320,8","29,4","47,7","0","0"],
    [29123,"2017-05-27T21:00:00","73","13","ND","4,3","98,3","27,1","61,3","0","0"],
    [29124,"2017-05-27T22:00:00","59","9","ND","3,4","74","26,1","65,3","0","0"],
    [29125,"2017-05-27T23:00:00","40","3","ND","2,3","351,4","26,5","61,9","0","0"],
    [29126,"2017-05-28T00:00:00","84","18","ND","1,1","188,9","26,5","63,2","0","0"],
    [29127,"2017-05-28T01:00:00","56","10","ND","2,5","201,8","25,8","67,6","0","0"],
    [29128,"2017-05-28T02:00:00","75","16","ND","1,7","185,2","25,3","70,5","0","0"],
    [29129,"2017-05-28T03:00:00","71","25","ND","1","195,2","25,3","70","0","0"],
    [29130,"2017-05-28T04:00:00","64","19","ND","2,1","97,2","24,8","72","0","0"],
    [29131,"2017-05-28T05:00:00","65","10","ND","1,2","68,9","23,8","75,4","0","0"],
    [29132,"2017-05-28T06:00:00","75","16","ND","1","37,3","23,9","74,4","0","0"],
    [29133,"2017-05-28T07:00:00","106","30","ND","0,7","80,9","24,3","72,6","6,2","0"],
    [29134,"2017-05-28T08:00:00","106","33","ND","2,1","134,8","25,9","67,8","98,9","0"],
    [29135,"2017-05-28T09:00:00","87","29","ND","3","98,4","27,8","61,8","199,3","0"],
    [29136,"2017-05-28T10:00:00","71","20","ND","1,7","76,9","30,6","49,6","290,5","0"],
    [29137,"2017-05-28T11:00:00","48","11","ND","2,5","71,3","32,1","43,8","359,6","0"],
    [29138,"2017-05-28T12:00:00","40","9","ND","2,4","45,2","33,4","39,9","394,4","0"],
    [29139,"2017-05-28T13:00:00","40","8","ND","3,4","72,8","34,7","36,1","413,4","0"],
    [29140,"2017-05-28T14:00:00","49","7","ND","4,9","59,1","34,6","35,7","218,3","0"],
    [29141,"2017-05-28T15:00:00","34","5","ND","4","15,8","34,2","37,8","171","0"],
    [29142,"2017-05-28T16:00:00","33","8","ND","5","16,2","34,1","36,9","155,3","0"],
    [29143,"2017-05-28T17:00:00","27","6","ND","4,3","9,5","34,4","35,3","144,3","0"],
    [29144,"2017-05-28T18:00:00","33","2","ND","5","303,6","32,2","40,4","16,7","0"],
    [29145,"2017-05-28T19:00:00","39","ND","ND","6,5","293,6","30,1","46,9","0","0"],
    [29146,"2017-05-28T20:00:00","40","2","ND","2,3","331","29,3","50,7","0","0"],
    [29147,"2017-05-28T21:00:00","49","3","ND","3,6","106,4","27,3","61,1","0","0"],
    [29148,"2017-05-28T22:00:00","54","1","ND","3,2","82,3","26,7","64","0","0"],
    [29149,"2017-05-28T23:00:00","55","3","ND","1,7","15,2","26,9","61,5","0","0"],
    [29150,"2017-05-29T00:00:00","36","1","ND","1,4","28,1","26,6","62,7","0","0"],
    [29151,"2017-05-29T01:00:00","ND","ND","ND","1,3","154,2","26,5","63,9","0","0"],
    [29152,"2017-05-29T02:00:00","46","1","ND","1,3","149,8","26,2","65,3","0","0"],
    [29153,"2017-05-29T03:00:00","59","17","ND","1,7","153,5","25,9","67,8","0","0"],
    [29154,"2017-05-29T04:00:00","45","2","ND","1,8","157,1","25,2","71","0","0"],
    [29155,"2017-05-29T05:00:00","47","2","ND","0,9","130,5","24,6","73,7","0","0"],
    [29156,"2017-05-29T06:00:00","55","3","ND","0,5","76","24,6","74,1","0","0"],
    [29157,"2017-05-29T07:00:00","51","5","ND","1,5","154,5","25,1","71,1","16,3","0"],
    [29158,"2017-05-29T08:00:00","56","7","ND","1,7","174,7","26,3","67,5","66,3","0"],
    [29159,"2017-05-29T09:00:00","110","13","ND","2,2","153,1","27,7","61,4","90,7","0"],
    [29160,"2017-05-29T10:00:00","55","7","ND","2,4","160,5","29,1","54,7","161,1","0"],
    [29161,"2017-05-29T11:00:00","51","7","ND","1,2","155,8","30,9","49,2","242,9","0"],
    [29162,"2017-05-29T12:00:00","51","6","ND","1,7","50,8","32,8","42,7","403,5","0"],
    [29163,"2017-05-29T13:00:00","49","9","ND","2,8","77,3","33,6","40,6","392,7","0"],
    [29164,"2017-05-29T14:00:00","36","7","ND","3,2","56,1","34,3","37,1","341,3","0"],
    [29165,"2017-05-29T15:00:00","32","6","ND","4,3","46,2","34,1","37,7","231,1","0"],
    [29166,"2017-05-29T16:00:00","48","4","ND","5","60,7","33,5","40,3","152,7","0"],
    [29167,"2017-05-29T17:00:00","34","ND","ND","3,9","315,6","32,2","42","59,7","0"],
    [29168,"2017-05-29T18:00:00","30","ND","ND","5,2","286,1","30,9","44,1","24,8","0"],
    [29169,"2017-05-29T19:00:00","41","4","ND","3,3","307,3","29,9","47,4","0","0"],
    [29170,"2017-05-29T20:00:00","42","8","ND","0,6","3,1","28,6","52,9","0","0"],
    [29171,"2017-05-29T21:00:00","51","6","ND","3,2","91,2","26,6","64,7","0","0"],
    [29172,"2017-05-29T22:00:00","44","3","ND","3,5","72,8","25,8","67,2","0","0"],
    [29173,"2017-05-29T23:00:00","48","2","ND","1,7","70","25,9","65,7","0","0"],
    [29174,"2017-05-30T00:00:00","36","1","ND","1,6","196,6","25,2","68,3","0","0"],
    [29175,"2017-05-30T01:00:00","30","ND","ND","0,7","184,2","25,4","68,5","0","0"],
    [29176,"2017-05-30T02:00:00","40","ND","ND","1,3","125","25,2","70,3","0","0"],
    [29177,"2017-05-30T03:00:00","42","4","ND","1,6","137,5","24,9","71,9","0","0"],
    [29178,"2017-05-30T04:00:00","47","3","ND","0,9","166,9","24,7","71,4","0","0"],
    [29179,"2017-05-30T05:00:00","52","7","ND","0,4","345,1","24,9","70,7","0","0"],
    [29180,"2017-05-30T06:00:00","88","24","ND","1,9","98,5","23,8","74,8","0","0"],
    [29181,"2017-05-30T07:00:00","102","19","ND","1,6","156,5","24,4","73,6","22,2","0"],
    [29182,"2017-05-30T08:00:00","86","20","ND","2,5","151,9","26,1","67,4","110,1","0"],
    [29183,"2017-05-30T09:00:00","51","6","ND","1,3","214,4","29","56,4","232,3","0"],
    [29184,"2017-05-30T10:00:00","44","6","ND","1,6","189,3","31,2","48,6","326,4","0"],
    [29185,"2017-05-30T11:00:00","56","10","ND","3,3","65,4","32,5","43,7","398,7","0"],
    [29186,"2017-05-30T12:00:00","46","13","ND","3,4","43,6","33,2","41,4","393,3","0"],
    [29187,"2017-05-30T13:00:00","59","14","ND","4,5","50,3","34,2","39,6","383,8","0"],
    [29188,"2017-05-30T14:00:00","45","8","ND","4,6","45,4","34,8","37","303,9","0"],
    [29189,"2017-05-30T15:00:00","44","4","ND","2,4","1,8","34,8","35","180,5","0"],
    [29190,"2017-05-30T16:00:00","43","1","ND","6,7","311,9","34,2","36,1","210,8","0"],
    [29191,"2017-05-30T17:00:00","38","3","ND","3","345,6","34,1","35,5","125,1","0"],
    [29192,"2017-05-30T18:00:00","45","3","ND","6,9","286,3","31,8","40","29,3","0"],
    [29193,"2017-05-30T19:00:00","45","3","ND","5,4","299,6","30,4","44,6","0","0"],
    [29194,"2017-05-30T20:00:00","90","10","ND","1,7","42,4","29,6","48,9","0","0"],
    [29195,"2017-05-30T21:00:00","68","7","ND","3","95","27,6","59,8","0","0"],
    [29196,"2017-05-30T22:00:00","49","3","ND","4","91,3","26,6","64,8","0","0"],
    [29197,"2017-05-30T23:00:00","33","ND","ND","1,9","45,6","26,5","64,7","0","0"],
    [29198,"2017-05-31T00:00:00","30","2","ND","1,6","50,2","26,5","64,6","0","0"],
    [29199,"2017-05-31T01:00:00","51","6","ND","0,3","341,3","26","67","0","0"],
    [29200,"2017-05-31T02:00:00","47","6","ND","1,8","177,8","25,7","68,7","0","0"],
    [29201,"2017-05-31T03:00:00","46","3","ND","2,9","208,8","25,5","69,4","0","0"],
    [29202,"2017-05-31T04:00:00","47","4","ND","2,2","168,9","25,6","70,2","0","0"],
    [29203,"2017-05-31T05:00:00","55","9","ND","1,9","193,7","25,7","69,9","0","0"],
    [29204,"2017-05-31T06:00:00","86","20","ND","2,6","128,4","25,7","69,8","0","0"],
    [29205,"2017-05-31T07:00:00","69","12","ND","1,5","191,8","25,7","69,9","21,5","0"],
    [29206,"2017-05-31T08:00:00","69","18","ND","0,8","260,4","27,1","63,5","72,7","0"],
    [29207,"2017-05-31T09:00:00","81","18","ND","3,3","97,6","28,2","59,4","132,8","0"],
    [29208,"2017-05-31T10:00:00","74","14","ND","2,3","114,7","29,4","55,4","129","0"],
    [29209,"2017-05-31T11:00:00","96","19","ND","2","119,4","29,9","54,8","139,3","0"],
    [29210,"2017-05-31T12:00:00","69","17","ND","1,9","29,9","30,9","51","189,2","0"],
    [29211,"2017-05-31T13:00:00","88","20","ND","3,6","86,4","31,1","49,6","196,1","0"],
    [29212,"2017-05-31T14:00:00","68","20","ND","3,7","67,7","31,7","47,3","196,3","0"],
    [29213,"2017-05-31T15:00:00","53","8","ND","4,2","55,7","32","47,4","159,2","0"],
    [29214,"2017-05-31T16:00:00","54","9","ND","3,5","70,6","31,9","46,8","94,4","0"],
    [29215,"2017-05-31T17:00:00","42","5","ND","4,2","284,1","31,4","44,1","67,7","0"],
    [29216,"2017-05-31T18:00:00","58","5","ND","2,6","311,1","30,5","46,2","20,7","0"],
    [29217,"2017-05-31T19:00:00","113","19","ND","1,4","351","29,4","50,4","0","0"],
    [29218,"2017-05-31T20:00:00","72","12","ND","2,5","20,6","28,6","53,2","0","0"],
    [29219,"2017-05-31T21:00:00","65","11","ND","3,7","90","27,5","60,3","0","0"],
    [29220,"2017-05-31T22:00:00","52","7","ND","3","76,7","26,6","63,2","0","0"],
    [29221,"2017-05-31T23:00:00","40","4","ND","0,4","82,5","26,3","62,5","0","0"],
    [29222,"2017-06-01T00:00:00","40","4","ND","1,6","141,2","26,1","64,1","0","0"],
    [29223,"2017-06-01T01:00:00","36","3","ND","1,2","69,8","26,4","62,4","0","0"],
    [29224,"2017-06-01T02:00:00","32","2","ND","1,9","122,3","25,8","65,7","0","0"],
    [29225,"2017-06-01T03:00:00","42","2","ND","1","120,7","25,4","68,5","0","0"],
    [29226,"2017-06-01T04:00:00","38","1","ND","0,7","109,4","25,2","71,6","0","0"],
    [29227,"2017-06-01T05:00:00","64","16","ND","3","91,8","24,8","73,2","0","0"],
    [29228,"2017-06-01T06:00:00","58","8","ND","0,4","292,6","25,1","71","0","0"],
    [29229,"2017-06-01T07:00:00","120","33","ND","1,8","67,9","25,5","70,3","6,8","0"],
    [29230,"2017-06-01T08:00:00","94","15","ND","2","91,5","26,4","65,8","48,6","0"],
    [29231,"2017-06-01T09:00:00","80","11","ND","2,1","103,9","28,2","59,6","175,6","0"],
    [29232,"2017-06-01T10:00:00","66","9","ND","1,5","248","30","53","243,6","0"],
    [29233,"2017-06-01T11:00:00","90","21","ND","1","106,2","32,5","45,7","348,7","0"],
    [29234,"2017-06-01T12:00:00","75","16","ND","3","97,5","32,8","43,7","279,1","0"],
    [29235,"2017-06-01T13:00:00","62","16","ND","3,5","66,3","33,3","41,9","279,1","0"],
    [29236,"2017-06-01T14:00:00","47","8","ND","4,2","32","33,7","39,2","274,2","0"],
    [29237,"2017-06-01T15:00:00","67","11","ND","4,1","44,1","33,7","41,2","248,2","0"],
    [29238,"2017-06-01T16:00:00","69","9","ND","4,1","31,7","34,3","40,1","174,4","0"],
    [29239,"2017-06-01T17:00:00","49","6","ND","3,6","40,9","33,7","41,2","78,4","0"],
    [29240,"2017-06-01T18:00:00","57","10","ND","3,5","349","32,4","42,5","14,7","0"],
    [29241,"2017-06-01T19:00:00","51","5","ND","4,1","290,4","30,8","46,3","0","0"],
    [29242,"2017-06-01T20:00:00","56","3","ND","3,7","305,6","30,3","48,5","0","0"],
    [29243,"2017-06-01T21:00:00","95","13","ND","4,1","92,7","28","61,3","0","0"],
    [29244,"2017-06-01T22:00:00","75","18","ND","2,7","73,3","27","63,7","0","0"],
    [29245,"2017-06-01T23:00:00","44","ND","ND","2,2","64,3","27","62,5","0","0"],
    [29246,"2017-06-02T00:00:00","42","ND","ND","1,6","78,3","27","62,7","0","0"],
    [29247,"2017-06-02T01:00:00","34","ND","ND","2,7","118","26,7","64,7","0","0"],
    [29248,"2017-06-02T02:00:00","39","7","ND","1,5","210,5","26,1","67,7","0","0"],
    [29249,"2017-06-02T03:00:00","44","10","ND","1,9","198,4","25,9","68,5","0","0"],
    [29250,"2017-06-02T04:00:00","53","7","ND","1,9","95,5","25,6","70,4","0","0"],
    [29251,"2017-06-02T05:00:00","80","11","ND","2,3","98,7","25,3","72,3","0","0"],
    [29252,"2017-06-02T06:00:00","73","11","ND","1,9","157,1","25,3","71,8","0","0"],
    [29253,"2017-06-02T07:00:00","91","22","ND","2,1","124,9","25,6","70,3","24,7","0"],
    [29254,"2017-06-02T08:00:00","81","11","ND","2,7","125,8","27","66,1","101,1","0"],
    [29255,"2017-06-02T09:00:00","76","13","ND","2,8","150,6","29","59,1","149,9","0"],
    [29256,"2017-06-02T10:00:00","90","19","ND","1,5","13,7","30,7","52,7","251,3","0"],
    [29257,"2017-06-02T11:00:00","52","7","ND","2,7","67","31,8","47,2","323,4","0"],
    [29258,"2017-06-02T12:00:00","51","12","ND","2,6","112,5","33,1","43,6","283,3","0"],
    [29259,"2017-06-02T13:00:00","66","15","ND","3,1","87,9","34,4","40,2","365,6","0"],
    [29260,"2017-06-02T14:00:00","70","19","ND","2,7","89,9","35,4","37,3","351,6","0"],
    [29261,"2017-06-02T15:00:00","78","24","ND","3,2","86","35,8","36,8","276,5","0"],
    [29262,"2017-06-02T16:00:00","65","12","ND","3,2","28,7","35,4","37,5","134,4","0"],
    [29263,"2017-06-02T17:00:00","57","7","ND","4,7","330","34,9","37,6","99,5","0"],
    [29264,"2017-06-02T18:00:00","75","7","ND","5,2","289,7","32,1","43,2","8,2","0"],
    [29265,"2017-06-02T19:00:00","55","6","ND","5,6","301,5","31,1","45,5","0","0"],
    [29266,"2017-06-02T20:00:00","77","11","ND","4","78","29,3","56,3","0","0"],
    [29267,"2017-06-02T21:00:00","70","8","ND","3,5","74,7","28,1","61,6","0","0"],
    [29268,"2017-06-02T22:00:00","65","6","ND","2,2","86,1","27,7","63,1","0","0"],
    [29269,"2017-06-02T23:00:00","59","2","ND","2","202,3","27,2","64,9","0","0"],
    [29270,"2017-06-03T00:00:00","69","4","ND","1,7","131,6","27,3","65","0","0"],
    [29271,"2017-06-03T01:00:00","32","6","ND","2,4","114,5","26,5","68,1","0","0"],
    [29272,"2017-06-03T02:00:00","38","5","ND","1,2","92,6","26,1","69","0","0"],
    [29273,"2017-06-03T03:00:00","34","2","ND","0,6","132,8","26,1","68,3","0","0"],
    [29274,"2017-06-03T04:00:00","51","6","ND","0,7","128,3","25,9","69,3","0","0"],
    [29275,"2017-06-03T05:00:00","43","8","ND","0,4","52,2","26","68,5","0","0"],
    [29276,"2017-06-03T06:00:00","78","12","ND","1,7","139,1","25,8","69,8","0","0"],
    [29277,"2017-06-03T07:00:00","142","33","ND","2,4","123,4","25,5","71,9","10,6","0"],
    [29278,"2017-06-03T08:00:00","121","18","ND","2,8","164","26,5","68,6","65,6","0"],
    [29279,"2017-06-03T09:00:00","90","17","ND","2,6","190,2","28,5","60,9","151,4","0"],
    [29280,"2017-06-03T10:00:00","67","10","ND","2,4","203,4","30,6","54,4","257,7","0"],
    [29281,"2017-06-03T11:00:00","67","11","ND","2,1","160,8","32,2","48,2","270,7","0"],
    [29282,"2017-06-03T12:00:00","84","17","ND","2,1","152,7","32,6","47","259","0"],
    [29283,"2017-06-03T13:00:00","78","17","ND","0,7","3,7","34,3","42,2","374","0"],
    [29284,"2017-06-03T14:00:00","80","25","ND","2,6","45","35,4","39,2","322,3","0"],
    [29285,"2017-06-03T15:00:00","70","22","ND","3,7","55,1","35,7","38,9","283,2","0"],
    [29286,"2017-06-03T16:00:00","55","13","ND","3,9","81,6","35,4","38","175,5","0"],
    [29287,"2017-06-03T17:00:00","61","13","ND","1,5","17,6","34,3","38,7","33,2","0"],
    [29288,"2017-06-03T18:00:00","39","4","ND","5,8","299,2","32,1","44,4","13,1","0"],
    [29289,"2017-06-03T19:00:00","33","ND","ND","4,2","307,6","31,4","46,8","0","0"],
    [29290,"2017-06-03T20:00:00","83","22","ND","2","108,7","30,2","53,3","0","0"],
    [29291,"2017-06-03T21:00:00","124","3","ND","7,9","206,4","28,2","52,9","0","0"],
    [29292,"2017-06-03T22:00:00","41","4","ND","3,8","186,3","28","53,6","0","0"],
    [29293,"2017-06-03T23:00:00","60","6","ND","4","130,6","25,9","64,3","0","0"],
    [29294,"2017-06-04T00:00:00","47","4","ND","1,1","208,2","25,4","65,4","0","0"],
    [29295,"2017-06-04T01:00:00","32","2","ND","1,1","140,4","25,5","65,5","0","0"],
    [29296,"2017-06-04T02:00:00","41","1","ND","1,2","180,3","25,6","64,4","0","0"],
    [29297,"2017-06-04T03:00:00","46","6","ND","2,3","116,2","25,2","68,3","0","0"],
    [29298,"2017-06-04T04:00:00","64","11","ND","2,1","114,7","24,6","71,8","0","0"],
    [29299,"2017-06-04T05:00:00","52","11","ND","0,7","206,5","24,8","69,4","0","0"],
    [29300,"2017-06-04T06:00:00","54","9","ND","1,5","159,2","24,9","69,5","0","0"],
    [29301,"2017-06-04T07:00:00","68","7","ND","1,1","196,6","25","69,9","11,5","0"],
    [29302,"2017-06-04T08:00:00","77","21","ND","0,9","114,7","26,3","66,2","46,7","0"],
    [29303,"2017-06-04T09:00:00","84","20","ND","2","202,3","28","61","131,1","0"],
    [29304,"2017-06-04T10:00:00","77","18","ND","2,8","75,8","29,5","54,2","178,9","0"],
    [29305,"2017-06-04T11:00:00","52","15","ND","3,4","57,7","30,4","52,3","243,6","0"],
    [29306,"2017-06-04T12:00:00","49","7","ND","3,2","70,9","31,8","48,2","301,3","0"],
    [29307,"2017-06-04T13:00:00","51","8","ND","3,2","94,4","32,5","45,9","241,1","0"],
    [29308,"2017-06-04T14:00:00","55","15","ND","1,8","183,9","33,1","44,8","194,1","0"],
    [29309,"2017-06-04T15:00:00","64","9","ND","1,3","163,1","32,9","45,4","145,4","0"],
    [29310,"2017-06-04T16:00:00","72","19","ND","1,9","119,8","33,4","43,6","132,2","0"],
    [29311,"2017-06-04T17:00:00","55","13","ND","2,9","66,2","32,7","45,3","54","0"],
    [29312,"2017-06-04T18:00:00","59","10","ND","3,9","63,7","31,8","50,2","14,6","0"],
    [29313,"2017-06-04T19:00:00","61","12","ND","0,6","71,1","30,8","52","0","0"],
    [29314,"2017-06-04T20:00:00","50","11","ND","1,5","314,4","29,9","51,6","0","0"],
    [29315,"2017-06-04T21:00:00","61","15","ND","1,9","51,3","29,2","55,8","0","0"],
    [29316,"2017-06-04T22:00:00","42","2","ND","2,9","96","27,5","65,2","0","0"],
    [29317,"2017-06-04T23:00:00","39","4","ND","2,4","70,5","27,1","65,3","0","0"],
    [29318,"2017-06-05T00:00:00","38","2","ND","0,5","150,8","27,2","64","0","0"],
    [29319,"2017-06-05T01:00:00","24","ND","ND","2,5","95,5","26,8","65,6","0","0"],
    [29320,"2017-06-05T02:00:00","36","ND","ND","1,8","38,2","26,3","68,5","0","0"],
    [29321,"2017-06-05T03:00:00","32","ND","ND","1,6","161,5","26,5","67,8","0","0"],
    [29322,"2017-06-05T04:00:00","44","ND","ND","2,1","149,2","26,2","69,8","0","0"],
    [29323,"2017-06-05T05:00:00","58","7","ND","1,7","177,5","26,1","70,7","0","0"],
    [29324,"2017-06-05T06:00:00","97","17","ND","1,2","138,1","25,9","72,4","0","0"],
    [29325,"2017-06-05T07:00:00","64","11","ND","1,1","256,7","26,4","69,5","10,7","0"],
    [29326,"2017-06-05T08:00:00","130","20","ND","3,1","142,8","27","68,2","44","0"],
    [29327,"2017-06-05T09:00:00","88","14","ND","2,6","91,3","28","63,3","124,1","0"],
    [29328,"2017-06-05T10:00:00","60","8","ND","1,3","139,4","31,3","52,4","300,5","0"],
    [29329,"2017-06-05T11:00:00","55","7","ND","1,3","133,2","32,9","46,2","339,8","0"],
    [29330,"2017-06-05T12:00:00","49","9","ND","3,1","128","34,2","41,6","405,9","0"],
    [29331,"2017-06-05T13:00:00","59","7","ND","1","134,7","34,3","40,4","253,1","0"],
    [29332,"2017-06-05T14:00:00","51","14","ND","3,3","63,7","35,8","34,7","368,7","0"],
    [29333,"2017-06-05T15:00:00","56","7","ND","3,6","87,2","36,4","31,4","312,1","0"],
    [29334,"2017-06-05T16:00:00","59","9","ND","3,1","66,4","36,5","31,2","210,9","0"],
    [29335,"2017-06-05T17:00:00","81","13","ND","3,1","82","35,4","35","70,1","0"],
    [29336,"2017-06-05T18:00:00","120","29","ND","2,9","73,2","34,2","39,5","16,9","0"],
    [29337,"2017-06-05T19:00:00","80","12","ND","3,7","295,7","32","43,9","0","0"],
    [29338,"2017-06-05T20:00:00","94","24","ND","2,1","350,4","30,6","49,1","0","0"],
    [29339,"2017-06-05T21:00:00","80","18","ND","3,2","104,4","28,6","59","0","0"],
    [29340,"2017-06-05T22:00:00","65","6","ND","3,1","92,2","27,4","63,9","0","0"],
    [29341,"2017-06-05T23:00:00","47","8","ND","2,8","103,1","27,4","63,9","0","0"],
    [29342,"2017-06-06T00:00:00","51","8","ND","2,9","117,4","27,2","64,1","0","0"],
    [29343,"2017-06-06T01:00:00","53","7","ND","1,6","126,1","26,6","67,2","0","0"],
    [29344,"2017-06-06T02:00:00","73","17","ND","2,3","161,2","26,3","68","0","0"],
    [29345,"2017-06-06T03:00:00","88","19","ND","1,7","194,8","25,4","69,9","0","0"],
    [29346,"2017-06-06T04:00:00","55","11","ND","2,5","173","25","67,1","0","0"],
    [29347,"2017-06-06T05:00:00","67","12","ND","2,3","118,7","24,1","68,2","0","0"],
    [29348,"2017-06-06T06:00:00","75","9","ND","2,3","166,1","23,4","69,2","0","0"],
    [29349,"2017-06-06T07:00:00","97","15","ND","1,8","174,8","23,7","67,3","26,4","0"],
    [29350,"2017-06-06T08:00:00","104","17","ND","1,8","116,8","25,7","61,5","100,2","0"],
    [29351,"2017-06-06T09:00:00","96","17","ND","3,8","76,4","27,7","57,7","197,9","0"],
    [29352,"2017-06-06T10:00:00","62","12","ND","2,3","71,9","30,4","47,8","285,8","0"],
    [29353,"2017-06-06T11:00:00","57","8","ND","3,1","90","32,1","42,5","309,8","0"],
    [29354,"2017-06-06T12:00:00","48","11","ND","3,5","119,6","33","40","323,9","0"],
    [29355,"2017-06-06T13:00:00","73","18","ND","3,8","149","33,5","39,1","159,2","0"],
    [29356,"2017-06-06T14:00:00","75","19","ND","4","127,1","33,6","39,1","152,6","0"],
    [29357,"2017-06-06T15:00:00","74","12","ND","2,9","115,9","34,3","37,7","171,3","0"],
    [29358,"2017-06-06T16:00:00","67","13","ND","4,2","72","35,2","36","191,6","0"],
    [29359,"2017-06-06T17:00:00","71","7","ND","3,6","298,3","34,8","35,8","133,1","0"],
    [29360,"2017-06-06T18:00:00","67","4","ND","7,2","301,7","32,4","39,8","45,1","0"],
    [29361,"2017-06-06T19:00:00","68","2","ND","6,8","294,6","30,2","44,9","0","0"],
    [29362,"2017-06-06T20:00:00","91","9","ND","3,5","37,6","29,2","49,4","0","0"],
    [29363,"2017-06-06T21:00:00","51","8","ND","3,3","70,8","27,6","55,4","0","0"],
    [29364,"2017-06-06T22:00:00","38","2","ND","3,6","91,2","26,8","57,8","0","0"],
    [29365,"2017-06-06T23:00:00","60","16","ND","1,5","194","26,9","58,1","0","0"],
    [29366,"2017-06-07T00:00:00","75","1","ND","1,6","185,6","26,1","62,8","0","0"],
    [29367,"2017-06-07T01:00:00","44","ND","ND","1,6","188,7","26,1","64,1","0","0"],
    [29368,"2017-06-07T02:00:00","59","11","ND","1,4","150,8","26,1","64,9","0","0"],
    [29369,"2017-06-07T03:00:00","51","8","ND","1,2","225,5","25,9","65,2","0","0"],
    [29370,"2017-06-07T04:00:00","44","7","ND","2","177","26","65,5","0","0"],
    [29371,"2017-06-07T05:00:00","70","5","ND","1,4","170,5","25,5","69,1","0","0"],
    [29372,"2017-06-07T06:00:00","57","6","ND","1,1","164,6","25,2","69,4","0","0"],
    [29373,"2017-06-07T07:00:00","60","16","ND","2,3","28,9","24,7","74,7","0","7,11"],
    [29374,"2017-06-07T08:00:00","43","13","ND","2,1","311,4","24,1","79,7","14,8","0,51"],
    [29375,"2017-06-07T09:00:00","47","19","ND","1,7","323,9","25,5","73,9","61,1","0,25"],
    [29376,"2017-06-07T10:00:00","59","20","ND","2,3","10,7","27,3","66,7","160,5","0"],
    [29377,"2017-06-07T11:00:00","26","14","ND","1,6","48,8","29","57,2","186,5","0"],
    [29378,"2017-06-07T12:00:00","59","20","ND","2,1","102,1","30","53,4","205,6","0"],
    [29379,"2017-06-07T13:00:00","66","25","ND","3,4","88,6","29,5","55,7","114,3","0"],
    [29380,"2017-06-07T14:00:00","41","14","ND","4,2","61,2","27","70,1","20","6,6"],
    [29381,"2017-06-07T15:00:00","32","8","ND","4,7","40,5","25,7","77,7","52,1","1,27"],
    [29382,"2017-06-07T16:00:00","27","ND","ND","3,9","13,4","25,9","69,9","91,9","0,25"],
    [29383,"2017-06-07T17:00:00","37","2","ND","4,4","21,5","26,2","62,2","28,6","0"],
    [29384,"2017-06-07T18:00:00","36","6","ND","5,8","56,4","24,8","69,9","9,8","0"],
    [29385,"2017-06-07T19:00:00","38","3","ND","4,1","50,5","24,1","72","0","0"],
    [29386,"2017-06-07T20:00:00","39","1","ND","1","158,2","24,2","71","0","0"],
    [29387,"2017-06-07T21:00:00","32","1","ND","3,9","233,7","23,7","73,8","0","0,25"],
    [29388,"2017-06-07T22:00:00","38","11","ND","2,8","234,6","23,4","77,2","0","0,51"],
    [29389,"2017-06-07T23:00:00","20","5","ND","1,3","179,7","23,2","77,4","0","0,25"],
    [29390,"2017-06-08T00:00:00","18","ND","ND","1,8","123,4","23,4","77,5","0","0"],
    [29391,"2017-06-08T01:00:00","18","ND","ND","0,7","139,9","23","78,1","0","0,51"],
    [29392,"2017-06-08T02:00:00","17","ND","ND","1,5","173,8","22,9","77,3","0","0,76"],
    [29393,"2017-06-08T03:00:00","13","ND","ND","1","205,3","22,6","78,1","0","0,25"],
    [29394,"2017-06-08T04:00:00","22","ND","ND","0,9","69,6","22,8","77,9","0","0"],
    [29395,"2017-06-08T05:00:00","19","ND","ND","1,3","188","22,8","77,2","0","0"],
    [29396,"2017-06-08T06:00:00","26","4","ND","1,6","174,5","22,8","77,1","0","0,25"],
    [29397,"2017-06-08T07:00:00","38","6","ND","1,6","102,2","22,8","78,6","10,9","1,27"],
    [29398,"2017-06-08T08:00:00","42","14","ND","1,1","111","23,4","77,6","46,8","0,25"],
    [29399,"2017-06-08T09:00:00","28","9","ND","1,1","175,4","25,3","70","200,5","0"],
    [29400,"2017-06-08T10:00:00","27","4","ND","1,5","166,8","27,6","59,8","237,7","0"],
    [29401,"2017-06-08T11:00:00","23","ND","ND","1,8","155,3","28,6","55,1","239,5","0"],
    [29402,"2017-06-08T12:00:00","28","ND","ND","1,2","193,4","30,1","49,7","292,6","0"],
    [29403,"2017-06-08T13:00:00","30","ND","ND","2","155,5","30,5","47,8","160,3","0"],
    [29404,"2017-06-08T14:00:00","48","9","ND","3,1","90,2","30,5","48,3","212,4","0"],
    [29405,"2017-06-08T15:00:00","49","8","ND","2,5","116,3","31,6","45,2","303","0"],
    [29406,"2017-06-08T16:00:00","54","10","ND","1,8","146","31,4","46","116,8","0"],
    [29407,"2017-06-08T17:00:00","65","16","ND","3","145,7","30,6","44","34,3","0"],
    [29408,"2017-06-08T18:00:00","86","17","ND","3,5","112,2","29,7","50,4","7","0,25"],
    [29409,"2017-06-08T19:00:00","91","39","ND","2,7","143,9","26,1","70,6","0","3,56"],
    [29410,"2017-06-08T20:00:00","39","11","ND","1,7","236,7","25,3","73,1","0","0,25"],
    [29411,"2017-06-08T21:00:00","46","12","ND","0,9","100","25,4","72,1","0","1,78"],
    [29412,"2017-06-08T22:00:00","42","18","ND","2,2","153,3","24,8","76,6","0","1,27"],
    [29413,"2017-06-08T23:00:00","32","6","ND","1,9","184,1","24,5","78,8","0","0,51"],
    [29414,"2017-06-09T00:00:00","32","6","ND","1,5","150,6","24,6","78,2","0","0"],
    [29415,"2017-06-09T01:00:00","27","5","ND","1,1","184","24,5","78,3","0","0"],
    [29416,"2017-06-09T02:00:00","37","4","ND","1","223,7","24,6","76,4","0","0"],
    [29417,"2017-06-09T03:00:00","40","11","ND","1,3","146","24,7","76,1","0","0,51"],
    [29418,"2017-06-09T04:00:00","45","9","ND","2,3","126,3","24,2","79,2","0","0"],
    [29419,"2017-06-09T05:00:00","47","6","ND","1","243,7","24,1","79,3","0","0"],
    [29420,"2017-06-09T06:00:00","40","4","ND","1,5","297,7","24","78,1","0","0,25"],
    [29421,"2017-06-09T07:00:00","79","29","ND","2,4","130,9","24,1","78,6","7,1","0"],
    [29422,"2017-06-09T08:00:00","99","28","ND","1,1","106,2","24,5","78","41,4","0"],
    [29423,"2017-06-09T09:00:00","89","30","ND","1,1","360","26","70,7","110","0"],
    [29424,"2017-06-09T10:00:00","51","16","ND","2","330,8","27,7","58,9","192,3","0"],
    [29425,"2017-06-09T11:00:00","46","15","ND","2,4","106,3","28,6","54,5","190,4","0"],
    [29426,"2017-06-09T12:00:00","35","5","ND","2,7","99,9","30,3","50,3","347,9","0"],
    [29427,"2017-06-09T13:00:00","45","6","ND","2,4","68,9","31,4","48,2","346","0"],
    [29428,"2017-06-09T14:00:00","49","6","ND","3,2","64,3","32,1","44,4","326,5","0"],
    [29429,"2017-06-09T15:00:00","55","12","ND","1,8","75,4","33","40,8","291,7","0"],
    [29430,"2017-06-09T16:00:00","52","13","ND","3,6","115,8","32,6","41,3","181","0"],
    [29431,"2017-06-09T17:00:00","75","17","ND","2,8","91,1","32,4","41,3","105,5","0"],
    [29432,"2017-06-09T18:00:00","55","13","ND","2,7","40,4","32","42,8","39,1","0"],
    [29433,"2017-06-09T19:00:00","93","30","ND","2,8","78,4","30,5","51","0","0"],
    [29434,"2017-06-09T20:00:00","100","36","ND","0,5","276,9","29,2","55,9","0","0"],
    [29435,"2017-06-09T21:00:00","76","20","ND","1,7","313","28,7","55,4","0","0"],
    [29436,"2017-06-09T22:00:00","76","20","ND","1,4","342","27,7","59,5","0","0"],
    [29437,"2017-06-09T23:00:00","72","10","ND","2,2","87,2","25,8","71,3","0","0"],
    [29438,"2017-06-10T00:00:00","67","12","ND","0,7","137,7","26,1","69,3","0","0"],
    [29439,"2017-06-10T01:00:00","56","5","ND","2,2","96,9","25,7","70,6","0","0"],
    [29440,"2017-06-10T02:00:00","34","ND","ND","1,4","131,3","25,5","70,9","0","0"],
    [29441,"2017-06-10T03:00:00","31","ND","ND","1,4","67,8","25,5","70,5","0","0"],
    [29442,"2017-06-10T04:00:00","40","ND","ND","1,4","250,2","25,4","71,3","0","0"],
    [29443,"2017-06-10T05:00:00","56","8","ND","2","176","25,4","71,8","0","0"],
    [29444,"2017-06-10T06:00:00","86","18","ND","1,2","186,5","25,1","74,2","0","0"],
    [29445,"2017-06-10T07:00:00","85","16","ND","0,2","215,7","25,6","72,6","17,3","0"],
    [29446,"2017-06-10T08:00:00","92","25","ND","2,2","112,7","26,6","69,5","79,7","0"],
    [29447,"2017-06-10T09:00:00","77","17","ND","2","191,5","28,4","60,6","154,9","0"],
    [29448,"2017-06-10T10:00:00","78","22","ND","2,3","205,1","29,1","59,1","186","0"],
    [29449,"2017-06-10T11:00:00","71","23","ND","1,3","209,7","30,8","52,2","215,1","0"],
    [29450,"2017-06-10T12:00:00","66","22","ND","2,2","192,8","32,8","46,8","303,4","0"],
    [29451,"2017-06-10T13:00:00","66","15","ND","1,2","28,9","33,7","42,2","334,4","0"],
    [29452,"2017-06-10T14:00:00","47","12","ND","2,8","47,3","34,7","38,1","367,8","0"],
    [29453,"2017-06-10T15:00:00","65","13","ND","4,9","55,7","34,4","39,1","240,2","0"],
    [29454,"2017-06-10T16:00:00","63","15","ND","4,9","53,9","34,4","40,2","206,2","0"],
    [29455,"2017-06-10T17:00:00","46","9","ND","4,7","46,7","34","41","109,4","0"],
    [29456,"2017-06-10T18:00:00","51","7","ND","3,4","42,9","33,1","44,6","36,6","0"],
    [29457,"2017-06-10T19:00:00","44","4","ND","4,4","313,5","31,2","45,6","0","0"],
    [29458,"2017-06-10T20:00:00","73","26","ND","1,9","22,6","30","51,6","0","0"],
    [29459,"2017-06-10T21:00:00","86","10","ND","3,4","79,7","28,2","61,3","0","0"],
    [29460,"2017-06-10T22:00:00","56","6","ND","3,2","62,9","27,2","65,4","0","0"],
    [29461,"2017-06-10T23:00:00","56","5","ND","1,1","186,3","27,3","64,5","0","0"],
    [29462,"2017-06-11T00:00:00","70","12","ND","2,6","182,8","26,8","67,4","0","0"],
    [29463,"2017-06-11T01:00:00","53","8","ND","1,2","183,9","26,7","68,6","0","0"],
    [29464,"2017-06-11T02:00:00","60","10","ND","1,6","90,2","26,8","68,1","0","0"],
    [29465,"2017-06-11T03:00:00","38","7","ND","3,4","73,9","25,4","75,8","0","0,51"],
    [29466,"2017-06-11T04:00:00","39","5","ND","2,8","330,6","24,9","79,6","0","8,13"],
    [29467,"2017-06-11T05:00:00","36","9","ND","0,4","117","24,7","81,3","0","7,87"],
    [29468,"2017-06-11T06:00:00","37","6","ND","3","55,7","24,9","78","0","0,25"],
    [29469,"2017-06-11T07:00:00","24","ND","ND","3,4","6,4","24,3","76,8","16,6","0"],
    [29470,"2017-06-11T08:00:00","32","ND","ND","2,3","155","25,1","74,8","58,8","0"],
    [29471,"2017-06-11T09:00:00","28","2","ND","3,9","149,6","27","68,2","199,3","0"],
    [29472,"2017-06-11T10:00:00","39","12","ND","4,2","201","29,1","59,4","270,2","0"],
    [29473,"2017-06-11T11:00:00","28","5","ND","2,6","176","31,2","50,5","319,7","0"],
    [29474,"2017-06-11T12:00:00","20","ND","ND","2,2","151,3","32,1","47,8","321,3","0"],
    [29475,"2017-06-11T13:00:00","27","ND","ND","3,2","79,9","33,3","43,5","412,3","0"],
    [29476,"2017-06-11T14:00:00","41","8","ND","5,7","33,7","31,2","48,7","103","0"],
    [29477,"2017-06-11T15:00:00","35","5","ND","5,1","38","27,7","66,6","108,2","1,27"],
    [29478,"2017-06-11T16:00:00","25","4","ND","4,5","24,3","28,7","62,8","72,2","0"],
    [29479,"2017-06-11T17:00:00","37","1","ND","1,5","21,9","29,5","52,7","57,9","0"],
    [29480,"2017-06-11T18:00:00","46","ND","ND","4,1","95,2","28,6","55,6","20,6","0"],
    [29481,"2017-06-11T19:00:00","43","2","ND","3,7","73,3","27,2","59,1","0","0"],
    [29482,"2017-06-11T20:00:00","39","2","ND","1,4","317,2","26,9","59,1","0","0"],
    [29483,"2017-06-11T21:00:00","56","7","ND","1,5","321,7","26,5","59,8","0","0"],
    [29484,"2017-06-11T22:00:00","18","3","ND","5,1","277,2","25,5","61,6","0","0"],
    [29485,"2017-06-11T23:00:00","17","ND","ND","3,9","269,9","26,6","53,9","0","0"],
    [29486,"2017-06-12T00:00:00","35","ND","ND","3,3","212,3","26,1","65","0","0"],
    [29487,"2017-06-12T01:00:00","37","2","ND","2","189,6","25,5","68,7","0","0"],
    [29488,"2017-06-12T02:00:00","36","4","ND","2,9","102,7","24,9","72,7","0","0"],
    [29489,"2017-06-12T03:00:00","33","3","ND","2,8","114,5","24,2","76,4","0","1,02"],
    [29490,"2017-06-12T04:00:00","35","ND","ND","2,8","76,4","23,6","80","0","4,32"],
    [29491,"2017-06-12T05:00:00","27","7","ND","1,9","94,9","22,9","82,6","0","8,38"],
    [29492,"2017-06-12T06:00:00","40","7","ND","1,6","88,5","22,9","81,9","0","0,25"],
    [29493,"2017-06-12T07:00:00","18","4","ND","0,3","138,5","22,6","78,5","0","0"],
    [29494,"2017-06-12T08:00:00","25","2","ND","3,7","211,6","22,1","78,9","12,1","0"],
    [29495,"2017-06-12T09:00:00","18","ND","ND","3,7","208,4","22,3","78,7","40,6","0,25"],
    [29496,"2017-06-12T10:00:00","18","ND","ND","3,3","208,9","23,6","75,2","135,4","0"],
    [29497,"2017-06-12T11:00:00","24","ND","ND","1,9","187,4","25,5","66","162,2","0"],
    [29498,"2017-06-12T12:00:00","ND","ND","ND","1,2","183,6","26,7","59,9","169,3","0"],
    [29499,"2017-06-12T13:00:00","7","ND","ND","1,8","218,4","28,3","54,2","275,9","0"],
    [29500,"2017-06-12T14:00:00","19","ND","ND","0,5","211,9","29,8","49,5","281,2","0"],
    [29501,"2017-06-12T15:00:00","22","1","ND","1,9","299,1","29,5","50,1","158,4","0"],
    [29502,"2017-06-12T16:00:00","49","8","ND","3,4","41","28,5","54,4","51","0"],
    [29503,"2017-06-12T17:00:00","49","13","ND","3,1","53,3","28,2","55,5","29,4","0"],
    [29504,"2017-06-12T18:00:00","76","20","ND","2,5","352,6","27,9","56,8","12,6","0"],
    [29505,"2017-06-12T19:00:00","116","41","ND","1,3","29,1","27,7","58,5","0","0"],
    [29506,"2017-06-12T20:00:00","78","38","ND","2,4","151,1","26,4","68,7","0","0,51"],
    [29507,"2017-06-12T21:00:00","79","32","ND","1,8","128,7","25,4","74,2","0","2,79"],
    [29508,"2017-06-12T22:00:00","41","19","ND","2,4","163,8","24,7","77,9","0","17,78"],
    [29509,"2017-06-12T23:00:00","22","2","ND","3,3","200","23,2","84,4","0","34,04"],
    [29510,"2017-06-13T00:00:00","9","2","ND","1,8","191,1","23,3","83,2","0","0,25"],
    [29511,"2017-06-13T01:00:00","12","ND","ND","1,7","186,1","23,5","80,8","0","0"],
    [29512,"2017-06-13T02:00:00","9","ND","ND","1,6","175,4","23,4","79,5","0","0"],
    [29513,"2017-06-13T03:00:00","24","ND","ND","1,6","142,9","23,3","79,9","0","0,51"],
    [29514,"2017-06-13T04:00:00","23","ND","ND","1,9","118,6","23,1","80,7","0","1,52"],
    [29515,"2017-06-13T05:00:00","33","1","ND","2","76,3","23,1","81,2","0","1,02"],
    [29516,"2017-06-13T06:00:00","39","7","ND","1,8","41,5","23","81,7","0","0,25"],
    [29517,"2017-06-13T07:00:00","35","8","ND","1,3","1,1","23,1","81","0","0"],
    [29518,"2017-06-13T08:00:00","39","11","ND","1,6","62,1","23,5","80,2","20,3","0,51"],
    [29519,"2017-06-13T09:00:00","44","12","ND","1,9","53,5","24,6","76,1","87,9","0"],
    [29520,"2017-06-13T10:00:00","25","10","ND","2,2","20,1","26,4","66,6","195","0"],
    [29521,"2017-06-13T11:00:00","34","5","ND","2,7","57,4","28,1","58,7","263,1","0"],
    [29522,"2017-06-13T12:00:00","27","ND","ND","1,9","98,4","29,2","53,1","242,6","0"],
    [29523,"2017-06-13T13:00:00","31","ND","ND","1,6","98,9","30,4","48,8","272,9","0"],
    [29524,"2017-06-13T14:00:00","27","ND","ND","2,3","102,3","31,2","43,9","265","0"],
    [29525,"2017-06-13T15:00:00","50","13","ND","2,7","107","31,4","43,9","196,4","0"],
    [29526,"2017-06-13T16:00:00","58","11","ND","4,6","125,3","29,3","53,7","88,2","0"],
    [29527,"2017-06-13T17:00:00","48","10","ND","3,4","147,7","29,8","51,4","67,3","0"],
    [29528,"2017-06-13T18:00:00","76","23","ND","3,8","145","28,4","59,6","16,6","0"],
    [29529,"2017-06-13T19:00:00","69","19","ND","2,5","183,8","27,1","65,3","0","0"],
    [29530,"2017-06-13T20:00:00","74","13","ND","1,9","225,1","26,6","66,9","0","0"],
    [29531,"2017-06-13T21:00:00","118","34","ND","1,6","95,4","26,7","65","0","0"],
    [29532,"2017-06-13T22:00:00","116","33","ND","3,1","78,8","25,5","72,3","0","0"],
    [29533,"2017-06-13T23:00:00","93","20","ND","1,3","78,5","25,1","73,6","0","0"],
    [29534,"2017-06-14T00:00:00","50","12","ND","1,4","229,3","25,2","72,6","0","0"],
    [29535,"2017-06-14T01:00:00","53","12","ND","0,1","328,2","25,5","72","0","0"],
    [29536,"2017-06-14T02:00:00","62","16","ND","1,6","91,1","24,5","76,3","0","0"],
    [29537,"2017-06-14T03:00:00","48","8","ND","1,2","149,9","23,8","77,2","0","0"],
    [29538,"2017-06-14T04:00:00","22","4","ND","1,3","177,5","23,5","75,6","0","0"],
    [29539,"2017-06-14T05:00:00","45","5","ND","1,4","79,9","23","77,4","0","0"],
    [29540,"2017-06-14T06:00:00","94","20","ND","1,1","170,7","22,5","79,2","0","0"],
    [29541,"2017-06-14T07:00:00","60","11","ND","1,3","180,3","23","78,2","9,7","0"],
    [29542,"2017-06-14T08:00:00","93","18","ND","0,7","116,3","24","75,4","37","0"],
    [29543,"2017-06-14T09:00:00","81","17","ND","1,2","134,9","25,5","70,5","86,9","0"],
    [29544,"2017-06-14T10:00:00","58","9","ND","0,9","148,8","28,3","58,8","249,2","0"],
    [29545,"2017-06-14T11:00:00","53","10","ND","2","113,9","30","51,2","345,1","0"],
    [29546,"2017-06-14T12:00:00","40","6","ND","2,5","138,6","32,1","42,5","413,5","0"],
    [29547,"2017-06-14T13:00:00","45","8","ND","3","135,3","32,5","41","259","0"],
    [29548,"2017-06-14T14:00:00","52","7","ND","4,6","91,6","31,8","42,7","228","0"],
    [29549,"2017-06-14T15:00:00","51","15","ND","3,2","130","32,4","42,3","250,1","0"],
    [29550,"2017-06-14T16:00:00","ND","5","ND","2,9","65,1","32,5","43","185","0"],
    [29551,"2017-06-14T17:00:00","74","25","ND","3,4","107,2","31,7","44,7","51,4","0"],
    [29552,"2017-06-14T18:00:00","85","27","ND","2,9","93","30,9","47","14,8","0"],
    [29553,"2017-06-14T19:00:00","95","26","ND","2,4","47,8","29,9","48,6","0","0"],
    [29554,"2017-06-14T20:00:00","74","17","ND","1,4","259,6","28,8","52,1","0","0"],
    [29555,"2017-06-14T21:00:00","86","18","ND","2,1","123,3","27,7","59","0","0"],
    [29556,"2017-06-14T22:00:00","66","13","ND","0,3","117","27","62,3","0","0"],
    [29557,"2017-06-14T23:00:00","55","13","ND","2,5","267,1","26,6","59,7","0","0"],
    [29558,"2017-06-15T00:00:00","70","17","ND","2,1","198,2","26,1","66,7","0","0"],
    [29559,"2017-06-15T01:00:00","56","15","ND","1,4","108,1","25,1","71,2","0","0"],
    [29560,"2017-06-15T02:00:00","71","18","ND","1,3","91,4","23,9","75,4","0","0"],
    [29561,"2017-06-15T03:00:00","86","39","ND","1,7","70,6","23,8","75,3","0","0"],
    [29562,"2017-06-15T04:00:00","69","17","ND","1,7","95,6","23,2","76,8","0","0"],
    [29563,"2017-06-15T05:00:00","53","9","ND","0,4","62,5","23","77","0","0"],
    [29564,"2017-06-15T06:00:00","73","15","ND","0,6","213,9","23,2","75,6","0","0"],
    [29565,"2017-06-15T07:00:00","108","33","ND","1,4","155,4","23,5","74,8","15,8","0"],
    [29566,"2017-06-15T08:00:00","94","32","ND","2,5","80,2","24,1","73,4","35,4","0"],
    [29567,"2017-06-15T09:00:00","106","35","ND","2,8","50,2","25,4","68,3","92,3","0"],
    [29568,"2017-06-15T10:00:00","87","20","ND","3,1","71,7","26,4","64,5","120,4","0"],
    [29569,"2017-06-15T11:00:00","64","16","ND","3,1","68","28,1","57,2","181,8","0"],
    [29570,"2017-06-15T12:00:00","67","19","ND","1,3","55,2","30","52","294,8","0"],
    [29571,"2017-06-15T13:00:00","39","7","ND","2,2","190,9","32,6","42,3","398,3","0"],
    [29572,"2017-06-15T14:00:00","63","10","ND","2,2","171,4","32,9","41,4","311,3","0"],
    [29573,"2017-06-15T15:00:00","40","16","ND","3","134,3","32,7","40,1","207,6","0"],
    [29574,"2017-06-15T16:00:00","40","8","ND","3,1","99,6","33,2","38,2","194,5","0"],
    [29575,"2017-06-15T17:00:00","51","10","ND","3,2","84,3","32,8","39","86,7","0"],
    [29576,"2017-06-15T18:00:00","77","24","ND","3,5","29,5","31,4","46","26","0"],
    [29577,"2017-06-15T19:00:00","96","23","ND","2,6","18,8","30,2","49,7","0","0"],
    [29578,"2017-06-15T20:00:00","65","19","ND","2,2","8,7","28,7","53,3","0","0"],
    [29579,"2017-06-15T21:00:00","91","22","ND","2,2","29,4","28,7","53,4","0","0"],
    [29580,"2017-06-15T22:00:00","57","20","ND","3,1","57,1","26,9","62,7","0","0"],
    [29581,"2017-06-15T23:00:00","61","16","ND","2,2","49,1","26,7","62,9","0","0"],
    [29582,"2017-06-16T00:00:00","38","9","ND","1","128,1","26,2","65,2","0","0"],
    [29583,"2017-06-16T01:00:00","31","6","ND","2,1","195,1","26","67,5","0","0"],
    [29584,"2017-06-16T02:00:00","18","4","ND","2,2","141,9","25,8","64,7","0","0"],
    [29585,"2017-06-16T03:00:00","27","2","ND","2,6","199,9","24,9","66,9","0","0"],
    [29586,"2017-06-16T04:00:00","31","9","ND","2,6","230","24,3","75","0","0"],
    [29587,"2017-06-16T05:00:00","46","9","ND","1,9","189,5","24,5","76,1","0","0"],
    [29588,"2017-06-16T06:00:00","85","27","ND","2,3","129,5","24,5","75,8","0","0"],
    [29589,"2017-06-16T07:00:00","106","33","ND","2,6","76,7","24,2","75,6","10,3","0"],
    [29590,"2017-06-16T08:00:00","76","18","ND","2,8","93","25,3","70,4","61,2","0"],
    [29591,"2017-06-16T09:00:00","82","26","ND","2,5","113,5","26,4","66,2","97,4","0"],
    [29592,"2017-06-16T10:00:00","67","19","ND","2,4","108,5","28,8","57,8","253,9","0"],
    [29593,"2017-06-16T11:00:00","59","11","ND","2","157","30,1","51,4","233,2","0"],
    [29594,"2017-06-16T12:00:00","52","17","ND","1,3","147,6","31,7","46,1","251","0"],
    [29595,"2017-06-16T13:00:00","62","19","ND","3,4","64,9","32,7","42,5","336","0"],
    [29596,"2017-06-16T14:00:00","54","15","ND","3,8","89,3","33,4","39,8","279,3","0"],
    [29597,"2017-06-16T15:00:00","57","19","ND","4,1","83,5","34,1","37,6","291,2","0"],
    [29598,"2017-06-16T16:00:00","58","16","ND","3,3","120,5","33,2","38,6","88,4","0"],
    [29599,"2017-06-16T17:00:00","55","8","ND","2,5","282,8","32,6","39,6","75,4","0"],
    [29600,"2017-06-16T18:00:00","44","3","ND","6,3","280,4","31","43","14,8","0"],
    [29601,"2017-06-16T19:00:00","55","1","ND","7,3","292,2","29,1","48,4","0","0"],
    [29602,"2017-06-16T20:00:00","33","6","ND","6,6","300,7","28,5","49,9","0","0"],
    [29603,"2017-06-16T21:00:00","63","13","ND","3,1","66,4","27,2","57,8","0","0"],
    [29604,"2017-06-16T22:00:00","50","11","ND","3,7","56,4","26,4","61,9","0","0"],
    [29605,"2017-06-16T23:00:00","46","8","ND","2,6","73,1","26,5","60,6","0","0"],
    [29606,"2017-06-17T00:00:00","32","3","ND","2,2","72,7","25,9","63,5","0","0"],
    [29607,"2017-06-17T01:00:00","23","ND","ND","2,6","99,1","25,2","67,1","0","0"],
    [29608,"2017-06-17T02:00:00","34","2","ND","2,1","108,3","25","68,1","0","0"],
    [29609,"2017-06-17T03:00:00","27","2","ND","0,4","47,8","25","67,8","0","0"],
    [29610,"2017-06-17T04:00:00","31","2","ND","1","137,7","25,3","67,5","0","0"],
    [29611,"2017-06-17T05:00:00","35","3","ND","1,4","113","24,9","69,1","0","0"],
    [29612,"2017-06-17T06:00:00","42","2","ND","0,7","229,6","25","68,3","0","0"],
    [29613,"2017-06-17T07:00:00","76","15","ND","1,7","165,1","25","69,4","8,1","0"],
    [29614,"2017-06-17T08:00:00","90","29","ND","1,7","164,7","25,7","66,7","59,1","0"],
    [29615,"2017-06-17T09:00:00","64","13","ND","2,7","196,4","27,9","59,6","210,9","0"],
    [29616,"2017-06-17T10:00:00","57","15","ND","2","128,7","29,4","53,3","224","0"],
    [29617,"2017-06-17T11:00:00","50","11","ND","1,9","87,9","30,2","49,6","259,9","0"],
    [29618,"2017-06-17T12:00:00","51","18","ND","2,8","354,9","31,1","46,4","274,9","0"],
    [29619,"2017-06-17T13:00:00","40","6","ND","4,8","314,3","30,8","45,8","268,9","0"],
    [29620,"2017-06-17T14:00:00","43","10","ND","3,6","10,8","32,4","40,5","319,8","0"],
    [29621,"2017-06-17T15:00:00","29","6","ND","5,6","7","32,5","38,6","306,3","0"],
    [29622,"2017-06-17T16:00:00","33","2","ND","4,1","346,2","32,3","37,4","166,7","0"],
    [29623,"2017-06-17T17:00:00","36","1","ND","5,1","6,8","31,5","38","61,8","0"],
    [29624,"2017-06-17T18:00:00","57","10","ND","5,4","60,7","27,8","58,5","0","0"],
    [29625,"2017-06-17T19:00:00","36","6","ND","4,4","24,4","26","67,7","0","0"],
    [29626,"2017-06-17T20:00:00","46","16","ND","2,1","50,1","25,5","68,5","0","0"],
    [29627,"2017-06-17T21:00:00","46","6","ND","3,1","196,6","25,2","69,4","0","0"],
    [29628,"2017-06-17T22:00:00","60","17","ND","2,3","154,3","24,7","70,3","0","0"],
    [29629,"2017-06-17T23:00:00","34","3","ND","0,8","100,3","24,4","71,7","0","0"],
    [29630,"2017-06-18T00:00:00","68","25","ND","2,7","71,8","24,1","73,2","0","0"],
    [29631,"2017-06-18T01:00:00","47","7","ND","1,3","94,2","23,5","74,9","0","0"],
    [29632,"2017-06-18T02:00:00","59","19","ND","1,4","67,3","23,8","73,4","0","0"],
    [29633,"2017-06-18T03:00:00","44","5","ND","2","36,6","23,4","75","0","0"],
    [29634,"2017-06-18T04:00:00","29","11","ND","1,5","8,9","23,4","75,2","0","0"],
    [29635,"2017-06-18T05:00:00","50","6","ND","2,4","89,3","23,1","77,1","0","0"],
    [29636,"2017-06-18T06:00:00","55","11","ND","0,8","36,1","22,9","77,8","0","0"],
    [29637,"2017-06-18T07:00:00","69","23","ND","2,4","69,4","23,1","76,5","8,4","0"],
    [29638,"2017-06-18T08:00:00","59","15","ND","2,6","91,2","23,4","75,9","47,1","0"],
    [29639,"2017-06-18T09:00:00","72","18","ND","1,2","179,9","26,2","65,5","170,7","0"],
    [29640,"2017-06-18T10:00:00","65","23","ND","0,7","327,6","28,3","56,2","204,7","0"],
    [29641,"2017-06-18T11:00:00","67","23","ND","2,9","88,1","28,6","54,5","208,1","0"],
    [29642,"2017-06-18T12:00:00","35","8","ND","2,5","50,8","30,6","48,2","316,7","0"],
    [29643,"2017-06-18T13:00:00","36","10","ND","4,4","86,4","31","46,2","313,5","0"],
    [29644,"2017-06-18T14:00:00","35","6","ND","3,3","64,6","32,6","41,8","362,9","0"],
    [29645,"2017-06-18T15:00:00","35","7","ND","4,5","72,7","32,1","40,3","170,5","0"],
    [29646,"2017-06-18T16:00:00","45","12","ND","1,9","6,4","31,7","42,3","131,9","0"],
    [29647,"2017-06-18T17:00:00","35","8","ND","5,5","286,4","30,1","46,9","78,6","0"],
    [29648,"2017-06-18T18:00:00","23","2","ND","4,3","280","30,3","45,7","20,3","0"],
    [29649,"2017-06-18T19:00:00","37","ND","ND","3,2","298,5","29,4","47,7","0","0"],
    [29650,"2017-06-18T20:00:00","43","8","ND","2,1","299,4","28,8","49,4","0","0"],
    [29651,"2017-06-18T21:00:00","40","7","ND","1","48,5","27,8","56,9","0","0"],
    [29652,"2017-06-18T22:00:00","57","17","ND","2,8","109,2","26,1","66,8","0","0"],
    [29653,"2017-06-18T23:00:00","53","8","ND","1,1","146,2","26,1","65,8","0","0"],
    [29654,"2017-06-19T00:00:00","62","12","ND","2,3","163,5","26,1","66,2","0","0"],
    [29655,"2017-06-19T01:00:00","52","6","ND","3,3","109,5","25,3","72,2","0","0,76"],
    [29656,"2017-06-19T02:00:00","29","5","ND","2,9","49,6","24,2","77,8","0","0"],
    [29657,"2017-06-19T03:00:00","17","3","ND","3,9","36,4","23,8","79,8","0","1,78"],
    [29658,"2017-06-19T04:00:00","14","1","ND","3,2","47","23,3","79","0","0"],
    [29659,"2017-06-19T05:00:00","17","ND","ND","2,8","54,4","22,8","79,2","0","1,02"],
    [29660,"2017-06-19T06:00:00","20","ND","ND","2,1","55,6","22,3","78,9","0","0,76"],
    [29661,"2017-06-19T07:00:00","20","ND","ND","1,2","40,2","22,5","78,8","4,6","0,25"],
    [29662,"2017-06-19T08:00:00","29","4","ND","2,3","100,8","23,2","76,9","33,5","0"],
    [29663,"2017-06-19T09:00:00","17","4","ND","1,2","89,6","24,5","71,6","79,7","0"],
    [29664,"2017-06-19T10:00:00","24","1","ND","1,6","18,1","27","62,1","230,5","0"],
    [29665,"2017-06-19T11:00:00","11","1","ND","2,7","86,6","28,8","55,1","343,7","0"],
    [29666,"2017-06-19T12:00:00","27","1","ND","1,6","169,4","30,3","48,5","313,6","0"],
    [29667,"2017-06-19T13:00:00","33","3","ND","2,4","147,3","30,2","48,2","201","0"],
    [29668,"2017-06-19T14:00:00","28","4","ND","2,1","120,5","32,4","42,1","370,1","0"],
    [29669,"2017-06-19T15:00:00","25","2","ND","1,9","46,2","33","39,8","324,8","0"],
    [29670,"2017-06-19T16:00:00","32","6","ND","3,8","61,7","32,5","41,6","172,1","0"],
    [29671,"2017-06-19T17:00:00","27","6","ND","4","3,9","31,8","44,3","83,3","0"],
    [29672,"2017-06-19T18:00:00","28","7","ND","3,4","307,1","30,8","46,4","18,9","0"],
    [29673,"2017-06-19T19:00:00","34","10","ND","5,1","291,9","29,3","49,7","0","0"],
    [29674,"2017-06-19T20:00:00","28","5","ND","4,7","287,6","28,8","50,6","0","0"],
    [29675,"2017-06-19T21:00:00","47","13","ND","2,8","73,9","27,4","60","0","0"],
    [29676,"2017-06-19T22:00:00","53","15","ND","2","69,5","26","67,3","0","0"],
    [29677,"2017-06-19T23:00:00","46","11","ND","1,6","73,5","25,7","67,6","0","0"],
    [29678,"2017-06-20T00:00:00","31","5","ND","1,8","339,4","25,4","67,9","0","0"],
    [29679,"2017-06-20T01:00:00","28","4","ND","0,8","241,6","25,3","68","0","0"],
    [29680,"2017-06-20T02:00:00","46","7","ND","1,2","151,2","24,6","72,4","0","0"],
    [29681,"2017-06-20T03:00:00","50","7","ND","1,6","182","24,4","74,4","0","0"],
    [29682,"2017-06-20T04:00:00","53","12","ND","0,9","116","24,4","74,9","0","0"],
    [29683,"2017-06-20T05:00:00","73","18","ND","2,2","104,7","24","75,6","0","0"],
    [29684,"2017-06-20T06:00:00","88","25","ND","1","83,4","23,9","75,1","0","0"],
    [29685,"2017-06-20T07:00:00","107","38","ND","2,3","74,9","24","74,5","10,2","0"],
    [29686,"2017-06-20T08:00:00","86","18","ND","2","107,1","25,2","71,4","79,3","0"],
    [29687,"2017-06-20T09:00:00","71","21","ND","3,2","86,8","27,2","65,7","167,9","0"],
    [29688,"2017-06-20T10:00:00","56","14","ND","3","118,8","29,2","54,1","226,3","0"],
    [29689,"2017-06-20T11:00:00","42","11","ND","1,3","168,6","30,8","49,8","285","0"],
    [29690,"2017-06-20T12:00:00","50","9","ND","1,9","151,5","32,6","43,6","338,9","0"],
    [29691,"2017-06-20T13:00:00","49","6","ND","2,4","78","34","39,3","408,9","0"],
    [29692,"2017-06-20T14:00:00","53","16","ND","3,3","66,2","34,5","37,8","364,3","0"],
    [29693,"2017-06-20T15:00:00","49","15","ND","4,3","47,8","34,5","37,7","276,9","0"],
    [29694,"2017-06-20T16:00:00","45","8","ND","4,6","68","33,4","40,1","84,3","0"],
    [29695,"2017-06-20T17:00:00","39","4","ND","6,3","296,4","31,1","43,1","28,2","0"],
    [29696,"2017-06-20T18:00:00","38","2","ND","5,3","311,7","30","45,7","10,2","0"],
    [29697,"2017-06-20T19:00:00","69","4","ND","5,7","190,1","27,6","51,9","0","0,25"],
    [29698,"2017-06-20T20:00:00","30","1","ND","5,3","246,7","23,7","74,3","0","6,86"],
    [29699,"2017-06-20T21:00:00","25","3","ND","2","120,6","23,4","80","0","2,03"],
    [29700,"2017-06-20T22:00:00","34","13","ND","2","175,8","23,2","80,4","0","6,35"],
    [29701,"2017-06-20T23:00:00","27","7","ND","1,1","82","23","80,8","0","0,51"],
    [29702,"2017-06-21T00:00:00","21","2","ND","1,4","114,5","23,2","79,7","0","6,6"],
    [29703,"2017-06-21T01:00:00","16","ND","ND","2","88,6","22,8","82","0","0,25"],
    [29704,"2017-06-21T02:00:00","22","ND","ND","1,6","84,6","23,1","79,9","0","0"],
    [29705,"2017-06-21T03:00:00","23","3","ND","1,6","110","23,2","79,4","0","0"],
    [29706,"2017-06-21T04:00:00","18","2","ND","1,8","206,3","23,2","78,9","0","0"],
    [29707,"2017-06-21T05:00:00","29","1","ND","2,5","205,5","23,2","78,4","0","0"],
    [29708,"2017-06-21T06:00:00","57","18","ND","2,2","108,7","23,3","78,7","0","0"],
    [29709,"2017-06-21T07:00:00","68","22","ND","2,1","82,7","23,2","79,6","13,4","0"],
    [29710,"2017-06-21T08:00:00","66","20","ND","2,9","83,7","24,2","76,2","92,3","0"],
    [29711,"2017-06-21T09:00:00","80","20","ND","3,2","104,3","25,1","72","127,5","0"],
    [29712,"2017-06-21T10:00:00","62","20","ND","2,7","90,1","26,9","63","216,7","0"],
    [29713,"2017-06-21T11:00:00","50","19","ND","2,3","47,4","28,5","56,7","238,8","0"],
    [29714,"2017-06-21T12:00:00","57","13","ND","3,3","61,2","29,5","51,8","316","0"],
    [29715,"2017-06-21T13:00:00","28","9","ND","3,2","43,2","30,9","47,2","372,1","0"],
    [29716,"2017-06-21T14:00:00","34","9","ND","3,5","27,7","32,2","42,8","412,5","0"],
    [29717,"2017-06-21T15:00:00","29","9","ND","2,5","30,9","32,2","42,2","268,3","0"],
    [29718,"2017-06-21T16:00:00","50","15","ND","2","56,4","31,5","44,1","98,5","0"],
    [29719,"2017-06-21T17:00:00","35","10","ND","1,2","343","30,4","47,2","23,1","0"],
    [29720,"2017-06-21T18:00:00","65","19","ND","1,6","320,8","29,8","49,7","13,5","0"],
    [29721,"2017-06-21T19:00:00","46","10","ND","2","283,1","29","51,5","0","0"],
    [29722,"2017-06-21T20:00:00","86","18","ND","2","132,8","28","58,2","0","0"],
    [29723,"2017-06-21T21:00:00","93","27","ND","3","106,8","27","65,4","0","0"],
    [29724,"2017-06-21T22:00:00","58","6","ND","1,1","84,6","26,2","65,7","0","0"],
    [29725,"2017-06-21T23:00:00","58","6","ND","1,6","333,4","25,8","67,2","0","0"],
    [29726,"2017-06-22T00:00:00","64","21","ND","0,7","207,4","25,9","66,8","0","0"],
    [29727,"2017-06-22T01:00:00","64","20","ND","1,8","147,8","24,8","75,2","0","0"],
    [29728,"2017-06-22T02:00:00","55","16","ND","1,5","156,6","24,3","75,5","0","0"],
    [29729,"2017-06-22T03:00:00","48","10","ND","1,1","190,9","24,2","75,8","0","0"],
    [29730,"2017-06-22T04:00:00","51","9","ND","1,2","152,8","24,2","76,3","0","0"],
    [29731,"2017-06-22T05:00:00","54","9","ND","1,8","144,5","24,1","76,1","0","0"],
    [29732,"2017-06-22T06:00:00","69","10","ND","1,7","114,2","23,4","77,8","0","0"],
    [29733,"2017-06-22T07:00:00","73","15","ND","1,7","181,1","24,1","74,8","15","0"],
    [29734,"2017-06-22T08:00:00","86","20","ND","1,5","139,8","25,1","69,8","44,4","0"],
    [29735,"2017-06-22T09:00:00","56","12","ND","0,8","163,1","26,9","63,2","151","0"],
    [29736,"2017-06-22T10:00:00","65","11","ND","2,2","113,8","28,6","55,4","149,9","0"],
    [29737,"2017-06-22T11:00:00","68","11","ND","3,5","88,6","28,4","57,7","118","0"],
    [29738,"2017-06-22T12:00:00","65","24","ND","2,3","92","29,1","55,6","118,4","0"],
    [29739,"2017-06-22T13:00:00","64","12","ND","3,2","107,5","29,8","53,4","174,9","0"],
    [29740,"2017-06-22T14:00:00","65","15","ND","4,1","110,3","30,6","50,8","162,7","0"],
    [29741,"2017-06-22T15:00:00","64","12","ND","3,3","102,8","31,6","48,2","231,1","0"],
    [29742,"2017-06-22T16:00:00","37","7","ND","3,6","286,1","31,2","47,1","171,2","0"],
    [29743,"2017-06-22T17:00:00","39","3","ND","1,9","241,2","31,3","45,2","94,8","0"],
    [29744,"2017-06-22T18:00:00","26","1","ND","3,8","292,9","30,3","43,6","18,7","0"],
    [29745,"2017-06-22T19:00:00","39","4","ND","3,5","285,8","29,1","46,7","0","0"],
    [29746,"2017-06-22T20:00:00","62","11","ND","3","82,2","27,7","55,8","0","0"],
    [29747,"2017-06-22T21:00:00","49","6","ND","3,1","64,8","26","65,2","0","0"],
    [29748,"2017-06-22T22:00:00","44","7","ND","1,4","30,4","26,3","62,3","0","0"],
    [29749,"2017-06-22T23:00:00","57","12","ND","1,5","141,2","26,1","65,1","0","0"],
    [29750,"2017-06-23T00:00:00","45","7","ND","3,3","204,8","25,2","71,8","0","0"],
    [29751,"2017-06-23T01:00:00","27","5","ND","2,4","158","25","71","0","0"],
    [29752,"2017-06-23T02:00:00","26","4","ND","1,3","176,8","24,5","73","0","0"],
    [29753,"2017-06-23T03:00:00","36","3","ND","1,1","166,2","24,4","74,9","0","0"],
    [29754,"2017-06-23T04:00:00","38","4","ND","1,3","108,9","24,5","75","0","0"],
    [29755,"2017-06-23T05:00:00","59","7","ND","2,5","100,3","24,1","77,5","0","0"],
    [29756,"2017-06-23T06:00:00","69","12","ND","1,2","140,8","23,7","78,2","0","0"],
    [29757,"2017-06-23T07:00:00","60","9","ND","1,8","184,2","23,9","76,8","4","0"],
    [29758,"2017-06-23T08:00:00","66","10","ND","1","210","25,1","73,4","53,1","0"],
    [29759,"2017-06-23T09:00:00","73","18","ND","1,8","130,7","26,9","64,6","102,7","0"],
    [29760,"2017-06-23T10:00:00","56","9","ND","1,9","34,2","28,6","57,6","238,5","0"],
    [29761,"2017-06-23T11:00:00","66","16","ND","2,7","17,4","29,6","54,6","248,8","0"],
    [29762,"2017-06-23T12:00:00","53","19","ND","2,8","50,4","31,8","46,4","408,6","0"],
    [29763,"2017-06-23T13:00:00","45","8","ND","2,7","47,5","32,6","41,5","402,4","0"],
    [29764,"2017-06-23T14:00:00","30","6","ND","3,2","27","33,3","40,2","395,5","0"],
    [29765,"2017-06-23T15:00:00","37","10","ND","4,1","51,9","32,9","40,6","203,8","0"],
    [29766,"2017-06-23T16:00:00","51","7","ND","4","41,2","33,6","39,3","225,4","0"],
    [29767,"2017-06-23T17:00:00","37","3","ND","5,2","7,7","32,6","42,5","123,3","0"],
    [29768,"2017-06-23T18:00:00","51","12","ND","4","18,1","31,9","44,8","37,6","0"],
    [29769,"2017-06-23T19:00:00","50","10","ND","3,1","302,7","30,3","45,6","0","0"],
    [29770,"2017-06-23T20:00:00","94","19","ND","2,5","21,4","29,1","50,7","0","0"],
    [29771,"2017-06-23T21:00:00","62","8","ND","3","79,3","27,2","61,7","0","0"],
    [29772,"2017-06-23T22:00:00","55","10","ND","2,8","79,9","26,2","65,5","0","0"],
    [29773,"2017-06-23T23:00:00","57","8","ND","2,2","58,6","25,5","67,1","0","0"],
    [29774,"2017-06-24T00:00:00","65","9","ND","1,9","60,5","25,3","67,9","0","0"],
    [29775,"2017-06-24T01:00:00","36","10","ND","0,5","310,8","25","68,9","0","0"],
    [29776,"2017-06-24T02:00:00","61","9","ND","1,6","138,7","24,7","70,3","0","0"],
    [29777,"2017-06-24T03:00:00","48","12","ND","1,4","143,6","24,3","71,8","0","0"],
    [29778,"2017-06-24T04:00:00","61","16","ND","0,5","186,8","23,9","73,1","0","0"],
    [29779,"2017-06-24T05:00:00","69","21","ND","1,3","91,4","23,8","72,9","0","0"],
    [29780,"2017-06-24T06:00:00","119","37","ND","1","338,4","23,3","75","0","0"],
    [29781,"2017-06-24T07:00:00","132","39","ND","2,8","77,5","23","75,7","14,1","0"],
    [29782,"2017-06-24T08:00:00","103","32","ND","2,5","91","23,9","74,8","49,8","0"],
    [29783,"2017-06-24T09:00:00","114","25","ND","1,9","88,2","26,8","64,6","171,3","0"],
    [29784,"2017-06-24T10:00:00","81","17","ND","1,9","116,2","29,6","55,2","275,7","0"],
    [29785,"2017-06-24T11:00:00","80","25","ND","1","199,5","31,9","47,8","298,2","0"],
    [29786,"2017-06-24T12:00:00","84","27","ND","2,4","109,3","32,6","44,1","356,3","0"],
    [29787,"2017-06-24T13:00:00","69","22","ND","2,4","107,5","33,8","39,3","344,6","0"],
    [29788,"2017-06-24T14:00:00","69","20","ND","2,8","87,2","35","37,1","347,3","0"],
    [29789,"2017-06-24T15:00:00","65","18","ND","4","25,4","34,7","38,4","245,5","0"],
    [29790,"2017-06-24T16:00:00","48","5","ND","4,6","20,9","34,6","38,2","177,1","0"],
    [29791,"2017-06-24T17:00:00","41","6","ND","4,7","359,1","33,8","38","115,4","0"],
    [29792,"2017-06-24T18:00:00","35","4","ND","5,6","309,7","32,3","41,1","42,3","0"],
    [29793,"2017-06-24T19:00:00","42","ND","ND","3,5","274,3","30,3","47,3","0","0"],
    [29794,"2017-06-24T20:00:00","73","11","ND","3,6","181,8","27,5","58","0","0"],
    [29795,"2017-06-24T21:00:00","56","15","ND","3,8","170,1","26,6","64,3","0","0"],
    [29796,"2017-06-24T22:00:00","49","9","ND","3,4","189,4","25,7","67,8","0","0"],
    [29797,"2017-06-24T23:00:00","50","10","ND","1,5","272","25,2","70,1","0","0"],
    [29798,"2017-06-25T00:00:00","45","9","ND","2,8","278,4","25,6","66,8","0","0"],
    [29799,"2017-06-25T01:00:00","60","9","ND","0,9","61,6","25,9","66,4","0","0"],
    [29800,"2017-06-25T02:00:00","85","13","ND","1,8","140,2","24,4","73","0","0"],
    [29801,"2017-06-25T03:00:00","82","21","ND","1,9","217,8","24,7","72,5","0","0"],
    [29802,"2017-06-25T04:00:00","56","7","ND","2","185,3","24,5","73,1","0","0"],
    [29803,"2017-06-25T05:00:00","46","6","ND","2,3","140,6","24,5","73,6","0","0"],
    [29804,"2017-06-25T06:00:00","53","12","ND","2,4","227,6","24","76,7","0","0,51"],
    [29805,"2017-06-25T07:00:00","48","10","ND","2","224","24,5","74,5","6,6","0"],
    [29806,"2017-06-25T08:00:00","70","22","ND","0,1","137,6","25,6","70,7","34,7","0,51"],
    [29807,"2017-06-25T09:00:00","48","18","ND","3","115,7","26,1","70","75,4","0"],
    [29808,"2017-06-25T10:00:00","38","14","ND","2,7","137,6","27,2","66,9","187,4","0,25"],
    [29809,"2017-06-25T11:00:00","39","12","ND","1,5","134,8","29","58,8","206","0"],
    [29810,"2017-06-25T12:00:00","38","12","ND","2","64,8","30,5","52,2","278,9","0"],
    [29811,"2017-06-25T13:00:00","31","8","ND","2,7","40,9","31,6","47,1","298,7","0"],
    [29812,"2017-06-25T14:00:00","54","17","ND","4,3","80","31,7","46,9","209,2","0"],
    [29813,"2017-06-25T15:00:00","55","17","ND","4,3","78","32,1","45,4","196,2","0"],
    [29814,"2017-06-25T16:00:00","45","15","ND","5,2","74,1","32,1","46,3","167,3","0"],
    [29815,"2017-06-25T17:00:00","37","8","ND","4,2","73,6","32,4","43,6","122,6","0"],
    [29816,"2017-06-25T18:00:00","54","5","ND","2,5","109,1","31,3","45,5","11,2","0"],
    [29817,"2017-06-25T19:00:00","43","6","ND","1","268,4","30","48,7","0","0"],
    [29818,"2017-06-25T20:00:00","67","11","ND","1,8","239,2","28,7","55","0","0"],
    [29819,"2017-06-25T21:00:00","87","21","ND","1,9","135,3","27,8","60,7","0","0"],
    [29820,"2017-06-25T22:00:00","73","14","ND","2,1","106,6","26,9","61,9","0","0"],
    [29821,"2017-06-25T23:00:00","68","13","ND","1,9","133,8","26","66,2","0","0"],
    [29822,"2017-06-26T00:00:00","67","15","ND","1,5","109,5","25,5","67,5","0","0"],
    [29823,"2017-06-26T01:00:00","64","15","ND","2","164,3","25,8","66,9","0","0"],
    [29824,"2017-06-26T02:00:00","48","8","ND","1,7","162,4","25,6","68,6","0","0"],
    [29825,"2017-06-26T03:00:00","39","4","ND","1,2","127,8","25,4","70,8","0","0"],
    [29826,"2017-06-26T04:00:00","59","3","ND","3,1","97,3","24,4","75,1","0","0"],
    [29827,"2017-06-26T05:00:00","31","10","ND","1,4","118,7","24,1","75,5","0","0"],
    [29828,"2017-06-26T06:00:00","46","10","ND","0,8","146","23,8","76,7","0","0"],
    [29829,"2017-06-26T07:00:00","62","12","ND","1,4","136,8","24","75,2","11,9","0"],
    [29830,"2017-06-26T08:00:00","55","10","ND","1,5","92,8","25","72,2","52,5","0"],
    [29831,"2017-06-26T09:00:00","55","7","ND","1,8","166,9","27","65,5","131","0"],
    [29832,"2017-06-26T10:00:00","54","9","ND","2,3","133,4","29,5","54,2","298,2","0"],
    [29833,"2017-06-26T11:00:00","47","8","ND","3,4","101,5","30,6","49,3","334,8","0"],
    [29834,"2017-06-26T12:00:00","43","15","ND","2,8","106,9","31,9","43,8","351,7","0"],
    [29835,"2017-06-26T13:00:00","42","9","ND","2,5","67","33,4","38,8","390,4","0"],
    [29836,"2017-06-26T14:00:00","46","12","ND","3,4","91,3","33,4","38,5","289","0"],
    [29837,"2017-06-26T15:00:00","41","10","ND","5,4","99","32,8","40,1","169,6","0"],
    [29838,"2017-06-26T16:00:00","44","7","ND","2,5","108,3","32,4","41,7","115,7","0"],
    [29839,"2017-06-26T17:00:00","27","4","ND","6,7","283,5","32,7","39,1","174","0"],
    [29840,"2017-06-26T18:00:00","34","2","ND","3,2","311,9","31,9","40,1","28,9","0"],
    [29841,"2017-06-26T19:00:00","27","4","ND","4,6","294,8","30,4","43,7","0","0"],
    [29842,"2017-06-26T20:00:00","41","3","ND","2,1","343,2","29,5","47,9","0","0"],
    [29843,"2017-06-26T21:00:00","57","4","ND","3,6","58,7","27,9","56,7","0","0"],
    [29844,"2017-06-26T22:00:00","70","8","ND","2,6","81,8","27,3","59,2","0","0"],
    [29845,"2017-06-26T23:00:00","42","2","ND","1,8","86,4","26,5","62,7","0","0"],
    [29846,"2017-06-27T00:00:00","56","5","ND","3","199,6","26,1","66,2","0","0"],
    [29847,"2017-06-27T01:00:00","33","7","ND","3,1","187,4","25,4","68,5","0","0"],
    [29848,"2017-06-27T02:00:00","32","3","ND","1,8","175,7","24,2","75,6","0","12,7"],
    [29849,"2017-06-27T03:00:00","31","ND","ND","4,1","219,2","23,4","82,1","0","3,81"],
    [29850,"2017-06-27T04:00:00","20","5","ND","3,1","165,7","23,5","81,9","0","10,41"],
    [29851,"2017-06-27T05:00:00","19","5","ND","2,4","109,9","23,3","82,7","0","11,94"],
    [29852,"2017-06-27T06:00:00","30","16","ND","1,9","105,8","22,9","82,8","0","9,91"],
    [29853,"2017-06-27T07:00:00","34","10","ND","1,4","210,1","23,4","79,7","18,3","0"],
    [29854,"2017-06-27T08:00:00","35","8","ND","2,5","167,5","24,3","76,6","42,2","0"],
    [29855,"2017-06-27T09:00:00","35","ND","ND","2,5","141,7","25,1","73,1","76,3","0"],
    [29856,"2017-06-27T10:00:00","ND","10","ND","1","148,9","26,9","63,4","137,6","0"],
    [29857,"2017-06-27T11:00:00","30","8","ND","2,1","92,5","28,3","57,9","231","0"],
    [29858,"2017-06-27T12:00:00","21","4","ND","1,4","48,7","30,1","50,9","326,6","0"],
    [29859,"2017-06-27T13:00:00","25","1","ND","2,5","41,7","31,9","44,7","446,6","0"],
    [29860,"2017-06-27T14:00:00","27","5","ND","4,1","67,1","32,3","42,3","411,9","0"],
    [29861,"2017-06-27T15:00:00","27","13","ND","3,7","32,6","32,1","42,7","279,5","0"],
    [29862,"2017-06-27T16:00:00","27","7","ND","4,5","15,9","31,4","45,6","145,6","0"],
    [29863,"2017-06-27T17:00:00","35","7","ND","4,3","32,5","30,7","48,4","83,6","0"],
    [29864,"2017-06-27T18:00:00","37","8","ND","3,6","46,4","30,4","45,7","23,6","0"],
    [29865,"2017-06-27T19:00:00","59","15","ND","2,5","349,6","29,2","49,3","0","0"],
    [29866,"2017-06-27T20:00:00","71","21","ND","2,1","3,5","28,7","54,6","0","0"],
    [29867,"2017-06-27T21:00:00","57","14","ND","1,7","55,5","28","58,2","0","0"],
    [29868,"2017-06-27T22:00:00","76","21","ND","2,3","96,7","27,4","61,5","0","0"],
    [29869,"2017-06-27T23:00:00","69","30","ND","0,8","105,5","26,5","65,8","0","0"],
    [29870,"2017-06-28T00:00:00","57","14","ND","0,8","220,3","25,3","73,6","0","0"],
    [29871,"2017-06-28T01:00:00","47","22","ND","0,7","296,2","25,3","73","0","0"],
    [29872,"2017-06-28T02:00:00","70","21","ND","2,6","118,5","24,6","75,1","0","0"],
    [29873,"2017-06-28T03:00:00","71","22","ND","1,4","157,8","24,5","73,5","0","0"],
    [29874,"2017-06-28T04:00:00","41","17","ND","1,1","153,8","24,2","75,8","0","0"],
    [29875,"2017-06-28T05:00:00","71","24","ND","2,1","89,2","24,1","75","0","0"],
    [29876,"2017-06-28T06:00:00","95","22","ND","2,1","89,9","23,5","76,4","0","0"],
    [29877,"2017-06-28T07:00:00","48","14","ND","0,5","283,7","24","74,4","5,1","0"],
    [29878,"2017-06-28T08:00:00","100","30","ND","1,6","56,8","24,7","72,1","24,3","0"],
    [29879,"2017-06-28T09:00:00","75","12","ND","2,4","91,2","25","71,4","43,3","0"],
    [29880,"2017-06-28T10:00:00","70","20","ND","3,1","97","25,7","71,2","148","0"],
    [29881,"2017-06-28T11:00:00","71","24","ND","2,8","70,4","28,4","59,4","256,5","0"],
    [29882,"2017-06-28T12:00:00","72","17","ND","3,3","76","29,4","55,2","228,2","0"],
    [29883,"2017-06-28T13:00:00","50","20","ND","3,6","73,6","30,9","50,4","315,1","0"],
    [29884,"2017-06-28T14:00:00","36","9","ND","2,6","59,7","31,7","46,7","266,4","0"],
    [29885,"2017-06-28T15:00:00","36","9","ND","3,5","95,7","31,8","45,6","133,1","0"],
    [29886,"2017-06-28T16:00:00","36","13","ND","2","95,9","31,9","45,1","135,4","0"],
    [29887,"2017-06-28T17:00:00","32","8","ND","6,2","270,2","28,3","58,1","14,1","0,76"],
    [29888,"2017-06-28T18:00:00","23","2","ND","4,2","274,9","27,7","60,4","11,2","0"],
    [29889,"2017-06-28T19:00:00","35","1","ND","2,9","277,3","27,8","56,9","0","0"],
    [29890,"2017-06-28T20:00:00","70","21","ND","0,7","341,3","27,5","58","0","0"],
    [29891,"2017-06-28T21:00:00","67","16","ND","2,6","87,6","26,6","64,2","0","0"],
    [29892,"2017-06-28T22:00:00","67","21","ND","1,9","59,8","25,7","66,9","0","0"],
    [29893,"2017-06-28T23:00:00","61","16","ND","2,1","20,4","25,3","67,3","0","0"],
    [29894,"2017-06-29T00:00:00","42","7","ND","0,6","327,8","25,3","66,8","0","0"],
    [29895,"2017-06-29T01:00:00","52","6","ND","2,4","98,3","25,1","69,3","0","0"],
    [29896,"2017-06-29T02:00:00","48","3","ND","1,8","121,2","24,6","69,9","0","0"],
    [29897,"2017-06-29T03:00:00","54","11","ND","1,2","135,6","24,4","70,9","0","0"],
    [29898,"2017-06-29T04:00:00","47","12","ND","0,6","19,3","24,5","71,5","0","0"],
    [29899,"2017-06-29T05:00:00","57","21","ND","0,6","88,6","24,5","71,6","0","0"],
    [29900,"2017-06-29T06:00:00","74","31","ND","1,3","94,9","24,4","70,7","0","0"],
    [29901,"2017-06-29T07:00:00","95","25","ND","2","94,4","24,7","70,4","4,3","0"],
    [29902,"2017-06-29T08:00:00","79","26","ND","2,1","123,5","25,3","69,7","58,4","0"],
    [29903,"2017-06-29T09:00:00","38","11","ND","2,4","175,7","27,3","62,5","156,9","0"],
    [29904,"2017-06-29T10:00:00","46","9","ND","1,9","194,3","29,1","55,5","249,5","0"],
    [29905,"2017-06-29T11:00:00","40","9","ND","2,7","94,5","30,4","48,8","304,9","0"],
    [29906,"2017-06-29T12:00:00","51","21","ND","2,7","99,2","32","45,6","389,1","0"],
    [29907,"2017-06-29T13:00:00","48","19","ND","3,1","94,2","33","42","328,7","0"],
    [29908,"2017-06-29T14:00:00","62","22","ND","3,9","96,5","33,2","41,2","299,6","0"],
    [29909,"2017-06-29T15:00:00","80","29","ND","3,8","110,3","33,1","42,7","147,5","0"],
    [29910,"2017-06-29T16:00:00","80","22","ND","3,3","77,6","33","42,9","100,7","0"],
    [29911,"2017-06-29T17:00:00","93","34","ND","1,3","31","31,9","45,3","12","0"],
    [29912,"2017-06-29T18:00:00","40","3","ND","5,3","280,2","29,9","48,8","0","0"],
    [29913,"2017-06-29T19:00:00","29","4","ND","5,8","293,6","28,7","53,6","0","0"],
    [29914,"2017-06-29T20:00:00","52","12","ND","3,5","88,2","28","58,3","0","0"],
    [29915,"2017-06-29T21:00:00","79","20","ND","2,6","65,3","27,5","59,4","0","0"],
    [29916,"2017-06-29T22:00:00","47","ND","ND","3,5","95,9","26,8","62,6","0","0"],
    [29917,"2017-06-29T23:00:00","38","3","ND","2,5","69,9","26,5","61,9","0","0"],
    [29918,"2017-06-30T00:00:00","23","4","ND","1,2","129,1","26,7","60,7","0","0"],
    [29919,"2017-06-30T01:00:00","23","2","ND","1,9","144,7","26,2","64,7","0","0"],
    [29920,"2017-06-30T02:00:00","32","5","ND","1,9","93,8","25,4","67,8","0","1,52"],
    [29921,"2017-06-30T03:00:00","45","7","ND","2,4","339,6","24,3","75,7","0","4,06"],
    [29922,"2017-06-30T04:00:00","51","10","ND","2,1","74,9","24,5","74,8","0","0"],
    [29923,"2017-06-30T05:00:00","40","9","ND","0,9","309,7","24,2","75,4","0","22,1"],
    [29924,"2017-06-30T06:00:00","19","8","ND","4,3","250,8","23,5","79,9","0","1,52"],
    [29925,"2017-06-30T07:00:00","20","5","ND","3,2","261,5","24,1","77,4","11,2","0"],
    [29926,"2017-06-30T08:00:00","42","9","ND","1,1","110,3","25,4","71,8","62,6","0"],
    [29927,"2017-06-30T09:00:00","47","14","ND","0,6","242,3","27,3","64,5","152,6","0"],
    [29928,"2017-06-30T10:00:00","19","14","ND","1,9","240,3","29","56","212,1","0"],
    [29929,"2017-06-30T11:00:00","43","11","ND","2","105,8","30,3","50,6","306,3","0"],
    [29930,"2017-06-30T12:00:00","68","14","ND","2,6","76,1","32,1","44,5","368,4","0"],
    [29931,"2017-06-30T13:00:00","37","10","ND","2","55,6","33","41,3","358,7","0"],
    [29932,"2017-06-30T14:00:00","28","7","ND","1,7","83,7","33,9","37,5","346,5","0"],
    [29933,"2017-06-30T15:00:00","29","7","ND","3,3","92,9","34,3","35,8","310,8","0"],
    [29934,"2017-06-30T16:00:00","ND","ND","ND","3,3","88,6","34,4","35,6","242,2","0"],
    [29935,"2017-06-30T17:00:00","ND","ND","ND","3","99,5","34,4","35,2","130","0"],
    [29936,"2017-06-30T18:00:00","60","16","ND","2,8","92,3","33,7","36,8","42,9","0"],
    [29937,"2017-06-30T19:00:00","110","25","ND","2,9","100,6","31,5","47,5","0","0"],
    [29938,"2017-06-30T20:00:00","101","26","ND","2,5","266,3","30,2","50,4","0","0"],
    [29939,"2017-06-30T21:00:00","88","17","ND","4","271,3","29,4","50,6","0","0"],
    [29940,"2017-06-30T22:00:00","65","13","ND","3,4","262,4","29","53,2","0","0"],
    [29941,"2017-06-30T23:00:00","88","28","ND","1,4","50,8","27,7","61,3","0","0"],
    [29942,"2017-07-01T00:00:00","71","6","ND","2","81,2","26,5","68,5","0","0"],
    [29943,"2017-07-01T01:00:00","76","20","ND","2,1","201","26,4","69,1","0","0"],
    [29944,"2017-07-01T02:00:00","90","23","ND","1,4","189,4","26","69,8","0","0"],
    [29945,"2017-07-01T03:00:00","87","23","ND","2,3","125,5","25,8","70,8","0","0"],
    [29946,"2017-07-01T04:00:00","88","19","ND","1,8","224,9","25,3","73,4","0","0"],
    [29947,"2017-07-01T05:00:00","99","24","ND","2","95,9","25,3","73","0","0"],
    [29948,"2017-07-01T06:00:00","78","21","ND","0,9","151","25","72,9","0","0"],
    [29949,"2017-07-01T07:00:00","92","30","ND","1,6","152,9","25","71,1","8,6","0"],
    [29950,"2017-07-01T08:00:00","135","29","ND","3,4","145,2","25,4","70,4","52,2","0"],
    [29951,"2017-07-01T09:00:00","86","19","ND","2","218,2","26,5","67","102,4","0"],
    [29952,"2017-07-01T10:00:00","81","20","ND","1","160,6","28,7","57,3","121,8","0"],
    [29953,"2017-07-01T11:00:00","74","20","ND","2,3","151,3","30","52,3","193","0"],
    [29954,"2017-07-01T12:00:00","67","17","ND","3,7","154,9","32,1","47","395,5","0"],
    [29955,"2017-07-01T13:00:00","67","15","ND","2,7","174,8","33,7","41,8","389,7","0"],
    [29956,"2017-07-01T14:00:00","69","17","ND","2,7","78,7","34,3","38,4","357,8","0"],
    [29957,"2017-07-01T15:00:00","56","11","ND","2,9","51,8","35,2","35,2","306,1","0"],
    [29958,"2017-07-01T16:00:00","68","10","ND","4","76,3","34,9","35,9","212,5","0"],
    [29959,"2017-07-01T17:00:00","52","12","ND","3,9","46","34,8","36,2","121,9","0"],
    [29960,"2017-07-01T18:00:00","56","11","ND","4,3","6,5","32,7","42,4","18,6","0"],
    [29961,"2017-07-01T19:00:00","45","6","ND","4,7","293,3","30,8","47,2","0","0"],
    [29962,"2017-07-01T20:00:00","39","2","ND","3,7","317,5","29,9","49,9","0","0"],
    [29963,"2017-07-01T21:00:00","68","18","ND","3,6","104,6","27,8","61,1","0","0"],
    [29964,"2017-07-01T22:00:00","57","8","ND","1,9","55","26,6","65,6","0","0"],
    [29965,"2017-07-01T23:00:00","48","5","ND","2,3","26,1","27,1","62,5","0","0"],
    [29966,"2017-07-02T00:00:00","59","6","ND","0,9","104,8","26,7","64,3","0","0"],
    [29967,"2017-07-02T01:00:00","38","5","ND","1,8","143","26,1","66,9","0","0"],
    [29968,"2017-07-02T02:00:00","50","10","ND","1,9","160,6","25,9","68,3","0","0"],
    [29969,"2017-07-02T03:00:00","58","7","ND","2,5","97,6","25,1","72,4","0","0"],
    [29970,"2017-07-02T04:00:00","69","9","ND","1,7","140,3","25,1","72,7","0","0"],
    [29971,"2017-07-02T05:00:00","62","14","ND","1,3","184,7","24,8","68,7","0","0"],
    [29972,"2017-07-02T06:00:00","55","8","ND","2,1","213,5","24,8","64,3","0","0"],
    [29973,"2017-07-02T07:00:00","71","17","ND","1,7","248,2","24,8","65,4","13","0"],
    [29974,"2017-07-02T08:00:00","85","30","ND","3,1","118,7","24,9","67,7","41,9","0"],
    [29975,"2017-07-02T09:00:00","75","17","ND","3,4","165,1","26,1","66,3","87,2","0"],
    [29976,"2017-07-02T10:00:00","74","15","ND","2,2","188,9","28,5","55,7","215,2","0"],
    [29977,"2017-07-02T11:00:00","61","14","ND","2,2","98","30,5","48,8","270,3","0"],
    [29978,"2017-07-02T12:00:00","40","9","ND","2,5","104","32,6","40,3","340,4","0"],
    [29979,"2017-07-02T13:00:00","33","5","ND","3,7","114,8","33,4","34,9","273,4","0"],
    [29980,"2017-07-02T14:00:00","34","3","ND","3,9","104","34,2","35,8","323,1","0"],
    [29981,"2017-07-02T15:00:00","35","6","ND","3,1","68,6","35,1","33","308,4","0"],
    [29982,"2017-07-02T16:00:00","47","13","ND","4,5","66,6","35,2","33,4","228","0"],
    [29983,"2017-07-02T17:00:00","74","13","ND","4,1","76,3","33,8","37,1","61,1","0"],
    [29984,"2017-07-02T18:00:00","48","8","ND","3,3","15,2","32,1","44","14,1","0"],
    [29985,"2017-07-02T19:00:00","53","5","ND","3,1","317,4","30,6","46,3","0","0"],
    [29986,"2017-07-02T20:00:00","56","14","ND","2,2","333,7","29,5","47,5","0","0"],
    [29987,"2017-07-02T21:00:00","63","17","ND","4,1","101,2","27,2","60,7","0","0"],
    [29988,"2017-07-02T22:00:00","39","2","ND","0,7","65,2","26,6","60,2","0","0"],
    [29989,"2017-07-02T23:00:00","71","7","ND","2,7","238,3","26,6","62,4","0","0"],
    [29990,"2017-07-03T00:00:00","86","19","ND","1,5","123,2","26,5","64,1","0","0"],
    [29991,"2017-07-03T01:00:00","60","6","ND","2","118,1","25,8","67,3","0","0"],
    [29992,"2017-07-03T02:00:00","48","8","ND","1,6","167,4","26","65,2","0","0"],
    [29993,"2017-07-03T03:00:00","44","6","ND","2,9","123","25,7","66,7","0","0"],
    [29994,"2017-07-03T04:00:00","67","8","ND","0,5","141,8","24,9","70,4","0","0"],
    [29995,"2017-07-03T05:00:00","100","25","ND","1,8","233,5","24,5","72,2","0","0"],
    [29996,"2017-07-03T06:00:00","98","16","ND","1,5","117,3","24,4","72,9","0","0"],
    [29997,"2017-07-03T07:00:00","95","17","ND","1,3","128,4","24,1","74,1","9,9","0"],
    [29998,"2017-07-03T08:00:00","69","17","ND","1,9","166,3","25,7","68,8","72,2","0"],
    [29999,"2017-07-03T09:00:00","63","12","ND","2,4","143,8","28,3","57,8","203","0"],
    [30000,"2017-07-03T10:00:00","54","9","ND","2,5","91,2","30,1","49,7","293","0"],
    [30001,"2017-07-03T11:00:00","51","7","ND","3,7","74,1","31","46,7","303,6","0"],
    [30002,"2017-07-03T12:00:00","48","5","ND","2,3","69,9","33,5","39","383,4","0"],
    [30003,"2017-07-03T13:00:00","55","18","ND","3,5","89,2","34,3","35,9","344","0"],
    [30004,"2017-07-03T14:00:00","50","14","ND","4,5","80,5","34,5","35,6","311,9","0"],
    [30005,"2017-07-03T15:00:00","37","8","ND","3,6","72,3","35,4","34","299,5","0"],
    [30006,"2017-07-03T16:00:00","49","10","ND","4,5","70,1","33,7","38,4","47,6","0"],
    [30007,"2017-07-03T17:00:00","37","6","ND","5,5","299,1","31,5","44,7","47,2","0"],
    [30008,"2017-07-03T18:00:00","57","2","ND","6,5","265,8","29,3","52,9","9,2","0"],
    [30009,"2017-07-03T19:00:00","37","4","ND","4,7","271,5","28,2","57","0","0"],
    [30010,"2017-07-03T20:00:00","32","ND","ND","3","299,2","29,1","52","0","0"],
    [30011,"2017-07-03T21:00:00","63","16","ND","2,3","60,4","28,1","58,3","0","0"],
    [30012,"2017-07-03T22:00:00","68","23","ND","1,7","22,7","27,1","61,6","0","0"],
    [30013,"2017-07-03T23:00:00","37","6","ND","1,6","353,9","27,1","60,4","0","0"],
    [30014,"2017-07-04T00:00:00","64","13","ND","3,2","191,5","26,2","67,2","0","0"],
    [30015,"2017-07-04T01:00:00","63","12","ND","2,5","219,1","25,6","70,3","0","0"],
    [30016,"2017-07-04T02:00:00","55","15","ND","1,4","141,8","25,8","68,7","0","0"],
    [30017,"2017-07-04T03:00:00","60","16","ND","1","136,5","25","73,1","0","0"],
    [30018,"2017-07-04T04:00:00","55","19","ND","1,3","160,9","25,3","71","0","0"],
    [30019,"2017-07-04T05:00:00","62","11","ND","2","159,8","24,9","72,8","0","0"],
    [30020,"2017-07-04T06:00:00","75","29","ND","1,8","138,2","24,4","75,2","0","0,25"],
    [30021,"2017-07-04T07:00:00","56","16","ND","0,1","59,8","24","77","13,9","1,27"],
    [30022,"2017-07-04T08:00:00","64","25","ND","2,6","110,8","24,5","75,9","27,7","0"],
    [30023,"2017-07-04T09:00:00","77","22","ND","2,2","200,4","26,3","70,1","158,2","0"],
    [30024,"2017-07-04T10:00:00","46","14","36,5","1,5","237,3","28,9","56,6","193,7","0"],
    [30025,"2017-07-04T11:00:00","63","18","63,2","1,8","100,4","30,8","49,1","287,3","0"],
    [30026,"2017-07-04T12:00:00","51","16","73,5","2,1","135,6","33","41,8","362,9","0"],
    [30027,"2017-07-04T13:00:00","47","18","79,3","2,5","65,6","33,4","39,8","350,5","0"],
    [30028,"2017-07-04T14:00:00","41","13","74,7","2,9","88,5","33,6","39,2","296,9","0"],
    [30029,"2017-07-04T15:00:00","52","15","87,4","3,6","97,5","34,1","37,6","290,8","0"],
    [30030,"2017-07-04T16:00:00","56","24","92,6","4,6","86","34","38,1","201,2","0"],
    [30031,"2017-07-04T17:00:00","69","19","84","3,7","82,8","33,2","40,3","61,7","0"],
    [30032,"2017-07-04T18:00:00","46","11","51,2","0,7","322,3","32,6","40,8","32,6","0"],
    [30033,"2017-07-04T19:00:00","45","6","28","5,2","296","30,3","45,1","0","0"],
    [30034,"2017-07-04T20:00:00","42","7","23,7","3,9","291,3","29,7","47,8","0","0"],
    [30035,"2017-07-04T21:00:00","58","8","16,5","4,1","91,1","27,3","60,7","0","0"],
    [30036,"2017-07-04T22:00:00","46","7","15,4","3,3","70,6","26,3","64,8","0","0"],
    [30037,"2017-07-04T23:00:00","40","7","16,3","2,8","63,6","26,3","63,4","0","0"],
    [30038,"2017-07-05T00:00:00","31","4","16,9","0,9","73,6","26,1","63,8","0","0"],
    [30039,"2017-07-05T01:00:00","26","ND","15,8","2,2","142,5","25,7","66,4","0","0"],
    [30040,"2017-07-05T02:00:00","30","12","14,7","1,9","161,2","25,3","68,4","0","0"],
    [30041,"2017-07-05T03:00:00","51","10","14,3","2","143,1","24,9","70,9","0","0"],
    [30042,"2017-07-05T04:00:00","29","6","15,4","2,6","178,7","24,9","68,6","0","0"],
    [30043,"2017-07-05T05:00:00","30","3","14,6","3","198,4","24,7","69","0","0"],
    [30044,"2017-07-05T06:00:00","59","18","14","2","156,1","24,7","69,8","0","0"],
    [30045,"2017-07-05T07:00:00","59","9","14","2,8","164,1","24,1","71","5,5","0"],
    [30046,"2017-07-05T08:00:00","77","16","15","2","153,9","24,2","69,7","49","0"],
    [30047,"2017-07-05T09:00:00","68","16","23,1","2,2","132,8","27,6","57,8","199,1","0"],
    [30048,"2017-07-05T10:00:00","71","35","52,1","1,9","160,2","30,2","47,4","289","0"],
    [30049,"2017-07-05T11:00:00","44","6","54","2,9","108,1","31,9","41,1","345,7","0"],
    [30050,"2017-07-05T12:00:00","43","7","62,4","1,8","98,9","33,6","37","390,9","0"],
    [30051,"2017-07-05T13:00:00","43","8","62,1","4,6","97,7","33,8","35,3","377,1","0"],
    [30052,"2017-07-05T14:00:00","44","7","64,7","4,2","73,5","34,4","34,5","296,7","0"],
    [30053,"2017-07-05T15:00:00","50","7","61,1","4,5","68,8","34,1","35","164,6","0"],
    [30054,"2017-07-05T16:00:00","58","10","63,5","4,4","87,7","34","35,6","175,5","0"],
    [30055,"2017-07-05T17:00:00","54","12","74,8","1,7","113,5","33,7","35,9","79,8","0"],
    [30056,"2017-07-05T18:00:00","48","10","62,9","4,7","287,6","31,8","42,4","22,9","0"],
    [30057,"2017-07-05T19:00:00","57","9","36","4","295,2","30,4","46,3","0","0"],
    [30058,"2017-07-05T20:00:00","65","19","26,9","4","300,9","29,5","50,1","0","0"],
    [30059,"2017-07-05T21:00:00","58","16","17,5","3,7","82,4","27,3","61,5","0","0"],
    [30060,"2017-07-05T22:00:00","42","5","17","2,8","90,8","26,6","64,2","0","0"],
    [30061,"2017-07-05T23:00:00","40","7","18","1,7","56,2","26,4","63,6","0","0"],
    [30062,"2017-07-06T00:00:00","49","8","16,2","1,2","218,7","26,3","64,3","0","0"],
    [30063,"2017-07-06T01:00:00","65","19","16","2,5","185,2","25,6","69,2","0","0"],
    [30064,"2017-07-06T02:00:00","52","8","14,4","1,5","176,6","24,8","71,3","0","0"],
    [30065,"2017-07-06T03:00:00","60","19","15,4","1,4","187,3","24,9","70,8","0","0"],
    [30066,"2017-07-06T04:00:00","70","21","14,8","1,9","155,5","24,2","73,8","0","0"],
    [30067,"2017-07-06T05:00:00","64","22","14,9","1,8","136,6","23,6","74,7","0","0"],
    [30068,"2017-07-06T06:00:00","72","16","14,3","1,6","187,7","23,6","73,4","0","0"],
    [30069,"2017-07-06T07:00:00","81","25","14,9","2,1","152,5","23,3","73,6","7","0"],
    [30070,"2017-07-06T08:00:00","75","26","16,4","1,6","146,8","24,5","69,1","59,9","0"],
    [30071,"2017-07-06T09:00:00","69","17","24,1","1,9","92,1","26,5","64","154","0"],
    [30072,"2017-07-06T10:00:00","87","30","56,8","0,4","192,2","29,6","51,8","251,8","0"],
    [30073,"2017-07-06T11:00:00","82","24","91,3","1,7","178,4","31,5","45,8","330,1","0"],
    [30074,"2017-07-06T12:00:00","67","22","107,7","2,7","170,1","33,2","40,7","371,5","0"],
    [30075,"2017-07-06T13:00:00","68","21","103,7","4,2","85","33,1","40,8","277,7","0"],
    [30076,"2017-07-06T14:00:00","70","22","107,6","2,9","79,3","33,8","38,9","249,5","0"],
    [30077,"2017-07-06T15:00:00","65","19","110,2","3","100,5","34,3","37,3","234,1","0"],
    [30078,"2017-07-06T16:00:00","64","22","119,5","3,2","100,1","34,5","37,3","171,7","0"],
    [30079,"2017-07-06T17:00:00","91","25","116,9","4,1","85,2","33,7","39,9","93,5","0"],
    [30080,"2017-07-06T18:00:00","68","18","94,1","1,6","320,2","32,9","41,2","33,8","0"],
    [30081,"2017-07-06T19:00:00","58","17","52,7","3,8","304,5","31,2","44,6","0","0"],
    [30082,"2017-07-06T20:00:00","98","27","26,5","2,9","319,5","30,3","48","0","0"],
    [30083,"2017-07-06T21:00:00","52","6","26,2","1,4","316,2","29,4","51,3","0","0"],
    [30084,"2017-07-06T22:00:00","50","12","20,5","2,9","78,4","28","60,1","0","0"],
    [30085,"2017-07-06T23:00:00","38","8","20,7","1,3","63,3","28","59,4","0","0"],
    [30086,"2017-07-07T00:00:00","58","16","22,4","2,8","195,1","27,6","61,4","0","0"],
    [30087,"2017-07-07T01:00:00","49","15","21,9","1,7","107,4","27,2","63,9","0","0"],
    [30088,"2017-07-07T02:00:00","51","13","20,1","0,9","209,5","26,6","66,4","0","0"],
    [30089,"2017-07-07T03:00:00","52","13","16,4","1,4","163,1","25,6","70,6","0","0"],
    [30090,"2017-07-07T04:00:00","64","10","16,2","1,9","101,2","25,4","71,4","0","0"],
    [30091,"2017-07-07T05:00:00","53","6","15,8","1,4","144,2","25,3","71,2","0","0"],
    [30092,"2017-07-07T06:00:00","90","18","16","1,8","160,5","25,1","70,7","0","0"],
    [30093,"2017-07-07T07:00:00","91","19","15,9","1,5","171,2","24,9","71,3","8,4","0"],
    [30094,"2017-07-07T08:00:00","106","29","17,6","2,1","135,2","25,8","68,5","50,4","0"],
    [30095,"2017-07-07T09:00:00","78","19","23,5","2,6","134,8","26,8","64,8","97","0"],
    [30096,"2017-07-07T10:00:00","73","15","41,2","2,6","193,4","29,7","51,8","237,2","0"],
    [30097,"2017-07-07T11:00:00","59","12","66,7","0,4","44","31,6","45,6","341,2","0"],
    [30098,"2017-07-07T12:00:00","46","7","68,7","3,3","72,8","33","41,8","348","0"],
    [30099,"2017-07-07T13:00:00","51","7","69,7","3,7","68,7","33,3","40,9","271","0"],
    [30100,"2017-07-07T14:00:00","56","12","87,6","3,7","84,1","33,5","40,4","194,4","0"],
    [30101,"2017-07-07T15:00:00","68","16","77,6","4,6","67,6","33,5","41,4","139,7","0"],
    [30102,"2017-07-07T16:00:00","61","11","62,6","3,6","55,9","33,1","42,5","69,4","0"],
    [30103,"2017-07-07T17:00:00","47","5","62,8","3,4","288,6","32,6","41,1","80,6","0"],
    [30104,"2017-07-07T18:00:00","56","8","49,3","4,7","288,8","31,8","41,8","35,6","0"],
    [30105,"2017-07-07T19:00:00","49","6","30,9","5,2","286","30,4","46,1","0","0"],
    [30106,"2017-07-07T20:00:00","44","7","25,3","4,5","285,4","29,7","48","0","0"],
    [30107,"2017-07-07T21:00:00","87","24","19,8","1,4","47,5","29,1","52,3","0","0"],
    [30108,"2017-07-07T22:00:00","56","8","18,9","2,6","101,7","27,5","61,9","0","0"],
    [30109,"2017-07-07T23:00:00","47","21","19,4","2,1","72,5","27,4","61,1","0","0"],
    [30110,"2017-07-08T00:00:00","38","9","20,8","2,2","97,7","27,2","61,4","0","0"],
    [30111,"2017-07-08T01:00:00","40","9","21,9","1,9","48,8","26,5","64,7","0","0"],
    [30112,"2017-07-08T02:00:00","62","26","23,7","1,8","48,2","26,6","63,6","0","0"],
    [30113,"2017-07-08T03:00:00","31","11","21,3","1,8","104,9","26","66,9","0","0"],
    [30114,"2017-07-08T04:00:00","43","11","19","2,4","180,9","25,8","68,6","0","0"],
    [30115,"2017-07-08T05:00:00","56","18","19,3","2,1","215,6","25,3","70,1","0","0"],
    [30116,"2017-07-08T06:00:00","60","7","19","1,7","186,1","25","68,6","0","0"],
    [30117,"2017-07-08T07:00:00","80","17","19,4","1,8","201,3","25","67,4","12,1","0"],
    [30118,"2017-07-08T08:00:00","72","13","23","1,5","108,8","26,9","61,4","79,4","0"],
    [30119,"2017-07-08T09:00:00","71","14","29,4","3,5","113,5","27,9","59,2","166,8","0"],
    [30120,"2017-07-08T10:00:00","62","9","43,5","3,4","147,6","30,2","51,3","263,3","0"],
    [30121,"2017-07-08T11:00:00","58","12","65,7","2,1","79,9","31,4","46,5","302","0"],
    [30122,"2017-07-08T12:00:00","77","18","82,2","3,3","89,3","32,8","42,7","290","0"],
    [30123,"2017-07-08T13:00:00","60","17","77,5","4,5","91","31,9","44,5","176,7","0"],
    [30124,"2017-07-08T14:00:00","72","21","100,7","3,2","117,7","32,7","43,7","176","0"],
    [30125,"2017-07-08T15:00:00","62","18","99,2","2,8","89,6","32,8","43,7","137,2","0"],
    [30126,"2017-07-08T16:00:00","76","16","95,5","1,2","58,7","33","42,3","110,3","0"],
    [30127,"2017-07-08T17:00:00","65","14","66,3","4,7","272,6","29,8","52,7","8,7","0"],
    [30128,"2017-07-08T18:00:00","30","9","37,5","4","282,7","27,6","60,5","11,5","0"],
    [30129,"2017-07-08T19:00:00","47","10","21,3","3,1","283,8","27,9","58,7","0","0"],
    [30130,"2017-07-08T20:00:00","43","8","20,9","2,2","292,3","27,8","57,3","0","0"],
    [30131,"2017-07-08T21:00:00","76","18","21,6","2,9","108,2","27,7","58,6","0","0"],
    [30132,"2017-07-08T22:00:00","58","19","20,9","0,4","247,4","27,1","61,3","0","0"],
    [30133,"2017-07-08T23:00:00","71","14","21,3","1,3","82,1","26,8","63,2","0","0"],
    [30134,"2017-07-09T00:00:00","72","22","21,1","0,4","106,3","26,4","65,1","0","0"],
    [30135,"2017-07-09T01:00:00","77","27","22,3","1,4","139,8","25,8","68,6","0","0"],
    [30136,"2017-07-09T02:00:00","78","21","ND","3,2","116,9","25,3","70,3","0","0"],
    [30137,"2017-07-09T03:00:00","63","18","ND","2,6","187,8","24,6","72,7","0","0"],
    [30138,"2017-07-09T04:00:00","70","14","ND","1,4","169","24","75,1","0","0"],
    [30139,"2017-07-09T05:00:00","53","17","ND","2","104,3","23,5","75,2","0","0"],
    [30140,"2017-07-09T06:00:00","43","11","ND","1,2","179,4","23,7","72,9","0","0"],
    [30141,"2017-07-09T07:00:00","51","8","ND","1,4","204,3","23,6","71,9","6,6","0"],
    [30142,"2017-07-09T08:00:00","53","12","ND","1,7","100,1","24,5","69,3","48,2","0"],
    [30143,"2017-07-09T09:00:00","83","38","ND","0,7","52,3","27,1","61,6","135,1","0"],
    [30144,"2017-07-09T10:00:00","71","22","ND","2,2","120,6","28,7","56,5","199","0"],
    [30145,"2017-07-09T11:00:00","66","26","ND","2,6","88","29,7","52,4","209,2","0"],
    [30146,"2017-07-09T12:00:00","68","16","ND","1,1","148,5","32","44,7","354,7","0"],
    [30147,"2017-07-09T13:00:00","63","18","ND","2,7","103","32,7","39,7","285,2","0"],
    [30148,"2017-07-09T14:00:00","52","9","ND","2,5","218,7","34,7","35,7","365,4","0"],
    [30149,"2017-07-09T15:00:00","44","9","ND","2,4","117,9","35,7","32","319,9","0"],
    [30150,"2017-07-09T16:00:00","60","9","ND","4,2","67,9","34,7","34,2","153,3","0"],
    [30151,"2017-07-09T17:00:00","64","12","ND","5,1","48,8","33,7","37,9","81,7","0"],
    [30152,"2017-07-09T18:00:00","33","7","ND","2,9","333,2","31,8","44","17,9","0"],
    [30153,"2017-07-09T19:00:00","67","10","ND","1,9","340,2","30,6","48","0","0"],
    [30154,"2017-07-09T20:00:00","67","13","ND","1,9","327,4","29,5","51","0","0"],
    [30155,"2017-07-09T21:00:00","50","8","ND","3,7","97,7","27,8","60,5","0","0"],
    [30156,"2017-07-09T22:00:00","34","5","ND","2,5","79,7","27,2","62,9","0","0"],
    [30157,"2017-07-09T23:00:00","54","2","ND","3,1","79,6","26,5","63,9","0","0"],
    [30158,"2017-07-10T00:00:00","32","3","ND","1,7","67","26,5","63,3","0","0"],
    [30159,"2017-07-10T01:00:00","32","3","ND","2","71,1","26,3","64,3","0","0"],
    [30160,"2017-07-10T02:00:00","39","1","ND","1,7","115,1","26,2","65,2","0","0"],
    [30161,"2017-07-10T03:00:00","27","ND","ND","2,4","88","25,8","66,8","0","0"],
    [30162,"2017-07-10T04:00:00","47","ND","ND","1,9","169,7","25,3","70,1","0","0"],
    [30163,"2017-07-10T05:00:00","66","6","ND","1,8","187,8","24,9","71,4","0","0"],
    [30164,"2017-07-10T06:00:00","80","21","ND","1,4","137","25","70,2","0","0"],
    [30165,"2017-07-10T07:00:00","67","17","ND","1,3","195,9","25,2","67,8","18","0"],
    [30166,"2017-07-10T08:00:00","73","14","ND","1,8","166,5","27,1","62,6","100,7","0"],
    [30167,"2017-07-10T09:00:00","61","11","ND","2,2","191,2","29,2","51,3","173,4","0"],
    [30168,"2017-07-10T10:00:00","53","12","ND","3,1","190,7","30,1","49,8","193,3","0"],
    [30169,"2017-07-10T11:00:00","63","10","ND","3","113,2","31,2","48,2","265","0"],
    [30170,"2017-07-10T12:00:00","64","9","ND","2,3","164","32,8","41,5","297,8","0"],
    [30171,"2017-07-10T13:00:00","60","13","ND","3,8","166,8","33,3","38,6","264,4","0"],
    [30172,"2017-07-10T14:00:00","70","12","ND","4,8","169,6","33,1","38,4","189,9","0"],
    [30173,"2017-07-10T15:00:00","61","13","ND","3,8","123,1","31,3","44,5","116,3","0"],
    [30174,"2017-07-10T16:00:00","48","12","ND","5,3","96,7","30,8","47","119,4","0"],
    [30175,"2017-07-10T17:00:00","54","13","ND","3,5","72,2","30,8","45,4","53,2","0"],
    [30176,"2017-07-10T18:00:00","69","16","ND","3,5","40,9","30,4","48,3","9,2","0"],
    [30177,"2017-07-10T19:00:00","51","18","ND","2,4","36,8","29,3","52,8","0","0"],
    [30178,"2017-07-10T20:00:00","48","3","ND","2","288,4","28,6","51,3","0","0"],
    [30179,"2017-07-10T21:00:00","44","3","ND","1,5","271,5","28","54,7","0","0"],
    [30180,"2017-07-10T22:00:00","98","25","ND","3,5","120,9","26,6","64,1","0","0"],
    [30181,"2017-07-10T23:00:00","83","17","ND","1,5","153,5","25,9","67,4","0","0"],
    [30182,"2017-07-11T00:00:00","64","12","ND","2,3","174,8","25,2","69,6","0","0"],
    [30183,"2017-07-11T01:00:00","32","7","ND","2,1","195,7","25","69,3","0","0"],
    [30184,"2017-07-11T02:00:00","41","6","ND","1,9","140,2","24,9","69,7","0","0"],
    [30185,"2017-07-11T03:00:00","44","5","ND","1,6","179,9","24,2","72,4","0","0"],
    [30186,"2017-07-11T04:00:00","37","4","ND","1,9","147,5","24,2","71,6","0","0"],
    [30187,"2017-07-11T05:00:00","38","6","ND","2,4","157,7","23,4","73,4","0","0"],
    [30188,"2017-07-11T06:00:00","48","6","ND","1,9","221,7","23","72,7","0","0"],
    [30189,"2017-07-11T07:00:00","76","23","ND","1,6","167","23,6","70,9","10,2","0"],
    [30190,"2017-07-11T08:00:00","93","24","ND","2,7","104,4","23,7","71,1","32,5","0"],
    [30191,"2017-07-11T09:00:00","76","18","ND","1,7","106,7","25,6","62,3","138","0"],
    [30192,"2017-07-11T10:00:00","59","2","ND","2,5","89,2","27,5","51,5","169,5","0"],
    [30193,"2017-07-11T11:00:00","81","15","50,6","2,4","134,5","30,1","41,2","328,8","0"],
    [30194,"2017-07-11T12:00:00","66","19","41,2","2,9","176,4","30,8","37,2","191,7","0"],
    [30195,"2017-07-11T13:00:00","79","25","49,4","2,9","174,8","31,4","36,2","197","0"],
    [30196,"2017-07-11T14:00:00","55","17","60,2","2,5","170,6","32,9","32,1","292,3","0"],
    [30197,"2017-07-11T15:00:00","62","19","62","3,7","129,7","34,1","27,7","313,4","0"],
    [30198,"2017-07-11T16:00:00","52","9","66,6","3,2","110,1","34,2","27,7","224,2","0"],
    [30199,"2017-07-11T17:00:00","58","12","65,3","4,6","92,5","33,8","29,5","142,3","0"],
    [30200,"2017-07-11T18:00:00","88","28","45,4","3,7","89,5","32,7","32,8","29,4","0"],
    [30201,"2017-07-11T19:00:00","107","26","21,6","1","86,1","31,4","36,4","0","0"],
    [30202,"2017-07-11T20:00:00","72","14","24,4","2","293,8","29,9","44","0","0"],
    [30203,"2017-07-11T21:00:00","58","13","23,5","2,4","300,8","29,3","46,9","0","0"],
    [30204,"2017-07-11T22:00:00","70","23","17,2","4","98,3","27,8","56,7","0","0"],
    [30205,"2017-07-11T23:00:00","60","11","14,7","1","50,4","27","59,6","0","0"],
    [30206,"2017-07-12T00:00:00","52","9","16,2","1","90,8","26,5","60,6","0","0"],
    [30207,"2017-07-12T01:00:00","46","11","15,6","1,1","125,3","25,6","65,5","0","0"],
    [30208,"2017-07-12T02:00:00","62","17","16,7","0,6","32,2","24,9","67,4","0","0"],
    [30209,"2017-07-12T03:00:00","55","14","13,7","0,6","50,1","25,1","67","0","0"],
    [30210,"2017-07-12T04:00:00","51","12","12,4","1,6","161,5","24,9","65,5","0","0"],
    [30211,"2017-07-12T05:00:00","70","16","10,4","1,8","171,9","23,8","68,9","0","0"],
    [30212,"2017-07-12T06:00:00","78","20","9,8","1,5","205","23,7","64,6","0","0"],
    [30213,"2017-07-12T07:00:00","94","15","10,7","0,6","101,7","23,9","62","12,9","0"],
    [30214,"2017-07-12T08:00:00","88","20","16,1","2,8","89,9","25,8","56","101,2","0"],
    [30215,"2017-07-12T09:00:00","75","17","28,5","3,5","77,5","27,7","54,5","197,4","0"],
    [30216,"2017-07-12T10:00:00","60","14","47,7","0,1","70,2","29,9","42,2","225","0"],
    [30217,"2017-07-12T11:00:00","42","8","59,4","0,6","165,6","31","36,8","211","0"],
    [30218,"2017-07-12T12:00:00","56","11","72,5","4,1","63,4","32,8","34,4","405,4","0"],
    [30219,"2017-07-12T13:00:00","38","6","67,8","1,9","88,4","34,6","27,8","407,7","0"],
    [30220,"2017-07-12T14:00:00","44","6","75,3","3","86,3","35,2","27,4","332,9","0"],
    [30221,"2017-07-12T15:00:00","50","10","80,2","3,4","84","36","26,6","312,6","0"],
    [30222,"2017-07-12T16:00:00","62","9","83,6","2,8","159,9","36,7","25,6","229,3","0"],
    [30223,"2017-07-12T17:00:00","70","16","77,7","3,5","130,1","35,6","26,7","123,7","0"],
    [30224,"2017-07-12T18:00:00","77","18","59,6","3,2","123,5","34,8","28,8","29,9","0"],
    [30225,"2017-07-12T19:00:00","71","13","42,5","2,7","283","32,5","37,3","0","0"],
    [30226,"2017-07-12T20:00:00","92","18","26,7","2,5","357,4","30,6","44","0","0"],
    [30227,"2017-07-12T21:00:00","62","11","23,2","2","290,1","29,7","47","0","0"],
    [30228,"2017-07-12T22:00:00","89","17","16,6","1,2","93,8","28,6","53,2","0","0"],
    [30229,"2017-07-12T23:00:00","57","8","19,6","4,3","102,2","27,2","60,4","0","0"],
    [30230,"2017-07-13T00:00:00","44","16","20,7","3,4","87,1","26,2","64,6","0","0"],
    [30231,"2017-07-13T01:00:00","44","6","21,9","1,4","71,3","25,9","65,1","0","0"],
    [30232,"2017-07-13T02:00:00","34","7","23,4","1,2","164,1","25,5","65,7","0","0"],
    [30233,"2017-07-13T03:00:00","68","29","21","2,3","184,2","25,3","64","0","0"],
    [30234,"2017-07-13T04:00:00","100","53","15,8","1,4","145,4","24,7","61,4","0","0"],
    [30235,"2017-07-13T05:00:00","69","25","11,4","1,9","165,5","24","60,1","0","0"],
    [30236,"2017-07-13T06:00:00","96","31","10,3","2,1","118,8","23,5","59,8","0","0"],
    [30237,"2017-07-13T07:00:00","105","37","11","2","125,2","23,7","58,4","19,7","0"],
    [30238,"2017-07-13T08:00:00","73","18","17,9","2","174,3","25,6","52,2","99,4","0"],
    [30239,"2017-07-13T09:00:00","56","13","33,3","1,4","200,1","28,5","43,2","192,9","0"],
    [30240,"2017-07-13T10:00:00","67","12","66,8","1,1","214,2","31,4","32,8","277","0"],
    [30241,"2017-07-13T11:00:00","46","10","79,5","1,5","102","33","29,7","347,4","0"],
    [30242,"2017-07-13T12:00:00","39","10","89,7","2,5","60,7","34","27,5","389,9","0"],
    [30243,"2017-07-13T13:00:00","40","6","84,9","3,3","94,7","35,2","24,6","392,8","0"],
    [30244,"2017-07-13T14:00:00","61","15","129,7","3","111,2","36,2","24,9","356,7","0"],
    [30245,"2017-07-13T15:00:00","69","21","159,2","2,1","132,1","36,7","24,9","283,4","0"],
    [30246,"2017-07-13T16:00:00","66","16","123,8","2,5","53,1","36,1","27,2","167","0"],
    [30247,"2017-07-13T17:00:00","52","9","78,2","4","312,4","33,8","34","41,3","0"],
    [30248,"2017-07-13T18:00:00","64","8","49,6","6,5","298,2","31,4","41,1","11,1","0"],
    [30249,"2017-07-13T19:00:00","54","13","29,2","4,9","312,9","30,6","42,5","0","0"],
    [30250,"2017-07-13T20:00:00","70","10","29,6","2,2","320,6","29,9","46,1","0","0"],
    [30251,"2017-07-13T21:00:00","79","19","16,9","4","80,2","28,5","54,2","0","0"],
    [30252,"2017-07-13T22:00:00","50","11","16,4","1,9","63","27,6","58","0","0"],
    [30253,"2017-07-13T23:00:00","40","6","16","3,2","76,4","26,9","60,7","0","0"],
    [30254,"2017-07-14T00:00:00","29","1","20,7","3,4","55,9","26,5","61,5","0","0"],
    [30255,"2017-07-14T01:00:00","34","3","20,7","3,2","69,2","25,9","63,3","0","0"],
    [30256,"2017-07-14T02:00:00","42","ND","20,3","2,2","74,4","25,2","66,2","0","0"],
    [30257,"2017-07-14T03:00:00","33","5","17,7","1,2","222,4","25,4","65,8","0","0"],
    [30258,"2017-07-14T04:00:00","52","5","14,1","2,6","131,5","25,2","67,7","0","0"],
    [30259,"2017-07-14T05:00:00","47","7","12,5","1,6","192,8","25,1","68,2","0","0"],
    [30260,"2017-07-14T06:00:00","74","17","11,9","2,1","182,7","24,8","67,4","0","0"],
    [30261,"2017-07-14T07:00:00","113","31","13,2","3,3","137,5","24,4","70,2","12,9","0"],
    [30262,"2017-07-14T08:00:00","79","19","17,5","2,6","190,3","25,9","63,4","100,2","0"],
    [30263,"2017-07-14T09:00:00","74","15","27,6","2,3","167,2","28,3","54,5","188,4","0"],
    [30264,"2017-07-14T10:00:00","56","9","43,6","2,4","174","30,7","45,1","288,1","0"],
    [30265,"2017-07-14T11:00:00","55","6","64,9","2,2","184","32,3","40","357,3","0"],
    [30266,"2017-07-14T12:00:00","44","6","81,1","3,1","112,8","32,9","38,4","365,8","0"],
    [30267,"2017-07-14T13:00:00","59","15","94,2","2,8","111,5","33,2","37,9","265,1","0"],
    [30268,"2017-07-14T14:00:00","63","20","115,2","2,9","1,1","33,2","37,9","167,6","0"],
    [30269,"2017-07-14T15:00:00","55","12","79,5","4,3","28,6","32,6","38,5","99,7","0"],
    [30270,"2017-07-14T16:00:00","47","8","58,2","4,5","5,2","32,3","38,4","102,7","0"],
    [30271,"2017-07-14T17:00:00","49","8","46,8","2,9","16,5","32,5","37,3","91,1","0"],
    [30272,"2017-07-14T18:00:00","36","6","48,7","5,3","303,8","31,8","37,1","58,2","0"],
    [30273,"2017-07-14T19:00:00","55","6","19,4","3,5","310,1","29,9","42","0","0"],
    [30274,"2017-07-14T20:00:00","91","20","13,8","1,8","53,3","28,5","49,4","0","0"],
    [30275,"2017-07-14T21:00:00","70","16","15,5","3,2","90,6","27,2","55,3","0","0"],
    [30276,"2017-07-14T22:00:00","47","6","17,1","3,8","89,8","26,1","59,7","0","0"],
    [30277,"2017-07-14T23:00:00","50","8","18,3","3,5","72,2","26,3","58,4","0","0"],
    [30278,"2017-07-15T00:00:00","48","5","18,7","2,1","77,3","26,1","58,3","0","0"],
    [30279,"2017-07-15T01:00:00","35","5","21,5","2,3","128,6","25,7","59,2","0","0"],
    [30280,"2017-07-15T02:00:00","38","6","20,7","3,4","109","24,7","62,9","0","0"],
    [30281,"2017-07-15T03:00:00","41","5","21,3","2,9","63,2","24,3","64,8","0","0"],
    [30282,"2017-07-15T04:00:00","45","10","20,3","1,6","40","24,4","64,7","0","0"],
    [30283,"2017-07-15T05:00:00","42","8","18","1,3","338,7","24,6","63,4","0","0"],
    [30284,"2017-07-15T06:00:00","59","17","14,8","0,4","38","24,9","61,9","0","0"],
    [30285,"2017-07-15T07:00:00","59","14","14,5","1,4","168,4","24,9","63","11,8","0"],
    [30286,"2017-07-15T08:00:00","82","19","20,8","2,1","166,6","26,8","57,7","94","0"],
    [30287,"2017-07-15T09:00:00","53","12","34,7","2","212,7","27,9","53,3","132,3","0"],
    [30288,"2017-07-15T10:00:00","54","14","49,4","1,5","171,7","29,6","48,7","240,9","0"],
    [30289,"2017-07-15T11:00:00","56","17","68,8","2,7","84,4","31,5","41,6","359,1","0"],
    [30290,"2017-07-15T12:00:00","39","14","82,9","2,3","78,3","32,9","37,2","367,8","0"],
    [30291,"2017-07-15T13:00:00","42","14","78,4","3,7","94,3","33,8","35,8","403,2","0"],
    [30292,"2017-07-15T14:00:00","49","11","80,2","4","90,1","34,6","33,7","345,8","0"],
    [30293,"2017-07-15T15:00:00","54","8","84,2","4,7","74,2","34,8","33,6","288,2","0"],
    [30294,"2017-07-15T16:00:00","53","12","80,6","4,6","27,2","34,2","35,4","168,7","0"],
    [30295,"2017-07-15T17:00:00","44","6","40,4","5,5","314,5","31,8","38,5","35,4","0"],
    [30296,"2017-07-15T18:00:00","35","2","34,1","6,2","282,1","30,2","41,9","11,6","0"],
    [30297,"2017-07-15T19:00:00","61","17","30,3","5,1","49","29,1","48,6","0","0"],
    [30298,"2017-07-15T20:00:00","ND","ND","22,6","4,2","58,9","27,8","55,1","0","0"],
    [30299,"2017-07-15T21:00:00","58","19","25,6","0,9","293,6","27,7","55,7","0","0"],
    [30300,"2017-07-15T22:00:00","55","11","33,1","5,5","190","26,3","62,9","0","0"],
    [30301,"2017-07-15T23:00:00","29","8","30,1","4,2","183,6","23,9","74,7","0","1,02"],
    [30302,"2017-07-16T00:00:00","32","6","24,9","3,8","149,4","23,5","75,3","0","0"],
    [30303,"2017-07-16T01:00:00","21","4","26,8","2,9","176,8","23,1","73,3","0","0"],
    [30304,"2017-07-16T02:00:00","16","2","30","4,1","232,5","22,4","75,1","0","0"],
    [30305,"2017-07-16T03:00:00","19","ND","30","2,4","269","22,8","73,3","0","0"],
    [30306,"2017-07-16T04:00:00","21","ND","20,2","4,6","87,6","21,7","76,7","0","0"],
    [30307,"2017-07-16T05:00:00","31","2","17,5","0,7","350,7","21,6","76,5","0","0"],
    [30308,"2017-07-16T06:00:00","36","9","18","2,2","5,4","22,5","73","0","0"],
    [30309,"2017-07-16T07:00:00","27","10","19,1","2,8","321,4","22,9","71,5","20,3","0"],
    [30310,"2017-07-16T08:00:00","38","9","31,1","2,3","268,4","24,9","64","99,5","0"],
    [30311,"2017-07-16T09:00:00","56","18","40","1,9","114,1","26,6","57,6","193,1","0"],
    [30312,"2017-07-16T10:00:00","42","11","50,2","3,6","121,8","27,5","55,2","242,8","0"],
    [30313,"2017-07-16T11:00:00","38","14","61,8","2,6","145,6","29,4","48,7","275","0"],
    [30314,"2017-07-16T12:00:00","44","12","75,7","3,5","93,8","30,5","44,9","382,6","0"],
    [30315,"2017-07-16T13:00:00","46","13","92,7","2,8","96,9","32,2","40,4","388,8","0"],
    [30316,"2017-07-16T14:00:00","48","15","100,9","2,5","69,5","33,5","37,9","301","0"],
    [30317,"2017-07-16T15:00:00","48","17","89,8","2","337,6","33,4","37,9","189,9","0"],
    [30318,"2017-07-16T16:00:00","24","1","48,4","1,8","6","33,1","36","111,9","0"],
    [30319,"2017-07-16T17:00:00","19","1","49,8","2,1","11,8","34","33,4","146,2","0"],
    [30320,"2017-07-16T18:00:00","30","ND","40,2","2,9","353,2","32,5","37,7","35,6","0"],
    [30321,"2017-07-16T19:00:00","55","6","24,9","3,2","23","30,4","44,9","0","0"],
    [30322,"2017-07-16T20:00:00","68","23","18","1,4","6,2","29,1","50,5","0","0"],
    [30323,"2017-07-16T21:00:00","58","11","14,9","2,3","352,5","28,6","52,3","0","0"],
    [30324,"2017-07-16T22:00:00","50","9","13,7","3","75,2","27,3","59,3","0","0"],
    [30325,"2017-07-16T23:00:00","35","9","17,3","3,5","50,8","26,1","61,9","0","0"],
    [30326,"2017-07-17T00:00:00","30","7","16,1","1,7","107,7","26","63,3","0","0"],
    [30327,"2017-07-17T01:00:00","25","3","15,5","1,3","113,4","25,4","66,7","0","0"],
    [30328,"2017-07-17T02:00:00","28","1","17,2","1,4","20,5","25,5","65,7","0","0"],
    [30329,"2017-07-17T03:00:00","34","4","16","2,2","71,9","25,6","65,3","0","0"],
    [30330,"2017-07-17T04:00:00","30","2","16,2","1,7","47,4","25,5","65,6","0","0"],
    [30331,"2017-07-17T05:00:00","36","5","13,6","1,3","104,5","25,5","66","0","0"],
    [30332,"2017-07-17T06:00:00","57","17","12,4","2,3","110,8","25,2","67,3","0","0"],
    [30333,"2017-07-17T07:00:00","55","19","12,6","1,5","86,2","25,4","66,4","6,5","0"],
    [30334,"2017-07-17T08:00:00","50","11","15,5","1,5","345,3","26,1","64,7","35,2","0,76"],
    [30335,"2017-07-17T09:00:00","54","19","15,8","2,4","65,4","25,6","71,2","43,7","3,3"],
    [30336,"2017-07-17T10:00:00","60","13","35,9","1,5","324,1","28,2","60,6","194,4","0,25"],
    [30337,"2017-07-17T11:00:00","45","8","60","1,5","25,1","30,8","49,8","329,5","0"],
    [30338,"2017-07-17T12:00:00","29","9","73","1,8","38","32,8","41,9","365,2","0"],
    [30339,"2017-07-17T13:00:00","24","4","63,5","3,1","44,8","33,9","38,1","359,7","0"],
    [30340,"2017-07-17T14:00:00","27","ND","60,6","4,5","35,7","33,8","37,5","245,8","0"],
    [30341,"2017-07-17T15:00:00","36","ND","56,7","5","52,8","34,6","35,4","291,2","0"],
    [30342,"2017-07-17T16:00:00","38","3","53","5,6","37,4","34,9","34,1","240,2","0"],
    [30343,"2017-07-17T17:00:00","35","1","45,2","6","37,6","34,2","34,4","117,2","0"],
    [30344,"2017-07-17T18:00:00","38","3","38,7","4,5","5,2","33,2","36,4","42,6","0"],
    [30345,"2017-07-17T19:00:00","71","10","23","2,7","8,6","31,7","40,4","0,4","0"],
    [30346,"2017-07-17T20:00:00","64","8","12,5","2,4","301,1","30,6","43,7","0","0"],
    [30347,"2017-07-17T21:00:00","72","11","12,4","0,4","319,8","29,2","49,4","0","0"],
    [30348,"2017-07-17T22:00:00","66","10","15","1,8","144,7","27,8","55,3","0","0"],
    [30349,"2017-07-17T23:00:00","48","12","25,7","2,1","170,3","27","60,3","0","0"],
    [30350,"2017-07-18T00:00:00","54","13","24,3","0,8","173","26,4","62,1","0","0"],
    [30351,"2017-07-18T01:00:00","47","11","19,3","3,4","80,2","25,2","66,9","0","0"],
    [30352,"2017-07-18T02:00:00","58","13","15,3","3","91,3","24,6","68,9","0","0"],
    [30353,"2017-07-18T03:00:00","34","10","17","0,7","348,2","24,8","67,5","0","0"],
    [30354,"2017-07-18T04:00:00","49","13","18,1","1,2","85,8","25","66,6","0","0"],
    [30355,"2017-07-18T05:00:00","59","17","15","1,4","43,1","25,1","66,2","0","0"],
    [30356,"2017-07-18T06:00:00","79","29","12,8","2,4","143","24,8","68,8","0","0"],
    [30357,"2017-07-18T07:00:00","81","22","12,7","1,6","183,2","24,6","70,7","17,7","0"],
    [30358,"2017-07-18T08:00:00","78","18","19,1","1,6","228,3","26,2","65,1","86,5","0"],
    [30359,"2017-07-18T09:00:00","46","15","33,1","2,3","69,4","28,8","54,4","197,9","0"],
    [30360,"2017-07-18T10:00:00","46","8","40,4","2,8","101,5","30","50,8","229,7","0"],
    [30361,"2017-07-18T11:00:00","60","14","58,9","1,9","140,3","31,8","46,5","329,8","0"],
    [30362,"2017-07-18T12:00:00","45","11","80,4","1,2","116","33,9","38,9","380,7","0"],
    [30363,"2017-07-18T13:00:00","44","8","85,4","2,4","65,4","34,5","37,1","358,3","0"],
    [30364,"2017-07-18T14:00:00","56","13","104,1","2","75,5","35,2","35","292,8","0"],
    [30365,"2017-07-18T15:00:00","56","13","99,7","4,1","105,1","34,7","35,9","238","0"],
    [30366,"2017-07-18T16:00:00","73","10","111,3","3,5","90,3","35,5","33,7","200,2","0"],
    [30367,"2017-07-18T17:00:00","62","18","92,5","1,5","1,4","34,3","36,1","54,4","0"],
    [30368,"2017-07-18T18:00:00","48","4","55","5,8","301,5","32,2","41,6","30,9","0"],
    [30369,"2017-07-18T19:00:00","60","7","28,8","2,6","347,4","30,8","46,3","0","0"],
    [30370,"2017-07-18T20:00:00","61","10","19,9","3,9","62,3","29,8","51,4","0","0"],
    [30371,"2017-07-18T21:00:00","65","10","36,6","5,6","217,5","28,4","53,4","0","0"],
    [30372,"2017-07-18T22:00:00","36","6","33,8","5,3","259,3","26,4","59,6","0","0"],
    [30373,"2017-07-18T23:00:00","24","6","22,5","1,7","187,9","25,8","63,9","0","0,51"],
    [30374,"2017-07-19T00:00:00","20","3","19,9","1,7","172,9","25","69,7","0","0"],
    [30375,"2017-07-19T01:00:00","13","ND","18,3","1,8","217,3","25","69,8","0","0"],
    [30376,"2017-07-19T02:00:00","14","ND","12,8","2,3","207,8","25,2","70,3","0","0"],
    [30377,"2017-07-19T03:00:00","17","ND","12,3","2,4","186,2","25,1","71,1","0","0"],
    [30378,"2017-07-19T04:00:00","26","ND","15,5","1,8","175,2","24,7","72,9","0","0"],
    [30379,"2017-07-19T05:00:00","26","ND","15,6","1,4","156,4","24,6","73,2","0","0"],
    [30380,"2017-07-19T06:00:00","41","9","14,5","1,2","155,7","24,8","72,2","0","0"],
    [30381,"2017-07-19T07:00:00","54","14","14,2","0,9","237,2","25,1","71,1","7,3","0"],
    [30382,"2017-07-19T08:00:00","57","20","21,6","0,8","187,2","26,2","66,5","58,1","0"],
    [30383,"2017-07-19T09:00:00","79","23","26,2","3,2","68,1","27,6","63,7","197,3","0"],
    [30384,"2017-07-19T10:00:00","62","26","43,9","2,7","71,4","29,1","55,7","220,5","0"],
    [30385,"2017-07-19T11:00:00","41","4","58,4","2,4","116,4","31,2","48,6","343,7","0"],
    [30386,"2017-07-19T12:00:00","49","9","73,4","2,1","127,3","32,7","41,8","330,5","0"],
    [30387,"2017-07-19T13:00:00","43","11","98,2","1,6","95,3","34,2","37,4","429,9","0"],
    [30388,"2017-07-19T14:00:00","47","16","110","3,1","74,2","34,8","35,7","382,9","0"],
    [30389,"2017-07-19T15:00:00","73","31","114,8","4,2","39,5","35","35","245,7","0"],
    [30390,"2017-07-19T16:00:00","30","2","76","3,5","356,4","33,9","36,8","95,5","0"],
    [30391,"2017-07-19T17:00:00","29","1","52,7","5,9","290,4","33,4","37,7","125,9","0"],
    [30392,"2017-07-19T18:00:00","37","3","42,1","6,5","290,1","31,9","39,7","35,3","0"],
    [30393,"2017-07-19T19:00:00","43","6","33,7","4,3","259,5","30,2","45,8","0","0"],
    [30394,"2017-07-19T20:00:00","65","19","23,5","2,9","112,6","29,2","47,1","0","0"],
    [30395,"2017-07-19T21:00:00","70","17","23,1","4,6","117","27,5","55,5","0","0"],
    [30396,"2017-07-19T22:00:00","48","6","24,5","1,4","94,8","26,3","64,6","0","0,51"],
    [30397,"2017-07-19T23:00:00","45","14","21,9","3,6","41,3","25,5","71,3","0","1,02"],
    [30398,"2017-07-20T00:00:00","29","10","16,9","2,9","97,1","25,1","73,1","0","0"],
    [30399,"2017-07-20T01:00:00","46","12","14,8","1,6","157,2","24,7","74,7","0","0"],
    [30400,"2017-07-20T02:00:00","42","7","15,8","2,2","197","24,3","75,4","0","0"],
    [30401,"2017-07-20T03:00:00","40","8","13,6","1,9","172,4","24","76,5","0","0"],
    [30402,"2017-07-20T04:00:00","32","8","13","2,7","202,9","23,6","77,3","0","0"],
    [30403,"2017-07-20T05:00:00","33","4","12,8","3","226,3","23,2","76,9","0","0"],
    [30404,"2017-07-20T06:00:00","33","2","12","2","103","23,3","76,6","0","0"],
    [30405,"2017-07-20T07:00:00","67","19","13,1","2,2","155,3","23,8","75,2","14,4","0"],
    [30406,"2017-07-20T08:00:00","63","21","12,8","3,7","106,5","23,7","75,9","38","0"],
    [30407,"2017-07-20T09:00:00","64","23","18,1","1,2","56,5","25,9","67,8","77,4","0"],
    [30408,"2017-07-20T10:00:00","38","22","31,8","1,2","74,1","27,9","60,4","193,1","0"],
    [30409,"2017-07-20T11:00:00","48","11","48,9","1,9","56,7","29,7","53,2","316,5","0"],
    [30410,"2017-07-20T12:00:00","34","11","64,7","2,6","74,6","31,8","43,7","397,5","0"],
    [30411,"2017-07-20T13:00:00","38","15","75,2","1,6","149,1","33,4","37,2","403,1","0"],
    [30412,"2017-07-20T14:00:00","57","11","75,2","3,2","109","33,4","37,1","235,4","0"],
    [30413,"2017-07-20T15:00:00","47","8","81,8","2,9","106,4","33,4","37,2","211,7","0"],
    [30414,"2017-07-20T16:00:00","40","9","80,5","2,1","13","33,7","36,9","131,9","0"],
    [30415,"2017-07-20T17:00:00","45","10","77,1","2,5","331,3","32,8","38","75,2","0"],
    [30416,"2017-07-20T18:00:00","35","6","63,7","3,5","302,8","32,2","38","44,3","0"],
    [30417,"2017-07-20T19:00:00","48","10","32,4","2,8","308,2","30,6","41,1","0","0"],
    [30418,"2017-07-20T20:00:00","69","19","14,9","2,1","89,1","28,9","51,7","0","0"],
    [30419,"2017-07-20T21:00:00","64","18","13,8","1,7","74,4","28,2","53,9","0","0"],
    [30420,"2017-07-20T22:00:00","52","5","13,3","2,4","72,1","26,8","60,6","0","0"],
    [30421,"2017-07-20T23:00:00","42","10","15,5","1,1","59,8","26,5","61","0","0"],
    [30422,"2017-07-21T00:00:00","48","8","17,2","1,3","28","26,2","62,7","0","0"],
    [30423,"2017-07-21T01:00:00","38","7","15,6","1,1","136,4","25,6","65,4","0","0"],
    [30424,"2017-07-21T02:00:00","47","3","16,4","1,5","146,4","25","69,4","0","0"],
    [30425,"2017-07-21T03:00:00","54","6","13,2","2,2","169,4","24,1","73,3","0","0"],
    [30426,"2017-07-21T04:00:00","49","9","12","1,1","175,8","23,8","74,4","0","0"],
    [30427,"2017-07-21T05:00:00","62","13","11,2","1,6","98,8","23,2","75,5","0","0"],
    [30428,"2017-07-21T06:00:00","72","28","12,4","1,4","93,6","22,9","77,2","0","0"],
    [30429,"2017-07-21T07:00:00","103","31","12,4","1,9","146,6","23,4","75,4","21","0"],
    [30430,"2017-07-21T08:00:00","65","21","15,7","1,5","166,7","25,4","66,5","111,2","0"],
    [30431,"2017-07-21T09:00:00","63","23","25,9","1,7","115,6","27,7","58,8","189,9","0"],
    [30432,"2017-07-21T10:00:00","77","19","45,5","3,2","81,7","29,2","52,8","275,4","0"],
    [30433,"2017-07-21T11:00:00","45","16","71,3","3,8","78,4","31","46,2","346,3","0"],
    [30434,"2017-07-21T12:00:00","37","8","86,8","1,2","50,4","32,9","39,3","389,6","0"],
    [30435,"2017-07-21T13:00:00","ND","10","94,1","2,6","75,4","34,2","35,7","339,4","0"],
    [30436,"2017-07-21T14:00:00","59","22","105,2","3,8","100","34,8","34,4","350","0"],
    [30437,"2017-07-21T15:00:00","32","13","128,7","3,2","55,8","35,3","33,7","245,1","0"],
    [30438,"2017-07-21T16:00:00","ND","16","107,2","4,4","20,7","34,2","36,5","77,2","0"],
    [30439,"2017-07-21T17:00:00","49","11","70,2","5,4","286,6","33,4","38,3","86,6","0"],
    [30440,"2017-07-21T18:00:00","63","11","49,6","3,7","316,4","32,5","39,6","14,1","0"],
    [30441,"2017-07-21T19:00:00","59","11","30,9","4,2","297,1","31,1","43","0","0"],
    [30442,"2017-07-21T20:00:00","74","16","20,7","2,5","348,7","29,9","47,6","0","0"],
    [30443,"2017-07-21T21:00:00","65","15","15","3,3","96,1","27,9","58,1","0","0"],
    [30444,"2017-07-21T22:00:00","44","9","13,7","2,5","94,9","26,7","63,7","0","0"],
    [30445,"2017-07-21T23:00:00","35","5","14,2","2,1","115,9","26,6","63,4","0","0"],
    [30446,"2017-07-22T00:00:00","47","12","13,2","1,4","137,5","26,3","65,6","0","0"],
    [30447,"2017-07-22T01:00:00","48","11","12,7","1,9","146,4","26","67,8","0","0"],
    [30448,"2017-07-22T02:00:00","62","16","12,6","1,5","104,2","25,5","69,9","0","0"],
    [30449,"2017-07-22T03:00:00","69","14","12,5","1,5","124,4","25,1","71,4","0","0"],
    [30450,"2017-07-22T04:00:00","71","19","12,6","1,3","250","24,7","72,8","0","0"],
    [30451,"2017-07-22T05:00:00","85","30","13","2,1","115,9","24,6","72,9","0","0"],
    [30452,"2017-07-22T06:00:00","80","21","11,6","1,6","173,8","24,8","71,7","0","0"],
    [30453,"2017-07-22T07:00:00","91","29","12,4","1,8","151,3","24,8","70,2","16,6","0"],
    [30454,"2017-07-22T08:00:00","73","20","15,4","1,2","201,9","26","63,7","70,1","0"],
    [30455,"2017-07-22T09:00:00","89","29","26","0,6","48,8","28,2","55,4","113,1","0"],
    [30456,"2017-07-22T10:00:00","76","23","28,3","3,4","126,9","28,8","54,2","143,5","0"],
    [30457,"2017-07-22T11:00:00","71","19","48","3","108,9","29,9","49,8","204,5","0"],
    [30458,"2017-07-22T12:00:00","69","16","66,4","2,6","84,6","31,4","42,8","241,4","0"],
    [30459,"2017-07-22T13:00:00","72","19","81,8","3,2","31,8","33","37,1","263,1","0"],
    [30460,"2017-07-22T14:00:00","60","18","70,2","4,1","77","33","35,9","212,6","0"],
    [30461,"2017-07-22T15:00:00","52","13","68,2","4,2","83,4","33,6","34,8","174,4","0"],
    [30462,"2017-07-22T16:00:00","67","12","61,2","3,4","104,6","33,2","35,1","88,6","0"],
    [30463,"2017-07-22T17:00:00","51","13","75","1,4","181,9","33,7","35,5","84,9","0"],
    [30464,"2017-07-22T18:00:00","61","14","56","4,1","235,3","31,7","40,1","20,6","0"],
    [30465,"2017-07-22T19:00:00","46","9","26,8","4,2","271,9","30,5","45,5","0","0"],
    [30466,"2017-07-22T20:00:00","50","4","16,4","3,4","283,9","29,6","48,7","0","0"],
    [30467,"2017-07-22T21:00:00","57","9","15,4","3,4","91,9","28,2","57,3","0","0"],
    [30468,"2017-07-22T22:00:00","58","17","13,5","3","86,8","27,3","61,7","0","0"],
    [30469,"2017-07-22T23:00:00","54","6","13,8","2,5","94,6","27","62,2","0","0"],
    [30470,"2017-07-23T00:00:00","53","2","14,6","2,7","104,1","27,1","60,7","0","0"],
    [30471,"2017-07-23T01:00:00","39","1","13,5","1,5","167,4","26,7","62,5","0","0"],
    [30472,"2017-07-23T02:00:00","29","3","13,9","1,7","158","26,2","64,9","0","0"],
    [30473,"2017-07-23T03:00:00","41","5","12,9","2","204,2","25,8","67,5","0","0"],
    [30474,"2017-07-23T04:00:00","34","6","12,4","1,5","137,1","25,8","68,6","0","0"],
    [30475,"2017-07-23T05:00:00","40","4","12","1,5","149,4","25,3","71","0","0"],
    [30476,"2017-07-23T06:00:00","49","7","11,6","1,1","203,4","25","69,9","0","0"],
    [30477,"2017-07-23T07:00:00","67","12","12,9","2","55,6","24,9","69,6","10,1","0"],
    [30478,"2017-07-23T08:00:00","49","9","14,9","1,4","67","25,8","65,2","40,5","0"],
    [30479,"2017-07-23T09:00:00","59","5","21,1","3,5","104,9","27,4","58,1","158,8","0"],
    [30480,"2017-07-23T10:00:00","52","8","40,2","2,2","160","30,4","45,2","273,7","0"],
    [30481,"2017-07-23T11:00:00","47","12","70,2","2","93,7","31,9","41","345,4","0"],
    [30482,"2017-07-23T12:00:00","69","10","86,1","2,5","102,5","33,3","38,2","352,7","0"],
    [30483,"2017-07-23T13:00:00","43","10","98,5","3,7","68,4","34,6","36,7","413,6","0"],
    [30484,"2017-07-23T14:00:00","44","12","92,5","3,9","77,4","35,2","35,4","377,6","0"],
    [30485,"2017-07-23T15:00:00","39","8","79,4","4,1","69","35,8","34,5","286,4","0"],
    [30486,"2017-07-23T16:00:00","36","3","62,8","2","308,5","34,6","36,2","153,2","0"],
    [30487,"2017-07-23T17:00:00","34","2","43,7","6,6","281,9","32,7","39","49,6","0"],
    [30488,"2017-07-23T18:00:00","120","ND","37,3","6,2","288,4","31,9","39,7","11,8","0"],
    [30489,"2017-07-23T19:00:00","55","14","25,4","1,7","302,1","31,3","42,9","0","0"],
    [30490,"2017-07-23T20:00:00","33","7","21,5","1","314,8","30,2","47,8","0","0"],
    [30491,"2017-07-23T21:00:00","52","5","14,5","2,9","83,6","28,9","55,7","0","0"],
    [30492,"2017-07-23T22:00:00","44","5","14,1","2,9","82,1","28,4","58","0","0"],
    [30493,"2017-07-23T23:00:00","34","ND","14,4","2,4","101,7","27,9","59,5","0","0"],
    [30494,"2017-07-24T00:00:00","55","ND","15","0,6","109,5","26,8","67,2","0","7,11"],
    [30495,"2017-07-24T01:00:00","24","ND","13","2","180,6","26,4","70,9","0","0"],
    [30496,"2017-07-24T02:00:00","33","ND","12,7","2","117,1","26,5","70,2","0","0"],
    [30497,"2017-07-24T03:00:00","38","ND","13,9","2,3","110","26","71","0","0"],
    [30498,"2017-07-24T04:00:00","28","ND","16,7","1,3","20,6","25,7","70,5","0","0"],
    [30499,"2017-07-24T05:00:00","44","6","14,6","1,3","275,5","25,6","70,3","0","0"],
    [30500,"2017-07-24T06:00:00","59","13","12,1","1,5","189,7","25,3","70,4","0","0"],
    [30501,"2017-07-24T07:00:00","68","16","12,4","2,3","146,8","25","70,3","16,7","0"],
    [30502,"2017-07-24T08:00:00","53","3","14,5","3","175,8","25,6","67,3","74,1","0,25"],
    [30503,"2017-07-24T09:00:00","51","4","20,1","2,2","187,4","28,1","58,4","175,6","0"],
    [30504,"2017-07-24T10:00:00","60","11","38,4","2,2","140","30,2","52","279,7","0"],
    [30505,"2017-07-24T11:00:00","45","7","58,3","2,1","108,6","32,1","45,4","363,3","0"],
    [30506,"2017-07-24T12:00:00","38","3","ND","2,9","91,6","33,5","40,5","389,9","0"],
    [30507,"2017-07-24T13:00:00","73","15","ND","3,9","138","33,9","39,7","292","0"],
    [30508,"2017-07-24T14:00:00","68","17","ND","4,3","128,8","33,1","41","153,7","0"],
    [30509,"2017-07-24T15:00:00","73","15","ND","4,2","111,8","33,5","40,2","175,7","0"],
    [30510,"2017-07-24T16:00:00","69","15","ND","4,3","115,9","32,9","40,5","79,3","0"],
    [30511,"2017-07-24T17:00:00","80","16","ND","3,1","114,6","32,8","39,1","52","0"],
    [30512,"2017-07-24T18:00:00","105","27","ND","3,2","74,8","32,4","40,9","20,4","0"],
    [30513,"2017-07-24T19:00:00","115","26","ND","3,4","6","31","46,6","0,7","0"],
    [30514,"2017-07-24T20:00:00","50","3","ND","4","291,2","30,1","47,4","0","0"],
    [30515,"2017-07-24T21:00:00","71","12","ND","1,7","109,3","29,1","52,9","0","0"],
    [30516,"2017-07-24T22:00:00","45","7","ND","3,4","99","27,6","61","0","0"],
    [30517,"2017-07-24T23:00:00","27","1","ND","1,9","78,3","27,5","61,9","0","0"],
    [30518,"2017-07-25T00:00:00","21","ND","ND","0,8","178,6","27,6","61,2","0","0"],
    [30519,"2017-07-25T01:00:00","24","ND","ND","1,8","98,3","27,6","61,5","0","0"],
    [30520,"2017-07-25T02:00:00","15","ND","ND","1,6","103,4","26,9","64,1","0","0"],
    [30521,"2017-07-25T03:00:00","44","6","ND","2","137,6","26,6","66,7","0","0"],
    [30522,"2017-07-25T04:00:00","48","6","ND","0,8","177,2","26,4","67,9","0","0"],
    [30523,"2017-07-25T05:00:00","53","10","ND","1,4","221,9","25,9","69,6","0","0"],
    [30524,"2017-07-25T06:00:00","69","20","ND","1,7","173,6","25,8","69","0","0"],
    [30525,"2017-07-25T07:00:00","76","24","ND","2","156,7","25,5","71,3","9,9","0"],
    [30526,"2017-07-25T08:00:00","104","28","ND","1,3","143,5","26,3","68,3","47,9","0"],
    [30527,"2017-07-25T09:00:00","101","15","ND","2,2","162,2","29,1","55,7","167,7","0"],
    [30528,"2017-07-25T10:00:00","51","9","39,9","2,2","201,7","30,5","50","239,5","0"],
    [30529,"2017-07-25T11:00:00","48","7","62","2,2","178,1","32,6","44","346","0"],
    [30530,"2017-07-25T12:00:00","54","17","81,1","1,8","129,6","33,8","40,7","414,6","0"],
    [30531,"2017-07-25T13:00:00","56","16","75,9","3,6","148,8","33,7","40,7","192,9","0"],
    [30532,"2017-07-25T14:00:00","64","16","69,4","3,8","130,3","34","40,9","280,9","0"],
    [30533,"2017-07-25T15:00:00","56","13","93,2","2,1","131,7","34,8","35,8","249","0"],
    [30534,"2017-07-25T16:00:00","65","17","90,8","3,4","85,8","35","35,5","175,3","0"],
    [30535,"2017-07-25T17:00:00","66","20","73","4,5","49,1","34","39,1","51,6","0"],
    [30536,"2017-07-25T18:00:00","98","15","43,1","3,4","33,5","32,8","42,9","4,9","0"],
    [30537,"2017-07-25T19:00:00","49","9","32,3","3,7","299,3","31,5","45","0","0"],
    [30538,"2017-07-25T20:00:00","44","7","23","4,2","290,9","30,6","46,4","0","0"],
    [30539,"2017-07-25T21:00:00","36","8","17,7","3,3","306,1","30,2","47,8","0","0"],
    [30540,"2017-07-25T22:00:00","42","5","20","1,7","74,8","29","54,3","0","0"],
    [30541,"2017-07-25T23:00:00","42","4","14,1","2,5","80,6","27,7","61,6","0","0"],
    [30542,"2017-07-26T00:00:00","29","1","15,9","3","80,6","27,4","61,3","0","0"],
    [30543,"2017-07-26T01:00:00","4","ND","17,1","2,1","64,9","26,7","63,7","0","0"],
    [30544,"2017-07-26T02:00:00","63","ND","17","1,7","40,2","26,5","63,9","0","0"],
    [30545,"2017-07-26T03:00:00","32","3","13,8","2,3","88,9","25,6","68,2","0","0"],
    [30546,"2017-07-26T04:00:00","50","10","12,4","2,2","74,5","24,8","70,6","0","0"],
    [30547,"2017-07-26T05:00:00","53","11","11,9","1,2","65,1","24,6","70,5","0","0"],
    [30548,"2017-07-26T06:00:00","82","33","11,9","1,8","132,9","24,5","70,6","0","0"],
    [30549,"2017-07-26T07:00:00","80","21","11,3","1,2","208,3","24,6","66,9","12,9","0"],
    [30550,"2017-07-26T08:00:00","88","21","16,7","1,5","199,5","27,1","59,5","107,9","0"],
    [30551,"2017-07-26T09:00:00","69","17","26,6","2,5","113,4","29,2","52,5","210,7","0"],
    [30552,"2017-07-26T10:00:00","52","12","46,2","2,6","105,1","30,5","44,7","243,1","0"],
    [30553,"2017-07-26T11:00:00","37","7","65,2","2,2","66,6","33,1","36,5","409","0"],
    [30554,"2017-07-26T12:00:00","35","4","69,8","2,3","73,8","34,2","34,8","382","0"],
    [30555,"2017-07-26T13:00:00","39","7","77,8","3,9","88,1","34,2","33,2","299,1","0"],
    [30556,"2017-07-26T14:00:00","40","9","80,8","4,4","73,2","34,4","33,1","250,9","0"],
    [30557,"2017-07-26T15:00:00","84","14","88,1","5,3","76,7","34","35,1","181,8","0"],
    [30558,"2017-07-26T16:00:00","61","14","79,1","4,4","78,1","33,8","34,8","120,2","0"],
    [30559,"2017-07-26T17:00:00","120","24","56","4,5","68,7","33,1","36,6","46,5","0"],
    [30560,"2017-07-26T18:00:00","86","18","52,6","2,9","22,2","32,5","38,3","10,5","0"],
    [30561,"2017-07-26T19:00:00","61","6","42,4","4,1","296,8","31,1","43,3","0","0"],
    [30562,"2017-07-26T20:00:00","65","13","27,3","0,7","322","30,7","44,7","0","0"],
    [30563,"2017-07-26T21:00:00","66","14","16,2","2,1","102,7","29,4","51,5","0","0"],
    [30564,"2017-07-26T22:00:00","59","14","16,2","3,8","104,5","28,3","56,9","0","0"],
    [30565,"2017-07-26T23:00:00","34","8","19,9","1,3","3,5","28,4","55,2","0","0"],
    [30566,"2017-07-27T00:00:00","42","14","18,9","1,6","196,6","28,7","52,6","0","0"],
    [30567,"2017-07-27T01:00:00","33","7","17,5","2,7","89,5","27,1","61,4","0","0"],
    [30568,"2017-07-27T02:00:00","18","2","19,8","1,3","12,1","26,5","63,1","0","0"],
    [30569,"2017-07-27T03:00:00","26","4","18","2,4","120,6","26,2","64,8","0","0"],
    [30570,"2017-07-27T04:00:00","35","9","14,5","2,4","188,4","25,8","66,2","0","0"],
    [30571,"2017-07-27T05:00:00","64","12","14,3","2,4","200,6","25,6","61,1","0","0"],
    [30572,"2017-07-27T06:00:00","81","18","11,4","2","204,7","25,3","62","0","0"],
    [30573,"2017-07-27T07:00:00","89","26","12,4","1,7","166,2","25,3","62,9","13,5","0"],
    [30574,"2017-07-27T08:00:00","75","18","17,1","1,4","188,8","26,7","57,3","62,3","0"],
    [30575,"2017-07-27T09:00:00","82","19","26,9","1,7","159,5","28,6","51,7","131,9","0"],
    [30576,"2017-07-27T10:00:00","66","17","43,4","2,2","129,1","30,6","46","220,9","0"],
    [30577,"2017-07-27T11:00:00","53","17","66,4","2,5","141","32,5","40,7","291,6","0"],
    [30578,"2017-07-27T12:00:00","83","17","75,6","3,4","126,3","33","38","299,7","0"],
    [30579,"2017-07-27T13:00:00","55","7","84,3","3,1","174,5","33,9","34,6","226","0"],
    [30580,"2017-07-27T14:00:00","54","19","73,2","3,5","134,9","35","31,3","250,1","0"],
    [30581,"2017-07-27T15:00:00","72","42","67,1","4,2","93","34,7","31,6","248,1","0"],
    [30582,"2017-07-27T16:00:00","70","6","62,5","4,5","130,2","35,1","30,6","170,3","0"],
    [30583,"2017-07-27T17:00:00","67","13","42,7","4,9","116,7","33,6","33,7","112,3","0"],
    [30584,"2017-07-27T18:00:00","77","26","34,8","3,8","106,5","33,2","33,1","49,2","0"],
    [30585,"2017-07-27T19:00:00","78","19","36,2","2,3","224,1","32","35,2","0","0"],
    [30586,"2017-07-27T20:00:00","46","8","32,2","4,2","281,4","30,9","43,9","0","0"],
    [30587,"2017-07-27T21:00:00","46","7","22,8","3,9","284,9","30,3","46,2","0","0"],
    [30588,"2017-07-27T22:00:00","77","26","15","2,6","103,7","29,3","52,8","0","0"],
    [30589,"2017-07-27T23:00:00","65","11","14,7","3","127,1","28,3","58,9","0","0"],
    [30590,"2017-07-28T00:00:00","62","11","14,9","1,7","173,4","28","59,6","0","0"],
    [30591,"2017-07-28T01:00:00","42","10","16,9","2,2","181,5","27,6","61,6","0","0"],
    [30592,"2017-07-28T02:00:00","46","11","17,2","1,9","213,7","27,1","61,2","0","0"],
    [30593,"2017-07-28T03:00:00","48","11","19,6","1,7","170,4","27,2","52,8","0","0"],
    [30594,"2017-07-28T04:00:00","42","10","19,2","2,3","191,8","26,3","54,5","0","0"],
    [30595,"2017-07-28T05:00:00","31","8","18","1,9","172,6","26,3","51,8","0","0"],
    [30596,"2017-07-28T06:00:00","48","11","12,7","1,4","174,5","25,7","52,8","0","0"],
    [30597,"2017-07-28T07:00:00","57","16","14,1","2,8","230","25,2","54,5","10,2","0"],
    [30598,"2017-07-28T08:00:00","105","15","16,2","2,1","221,7","26,6","50,6","55","0"],
    [30599,"2017-07-28T09:00:00","58","11","26,1","3,1","150,8","28,4","40,6","155","0"],
    [30600,"2017-07-28T10:00:00","37","ND","39,8","2,8","142,1","30,2","34,6","251","0"],
    [30601,"2017-07-28T11:00:00","43","ND","52,3","2,3","109","32,3","31,1","306,8","0"],
    [30602,"2017-07-28T12:00:00","48","ND","70,3","2,6","92,1","33,4","29,5","317,6","0"],
    [30603,"2017-07-28T13:00:00","61","ND","87,6","3,4","64,8","34,4","29,4","311,8","0"],
    [30604,"2017-07-28T14:00:00","62","4","91,6","3,6","78","34,9","29,1","319,3","0"],
    [30605,"2017-07-28T15:00:00","47","3","70","2,9","104,3","35,9","26,7","254","0"],
    [30606,"2017-07-28T16:00:00","48","2","58,9","3,1","105,3","35,7","26,2","184,1","0"],
    [30607,"2017-07-28T17:00:00","42","ND","53,1","2,6","155,4","36,2","24,9","149,3","0"],
    [30608,"2017-07-28T18:00:00","94","15","46,5","2,1","226,6","33,8","31","21,4","0"],
    [30609,"2017-07-28T19:00:00","127","59","32,9","4,4","294,1","31,3","41,1","0","0"],
    [30610,"2017-07-28T20:00:00","90","38","23,7","4,8","294,3","30,3","44,1","0","0"],
    [30611,"2017-07-28T21:00:00","62","ND","16","3,2","80,3","28,3","55,3","0","0"],
    [30612,"2017-07-28T22:00:00","62","10","14,7","2,3","63,6","27,4","60","0","0"],
    [30613,"2017-07-28T23:00:00","38","ND","15,5","2,5","78,6","27,3","59,7","0","0"],
    [30614,"2017-07-29T00:00:00","33","ND","15,1","2,1","90,5","27","60,8","0","0"],
    [30615,"2017-07-29T01:00:00","45","ND","15,5","2,1","206,7","26,7","62,4","0","0"],
    [30616,"2017-07-29T02:00:00","39","4","15,4","2,5","105,7","26,6","62,7","0","0"],
    [30617,"2017-07-29T03:00:00","33","ND","16,6","1,4","134,5","26","64","0","0"],
    [30618,"2017-07-29T04:00:00","59","2","15","2,5","189,3","25,7","65,2","0","0"],
    [30619,"2017-07-29T05:00:00","69","4","12,1","1,7","134","25,3","67,5","0","0"],
    [30620,"2017-07-29T06:00:00","84","9","12","2,2","169,5","25,6","64,4","0","0"],
    [30621,"2017-07-29T07:00:00","87","7","11,6","2,2","133,3","25,2","66,1","5,6","0"],
    [30622,"2017-07-29T08:00:00","81","10","14,2","1,8","178,1","26,3","57,1","40,5","0"],
    [30623,"2017-07-29T09:00:00","92","18","17,4","2","137,6","27,6","51,4","75,7","0"],
    [30624,"2017-07-29T10:00:00","51","2","24,5","2","128,1","28,8","44","141,5","0"],
    [30625,"2017-07-29T11:00:00","69","3","43,1","2,7","165","30,6","38","182,4","0"],
    [30626,"2017-07-29T12:00:00","60","ND","63","3","159,2","32,2","35","233,7","0"],
    [30627,"2017-07-29T13:00:00","75","11","73,9","3,1","120,9","32,2","36,4","155,2","0"],
    [30628,"2017-07-29T14:00:00","85","10","84,1","4","89,6","33","36,8","253,2","0"],
    [30629,"2017-07-29T15:00:00","78","9","88,7","3,4","89,3","32,9","36,6","132,2","0"],
    [30630,"2017-07-29T16:00:00","92","25","71,9","5,4","103,3","32,2","37,6","85,4","0"],
    [30631,"2017-07-29T17:00:00","73","9","40,9","5,4","114,1","31","41","56,4","0"],
    [30632,"2017-07-29T18:00:00","62","9","18,8","2,7","102,7","30,6","41,6","36,4","0"],
    [30633,"2017-07-29T19:00:00","87","18","18,7","1,5","194,1","30","41,3","0","0"],
    [30634,"2017-07-29T20:00:00","93","6","16,2","1,9","203,8","29,3","44,3","0","0"],
    [30635,"2017-07-29T21:00:00","90","9","13,1","3,1","264,1","28,6","47,6","0","0"],
    [30636,"2017-07-29T22:00:00","88","10","17,6","1,5","285,3","27,6","53,6","0","0"],
    [30637,"2017-07-29T23:00:00","137","24","11,8","2,6","106,8","25,6","61,3","0","0"],
    [30638,"2017-07-30T00:00:00","96","20","11,7","1","51,7","25,6","61,4","0","0"],
    [30639,"2017-07-30T01:00:00","84","6","12,2","0,6","23,2","25,2","64,8","0","0"],
    [30640,"2017-07-30T02:00:00","127","44","11,2","2,3","111,4","23,8","68,6","0","0"],
    [30641,"2017-07-30T03:00:00","67","9","10,7","1,9","111,8","23,5","70,9","0","0"],
    [30642,"2017-07-30T04:00:00","86","16","11,1","1,2","180","23,6","71","0","0"],
    [30643,"2017-07-30T05:00:00","93","21","11","1,7","146,9","23,9","69,4","0","0"],
    [30644,"2017-07-30T06:00:00","85","17","11,4","2","144,1","23,7","69,6","0","0"],
    [30645,"2017-07-30T07:00:00","75","7","11,4","1,8","205","24","67,7","10,9","0"],
    [30646,"2017-07-30T08:00:00","79","11","15,7","1,7","191,3","25,2","61,5","47","0"],
    [30647,"2017-07-30T09:00:00","63","14","22,5","2,3","166,4","26,2","58,2","93,2","0"],
    [30648,"2017-07-30T10:00:00","48","8","33,1","2,2","161,9","28,2","50,1","141,8","0"],
    [30649,"2017-07-30T11:00:00","49","1","48,3","2,6","123","29,7","42,3","215,8","0"],
    [30650,"2017-07-30T12:00:00","42","2","71,1","1,9","160,7","30,9","37","215,3","0"],
    [30651,"2017-07-30T13:00:00","50","7","80,3","2,7","153,5","32,1","34,4","231,6","0"],
    [30652,"2017-07-30T14:00:00","59","5","66,8","4","132","32,4","34,5","220,3","0"],
    [30653,"2017-07-30T15:00:00","61","6","67,8","4,9","125,2","31,4","38,4","105","0"],
    [30654,"2017-07-30T16:00:00","68","16","66","3,5","123,8","31,1","38,6","71,8","0"],
    [30655,"2017-07-30T17:00:00","62","8","56,9","3","85,1","31,1","38,6","58,3","0"],
    [30656,"2017-07-30T18:00:00","59","10","46,3","2","99,2","31","37,4","23","0"],
    [30657,"2017-07-30T19:00:00","51","9","67,5","1,1","226,2","30,1","40","0","0"],
    [30658,"2017-07-30T20:00:00","111","20","23,5","0,6","181,2","29,1","46","0","0"],
    [30659,"2017-07-30T21:00:00","82","17","15,8","1,5","82,8","28,4","52,5","0","0"],
    [30660,"2017-07-30T22:00:00","66","7","15,3","1,7","96","27,9","52","0","0"],
    [30661,"2017-07-30T23:00:00","76","7","15,4","1,3","136,8","27,5","48,8","0","0"],
    [30662,"2017-07-31T00:00:00","49","6","23,5","1","196,7","26,8","46,6","0","0"],
    [30663,"2017-07-31T01:00:00","62","5","20,8","2,8","76","26,2","50,6","0","0"],
    [30664,"2017-07-31T02:00:00","59","6","15","1,4","357","24,9","58,9","0","0"],
    [30665,"2017-07-31T03:00:00","43","ND","16,4","2,1","337,6","24,6","62,9","0","0"],
    [30666,"2017-07-31T04:00:00","50","ND","14,6","1,3","26,6","24,1","62,1","0","0"],
    [30667,"2017-07-31T05:00:00","69","6","12","2,2","70,1","23,7","61,1","0","0"],
    [30668,"2017-07-31T06:00:00","87","20","10,6","1,3","64,5","23,9","59,7","0","0"],
    [30669,"2017-07-31T07:00:00","73","14","11,7","1,4","322,5","23,7","65,6","17,3","0"],
    [30670,"2017-07-31T08:00:00","99","31","14,1","1","104,5","25,5","57,6","65,8","0"],
    [30671,"2017-07-31T09:00:00","86","16","34,7","0,2","130,8","28,5","47,3","194,9","0"],
    [30672,"2017-07-31T10:00:00","45","5","64,3","1,4","182,6","31,1","35,2","282,9","0"],
    [30673,"2017-07-31T11:00:00","48","2","72,7","2,9","180,9","32,6","30,5","361,4","0"],
    [30674,"2017-07-31T12:00:00","50","3","69","3,2","168,4","34,5","26,1","393,3","0"],
    [30675,"2017-07-31T13:00:00","58","3","64,6","5,9","124,3","34,2","27,1","383","0"],
    [30676,"2017-07-31T14:00:00","52","2","62,2","5,8","106,7","33,6","28,8","291,9","0"],
    [30677,"2017-07-31T15:00:00","40","1","58,8","4","123,4","34,5","24,9","233,2","0"],
    [30678,"2017-07-31T16:00:00","56","9","59","4,9","104,4","33,9","27,6","221,7","0"],
    [30679,"2017-07-31T17:00:00","56","6","54,7","3,2","140,3","33,9","27,2","121,8","0"],
    [30680,"2017-07-31T18:00:00","58","8","42,5","3,3","128,9","33,7","27,5","66,3","0"],
    [30681,"2017-07-31T19:00:00","91","13","31,7","1,8","256,2","31,5","34,3","0","0"],
    [30682,"2017-07-31T20:00:00","56","10","32","5","296,4","29,6","41,7","0","0"],
    [30683,"2017-07-31T21:00:00","63","8","21,3","1,6","344,4","28,7","44,9","0","0"],
    [30684,"2017-07-31T22:00:00","65","9","16,2","2,8","95,4","26,1","59,1","0","0"],
    [30685,"2017-07-31T23:00:00","61","10","14,7","1,3","90","25,8","59,4","0","0"],
    [30686,"2017-08-01T00:00:00","52","8","17,4","3","94,7","24,7","63,3","0","0"],
    [30687,"2017-08-01T01:00:00","31","6","21","1,3","93,4","24,3","64,2","0","0"],
    [30688,"2017-08-01T02:00:00","53","6","13","1","183,3","23,9","66,3","0","0"],
    [30689,"2017-08-01T03:00:00","51","7","13","1","127,1","23,6","66,3","0","0"],
    [30690,"2017-08-01T04:00:00","40","12","12,5","2,1","125,2","23,2","65,8","0","0"],
    [30691,"2017-08-01T05:00:00","68","27","12,3","1,6","141,5","22","61,7","0","0"],
    [30692,"2017-08-01T06:00:00","89","26","10,4","1,4","119,1","21,8","61,5","0","0"],
    [30693,"2017-08-01T07:00:00","89","22","12,7","1,7","169,2","22,4","56,7","21,9","0"],
    [30694,"2017-08-01T08:00:00","88","19","15","2,5","126,4","22,8","57,8","61,4","0"],
    [30695,"2017-08-01T09:00:00","110","28","24,9","2","120,2","24,8","54,3","148,6","0"],
    [30696,"2017-08-01T10:00:00","78","25","50,7","2,1","106,1","28,7","41","286,3","0"],
    [30697,"2017-08-01T11:00:00","70","17","68,2","1,2","109,9","30,8","37,5","355,5","0"],
    [30698,"2017-08-01T12:00:00","65","5","81,7","0,7","8,9","32,6","33,5","407,2","0"],
    [30699,"2017-08-01T13:00:00","43","7","79,5","2,5","76,2","34,2","28,9","417,3","0"],
    [30700,"2017-08-01T14:00:00","50","9","100","4,1","51,9","35","26,2","374,3","0"],
    [30701,"2017-08-01T15:00:00","50","7","104,1","4,3","69,3","35,2","27,3","322,8","0"],
    [30702,"2017-08-01T16:00:00","48","7","105,6","3,3","56,2","35,6","26,7","231,4","0"],
    [30703,"2017-08-01T17:00:00","56","4","86,6","4","6","34,6","30","111,7","0"],
    [30704,"2017-08-01T18:00:00","49","3","61,4","6","304,7","32,7","35,9","42,8","0"],
    [30705,"2017-08-01T19:00:00","63","5","37,2","5","297,4","30,4","40,9","0","0"],
    [30706,"2017-08-01T20:00:00","54","11","24","3,8","302,9","29,5","43,9","0","0"],
    [30707,"2017-08-01T21:00:00","68","26","16,5","3,6","91,5","27,1","54,7","0","0"],
    [30708,"2017-08-01T22:00:00","54","13","14,5","2,6","109,5","26","59,5","0","0"],
    [30709,"2017-08-01T23:00:00","57","11","16,8","2,3","88,8","26","58,5","0","0"],
    [30710,"2017-08-02T00:00:00","51","8","16,9","2,6","62,8","25,4","60,7","0","0"],
    [30711,"2017-08-02T01:00:00","39","4","18,4","1,4","351,5","24,7","63","0","0"],
    [30712,"2017-08-02T02:00:00","52","10","18,6","1,7","157,3","24,9","62,2","0","0"],
    [30713,"2017-08-02T03:00:00","69","13","16,6","1,7","170,6","24,2","65,3","0","0"],
    [30714,"2017-08-02T04:00:00","86","26","16,9","2,7","207,6","23,8","65,9","0","0"],
    [30715,"2017-08-02T05:00:00","78","25","14,9","1,8","181,8","23,8","64,9","0","0"],
    [30716,"2017-08-02T06:00:00","94","39","12,6","1,3","177,6","22,5","69,2","0","0"],
    [30717,"2017-08-02T07:00:00","87","34","11,6","0,3","74,4","22,7","68,3","14,6","0"],
    [30718,"2017-08-02T08:00:00","180","58","15,7","1,9","33,6","25","61,6","85,2","0"],
    [30719,"2017-08-02T09:00:00","111","35","35,1","2,2","117,1","27,2","54,8","181","0"],
    [30720,"2017-08-02T10:00:00","87","19","63,6","2,3","153,3","29,5","47,1","269,9","0"],
    [30721,"2017-08-02T11:00:00","104","25","95,7","1,9","109,6","31,6","42","342,4","0"],
    [30722,"2017-08-02T12:00:00","61","17","101,8","2,1","122,2","33,4","36,2","388,7","0"],
    [30723,"2017-08-02T13:00:00","60","9","115,6","1","100,2","34,7","32,4","382,8","0"],
    [30724,"2017-08-02T14:00:00","77","6","148,6","2,6","44,3","35,9","30,5","364,4","0"],
    [30725,"2017-08-02T15:00:00","88","34","156,7","4,1","21,9","35,7","30,7","228,9","0"],
    [30726,"2017-08-02T16:00:00","66","11","90","3,8","24,8","35,4","30,9","146,6","0"],
    [30727,"2017-08-02T17:00:00","54","4","59,6","4,4","20,2","35,5","30,9","138,4","0"],
    [30728,"2017-08-02T18:00:00","60","5","49,3","5","301,5","33,3","35,5","29,1","0"],
    [30729,"2017-08-02T19:00:00","73","6","26,5","3,2","298,6","31,6","39,5","0","0"],
    [30730,"2017-08-02T20:00:00","91","25","16,3","2,4","51,2","30,1","44,4","0","0"],
    [30731,"2017-08-02T21:00:00","78","28","12,6","2,8","93,1","27,9","54,8","0","0"],
    [30732,"2017-08-02T22:00:00","67","5","14","3,1","111","26,8","60,4","0","0"],
    [30733,"2017-08-02T23:00:00","65","16","12,8","1,7","109,5","26,9","59,8","0","0"],
    [30734,"2017-08-03T00:00:00","51","4","13,4","1,4","113,9","26,1","62,8","0","0"],
    [30735,"2017-08-03T01:00:00","54","18","13,6","1,8","156,3","25,7","64,5","0","0"],
    [30736,"2017-08-03T02:00:00","59","8","15,6","1,8","195,5","25,3","66,5","0","0"],
    [30737,"2017-08-03T03:00:00","59","16","12,7","1,8","84,4","25","67,6","0","0"],
    [30738,"2017-08-03T04:00:00","66","20","11,4","1,5","156,6","24,4","69,6","0","0"],
    [30739,"2017-08-03T05:00:00","94","20","11,1","2,2","131","23,3","72,9","0","0"],
    [30740,"2017-08-03T06:00:00","104","27","11,1","2,1","186,1","23,1","73,4","0","0"],
    [30741,"2017-08-03T07:00:00","116","24","11,5","1,6","132,1","23,5","71,3","15,7","0"],
    [30742,"2017-08-03T08:00:00","124","36","14,4","2,6","108,7","25,6","64,3","86,9","0"],
    [30743,"2017-08-03T09:00:00","91","24","29,4","2,1","77,6","27,6","57,5","183,8","0"],
    [30744,"2017-08-03T10:00:00","70","6","56,6","1,7","128,4","30,2","48,1","275,5","0"],
    [30745,"2017-08-03T11:00:00","58","5","86,2","2,6","205,1","32","42,3","347","0"],
    [30746,"2017-08-03T12:00:00","59","6","92","2,2","131","34,2","36,6","390,9","0"],
    [30747,"2017-08-03T13:00:00","53","6","91","2","64,3","35,7","33,2","399,8","0"],
    [30748,"2017-08-03T14:00:00","68","3","106,4","2,2","86,7","36,6","30","373,5","0"],
    [30749,"2017-08-03T15:00:00","57","15","107,7","3,4","99,5","37,1","28,5","305,9","0"],
    [30750,"2017-08-03T16:00:00","76","22","152","1,9","40,5","37,2","28,6","200,8","0"],
    [30751,"2017-08-03T17:00:00","72","ND","107","5,3","311,3","36","33,4","130","0"],
    [30752,"2017-08-03T18:00:00","53","9","ND","6,6","313,9","33,5","38,3","37,3","0"],
    [30753,"2017-08-03T19:00:00","63","12","ND","6,6","308,5","31,7","43,3","0","0"],
    [30754,"2017-08-03T20:00:00","59","7","ND","4,4","333,3","31,3","45,3","0","0"],
    [30755,"2017-08-03T21:00:00","75","21","ND","2,8","98,4","30,3","50,2","0","0"],
    [30756,"2017-08-03T22:00:00","75","14","ND","2,8","271,8","29,7","53,5","0","0"],
    [30757,"2017-08-03T23:00:00","69","15","ND","4","197,5","28,9","56,8","0","0,51"],
    [30758,"2017-08-04T00:00:00","59","14","ND","2,4","236,4","27,2","65,3","0","0"],
    [30759,"2017-08-04T01:00:00","46","10","ND","1,6","185,4","27","64,3","0","0"],
    [30760,"2017-08-04T02:00:00","70","8","ND","1,8","143,2","26","69,5","0","0"],
    [30761,"2017-08-04T03:00:00","62","13","ND","2,4","135,4","26,2","67,7","0","0"],
    [30762,"2017-08-04T04:00:00","57","10","ND","1,4","197,5","26,1","67,4","0","0"],
    [30763,"2017-08-04T05:00:00","101","18","ND","1,1","141","25","71,7","0","0"],
    [30764,"2017-08-04T06:00:00","125","48","ND","0,9","170,6","25,2","70,1","0","0"],
    [30765,"2017-08-04T07:00:00","130","41","ND","2,7","99","24,9","71,5","6,1","0"],
    [30766,"2017-08-04T08:00:00","122","32","ND","2,6","163,5","25,5","69,2","35","0"],
    [30767,"2017-08-04T09:00:00","128","25","ND","2","186,5","26,8","62,8","81,3","0"],
    [30768,"2017-08-04T10:00:00","63","10","ND","2,6","151,3","29,5","52,9","205,3","0"],
    [30769,"2017-08-04T11:00:00","40","1","ND","0,7","198,5","31,3","45,9","251,5","0"],
    [30770,"2017-08-04T12:00:00","57","15","ND","2,6","152,7","31,1","46,5","135,4","0"],
    [30771,"2017-08-04T13:00:00","58","14","ND","3,5","174,8","31,4","46,8","122,2","0,25"],
    [30772,"2017-08-04T14:00:00","54","7","ND","4,3","65,2","28,2","66,3","126,8","1,27"],
    [30773,"2017-08-04T15:00:00","51","8","ND","3,2","46,6","30,3","52,7","222,8","0"],
    [30774,"2017-08-04T16:00:00","38","5","ND","5,7","36,7","29,5","48,1","94,2","0"],
    [30775,"2017-08-04T17:00:00","35","3","ND","5,5","45,4","29,4","45,3","91,2","0"],
    [30776,"2017-08-04T18:00:00","41","3","ND","5","44,3","29,5","44,2","44,3","0"],
    [30777,"2017-08-04T19:00:00","71","7","ND","3,6","46,5","28","55,7","0","0"],
    [30778,"2017-08-04T20:00:00","64","9","ND","2,1","77","26,5","63,4","0","0"],
    [30779,"2017-08-04T21:00:00","58","11","ND","1,2","93,7","26,3","62,4","0","0"],
    [30780,"2017-08-04T22:00:00","49","7","ND","1,8","48,7","25,8","65,3","0","0"],
    [30781,"2017-08-04T23:00:00","61","10","ND","2,3","93,3","25,1","69,6","0","0"],
    [30782,"2017-08-05T00:00:00","43","6","ND","1,1","80,7","24,4","73,7","0","0"],
    [30783,"2017-08-05T01:00:00","46","ND","ND","2","125,4","24,2","74,8","0","0"],
    [30784,"2017-08-05T02:00:00","60","12","ND","1,2","135","23,8","75,1","0","0"],
    [30785,"2017-08-05T03:00:00","52","13","ND","1,9","67,5","23,5","75,4","0","0"],
    [30786,"2017-08-05T04:00:00","48","10","ND","0,5","138,6","23,1","76,3","0","0"],
    [30787,"2017-08-05T05:00:00","63","16","ND","1,9","139,3","22,4","76,7","0","0"],
    [30788,"2017-08-05T06:00:00","87","19","ND","1,6","164,8","22,1","76,9","0","0"],
    [30789,"2017-08-05T07:00:00","87","22","ND","1,7","162,4","22,3","76,2","11,1","0"],
    [30790,"2017-08-05T08:00:00","101","29","ND","0,5","145,4","24,1","70,4","75,4","0"],
    [30791,"2017-08-05T09:00:00","ND","ND","ND","1,9","130,7","26,2","64,5","159","0"],
    [30792,"2017-08-05T10:00:00","95","33","ND","2,3","138,7","28,5","54,8","283,2","0"],
    [30793,"2017-08-05T11:00:00","113","53","72","3,2","119,2","29,8","48,8","247,2","0"],
    [30794,"2017-08-05T12:00:00","64","23","100,1","1","109,4","31,2","42","250,8","0"],
    [30795,"2017-08-05T13:00:00","62","21","111,8","2,7","106,1","33,5","37","402","0"],
    [30796,"2017-08-05T14:00:00","57","12","89,6","4,1","67,2","33,4","35,1","251,7","0"],
    [30797,"2017-08-05T15:00:00","64","19","111,6","4,5","62","33,5","36,7","215,3","0"],
    [30798,"2017-08-05T16:00:00","61","21","102,5","4,2","45,6","32,6","38,7","68,7","0"],
    [30799,"2017-08-05T17:00:00","57","13","79,8","4,4","49,5","32,9","39,4","92,2","0"],
    [30800,"2017-08-05T18:00:00","46","6","56","3,4","311,7","31,8","40,5","34,8","0"],
    [30801,"2017-08-05T19:00:00","38","3","47,1","5,8","290,2","30,4","42,6","0","0"],
    [30802,"2017-08-05T20:00:00","33","3","38,7","4,8","299,5","29,7","44,6","0","0"],
    [30803,"2017-08-05T21:00:00","65","17","18,3","3,7","97,6","28","54,7","0","0"],
    [30804,"2017-08-05T22:00:00","47","4","17,9","3,7","84,7","27","58,4","0","0"],
    [30805,"2017-08-05T23:00:00","31","12","20,3","2,2","36,1","26,8","58,5","0","0"],
    [30806,"2017-08-06T00:00:00","38","7","21,8","1,8","36,8","27,1","57,4","0","0"],
    [30807,"2017-08-06T01:00:00","36","3","20,7","2,4","38","26,9","59","0","0"],
    [30808,"2017-08-06T02:00:00","22","3","23,8","1,6","85,5","26,5","61,2","0","0"],
    [30809,"2017-08-06T03:00:00","41","3","21,4","1,6","84,7","26,2","62,5","0","0"],
    [30810,"2017-08-06T04:00:00","45","9","15,5","1,3","164,5","26","64,4","0","0"],
    [30811,"2017-08-06T05:00:00","67","13","11,3","2,2","136","25,6","67,8","0","0"],
    [30812,"2017-08-06T06:00:00","73","16","11,6","2","116,5","25,1","70","0","0"],
    [30813,"2017-08-06T07:00:00","69","19","13,6","2","203,7","25","69,5","10,9","0"],
    [30814,"2017-08-06T08:00:00","71","16","18,7","2,5","139,2","26,4","64,8","89,5","0"],
    [30815,"2017-08-06T09:00:00","58","12","39,6","2,1","135,5","28,3","55,2","131,4","0"],
    [30816,"2017-08-06T10:00:00","57","10","59,5","2,8","149","30,3","49,1","282,4","0"],
    [30817,"2017-08-06T11:00:00","59","21","94,6","2,1","202,8","32,6","42","375,3","0"],
    [30818,"2017-08-06T12:00:00","56","11","103,3","2,4","182,2","33,5","38,6","332,5","0"],
    [30819,"2017-08-06T13:00:00","56","11","100,2","2,3","161,7","35,1","33,5","378,3","0"],
    [30820,"2017-08-06T14:00:00","40","6","99,4","1,9","228","35,3","31,6","251,1","0"],
    [30821,"2017-08-06T15:00:00","49","2","96,1","1,6","82,7","37,1","27,4","337,6","0"],
    [30822,"2017-08-06T16:00:00","51","16","110,4","3,8","35,5","35,5","31,8","134,9","0"],
    [30823,"2017-08-06T17:00:00","42","7","94,7","5,4","3,3","35,2","33,2","146,4","0"],
    [30824,"2017-08-06T18:00:00","39","15","71,2","4,1","355,5","34,1","34,2","49,3","0"],
    [30825,"2017-08-06T19:00:00","42","8","50,8","4,9","292,8","31,7","39,2","0","0"],
    [30826,"2017-08-06T20:00:00","38","4","34,3","2","313,7","30,1","44,4","0","0"],
    [30827,"2017-08-06T21:00:00","54","7","18,9","3,2","98,4","27,8","54,9","0","0"],
    [30828,"2017-08-06T22:00:00","51","7","18,7","2,9","103,1","27,3","57,2","0","0"],
    [30829,"2017-08-06T23:00:00","80","20","18,8","2,3","186,5","27,1","58,2","0","0"],
    [30830,"2017-08-07T00:00:00","88","37","17","2,2","108,7","26,6","60,8","0","0"],
    [30831,"2017-08-07T01:00:00","90","34","16,8","1,7","139,3","26,4","62,1","0","0"],
    [30832,"2017-08-07T02:00:00","95","53","20,3","0,8","166,8","26,7","60,5","0","0"],
    [30833,"2017-08-07T03:00:00","107","60","23,3","1,8","186,2","27,2","58,6","0","0"],
    [30834,"2017-08-07T04:00:00","85","33","19,1","2,2","175,5","26,8","60,9","0","0"],
    [30835,"2017-08-07T05:00:00","63","14","15,7","1,6","150,4","26,2","63,2","0","0"],
    [30836,"2017-08-07T06:00:00","87","27","13,8","1,7","154,1","25,7","65,8","0","0"],
    [30837,"2017-08-07T07:00:00","75","24","12,5","1,4","149,6","25,7","65,4","12,6","0"],
    [30838,"2017-08-07T08:00:00","52","17","16,6","1,6","132,7","27,3","58,4","69,2","0"],
    [30839,"2017-08-07T09:00:00","99","14","25,4","2,3","157,7","28,6","55,1","113,7","0"],
    [30840,"2017-08-07T10:00:00","59","16","43,7","2,3","139,5","29,9","51,2","170,9","0"],
    [30841,"2017-08-07T11:00:00","80","27","68,7","2,8","145,5","31,6","46,3","295,7","0"],
    [30842,"2017-08-07T12:00:00","54","15","68,3","3,5","119,8","33,1","39","330,2","0"],
    [30843,"2017-08-07T13:00:00","45","10","73","3,6","135,3","34,2","33","323,3","0"],
    [30844,"2017-08-07T14:00:00","45","6","82,9","3,2","81,9","35,5","31,1","328,7","0"],
    [30845,"2017-08-07T15:00:00","41","10","116,5","0,4","16,6","36,4","29,6","308,6","0"],
    [30846,"2017-08-07T16:00:00","56","22","127,7","4,3","14,6","36,1","31,2","209,4","0"],
    [30847,"2017-08-07T17:00:00","41","2","83,7","3,2","329,5","35,4","33,6","124,4","0"],
    [30848,"2017-08-07T18:00:00","39","ND","49,8","6,5","310,5","32,6","38,4","21,6","0"],
    [30849,"2017-08-07T19:00:00","35","ND","36,3","6,2","311,4","31,1","42","0","0"],
    [30850,"2017-08-07T20:00:00","33","ND","32,7","4,5","310,5","30,2","45,3","0","0"],
    [30851,"2017-08-07T21:00:00","53","11","19,1","2,4","85,8","29,3","50","0","0"],
    [30852,"2017-08-07T22:00:00","48","10","17,1","3,1","101,7","28,1","55","0","0"],
    [30853,"2017-08-07T23:00:00","40","6","15,9","2,3","284,5","27,8","56,6","0","0"],
    [30854,"2017-08-08T00:00:00","37","1","18,5","3,4","113,3","26,7","60,4","0","0"],
    [30855,"2017-08-08T01:00:00","30","ND","19,2","2,5","74,2","25,8","64,4","0","0"],
    [30856,"2017-08-08T02:00:00","34","ND","23,5","0,9","16,9","26,1","62,8","0","0"],
    [30857,"2017-08-08T03:00:00","27","ND","23,6","2,2","178,7","26,5","60,6","0","0"],
    [30858,"2017-08-08T04:00:00","31","ND","22,7","1,9","210,4","26,2","62,2","0","0"],
    [30859,"2017-08-08T05:00:00","52","5","16,2","1,9","164,2","25,9","64,2","0","0"],
    [30860,"2017-08-08T06:00:00","69","18","11,5","1,2","145,1","25,3","67,5","0","0"],
    [30861,"2017-08-08T07:00:00","82","13","12,8","1,8","195,9","25,6","66,1","14,2","0"],
    [30862,"2017-08-08T08:00:00","95","8","18,8","2,4","189,7","27,2","60,7","98","0"],
    [30863,"2017-08-08T09:00:00","70","15","30,1","2,4","163,9","29,3","53,4","198,2","0"],
    [30864,"2017-08-08T10:00:00","65","7","41,6","3","136,6","31,1","46,8","246,9","0"],
    [30865,"2017-08-08T11:00:00","64","9","53,5","2,9","114,5","31,1","46,6","200,7","0"],
    [30866,"2017-08-08T12:00:00","52","8","63","3,2","74,4","32,3","43,8","292,5","0"],
    [30867,"2017-08-08T13:00:00","42","4","81,7","1,7","165,8","34,8","36,3","410,3","0"],
    [30868,"2017-08-08T14:00:00","45","6","84,3","3","153,2","36","31,8","383,5","0"],
    [30869,"2017-08-08T15:00:00","49","2","84,3","1,8","162,2","36,9","29,6","311,9","0"],
    [30870,"2017-08-08T16:00:00","52","5","81,4","3","135,2","36,1","31,4","176,5","0"],
    [30871,"2017-08-08T17:00:00","55","6","96,8","1,7","193,5","35,8","32,7","92,3","0"],
    [30872,"2017-08-08T18:00:00","55","8","77","5,8","301","33,2","37,7","17,8","0"],
    [30873,"2017-08-08T19:00:00","68","10","35,1","4,5","325,3","31,3","42,1","0","0"],
    [30874,"2017-08-08T20:00:00","59","5","27,8","1,7","315","30,3","45,7","0","0"],
    [30875,"2017-08-08T21:00:00","67","19","20,3","3,7","83,7","28,1","56,2","0","0"],
    [30876,"2017-08-08T22:00:00","55","8","17,1","2,4","80,9","27,3","59,7","0","0"],
    [30877,"2017-08-08T23:00:00","47","7","18,9","1,8","195,8","27,7","58,3","0","0"],
    [30878,"2017-08-09T00:00:00","90","31","20,9","3,3","198,8","27,4","60,3","0","0"],
    [30879,"2017-08-09T01:00:00","69","9","20","1,2","152,9","27,2","61,4","0","0"],
    [30880,"2017-08-09T02:00:00","54","13","23","1,4","101,9","27,2","61","0","0"],
    [30881,"2017-08-09T03:00:00","45","7","17,6","1,7","100,7","26,5","64,7","0","0"],
    [30882,"2017-08-09T04:00:00","67","9","17,8","2","225","26,8","63,4","0","0"],
    [30883,"2017-08-09T05:00:00","61","10","14,3","1,1","214,4","26","68,4","0","0,25"],
    [30884,"2017-08-09T06:00:00","94","27","11,7","2,3","125,8","25,7","70","0","0"],
    [30885,"2017-08-09T07:00:00","86","17","11,7","1,4","110","25,6","69,7","0","0"],
    [30886,"2017-08-09T08:00:00","96","16","13","1,3","82,2","26,3","67,4","29,6","0"],
    [30887,"2017-08-09T09:00:00","68","17","19,8","1,4","179,8","27,8","60,6","80,5","0"],
    [30888,"2017-08-09T10:00:00","79","18","35,5","0,6","218,2","29,4","54,3","125,4","0"],
    [30889,"2017-08-09T11:00:00","55","16","45,2","3,1","62","30,6","50,1","234,2","0"],
    [30890,"2017-08-09T12:00:00","29","ND","56,3","3,1","72,7","31,7","46,4","260","0"],
    [30891,"2017-08-09T13:00:00","38","ND","73,3","1,6","112,7","34,1","36,8","312,7","0"],
    [30892,"2017-08-09T14:00:00","29","9","71,9","3","99,5","34,3","35,9","284,1","0"],
    [30893,"2017-08-09T15:00:00","56","7","80,7","3,1","131,6","34","37","177","0"],
    [30894,"2017-08-09T16:00:00","83","8","89,2","4,6","189,8","33,6","39","139,3","0"],
    [30895,"2017-08-09T17:00:00","62","9","50","3,6","349,6","28,5","53,8","12,3","0"],
    [30896,"2017-08-09T18:00:00","67","24","34,4","2,4","46,1","28,6","52,1","18,2","0"],
    [30897,"2017-08-09T19:00:00","68","12","16,8","3,5","67,4","26,6","65,7","0","0"],
    [30898,"2017-08-09T20:00:00","61","11","13,5","3,6","73,2","26,3","65,7","0","0"],
    [30899,"2017-08-09T21:00:00","51","15","12,4","2,3","61,9","26,2","66,8","0","0"],
    [30900,"2017-08-09T22:00:00","45","8","12,6","2,7","71","25,7","66,5","0","0"],
    [30901,"2017-08-09T23:00:00","35","1","14,7","0,6","328,7","25,7","64,9","0","0"],
    [30902,"2017-08-10T00:00:00","74","13","11,9","2,6","220,1","24,8","70","0","0"],
    [30903,"2017-08-10T01:00:00","69","13","11,5","2,1","168,2","24,6","71,4","0","0"],
    [30904,"2017-08-10T02:00:00","80","7","11,3","1,4","151,4","24,3","72,8","0","0"],
    [30905,"2017-08-10T03:00:00","63","7","12,5","1,5","172,6","24,3","71,6","0","0"],
    [30906,"2017-08-10T04:00:00","75","20","10,9","0,6","99,8","23,4","74,2","0","0"],
    [30907,"2017-08-10T05:00:00","99","14","11","1,8","114,4","22,9","75,4","0","0"],
    [30908,"2017-08-10T06:00:00","110","29","11","1,5","163,1","23,6","72,4","0","0"],
    [30909,"2017-08-10T07:00:00","99","29","11,5","0,9","131,8","24,1","70,7","7,9","0"],
    [30910,"2017-08-10T08:00:00","92","24","12,1","0,3","183,3","24,6","68,7","38,4","0"],
    [30911,"2017-08-10T09:00:00","78","16","16,9","1,8","179,4","26,7","60,5","96,4","0"],
    [30912,"2017-08-10T10:00:00","77","13","35,5","3","160,7","29,1","52,3","285,3","0"],
    [30913,"2017-08-10T11:00:00","66","9","71,8","1,8","176,3","31","45,7","352,5","0"],
    [30914,"2017-08-10T12:00:00","61","14","86","3,1","122,6","32,1","42,2","297,2","0"],
    [30915,"2017-08-10T13:00:00","67","18","82","3,6","102,2","33,6","38,7","334,6","0"],
    [30916,"2017-08-10T14:00:00","68","21","96,5","2,4","66,8","34,5","34,9","313,2","0"],
    [30917,"2017-08-10T15:00:00","58","9","118,2","2,8","97,8","35,5","30,3","311,8","0"],
    [30918,"2017-08-10T16:00:00","89","42","133","2,9","61,4","35,5","31,3","180,4","0"],
    [30919,"2017-08-10T17:00:00","72","13","116,4","4,3","303,7","34,4","34,4","92,1","0"],
    [30920,"2017-08-10T18:00:00","172","ND","63,6","6,2","299,5","32,3","38,9","13,8","0"],
    [30921,"2017-08-10T19:00:00","108","36","34,4","5,7","298,8","30,8","42,9","0","0"],
    [30922,"2017-08-10T20:00:00","58","6","19,6","1,4","64,7","29,8","48,1","0","0"],
    [30923,"2017-08-10T21:00:00","52","8","16,7","3,8","98,2","28,7","53,9","0","0"],
    [30924,"2017-08-10T22:00:00","65","14","17,8","2,8","106,6","27,5","59,8","0","0"],
    [30925,"2017-08-10T23:00:00","43","9","14,9","2,8","69,9","27,2","59,8","0","0"],
    [30926,"2017-08-11T00:00:00","21","ND","16,3","4,1","90,4","26,6","62","0","0"],
    [30927,"2017-08-11T01:00:00","34","ND","20,3","1,9","128,4","26,6","61,9","0","0"],
    [30928,"2017-08-11T02:00:00","23","ND","22","1,6","119","26,7","60,9","0","0"],
    [30929,"2017-08-11T03:00:00","29","ND","18,9","1,1","176,1","26,4","64,6","0","0"],
    [30930,"2017-08-11T04:00:00","44","5","15,7","2,2","232,5","26,2","66,1","0","0"],
    [30931,"2017-08-11T05:00:00","41","5","14,9","0,9","176,1","26,1","67,2","0","0"],
    [30932,"2017-08-11T06:00:00","49","3","12,1","0,4","62","24,9","74,2","0","18,29"],
    [30933,"2017-08-11T07:00:00","27","2","13,3","1,4","229,8","24,5","77,1","0","0,25"],
    [30934,"2017-08-11T08:00:00","51","11","12,3","1,3","38","24,2","79,3","18,3","11,94"],
    [30935,"2017-08-11T09:00:00","31","11","14,8","2,6","132,1","25,1","75,5","40,9","0"],
    [30936,"2017-08-11T10:00:00","28","9","18,6","3,5","178,2","24,5","75,2","40","1,27"],
    [30937,"2017-08-11T11:00:00","18","2","30,1","3,8","173","25,5","71","150,4","0"],
    [30938,"2017-08-11T12:00:00","31","ND","35,9","3,6","153,8","27,2","63,7","242,7","0"],
    [30939,"2017-08-11T13:00:00","29","ND","56,7","2,6","182,3","29,2","55,8","302,1","0"],
    [30940,"2017-08-11T14:00:00","24","ND","85,9","1,3","254,9","30,7","47,6","313,5","0"],
    [30941,"2017-08-11T15:00:00","35","ND","86,7","2,7","121,8","31,3","44,4","240,5","0"],
    [30942,"2017-08-11T16:00:00","47","1","77,6","3,1","115,7","31,5","43,7","173","0"],
    [30943,"2017-08-11T17:00:00","53","2","90,1","1,4","264,9","30,9","46,4","51,5","0"],
    [30944,"2017-08-11T18:00:00","25","ND","40,6","4,9","275,5","30","45,4","39","0"],
    [30945,"2017-08-11T19:00:00","49","4","16","2,4","322,5","29","48,3","0","0"],
    [30946,"2017-08-11T20:00:00","26","7","20,9","3","310,4","27,9","48,8","0","0"],
    [30947,"2017-08-11T21:00:00","73","16","13,2","2,3","89,2","26,8","57,3","0","0"],
    [30948,"2017-08-11T22:00:00","47","7","13","2,9","99,7","25,3","66,1","0","0"],
    [30949,"2017-08-11T23:00:00","38","2","14,3","4","70,9","24,6","67,8","0","0"],
    [30950,"2017-08-12T00:00:00","28","ND","15,2","1,6","12,8","24,6","66,7","0","0"],
    [30951,"2017-08-12T01:00:00","33","5","13","1,4","93,2","24","69,6","0","0"],
    [30952,"2017-08-12T02:00:00","35","6","11,6","0,7","188,7","23,8","71","0","0"],
    [30953,"2017-08-12T03:00:00","28","3","10,8","1,5","169,1","23,5","72,8","0","0"],
    [30954,"2017-08-12T04:00:00","32","ND","11,2","1,6","153,8","23,5","73","0","0"],
    [30955,"2017-08-12T05:00:00","47","1","10,9","2","136,5","23,4","75,4","0","0"],
    [30956,"2017-08-12T06:00:00","64","13","11,5","1,7","349,3","23,3","75,2","0","0"],
    [30957,"2017-08-12T07:00:00","83","22","11,7","0,7","117,2","23,5","73,6","11,4","0"],
    [30958,"2017-08-12T08:00:00","91","16","13,7","2,2","246,1","25,4","68","83","0"],
    [30959,"2017-08-12T09:00:00","75","12","19,1","1,7","141,8","27,1","61,4","110,1","0"],
    [30960,"2017-08-12T10:00:00","114","18","36,4","0,7","315,7","28,4","56,3","167,7","0"],
    [30961,"2017-08-12T11:00:00","110","31","52,9","2,6","99,5","29,2","53,3","220,2","0"],
    [30962,"2017-08-12T12:00:00","73","10","57,2","2,6","98,9","30,4","50","200,5","0"],
    [30963,"2017-08-12T13:00:00","50","13","74,5","2,6","106,8","31,2","46,5","265,7","0"],
    [30964,"2017-08-12T14:00:00","73","20","112,7","2,8","93,3","32,3","42","223,1","0"],
    [30965,"2017-08-12T15:00:00","71","20","136,3","3,2","78,6","32,7","41,7","244,4","0"],
    [30966,"2017-08-12T16:00:00","84","36","100,9","4,1","85,9","32,5","42","101,1","0"],
    [30967,"2017-08-12T17:00:00","110","46","75,1","1,8","129,7","31,4","43,7","27,5","0"],
    [30968,"2017-08-12T18:00:00","41","8","57,6","6,6","274,7","29","46,2","6,9","0"],
    [30969,"2017-08-12T19:00:00","29","ND","22,3","5,4","289,2","28,7","49,7","0","0"],
    [30970,"2017-08-12T20:00:00","28","ND","17,6","3,5","316,3","28,4","49,9","0","0"],
    [30971,"2017-08-12T21:00:00","70","8","14,3","3","94,8","27,1","58,9","0","0"],
    [30972,"2017-08-12T22:00:00","67","9","13,3","3,3","84,7","26,4","63,1","0","0"],
    [30973,"2017-08-12T23:00:00","49","5","13","2,3","73,2","26,4","62,1","0","0"],
    [30974,"2017-08-13T00:00:00","38","2","12,7","1,2","103","26","63,9","0","0"],
    [30975,"2017-08-13T01:00:00","57","ND","12,7","2,2","120,3","25,4","67","0","0"],
    [30976,"2017-08-13T02:00:00","73","21","12,9","1,4","224","25,2","67,7","0","0"],
    [30977,"2017-08-13T03:00:00","29","ND","16,4","2,4","353,8","24,9","69,1","0","0"],
    [30978,"2017-08-13T04:00:00","18","ND","20,5","1,6","55","24,6","70,6","0","0"],
    [30979,"2017-08-13T05:00:00","17","ND","19,3","0,3","140,1","24,5","71,3","0","0"],
    [30980,"2017-08-13T06:00:00","33","ND","13,8","1,1","89,7","24,2","73","0","0"],
    [30981,"2017-08-13T07:00:00","34","3","12,3","1,2","147,5","24,2","73,5","10","0"],
    [30982,"2017-08-13T08:00:00","65","19","17","2","178,7","26,1","65,3","112,9","0"],
    [30983,"2017-08-13T09:00:00","56","11","28,4","2,1","182,6","27,8","58,7","197,9","0"],
    [30984,"2017-08-13T10:00:00","57","6","45,7","2,2","131,2","29,4","53,2","285,6","0"],
    [30985,"2017-08-13T11:00:00","47","7","77,9","2","154,8","31,6","44,9","366,9","0"],
    [30986,"2017-08-13T12:00:00","45","9","95,8","2,9","111,6","33,1","39,3","418,9","0"],
    [30987,"2017-08-13T13:00:00","42","12","112,8","3","57,9","34,1","37,5","442,9","0"],
    [30988,"2017-08-13T14:00:00","47","19","129,6","4,2","42","34,7","36,9","393,1","0"],
    [30989,"2017-08-13T15:00:00","41","11","106","4,3","63,1","34,8","36,5","238,2","0"],
    [30990,"2017-08-13T16:00:00","35","5","82,3","0,7","62,6","34,5","36,2","119,8","0"],
    [30991,"2017-08-13T17:00:00","33","ND","66,1","7,4","284,1","33,7","35,8","117,2","0"],
    [30992,"2017-08-13T18:00:00","34","ND","57,1","6,2","291,5","32,3","38,6","42,3","0"],
    [30993,"2017-08-13T19:00:00","35","ND","42,7","4,4","290","30,5","42,7","0","0"],
    [30994,"2017-08-13T20:00:00","39","1","22,6","2,2","9,8","29,4","47,5","0","0"],
    [30995,"2017-08-13T21:00:00","56","4","14,9","3","117,2","27,5","57,1","0","0"],
    [30996,"2017-08-13T22:00:00","52","4","15,1","3","109,4","26,2","63,9","0","0"],
    [30997,"2017-08-13T23:00:00","40","1","15","2,4","79,3","25,8","65,7","0","0"],
    [30998,"2017-08-14T00:00:00","27","ND","15,3","1,7","77,1","26","64,1","0","0"],
    [30999,"2017-08-14T01:00:00","29","ND","17,7","2","108,9","25,9","64,6","0","0"],
    [31000,"2017-08-14T02:00:00","44","ND","14,4","1,8","188,1","25,3","67,7","0","0"],
    [31001,"2017-08-14T03:00:00","29","ND","12,4","1,5","139,2","24,6","70,6","0","0"],
    [31002,"2017-08-14T04:00:00","47","ND","12,8","1","226,4","24,2","72,5","0","0"],
    [31003,"2017-08-14T05:00:00","47","ND","12,4","1,7","173,4","24,7","70,2","0","0"],
    [31004,"2017-08-14T06:00:00","77","14","11,5","2,4","117,7","23,7","73,8","0","0"],
    [31005,"2017-08-14T07:00:00","ND","ND","11,8","0,8","86,3","23,5","73,8","20,7","0"],
    [31006,"2017-08-14T08:00:00","68","3","17","1,6","210,6","25,9","63,8","101,8","0"],
    [31007,"2017-08-14T09:00:00","59","5","27","2,8","189,7","27,8","57,1","197,5","0"],
    [31008,"2017-08-14T10:00:00","36","3","39,1","1,6","170,8","30,4","48","296,5","0"],
    [31009,"2017-08-14T11:00:00","37","1","58,4","2,8","103,5","32,1","42,5","375","0"],
    [31010,"2017-08-14T12:00:00","32","1","68,3","2,4","84","33,3","39,7","409,6","0"],
    [31011,"2017-08-14T13:00:00","49","1","112,7","2,4","59,8","34,7","35,9","414,8","0"],
    [31012,"2017-08-14T14:00:00","57","7","152,7","2,2","43,2","35,6","34,5","381,9","0"],
    [31013,"2017-08-14T15:00:00","52","5","116,9","4,8","54,5","36,1","32,5","307,1","0"],
    [31014,"2017-08-14T16:00:00","38","3","79,8","1,8","31,6","35,6","31,6","119,8","0"],
    [31015,"2017-08-14T17:00:00","30","ND","59,9","6,3","301,2","35,3","30,9","138,4","0"],
    [31016,"2017-08-14T18:00:00","42","ND","41,4","7,3","298,2","33,2","35,5","51,8","0"],
    [31017,"2017-08-14T19:00:00","44","ND","20,5","4,7","307,1","31,1","41,3","0","0"],
    [31018,"2017-08-14T20:00:00","40","ND","16,4","2,7","322,5","30","45,3","0","0"],
    [31019,"2017-08-14T21:00:00","47","ND","14","3,8","97,6","27,5","58","0","0"],
    [31020,"2017-08-14T22:00:00","43","ND","13,3","1,2","94,8","27","60,7","0","0"],
    [31021,"2017-08-14T23:00:00","57","3","12,8","1,5","149,5","26,6","62,9","0","0"],
    [31022,"2017-08-15T00:00:00","26","2","13,6","3,3","70,4","25,8","65,2","0","0"],
    [31023,"2017-08-15T01:00:00","21","ND","16,3","1,1","93,8","25,3","67,2","0","0"],
    [31024,"2017-08-15T02:00:00","30","ND","15,3","1,8","158,9","25,3","67,1","0","0"],
    [31025,"2017-08-15T03:00:00","46","ND","14,7","1,8","231,4","24,8","69,2","0","0"],
    [31026,"2017-08-15T04:00:00","61","6","11,8","3","237,6","24,1","72,3","0","0"],
    [31027,"2017-08-15T05:00:00","68","11","11,8","2,1","123,6","24,2","70,4","0","0"],
    [31028,"2017-08-15T06:00:00","79","16","11,6","2,6","168","23,4","73","0","0"],
    [31029,"2017-08-15T07:00:00","72","15","12,5","2,6","185,9","23,3","71","8,5","0"],
    [31030,"2017-08-15T08:00:00","89","20","16,1","1,8","193,1","24,7","68,5","83,9","0"],
    [31031,"2017-08-15T09:00:00","55","7","26,3","2,3","112,7","27,3","58,7","184,6","0"],
    [31032,"2017-08-15T10:00:00","62","11","39,8","2,3","123","29,4","50","272,7","0"],
    [31033,"2017-08-15T11:00:00","59","6","67,8","1,7","114","32,5","41,4","393,6","0"],
    [31034,"2017-08-15T12:00:00","56","4","87","2","162,9","34,1","35,3","367,4","0"],
    [31035,"2017-08-15T13:00:00","58","7","95","2,3","162,9","35,1","32,4","381,6","0"],
    [31036,"2017-08-15T14:00:00","66","21","102,4","3,6","73,8","34,7","32,6","188,3","0"],
    [31037,"2017-08-15T15:00:00","74","22","85,4","4,2","75","33,8","34,7","91,6","0"],
    [31038,"2017-08-15T16:00:00","79","15","78,7","3,4","61","33,9","35,9","92,3","0"],
    [31039,"2017-08-15T17:00:00","52","10","88,8","2,4","360","34","36,2","82,2","0"],
    [31040,"2017-08-15T18:00:00","42","1","48,2","6,1","290,6","32,3","38,5","23,9","0"],
    [31041,"2017-08-15T19:00:00","49","ND","31,8","5,7","292,4","30,3","45,5","0","0"],
    [31042,"2017-08-15T20:00:00","45","5","26,5","4","315,2","29,6","46,4","0","0"],
    [31043,"2017-08-15T21:00:00","53","5","16","3,9","68,5","27,8","57,4","0","0"],
    [31044,"2017-08-15T22:00:00","39","ND","15,7","1,2","51,7","27","60","0","0"],
    [31045,"2017-08-15T23:00:00","43","ND","14,1","3","97,2","26,9","59,9","0","0"],
    [31046,"2017-08-16T00:00:00","18","ND","16,9","1,6","101,5","25,6","64,9","0","0"],
    [31047,"2017-08-16T01:00:00","12","ND","17,6","1,1","254,1","25,9","63,8","0","0"],
    [31048,"2017-08-16T02:00:00","49","1","15,2","0,6","248,8","25,9","64,4","0","0"],
    [31049,"2017-08-16T03:00:00","51","5","13","2,4","99,9","25,6","66,8","0","0"],
    [31050,"2017-08-16T04:00:00","34","4","16","1,1","140,5","25","67,6","0","0"],
    [31051,"2017-08-16T05:00:00","63","4","13,6","2,8","192,6","25","68,5","0","0"],
    [31052,"2017-08-16T06:00:00","97","41","13,7","3,5","224,4","24,4","69,7","0","0"],
    [31053,"2017-08-16T07:00:00","92","17","13,5","3","224,7","25","66,9","7,5","0"],
    [31054,"2017-08-16T08:00:00","111","17","17,5","0,9","63,4","26,3","61,7","47,1","0"],
    [31055,"2017-08-16T09:00:00","128","46","17,9","3","96,1","26,6","63","82,7","0"],
    [31056,"2017-08-16T10:00:00","64","17","43,4","2,1","76","29,8","50,1","277,9","0"],
    [31057,"2017-08-16T11:00:00","37","ND","58,5","4,3","77,2","31,4","43,6","373,5","0"],
    [31058,"2017-08-16T12:00:00","30","ND","73,4","3,2","33,3","33,3","38,3","355,4","0"],
    [31059,"2017-08-16T13:00:00","37","3","75,7","3,3","48,5","34,3","35,4","371,4","0"],
    [31060,"2017-08-16T14:00:00","30","1","81","2,9","35","35,3","31,6","303,1","0"],
    [31061,"2017-08-16T15:00:00","36","ND","77,1","3,5","48,6","36,1","29,3","315,4","0"],
    [31062,"2017-08-16T16:00:00","47","ND","82,7","4,8","24,6","35","30,1","126,5","0"],
    [31063,"2017-08-16T17:00:00","37","ND","74,6","5,5","9,9","35","30,4","134,8","0"],
    [31064,"2017-08-16T18:00:00","47","ND","63","5,7","325,3","33","34,7","26,3","0"],
    [31065,"2017-08-16T19:00:00","53","1","53,9","6,5","292,2","30,6","41,9","0","0"],
    [31066,"2017-08-16T20:00:00","ND","ND","47,9","5,7","306,2","29,6","45,3","0","0"],
    [31067,"2017-08-16T21:00:00","ND","ND","23,4","4,1","77","28,1","51,8","0","0"],
    [31068,"2017-08-16T22:00:00","ND","ND","ND","ND","ND","ND","ND","ND","ND"],
    [31069,"2017-08-16T23:00:00","43","9","21,7","2,3","79,1","26,9","56,5","0","0"],
    [31070,"2017-08-17T00:00:00","33","3","27,5","2,6","110","26,2","59,8","0","0"],
    [31071,"2017-08-17T01:00:00","29","ND","30,7","1,9","182,5","26,3","60,4","0","0"],
    [31072,"2017-08-17T02:00:00","40","ND","27,7","2,5","151,5","25,8","63,4","0","0"],
    [31073,"2017-08-17T03:00:00","37","3","31,4","2","227","25,3","66,3","0","0"],
    [31074,"2017-08-17T04:00:00","33","ND","28,2","1,6","177,6","25,6","66,2","0","0"],
    [31075,"2017-08-17T05:00:00","47","6","26,1","2,4","217,2","25,5","65,7","0","0"],
    [31076,"2017-08-17T06:00:00","71","19","17,2","1,6","163,2","25,5","65,7","0","0"],
    [31077,"2017-08-17T07:00:00","96","25","13,2","2,4","111,4","25,2","69","19","0"],
    [31078,"2017-08-17T08:00:00","85","11","17,6","2,7","97,9","26,3","65,4","88,1","0"],
    [31079,"2017-08-17T09:00:00","69","6","41,6","2,5","187,3","28,6","55,4","199,1","0"],
    [31080,"2017-08-17T10:00:00","73","3","63,2","2,6","145,1","30,4","49","294","0"],
    [31081,"2017-08-17T11:00:00","48","ND","99,8","2,5","241,3","32,3","41,3","379,7","0"],
    [31082,"2017-08-17T12:00:00","51","5","107,6","0,4","86,2","34","36,9","391","0"],
    [31083,"2017-08-17T13:00:00","61","6","118,2","2,9","47,8","35","34,5","367,2","0"],
    [31084,"2017-08-17T14:00:00","50","5","116,8","3,3","55,2","34,9","33,3","266,5","0"],
    [31085,"2017-08-17T15:00:00","54","1","113,3","5","71,1","35,3","34,1","273,3","0"],
    [31086,"2017-08-17T16:00:00","65","ND","94,8","4,8","59,9","34,6","35,8","133,5","0"],
    [31087,"2017-08-17T17:00:00","46","2","76,2","4,1","359,5","34,1","37,6","83,5","0"],
    [31088,"2017-08-17T18:00:00","55","5","59,1","7","293,6","32,4","40,2","25,9","0"],
    [31089,"2017-08-17T19:00:00","46","ND","40,6","6,5","303,9","31,1","43,5","0","0"],
    [31090,"2017-08-17T20:00:00","43","ND","23,9","1,5","84,2","29,9","48,2","0","0"],
    [31091,"2017-08-17T21:00:00","55","3","18,8","2,6","87,7","28,5","54,1","0","0"],
    [31092,"2017-08-17T22:00:00","40","2","19,9","3,2","73,8","27,2","59,9","0","0"],
    [31093,"2017-08-17T23:00:00","42","ND","25,1","4,2","52,6","27,3","60","0","0"],
    [31094,"2017-08-18T00:00:00","46","3","19,5","2,6","93,1","26,7","62,2","0","0"],
    [31095,"2017-08-18T01:00:00","20","ND","20,2","1,8","106,6","26","65,3","0","0"],
    [31096,"2017-08-18T02:00:00","23","ND","23,8","1,3","147,4","26","65,3","0","0"],
    [31097,"2017-08-18T03:00:00","29","ND","21,1","1,8","107,3","26,1","65","0","0"],
    [31098,"2017-08-18T04:00:00","34","ND","22,4","0,3","117,2","26","65,2","0","0"],
    [31099,"2017-08-18T05:00:00","34","ND","18","2","82,3","26,1","65,7","0","0"],
    [31100,"2017-08-18T06:00:00","ND","ND","37,1","8","9,5","23,4","72,8","0","10,16"],
    [31101,"2017-08-18T07:00:00","ND","ND","ND","ND","ND","ND","ND","ND","ND"],
    [31102,"2017-08-18T08:00:00","ND","ND","ND","ND","ND","ND","ND","ND","ND"],
    [31103,"2017-08-18T09:00:00","ND","ND","ND","ND","ND","ND","ND","ND","ND"],
    [31104,"2017-08-18T10:00:00","ND","ND","ND","ND","ND","ND","ND","ND","ND"],
    [31105,"2017-08-18T11:00:00","24","ND","66,7","1,2","182,6","29,4","50,4","309,5","0"],
    [31106,"2017-08-18T12:00:00","18","ND","77,1","3,7","50,2","30,5","46,3","361","0"],
    [31107,"2017-08-18T13:00:00","27","ND","87,3","3,5","51,7","31,9","41,6","380,1","0"],
    [31108,"2017-08-18T14:00:00","ND","3","108,6","3","24,3","32,9","40,8","391,1","0"],
    [31109,"2017-08-18T15:00:00","29","ND","97,2","4,6","12,6","33,8","38,5","267,1","0"],
    [31110,"2017-08-18T16:00:00","27","ND","74,1","5,2","309,7","33,6","34,6","193,5","0"],
    [31111,"2017-08-18T17:00:00","24","ND","70,2","7,3","293,6","33,2","33,8","132,8","0"],
    [31112,"2017-08-18T18:00:00","30","ND","64,8","6,5","290,4","31,7","37,7","36,2","0"],
    [31113,"2017-08-18T19:00:00","40","ND","37,5","4,3","299,4","30,5","41,4","0","0"],
    [31114,"2017-08-18T20:00:00","52","ND","23,6","1","3,9","29,2","47,8","0","0"],
    [31115,"2017-08-18T21:00:00","58","11","16,1","2,7","74,3","27,6","56,5","0","0"],
    [31116,"2017-08-18T22:00:00","55","7","14,8","2,4","75,2","27,1","59,4","0","0"],
    [31117,"2017-08-18T23:00:00","21","2","19,4","1,5","49,3","26,9","60","0","0"],
    [31118,"2017-08-19T00:00:00","43","1","16,2","2","95,7","26,9","59,8","0","0"],
    [31119,"2017-08-19T01:00:00","25","1","17,6","2,6","97,1","26,1","64,2","0","0"],
    [31120,"2017-08-19T02:00:00","34","ND","19,5","3,3","82,2","25,4","67,8","0","0"],
    [31121,"2017-08-19T03:00:00","18","ND","25,4","4,1","70,1","25,6","66","0","0"],
    [31122,"2017-08-19T04:00:00","ND","ND","36,1","7,1","22,5","23,7","75,9","0","10,92"],
    [31123,"2017-08-19T05:00:00","ND","ND","ND","ND","ND","ND","ND","ND","ND"],
    [31124,"2017-08-19T06:00:00","ND","ND","ND","ND","ND","ND","ND","ND","ND"],
    [31125,"2017-08-19T07:00:00","ND","ND","ND","ND","ND","ND","ND","ND","ND"],
    [31126,"2017-08-19T08:00:00","ND","ND","ND","ND","ND","ND","ND","ND","ND"],
    [31127,"2017-08-19T09:00:00","ND","ND","ND","ND","ND","ND","ND","ND","ND"],
    [31128,"2017-08-19T10:00:00","ND","ND","ND","ND","ND","ND","ND","ND","ND"],
    [31129,"2017-08-19T11:00:00","ND","ND","ND","ND","ND","ND","ND","ND","ND"],
    [31130,"2017-08-19T12:00:00","ND","ND","ND","ND","ND","ND","ND","ND","ND"],
    [31131,"2017-08-19T13:00:00","ND","ND","ND","ND","ND","ND","ND","ND","ND"],
    [31132,"2017-08-19T14:00:00","ND","ND","ND","ND","ND","ND","ND","ND","ND"],
    [31133,"2017-08-19T15:00:00","ND","ND","ND","ND","ND","ND","ND","ND","ND"],
    [31134,"2017-08-19T16:00:00","ND","ND","ND","ND","ND","ND","ND","ND","ND"],
    [31135,"2017-08-19T17:00:00","ND","ND","ND","ND","ND","ND","ND","ND","ND"],
    [31136,"2017-08-19T18:00:00","ND","ND","ND","ND","ND","ND","ND","ND","ND"],
    [31137,"2017-08-19T19:00:00","ND","ND","42,2","0,6","65,4","29,1","48,1","0","0"],
    [31138,"2017-08-19T20:00:00","55","4","31,5","2,8","197","27,8","56,6","0","0"],
    [31139,"2017-08-19T21:00:00","60","4","22,9","2,3","149,1","27,4","57,2","0","0"],
    [31140,"2017-08-19T22:00:00","69","4","17,3","3,1","105,5","26,5","62,5","0","0"],
    [31141,"2017-08-19T23:00:00","53","2","16,7","1,4","157,3","26","64,2","0","0"],
    [31142,"2017-08-20T00:00:00","49","ND","17,2","2","125,1","25,8","64,8","0","0"],
    [31143,"2017-08-20T01:00:00","30","ND","15,2","0,6","143,6","25,8","64,8","0","0"],
    [31144,"2017-08-20T02:00:00","51","3","13,3","2,6","90,9","25,1","69,5","0","0"],
    [31145,"2017-08-20T03:00:00","44","6","13,8","0,5","102,7","25,4","67,5","0","0"],
    [31146,"2017-08-20T04:00:00","44","2","14,1","1,8","42,3","25,2","69,5","0","0"],
    [31147,"2017-08-20T05:00:00","42","2","12,9","2,5","80,1","24,5","74,9","0","0,25"],
    [31148,"2017-08-20T06:00:00","23","1","15,3","2,7","35,2","23,8","77,4","0","0"],
    [31149,"2017-08-20T07:00:00","24","ND","16,5","2,4","34,5","23,8","76,5","5","0"],
    [31150,"2017-08-20T08:00:00","24","ND","22,1","2,8","17,9","24,4","73,8","54,5","0"],
    [31151,"2017-08-20T09:00:00","30","ND","28,3","1,8","40,4","26,1","67,3","132,8","0"],
    [31152,"2017-08-20T10:00:00","31","ND","48,7","1,6","225,9","28,1","58,2","189","0"],
    [31153,"2017-08-20T11:00:00","23","ND","62,8","2,3","66","29,8","51","330,7","0"],
    [31154,"2017-08-20T12:00:00","20","6","70,6","2,6","106,3","30,9","46","230,9","0"],
    [31155,"2017-08-20T13:00:00","42","4","80","2,9","72,2","32,5","41,5","418,7","0"],
    [31156,"2017-08-20T14:00:00","33","ND","77,6","2,6","70,5","32,9","39,2","189,9","0"],
    [31157,"2017-08-20T15:00:00","36","3","64,1","5,2","65,5","31,3","44,8","122,8","0"],
    [31158,"2017-08-20T16:00:00","27","2","80","4,8","38","31,6","42,4","132,5","0"],
    [31159,"2017-08-20T17:00:00","18","3","65,1","4,3","354","31,5","44","86,2","0"],
    [31160,"2017-08-20T18:00:00","22","1","46,2","4,1","321,3","30,8","45,3","37,4","0"],
    [31161,"2017-08-20T19:00:00","30","ND","45,4","5,1","260","29,1","48,1","0","0"],
    [31162,"2017-08-20T20:00:00","47","2","39,3","3,3","223,4","27,5","55,2","0","3,3"],
    [31163,"2017-08-20T21:00:00","34","2","24,8","3,2","174,6","23,9","75,1","0","0"],
    [31164,"2017-08-20T22:00:00","36","3","24,2","3,3","196,3","24","74,9","0","0"],
    [31165,"2017-08-20T23:00:00","61","22","19,3","2,1","219,6","24,2","72,7","0","0"],
    [31166,"2017-08-21T00:00:00","39","ND","15,1","1,5","156,2","24,9","69,3","0","0"],
    [31167,"2017-08-21T01:00:00","29","ND","14,7","2,8","134,1","23,8","75,2","0","0"],
    [31168,"2017-08-21T02:00:00","33","ND","14,7","1,9","178,3","23,4","75,3","0","0"],
    [31169,"2017-08-21T03:00:00","25","ND","14,9","1,5","196,9","23,2","75,7","0","0"],
    [31170,"2017-08-21T04:00:00","32","ND","12,4","1,3","200,8","23,4","75,4","0","0"],
    [31171,"2017-08-21T05:00:00","43","4","11,2","0,8","117,4","23,3","76,2","0","0"],
    [31172,"2017-08-21T06:00:00","48","5","11","2,3","111,6","22,7","77,9","0","0"],
    [31173,"2017-08-21T07:00:00","44","3","11,9","0,6","121,4","22,8","77,1","4,2","0"],
    [31174,"2017-08-21T08:00:00","45","ND","13,3","1","172,5","23,8","73,9","40,3","0"],
    [31175,"2017-08-21T09:00:00","76","18","17,5","1,3","84,7","25,7","68,3","121,8","0"],
    [31176,"2017-08-21T10:00:00","60","13","32,8","0,5","354,6","28,1","57,8","268,9","0"],
    [31177,"2017-08-21T11:00:00","59","10","60,4","1,3","97,5","30,6","47,4","338,5","0"],
    [31178,"2017-08-21T12:00:00","59","18","83,2","2,5","90","30,6","46,6","238,4","0"],
    [31179,"2017-08-21T13:00:00","35","ND","97,5","1,8","105,1","33","39,2","384,3","0"],
    [31180,"2017-08-21T14:00:00","48","11","116,2","1","8,5","34","36,5","365,8","0"],
    [31181,"2017-08-21T15:00:00","52","6","92,7","3,5","98,6","33,3","37,4","147","0"],
    [31182,"2017-08-21T16:00:00","40","2","92,1","3,7","75,5","33,7","37,5","162,9","0"],
    [31183,"2017-08-21T17:00:00","38","ND","90,4","3,5","64","34,2","36","132,3","0"],
    [31184,"2017-08-21T18:00:00","48","2","72,4","1,5","353,3","33,2","37,3","41,5","0"],
    [31185,"2017-08-21T19:00:00","42","2","43,9","3,6","291,1","30,7","42,6","0","0"],
    [31186,"2017-08-21T20:00:00","39","ND","29","3","295,2","29,4","47,4","0","0"],
    [31187,"2017-08-21T21:00:00","68","16","17,7","3,7","94,3","27,2","59,4","0","0"],
    [31188,"2017-08-21T22:00:00","58","1","17,1","2,4","73,3","26,7","62,3","0","0"],
    [31189,"2017-08-21T23:00:00","46","3","17,9","2,5","71,8","26,7","61,4","0","0"],
    [31190,"2017-08-22T00:00:00","51","8","18,3","3","89,4","25,9","65,3","0","0"],
    [31191,"2017-08-22T01:00:00","32","5","20,9","2,3","58,6","25,9","66,5","0","0"],
    [31192,"2017-08-22T02:00:00","26","ND","21,5","0,8","73,7","25,2","71,3","0","0"],
    [31193,"2017-08-22T03:00:00","28","ND","18,4","1,8","106","25","72,1","0","0"],
    [31194,"2017-08-22T04:00:00","47","6","15","3,5","114,1","24,4","73,7","0","0"],
    [31195,"2017-08-22T05:00:00","67","24","12,6","1,4","285","24,3","74","0","0"],
    [31196,"2017-08-22T06:00:00","81","21","12,4","1","89,8","24,2","74,4","0","0"],
    [31197,"2017-08-22T07:00:00","79","20","12,2","0,4","316,6","24,1","75,4","15,8","0"],
    [31198,"2017-08-22T08:00:00","105","28","16,3","2,9","97,3","26","68,9","110,6","0"],
    [31199,"2017-08-22T09:00:00","73","25","27,4","2,5","87,8","27,6","63,1","188,6","0"],
    [31200,"2017-08-22T10:00:00","73","17","49,7","3","114,3","29,3","55","267,6","0"],
    [31201,"2017-08-22T11:00:00","63","7","71,3","2,6","100,1","31,2","48,6","385,9","0"],
    [31202,"2017-08-22T12:00:00","62","3","92,4","3,7","92,6","32,8","41,2","333,6","0"],
    [31203,"2017-08-22T13:00:00","68","13","89,2","5","60,9","32","45,1","262,2","0"],
    [31204,"2017-08-22T14:00:00","61","19","126","3,3","55,3","33,1","41,1","201,9","0"],
    [31205,"2017-08-22T15:00:00","57","15","137,5","3,3","21,7","33,4","40,8","195,5","0"],
    [31206,"2017-08-22T16:00:00","61","11","103,2","3,4","53,9","33,7","41,4","138,9","0"],
    [31207,"2017-08-22T17:00:00","60","12","71,6","5","75,7","33,6","40","131,7","0"],
    [31208,"2017-08-22T18:00:00","48","6","42,7","4,9","35,1","32,6","39,7","34,1","0"],
    [31209,"2017-08-22T19:00:00","70","9","23,2","2,4","331,1","30,9","43","0","0"],
    [31210,"2017-08-22T20:00:00","45","2","28,3","4,1","293,4","29,7","47,2","0","0"],
    [31211,"2017-08-22T21:00:00","47","ND","16,3","3,5","88,1","26,9","61,7","0","0"],
    [31212,"2017-08-22T22:00:00","45","3","15,6","2,2","72,4","26,2","63,9","0","0"],
    [31213,"2017-08-22T23:00:00","48","2","17,3","3,7","103,7","25,9","64,1","0","0"],
    [31214,"2017-08-23T00:00:00","48","ND","17,9","1","91,7","25,2","66,8","0","0"],
    [31215,"2017-08-23T01:00:00","42","ND","13,3","2,1","148,4","25,2","67,3","0","0"],
    [31216,"2017-08-23T02:00:00","64","7","12,3","2,1","137,5","24,5","71,6","0","0"],
    [31217,"2017-08-23T03:00:00","62","13","11,6","0,8","185,8","23,8","73,1","0","0"],
    [31218,"2017-08-23T04:00:00","56","6","13,4","1,5","227,8","23,8","70,5","0","0"],
    [31219,"2017-08-23T05:00:00","112","18","12,9","1,1","165,8","23,8","68,4","0","0"],
    [31220,"2017-08-23T06:00:00","89","18","11,7","2,6","156,6","23","73,5","0","0"],
    [31221,"2017-08-23T07:00:00","73","20","11,6","2,1","210,7","22,7","70,6","10","0"],
    [31222,"2017-08-23T08:00:00","82","20","13,4","1,5","105,8","24,2","66,2","51,8","0"],
    [31223,"2017-08-23T09:00:00","80","17","16,7","1,9","121,6","25,7","61,8","114,4","0"],
    [31224,"2017-08-23T10:00:00","58","8","35,3","2,4","148,7","28","46,7","203,2","0"],
    [31225,"2017-08-23T11:00:00","53","6","62,4","1,1","169,8","30,5","40,9","275,9","0"],
    [31226,"2017-08-23T12:00:00","51","15","86,5","2,3","139","32,5","37,8","407,3","0"],
    [31227,"2017-08-23T13:00:00","57","9","84,3","2,3","100,2","33,6","31,2","334","0"],
    [31228,"2017-08-23T14:00:00","46","11","111","2,2","39,3","34,8","28,7","375,3","0"],
    [31229,"2017-08-23T15:00:00","69","14","139","3,6","81,4","34,9","31,7","249,6","0"],
    [31230,"2017-08-23T16:00:00","66","23","117,4","4,1","62,6","34,3","33,9","145","0"],
    [31231,"2017-08-23T17:00:00","69","21","70,1","5,1","294,9","33,3","36,2","96,5","0"],
    [31232,"2017-08-23T18:00:00","36","ND","37,5","7,3","302,6","31","41,6","22,2","0"],
    [31233,"2017-08-23T19:00:00","35","ND","25","6,1","302,5","29,8","45,2","0","0"],
    [31234,"2017-08-23T20:00:00","53","ND","23,5","2,3","351,4","29","48,7","0","0"],
    [31235,"2017-08-23T21:00:00","49","ND","16,1","4","81,2","26,9","59,7","0","0"],
    [31236,"2017-08-23T22:00:00","31","ND","16,3","4","93,4","26,3","62","0","0"],
    [31237,"2017-08-23T23:00:00","53","5","17,6","2,3","49,4","26,4","60,5","0","0"],
    [31238,"2017-08-24T00:00:00","29","4","15,3","0,8","193,3","25,9","62,7","0","0"],
    [31239,"2017-08-24T01:00:00","27","ND","13,3","2,6","198","25,2","66,9","0","0"],
    [31240,"2017-08-24T02:00:00","28","ND","16,9","2,6","208","24,8","68,1","0","0"],
    [31241,"2017-08-24T03:00:00","42","1","16,5","2,1","197,4","24,8","67,8","0","0"],
    [31242,"2017-08-24T04:00:00","52","4","13,2","2,5","191,3","24,6","69,3","0","0"],
    [31243,"2017-08-24T05:00:00","89","7","11,7","1,9","126","23,9","71,9","0","0"],
    [31244,"2017-08-24T06:00:00","96","7","11,4","1,3","202,9","23,7","73,6","0","0"],
    [31245,"2017-08-24T07:00:00","99","27","12,5","1,8","141","24,3","70,3","4","0"],
    [31246,"2017-08-24T08:00:00","95","15","13,5","1,9","120,9","25,1","67,3","40","0"],
    [31247,"2017-08-24T09:00:00","69","10","22,7","1,6","185,1","26,9","59","114,4","0"],
    [31248,"2017-08-24T10:00:00","46","8","37,1","2,9","229,2","28,2","55,6","203,5","0"],
    [31249,"2017-08-24T11:00:00","59","6","59,6","1,7","175,6","30,7","47","290,1","0"],
    [31250,"2017-08-24T12:00:00","51","5","78,3","2,7","133,5","31,6","42,8","297,6","0"],
    [31251,"2017-08-24T13:00:00","48","12","103,9","1,4","84,4","33,9","36,8","375,5","0"],
    [31252,"2017-08-24T14:00:00","68","15","134,2","2,4","32,2","34,1","35,5","271,4","0"],
    [31253,"2017-08-24T15:00:00","78","19","126,4","3,5","46,2","33,1","38,8","201,2","0"],
    [31254,"2017-08-24T16:00:00","50","12","88,2","3,8","351,1","32,1","39,3","57,3","0"],
    [31255,"2017-08-24T17:00:00","39","6","66,8","4,8","355,8","32,2","38,4","94,6","0"],
    [31256,"2017-08-24T18:00:00","58","2","57,5","3,4","332,3","31,5","39,3","14,4","0"],
    [31257,"2017-08-24T19:00:00","59","8","38,5","2,6","308,5","30,1","42,9","0","0"],
    [31258,"2017-08-24T20:00:00","84","22","22,6","2,5","27,9","28,9","47,7","0","0"],
    [31259,"2017-08-24T21:00:00","86","26","16,5","2","89,5","28,4","50,9","0","0"],
    [31260,"2017-08-24T22:00:00","69","7","15,3","3","109,6","26,9","58,9","0","0"],
    [31261,"2017-08-24T23:00:00","67","1","16,5","3,1","85,7","26,5","60,7","0","0"],
    [31262,"2017-08-25T00:00:00","33","ND","22,7","2,9","91,1","26,2","62,1","0","0"],
    [31263,"2017-08-25T01:00:00","32","ND","22,1","2,3","79,4","25,4","66,4","0","0"],
    [31264,"2017-08-25T02:00:00","26","ND","22,8","1,3","59,9","25,3","66","0","0"],
    [31265,"2017-08-25T03:00:00","21","ND","23,1","1,5","95,3","25,4","65,6","0","0"],
    [31266,"2017-08-25T04:00:00","33","ND","20,7","0,9","183","25,6","64,8","0","0"],
    [31267,"2017-08-25T05:00:00","70","6","14,1","2,4","175,7","25,1","69,3","0","0,51"],
    [31268,"2017-08-25T06:00:00","41","6","12,2","0,8","171,9","23,9","77,1","0","2,29"],
    [31269,"2017-08-25T07:00:00","63","14","12,5","2,3","86,1","24,1","77,6","4,7","0"],
    [31270,"2017-08-25T08:00:00","49","13","14","0,8","148,7","24,5","75,5","34,1","1,52"],
    [31271,"2017-08-25T09:00:00","63","13","20,7","1,7","156,8","26,2","69,3","123,7","0"],
    [31272,"2017-08-25T10:00:00","58","10","41,4","2,1","117,7","30","53,7","324,7","0"],
    [31273,"2017-08-25T11:00:00","51","10","57,6","3,5","89,6","30,4","50","232,7","0"],
    [31274,"2017-08-25T12:00:00","48","8","63,9","4","98,2","30,6","47,5","239,7","0"],
    [31275,"2017-08-25T13:00:00","43","5","83,1","2,5","107,5","32,8","41,6","338,2","0"],
    [31276,"2017-08-25T14:00:00","53","6","96,1","3,9","86","32,9","40,3","266","0"],
    [31277,"2017-08-25T15:00:00","44","6","105,2","4,2","52,7","33,9","38,1","332","0"],
    [31278,"2017-08-25T16:00:00","43","6","105,9","3,8","36,3","34,3","37,6","233,6","0"],
    [31279,"2017-08-25T17:00:00","49","6","57,2","4,9","68,4","32,9","41,1","72,9","0"],
    [31280,"2017-08-25T18:00:00","51","6","30,6","4,3","60,8","32,2","43,1","29,7","0"],
    [31281,"2017-08-25T19:00:00","59","12","36,5","4,8","296,1","30,7","44,4","0","0"],
    [31282,"2017-08-25T20:00:00","45","7","35,7","5,4","301,2","29,6","47","0","0"],
    [31283,"2017-08-25T21:00:00","38","4","21,8","1,5","89,9","27,8","55,8","0","0"],
    [31284,"2017-08-25T22:00:00","41","ND","17,6","3,8","84,5","26,5","61,5","0","0"],
    [31285,"2017-08-25T23:00:00","24","ND","19,7","3,1","359","26,2","61,7","0","0"],
    [31286,"2017-08-26T00:00:00","44","ND","18,9","1,3","39,3","26,2","61,4","0","0"],
    [31287,"2017-08-26T01:00:00","39","4","13,9","2,6","158,3","25,9","63","0","0"],
    [31288,"2017-08-26T02:00:00","59","7","14","2","155,4","25,1","67,4","0","0"],
    [31289,"2017-08-26T03:00:00","50","6","12,9","1,3","139,4","25,1","68,6","0","0"],
    [31290,"2017-08-26T04:00:00","68","6","13,4","1,4","131,2","24,5","70,8","0","0"],
    [31291,"2017-08-26T05:00:00","67","7","12,7","1,6","154,7","24,8","69,7","0","0"],
    [31292,"2017-08-26T06:00:00","83","23","12,2","3,2","153,6","24,2","71","0","0"],
    [31293,"2017-08-26T07:00:00","84","19","12,9","1,5","198,5","24,1","71,4","10,6","0"],
    [31294,"2017-08-26T08:00:00","89","18","15","1,5","158,9","25,6","66,1","54,7","0"],
    [31295,"2017-08-26T09:00:00","65","18","26,3","1,4","145,5","27,8","56,9","118,1","0"],
    [31296,"2017-08-26T10:00:00","62","10","54,3","2,7","154,6","30,1","48,3","312,1","0"],
    [31297,"2017-08-26T11:00:00","59","8","66","2,7","143","31,5","45,3","253","0"],
    [31298,"2017-08-26T12:00:00","55","5","82,3","3","117,4","33,6","38,7","410,2","0"],
    [31299,"2017-08-26T13:00:00","63","13","107,4","1,9","77","34,4","36,6","405,1","0"],
    [31300,"2017-08-26T14:00:00","71","13","144","2,2","33,9","34,7","35,6","274,2","0"],
    [31301,"2017-08-26T15:00:00","64","15","124,4","3,1","320,8","35,3","34,1","303,8","0"],
    [31302,"2017-08-26T16:00:00","68","ND","63,3","9,6","287,9","34,2","33,7","255,8","0"],
    [31303,"2017-08-26T17:00:00","56","ND","58,2","8,9","305,2","32,8","35,7","133,9","0"],
    [31304,"2017-08-26T18:00:00","40","ND","54,4","6,9","303,5","31,8","37,2","38,3","0"],
    [31305,"2017-08-26T19:00:00","40","1","34,2","3,6","341,3","29,9","41,8","0,3","0"],
    [31306,"2017-08-26T20:00:00","38","ND","36","3,2","342,3","28,8","45,6","0","0"],
    [31307,"2017-08-26T21:00:00","33","ND","48,9","3,6","300,7","28,7","42,7","0","0"],
    [31308,"2017-08-26T22:00:00","37","ND","27,7","3,6","100,7","27,4","50,7","0","0"],
    [31309,"2017-08-26T23:00:00","46","4","30,6","3,3","64,1","26,9","53,1","0","0"],
    [31310,"2017-08-27T00:00:00","39","7","25,7","2,4","98,1","25,8","57,8","0","0"],
    [31311,"2017-08-27T01:00:00","38","4","24,4","2,7","103,5","25,1","61,6","0","0"],
    [31312,"2017-08-27T02:00:00","32","ND","27,8","1,3","107,7","25,3","61,7","0","0"],
    [31313,"2017-08-27T03:00:00","33","1","30,1","1,6","52,1","24,9","63,1","0","0"],
    [31314,"2017-08-27T04:00:00","27","ND","29,2","3,3","357,1","24,6","67,2","0","0"],
    [31315,"2017-08-27T05:00:00","18","ND","28,2","2,6","9,2","24,5","69,4","0","0"],
    [31316,"2017-08-27T06:00:00","34","ND","18,6","2,1","89","24,2","71,7","ND","0"],
    [31317,"2017-08-27T07:00:00","48","ND","17,7","1,8","202","24,6","70","16,1","0"],
    [31318,"2017-08-27T08:00:00","64","5","24,7","3,5","207,7","26","63,7","101,6","0"],
    [31319,"2017-08-27T09:00:00","72","9","40,7","2,1","176,5","28,3","55,4","197,4","0"],
    [31320,"2017-08-27T10:00:00","63","7","64","1,8","151","29,7","49,7","226,6","0"],
    [31321,"2017-08-27T11:00:00","51","16","81,7","2,3","58,9","31","44,8","247,7","0"],
    [31322,"2017-08-27T12:00:00","48","9","98,6","3,6","66,2","31,9","42","353,8","0"],
    [31323,"2017-08-27T13:00:00","40","17","117,8","3,3","85,5","33,4","37,5","396,1","0"],
    [31324,"2017-08-27T14:00:00","41","ND","104,1","4,4","78,7","34,8","35,3","370,1","0"],
    [31325,"2017-08-27T15:00:00","ND","ND","105","4","57,5","34,4","35,6","158,4","0"],
    [31326,"2017-08-27T16:00:00","24","ND","60,7","5,2","287,1","32,7","36,8","54,4","0"],
    [31327,"2017-08-27T17:00:00","38","2","55","4,3","292,7","32,5","37,4","76,3","0"],
    [31328,"2017-08-27T18:00:00","38","2","51,5","7,9","296","31","41,7","38,3","0"],
    [31329,"2017-08-27T19:00:00","39","ND","46,5","5,5","307,4","29","46,3","0,9","0"],
    [31330,"2017-08-27T20:00:00","29","2","32,3","1,5","293,3","29,2","45,1","0","0"],
    [31331,"2017-08-27T21:00:00","65","11","20,3","3,1","175,2","28","53,8","0","0"],
    [31332,"2017-08-27T22:00:00","52","6","29,4","4","182,1","26,7","63,1","0","0"],
    [31333,"2017-08-27T23:00:00","37","ND","29,3","3,1","158,6","26,5","62,9","0","0"],
    [31334,"2017-08-28T00:00:00","45","ND","28,4","2,3","165,8","25,9","65,9","0","0"],
    [31335,"2017-08-28T01:00:00","17","ND","24","2,2","83,2","25,3","69,4","0","0"],
    [31336,"2017-08-28T02:00:00","34","ND","20,7","2,2","87,6","24,8","73,1","0","0"],
    [31337,"2017-08-28T03:00:00","32","ND","14,2","1,4","107,6","24,4","75,6","0","0"],
    [31338,"2017-08-28T04:00:00","37","ND","15,9","1,9","176,1","24,3","75,7","0","0"],
    [31339,"2017-08-28T05:00:00","40","ND","14,9","2,2","144,1","24,2","76,2","0","0"],
    [31340,"2017-08-28T06:00:00","41","ND","13,2","1,9","194,9","24,1","74,8","0","0,25"],
    [31341,"2017-08-28T07:00:00","48","ND","13,2","1,8","218,7","24,6","73,7","8,6","0"],
    [31342,"2017-08-28T08:00:00","57","1","17,7","2,2","181,1","25,8","67,8","50,1","0"],
    [31343,"2017-08-28T09:00:00","72","1","22,8","3","149,5","26,7","63,6","106,2","0"],
    [31344,"2017-08-28T10:00:00","55","1","34,5","2,7","145,4","28,2","58,5","176,3","0"],
    [31345,"2017-08-28T11:00:00","40","ND","55","3,6","178,5","30,1","51","342,2","0"],
    [31346,"2017-08-28T12:00:00","35","ND","61,2","2,3","145,3","31,2","44,9","303,7","0"],
    [31347,"2017-08-28T13:00:00","32","10","72,4","2,3","82,4","32,3","41,7","374,8","0"],
    [31348,"2017-08-28T14:00:00","ND","10","ND","1,9","70,4","34,1","36,8","398","0"],
    [31349,"2017-08-28T15:00:00","43","ND","ND","5,3","33,9","33,7","38","304,7","0"],
    [31350,"2017-08-28T16:00:00","35","ND","54,3","6,8","37,1","32,2","41,2","206,4","0"],
    [31351,"2017-08-28T17:00:00","34","ND","49,4","5,3","50,5","32,2","39,4","78,1","0"],
    [31352,"2017-08-28T18:00:00","39","ND","38,4","3,2","26","31","42,1","14,2","0"],
    [31353,"2017-08-28T19:00:00","29","ND","44,9","4,5","280","29,6","45,5","0","0"],
    [31354,"2017-08-28T20:00:00","58","2","47","4,8","243,5","28,6","55,8","0","0"],
    [31355,"2017-08-28T21:00:00","74","12","28,1","3,6","221,8","28","56,3","0","0"],
    [31356,"2017-08-28T22:00:00","67","10","21,8","2,8","196","27,5","56,3","0","0"],
    [31357,"2017-08-28T23:00:00","63","6","21,2","2,7","157","26,1","61,8","0","0"],
    [31358,"2017-08-29T00:00:00","47","11","17,1","2,1","104,7","24,8","66,9","0","0"],
    [31359,"2017-08-29T01:00:00","23","4","23,6","0,7","9,4","25,3","63,2","0","0"],
    [31360,"2017-08-29T02:00:00","36","ND","22,6","3,1","96,9","24,5","66","0","0"],
    [31361,"2017-08-29T03:00:00","40","ND","20,1","2,4","118,3","24,2","67,5","0","0"],
    [31362,"2017-08-29T04:00:00","44","ND","18,6","2,5","112,3","24","68,2","0","0"],
    [31363,"2017-08-29T05:00:00","51","ND","16,9","1,5","70,7","23,8","69,4","0","0"],
    [31364,"2017-08-29T06:00:00","63","5","13,7","0,8","150,4","23,6","70,2","0","0"],
    [31365,"2017-08-29T07:00:00","70","7","14,1","2,8","197,1","24","71,6","16,2","0"],
    [31366,"2017-08-29T08:00:00","78","10","18","2,4","158,6","25,8","65,7","94,2","0"],
    [31367,"2017-08-29T09:00:00","56","15","24,4","3,5","136,8","26,6","62,2","92,9","0"],
    [31368,"2017-08-29T10:00:00","52","14","34,2","2,3","137,3","27,7","57,4","140,3","0"],
    [31369,"2017-08-29T11:00:00","63","8","46,9","2,8","59,2","28,8","53,7","231,4","0"],
    [31370,"2017-08-29T12:00:00","33","1","76,2","4","21,1","30,6","45,9","338,8","0"],
    [31371,"2017-08-29T13:00:00","33","1","82,2","3,1","15,4","31,9","41,8","371,7","0"],
    [31372,"2017-08-29T14:00:00","22","ND","88,9","3,2","12,3","33,5","36,5","421,7","0"],
    [31373,"2017-08-29T15:00:00","35","ND","93,8","3,6","45,4","34,2","35","356,1","0"],
    [31374,"2017-08-29T16:00:00","48","7","87,3","4,3","67,6","33,8","36,3","160,6","0"],
    [31375,"2017-08-29T17:00:00","53","6","54,8","3,7","67,2","32,8","38,7","26,9","0"],
    [31376,"2017-08-29T18:00:00","49","4","48,8","5,1","268,5","31,6","39,2","11,1","0"],
    [31377,"2017-08-29T19:00:00","42","3","37,8","5,7","289,8","30,3","42,1","0","0"],
    [31378,"2017-08-29T20:00:00","49","9","22,8","1,2","305,8","29,6","45,1","0","0"],
    [31379,"2017-08-29T21:00:00","ND","10","32","4,5","250,7","25,6","69,6","0","32,26"],
    [31380,"2017-08-29T22:00:00","ND","ND","ND","ND","ND","ND","ND","ND","ND"],
    [31381,"2017-08-29T23:00:00","ND","ND","ND","ND","ND","ND","ND","ND","ND"],
    [31382,"2017-08-30T00:00:00","ND","ND","ND","ND","ND","ND","ND","ND","ND"],
    [31383,"2017-08-30T01:00:00","ND","ND","ND","ND","ND","ND","ND","ND","ND"],
    [31384,"2017-08-30T02:00:00","52","ND","27,6","1,4","245,5","25,2","70,2","0","0"],
    [31385,"2017-08-30T03:00:00","21","ND","24,5","0,7","11,4","25,3","70,2","0","0,25"],
    [31386,"2017-08-30T04:00:00","37","ND","19,5","2,4","97","24,4","75,3","0","0"],
    [31387,"2017-08-30T05:00:00","47","ND","16,5","1,6","72,7","24,4","74,4","0","0"],
    [31388,"2017-08-30T06:00:00","67","14","14,1","1,5","109,1","24,4","74,7","0","0"],
    [31389,"2017-08-30T07:00:00","76","11","13,8","1,6","105,9","24,7","72,7","5,6","0"],
    [31390,"2017-08-30T08:00:00","78","10","15,9","1","4,9","25,4","69,5","32,5","0"],
    [31391,"2017-08-30T09:00:00","76","7","22,5","2,9","84,1","27","63,5","167,6","0"],
    [31392,"2017-08-30T10:00:00","39","3","40,3","3,1","65,3","28,5","55","199","0"],
    [31393,"2017-08-30T11:00:00","39","3","55,7","2,8","52,7","29,7","51,7","243,2","1,27"],
    [31394,"2017-08-30T12:00:00","ND","ND","62,1","3,1","78,6","31","45,8","321,1","0"],
    [31395,"2017-08-30T13:00:00","32","ND","80,1","2,8","83,2","31,9","41,9","260,5","0"],
    [31396,"2017-08-30T14:00:00","44","ND","78,2","3,7","91,9","31,9","41,3","205,4","0"],
    [31397,"2017-08-30T15:00:00","33","4","85,4","3,4","81,8","33,1","39","245,7","0"],
    [31398,"2017-08-30T16:00:00","59","3","77,2","4,5","67,5","32,9","40,1","156,5","0"],
    [31399,"2017-08-30T17:00:00","31","ND","47,2","4,3","50,1","32,4","40,2","74","0"],
    [31400,"2017-08-30T18:00:00","38","ND","45,7","1,8","311,6","31,8","40,2","33","0"],
    [31401,"2017-08-30T19:00:00","32","ND","31,3","4,6","281,4","30","44,3","0","0"],
    [31402,"2017-08-30T20:00:00","29","ND","31,1","5,5","291,1","28,8","48","0","0"],
    [31403,"2017-08-30T21:00:00","51","3","17,9","2,1","96","27,3","56","0","0"],
    [31404,"2017-08-30T22:00:00","48","9","16,8","2,5","89,8","26","62,8","0","0"],
    [31405,"2017-08-30T23:00:00","41","5","17,5","1,8","61","26","62,4","0","0"],
    [31406,"2017-08-31T00:00:00","29","ND","22,1","2","10","25,8","62,7","0","0"],
    [31407,"2017-08-31T01:00:00","24","ND","19,5","0,9","173,1","25,9","62,3","0","0"],
    [31408,"2017-08-31T02:00:00","28","ND","14,6","1,6","169,4","25,5","65,8","0","0"],
    [31409,"2017-08-31T03:00:00","35","ND","15,2","1,1","184,4","25,5","65,7","0","0"],
    [31410,"2017-08-31T04:00:00","50","ND","17,2","1,9","94,7","25,2","67,1","0","0"],
    [31411,"2017-08-31T05:00:00","91","26","13,9","2,3","52,3","24,8","69,4","0","0"],
    [31412,"2017-08-31T06:00:00","106","20","13,1","1,6","135,4","24,5","70,5","0","0"],
    [31413,"2017-08-31T07:00:00","66","6","13,2","1,4","126,7","24,5","69,1","0","0"],
    [31414,"2017-08-31T08:00:00","81","11","14,8","2","143","24,7","68,9","48,9","0"],
    [31415,"2017-08-31T09:00:00","62","11","30,6","2","273,7","26,8","61","150,4","0"],
    [31416,"2017-08-31T10:00:00","74","12","54,5","2,8","188,3","29,8","50,2","279,1","0"],
    [31417,"2017-08-31T11:00:00","51","7","79,1","3,4","201,6","31,4","43,1","389,9","0"],
    [31418,"2017-08-31T12:00:00","43","4","89,1","1,7","174,9","32,6","37","347,7","0"],
    [31419,"2017-08-31T13:00:00","43","2","85,2","3,9","176,9","34,7","31,7","420,7","0"],
    [31420,"2017-08-31T14:00:00","34","ND","78,5","4,4","177,5","34,7","29","261,5","0"],
    [31421,"2017-08-31T15:00:00","32","ND","90,3","4,4","158,7","35,7","28,8","336,7","0"],
    [31422,"2017-08-31T16:00:00","50","ND","98,6","3,2","150,2","35,6","29,4","232,8","0"],
    [31423,"2017-08-31T17:00:00","49","12","83,2","3,7","114,1","34,9","30,3","111","0"],
    [31424,"2017-08-31T18:00:00","75","19","63,7","3,7","84,7","33,7","33,6","24,9","0"],
    [31425,"2017-08-31T19:00:00","83","14","22,9","1,8","60,8","31,6","38,5","0","0"],
    [31426,"2017-08-31T20:00:00","59","10","29,8","2,5","301,9","30,5","41,7","0","0"],
    [31427,"2017-08-31T21:00:00","76","22","18,3","1,7","102,6","28,4","51,9","0","0"],
    [31428,"2017-08-31T22:00:00","101","30","18","1,9","161,4","27,3","56,8","0","0"],
    [31429,"2017-08-31T23:00:00","56","2","17","2,8","84","25,6","65,8","0","0"],
    [31430,"2017-09-01T00:00:00","64","11","15,2","2","189,2","25,1","66,8","0","0"],
    [31431,"2017-09-01T01:00:00","63","8","14,7","1","180,9","24,4","69,3","0","0"],
    [31432,"2017-09-01T02:00:00","57","6","17,3","1,1","173,2","24,3","69,1","0","0"],
    [31433,"2017-09-01T03:00:00","62","3","16,2","2,4","130,3","23,5","69,5","0","0"],
    [31434,"2017-09-01T04:00:00","58","3","13,2","1,4","168,5","22,4","69,5","0","0"],
    [31435,"2017-09-01T05:00:00","54","5","15,2","1,6","170,6","22,3","63,3","0","0"],
    [31436,"2017-09-01T06:00:00","62","14","12,4","1,7","143,2","21,6","65,7","0","0"],
    [31437,"2017-09-01T07:00:00","77","11","12,6","1,8","175,6","21,3","67,3","12,2","0"],
    [31438,"2017-09-01T08:00:00","86","14","21","0,8","230,9","23,9","60","112","0"],
    [31439,"2017-09-01T09:00:00","95","22","34,3","3,4","116,2","26,9","53,6","233,1","0"],
    [31440,"2017-09-01T10:00:00","65","12","61,9","3,4","98,9","29,5","42,9","329,5","0"],
    [31441,"2017-09-01T11:00:00","62","14","80,5","3,2","93,1","30,6","38,7","265,1","0"],
    [31442,"2017-09-01T12:00:00","68","13","99,3","4,6","59,6","31,7","38,3","381","0"],
    [31443,"2017-09-01T13:00:00","72","10","102,4","3,6","71,6","33,2","34,8","352,8","0"],
    [31444,"2017-09-01T14:00:00","52","6","100,1","3,5","77,4","35,6","28,7","334,8","0"],
    [31445,"2017-09-01T15:00:00","63","10","100,9","3,7","77,4","35,2","28,2","176,4","0"],
    [31446,"2017-09-01T16:00:00","68","10","97,6","4,2","84,3","35,6","27,3","231,3","0"],
    [31447,"2017-09-01T17:00:00","61","10","96,3","4,2","76,9","36,1","25,5","119,2","0"],
    [31448,"2017-09-01T18:00:00","67","10","102,2","2,1","356,9","35,1","28,5","33,5","0"],
    [31449,"2017-09-01T19:00:00","86","14","44,7","3","359,2","31,7","39,2","0","0"],
    [31450,"2017-09-01T20:00:00","107","30","22,8","1,8","64,5","29,9","45,5","0","0"],
    [31451,"2017-09-01T21:00:00","91","14","20,4","3","118","27,6","56,7","0","0"],
    [31452,"2017-09-01T22:00:00","73","19","24,1","0,7","163,5","27,5","55,9","0","0"],
    [31453,"2017-09-01T23:00:00","94","14","20,5","3,3","131,2","26,8","58,8","0","0"],
    [31454,"2017-09-02T00:00:00","106","37","19,9","1,6","152","26,3","61,5","0","0"],
    [31455,"2017-09-02T01:00:00","92","26","17","1,7","130","25,8","63,9","0","0"],
    [31456,"2017-09-02T02:00:00","104","38","17,7","2,2","119,2","24,6","68","0","0"],
    [31457,"2017-09-02T03:00:00","87","31","17,9","1,3","154","24,4","68,1","0","0"],
    [31458,"2017-09-02T04:00:00","82","25","15,7","2,5","122,3","23,4","70,1","0","0"],
    [31459,"2017-09-02T05:00:00","93","32","15","2,3","162,2","23,2","71","0","0"],
    [31460,"2017-09-02T06:00:00","101","32","12,9","1,3","210,4","23,1","70,4","0","0"],
    [31461,"2017-09-02T07:00:00","105","35","13,5","1,6","123,8","23,9","64,7","5,1","0"],
    [31462,"2017-09-02T08:00:00","173","60","15,7","2,6","101,3","23,5","70,5","76,2","0"],
    [31463,"2017-09-02T09:00:00","123","41","41,2","1,8","168,9","28","52,8","207,4","0"],
    [31464,"2017-09-02T10:00:00","90","23","81,3","1,8","186,1","30,1","44,9","274,6","0"],
    [31465,"2017-09-02T11:00:00","61","24","98,4","1,6","118,2","31,7","39,6","251,3","0"],
    [31466,"2017-09-02T12:00:00","74","24","89,5","3,9","82,2","31,4","40,1","168,4","0"],
    [31467,"2017-09-02T13:00:00","68","18","89,9","4,3","76,2","31,8","39,7","191,1","0"],
    [31468,"2017-09-02T14:00:00","75","16","100,1","4,1","81,9","32,3","38,9","189,8","0"],
    [31469,"2017-09-02T15:00:00","68","12","104","3,7","54,3","33,4","38","276","0"],
    [31470,"2017-09-02T16:00:00","42","7","91,2","4,7","31,4","34,4","36,9","225,8","0"],
    [31471,"2017-09-02T17:00:00","33","3","58,7","2,7","29,4","34","37","110,4","0"],
    [31472,"2017-09-02T18:00:00","46","ND","42,8","5,1","305,4","31,5","40,5","11,1","0"],
    [31473,"2017-09-02T19:00:00","50","5","33,2","4","302,6","30,6","44,2","0","0"],
    [31474,"2017-09-02T20:00:00","40","4","37,7","4,2","301,2","29,7","46,7","0","0"],
    [31475,"2017-09-02T21:00:00","52","9","18,1","2,9","75","28","55,2","0","0"],
    [31476,"2017-09-02T22:00:00","80","7","16,7","2,9","90,9","27,2","58,9","0","0"],
    [31477,"2017-09-02T23:00:00","41","ND","18","2,3","102,2","26,8","60,6","0","0"],
    [31478,"2017-09-03T00:00:00","48","ND","15,4","0,9","179,8","26,6","61,7","0","0"],
    [31479,"2017-09-03T01:00:00","39","1","15,4","1,3","82,7","26,2","63,5","0","0"],
    [31480,"2017-09-03T02:00:00","54","3","15,1","1","245,3","26,2","63,7","0","0"],
    [31481,"2017-09-03T03:00:00","62","9","13,8","2","167,7","25,8","65,5","0","0"],
    [31482,"2017-09-03T04:00:00","46","5","12,8","0,9","187,6","24,7","70,1","0","0"],
    [31483,"2017-09-03T05:00:00","46","5","14,1","1,9","189,9","24,8","69,1","0","0"],
    [31484,"2017-09-03T06:00:00","49","7","12,7","1,5","105,4","23,8","72,9","0","0"],
    [31485,"2017-09-03T07:00:00","65","15","14,2","1,1","201,7","24,1","72","11,4","0"],
    [31486,"2017-09-03T08:00:00","66","22","20,8","1,6","77,5","25,6","66,5","101,3","0"],
    [31487,"2017-09-03T09:00:00","63","12","39,3","1,9","187,6","28,7","55,6","210","0"],
    [31488,"2017-09-03T10:00:00","53","8","62","2,2","189,4","30,3","50,9","303,5","0"],
    [31489,"2017-09-03T11:00:00","55","7","92,5","1,8","174,3","32,1","43,8","360","0"],
    [31490,"2017-09-03T12:00:00","79","5","104,7","1,2","149,2","34,2","36,5","431,7","0"],
    [31491,"2017-09-03T13:00:00","39","5","107,1","2,5","89,7","35,7","32","411,4","0"],
    [31492,"2017-09-03T14:00:00","43","4","92,7","3,2","111,9","37,2","25,4","432,3","0"],
    [31493,"2017-09-03T15:00:00","29","1","94,9","2,2","136","38","20,7","374,3","0"],
    [31494,"2017-09-03T16:00:00","43","14","93,4","5,2","99,4","36,9","24,7","204,7","0"],
    [31495,"2017-09-03T17:00:00","71","17","86,4","5,8","111,8","35,8","29","143,5","0"],
    [31496,"2017-09-03T18:00:00","71","10","66,7","3","107,1","34,4","31","16,4","0"],
    [31497,"2017-09-03T19:00:00","54","6","60,3","4,7","283,5","32,3","38,9","0","0"],
    [31498,"2017-09-03T20:00:00","43","6","52,5","5,2","298,9","31,1","42,8","0","0"],
    [31499,"2017-09-03T21:00:00","79","6","21,7","2,9","102,2","28,6","53,2","0","0"],
    [31500,"2017-09-03T22:00:00","77","7","19,7","2,9","114,2","27,5","59,4","0","0"],
    [31501,"2017-09-03T23:00:00","55","6","21,5","0,7","111,1","27,6","58,5","0","0"],
    [31502,"2017-09-04T00:00:00","67","6","24,1","1,1","201,4","27,1","61,1","0","0"],
    [31503,"2017-09-04T01:00:00","101","42","21","2,4","176,5","26,5","60","0","0"],
    [31504,"2017-09-04T02:00:00","76","26","19,2","1,3","131,2","25,8","60","0","0"],
    [31505,"2017-09-04T03:00:00","68","20","17,9","1,5","125,5","25,3","59,7","0","0"],
    [31506,"2017-09-04T04:00:00","70","15","17,6","2,2","129,3","24,3","61,7","0","0"],
    [31507,"2017-09-04T05:00:00","71","20","14,3","1,7","184,7","23,9","61,8","0","0"],
    [31508,"2017-09-04T06:00:00","73","23","12,4","1,5","89,3","22,9","64,7","0","0"],
    [31509,"2017-09-04T07:00:00","92","25","13,2","1,7","173,5","23,3","62","24,7","0"],
    [31510,"2017-09-04T08:00:00","88","13","20,1","2","170,9","25,3","56,1","117,5","0"],
    [31511,"2017-09-04T09:00:00","82","12","43,9","2,5","164,7","28,9","43","223,1","0"],
    [31512,"2017-09-04T10:00:00","42","8","61,6","2,4","108,1","30,7","39,6","324,8","0"],
    [31513,"2017-09-04T11:00:00","50","6","83,8","2,4","101,3","32,5","36","396,1","0"],
    [31514,"2017-09-04T12:00:00","59","14","115,5","2,4","103,4","34,7","31,4","419,3","0"],
    [31515,"2017-09-04T13:00:00","53","19","134","1,6","22,4","35,5","30,7","408,8","0"],
    [31516,"2017-09-04T14:00:00","56","14","112,1","4,8","44,9","35,7","31,5","312,5","0"],
    [31517,"2017-09-04T15:00:00","38","8","103,8","4,3","2,6","35,9","30,4","256,4","0"],
    [31518,"2017-09-04T16:00:00","39","1","84,9","4,6","19,3","36,1","29,3","230","0"],
    [31519,"2017-09-04T17:00:00","36","ND","79,6","6,8","310,3","34,5","33,1","121,6","0"],
    [31520,"2017-09-04T18:00:00","44","ND","60,3","6,6","299,9","32,6","37,1","26,2","0"],
    [31521,"2017-09-04T19:00:00","47","3","39,9","6,4","304,2","31,1","40,7","0","0"],
    [31522,"2017-09-04T20:00:00","44","4","32","2,5","355,7","29,9","46","0","0"],
    [31523,"2017-09-04T21:00:00","36","2","22,4","4,4","101,8","28","55,2","0","0"],
    [31524,"2017-09-04T22:00:00","45","ND","21,3","1,2","81,4","27,7","55,8","0","0"],
    [31525,"2017-09-04T23:00:00","26","ND","24,5","2,8","68,3","26,7","59,1","0","0"],
    [31526,"2017-09-05T00:00:00","16","ND","31,5","0,5","133,1","26,2","60,6","0","0"],
    [31527,"2017-09-05T01:00:00","25","ND","29,7","1,5","102,4","26,5","59,9","0","0"],
    [31528,"2017-09-05T02:00:00","39","2","28,6","2,3","96","25,5","63,5","0","0"],
    [31529,"2017-09-05T03:00:00","37","3","25,2","1,9","142,6","25,3","64,7","0","0"],
    [31530,"2017-09-05T04:00:00","52","6","18,1","1,8","150,2","24,7","68,2","0","0"],
    [31531,"2017-09-05T05:00:00","59","15","14,9","1,7","197,9","24,2","69,4","0","0"],
    [31532,"2017-09-05T06:00:00","86","25","13,7","3","100,4","24,4","68,8","0","0"],
    [31533,"2017-09-05T07:00:00","92","22","14,1","2,6","79,9","23,9","69,7","16,5","0"],
    [31534,"2017-09-05T08:00:00","88","20","16,8","2,2","96,4","25,3","64,4","68,3","0"],
    [31535,"2017-09-05T09:00:00","78","16","35,7","1,9","157,2","27,7","56,9","204,9","0"],
    [31536,"2017-09-05T10:00:00","51","10","65,3","2,5","216,1","29,8","48,5","315,7","0"],
    [31537,"2017-09-05T11:00:00","69","17","93","2,6","92,3","31,9","41,9","387,5","0"],
    [31538,"2017-09-05T12:00:00","55","17","105,9","2,7","111,3","33,4","37,9","413,4","0"],
    [31539,"2017-09-05T13:00:00","55","ND","ND","2,5","73,5","35","33,5","429,6","0"],
    [31540,"2017-09-05T14:00:00","71","ND","ND","3,1","30,4","36,1","31,9","378,5","0"],
    [31541,"2017-09-05T15:00:00","47","ND","ND","4,9","3","36,1","31,3","309,3","0"],
    [31542,"2017-09-05T16:00:00","38","ND","ND","6,1","348,4","35,6","30,7","195,7","0"],
    [31543,"2017-09-05T17:00:00","45","ND","ND","4,8","352,2","34,7","32","85,7","0"],
    [31544,"2017-09-05T18:00:00","35","ND","ND","4,2","317,9","32,6","36,2","27,2","0"],
    [31545,"2017-09-05T19:00:00","57","ND","ND","3,5","337,9","30,6","41,8","0","0"],
    [31546,"2017-09-05T20:00:00","68","ND","ND","2,9","0,5","29,3","45,6","0","0"],
    [31547,"2017-09-05T21:00:00","68","ND","ND","3","90,9","27,6","54,7","0","0"],
    [31548,"2017-09-05T22:00:00","44","ND","ND","3,7","96,5","26","62,8","0","0"],
    [31549,"2017-09-05T23:00:00","37","ND","ND","3,4","87,5","25,5","65,8","0","0"],
    [31550,"2017-09-06T00:00:00","36","ND","ND","4","97,6","25","68,8","0","0"],
    [31551,"2017-09-06T01:00:00","27","ND","ND","2,3","121,8","24,7","70,1","0","0"],
    [31552,"2017-09-06T02:00:00","24","ND","ND","1,6","102,8","24,7","69,5","0","0"],
    [31553,"2017-09-06T03:00:00","39","ND","ND","1,6","12,7","24,3","69,5","0","0"],
    [31554,"2017-09-06T04:00:00","48","ND","ND","0,4","322","24,3","69","0","0"],
    [31555,"2017-09-06T05:00:00","46","ND","ND","2,5","134,4","24,5","69,6","0","0"],
    [31556,"2017-09-06T06:00:00","82","ND","ND","2,3","99,4","24,2","71,4","0","0"],
    [31557,"2017-09-06T07:00:00","57","ND","ND","2,5","26,9","23,8","73,8","0","4,32"],
    [31558,"2017-09-06T08:00:00","33","ND","ND","1,2","240,6","22,6","83,5","33,1","90,42"],
    [31559,"2017-09-06T09:00:00","38","ND","ND","2,9","285,6","23,5","87,8","114,7","0"],
    [31560,"2017-09-06T10:00:00","49","ND","ND","2,6","118,4","25,7","78,9","214,1","0"],
    [31561,"2017-09-06T11:00:00","43","ND","ND","2,1","97,2","28,3","60,1","377,2","0"],
    [31562,"2017-09-06T12:00:00","27","ND","ND","2,4","80,6","31,3","47,4","418,9","0"],
    [31563,"2017-09-06T13:00:00","33","ND","ND","2","135,7","33,1","40","435,4","0"],
    [31564,"2017-09-06T14:00:00","42","ND","ND","2,7","106,7","34,8","34,5","385,3","0"],
    [31565,"2017-09-06T15:00:00","47","ND","ND","3,2","76,3","35,5","32,6","326,8","0"],
    [31566,"2017-09-06T16:00:00","54","ND","ND","2,5","345,6","34,7","34,5","139,1","0"],
    [31567,"2017-09-06T17:00:00","52","ND","ND","2,9","229,9","31,2","48,2","51,7","0"],
    [31568,"2017-09-06T18:00:00","66","ND","ND","1,9","62,7","29,3","56,6","21,1","0"],
    [31569,"2017-09-06T19:00:00","75","ND","ND","4,8","67,2","26,9","65,7","0","0"],
    [31570,"2017-09-06T20:00:00","46","ND","ND","2,7","53,3","26","64,9","0","0"],
    [31571,"2017-09-06T21:00:00","62","ND","ND","2,4","95,4","25,3","67,7","0","0"],
    [31572,"2017-09-06T22:00:00","50","ND","ND","1,8","89,4","24,9","68,4","0","0"],
    [31573,"2017-09-06T23:00:00","47","ND","ND","1,7","143,3","24,7","69,6","0","0"],
    [31574,"2017-09-07T00:00:00","44","ND","ND","1,8","107,2","24,2","72,6","0","0"],
    [31575,"2017-09-07T01:00:00","43","ND","ND","1,7","95,9","23,8","73,5","0","0"],
    [31576,"2017-09-07T02:00:00","33","ND","ND","1,1","124,2","23,6","74","0","0"],
    [31577,"2017-09-07T03:00:00","42","ND","ND","1,9","176,4","23,8","74,9","0","4,57"],
    [31578,"2017-09-07T04:00:00","34","ND","ND","2,2","266,4","23,1","79,4","0","1,02"],
    [31579,"2017-09-07T05:00:00","19","ND","ND","4,6","251,7","22,9","82,7","0","0"],
    [31580,"2017-09-07T06:00:00","16","ND","ND","2,1","292,2","22,6","83,5","0","2,03"],
    [31581,"2017-09-07T07:00:00","25","ND","ND","2,3","281,1","22,7","84,4","15,3","2,79"],
    [31582,"2017-09-07T08:00:00","27","ND","ND","1,2","52,8","23,4","83,8","71,6","0"],
    [31583,"2017-09-07T09:00:00","31","ND","ND","2,1","323,4","26,1","73,7","214,5","0"],
    [31584,"2017-09-07T10:00:00","32","ND","ND","1","236,7","28,8","56,6","313,3","0"],
    [31585,"2017-09-07T11:00:00","44","ND","ND","2,4","93,9","31,1","46,2","412,8","0"],
    [31586,"2017-09-07T12:00:00","37","ND","ND","2,7","39,8","32,5","40,7","425,8","0"],
    [31587,"2017-09-07T13:00:00","42","ND","ND","2,6","71,6","33,6","39","435,7","0"],
    [31588,"2017-09-07T14:00:00","31","ND","ND","2,5","39,6","34,5","36,6","408,3","0"],
    [31589,"2017-09-07T15:00:00","27","ND","91","4,2","349,4","34,7","34,7","327,8","0"],
    [31590,"2017-09-07T16:00:00","40","ND","81","4,1","342,9","34","36,4","167,2","0"],
    [31591,"2017-09-07T17:00:00","32","ND","62,5","3,1","28","34","36","110,4","0"],
    [31592,"2017-09-07T18:00:00","100","ND","37,9","4,8","33,2","31,3","44,6","14","0"],
    [31593,"2017-09-07T19:00:00","34","ND","30","3,2","300,4","30,2","44,9","0","0"],
    [31594,"2017-09-07T20:00:00","64","2","23,6","1,7","347,8","29,2","48,5","0","0"],
    [31595,"2017-09-07T21:00:00","59","4","17,3","3,1","120,2","27,1","59,7","0","0"],
    [31596,"2017-09-07T22:00:00","35","1","18,5","2,8","112,8","26,3","63,3","0","0"],
    [31597,"2017-09-07T23:00:00","41","ND","18,1","2,5","96","26,2","63","0","0"],
    [31598,"2017-09-08T00:00:00","32","ND","23,3","2,5","85,9","25,7","64,5","0","0"],
    [31599,"2017-09-08T01:00:00","30","ND","22,4","2,5","122,6","25,4","66,1","0","0"],
    [31600,"2017-09-08T02:00:00","36","1","24,8","1,8","122","25,2","66,6","0","0"],
    [31601,"2017-09-08T03:00:00","34","ND","26,8","1","169,1","25,5","65,3","0","0"],
    [31602,"2017-09-08T04:00:00","39","ND","20,4","2,4","112,7","25,3","66,8","0","0"],
    [31603,"2017-09-08T05:00:00","64","2","16,6","3","125,1","25,1","68,1","0","0"],
    [31604,"2017-09-08T06:00:00","69","1","16,1","2,4","112,5","24,8","71,3","0","0"],
    [31605,"2017-09-08T07:00:00","79","26","15,4","2","102,6","24,8","71,1","8,1","0"],
    [31606,"2017-09-08T08:00:00","57","6","19,8","1,7","108,5","25,2","69,6","29,4","0"],
    [31607,"2017-09-08T09:00:00","56","8","28,9","1,2","199,9","26,4","65,3","86,2","0"],
    [31608,"2017-09-08T10:00:00","50","9","38,1","2,2","173,1","28,1","58,9","176,9","0"],
    [31609,"2017-09-08T11:00:00","58","14","43,1","2","132,7","28,4","57,4","111,3","0"],
    [31610,"2017-09-08T12:00:00","18","6","41,3","2,4","352,7","26,2","71,5","168,6","1,27"],
    [31611,"2017-09-08T13:00:00","19","4","39,6","2,8","229,5","25,3","72,6","44","18,03"],
    [31612,"2017-09-08T14:00:00","34","11","32","3,7","127,8","25,3","76,2","115,1","2,03"],
    [31613,"2017-09-08T15:00:00","35","9","35,8","2,5","150,3","27,1","67,2","122,3","0"],
    [31614,"2017-09-08T16:00:00","25","6","46,8","2,2","165,3","28,1","60,6","122,8","0"],
    [31615,"2017-09-08T17:00:00","24","2","41,8","4,2","216","27","65,3","52,1","0"],
    [31616,"2017-09-08T18:00:00","47","1","36,7","4,6","230,1","26,2","67","12,1","0"],
    [31617,"2017-09-08T19:00:00","63","ND","23,5","2,5","207,7","26,2","67,1","0","0"],
    [31618,"2017-09-08T20:00:00","71","19","17,6","2,9","134,6","26","69,6","0","0"],
    [31619,"2017-09-08T21:00:00","62","9","17","2,5","140","25,4","72,7","0","0"],
    [31620,"2017-09-08T22:00:00","64","13","19,4","1,3","176,9","25,1","72,7","0","0"],
    [31621,"2017-09-08T23:00:00","76","23","17,2","2,6","91,3","25","73,5","0","0"],
    [31622,"2017-09-09T00:00:00","69","21","15,4","0,9","339,5","24,5","75,6","0","0"],
    [31623,"2017-09-09T01:00:00","53","15","16,4","0,8","214","24,5","75","0","0"],
    [31624,"2017-09-09T02:00:00","54","7","15,7","1,8","105,1","24,4","76,2","0","0"],
    [31625,"2017-09-09T03:00:00","50","8","15,6","2,2","134,7","24,4","76,2","0","0"],
    [31626,"2017-09-09T04:00:00","57","8","14,5","1,8","152,7","24,2","77,3","0","0"],
    [31627,"2017-09-09T05:00:00","32","3","14,6","2,1","217,4","23,8","79,1","0","0,51"],
    [31628,"2017-09-09T06:00:00","2","ND","15","1,8","176,8","23,7","78,7","0","0,76"],
    [31629,"2017-09-09T07:00:00","26","16","14,9","2","112,1","23,7","79,3","5,1","0"],
    [31630,"2017-09-09T08:00:00","ND","26","15,4","0,7","112,8","24,3","75,8","39,9","0"],
    [31631,"2017-09-09T09:00:00","50","14","18,7","1,6","136,6","25,3","70,5","86,5","0"],
    [31632,"2017-09-09T10:00:00","51","10","32,2","1,6","81,3","27,5","62,2","211,3","0"],
    [31633,"2017-09-09T11:00:00","69","15","63,2","2,3","76,5","29,3","53,3","336","0"],
    [31634,"2017-09-09T12:00:00","45","10","79,9","2,9","91,7","31","47,6","419,8","0"],
    [31635,"2017-09-09T13:00:00","37","2","71,7","4,3","87,1","31,3","45","273,6","0"],
    [31636,"2017-09-09T14:00:00","49","7","85,2","3,7","87,1","31,6","43,1","242,7","0"],
    [31637,"2017-09-09T15:00:00","46","15","99","3,3","77,6","32,6","40,2","283,4","0"],
    [31638,"2017-09-09T16:00:00","40","10","120,8","2,2","337,1","32,8","39,5","225","0"],
    [31639,"2017-09-09T17:00:00","24","5","66,2","4,9","270,5","31,7","39,6","47","0"],
    [31640,"2017-09-09T18:00:00","36","ND","39,6","4,3","279,1","30,4","43,3","4,9","0"],
    [31641,"2017-09-09T19:00:00","30","ND","32","4,3","286,2","29,6","46","0","0"],
    [31642,"2017-09-09T20:00:00","30","ND","32,5","4,8","276,4","28,1","52,9","0","0"],
    [31643,"2017-09-09T21:00:00","12","ND","31,4","2,5","309,2","26,8","59,4","0","0"],
    [31644,"2017-09-09T22:00:00","27","ND","23,4","1,4","275,8","26,9","58,8","0","0"],
    [31645,"2017-09-09T23:00:00","45","ND","20,2","2,7","94,7","26,6","63,4","0","1,27"],
    [31646,"2017-09-10T00:00:00","24","2","18,6","2,8","87","25,2","73","0","0"],
    [31647,"2017-09-10T01:00:00","22","ND","17,7","2,5","339,8","24,9","71,4","0","0"],
    [31648,"2017-09-10T02:00:00","30","ND","14,9","1,6","36,7","25,3","68,8","0","0"],
    [31649,"2017-09-10T03:00:00","27","ND","18,8","1,9","64,3","24,6","71,2","0","0"],
    [31650,"2017-09-10T04:00:00","33","ND","18,6","0,9","314,8","24,3","73,5","0","0,51"],
    [31651,"2017-09-10T05:00:00","24","ND","19,1","0,8","293,8","24,5","72,6","0","0"],
    [31652,"2017-09-10T06:00:00","35","3","16,7","1,9","75,8","24,6","73,1","0","0"],
    [31653,"2017-09-10T07:00:00","44","4","16,7","1,8","90,6","24,5","73,8","0","0"],
    [31654,"2017-09-10T08:00:00","43","8","17,2","2,4","78,5","24,8","74,5","23,9","0"],
    [31655,"2017-09-10T09:00:00","28","5","24,8","1,9","12,8","25,7","70,1","110,5","0"],
    [31656,"2017-09-10T10:00:00","35","3","41,3","0,3","31,9","27,8","60,9","179","0"],
    [31657,"2017-09-10T11:00:00","35","7","67,8","0,2","66,6","29,9","51,2","381,2","0"],
    [31658,"2017-09-10T12:00:00","29","3","83,4","1","21,5","31,6","44","355,6","0"],
    [31659,"2017-09-10T13:00:00","30","5","78,8","3","77,3","32,4","40,8","318,3","0"],
    [31660,"2017-09-10T14:00:00","29","4","72,4","2,2","62,8","33,4","36,9","305","0"],
    [31661,"2017-09-10T15:00:00","31","ND","62,6","4,4","50","32,7","38,4","188,4","0"],
    [31662,"2017-09-10T16:00:00","25","ND","64,7","4,7","31,6","32,4","39,6","126,7","0"],
    [31663,"2017-09-10T17:00:00","23","ND","57,2","5,1","39,2","31,8","42,4","78,5","0"],
    [31664,"2017-09-10T18:00:00","39","1","46,9","4,3","31,9","30,7","48,4","12,6","0"],
    [31665,"2017-09-10T19:00:00","34","ND","27","3,1","37,3","29,3","53,1","0","0"],
    [31666,"2017-09-10T20:00:00","43","2","17,5","2,2","356,3","28,3","55,3","0","0"],
    [31667,"2017-09-10T21:00:00","59","9","14,9","2,4","81,1","27,2","61,2","0","0"],
    [31668,"2017-09-10T22:00:00","41","5","15,6","2,9","105,1","26,3","64,3","0","0"],
    [31669,"2017-09-10T23:00:00","41","ND","16,1","1,6","55,1","25,9","64,9","0","0"],
    [31670,"2017-09-11T00:00:00","49","ND","15,5","2","76,8","25,5","66,2","0","0"],
    [31671,"2017-09-11T01:00:00","16","ND","16,5","1,7","315,2","25,5","66,4","0","0"],
    [31672,"2017-09-11T02:00:00","43","ND","15,9","0,9","52,2","25,7","66,3","0","0"],
    [31673,"2017-09-11T03:00:00","28","ND","15,2","1,8","90,4","24,8","69,8","0","0"],
    [31674,"2017-09-11T04:00:00","28","ND","14,5","1","139,5","24,5","71,4","0","0"],
    [31675,"2017-09-11T05:00:00","58","7","14,6","1,5","156","24,7","71,2","0","0"],
    [31676,"2017-09-11T06:00:00","91","23","15,1","2,1","140,9","24,8","72,2","0","0"],
    [31677,"2017-09-11T07:00:00","115","17","14,9","1,6","172","24,6","73,4","6,7","0"],
    [31678,"2017-09-11T08:00:00","73","5","16,2","0,9","170","25,5","69,3","35,9","0"],
    [31679,"2017-09-11T09:00:00","74","16","27,1","1,3","116,1","27,9","58,7","215,9","0"],
    [31680,"2017-09-11T10:00:00","54","5","51,5","1,7","108,3","30,2","51,5","314,2","0"],
    [31681,"2017-09-11T11:00:00","ND","ND","ND","2,3","104,3","31,8","45,3","388,2","0"],
    [31682,"2017-09-11T12:00:00","ND","ND","80,6","3,5","99,1","33,5","39,4","441,8","0"],
    [31683,"2017-09-11T13:00:00","26","ND","98,8","2,4","34","34,5","35,9","421,1","0"],
    [31684,"2017-09-11T14:00:00","32","ND","108,3","3","78,3","35,5","34,1","387,2","0"],
    [31685,"2017-09-11T15:00:00","38","ND","119,7","3,5","26,2","36,1","32,8","330","0"],
    [31686,"2017-09-11T16:00:00","26","ND","81,7","3,9","312","34,9","35","171,6","0"],
    [31687,"2017-09-11T17:00:00","40","ND","56,7","7,5","281,6","34,1","36","129,1","0"],
    [31688,"2017-09-11T18:00:00","30","ND","42,1","6,5","283,7","32,1","40,1","28,5","0"],
    [31689,"2017-09-11T19:00:00","22","ND","20,3","5,1","316,7","30,4","44,4","0","0"],
    [31690,"2017-09-11T20:00:00","37","ND","15,9","1,9","3,6","29,8","47","0","0"],
    [31691,"2017-09-11T21:00:00","42","ND","16,8","3","103,1","27,7","57,2","0","0"],
    [31692,"2017-09-11T22:00:00","17","ND","16,6","1,5","115,8","27,4","58,8","0","0"],
    [31693,"2017-09-11T23:00:00","17","ND","21,3","2,7","262,1","28,2","54,5","0","0"],
    [31694,"2017-09-12T00:00:00","16","1","17,7","3,1","126,1","26,8","61,6","0","0"],
    [31695,"2017-09-12T01:00:00","21","ND","19,2","0,4","99,3","26,6","62,3","0","0"],
    [31696,"2017-09-12T02:00:00","25","ND","18,3","1,6","204,8","26,4","64,2","0","0"],
    [31697,"2017-09-12T03:00:00","135","ND","21,6","1,5","101,7","26,1","66,8","0","0"],
    [31698,"2017-09-12T04:00:00","74","17","16,6","1,4","138,3","25,9","67,7","0","0"],
    [31699,"2017-09-12T05:00:00","72","17","15,1","2,2","225,3","25,9","67,3","0","0"],
    [31700,"2017-09-12T06:00:00","103","45","16,1","2","147,2","26,1","67,1","0","0"],
    [31701,"2017-09-12T07:00:00","82","32","18,2","2,3","171,9","25,8","65,9","4,1","0"],
    [31702,"2017-09-12T08:00:00","59","9","15","1,6","11,7","25,7","68,8","24","0"],
    [31703,"2017-09-12T09:00:00","59","15","17,4","1,7","68","27","64,1","63,4","0"],
    [31704,"2017-09-12T10:00:00","44","10","24,1","2,4","63,8","28,8","58,1","205,2","0"],
    [31705,"2017-09-12T11:00:00","28","6","55,1","0,8","113,8","30,8","48,8","246,3","0"],
    [31706,"2017-09-12T12:00:00","62","29","74,6","2,9","134,6","31,4","46,9","232,1","0"],
    [31707,"2017-09-12T13:00:00","48","18","91,7","3,1","186,1","32,6","42,3","234,2","0"],
    [31708,"2017-09-12T14:00:00","64","24","100,6","2,6","109,2","33,2","41,8","295,9","0"],
    [31709,"2017-09-12T15:00:00","57","21","107","2,4","44,2","32,5","42,6","107,8","0"],
    [31710,"2017-09-12T16:00:00","42","8","82,6","3,7","22,5","32,7","41,4","140","0"],
    [31711,"2017-09-12T17:00:00","31","7","67,6","3,3","24","33,1","39","121,8","0"],
    [31712,"2017-09-12T18:00:00","17","ND","35,2","5,6","326,7","31,2","41,8","31,3","0"],
    [31713,"2017-09-12T19:00:00","21","ND","21","5","307,8","29,6","45,9","0","0"],
    [31714,"2017-09-12T20:00:00","29","ND","18","2,8","339,1","28,7","48,7","0","0"],
    [31715,"2017-09-12T21:00:00","49","19","15,8","3,7","72,7","26,9","59","0","0"],
    [31716,"2017-09-12T22:00:00","28","2","19,5","3,4","56","26,7","59,6","0","0"],
    [31717,"2017-09-12T23:00:00","18","1","21,6","0,4","351,5","26,8","58,8","0","0"],
    [31718,"2017-09-13T00:00:00","29","5","16,6","2,8","207,5","26,3","62,7","0","0"],
    [31719,"2017-09-13T01:00:00","27","6","17,7","2,7","190,8","26,2","63,1","0","0"],
    [31720,"2017-09-13T02:00:00","33","3","17,6","1,3","158,3","26,1","63,8","0","0"],
    [31721,"2017-09-13T03:00:00","53","3","15,7","1,4","153,3","25,9","65,9","0","0"],
    [31722,"2017-09-13T04:00:00","28","4","17,7","1,3","229,5","25,4","69,2","0","0"],
    [31723,"2017-09-13T05:00:00","33","1","17,7","1,2","80","25,2","71","0","0"],
    [31724,"2017-09-13T06:00:00","45","ND","13,5","2,5","65,6","25","73,9","0","0"],
    [31725,"2017-09-13T07:00:00","31","11","14,4","2,1","64,2","25","73,3","7,3","0"],
    [31726,"2017-09-13T08:00:00","32","11","17,7","1,2","107,5","25,9","68,1","66,5","0"],
    [31727,"2017-09-13T09:00:00","39","7","26,9","2,8","199,9","27,4","62,7","190,1","0"],
    [31728,"2017-09-13T10:00:00","32","6","37,6","2,1","165,3","29,5","52,6","295,9","0"],
    [31729,"2017-09-13T11:00:00","15","9","62,6","2,1","180,9","31","44,8","389","0"],
    [31730,"2017-09-13T12:00:00","19","2","80,5","2,5","233,1","32,4","41,9","405,3","0"],
    [31731,"2017-09-13T13:00:00","29","9","86,5","1,9","186,3","33,4","39,9","359,7","0"],
    [31732,"2017-09-13T14:00:00","28","6","85,1","2,1","97,3","34,1","37","299,8","0"],
    [31733,"2017-09-13T15:00:00","26","13","85","3","97,2","33,8","37,3","181,6","0"],
    [31734,"2017-09-13T16:00:00","36","9","94,6","1,2","62,2","33,7","37,5","113,9","0"],
    [31735,"2017-09-13T17:00:00","45","5","76,1","5","15,6","32,5","41,3","56,7","0"],
    [31736,"2017-09-13T18:00:00","40","14","55,5","3,9","348,9","31,4","43,9","22,6","0"],
    [31737,"2017-09-13T19:00:00","33","6","38,3","4,6","293,3","29,9","46,7","0","0"],
    [31738,"2017-09-13T20:00:00","87","30","19,3","2,7","61,2","29","52,4","0","0"],
    [31739,"2017-09-13T21:00:00","55","23","17,9","3,8","74,6","27,1","60,9","0","0"],
    [31740,"2017-09-13T22:00:00","59","35","18,8","2,6","84,1","26,5","62,5","0","0"],
    [31741,"2017-09-13T23:00:00","34","11","23,2","2,5","51,8","26,5","61,7","0","0"],
    [31742,"2017-09-14T00:00:00","39","6","21","0,8","157,8","26,3","62,8","0","0"],
    [31743,"2017-09-14T01:00:00","44","14","22,6","1,2","73,6","26","63,9","0","0"],
    [31744,"2017-09-14T02:00:00","40","11","27","1,4","64,1","25,8","63,5","0","0"],
    [31745,"2017-09-14T03:00:00","58","22","25,6","1,5","69","25,8","63,4","0","0"],
    [31746,"2017-09-14T04:00:00","41","17","21,4","1,2","187,7","25,7","65,2","0","0"],
    [31747,"2017-09-14T05:00:00","54","18","14,9","1,5","133,5","25,5","67,3","0","0"],
    [31748,"2017-09-14T06:00:00","70","27","14,1","1,8","125,7","25,6","68,1","0","0"],
    [31749,"2017-09-14T07:00:00","85","27","14,3","1,8","144,1","25,5","69,3","17,9","0"],
    [31750,"2017-09-14T08:00:00","129","25","18,3","2,6","127,8","26,6","64,9","54,9","0"],
    [31751,"2017-09-14T09:00:00","77","33","28,1","1,7","129,8","27,4","62,2","115,3","0"],
    [31752,"2017-09-14T10:00:00","57","25","56,1","1,4","69,2","29,9","52,7","270,1","0"],
    [31753,"2017-09-14T11:00:00","58","19","115,4","1,7","257,3","32,2","44,3","334,2","0"],
    [31754,"2017-09-14T12:00:00","ND","22","117,5","2,8","82,4","33,7","38,7","379,3","0"],
    [31755,"2017-09-14T13:00:00","43","17","129,1","1,3","35,2","35,1","35","433,2","0"],
    [31756,"2017-09-14T14:00:00","43","16","123,8","2,5","84,6","36","33,1","348,8","0"],
    [31757,"2017-09-14T15:00:00","52","20","118,4","3,3","73,1","36","32","287,5","0"],
    [31758,"2017-09-14T16:00:00","50","14","87,4","3,2","21,2","35,4","33,8","120,5","0"],
    [31759,"2017-09-14T17:00:00","34","8","68,6","6,9","296,4","33,3","39,4","64,3","0"],
    [31760,"2017-09-14T18:00:00","27","ND","57,9","7","304,9","31,8","41,9","22,6","0"],
    [31761,"2017-09-14T19:00:00","32","8","34,1","5,1","310,5","31","43,2","0","0"],
    [31762,"2017-09-14T20:00:00","75","18","20,2","3,4","54,4","30","48,3","0","0"],
    [31763,"2017-09-14T21:00:00","47","11","19,4","1","81","29","53,1","0","0"],
    [31764,"2017-09-14T22:00:00","30","6","22","1,3","80,1","28,6","55","0","0"],
    [31765,"2017-09-14T23:00:00","40","1","19,9","2,8","93,2","27,4","60,1","0","0"],
    [31766,"2017-09-15T00:00:00","72","7","23,7","3,3","74,7","26,8","60,8","0","0"],
    [31767,"2017-09-15T01:00:00","30","3","21,6","1,3","38,2","26,5","62,4","0","0"],
    [31768,"2017-09-15T02:00:00","10","ND","28,9","1,9","134,6","26,9","60,2","0","0"],
    [31769,"2017-09-15T03:00:00","21","ND","31,6","3,3","167,6","26","64,6","0","42,16"],
    [31770,"2017-09-15T04:00:00","ND","ND","41,1","2,3","244,5","22,6","83,8","0","42,16"],
    [31771,"2017-09-15T05:00:00","ND","ND","ND","ND","ND","ND","ND","ND","ND"],
    [31772,"2017-09-15T06:00:00","ND","ND","ND","ND","ND","ND","ND","ND","ND"],
    [31773,"2017-09-15T07:00:00","ND","ND","ND","ND","ND","ND","ND","ND","ND"],
    [31774,"2017-09-15T08:00:00","ND","ND","ND","ND","ND","ND","ND","ND","ND"],
    [31775,"2017-09-15T09:00:00","ND","ND","ND","ND","ND","ND","ND","ND","ND"],
    [31776,"2017-09-15T10:00:00","ND","ND","50,4","3,3","190","27,2","65","216","0"],
    [31777,"2017-09-15T11:00:00","4","ND","62,3","2,6","215","29,6","55,6","390,8","0"],
    [31778,"2017-09-15T12:00:00","6","ND","77","2","211,3","31,8","46,3","426,2","0"],
    [31779,"2017-09-15T13:00:00","11","ND","75","2,7","163,7","33,3","41,7","421,3","0"],
    [31780,"2017-09-15T14:00:00","19","ND","75,3","2,3","99,1","34","38","401","0"],
    [31781,"2017-09-15T15:00:00","22","ND","87,2","1,9","90,7","34,8","37","296,6","0"],
    [31782,"2017-09-15T16:00:00","44","4","83,1","3,7","74,2","34,1","39","159,3","0"],
    [31783,"2017-09-15T17:00:00","36","3","79","5,3","327,1","32,9","41,8","85,2","0"],
    [31784,"2017-09-15T18:00:00","ND","ND","51,6","3,9","312,3","31,4","44,4","12,5","0"],
    [31785,"2017-09-15T19:00:00","30","1","27,8","3,8","291,8","30,2","48,6","0","0"],
    [31786,"2017-09-15T20:00:00","66","17","18,7","1,6","31,9","29,4","52,8","0","0"],
    [31787,"2017-09-15T21:00:00","44","16","17","3,8","92,7","27,2","63,7","0","0"],
    [31788,"2017-09-15T22:00:00","50","ND","18,4","1,8","66,8","27,2","62,3","0","0"],
    [31789,"2017-09-15T23:00:00","20","ND","17,3","1,4","114,6","27","63,6","0","0"],
    [31790,"2017-09-16T00:00:00","23","ND","18","1,7","113,1","26,8","64,2","0","0"],
    [31791,"2017-09-16T01:00:00","26","ND","22,3","2,3","94,9","26,3","65,2","0","0"],
    [31792,"2017-09-16T02:00:00","32","ND","24,6","1,4","296,4","26,1","65,6","0","0"],
    [31793,"2017-09-16T03:00:00","27","5","18,9","1,7","231,9","26,6","66,4","0","0"],
    [31794,"2017-09-16T04:00:00","24","6","15,8","1,8","166","26,2","69,3","0","0"],
    [31795,"2017-09-16T05:00:00","12","ND","19,9","3","196,2","24,5","78,1","0","22,86"],
    [31796,"2017-09-16T06:00:00","ND","ND","16,3","1,3","197,8","24,6","79,1","0","0"],
    [31797,"2017-09-16T07:00:00","ND","ND","ND","ND","ND","ND","ND","ND","ND"],
    [31798,"2017-09-16T08:00:00","ND","ND","ND","ND","ND","ND","ND","ND","ND"],
    [31799,"2017-09-16T09:00:00","ND","ND","26,4","0,5","183,7","27","68,9","131,1","0"],
    [31800,"2017-09-16T10:00:00","41","7","38,4","0,8","81,6","29,2","59,6","226,8","0"],
    [31801,"2017-09-16T11:00:00","29","1","55","1,9","140,6","30,4","52,6","266,4","0"],
    [31802,"2017-09-16T12:00:00","31","9","73,7","2","155,5","32,4","47,4","427,9","0"],
    [31803,"2017-09-16T13:00:00","34","8","71,7","3,1","133,5","32","47,4","173,8","0"],
    [31804,"2017-09-16T14:00:00","58","18","68","3,1","144,5","31,8","48,9","122,8","0"],
    [31805,"2017-09-16T15:00:00","47","12","90,5","2,1","123,8","33,1","44,8","290,5","0"],
    [31806,"2017-09-16T16:00:00","62","18","118,4","1,2","60,3","33,4","43,2","139,5","0"],
    [31807,"2017-09-16T17:00:00","70","19","92,2","3,3","77,5","32,8","45,5","74,5","0"],
    [31808,"2017-09-16T18:00:00","53","17","63,4","0,9","267,4","32","44,2","10,8","0"],
    [31809,"2017-09-16T19:00:00","22","6","33,2","4,8","286,3","30,7","45,1","0","0"],
    [31810,"2017-09-16T20:00:00","18","2","33,8","4,3","294,6","29,6","48,9","0","0"],
    [31811,"2017-09-16T21:00:00","62","15","19","3,1","90,1","28,3","57,2","0","0"],
    [31812,"2017-09-16T22:00:00","52","7","17,1","3,1","82,9","27,4","62,3","0","0"],
    [31813,"2017-09-16T23:00:00","51","6","17","3,3","70,2","26,7","64,4","0","0"],
    [31814,"2017-09-17T00:00:00","49","5","18,9","2,1","27,1","26,5","64,9","0","0"],
    [31815,"2017-09-17T01:00:00","97","38","18,1","1,6","65","26,7","63,8","0","0"],
    [31816,"2017-09-17T02:00:00","24","ND","19,4","1,4","97,3","26,1","66,5","0","0"],
    [31817,"2017-09-17T03:00:00","35","ND","18,2","1","147,7","26,1","67,2","0","0"],
    [31818,"2017-09-17T04:00:00","33","ND","16","1,8","167,8","25,9","69,2","0","0"],
    [31819,"2017-09-17T05:00:00","53","ND","14,7","2,1","158,4","25,5","71,7","0","0"],
    [31820,"2017-09-17T06:00:00","45","4","16,8","1,8","133,9","25,7","69,4","0","0"],
    [31821,"2017-09-17T07:00:00","53","7","17,6","1,3","209,3","25,7","70,3","10,5","0"],
    [31822,"2017-09-17T08:00:00","58","17","22","1,1","89,5","26,7","66,9","57,2","0"],
    [31823,"2017-09-17T09:00:00","51","7","29,1","1","176,4","27,9","62,8","105","0"],
    [31824,"2017-09-17T10:00:00","50","16","40,3","2,9","120,5","29,4","56,9","190,7","0"],
    [31825,"2017-09-17T11:00:00","43","12","40,8","4,7","184","29,4","57,2","178,5","0"],
    [31826,"2017-09-17T12:00:00","39","10","41,3","4,5","147,7","28,6","59,1","101,4","0"],
    [31827,"2017-09-17T13:00:00","24","7","53","3","159,1","29,4","61,2","362","0,25"],
    [31828,"2017-09-17T14:00:00","33","11","100,1","2,9","95,3","33","42,5","408,2","0"],
    [31829,"2017-09-17T15:00:00","32","6","98,4","1,5","99,7","34,2","38,2","308,8","0"],
    [31830,"2017-09-17T16:00:00","33","13","99,5","1,8","41,7","34,2","37,4","141,6","0"],
    [31831,"2017-09-17T17:00:00","30","7","65,5","3,5","194,8","32,3","44,9","48,1","0"],
    [31832,"2017-09-17T18:00:00","27","ND","51,2","3,2","244,1","31,4","43,6","4,7","0"],
    [31833,"2017-09-17T19:00:00","35","ND","33,3","3,3","295,8","30,8","44,2","0","0"],
    [31834,"2017-09-17T20:00:00","38","ND","25,6","0,9","104,7","29,9","50,7","0","0"],
    [31835,"2017-09-17T21:00:00","44","2","18","2,4","123,7","28,9","56,4","0","0"],
    [31836,"2017-09-17T22:00:00","46","1","17,8","3,2","101,6","27,4","62,7","0","0"],
    [31837,"2017-09-17T23:00:00","33","ND","17,8","2,8","83,9","26,5","64,1","0","0"],
    [31838,"2017-09-18T00:00:00","24","ND","19,2","1","254,3","26,1","65,5","0","0"],
    [31839,"2017-09-18T01:00:00","19","ND","15,9","2","131,9","25,8","66,9","0","0"],
    [31840,"2017-09-18T02:00:00","30","ND","16,3","0,5","359,1","25","70,3","0","0"],
    [31841,"2017-09-18T03:00:00","29","ND","17,4","1,1","216,7","24,9","71,3","0","0"],
    [31842,"2017-09-18T04:00:00","36","ND","17,4","1,8","178,4","24,6","73,9","0","0"],
    [31843,"2017-09-18T05:00:00","38","ND","14,1","1,8","149,6","23,7","77","0","0"],
    [31844,"2017-09-18T06:00:00","64","12","14","1,1","196,1","23,9","75,2","0","0"],
    [31845,"2017-09-18T07:00:00","102","26","15,1","2,5","104","24","74,4","15,3","0"],
    [31846,"2017-09-18T08:00:00","95","28","15,3","2","98","24,8","72,5","73,3","0"],
    [31847,"2017-09-18T09:00:00","60","16","22,9","2,4","109,6","26,9","64,1","209,4","0"],
    [31848,"2017-09-18T10:00:00","41","5","52","0,2","16,4","29,9","53,9","337,5","0"],
    [31849,"2017-09-18T11:00:00","53","5","73,3","2,2","66,8","31,8","47,1","366,7","0"],
    [31850,"2017-09-18T12:00:00","43","7","78,4","3,5","80,6","32,2","43,8","343,5","0"],
    [31851,"2017-09-18T13:00:00","27","4","86,3","2,1","93,9","35","34,8","432,3","0"],
    [31852,"2017-09-18T14:00:00","28","1","80,9","2,8","113,3","36","28,4","400,1","0"],
    [31853,"2017-09-18T15:00:00","39","2","86,6","2,9","156,6","36,8","27,3","352,1","0"],
    [31854,"2017-09-18T16:00:00","32","2","92,7","2","92,9","36,5","28","175,1","0"],
    [31855,"2017-09-18T17:00:00","40","1","96,1","6,8","283,7","34,1","36,4","80,9","0"],
    [31856,"2017-09-18T18:00:00","40","2","60,5","5,5","303,7","32,5","40,1","12,8","0"],
    [31857,"2017-09-18T19:00:00","69","10","32,1","0,6","76,8","30,9","46,2","0","0"],
    [31858,"2017-09-18T20:00:00","60","10","23,7","2,9","98,7","29,7","52","0","0"],
    [31859,"2017-09-18T21:00:00","39","7","21,8","2,8","96,8","28,7","57,2","0","0"],
    [31860,"2017-09-18T22:00:00","33","12","23,5","3,3","80,3","28,3","58,2","0","0"],
    [31861,"2017-09-18T23:00:00","19","4","26,9","3,3","45,9","28,3","57,7","0","0"],
    [31862,"2017-09-19T00:00:00","22","ND","24,3","2,8","71,7","27,3","63,5","0","2,03"],
    [31863,"2017-09-19T01:00:00","7","ND","28,3","1,1","32,3","25,8","70","0","1,02"],
    [31864,"2017-09-19T02:00:00","6","ND","33","2,8","339,8","23,4","82,2","0","51,05"],
    [31865,"2017-09-19T03:00:00","11","ND","32,3","3","26,2","23,1","83,3","0","9,14"],
    [31866,"2017-09-19T04:00:00","13","ND","21,4","3,5","80,2","23","83,9","0","2,54"],
    [31867,"2017-09-19T05:00:00","23","ND","24,9","3,1","342,7","23,2","80,3","0","0"],
    [31868,"2017-09-19T06:00:00","32","ND","16,5","2,4","339,6","23,6","76,5","0","0"],
    [31869,"2017-09-19T07:00:00","25","1","19,4","1,7","202,2","24","74,6","32,4","0"],
    [31870,"2017-09-19T08:00:00","36","10","20,8","2,5","201,1","25,5","71,5","89,5","0"],
    [31871,"2017-09-19T09:00:00","40","11","31","2,5","139,5","27,5","64,8","229,3","0"],
    [31872,"2017-09-19T10:00:00","40","16","53,2","3","75,2","29,2","55","324,1","0"],
    [31873,"2017-09-19T11:00:00","45","7","67,7","3","91,6","29,9","52,6","350,8","0"],
    [31874,"2017-09-19T12:00:00","37","6","70,6","3,5","98,4","30,7","48,5","303","0"],
    [31875,"2017-09-19T13:00:00","29","7","81,1","1,6","87,7","33","40,9","441,8","0"],
    [31876,"2017-09-19T14:00:00","29","4","97","1,3","82,9","34,5","35,5","394,5","0"],
    [31877,"2017-09-19T15:00:00","45","7","98,7","2,6","90,3","34,8","32,9","321,9","0"],
    [31878,"2017-09-19T16:00:00","43","11","90,6","3,1","93,4","34,9","31,5","226,1","0"],
    [31879,"2017-09-19T17:00:00","40","7","82,6","3,2","85,4","34,6","31,9","120,5","0"],
    [31880,"2017-09-19T18:00:00","48","5","86,1","1,8","289,6","33,6","36,2","30,4","0"],
    [31881,"2017-09-19T19:00:00","44","4","47,7","4,1","303,1","30,9","47,4","0","0"],
    [31882,"2017-09-19T20:00:00","71","19","24,4","1,2","329,5","30,1","49,9","0","0"],
    [31883,"2017-09-19T21:00:00","38","9","22,2","3,5","112,2","27,7","62,8","0","0"],
    [31884,"2017-09-19T22:00:00","39","5","18,6","3","88","26,9","66,8","0","0"],
    [31885,"2017-09-19T23:00:00","23","ND","20,3","2,8","84,8","27,1","65,3","0","0"],
    [31886,"2017-09-20T00:00:00","24","ND","23,6","1,6","59,2","27","64,3","0","0"],
    [31887,"2017-09-20T01:00:00","25","ND","22,1","1,3","283,6","26,8","65,9","0","0"],
    [31888,"2017-09-20T02:00:00","40","ND","17,7","2,1","180,7","26,1","71,1","0","0"],
    [31889,"2017-09-20T03:00:00","42","ND","17,3","2,7","142,8","25,6","72,6","0","0"],
    [31890,"2017-09-20T04:00:00","45","2","16,4","0,9","177,4","25,2","73,4","0","0"],
    [31891,"2017-09-20T05:00:00","59","6","15,6","1,9","168,6","25,2","72,6","0","0"],
    [31892,"2017-09-20T06:00:00","81","16","15,4","1,8","139,8","24,8","73,2","0","0"],
    [31893,"2017-09-20T07:00:00","83","16","15,5","2,1","171,3","24,5","73,3","8,4","0"],
    [31894,"2017-09-20T08:00:00","76","20","18,2","1,1","206,8","25,4","68,5","61,5","0"],
    [31895,"2017-09-20T09:00:00","80","20","23,5","2,4","96,2","27,4","61,6","157,4","0"],
    [31896,"2017-09-20T10:00:00","60","17","46,7","2,9","59,2","29,7","51,1","248,7","0"],
    [31897,"2017-09-20T11:00:00","50","5","57,3","3,7","48","30,3","49,3","262,4","0"],
    [31898,"2017-09-20T12:00:00","40","1","71,4","4,3","85","32,8","40,5","431,7","0"],
    [31899,"2017-09-20T13:00:00","31","6","85,8","3,7","61,5","34,1","35,9","432,2","0"],
    [31900,"2017-09-20T14:00:00","32","2","93,1","3","52,6","34,8","33,7","388,4","0"],
    [31901,"2017-09-20T15:00:00","21","ND","79,6","4,4","62,9","35,5","32,2","331","0"],
    [31902,"2017-09-20T16:00:00","28","ND","72,9","6","12,9","35,1","33,1","202,6","0"],
    [31903,"2017-09-20T17:00:00","35","ND","64,1","6","2,2","34,1","34,4","128,3","0"],
    [31904,"2017-09-20T18:00:00","35","ND","47,9","5,6","309,2","32","39","21,3","0"],
    [31905,"2017-09-20T19:00:00","50","11","21,2","3","353,7","30,6","43","0","0"],
    [31906,"2017-09-20T20:00:00","85","17","19,9","2,8","62","29,1","50,2","0","0"],
    [31907,"2017-09-20T21:00:00","ND","17","20,1","2,2","71,3","27,5","58,8","0","0"],
    [31908,"2017-09-20T22:00:00","ND","5","20,5","3,5","96,5","26,4","63,9","0","0"],
    [31909,"2017-09-20T23:00:00","ND","ND","21,2","3","71,4","26,4","63,9","0","0"],
    [31910,"2017-09-21T00:00:00","ND","ND","26,1","1,5","24,5","26,4","63,8","0","0"],
    [31911,"2017-09-21T01:00:00","ND","ND","28,9","1,4","95,9","26,3","63,9","0","0"],
    [31912,"2017-09-21T02:00:00","ND","ND","24,5","1,5","108,7","25,6","67,1","0","0"],
    [31913,"2017-09-21T03:00:00","ND","ND","23,8","0,8","123,7","25,6","67,2","0","0"],
    [31914,"2017-09-21T04:00:00","ND","7","18,5","1,3","95,4","25,5","68,5","0","0"],
    [31915,"2017-09-21T05:00:00","ND","8","16,4","1,8","82,9","25,3","70,4","0","0"],
    [31916,"2017-09-21T06:00:00","ND","24","15,4","1,1","178,9","25,6","68,8","0","0"],
    [31917,"2017-09-21T07:00:00","ND","31","16,7","2,2","89,8","25,9","68,1","27,6","0"],
    [31918,"2017-09-21T08:00:00","ND","22","21","1,9","147,3","27,1","63,2","79,6","0"],
    [31919,"2017-09-21T09:00:00","ND","20","41,2","0,9","202,6","28,9","56,7","225,2","0"],
    [31920,"2017-09-21T10:00:00","ND","10","66,8","1,4","151,8","31,3","48,1","332,9","0"],
    [31921,"2017-09-21T11:00:00","ND","ND","76,7","2,4","73,1","32,3","44,2","370,9","0"],
    [31922,"2017-09-21T12:00:00","20","ND","87,8","3","56,1","33,5","40,1","427,4","0"],
    [31923,"2017-09-21T13:00:00","34","ND","98,4","3,3","38,8","34,8","36,7","419,9","0"],
    [31924,"2017-09-21T14:00:00","38","4","104,4","3,4","12,8","35,5","35,5","329,7","0"],
    [31925,"2017-09-21T15:00:00","45","8","93,6","3,5","54,1","36,3","33,4","289","0"],
    [31926,"2017-09-21T16:00:00","52","7","64,5","4,4","0,2","35,2","34,8","159,9","0"],
    [31927,"2017-09-21T17:00:00","29","4","48,8","5,8","296,7","33,4","37,6","35,3","0"],
    [31928,"2017-09-21T18:00:00","25","1","33,9","4,6","300","32,3","40,4","8,4","0"],
    [31929,"2017-09-21T19:00:00","50","12","25,7","2","67,7","30,8","46,8","0","0"],
    [31930,"2017-09-21T20:00:00","70","27","22,7","3,8","62,4","29,1","55,3","0","0"],
    [31931,"2017-09-21T21:00:00","62","17","19,4","2,9","78,9","27,9","60,4","0","0"],
    [31932,"2017-09-21T22:00:00","42","13","18,5","3,3","75,1","27,4","62,1","0","0"],
    [31933,"2017-09-21T23:00:00","47","8","19,3","3,2","82,8","26,9","63,7","0","0"],
    [31934,"2017-09-22T00:00:00","43","3","18,5","2,5","207,5","26,7","64,9","0","0"],
    [31935,"2017-09-22T01:00:00","37","ND","17,7","1,5","102,9","26,1","68","0","0"],
    [31936,"2017-09-22T02:00:00","34","2","17,5","0,8","134,8","26,2","67,7","0","0"],
    [31937,"2017-09-22T03:00:00","42","2","18,9","2,4","97,2","26,2","67,5","0","0"],
    [31938,"2017-09-22T04:00:00","37","2","19,1","1,6","199,7","26,1","67,3","0","0"],
    [31939,"2017-09-22T05:00:00","61","4","16","2","208,8","25,9","67,7","0","0"],
    [31940,"2017-09-22T06:00:00","76","26","15,9","1,9","167,4","26","67","0","0"],
    [31941,"2017-09-22T07:00:00","91","21","16,4","2,2","167,2","26","68","12,8","0"],
    [31942,"2017-09-22T08:00:00","89","14","20,8","2,7","175,5","26,8","64","72,4","0"],
    [31943,"2017-09-22T09:00:00","60","19","27,6","1,6","170","28","60,7","130,4","0"],
    [31944,"2017-09-22T10:00:00","48","16","46,7","1,8","141,3","30,7","51,9","309,3","0"],
    [31945,"2017-09-22T11:00:00","72","20","75,1","1,5","179,8","33,2","42,9","393,5","0"],
    [31946,"2017-09-22T12:00:00","88","11","80,9","2,6","98,7","33,8","39,3","337,9","0"],
    [31947,"2017-09-22T13:00:00","50","16","84,7","3,1","114,3","33,8","39,8","252,1","0"],
    [31948,"2017-09-22T14:00:00","76","9","112,5","3","76,7","35,1","37","366,5","0"],
    [31949,"2017-09-22T15:00:00","74","14","151,8","2,3","346,3","36,1","34,7","317,4","0"],
    [31950,"2017-09-22T16:00:00","59","19","114,3","3,1","20,5","35,4","36,1","128,1","0"],
    [31951,"2017-09-22T17:00:00","29","6","61,3","7,5","297,6","34,1","36,6","105,9","0"],
    [31952,"2017-09-22T18:00:00","37","2","39,7","6,6","294,3","32,3","40,7","13,3","0"],
    [31953,"2017-09-22T19:00:00","42","ND","27,4","4,4","298,1","31","44,8","0","0"],
    [31954,"2017-09-22T20:00:00","58","11","20,9","1,4","70,2","30","49,9","0","0"],
    [31955,"2017-09-22T21:00:00","38","7","20,3","3,7","122,3","28,7","56,1","0","0"],
    [31956,"2017-09-22T22:00:00","42","ND","20,5","1","183,9","28,9","54,3","0","0"],
    [31957,"2017-09-22T23:00:00","27","ND","19,7","3,4","85,3","27,5","60,5","0","0"],
    [31958,"2017-09-23T00:00:00","23","ND","22,5","2,6","51,9","27,3","60,8","0","0"],
    [31959,"2017-09-23T01:00:00","25","ND","21,1","2,2","115,3","26,7","63,3","0","0"],
    [31960,"2017-09-23T02:00:00","36","6","19,4","2,5","132,4","26,5","64,9","0","0"],
    [31961,"2017-09-23T03:00:00","38","6","19,8","2,5","137,3","26,8","64","0","0"],
    [31962,"2017-09-23T04:00:00","41","2","20,1","2,4","94,1","25,7","71,1","0","14,99"],
    [31963,"2017-09-23T05:00:00","29","4","17,6","0,8","269,3","24,9","78,3","0","0,25"],
    [31964,"2017-09-23T06:00:00","42","14","17,6","2,4","213,7","25,2","76,1","0","0"],
    [31965,"2017-09-23T07:00:00","38","17","16,7","1,4","95,6","25","76,2","15,1","0"],
    [31966,"2017-09-23T08:00:00","56","17","18,5","2,2","76,8","26,2","72,2","69,4","0"],
    [31967,"2017-09-23T09:00:00","55","13","24,7","1,1","74,6","27,6","65,7","112","0"],
    [31968,"2017-09-23T10:00:00","63","11","40,4","0,9","15,5","28,6","62,2","147,6","0"],
    [31969,"2017-09-23T11:00:00","51","15","64,7","0,7","222","30,2","54","251,2","0"],
    [31970,"2017-09-23T12:00:00","50","10","85","2,4","68,1","32,4","43,9","380,9","0"],
    [31971,"2017-09-23T13:00:00","34","9","93,3","2","66,1","34,3","37,6","394,6","0"],
    [31972,"2017-09-23T14:00:00","46","11","93,5","4,9","101,1","34,2","37,4","312,2","0"],
    [31973,"2017-09-23T15:00:00","42","11","68,7","5,6","107","33,4","39,8","134,6","0"],
    [31974,"2017-09-23T16:00:00","34","3","64,1","5","283,3","31,6","40,6","75,9","0"],
    [31975,"2017-09-23T17:00:00","17","ND","57,3","5,7","285,8","32,1","40,7","109,2","0"],
    [31976,"2017-09-23T18:00:00","13","ND","49,5","5,9","289,1","31,6","42,1","29,6","0"],
    [31977,"2017-09-23T19:00:00","32","ND","31,3","4,7","303,2","30,3","45,5","0","0"],
    [31978,"2017-09-23T20:00:00","56","15","21,5","1,9","85,8","29,4","51,8","0","0"],
    [31979,"2017-09-23T21:00:00","37","ND","50,3","7,9","207,4","25","68,3","0","20,32"],
    [31980,"2017-09-23T22:00:00","6","ND","45,7","5,4","263,1","23","80,7","0","1,02"],
    [31981,"2017-09-23T23:00:00","19","ND","27","2,4","92,9","23,4","79,8","0","4,57"],
    [31982,"2017-09-24T00:00:00","12","ND","27,3","0,8","67,5","23,1","81,2","0","2,54"],
    [31983,"2017-09-24T01:00:00","17","ND","26,5","2,7","103,9","23,4","80,3","0","0,25"],
    [31984,"2017-09-24T02:00:00","4","2","31,1","1,8","106,7","23,2","79,6","0","36,58"],
    [31985,"2017-09-24T03:00:00","8","2","32,6","0,9","278,1","22,5","84,3","0","18,8"],
    [31986,"2017-09-24T04:00:00","14","2","23,4","1,1","108,4","22,8","83,8","0","0,25"],
    [31987,"2017-09-24T05:00:00","17","1","22,5","1,7","178,2","23","81,8","0","0,25"],
    [31988,"2017-09-24T06:00:00","18","4","23,7","2,1","216,6","23","81,2","0","0"],
    [31989,"2017-09-24T07:00:00","30","4","26","2,9","227,8","23,2","80","25","0"],
    [31990,"2017-09-24T08:00:00","24","4","31,6","3,3","218,9","24,7","73,3","114,3","0"],
    [31991,"2017-09-24T09:00:00","24","3","40,5","2,1","174,5","26,6","66,3","188,2","0"],
    [31992,"2017-09-24T10:00:00","11","ND","58,2","2,4","140,6","28,3","58,9","271,9","0"],
    [31993,"2017-09-24T11:00:00","20","ND","70,5","2,4","129,7","30,2","51,5","397,1","0"],
    [31994,"2017-09-24T12:00:00","37","ND","80,8","2,7","101,4","31,8","46,5","422,5","0"],
    [31995,"2017-09-24T13:00:00","35","ND","88,9","4,7","95,3","31,7","47,7","344,6","0"],
    [31996,"2017-09-24T14:00:00","50","7","93,6","3,5","62","32,2","45,2","303","0"],
    [31997,"2017-09-24T15:00:00","29","9","106,3","2,5","52,4","34,1","39,4","331,3","0"],
    [31998,"2017-09-24T16:00:00","39","4","93,6","2,6","105,5","33,6","37,1","164,5","0"],
    [31999,"2017-09-24T17:00:00","48","2","78,9","3,5","134,2","32,9","40","72,1","0"],
    [32000,"2017-09-24T18:00:00","73","ND","73,4","2,4","179,1","31,9","45,8","21,4","0"],
    [32001,"2017-09-24T19:00:00","35","4","35,9","4,2","250,2","30,1","49,8","0","0"],
    [32002,"2017-09-24T20:00:00","39","6","30,5","3,6","264,2","29,5","51,4","0","0"],
    [32003,"2017-09-24T21:00:00","60","10","23,1","3","85,2","28,5","57,9","0","0"],
    [32004,"2017-09-24T22:00:00","62","6","19,4","3,4","104,5","27,1","63,7","0","0"],
    [32005,"2017-09-24T23:00:00","49","1","20,7","3,1","88,2","26,5","65,1","0","0"],
    [32006,"2017-09-25T00:00:00","19","ND","23","2,3","5","26,5","64,3","0","0"],
    [32007,"2017-09-25T01:00:00","16","ND","22,7","2,5","128,6","26,4","65","0","0"],
    [32008,"2017-09-25T02:00:00","20","ND","21,7","2,2","151,7","25,8","68,2","0","0"],
    [32009,"2017-09-25T03:00:00","15","ND","23,6","0,2","72,1","24,8","75,3","0","36,58"],
    [32010,"2017-09-25T04:00:00","2","ND","41,3","2,7","281","22,8","83","0","57,4"],
    [32011,"2017-09-25T05:00:00","7","ND","24","2,2","292,2","23,4","83,3","0","0"],
    [32012,"2017-09-25T06:00:00","28","5","18,3","2,8","106,3","23,6","80,3","0","0"],
    [32013,"2017-09-25T07:00:00","42","10","17","0,9","343","24","78,6","13,3","0"],
    [32014,"2017-09-25T08:00:00","38","6","19,7","2,1","272,6","25,2","74,7","55,5","0"],
    [32015,"2017-09-25T09:00:00","61","26","26,6","1","187,7","27,8","65,5","172,7","0"],
    [32016,"2017-09-25T10:00:00","44","8","37,6","2,4","179,3","29,7","58","306,9","0"],
    [32017,"2017-09-25T11:00:00","33","9","69,4","0,7","289","31,3","49,9","378,5","0"],
    [32018,"2017-09-25T12:00:00","39","3","79,9","1,9","92,5","32,6","43,4","337,5","0"],
    [32019,"2017-09-25T13:00:00","35","7","93,6","1,4","194,4","34,7","38,1","410,5","0"],
    [32020,"2017-09-25T14:00:00","38","15","103,9","2,2","87,9","35","37","405,3","0"],
    [32021,"2017-09-25T15:00:00","55","14","138,4","2,2","31,1","34,4","38","144,8","0"],
    [32022,"2017-09-25T16:00:00","33","8","99,6","5,1","301,3","32,8","39,4","110","0"],
    [32023,"2017-09-25T17:00:00","ND","ND","56,1","6,8","311,8","32,3","38,3","128,3","0"],
    [32024,"2017-09-25T18:00:00","24","ND","32,5","4,8","316,9","30,6","41,8","13,1","0"],
    [32025,"2017-09-25T19:00:00","42","1","28,1","2,6","294,2","29,2","46,6","0","0"],
    [32026,"2017-09-25T20:00:00","51","3","41,1","2,6","188","27,6","54,8","0","0"],
    [32027,"2017-09-25T21:00:00","41","6","30,3","3,7","109,3","26,2","62,5","0","0"],
    [32028,"2017-09-25T22:00:00","49","7","27,6","2,7","128,2","26,1","63,3","0","0"],
    [32029,"2017-09-25T23:00:00","38","9","23,4","1,4","126,8","26","63","0","0"],
    [32030,"2017-09-26T00:00:00","33","6","20,3","2,5","72,9","25,5","64,7","0","0"],
    [32031,"2017-09-26T01:00:00","30","ND","18,4","2","79,6","24,9","67,9","0","0"],
    [32032,"2017-09-26T02:00:00","27","ND","19,6","2,4","149","24,9","68,3","0","0"],
    [32033,"2017-09-26T03:00:00","29","2","22","1,4","210,4","24,9","67,1","0","0"],
    [32034,"2017-09-26T04:00:00","43","2","18,5","1,3","177,9","24,8","68,5","0","0"],
    [32035,"2017-09-26T05:00:00","43","ND","17,2","0,6","210,2","24,3","70,8","0","0"],
    [32036,"2017-09-26T06:00:00","93","28","16,2","1,2","97,8","24,7","72,1","0","0"],
    [32037,"2017-09-26T07:00:00","81","13","15,9","2,3","35,5","24,5","71,1","20,8","0"],
    [32038,"2017-09-26T08:00:00","70","23","21,2","2","101,4","26,1","65,3","125,4","0"],
    [32039,"2017-09-26T09:00:00","32","2","34,7","2,8","124,5","28,2","56,5","238,8","0"],
    [32040,"2017-09-26T10:00:00","46","2","54,7","2","150,9","30,6","47,8","324,9","0"],
    [32041,"2017-09-26T11:00:00","31","ND","71","1,6","66,9","32,1","41","396,5","0"],
    [32042,"2017-09-26T12:00:00","23","ND","73,3","2,4","81","33,7","36,1","439,4","0"],
    [32043,"2017-09-26T13:00:00","22","ND","91,6","2,9","18,9","34,4","33,4","440,7","0"],
    [32044,"2017-09-26T14:00:00","41","3","119,3","1,8","37","35,4","30,8","391","0"],
    [32045,"2017-09-26T15:00:00","43","4","124,5","3,5","25,5","35,9","30,4","303,5","0"],
    [32046,"2017-09-26T16:00:00","31","3","84,2","5,1","5,3","34,1","35,7","88,7","0"],
    [32047,"2017-09-26T17:00:00","35","4","59,8","5,4","314,9","32,3","40,7","45,7","0"],
    [32048,"2017-09-26T18:00:00","58","7","33,9","3,8","332,5","31,3","43,2","8,9","0"],
    [32049,"2017-09-26T19:00:00","57","10","29","3,3","6,2","29,8","48,5","0","0"],
    [32050,"2017-09-26T20:00:00","69","12","20,7","1,8","46,7","28,9","51,9","0","0"],
    [32051,"2017-09-26T21:00:00","68","8","18,3","3,8","75,7","27","59,4","0","0"],
    [32052,"2017-09-26T22:00:00","60","2","18,4","2,7","91,7","26,1","62,7","0","0"],
    [32053,"2017-09-26T23:00:00","50","ND","19,1","2,3","112,7","25,7","64,3","0","0"],
    [32054,"2017-09-27T00:00:00","45","ND","19,8","1,7","99,2","25,7","63,9","0","0"],
    [32055,"2017-09-27T01:00:00","31","ND","19,1","0,7","107,9","25,6","64,5","0","0"],
    [32056,"2017-09-27T02:00:00","41","ND","18,6","1,9","126,9","25,1","68,1","0","0"],
    [32057,"2017-09-27T03:00:00","36","3","17","0,7","280,2","24,5","71,8","0","0"],
    [32058,"2017-09-27T04:00:00","47","5","18,1","1,9","346,1","24,7","68,9","0","0"],
    [32059,"2017-09-27T05:00:00","47","9","15,7","1,2","28","24,4","69,6","0","0"],
    [32060,"2017-09-27T06:00:00","80","14","15,4","2,9","124,6","23,8","72","0","0"],
    [32061,"2017-09-27T07:00:00","91","19","16,6","2","210,6","24,2","71,2","27,9","0"],
    [32062,"2017-09-27T08:00:00","71","15","23,5","1,8","190","26,8","61,9","122,6","0"],
    [32063,"2017-09-27T09:00:00","70","14","ND","2,6","186,4","28,6","56,3","230,3","0"],
    [32064,"2017-09-27T10:00:00","51","15","67,4","2,3","225,6","30,2","49,8","328,5","0"],
    [32065,"2017-09-27T11:00:00","37","15","83,1","0,1","181,7","32,4","41,5","405,1","0"],
    [32066,"2017-09-27T12:00:00","24","5","87,3","2,2","40,3","33,8","37,4","435,6","0"],
    [32067,"2017-09-27T13:00:00","38","3","98,6","3","28,4","35,2","32,8","426,1","0"],
    [32068,"2017-09-27T14:00:00","78","6","107,4","3","35,7","36,4","30,2","397,3","0"],
    [32069,"2017-09-27T15:00:00","43","5","108,4","2,6","51,5","36,9","29,6","290,7","0"],
    [32070,"2017-09-27T16:00:00","35","ND","84,4","6","307,8","35,7","34,1","232,5","0"],
    [32071,"2017-09-27T17:00:00","32","ND","65,7","7,9","291,4","34,5","35,7","168,9","0"],
    [32072,"2017-09-27T18:00:00","35","1","48,3","7,3","288,9","32,5","39,2","27,6","0"],
    [32073,"2017-09-27T19:00:00","46","1","27,6","3,8","322,3","30,9","42,8","0","0"],
    [32074,"2017-09-27T20:00:00","76","13","16,1","2,3","88,8","29,6","49,2","0","0"],
    [32075,"2017-09-27T21:00:00","75","18","13,8","2,8","92","28,5","54,3","0","0"],
    [32076,"2017-09-27T22:00:00","47","4","13,5","3,5","133,2","27,8","58,1","0","0"],
    [32077,"2017-09-27T23:00:00","31","3","19,9","1,9","121,1","27,9","54,3","0","0"],
    [32078,"2017-09-28T00:00:00","37","ND","22,4","2,9","109,6","27,1","57,7","0","0"],
    [32079,"2017-09-28T01:00:00","20","ND","27,8","2,9","77,7","26,8","58,6","0","0"],
    [32080,"2017-09-28T02:00:00","26","1","27,4","2","57,1","26,6","59,6","0","0"],
    [32081,"2017-09-28T03:00:00","37","ND","21,4","2,5","141,4","26,2","62,4","0","0"],
    [32082,"2017-09-28T04:00:00","22","ND","21,7","3,5","196,5","25,4","69,3","0","0"],
    [32083,"2017-09-28T05:00:00","10","ND","21,8","2,8","195,2","25,3","70,3","0","0"],
    [32084,"2017-09-28T06:00:00","35","ND","16,8","2,6","193,3","25,1","70,2","0","0"],
    [32085,"2017-09-28T07:00:00","48","12","18,5","2,9","174,3","25,5","67,4","17,2","0"],
    [32086,"2017-09-28T08:00:00","28","7","29,4","4,9","246,7","26,5","61,8","71,1","0"],
    [32087,"2017-09-28T09:00:00","37","3","36,5","3,1","193,4","27,7","55,5","105,3","0"],
    [32088,"2017-09-28T10:00:00","28","2","38,8","4,2","174,3","28,6","55,6","173,9","0"],
    [32089,"2017-09-28T11:00:00","36","6","41,8","3,4","190,1","29","56,6","192,5","0"],
    [32090,"2017-09-28T12:00:00","48","8","48,3","3","182,6","29,2","54,9","188","0"],
    [32091,"2017-09-28T13:00:00","38","9","59","1,8","168,8","32","42,6","309,3","0"],
    [32092,"2017-09-28T14:00:00","35","6","103,8","1,2","355,4","33,8","37,2","370,1","0"],
    [32093,"2017-09-28T15:00:00","53","4","139,5","2,1","102,8","34","37,9","245","0"],
    [32094,"2017-09-28T16:00:00","43","3","115,1","1,8","224,6","34,1","34,6","183","0"],
    [32095,"2017-09-28T17:00:00","54","2","66,6","5,8","90,7","30,8","45,5","45,6","0"],
    [32096,"2017-09-28T18:00:00","31","3","38","5,8","126,4","24,8","72","0","11,94"],
    [32097,"2017-09-28T19:00:00","28","1","26,7","1,2","294,6","24,9","75,4","0","2,29"],
    [32098,"2017-09-28T20:00:00","30","3","13,3","2,6","234,5","25,4","73,8","0","1,27"],
    [32099,"2017-09-28T21:00:00","26","5","10,1","1,8","218","25,4","73,6","0","0"],
    [32100,"2017-09-28T22:00:00","34","6","10","2","157,8","24,9","75,2","0","0"],
    [32101,"2017-09-28T23:00:00","32","7","13,6","3,1","206,6","24,8","75,1","0","0"],
    [32102,"2017-09-29T00:00:00","38","5","13,5","1,6","158","24,8","75,3","0","0"],
    [32103,"2017-09-29T01:00:00","27","ND","11,6","1,9","102,1","24,4","77,6","0","0"],
    [32104,"2017-09-29T02:00:00","37","ND","11,4","2,2","51,6","24,2","78,2","0","0"],
    [32105,"2017-09-29T03:00:00","45","6","10,5","1,5","35,3","24","79","0","0"],
    [32106,"2017-09-29T04:00:00","36","15","10,3","0,8","309","24,1","77,6","0","0"],
    [32107,"2017-09-29T05:00:00","67","17","9,8","1,4","80,4","24,4","76,5","0","0"],
    [32108,"2017-09-29T06:00:00","89","28","10,7","1","36,4","24","77,1","0","0"],
    [32109,"2017-09-29T07:00:00","79","25","10,1","1,4","176","24,4","76,5","12,8","0"],
    [32110,"2017-09-29T08:00:00","69","ND","11,1","1,4","180,9","25,1","73,6","37,7","0"],
    [32111,"2017-09-29T09:00:00","68","33","18,6","0,1","39,5","26,7","68,2","150","0"],
    [32112,"2017-09-29T10:00:00","80","31","45,7","2,6","78,9","29","57,6","290,4","0"],
    [32113,"2017-09-29T11:00:00","45","26","67,4","2,9","108,2","30,9","50,7","395,2","0"],
    [32114,"2017-09-29T12:00:00","47","17","84","2,4","97,4","32,6","43,1","428,8","0"],
    [32115,"2017-09-29T13:00:00","44","16","91,3","2,6","107,8","33,8","39,1","378,2","0"],
    [32116,"2017-09-29T14:00:00","48","18","107,4","2,6","31,1","33,5","39,1","254,3","0"],
    [32117,"2017-09-29T15:00:00","55","8","69,5","3,7","36,7","33,1","39,2","116,2","0"],
    [32118,"2017-09-29T16:00:00","48","16","37","4","42,8","32,7","39","49,7","0"],
    [32119,"2017-09-29T17:00:00","23","6","47,5","1,1","330,1","31,2","43,6","24,9","0"],
    [32120,"2017-09-29T18:00:00","55","6","43,3","5,8","194,8","28,1","53,1","0","0"],
    [32121,"2017-09-29T19:00:00","49","15","41,8","4,2","202,3","25,9","62,5","0","0,25"],
    [32122,"2017-09-29T20:00:00","30","9","28,3","3,5","180","24,6","72,9","0","0"],
    [32123,"2017-09-29T21:00:00","14","13","24,1","1,9","183,1","24,2","76,3","0","2,79"],
    [32124,"2017-09-29T22:00:00","23","12","21,8","0,8","50,2","24,1","78,8","0","1,78"],
    [32125,"2017-09-29T23:00:00","25","13","19","1,9","345,6","24,3","78,3","0","0,25"],
    [32126,"2017-09-30T00:00:00","19","14","18,8","0,8","295,3","24,5","76","0","0"],
    [32127,"2017-09-30T01:00:00","21","14","16,2","1,1","107,1","24,5","76,9","0","0"],
    [32128,"2017-09-30T02:00:00","23","12","16,3","1,5","107","24,3","78,2","0","0"],
    [32129,"2017-09-30T03:00:00","20","6","16,2","1,3","130,2","24,5","77,1","0","0"],
    [32130,"2017-09-30T04:00:00","33","16","14,8","1,7","173,7","24,3","78,4","0","0"],
    [32131,"2017-09-30T05:00:00","34","13","14","1,3","172,1","24,4","77,3","0","0,25"],
    [32132,"2017-09-30T06:00:00","52","25","11,8","2","149","24,4","78","0","2,29"],
    [32133,"2017-09-30T07:00:00","36","23","13,4","3,4","93,3","23,7","80,7","0","19,3"],
    [32134,"2017-09-30T08:00:00","22","5","15,8","3,9","47,5","22,8","83,3","14,4","3,81"],
    [32135,"2017-09-30T09:00:00","23","7","20,9","4","33,4","22,8","80,1","49,3","0"],
    [32136,"2017-09-30T10:00:00","17","9","27,3","3,3","19,5","23,8","74,8","95,8","0,25"],
    [32137,"2017-09-30T11:00:00","32","13","28,7","1,7","42","24,9","71,2","109,1","0"],
    [32138,"2017-09-30T12:00:00","18","9","30,7","3","89,1","25,4","71","165,1","0,25"],
    [32139,"2017-09-30T13:00:00","20","14","42,1","1,8","94,5","27","64,5","216","0,25"],
    [32140,"2017-09-30T14:00:00","31","8","49,5","2,1","180,8","27,9","59,4","138,8","0,25"],
    [32141,"2017-09-30T15:00:00","11","8","49,1","3,9","199,5","27","63,5","140,5","0"],
    [32142,"2017-09-30T16:00:00","34","9","57,9","2,9","210,5","27,2","61,8","116,4","0"],
    [32143,"2017-09-30T17:00:00","36","11","57,5","2,2","201,1","27,8","61,9","82","0"],
    [32144,"2017-09-30T18:00:00","58","22","39,7","1,7","136,2","27,4","63,5","13,4","0"],
    [32145,"2017-09-30T19:00:00","76","23","19,6","1,9","141","26,5","68,2","0","0"],
    [32146,"2017-09-30T20:00:00","64","22","22,8","1,8","201,2","25,9","71,6","0","0"],
    [32147,"2017-09-30T21:00:00","71","29","13,5","1,2","194,4","25,8","73,3","0","0"],
    [32148,"2017-09-30T22:00:00","97","32","11","1,9","97","25,2","75","0","0"],
    [32149,"2017-09-30T23:00:00","97","38","10","1,1","160,7","24,9","76","0","0"],
    [32150,"2017-10-01T00:00:00","56","16","11","1,4","199","24,7","76,4","0","0"],
    [32151,"2017-10-01T01:00:00","53","22","10,3","1,4","224,6","24,7","76,9","0","0"],
    [32152,"2017-10-01T02:00:00","49","18","10,2","1,7","217","24,8","74,5","0","0"],
    [32153,"2017-10-01T03:00:00","37","17","9,8","1,2","138,5","24,9","73,2","0","0"],
    [32154,"2017-10-01T04:00:00","41","17","9,3","1,9","132,3","24,2","77,9","0","0"],
    [32155,"2017-10-01T05:00:00","54","14","9,6","2","123,3","24,1","78,6","0","0"],
    [32156,"2017-10-01T06:00:00","45","17","9,8","0,7","180,7","23,8","79,1","0","0"],
    [32157,"2017-10-01T07:00:00","61","22","10,3","1,3","151,5","24,3","76,8","5,7","0"],
    [32158,"2017-10-01T08:00:00","59","31","14,9","1,4","315,7","25,4","72,3","90,1","0"],
    [32159,"2017-10-01T09:00:00","69","30","23,8","1,7","152,9","26,9","66,1","72,7","0"],
    [32160,"2017-10-01T10:00:00","60","34","38,4","2,9","73,7","27,5","64,8","240,1","0"],
    [32161,"2017-10-01T11:00:00","56","31","67,8","3,1","86,1","30,2","52,4","427,3","0"],
    [32162,"2017-10-01T12:00:00","42","19","86,2","2,1","92,8","32,1","43,5","440,2","0"],
    [32163,"2017-10-01T13:00:00","40","15","89","2,9","82,7","33,3","40,2","426,6","0"],
    [32164,"2017-10-01T14:00:00","47","12","81","4,1","77,6","34,1","37,7","390,1","0"],
    [32165,"2017-10-01T15:00:00","50","22","100,1","3","22,8","34","38,2","225,6","0"],
    [32166,"2017-10-01T16:00:00","35","15","65,2","4,7","312,1","32,3","39,9","92,3","0"],
    [32167,"2017-10-01T17:00:00","15","8","46","5,8","310,3","31,8","40,3","82","0"],
    [32168,"2017-10-01T18:00:00","20","3","37","5,5","292,2","30","45,8","11,3","0"],
    [32169,"2017-10-01T19:00:00","47","16","25,6","2,5","24,2","29,2","49,2","0","0"],
    [32170,"2017-10-01T20:00:00","36","7","19,3","2,4","35,4","28,4","52,7","0","0"],
    [32171,"2017-10-01T21:00:00","48","10","17,2","3,2","59,2","27,1","59,2","0","0"],
    [32172,"2017-10-01T22:00:00","32","5","16,9","0,4","234","26,7","61,2","0","0"],
    [32173,"2017-10-01T23:00:00","37","6","25,5","3,5","212,7","25,6","67,3","0","0"],
    [32174,"2017-10-02T00:00:00","22","6","25,1","3,1","212,5","25,3","69,6","0","0"],
    [32175,"2017-10-02T01:00:00","16","3","23,3","1,8","178,8","25,5","68,8","0","0"],
    [32176,"2017-10-02T02:00:00","29","ND","19,9","1,9","104,5","25","71,4","0","0"],
    [32177,"2017-10-02T03:00:00","42","1","18,3","2,2","90,2","24,5","73,7","0","0"],
    [32178,"2017-10-02T04:00:00","37","2","16,1","1,5","30,2","24,7","72,8","0","0"],
    [32179,"2017-10-02T05:00:00","40","1","13","0,8","53,4","24,7","72,1","0","0"],
    [32180,"2017-10-02T06:00:00","ND","ND","ND","ND","ND","ND","ND","ND","ND"],
    [32181,"2017-10-02T07:00:00","77","17","11,7","1,7","94,2","25,3","71,4","19,3","0"],
    [32182,"2017-10-02T08:00:00","ND","ND","ND","ND","ND","ND","ND","ND","ND"],
    [32183,"2017-10-02T09:00:00","58","18","25,6","2,7","185,8","27,2","63,8","105,7","0"],
    [32184,"2017-10-02T10:00:00","48","13","30","1,9","140,5","28,3","58,7","156,8","0"],
    [32185,"2017-10-02T11:00:00","44","13","44,8","1,9","164,2","29,7","53,1","220,4","0"],
    [32186,"2017-10-02T12:00:00","41","12","62,7","1,6","176,1","30,7","50","255,9","0"],
    [32187,"2017-10-02T13:00:00","53","23","71,9","2,6","136,4","31,6","46,2","250","0"],
    [32188,"2017-10-02T14:00:00","45","19","86,4","3,4","94,8","32","44,5","266","0"],
    [32189,"2017-10-02T15:00:00","58","21","96,6","3,1","64,3","33","40,9","239,7","0"],
    [32190,"2017-10-02T16:00:00","56","18","57,4","4,1","57","31,4","45,9","72,7","0"],
    [32191,"2017-10-02T17:00:00","49","12","53,9","2,2","36,7","31,3","45,4","69,7","0"],
    [32192,"2017-10-02T18:00:00","44","15","30,3","1,3","90,9","30,8","47,3","19,6","0"],
    [32193,"2017-10-02T19:00:00","59","13","13","2,1","279,1","29,5","49,2","0","0"],
    [32194,"2017-10-02T20:00:00","72","25","11,3","1,9","64,6","28,2","55,8","0","0"],
    [32195,"2017-10-02T21:00:00","55","14","12,2","2,7","96,9","27,3","59,4","0","0"],
    [32196,"2017-10-02T22:00:00","37","11","12,6","3","111,9","26,3","64,2","0","0"],
    [32197,"2017-10-02T23:00:00","35","15","14","2,4","80","25,8","66","0","0"],
    [32198,"2017-10-03T00:00:00","32","7","14,8","2","86,6","26","64,4","0","0"],
    [32199,"2017-10-03T01:00:00","22","4","18,4","1","97,9","25,9","64,7","0","0"],
    [32200,"2017-10-03T02:00:00","20","ND","22","2","19,7","25,8","64,7","0","0"],
    [32201,"2017-10-03T03:00:00","13","ND","25,8","2,9","60,7","24,9","68,9","0","0"],
    [32202,"2017-10-03T04:00:00","11","ND","27,2","3,2","48,4","23,5","77,8","0","7,87"],
    [32203,"2017-10-03T05:00:00","17","2","20,6","3,3","49","23","80,2","0","4,57"],
    [32204,"2017-10-03T06:00:00","20","7","14,7","1,2","60,6","22,8","80,8","0","7,11"],
    [32205,"2017-10-03T07:00:00","12","9","14,6","1,6","184,9","23,2","79,4","10,1","0,51"],
    [32206,"2017-10-03T08:00:00","21","9","18,9","2,5","159,4","24,7","74,4","88","0"],
    [32207,"2017-10-03T09:00:00","41","17","24,2","2,8","124,2","26,4","67,9","218,1","0"],
    [32208,"2017-10-03T10:00:00","31","9","37,8","1,5","104,4","29,4","54,8","343,5","0"],
    [32209,"2017-10-03T11:00:00","22","6","58,5","1,5","38,9","31,3","46,1","430","0"],
    [32210,"2017-10-03T12:00:00","38","11","71,1","1,6","142,9","31,5","44,8","286,7","0"],
    [32211,"2017-10-03T13:00:00","33","14","91,3","2","2,5","33,5","38,5","433","0"],
    [32212,"2017-10-03T14:00:00","40","16","93,2","4,3","47,4","34,2","37,6","423,7","0"],
    [32213,"2017-10-03T15:00:00","43","15","94,2","5,6","3,5","33,7","38,1","316,8","0"],
    [32214,"2017-10-03T16:00:00","25","8","52,2","6,2","11,3","33","38,6","202,5","0"],
    [32215,"2017-10-03T17:00:00","40","8","39,1","3,5","337,6","31,8","40,6","56,9","0"],
    [32216,"2017-10-03T18:00:00","27","6","31,7","5,7","293,6","29,5","47,2","7,4","0"],
    [32217,"2017-10-03T19:00:00","51","15","19,8","1,8","68","28,3","53,5","0","0"],
    [32218,"2017-10-03T20:00:00","59","17","30,4","2,4","201,9","27,6","58,5","0","0"],
    [32219,"2017-10-03T21:00:00","50","18","33,5","3,8","166,9","26,8","63,4","0","0"],
    [32220,"2017-10-03T22:00:00","53","14","29,9","3,5","150,3","26,4","66,5","0","0"],
    [32221,"2017-10-03T23:00:00","42","9","28,5","3,2","173,3","25,9","69,3","0","0"],
    [32222,"2017-10-04T00:00:00","26","7","24,8","2,1","157,8","25,5","70,7","0","0"],
    [32223,"2017-10-04T01:00:00","21","6","26,2","2,4","166,6","25,4","70,7","0","0"],
    [32224,"2017-10-04T02:00:00","12","2","25,3","2,2","215,5","24,7","74,4","0","0"],
    [32225,"2017-10-04T03:00:00","13","2","27","4,2","209,7","24,2","76,2","0","5,59"],
    [32226,"2017-10-04T04:00:00","6","1","31,3","4,7","191,6","22,6","83","0","33,53"],
    [32227,"2017-10-04T05:00:00","ND","ND","23,7","3,2","188,1","21,9","83,9","0","20,07"],
    [32228,"2017-10-04T06:00:00","ND","ND","ND","ND","ND","ND","ND","ND","ND"],
    [32229,"2017-10-04T07:00:00","ND","ND","ND","ND","ND","ND","ND","ND","ND"],
    [32230,"2017-10-04T08:00:00","ND","ND","ND","ND","ND","ND","ND","ND","ND"],
    [32231,"2017-10-04T09:00:00","ND","ND","ND","ND","ND","ND","ND","ND","ND"],
    [32232,"2017-10-04T10:00:00","ND","ND","45,5","0,4","66","27","64","288,4","0"],
    [32233,"2017-10-04T11:00:00","15","ND","56,6","2,3","189,2","29,1","54,3","306,6","0"],
    [32234,"2017-10-04T12:00:00","21","ND","51,1","1,9","165,4","30","49,7","240,7","0"],
    [32235,"2017-10-04T13:00:00","20","ND","45,6","2,5","141,5","30,4","46","201,2","0"],
    [32236,"2017-10-04T14:00:00","29","ND","41,3","3,6","108,4","30","47,7","177,2","0"],
    [32237,"2017-10-04T15:00:00","28","2","44,3","2,8","115,9","30,5","45,7","161,1","0"],
    [32238,"2017-10-04T16:00:00","38","6","56,5","2,2","157,6","30,7","45,3","90,5","0"],
    [32239,"2017-10-04T17:00:00","46","7","37,9","2,4","104","30,3","46,5","48,1","0"],
    [32240,"2017-10-04T18:00:00","64","10","26,5","1,1","359,4","29,6","48,3","6,2","0"],
    [32241,"2017-10-04T19:00:00","49","13","16,3","2,2","329,9","28,3","51,6","0","0"],
    [32242,"2017-10-04T20:00:00","55","16","11","1,6","338,8","27,4","56,4","0","0"],
    [32243,"2017-10-04T21:00:00","63","14","10,6","2,8","94,6","26,3","64,1","0","0"],
    [32244,"2017-10-04T22:00:00","37","10","16,9","4","153","26","66,6","0","0"],
    [32245,"2017-10-04T23:00:00","21","3","30,8","4,4","203,5","24,3","73,1","0","2,29"],
    [32246,"2017-10-05T00:00:00","3","ND","24,5","2,4","194","23,1","80,4","0","7,87"],
    [32247,"2017-10-05T01:00:00","7","ND","26,2","1,5","196,4","22,9","80,4","0","3,81"],
    [32248,"2017-10-05T02:00:00","12","ND","27,6","1,5","174,3","22,7","80,4","0","2,79"],
    [32249,"2017-10-05T03:00:00","11","ND","26,6","1,1","253,2","22,9","78,9","0","0,25"],
    [32250,"2017-10-05T04:00:00","21","ND","17,5","1,9","86,4","22,9","80,3","0","0,25"],
    [32251,"2017-10-05T05:00:00","22","ND","13,9","1,3","76,4","22,9","80,4","0","0"],
    [32252,"2017-10-05T06:00:00","39","17","10,8","2,3","90,4","23","80,3","0","0"],
    [32253,"2017-10-05T07:00:00","57","26","10,7","2,5","110,5","23,1","80,2","5,1","1,27"],
    [32254,"2017-10-05T08:00:00","44","19","14,3","1,1","196","23,8","77,7","67,2","0,51"],
    [32255,"2017-10-05T09:00:00","13","7","32,7","1,7","186,3","26","67,7","207,9","0"],
    [32256,"2017-10-05T10:00:00","8","ND","40,5","1,6","171,4","27,3","59,6","199,7","0"],
    [32257,"2017-10-05T11:00:00","17","7","42,4","1,6","97,7","28,2","56,3","180,3","0"],
    [32258,"2017-10-05T12:00:00","41","9","42,7","3,5","92,2","28,5","56","211,3","0"],
    [32259,"2017-10-05T13:00:00","33","9","47,5","4,8","88,3","28,6","56,5","207,7","0"],
    [32260,"2017-10-05T14:00:00","34","6","44","5,2","85,3","28,7","54,1","167,8","0"],
    [32261,"2017-10-05T15:00:00","34","3","41","5,5","66,2","28,4","54,6","115,1","0"],
    [32262,"2017-10-05T16:00:00","25","5","33,3","5,2","37,3","26,9","60,9","78,6","0"],
    [32263,"2017-10-05T17:00:00","24","4","26,7","3,9","18,2","26,9","61,1","45,9","0"],
    [32264,"2017-10-05T18:00:00","33","9","20,2","2,8","357,9","26,7","61,5","6,2","0"],
    [32265,"2017-10-05T19:00:00","60","20","13,3","2,5","66","26,4","64,8","0","0"],
    [32266,"2017-10-05T20:00:00","43","7","12,7","3,2","46,4","25,8","66,8","0","0"],
    [32267,"2017-10-05T21:00:00","42","8","17,1","2,5","43,2","25,4","64,8","0","0"],
    [32268,"2017-10-05T22:00:00","39","5","19,5","2,8","32,5","25,2","66,3","0","0"],
    [32269,"2017-10-05T23:00:00","42","ND","20","3,2","31,1","24,8","68,6","0","0"],
    [32270,"2017-10-06T00:00:00","38","ND","18,3","2","44,7","24,4","71,1","0","0"],
    [32271,"2017-10-06T01:00:00","26","ND","20,2","2","80,5","24,3","71,7","0","0"],
    [32272,"2017-10-06T02:00:00","27","ND","18,3","1,1","168,7","24,1","73,4","0","0"],
    [32273,"2017-10-06T03:00:00","35","ND","16,5","2","162,2","23,8","75,3","0","0"],
    [32274,"2017-10-06T04:00:00","37","7","15,8","2","94,8","23,7","75,6","0","0"],
    [32275,"2017-10-06T05:00:00","37","6","12,1","2","68,2","23,2","79,1","0","5,59"],
    [32276,"2017-10-06T06:00:00","40","15","11","1,4","13,9","23,2","79,9","0","0"],
    [32277,"2017-10-06T07:00:00","53","15","10,8","2","4,2","23,7","77,1","11,9","0"],
    [32278,"2017-10-06T08:00:00","71","24","11,8","1,9","75,4","24,7","73,1","33,9","0"],
    [32279,"2017-10-06T09:00:00","50","20","14,4","1,5","90,7","25,6","68,7","75,9","0"],
    [32280,"2017-10-06T10:00:00","37","16","23,8","1,6","186,7","27,2","62,7","170,7","0"],
    [32281,"2017-10-06T11:00:00","45","16","35,8","2,2","157,9","28","58,5","185,4","0"],
    [32282,"2017-10-06T12:00:00","45","12","49,6","2,4","115,7","29,5","52,3","323,3","0"],
    [32283,"2017-10-06T13:00:00","41","20","94,9","1,4","1,9","31,8","43,1","407,7","0"],
    [32284,"2017-10-06T14:00:00","57","24","104,2","2","34,5","32,3","42,1","264,9","0"],
    [32285,"2017-10-06T15:00:00","28","11","102,2","3,8","9","32,7","40,7","319,4","0"],
    [32286,"2017-10-06T16:00:00","31","13","88,5","3,5","13,2","32,4","40,3","192","0"],
    [32287,"2017-10-06T17:00:00","46","13","55,4","3,2","43,8","31,8","41,9","73,5","0"],
    [32288,"2017-10-06T18:00:00","106","9","38,5","3","315,9","31","41,6","26","0"],
    [32289,"2017-10-06T19:00:00","53","15","17,2","2,6","316,9","29,3","46,2","0","0"],
    [32290,"2017-10-06T20:00:00","61","12","12,9","2","308,3","28,4","49,9","0","0"],
    [32291,"2017-10-06T21:00:00","82","21","12,9","3,3","81,5","26,9","57,4","0","0"],
    [32292,"2017-10-06T22:00:00","67","17","11,7","3,5","69,8","25,7","63,6","0","0"],
    [32293,"2017-10-06T23:00:00","52","10","13,5","3","61,9","25,4","63,9","0","0"],
    [32294,"2017-10-07T00:00:00","38","7","14,3","1,2","22","25","64,8","0","0"],
    [32295,"2017-10-07T01:00:00","25","4","16,3","0,8","341,2","25,2","63,7","0","0"],
    [32296,"2017-10-07T02:00:00","25","5","14,5","1,5","109,4","25,3","64,4","0","0"],
    [32297,"2017-10-07T03:00:00","42","16","15,5","0,2","165,5","24,8","68,5","0","0,25"],
    [32298,"2017-10-07T04:00:00","43","21","13,7","1,3","284,5","24,4","72,7","0","0"],
    [32299,"2017-10-07T05:00:00","36","9","10,6","0,8","146,6","24,2","73,1","0","0"],
    [32300,"2017-10-07T06:00:00","91","38","13,1","0,8","121,5","23,8","75,4","0","0"],
    [32301,"2017-10-07T07:00:00","102","43","ND","1,2","110,5","24,2","74,5","11,5","0"],
    [32302,"2017-10-07T08:00:00","86","26","ND","1,8","124,2","24,6","73,4","39,6","0"],
    [32303,"2017-10-07T09:00:00","77","28","ND","1,3","153,3","25,9","69,4","90,8","0"],
    [32304,"2017-10-07T10:00:00","60","21","ND","3,7","122","26,6","65,3","143,5","0"],
    [32305,"2017-10-07T11:00:00","77","31","ND","1,9","44,1","28,8","56,5","235,9","0"],
    [32306,"2017-10-07T12:00:00","74","31","ND","2,5","54,5","30,7","47,1","327,9","0"],
    [32307,"2017-10-07T13:00:00","31","14","ND","2,3","52,7","32,7","41,5","428,9","0"],
    [32308,"2017-10-07T14:00:00","41","12","ND","2,6","40,8","33,2","39","345,2","0"],
    [32309,"2017-10-07T15:00:00","37","14","ND","3","18,1","33,6","38","310,8","0"],
    [32310,"2017-10-07T16:00:00","44","8","ND","3,2","61,9","34,4","34,7","269,3","0"],
    [32311,"2017-10-07T17:00:00","35","5","ND","4,5","53,8","33,1","37,7","80,7","0"],
    [32312,"2017-10-07T18:00:00","38","15","ND","4,6","28,1","31,5","42,4","12,8","0"],
    [32313,"2017-10-07T19:00:00","60","20","ND","1,3","344,9","29,9","48,3","0","0"],
    [32314,"2017-10-07T20:00:00","59","21","ND","0,4","1,1","28,6","51,4","0","0"],
    [32315,"2017-10-07T21:00:00","57","17","ND","3,5","96,9","26,4","62,2","0","0"],
    [32316,"2017-10-07T22:00:00","61","20","ND","2,9","60,7","26,2","62,2","0","0"],
    [32317,"2017-10-07T23:00:00","62","30","ND","1,1","299","25,7","64,2","0","0"],
    [32318,"2017-10-08T00:00:00","70","20","ND","2,2","139,2","25,4","66,3","0","0"],
    [32319,"2017-10-08T01:00:00","71","24","ND","1,7","122,3","24,8","68,7","0","0"],
    [32320,"2017-10-08T02:00:00","51","22","ND","0,3","262,2","24,4","69,7","0","0"],
    [32321,"2017-10-08T03:00:00","67","27","ND","1","180,1","24,2","73","0","0"],
    [32322,"2017-10-08T04:00:00","66","24","ND","2,4","118,5","23,2","76,6","0","0"],
    [32323,"2017-10-08T05:00:00","95","28","ND","1,9","85","22,8","77,5","0","0"],
    [32324,"2017-10-08T06:00:00","90","32","ND","2","22,1","22,5","77,5","0","0"],
    [32325,"2017-10-08T07:00:00","67","19","ND","2,8","26,5","22,7","76,1","33,1","0"],
    [32326,"2017-10-08T08:00:00","63","23","ND","1,6","54,4","25","68","127,2","0"],
    [32327,"2017-10-08T09:00:00","56","17","ND","1,9","69,8","27,1","61,6","226,3","0"],
    [32328,"2017-10-08T10:00:00","40","17","ND","1,6","24,5","29,9","49,2","334,3","0"],
    [32329,"2017-10-08T11:00:00","42","16","ND","1,4","65,7","31,8","43,5","363,8","0"],
    [32330,"2017-10-08T12:00:00","28","9","ND","2,2","82,6","33,1","39","412,7","0"],
    [32331,"2017-10-08T13:00:00","28","10","ND","2","75,1","34,5","35,6","431,1","0"],
    [32332,"2017-10-08T14:00:00","46","19","ND","3,2","47,7","35,8","32,2","390,4","0"],
    [32333,"2017-10-08T15:00:00","49","27","ND","3,3","90,8","35,9","32,9","293,8","0"],
    [32334,"2017-10-08T16:00:00","49","13","ND","4,1","308,9","34","36,8","75,9","0"],
    [32335,"2017-10-08T17:00:00","42","10","ND","6,8","286,9","30,9","46","39,5","0"],
    [32336,"2017-10-08T18:00:00","33","6","ND","5,9","289,1","30,4","47,3","6,3","0"],
    [32337,"2017-10-08T19:00:00","39","7","ND","3,9","42,3","29,5","50,2","0","0"],
    [32338,"2017-10-08T20:00:00","37","6","ND","4,7","356,2","27,5","58,3","0","0"],
    [32339,"2017-10-08T21:00:00","57","17","ND","3,5","73,8","27,2","58,9","0","0"],
    [32340,"2017-10-08T22:00:00","37","5","ND","2,6","350,7","25,8","63,6","0","0"],
    [32341,"2017-10-08T23:00:00","32","5","ND","2,8","291,6","25,9","62,8","0","0"],
    [32342,"2017-10-09T00:00:00","37","11","ND","1,7","110,5","25,5","63,3","0","0"],
    [32343,"2017-10-09T01:00:00","72","7","13,5","2,8","112,1","24,1","73,9","0","0"],
    [32344,"2017-10-09T02:00:00","37","5","15,5","1,8","202,6","24,3","73","0","0"],
    [32345,"2017-10-09T03:00:00","53","15","14,7","2,8","236,4","24,2","72,9","0","0"],
    [32346,"2017-10-09T04:00:00","50","8","13,6","0,2","213,4","24,5","70,7","0","0"],
    [32347,"2017-10-09T05:00:00","53","13","10,8","2,9","80,7","23,7","74","0","0"],
    [32348,"2017-10-09T06:00:00","88","19","10,6","2,3","93,3","23,1","77","0","0"],
    [32349,"2017-10-09T07:00:00","71","13","10,5","1,2","269,3","24","74,1","24,1","0"],
    [32350,"2017-10-09T08:00:00","139","31","15,7","1,5","172,4","25,7","67,6","84","0"],
    [32351,"2017-10-09T09:00:00","82","21","31,2","1,5","6,7","27,1","61,8","172","0"],
    [32352,"2017-10-09T10:00:00","51","15","44,9","2,3","74,4","29,6","53,2","314,6","0"],
    [32353,"2017-10-09T11:00:00","36","11","55","2,3","96,1","31,5","46,1","364,3","0"],
    [32354,"2017-10-09T12:00:00","17","8","70,1","4,3","23,6","31,8","43,6","348,3","0"],
    [32355,"2017-10-09T13:00:00","43","14","71,6","4,7","50,2","33,1","39,7","336,6","0"],
    [32356,"2017-10-09T14:00:00","69","11","64,4","7,8","71,7","31,8","44,9","184,3","0"],
    [32357,"2017-10-09T15:00:00","45","13","55,9","6,3","36,4","30,5","48,7","107,3","0"],
    [32358,"2017-10-09T16:00:00","27","6","52,7","3,7","243,2","30","46,8","71,2","0"],
    [32359,"2017-10-09T17:00:00","49","6","45,8","4,8","190,5","28,7","50,4","12,2","0"],
    [32360,"2017-10-09T18:00:00","48","11","28,5","3,2","179","25,7","66,4","0","0"],
    [32361,"2017-10-09T19:00:00","44","16","22,3","3,8","155,7","24,4","69,9","0","0"],
    [32362,"2017-10-09T20:00:00","47","8","21,9","2,2","171,1","23,4","70,9","0","0"],
    [32363,"2017-10-09T21:00:00","64","16","16,4","0,8","196,7","23,9","69,1","0","0"],
    [32364,"2017-10-09T22:00:00","35","ND","15,6","3,3","149,9","23,3","72,7","0","0"],
    [32365,"2017-10-09T23:00:00","46","9","15,9","2","167,5","23,3","72,9","0","0"],
    [32366,"2017-10-10T00:00:00","32","6","14,8","1,6","193,1","23,1","73,5","0","0"],
    [32367,"2017-10-10T01:00:00","18","3","16,9","1,9","174,1","23,1","73,8","0","0"],
    [32368,"2017-10-10T02:00:00","31","1","15,3","1,9","119,9","22,9","75","0","0"],
    [32369,"2017-10-10T03:00:00","38","4","12,8","1,3","94","22,3","77,2","0","0"],
    [32370,"2017-10-10T04:00:00","41","9","11,5","1,3","76","22,6","75,9","0","0"],
    [32371,"2017-10-10T05:00:00","68","18","10,4","1,6","78","22,2","77,3","0","0"],
    [32372,"2017-10-10T06:00:00","93","32","10,7","2,2","49,9","22","77,4","0","0"],
    [32373,"2017-10-10T07:00:00","65","19","10,8","2,2","358,1","22,5","76,4","10,3","0"],
    [32374,"2017-10-10T08:00:00","80","26","12","2,5","126","23,6","73,3","47,3","0"],
    [32375,"2017-10-10T09:00:00","73","26","15,8","1,9","187,3","24,9","70,2","83,4","0"],
    [32376,"2017-10-10T10:00:00","80","21","24,5","2,5","177","26,8","63,3","197,6","0"],
    [32377,"2017-10-10T11:00:00","63","22","45,5","0,7","160","28,8","54,9","252,7","0"],
    [32378,"2017-10-10T12:00:00","58","18","70","2","91,1","30,2","47,6","314,3","0"],
    [32379,"2017-10-10T13:00:00","35","18","85,1","3","42,7","32","39,3","386,4","0"],
    [32380,"2017-10-10T14:00:00","44","12","99,7","3,8","39,7","32,9","38,3","368","0"],
    [32381,"2017-10-10T15:00:00","49","16","105,4","4,2","62,3","33,3","38","283,2","0"],
    [32382,"2017-10-10T16:00:00","42","13","102","2,4","1","33","39,3","123,6","0"],
    [32383,"2017-10-10T17:00:00","41","8","51,1","7,9","287,8","31,7","42,6","88,1","0"],
    [32384,"2017-10-10T18:00:00","23","4","42,5","6,9","292,6","30,2","47,1","24,3","0"],
    [32385,"2017-10-10T19:00:00","29","4","30,3","5,5","303,6","29,4","49,1","0","0"],
    [32386,"2017-10-10T20:00:00","80","31","13,8","2,7","94","28,8","53","0","0"],
    [32387,"2017-10-10T21:00:00","47","14","16,3","3,1","83,4","27,1","60,8","0","0"],
    [32388,"2017-10-10T22:00:00","39","10","15,6","2,9","98,6","26,3","63,8","0","0"],
    [32389,"2017-10-10T23:00:00","56","16","16,1","2,5","47,9","26","64,5","0","0"],
    [32390,"2017-10-11T00:00:00","26","ND","15","0,8","75,5","26","64","0","0"],
    [32391,"2017-10-11T01:00:00","18","1","18,1","1,8","132,7","25,7","66,1","0","0"],
    [32392,"2017-10-11T02:00:00","36","3","19,8","1,2","86,3","25,6","66,9","0","0"],
    [32393,"2017-10-11T03:00:00","24","7","18,3","1,4","301,3","25,5","68,1","0","0"],
    [32394,"2017-10-11T04:00:00","53","18","12,7","2,4","103","24,9","70,8","0","0"],
    [32395,"2017-10-11T05:00:00","50","16","11,3","0,6","179,8","24,8","71,5","0","0"],
    [32396,"2017-10-11T06:00:00","101","45","11,3","1,8","139,2","25,1","70,7","0","0"],
    [32397,"2017-10-11T07:00:00","85","29","11,4","1,3","109,1","25","71,7","0","0"],
    [32398,"2017-10-11T08:00:00","81","27","11,9","2,4","76,7","24,9","73,6","7,1","0"],
    [32399,"2017-10-11T09:00:00","30","10","13,5","2,7","54,4","24,2","78,3","15","1,78"],
    [32400,"2017-10-11T10:00:00","18","7","23,7","2,8","23,2","24,3","75,7","75,4","0,51"],
    [32401,"2017-10-11T11:00:00","28","6","38,1","3,5","258,9","25,4","70,2","100,5","0"],
    [32402,"2017-10-11T12:00:00","39","11","29,9","3,6","249,4","26,2","68,8","126,4","0"],
    [32403,"2017-10-11T13:00:00","33","7","57","1,8","293","28,4","56,6","162,7","0"],
    [32404,"2017-10-11T14:00:00","28","ND","83,2","2","352,6","29,8","48,5","181,9","0"],
    [32405,"2017-10-11T15:00:00","28","3","86,9","3,9","18,6","31,3","42,1","216,1","0"],
    [32406,"2017-10-11T16:00:00","39","11","97,5","4,3","6,6","31,7","43","148,2","0"],
    [32407,"2017-10-11T17:00:00","45","12","62,7","2,9","75,3","31,4","43,8","61,4","0"],
    [32408,"2017-10-11T18:00:00","76","25","23,4","3,2","80,7","29,8","52","4,9","0"],
    [32409,"2017-10-11T19:00:00","46","14","25,8","4,2","41,6","28","57","0","0"],
    [32410,"2017-10-11T20:00:00","58","14","19,9","1,6","50,5","26,7","59,6","0","0"],
    [32411,"2017-10-11T21:00:00","49","16","14,6","1,5","101,8","26,2","61,5","0","0"],
    [32412,"2017-10-11T22:00:00","61","11","15,5","1,1","42,3","26,1","62,1","0","0"],
    [32413,"2017-10-11T23:00:00","72","35","12,1","1,5","89,2","25,5","65,3","0","0"],
    [32414,"2017-10-12T00:00:00","50","6","13,7","3,2","72,7","24,7","69,9","0","0"],
    [32415,"2017-10-12T01:00:00","46","14","16,2","1,3","357,2","25","69,1","0","0"],
    [32416,"2017-10-12T02:00:00","30","10","14,5","1,3","137,3","24,9","69,8","0","0"],
    [32417,"2017-10-12T03:00:00","29","6","12,1","1,9","195,3","24,3","72,6","0","0"],
    [32418,"2017-10-12T04:00:00","40","9","13,1","2,3","214,2","24,5","71,6","0","0"],
    [32419,"2017-10-12T05:00:00","62","14","11,3","3,1","106,9","24,2","73,2","0","0"],
    [32420,"2017-10-12T06:00:00","88","33","10,8","1,9","133,1","24","74,6","0","0"],
    [32421,"2017-10-12T07:00:00","80","31","11,5","2","3,9","24,3","73,9","31","0"],
    [32422,"2017-10-12T08:00:00","96","34","14,3","0,8","24,8","26,7","64,4","109,1","0"],
    [32423,"2017-10-12T09:00:00","90","32","28,6","2","158,2","28,5","58","211,4","0"],
    [32424,"2017-10-12T10:00:00","57","24","54","1","150,8","30,6","50,1","322,5","0"],
    [32425,"2017-10-12T11:00:00","59","12","80,6","2","111,3","32,3","43,7","395,9","0"],
    [32426,"2017-10-12T12:00:00","ND","12","99,3","2","27,8","33,7","38,4","429","0"],
    [32427,"2017-10-12T13:00:00","ND","10","100,2","3,1","36,8","34,7","35,8","421,3","0"],
    [32428,"2017-10-12T14:00:00","ND","11","96","4,4","33,7","35,4","34,3","383,3","0"],
    [32429,"2017-10-12T15:00:00","30","12","87,4","4,5","37,6","35,5","34,6","258,8","0"],
    [32430,"2017-10-12T16:00:00","43","11","50,1","4,1","62,3","34,7","36,7","93,3","0"],
    [32431,"2017-10-12T17:00:00","43","10","50,2","1,4","338","34,5","35,8","72,6","0"],
    [32432,"2017-10-12T18:00:00","34","7","35,6","5,2","296","32,1","41,2","8,4","0"],
    [32433,"2017-10-12T19:00:00","44","3","20,7","4,7","294,8","30,8","45","0","0"],
    [32434,"2017-10-12T20:00:00","65","19","13,9","1,8","51,7","29,7","50,6","0","0"],
    [32435,"2017-10-12T21:00:00","39","4","14","3,4","125,3","27,6","61,2","0","0"],
    [32436,"2017-10-12T22:00:00","65","22","14,5","4,8","248,7","27,7","60,9","0","0"],
    [32437,"2017-10-12T23:00:00","60","18","17,8","3,1","213,1","27,1","62,6","0","0"],
    [32438,"2017-10-13T00:00:00","62","15","16,8","2,7","91,6","26","67,3","0","0"],
    [32439,"2017-10-13T01:00:00","60","19","16,9","1,9","119,2","25,8","68,8","0","0"],
    [32440,"2017-10-13T02:00:00","57","13","19,4","1,5","157,9","25,5","69,2","0","0"],
    [32441,"2017-10-13T03:00:00","47","16","19,4","1","135,5","25,1","71,4","0","0"],
    [32442,"2017-10-13T04:00:00","37","14","17,7","0,9","249,1","25,4","70,5","0","0"],
    [32443,"2017-10-13T05:00:00","72","21","11,8","2,9","98,5","25,2","70,8","0","0"],
    [32444,"2017-10-13T06:00:00","67","23","12,6","1,8","111,3","24,8","72,6","0","0"],
    [32445,"2017-10-13T07:00:00","47","14","13,8","0,8","134,5","24,5","72,7","5","0"],
    [32446,"2017-10-13T08:00:00","74","25","16,2","1,4","199,5","25,7","69,7","61,6","0"],
    [32447,"2017-10-13T09:00:00","94","42","ND","2,2","147,6","28","62,2","195,2","0"],
    [32448,"2017-10-13T10:00:00","38","19","51","2,5","194,6","30","53,1","253,3","0"],
    [32449,"2017-10-13T11:00:00","47","16","58,5","3,2","126,4","31,6","47,9","377,6","0"],
    [32450,"2017-10-13T12:00:00","66","23","72,4","4,9","93,5","31","49,8","267","0"],
    [32451,"2017-10-13T13:00:00","43","20","93","2,4","58,9","32,7","44,5","334,4","0"],
    [32452,"2017-10-13T14:00:00","68","27","110,9","2,9","97,6","33,8","40,2","248","0"],
    [32453,"2017-10-13T15:00:00","62","22","94,2","4","87","33,1","41,8","121,7","0"],
    [32454,"2017-10-13T16:00:00","46","9","40,2","2,9","56,4","32,3","43,4","74,5","0"],
    [32455,"2017-10-13T17:00:00","37","6","39,7","6,1","285,6","29,7","49,8","35,3","0"],
    [32456,"2017-10-13T18:00:00","38","4","29,9","4,8","289,9","29,6","47,9","4,9","0"],
    [32457,"2017-10-13T19:00:00","21","ND","18,7","4,8","308,2","29","49,1","0","0"],
    [32458,"2017-10-13T20:00:00","42","10","14,4","2,5","316,6","28,6","50,9","0","0"],
    [32459,"2017-10-13T21:00:00","38","6","19,6","2","246,7","28,1","53,2","0","0"],
    [32460,"2017-10-13T22:00:00","68","14","12,1","1,9","95,7","26,3","65,2","0","0"],
    [32461,"2017-10-13T23:00:00","54","9","12,2","1,7","82,7","26,3","63,7","0","0"],
    [32462,"2017-10-14T00:00:00","ND","ND","ND","ND","ND","ND","ND","ND","ND"],
    [32463,"2017-10-14T01:00:00","43","5","14,2","2,2","125,6","25,2","68,8","0","0"],
    [32464,"2017-10-14T02:00:00","44","9","12,8","0,9","187,5","25,5","67,5","0","0"],
    [32465,"2017-10-14T03:00:00","42","8","15,6","1,8","198,6","25,5","66,6","0","0"],
    [32466,"2017-10-14T04:00:00","53","8","13,7","2,1","137,4","25,3","68,5","0","0"],
    [32467,"2017-10-14T05:00:00","64","10","12,3","0,5","101,9","24,8","71,2","0","0"],
    [32468,"2017-10-14T06:00:00","74","16","11,6","1,2","150,5","24,8","71,5","0","0"],
    [32469,"2017-10-14T07:00:00","108","31","12,2","2,2","73,4","24,7","72,3","5,9","0"],
    [32470,"2017-10-14T08:00:00","94","23","13,1","2,2","72,4","25,2","69,2","49,2","0"],
    [32471,"2017-10-14T09:00:00","77","14","15","1,9","80","26,4","64,2","73,5","0"],
    [32472,"2017-10-14T10:00:00","55","10","25,8","2,5","117","28,4","54,8","257,1","0"],
    [32473,"2017-10-14T11:00:00","44","9","39","3","109,4","30,7","47,8","270,6","0"],
    [32474,"2017-10-14T12:00:00","57","7","47,6","3,7","123,1","30,7","47,9","231,5","0"],
    [32475,"2017-10-14T13:00:00","ND","12","58,1","2,4","166,1","31","45,9","220,6","0"],
    [32476,"2017-10-14T14:00:00","ND","16","69,4","3,6","110,4","31,7","43,3","222,4","0"],
    [32477,"2017-10-14T15:00:00","ND","18","56,6","3,7","135,7","31","45,6","101,4","0"],
    [32478,"2017-10-14T16:00:00","ND","14","60,3","2,6","112,2","31,4","43,8","106","0"],
    [32479,"2017-10-14T17:00:00","ND","21","69,6","3","85,7","31,6","44,4","84,7","0"],
    [32480,"2017-10-14T18:00:00","ND","25","54,6","2,4","48,8","31,3","46","21,5","0"],
    [32481,"2017-10-14T19:00:00","ND","3","21,7","4","288,9","29,8","47,3","0","0"],
    [32482,"2017-10-14T20:00:00","ND","10","18,2","1,8","329,7","28,9","51","0","0"],
    [32483,"2017-10-14T21:00:00","ND","13","13,8","2,3","107,7","27,5","59,2","0","0"],
    [32484,"2017-10-14T22:00:00","ND","16","15,3","4,1","83,6","26,3","64,8","0","0"],
    [32485,"2017-10-14T23:00:00","ND","7","15,7","1,4","20,7","26,7","62,2","0","0"],
    [32486,"2017-10-15T00:00:00","ND","12","14,1","2,6","78,3","26,7","62,5","0","0"],
    [32487,"2017-10-15T01:00:00","ND","7","15,6","1,7","103,5","26,2","64,3","0","0"],
    [32488,"2017-10-15T02:00:00","ND","4","16,5","1,4","165,7","26,1","65,3","0","0"],
    [32489,"2017-10-15T03:00:00","ND","3","13,6","1,7","153,1","26,1","65,9","0","0"],
    [32490,"2017-10-15T04:00:00","ND","2","12,5","1,4","186,8","25,7","68,5","0","0"],
    [32491,"2017-10-15T05:00:00","ND","10","12,2","1,1","149,7","25,5","69,5","0","0"],
    [32492,"2017-10-15T06:00:00","ND","9","11,7","1,2","121,3","25,3","70,7","0","0"],
    [32493,"2017-10-15T07:00:00","ND","20","13,6","1,3","192,1","25,3","70,6","13","0"],
    [32494,"2017-10-15T08:00:00","ND","30","17,4","2,2","224,3","26,4","67,4","55","0"],
    [32495,"2017-10-15T09:00:00","ND","33","30,9","2,7","184,1","28,4","58,9","191,2","0"],
    [32496,"2017-10-15T10:00:00","ND","12","43,1","2,7","199,1","30,4","51,3","291,6","0"],
    [32497,"2017-10-15T11:00:00","ND","17","61,2","2,1","129,7","31,1","49,1","229,4","0"],
    [32498,"2017-10-15T12:00:00","ND","18","71,2","3,4","101,3","31,2","48,4","202,5","0"],
    [32499,"2017-10-15T13:00:00","ND","24","84,6","2,8","81,3","31,6","46,9","161,6","0"],
    [32500,"2017-10-15T14:00:00","ND","25","114,9","2,9","11,8","33,3","42,1","364","0"],
    [32501,"2017-10-15T15:00:00","ND","19","134,1","2,6","42,1","34,3","39","274,4","0"],
    [32502,"2017-10-15T16:00:00","ND","29","107,6","3,9","92,8","33,1","40,8","105,6","0"],
    [32503,"2017-10-15T17:00:00","ND","25","98,7","3,9","94,6","33,2","41,2","83,1","0"],
    [32504,"2017-10-15T18:00:00","ND","21","76","2,4","170,8","31,9","46,2","10,7","0"],
    [32505,"2017-10-15T19:00:00","ND","24","56,5","4,2","254,6","30,6","50,6","0","0"],
    [32506,"2017-10-15T20:00:00","ND","5","32","3,3","290,5","30,2","51","0","0"],
    [32507,"2017-10-15T21:00:00","ND","20","24,1","1,2","46","29,1","55,6","0","0"],
    [32508,"2017-10-15T22:00:00","ND","26","13,3","3,5","77,5","27,1","65","0","0"],
    [32509,"2017-10-15T23:00:00","ND","9","15,3","1","60,2","27","63,9","0","0"],
    [32510,"2017-10-16T00:00:00","ND","11","14,9","1,3","157,5","27,6","61,2","0","0"],
    [32511,"2017-10-16T01:00:00","ND","7","13,9","1,7","179,9","26,3","67,1","0","0"],
    [32512,"2017-10-16T02:00:00","ND","12","14,1","1,9","165,6","26","69,9","0","0"],
    [32513,"2017-10-16T03:00:00","ND","25","13,2","1,8","183,5","25,1","73,9","0","0"],
    [32514,"2017-10-16T04:00:00","ND","16","14,6","2,3","201,1","25,4","70,4","-2,2","0"],
    [32515,"2017-10-16T05:00:00","ND","18","14,4","1,4","154,9","25,6","68,9","-2,3","0"],
    [32516,"2017-10-16T06:00:00","ND","15","12,7","1,5","170","25,3","70,6","-2","0"],
    [32517,"2017-10-16T07:00:00","ND","19","13,6","2,2","175,4","25,6","69","21,3","0"],
    [32518,"2017-10-16T08:00:00","ND","17","18,4","2,5","192,6","26,8","65","78,1","0"],
    [32519,"2017-10-16T09:00:00","ND","10","35","2,6","183,4","29,5","55,1","223,6","0"],
    [32520,"2017-10-16T10:00:00","ND","17","59","2,7","123,3","31,6","48,4","325,7","0"],
    [32521,"2017-10-16T11:00:00","ND","15","79,2","2,6","127,8","33","43,6","368,7","0"],
    [32522,"2017-10-16T12:00:00","ND","12","91,5","2,3","82,4","35","38,1","419","0"],
    [32523,"2017-10-16T13:00:00","ND","15","108,4","3,8","39,4","35,4","37,4","381,4","0"],
    [32524,"2017-10-16T14:00:00","ND","18","101,7","4,5","33,6","35,3","37,4","272,5","0"],
    [32525,"2017-10-16T15:00:00","ND","4","62","4,9","44,4","35,2","36,9","201","0"],
    [32526,"2017-10-16T16:00:00","ND","3","46,9","5,2","44,4","34,2","38,4","115,2","0"],
    [32527,"2017-10-16T17:00:00","ND","4","44,1","4,8","35,5","33,7","38,6","52,6","0"],
    [32528,"2017-10-16T18:00:00","ND","3","30,6","2,9","329,9","32,2","42,8","4,9","0"],
    [32529,"2017-10-16T19:00:00","ND","ND","19,1","2,3","313,4","31","46,9","-2,2","0"],
    [32530,"2017-10-16T20:00:00","ND","19","13,8","2,6","81","29","55,8","-2,3","0"],
    [32531,"2017-10-16T21:00:00","ND","8","14,3","3,4","86,7","27,4","62,3","-2,3","0"],
    [32532,"2017-10-16T22:00:00","ND","10","13,8","2,5","74,4","26,8","64,1","-2,3","0"],
    [32533,"2017-10-16T23:00:00","ND","6","14,5","1,5","85,7","26,6","64,2","-2,3","0"],
    [32534,"2017-10-17T00:00:00","ND","ND","ND","ND","ND","ND","ND","ND","ND"],
    [32535,"2017-10-17T01:00:00","ND","4","13,3","1,5","150,6","25,4","69,6","-2,3","0"],
    [32536,"2017-10-17T02:00:00","ND","4","13,1","2,3","203,7","25,5","70,4","-2,3","0"],
    [32537,"2017-10-17T03:00:00","ND","8","13,5","1,7","148,3","25,3","71,2","-2,3","0"],
    [32538,"2017-10-17T04:00:00","ND","12","12,3","0,6","89,2","24,6","74,9","-2,2","0"],
    [32539,"2017-10-17T05:00:00","ND","9","12,6","0,8","238,3","24,3","75,4","-2,2","0"],
    [32540,"2017-10-17T06:00:00","ND","ND","ND","ND","ND","ND","ND","ND","ND"],
    [32541,"2017-10-17T07:00:00","ND","29","13,9","1,9","195,6","24,8","72,9","27,7","0"],
    [32542,"2017-10-17T08:00:00","ND","29","16,6","2,7","147,2","27,2","64,4","132,5","0"],
    [32543,"2017-10-17T09:00:00","ND","28","32,3","2,9","139,3","29,3","57","233,2","0"],
    [32544,"2017-10-17T10:00:00","ND","16","47,8","1,9","100,3","31,4","49,2","319,3","0"],
    [32545,"2017-10-17T11:00:00","42","12","74,3","0,6","108,8","33,3","44,1","382,7","0"],
    [32546,"2017-10-17T12:00:00","52","19","103","1,8","34,2","34,4","39,4","405,8","0"],
    [32547,"2017-10-17T13:00:00","55","11","131,3","2","32,1","36","34,8","413,2","0"],
    [32548,"2017-10-17T14:00:00","64","26","143,9","3,3","50,4","37","32,5","344,9","0"],
    [32549,"2017-10-17T15:00:00","61","13","97,2","3,4","49,7","36,7","33,3","240,5","0"],
    [32550,"2017-10-17T16:00:00","36","11","91,2","3,7","357,5","36,4","32,9","197,8","0"],
    [32551,"2017-10-17T17:00:00","42","9","58,2","4,9","345,3","35,2","35,3","78,9","0"],
    [32552,"2017-10-17T18:00:00","45","15","29,4","5,2","315,1","33","39,5","0","0"],
    [32553,"2017-10-17T19:00:00","53","19","18,4","3,7","327","31,9","42,9","0","0"],
    [32554,"2017-10-17T20:00:00","73","15","15,3","3","80,3","30,4","50,7","0","0"],
    [32555,"2017-10-17T21:00:00","70","15","14,3","2,7","107,9","28,9","58,1","0","0"],
    [32556,"2017-10-17T22:00:00","79","20","13,8","2,7","202,6","28,4","60,4","0","0"],
    [32557,"2017-10-17T23:00:00","83","28","14,7","2,2","174,8","27,8","63,6","0","0"],
    [32558,"2017-10-18T00:00:00","92","32","15,5","0,9","155,9","26,9","66,6","0","0"],
    [32559,"2017-10-18T01:00:00","65","13","13,5","0,9","165,1","26,8","66,3","0","0"],
    [32560,"2017-10-18T02:00:00","63","8","12,6","1,5","75,5","25,9","69","0","0"],
    [32561,"2017-10-18T03:00:00","39","5","13,5","0,9","117,7","25,9","68,1","0","0"],
    [32562,"2017-10-18T04:00:00","69","20","12,8","2","150,8","25,4","70,4","0","0"],
    [32563,"2017-10-18T05:00:00","71","30","14","2,2","213,4","25","71,9","0","0"],
    [32564,"2017-10-18T06:00:00","128","43","14,5","2,6","118,8","24,9","72,7","0","0"],
    [32565,"2017-10-18T07:00:00","88","28","13,1","2,4","197,3","25","72,1","18,6","0"],
    [32566,"2017-10-18T08:00:00","97","30","14,8","1,7","178,9","26,4","66,5","70","0"],
    [32567,"2017-10-18T09:00:00","77","20","20,3","2,6","119,7","28,2","59,8","138,9","0"],
    [32568,"2017-10-18T10:00:00","76","27","33,4","3","121,9","29,7","54,9","244,4","0"],
    [32569,"2017-10-18T11:00:00","75","22","68,2","1,2","54,9","31,5","49,2","288,7","0"],
    [32570,"2017-10-18T12:00:00","52","23","85,3","3,1","78,2","33,2","42,9","394,4","0"],
    [32571,"2017-10-18T13:00:00","64","20","109,8","3,8","57,8","35,4","37","469,7","0"],
    [32572,"2017-10-18T14:00:00","56","15","102,4","5,4","61,7","35","37,6","349,3","0"],
    [32573,"2017-10-18T15:00:00","62","13","77,8","7","57,4","35","38,8","347,6","0"],
    [32574,"2017-10-18T16:00:00","29","7","45,9","6,3","43,5","34,5","39,1","159,5","0"],
    [32575,"2017-10-18T17:00:00","50","6","41,8","5,8","45,8","34,1","40,1","92,1","0"],
    [32576,"2017-10-18T18:00:00","57","15","36,9","3,3","345,8","33,2","40,3","21,2","0"],
    [32577,"2017-10-18T19:00:00","42","9","22,1","3,9","302,8","31,6","42,9","0","0"],
    [32578,"2017-10-18T20:00:00","54","13","16,4","3,3","317,6","30,6","47","0","0"],
    [32579,"2017-10-18T21:00:00","88","11","15,6","2,6","75,4","28,7","56,1","0","0"],
    [32580,"2017-10-18T22:00:00","78","10","14","3,4","75,4","27,2","63,1","0","0"],
    [32581,"2017-10-18T23:00:00","48","10","15,3","1,9","55,3","27,5","60,7","0","0"],
    [32582,"2017-10-19T00:00:00","32","12","13,3","1,5","103,4","27","63,1","0","0"],
    [32583,"2017-10-19T01:00:00","63","11","13,7","1,8","131,7","26,6","65,7","0","0"],
    [32584,"2017-10-19T02:00:00","85","23","13,3","2,5","133,4","26,4","68,1","0","0"],
    [32585,"2017-10-19T03:00:00","70","20","13,3","1,7","162","26,3","68,6","0","0"],
    [32586,"2017-10-19T04:00:00","53","14","22,4","1,7","317,2","25,3","71,9","0","0,51"],
    [32587,"2017-10-19T05:00:00","ND","ND","ND","ND","ND","ND","ND","ND","ND"],
    [32588,"2017-10-19T06:00:00","ND","ND","ND","ND","ND","ND","ND","ND","ND"],
    [32589,"2017-10-19T07:00:00","ND","ND","ND","ND","ND","ND","ND","ND","ND"],
    [32590,"2017-10-19T08:00:00","ND","ND","ND","ND","ND","ND","ND","ND","ND"],
    [32591,"2017-10-19T09:00:00","ND","ND","ND","ND","ND","ND","ND","ND","ND"],
    [32592,"2017-10-19T10:00:00","ND","ND","ND","ND","ND","ND","ND","ND","ND"],
    [32593,"2017-10-19T11:00:00","ND","ND","ND","ND","ND","ND","ND","ND","ND"],
    [32594,"2017-10-19T12:00:00","28","8","54,5","2,4","67,6","31,6","47,6","228,7","0"],
    [32595,"2017-10-19T13:00:00","35","6","54,8","3,9","91,1","32,3","45,1","333,4","0"],
    [32596,"2017-10-19T14:00:00","27","4","60,7","2,4","107,7","34,4","35,6","313,2","0"],
    [32597,"2017-10-19T15:00:00","35","6","66,4","3,9","106,5","33,9","37,5","216,6","0"],
    [32598,"2017-10-19T16:00:00","33","11","91,8","3,4","58,9","34,7","35,7","216,1","0"],
    [32599,"2017-10-19T17:00:00","44","14","82,6","2","47,6","34,1","36,9","76,7","0"],
    [32600,"2017-10-19T18:00:00","48","8","43,4","5,4","283,9","31,7","43,4","8,7","0"],
    [32601,"2017-10-19T19:00:00","35","6","27,3","5,3","298,7","30,7","46","0","0"],
    [32602,"2017-10-19T20:00:00","41","6","19,6","2,1","300,5","30","49,3","0","0"],
    [32603,"2017-10-19T21:00:00","56","8","16","3,1","106,3","27,5","62","0","0"],
    [32604,"2017-10-19T22:00:00","38","9","15,5","3,1","72,7","26,2","67","0","0"],
    [32605,"2017-10-19T23:00:00","41","7","16,3","3,5","88,4","25,8","67,6","0","0"],
    [32606,"2017-10-20T00:00:00","30","6","17,8","2,8","78,1","26","65,3","0","0"],
    [32607,"2017-10-20T01:00:00","19","12","23,1","1,7","330,4","26,1","64,1","0","0"],
    [32608,"2017-10-20T02:00:00","34","8","21,2","1","178,2","26,6","63,1","0","0"],
    [32609,"2017-10-20T03:00:00","30","6","15,4","2,6","172,2","26,1","67,7","0","0"],
    [32610,"2017-10-20T04:00:00","71","17","13","1,9","125,2","25,5","69,8","0","0"],
    [32611,"2017-10-20T05:00:00","66","17","13,1","0,6","243","25,8","68,7","0","0"],
    [32612,"2017-10-20T06:00:00","61","25","13,3","1,8","197,9","25,9","67,3","0","0"],
    [32613,"2017-10-20T07:00:00","93","32","13,8","1,8","135,8","26,1","67,8","6,7","0"],
    [32614,"2017-10-20T08:00:00","102","34","15,9","1,2","77,3","27,1","64,8","83,2","0"],
    [32615,"2017-10-20T09:00:00","87","27","30,3","2,1","116,5","29,2","55,6","200,4","0"],
    [32616,"2017-10-20T10:00:00","58","20","49,8","2,1","65,7","31,5","48,1","293,1","0"],
    [32617,"2017-10-20T11:00:00","40","15","74,2","2,5","92,3","33","43,3","384,7","0"],
    [32618,"2017-10-20T12:00:00","38","10","92,4","2,7","115,2","34,6","38,2","450,5","0"],
    [32619,"2017-10-20T13:00:00","57","20","118,1","1,8","102,9","34,9","37,2","244,9","0"],
    [32620,"2017-10-20T14:00:00","56","23","138,1","2","330,1","34,9","37,1","249","0"],
    [32621,"2017-10-20T15:00:00","66","18","99,5","1,4","358,8","35,8","33,7","243,3","0"],
    [32622,"2017-10-20T16:00:00","34","ND","49,5","8,2","287,1","33,8","36,6","155,3","0"],
    [32623,"2017-10-20T17:00:00","34","3","39,5","7,8","297,5","32,3","40,3","77,5","0"],
    [32624,"2017-10-20T18:00:00","34","6","24,4","1,8","330,3","31,5","45","12,5","0"],
    [32625,"2017-10-20T19:00:00","75","19","17,2","3,3","67,9","30,2","51,7","0","0"],
    [32626,"2017-10-20T20:00:00","96","50","16,3","3,5","43,5","29,5","51,8","0","0"],
    [32627,"2017-10-20T21:00:00","47","11","20,3","3,5","268,6","29,3","51,2","0","0"],
    [32628,"2017-10-20T22:00:00","79","12","15,1","1,3","169,5","28,5","57,9","0","0"],
    [32629,"2017-10-20T23:00:00","32","6","15,2","3,3","94,6","27,1","63,2","0","0"],
    [32630,"2017-10-21T00:00:00","36","1","15,8","2","92,2","26,7","64","0","0"],
    [32631,"2017-10-21T01:00:00","47","6","14,5","3,6","97,7","26,1","66,9","0","0"],
    [32632,"2017-10-21T02:00:00","36","7","16","1,2","49,9","25,9","67,9","0","0"],
    [32633,"2017-10-21T03:00:00","35","6","15,6","2,1","119,1","26","67,3","0","0"],
    [32634,"2017-10-21T04:00:00","19","3","18","2,4","111,2","25,7","68,8","0","0"],
    [32635,"2017-10-21T05:00:00","24","3","16,7","0,9","65,6","25,5","70,8","0","0"],
    [32636,"2017-10-21T06:00:00","39","5","14,1","1,6","87,5","25,6","70,4","0","0"],
    [32637,"2017-10-21T07:00:00","68","20","14","2,3","77","25,5","71,6","11,9","0"],
    [32638,"2017-10-21T08:00:00","53","14","15,5","0,8","128,5","27,4","63,6","45,8","0"],
    [32639,"2017-10-21T09:00:00","63","16","22,7","1,1","163,8","28,6","59,2","103,7","0"],
    [32640,"2017-10-21T10:00:00","52","14","36,1","1,7","154,5","30","54,7","177,2","0"],
    [32641,"2017-10-21T11:00:00","43","12","52,4","2,1","163,5","32,3","47,1","388","0"],
    [32642,"2017-10-21T12:00:00","58","13","62,6","3,9","91,4","32,5","44,4","248","0"],
    [32643,"2017-10-21T13:00:00","59","19","71,5","4,9","96,9","31,9","47,9","199,1","0"],
    [32644,"2017-10-21T14:00:00","63","19","81,2","3","116","32,6","45,4","225,6","0"],
    [32645,"2017-10-21T15:00:00","52","17","102,1","2,7","340,5","33,6","42,1","198,7","0"],
    [32646,"2017-10-21T16:00:00","30","ND","57,1","6","292,4","32,1","42,2","112,2","0"],
    [32647,"2017-10-21T17:00:00","34","2","59,1","4,3","297,2","32,1","41,3","31,4","0"],
    [32648,"2017-10-21T18:00:00","19","3","40,4","3,3","297,4","31,3","42,8","8","0"],
    [32649,"2017-10-21T19:00:00","54","9","23,4","1","321,7","30,5","46,8","0","0"],
    [32650,"2017-10-21T20:00:00","55","18","14,8","1","14,1","30","48,8","0","0"],
    [32651,"2017-10-21T21:00:00","71","21","14,5","2,7","97,1","28,4","57,1","0","0"],
    [32652,"2017-10-21T22:00:00","43","8","14,5","2,9","91,1","27,4","61,3","0","0"],
    [32653,"2017-10-21T23:00:00","52","17","16,1","2,6","40,9","26,9","62,9","0","0"],
    [32654,"2017-10-22T00:00:00","54","32","18,5","2,5","42,5","27,3","60,6","0","0"],
    [32655,"2017-10-22T01:00:00","27","5","16,4","3,1","108","26,9","62,7","0","0"],
    [32656,"2017-10-22T02:00:00","41","5","16,9","2,5","88,2","26,1","67","0","0"],
    [32657,"2017-10-22T03:00:00","93","3","17,7","1,9","94,3","26","68,5","0","0"],
    [32658,"2017-10-22T04:00:00","30","2","16,4","1,5","118,2","26","69","0","0"],
    [32659,"2017-10-22T05:00:00","48","2","16,1","1,4","94,4","26,2","67,6","0","0"],
    [32660,"2017-10-22T06:00:00","36","6","15,6","1,9","109,1","26,3","67,2","0","0"],
    [32661,"2017-10-22T07:00:00","52","13","14,4","1,7","157,2","26,4","68,2","5,7","0"],
    [32662,"2017-10-22T08:00:00","67","14","16,9","2,8","128,2","26,9","66,6","50,4","0"],
    [32663,"2017-10-22T09:00:00","31","8","21,6","2,7","111,6","27,6","64,8","86","0"],
    [32664,"2017-10-22T10:00:00","29","9","23,4","4,8","42,5","26,6","69,5","73","0"],
    [32665,"2017-10-22T11:00:00","22","6","31","6,4","10,4","26,2","70,8","131,1","0,25"],
    [32666,"2017-10-22T12:00:00","11","ND","44,9","5,5","4,8","27","64,7","147,9","0"],
    [32667,"2017-10-22T13:00:00","17","ND","49,6","4,9","11,6","28,6","58,8","202,7","0"],
    [32668,"2017-10-22T14:00:00","20","1","45,1","3,5","40,2","29,7","54","174,1","0"],
    [32669,"2017-10-22T15:00:00","10","1","50,7","3,1","55,6","30,3","49,7","166,3","0"],
    [32670,"2017-10-22T16:00:00","16","1","49,9","1,6","101,7","30,5","49,4","99,4","0"],
    [32671,"2017-10-22T17:00:00","21","2","43,8","3,4","104,2","29,9","50,7","51,8","0"],
    [32672,"2017-10-22T18:00:00","35","7","39,2","3","176,9","28,8","58,9","8,7","0"],
    [32673,"2017-10-22T19:00:00","28","5","35,7","3,6","208,1","27,6","65,7","0","0"],
    [32674,"2017-10-22T20:00:00","45","15","33,9","3,2","209","27,2","65,7","0","0"],
    [32675,"2017-10-22T21:00:00","53","16","24,2","1,4","168,7","27,4","65,2","0","0"],
    [32676,"2017-10-22T22:00:00","49","20","18,9","2,6","95,1","26,6","69,8","0","0"],
    [32677,"2017-10-22T23:00:00","52","19","19,6","2,1","42,2","26,2","72","0","0"],
    [32678,"2017-10-23T00:00:00","39","10","18,3","2,6","42,2","26,2","71,1","0","0"],
    [32679,"2017-10-23T01:00:00","14","7","16,2","2,3","32,9","26,1","70,6","0","0"],
    [32680,"2017-10-23T02:00:00","19","6","17,2","0,9","6,7","25,9","70,7","0","0"],
    [32681,"2017-10-23T03:00:00","12","1","23,2","1,3","17,8","25,7","69,7","0","0"],
    [32682,"2017-10-23T04:00:00","16","ND","24,3","1,1","29,8","25,9","68,1","0","0"],
    [32683,"2017-10-23T05:00:00","23","1","17,1","1,7","40,5","25,9","68,3","0","0"],
    [32684,"2017-10-23T06:00:00","64","21","14,1","2,6","79,3","25,6","70,7","0","0"],
    [32685,"2017-10-23T07:00:00","54","20","13,9","1,3","128,5","25,2","74,8","9,7","0"],
    [32686,"2017-10-23T08:00:00","98","32","15,2","1,9","148,5","25,8","73,6","41,3","0"],
    [32687,"2017-10-23T09:00:00","83","28","24","0,6","253,8","26,9","67,6","86,9","0"],
    [32688,"2017-10-23T10:00:00","100","43","40","2,9","92,7","28,9","60","228,2","0"],
    [32689,"2017-10-23T11:00:00","76","35","67,9","2,8","57,6","30,7","53,1","338,8","0"],
    [32690,"2017-10-23T12:00:00","55","23","88,7","3,7","55,4","32,7","45","404,9","0"],
    [32691,"2017-10-23T13:00:00","38","15","93,4","3","49,2","33,4","41,3","354,9","0"],
    [32692,"2017-10-23T14:00:00","37","18","101","3,3","28,2","33,6","41","257,3","0"],
    [32693,"2017-10-23T15:00:00","48","21","102,2","6","358,7","33","44,2","216,8","0"],
    [32694,"2017-10-23T16:00:00","36","1","58","6,4","33,3","32,6","43,9","157,9","0"],
    [32695,"2017-10-23T17:00:00","36","1","41,6","4,8","32,1","32,2","43,5","55,5","0"],
    [32696,"2017-10-23T18:00:00","47","6","26,1","2,1","231,7","31","47","0","0"],
    [32697,"2017-10-23T19:00:00","59","17","49,2","5,7","215,4","27,7","57,3","0","0"],
    [32698,"2017-10-23T20:00:00","54","9","47,6","4,6","196,7","26,7","62,6","0","0"],
    [32699,"2017-10-23T21:00:00","53","13","33,9","3,5","167,6","26,6","63,9","0","0"],
    [32700,"2017-10-23T22:00:00","38","9","35,7","4,1","186,2","25,8","66,2","0","0"],
    [32701,"2017-10-23T23:00:00","30","6","33,2","4","202,4","24,7","72,2","0","3,05"],
    [32702,"2017-10-24T00:00:00","ND","ND","27,3","3,4","142,5","23,9","78,5","0","3,05"],
    [32703,"2017-10-24T01:00:00","7","4","29,7","1,3","123,1","23,2","80,4","0","14,22"],
    [32704,"2017-10-24T02:00:00","5","2","30","2,5","56,5","23","80,5","0","10,16"],
    [32705,"2017-10-24T03:00:00","11","1","27","3","73,3","22,7","81,5","0","7,62"],
    [32706,"2017-10-24T04:00:00","9","2","22,9","2,9","89,1","22,8","81,3","0","4,57"],
    [32707,"2017-10-24T05:00:00","32","5","18,6","1,3","39,5","22,7","80,2","0","2,54"],
    [32708,"2017-10-24T06:00:00","37","15","16,3","1","77,6","22,9","78,7","0","2,29"],
    [32709,"2017-10-24T07:00:00","27","19","15,2","1","124,1","22,9","77,9","0","2,03"],
    [32710,"2017-10-24T08:00:00","32","10","15,4","2","77,9","23,1","78,5","19,1","1,78"],
    [32711,"2017-10-24T09:00:00","34","22","16,2","1,8","64,9","23,3","78,2","26","0,76"],
    [32712,"2017-10-24T10:00:00","38","22","17,5","1,4","83,3","23,7","76","43,8","0,25"],
    [32713,"2017-10-24T11:00:00","46","22","21,4","1,5","42,6","24,3","74,4","65,6","0,25"],
    [32714,"2017-10-24T12:00:00","39","8","26,6","2,1","11,9","24,7","72,7","83,1","0"],
    [32715,"2017-10-24T13:00:00","44","10","32,1","1,5","5,4","25,3","70,1","103,1","0"],
    [32716,"2017-10-24T14:00:00","63","32","34,9","1,8","77","26,1","66,4","111,1","0"],
    [32717,"2017-10-24T15:00:00","45","20","44,7","1,4","69,2","27","62,2","123,6","0,25"],
    [32718,"2017-10-24T16:00:00","59","17","39,7","1,9","45,9","27","60,6","85,5","0"],
    [32719,"2017-10-24T17:00:00","69","26","29","2,8","69,8","26,7","61,8","41,8","0"],
    [32720,"2017-10-24T18:00:00","60","17","30,8","2,5","13,7","26","65,6","5,2","0"],
    [32721,"2017-10-24T19:00:00","62","22","20,1","2,6","9,5","25,4","69,2","0","0"],
    [32722,"2017-10-24T20:00:00","50","17","19,3","1,4","7,5","25,3","69,6","0","0"],
    [32723,"2017-10-24T21:00:00","53","11","17,6","0,7","311,6","25","70","0","0"],
    [32724,"2017-10-24T22:00:00","93","31","14,4","2,3","96,9","24,5","74,5","0","0"],
    [32725,"2017-10-24T23:00:00","63","26","13,9","1,1","214,4","24,1","75,9","0","0"],
    [32726,"2017-10-25T00:00:00","70","27","13,8","0,5","176,5","24,5","74,5","0","0"],
    [32727,"2017-10-25T01:00:00","68","29","13,8","1,7","76","24,3","76,2","0","0"],
    [32728,"2017-10-25T02:00:00","61","36","13,8","1,7","144,7","23,4","78,4","0","0"],
    [32729,"2017-10-25T03:00:00","33","7","14,2","2,3","219,7","23","78,5","0","0"],
    [32730,"2017-10-25T04:00:00","56","25","13,9","1,9","235,9","23,1","78,8","0","0"],
    [32731,"2017-10-25T05:00:00","53","22","13,4","1,1","199,2","23,1","78,8","0","0"],
    [32732,"2017-10-25T06:00:00","76","35","13,7","1,6","153,1","22,5","79,5","0","0"],
    [32733,"2017-10-25T07:00:00","94","41","14,8","1,1","79,6","22,4","80,6","11,6","0"],
    [32734,"2017-10-25T08:00:00","107","53","14,1","2,6","89,7","23,5","77,2","52,7","0"],
    [32735,"2017-10-25T09:00:00","87","43","19,3","2,3","29,9","25,3","71,1","125,2","0"],
    [32736,"2017-10-25T10:00:00","90","46","43,1","1,4","59,7","27,4","61,4","234,3","0"],
    [32737,"2017-10-25T11:00:00","78","36","71,7","2,2","86,8","28,6","55","192,2","0"],
    [32738,"2017-10-25T12:00:00","57","26","94,4","2,2","53,8","29,9","48,7","257","0"],
    [32739,"2017-10-25T13:00:00","62","26","121","2,1","9","30,3","47,2","238,5","0"],
    [32740,"2017-10-25T14:00:00","65","36","127,5","1,7","67,8","31,8","42,9","269,2","0"],
    [32741,"2017-10-25T15:00:00","65","28","134,7","1,7","355,3","31,8","43,3","197,2","0"],
    [32742,"2017-10-25T16:00:00","60","31","120","2,8","6,6","31,3","45","120,7","0"],
    [32743,"2017-10-25T17:00:00","71","33","72,4","3","60,2","30,8","48,4","49,8","0"],
    [32744,"2017-10-25T18:00:00","79","26","52,7","2,4","31,5","30","51,9","4,9","0"],
    [32745,"2017-10-25T19:00:00","68","20","17,9","2,3","315,2","29","53,8","0","0"],
    [32746,"2017-10-25T20:00:00","35","8","13,8","3,7","285,9","28,4","52,2","0","0"],
    [32747,"2017-10-25T21:00:00","59","18","15,1","2,5","88,6","27","60,7","0","0"],
    [32748,"2017-10-25T22:00:00","58","ND","15,5","3,5","102,1","25,7","67,5","0","0"],
    [32749,"2017-10-25T23:00:00","48","ND","15,5","2,2","67,9","25,7","65,8","0","0"],
    [32750,"2017-10-26T00:00:00","37","2","18,4","2,6","93,8","25,4","66,8","0","0"],
    [32751,"2017-10-26T01:00:00","34","5","16,6","0,9","209,7","25,4","67","0","0"],
    [32752,"2017-10-26T02:00:00","27","5","15","2,1","218,8","24,8","70,8","0","0"],
    [32753,"2017-10-26T03:00:00","37","3","14,5","2,3","177,6","24,6","73","0","0"],
    [32754,"2017-10-26T04:00:00","28","6","24,6","3,8","190,8","24,3","73,3","0","1,52"],
    [32755,"2017-10-26T05:00:00","17","4","28,4","3,4","158,3","22,1","78,4","0","9,91"],
    [32756,"2017-10-26T06:00:00","22","11","21,4","4,6","98,8","21,2","80,5","0","10,16"],
    [32757,"2017-10-26T07:00:00","28","8","17,1","1,7","27,7","21,3","80,3","0","3,3"],
    [32758,"2017-10-26T08:00:00","35","7","19,6","4,6","328,3","21,6","79,6","30","0"],
    [32759,"2017-10-26T09:00:00","33","7","18,6","2,1","313,8","23,4","74","59,8","0,25"],
    [32760,"2017-10-26T10:00:00","52","20","17,3","4,1","115,6","23,8","73,5","101,4","0"],
    [32761,"2017-10-26T11:00:00","51","21","30,2","2","142","26,5","63,4","296,3","0"],
    [32762,"2017-10-26T12:00:00","63","26","57,9","2,3","341,3","27,4","58,4","237,3","0"],
    [32763,"2017-10-26T13:00:00","31","4","67,2","2,5","1,6","29,5","51,7","362,2","0"],
    [32764,"2017-10-26T14:00:00","29","4","64,6","4,4","4,2","29,2","49,9","190,5","0"],
    [32765,"2017-10-26T15:00:00","24","1","59,6","3,6","15,2","29,5","46,8","183,8","0"],
    [32766,"2017-10-26T16:00:00","37","1","51,3","3,6","37,7","29,7","47,7","145,3","0"],
    [32767,"2017-10-26T17:00:00","27","2","52,2","3,6","28,8","29,6","47,1","104,2","0"],
    [32768,"2017-10-26T18:00:00","50","12","34,7","3,9","33","27,8","54,9","4,6","0"],
    [32769,"2017-10-26T19:00:00","49","12","30","3,4","26,4","26,3","59,4","0","0"],
    [32770,"2017-10-26T20:00:00","ND","ND","ND","ND","ND","ND","ND","ND","ND"],
    [32771,"2017-10-26T21:00:00","79","29","16,1","2,6","98,3","25,3","64,1","0","0"],
    [32772,"2017-10-26T22:00:00","61","14","15,1","1,1","179,7","25,1","64,9","0","0"],
    [32773,"2017-10-26T23:00:00","62","27","13,6","1,7","191,6","24,5","69,1","0","0"],
    [32774,"2017-10-27T00:00:00","51","11","15,4","2,7","234,4","24,3","71,6","0","0"],
    [32775,"2017-10-27T01:00:00","33","7","14,9","1,8","196","24,7","69,7","0","0"],
    [32776,"2017-10-27T02:00:00","36","11","16","0,7","231,4","24,2","71,3","0","0"],
    [32777,"2017-10-27T03:00:00","50","14","13,1","2","96,7","23,4","76,2","0","0"],
    [32778,"2017-10-27T04:00:00","54","17","13","2,4","114","23,5","75,7","0","0"],
    [32779,"2017-10-27T05:00:00","69","27","12,7","1","216,1","23,5","75,7","0","0"],
    [32780,"2017-10-27T06:00:00","79","26","13,3","1,2","216,6","24,1","72,9","0","0"],
    [32781,"2017-10-27T07:00:00","54","22","13,6","1,9","182,7","24,1","73,3","17,6","0"],
    [32782,"2017-10-27T08:00:00","54","24","15,9","2","199,7","25","69,7","48,2","0"],
    [32783,"2017-10-27T09:00:00","28","21","31,5","1,9","219,1","26,8","62,2","173,5","0"],
    [32784,"2017-10-27T10:00:00","27","10","48,1","2,2","99,6","29,5","52,1","359,7","0"],
    [32785,"2017-10-27T11:00:00","32","15","67,1","3,2","86,7","30,6","49,2","359,7","0"],
    [32786,"2017-10-27T12:00:00","38","14","85,2","1,2","58,4","32,6","41,1","394,5","0"],
    [32787,"2017-10-27T13:00:00","39","12","82,4","2,3","72,8","33,3","37,9","366","0"],
    [32788,"2017-10-27T14:00:00","54","18","109,1","3,4","41,7","34,1","35,3","361,1","0"],
    [32789,"2017-10-27T15:00:00","50","19","112,2","3,8","22,1","33,5","37,3","191,5","0"],
    [32790,"2017-10-27T16:00:00","43","17","84,3","4,6","8,2","33,3","38,3","190,2","0"],
    [32791,"2017-10-27T17:00:00","55","14","43,3","4,1","13,8","32,6","39","43,7","0"],
    [32792,"2017-10-27T18:00:00","51","9","24,2","2,1","309","30,4","45,4","0","0"],
    [32793,"2017-10-27T19:00:00","104","37","18","2,3","79,5","28,8","54,5","0","0"],
    [32794,"2017-10-27T20:00:00","76","26","16","3,7","124,4","27,8","58,6","0","0"],
    [32795,"2017-10-27T21:00:00","41","7","22","2,7","96,1","25","75,5","0","33,53"],
    [32796,"2017-10-27T22:00:00","25","10","24","2,9","204,7","23,8","84,2","0","19,3"],
    [32797,"2017-10-27T23:00:00","36","9","23,6","3","292,2","23,5","84,6","0","10,92"],
    [32798,"2017-10-28T00:00:00","15","9","18,5","1,5","82,3","23,6","83,7","0","0"],
    [32799,"2017-10-28T01:00:00","ND","ND","ND","ND","ND","ND","ND","ND","ND"],
    [32800,"2017-10-28T02:00:00","17","2","26,2","2,8","248,6","23,5","78,6","0","0,51"],
    [32801,"2017-10-28T03:00:00","18","3","26,6","2,9","229","23,7","78,1","0","0"],
    [32802,"2017-10-28T04:00:00","20","6","21,6","2,5","154,9","23,5","78,8","0","0"],
    [32803,"2017-10-28T05:00:00","29","6","17,7","1,7","184,8","23,2","79,5","0","0"],
    [32804,"2017-10-28T06:00:00","31","12","16,5","0,9","180,7","23,3","78,6","0","0"],
    [32805,"2017-10-28T07:00:00","56","22","14,1","2,6","86,1","23,4","78,8","4,1","0"],
    [32806,"2017-10-28T08:00:00","39","13","16","2,5","15,7","23,7","77,1","17,8","0"],
    [32807,"2017-10-28T09:00:00","63","21","15,7","2,7","46,9","24,2","75,4","19,6","0"],
    [32808,"2017-10-28T10:00:00","47","10","19,4","2,6","45,2","23,5","76,5","31,4","0,51"],
    [32809,"2017-10-28T11:00:00","ND","ND","24,5","3","101,7","23,4","77,8","69,9","0"],
    [32810,"2017-10-28T12:00:00","18","2","31,4","1,9","41,7","24,8","72,6","100,2","0"],
    [32811,"2017-10-28T13:00:00","39","5","42,9","1,6","71,5","26,6","64,8","179,7","0"],
    [32812,"2017-10-28T14:00:00","44","24","58,1","1,8","113,1","28","59,7","192,7","0"],
    [32813,"2017-10-28T15:00:00","34","11","61","1,3","172,7","28,3","57,3","123,4","0,25"],
    [32814,"2017-10-28T16:00:00","58","20","44","2,5","120","28,5","56","89,4","0"],
    [32815,"2017-10-28T17:00:00","54","18","42,7","2,6","45,5","27,1","61,7","24,5","6,6"],
    [32816,"2017-10-28T18:00:00","37","16","25,1","2,7","79,7","23,5","79,5","0","5,08"],
    [32817,"2017-10-28T19:00:00","71","18","18,3","0,8","30,4","24,3","74,8","0","0"],
    [32818,"2017-10-28T20:00:00","55","29","17,5","2,5","46,9","24,4","73,5","0","0"],
    [32819,"2017-10-28T21:00:00","44","6","16,9","2,9","352,5","23,9","72,5","0","0"],
    [32820,"2017-10-28T22:00:00","61","9","17","1,8","53,2","23,9","72,8","0","0"],
    [32821,"2017-10-28T23:00:00","48","10","15","1,5","161,2","23,5","75,5","0","0"],
    [32822,"2017-10-29T00:00:00","55","15","15,8","1,8","99,6","23,4","75,7","0","0"],
    [32823,"2017-10-29T01:00:00","22","8","16,9","1,1","31,6","23,3","75,2","0","0"],
    [32824,"2017-10-29T02:00:00","17","3","16,6","0,9","46,5","23,2","77,1","0","0,76"],
    [32825,"2017-10-29T03:00:00","23","3","15,9","1,6","5,6","22,8","78,7","0","0"],
    [32826,"2017-10-29T04:00:00","33","13","14,5","1,6","32,6","22,8","79,8","0","0"],
    [32827,"2017-10-29T05:00:00","28","7","16,4","2,6","38,5","22,7","77,7","0","0"],
    [32828,"2017-10-29T06:00:00","19","1","20,2","3,3","29","22,6","76,3","0","0"],
    [32829,"2017-10-29T07:00:00","25","5","18,2","2,3","350","22,4","77,1","7,2","0"],
    [32830,"2017-10-29T08:00:00","41","8","19,1","2,9","2,5","22,9","76,1","25,1","0"],
    [32831,"2017-10-29T09:00:00","31","7","21,4","1,8","29,2","24","71,8","61,3","0"],
    [32832,"2017-10-29T10:00:00","35","4","27,4","2,3","66,7","25,1","65,7","130","0"],
    [32833,"2017-10-29T11:00:00","31","3","32,8","2,8","70,1","25,7","63,4","161,8","0"],
    [32834,"2017-10-29T12:00:00","36","14","53,7","1,1","22,3","27,2","57,6","226,3","0"],
    [32835,"2017-10-29T13:00:00","56","20","79,2","1,2","106,3","28,5","52,9","234,8","0"],
    [32836,"2017-10-29T14:00:00","53","23","85,2","1,9","64,9","28,9","51","203,9","0"],
    [32837,"2017-10-29T15:00:00","46","14","82,7","2,5","44,6","28,5","52,6","113,7","0"],
    [32838,"2017-10-29T16:00:00","57","18","72,2","2,3","95,3","28,9","51,4","114,2","0"],
    [32839,"2017-10-29T17:00:00","55","11","73","2,4","79,8","29,1","50,7","70","0"],
    [32840,"2017-10-29T18:00:00","72","29","58,1","1,3","83,5","28,2","54,6","7,4","0"],
    [32841,"2017-10-29T19:00:00","118","52","23,5","2,2","81,7","27,1","60,8","0","0"],
    [32842,"2017-10-29T20:00:00","111","40","20,2","1,9","12,7","26,1","65,2","0","0"],
    [32843,"2017-10-29T21:00:00","92","32","20,4","0,8","29,9","25,9","65","0","0"],
    [32844,"2017-10-29T22:00:00","102","38","15,3","1,3","112,9","25,5","67,1","0","0"],
    [32845,"2017-10-29T23:00:00","72","5","15,8","2,6","102","24,4","69,9","0","0"],
    [32846,"2017-10-30T00:00:00","47","5","16,7","0,6","264,5","24,3","68,7","0","0"],
    [32847,"2017-10-30T01:00:00","56","13","15,3","1,7","231","24,3","70,4","0","0"],
    [32848,"2017-10-30T02:00:00","57","12","15,5","1,6","199,5","24,1","73,4","0","0"],
    [32849,"2017-10-30T03:00:00","49","13","16,1","1,7","214,9","23,8","73,8","0","0"],
    [32850,"2017-10-30T04:00:00","42","13","15,2","1,2","154,1","23,7","74,8","0","0"],
    [32851,"2017-10-30T05:00:00","38","12","15","1,4","174,4","23,6","75,2","0","0"],
    [32852,"2017-10-30T06:00:00","52","19","14,7","1,3","206,6","23,7","75,4","0","0"],
    [32853,"2017-10-30T07:00:00","79","23","15,1","0,2","88,1","24","74,4","10,2","0"],
    [32854,"2017-10-30T08:00:00","118","26","15,6","2","117","24,7","72,4","37,5","0"],
    [32855,"2017-10-30T09:00:00","97","24","17,2","2,4","143,7","25,4","69,3","70,9","0"],
    [32856,"2017-10-30T10:00:00","45","7","27,4","1,3","254,2","26,8","61,3","118","0"],
    [32857,"2017-10-30T11:00:00","59","10","36,5","1,3","157,9","28,1","55,8","167,1","0"],
    [32858,"2017-10-30T12:00:00","44","12","51","1,9","154,2","29,2","51","235,2","0"],
    [32859,"2017-10-30T13:00:00","53","6","64,9","2,3","205,7","31,4","44,7","416,1","0"],
    [32860,"2017-10-30T14:00:00","34","6","66","2,2","92,8","31,9","41,3","285,8","0"],
    [32861,"2017-10-30T15:00:00","66","17","57,1","5,3","59,7","29,4","54,7","105,5","0"],
    [32862,"2017-10-30T16:00:00","72","37","70,9","4,6","47,8","28,6","57,9","90,6","0"],
    [32863,"2017-10-30T17:00:00","38","12","67,7","3,8","11,3","29,3","53,7","106,8","0"],
    [32864,"2017-10-30T18:00:00","66","21","27","1,8","74,9","28,8","55","5,6","0"],
    [32865,"2017-10-30T19:00:00","74","24","19,7","2,1","152,8","27,7","58,2","0","0"],
    [32866,"2017-10-30T20:00:00","35","6","27,6","4,6","192,2","25,2","65,2","0","0"],
    [32867,"2017-10-30T21:00:00","28","4","28,9","4,4","182,2","24,5","67,2","0","0"],
    [32868,"2017-10-30T22:00:00","17","6","25,3","2,1","180,2","24,2","68,4","0","0"],
    [32869,"2017-10-30T23:00:00","32","4","22,4","2,2","122,3","24","70","0","0"],
    [32870,"2017-10-31T00:00:00","23","4","22,7","1","96","23,4","72,7","0","0"],
    [32871,"2017-10-31T01:00:00","40","7","21","2,6","65,1","23,1","74,2","0","0"],
    [32872,"2017-10-31T02:00:00","53","6","19,4","1,4","90,2","22,8","75","0","0"],
    [32873,"2017-10-31T03:00:00","38","6","18,2","0,6","229,5","22,7","75","0","0"],
    [32874,"2017-10-31T04:00:00","38","7","17,1","1,4","179,6","22,6","75,5","0","0"],
    [32875,"2017-10-31T05:00:00","41","16","15,3","0,9","186,7","22,5","76,8","0","0"],
    [32876,"2017-10-31T06:00:00","69","17","15","1,9","128,2","22,6","76,8","0","0"],
    [32877,"2017-10-31T07:00:00","67","18","15,2","1,7","95,7","22,8","77,2","13,8","0"],
    [32878,"2017-10-31T08:00:00","60","16","15,2","1,1","136,3","23,3","75,8","25,8","0"],
    [32879,"2017-10-31T09:00:00","72","20","21,4","1,7","338,1","25","68,5","108,3","0"],
    [32880,"2017-10-31T10:00:00","54","18","35,4","1,6","81,3","27,4","57,8","256,9","0"],
    [32881,"2017-10-31T11:00:00","40","14","54,7","2,5","122,2","29,5","50,3","374,9","0"],
    [32882,"2017-10-31T12:00:00","43","18","77,3","0,7","57,2","30,6","46,8","322,2","0"],
    [32883,"2017-10-31T13:00:00","40","10","81,3","1,5","51,1","33","38,9","443,7","0"],
    [32884,"2017-10-31T14:00:00","35","11","87,2","2,4","29,8","32,9","37,6","321,2","0"],
    [32885,"2017-10-31T15:00:00","35","9","80,2","3,4","78,2","33,3","37,9","295,4","0"],
    [32886,"2017-10-31T16:00:00","41","9","81","3,7","74,5","32,9","38,5","151,5","0"],
    [32887,"2017-10-31T17:00:00","68","24","86,1","4,3","64,2","31,7","41,9","52,9","0"],
    [32888,"2017-10-31T18:00:00","92","30","55,8","1,6","136,6","30,6","46,2","0","0"],
    [32889,"2017-10-31T19:00:00","78","22","28,7","2,2","246,2","29,5","49","0","0"],
    [32890,"2017-10-31T20:00:00","37","6","22,5","4,2","277,9","28,8","50,7","0","0"],
    [32891,"2017-10-31T21:00:00","60","8","19,1","0,7","178,7","27,9","56,5","0","0"],
    [32892,"2017-10-31T22:00:00","64","18","17","3","68,1","26,1","66,6","0","0"],
    [32893,"2017-10-31T23:00:00","51","23","17,7","1,8","9,5","25,9","65,4","0","0"],
    [32894,"2017-11-01T00:00:00","63","19","17,1","2,1","149,9","25,4","66,9","0","0"],
    [32895,"2017-11-01T01:00:00","81","24","14,9","1,8","205,6","24,7","69,8","0","0"],
    [32896,"2017-11-01T02:00:00","85","25","15,7","1,5","147,3","25","70,2","0","0"],
    [32897,"2017-11-01T03:00:00","71","23","15,2","1,4","122,6","24,1","73,5","0","0"],
    [32898,"2017-11-01T04:00:00","71","25","15,2","2,2","150,9","24,2","72,4","0","0"],
    [32899,"2017-11-01T05:00:00","79","25","14,7","1,5","121,1","23,6","74,3","0","0"],
    [32900,"2017-11-01T06:00:00","80","28","14,7","0,9","187,3","23,7","72,1","0","0"],
    [32901,"2017-11-01T07:00:00","115","39","16,2","2,8","79,8","24","70,7","33,8","0"],
    [32902,"2017-11-01T08:00:00","56","23","20,5","0,3","338","25,5","64,6","72,5","0"],
    [32903,"2017-11-01T09:00:00","70","18","33,4","1,2","215,6","28,1","54,6","180,9","0"],
    [32904,"2017-11-01T10:00:00","40","7","45,5","1,9","85,1","30,4","50,2","315,3","0"],
    [32905,"2017-11-01T11:00:00","40","7","66","2,4","103","31,7","46,2","363,8","0"],
    [32906,"2017-11-01T12:00:00","ND","ND","85,8","1,7","131,6","33,4","40,8","398,4","0"],
    [32907,"2017-11-01T13:00:00","47","14","97,3","2,9","137,9","34,1","38,7","434,5","0"],
    [32908,"2017-11-01T14:00:00","45","15","102,6","2,6","115,4","34,6","37,4","271,9","0"],
    [32909,"2017-11-01T15:00:00","72","32","94,8","3,1","10,1","33,4","40,2","106,3","0"],
    [32910,"2017-11-01T16:00:00","54","12","77,3","3,5","24,6","33,6","39,2","93,2","0"],
    [32911,"2017-11-01T17:00:00","37","6","32,9","4,2","314,4","31,5","44,1","22,4","0"],
    [32912,"2017-11-01T18:00:00","49","16","23,6","2,5","348,6","30,3","47,7","5,7","0"],
    [32913,"2017-11-01T19:00:00","40","4","22,5","1,9","306,3","29,3","48,1","0","0"],
    [32914,"2017-11-01T20:00:00","53","5","18,6","2,6","127,4","27,9","56,8","0","0"],
    [32915,"2017-11-01T21:00:00","53","14","30,9","3,4","221,7","27,3","65,4","0","0"],
    [32916,"2017-11-01T22:00:00","29","7","37,4","5,6","207,6","25,7","68,5","0","0"],
    [32917,"2017-11-01T23:00:00","24","8","32,6","4,6","167,4","25,1","70,1","0","0"],
    [32918,"2017-11-02T00:00:00","5","ND","37,3","4,2","187,4","24,3","73,4","0","0,25"],
    [32919,"2017-11-02T01:00:00","27","ND","32,6","2,7","125,8","23,7","76,4","0","1,27"],
    [32920,"2017-11-02T02:00:00","7","1","38,9","1,4","228,5","23,4","75,2","0","0"],
    [32921,"2017-11-02T03:00:00","ND","ND","ND","ND","ND","ND","ND","ND","ND"],
    [32922,"2017-11-02T04:00:00","37","1","27,6","3,2","104,4","23,2","76,9","0","0"],
    [32923,"2017-11-02T05:00:00","47","8","25","1,1","220,7","23,3","75,7","0","0"],
    [32924,"2017-11-02T06:00:00","49","19","19,2","2,1","151,2","23,2","76,2","0","0"],
    [32925,"2017-11-02T07:00:00","47","7","19,4","1,8","234,7","23,4","75,5","39,9","0"],
    [32926,"2017-11-02T08:00:00","61","21","27,1","2,1","90,9","25,6","65,7","136,6","0"],
    [32927,"2017-11-02T09:00:00","28","8","40,2","1,1","155,5","28,3","54,1","239","0"],
    [32928,"2017-11-02T10:00:00","32","6","59","1,8","227,1","29,8","46,8","337,4","0"],
    [32929,"2017-11-02T11:00:00","25","4","71,4","1,5","147,9","31,9","38,8","362,7","0"],
    [32930,"2017-11-02T12:00:00","21","1","79,5","1,4","44,6","33,6","35,7","396,2","0"],
    [32931,"2017-11-02T13:00:00","38","10","104,2","2,8","33,7","34,4","35,4","386,9","0"],
    [32932,"2017-11-02T14:00:00","41","10","100,5","4,4","40,3","34,5","36,4","327","0"],
    [32933,"2017-11-02T15:00:00","28","7","76,9","5,3","26,8","33,9","39,1","237,7","0"],
    [32934,"2017-11-02T16:00:00","25","4","61","1,8","356,8","33,2","38,6","74,4","0"],
    [32935,"2017-11-02T17:00:00","29","3","44,1","7,6","290,6","30","44,7","10,5","0"],
    [32936,"2017-11-02T18:00:00","24","2","45,8","6,7","290,8","29,4","44,3","0","0"],
    [32937,"2017-11-02T19:00:00","22","ND","43,1","5","294,3","28,7","47,2","0","0"],
    [32938,"2017-11-02T20:00:00","63","21","24,3","3,3","128,7","27,7","55,2","0","0"],
    [32939,"2017-11-02T21:00:00","60","12","22,2","2","96,3","26,9","60,7","0","0"],
    [32940,"2017-11-02T22:00:00","42","13","29,3","0,9","18,4","26,5","61,5","0","0"],
    [32941,"2017-11-02T23:00:00","41","12","26,8","0,7","144,1","27","59","0","0"],
    [32942,"2017-11-03T00:00:00","44","15","20,5","1,5","125,4","25,6","69,6","0","0,51"],
    [32943,"2017-11-03T01:00:00","41","14","24","2,1","173,6","25,2","70,7","0","0"],
    [32944,"2017-11-03T02:00:00","28","9","28,2","2,7","210,1","24,7","73,3","0","0"],
    [32945,"2017-11-03T03:00:00","25","6","28,7","2","189,2","24,7","72,6","0","0"],
    [32946,"2017-11-03T04:00:00","32","1","20,3","1,4","192,2","24,1","76,7","0","0"],
    [32947,"2017-11-03T05:00:00","44","11","18,5","2,1","91","24","77,4","0","0"],
    [32948,"2017-11-03T06:00:00","82","20","18,7","2,7","32,6","24","77,6","0","0"],
    [32949,"2017-11-03T07:00:00","71","16","19,1","2,6","355,2","24,3","74,8","8,8","0"],
    [32950,"2017-11-03T08:00:00","52","9","22,5","1,6","22,4","25,3","68,4","55,3","0"],
    [32951,"2017-11-03T09:00:00","44","13","27,7","4,9","90,6","26,4","65,2","186,8","0"],
    [32952,"2017-11-03T10:00:00","57","11","42,1","3,8","94,1","29","54,7","309,1","0"],
    [32953,"2017-11-03T11:00:00","44","10","58,9","2,2","71,3","30,3","48,8","236,1","0"],
    [32954,"2017-11-03T12:00:00","44","10","79,8","1,6","149,6","32","42,2","273,8","0"],
    [32955,"2017-11-03T13:00:00","37","12","83,2","3,3","93,1","32,1","42,3","272,2","0"],
    [32956,"2017-11-03T14:00:00","57","11","89,4","3,3","136,4","33,2","39,2","255,4","0"],
    [32957,"2017-11-03T15:00:00","49","18","100,7","0,6","107,9","31,8","42,7","82","0"],
    [32958,"2017-11-03T16:00:00","ND","40","76,4","2,7","308,2","31,3","42,6","76,3","0"],
    [32959,"2017-11-03T17:00:00","41","8","43,5","5,1","7,6","28,4","54,4","8,9","0"],
    [32960,"2017-11-03T18:00:00","31","12","26,5","2,3","38,9","26,9","63","0","0"],
    [32961,"2017-11-03T19:00:00","36","9","26,6","2","49,5","25,7","67,2","0","0,25"],
    [32962,"2017-11-03T20:00:00","45","9","27,2","2,2","85,6","25","69,4","0","0,25"],
    [32963,"2017-11-03T21:00:00","17","6","27,6","0,9","261,3","24,8","71","0","0"],
    [32964,"2017-11-03T22:00:00","32","3","28,2","2,8","192,8","24,3","74,8","0","0,25"],
    [32965,"2017-11-03T23:00:00","30","6","27,1","2,4","161,4","24,3","75,4","0","0"],
    [32966,"2017-11-04T00:00:00","22","6","22,6","1,8","142,4","23,8","79,7","0","25,4"],
    [32967,"2017-11-04T01:00:00","5","2","25,9","2,7","135,7","23,4","80,6","0","6,6"],
    [32968,"2017-11-04T02:00:00","8","1","27,3","2,8","136,8","23,1","80,7","0","8,38"],
    [32969,"2017-11-04T03:00:00","14","ND","28,6","2,3","175,6","22,9","80,7","0","0,25"],
    [32970,"2017-11-04T04:00:00","7","ND","29,8","1,9","299,3","22,7","80,5","0","4,32"],
    [32971,"2017-11-04T05:00:00","20","1","23,2","1,2","105,4","22,9","80,5","0","0"],
    [32972,"2017-11-04T06:00:00","21","3","20,7","1,7","170,4","22,9","80,1","0","0,25"],
    [32973,"2017-11-04T07:00:00","46","20","21,7","1,8","170,1","23,2","78,5","6,4","0"],
    [32974,"2017-11-04T08:00:00","23","18","22,3","1,4","142,5","23,7","76,5","27","0"],
    [32975,"2017-11-04T09:00:00","42","5","25,9","1,5","154,4","24,7","72,1","71,4","0"],
    [32976,"2017-11-04T10:00:00","21","7","38,1","2,2","185","26,8","63,7","207,5","0"],
    [32977,"2017-11-04T11:00:00","27","6","51,4","1,6","164,2","27,9","57,2","214,3","0"],
    [32978,"2017-11-04T12:00:00","30","9","57,4","2","137,1","29,9","50,5","259,8","0"],
    [32979,"2017-11-04T13:00:00","29","8","68,4","2,7","123,1","30,9","45,2","328","0"],
    [32980,"2017-11-04T14:00:00","30","7","67,7","2,2","80,2","30,7","44","140,2","0"],
    [32981,"2017-11-04T15:00:00","36","17","78,5","3,1","350,7","28,3","59,2","134,1","0,76"],
    [32982,"2017-11-04T16:00:00","38","17","101,2","2,7","19,5","31","48","222","0"],
    [32983,"2017-11-04T17:00:00","45","15","79,9","4,1","1,8","30","49,8","64,2","0"],
    [32984,"2017-11-04T18:00:00","18","5","28,5","3,2","302,5","28,7","49,8","0","0"],
    [32985,"2017-11-04T19:00:00","30","6","19,9","2,1","304,3","27,7","55","0","0"],
    [32986,"2017-11-04T20:00:00","50","16","20,8","2,6","33,2","26,8","60,5","0","0"],
    [32987,"2017-11-04T21:00:00","63","22","20","1,2","56,3","26,2","62,4","0","0"],
    [32988,"2017-11-04T22:00:00","38","6","20,3","1,5","255,8","26,2","60,9","0","0"],
    [32989,"2017-11-04T23:00:00","17","4","21,3","3,6","194,2","24,8","71,7","0","0,25"],
    [32990,"2017-11-05T00:00:00","31","1","23,7","2,9","165,8","24,2","74,2","0","0"],
    [32991,"2017-11-05T01:00:00","20","ND","26","3","187,1","23,6","76,7","0","0"],
    [32992,"2017-11-05T02:00:00","ND","ND","ND","ND","ND","ND","ND","ND","ND"],
    [32993,"2017-11-05T03:00:00","31","ND","22,2","1,9","148,9","23,7","75,1","0","0"],
    [32994,"2017-11-05T04:00:00","20","1","20,5","1,5","105,9","23,5","77","0","0,25"],
    [32995,"2017-11-05T05:00:00","27","4","18,3","0,5","90,3","23","79,6","0","0"],
    [32996,"2017-11-05T06:00:00","25","8","18,3","0,6","313,3","23,3","78,2","0","0"],
    [32997,"2017-11-05T07:00:00","40","6","18,5","2,4","89,7","23,1","78,9","14,3","0"],
    [32998,"2017-11-05T08:00:00","46","9","22,1","1,1","300,9","24,2","74","53,9","0"],
    [32999,"2017-11-05T09:00:00","35","13","29,8","2,9","339,5","25,5","68,3","110,4","0"],
    [33000,"2017-11-05T10:00:00","37","13","44,1","1,7","120,3","28,1","57,1","275,9","0"],
    [33001,"2017-11-05T11:00:00","ND","ND","ND","ND","ND","ND","ND","ND","ND"],
    [33002,"2017-11-05T12:00:00","ND","ND","ND","ND","ND","ND","ND","ND","ND"],
    [33003,"2017-11-05T13:00:00","ND","ND","ND","ND","ND","ND","ND","ND","ND"],
    [33004,"2017-11-05T14:00:00","ND","ND","ND","ND","ND","ND","ND","ND","ND"],
    [33005,"2017-11-05T15:00:00","ND","ND","ND","ND","ND","ND","ND","ND","ND"],
    [33006,"2017-11-05T16:00:00","ND","ND","ND","ND","ND","ND","ND","ND","ND"],
    [33007,"2017-11-05T17:00:00","ND","ND","ND","ND","ND","ND","ND","ND","ND"],
    [33008,"2017-11-05T18:00:00","ND","ND","ND","ND","ND","ND","ND","ND","ND"],
    [33009,"2017-11-05T19:00:00","ND","ND","ND","ND","ND","ND","ND","ND","ND"],
    [33010,"2017-11-05T20:00:00","ND","ND","ND","ND","ND","ND","ND","ND","ND"],
    [33011,"2017-11-05T21:00:00","ND","ND","ND","ND","ND","ND","ND","ND","ND"],
    [33012,"2017-11-05T22:00:00","ND","ND","ND","ND","ND","ND","ND","ND","ND"],
    [33013,"2017-11-05T23:00:00","ND","ND","ND","ND","ND","ND","ND","ND","ND"],
    [33014,"2017-11-06T00:00:00","ND","ND","ND","ND","ND","ND","ND","ND","ND"],
    [33015,"2017-11-06T01:00:00","ND","ND","ND","ND","ND","ND","ND","ND","ND"],
    [33016,"2017-11-06T02:00:00","ND","ND","ND","ND","ND","ND","ND","ND","ND"],
    [33017,"2017-11-06T03:00:00","ND","ND","ND","ND","ND","ND","ND","ND","ND"],
    [33018,"2017-11-06T04:00:00","ND","ND","ND","ND","ND","ND","ND","ND","ND"],
    [33019,"2017-11-06T05:00:00","ND","ND","ND","ND","ND","ND","ND","ND","ND"],
    [33020,"2017-11-06T06:00:00","ND","ND","ND","ND","ND","ND","ND","ND","ND"],
    [33021,"2017-11-06T07:00:00","ND","ND","ND","ND","ND","ND","ND","ND","ND"],
    [33022,"2017-11-06T08:00:00","ND","ND","ND","ND","ND","ND","ND","ND","ND"],
    [33023,"2017-11-06T09:00:00","ND","ND","ND","ND","ND","ND","ND","ND","ND"],
    [33024,"2017-11-06T10:00:00","ND","ND","ND","ND","ND","ND","ND","ND","ND"],
    [33025,"2017-11-06T11:00:00","ND","ND","ND","ND","ND","ND","ND","ND","ND"],
    [33026,"2017-11-06T12:00:00","ND","ND","ND","ND","ND","ND","ND","ND","ND"],
    [33027,"2017-11-06T13:00:00","ND","ND","ND","ND","ND","ND","ND","ND","ND"],
    [33028,"2017-11-06T14:00:00","ND","ND","ND","ND","ND","ND","ND","ND","ND"],
    [33029,"2017-11-06T15:00:00","ND","ND","ND","ND","ND","ND","ND","ND","ND"],
    [33030,"2017-11-06T16:00:00","ND","ND","ND","ND","ND","ND","ND","ND","ND"],
    [33031,"2017-11-06T17:00:00","ND","ND","ND","ND","ND","ND","ND","ND","ND"],
    [33032,"2017-11-06T18:00:00","ND","ND","ND","ND","ND","ND","ND","ND","ND"],
    [33033,"2017-11-06T19:00:00","ND","ND","ND","ND","ND","ND","ND","ND","ND"],
    [33034,"2017-11-06T20:00:00","ND","ND","ND","ND","ND","ND","ND","ND","ND"],
    [33035,"2017-11-06T21:00:00","ND","ND","ND","ND","ND","ND","ND","ND","ND"],
    [33036,"2017-11-06T22:00:00","ND","ND","ND","ND","ND","ND","ND","ND","ND"],
    [33037,"2017-11-06T23:00:00","ND","ND","ND","ND","ND","ND","ND","ND","ND"],
    [33038,"2017-11-07T00:00:00","ND","ND","ND","ND","ND","ND","ND","ND","ND"],
    [33039,"2017-11-07T01:00:00","ND","ND","ND","ND","ND","ND","ND","ND","ND"],
    [33040,"2017-11-07T02:00:00","ND","ND","ND","ND","ND","ND","ND","ND","ND"],
    [33041,"2017-11-07T03:00:00","ND","ND","ND","ND","ND","ND","ND","ND","ND"],
    [33042,"2017-11-07T04:00:00","ND","ND","ND","ND","ND","ND","ND","ND","ND"],
    [33043,"2017-11-07T05:00:00","ND","ND","ND","ND","ND","ND","ND","ND","ND"],
    [33044,"2017-11-07T06:00:00","ND","ND","ND","ND","ND","ND","ND","ND","ND"],
    [33045,"2017-11-07T07:00:00","ND","ND","ND","ND","ND","ND","ND","ND","ND"],
    [33046,"2017-11-07T08:00:00","ND","ND","ND","ND","ND","ND","ND","ND","ND"],
    [33047,"2017-11-07T09:00:00","45","9","34,7","1,1","73,5","29,6","53,7","188,1","0"],
    [33048,"2017-11-07T10:00:00","54","12","43,4","3,3","93,3","30,7","49,3","290,6","0"],
    [33049,"2017-11-07T11:00:00","39","6","63,5","2,1","56,4","31,9","45,2","297,2","0"],
    [33050,"2017-11-07T12:00:00","ND","ND","ND","ND","ND","ND","ND","ND","ND"],
    [33051,"2017-11-07T13:00:00","31","8","103,3","2,6","333,4","34,6","37,3","424,5","0"],
    [33052,"2017-11-07T14:00:00","31","14","91,4","3,9","3,6","33,9","38,9","201,9","0"],
    [33053,"2017-11-07T15:00:00","24","7","75,3","2,5","318,2","33,6","37,8","132,4","0"],
    [33054,"2017-11-07T16:00:00","40","3","42,4","9,3","283,7","32,4","39,8","125,6","0"],
    [33055,"2017-11-07T17:00:00","30","2","39,6","8,4","299,8","31,6","40,1","104,1","0"],
    [33056,"2017-11-07T18:00:00","33","ND","29,7","7,6","321,7","30","44,6","10,3","0"],
    [33057,"2017-11-07T19:00:00","46","1","29,3","7","7,2","29,2","47,9","0","1,02"],
    [33058,"2017-11-07T20:00:00","27","7","26,8","4,1","51,4","25,9","66,3","0","0,76"],
    [33059,"2017-11-07T21:00:00","25","8","21,2","1,8","57,3","25,6","67,6","0","0"],
    [33060,"2017-11-07T22:00:00","44","8","20,1","1,9","102,6","25,3","67,6","0","0"],
    [33061,"2017-11-07T23:00:00","42","4","21","2","0,2","25,6","64,2","0","0"],
    [33062,"2017-11-08T00:00:00","47","12","19,7","1,1","21,5","25,2","66,2","0","0"],
    [33063,"2017-11-08T01:00:00","26","6","20,7","1,8","320,8","24,8","68,8","0","0"],
    [33064,"2017-11-08T02:00:00","32","9","18,1","0,7","251,3","25,3","67,6","0","0"],
    [33065,"2017-11-08T03:00:00","40","9","17,8","2,1","137","24,3","73,4","0","0"],
    [33066,"2017-11-08T04:00:00","48","7","17,8","1,2","139,7","23,8","75,3","0","0"],
    [33067,"2017-11-08T05:00:00","ND","ND","ND","ND","ND","ND","ND","ND","ND"],
    [33068,"2017-11-08T06:00:00","ND","ND","ND","ND","ND","ND","ND","ND","ND"],
    [33069,"2017-11-08T07:00:00","85","29","19,1","2,6","100","25,2","70,5","42,5","0"],
    [33070,"2017-11-08T08:00:00","71","28","22","3,9","80,2","26,1","68,6","148,7","0"],
    [33071,"2017-11-08T09:00:00","49","9","34,7","2,2","137,2","29","54,7","270,6","0"],
    [33072,"2017-11-08T10:00:00","41","7","51,8","1","267,3","30,1","49,2","241,8","0"],
    [33073,"2017-11-08T11:00:00","28","4","72,9","2,6","27,2","31,9","43,1","345,3","0"],
    [33074,"2017-11-08T12:00:00","23","6","85,2","3,5","352,4","33,1","39,9","412,1","0"],
    [33075,"2017-11-08T13:00:00","32","5","80,8","3,2","10,9","33,5","37,9","313,2","0"],
    [33076,"2017-11-08T14:00:00","ND","ND","ND","ND","ND","ND","ND","ND","ND"],
    [33077,"2017-11-08T15:00:00","ND","ND","ND","ND","ND","ND","ND","ND","ND"],
    [33078,"2017-11-08T16:00:00","24","ND","41,5","7,3","297,4","31,6","40,3","87,4","0"],
    [33079,"2017-11-08T17:00:00","32","1","35,6","7,8","297,9","29,7","45,7","21,4","0"],
    [33080,"2017-11-08T18:00:00","17","3","33,7","6,7","290,2","28,3","51","0","0"],
    [33081,"2017-11-08T19:00:00","61","22","19,4","1,9","131,2","28,4","51,9","0","0"],
    [33082,"2017-11-08T20:00:00","52","5","29,5","4,2","241,7","26,9","61,3","0","0"],
    [33083,"2017-11-08T21:00:00","39","11","27,7","4,2","221,6","26,4","67","0","0"],
    [33084,"2017-11-08T22:00:00","42","11","28,2","2,7","178,7","25,9","68,6","0","0"],
    [33085,"2017-11-08T23:00:00","37","8","32","2,8","211,6","25,6","69,7","0","0"],
    [33086,"2017-11-09T00:00:00","33","8","26,9","2,6","181,8","25,8","68,4","0","0"],
    [33087,"2017-11-09T01:00:00","19","4","26,9","2,3","236,2","25,3","70,8","0","0"],
    [33088,"2017-11-09T02:00:00","24","5","24,5","1","158,3","25,8","67,7","0","0"],
    [33089,"2017-11-09T03:00:00","18","2","27,2","1,8","172,9","25,5","69,4","0","0"],
    [33090,"2017-11-09T04:00:00","27","ND","24,3","1,9","178,5","25","73,1","0","0"],
    [33091,"2017-11-09T05:00:00","23","3","21,9","1,5","184,1","25","71,9","0","0"],
    [33092,"2017-11-09T06:00:00","54","6","18,5","1,9","128,1","25","73,4","0","0"],
    [33093,"2017-11-09T07:00:00","56","17","20,9","1,3","204,3","25,6","69,4","26,1","0"],
    [33094,"2017-11-09T08:00:00","44","12","27","1,9","194,6","27,2","62,3","112,3","0"],
    [33095,"2017-11-09T09:00:00","48","7","31,3","3,3","168,9","28,4","58,6","180,2","0"],
    [33096,"2017-11-09T10:00:00","33","4","46,2","1,9","204,2","28,9","54","140,9","0"],
    [33097,"2017-11-09T11:00:00","ND","ND","ND","ND","ND","ND","ND","ND","ND"],
    [33098,"2017-11-09T12:00:00","ND","ND","ND","ND","ND","ND","ND","ND","ND"],
    [33099,"2017-11-09T13:00:00","41","17","135,3","1,7","34,5","33,1","38,7","386,5","0"],
    [33100,"2017-11-09T14:00:00","47","11","129,2","3","57,5","33,7","36,7","305,2","0"],
    [33101,"2017-11-09T15:00:00","52","10","122,1","3,2","356,3","32,3","41,1","62,1","0"],
    [33102,"2017-11-09T16:00:00","41","5","62,1","5,9","284,6","32","39,9","109,4","0"],
    [33103,"2017-11-09T17:00:00","30","2","46,9","7,5","284,9","31","41,1","60,7","0"],
    [33104,"2017-11-09T18:00:00","37","4","36,3","6,5","292,2","29,7","43,7","6,8","0"],
    [33105,"2017-11-09T19:00:00","36","4","31,8","6,3","294,3","28,8","46,8","0","0"],
    [33106,"2017-11-09T20:00:00","ND","ND","ND","ND","ND","ND","ND","ND","ND"],
    [33107,"2017-11-09T21:00:00","ND","ND","ND","ND","ND","ND","ND","ND","ND"],
    [33108,"2017-11-09T22:00:00","ND","ND","ND","ND","ND","ND","ND","ND","ND"],
    [33109,"2017-11-09T23:00:00","ND","ND","ND","ND","ND","ND","ND","ND","ND"],
    [33110,"2017-11-10T00:00:00","ND","ND","ND","ND","ND","ND","ND","ND","ND"],
    [33111,"2017-11-10T01:00:00","ND","ND","ND","ND","ND","ND","ND","ND","ND"],
    [33112,"2017-11-10T02:00:00","11","ND","38,7","3,2","229,4","24,2","75,4","0","0"],
    [33113,"2017-11-10T03:00:00","18","2","35,4","2,1","133,9","24,4","74,7","0","0"],
    [33114,"2017-11-10T04:00:00","23","2","30,3","1,8","102,3","24,4","75,5","0","0"],
    [33115,"2017-11-10T05:00:00","22","1","25,9","1,5","141,9","24,4","76,1","0","0"],
    [33116,"2017-11-10T06:00:00","33","6","22,6","1,6","140,1","24,3","76,3","0","0"],
    [33117,"2017-11-10T07:00:00","36","7","21,8","1,8","163,4","24,6","74,9","26,8","0"],
    [33118,"2017-11-10T08:00:00","41","17","30","1,6","173,1","26,4","67,9","139,6","0"],
    [33119,"2017-11-10T09:00:00","ND","ND","ND","ND","ND","ND","ND","ND","ND"],
    [33120,"2017-11-10T10:00:00","ND","ND","ND","ND","ND","ND","ND","ND","ND"],
    [33121,"2017-11-10T11:00:00","ND","ND","ND","ND","ND","ND","ND","ND","ND"],
    [33122,"2017-11-10T12:00:00","ND","ND","ND","ND","ND","ND","ND","ND","ND"],
    [33123,"2017-11-10T13:00:00","22","10","91,5","0,9","62,8","32,9","39,9","234,7","0"],
    [33124,"2017-11-10T14:00:00","48","16","146,2","2,8","344,3","33,4","38,6","269,7","0"],
    [33125,"2017-11-10T15:00:00","56","17","123,4","4,8","343","33,3","39,2","191,8","0"],
    [33126,"2017-11-10T16:00:00","18","3","63,3","5,2","331,1","33,1","38,4","188,2","0"],
    [33127,"2017-11-10T17:00:00","25","3","54","5,5","307,6","32,4","38,3","85,7","0"],
    [33128,"2017-11-10T18:00:00","20","1","38,3","5,1","290,1","31","41","14,1","0"],
    [33129,"2017-11-10T19:00:00","39","9","24,6","3,6","313,4","29,7","44,8","0","0"],
    [33130,"2017-11-10T20:00:00","ND","ND","ND","ND","ND","ND","ND","ND","ND"],
    [33131,"2017-11-10T21:00:00","ND","ND","ND","ND","ND","ND","ND","ND","ND"],
    [33132,"2017-11-10T22:00:00","48","7","20,2","2,2","91,5","26,6","60,7","0","0"],
    [33133,"2017-11-10T23:00:00","27","1","21,4","2,1","94,6","26,1","63,7","0","0"],
    [33134,"2017-11-11T00:00:00","27","1","22,9","2","159,6","25,8","65,8","0","0"],
    [33135,"2017-11-11T01:00:00","30","15","20,9","1,4","241,6","25,5","66,9","0","0"],
    [33136,"2017-11-11T02:00:00","44","20","18,7","1,4","135,3","25,7","66,9","0","0"],
    [33137,"2017-11-11T03:00:00","39","7","21,4","2,1","117,4","25,2","68,2","0","0"],
    [33138,"2017-11-11T04:00:00","43","8","19,9","2,3","119,5","25","69,8","0","0"],
    [33139,"2017-11-11T05:00:00","46","11","19,9","1,3","281,7","25,3","67,7","0","0"],
    [33140,"2017-11-11T06:00:00","72","24","19,1","0,6","84,1","25,3","69","0","0"],
    [33141,"2017-11-11T07:00:00","103","41","20,3","1,4","117,8","25,4","69,9","12,3","0"],
    [33142,"2017-11-11T08:00:00","70","15","19,4","1,5","191","25,8","69,1","27,7","0,25"],
    [33143,"2017-11-11T09:00:00","45","11","30,1","1,5","189,8","27,3","63,7","148,8","0"],
    [33144,"2017-11-11T10:00:00","39","11","47,8","0,9","177,6","29,3","55,7","256,8","0"],
    [33145,"2017-11-11T11:00:00","38","10","81,3","1,3","281,6","31,7","46","341","0"],
    [33146,"2017-11-11T12:00:00","49","18","109,5","1,2","16,6","32","45,3","248,6","0"],
    [33147,"2017-11-11T13:00:00","66","26","123,9","2,3","94,1","33,2","41,1","350,9","0"],
    [33148,"2017-11-11T14:00:00","35","10","123,4","2,2","19","34,4","35,8","365,2","0"],
    [33149,"2017-11-11T15:00:00","39","14","109,4","3,1","42,4","35","35,3","260,4","0"],
    [33150,"2017-11-11T16:00:00","35","8","96,9","4,9","356,2","33,8","38,6","145,5","0"],
    [33151,"2017-11-11T17:00:00","ND","ND","ND","ND","ND","ND","ND","ND","ND"],
    [33152,"2017-11-11T18:00:00","ND","ND","ND","ND","ND","ND","ND","ND","ND"],
    [33153,"2017-11-11T19:00:00","31","4","27,4","3,6","300,8","30","47,6","0","0"],
    [33154,"2017-11-11T20:00:00","46","16","25,2","1,2","343,4","29,1","51,9","0","0"],
    [33155,"2017-11-11T21:00:00","80","11","21,4","3,7","91,7","27,6","60,8","0","0"],
    [33156,"2017-11-11T22:00:00","48","8","21,4","3,9","90,4","27,1","62,3","0","0"],
    [33157,"2017-11-11T23:00:00","39","12","21,7","1,4","12,4","26,9","62,2","0","0"],
    [33158,"2017-11-12T00:00:00","30","8","21,4","2,8","112,1","26,9","61,7","0","0"],
    [33159,"2017-11-12T01:00:00","ND","ND","ND","ND","ND","ND","ND","ND","ND"],
    [33160,"2017-11-12T02:00:00","ND","ND","ND","ND","ND","ND","ND","ND","ND"],
    [33161,"2017-11-12T03:00:00","ND","ND","ND","ND","ND","ND","ND","ND","ND"],
    [33162,"2017-11-12T04:00:00","ND","ND","ND","ND","ND","ND","ND","ND","ND"],
    [33163,"2017-11-12T05:00:00","ND","ND","ND","ND","ND","ND","ND","ND","ND"],
    [33164,"2017-11-12T06:00:00","ND","ND","ND","ND","ND","ND","ND","ND","ND"],
    [33165,"2017-11-12T07:00:00","ND","ND","ND","ND","ND","ND","ND","ND","ND"],
    [33166,"2017-11-12T08:00:00","ND","ND","ND","ND","ND","ND","ND","ND","ND"],
    [33167,"2017-11-12T09:00:00","ND","ND","ND","ND","ND","ND","ND","ND","ND"],
    [33168,"2017-11-12T10:00:00","ND","ND","ND","ND","ND","ND","ND","ND","ND"],
    [33169,"2017-11-12T11:00:00","ND","ND","ND","ND","ND","ND","ND","ND","ND"],
    [33170,"2017-11-12T12:00:00","ND","ND","ND","ND","ND","ND","ND","ND","ND"],
    [33171,"2017-11-12T13:00:00","ND","ND","ND","ND","ND","ND","ND","ND","ND"],
    [33172,"2017-11-12T14:00:00","ND","ND","ND","ND","ND","ND","ND","ND","ND"],
    [33173,"2017-11-12T15:00:00","ND","ND","ND","ND","ND","ND","ND","ND","ND"],
    [33174,"2017-11-12T16:00:00","ND","ND","ND","ND","ND","ND","ND","ND","ND"],
    [33175,"2017-11-12T17:00:00","ND","ND","ND","ND","ND","ND","ND","ND","ND"],
    [33176,"2017-11-12T18:00:00","ND","ND","ND","ND","ND","ND","ND","ND","ND"],
    [33177,"2017-11-12T19:00:00","ND","ND","ND","ND","ND","ND","ND","ND","ND"],
    [33178,"2017-11-12T20:00:00","ND","ND","ND","ND","ND","ND","ND","ND","ND"],
    [33179,"2017-11-12T21:00:00","ND","ND","ND","ND","ND","ND","ND","ND","ND"],
    [33180,"2017-11-12T22:00:00","ND","ND","ND","ND","ND","ND","ND","ND","ND"],
    [33181,"2017-11-12T23:00:00","ND","ND","ND","ND","ND","ND","ND","ND","ND"],
    [33182,"2017-11-13T00:00:00","ND","ND","ND","ND","ND","ND","ND","ND","ND"],
    [33183,"2017-11-13T01:00:00","ND","ND","ND","ND","ND","ND","ND","ND","ND"],
    [33184,"2017-11-13T02:00:00","ND","ND","ND","ND","ND","ND","ND","ND","ND"],
    [33185,"2017-11-13T03:00:00","ND","ND","ND","ND","ND","ND","ND","ND","ND"],
    [33186,"2017-11-13T04:00:00","ND","ND","ND","ND","ND","ND","ND","ND","ND"],
    [33187,"2017-11-13T05:00:00","ND","ND","ND","ND","ND","ND","ND","ND","ND"],
    [33188,"2017-11-13T06:00:00","ND","ND","ND","ND","ND","ND","ND","ND","ND"],
    [33189,"2017-11-13T07:00:00","ND","ND","ND","ND","ND","ND","ND","ND","ND"],
    [33190,"2017-11-13T08:00:00","ND","ND","ND","ND","ND","ND","ND","ND","ND"],
    [33191,"2017-11-13T09:00:00","ND","ND","ND","ND","ND","ND","ND","ND","ND"],
    [33192,"2017-11-13T10:00:00","ND","ND","ND","ND","ND","ND","ND","ND","ND"],
    [33193,"2017-11-13T11:00:00","ND","ND","ND","ND","ND","ND","ND","ND","ND"],
    [33194,"2017-11-13T12:00:00","ND","ND","ND","ND","ND","ND","ND","ND","ND"],
    [33195,"2017-11-13T13:00:00","ND","ND","ND","ND","ND","ND","ND","ND","ND"],
    [33196,"2017-11-13T14:00:00","ND","ND","ND","ND","ND","ND","ND","ND","ND"],
    [33197,"2017-11-13T15:00:00","ND","ND","ND","ND","ND","ND","ND","ND","ND"],
    [33198,"2017-11-13T16:00:00","ND","ND","ND","ND","ND","ND","ND","ND","ND"],
    [33199,"2017-11-13T17:00:00","ND","ND","ND","ND","ND","ND","ND","ND","ND"],
    [33200,"2017-11-13T18:00:00","ND","ND","ND","ND","ND","ND","ND","ND","ND"],
    [33201,"2017-11-13T19:00:00","ND","ND","ND","ND","ND","ND","ND","ND","ND"],
    [33202,"2017-11-13T20:00:00","ND","ND","ND","ND","ND","ND","ND","ND","ND"],
    [33203,"2017-11-13T21:00:00","ND","ND","ND","ND","ND","ND","ND","ND","ND"],
    [33204,"2017-11-13T22:00:00","ND","ND","ND","ND","ND","ND","ND","ND","ND"],
    [33205,"2017-11-13T23:00:00","ND","ND","ND","ND","ND","ND","ND","ND","ND"],
    [33206,"2017-11-14T00:00:00","ND","ND","ND","ND","ND","ND","ND","ND","ND"],
    [33207,"2017-11-14T01:00:00","ND","ND","ND","ND","ND","ND","ND","ND","ND"],
    [33208,"2017-11-14T02:00:00","ND","ND","ND","ND","ND","ND","ND","ND","ND"],
    [33209,"2017-11-14T03:00:00","ND","ND","ND","ND","ND","ND","ND","ND","ND"],
    [33210,"2017-11-14T04:00:00","ND","ND","ND","ND","ND","ND","ND","ND","ND"],
    [33211,"2017-11-14T05:00:00","ND","ND","ND","ND","ND","ND","ND","ND","ND"],
    [33212,"2017-11-14T06:00:00","ND","ND","ND","ND","ND","ND","ND","ND","ND"],
    [33213,"2017-11-14T07:00:00","ND","ND","ND","ND","ND","ND","ND","ND","ND"],
    [33214,"2017-11-14T08:00:00","ND","ND","ND","ND","ND","ND","ND","ND","ND"],
    [33215,"2017-11-14T09:00:00","ND","ND","ND","ND","ND","ND","ND","ND","ND"],
    [33216,"2017-11-14T10:00:00","ND","ND","ND","ND","ND","ND","ND","ND","ND"],
    [33217,"2017-11-14T11:00:00","ND","ND","ND","ND","ND","ND","ND","ND","ND"],
    [33218,"2017-11-14T12:00:00","ND","ND","ND","ND","ND","ND","ND","ND","ND"],
    [33219,"2017-11-14T13:00:00","ND","ND","ND","ND","ND","ND","ND","ND","ND"],
    [33220,"2017-11-14T14:00:00","ND","ND","ND","ND","ND","ND","ND","ND","ND"],
    [33221,"2017-11-14T15:00:00","ND","ND","ND","ND","ND","ND","ND","ND","ND"],
    [33222,"2017-11-14T16:00:00","ND","ND","ND","ND","ND","ND","ND","ND","ND"],
    [33223,"2017-11-14T17:00:00","ND","ND","ND","ND","ND","ND","ND","ND","ND"],
    [33224,"2017-11-14T18:00:00","ND","ND","ND","ND","ND","ND","ND","ND","ND"],
    [33225,"2017-11-14T19:00:00","ND","ND","ND","ND","ND","ND","ND","ND","ND"],
    [33226,"2017-11-14T20:00:00","ND","ND","ND","ND","ND","ND","ND","ND","ND"],
    [33227,"2017-11-14T21:00:00","ND","ND","ND","ND","ND","ND","ND","ND","ND"],
    [33228,"2017-11-14T22:00:00","ND","ND","ND","ND","ND","ND","ND","ND","ND"],
    [33229,"2017-11-14T23:00:00","ND","ND","ND","ND","ND","ND","ND","ND","ND"],
    [33230,"2017-11-15T00:00:00","ND","ND","ND","ND","ND","ND","ND","ND","ND"],
    [33231,"2017-11-15T01:00:00","ND","ND","ND","ND","ND","ND","ND","ND","ND"],
    [33232,"2017-11-15T02:00:00","ND","ND","ND","ND","ND","ND","ND","ND","ND"],
    [33233,"2017-11-15T03:00:00","ND","ND","ND","ND","ND","ND","ND","ND","ND"],
    [33234,"2017-11-15T04:00:00","ND","ND","ND","ND","ND","ND","ND","ND","ND"],
    [33235,"2017-11-15T05:00:00","ND","ND","ND","ND","ND","ND","ND","ND","ND"],
    [33236,"2017-11-15T06:00:00","ND","ND","ND","ND","ND","ND","ND","ND","ND"],
    [33237,"2017-11-15T07:00:00","ND","ND","ND","ND","ND","ND","ND","ND","ND"],
    [33238,"2017-11-15T08:00:00","ND","ND","ND","ND","ND","ND","ND","ND","ND"],
    [33239,"2017-11-15T09:00:00","ND","ND","ND","ND","ND","ND","ND","ND","ND"],
    [33240,"2017-11-15T10:00:00","ND","ND","ND","ND","ND","ND","ND","ND","ND"],
    [33241,"2017-11-15T11:00:00","ND","ND","ND","ND","ND","ND","ND","ND","ND"],
    [33242,"2017-11-15T12:00:00","ND","ND","ND","ND","ND","ND","ND","ND","ND"],
    [33243,"2017-11-15T13:00:00","ND","ND","ND","ND","ND","ND","ND","ND","ND"],
    [33244,"2017-11-15T14:00:00","ND","ND","ND","ND","ND","ND","ND","ND","ND"],
    [33245,"2017-11-15T15:00:00","ND","ND","ND","ND","ND","ND","ND","ND","ND"],
    [33246,"2017-11-15T16:00:00","ND","ND","ND","ND","ND","ND","ND","ND","ND"],
    [33247,"2017-11-15T17:00:00","ND","ND","ND","ND","ND","ND","ND","ND","ND"],
    [33248,"2017-11-15T18:00:00","ND","ND","ND","ND","ND","ND","ND","ND","ND"],
    [33249,"2017-11-15T19:00:00","ND","ND","ND","ND","ND","ND","ND","ND","ND"],
    [33250,"2017-11-15T20:00:00","ND","ND","ND","ND","ND","ND","ND","ND","ND"],
    [33251,"2017-11-15T21:00:00","ND","ND","ND","ND","ND","ND","ND","ND","ND"],
    [33252,"2017-11-15T22:00:00","ND","ND","ND","ND","ND","ND","ND","ND","ND"],
    [33253,"2017-11-15T23:00:00","ND","ND","ND","ND","ND","ND","ND","ND","ND"],
    [33254,"2017-11-16T00:00:00","ND","ND","ND","ND","ND","ND","ND","ND","ND"],
    [33255,"2017-11-16T01:00:00","ND","ND","ND","ND","ND","ND","ND","ND","ND"],
    [33256,"2017-11-16T02:00:00","ND","ND","ND","ND","ND","ND","ND","ND","ND"],
    [33257,"2017-11-16T03:00:00","ND","ND","ND","ND","ND","ND","ND","ND","ND"],
    [33258,"2017-11-16T04:00:00","ND","ND","ND","ND","ND","ND","ND","ND","ND"],
    [33259,"2017-11-16T05:00:00","ND","ND","ND","ND","ND","ND","ND","ND","ND"],
    [33260,"2017-11-16T06:00:00","ND","ND","ND","ND","ND","ND","ND","ND","ND"],
    [33261,"2017-11-16T07:00:00","ND","ND","ND","ND","ND","ND","ND","ND","ND"],
    [33262,"2017-11-16T08:00:00","ND","ND","ND","ND","ND","ND","ND","ND","ND"],
    [33263,"2017-11-16T09:00:00","ND","ND","ND","ND","ND","ND","ND","ND","ND"],
    [33264,"2017-11-16T10:00:00","ND","ND","ND","ND","ND","ND","ND","ND","ND"],
    [33265,"2017-11-16T11:00:00","ND","ND","ND","ND","ND","ND","ND","ND","ND"],
    [33266,"2017-11-16T12:00:00","ND","ND","ND","ND","ND","ND","ND","ND","ND"],
    [33267,"2017-11-16T13:00:00","ND","ND","ND","ND","ND","ND","ND","ND","ND"],
    [33268,"2017-11-16T14:00:00","ND","ND","ND","ND","ND","ND","ND","ND","ND"],
    [33269,"2017-11-16T15:00:00","ND","ND","ND","ND","ND","ND","ND","ND","ND"],
    [33270,"2017-11-16T16:00:00","ND","ND","ND","ND","ND","ND","ND","ND","ND"],
    [33271,"2017-11-16T17:00:00","ND","ND","ND","ND","ND","ND","ND","ND","ND"],
    [33272,"2017-11-16T18:00:00","ND","ND","ND","ND","ND","ND","ND","ND","ND"],
    [33273,"2017-11-16T19:00:00","ND","ND","ND","ND","ND","ND","ND","ND","ND"],
    [33274,"2017-11-16T20:00:00","ND","ND","ND","ND","ND","ND","ND","ND","ND"],
    [33275,"2017-11-16T21:00:00","ND","ND","ND","ND","ND","ND","ND","ND","ND"],
    [33276,"2017-11-16T22:00:00","ND","ND","ND","ND","ND","ND","ND","ND","ND"],
    [33277,"2017-11-16T23:00:00","ND","ND","ND","ND","ND","ND","ND","ND","ND"],
    [33278,"2017-11-17T00:00:00","ND","ND","ND","ND","ND","ND","ND","ND","ND"],
    [33279,"2017-11-17T01:00:00","ND","ND","ND","ND","ND","ND","ND","ND","ND"],
    [33280,"2017-11-17T02:00:00","ND","ND","ND","ND","ND","ND","ND","ND","ND"],
    [33281,"2017-11-17T03:00:00","ND","ND","ND","ND","ND","ND","ND","ND","ND"],
    [33282,"2017-11-17T04:00:00","ND","ND","ND","ND","ND","ND","ND","ND","ND"],
    [33283,"2017-11-17T05:00:00","ND","ND","ND","ND","ND","ND","ND","ND","ND"],
    [33284,"2017-11-17T06:00:00","ND","ND","ND","ND","ND","ND","ND","ND","ND"],
    [33285,"2017-11-17T07:00:00","ND","ND","ND","ND","ND","ND","ND","ND","ND"],
    [33286,"2017-11-17T08:00:00","ND","ND","ND","ND","ND","ND","ND","ND","ND"],
    [33287,"2017-11-17T09:00:00","ND","ND","ND","ND","ND","ND","ND","ND","ND"],
    [33288,"2017-11-17T10:00:00","ND","ND","ND","ND","ND","ND","ND","ND","ND"],
    [33289,"2017-11-17T11:00:00","ND","ND","ND","ND","ND","ND","ND","ND","ND"],
    [33290,"2017-11-17T12:00:00","ND","ND","ND","ND","ND","ND","ND","ND","ND"],
    [33291,"2017-11-17T13:00:00","ND","ND","ND","ND","ND","ND","ND","ND","ND"],
    [33292,"2017-11-17T14:00:00","ND","ND","ND","ND","ND","ND","ND","ND","ND"],
    [33293,"2017-11-17T15:00:00","ND","ND","ND","ND","ND","ND","ND","ND","ND"],
    [33294,"2017-11-17T16:00:00","ND","ND","ND","ND","ND","ND","ND","ND","ND"],
    [33295,"2017-11-17T17:00:00","ND","ND","ND","ND","ND","ND","ND","ND","ND"],
    [33296,"2017-11-17T18:00:00","ND","ND","ND","ND","ND","ND","ND","ND","ND"],
    [33297,"2017-11-17T19:00:00","ND","ND","ND","ND","ND","ND","ND","ND","ND"],
    [33298,"2017-11-17T20:00:00","ND","ND","ND","ND","ND","ND","ND","ND","ND"],
    [33299,"2017-11-17T21:00:00","ND","ND","ND","ND","ND","ND","ND","ND","ND"],
    [33300,"2017-11-17T22:00:00","ND","ND","ND","ND","ND","ND","ND","ND","ND"],
    [33301,"2017-11-17T23:00:00","ND","ND","ND","ND","ND","ND","ND","ND","ND"],
    [33302,"2017-11-18T00:00:00","ND","ND","ND","ND","ND","ND","ND","ND","ND"],
    [33303,"2017-11-18T01:00:00","ND","ND","ND","ND","ND","ND","ND","ND","ND"],
    [33304,"2017-11-18T02:00:00","ND","ND","ND","ND","ND","ND","ND","ND","ND"],
    [33305,"2017-11-18T03:00:00","ND","ND","ND","ND","ND","ND","ND","ND","ND"],
    [33306,"2017-11-18T04:00:00","ND","ND","ND","ND","ND","ND","ND","ND","ND"],
    [33307,"2017-11-18T05:00:00","ND","ND","ND","ND","ND","ND","ND","ND","ND"],
    [33308,"2017-11-18T06:00:00","ND","ND","ND","ND","ND","ND","ND","ND","ND"],
    [33309,"2017-11-18T07:00:00","ND","ND","ND","ND","ND","ND","ND","ND","ND"],
    [33310,"2017-11-18T08:00:00","ND","ND","ND","ND","ND","ND","ND","ND","ND"],
    [33311,"2017-11-18T09:00:00","ND","ND","ND","ND","ND","ND","ND","ND","ND"],
    [33312,"2017-11-18T10:00:00","ND","ND","ND","ND","ND","ND","ND","ND","ND"],
    [33313,"2017-11-18T11:00:00","ND","ND","ND","ND","ND","ND","ND","ND","ND"],
    [33314,"2017-11-18T12:00:00","ND","ND","ND","ND","ND","ND","ND","ND","ND"],
    [33315,"2017-11-18T13:00:00","ND","ND","ND","ND","ND","ND","ND","ND","ND"],
    [33316,"2017-11-18T14:00:00","ND","ND","ND","ND","ND","ND","ND","ND","ND"],
    [33317,"2017-11-18T15:00:00","ND","ND","ND","ND","ND","ND","ND","ND","ND"],
    [33318,"2017-11-18T16:00:00","ND","ND","ND","ND","ND","ND","ND","ND","ND"],
    [33319,"2017-11-18T17:00:00","ND","ND","ND","ND","ND","ND","ND","ND","ND"],
    [33320,"2017-11-18T18:00:00","ND","ND","ND","ND","ND","ND","ND","ND","ND"],
    [33321,"2017-11-18T19:00:00","ND","ND","ND","ND","ND","ND","ND","ND","ND"],
    [33322,"2017-11-18T20:00:00","ND","ND","ND","ND","ND","ND","ND","ND","ND"],
    [33323,"2017-11-18T21:00:00","ND","ND","ND","ND","ND","ND","ND","ND","ND"],
    [33324,"2017-11-18T22:00:00","ND","ND","ND","ND","ND","ND","ND","ND","ND"],
    [33325,"2017-11-18T23:00:00","ND","ND","ND","ND","ND","ND","ND","ND","ND"],
    [33326,"2017-11-19T00:00:00","ND","ND","ND","ND","ND","ND","ND","ND","ND"],
    [33327,"2017-11-19T01:00:00","ND","ND","ND","ND","ND","ND","ND","ND","ND"],
    [33328,"2017-11-19T02:00:00","ND","ND","ND","ND","ND","ND","ND","ND","ND"],
    [33329,"2017-11-19T03:00:00","ND","ND","ND","ND","ND","ND","ND","ND","ND"],
    [33330,"2017-11-19T04:00:00","ND","ND","ND","ND","ND","ND","ND","ND","ND"],
    [33331,"2017-11-19T05:00:00","ND","ND","ND","ND","ND","ND","ND","ND","ND"],
    [33332,"2017-11-19T06:00:00","ND","ND","ND","ND","ND","ND","ND","ND","ND"],
    [33333,"2017-11-19T07:00:00","ND","ND","ND","ND","ND","ND","ND","ND","ND"],
    [33334,"2017-11-19T08:00:00","ND","ND","ND","ND","ND","ND","ND","ND","ND"],
    [33335,"2017-11-19T09:00:00","ND","ND","ND","ND","ND","ND","ND","ND","ND"],
    [33336,"2017-11-19T10:00:00","ND","ND","ND","ND","ND","ND","ND","ND","ND"],
    [33337,"2017-11-19T11:00:00","ND","ND","ND","ND","ND","ND","ND","ND","ND"],
    [33338,"2017-11-19T12:00:00","ND","ND","ND","ND","ND","ND","ND","ND","ND"],
    [33339,"2017-11-19T13:00:00","ND","ND","ND","ND","ND","ND","ND","ND","ND"],
    [33340,"2017-11-19T14:00:00","ND","ND","ND","ND","ND","ND","ND","ND","ND"],
    [33341,"2017-11-19T15:00:00","ND","ND","ND","ND","ND","ND","ND","ND","ND"],
    [33342,"2017-11-19T16:00:00","ND","ND","ND","ND","ND","ND","ND","ND","ND"],
    [33343,"2017-11-19T17:00:00","ND","ND","ND","ND","ND","ND","ND","ND","ND"],
    [33344,"2017-11-19T18:00:00","ND","ND","ND","ND","ND","ND","ND","ND","ND"],
    [33345,"2017-11-19T19:00:00","ND","ND","ND","ND","ND","ND","ND","ND","ND"],
    [33346,"2017-11-19T20:00:00","ND","ND","ND","ND","ND","ND","ND","ND","ND"],
    [33347,"2017-11-19T21:00:00","ND","ND","ND","ND","ND","ND","ND","ND","ND"],
    [33348,"2017-11-19T22:00:00","ND","ND","ND","ND","ND","ND","ND","ND","ND"],
    [33349,"2017-11-19T23:00:00","ND","ND","ND","ND","ND","ND","ND","ND","ND"],
    [33350,"2017-11-20T00:00:00","ND","ND","ND","ND","ND","ND","ND","ND","ND"],
    [33351,"2017-11-20T01:00:00","ND","ND","ND","ND","ND","ND","ND","ND","ND"],
    [33352,"2017-11-20T02:00:00","ND","ND","ND","ND","ND","ND","ND","ND","ND"],
    [33353,"2017-11-20T03:00:00","ND","ND","ND","ND","ND","ND","ND","ND","ND"],
    [33354,"2017-11-20T04:00:00","ND","ND","ND","ND","ND","ND","ND","ND","ND"],
    [33355,"2017-11-20T05:00:00","ND","ND","ND","ND","ND","ND","ND","ND","ND"],
    [33356,"2017-11-20T06:00:00","ND","ND","ND","ND","ND","ND","ND","ND","ND"],
    [33357,"2017-11-20T07:00:00","ND","ND","ND","ND","ND","ND","ND","ND","ND"],
    [33358,"2017-11-20T08:00:00","ND","ND","ND","ND","ND","ND","ND","ND","ND"],
    [33359,"2017-11-20T09:00:00","ND","ND","ND","ND","ND","ND","ND","ND","ND"],
    [33360,"2017-11-20T10:00:00","ND","ND","ND","ND","ND","ND","ND","ND","ND"],
    [33361,"2017-11-20T11:00:00","ND","ND","ND","ND","ND","ND","ND","ND","ND"],
    [33362,"2017-11-20T12:00:00","ND","ND","ND","ND","ND","ND","ND","ND","ND"],
    [33363,"2017-11-20T13:00:00","ND","ND","ND","ND","ND","ND","ND","ND","ND"],
    [33364,"2017-11-20T14:00:00","ND","ND","ND","ND","ND","ND","ND","ND","ND"],
    [33365,"2017-11-20T15:00:00","ND","ND","ND","ND","ND","ND","ND","ND","ND"],
    [33366,"2017-11-20T16:00:00","ND","ND","ND","ND","ND","ND","ND","ND","ND"],
    [33367,"2017-11-20T17:00:00","ND","ND","ND","ND","ND","ND","ND","ND","ND"],
    [33368,"2017-11-20T18:00:00","ND","ND","ND","ND","ND","ND","ND","ND","ND"],
    [33369,"2017-11-20T19:00:00","ND","ND","ND","ND","ND","ND","ND","ND","ND"],
    [33370,"2017-11-20T20:00:00","ND","ND","ND","ND","ND","ND","ND","ND","ND"],
    [33371,"2017-11-20T21:00:00","ND","ND","ND","ND","ND","ND","ND","ND","ND"],
    [33372,"2017-11-20T22:00:00","ND","ND","ND","ND","ND","ND","ND","ND","ND"],
    [33373,"2017-11-20T23:00:00","ND","ND","ND","ND","ND","ND","ND","ND","ND"],
    [33374,"2017-11-21T00:00:00","ND","ND","ND","ND","ND","ND","ND","ND","ND"],
    [33375,"2017-11-21T01:00:00","ND","ND","ND","ND","ND","ND","ND","ND","ND"],
    [33376,"2017-11-21T02:00:00","ND","ND","ND","ND","ND","ND","ND","ND","ND"],
    [33377,"2017-11-21T03:00:00","ND","ND","ND","ND","ND","ND","ND","ND","ND"],
    [33378,"2017-11-21T04:00:00","ND","ND","ND","ND","ND","ND","ND","ND","ND"],
    [33379,"2017-11-21T05:00:00","ND","ND","ND","ND","ND","ND","ND","ND","ND"],
    [33380,"2017-11-21T06:00:00","ND","ND","ND","ND","ND","ND","ND","ND","ND"],
    [33381,"2017-11-21T07:00:00","ND","ND","ND","ND","ND","ND","ND","ND","ND"],
    [33382,"2017-11-21T08:00:00","ND","ND","ND","ND","ND","ND","ND","ND","ND"],
    [33383,"2017-11-21T09:00:00","ND","ND","ND","ND","ND","ND","ND","ND","ND"],
    [33384,"2017-11-21T10:00:00","ND","ND","ND","ND","ND","ND","ND","ND","ND"],
    [33385,"2017-11-21T11:00:00","ND","ND","ND","ND","ND","ND","ND","ND","ND"],
    [33386,"2017-11-21T12:00:00","ND","ND","ND","ND","ND","ND","ND","ND","ND"],
    [33387,"2017-11-21T13:00:00","ND","ND","ND","ND","ND","ND","ND","ND","ND"],
    [33388,"2017-11-21T14:00:00","ND","ND","ND","ND","ND","ND","ND","ND","ND"],
    [33389,"2017-11-21T15:00:00","ND","ND","ND","ND","ND","ND","ND","ND","ND"],
    [33390,"2017-11-21T16:00:00","ND","ND","ND","ND","ND","ND","ND","ND","ND"],
    [33391,"2017-11-21T17:00:00","ND","ND","ND","ND","ND","ND","ND","ND","ND"],
    [33392,"2017-11-21T18:00:00","ND","ND","ND","ND","ND","ND","ND","ND","ND"],
    [33393,"2017-11-21T19:00:00","ND","ND","ND","ND","ND","ND","ND","ND","ND"],
    [33394,"2017-11-21T20:00:00","ND","ND","ND","ND","ND","ND","ND","ND","ND"],
    [33395,"2017-11-21T21:00:00","ND","ND","ND","ND","ND","ND","ND","ND","ND"],
    [33396,"2017-11-21T22:00:00","ND","ND","ND","ND","ND","ND","ND","ND","ND"],
    [33397,"2017-11-21T23:00:00","ND","ND","ND","ND","ND","ND","ND","ND","ND"],
    [33398,"2017-11-22T00:00:00","ND","ND","ND","ND","ND","ND","ND","ND","ND"],
    [33399,"2017-11-22T01:00:00","ND","ND","ND","ND","ND","ND","ND","ND","ND"],
    [33400,"2017-11-22T02:00:00","ND","ND","ND","ND","ND","ND","ND","ND","ND"],
    [33401,"2017-11-22T03:00:00","ND","ND","ND","ND","ND","ND","ND","ND","ND"],
    [33402,"2017-11-22T04:00:00","ND","ND","ND","ND","ND","ND","ND","ND","ND"],
    [33403,"2017-11-22T05:00:00","ND","ND","ND","ND","ND","ND","ND","ND","ND"],
    [33404,"2017-11-22T06:00:00","ND","ND","ND","ND","ND","ND","ND","ND","ND"],
    [33405,"2017-11-22T07:00:00","ND","ND","ND","ND","ND","ND","ND","ND","ND"],
    [33406,"2017-11-22T08:00:00","ND","ND","ND","ND","ND","ND","ND","ND","ND"],
    [33407,"2017-11-22T09:00:00","ND","ND","ND","ND","ND","ND","ND","ND","ND"],
    [33408,"2017-11-22T10:00:00","ND","ND","ND","ND","ND","ND","ND","ND","ND"],
    [33409,"2017-11-22T11:00:00","ND","ND","ND","ND","ND","ND","ND","ND","ND"],
    [33410,"2017-11-22T12:00:00","ND","ND","ND","ND","ND","ND","ND","ND","ND"],
    [33411,"2017-11-22T13:00:00","ND","ND","ND","ND","ND","ND","ND","ND","ND"],
    [33412,"2017-11-22T14:00:00","ND","ND","ND","ND","ND","ND","ND","ND","ND"],
    [33413,"2017-11-22T15:00:00","ND","ND","ND","ND","ND","ND","ND","ND","ND"],
    [33414,"2017-11-22T16:00:00","ND","ND","ND","ND","ND","ND","ND","ND","ND"],
    [33415,"2017-11-22T17:00:00","ND","ND","ND","ND","ND","ND","ND","ND","ND"],
    [33416,"2017-11-22T18:00:00","ND","ND","ND","ND","ND","ND","ND","ND","ND"],
    [33417,"2017-11-22T19:00:00","ND","ND","ND","ND","ND","ND","ND","ND","ND"],
    [33418,"2017-11-22T20:00:00","ND","ND","ND","ND","ND","ND","ND","ND","ND"],
    [33419,"2017-11-22T21:00:00","ND","ND","ND","ND","ND","ND","ND","ND","ND"],
    [33420,"2017-11-22T22:00:00","ND","ND","ND","ND","ND","ND","ND","ND","ND"],
    [33421,"2017-11-22T23:00:00","ND","ND","ND","ND","ND","ND","ND","ND","ND"],
    [33422,"2017-11-23T00:00:00","ND","ND","ND","ND","ND","ND","ND","ND","ND"],
    [33423,"2017-11-23T01:00:00","ND","ND","ND","ND","ND","ND","ND","ND","ND"],
    [33424,"2017-11-23T02:00:00","ND","ND","ND","ND","ND","ND","ND","ND","ND"],
    [33425,"2017-11-23T03:00:00","ND","ND","ND","ND","ND","ND","ND","ND","ND"],
    [33426,"2017-11-23T04:00:00","ND","ND","ND","ND","ND","ND","ND","ND","ND"],
    [33427,"2017-11-23T05:00:00","ND","ND","ND","ND","ND","ND","ND","ND","ND"],
    [33428,"2017-11-23T06:00:00","ND","ND","ND","ND","ND","ND","ND","ND","ND"],
    [33429,"2017-11-23T07:00:00","ND","ND","ND","ND","ND","ND","ND","ND","ND"],
    [33430,"2017-11-23T08:00:00","ND","ND","ND","ND","ND","ND","ND","ND","ND"],
    [33431,"2017-11-23T09:00:00","ND","ND","ND","ND","ND","ND","ND","ND","ND"],
    [33432,"2017-11-23T10:00:00","ND","ND","ND","ND","ND","ND","ND","ND","ND"],
    [33433,"2017-11-23T11:00:00","ND","ND","ND","ND","ND","ND","ND","ND","ND"],
    [33434,"2017-11-23T12:00:00","ND","ND","ND","ND","ND","ND","ND","ND","ND"],
    [33435,"2017-11-23T13:00:00","ND","ND","ND","ND","ND","ND","ND","ND","ND"],
    [33436,"2017-11-23T14:00:00","ND","ND","ND","ND","ND","ND","ND","ND","ND"],
    [33437,"2017-11-23T15:00:00","ND","ND","ND","ND","ND","ND","ND","ND","ND"],
    [33438,"2017-11-23T16:00:00","ND","ND","ND","ND","ND","ND","ND","ND","ND"],
    [33439,"2017-11-23T17:00:00","ND","ND","ND","ND","ND","ND","ND","ND","ND"],
    [33440,"2017-11-23T18:00:00","ND","ND","ND","ND","ND","ND","ND","ND","ND"],
    [33441,"2017-11-23T19:00:00","ND","ND","ND","ND","ND","ND","ND","ND","ND"],
    [33442,"2017-11-23T20:00:00","ND","ND","ND","ND","ND","ND","ND","ND","ND"],
    [33443,"2017-11-23T21:00:00","ND","ND","ND","ND","ND","ND","ND","ND","ND"],
    [33444,"2017-11-23T22:00:00","ND","ND","ND","ND","ND","ND","ND","ND","ND"],
    [33445,"2017-11-23T23:00:00","ND","ND","ND","ND","ND","ND","ND","ND","ND"],
    [33446,"2017-11-24T00:00:00","ND","ND","ND","ND","ND","ND","ND","ND","ND"],
    [33447,"2017-11-24T01:00:00","ND","ND","ND","ND","ND","ND","ND","ND","ND"],
    [33448,"2017-11-24T02:00:00","ND","ND","ND","ND","ND","ND","ND","ND","ND"],
    [33449,"2017-11-24T03:00:00","ND","ND","ND","ND","ND","ND","ND","ND","ND"],
    [33450,"2017-11-24T04:00:00","ND","ND","ND","ND","ND","ND","ND","ND","ND"],
    [33451,"2017-11-24T05:00:00","ND","ND","ND","ND","ND","ND","ND","ND","ND"],
    [33452,"2017-11-24T06:00:00","ND","ND","ND","ND","ND","ND","ND","ND","ND"],
    [33453,"2017-11-24T07:00:00","ND","ND","ND","ND","ND","ND","ND","ND","ND"],
    [33454,"2017-11-24T08:00:00","ND","ND","ND","ND","ND","ND","ND","ND","ND"],
    [33455,"2017-11-24T09:00:00","ND","ND","ND","ND","ND","ND","ND","ND","ND"],
    [33456,"2017-11-24T10:00:00","ND","ND","ND","ND","ND","ND","ND","ND","ND"],
    [33457,"2017-11-24T11:00:00","ND","ND","ND","ND","ND","ND","ND","ND","ND"],
    [33458,"2017-11-24T12:00:00","ND","ND","ND","ND","ND","ND","ND","ND","ND"],
    [33459,"2017-11-24T13:00:00","ND","ND","ND","ND","ND","ND","ND","ND","ND"],
    [33460,"2017-11-24T14:00:00","ND","ND","ND","ND","ND","ND","ND","ND","ND"],
    [33461,"2017-11-24T15:00:00","ND","ND","ND","ND","ND","ND","ND","ND","ND"],
    [33462,"2017-11-24T16:00:00","ND","ND","ND","ND","ND","ND","ND","ND","ND"],
    [33463,"2017-11-24T17:00:00","ND","ND","ND","ND","ND","ND","ND","ND","ND"],
    [33464,"2017-11-24T18:00:00","ND","ND","ND","ND","ND","ND","ND","ND","ND"],
    [33465,"2017-11-24T19:00:00","ND","ND","ND","ND","ND","ND","ND","ND","ND"],
    [33466,"2017-11-24T20:00:00","ND","ND","ND","ND","ND","ND","ND","ND","ND"],
    [33467,"2017-11-24T21:00:00","ND","ND","ND","ND","ND","ND","ND","ND","ND"],
    [33468,"2017-11-24T22:00:00","ND","ND","ND","ND","ND","ND","ND","ND","ND"],
    [33469,"2017-11-24T23:00:00","ND","ND","ND","ND","ND","ND","ND","ND","ND"],
    [33470,"2017-11-25T00:00:00","ND","ND","ND","ND","ND","ND","ND","ND","ND"],
    [33471,"2017-11-25T01:00:00","ND","ND","ND","ND","ND","ND","ND","ND","ND"],
    [33472,"2017-11-25T02:00:00","ND","ND","ND","ND","ND","ND","ND","ND","ND"],
    [33473,"2017-11-25T03:00:00","ND","ND","ND","ND","ND","ND","ND","ND","ND"],
    [33474,"2017-11-25T04:00:00","ND","ND","ND","ND","ND","ND","ND","ND","ND"],
    [33475,"2017-11-25T05:00:00","ND","ND","ND","ND","ND","ND","ND","ND","ND"],
    [33476,"2017-11-25T06:00:00","ND","ND","ND","ND","ND","ND","ND","ND","ND"],
    [33477,"2017-11-25T07:00:00","ND","ND","ND","ND","ND","ND","ND","ND","ND"],
    [33478,"2017-11-25T08:00:00","ND","ND","ND","ND","ND","ND","ND","ND","ND"],
    [33479,"2017-11-25T09:00:00","ND","ND","ND","ND","ND","ND","ND","ND","ND"],
    [33480,"2017-11-25T10:00:00","ND","ND","ND","ND","ND","ND","ND","ND","ND"],
    [33481,"2017-11-25T11:00:00","ND","ND","ND","ND","ND","ND","ND","ND","ND"],
    [33482,"2017-11-25T12:00:00","ND","ND","ND","ND","ND","ND","ND","ND","ND"],
    [33483,"2017-11-25T13:00:00","ND","ND","ND","ND","ND","ND","ND","ND","ND"],
    [33484,"2017-11-25T14:00:00","ND","ND","ND","ND","ND","ND","ND","ND","ND"],
    [33485,"2017-11-25T15:00:00","ND","ND","ND","ND","ND","ND","ND","ND","ND"],
    [33486,"2017-11-25T16:00:00","ND","ND","ND","ND","ND","ND","ND","ND","ND"],
    [33487,"2017-11-25T17:00:00","ND","ND","ND","ND","ND","ND","ND","ND","ND"],
    [33488,"2017-11-25T18:00:00","ND","ND","ND","ND","ND","ND","ND","ND","ND"],
    [33489,"2017-11-25T19:00:00","ND","ND","ND","ND","ND","ND","ND","ND","ND"],
    [33490,"2017-11-25T20:00:00","ND","ND","ND","ND","ND","ND","ND","ND","ND"],
    [33491,"2017-11-25T21:00:00","ND","ND","ND","ND","ND","ND","ND","ND","ND"],
    [33492,"2017-11-25T22:00:00","ND","ND","ND","ND","ND","ND","ND","ND","ND"],
    [33493,"2017-11-25T23:00:00","ND","ND","ND","ND","ND","ND","ND","ND","ND"],
    [33494,"2017-11-26T00:00:00","ND","ND","ND","ND","ND","ND","ND","ND","ND"],
    [33495,"2017-11-26T01:00:00","ND","ND","ND","ND","ND","ND","ND","ND","ND"],
    [33496,"2017-11-26T02:00:00","ND","ND","ND","ND","ND","ND","ND","ND","ND"],
    [33497,"2017-11-26T03:00:00","ND","ND","ND","ND","ND","ND","ND","ND","ND"],
    [33498,"2017-11-26T04:00:00","ND","ND","ND","ND","ND","ND","ND","ND","ND"],
    [33499,"2017-11-26T05:00:00","ND","ND","ND","ND","ND","ND","ND","ND","ND"],
    [33500,"2017-11-26T06:00:00","ND","ND","ND","ND","ND","ND","ND","ND","ND"],
    [33501,"2017-11-26T07:00:00","ND","ND","ND","ND","ND","ND","ND","ND","ND"],
    [33502,"2017-11-26T08:00:00","ND","ND","ND","ND","ND","ND","ND","ND","ND"],
    [33503,"2017-11-26T09:00:00","ND","ND","ND","ND","ND","ND","ND","ND","ND"],
    [33504,"2017-11-26T10:00:00","ND","ND","ND","ND","ND","ND","ND","ND","ND"],
    [33505,"2017-11-26T11:00:00","ND","ND","ND","ND","ND","ND","ND","ND","ND"],
    [33506,"2017-11-26T12:00:00","ND","ND","ND","ND","ND","ND","ND","ND","ND"],
    [33507,"2017-11-26T13:00:00","ND","ND","ND","ND","ND","ND","ND","ND","ND"],
    [33508,"2017-11-26T14:00:00","ND","ND","ND","ND","ND","ND","ND","ND","ND"],
    [33509,"2017-11-26T15:00:00","ND","ND","ND","ND","ND","ND","ND","ND","ND"],
    [33510,"2017-11-26T16:00:00","ND","ND","ND","ND","ND","ND","ND","ND","ND"],
    [33511,"2017-11-26T17:00:00","ND","ND","ND","ND","ND","ND","ND","ND","ND"],
    [33512,"2017-11-26T18:00:00","ND","ND","ND","ND","ND","ND","ND","ND","ND"],
    [33513,"2017-11-26T19:00:00","ND","ND","ND","ND","ND","ND","ND","ND","ND"],
    [33514,"2017-11-26T20:00:00","ND","ND","ND","ND","ND","ND","ND","ND","ND"],
    [33515,"2017-11-26T21:00:00","ND","ND","ND","ND","ND","ND","ND","ND","ND"],
    [33516,"2017-11-26T22:00:00","ND","ND","ND","ND","ND","ND","ND","ND","ND"],
    [33517,"2017-11-26T23:00:00","ND","ND","ND","ND","ND","ND","ND","ND","ND"],
    [33518,"2017-11-27T00:00:00","ND","ND","ND","ND","ND","ND","ND","ND","ND"],
    [33519,"2017-11-27T01:00:00","ND","ND","ND","ND","ND","ND","ND","ND","ND"],
    [33520,"2017-11-27T02:00:00","ND","ND","ND","ND","ND","ND","ND","ND","ND"],
    [33521,"2017-11-27T03:00:00","ND","ND","ND","ND","ND","ND","ND","ND","ND"],
    [33522,"2017-11-27T04:00:00","ND","ND","ND","ND","ND","ND","ND","ND","ND"],
    [33523,"2017-11-27T05:00:00","ND","ND","ND","ND","ND","ND","ND","ND","ND"],
    [33524,"2017-11-27T06:00:00","ND","ND","ND","ND","ND","ND","ND","ND","ND"],
    [33525,"2017-11-27T07:00:00","ND","ND","ND","ND","ND","ND","ND","ND","ND"],
    [33526,"2017-11-27T08:00:00","ND","ND","ND","ND","ND","ND","ND","ND","ND"],
    [33527,"2017-11-27T09:00:00","ND","ND","ND","ND","ND","ND","ND","ND","ND"],
    [33528,"2017-11-27T10:00:00","ND","ND","ND","ND","ND","ND","ND","ND","ND"],
    [33529,"2017-11-27T11:00:00","ND","ND","ND","ND","ND","ND","ND","ND","ND"],
    [33530,"2017-11-27T12:00:00","ND","ND","ND","ND","ND","ND","ND","ND","ND"],
    [33531,"2017-11-27T13:00:00","ND","ND","ND","ND","ND","ND","ND","ND","ND"],
    [33532,"2017-11-27T14:00:00","ND","ND","ND","ND","ND","ND","ND","ND","ND"],
    [33533,"2017-11-27T15:00:00","ND","ND","ND","ND","ND","ND","ND","ND","ND"],
    [33534,"2017-11-27T16:00:00","ND","ND","ND","ND","ND","ND","ND","ND","ND"],
    [33535,"2017-11-27T17:00:00","ND","ND","ND","ND","ND","ND","ND","ND","ND"],
    [33536,"2017-11-27T18:00:00","ND","ND","ND","ND","ND","ND","ND","ND","ND"],
    [33537,"2017-11-27T19:00:00","ND","ND","ND","ND","ND","ND","ND","ND","ND"],
    [33538,"2017-11-27T20:00:00","ND","ND","ND","ND","ND","ND","ND","ND","ND"],
    [33539,"2017-11-27T21:00:00","ND","ND","ND","ND","ND","ND","ND","ND","ND"],
    [33540,"2017-11-27T22:00:00","ND","ND","ND","ND","ND","ND","ND","ND","ND"],
    [33541,"2017-11-27T23:00:00","ND","ND","ND","ND","ND","ND","ND","ND","ND"],
    [33542,"2017-11-28T00:00:00","ND","ND","ND","ND","ND","ND","ND","ND","ND"],
    [33543,"2017-11-28T01:00:00","ND","ND","ND","ND","ND","ND","ND","ND","ND"],
    [33544,"2017-11-28T02:00:00","ND","ND","ND","ND","ND","ND","ND","ND","ND"],
    [33545,"2017-11-28T03:00:00","ND","ND","ND","ND","ND","ND","ND","ND","ND"],
    [33546,"2017-11-28T04:00:00","ND","ND","ND","ND","ND","ND","ND","ND","ND"],
    [33547,"2017-11-28T05:00:00","ND","ND","ND","ND","ND","ND","ND","ND","ND"],
    [33548,"2017-11-28T06:00:00","ND","ND","ND","ND","ND","ND","ND","ND","ND"],
    [33549,"2017-11-28T07:00:00","ND","ND","ND","ND","ND","ND","ND","ND","ND"],
    [33550,"2017-11-28T08:00:00","ND","ND","ND","ND","ND","ND","ND","ND","ND"],
    [33551,"2017-11-28T09:00:00","ND","ND","ND","ND","ND","ND","ND","ND","ND"],
    [33552,"2017-11-28T10:00:00","ND","ND","ND","ND","ND","ND","ND","ND","ND"],
    [33553,"2017-11-28T11:00:00","ND","ND","ND","ND","ND","ND","ND","ND","ND"],
    [33554,"2017-11-28T12:00:00","ND","ND","ND","ND","ND","ND","ND","ND","ND"],
    [33555,"2017-11-28T13:00:00","ND","ND","ND","ND","ND","ND","ND","ND","ND"],
    [33556,"2017-11-28T14:00:00","ND","ND","ND","ND","ND","ND","ND","ND","ND"],
    [33557,"2017-11-28T15:00:00","ND","ND","ND","ND","ND","ND","ND","ND","ND"],
    [33558,"2017-11-28T16:00:00","ND","ND","ND","ND","ND","ND","ND","ND","ND"],
    [33559,"2017-11-28T17:00:00","ND","ND","ND","ND","ND","ND","ND","ND","ND"],
    [33560,"2017-11-28T18:00:00","29","ND","ND","ND","ND","ND","ND","ND","ND"],
    [33561,"2017-11-28T19:00:00","40","2","18,7","4,9","301","30,4","46,2","0","0"],
    [33562,"2017-11-28T20:00:00","66","16","14,1","1,8","50,1","30","48,8","0","0"],
    [33563,"2017-11-28T21:00:00","65","15","14,3","3,1","99","28,4","56,8","0","0"],
    [33564,"2017-11-28T22:00:00","49","8","14","3,1","96,1","27,3","61","0","0"],
    [33565,"2017-11-28T23:00:00","39","1","14,4","0,4","220","27,4","60,1","0","0"],
    [33566,"2017-11-29T00:00:00","48","ND","13,3","2,6","192,4","27,6","61,7","0","0"],
    [33567,"2017-11-29T01:00:00","41","ND","14","2,4","96,4","26,4","65,6","0","0"],
    [33568,"2017-11-29T02:00:00","32","ND","14,7","1,8","117,8","26,5","65,4","0","0"],
    [33569,"2017-11-29T03:00:00","29","ND","13,2","1,5","115,6","26,1","67,7","0","0"],
    [33570,"2017-11-29T04:00:00","19","ND","13,6","1,5","175,6","25,9","69,4","0","0"],
    [33571,"2017-11-29T05:00:00","38","8","12,5","1,9","125,6","25,8","70,2","0","0"],
    [33572,"2017-11-29T06:00:00","65","13","12,3","1,1","131,2","25,5","71,1","0","0"],
    [33573,"2017-11-29T07:00:00","85","19","13,1","0,9","135,7","25,7","71","22,3","0"],
    [33574,"2017-11-29T08:00:00","80","18","14,8","1,6","148","27,3","64,3","81,3","0"],
    [33575,"2017-11-29T09:00:00","85","15","22,8","2,4","117,7","28,9","58,7","215,9","0"],
    [33576,"2017-11-29T10:00:00","49","ND","38,7","1,9","191,8","30,7","51,5","246,5","0"],
    [33577,"2017-11-29T11:00:00","42","5","49,2","3,2","94,5","31,6","47,3","291,9","0"],
    [33578,"2017-11-29T12:00:00","63","16","66,1","1,9","118,3","32,9","43,4","307","0"],
    [33579,"2017-11-29T13:00:00","64","16","98,2","2,3","100,3","34,1","39,3","325,7","0"],
    [33580,"2017-11-29T14:00:00","50","15","97,5","3,4","26,7","33,6","40,3","198,1","0"],
    [33581,"2017-11-29T15:00:00","42","7","72","2","325,1","33","40,3","110,1","0"],
    [33582,"2017-11-29T16:00:00","39","4","45,1","4,4","354,5","32,4","41","87,8","0"],
    [33583,"2017-11-29T17:00:00","44","4","34,1","4,5","5,4","31,9","42","80,7","0"],
    [33584,"2017-11-29T18:00:00","50","6","19,4","3,3","2,5","31","44","17,1","0"],
    [33585,"2017-11-29T19:00:00","75","17","13","2,2","4,4","29,7","48,1","0","0"],
    [33586,"2017-11-29T20:00:00","55","15","14,3","3,8","56,8","28,3","54,2","0","0"],
    [33587,"2017-11-29T21:00:00","40","3","14","0,8","25,7","28","55,4","0","0"],
    [33588,"2017-11-29T22:00:00","47","3","15,7","4,4","260","28,3","55","0","0"],
    [33589,"2017-11-29T23:00:00","48","2","13,7","4,6","242,4","27,3","61,2","0","0"],
    [33590,"2017-11-30T00:00:00","30","ND","14,1","2","146,2","26,6","63,2","0","0"],
    [33591,"2017-11-30T01:00:00","35","ND","16,4","2,1","170,7","26,1","66,7","0","0"],
    [33592,"2017-11-30T02:00:00","38","ND","15,9","1,3","23","26","67,2","0","0"],
    [33593,"2017-11-30T03:00:00","40","ND","14,7","2,7","84,6","25,4","70,2","0","0"],
    [33594,"2017-11-30T04:00:00","45","7","12,5","1,7","97,3","25,3","71,7","0","0"],
    [33595,"2017-11-30T05:00:00","63","11","12,1","2,1","103,3","24,9","72,8","0","0"],
    [33596,"2017-11-30T06:00:00","71","12","12,6","1,6","132,9","24,9","71,9","0","0"],
    [33597,"2017-11-30T07:00:00","89","13","13,3","1,3","138,3","25,3","70,2","8,6","0"],
    [33598,"2017-11-30T08:00:00","70","15","13,9","1,2","127,5","26,3","67,2","48,4","0"],
    [33599,"2017-11-30T09:00:00","63","14","18,4","2,2","102,6","27,8","61,6","129,2","0"],
    [33600,"2017-11-30T10:00:00","48","9","29,5","1,4","81,2","29,3","54,7","191,4","0"],
    [33601,"2017-11-30T11:00:00","35","3","44","1,8","111,3","32,1","44,5","382,3","0"],
    [33602,"2017-11-30T12:00:00","18","4","56","2,5","55,1","32,6","41,4","359,7","0"],
    [33603,"2017-11-30T13:00:00","31","7","73,3","2,7","36,4","34,3","36,6","406,1","0"],
    [33604,"2017-11-30T14:00:00","55","5","85,2","3,7","16,7","34,5","36,2","336,5","0"],
    [33605,"2017-11-30T15:00:00","38","7","84,7","2,3","14","34,5","36,1","290,9","0"],
    [33606,"2017-11-30T16:00:00","33","4","47,2","4,4","313,4","33,2","37,2","122,4","0"],
    [33607,"2017-11-30T17:00:00","23","ND","43,8","7","287,8","32,7","37,5","109,9","0"],
    [33608,"2017-11-30T18:00:00","34","ND","30,5","7,1","293,3","30,5","43,5","14,6","0"],
    [33609,"2017-11-30T19:00:00","41","ND","16,3","4,5","313,6","29,5","46,6","0","0"],
    [33610,"2017-11-30T20:00:00","58","21","15,2","2,9","100,1","28,3","53,3","0","0"],
    [33611,"2017-11-30T21:00:00","40","6","15","0,6","144,5","27,8","55,9","0","0"],
    [33612,"2017-11-30T22:00:00","33","6","15,6","2,6","103,9","27,8","56,2","0","0"],
    [33613,"2017-11-30T23:00:00","29","4","15,8","3,9","84,6","27,3","59,2","0","0"],
    [33614,"2017-12-01T00:00:00","26","ND","18,1","3,5","96","26,6","61,4","0","0"],
    [33615,"2017-12-01T01:00:00","5","ND","20,9","2,6","119,5","26,5","61,7","0","0"],
    [33616,"2017-12-01T02:00:00","17","ND","21,5","3,1","99,4","26,2","63,1","0","0"],
    [33617,"2017-12-01T03:00:00","17","ND","21,3","2,4","87,6","25,8","65,4","0","0"],
    [33618,"2017-12-01T04:00:00","25","ND","19,8","2,3","97,9","25,3","69,3","0","0,51"],
    [33619,"2017-12-01T05:00:00","20","ND","15,5","1","112,9","25,1","70,6","0","0"],
    [33620,"2017-12-01T06:00:00","37","ND","13,2","1,4","151","25,4","69","0","0"],
    [33621,"2017-12-01T07:00:00","56","8","13,2","1,3","143,3","25,5","69,3","10,7","0"],
    [33622,"2017-12-01T08:00:00","45","8","18,4","1,8","207,1","26,9","63,9","84,9","0"],
    [33623,"2017-12-01T09:00:00","42","8","20,3","2,9","147,2","27,7","60,6","84,2","0"],
    [33624,"2017-12-01T10:00:00","45","22","26,1","2,5","141,5","28,7","57,3","173,1","0"],
    [33625,"2017-12-01T11:00:00","38","3","49,3","1,8","181,9","31,5","47,5","311,6","0"],
    [33626,"2017-12-01T12:00:00","39","1","73,3","1,9","248,7","31,4","48,1","235,8","0"],
    [33627,"2017-12-01T13:00:00","50","6","81,8","2,7","155,7","32,2","44,7","174,8","0"],
    [33628,"2017-12-01T14:00:00","22","6","52,5","3,6","299,6","29,9","51,2","65,7","0"],
    [33629,"2017-12-01T15:00:00","52","9","37,9","4,7","76,2","30,4","51,6","110,1","0"],
    [33630,"2017-12-01T16:00:00","45","6","28","7,8","64,4","29,6","53,4","78,5","0"],
    [33631,"2017-12-01T17:00:00","35","ND","21,2","6,2","68,9","29,4","52,5","43,4","0"],
    [33632,"2017-12-01T18:00:00","27","1","18,4","5","36,4","28,5","53,3","2,7","0"],
    [33633,"2017-12-01T19:00:00","39","5","18,8","0,9","320,3","27,5","59,2","0","1,78"],
    [33634,"2017-12-01T20:00:00","24","1","18,5","2,7","252,8","25,4","72,1","0","5,33"],
    [33635,"2017-12-01T21:00:00","12","ND","13,7","2,5","245,1","24,5","76,4","0","4,83"],
    [33636,"2017-12-01T22:00:00","11","ND","13,1","2,5","224,4","24,2","77,5","0","3,56"],
    [33637,"2017-12-01T23:00:00","22","ND","13,9","1,2","117,2","24,3","78,5","0","0"],
    [33638,"2017-12-02T00:00:00","15","ND","14,1","1,9","174,2","24,5","76,7","0","0"],
    [33639,"2017-12-02T01:00:00","4","ND","15,2","2,4","188,3","24,3","77,9","0","0"],
    [33640,"2017-12-02T02:00:00","6","ND","14,4","2,3","179,1","24,3","78,8","0","0"],
    [33641,"2017-12-02T03:00:00","11","ND","14,6","1,9","176,7","24,2","78,5","0","0"],
    [33642,"2017-12-02T04:00:00","8","ND","14,4","0,9","203,4","24,3","76,9","0","0"],
    [33643,"2017-12-02T05:00:00","14","ND","14,7","1,4","318,6","23,9","77,6","0","7,62"],
    [33644,"2017-12-02T06:00:00","9","ND","13,4","2,2","19,7","23,6","80,3","0","2,03"],
    [33645,"2017-12-02T07:00:00","21","3","13,4","3,3","59,5","23,7","80,8","0","1,27"],
    [33646,"2017-12-02T08:00:00","26","3","14","2,3","84,8","23,8","78,9","21,6","0"],
    [33647,"2017-12-02T09:00:00","31","4","15,3","1,8","95,8","24,8","73,9","69,6","0"],
    [33648,"2017-12-02T10:00:00","15","ND","22,1","1,7","73,5","26,8","65,7","210,7","0"],
    [33649,"2017-12-02T11:00:00","41","ND","33,4","2","107,3","29,5","54,3","370,1","0"],
    [33650,"2017-12-02T12:00:00","62","ND","46","2,4","135,4","31,1","47,4","380","0"],
    [33651,"2017-12-02T13:00:00","52","ND","54","1,6","127,3","32,4","42,9","383,7","0"],
    [33652,"2017-12-02T14:00:00","29","ND","62,1","2,4","30,8","32","42,9","212,9","0"],
    [33653,"2017-12-02T15:00:00","40","ND","60,2","3,2","72,1","32,2","42,5","236,3","0"],
    [33654,"2017-12-02T16:00:00","27","ND","82,1","3,8","3,1","32,3","42,7","182,8","0"],
    [33655,"2017-12-02T17:00:00","35","1","52,5","4,2","0,1","31,2","45,7","56,8","0"],
    [33656,"2017-12-02T18:00:00","42","2","24,9","2,8","329","30,7","45,4","15,3","0"],
    [33657,"2017-12-02T19:00:00","23","ND","16,4","3,9","282,3","29,2","48,2","0","0"],
    [33658,"2017-12-02T20:00:00","43","2","13,2","1","156,3","28,4","52,6","0","0"],
    [33659,"2017-12-02T21:00:00","51","4","13,3","3,1","101,1","26,9","63,3","0","0"],
    [33660,"2017-12-02T22:00:00","39","ND","13,5","2,5","104,6","26,4","62,9","0","0"],
    [33661,"2017-12-02T23:00:00","41","ND","16,9","2,7","121,2","25,6","67,1","0","0"],
    [33662,"2017-12-03T00:00:00","22","ND","20,4","2,2","190","25","69,9","0","0"],
    [33663,"2017-12-03T01:00:00","20","ND","18,4","1,7","171,8","25","70,7","0","0"],
    [33664,"2017-12-03T02:00:00","29","ND","19,4","4","98,3","23,8","78,1","0","5,59"],
    [33665,"2017-12-03T03:00:00","17","ND","20,9","2,4","92,8","23,3","81,1","0","1,78"],
    [33666,"2017-12-03T04:00:00","16","ND","21,3","1","103,4","23,3","80,7","0","0,76"],
    [33667,"2017-12-03T05:00:00","17","ND","17,5","1,7","319,5","23,7","78,3","0","0"],
    [33668,"2017-12-03T06:00:00","24","7","14,4","1","1,9","24","77,1","0","0"],
    [33669,"2017-12-03T07:00:00","33","11","13,9","2,1","81,1","24","78,3","16,2","0"],
    [33670,"2017-12-03T08:00:00","39","6","16,4","2,2","102,9","24,6","76,1","42,8","0"],
    [33671,"2017-12-03T09:00:00","35","2","20,5","1","85,9","26","70,3","86,7","0"],
    [33672,"2017-12-03T10:00:00","59","23","31","2,4","144,7","27,8","63,6","203,3","0"],
    [33673,"2017-12-03T11:00:00","34","5","46,6","3,1","124,4","30,3","52,3","370,1","0"],
    [33674,"2017-12-03T12:00:00","19","3","60","2,4","141,2","31,7","46,4","396,1","0"],
    [33675,"2017-12-03T13:00:00","33","ND","66,2","1,7","118,1","32,5","43,9","341,4","0"],
    [33676,"2017-12-03T14:00:00","29","ND","75,1","1,4","72,9","33,4","41,1","309","0"],
    [33677,"2017-12-03T15:00:00","29","9","87,1","2,6","75","34,1","38,6","287,8","0"],
    [33678,"2017-12-03T16:00:00","40","9","109,7","2,5","21,7","33,7","39,8","166,8","0"],
    [33679,"2017-12-03T17:00:00","56","11","66,9","3,8","47,7","32,9","42,2","53,1","0"],
    [33680,"2017-12-03T18:00:00","29","3","32,8","4","306,8","31,6","43,5","19,1","0"],
    [33681,"2017-12-03T19:00:00","19","ND","18,6","3,6","312,3","30","47,1","0","0"],
    [33682,"2017-12-03T20:00:00","36","ND","13,9","2,4","340,7","29,2","50,9","0","0"],
    [33683,"2017-12-03T21:00:00","44","5","13,5","3,1","98,9","27","62,7","0","0"],
    [33684,"2017-12-03T22:00:00","35","ND","12,9","2,4","75","26,3","66,5","0","0"],
    [33685,"2017-12-03T23:00:00","29","ND","13,1","3","99,6","26,5","66","0","0"],
    [33686,"2017-12-04T00:00:00","22","ND","13,5","2,6","84,8","26,2","67,1","0","0"],
    [33687,"2017-12-04T01:00:00","15","ND","13,7","1,9","44","25,9","67,3","0","0"],
    [33688,"2017-12-04T02:00:00","2","ND","13,7","2,1","94,6","25,6","67,7","0","0"],
    [33689,"2017-12-04T03:00:00","6","ND","13,6","1,8","113,3","25","70,6","0","0"],
    [33690,"2017-12-04T04:00:00","25","ND","13,7","0,6","72,6","25,2","69,1","0","0"],
    [33691,"2017-12-04T05:00:00","32","ND","13,6","0,4","90,4","25,8","66,7","0","0"],
    [33692,"2017-12-04T06:00:00","62","9","12,9","1,3","80,7","25,9","66,3","0","0"],
    [33693,"2017-12-04T07:00:00","71","9","12,7","1,6","60,8","26","66,4","21,2","0"],
    [33694,"2017-12-04T08:00:00","42","5","15,5","0,6","146,4","27","62,8","61,2","0"],
    [33695,"2017-12-04T09:00:00","54","11","19,7","2,3","137","28,6","59","184,9","0"],
    [33696,"2017-12-04T10:00:00","45","6","29,6","2,8","167,3","30,5","53,2","277,1","0"],
    [33697,"2017-12-04T11:00:00","51","6","46,4","2","176,6","31","50,7","258","0"],
    [33698,"2017-12-04T12:00:00","63","12","66,9","1,3","154,9","32,1","47,2","265,6","0"],
    [33699,"2017-12-04T13:00:00","64","19","79,5","2,9","110,3","31,9","46,8","134,9","0"],
    [33700,"2017-12-04T14:00:00","60","15","64,7","2,7","114,2","32","46,4","167,9","0"],
    [33701,"2017-12-04T15:00:00","38","3","75,5","2,7","325,6","32,3","45","184,9","0"],
    [33702,"2017-12-04T16:00:00","26","ND","61","6,1","271,1","32,6","41,7","224,1","0"],
    [33703,"2017-12-04T17:00:00","25","ND","40,4","6,3","256,4","31,5","43","62,4","0"],
    [33704,"2017-12-04T18:00:00","38","ND","20","4,7","273,8","30,4","46,2","7,2","0"],
    [33705,"2017-12-04T19:00:00","60","19","13,1","0,4","141,8","29,5","49,5","0","0"],
    [33706,"2017-12-04T20:00:00","65","24","12,6","1,6","279,3","28,8","50,9","0","0"],
    [33707,"2017-12-04T21:00:00","51","ND","13,5","3,9","92,6","26,9","62,7","0","0"],
    [33708,"2017-12-04T22:00:00","30","ND","12,6","2,1","110,4","25,8","67","0","0"],
    [33709,"2017-12-04T23:00:00","27","ND","12,7","2,3","90,8","25,5","67,1","0","0"],
    [33710,"2017-12-05T00:00:00","51","15","12,5","2,1","292,3","25,4","67,1","0","0"],
    [33711,"2017-12-05T01:00:00","44","7","12,2","1,9","147,5","25,6","68,4","0","0"],
    [33712,"2017-12-05T02:00:00","42","5","11,9","1,8","135,1","24,7","70,8","0","0"],
    [33713,"2017-12-05T03:00:00","42","7","12,6","1,6","208,5","24,7","73,6","0","0"],
    [33714,"2017-12-05T04:00:00","34","6","11,8","1,4","171,9","24,7","73,6","0","0"],
    [33715,"2017-12-05T05:00:00","55","8","12","2,1","100,3","24,5","74,3","0","0"],
    [33716,"2017-12-05T06:00:00","75","22","12,5","1,1","58","24,4","74,6","0","0"],
    [33717,"2017-12-05T07:00:00","98","31","13,1","1,3","94,8","24,8","72,4","8,8","0"],
    [33718,"2017-12-05T08:00:00","80","20","13,3","1,4","179,7","25,8","69,7","44,8","0"],
    [33719,"2017-12-05T09:00:00","54","11","17,3","1,9","189,5","27,9","63","173,3","0"],
    [33720,"2017-12-05T10:00:00","45","9","34,9","1,7","184,1","30,6","51,7","305,2","0"],
    [33721,"2017-12-05T11:00:00","50","9","56","2,3","82,2","31,8","46,4","366,5","0"],
    [33722,"2017-12-05T12:00:00","47","12","78,1","2,3","51,8","32,9","42,8","340,6","0"],
    [33723,"2017-12-05T13:00:00","64","14","98,7","3,4","75,6","33,8","39,3","366,5","0"],
    [33724,"2017-12-05T14:00:00","49","16","94,6","4,3","62,9","34,1","38,8","318,7","0"],
    [33725,"2017-12-05T15:00:00","ND","ND","ND","2,8","24,3","34,6","37,2","227,2","0"],
    [33726,"2017-12-05T16:00:00","26","1","73,1","3,2","4,8","34,6","36,4","156,5","0"],
    [33727,"2017-12-05T17:00:00","35","ND","57","4,3","310,5","34","36,9","105,6","0"],
    [33728,"2017-12-05T18:00:00","33","ND","36","5,3","294,5","32","39,7","16,4","0"],
    [33729,"2017-12-05T19:00:00","30","2","20,8","4,5","297,2","30,3","45,4","0","0"],
    [33730,"2017-12-05T20:00:00","58","7","16,3","1,6","329,7","29,3","49,9","0","0"],
    [33731,"2017-12-05T21:00:00","42","8","14,9","2,7","91,8","27","61,5","0","0"],
    [33732,"2017-12-05T22:00:00","35","6","14,9","2,5","65,8","26,5","62,9","0","0"],
    [33733,"2017-12-05T23:00:00","32","1","14,3","2,1","84,1","26,6","62,3","0","0"],
    [33734,"2017-12-06T00:00:00","27","ND","15,3","3,1","89,6","26","65,2","0","0"],
    [33735,"2017-12-06T01:00:00","28","5","14,4","1,4","98,2","25,4","68,2","0","0"],
    [33736,"2017-12-06T02:00:00","39","14","14,1","1,1","152,5","26","65,7","0","0"],
    [33737,"2017-12-06T03:00:00","17","7","15,9","1,2","233,4","26,1","65,9","0","0"],
    [33738,"2017-12-06T04:00:00","41","1","14,1","0,9","148,8","25,2","70,8","0","0"],
    [33739,"2017-12-06T05:00:00","48","6","13,5","1,7","171,6","25","71,3","0","0"],
    [33740,"2017-12-06T06:00:00","42","9","13,1","2","169,9","25,2","68,4","0","0"],
    [33741,"2017-12-06T07:00:00","44","12","14","1,9","187,8","25,1","69,2","12,2","0"],
    [33742,"2017-12-06T08:00:00","67","12","15,2","2","100,9","25,8","67,9","43,1","0"],
    [33743,"2017-12-06T09:00:00","33","ND","ND","2,3","163,3","28,1","59,4","179,9","0"],
    [33744,"2017-12-06T10:00:00","62","6","27,5","3,8","120,9","29,7","52,8","289,6","0"],
    [33745,"2017-12-06T11:00:00","45","6","54,5","2,3","87,3","31,5","46,4","357,2","0"],
    [33746,"2017-12-06T12:00:00","46","15","77,2","2,1","80,9","33","41,9","347","0"],
    [33747,"2017-12-06T13:00:00","50","16","102,7","2,7","51,6","34,2","38,7","355,7","0"],
    [33748,"2017-12-06T14:00:00","49","14","111,3","2,5","55,4","34,6","37,4","333","0"],
    [33749,"2017-12-06T15:00:00","40","9","107","3,8","358,9","34,4","37,2","202,6","0"],
    [33750,"2017-12-06T16:00:00","28","5","70,5","3,6","7,9","34,8","34,9","193,7","0"],
    [33751,"2017-12-06T17:00:00","26","1","49,1","6,1","296,8","33,6","35,4","90,8","0"],
    [33752,"2017-12-06T18:00:00","32","5","30,6","4,9","309,4","32","38,2","16,1","0"],
    [33753,"2017-12-06T19:00:00","28","5","13,7","4,2","298,9","30,3","44,3","0","0"],
    [33754,"2017-12-06T20:00:00","53","17","12,1","1,7","49,7","29","50,8","0","0"],
    [33755,"2017-12-06T21:00:00","48","9","9,4","2,4","94","26,7","63,4","0","0"],
    [33756,"2017-12-06T22:00:00","50","9","9,3","3,1","89,7","26,6","63,7","0","0"],
    [33757,"2017-12-06T23:00:00","36","9","11,2","2,3","23,9","26,6","62","0","0"],
    [33758,"2017-12-07T00:00:00","48","9","9,5","2,4","91","26,3","63,4","0","0"],
    [33759,"2017-12-07T01:00:00","31","5","10,3","2,5","112,3","25,4","67,3","0","0"],
    [33760,"2017-12-07T02:00:00","41","2","9,9","1,8","87,3","25","69,4","0","0"],
    [33761,"2017-12-07T03:00:00","44","6","9,4","0,1","322","24,9","70","0","0"],
    [33762,"2017-12-07T04:00:00","41","4","9,2","1,6","163,1","25,1","69,9","0","0"],
    [33763,"2017-12-07T05:00:00","44","10","8,3","2,5","196,8","24,5","72,4","0","0"],
    [33764,"2017-12-07T06:00:00","80","22","8,7","2,6","102,3","23,9","74,7","0","0"],
    [33765,"2017-12-07T07:00:00","55","15","8,4","0,4","242,8","24,6","71,9","12,2","0"],
    [33766,"2017-12-07T08:00:00","62","16","11,2","2,1","159,7","26,3","64,4","71,5","0"],
    [33767,"2017-12-07T09:00:00","60","9","19","2,5","157,3","28,8","54,8","210,3","0"],
    [33768,"2017-12-07T10:00:00","51","11","31","2,8","177,1","30","51,1","283,1","0"],
    [33769,"2017-12-07T11:00:00","32","9","57,3","1,3","139,7","32,2","43,7","346,2","0"],
    [33770,"2017-12-07T12:00:00","47","10","84,5","2,3","42,4","33","40,6","353,4","0"],
    [33771,"2017-12-07T13:00:00","ND","ND","ND","ND","ND","ND","ND","ND","ND"],
    [33772,"2017-12-07T14:00:00","ND","ND","ND","ND","ND","ND","ND","ND","ND"],
    [33773,"2017-12-07T15:00:00","ND","ND","ND","ND","ND","ND","ND","ND","ND"],
    [33774,"2017-12-07T16:00:00","ND","ND","ND","ND","ND","ND","ND","ND","ND"],
    [33775,"2017-12-07T17:00:00","ND","ND","ND","ND","ND","ND","ND","ND","ND"],
    [33776,"2017-12-07T18:00:00","ND","ND","ND","ND","ND","ND","ND","ND","ND"],
    [33777,"2017-12-07T19:00:00","ND","ND","ND","ND","ND","ND","ND","ND","ND"],
    [33778,"2017-12-07T20:00:00","ND","ND","ND","ND","ND","ND","ND","ND","ND"],
    [33779,"2017-12-07T21:00:00","ND","ND","ND","ND","ND","ND","ND","ND","ND"],
    [33780,"2017-12-07T22:00:00","ND","ND","ND","ND","ND","ND","ND","ND","ND"],
    [33781,"2017-12-07T23:00:00","ND","ND","ND","ND","ND","ND","ND","ND","ND"],
    [33782,"2017-12-08T00:00:00","ND","ND","ND","ND","ND","ND","ND","ND","ND"],
    [33783,"2017-12-08T01:00:00","ND","ND","ND","ND","ND","ND","ND","ND","ND"],
    [33784,"2017-12-08T02:00:00","ND","ND","ND","ND","ND","ND","ND","ND","ND"],
    [33785,"2017-12-08T03:00:00","ND","ND","ND","ND","ND","ND","ND","ND","ND"],
    [33786,"2017-12-08T04:00:00","ND","ND","ND","ND","ND","ND","ND","ND","ND"],
    [33787,"2017-12-08T05:00:00","ND","ND","ND","ND","ND","ND","ND","ND","ND"],
    [33788,"2017-12-08T06:00:00","ND","ND","ND","ND","ND","ND","ND","ND","ND"],
    [33789,"2017-12-08T07:00:00","ND","ND","ND","ND","ND","ND","ND","ND","ND"],
    [33790,"2017-12-08T08:00:00","ND","ND","ND","ND","ND","ND","ND","ND","ND"],
    [33791,"2017-12-08T09:00:00","ND","ND","ND","ND","ND","ND","ND","ND","ND"],
    [33792,"2017-12-08T10:00:00","ND","ND","ND","ND","ND","ND","ND","ND","ND"],
    [33793,"2017-12-08T11:00:00","ND","ND","ND","ND","ND","ND","ND","ND","ND"],
    [33794,"2017-12-08T12:00:00","ND","ND","ND","ND","ND","ND","ND","ND","ND"],
    [33795,"2017-12-08T13:00:00","ND","ND","ND","ND","ND","ND","ND","ND","ND"],
    [33796,"2017-12-08T14:00:00","58","11","ND","ND","ND","ND","ND","ND","ND"],
    [33797,"2017-12-08T15:00:00","30","9","75,6","3,9","333,9","33,3","38,5","136,6","0"],
    [33798,"2017-12-08T16:00:00","25","3","34,8","6,1","291,9","31,6","42","85,1","0"],
    [33799,"2017-12-08T17:00:00","31","ND","25,2","3,8","29,1","30,9","46,9","40,9","0"],
    [33800,"2017-12-08T18:00:00","23","ND","19,1","2,9","329,9","30,3","45,8","10","0"],
    [33801,"2017-12-08T19:00:00","38","8","14,9","0,5","81,5","28,9","51,1","0","0"],
    [33802,"2017-12-08T20:00:00","40","23","12,4","1","89,7","28,2","54,6","0","0"],
    [33803,"2017-12-08T21:00:00","34","7","18,4","1,8","200,3","27,5","57,7","0","0"],
    [33804,"2017-12-08T22:00:00","48","16","12,7","1,8","160,5","26,6","63","0","0"],
    [33805,"2017-12-08T23:00:00","36","7","12,6","1,9","153,2","26,2","63,9","0","0"],
    [33806,"2017-12-09T00:00:00","28","6","12,8","2,1","146,6","26,2","64,4","0","0"],
    [33807,"2017-12-09T01:00:00","13","ND","11,7","3,8","91,2","25,5","68,6","0","0"],
    [33808,"2017-12-09T02:00:00","27","5","10,8","2,2","44,1","25,2","70,5","0","0"],
    [33809,"2017-12-09T03:00:00","26","4","10,6","2,3","15,4","24,9","71,7","0","0"],
    [33810,"2017-12-09T04:00:00","12","ND","10","2,1","13,4","24,7","72,3","0","0"],
    [33811,"2017-12-09T05:00:00","17","ND","9,2","2,3","19,2","24,8","71,7","0","0"],
    [33812,"2017-12-09T06:00:00","42","8","9,3","2","57,7","24,8","72","0","0"],
    [33813,"2017-12-09T07:00:00","43","13","9,5","1,4","6,8","25","71,6","4,2","0"],
    [33814,"2017-12-09T08:00:00","53","14","9,9","1,6","207,3","25,9","69,3","45,2","0"],
    [33815,"2017-12-09T09:00:00","41","10","12,6","2,6","175","27,2","65,1","109,2","0"],
    [33816,"2017-12-09T10:00:00","41","12","17,8","3,5","166,8","27,5","62,2","131,9","0"],
    [33817,"2017-12-09T11:00:00","44","16","35,6","3,1","199,9","29,3","55,5","223,5","0"],
    [33818,"2017-12-09T12:00:00","67","35","56,1","2,3","187,8","31,1","48,5","374,7","0"],
    [33819,"2017-12-09T13:00:00","38","13","71,3","2","233,4","32","43,9","316,2","0"],
    [33820,"2017-12-09T14:00:00","42","10","91,8","1","186,5","34,7","36","386,5","0"],
    [33821,"2017-12-09T15:00:00","26","5","90,9","2,3","218","34,4","36,7","305,1","0"],
    [33822,"2017-12-09T16:00:00","50","24","70,7","3,2","63,5","33,4","38,7","97,1","0"],
    [33823,"2017-12-09T17:00:00","36","17","56,8","3,8","331,9","31,9","41,5","26,2","0"],
    [33824,"2017-12-09T18:00:00","16","ND","22,4","5,6","292,2","30,4","45,9","14,4","0"],
    [33825,"2017-12-09T19:00:00","44","6","17,4","3,9","66,8","28,7","54,1","0","0"],
    [33826,"2017-12-09T20:00:00","67","38","17,2","5","52,9","27,5","58","0","0"],
    [33827,"2017-12-09T21:00:00","ND","ND","17,9","4,8","60,3","26,6","64,2","0","0"],
    [33828,"2017-12-09T22:00:00","ND","ND","ND","ND","ND","ND","ND","ND","ND"],
    [33829,"2017-12-09T23:00:00","ND","ND","ND","ND","ND","ND","ND","ND","ND"],
    [33830,"2017-12-10T00:00:00","ND","ND","ND","ND","ND","ND","ND","ND","ND"],
    [33831,"2017-12-10T01:00:00","ND","ND","ND","ND","ND","ND","ND","ND","ND"],
    [33832,"2017-12-10T02:00:00","ND","ND","ND","ND","ND","ND","ND","ND","ND"],
    [33833,"2017-12-10T03:00:00","ND","ND","ND","ND","ND","ND","ND","ND","ND"],
    [33834,"2017-12-10T04:00:00","ND","ND","ND","ND","ND","ND","ND","ND","ND"],
    [33835,"2017-12-10T05:00:00","ND","ND","ND","ND","ND","ND","ND","ND","ND"],
    [33836,"2017-12-10T06:00:00","ND","ND","ND","ND","ND","ND","ND","ND","ND"],
    [33837,"2017-12-10T07:00:00","ND","ND","ND","ND","ND","ND","ND","ND","ND"],
    [33838,"2017-12-10T08:00:00","ND","ND","ND","ND","ND","ND","ND","ND","ND"],
    [33839,"2017-12-10T09:00:00","ND","ND","ND","ND","ND","ND","ND","ND","ND"],
    [33840,"2017-12-10T10:00:00","ND","ND","ND","ND","ND","ND","ND","ND","ND"],
    [33841,"2017-12-10T11:00:00","ND","ND","ND","ND","ND","ND","ND","ND","ND"],
    [33842,"2017-12-10T12:00:00","ND","ND","ND","ND","ND","ND","ND","ND","ND"],
    [33843,"2017-12-10T13:00:00","ND","ND","ND","ND","ND","ND","ND","ND","ND"],
    [33844,"2017-12-10T14:00:00","ND","ND","ND","ND","ND","ND","ND","ND","ND"],
    [33845,"2017-12-10T15:00:00","ND","ND","ND","ND","ND","ND","ND","ND","ND"],
    [33846,"2017-12-10T16:00:00","ND","ND","ND","ND","ND","ND","ND","ND","ND"],
    [33847,"2017-12-10T17:00:00","ND","ND","ND","ND","ND","ND","ND","ND","ND"],
    [33848,"2017-12-10T18:00:00","ND","ND","ND","ND","ND","ND","ND","ND","ND"],
    [33849,"2017-12-10T19:00:00","ND","ND","ND","ND","ND","ND","ND","ND","ND"],
    [33850,"2017-12-10T20:00:00","ND","ND","ND","ND","ND","ND","ND","ND","ND"],
    [33851,"2017-12-10T21:00:00","ND","ND","ND","ND","ND","ND","ND","ND","ND"],
    [33852,"2017-12-10T22:00:00","ND","ND","ND","ND","ND","ND","ND","ND","ND"],
    [33853,"2017-12-10T23:00:00","ND","ND","ND","ND","ND","ND","ND","ND","ND"],
    [33854,"2017-12-11T00:00:00","ND","ND","ND","ND","ND","ND","ND","ND","ND"],
    [33855,"2017-12-11T01:00:00","ND","ND","ND","ND","ND","ND","ND","ND","ND"],
    [33856,"2017-12-11T02:00:00","ND","ND","ND","ND","ND","ND","ND","ND","ND"],
    [33857,"2017-12-11T03:00:00","ND","ND","ND","ND","ND","ND","ND","ND","ND"],
    [33858,"2017-12-11T04:00:00","ND","ND","ND","ND","ND","ND","ND","ND","ND"],
    [33859,"2017-12-11T05:00:00","ND","ND","ND","ND","ND","ND","ND","ND","ND"],
    [33860,"2017-12-11T06:00:00","ND","ND","ND","ND","ND","ND","ND","ND","ND"],
    [33861,"2017-12-11T07:00:00","ND","ND","ND","ND","ND","ND","ND","ND","ND"],
    [33862,"2017-12-11T08:00:00","ND","ND","ND","ND","ND","ND","ND","ND","ND"],
    [33863,"2017-12-11T09:00:00","ND","ND","ND","ND","ND","ND","ND","ND","ND"],
    [33864,"2017-12-11T10:00:00","ND","ND","ND","ND","ND","ND","ND","ND","ND"],
    [33865,"2017-12-11T11:00:00","20","4","ND","ND","ND","ND","ND","ND","ND"],
    [33866,"2017-12-11T12:00:00","14","ND","32,7","2,1","190,3","28,6","56,5","122,9","0"],
    [33867,"2017-12-11T13:00:00","20","ND","24,5","4,6","331,2","24,8","73,7","34,1","4,32"],
    [33868,"2017-12-11T14:00:00","4","ND","32,8","2","312,4","25,2","73,5","114,6","1,78"],
    [33869,"2017-12-11T15:00:00","14","ND","45","0,5","221,6","27,9","59,6","138,7","0"],
    [33870,"2017-12-11T16:00:00","15","ND","49,9","1,4","202,5","29","52,7","128,8","0"],
    [33871,"2017-12-11T17:00:00","30","2","44,7","1,3","168,6","28,8","53,2","50,5","0"],
    [33872,"2017-12-11T18:00:00","25","4","29","2,2","202,7","27,7","57,9","5,6","0"],
    [33873,"2017-12-11T19:00:00","58","17","13,4","1,5","161","27","58,9","0","0"],
    [33874,"2017-12-11T20:00:00","84","26","9,7","1,3","82,2","26,6","62,7","0","0"],
    [33875,"2017-12-11T21:00:00","54","9","9,3","1,3","348,3","26,2","67,8","0","0"],
    [33876,"2017-12-11T22:00:00","64","9","9,3","1,2","116,7","26","69,6","0","0"],
    [33877,"2017-12-11T23:00:00","33","4","8,8","2","107,2","25,2","71","0","0"],
    [33878,"2017-12-12T00:00:00","29","ND","8,9","0,8","127,4","25,1","69,4","0","0"],
    [33879,"2017-12-12T01:00:00","30","2","9,3","1,3","107","25","70,6","0","0"],
    [33880,"2017-12-12T02:00:00","21","1","9,6","2,2","128,3","24,6","73,3","0","0"],
    [33881,"2017-12-12T03:00:00","28","ND","9,3","1","222,4","24,2","74,9","0","0"],
    [33882,"2017-12-12T04:00:00","13","ND","11,2","3,4","192,3","23,7","78,4","0","2,79"],
    [33883,"2017-12-12T05:00:00","11","ND","11,7","1,6","167,1","23,3","80,2","0","0,25"],
    [33884,"2017-12-12T06:00:00","23","ND","9,7","2,3","157,3","23,5","79,3","0","0"],
    [33885,"2017-12-12T07:00:00","19","1","10,8","2,1","178,4","23,3","79,2","5,8","0,25"],
    [33886,"2017-12-12T08:00:00","21","ND","11,1","2,2","209,3","23,7","77,4","12","0"],
    [33887,"2017-12-12T09:00:00","10","ND","14,2","1,4","253,3","24,4","74,6","49,1","1,78"],
    [33888,"2017-12-12T10:00:00","19","ND","16,7","1,7","180,3","25,7","70,9","114,2","0"],
    [33889,"2017-12-12T11:00:00","12","ND","26","1,3","167,9","27,7","60,4","183,9","0"],
    [33890,"2017-12-12T12:00:00","6","ND","39,5","2","241,8","28","58,7","136,7","0"],
    [33891,"2017-12-12T13:00:00","17","ND","38,4","1,8","203,3","28,9","57,3","249,2","0"],
    [33892,"2017-12-12T14:00:00","27","ND","39","2,5","104,7","30","49,2","208,2","0"],
    [33893,"2017-12-12T15:00:00","19","ND","47","1,6","34,8","29,7","50,1","118,9","0"],
    [33894,"2017-12-12T16:00:00","ND","ND","31,4","4,3","344,2","26,8","65","47,8","1,78"],
    [33895,"2017-12-12T17:00:00","ND","7","16,6","3","65,1","26,5","68,4","42,9","0,25"],
    [33896,"2017-12-12T18:00:00","90","25","20,6","2,4","41,6","26,7","69,5","13","0"],
    [33897,"2017-12-12T19:00:00","94","28","10,8","2,8","325,9","26,3","68,1","0","0"],
    [33898,"2017-12-12T20:00:00","117","38","9,5","2,5","83","26","69,1","0","0"],
    [33899,"2017-12-12T21:00:00","67","11","8,3","2,5","83,9","25,3","70,8","0","0"],
    [33900,"2017-12-12T22:00:00","45","7","7,9","1,2","345,6","24,6","72","0","0"],
    [33901,"2017-12-12T23:00:00","74","18","8,4","1","130,7","24,4","73,3","0","0"],
    [33902,"2017-12-13T00:00:00","56","16","8,1","0,3","185,6","24","74,6","0","0"],
    [33903,"2017-12-13T01:00:00","30","ND","7,5","1,1","105,6","22,9","77,7","0","0"],
    [33904,"2017-12-13T02:00:00","32","1","7,8","0,7","275","22,8","78","0","0"],
    [33905,"2017-12-13T03:00:00","37","10","7,9","0,7","127,1","23","77,6","0","0"],
    [33906,"2017-12-13T04:00:00","39","7","7,9","1,3","162","22,5","78,5","0","0"],
    [33907,"2017-12-13T05:00:00","48","15","7,9","0,5","168,7","22,5","78,9","0","0"],
    [33908,"2017-12-13T06:00:00","78","24","8","1,2","89,5","22,6","79,2","0","0"],
    [33909,"2017-12-13T07:00:00","64","21","8,6","1,9","34,2","22,5","79,4","14,1","0"],
    [33910,"2017-12-13T08:00:00","57","17","9,3","2","12,5","23,5","76,8","66","0"],
    [33911,"2017-12-13T09:00:00","78","24","12","2,2","30,8","25,4","67,4","126,6","0"],
    [33912,"2017-12-13T10:00:00","55","21","24,7","1,3","35,9","27,6","59,6","256,1","0"],
    [33913,"2017-12-13T11:00:00","57","19","53,9","1,5","139,3","30,7","49","372,7","0"],
    [33914,"2017-12-13T12:00:00","48","13","65,2","3,4","114,6","31,2","44,8","406,4","0"],
    [33915,"2017-12-13T13:00:00","54","8","87,4","1,1","79,9","32,9","39,9","407,1","0"],
    [33916,"2017-12-13T14:00:00","47","11","124,5","2,9","28","32,8","39,4","342","0"],
    [33917,"2017-12-13T15:00:00","65","23","133,6","2","61,9","33,1","39,2","238,6","0"],
    [33918,"2017-12-13T16:00:00","51","12","120,8","2,7","1,6","33,2","38,8","188,5","0"],
    [33919,"2017-12-13T17:00:00","41","16","82,2","2,7","32","32,9","38,7","78,9","0"],
    [33920,"2017-12-13T18:00:00","58","3","54","2,7","346,3","31,5","43,1","12,4","0"],
    [33921,"2017-12-13T19:00:00","52","11","13,9","3,3","287,3","29,5","49,8","0","0"],
    [33922,"2017-12-13T20:00:00","56","7","11,4","2,8","313,5","28,7","51,7","0","0"],
    [33923,"2017-12-13T21:00:00","83","22","10,2","3,9","84,2","26","65,2","0","0"],
    [33924,"2017-12-13T22:00:00","58","8","10,7","2,2","52,1","25,3","67,2","0","0"],
    [33925,"2017-12-13T23:00:00","64","15","9,2","2,2","94,1","25,5","65,6","0","0"],
    [33926,"2017-12-14T00:00:00","66","11","8,4","1,8","83,6","24,7","68,8","0","0"],
    [33927,"2017-12-14T01:00:00","43","9","8,7","0,2","132,5","24,5","70","0","0"],
    [33928,"2017-12-14T02:00:00","49","5","8,1","0,6","130,9","24,4","70,8","0","0"],
    [33929,"2017-12-14T03:00:00","69","4","8,5","0,8","148,2","24,4","72,2","0","0"],
    [33930,"2017-12-14T04:00:00","53","10","9,1","1,5","183,7","24,3","73","0","0"],
    [33931,"2017-12-14T05:00:00","56","7","8,2","2,3","188","24","74,2","0","0"],
    [33932,"2017-12-14T06:00:00","79","17","8,1","1,3","151,4","23,7","74,9","0","0"],
    [33933,"2017-12-14T07:00:00","106","25","8,5","1","120,8","23,9","74,1","12,3","0"],
    [33934,"2017-12-14T08:00:00","75","19","9,8","1,6","136,3","25,2","68,6","79,5","0"],
    [33935,"2017-12-14T09:00:00","73","17","18,6","2,2","77,6","27,3","60","200,1","0"],
    [33936,"2017-12-14T10:00:00","61","12","39,1","2,8","85,1","28,9","51,6","279,3","0"],
    [33937,"2017-12-14T11:00:00","68","16","64,5","2,7","91,2","30,7","43,7","342,1","0"],
    [33938,"2017-12-14T12:00:00","56","12","88,5","3,3","80","31,8","42,9","396,2","0"],
    [33939,"2017-12-14T13:00:00","48","11","104,5","2,5","44,4","33,2","38,9","401","0"],
    [33940,"2017-12-14T14:00:00","48","16","109,5","2,7","32,6","33,8","36","348,3","0"],
    [33941,"2017-12-14T15:00:00","66","17","118,3","3,6","57,3","34,2","35,9","261,1","0"],
    [33942,"2017-12-14T16:00:00","63","17","93,7","4,1","12,4","33,3","38","125,6","0"],
    [33943,"2017-12-14T17:00:00","36","ND","47","4,9","302,6","32,6","38,8","97,4","0"],
    [33944,"2017-12-14T18:00:00","29","ND","22,4","6,6","289","30,6","44,5","14,1","0"],
    [33945,"2017-12-14T19:00:00","30","ND","16,5","5,9","294,3","29,3","48,3","0","0"],
    [33946,"2017-12-14T20:00:00","62","15","10,2","3,5","73,5","28","55,6","0","0"],
    [33947,"2017-12-14T21:00:00","60","11","9,2","3,3","77,4","26,6","62,8","0","0"],
    [33948,"2017-12-14T22:00:00","54","8","8,8","1,9","70,4","26","64,6","0","0"],
    [33949,"2017-12-14T23:00:00","42","4","8,6","1,8","74,6","25,5","65,3","0","0"],
    [33950,"2017-12-15T00:00:00","47","6","8,1","1,3","87,4","25,1","67,2","0","0"],
    [33951,"2017-12-15T01:00:00","36","6","7,9","1,1","146,1","24,8","68,7","0","0"],
    [33952,"2017-12-15T02:00:00","69","9","7,8","1,7","151,4","24,2","71,8","0","0"],
    [33953,"2017-12-15T03:00:00","50","6","8","0,2","266,9","23,9","72,4","0","0"],
    [33954,"2017-12-15T04:00:00","56","9","9,1","0,7","156,3","24,4","69,9","0","0"],
    [33955,"2017-12-15T05:00:00","60","8","7,7","2","93,7","23,8","72,6","0","0"],
    [33956,"2017-12-15T06:00:00","105","22","8,3","1","108,6","23,2","75,4","0","0"],
    [33957,"2017-12-15T07:00:00","108","33","8,9","1,5","128,2","23,8","73,7","23,3","0"],
    [33958,"2017-12-15T08:00:00","97","24","10,7","0,4","75,5","25,7","65,6","81,6","0"],
    [33959,"2017-12-15T09:00:00","95","27","18","3","117,7","26,7","62,7","158,9","0"],
    [33960,"2017-12-15T10:00:00","54","10","34,4","3,2","127,6","29,3","53,1","284,4","0"],
    [33961,"2017-12-15T11:00:00","52","23","58,4","2","101,1","30,9","48,6","338,7","0"],
    [33962,"2017-12-15T12:00:00","61","12","90,4","2,3","105,3","32,7","41,9","408,7","0"],
    [33963,"2017-12-15T13:00:00","50","13","98,4","3,1","97,6","33,5","38,3","406,2","0"],
    [33964,"2017-12-15T14:00:00","61","18","112,9","2,9","65,7","34,5","34,3","359,2","0"],
    [33965,"2017-12-15T15:00:00","59","20","142,8","3","59,5","34,7","34,2","278","0"],
    [33966,"2017-12-15T16:00:00","72","26","141","3,2","28,2","34,1","36,2","114,2","0"],
    [33967,"2017-12-15T17:00:00","40","9","65,7","4,8","314,1","33,2","39","97,9","0"],
    [33968,"2017-12-15T18:00:00","45","7","39,2","5,8","290,2","31,1","43,4","14,2","0"],
    [33969,"2017-12-15T19:00:00","29","6","23,8","5,4","296,8","29,8","47,2","0","0"],
    [33970,"2017-12-15T20:00:00","78","29","11,6","2,7","49,3","28,5","53","0","0"],
    [33971,"2017-12-15T21:00:00","61","8","9,9","3,8","81,9","26,4","63","0","0"],
    [33972,"2017-12-15T22:00:00","64","17","10,1","3,1","76,9","26","64,3","0","0"],
    [33973,"2017-12-15T23:00:00","53","12","9,3","2,4","91,6","26","64,1","0","0"],
    [33974,"2017-12-16T00:00:00","59","6","9,2","2,7","78","25,4","66,5","0","0"],
    [33975,"2017-12-16T01:00:00","61","7","9,6","1,2","47,6","24,9","68,3","0","0"],
    [33976,"2017-12-16T02:00:00","54","20","8,7","0,8","122,9","25,1","67,4","0","0"],
    [33977,"2017-12-16T03:00:00","60","15","8,2","1,3","161,3","24,9","69","0","0"],
    [33978,"2017-12-16T04:00:00","50","8","8,5","1","170,2","24,5","70,1","0","0"],
    [33979,"2017-12-16T05:00:00","79","31","8,8","0,9","194,4","24,9","69,7","0","0"],
    [33980,"2017-12-16T06:00:00","117","31","8","2,1","125,3","23,9","73,7","0","0"],
    [33981,"2017-12-16T07:00:00","104","28","8,8","1,9","123,7","24,2","73,2","8,1","0"],
    [33982,"2017-12-16T08:00:00","119","51","12,9","0,2","236,9","25,7","67,7","84,3","0"],
    [33983,"2017-12-16T09:00:00","80","21","24,4","2,4","174,9","28,1","58","168,3","0"],
    [33984,"2017-12-16T10:00:00","59","14","42,5","2,1","196,8","29,9","51,9","278,8","0"],
    [33985,"2017-12-16T11:00:00","43","10","68,6","0,9","165,7","31,9","44,8","331,2","0"],
    [33986,"2017-12-16T12:00:00","42","10","72,8","2,3","86,2","32,5","41,7","284,4","0"],
    [33987,"2017-12-16T13:00:00","55","16","81,7","3,3","65,8","32,8","41,2","254,3","0"],
    [33988,"2017-12-16T14:00:00","51","13","112","3,1","14,9","33,5","39,5","292,2","0"],
    [33989,"2017-12-16T15:00:00","56","15","99,6","4,2","10,7","33,8","39,1","214,4","0"],
    [33990,"2017-12-16T16:00:00","41","6","77,2","3,7","12,5","33,6","39,4","176,9","0"],
    [33991,"2017-12-16T17:00:00","29","5","48,3","3,8","4,4","33,3","39,3","74","0"],
    [33992,"2017-12-16T18:00:00","33","6","43,6","5","286,4","31,7","40,8","16,2","0"],
    [33993,"2017-12-16T19:00:00","35","15","22,5","4,4","294,2","30,1","45,5","0","0"],
    [33994,"2017-12-16T20:00:00","47","11","19,6","2,1","307,8","29,4","47,9","0","0"],
    [33995,"2017-12-16T21:00:00","57","9","10,8","3,3","83,9","27","61,1","0","0"],
    [33996,"2017-12-16T22:00:00","50","12","10,2","2","83,8","26,8","62","0","0"],
    [33997,"2017-12-16T23:00:00","57","10","10","2,2","107,3","27","61,4","0","0"],
    [33998,"2017-12-17T00:00:00","75","12","8,8","1,1","42,9","26,4","64,1","0","0"],
    [33999,"2017-12-17T01:00:00","64","23","8,7","1,5","205,8","26","66,7","0","0"],
    [34000,"2017-12-17T02:00:00","73","24","8,5","1,9","184,9","25,1","70,3","0","0"],
    [34001,"2017-12-17T03:00:00","80","17","8,4","2","182,4","25","71,3","0","0"],
    [34002,"2017-12-17T04:00:00","55","18","9,5","1,2","166,1","25","70,7","0","0"],
    [34003,"2017-12-17T05:00:00","61","19","9,4","1,5","187,7","24,9","70,9","0","0"],
    [34004,"2017-12-17T06:00:00","62","14","8,9","1,7","174,7","24,7","71,9","0","0"],
    [34005,"2017-12-17T07:00:00","66","26","10,1","2,2","160,2","24,6","71,7","8,2","0"],
    [34006,"2017-12-17T08:00:00","65","24","14","2,1","186,6","25,7","68,2","62,2","0"],
    [34007,"2017-12-17T09:00:00","68","ND","27,2","2,1","161,9","28,3","58","180,7","0"],
    [34008,"2017-12-17T10:00:00","79","26","52,6","2,5","95","29,5","53,3","201,9","0"],
    [34009,"2017-12-17T11:00:00","63","20","73,9","2,2","137,6","31,3","48,4","288,3","0"],
    [34010,"2017-12-17T12:00:00","47","9","84,3","2,1","123,3","33,4","40,1","389,9","0"],
    [34011,"2017-12-17T13:00:00","34","9","96,5","2,3","10,7","34,4","36,8","384,8","0"],
    [34012,"2017-12-17T14:00:00","35","25","117,2","4,2","10,5","34,4","37,2","334,7","0"],
    [34013,"2017-12-17T15:00:00","48","22","118,7","3,1","7,2","34,9","36,2","260,4","0"],
    [34014,"2017-12-17T16:00:00","38","8","106,2","2,4","24","34,9","34,9","193,2","0"],
    [34015,"2017-12-17T17:00:00","27","2","53,8","6,6","297,5","33,7","36,5","105,7","0"],
    [34016,"2017-12-17T18:00:00","29","2","36,7","7,2","291,7","31,3","41,9","16,6","0"],
    [34017,"2017-12-17T19:00:00","21","5","22,7","6,2","312,4","30","46,3","0","0"],
    [34018,"2017-12-17T20:00:00","95","20","12","2,7","75,4","28,6","52,3","0","0"],
    [34019,"2017-12-17T21:00:00","44","8","11,8","3,3","96,1","26,7","60,4","0","0"],
    [34020,"2017-12-17T22:00:00","50","8","9,9","2,5","76,7","26,6","61,1","0","0"],
    [34021,"2017-12-17T23:00:00","56","12","8,9","1,3","190,1","26,1","63,1","0","0"],
    [34022,"2017-12-18T00:00:00","55","15","9,6","2","162,8","25,8","64,9","0","0"],
    [34023,"2017-12-18T01:00:00","64","12","8,7","1","134,8","25,8","65,5","0","0"],
    [34024,"2017-12-18T02:00:00","46","7","8,9","0,3","155,3","24,9","68,9","0","0"],
    [34025,"2017-12-18T03:00:00","48","5","8,9","1","159","24,5","70,9","0","0"],
    [34026,"2017-12-18T04:00:00","56","5","8,3","1,5","104,9","24,1","72","0","0"],
    [34027,"2017-12-18T05:00:00","54","8","8,7","1","176,1","24","72,6","0","0"],
    [34028,"2017-12-18T06:00:00","78","15","8,3","1,2","187,3","24,1","71,7","0","0"],
    [34029,"2017-12-18T07:00:00","76","22","9,2","1,3","167,3","24,5","70,7","11,6","0"],
    [34030,"2017-12-18T08:00:00","76","25","10,9","1,6","120,7","25,6","67,7","66,8","0"],
    [34031,"2017-12-18T09:00:00","61","12","23","2","109,6","27,8","58,7","191","0"],
    [34032,"2017-12-18T10:00:00","65","21","46,3","1,4","93,5","29,7","53,1","253,4","0"],
    [34033,"2017-12-18T11:00:00","61","22","72,5","2","68,7","31","48,3","281,2","0"],
    [34034,"2017-12-18T12:00:00","48","11","82,2","2,4","109,2","33,1","40,5","381,2","0"],
    [34035,"2017-12-18T13:00:00","33","10","79,3","1,7","77,8","34,2","36,9","366,7","0"],
    [34036,"2017-12-18T14:00:00","45","9","100,5","2","50,6","35,2","33,2","348,6","0"],
    [34037,"2017-12-18T15:00:00","68","18","123,2","4,1","14,4","35,2","33,9","285,9","0"],
    [34038,"2017-12-18T16:00:00","42","15","98,6","3,7","351,3","34,1","35,8","114,7","0"],
    [34039,"2017-12-18T17:00:00","30","9","51,3","5,9","318,2","33,6","35,9","103,4","0"],
    [34040,"2017-12-18T18:00:00","38","4","32,2","5","298","31,9","39,1","13,4","0"],
    [34041,"2017-12-18T19:00:00","35","2","14,9","3,8","304","30,4","42,4","0","0"],
    [34042,"2017-12-18T20:00:00","110","36","10,3","2,2","57,7","29,2","47,1","0","0"],
    [34043,"2017-12-18T21:00:00","63","21","10,2","3,8","91,5","26,9","59","0","0"],
    [34044,"2017-12-18T22:00:00","43","7","9,3","1,9","82,9","26,3","62,2","0","0"],
    [34045,"2017-12-18T23:00:00","48","14","9,2","1,1","186,3","26,1","62,9","0","0"],
    [34046,"2017-12-19T00:00:00","81","11","9,2","2,7","142,3","25,8","64,7","0","0"],
    [34047,"2017-12-19T01:00:00","28","7","8,8","1,8","85,4","25","68,2","0","0"],
    [34048,"2017-12-19T02:00:00","36","10","9,6","1,1","43,7","25,2","67,3","0","0"],
    [34049,"2017-12-19T03:00:00","34","6","14,9","2,1","104,1","25,5","64,6","0","0"],
    [34050,"2017-12-19T04:00:00","32","7","13,7","1,9","186,6","25,2","67","0","0"],
    [34051,"2017-12-19T05:00:00","53","7","10,2","1,8","151,6","24,8","69,6","0","0"],
    [34052,"2017-12-19T06:00:00","76","30","9","2,2","169,9","24,4","71,1","0","0"],
    [34053,"2017-12-19T07:00:00","76","16","9,1","1,2","182,7","24,4","71,4","15,8","0"],
    [34054,"2017-12-19T08:00:00","87","32","12,1","2,5","114,4","25,8","65,9","76","0"],
    [34055,"2017-12-19T09:00:00","64","18","19","2","105,6","27,1","60,7","114,4","0"],
    [34056,"2017-12-19T10:00:00","81","27","36,2","2,1","111,3","29,4","53,6","269,8","0"],
    [34057,"2017-12-19T11:00:00","51","13","59,9","1,7","92,3","31,7","44,1","354,5","0"],
    [34058,"2017-12-19T12:00:00","42","7","63,7","2,3","69,3","33,3","39","390,4","0"],
    [34059,"2017-12-19T13:00:00","35","9","78,6","3,2","48,3","34,3","36,4","398,7","0"],
    [34060,"2017-12-19T14:00:00","34","11","83,6","3,8","22,3","34,6","35,2","352,6","0"],
    [34061,"2017-12-19T15:00:00","36","11","84","5,5","349,7","34,2","36,5","266,1","0"],
    [34062,"2017-12-19T16:00:00","28","8","55,8","4,7","5,6","34,3","35,9","170","0"],
    [34063,"2017-12-19T17:00:00","29","2","41,8","4,9","357,4","33,7","36,7","102,2","0"],
    [34064,"2017-12-19T18:00:00","37","ND","29,3","6","286,8","31,6","40,9","16,4","0"],
    [34065,"2017-12-19T19:00:00","30","1","18,6","5,2","293,1","30,1","44","0","0"],
    [34066,"2017-12-19T20:00:00","99","25","10,5","2,2","35,4","28,8","50,3","0","0"],
    [34067,"2017-12-19T21:00:00","130","23","9,9","3,5","90","26,8","61,5","0","0"],
    [34068,"2017-12-19T22:00:00","57","10","8,7","2,1","87,1","26,4","62,4","0","0"],
    [34069,"2017-12-19T23:00:00","58","8","9,2","2","142,1","26,3","62,8","0","0"],
    [34070,"2017-12-20T00:00:00","36","4","7,4","2,6","114,9","25,6","65,4","0","0"],
    [34071,"2017-12-20T01:00:00","35","7","8,6","2,5","87","25,3","67,4","0","0"],
    [34072,"2017-12-20T02:00:00","40","5","9,7","2,1","85,5","25,5","67,2","0","0"],
    [34073,"2017-12-20T03:00:00","55","1","10","0,9","139,4","25,1","70,6","0","0"],
    [34074,"2017-12-20T04:00:00","38","1","9,6","1,4","171,7","24,9","71","0","0"],
    [34075,"2017-12-20T05:00:00","43","5","7,7","1,6","137,7","25","70,4","0","0"],
    [34076,"2017-12-20T06:00:00","69","25","7,4","1,8","123,8","25,2","69,4","0","0"],
    [34077,"2017-12-20T07:00:00","57","10","7,7","1,9","197,2","25","70,7","12,1","0"],
    [34078,"2017-12-20T08:00:00","55","11","10","1,5","153,4","26","68,3","66,6","0"],
    [34079,"2017-12-20T09:00:00","46","13","23,5","2,1","210","28,2","58,1","181,6","0"],
    [34080,"2017-12-20T10:00:00","50","9","39,2","1,8","145,5","30,7","49,3","299,5","0"],
    [34081,"2017-12-20T11:00:00","43","15","63,7","1,9","62,5","31,4","45,5","287","0"],
    [34082,"2017-12-20T12:00:00","99","33","ND","ND","ND","ND","ND","ND","ND"],
    [34083,"2017-12-20T13:00:00","ND","37","ND","1,4","7,3","34","37,1","400,3","0"],
    [34084,"2017-12-20T14:00:00","37","14","109,4","2","24,5","34,6","35,5","313,1","0"],
    [34085,"2017-12-20T15:00:00","38","17","98,4","3,6","7,8","34,8","35","232,6","0"],
    [34086,"2017-12-20T16:00:00","35","6","49,8","4,8","319,1","33,1","38","85,4","0"],
    [34087,"2017-12-20T17:00:00","30","2","51,4","5,9","288,2","33,3","36,7","102,9","0"],
    [34088,"2017-12-20T18:00:00","25","4","32,8","5,2","290,9","31,8","39,7","18","0"],
    [34089,"2017-12-20T19:00:00","54","6","16,6","4,9","289,3","30,4","43,5","0","0"],
    [34090,"2017-12-20T20:00:00","59","8","11,4","1,7","343,1","29,8","46,3","0","0"],
    [34091,"2017-12-20T21:00:00","55","12","10","3,7","90,5","27,6","57,4","0","0"],
    [34092,"2017-12-20T22:00:00","52","20","10,2","2,9","98,8","26,9","61,5","0","0"],
    [34093,"2017-12-20T23:00:00","33","10","8,2","2,7","91,3","26,3","64,2","0","0"],
    [34094,"2017-12-21T00:00:00","45","9","8,6","2,3","76,5","26,1","64,8","0","0"],
    [34095,"2017-12-21T01:00:00","35","7","10,6","2","71,5","25,9","65,3","0","0"],
    [34096,"2017-12-21T02:00:00","90","16","8,2","2,7","86,5","25,7","66,6","0","0"],
    [34097,"2017-12-21T03:00:00","43","8","8,5","1","63,4","25,4","67,6","0","0"],
    [34098,"2017-12-21T04:00:00","31","5","9,9","0,6","345,8","25,5","66,8","0","0"],
    [34099,"2017-12-21T05:00:00","35","10","8,1","1,1","192,9","25,5","67,8","0","0"],
    [34100,"2017-12-21T06:00:00","79","27","7,6","1,6","129,6","25,5","68,4","0","0"],
    [34101,"2017-12-21T07:00:00","74","12","7,5","0,9","138,2","25,4","68,6","11,7","0"],
    [34102,"2017-12-21T08:00:00","95","21","9,9","1,7","145,4","26,5","65,3","49,1","0"],
    [34103,"2017-12-21T09:00:00","60","11","19,6","1,3","218,2","28,4","58,3","146,3","0"],
    [34104,"2017-12-21T10:00:00","53","16","34","2","205,2","30,2","51,6","254,7","0"],
    [34105,"2017-12-21T11:00:00","40","13","54,8","1,1","33,3","31,9","44,8","299,4","0"],
    [34106,"2017-12-21T12:00:00","32","8","70","2,3","26,6","33,4","39,9","400,6","0"],
    [34107,"2017-12-21T13:00:00","41","10","91,4","3,2","9,8","33,4","40","237,9","0"],
    [34108,"2017-12-21T14:00:00","43","15","90,4","3,6","37,5","34,5","37,4","373,1","0"],
    [34109,"2017-12-21T15:00:00","22","7","72","3,7","41","35","35,8","275,2","0"],
    [34110,"2017-12-21T16:00:00","30","3","52,6","4,1","21,6","34,2","37,4","96,3","0"],
    [34111,"2017-12-21T17:00:00","35","1","33,9","7,4","304,7","32,6","39,6","108,2","0"],
    [34112,"2017-12-21T18:00:00","30","2","20","6","313,8","31,1","42","17,7","0"],
    [34113,"2017-12-21T19:00:00","62","7","9,4","3,3","341,5","30","46,3","0","0"],
    [34114,"2017-12-21T20:00:00","73","20","9,5","1,9","348,3","29,1","49,5","0","0"],
    [34115,"2017-12-21T21:00:00","99","14","8,4","2,3","76","27,6","55,3","0","0"],
    [34116,"2017-12-21T22:00:00","41","8","11,1","6,3","258,3","27,8","57,1","0","0"],
    [34117,"2017-12-21T23:00:00","43","9","11,6","4,1","231,3","27,8","58,8","0","0"],
    [34118,"2017-12-22T00:00:00","46","11","11,2","1,8","146,8","27,4","60,2","0","0"],
    [34119,"2017-12-22T01:00:00","26","6","9,4","1,4","176","26,9","62,3","0","0"],
    [34120,"2017-12-22T02:00:00","49","3","9,5","3,1","113,5","26,6","63,5","0","0"],
    [34121,"2017-12-22T03:00:00","9","2","12,9","2,8","146,4","26,2","66,2","0","0"],
    [34122,"2017-12-22T04:00:00","12","1","12,4","1,9","156,7","25,7","69,4","0","0"],
    [34123,"2017-12-22T05:00:00","14","ND","10,8","1,5","109,4","25,4","71,1","0","0"],
    [34124,"2017-12-22T06:00:00","33","4","8,9","2,4","151,1","25,2","72","0","0"],
    [34125,"2017-12-22T07:00:00","42","9","8,8","1,9","114,8","25,2","72,3","7,4","0"],
    [34126,"2017-12-22T08:00:00","46","7","10,6","1,7","149,8","26,1","68,9","43,1","0"],
    [34127,"2017-12-22T09:00:00","55","18","19,9","1,3","26,8","28,8","58,3","196,7","0"],
    [34128,"2017-12-22T10:00:00","46","4","36,1","2,1","44,1","30,4","51,1","267,7","0"],
    [34129,"2017-12-22T11:00:00","28","5","53,4","0,1","12,1","32,2","43,8","342,5","0"],
    [34130,"2017-12-22T12:00:00","38","6","59,4","2","64","32,6","41","257,4","0"],
    [34131,"2017-12-22T13:00:00","15","3","62,5","1,4","58,3","34,4","36,5","349,1","0"],
    [34132,"2017-12-22T14:00:00","17","ND","83,8","1,3","8,8","35","34,4","288,7","0"],
    [34133,"2017-12-22T15:00:00","28","6","107","3,4","351,5","35,1","34,2","263,7","0"],
    [34134,"2017-12-22T16:00:00","54","7","75,4","2,8","8,6","34,9","35,6","157,3","0"],
    [34135,"2017-12-22T17:00:00","40","1","45,6","7,7","287,9","33,5","37,3","116,4","0"],
    [34136,"2017-12-22T18:00:00","33","ND","34,3","6,3","290,8","32","39,6","22,4","0"],
    [34137,"2017-12-22T19:00:00","40","5","20,5","5,8","302,6","30,6","43,9","0","0"],
    [34138,"2017-12-22T20:00:00","44","7","12,7","1,5","314,7","29,5","49,1","0","0"],
    [34139,"2017-12-22T21:00:00","77","30","11,2","3,8","92,7","28,2","56,1","0","0"],
    [34140,"2017-12-22T22:00:00","63","19","9","2,9","108,1","27,7","58,6","0","0"],
    [34141,"2017-12-22T23:00:00","31","6","8,7","4","90","27,2","60,5","0","0"],
    [34142,"2017-12-23T00:00:00","21","1","8,6","2,4","90,3","26,9","61,5","0","0"],
    [34143,"2017-12-23T01:00:00","40","3","8,9","2,4","111","26,2","64,5","0","0"],
    [34144,"2017-12-23T02:00:00","23","4","9,2","2,1","113,8","26","65","0","0"],
    [34145,"2017-12-23T03:00:00","32","ND","9,3","1,7","103,2","26,2","64","0","0"],
    [34146,"2017-12-23T04:00:00","10","ND","12,1","2,5","108,5","26,3","63,4","0","0"],
    [34147,"2017-12-23T05:00:00","40","3","7,6","0,9","115,9","25,8","65,8","0","0"],
    [34148,"2017-12-23T06:00:00","60","9","7,4","1,6","188,8","25,8","66,7","0","0"],
    [34149,"2017-12-23T07:00:00","79","22","8,1","1,5","93,5","25,7","68,5","10,7","0"],
    [34150,"2017-12-23T08:00:00","65","13","11,4","1,9","176,9","27","63,5","60,7","0"],
    [34151,"2017-12-23T09:00:00","63","12","23,1","2,4","210,5","28,9","57,7","193,6","0"],
    [34152,"2017-12-23T10:00:00","56","11","41,8","2,1","216,4","30,9","49,3","238,8","0"],
    [34153,"2017-12-23T11:00:00","54","18","57,5","2,2","173,7","32,6","44,6","370,2","0"],
    [34154,"2017-12-23T12:00:00","59","23","78,5","1,9","60,6","33,7","40","374,7","0"],
    [34155,"2017-12-23T13:00:00","45","6","84,1","2,5","2,3","34,4","35,5","392,5","0"],
    [34156,"2017-12-23T14:00:00","42","6","98","2,4","41,9","35,2","34,4","301,4","0"],
    [34157,"2017-12-23T15:00:00","61","14","88,9","4","32","35","34,9","182,8","0"],
    [34158,"2017-12-23T16:00:00","32","10","54,4","5,7","309,1","33","39","84,1","0"],
    [34159,"2017-12-23T17:00:00","45","8","37,6","3,9","330,9","32,3","40,1","48,1","0"],
    [34160,"2017-12-23T18:00:00","54","6","23,9","4,3","329,6","31,2","41,6","8,8","0"],
    [34161,"2017-12-23T19:00:00","30","5","17,3","5","311,4","30,2","43,9","0","0"],
    [34162,"2017-12-23T20:00:00","54","12","10,5","2,2","80,1","29,2","49,6","0","0"],
    [34163,"2017-12-23T21:00:00","45","6","12,2","1,3","262","28,8","52,5","0","0"],
    [34164,"2017-12-23T22:00:00","71","8","12,1","5","247,2","28","56,9","0","0"],
    [34165,"2017-12-23T23:00:00","36","7","19,9","4,4","251,4","27,8","58,5","0","0"],
    [34166,"2017-12-24T00:00:00","56","6","10,5","2,6","88,1","27,8","57,8","0","0"],
    [34167,"2017-12-24T01:00:00","29","2","11,5","4,4","94,7","26,3","64,3","0","0"],
    [34168,"2017-12-24T02:00:00","27","ND","11,7","2,8","81","26,5","62,3","0","0"],
    [34169,"2017-12-24T03:00:00","28","10","11","0,7","96","26,7","60,8","0","0"],
    [34170,"2017-12-24T04:00:00","29","6","11,2","2,4","125,2","26,4","62,4","0","0"],
    [34171,"2017-12-24T05:00:00","34","7","9,9","1,3","128,6","26,2","64,3","0","0"],
    [34172,"2017-12-24T06:00:00","42","10","11,1","1,7","192,3","26,1","66,1","0","0"],
    [34173,"2017-12-24T07:00:00","55","9","8,1","2,3","99,1","25,4","69,4","5,1","0"],
    [34174,"2017-12-24T08:00:00","59","10","13,4","2","239,5","26,4","64,2","37,1","0"],
    [34175,"2017-12-24T09:00:00","52","10","24,4","3,3","236,5","27,7","60,4","149,3","0"],
    [34176,"2017-12-24T10:00:00","61","18","39","2,6","178,8","30,5","51,4","220,3","0"],
    [34177,"2017-12-24T11:00:00","51","22","58,6","1,6","98,7","32,2","44,8","354,4","0"],
    [34178,"2017-12-24T12:00:00","28","13","64,7","1,9","8,9","33","40,8","341,6","0"],
    [34179,"2017-12-24T13:00:00","44","10","95,1","4","292","32,9","40,6","302,3","0"],
    [34180,"2017-12-24T14:00:00","44","14","102,7","1,8","342","33","39,2","130,6","0"],
    [34181,"2017-12-24T15:00:00","51","10","77","4,3","32","33,1","38,9","112,7","0"],
    [34182,"2017-12-24T16:00:00","46","9","49,4","2","359,9","32,3","40,4","31,9","2,79"],
    [34183,"2017-12-24T17:00:00","32","9","37,6","5,1","192,2","24,3","76,4","0","31,24"],
    [34184,"2017-12-24T18:00:00","18","5","17,7","0,7","276,1","24,8","78,5","7,1","1,78"],
    [34185,"2017-12-24T19:00:00","35","9","12,9","3,9","89,8","24,9","77,5","0","0"],
    [34186,"2017-12-24T20:00:00","23","8","15,3","2,1","183,6","24,6","77,1","0","0"],
    [34187,"2017-12-24T21:00:00","29","8","15,3","3,2","204,9","24,4","78,5","0","0"],
    [34188,"2017-12-24T22:00:00","31","10","14,9","3,3","198,8","24,3","77,9","0","0,25"],
    [34189,"2017-12-24T23:00:00","42","14","15,6","2,5","206,2","24,5","76,6","0","0"],
    [34190,"2017-12-25T00:00:00","28","12","16,7","3,3","203,7","24,3","77,1","0","0,25"],
    [34191,"2017-12-25T01:00:00","27","13","14,7","2,3","209,1","23,9","79,7","0","2,29"],
    [34192,"2017-12-25T02:00:00","19","7","13","2,3","187,9","23,8","79,9","0","0"],
    [34193,"2017-12-25T03:00:00","18","3","13,1","1,5","171,8","23,9","78,8","0","0"],
    [34194,"2017-12-25T04:00:00","23","3","12,6","1,3","159,9","24","78,3","0","0"],
    [34195,"2017-12-25T05:00:00","11","4","10,4","1,7","129,6","24","78,9","0","0"],
    [34196,"2017-12-25T06:00:00","31","5","11,5","1,7","131,9","24","78,6","0","0"],
    [34197,"2017-12-25T07:00:00","42","5","9,6","2,2","110,6","24,1","78,3","0","0"],
    [34198,"2017-12-25T08:00:00","44","7","10","1,8","71,4","24,5","76,7","21,3","0"],
    [34199,"2017-12-25T09:00:00","31","7","14,2","2,1","89,1","25,4","72,9","65,4","0"],
    [34200,"2017-12-25T10:00:00","25","5","26,1","1,1","345,6","27,5","63,7","185,6","0"],
    [34201,"2017-12-25T11:00:00","30","11","48,3","1,2","236,5","29,5","55,4","271,1","0"],
    [34202,"2017-12-25T12:00:00","21","10","69,5","0,7","42,7","30,7","50,5","373,5","0"],
    [34203,"2017-12-25T13:00:00","27","8","65,2","1,6","66,1","32,2","44,4","389,3","0"],
    [34204,"2017-12-25T14:00:00","26","4","46,3","3,5","283","31,6","42,6","213,8","0"],
    [34205,"2017-12-25T15:00:00","5","ND","36,1","4,4","291,1","29,9","46,5","111,2","0"],
    [34206,"2017-12-25T16:00:00","14","ND","27,9","3,2","59,7","31,3","44,6","162,7","0"],
    [34207,"2017-12-25T17:00:00","13","ND","29,7","4","299","30,3","43,6","57,9","0"],
    [34208,"2017-12-25T18:00:00","16","ND","24,3","5,3","289,5","28,9","47,5","14,7","0"],
    [34209,"2017-12-25T19:00:00","32","3","22,7","5,3","235,9","26,5","65","0","0"],
    [34210,"2017-12-25T20:00:00","22","5","16,4","4,1","218,4","25,3","73,9","0","0"],
    [34211,"2017-12-25T21:00:00","11","2","17","3,4","245,9","24,8","76","0","3,05"],
    [34212,"2017-12-25T22:00:00","14","7","16,1","3,4","223,1","23,7","81,6","0","9,4"],
    [34213,"2017-12-25T23:00:00","10","5","15,8","2","213,4","23,4","82,1","0","4,06"],
    [34214,"2017-12-26T00:00:00","19","ND","11,2","2","70","23,8","80,8","0","0,51"],
    [34215,"2017-12-26T01:00:00","16","ND","12,4","1,9","32,9","23,7","79,4","0","0"],
    [34216,"2017-12-26T02:00:00","10","ND","9,9","2,9","11,2","23,5","79,7","0","1,52"],
    [34217,"2017-12-26T03:00:00","6","ND","12,2","2,4","335,4","23,1","80","0","7,11"],
    [34218,"2017-12-26T04:00:00","ND","ND","11,2","0,9","349,1","23,2","79,7","0","3,3"],
    [34219,"2017-12-26T05:00:00","14","1","8,1","2","96","23,2","80,9","0","2,03"],
    [34220,"2017-12-26T06:00:00","13","3","7,5","1,5","126","23,3","80,8","0","1,27"],
    [34221,"2017-12-26T07:00:00","17","3","7,8","1,6","152","23,3","80,6","4,7","0,25"],
    [34222,"2017-12-26T08:00:00","18","4","9,7","2,1","171,8","23,9","78,9","29,3","0"],
    [34223,"2017-12-26T09:00:00","24","9","13,8","2,4","195,4","24,8","74,4","77,7","0"],
    [34224,"2017-12-26T10:00:00","23","7","22,3","2,4","217,5","26,3","67,3","157,7","0"],
    [34225,"2017-12-26T11:00:00","5","1","36,9","1,7","250,4","28,4","57,3","251,7","0"],
    [34226,"2017-12-26T12:00:00","21","ND","54,2","1,7","0,8","29,6","51,5","280,8","0"],
    [34227,"2017-12-26T13:00:00","25","4","63,6","2,7","49,5","31","47,9","358","0"],
    [34228,"2017-12-26T14:00:00","33","4","56,2","4,4","51,6","30","51,8","140,8","0"],
    [34229,"2017-12-26T15:00:00","43","3","51,3","3,9","61,3","30,1","51,3","144,4","0"],
    [34230,"2017-12-26T16:00:00","42","4","50,6","2,3","82,3","30,2","49,6","77","0"],
    [34231,"2017-12-26T17:00:00","29","4","46,7","3,9","287","28,1","60,1","25,1","0,25"],
    [34232,"2017-12-26T18:00:00","34","5","20,8","5,2","266,5","26,4","66,7","5,3","0"],
    [34233,"2017-12-26T19:00:00","30","6","22,6","5,2","222,5","25,5","69,9","0","0,51"],
    [34234,"2017-12-26T20:00:00","22","6","17","2,8","165,8","24,6","72,9","0","0,76"],
    [34235,"2017-12-26T21:00:00","20","3","14,1","3,9","114,9","24","76,2","0","5,08"],
    [34236,"2017-12-26T22:00:00","26","ND","11,8","1,4","233,6","24,1","76,6","0","1,02"],
    [34237,"2017-12-26T23:00:00","32","8","8,7","1,2","154,7","24,2","76,7","0","0"],
    [34238,"2017-12-27T00:00:00","49","7","8","0,7","2,8","24,2","77,8","0","0"],
    [34239,"2017-12-27T01:00:00","50","11","8,6","1,1","96,2","24,1","78,3","0","0"],
    [34240,"2017-12-27T02:00:00","36","7","8,1","1,7","116,6","23,9","78,2","0","0"],
    [34241,"2017-12-27T03:00:00","9","3","13,6","2,4","221","23,6","77,8","0","0"],
    [34242,"2017-12-27T04:00:00","20","ND","10,1","1,1","171,5","23,5","79,1","0","0"],
    [34243,"2017-12-27T05:00:00","27","ND","7,5","1,3","110,6","23,5","79,4","0","0"],
    [34244,"2017-12-27T06:00:00","58","8","7,8","2","77,8","23,5","79,5","0","0,25"],
    [34245,"2017-12-27T07:00:00","48","9","7,7","1,3","216,4","23,5","79,5","0","0"],
    [34246,"2017-12-27T08:00:00","65","17","8,6","1,4","151,9","24,2","77,3","19,9","0"],
    [34247,"2017-12-27T09:00:00","66","10","8,8","0,9","139,2","25","74,3","54","0"],
    [34248,"2017-12-27T10:00:00","59","15","14,6","2,7","95,3","26,2","68,3","115,1","0"],
    [34249,"2017-12-27T11:00:00","52","11","28,4","3,4","82,9","28","59,8","233,5","0"],
    [34250,"2017-12-27T12:00:00","42","12","34,9","2,9","99,4","30","49,9","292,4","0"],
    [34251,"2017-12-27T13:00:00","16","6","37,1","3","77,2","31,9","43,6","397,3","0"],
    [34252,"2017-12-27T14:00:00","24","3","36","3,1","96,4","32,1","40,8","317,8","0"],
    [34253,"2017-12-27T15:00:00","27","3","40,8","3,3","101,3","32,5","39,9","222,3","0"],
    [34254,"2017-12-27T16:00:00","33","4","43,7","2,8","79","31,6","42,4","118,8","0"],
    [34255,"2017-12-27T17:00:00","53","14","48,2","2,3","67,6","32","41,5","88,2","0"],
    [34256,"2017-12-27T18:00:00","44","10","28","0,9","156,9","30,8","45,8","17,1","0"],
    [34257,"2017-12-27T19:00:00","22","6","10,3","3","286,9","29,4","47,1","0","0"],
    [34258,"2017-12-27T20:00:00","50","9","7,1","2","310,9","28,6","50,7","0","0"],
    [34259,"2017-12-27T21:00:00","43","7","7,1","1,7","285,6","28,1","52,8","0","0"],
    [34260,"2017-12-27T22:00:00","53","15","8,7","1,2","146,5","27,1","60,5","0","0"],
    [34261,"2017-12-27T23:00:00","39","8","8,5","2,4","72","26,3","65,7","0","0"],
    [34262,"2017-12-28T00:00:00","31","5","9,6","2,5","95","25,9","66,4","0","0"],
    [34263,"2017-12-28T01:00:00","29","7","8,3","1,9","125,5","25,5","69,9","0","0"],
    [34264,"2017-12-28T02:00:00","38","2","8,1","2,3","115,3","24,9","72,5","0","0"],
    [34265,"2017-12-28T03:00:00","23","ND","11,4","1","291,4","23,8","77,9","0","67,06"],
    [34266,"2017-12-28T04:00:00","9","ND","15,1","1,8","140,5","23,1","82,6","0","29,46"],
    [34267,"2017-12-28T05:00:00","9","ND","12,5","2,5","66,1","23","82,3","0","14,22"],
    [34268,"2017-12-28T06:00:00","15","ND","10","3,3","57,2","22,8","81,7","0","5,59"],
    [34269,"2017-12-28T07:00:00","21","ND","9,4","2,7","36,3","22,7","81,8","0","11,43"],
    [34270,"2017-12-28T08:00:00","12","ND","9,2","3,2","11,4","22,6","82,5","0","11,18"],
    [34271,"2017-12-28T09:00:00","7","ND","11,5","1,4","356,9","22,8","81,7","17,5","5,59"],
    [34272,"2017-12-28T10:00:00","4","ND","11,7","2,4","160,3","23,2","81","35,5","2,29"],
    [34273,"2017-12-28T11:00:00","15","6","16,4","0,7","98,7","24,4","76,4","149,2","1,02"],
    [34274,"2017-12-28T12:00:00","23","5","31,1","1","97,4","27,4","61,7","223,7","0"],
    [34275,"2017-12-28T13:00:00","25","7","49,2","2,4","33,6","28,9","55","272,7","0"],
    [34276,"2017-12-28T14:00:00","35","5","49,1","4,1","63,7","30","52","316,1","0"],
    [34277,"2017-12-28T15:00:00","24","ND","56,4","3,3","64,5","30,8","47,4","302,8","0"],
    [34278,"2017-12-28T16:00:00","27","4","52,9","1,7","3,2","30,5","46,9","94","0"],
    [34279,"2017-12-28T17:00:00","42","6","41,6","2,6","356,3","29,5","50,8","21,1","0"],
    [34280,"2017-12-28T18:00:00","45","5","20,3","2,9","302,9","28,7","51,7","8,1","0"],
    [34281,"2017-12-28T19:00:00","23","2","9,3","3,4","291,7","27,5","54,4","0","0"],
    [34282,"2017-12-28T20:00:00","34","4","6,6","2","301,1","26,9","57,3","0","0"],
    [34283,"2017-12-28T21:00:00","80","11","7,9","3,9","85,8","25,3","67,6","0","0"],
    [34284,"2017-12-28T22:00:00","60","6","7,5","2,1","52,3","24,3","70,7","0","0"],
    [34285,"2017-12-28T23:00:00","64","11","8,3","2","15,3","24,5","68,8","0","0"],
    [34286,"2017-12-29T00:00:00","49","7","9,7","1,2","359,6","24,6","67,9","0","0"],
    [34287,"2017-12-29T01:00:00","22","2","7,7","1,9","176,1","24,5","70,1","0","0"],
    [34288,"2017-12-29T02:00:00","23","1","7,7","0,7","211,4","24","74,3","0","1,02"],
    [34289,"2017-12-29T03:00:00","9","ND","11,8","2,7","275","23,6","77,1","0","0"],
    [34290,"2017-12-29T04:00:00","6","ND","14,4","1,9","251,8","22,9","80,3","0","8,89"],
    [34291,"2017-12-29T05:00:00","10","ND","11,7","0,8","205,2","23,2","79,1","0","0,25"],
    [34292,"2017-12-29T06:00:00","22","1","8,3","1,1","175,4","23,6","78,6","0","0"],
    [34293,"2017-12-29T07:00:00","39","19","8,2","2","125,8","23,6","79,1","0","0"],
    [34294,"2017-12-29T08:00:00","56","25","8,1","2,4","111,4","23,5","78,6","4,2","1,02"],
    [34295,"2017-12-29T09:00:00","33","14","9,8","2,1","93,8","23,5","79,4","40,6","3,56"],
    [34296,"2017-12-29T10:00:00","18","10","15,1","1,4","39,5","24,8","74,2","105,1","0"],
    [34297,"2017-12-29T11:00:00","25","10","28,5","1,2","8,5","27","63,8","176,1","0"],
    [34298,"2017-12-29T12:00:00","37","9","31,8","2,1","78,7","27,3","61,7","166,7","0"],
    [34299,"2017-12-29T13:00:00","25","7","55,8","1,5","112,4","30","49,7","278,9","0"],
    [34300,"2017-12-29T14:00:00","27","8","61,8","2,6","45,1","30,6","47,9","310,5","0"],
    [34301,"2017-12-29T15:00:00","13","5","66,3","4,4","354,7","30,9","45,6","274,3","0"],
    [34302,"2017-12-29T16:00:00","17","1","54,3","2,9","312,6","30,2","47,1","112,7","0"],
    [34303,"2017-12-29T17:00:00","56","5","17,2","4,1","76,8","27,5","60,7","17,6","0"],
    [34304,"2017-12-29T18:00:00","51","6","12,2","2,3","50,2","26,8","64,8","10,9","0"],
    [34305,"2017-12-29T19:00:00","76","9","9,8","2,6","63,4","26,3","67,3","0","0"],
    [34306,"2017-12-29T20:00:00","64","18","10","1,9","87,3","25,8","66,5","0","0"],
    [34307,"2017-12-29T21:00:00","74","15","9,2","1,7","135,4","25,5","67,7","0","0"],
    [34308,"2017-12-29T22:00:00","44","13","8,9","2,3","185,1","25","72,2","0","0"],
    [34309,"2017-12-29T23:00:00","50","7","11","2","176,9","24,6","74,7","0","0"],
    [34310,"2017-12-30T00:00:00","28","5","14,9","1,5","211,2","24,9","72,6","0","0"],
    [34311,"2017-12-30T01:00:00","24","5","13","1,5","165,8","24,7","74,1","0","0"],
    [34312,"2017-12-30T02:00:00","15","3","13,4","1,6","174,7","24,5","75,4","0","0"],
    [34313,"2017-12-30T03:00:00","14","ND","12,7","1,6","119,3","24,2","76,9","0","0"],
    [34314,"2017-12-30T04:00:00","31","5","11,1","2,1","103,1","24","77,5","0","0"],
    [34315,"2017-12-30T05:00:00","46","3","8,9","1,6","11","23,9","77,1","0","0,25"],
    [34316,"2017-12-30T06:00:00","30","6","7,7","1,9","80,1","23,5","79,5","0","2,29"],
    [34317,"2017-12-30T07:00:00","39","15","8","1,5","18,5","23,3","80,7","0","0"],
    [34318,"2017-12-30T08:00:00","27","20","9,3","0,9","74,7","24,2","77,2","33,5","0"],
    [34319,"2017-12-30T09:00:00","48","11","11,9","2","61,8","25","73,5","75,6","0"],
    [34320,"2017-12-30T10:00:00","29","9","27,1","1,7","337,9","26,9","64,1","185,8","0"],
    [34321,"2017-12-30T11:00:00","37","4","44,2","1,6","358,5","28,8","56,1","239,6","0"],
    [34322,"2017-12-30T12:00:00","43","14","58,1","2","51,4","30,6","49,5","343","0"],
    [34323,"2017-12-30T13:00:00","32","8","65,7","2,6","26,3","31,2","45,3","303,7","0"],
    [34324,"2017-12-30T14:00:00","23","6","69,6","2,9","26,7","32,4","41,3","325,7","0"],
    [34325,"2017-12-30T15:00:00","20","4","69,3","2,2","56,3","32,5","40,4","207,2","0"],
    [34326,"2017-12-30T16:00:00","53","7","47,4","3,7","69,1","31","44,9","51,2","0"],
    [34327,"2017-12-30T17:00:00","42","6","36,5","6,5","264,2","27,5","53,5","10,9","0"],
    [34328,"2017-12-30T18:00:00","37","4","34,1","5,5","236,2","24,4","66,6","7,5","0"],
    [34329,"2017-12-30T19:00:00","52","20","17","2,5","201","24,8","64","0","0"],
    [34330,"2017-12-30T20:00:00","59","15","15,7","3,3","139,9","25,1","66","0","0"],
    [34331,"2017-12-30T21:00:00","53","12","15,1","1,8","305,2","25,4","66,8","0","0"],
    [34332,"2017-12-30T22:00:00","71","20","8,2","2,3","354,5","25,4","65,8","0","0"],
    [34333,"2017-12-30T23:00:00","63","16","8","2,1","123,1","24,9","68,8","0","0"],
    [34334,"2017-12-31T00:00:00","69","16","7,2","1,9","204,6","24,5","71,6","0","0"],
    [34335,"2017-12-31T01:00:00","54","8","8,6","2","191,1","24,3","73,2","0","0"],
    [34336,"2017-12-31T02:00:00","17","2","12,6","1,9","204,8","23,4","78,5","0","26,67"],
    [34337,"2017-12-31T03:00:00","7","ND","11,8","1,6","207","22,9","81,1","0","0,51"],
    [34338,"2017-12-31T04:00:00","18","ND","12,9","1,3","183","23,1","79,7","0","0,25"],
    [34339,"2017-12-31T05:00:00","4","ND","12,9","1,6","180,3","23,2","79,1","0","0"],
    [34340,"2017-12-31T06:00:00","4","3","11,3","1,8","171,6","23,1","80","0","0"],
    [34341,"2017-12-31T07:00:00","8","1","12,5","2,1","194","23,1","79,7","0","0,51"],
    [34342,"2017-12-31T08:00:00","7","ND","15,9","3,3","220","23,3","79,3","36,8","0"],
    [34343,"2017-12-31T09:00:00","14","ND","20,6","3","202,3","25","72,7","128,4","0"],
    [34344,"2017-12-31T10:00:00","16","ND","33,6","1,9","289","27,7","60,3","226","0"],
    [34345,"2017-12-31T11:00:00","27","ND","40,4","1,9","100,2","27,9","57,9","193,1","0"],
    [34346,"2017-12-31T12:00:00","22","ND","40,6","3,8","110,8","29,1","53,2","274","0"],
    [34347,"2017-12-31T13:00:00","22","7","45,6","3,4","124,1","30,6","47,8","401,5","0"],
    [34348,"2017-12-31T14:00:00","32","5","49,5","1,7","111,8","31,1","44,2","219,8","0"],
    [34349,"2017-12-31T15:00:00","26","3","67,3","3,3","299,7","29,7","50","101,8","0"],
    [34350,"2017-12-31T16:00:00","38","17","67,6","2","21","30","49,3","96,6","0"],
    [34351,"2017-12-31T17:00:00","42","14","59,7","3,1","46,9","30,2","48,7","121,6","0"],
    [34352,"2017-12-31T18:00:00","28","13","39,2","3,1","43,7","30","47,6","37,2","0"],
    [34353,"2017-12-31T19:00:00","36","10","21","2,9","30,3","28,1","55,1","0","0"],
    [34354,"2017-12-31T20:00:00","53","12","13,3","1,8","3,1","27,1","60,6","0","0"],
    [34355,"2017-12-31T21:00:00","69","13","9,3","1,7","98,5","26,6","63,3","0","0"],
    [34356,"2017-12-31T22:00:00","75","21","8,8","1,6","144","26,3","64,8","0","0"],
    [34357,"2017-12-31T23:00:00","71","19","8,7","1,6","222,8","25,4","70,6","0","0"],
    [34358,"2018-01-01T00:00:00","89","31","8,3","1,2","232,4","25,5","71,3","0","0,25"],
    [34359,"2018-01-01T01:00:00","ND","ND","9,6","1,9","132,2","25,2","73,2","0","0"],
    [34360,"2018-01-01T02:00:00","89","47","8,2","1,7","168,6","24,7","74","0","0"],
    [34361,"2018-01-01T03:00:00","74","22","8,2","1,8","201,8","24,3","74,4","0","0"],
    [34362,"2018-01-01T04:00:00","62","16","8","1,8","164,7","24,4","73,5","0","0"],
    [34363,"2018-01-01T05:00:00","41","21","8,4","1,6","115,6","24,3","74,4","0","3,3"],
    [34364,"2018-01-01T06:00:00","30","13","8,2","1,8","249,6","23,5","79,9","0","5,59"],
    [34365,"2018-01-01T07:00:00","12","7","10,5","2,1","206,5","23,4","79,1","0","0,25"],
    [34366,"2018-01-01T08:00:00","7","1","13,5","3","201,5","22,9","80,3","3,8","28,96"],
    [34367,"2018-01-01T09:00:00","3","ND","15,3","2,4","212,1","22","83,1","12,3","34,8"],
    [34368,"2018-01-01T10:00:00","ND","ND","14,1","2,4","127,2","22","82,9","15,4","24,13"],
    [34369,"2018-01-01T11:00:00","ND","ND","16,5","2,7","126,9","22,2","82","40,6","7,37"],
    [34370,"2018-01-01T12:00:00","2","ND","19,2","1,6","63,3","23,2","79,2","102,6","3,3"],
    [34371,"2018-01-01T13:00:00","3","ND","22,3","2,1","51,5","24,4","73,3","142,4","0"],
    [34372,"2018-01-01T14:00:00","7","ND","25,9","1,8","83,2","27","61,7","239,8","0"],
    [34373,"2018-01-01T15:00:00","17","ND","37,2","0,7","205,5","28,4","54,3","198,4","0"],
    [34374,"2018-01-01T16:00:00","23","ND","44,1","2,2","198,1","28","56,1","104,3","0"],
    [34375,"2018-01-01T17:00:00","22","ND","46,1","2","222,6","27,7","55,7","62,1","0"],
    [34376,"2018-01-01T18:00:00","26","ND","28,4","1,6","149,5","26,6","62,8","3,6","0,25"],
    [34377,"2018-01-01T19:00:00","17","ND","18,4","4,8","191,3","24,2","72,8","0","0"],
    [34378,"2018-01-01T20:00:00","11","ND","20,4","5,7","219,6","22,7","76,8","0","0,25"],
    [34379,"2018-01-01T21:00:00","6","ND","12,1","1,8","272","23","76,9","0","0,76"],
    [34380,"2018-01-01T22:00:00","21","ND","10,2","2,7","88,2","23","78,2","0","0"],
    [34381,"2018-01-01T23:00:00","14","ND","11","1,8","100,1","22,8","78,9","0","0"],
    [34382,"2018-01-02T00:00:00","21","ND","11,7","0,9","97,3","22,8","77,3","0","0"],
    [34383,"2018-01-02T01:00:00","5","ND","11,6","0,9","182,3","22,6","78,6","0","0,25"],
    [34384,"2018-01-02T02:00:00","14","ND","13,5","1,1","209,5","22,5","78,7","0","0"],
    [34385,"2018-01-02T03:00:00","10","ND","11,6","2,2","97,4","22,4","79,8","0","0"],
    [34386,"2018-01-02T04:00:00","9","ND","10,3","1,1","302,7","22,3","80,3","0","0"],
    [34387,"2018-01-02T05:00:00","18","ND","8","0,7","210","22,6","79,4","0","0"],
    [34388,"2018-01-02T06:00:00","50","7","7,5","2","95,5","22,4","80,3","0","0"],
    [34389,"2018-01-02T07:00:00","33","4","8,3","2","2","22,1","81","4,8","0"],
    [34390,"2018-01-02T08:00:00","34","12","9,9","1,9","43,2","22,9","78,2","49,3","0,25"],
    [34391,"2018-01-02T09:00:00","35","9","15,2","1,9","10,1","24,5","70,4","133,1","0"],
    [34392,"2018-01-02T10:00:00","28","6","25,8","0,9","133,5","27","58,3","215,2","0"],
    [34393,"2018-01-02T11:00:00","18","3","38","0,8","173,9","27,9","54,1","223,6","0"],
    [34394,"2018-01-02T12:00:00","17","1","42,2","2,9","51,8","29,2","49,6","280,6","0"],
    [34395,"2018-01-02T13:00:00","19","2","56,3","2,4","37,9","30,3","46","358,1","0"],
    [34396,"2018-01-02T14:00:00","13","ND","65,7","2,5","45,1","31,6","41,9","362,9","0"],
    [34397,"2018-01-02T15:00:00","26","ND","61,1","3,1","41,9","32","41,6","302,1","0"],
    [34398,"2018-01-02T16:00:00","20","2","60,9","4,1","29,5","32,6","40,9","272,7","0"],
    [34399,"2018-01-02T17:00:00","25","5","40,9","3,9","35,9","31,7","43,8","78,7","0"],
    [34400,"2018-01-02T18:00:00","24","2","17,3","2,5","318,4","30","46,8","9,8","0"],
    [34401,"2018-01-02T19:00:00","24","ND","8,2","3","282,6","28,7","50,4","0","0"],
    [34402,"2018-01-02T20:00:00","27","4","14,6","4,5","231,2","27,5","58,2","0","0"],
    [34403,"2018-01-02T21:00:00","39","5","19,9","2","157,2","26,2","61,2","0","0"],
    [34404,"2018-01-02T22:00:00","39","5","14,8","3,4","138,2","25,3","63","0","0"],
    [34405,"2018-01-02T23:00:00","23","4","17,1","1,9","150,5","24,7","68,4","0","0"],
    [34406,"2018-01-03T00:00:00","26","2","18,2","0,6","79,7","24,6","68,8","0","0"],
    [34407,"2018-01-03T01:00:00","32","5","16,6","0,8","27,8","24,7","68,6","0","0"],
    [34408,"2018-01-03T02:00:00","28","4","13,6","1,8","114,1","24,4","71,8","0","0"],
    [34409,"2018-01-03T03:00:00","28","ND","11,8","1,7","88,8","24","74,9","0","0"],
    [34410,"2018-01-03T04:00:00","25","ND","10,9","1,2","188,3","23,8","75,2","0","0"],
    [34411,"2018-01-03T05:00:00","24","4","10,3","1,8","204,3","23,5","75,9","0","0"],
    [34412,"2018-01-03T06:00:00","25","5","8,2","1,8","218,8","23,4","76,6","0","0"],
    [34413,"2018-01-03T07:00:00","57","7","8,3","1,9","134,8","23,7","75,5","0","0"],
    [34414,"2018-01-03T08:00:00","42","7","9,4","1,7","166,5","24,3","74,7","45,9","0"],
    [34415,"2018-01-03T09:00:00","44","6","14,8","2,1","203,7","25,6","67,6","120,2","0"],
    [34416,"2018-01-03T10:00:00","36","4","26,6","1,7","92,2","27,5","58,9","186","0"],
    [34417,"2018-01-03T11:00:00","31","3","43,2","1,8","73,2","29,5","52,2","350,3","0"],
    [34418,"2018-01-03T12:00:00","20","6","56,4","1,8","47,2","30,8","46,6","332,8","0"],
    [34419,"2018-01-03T13:00:00","17","8","63,2","1,6","53,7","31,9","43,3","360,9","0"],
    [34420,"2018-01-03T14:00:00","14","6","69,6","1,1","36,1","32,8","39,6","299,4","0"],
    [34421,"2018-01-03T15:00:00","17","6","61","4","65","33,2","37,6","291,9","0"],
    [34422,"2018-01-03T16:00:00","25","2","55,2","4,3","72,5","33,1","38,8","212,1","0"],
    [34423,"2018-01-03T17:00:00","21","3","55,3","3,1","52","32,7","39,2","113,3","0"],
    [34424,"2018-01-03T18:00:00","36","9","40,8","2,1","39,3","31,8","41,9","20,6","0"],
    [34425,"2018-01-03T19:00:00","32","6","16,9","1,7","285","30,1","48,5","0","0"],
    [34426,"2018-01-03T20:00:00","59","8","35,9","7,8","230,6","26,5","55,7","0","0"],
    [34427,"2018-01-03T21:00:00","21","7","24,7","1,4","86,3","26,2","57,7","0","0"],
    [34428,"2018-01-03T22:00:00","28","9","17,2","1,7","44,1","24,2","69,3","0","0,51"],
    [34429,"2018-01-03T23:00:00","34","7","15,7","0,9","119","24","71,7","0","0"],
    [34430,"2018-01-04T00:00:00","17","3","19,9","1,2","157,3","24,5","70,1","0","1,27"],
    [34431,"2018-01-04T01:00:00","18","ND","17,3","2,7","186","23,3","77,7","0","2,79"],
    [34432,"2018-01-04T02:00:00","23","ND","13,7","1,3","179,9","23,4","77,7","0","0"],
    [34433,"2018-01-04T03:00:00","19","ND","12,2","2,5","83,9","23,3","77,8","0","0,25"],
    [34434,"2018-01-04T04:00:00","18","ND","12,9","1,7","16,3","23,2","78,1","0","0"],
    [34435,"2018-01-04T05:00:00","22","3","10,7","1,1","193,1","23,2","78","0","0"],
    [34436,"2018-01-04T06:00:00","35","3","8,4","1,6","198,1","23,4","77,2","0","0"],
    [34437,"2018-01-04T07:00:00","50","9","8,5","3","118,7","23,5","77,6","0","0"],
    [34438,"2018-01-04T08:00:00","ND","ND","9,1","1,5","119,6","24,3","73,8","64,2","0"],
    [34439,"2018-01-04T09:00:00","25","ND","18,4","1,8","345,2","26,4","63,3","148,4","0"],
    [34440,"2018-01-04T10:00:00","24","ND","26,9","2,7","9,8","27,5","59,3","257,7","0"],
    [34441,"2018-01-04T11:00:00","20","ND","35,2","1,8","82,7","29,3","52,2","271,3","0"],
    [34442,"2018-01-04T12:00:00","11","1","47,3","1,5","101,1","31,5","43,9","402,1","0"],
    [34443,"2018-01-04T13:00:00","20","4","51,7","2,3","106,2","32,4","41","417,9","0"],
    [34444,"2018-01-04T14:00:00","21","2","60,3","2,4","87,3","32,2","41","270,3","0"],
    [34445,"2018-01-04T15:00:00","22","ND","61,3","2,9","72,5","32,5","40,8","193,1","0"],
    [34446,"2018-01-04T16:00:00","28","3","74,8","2,2","23,9","32,7","40,8","201,9","0"],
    [34447,"2018-01-04T17:00:00","34","11","67,4","4,3","9,3","31,7","43,2","76,8","0"],
    [34448,"2018-01-04T18:00:00","32","9","30,7","3,7","316,2","30,3","45,1","9,6","0"],
    [34449,"2018-01-04T19:00:00","29","3","16,6","5,1","301,3","28,9","48","0","0"],
    [34450,"2018-01-04T20:00:00","30","11","9,9","3,2","311,7","28,4","50,4","0","0"],
    [34451,"2018-01-04T21:00:00","40","9","10,4","3,7","88,5","26,2","62,1","0","0"],
    [34452,"2018-01-04T22:00:00","46","10","10,8","3,7","73,5","25,1","67","0","0"],
    [34453,"2018-01-04T23:00:00","36","3","10,2","1,6","126,8","25,2","67,3","0","0"],
    [34454,"2018-01-05T00:00:00","20","ND","11,2","1,8","166,6","25","68,7","0","0"],
    [34455,"2018-01-05T01:00:00","24","2","12","1,7","157,7","25,1","68,1","0","0"],
    [34456,"2018-01-05T02:00:00","30","13","19,5","1,3","198,7","25,1","64","0","0"],
    [34457,"2018-01-05T03:00:00","8","6","21,8","1,3","188","23,9","65,9","0","0"],
    [34458,"2018-01-05T04:00:00","18","ND","19,1","1,8","281,8","24,4","64,7","0","0"],
    [34459,"2018-01-05T05:00:00","7","ND","17,3","1,3","218,6","24,7","64,3","0","0"],
    [34460,"2018-01-05T06:00:00","20","1","11,5","1,8","190,3","24,1","69","0","0"],
    [34461,"2018-01-05T07:00:00","21","3","10,8","2,2","190,6","23,1","75,5","0","0"],
    [34462,"2018-01-05T08:00:00","18","1","11,3","3,7","206,7","23,4","77,2","29,2","0"],
    [34463,"2018-01-05T09:00:00","23","ND","16,3","3,9","218,4","24,2","73,1","80,2","0"],
    [34464,"2018-01-05T10:00:00","20","ND","26,7","3,4","212,3","27,1","61,4","275,3","0"],
    [34465,"2018-01-05T11:00:00","8","ND","39,6","3","199,3","30,1","48,9","396,7","0"],
    [34466,"2018-01-05T12:00:00","17","ND","43,4","3,7","185","31,3","42,5","404,3","0"],
    [34467,"2018-01-05T13:00:00","14","ND","43,1","3,6","172,9","32","38,9","399,4","0"],
    [34468,"2018-01-05T14:00:00","9","ND","44,8","3,6","171,6","32,5","37,3","357,8","0"],
    [34469,"2018-01-05T15:00:00","15","ND","46,6","3,7","143,2","32,9","36,7","299,3","0"],
    [34470,"2018-01-05T16:00:00","20","4","55,7","3,1","119,2","33","36,3","260,6","0"],
    [34471,"2018-01-05T17:00:00","31","9","54,6","3,6","82,5","32,2","36,3","95,1","0"],
    [34472,"2018-01-05T18:00:00","48","8","31,9","2,7","77,7","31,1","41,3","13,7","0"],
    [34473,"2018-01-05T19:00:00","57","9","25,8","2,8","348","29,9","44,5","0","0"],
    [34474,"2018-01-05T20:00:00","43","11","9,4","0,4","93,7","28,1","51,9","0","0"],
    [34475,"2018-01-05T21:00:00","58","18","10","3,2","93","26,2","62,9","0","0"],
    [34476,"2018-01-05T22:00:00","40","7","9,1","2,6","106,8","25,4","65,9","0","0"],
    [34477,"2018-01-05T23:00:00","57","10","10,7","3,6","112,7","24,8","67,1","0","0"],
    [34478,"2018-01-06T00:00:00","51","11","10,7","2","121,4","24,2","69,2","0","0"],
    [34479,"2018-01-06T01:00:00","36","5","9","2,3","209,1","23,7","72,2","0","0"],
    [34480,"2018-01-06T02:00:00","39","13","11,6","2,1","215,1","23,7","70,9","0","0"],
    [34481,"2018-01-06T03:00:00","27","5","10,4","1,5","133,9","23,7","70,4","0","0"],
    [34482,"2018-01-06T04:00:00","18","ND","9,3","1,8","174,1","23,1","73,7","0","0"],
    [34483,"2018-01-06T05:00:00","31","3","8","1,7","132,5","22,7","75","0","0"],
    [34484,"2018-01-06T06:00:00","39","8","7,3","0,8","190","23,1","72,8","0","0"],
    [34485,"2018-01-06T07:00:00","69","16","8,7","1","24,6","23,7","70,7","4,6","0"],
    [34486,"2018-01-06T08:00:00","91","26","8,5","2,4","97,7","24,2","70,1","27,9","0"],
    [34487,"2018-01-06T09:00:00","97","31","10,1","3","101,8","24,9","68,8","75,3","0"],
    [34488,"2018-01-06T10:00:00","49","14","21,8","1,6","340,8","26,5","60,9","172,8","0"],
    [34489,"2018-01-06T11:00:00","38","8","43,1","1,3","220,1","29,8","49,4","351,9","0"],
    [34490,"2018-01-06T12:00:00","53","6","65,9","2,6","169,8","31,7","43,3","406,4","0"],
    [34491,"2018-01-06T13:00:00","37","5","72,7","2,8","170,6","33","40,1","452,2","0"],
    [34492,"2018-01-06T14:00:00","43","7","77,9","1,9","131,8","32,6","40,9","265,6","0"],
    [34493,"2018-01-06T15:00:00","50","11","95,4","1,2","150,6","32,7","39,8","193,3","0"],
    [34494,"2018-01-06T16:00:00","54","14","101,1","3,8","4,9","31,5","43,1","51,1","0"],
    [34495,"2018-01-06T17:00:00","67","30","50,1","1","341","30,6","46,4","35","0"],
    [34496,"2018-01-06T18:00:00","31","8","34,6","0,8","289,5","30,5","47,4","30,9","0"],
    [34497,"2018-01-06T19:00:00","30","7","17,6","3,8","103,5","28,5","59,1","0","0"],
    [34498,"2018-01-06T20:00:00","60","7","18,3","2,1","99","27,1","62,1","0","0"],
    [34499,"2018-01-06T21:00:00","51","13","20","3,1","218,5","27,1","60,2","0","0"],
    [34500,"2018-01-06T22:00:00","37","8","24,2","4,5","203,3","25,9","65,3","0","0"],
    [34501,"2018-01-06T23:00:00","27","5","21,9","3","172,9","25,4","65,6","0","0"],
    [34502,"2018-01-07T00:00:00","27","2","24,1","3,7","159,7","24,3","71,5","0","0"],
    [34503,"2018-01-07T01:00:00","6","1","26,2","2,4","210","24","70,8","0","0"],
    [34504,"2018-01-07T02:00:00","6","ND","21,8","0,4","238,6","23,6","71,3","0","0"],
    [34505,"2018-01-07T03:00:00","28","20","16,7","2,3","91,1","23,3","74,3","0","0"],
    [34506,"2018-01-07T04:00:00","21","6","12,6","1,5","108,5","22,9","76,1","0","0"],
    [34507,"2018-01-07T05:00:00","61","22","9,3","0,6","287,7","22,6","78,1","0","0"],
    [34508,"2018-01-07T06:00:00","47","12","8,6","0,6","226,2","22,7","77,3","0","0"],
    [34509,"2018-01-07T07:00:00","59","18","8,4","1","163,9","22,9","76,6","11,3","0"],
    [34510,"2018-01-07T08:00:00","44","10","13,7","1,4","214,6","24","72,3","85,4","0"],
    [34511,"2018-01-07T09:00:00","43","17","25,4","1,5","65,8","26,4","62,6","173,9","0"],
    [34512,"2018-01-07T10:00:00","26","10","43,8","1,7","9,3","28,3","53,4","286,3","0"],
    [34513,"2018-01-07T11:00:00","36","8","60,2","1,4","66,9","30,2","47,2","343,8","0"],
    [34514,"2018-01-07T12:00:00","22","5","66,2","2,7","72,3","31,5","42,1","379","0"],
    [34515,"2018-01-07T13:00:00","18","8","79,3","2,3","28,4","32,4","40","360,7","0"],
    [34516,"2018-01-07T14:00:00","24","7","72,5","3,5","26,5","32,9","38,7","304,5","0"],
    [34517,"2018-01-07T15:00:00","20","4","73","3","22","33,6","36,7","286,3","0"],
    [34518,"2018-01-07T16:00:00","20","2","71,7","1,7","316","32,6","38,5","107,4","0"],
    [34519,"2018-01-07T17:00:00","20","3","48,7","3,7","352,6","32,7","37,3","100,6","0"],
    [34520,"2018-01-07T18:00:00","26","3","39,2","6,5","286,4","31,1","38,6","27,4","0"],
    [34521,"2018-01-07T19:00:00","19","4","31,8","5,9","298","29,5","43,6","0","0"],
    [34522,"2018-01-07T20:00:00","36","3","20","0,7","352,3","28,6","49,3","0","0"],
    [34523,"2018-01-07T21:00:00","10","1","19,4","2","63,4","27,4","56,8","0","0"],
    [34524,"2018-01-07T22:00:00","28","1","27,1","4,1","186,6","26,2","61,1","0","0"],
    [34525,"2018-01-07T23:00:00","11","ND","29,1","3,8","187,2","23,5","72,5","0","0"],
    [34526,"2018-01-08T00:00:00","8","ND","23,7","3,1","210,2","22,8","76","0","0"],
    [34527,"2018-01-08T01:00:00","12","ND","25,3","3,4","233","22,7","75,7","0","0"],
    [34528,"2018-01-08T02:00:00","8","ND","20,4","1,1","188,6","23,4","73,1","0","0"],
    [34529,"2018-01-08T03:00:00","12","ND","18,1","2,5","134,2","23,7","72,7","0","0"],
    [34530,"2018-01-08T04:00:00","27","ND","18,7","1,8","89","22,6","76,5","0","0"],
    [34531,"2018-01-08T05:00:00","36","ND","14,9","2,4","280","23","74,5","0","0"],
    [34532,"2018-01-08T06:00:00","19","1","12,1","2","287,8","22,9","74,6","0","0"],
    [34533,"2018-01-08T07:00:00","45","4","9,5","1,1","89,6","22,9","75,2","13,1","0"],
    [34534,"2018-01-08T08:00:00","49","7","12,4","3,1","101,3","23,7","73,5","87,4","0"],
    [34535,"2018-01-08T09:00:00","48","10","21,5","2,1","135,1","26,2","64,2","167","0"],
    [34536,"2018-01-08T10:00:00","34","9","33,8","1,9","132,8","28,2","54,8","266,2","0"],
    [34537,"2018-01-08T11:00:00","19","6","46,9","1,9","97","30","47,5","358,1","0"],
    [34538,"2018-01-08T12:00:00","18","ND","55,8","2,1","91,7","32","40,9","397,1","0"],
    [34539,"2018-01-08T13:00:00","8","ND","57,5","2,2","89,5","32,9","37","413,9","0"],
    [34540,"2018-01-08T14:00:00","18","4","74,6","1,6","20,1","33,6","36,1","317,9","0"],
    [34541,"2018-01-08T15:00:00","20","1","88,6","3,5","12,1","33,5","37,1","188,4","0"],
    [34542,"2018-01-08T16:00:00","28","2","50,2","4,4","273,7","31","44","22,8","1,02"],
    [34543,"2018-01-08T17:00:00","21","14","17,4","2,5","195","27,1","68,3","16,7","7,11"],
    [34544,"2018-01-08T18:00:00","9","5","20,4","3,3","271,3","28","56","11,8","0"],
    [34545,"2018-01-08T19:00:00","27","17","13,8","1,8","319,2","28,2","55,1","0","0"],
    [34546,"2018-01-08T20:00:00","25","ND","16,1","1,1","263,3","27,9","55,4","0","0"],
    [34547,"2018-01-08T21:00:00","64","11","10,1","1,4","123,2","27,5","60,2","0","0"],
    [34548,"2018-01-08T22:00:00","23","6","19","3,5","259,1","26,3","62,8","0","0"],
    [34549,"2018-01-08T23:00:00","9","ND","14,9","3,4","254,1","25,6","66,1","0","0"],
    [34550,"2018-01-09T00:00:00","18","ND","8,8","1,1","167,7","25,4","68,5","0","0"],
    [34551,"2018-01-09T01:00:00","27","3","10","2,2","88,5","24,8","71,2","0","0"],
    [34552,"2018-01-09T02:00:00","33","4","11,9","1,6","129,2","24,7","70,3","0","0"],
    [34553,"2018-01-09T03:00:00","25","3","14,9","1,3","212,9","24,5","70","0","0"],
    [34554,"2018-01-09T04:00:00","26","ND","12","1,6","135,5","24,5","71","0","0"],
    [34555,"2018-01-09T05:00:00","19","ND","10,4","1,2","167,8","24,2","71,3","0","0"],
    [34556,"2018-01-09T06:00:00","56","15","8,4","2,4","89,1","24,1","72,2","0","0"],
    [34557,"2018-01-09T07:00:00","39","7","10,4","3,9","19,5","23,5","76,2","0","0"],
    [34558,"2018-01-09T08:00:00","24","3","14,6","3,6","8,6","23,8","74,9","42,5","0"],
    [34559,"2018-01-09T09:00:00","21","1","22,6","3,8","29,8","25,4","67,9","183,7","0"],
    [34560,"2018-01-09T10:00:00","18","2","24,3","3","81,5","27,1","62,2","219,6","0"],
    [34561,"2018-01-09T11:00:00","23","1","30,9","4,9","118,4","27,7","59,4","237,4","0"],
    [34562,"2018-01-09T12:00:00","28","3","45","3","129","30,1","49,1","349,3","0"],
    [34563,"2018-01-09T13:00:00","7","1","44,1","3,9","332,8","29,9","48,4","186,8","0"],
    [34564,"2018-01-09T14:00:00","19","ND","47,3","4,5","339","29,2","49,1","174,8","0"],
    [34565,"2018-01-09T15:00:00","11","ND","45,6","7,7","313,1","29,8","43,6","265,3","0"],
    [34566,"2018-01-09T16:00:00","24","ND","43,2","7,9","326,8","29,5","36","87","0"],
    [34567,"2018-01-09T17:00:00","28","1","32,4","4,9","355,2","28,9","38,4","23,3","0"],
    [34568,"2018-01-09T18:00:00","35","3","26,6","6,3","52,2","26,5","55,9","0","0"],
    [34569,"2018-01-09T19:00:00","35","9","20,3","2,7","157,7","23,7","73,2","0","0,51"],
    [34570,"2018-01-09T20:00:00","9","5","27,9","4,7","222,7","22,5","76","0","0,76"],
    [34571,"2018-01-09T21:00:00","26","14","23,3","4,2","233,6","22,2","78","0","0,51"],
    [34572,"2018-01-09T22:00:00","ND","ND","12,3","1,4","98,4","22,7","76,8","0","0,25"],
    [34573,"2018-01-09T23:00:00","34","6","13,8","3,2","93,8","22,6","77,7","0","0"],
    [34574,"2018-01-10T00:00:00","21","4","13,6","1,4","146,4","22,8","76,2","0","0"],
    [34575,"2018-01-10T01:00:00","13","1","17,9","2,4","145,2","22,6","77,7","0","0,25"],
    [34576,"2018-01-10T02:00:00","16","3","17,6","2,3","198,1","22,3","78,5","0","0"],
    [34577,"2018-01-10T03:00:00","6","3","18,1","2,7","203,8","22,2","78,8","0","0,25"],
    [34578,"2018-01-10T04:00:00","14","1","18","1,2","178,2","22,1","77,9","0","0"],
    [34579,"2018-01-10T05:00:00","12","ND","17,3","2,1","252,7","22,1","77,2","0","0"],
    [34580,"2018-01-10T06:00:00","39","14","8,9","2,8","81,9","21,9","78,4","0","0"],
    [34581,"2018-01-10T07:00:00","49","13","8,6","2,3","84,4","21,9","78,7","0,6","0"],
    [34582,"2018-01-10T08:00:00","50","13","9,9","1,5","66","22,7","74,8","23,1","0"],
    [34583,"2018-01-10T09:00:00","49","8","14,8","0,8","165,5","24","69,5","55,7","0"],
    [34584,"2018-01-10T10:00:00","40","10","17","1,5","69,7","24,7","67,2","98,7","0"],
    [34585,"2018-01-10T11:00:00","30","17","47,6","2,6","304,4","27,2","55","358,8","0"],
    [34586,"2018-01-10T12:00:00","29","17","64,9","3,1","191,1","30","42,6","391,2","0"],
    [34587,"2018-01-10T13:00:00","20","5","63,3","2,9","176","31,2","39,2","442,5","0"],
    [34588,"2018-01-10T14:00:00","13","8","65,1","2,1","145,6","31,7","37,2","383","0"],
    [34589,"2018-01-10T15:00:00","28","6","63,3","4,1","116,3","31,9","36","320,4","0"],
    [34590,"2018-01-10T16:00:00","31","5","70,7","3,9","85,2","31,9","35,6","230,7","0"],
    [34591,"2018-01-10T17:00:00","27","3","83,7","3,1","20,3","31,9","36,1","125,9","0"],
    [34592,"2018-01-10T18:00:00","49","11","84","4,2","344,5","30,4","41","31,2","0"],
    [34593,"2018-01-10T19:00:00","17","8","20,5","4,6","296,6","28,5","47,3","0","0"],
    [34594,"2018-01-10T20:00:00","51","16","11","1,8","349,6","27,4","53,2","0","0"],
    [34595,"2018-01-10T21:00:00","69","25","8,9","3","92,3","26,4","58,9","0","0"],
    [34596,"2018-01-10T22:00:00","55","15","9,1","2,8","74","24,4","66,9","0","0"],
    [34597,"2018-01-10T23:00:00","42","5","11,5","1,7","0,6","24,5","65,2","0","0"],
    [34598,"2018-01-11T00:00:00","76","18","9,1","1,4","210,8","24,4","66,8","0","0"],
    [34599,"2018-01-11T01:00:00","41","11","10","2,3","195,8","23,9","69,7","0","0"],
    [34600,"2018-01-11T02:00:00","37","10","8,4","2,2","107,5","23,2","72,5","0","0"],
    [34601,"2018-01-11T03:00:00","41","11","7,1","1,8","109,5","22,5","74,2","0","0"],
    [34602,"2018-01-11T04:00:00","41","9","7,2","1,7","180,7","22,2","76,2","0","0"],
    [34603,"2018-01-11T05:00:00","53","16","6,8","1","185,1","22,2","75,4","0","0"],
    [34604,"2018-01-11T06:00:00","69","18","6,9","0,8","120,8","21,5","77,8","0","0"],
    [34605,"2018-01-11T07:00:00","67","21","7,3","1,3","142,9","22,3","75,3","4,3","0"],
    [34606,"2018-01-11T08:00:00","90","29","8,6","2,2","95,8","23,7","70,8","92,4","0"],
    [34607,"2018-01-11T09:00:00","82","28","15,7","3,1","79,8","25,9","62,8","152,1","0"],
    [34608,"2018-01-11T10:00:00","59","17","30,6","2,1","113,1","27","57,4","197,2","0"],
    [34609,"2018-01-11T11:00:00","68","16","55,4","1,4","169,1","30,1","48,3","351,2","0"],
    [34610,"2018-01-11T12:00:00","47","18","83,7","1,6","157,8","31,8","41,2","408,7","0"],
    [34611,"2018-01-11T13:00:00","44","14","89,7","3,1","75,4","32,8","37,5","409,3","0"],
    [34612,"2018-01-11T14:00:00","54","22","101,7","3,4","43,6","33,3","35,8","367,5","0"],
    [34613,"2018-01-11T15:00:00","52","20","106,6","4,3","49,7","33,5","35,9","239","0"],
    [34614,"2018-01-11T16:00:00","44","12","59","2,8","326,1","32,1","38,4","55,5","0"],
    [34615,"2018-01-11T17:00:00","17","8","39,4","6,9","285,1","31,4","38,1","84","0"],
    [34616,"2018-01-11T18:00:00","26","6","29,8","5,3","288,1","30,5","40,6","23,6","0"],
    [34617,"2018-01-11T19:00:00","56","9","43,6","5,2","229,5","28","49,8","0","0"],
    [34618,"2018-01-11T20:00:00","70","11","36,8","2,1","252,6","27,5","45,6","0","0"],
    [34619,"2018-01-11T21:00:00","94","25","14,5","3,3","106,8","25,9","54,9","0","0"],
    [34620,"2018-01-11T22:00:00","83","27","18,8","1","132","25","61,7","0","0"],
    [34621,"2018-01-11T23:00:00","70","23","16,5","2","143,5","25,1","62,5","0","0"],
    [34622,"2018-01-12T00:00:00","74","24","12,4","2,5","124,6","24,1","66,5","0","0"],
    [34623,"2018-01-12T01:00:00","41","11","11,8","1","199,4","24","66,4","0","0"],
    [34624,"2018-01-12T02:00:00","25","10","13,2","1,6","128,1","23,9","67","0","0"],
    [34625,"2018-01-12T03:00:00","62","11","7,5","2","116,3","22,8","71,6","0","0"],
    [34626,"2018-01-12T04:00:00","37","6","8,2","2,5","197,6","22,7","73,5","0","0"],
    [34627,"2018-01-12T05:00:00","35","7","7,7","1,5","171,9","22,9","72,9","0","0"],
    [34628,"2018-01-12T06:00:00","48","19","7,2","2,3","145,7","22,4","75,2","0","0"],
    [34629,"2018-01-12T07:00:00","57","12","7,2","1,4","184,7","22,6","74,4","5,3","0"],
    [34630,"2018-01-12T08:00:00","55","10","10,1","0,4","37,5","24,4","67,2","42,4","0"],
    [34631,"2018-01-12T09:00:00","112","34","11,6","2,9","78,2","25,1","68","91,9","0"],
    [34632,"2018-01-12T10:00:00","101","39","20,2","2,6","95,2","26,3","61,4","88,1","0"],
    [34633,"2018-01-12T11:00:00","152","44","39,2","1,6","37,9","27,9","54,3","219","0"],
    [34634,"2018-01-12T12:00:00","59","17","67,4","2,2","0","30,2","45,3","337,7","0"],
    [34635,"2018-01-12T13:00:00","48","13","67,9","3,8","68,1","31","43","298,3","0"],
    [34636,"2018-01-12T14:00:00","61","14","60,5","4,1","75,8","30,4","43,8","159,5","0"],
    [34637,"2018-01-12T15:00:00","40","12","70,4","3,5","48","31,3","42,5","188,9","0"],
    [34638,"2018-01-12T16:00:00","34","6","49,1","4,7","320,3","28,7","50,4","77,4","0"],
    [34639,"2018-01-12T17:00:00","26","10","26,1","2,4","329,1","28,6","51,4","37,9","0"],
    [34640,"2018-01-12T18:00:00","39","12","18","1,1","34,3","28,5","51,8","17,6","0"],
    [34641,"2018-01-12T19:00:00","70","21","13,6","2,8","113,3","28,1","52,5","0","0"],
    [34642,"2018-01-12T20:00:00","65","17","10,9","1,1","252,7","27,6","53,2","0","0"],
    [34643,"2018-01-12T21:00:00","83","24","14,9","2,8","228,4","26,8","60,8","0","0"],
    [34644,"2018-01-12T22:00:00","54","17","18,5","2","166,8","26","64,6","0","0"],
    [34645,"2018-01-12T23:00:00","35","11","18,8","3,5","152,9","25,1","67,5","0","0"],
    [34646,"2018-01-13T00:00:00","19","6","16,8","2,7","164,5","24,2","71,5","0","0"],
    [34647,"2018-01-13T01:00:00","ND","ND","19,1","1,6","185,8","23,8","72,8","0","0"],
    [34648,"2018-01-13T02:00:00","14","ND","18,7","1,4","184,4","23,6","73,6","0","0"],
    [34649,"2018-01-13T03:00:00","10","ND","16,2","1,1","107,4","23,7","73,2","0","0"],
    [34650,"2018-01-13T04:00:00","13","ND","17","3","108,3","23,3","74,2","0","0"],
    [34651,"2018-01-13T05:00:00","58","9","9,8","1,7","111,6","23,2","75,9","0","0"],
    [34652,"2018-01-13T06:00:00","39","5","8,4","0,9","201,8","23,1","76,4","0","0"],
    [34653,"2018-01-13T07:00:00","81","20","8,4","2,1","95,6","23","76,9","0","0"],
    [34654,"2018-01-13T08:00:00","68","16","8,9","0,9","32,4","24","73,6","50,3","0"],
    [34655,"2018-01-13T09:00:00","91","25","13,2","0,4","230,5","26,1","64,8","125,9","0"],
    [34656,"2018-01-13T10:00:00","73","20","36,5","1,2","133,3","29,1","51,9","290,8","0"],
    [34657,"2018-01-13T11:00:00","72","24","64,8","2,3","20","30,1","47,1","269,8","0"],
    [34658,"2018-01-13T12:00:00","67","27","77,2","2,9","87,4","30,9","44,7","294,6","0"],
    [34659,"2018-01-13T13:00:00","55","21","83,2","2,6","59,5","32,2","39,7","314,5","0"],
    [34660,"2018-01-13T14:00:00","47","10","80,8","2,6","18,6","31,1","42,1","109,6","0"],
    [34661,"2018-01-13T15:00:00","30","6","47,8","3","16,3","31,4","39,6","111,5","0"],
    [34662,"2018-01-13T16:00:00","35","5","38,6","3,6","50,4","31,8","39,3","121,5","0"],
    [34663,"2018-01-13T17:00:00","48","5","31,3","3,4","67,2","28,5","51,3","10,9","0"],
    [34664,"2018-01-13T18:00:00","17","7","26,9","3,4","210,3","25","69,6","0","2,54"],
    [34665,"2018-01-13T19:00:00","19","8","19,5","3,4","184,5","23,7","77,1","0","5,59"],
    [34666,"2018-01-13T20:00:00","34","11","13,7","3,5","139,2","23,7","77,6","0","1,78"],
    [34667,"2018-01-13T21:00:00","12","10","17,7","2,3","172,2","23,3","79,8","0","3,81"],
    [34668,"2018-01-13T22:00:00","20","5","18,1","3,1","237,1","23,1","79,7","0","1,27"],
    [34669,"2018-01-13T23:00:00","6","6","10,9","2,1","215,7","23,3","78,5","0","0"],
    [34670,"2018-01-14T00:00:00","20","8","12,4","1,9","178,5","23,1","79","0","0"],
    [34671,"2018-01-14T01:00:00","17","5","13,6","1,4","171,5","23,1","79,5","0","0"],
    [34672,"2018-01-14T02:00:00","28","8","13,6","1,6","143,1","23,2","79,3","0","0"],
    [34673,"2018-01-14T03:00:00","23","8","16,2","0,9","214,2","23,1","79,1","0","0"],
    [34674,"2018-01-14T04:00:00","35","9","13,1","1,2","103,2","23,2","78,6","0","0"],
    [34675,"2018-01-14T05:00:00","38","10","9,2","2,4","126,4","22,9","80","0","0"],
    [34676,"2018-01-14T06:00:00","50","14","9,6","1,2","140,2","22,7","80,2","0","0"],
    [34677,"2018-01-14T07:00:00","35","11","9,6","1,4","204,5","22,5","81,2","0","0"],
    [34678,"2018-01-14T08:00:00","40","19","12,2","1,2","136,5","23,1","79,7","58,4","0"],
    [34679,"2018-01-14T09:00:00","60","28","16,3","2,8","89,5","24,6","72,7","122,5","0,25"],
    [34680,"2018-01-14T10:00:00","48","20","30,2","3,1","71,2","26,3","64,6","175,5","0"],
    [34681,"2018-01-14T11:00:00","32","8","43,4","2,4","41,7","27,6","59,6","196,5","0"],
    [34682,"2018-01-14T12:00:00","23","6","55,3","2,4","64,5","30,3","48","415,8","0"],
    [34683,"2018-01-14T13:00:00","30","8","67","2,4","64,6","31,6","43,2","375,7","0"],
    [34684,"2018-01-14T14:00:00","35","9","72,5","3,7","76,7","32,2","40,8","344,2","0"],
    [34685,"2018-01-14T15:00:00","34","10","61,5","3,4","136,4","31,7","41,7","121,3","0"],
    [34686,"2018-01-14T16:00:00","30","5","48,1","7,3","305,1","25,9","56,9","0","21,59"],
    [34687,"2018-01-14T17:00:00","36","15","30,6","1,8","7,9","22,7","80,2","11,4","4,32"],
    [34688,"2018-01-14T18:00:00","44","25","28,2","2,2","358,1","23,4","72","14,1","0"],
    [34689,"2018-01-14T19:00:00","37","2","19,7","3,6","33,3","23,2","75,9","0","0"],
    [34690,"2018-01-14T20:00:00","30","3","17,7","1,6","23,6","23","76,1","0","0"],
    [34691,"2018-01-14T21:00:00","37","18","12,9","2,2","313,8","23,1","75,7","0","0"],
    [34692,"2018-01-14T22:00:00","22","6","8,5","1,7","224,4","23,3","75,3","0","0"],
    [34693,"2018-01-14T23:00:00","50","7","8,5","2","200,1","23,2","75","0","0"],
    [34694,"2018-01-15T00:00:00","56","10","8,8","1,6","136,5","22,9","76,2","0","0"],
    [34695,"2018-01-15T01:00:00","31","6","8,8","1","91,7","22,7","76,8","0","0"],
    [34696,"2018-01-15T02:00:00","38","6","7,6","1,4","95,7","22,4","78,6","0","0"],
    [34697,"2018-01-15T03:00:00","42","11","7,8","0,8","340,7","22,6","78","0","0"],
    [34698,"2018-01-15T04:00:00","33","14","7,8","1,7","59,9","22,2","79,4","0","0"],
    [34699,"2018-01-15T05:00:00","49","20","8,4","0,7","357,2","22,2","79,5","0","0"],
    [34700,"2018-01-15T06:00:00","82","32","7,8","1,4","99,1","22,6","77,5","0","0"],
    [34701,"2018-01-15T07:00:00","98","39","8,5","1,9","49,8","22,3","78,4","8,3","0"],
    [34702,"2018-01-15T08:00:00","73","29","9,4","3","36,4","22,1","79,9","50,2","0"],
    [34703,"2018-01-15T09:00:00","75","35","12,2","1,6","50,6","23,5","75,5","109,1","0"],
    [34704,"2018-01-15T10:00:00","62","24","27,4","1,9","79,3","26","64,7","227,5","0"],
    [34705,"2018-01-15T11:00:00","36","20","45,1","1,7","69","28,9","52,5","361,1","0"],
    [34706,"2018-01-15T12:00:00","36","4","62,4","1,3","127,8","30,8","44,8","391,9","0"],
    [34707,"2018-01-15T13:00:00","36","11","74,4","2,4","54,7","31,6","41,5","379,1","0"],
    [34708,"2018-01-15T14:00:00","25","9","71,8","2,7","49,7","31,9","39,7","239,2","0"],
    [34709,"2018-01-15T15:00:00","38","12","67,7","2,5","70,1","32,1","39,1","209,7","0"],
    [34710,"2018-01-15T16:00:00","32","8","64,9","1,6","163,9","31,3","41,8","76,3","0"],
    [34711,"2018-01-15T17:00:00","27","8","42,9","5,2","263,3","29,2","47,3","14,7","0"],
    [34712,"2018-01-15T18:00:00","30","8","29,1","0,7","121,4","25,5","68,1","0","28,7"],
    [34713,"2018-01-15T19:00:00","28","17","15,4","4,1","101","23,6","80,7","0","10,16"],
    [34714,"2018-01-15T20:00:00","32","15","13,2","2,4","13,4","23,3","81,3","0","6,6"],
    [34715,"2018-01-15T21:00:00","26","16","12,7","2,1","21,1","23,5","79,2","0","0"],
    [34716,"2018-01-15T22:00:00","21","9","11,6","2,2","70,7","23,5","79,5","0","0,25"],
    [34717,"2018-01-15T23:00:00","15","4","12,9","0,8","62,9","23,4","79,1","0","0"],
    [34718,"2018-01-16T00:00:00","19","ND","13,5","0,7","105,2","23,6","76,6","0","0,25"],
    [34719,"2018-01-16T01:00:00","7","5","17,5","2,1","181,3","23,4","78,5","0","1,52"],
    [34720,"2018-01-16T02:00:00","9","3","18,3","1,4","167,9","23,2","80,3","0","0,25"],
    [34721,"2018-01-16T03:00:00","9","ND","17,8","0,9","170,9","23","80","0","0"],
    [34722,"2018-01-16T04:00:00","12","1","17,7","1,1","146,7","23,1","79,6","0","0"],
    [34723,"2018-01-16T05:00:00","28","5","12,8","1,8","89,8","23","79,9","0","0"],
    [34724,"2018-01-16T06:00:00","42","20","8,8","0,4","33,1","23,1","79,6","0","0,25"],
    [34725,"2018-01-16T07:00:00","52","30","8,6","1,7","102,6","23,2","79,8","5,3","0"],
    [34726,"2018-01-16T08:00:00","43","20","9,9","1,1","232,5","23,9","77,2","32,2","0"],
    [34727,"2018-01-16T09:00:00","32","16","17,3","1,4","166","25,7","69,7","158,2","0"],
    [34728,"2018-01-16T10:00:00","45","11","23,7","2,9","91,7","26,3","65,6","115,7","0"],
    [34729,"2018-01-16T11:00:00","34","15","38,7","1,7","86,3","29","54,8","357,5","0"],
    [34730,"2018-01-16T12:00:00","30","12","44,8","3,8","49,1","29,1","53,4","232,1","0"],
    [34731,"2018-01-16T13:00:00","36","13","64,2","3,8","50,5","30,4","47,7","381","0"],
    [34732,"2018-01-16T14:00:00","28","6","58,4","4,7","58,4","31,4","44","244,2","0"],
    [34733,"2018-01-16T15:00:00","40","1","48,4","5,3","61,9","31,2","45,6","214,9","0"],
    [34734,"2018-01-16T16:00:00","35","4","44,3","4,5","67,8","31,2","45,3","137,8","0"],
    [34735,"2018-01-16T17:00:00","36","7","32","5","222","29,2","51,6","17,8","0"],
    [34736,"2018-01-16T18:00:00","37","16","37,9","7,3","248,8","25,3","63,6","0","0"],
    [34737,"2018-01-16T19:00:00","47","17","25,7","4,2","239,4","25,5","63","0","0"],
    [34738,"2018-01-16T20:00:00","77","20","13","3,4","133,2","25,2","66,5","0","0"],
    [34739,"2018-01-16T21:00:00","78","21","12,6","1,5","108","24,8","67,9","0","0"],
    [34740,"2018-01-16T22:00:00","43","13","14,3","0,7","310,6","24,2","71,3","0","0"],
    [34741,"2018-01-16T23:00:00","64","12","12,5","1,1","55,7","24,3","71","0","0"],
    [34742,"2018-01-17T00:00:00","81","27","10","1,7","84,8","24","72,4","0","0"],
    [34743,"2018-01-17T01:00:00","27","8","11,2","1,5","185,6","23,3","75,2","0","0"],
    [34744,"2018-01-17T02:00:00","27","5","10,6","2,2","137,5","23,1","76,6","0","0"],
    [34745,"2018-01-17T03:00:00","27","2","9,4","1,4","185,1","22,8","77","0","0"],
    [34746,"2018-01-17T04:00:00","22","2","9,4","1,3","178,4","22,8","77,4","0","0"],
    [34747,"2018-01-17T05:00:00","25","2","7,9","0,6","116,2","22,9","77,1","0","0"],
    [34748,"2018-01-17T06:00:00","59","23","8,3","1,5","91,5","23,2","76,2","0","0"],
    [34749,"2018-01-17T07:00:00","51","11","8,1","2,6","99,6","22,7","79,2","0","2,03"],
    [34750,"2018-01-17T08:00:00","44","29","8,8","0,6","105,6","23","78,1","17,1","0,25"],
    [34751,"2018-01-17T09:00:00","48","18","9,6","1,2","156,9","24","74,9","52,8","0"],
    [34752,"2018-01-17T10:00:00","57","20","14,8","2","162,7","25,6","67,9","124,4","0"],
    [34753,"2018-01-17T11:00:00","49","13","25,5","2,6","130,8","27,9","58,3","315,5","0"],
    [34754,"2018-01-17T12:00:00","50","17","39,2","2,7","117,2","29,3","51","242,2","0"],
    [34755,"2018-01-17T13:00:00","44","9","56,8","1,8","118,3","30,3","47,9","245,7","0"],
    [34756,"2018-01-17T14:00:00","40","8","73,8","2,5","134,2","32,1","41,5","396,6","0"],
    [34757,"2018-01-17T15:00:00","38","12","67,4","3,2","115,4","31","44,7","207,1","0"],
    [34758,"2018-01-17T16:00:00","47","13","51,1","5,4","76,4","30,1","48,6","109,7","0"],
    [34759,"2018-01-17T17:00:00","35","9","35,6","6,2","39,3","27,9","56,1","44,5","0"],
    [34760,"2018-01-17T18:00:00","48","7","18,5","3,8","61,3","26,6","61,6","11,9","0"],
    [34761,"2018-01-17T19:00:00","40","8","13,9","1,7","53,4","25,9","63,8","0","0"],
    [34762,"2018-01-17T20:00:00","43","12","12,5","2,3","80,8","25,6","64,7","0","0"],
    [34763,"2018-01-17T21:00:00","35","9","11,3","1,9","142","25,4","66,2","0","0"],
    [34764,"2018-01-17T22:00:00","58","13","10,2","2,2","116,5","25,4","65,5","0","0"],
    [34765,"2018-01-17T23:00:00","33","10","18,3","2,4","190,7","24,8","67,5","0","0"],
    [34766,"2018-01-18T00:00:00","28","6","19,9","2,1","175,7","24,2","70,6","0","0"],
    [34767,"2018-01-18T01:00:00","28","3","16,9","1,9","134,3","23,6","73,6","0","0"],
    [34768,"2018-01-18T02:00:00","19","ND","17,3","1,4","183,4","23,3","75","0","0"],
    [34769,"2018-01-18T03:00:00","5","ND","14,4","1,3","172","23,3","75,7","0","0"],
    [34770,"2018-01-18T04:00:00","24","1","12","1,8","108,8","23,3","76,3","0","0"],
    [34771,"2018-01-18T05:00:00","23","3","10,9","2,1","111,9","22,9","78,5","0","0,76"],
    [34772,"2018-01-18T06:00:00","43","11","9","0,6","65,4","23","77,9","0","0"],
    [34773,"2018-01-18T07:00:00","59","17","9","2,1","69,7","23,2","78,3","9,9","0"],
    [34774,"2018-01-18T08:00:00","53","13","9,7","0,7","24,7","24,1","73,9","48,7","0"],
    [34775,"2018-01-18T09:00:00","65","15","13,9","1,8","66,2","25,3","69,4","94,6","0"],
    [34776,"2018-01-18T10:00:00","50","18","21,1","1,6","68,4","26,9","61,7","146,1","0"],
    [34777,"2018-01-18T11:00:00","36","12","33,7","1,6","51,5","27,5","57,7","130,4","0"],
    [34778,"2018-01-18T12:00:00","30","8","34,3","3","71","29,1","51,3","304,4","0"],
    [34779,"2018-01-18T13:00:00","29","6","53,6","1,9","64,7","31,2","43,3","344,5","0"],
    [34780,"2018-01-18T14:00:00","37","3","53,7","3,8","83,5","30,7","46,2","297,1","0"],
    [34781,"2018-01-18T15:00:00","25","1","66,1","2,7","78,5","32,3","39,9","294,7","0"],
    [34782,"2018-01-18T16:00:00","44","6","74,9","1,7","29,8","32,3","39,3","219,6","0"],
    [34783,"2018-01-18T17:00:00","42","6","88","1,5","321,3","31,8","40,7","120,5","0"],
    [34784,"2018-01-18T18:00:00","39","2","28,2","5,3","281","29,8","44,3","7,4","0"],
    [34785,"2018-01-18T19:00:00","32","ND","17,4","4,8","281,4","28,5","47,6","0","0"],
    [34786,"2018-01-18T20:00:00","39","2","8,9","2,2","297","27,7","50,6","0","0"],
    [34787,"2018-01-18T21:00:00","66","12","9,5","3,8","101,9","26,5","60,5","0","0"],
    [34788,"2018-01-18T22:00:00","36","11","9,8","3,9","95,7","25,4","66,2","0","0"],
    [34789,"2018-01-18T23:00:00","38","8","9,5","1,8","74,9","25,2","65,5","0","0"],
    [34790,"2018-01-19T00:00:00","27","6","11,5","2,1","105","24,8","65,3","0","0"],
    [34791,"2018-01-19T01:00:00","18","ND","11,6","0,1","76,9","24,7","65,8","0","0"],
    [34792,"2018-01-19T02:00:00","17","ND","10,6","1,7","174,8","24,6","67,7","0","0"],
    [34793,"2018-01-19T03:00:00","24","ND","12,1","2,7","187,8","24,4","70","0","0"],
    [34794,"2018-01-19T04:00:00","18","9","16","2,5","174,9","24,3","73,1","0","0"],
    [34795,"2018-01-19T05:00:00","24","10","13,4","1,3","186,5","24","74,5","0","0"],
    [34796,"2018-01-19T06:00:00","51","19","9,4","1,8","158,1","23,9","74,7","0","0"],
    [34797,"2018-01-19T07:00:00","35","9","10,2","2,4","211,9","23,9","74,7","4,7","0"],
    [34798,"2018-01-19T08:00:00","47","8","13,5","2,4","199,7","24,8","70,6","55,2","0"],
    [34799,"2018-01-19T09:00:00","22","8","23,4","1,7","174,1","27","60,4","141,5","0"],
    [34800,"2018-01-19T10:00:00","25","6","31,9","1,1","148,9","28,3","55,8","232,5","0"],
    [34801,"2018-01-19T11:00:00","34","8","48,9","2,4","177,1","29,7","50,2","279,7","0"],
    [34802,"2018-01-19T12:00:00","33","4","61","1,9","133,7","32,5","40,6","424,8","0"],
    [34803,"2018-01-19T13:00:00","38","9","80,6","2,7","38,7","33","37,6","390,4","0"],
    [34804,"2018-01-19T14:00:00","22","11","81,7","2,4","46,6","33,8","35,7","374,5","0"],
    [34805,"2018-01-19T15:00:00","21","7","79","3,3","71,1","34,4","33,8","323,9","0"],
    [34806,"2018-01-19T16:00:00","45","11","84,6","4","51,9","34","35","197,2","0"],
    [34807,"2018-01-19T17:00:00","36","9","39,4","3,5","10,2","32","40,4","42,5","0"],
    [34808,"2018-01-19T18:00:00","52","11","34,1","1,1","314,9","31,4","41,4","28,4","0"],
    [34809,"2018-01-19T19:00:00","52","14","17,5","2,5","296","29,6","46,4","0","0"],
    [34810,"2018-01-19T20:00:00","55","16","13,7","1,6","126","28,1","54","0","0"],
    [34811,"2018-01-19T21:00:00","58","19","10,3","2,9","92,4","27,2","59,5","0","0"],
    [34812,"2018-01-19T22:00:00","45","13","11","2,7","58","25,9","63,9","0","0"],
    [34813,"2018-01-19T23:00:00","25","9","10,7","0,7","68,2","25,4","65,6","0","0"],
    [34814,"2018-01-20T00:00:00","38","12","11,5","3,1","96,1","25,6","65,6","0","0"],
    [34815,"2018-01-20T01:00:00","16","6","11,6","0,8","72,9","24,8","69,1","0","0"],
    [34816,"2018-01-20T02:00:00","33","4","8,9","0,7","246,8","25,2","67,8","0","0"],
    [34817,"2018-01-20T03:00:00","25","6","9,9","0,3","37,8","25,1","68,2","0","0"],
    [34818,"2018-01-20T04:00:00","31","8","9,4","1,5","176,1","24,8","70,1","0","0"],
    [34819,"2018-01-20T05:00:00","39","10","10,1","1","170,2","25","69,7","0","0"],
    [34820,"2018-01-20T06:00:00","46","13","8,4","1,4","165,4","24,7","71,8","0","0"],
    [34821,"2018-01-20T07:00:00","59","19","8,6","1","140","24,8","71,9","0","0"],
    [34822,"2018-01-20T08:00:00","73","22","9","2,3","92,9","25","72,3","31,3","0"],
    [34823,"2018-01-20T09:00:00","79","25","11,9","2,5","107,4","26,1","68,5","70,3","0"],
    [34824,"2018-01-20T10:00:00","65","20","21,5","2,1","181","27,9","59,6","159,8","0"],
    [34825,"2018-01-20T11:00:00","62","16","37,6","1,7","171","29,9","51,9","275,4","0"],
    [34826,"2018-01-20T12:00:00","45","15","51,9","2,6","94,9","31","46,4","251,9","0"],
    [34827,"2018-01-20T13:00:00","51","17","63,9","2,5","88,8","31,4","45,1","191,4","0"],
    [34828,"2018-01-20T14:00:00","34","ND","61,3","3,7","82,4","31,3","46","198,4","0"],
    [34829,"2018-01-20T15:00:00","42","14","75,3","2,2","67,5","31,9","44,1","173,7","0"],
    [34830,"2018-01-20T16:00:00","57","16","86,7","1,6","41,4","31,6","44,2","94,3","0"],
    [34831,"2018-01-20T17:00:00","60","20","89,2","1,7","160,5","31,6","44,4","85,3","0"],
    [34832,"2018-01-20T18:00:00","82","35","67,4","2,4","143,1","31","47,6","24,9","0"],
    [34833,"2018-01-20T19:00:00","102","36","57,7","2,8","233,5","29,9","51,9","0","0"],
    [34834,"2018-01-20T20:00:00","56","13","14,5","3,5","252,1","29,4","48,4","0","0"],
    [34835,"2018-01-20T21:00:00","74","17","14,9","3,6","93,7","28,1","58,2","0","0"],
    [34836,"2018-01-20T22:00:00","59","14","10,1","2,4","76,5","26,9","64","0","0"],
    [34837,"2018-01-20T23:00:00","39","11","9,4","1,8","95","26,5","64,5","0","0"],
    [34838,"2018-01-21T00:00:00","44","7","8,8","1,9","96,6","26,4","64,4","0","0"],
    [34839,"2018-01-21T01:00:00","39","5","8,7","1,3","151,9","26,6","64,3","0","0"],
    [34840,"2018-01-21T02:00:00","14","3","9,3","2,4","119","25,5","69,2","0","0"],
    [34841,"2018-01-21T03:00:00","17","ND","9,6","0,5","231,5","25,3","69,3","0","0"],
    [34842,"2018-01-21T04:00:00","45","5","8,9","2","216,4","25,5","69,6","0","0"],
    [34843,"2018-01-21T05:00:00","56","14","8,6","1,4","135,4","25,5","71","0","0"],
    [34844,"2018-01-21T06:00:00","45","12","8,3","2,1","127,7","25","73,3","0","0"],
    [34845,"2018-01-21T07:00:00","40","13","8,6","0,5","149,5","24,8","73,3","5,7","0"],
    [34846,"2018-01-21T08:00:00","62","20","11,3","2,5","176,9","25,8","70,8","63","0"],
    [34847,"2018-01-21T09:00:00","ND","15","16,2","2,2","183,3","27,3","63,9","116,1","0"],
    [34848,"2018-01-21T10:00:00","36","14","25,4","1,8","125,3","28,7","57,4","147,8","0"],
    [34849,"2018-01-21T11:00:00","38","14","46,9","2","96","30,7","50,7","313,2","0"],
    [34850,"2018-01-21T12:00:00","44","14","66,5","1,6","99,7","32,2","44,7","311,9","0"],
    [34851,"2018-01-21T13:00:00","57","20","77,2","1,9","134,1","33,2","41,9","311,7","0"],
    [34852,"2018-01-21T14:00:00","50","14","84,1","2,2","169,8","34,4","38,2","314,8","0"],
    [34853,"2018-01-21T15:00:00","53","21","74,5","3,7","81,3","33,7","39,2","167,2","0"],
    [34854,"2018-01-21T16:00:00","49","14","75,1","1,4","91,6","33","40,4","121,3","0"],
    [34855,"2018-01-21T17:00:00","32","9","54,4","2,6","351,3","32","42,8","43,5","0"],
    [34856,"2018-01-21T18:00:00","45","10","39,6","2,4","326,7","31,4","43,1","20","0"],
    [34857,"2018-01-21T19:00:00","40","7","27,1","3,5","299","30,1","44,9","0","0"],
    [34858,"2018-01-21T20:00:00","34","10","17,4","2,8","316,5","29,5","47,3","0","0"],
    [34859,"2018-01-21T21:00:00","41","13","12,1","3,2","106,3","27,9","57,1","0","0"],
    [34860,"2018-01-21T22:00:00","33","6","10,1","3,3","105,1","26,9","62,8","0","0"],
    [34861,"2018-01-21T23:00:00","29","2","9,9","3,4","75,5","26,8","62,8","0","0"],
    [34862,"2018-01-22T00:00:00","13","4","12,7","1,6","30,1","26,9","61","0","0"],
    [34863,"2018-01-22T01:00:00","20","4","9,2","1,1","178,2","26,4","66,1","0","0"],
    [34864,"2018-01-22T02:00:00","29","10","8,6","1,4","145,8","26","68,8","0","0"],
    [34865,"2018-01-22T03:00:00","23","6","9,1","1,8","172,3","25,7","69,5","0","0"],
    [34866,"2018-01-22T04:00:00","32","4","8,9","1,7","81,2","25,3","71,3","0","0"],
    [34867,"2018-01-22T05:00:00","62","9","8,1","1,2","77,6","24,7","74,2","0","0"],
    [34868,"2018-01-22T06:00:00","85","28","8,5","0,8","74,2","24,9","72,4","0","0"],
    [34869,"2018-01-22T07:00:00","85","16","9,2","2,3","67,8","25","71,5","0","0"],
    [34870,"2018-01-22T08:00:00","64","17","9,1","2,5","74,5","25,4","71,2","60,2","0"],
    [34871,"2018-01-22T09:00:00","62","18","12,4","2,3","54","27","64,4","92,8","0"],
    [34872,"2018-01-22T10:00:00","30","ND","18","1,9","41,7","28,9","56,8","172,7","0"],
    [34873,"2018-01-22T11:00:00","22","ND","27,5","2,7","94,1","30,7","48,4","202,3","0"],
    [34874,"2018-01-22T12:00:00","28","ND","33,6","2,6","93,7","31,8","45,1","288,3","0"],
    [34875,"2018-01-22T13:00:00","22","6","46","2,8","91,8","33,6","38,8","390","0"],
    [34876,"2018-01-22T14:00:00","27","6","59,9","4,3","62,1","34,7","36","378,2","0"],
    [34877,"2018-01-22T15:00:00","28","5","50","4,3","38,8","33,6","38,6","195,8","0"],
    [34878,"2018-01-22T16:00:00","40","3","34,4","2,7","45,5","32,9","40,5","84","0"],
    [34879,"2018-01-22T17:00:00","18","1","40,2","2,3","293,6","32,4","39,2","40,2","0"],
    [34880,"2018-01-22T18:00:00","35","4","26,9","3,6","300,7","31,3","42,2","15,6","0"],
    [34881,"2018-01-22T19:00:00","56","6","11,9","3,1","292,2","30,1","45,3","0","0"],
    [34882,"2018-01-22T20:00:00","59","14","10,3","2","41,4","28,9","50,9","0","0"],
    [34883,"2018-01-22T21:00:00","44","10","9,2","2,1","64,4","27,8","57,2","0","0"],
    [34884,"2018-01-22T22:00:00","41","11","8,8","2,5","114,4","27","61,9","0","0"],
    [34885,"2018-01-22T23:00:00","56","13","11,5","2,6","180,6","26,3","66","0","0"],
    [34886,"2018-01-23T00:00:00","22","10","12,5","2,5","181,1","25,3","71,9","0","0"],
    [34887,"2018-01-23T01:00:00","ND","ND","19,8","3","192,1","24,8","71,1","0","0,25"],
    [34888,"2018-01-23T02:00:00","25","3","20","1,6","172,1","24,7","69,8","0","0"],
    [34889,"2018-01-23T03:00:00","16","2","17,7","2,2","131,7","24,1","73,4","0","1,02"],
    [34890,"2018-01-23T04:00:00","19","5","13,1","2,5","80,4","23,3","77,2","0","0,51"],
    [34891,"2018-01-23T05:00:00","39","8","10,2","0,4","122,6","23,5","74,6","0","0"],
    [34892,"2018-01-23T06:00:00","48","18","9,2","0,7","54,5","23,9","71,8","0","0"],
    [34893,"2018-01-23T07:00:00","90","25","8,6","1,1","110,5","24","72,6","0","0"],
    [34894,"2018-01-23T08:00:00","62","23","10,2","1,4","8,1","25","67,1","29,1","0"],
    [34895,"2018-01-23T09:00:00","81","28","12,6","0,7","148,5","26,2","64,8","80,3","0"],
    [34896,"2018-01-23T10:00:00","59","22","23,2","0,7","78,9","28,3","58,2","182,5","0"],
    [34897,"2018-01-23T11:00:00","40","11","38,1","1","23,1","29,6","53","272,1","0"],
    [34898,"2018-01-23T12:00:00","41","13","50,1","1,8","80,8","31","47,6","280,2","0"],
    [34899,"2018-01-23T13:00:00","38","10","58,6","2,5","56","32,9","40","417,9","0"],
    [34900,"2018-01-23T14:00:00","29","9","64,1","4","54,6","32,9","40,3","267,6","0"],
    [34901,"2018-01-23T15:00:00","40","6","65,8","3","53,4","32,3","41,3","139","0"],
    [34902,"2018-01-23T16:00:00","33","4","47,9","3,3","65,9","32,1","41,8","96,1","0"],
    [34903,"2018-01-23T17:00:00","25","5","39,9","3,4","42,3","32","42,3","78,5","0"],
    [34904,"2018-01-23T18:00:00","38","3","26,4","3,3","17,1","31,2","43,9","22,4","0"],
    [34905,"2018-01-23T19:00:00","37","6","11,6","2,7","302,7","29,8","46,3","0","0"],
    [34906,"2018-01-23T20:00:00","63","19","9,4","1,5","15,9","28,6","51,1","0","0"],
    [34907,"2018-01-23T21:00:00","55","23","9","2,9","88,5","26,8","61,3","0","0"],
    [34908,"2018-01-23T22:00:00","39","4","9,8","4","97,6","25,6","66,2","0","0"],
    [34909,"2018-01-23T23:00:00","45","15","9","1,7","84,4","25,5","65,5","0","0"],
    [34910,"2018-01-24T00:00:00","32","14","9,5","1,7","86,2","25,4","65,7","0","0"],
    [34911,"2018-01-24T01:00:00","48","13","9,2","0,3","298,2","25","67,7","0","0"],
    [34912,"2018-01-24T02:00:00","33","9","8,5","1,5","168","24,3","71,8","0","0"],
    [34913,"2018-01-24T03:00:00","53","17","8,6","1,7","189,4","23,5","74,5","0","0"],
    [34914,"2018-01-24T04:00:00","47","11","8,3","1,7","213,6","23,8","73,9","0","0"],
    [34915,"2018-01-24T05:00:00","66","24","8,6","1,2","95,9","23,9","73,3","0","0"],
    [34916,"2018-01-24T06:00:00","106","43","8,9","2,5","85,7","22,7","76","0","0"],
    [34917,"2018-01-24T07:00:00","107","34","8,1","1","38,3","22,4","76,1","6,9","0"],
    [34918,"2018-01-24T08:00:00","116","44","10,2","1,8","112,9","24,5","70,7","70,9","0"],
    [34919,"2018-01-24T09:00:00","91","27","17,2","1,7","159,6","27,2","58,9","187,3","0"],
    [34920,"2018-01-24T10:00:00","60","23","33,6","2,4","90,7","28,9","52,6","272,4","0"],
    [34921,"2018-01-24T11:00:00","87","28","55,9","2,8","138,1","31,1","47,1","340,8","0"],
    [34922,"2018-01-24T12:00:00","78","20","79,6","1,6","135,9","32,8","41,5","414,6","0"],
    [34923,"2018-01-24T13:00:00","60","17","102,1","1,2","145,6","33,9","37,4","372","0"],
    [34924,"2018-01-24T14:00:00","58","20","113,1","2,7","95,3","34,7","34,7","340,4","0"],
    [34925,"2018-01-24T15:00:00","53","23","119,9","2,9","118,1","35,4","31,9","304,5","0"],
    [34926,"2018-01-24T16:00:00","65","18","124,1","2,8","29,7","34,7","33,9","161,8","0"],
    [34927,"2018-01-24T17:00:00","62","13","48,5","5,2","21,4","33,7","36","134","0"],
    [34928,"2018-01-24T18:00:00","53","10","37,3","4,4","343,1","32,3","38,6","37,3","0"],
    [34929,"2018-01-24T19:00:00","40","7","24,2","4,8","296,9","30,3","43,7","0","0"],
    [34930,"2018-01-24T20:00:00","71","18","18,1","2,1","323,3","29,3","47,5","0","0"],
    [34931,"2018-01-24T21:00:00","64","26","10,6","3,2","90,8","26,9","58,5","0","0"],
    [34932,"2018-01-24T22:00:00","54","12","9,8","2,8","104,6","25,8","63,6","0","0"],
    [34933,"2018-01-24T23:00:00","24","10","9,4","0,9","115,8","25,6","64,5","0","0"],
    [34934,"2018-01-25T00:00:00","52","16","9","0,9","212,2","25,4","65,7","0","0"],
    [34935,"2018-01-25T01:00:00","44","15","8,7","2,3","95,4","25,1","66,6","0","0"],
    [34936,"2018-01-25T02:00:00","40","4","9,1","2,4","90,3","24,2","69,8","0","0"],
    [34937,"2018-01-25T03:00:00","32","ND","10,7","0,5","151,9","24,2","69,6","0","0"],
    [34938,"2018-01-25T04:00:00","55","13","10,3","2,7","242,5","24,6","68,9","0","0"],
    [34939,"2018-01-25T05:00:00","47","10","8,7","1,3","190","24,5","69,5","0","0"],
    [34940,"2018-01-25T06:00:00","72","21","8,8","1,7","124,9","24,6","69,6","0","0"],
    [34941,"2018-01-25T07:00:00","69","22","8,4","2,3","127,7","23,8","74,1","8,8","0"],
    [34942,"2018-01-25T08:00:00","108","28","9,4","3,4","102","23,9","73,4","34,6","0"],
    [34943,"2018-01-25T09:00:00","105","32","10,9","1,3","127,8","25,2","67,7","68","0"],
    [34944,"2018-01-25T10:00:00","73","14","24,8","1,2","306","27,3","58,9","202,4","0"],
    [34945,"2018-01-25T11:00:00","53","16","50,8","1,3","175,1","30,2","47,7","353,3","0"],
    [34946,"2018-01-25T12:00:00","43","6","65,7","1,9","169,1","32,1","41,8","389,5","0"],
    [34947,"2018-01-25T13:00:00","42","5","88,2","1,4","212,5","33,4","38,6","366,4","0"],
    [34948,"2018-01-25T14:00:00","51","7","83,2","2,9","127,5","34,7","34,6","394,1","0"],
    [34949,"2018-01-25T15:00:00","60","14","92","2,9","93","35,2","33,8","324,3","0"],
    [34950,"2018-01-25T16:00:00","64","17","101,2","4,7","34,3","33,9","37,1","165,4","0"],
    [34951,"2018-01-25T17:00:00","58","13","64,4","6,1","355,2","32,1","42,4","75,5","0"],
    [34952,"2018-01-25T18:00:00","60","17","41,7","4,2","12,3","31,4","44,2","36,6","0"],
    [34953,"2018-01-25T19:00:00","95","32","19,4","3,4","31,8","30","48","0","0"],
    [34954,"2018-01-25T20:00:00","65","17","13,8","2,7","15,9","28,8","51,2","0","0"],
    [34955,"2018-01-25T21:00:00","70","15","10,4","4","76,3","27,1","60,2","0","0"],
    [34956,"2018-01-25T22:00:00","48","3","9,6","3,8","72,2","26,4","63,1","0","0"],
    [34957,"2018-01-25T23:00:00","37","2","10,2","1,8","44,7","26","64,2","0","0"],
    [34958,"2018-01-26T00:00:00","72","9","10,3","2,2","78,7","25,8","64,9","0","0"],
    [34959,"2018-01-26T01:00:00","57","16","9,6","0,8","204,5","25,7","65,5","0","0"],
    [34960,"2018-01-26T02:00:00","55","3","9,4","2,1","115,6","24,8","68,7","0","0"],
    [34961,"2018-01-26T03:00:00","43","ND","10,5","0,9","74","24,5","70,1","0","0"],
    [34962,"2018-01-26T04:00:00","39","ND","8,7","0,6","358,9","25,2","67,2","0","0"],
    [34963,"2018-01-26T05:00:00","46","7","9,8","1,2","197,4","25,4","68","0","0"],
    [34964,"2018-01-26T06:00:00","76","34","9,2","2,5","128,4","25,2","69,5","0","0"],
    [34965,"2018-01-26T07:00:00","62","18","8,6","1,6","168,6","25,3","69","0","0"],
    [34966,"2018-01-26T08:00:00","68","19","9,8","1,6","220,3","25,4","68,2","28,1","0"],
    [34967,"2018-01-26T09:00:00","113","30","11,5","2,4","116,3","26,7","64,3","82,3","0"],
    [34968,"2018-01-26T10:00:00","89","24","13,7","4","106,8","26,7","64,7","52,2","0"],
    [34969,"2018-01-26T11:00:00","94","30","27,6","0,3","196","28,2","59,4","142,5","0"],
    [34970,"2018-01-26T12:00:00","94","28","51,4","0,7","250,1","29,7","53,4","210","0"],
    [34971,"2018-01-26T13:00:00","86","29","84,1","0,8","322,1","30,7","48,2","205,4","0"],
    [34972,"2018-01-26T14:00:00","111","33","107,8","2,4","43,8","31,4","45,9","197,1","0"],
    [34973,"2018-01-26T15:00:00","85","26","104,3","3,3","73,7","31,7","43,9","180,9","0"],
    [34974,"2018-01-26T16:00:00","64","26","93,1","3","78,5","32","42,9","114,7","0"],
    [34975,"2018-01-26T17:00:00","69","20","66,3","3,3","60,6","32","42,8","72,9","0"],
    [34976,"2018-01-26T18:00:00","77","23","41,6","3,2","60","31,6","45,1","40,6","0"],
    [34977,"2018-01-26T19:00:00","76","19","19","2","14,3","30,5","48,3","0","0"],
    [34978,"2018-01-26T20:00:00","40","4","12,2","4","295,6","29,7","46","0","0"],
    [34979,"2018-01-26T21:00:00","65","20","9,6","1,9","71","28,2","54,3","0","0"],
    [34980,"2018-01-26T22:00:00","59","13","9","2,9","78,7","26,6","62,6","0","0"],
    [34981,"2018-01-26T23:00:00","44","14","9,3","1","12,1","26,3","61,4","0","0"],
    [34982,"2018-01-27T00:00:00","49","13","8,9","0,9","117,4","26,3","61,3","0","0"],
    [34983,"2018-01-27T01:00:00","34","6","9,5","2,6","118,7","25,6","64,5","0","0"],
    [34984,"2018-01-27T02:00:00","33","5","8,7","1,2","50,3","24,7","68,1","0","0"],
    [34985,"2018-01-27T03:00:00","44","27","9,7","1","312,9","24,2","69,4","0","0"],
    [34986,"2018-01-27T04:00:00","45","19","9,1","1,4","316,8","24,5","67,3","0","0"],
    [34987,"2018-01-27T05:00:00","39","13","8,2","1,8","140,2","24,1","70,3","0","0"],
    [34988,"2018-01-27T06:00:00","68","26","8,5","0,7","181","23,7","73,5","0","0"],
    [34989,"2018-01-27T07:00:00","98","35","8,9","1,2","144,3","24","72,9","8,1","0"],
    [34990,"2018-01-27T08:00:00","103","38","9,9","2","70,8","25,1","69,1","68,4","0"],
    [34991,"2018-01-27T09:00:00","78","17","15,8","2,3","26,3","26","63","134,6","0"],
    [34992,"2018-01-27T10:00:00","69","12","23,2","3","101,3","27,5","58,2","128,7","0"],
    [34993,"2018-01-27T11:00:00","60","18","52,2","1,8","160,5","31","48,3","341,4","0"],
    [34994,"2018-01-27T12:00:00","61","18","80,8","2,1","170","32,3","42,5","271,3","0"],
    [34995,"2018-01-27T13:00:00","60","20","79,3","2,4","137,6","32,7","40,9","227,2","0"],
    [34996,"2018-01-27T14:00:00","69","18","86,3","3,2","64,2","32,7","41,3","220,5","0"],
    [34997,"2018-01-27T15:00:00","55","13","109,8","2,2","13,1","33,5","38,4","204,1","0"],
    [34998,"2018-01-27T16:00:00","76","23","94,2","3,3","73,1","33,5","37,7","136,1","0"],
    [34999,"2018-01-27T17:00:00","69","20","75,9","2,7","97,7","32,9","39,2","65,5","0"],
    [35000,"2018-01-27T18:00:00","85","24","71,8","2,4","158,9","32,1","41,4","25,5","0"],
    [35001,"2018-01-27T19:00:00","93","24","49,6","2,5","240,1","30,6","47,1","0","0"],
    [35002,"2018-01-27T20:00:00","45","7","17,2","3,1","284,4","29,7","48,3","0","0"],
    [35003,"2018-01-27T21:00:00","82","22","13,3","0,7","8,5","28,8","52,7","0","0"],
    [35004,"2018-01-27T22:00:00","94","26","10,1","3,1","98,1","26,7","64,8","0","0"],
    [35005,"2018-01-27T23:00:00","69","10","9,2","1,9","70,4","26,5","65,5","0","0"],
    [35006,"2018-01-28T00:00:00","45","14","9,3","1,9","356,4","26,6","64","0","0"],
    [35007,"2018-01-28T01:00:00","40","12","12,2","0,8","88","27","61,5","0","0"],
    [35008,"2018-01-28T02:00:00","51","16","10,8","2,4","135,2","26,1","65","0","0"],
    [35009,"2018-01-28T03:00:00","48","6","11,9","1,2","122","25,8","65,5","0","0"],
    [35010,"2018-01-28T04:00:00","63","19","10","1,6","154,3","25,4","67,9","0","0"],
    [35011,"2018-01-28T05:00:00","59","12","10,5","2,1","187,3","24,8","72,6","0","0"],
    [35012,"2018-01-28T06:00:00","50","12","8,9","0,9","179,6","24,5","74,5","0","0"],
    [35013,"2018-01-28T07:00:00","69","29","9,1","2,4","49,2","24,6","74","0","0"],
    [35014,"2018-01-28T08:00:00","77","33","8,9","1,9","83,8","24,4","74,8","16,8","0"],
    [35015,"2018-01-28T09:00:00","98","35","12,5","2,8","93","26,1","67,9","134,3","0"],
    [35016,"2018-01-28T10:00:00","73","21","29,8","0,8","358,9","28,4","58,3","150,5","0"],
    [35017,"2018-01-28T11:00:00","74","18","43,5","3,4","175,4","30,3","52,1","192,5","0"],
    [35018,"2018-01-28T12:00:00","57","19","57,6","1,9","179,6","31,7","46,8","271,4","0"],
    [35019,"2018-01-28T13:00:00","56","15","65,3","2,6","192,3","32","45,3","216,8","0"],
    [35020,"2018-01-28T14:00:00","66","24","74,4","3,3","188,9","32,2","45,6","208,6","0"],
    [35021,"2018-01-28T15:00:00","69","23","74,9","4,7","198,9","31,7","46,5","175,2","0"],
    [35022,"2018-01-28T16:00:00","53","19","57,4","2,4","180,6","31,9","43,8","113,4","0"],
    [35023,"2018-01-28T17:00:00","58","20","59,9","2,1","38,3","31,5","43,9","66,1","0"],
    [35024,"2018-01-28T18:00:00","62","24","52","3,1","16,6","31","47,1","37,4","0"],
    [35025,"2018-01-28T19:00:00","44","12","19,6","2,8","280,5","29,8","48,5","0","0"],
    [35026,"2018-01-28T20:00:00","48","10","12,1","2,1","340,6","29","51,7","0","0"],
    [35027,"2018-01-28T21:00:00","82","25","9,8","2,5","104,7","28","56,8","0","0"],
    [35028,"2018-01-28T22:00:00","42","6","10,3","3,2","116","26,7","63,3","0","0"],
    [35029,"2018-01-28T23:00:00","46","8","9,5","1,7","107,7","26","65,2","0","0"],
    [35030,"2018-01-29T00:00:00","54","7","8,7","1,5","183,4","25,9","66,6","0","0"],
    [35031,"2018-01-29T01:00:00","43","7","9","1","147,2","25,7","68,4","0","0"],
    [35032,"2018-01-29T02:00:00","52","7","9,5","1,2","137,1","25,5","70,2","0","0"],
    [35033,"2018-01-29T03:00:00","68","20","10,2","0,4","182,7","25","73,2","0","0"],
    [35034,"2018-01-29T04:00:00","60","17","11","0,8","100,3","25,3","71,2","0","0"],
    [35035,"2018-01-29T05:00:00","80","23","8,7","1,3","115,4","25","72,6","0","0"],
    [35036,"2018-01-29T06:00:00","69","18","8,9","0,9","331,9","25,2","72,1","0","0"],
    [35037,"2018-01-29T07:00:00","99","35","9,3","1,4","140","25","73,6","5,4","0"],
    [35038,"2018-01-29T08:00:00","85","23","9,9","2,4","195,8","25,8","69,5","39,5","0"],
    [35039,"2018-01-29T09:00:00","81","22","15,4","0,9","188","27,1","62,8","100,1","0"],
    [35040,"2018-01-29T10:00:00","53","14","37,2","1,6","297,2","29,9","51,1","262,7","0"],
    [35041,"2018-01-29T11:00:00","67","17","65,6","0,7","158,4","31,9","45,4","305,6","0"],
    [35042,"2018-01-29T12:00:00","64","18","74,2","2,2","147,3","33,6","40,5","379,8","0"],
    [35043,"2018-01-29T13:00:00","49","11","84,7","1,9","264,2","34,6","36,7","420,9","0"],
    [35044,"2018-01-29T14:00:00","64","21","93,1","1,7","62,2","35,4","34,9","369,5","0"],
    [35045,"2018-01-29T15:00:00","77","26","148,7","3,8","348,1","35","36,6","223,6","0"],
    [35046,"2018-01-29T16:00:00","55","22","85,9","2,9","20","35,1","35,4","159,8","0"],
    [35047,"2018-01-29T17:00:00","51","4","43,9","5,7","302,6","34,2","36,2","109,8","0"],
    [35048,"2018-01-29T18:00:00","38","3","26,5","7,4","295,6","31,6","42,9","16,9","0"],
    [35049,"2018-01-29T19:00:00","27","3","18,2","6,3","301","30,6","45,4","0","0"],
    [35050,"2018-01-29T20:00:00","58","9","14,6","2,8","11,9","29,8","49","0","0"],
    [35051,"2018-01-29T21:00:00","78","29","11,2","4,4","81,6","27,6","59,3","0","0"],
    [35052,"2018-01-29T22:00:00","47","7","10,4","0,6","134,4","27,7","59,2","0","0"],
    [35053,"2018-01-29T23:00:00","54","10","11","1,7","55,3","27,5","60,1","0","0"],
    [35054,"2018-01-30T00:00:00","42","12","14,3","2,3","67,2","26,9","61,2","0","0"],
    [35055,"2018-01-30T01:00:00","18","6","13,8","1,9","98,4","26,1","64,3","0","0"],
    [35056,"2018-01-30T02:00:00","21","3","13,4","0,6","288,4","26","64,9","0","0"],
    [35057,"2018-01-30T03:00:00","44","7","11,1","2,2","201,1","25,5","68,6","0","0"],
    [35058,"2018-01-30T04:00:00","38","7","10,4","1,8","165,9","25,7","68,9","0","0"],
    [35059,"2018-01-30T05:00:00","58","14","9,3","1,7","116,7","25,4","69,6","0","0"],
    [35060,"2018-01-30T06:00:00","85","16","9,1","1,9","162,7","25,6","67,8","0","0"],
    [35061,"2018-01-30T07:00:00","88","28","9,1","1,2","106,3","25,4","68,9","0","0"],
    [35062,"2018-01-30T08:00:00","94","19","9,2","1","241,2","25,7","67,5","7,8","0"],
    [35063,"2018-01-30T09:00:00","117","34","10","0,9","161","26,6","64,9","27,9","0"],
    [35064,"2018-01-30T10:00:00","95","16","11,9","1,9","108,3","27,4","62,3","47,4","0"],
    [35065,"2018-01-30T11:00:00","89","19","14,7","3","47,4","27,8","61,3","75,3","0"],
    [35066,"2018-01-30T12:00:00","69","17","17,1","3,9","54","28,4","58,6","87,9","0"],
    [35067,"2018-01-30T13:00:00","54","15","27,1","2","69,3","30,2","50,9","177,2","0"],
    [35068,"2018-01-30T14:00:00","40","7","44,7","2,6","3,7","30,9","48,3","186,7","0"],
    [35069,"2018-01-30T15:00:00","38","4","52,1","3,1","55,5","32,5","43,7","253,5","0"],
    [35070,"2018-01-30T16:00:00","28","3","45,1","4,3","55,7","33,1","41,7","223,4","0"],
    [35071,"2018-01-30T17:00:00","37","8","32","4,4","64,1","32,4","41,9","61,7","0"],
    [35072,"2018-01-30T18:00:00","72","13","21,4","3,9","63,9","31,3","47,1","24,4","0"],
    [35073,"2018-01-30T19:00:00","55","7","12,1","2,6","302,2","29,9","48,3","0","0"],
    [35074,"2018-01-30T20:00:00","82","28","11,8","1,8","6,9","28,8","51,6","0","0"],
    [35075,"2018-01-30T21:00:00","77","21","10,2","2,6","69,4","27,7","55,7","0","0"],
    [35076,"2018-01-30T22:00:00","48","11","10,1","3,7","97,4","25,8","64,8","0","0"],
    [35077,"2018-01-30T23:00:00","36","11","10,3","2,8","67,6","25,4","66","0","0"],
    [35078,"2018-01-31T00:00:00","35","7","10,6","0,9","47,4","25,4","65,9","0","0"],
    [35079,"2018-01-31T01:00:00","36","9","10,8","1","79,9","25,6","64,9","0","0"],
    [35080,"2018-01-31T02:00:00","28","6","13,2","0,8","83","25,7","64,5","0","0"],
    [35081,"2018-01-31T03:00:00","27","5","10,7","1,7","75,5","24,7","68,4","0","0"],
    [35082,"2018-01-31T04:00:00","37","4","8,4","2,7","102,1","23,8","72,7","0","0"],
    [35083,"2018-01-31T05:00:00","56","12","8,5","2,4","85,8","23,7","72,4","0","0"],
    [35084,"2018-01-31T06:00:00","79","25","8,2","0,2","47,3","23,8","71,2","0","0"],
    [35085,"2018-01-31T07:00:00","145","43","8,8","1,3","136,2","23,9","72,3","5,2","0"],
    [35086,"2018-01-31T08:00:00","77","23","11,2","1,6","116,8","25,8","64,9","78,2","0"],
    [35087,"2018-01-31T09:00:00","60","14","23,2","1,3","157,6","28,1","56,4","173,9","0"],
    [35088,"2018-01-31T10:00:00","55","14","39,3","2,5","119,8","29,9","50,7","270,4","0"],
    [35089,"2018-01-31T11:00:00","55","16","67","2","128,5","32","44,1","341,8","0"],
    [35090,"2018-01-31T12:00:00","66","23","89","1,1","98,5","33,6","39,4","399,5","0"],
    [35091,"2018-01-31T13:00:00","42","12","82","1,8","93,3","35,2","35,2","412,6","0"],
    [35092,"2018-01-31T14:00:00","42","14","88,8","2,4","100,5","35,8","33,7","352,9","0"],
    [35093,"2018-01-31T15:00:00","61","16","96,6","3,3","140,6","36,8","31,4","323,1","0"],
    [35094,"2018-01-31T16:00:00","59","8","102,7","2","79,7","36,2","31,6","181,9","0"],
    [35095,"2018-01-31T17:00:00","54","7","84,4","3,9","334,4","35,5","34,9","153,3","0"],
    [35096,"2018-01-31T18:00:00","59","5","55,9","6","292,3","33,5","39,1","50,6","0"],
    [35097,"2018-01-31T19:00:00","56","6","29,7","5,2","289,3","31,3","43,8","0","0"],
    [35098,"2018-01-31T20:00:00","66","14","17,2","2,1","23,4","30,1","48,4","0","0"],
    [35099,"2018-01-31T21:00:00","63","17","10,6","2,7","90,3","28,2","56,9","0","0"],
    [35100,"2018-01-31T22:00:00","49","2","10,8","3,4","116,4","27,5","60,6","0","0"],
    [35101,"2018-01-31T23:00:00","29","6","11,5","3,6","100,6","26,8","63,9","0","0"],
    [35102,"2018-02-01T00:00:00","26","ND","12,7","3,3","90,1","26,5","63,9","0","0"],
    [35103,"2018-02-01T01:00:00","39","ND","14,7","1,7","87,1","26,2","64,5","0","0"],
    [35104,"2018-02-01T02:00:00","22","ND","13","1,7","14,3","26,1","64,9","0","0"],
    [35105,"2018-02-01T03:00:00","32","ND","11,7","1,3","357,6","26,2","65,7","0","0"],
    [35106,"2018-02-01T04:00:00","22","ND","ND","0,6","358,5","26,4","65","0","0"],
    [35107,"2018-02-01T05:00:00","78","ND","ND","1,9","118,5","26,4","65,2","0","0"],
    [35108,"2018-02-01T06:00:00","112","ND","ND","1,1","152","26,4","65,5","0","0"],
    [35109,"2018-02-01T07:00:00","107","ND","ND","2,4","99,8","26,2","67,8","4,8","0"],
    [35110,"2018-02-01T08:00:00","87","ND","ND","1,3","0,2","26,6","65,2","27,4","0"],
    [35111,"2018-02-01T09:00:00","92","ND","ND","2,5","67,4","27,8","62,8","67,3","0"],
    [35112,"2018-02-01T10:00:00","56","ND","ND","1,5","60,3","29,1","58,1","125","0"],
    [35113,"2018-02-01T11:00:00","47","ND","ND","2","185,7","31,7","50","302,9","0"],
    [35114,"2018-02-01T12:00:00","30","ND","ND","3,1","194,4","33,5","43","346,5","0"],
    [35115,"2018-02-01T13:00:00","48","ND","ND","2,6","169,8","34,4","39,5","325","0"],
    [35116,"2018-02-01T14:00:00","34","ND","ND","1,2","142,3","35,8","34,4","369,8","0"],
    [35117,"2018-02-01T15:00:00","56","ND","ND","2,7","70,3","35,5","34","194,9","0"],
    [35118,"2018-02-01T16:00:00","66","ND","86,7","2,8","341,3","34,5","37,1","93,4","0"],
    [35119,"2018-02-01T17:00:00","59","ND","58,1","5,8","287,7","34,2","37,4","112","0"],
    [35120,"2018-02-01T18:00:00","51","ND","29","7,6","289,8","32","42,9","37,2","0"],
    [35121,"2018-02-01T19:00:00","41","ND","15,1","6,4","305","31","44,6","0","0"],
    [35122,"2018-02-01T20:00:00","46","ND","11,3","1,9","345,2","30,5","47,4","ND","0"],
    [35123,"2018-02-01T21:00:00","65","ND","9,3","3,5","96,5","28,8","55,7","ND","0"],
    [35124,"2018-02-01T22:00:00","36","ND","10","0,7","125,5","28,5","57,3","ND","0"],
    [35125,"2018-02-01T23:00:00","48","ND","11,3","2,3","252,2","29,2","54,3","ND","0"],
    [35126,"2018-02-02T00:00:00","31","ND","19","5,3","255,2","29,3","50,8","ND","0"],
    [35127,"2018-02-02T01:00:00","19","ND","15,9","1,2","165,4","28,5","56,8","ND","0"],
    [35128,"2018-02-02T02:00:00","24","ND","15,5","1,7","175,2","26,3","71,2","ND","8,13"],
    [35129,"2018-02-02T03:00:00","8","ND","17,4","1","270,8","25,3","75","ND","0,25"],
    [35130,"2018-02-02T04:00:00","7","ND","13,5","0,9","157,1","25,5","74,4","ND","1,27"],
    [35131,"2018-02-02T05:00:00","9","ND","10,4","1","101,6","24,9","77,8","ND","13,97"],
    [35132,"2018-02-02T06:00:00","18","ND","9,3","1","104,6","24,5","80,9","ND","13,46"],
    [35133,"2018-02-02T07:00:00","25","ND","8,8","2","78,8","24,4","81","ND","4,83"],
    [35134,"2018-02-02T08:00:00","25","ND","9,5","1,9","32,9","24,8","79,4","22","1,52"],
    [35135,"2018-02-02T09:00:00","20","ND","11,8","1,7","307,1","26,2","73,8","106,6","0"],
    [35136,"2018-02-02T10:00:00","39","ND","22,1","1,4","282,3","28,4","64,1","178,2","0"],
    [35137,"2018-02-02T11:00:00","42","ND","42,4","1,1","189,1","30,7","55","247,6","0"],
    [35138,"2018-02-02T12:00:00","65","ND","59,2","1,7","78","31,1","53","220,4","0"],
    [35139,"2018-02-02T13:00:00","39","ND","58","2,2","125","32,9","46,5","306,6","0"],
    [35140,"2018-02-02T14:00:00","44","ND","102,8","2,2","262,4","32,8","46,2","240,5","0"],
    [35141,"2018-02-02T15:00:00","64","ND","139,1","4,1","348,8","33,5","43,2","237,3","0"],
    [35142,"2018-02-02T16:00:00","21","ND","36,3","4,7","320,6","33,4","39,2","190,7","0"],
    [35143,"2018-02-02T17:00:00","14","ND","27,5","4","302,1","32,3","41","65,3","0"],
    [35144,"2018-02-02T18:00:00","59","ND","13,6","1,8","53,1","31,2","46,8","17,3","0"],
    [35145,"2018-02-02T19:00:00","63","ND","9,8","1,3","60,6","29,7","52,5","ND","0"],
    [35146,"2018-02-02T20:00:00","43","ND","22,4","3,3","200,5","27,7","58,6","ND","0"],
    [35147,"2018-02-02T21:00:00","65","ND","14,2","2,5","147,2","26,8","61,1","ND","0"],
    [35148,"2018-02-02T22:00:00","53","ND","13,4","3","146,6","26,1","62,4","ND","0"],
    [35149,"2018-02-02T23:00:00","48","ND","13,7","1,9","132,2","25,9","62,3","ND","0"],
    [35150,"2018-02-03T00:00:00","38","ND","12,3","1,8","162,9","25,5","65,5","ND","0"],
    [35151,"2018-02-03T01:00:00","30","ND","12,9","1,5","248,7","25,4","68,3","ND","0"],
    [35152,"2018-02-03T02:00:00","24","ND","10,5","1,8","117,4","24,9","72,2","ND","0"],
    [35153,"2018-02-03T03:00:00","30","ND","10,5","0,3","53,9","25,1","71,8","ND","0"],
    [35154,"2018-02-03T04:00:00","22","ND","11","1,5","172,6","25,2","71,7","ND","0"],
    [35155,"2018-02-03T05:00:00","35","ND","9","1,8","123,6","25","73,1","ND","0"],
    [35156,"2018-02-03T06:00:00","47","ND","8,1","0,5","202,6","24,4","74,7","ND","0"],
    [35157,"2018-02-03T07:00:00","42","ND","8,8","2,6","237","24,8","72,6","2,8","0"],
    [35158,"2018-02-03T08:00:00","43","ND","10,2","3,9","259,6","25,5","71,3","43,4","0"],
    [35159,"2018-02-03T09:00:00","47","ND","13,7","0,3","13,5","27,7","60,7","117,2","0"],
    [35160,"2018-02-03T10:00:00","62","ND","22,5","4,6","112,7","28,7","59,8","182,1","0"],
    [35161,"2018-02-03T11:00:00","43","ND","30,2","3,8","146,7","30,6","51,6","308,8","0"],
    [35162,"2018-02-03T12:00:00","24","ND","56,1","2,8","194","31,6","46,5","235,7","0"],
    [35163,"2018-02-03T13:00:00","52","ND","53,6","3,6","193,7","31,6","47","199,8","0"],
    [35164,"2018-02-03T14:00:00","38","ND","67,2","3,7","232,8","31,6","46,5","216,2","0"],
    [35165,"2018-02-03T15:00:00","42","ND","79,3","2,4","226,9","33,3","41,1","252,7","0"],
    [35166,"2018-02-03T16:00:00","28","ND","89,8","2,1","321,7","33","41","137,8","0"],
    [35167,"2018-02-03T17:00:00","ND","ND","47,2","3,5","296,6","32,2","41,4","89,3","0"],
    [35168,"2018-02-03T18:00:00","23","ND","36","4,4","314,7","31,6","42","55,7","0"],
    [35169,"2018-02-03T19:00:00","47","ND","15,9","2,8","346","30,2","46,8","1","0"],
    [35170,"2018-02-03T20:00:00","37","ND","11,8","2,3","79,4","28,9","52","ND","0"],
    [35171,"2018-02-03T21:00:00","50","ND","9,8","2,8","71,2","27,9","56,3","ND","0"],
    [35172,"2018-02-03T22:00:00","39","ND","9,6","1,6","66,2","27,1","59,2","ND","0"],
    [35173,"2018-02-03T23:00:00","51","ND","9,5","3,1","78,2","26,9","59,2","ND","0"],
    [35174,"2018-02-04T00:00:00","31","ND","8,6","1,7","78,9","26,4","61,2","ND","0"],
    [35175,"2018-02-04T01:00:00","33","ND","9,2","0,6","14,8","26,6","60,8","ND","0"],
    [35176,"2018-02-04T02:00:00","40","ND","7,9","1,1","72,3","26,7","61,3","ND","0"],
    [35177,"2018-02-04T03:00:00","25","ND","10,8","2","32,5","26,2","63,5","ND","0"],
    [35178,"2018-02-04T04:00:00","45","ND","7,7","2,3","92,7","25,3","68,4","ND","0"],
    [35179,"2018-02-04T05:00:00","46","ND","6,8","1,6","81,2","25,1","69,7","ND","0"],
    [35180,"2018-02-04T06:00:00","42","ND","7,2","1,6","334,7","25,5","66","ND","0"],
    [35181,"2018-02-04T07:00:00","52","ND","7,3","0,8","108,9","25,8","65,4","1,5","0"],
    [35182,"2018-02-04T08:00:00","51","ND","10,5","1,8","232,3","26,3","65,9","43,6","0"],
    [35183,"2018-02-04T09:00:00","47","ND","19,5","1,3","218,9","28,1","60","111,1","0"],
    [35184,"2018-02-04T10:00:00","35","ND","39,7","1,5","301,7","29,8","53,9","233,8","0"],
    [35185,"2018-02-04T11:00:00","39","ND","51,9","2,8","76,3","31,4","47,6","350,8","0"],
    [35186,"2018-02-04T12:00:00","27","ND","57,3","2","40,3","32,3","43,5","315,9","0"],
    [35187,"2018-02-04T13:00:00","22","ND","71,1","1,3","30,1","33,9","38,5","402,9","0"],
    [35188,"2018-02-04T14:00:00","27","ND","86,3","2,2","19,6","35","36,1","373,3","0"],
    [35189,"2018-02-04T15:00:00","48","ND","74,5","3,4","48,5","35","36,5","252,6","0"],
    [35190,"2018-02-04T16:00:00","24","ND","58,5","4,1","74,7","34,7","36,8","171","0"],
    [35191,"2018-02-04T17:00:00","18","ND","42,8","2,7","43,7","33,9","38,4","52,6","0"],
    [35192,"2018-02-04T18:00:00","26","ND","33,6","5,9","301,2","32,3","40,9","33,1","0"],
    [35193,"2018-02-04T19:00:00","27","ND","23,3","5,5","297,2","30,8","44,2","ND","0"],
    [35194,"2018-02-04T20:00:00","18","ND","16,5","3","324,7","29,8","48,4","ND","0"],
    [35195,"2018-02-04T21:00:00","39","ND","9,4","3,9","84,7","27,8","58,9","ND","0"],
    [35196,"2018-02-04T22:00:00","34","ND","8,7","2,7","86,7","27,3","60,2","ND","0"],
    [35197,"2018-02-04T23:00:00","24","ND","9,7","2,9","82,7","27,2","60","ND","0"],
    [35198,"2018-02-05T00:00:00","20","ND","10,8","2,4","92,2","27,4","58,8","ND","0"],
    [35199,"2018-02-05T01:00:00","26","ND","11,2","2,7","116,2","26,8","61,6","ND","0"],
    [35200,"2018-02-05T02:00:00","16","ND","10,7","2,3","129","26,4","65,9","ND","0"],
    [35201,"2018-02-05T03:00:00","22","ND","9,8","2,8","203,8","26,2","69,3","ND","5,84"],
    [35202,"2018-02-05T04:00:00","3","ND","13,5","5,4","191,1","24,5","78,4","ND","49,78"],
    [35203,"2018-02-05T05:00:00","2","ND","13,3","2,3","206,2","23,7","83,7","ND","9,14"],
    [35204,"2018-02-05T06:00:00","23","ND","9,3","2,2","76","24,3","81","ND","0"],
    [35205,"2018-02-05T07:00:00","22","ND","8,6","0,5","144,4","24,8","76,6","ND","0"],
    [35206,"2018-02-05T08:00:00","23","ND","10","2,3","182,7","25,5","74,9","34,5","0"],
    [35207,"2018-02-05T09:00:00","20","ND","12,7","2,7","197,3","26,8","70,4","86","0"],
    [35208,"2018-02-05T10:00:00","34","ND","18,6","2,2","172,7","29","62,7","227,1","0"],
    [35209,"2018-02-05T11:00:00","21","ND","36","2,2","152,5","31,5","51,9","393,4","0"],
    [35210,"2018-02-05T12:00:00","18","ND","49,6","2,1","86,9","32,9","45,9","425,8","0"],
    [35211,"2018-02-05T13:00:00","35","ND","86,1","2,7","310,4","32,8","44,2","259,9","0"],
    [35212,"2018-02-05T14:00:00","42","ND","94,4","1,8","354,7","33,7","40,2","263,4","0"],
    [35213,"2018-02-05T15:00:00","36","ND","79,9","3,1","9,7","34,7","37","285,6","0"],
    [35214,"2018-02-05T16:00:00","28","ND","55,4","2,9","331,4","33,4","38,2","83","0"],
    [35215,"2018-02-05T17:00:00","27","ND","30,8","6,4","293,3","31,9","41,4","60,7","0"],
    [35216,"2018-02-05T18:00:00","29","ND","22,1","4,1","302,3","30,7","45,7","21,6","0"],
    [35217,"2018-02-05T19:00:00","107","ND","27,2","5,1","79,9","28,4","49,5","ND","0"],
    [35218,"2018-02-05T20:00:00","44","ND","18,2","1,6","180,1","26,9","53","ND","0"],
    [35219,"2018-02-05T21:00:00","55","ND","15,3","2,7","193,3","26,7","58,3","ND","0"],
    [35220,"2018-02-05T22:00:00","48","ND","13,3","2,2","160,5","26,9","58,5","ND","0"],
    [35221,"2018-02-05T23:00:00","32","ND","13,2","2","150,3","26,4","61,7","ND","0"],
    [35222,"2018-02-06T00:00:00","36","ND","10,3","1,2","161,9","25,3","67,9","ND","0"],
    [35223,"2018-02-06T01:00:00","29","ND","10,8","1,7","184,6","25,5","67,2","ND","0"],
    [35224,"2018-02-06T02:00:00","34","ND","12,4","2","156,8","25,4","68,1","ND","0"],
    [35225,"2018-02-06T03:00:00","35","ND","10,5","1,7","186,7","25","72,1","ND","0"],
    [35226,"2018-02-06T04:00:00","5","ND","11,3","3,2","202,1","25,1","74","ND","0"],
    [35227,"2018-02-06T05:00:00","12","ND","11,9","2,8","187,9","25","74,2","ND","0"],
    [35228,"2018-02-06T06:00:00","22","ND","9,6","1,9","189","24,7","75,7","ND","0"],
    [35229,"2018-02-06T07:00:00","39","ND","9,3","1,9","163,8","24,8","75,3","1,8","0"],
    [35230,"2018-02-06T08:00:00","30","ND","9,9","1,2","182,5","25,5","73,7","37,9","0"],
    [35231,"2018-02-06T09:00:00","30","ND","16,1","1,5","196,3","27,8","63,8","150,9","0"],
    [35232,"2018-02-06T10:00:00","13","ND","30,8","1,5","133,9","29,8","54,7","252,2","0"],
    [35233,"2018-02-06T11:00:00","24","ND","52,8","0,2","317,4","31,7","47,6","350,5","0"],
    [35234,"2018-02-06T12:00:00","29","ND","63,6","1,6","33,8","32,9","42,5","412,4","0"],
    [35235,"2018-02-06T13:00:00","27","ND","70,3","1","138,2","33,7","39,7","319,6","0"],
    [35236,"2018-02-06T14:00:00","47","ND","74,8","2,7","5,7","33,9","39,1","275,9","0"],
    [35237,"2018-02-06T15:00:00","29","ND","89,6","3,7","357,1","34,4","37,4","328,3","0"],
    [35238,"2018-02-06T16:00:00","49","ND","75,2","4,2","68,5","34","38,7","152,9","0"],
    [35239,"2018-02-06T17:00:00","46","ND","55,5","2,8","32","33,4","40,3","85,6","0"],
    [35240,"2018-02-06T18:00:00","25","ND","40,1","4,2","308,2","32,8","39,8","47,6","0"],
    [35241,"2018-02-06T19:00:00","24","ND","24,4","6","291,3","30,9","43,9","ND","0"],
    [35242,"2018-02-06T20:00:00","55","ND","12","2,1","342,4","30,6","45,6","ND","0"],
    [35243,"2018-02-06T21:00:00","49","ND","9","2,6","103,8","28,7","55,4","ND","0"],
    [35244,"2018-02-06T22:00:00","46","ND","9,9","2,3","252,9","28,4","56,6","ND","0"],
    [35245,"2018-02-06T23:00:00","54","ND","9,2","2,8","204,6","27,7","61,8","ND","0"],
    [35246,"2018-02-07T00:00:00","41","ND","12,2","2","170,3","27,6","62,9","ND","0"],
    [35247,"2018-02-07T01:00:00","20","ND","18,6","3,5","142,8","27,4","65,2","ND","0"],
    [35248,"2018-02-07T02:00:00","27","ND","19,5","1,3","106,9","26,4","69,4","ND","0"],
    [35249,"2018-02-07T03:00:00","15","ND","19,3","1,1","179,8","26,4","69,3","ND","0"],
    [35250,"2018-02-07T04:00:00","23","ND","17,6","1,1","119,6","26,4","69,2","ND","0"],
    [35251,"2018-02-07T05:00:00","34","ND","11,8","1,8","102,3","26,1","71,4","ND","0"],
    [35252,"2018-02-07T06:00:00","61","ND","9,2","1,7","106,6","26,2","70,9","ND","0"],
    [35253,"2018-02-07T07:00:00","64","ND","9","1,9","159,7","26,1","70,7","ND","0"],
    [35254,"2018-02-07T08:00:00","50","ND","10,4","2,3","165,8","26,4","70,9","31,1","0"],
    [35255,"2018-02-07T09:00:00","89","ND","13,8","2,2","172,1","27,4","66,4","64,8","0"],
    [35256,"2018-02-07T10:00:00","ND","ND","ND","2,8","171,4","28,5","62,9","143,9","0"],
    [35257,"2018-02-07T11:00:00","90","ND","ND","3,5","179,8","31,4","52,7","388","0"],
    [35258,"2018-02-07T12:00:00","46","13","ND","2,9","195,9","32,7","46,7","397,3","0"],
    [35259,"2018-02-07T13:00:00","46","13","ND","2,5","118,9","33,3","42,5","327,5","0"],
    [35260,"2018-02-07T14:00:00","ND","ND","ND","2,2","342,5","32,6","45,8","104,6","0"],
    [35261,"2018-02-07T15:00:00","ND","ND","ND","1,6","157,4","33,6","42,7","244,7","0"],
    [35262,"2018-02-07T16:00:00","ND","ND","ND","ND","ND","ND","ND","ND","ND"],
    [35263,"2018-02-07T17:00:00","ND","ND","ND","ND","ND","ND","ND","ND","ND"],
    [35264,"2018-02-07T18:00:00","ND","ND","ND","ND","ND","ND","ND","ND","ND"],
    [35265,"2018-02-07T19:00:00","ND","ND","ND","ND","ND","ND","ND","ND","ND"],
    [35266,"2018-02-07T20:00:00","ND","ND","ND","ND","ND","ND","ND","ND","ND"],
    [35267,"2018-02-07T21:00:00","ND","ND","ND","ND","ND","ND","ND","ND","ND"],
    [35268,"2018-02-07T22:00:00","ND","ND","ND","ND","ND","ND","ND","ND","ND"],
    [35269,"2018-02-07T23:00:00","ND","ND","ND","ND","ND","ND","ND","ND","ND"],
    [35270,"2018-02-08T00:00:00","ND","ND","ND","ND","ND","ND","ND","ND","ND"],
    [35271,"2018-02-08T01:00:00","ND","ND","ND","ND","ND","ND","ND","ND","ND"],
    [35272,"2018-02-08T02:00:00","ND","ND","ND","ND","ND","ND","ND","ND","ND"],
    [35273,"2018-02-08T03:00:00","ND","ND","ND","ND","ND","ND","ND","ND","ND"],
    [35274,"2018-02-08T04:00:00","ND","ND","ND","ND","ND","ND","ND","ND","ND"],
    [35275,"2018-02-08T05:00:00","ND","ND","ND","ND","ND","ND","ND","ND","ND"],
    [35276,"2018-02-08T06:00:00","ND","ND","ND","ND","ND","ND","ND","ND","ND"],
    [35277,"2018-02-08T07:00:00","ND","ND","ND","ND","ND","ND","ND","ND","ND"],
    [35278,"2018-02-08T08:00:00","ND","ND","ND","ND","ND","ND","ND","ND","ND"],
    [35279,"2018-02-08T09:00:00","ND","ND","ND","ND","ND","ND","ND","ND","ND"],
    [35280,"2018-02-08T10:00:00","ND","ND","ND","ND","ND","ND","ND","ND","ND"],
    [35281,"2018-02-08T11:00:00","ND","ND","ND","ND","ND","ND","ND","ND","ND"],
    [35282,"2018-02-08T12:00:00","ND","ND","ND","ND","ND","ND","ND","ND","ND"],
    [35283,"2018-02-08T13:00:00","ND","ND","ND","ND","ND","ND","ND","ND","ND"],
    [35284,"2018-02-08T14:00:00","ND","ND","ND","ND","ND","ND","ND","ND","ND"],
    [35285,"2018-02-08T15:00:00","ND","ND","ND","ND","ND","ND","ND","ND","ND"],
    [35286,"2018-02-08T16:00:00","ND","ND","ND","ND","ND","ND","ND","ND","ND"],
    [35287,"2018-02-08T17:00:00","ND","ND","ND","ND","ND","ND","ND","ND","ND"],
    [35288,"2018-02-08T18:00:00","ND","ND","ND","ND","ND","ND","ND","ND","ND"],
    [35289,"2018-02-08T19:00:00","ND","ND","ND","ND","ND","ND","ND","ND","ND"],
    [35290,"2018-02-08T20:00:00","ND","ND","ND","ND","ND","ND","ND","ND","ND"],
    [35291,"2018-02-08T21:00:00","ND","ND","ND","ND","ND","ND","ND","ND","ND"],
    [35292,"2018-02-08T22:00:00","ND","ND","ND","ND","ND","ND","ND","ND","ND"],
    [35293,"2018-02-08T23:00:00","ND","ND","ND","ND","ND","ND","ND","ND","ND"],
    [35294,"2018-02-09T00:00:00","ND","ND","ND","ND","ND","ND","ND","ND","ND"],
    [35295,"2018-02-09T01:00:00","ND","ND","ND","ND","ND","ND","ND","ND","ND"],
    [35296,"2018-02-09T02:00:00","ND","ND","ND","ND","ND","ND","ND","ND","ND"],
    [35297,"2018-02-09T03:00:00","ND","ND","ND","ND","ND","ND","ND","ND","ND"],
    [35298,"2018-02-09T04:00:00","ND","ND","ND","ND","ND","ND","ND","ND","ND"],
    [35299,"2018-02-09T05:00:00","ND","ND","ND","ND","ND","ND","ND","ND","ND"],
    [35300,"2018-02-09T06:00:00","ND","ND","ND","ND","ND","ND","ND","ND","ND"],
    [35301,"2018-02-09T07:00:00","ND","ND","ND","ND","ND","ND","ND","ND","ND"],
    [35302,"2018-02-09T08:00:00","ND","ND","ND","ND","ND","ND","ND","ND","ND"],
    [35303,"2018-02-09T09:00:00","ND","ND","ND","ND","ND","ND","ND","ND","ND"],
    [35304,"2018-02-09T10:00:00","ND","ND","ND","ND","ND","ND","ND","ND","ND"],
    [35305,"2018-02-09T11:00:00","ND","ND","ND","ND","ND","ND","ND","ND","ND"],
    [35306,"2018-02-09T12:00:00","ND","ND","ND","ND","ND","ND","ND","ND","ND"],
    [35307,"2018-02-09T13:00:00","ND","ND","ND","ND","ND","ND","ND","ND","ND"],
    [35308,"2018-02-09T14:00:00","ND","ND","ND","ND","ND","ND","ND","ND","ND"],
    [35309,"2018-02-09T15:00:00","ND","ND","ND","ND","ND","ND","ND","ND","ND"],
    [35310,"2018-02-09T16:00:00","ND","ND","ND","ND","ND","ND","ND","ND","ND"],
    [35311,"2018-02-09T17:00:00","ND","ND","ND","ND","ND","ND","ND","ND","ND"],
    [35312,"2018-02-09T18:00:00","ND","ND","ND","ND","ND","ND","ND","ND","ND"],
    [35313,"2018-02-09T19:00:00","ND","ND","ND","ND","ND","ND","ND","ND","ND"],
    [35314,"2018-02-09T20:00:00","ND","ND","ND","ND","ND","ND","ND","ND","ND"],
    [35315,"2018-02-09T21:00:00","ND","ND","ND","ND","ND","ND","ND","ND","ND"],
    [35316,"2018-02-09T22:00:00","ND","ND","ND","ND","ND","ND","ND","ND","ND"],
    [35317,"2018-02-09T23:00:00","ND","ND","ND","ND","ND","ND","ND","ND","ND"],
    [35318,"2018-02-10T00:00:00","ND","ND","ND","ND","ND","ND","ND","ND","ND"],
    [35319,"2018-02-10T01:00:00","ND","ND","ND","ND","ND","ND","ND","ND","ND"],
    [35320,"2018-02-10T02:00:00","ND","ND","ND","ND","ND","ND","ND","ND","ND"],
    [35321,"2018-02-10T03:00:00","ND","ND","ND","ND","ND","ND","ND","ND","ND"],
    [35322,"2018-02-10T04:00:00","ND","ND","ND","ND","ND","ND","ND","ND","ND"],
    [35323,"2018-02-10T05:00:00","ND","ND","ND","ND","ND","ND","ND","ND","ND"],
    [35324,"2018-02-10T06:00:00","ND","ND","ND","ND","ND","ND","ND","ND","ND"],
    [35325,"2018-02-10T07:00:00","ND","ND","ND","ND","ND","ND","ND","ND","ND"],
    [35326,"2018-02-10T08:00:00","ND","ND","ND","ND","ND","ND","ND","ND","ND"],
    [35327,"2018-02-10T09:00:00","ND","ND","ND","ND","ND","ND","ND","ND","ND"],
    [35328,"2018-02-10T10:00:00","ND","ND","ND","ND","ND","ND","ND","ND","ND"],
    [35329,"2018-02-10T11:00:00","ND","ND","ND","ND","ND","ND","ND","ND","ND"],
    [35330,"2018-02-10T12:00:00","ND","ND","ND","ND","ND","ND","ND","ND","ND"],
    [35331,"2018-02-10T13:00:00","ND","ND","ND","ND","ND","ND","ND","ND","ND"],
    [35332,"2018-02-10T14:00:00","ND","ND","ND","ND","ND","ND","ND","ND","ND"],
    [35333,"2018-02-10T15:00:00","ND","ND","ND","ND","ND","ND","ND","ND","ND"],
    [35334,"2018-02-10T16:00:00","ND","ND","ND","ND","ND","ND","ND","ND","ND"],
    [35335,"2018-02-10T17:00:00","ND","ND","ND","ND","ND","ND","ND","ND","ND"],
    [35336,"2018-02-10T18:00:00","ND","ND","ND","ND","ND","ND","ND","ND","ND"],
    [35337,"2018-02-10T19:00:00","ND","ND","ND","ND","ND","ND","ND","ND","ND"],
    [35338,"2018-02-10T20:00:00","ND","ND","ND","ND","ND","ND","ND","ND","ND"],
    [35339,"2018-02-10T21:00:00","ND","ND","ND","ND","ND","ND","ND","ND","ND"],
    [35340,"2018-02-10T22:00:00","ND","ND","ND","ND","ND","ND","ND","ND","ND"],
    [35341,"2018-02-10T23:00:00","ND","ND","ND","ND","ND","ND","ND","ND","ND"],
    [35342,"2018-02-11T00:00:00","ND","ND","ND","ND","ND","ND","ND","ND","ND"],
    [35343,"2018-02-11T01:00:00","ND","ND","ND","ND","ND","ND","ND","ND","ND"],
    [35344,"2018-02-11T02:00:00","ND","ND","ND","ND","ND","ND","ND","ND","ND"],
    [35345,"2018-02-11T03:00:00","ND","ND","ND","ND","ND","ND","ND","ND","ND"],
    [35346,"2018-02-11T04:00:00","ND","ND","ND","ND","ND","ND","ND","ND","ND"],
    [35347,"2018-02-11T05:00:00","ND","ND","ND","ND","ND","ND","ND","ND","ND"],
    [35348,"2018-02-11T06:00:00","ND","ND","ND","ND","ND","ND","ND","ND","ND"],
    [35349,"2018-02-11T07:00:00","ND","ND","ND","ND","ND","ND","ND","ND","ND"],
    [35350,"2018-02-11T08:00:00","ND","ND","ND","ND","ND","ND","ND","ND","ND"],
    [35351,"2018-02-11T09:00:00","ND","ND","ND","ND","ND","ND","ND","ND","ND"],
    [35352,"2018-02-11T10:00:00","ND","ND","ND","ND","ND","ND","ND","ND","ND"],
    [35353,"2018-02-11T11:00:00","ND","ND","ND","ND","ND","ND","ND","ND","ND"],
    [35354,"2018-02-11T12:00:00","ND","ND","ND","ND","ND","ND","ND","ND","ND"],
    [35355,"2018-02-11T13:00:00","ND","ND","ND","ND","ND","ND","ND","ND","ND"],
    [35356,"2018-02-11T14:00:00","ND","ND","ND","ND","ND","ND","ND","ND","ND"],
    [35357,"2018-02-11T15:00:00","ND","ND","ND","ND","ND","ND","ND","ND","ND"],
    [35358,"2018-02-11T16:00:00","ND","ND","ND","ND","ND","ND","ND","ND","ND"],
    [35359,"2018-02-11T17:00:00","ND","ND","ND","ND","ND","ND","ND","ND","ND"],
    [35360,"2018-02-11T18:00:00","ND","ND","ND","ND","ND","ND","ND","ND","ND"],
    [35361,"2018-02-11T19:00:00","ND","ND","ND","ND","ND","ND","ND","ND","ND"],
    [35362,"2018-02-11T20:00:00","ND","ND","ND","ND","ND","ND","ND","ND","ND"],
    [35363,"2018-02-11T21:00:00","ND","ND","ND","ND","ND","ND","ND","ND","ND"],
    [35364,"2018-02-11T22:00:00","ND","ND","ND","ND","ND","ND","ND","ND","ND"],
    [35365,"2018-02-11T23:00:00","ND","ND","ND","ND","ND","ND","ND","ND","ND"],
    [35366,"2018-02-12T00:00:00","ND","ND","ND","ND","ND","ND","ND","ND","ND"],
    [35367,"2018-02-12T01:00:00","ND","ND","ND","ND","ND","ND","ND","ND","ND"],
    [35368,"2018-02-12T02:00:00","ND","ND","ND","ND","ND","ND","ND","ND","ND"],
    [35369,"2018-02-12T03:00:00","ND","ND","ND","ND","ND","ND","ND","ND","ND"],
    [35370,"2018-02-12T04:00:00","ND","ND","ND","ND","ND","ND","ND","ND","ND"],
    [35371,"2018-02-12T05:00:00","ND","ND","ND","ND","ND","ND","ND","ND","ND"],
    [35372,"2018-02-12T06:00:00","ND","ND","ND","ND","ND","ND","ND","ND","ND"],
    [35373,"2018-02-12T07:00:00","ND","ND","ND","ND","ND","ND","ND","ND","ND"],
    [35374,"2018-02-12T08:00:00","ND","ND","ND","ND","ND","ND","ND","ND","ND"],
    [35375,"2018-02-12T09:00:00","ND","ND","ND","ND","ND","ND","ND","ND","ND"],
    [35376,"2018-02-12T10:00:00","ND","ND","ND","ND","ND","ND","ND","ND","ND"],
    [35377,"2018-02-12T11:00:00","ND","ND","ND","ND","ND","ND","ND","ND","ND"],
    [35378,"2018-02-12T12:00:00","ND","ND","ND","ND","ND","ND","ND","ND","ND"],
    [35379,"2018-02-12T13:00:00","ND","ND","ND","ND","ND","ND","ND","ND","ND"],
    [35380,"2018-02-12T14:00:00","ND","ND","ND","ND","ND","ND","ND","ND","ND"],
    [35381,"2018-02-12T15:00:00","ND","ND","ND","ND","ND","ND","ND","ND","ND"],
    [35382,"2018-02-12T16:00:00","ND","ND","ND","ND","ND","ND","ND","ND","ND"],
    [35383,"2018-02-12T17:00:00","ND","ND","ND","ND","ND","ND","ND","ND","ND"],
    [35384,"2018-02-12T18:00:00","ND","ND","ND","ND","ND","ND","ND","ND","ND"],
    [35385,"2018-02-12T19:00:00","ND","ND","ND","ND","ND","ND","ND","ND","ND"],
    [35386,"2018-02-12T20:00:00","ND","ND","ND","ND","ND","ND","ND","ND","ND"],
    [35387,"2018-02-12T21:00:00","ND","ND","ND","ND","ND","ND","ND","ND","ND"],
    [35388,"2018-02-12T22:00:00","ND","ND","ND","ND","ND","ND","ND","ND","ND"],
    [35389,"2018-02-12T23:00:00","ND","ND","ND","ND","ND","ND","ND","ND","ND"],
    [35390,"2018-02-13T00:00:00","ND","ND","ND","ND","ND","ND","ND","ND","ND"],
    [35391,"2018-02-13T01:00:00","ND","ND","ND","ND","ND","ND","ND","ND","ND"],
    [35392,"2018-02-13T02:00:00","ND","ND","ND","ND","ND","ND","ND","ND","ND"],
    [35393,"2018-02-13T03:00:00","ND","ND","ND","ND","ND","ND","ND","ND","ND"],
    [35394,"2018-02-13T04:00:00","ND","ND","ND","ND","ND","ND","ND","ND","ND"],
    [35395,"2018-02-13T05:00:00","ND","ND","ND","ND","ND","ND","ND","ND","ND"],
    [35396,"2018-02-13T06:00:00","ND","ND","ND","ND","ND","ND","ND","ND","ND"],
    [35397,"2018-02-13T07:00:00","ND","ND","ND","ND","ND","ND","ND","ND","ND"],
    [35398,"2018-02-13T08:00:00","ND","ND","ND","ND","ND","ND","ND","ND","ND"],
    [35399,"2018-02-13T09:00:00","ND","ND","ND","ND","ND","ND","ND","ND","ND"],
    [35400,"2018-02-13T10:00:00","ND","ND","ND","ND","ND","ND","ND","ND","ND"],
    [35401,"2018-02-13T11:00:00","ND","ND","ND","ND","ND","ND","ND","ND","ND"],
    [35402,"2018-02-13T12:00:00","ND","ND","ND","ND","ND","ND","ND","ND","ND"],
    [35403,"2018-02-13T13:00:00","ND","ND","ND","ND","ND","ND","ND","ND","ND"],
    [35404,"2018-02-13T14:00:00","ND","ND","ND","ND","ND","ND","ND","ND","ND"],
    [35405,"2018-02-13T15:00:00","ND","ND","ND","ND","ND","ND","ND","ND","ND"],
    [35406,"2018-02-13T16:00:00","ND","ND","ND","ND","ND","ND","ND","ND","ND"],
    [35407,"2018-02-13T17:00:00","ND","ND","ND","ND","ND","ND","ND","ND","ND"],
    [35408,"2018-02-13T18:00:00","ND","ND","ND","ND","ND","ND","ND","ND","ND"],
    [35409,"2018-02-13T19:00:00","ND","ND","ND","ND","ND","ND","ND","ND","ND"],
    [35410,"2018-02-13T20:00:00","ND","ND","ND","ND","ND","ND","ND","ND","ND"],
    [35411,"2018-02-13T21:00:00","ND","ND","ND","ND","ND","ND","ND","ND","ND"],
    [35412,"2018-02-13T22:00:00","ND","ND","ND","ND","ND","ND","ND","ND","ND"],
    [35413,"2018-02-13T23:00:00","ND","ND","ND","ND","ND","ND","ND","ND","ND"],
    [35414,"2018-02-14T00:00:00","ND","ND","ND","ND","ND","ND","ND","ND","ND"],
    [35415,"2018-02-14T01:00:00","ND","ND","ND","ND","ND","ND","ND","ND","ND"],
    [35416,"2018-02-14T02:00:00","ND","ND","ND","ND","ND","ND","ND","ND","ND"],
    [35417,"2018-02-14T03:00:00","ND","ND","ND","ND","ND","ND","ND","ND","ND"],
    [35418,"2018-02-14T04:00:00","ND","ND","ND","ND","ND","ND","ND","ND","ND"],
    [35419,"2018-02-14T05:00:00","ND","ND","ND","ND","ND","ND","ND","ND","ND"],
    [35420,"2018-02-14T06:00:00","ND","ND","ND","ND","ND","ND","ND","ND","ND"],
    [35421,"2018-02-14T07:00:00","ND","ND","ND","ND","ND","ND","ND","ND","ND"],
    [35422,"2018-02-14T08:00:00","ND","ND","ND","ND","ND","ND","ND","ND","ND"],
    [35423,"2018-02-14T09:00:00","ND","ND","ND","ND","ND","ND","ND","ND","ND"],
    [35424,"2018-02-14T10:00:00","ND","ND","ND","ND","ND","ND","ND","ND","ND"],
    [35425,"2018-02-14T11:00:00","ND","ND","ND","ND","ND","ND","ND","ND","ND"],
    [35426,"2018-02-14T12:00:00","ND","ND","ND","ND","ND","ND","ND","ND","ND"],
    [35427,"2018-02-14T13:00:00","ND","ND","ND","ND","ND","ND","ND","ND","ND"],
    [35428,"2018-02-14T14:00:00","ND","ND","ND","ND","ND","ND","ND","ND","ND"],
    [35429,"2018-02-14T15:00:00","ND","ND","ND","ND","ND","ND","ND","ND","ND"],
    [35430,"2018-02-14T16:00:00","ND","ND","ND","ND","ND","ND","ND","ND","ND"],
    [35431,"2018-02-14T17:00:00","ND","ND","ND","ND","ND","ND","ND","ND","ND"],
    [35432,"2018-02-14T18:00:00","ND","ND","ND","ND","ND","ND","ND","ND","ND"],
    [35433,"2018-02-14T19:00:00","ND","ND","ND","ND","ND","ND","ND","ND","ND"],
    [35434,"2018-02-14T20:00:00","ND","ND","ND","ND","ND","ND","ND","ND","ND"],
    [35435,"2018-02-14T21:00:00","ND","ND","ND","ND","ND","ND","ND","ND","ND"],
    [35436,"2018-02-14T22:00:00","ND","ND","ND","ND","ND","ND","ND","ND","ND"],
    [35437,"2018-02-14T23:00:00","ND","ND","ND","ND","ND","ND","ND","ND","ND"],
    [35438,"2018-02-15T00:00:00","ND","ND","ND","ND","ND","ND","ND","ND","ND"],
    [35439,"2018-02-15T01:00:00","ND","ND","ND","ND","ND","ND","ND","ND","ND"],
    [35440,"2018-02-15T02:00:00","ND","ND","ND","ND","ND","ND","ND","ND","ND"],
    [35441,"2018-02-15T03:00:00","ND","ND","ND","ND","ND","ND","ND","ND","ND"],
    [35442,"2018-02-15T04:00:00","ND","ND","ND","ND","ND","ND","ND","ND","ND"],
    [35443,"2018-02-15T05:00:00","ND","ND","ND","ND","ND","ND","ND","ND","ND"],
    [35444,"2018-02-15T06:00:00","ND","ND","ND","ND","ND","ND","ND","ND","ND"],
    [35445,"2018-02-15T07:00:00","ND","ND","ND","ND","ND","ND","ND","ND","ND"],
    [35446,"2018-02-15T08:00:00","ND","ND","ND","ND","ND","ND","ND","ND","ND"],
    [35447,"2018-02-15T09:00:00","ND","ND","ND","ND","ND","ND","ND","ND","ND"],
    [35448,"2018-02-15T10:00:00","ND","ND","ND","ND","ND","ND","ND","ND","ND"],
    [35449,"2018-02-15T11:00:00","ND","ND","ND","ND","ND","ND","ND","ND","ND"],
    [35450,"2018-02-15T12:00:00","ND","ND","ND","ND","ND","ND","ND","ND","ND"],
    [35451,"2018-02-15T13:00:00","ND","ND","ND","ND","ND","ND","ND","ND","ND"],
    [35452,"2018-02-15T14:00:00","ND","ND","ND","ND","ND","ND","ND","ND","ND"],
    [35453,"2018-02-15T15:00:00","ND","ND","ND","ND","ND","ND","ND","ND","ND"],
    [35454,"2018-02-15T16:00:00","ND","ND","ND","ND","ND","ND","ND","ND","ND"],
    [35455,"2018-02-15T17:00:00","ND","ND","ND","ND","ND","ND","ND","ND","ND"],
    [35456,"2018-02-15T18:00:00","ND","ND","ND","ND","ND","ND","ND","ND","ND"],
    [35457,"2018-02-15T19:00:00","ND","ND","ND","ND","ND","ND","ND","ND","ND"],
    [35458,"2018-02-15T20:00:00","ND","ND","ND","ND","ND","ND","ND","ND","ND"],
    [35459,"2018-02-15T21:00:00","ND","ND","ND","ND","ND","ND","ND","ND","ND"],
    [35460,"2018-02-15T22:00:00","ND","ND","ND","ND","ND","ND","ND","ND","ND"],
    [35461,"2018-02-15T23:00:00","ND","ND","ND","ND","ND","ND","ND","ND","ND"],
    [35462,"2018-02-16T00:00:00","ND","ND","ND","ND","ND","ND","ND","ND","ND"],
    [35463,"2018-02-16T01:00:00","ND","ND","ND","ND","ND","ND","ND","ND","ND"],
    [35464,"2018-02-16T02:00:00","ND","ND","ND","ND","ND","ND","ND","ND","ND"],
    [35465,"2018-02-16T03:00:00","ND","ND","ND","ND","ND","ND","ND","ND","ND"],
    [35466,"2018-02-16T04:00:00","ND","ND","ND","ND","ND","ND","ND","ND","ND"],
    [35467,"2018-02-16T05:00:00","ND","ND","ND","ND","ND","ND","ND","ND","ND"],
    [35468,"2018-02-16T06:00:00","ND","ND","ND","ND","ND","ND","ND","ND","ND"],
    [35469,"2018-02-16T07:00:00","ND","ND","ND","ND","ND","ND","ND","ND","ND"],
    [35470,"2018-02-16T08:00:00","ND","ND","ND","ND","ND","ND","ND","ND","ND"],
    [35471,"2018-02-16T09:00:00","ND","ND","ND","ND","ND","ND","ND","ND","ND"],
    [35472,"2018-02-16T10:00:00","ND","ND","ND","ND","ND","ND","ND","ND","ND"],
    [35473,"2018-02-16T11:00:00","ND","ND","ND","ND","ND","ND","ND","ND","ND"],
    [35474,"2018-02-16T12:00:00","ND","ND","ND","ND","ND","ND","ND","ND","ND"],
    [35475,"2018-02-16T13:00:00","ND","ND","ND","ND","ND","ND","ND","ND","ND"],
    [35476,"2018-02-16T14:00:00","ND","ND","ND","ND","ND","ND","ND","ND","ND"],
    [35477,"2018-02-16T15:00:00","ND","ND","ND","ND","ND","ND","ND","ND","ND"],
    [35478,"2018-02-16T16:00:00","ND","ND","ND","ND","ND","ND","ND","ND","ND"],
    [35479,"2018-02-16T17:00:00","ND","ND","ND","ND","ND","ND","ND","ND","ND"],
    [35480,"2018-02-16T18:00:00","ND","ND","ND","ND","ND","ND","ND","ND","ND"],
    [35481,"2018-02-16T19:00:00","ND","ND","ND","ND","ND","ND","ND","ND","ND"],
    [35482,"2018-02-16T20:00:00","ND","ND","ND","ND","ND","ND","ND","ND","ND"],
    [35483,"2018-02-16T21:00:00","ND","ND","ND","ND","ND","ND","ND","ND","ND"],
    [35484,"2018-02-16T22:00:00","ND","ND","ND","ND","ND","ND","ND","ND","ND"],
    [35485,"2018-02-16T23:00:00","ND","ND","ND","ND","ND","ND","ND","ND","ND"],
    [35486,"2018-02-17T00:00:00","ND","ND","ND","ND","ND","ND","ND","ND","ND"],
    [35487,"2018-02-17T01:00:00","ND","ND","ND","ND","ND","ND","ND","ND","ND"],
    [35488,"2018-02-17T02:00:00","ND","ND","ND","ND","ND","ND","ND","ND","ND"],
    [35489,"2018-02-17T03:00:00","ND","ND","ND","ND","ND","ND","ND","ND","ND"],
    [35490,"2018-02-17T04:00:00","ND","ND","ND","ND","ND","ND","ND","ND","ND"],
    [35491,"2018-02-17T05:00:00","ND","ND","ND","ND","ND","ND","ND","ND","ND"],
    [35492,"2018-02-17T06:00:00","ND","ND","ND","ND","ND","ND","ND","ND","ND"],
    [35493,"2018-02-17T07:00:00","ND","ND","ND","ND","ND","ND","ND","ND","ND"],
    [35494,"2018-02-17T08:00:00","ND","ND","ND","ND","ND","ND","ND","ND","ND"],
    [35495,"2018-02-17T09:00:00","ND","ND","ND","ND","ND","ND","ND","ND","ND"],
    [35496,"2018-02-17T10:00:00","ND","ND","ND","ND","ND","ND","ND","ND","ND"],
    [35497,"2018-02-17T11:00:00","ND","ND","ND","ND","ND","ND","ND","ND","ND"],
    [35498,"2018-02-17T12:00:00","ND","ND","ND","ND","ND","ND","ND","ND","ND"],
    [35499,"2018-02-17T13:00:00","ND","ND","ND","ND","ND","ND","ND","ND","ND"],
    [35500,"2018-02-17T14:00:00","ND","ND","ND","ND","ND","ND","ND","ND","ND"],
    [35501,"2018-02-17T15:00:00","ND","ND","ND","ND","ND","ND","ND","ND","ND"],
    [35502,"2018-02-17T16:00:00","ND","ND","ND","ND","ND","ND","ND","ND","ND"],
    [35503,"2018-02-17T17:00:00","ND","ND","ND","ND","ND","ND","ND","ND","ND"],
    [35504,"2018-02-17T18:00:00","ND","ND","ND","ND","ND","ND","ND","ND","ND"],
    [35505,"2018-02-17T19:00:00","ND","ND","ND","ND","ND","ND","ND","ND","ND"],
    [35506,"2018-02-17T20:00:00","ND","ND","ND","ND","ND","ND","ND","ND","ND"],
    [35507,"2018-02-17T21:00:00","ND","ND","ND","ND","ND","ND","ND","ND","ND"],
    [35508,"2018-02-17T22:00:00","ND","ND","ND","ND","ND","ND","ND","ND","ND"],
    [35509,"2018-02-17T23:00:00","ND","ND","ND","ND","ND","ND","ND","ND","ND"],
    [35510,"2018-02-18T00:00:00","ND","ND","ND","ND","ND","ND","ND","ND","ND"],
    [35511,"2018-02-18T01:00:00","ND","ND","ND","ND","ND","ND","ND","ND","ND"],
    [35512,"2018-02-18T02:00:00","ND","ND","ND","ND","ND","ND","ND","ND","ND"],
    [35513,"2018-02-18T03:00:00","ND","ND","ND","ND","ND","ND","ND","ND","ND"],
    [35514,"2018-02-18T04:00:00","ND","ND","ND","ND","ND","ND","ND","ND","ND"],
    [35515,"2018-02-18T05:00:00","ND","ND","ND","ND","ND","ND","ND","ND","ND"],
    [35516,"2018-02-18T06:00:00","ND","ND","ND","ND","ND","ND","ND","ND","ND"],
    [35517,"2018-02-18T07:00:00","ND","ND","ND","ND","ND","ND","ND","ND","ND"],
    [35518,"2018-02-18T08:00:00","ND","ND","ND","ND","ND","ND","ND","ND","ND"],
    [35519,"2018-02-18T09:00:00","ND","ND","ND","ND","ND","ND","ND","ND","ND"],
    [35520,"2018-02-18T10:00:00","ND","ND","ND","ND","ND","ND","ND","ND","ND"],
    [35521,"2018-02-18T11:00:00","ND","ND","ND","ND","ND","ND","ND","ND","ND"],
    [35522,"2018-02-18T12:00:00","ND","ND","ND","ND","ND","ND","ND","ND","ND"],
    [35523,"2018-02-18T13:00:00","ND","ND","ND","ND","ND","ND","ND","ND","ND"],
    [35524,"2018-02-18T14:00:00","ND","ND","ND","ND","ND","ND","ND","ND","ND"],
    [35525,"2018-02-18T15:00:00","ND","ND","ND","ND","ND","ND","ND","ND","ND"],
    [35526,"2018-02-18T16:00:00","ND","ND","ND","ND","ND","ND","ND","ND","ND"],
    [35527,"2018-02-18T17:00:00","ND","ND","ND","ND","ND","ND","ND","ND","ND"],
    [35528,"2018-02-18T18:00:00","ND","ND","ND","ND","ND","ND","ND","ND","ND"],
    [35529,"2018-02-18T19:00:00","ND","ND","ND","ND","ND","ND","ND","ND","ND"],
    [35530,"2018-02-18T20:00:00","ND","ND","ND","ND","ND","ND","ND","ND","ND"],
    [35531,"2018-02-18T21:00:00","ND","ND","ND","ND","ND","ND","ND","ND","ND"],
    [35532,"2018-02-18T22:00:00","ND","ND","ND","ND","ND","ND","ND","ND","ND"],
    [35533,"2018-02-18T23:00:00","ND","ND","ND","ND","ND","ND","ND","ND","ND"],
    [35534,"2018-02-19T00:00:00","ND","ND","ND","ND","ND","ND","ND","ND","ND"],
    [35535,"2018-02-19T01:00:00","ND","ND","ND","ND","ND","ND","ND","ND","ND"],
    [35536,"2018-02-19T02:00:00","ND","ND","ND","ND","ND","ND","ND","ND","ND"],
    [35537,"2018-02-19T03:00:00","ND","ND","ND","ND","ND","ND","ND","ND","ND"],
    [35538,"2018-02-19T04:00:00","ND","ND","ND","ND","ND","ND","ND","ND","ND"],
    [35539,"2018-02-19T05:00:00","ND","ND","ND","ND","ND","ND","ND","ND","ND"],
    [35540,"2018-02-19T06:00:00","ND","ND","ND","ND","ND","ND","ND","ND","ND"],
    [35541,"2018-02-19T07:00:00","ND","ND","ND","ND","ND","ND","ND","ND","ND"],
    [35542,"2018-02-19T08:00:00","ND","ND","ND","ND","ND","ND","ND","ND","ND"],
    [35543,"2018-02-19T09:00:00","ND","ND","ND","ND","ND","ND","ND","ND","ND"],
    [35544,"2018-02-19T10:00:00","ND","ND","ND","ND","ND","ND","ND","ND","ND"],
    [35545,"2018-02-19T11:00:00","ND","ND","ND","ND","ND","ND","ND","ND","ND"],
    [35546,"2018-02-19T12:00:00","ND","ND","ND","ND","ND","ND","ND","ND","ND"],
    [35547,"2018-02-19T13:00:00","ND","ND","ND","ND","ND","ND","ND","ND","ND"],
    [35548,"2018-02-19T14:00:00","ND","ND","ND","ND","ND","ND","ND","ND","ND"],
    [35549,"2018-02-19T15:00:00","ND","ND","ND","ND","ND","ND","ND","ND","ND"],
    [35550,"2018-02-19T16:00:00","ND","ND","ND","ND","ND","ND","ND","ND","ND"],
    [35551,"2018-02-19T17:00:00","ND","ND","ND","ND","ND","ND","ND","ND","ND"],
    [35552,"2018-02-19T18:00:00","ND","ND","ND","ND","ND","ND","ND","ND","ND"],
    [35553,"2018-02-19T19:00:00","ND","ND","ND","ND","ND","ND","ND","ND","ND"],
    [35554,"2018-02-19T20:00:00","ND","ND","ND","ND","ND","ND","ND","ND","ND"],
    [35555,"2018-02-19T21:00:00","ND","ND","ND","ND","ND","ND","ND","ND","ND"],
    [35556,"2018-02-19T22:00:00","ND","ND","ND","ND","ND","ND","ND","ND","ND"],
    [35557,"2018-02-19T23:00:00","ND","ND","ND","ND","ND","ND","ND","ND","ND"],
    [35558,"2018-02-20T00:00:00","ND","ND","ND","ND","ND","ND","ND","ND","ND"],
    [35559,"2018-02-20T01:00:00","ND","ND","ND","ND","ND","ND","ND","ND","ND"],
    [35560,"2018-02-20T02:00:00","ND","ND","ND","ND","ND","ND","ND","ND","ND"],
    [35561,"2018-02-20T03:00:00","ND","ND","ND","ND","ND","ND","ND","ND","ND"],
    [35562,"2018-02-20T04:00:00","ND","ND","ND","ND","ND","ND","ND","ND","ND"],
    [35563,"2018-02-20T05:00:00","ND","ND","ND","ND","ND","ND","ND","ND","ND"],
    [35564,"2018-02-20T06:00:00","ND","ND","ND","ND","ND","ND","ND","ND","ND"],
    [35565,"2018-02-20T07:00:00","ND","ND","ND","ND","ND","ND","ND","ND","ND"],
    [35566,"2018-02-20T08:00:00","ND","ND","ND","ND","ND","ND","ND","ND","ND"],
    [35567,"2018-02-20T09:00:00","ND","ND","ND","ND","ND","ND","ND","ND","ND"],
    [35568,"2018-02-20T10:00:00","ND","ND","ND","ND","ND","ND","ND","ND","ND"],
    [35569,"2018-02-20T11:00:00","ND","ND","ND","ND","ND","ND","ND","ND","ND"],
    [35570,"2018-02-20T12:00:00","ND","ND","ND","ND","ND","ND","ND","ND","ND"],
    [35571,"2018-02-20T13:00:00","ND","ND","ND","ND","ND","ND","ND","ND","ND"],
    [35572,"2018-02-20T14:00:00","ND","ND","ND","ND","ND","ND","ND","ND","ND"],
    [35573,"2018-02-20T15:00:00","ND","ND","ND","ND","ND","ND","ND","ND","ND"],
    [35574,"2018-02-20T16:00:00","ND","ND","ND","ND","ND","ND","ND","ND","ND"],
    [35575,"2018-02-20T17:00:00","ND","ND","ND","ND","ND","ND","ND","ND","ND"],
    [35576,"2018-02-20T18:00:00","ND","ND","ND","ND","ND","ND","ND","ND","ND"],
    [35577,"2018-02-20T19:00:00","ND","ND","ND","ND","ND","ND","ND","ND","ND"],
    [35578,"2018-02-20T20:00:00","ND","ND","ND","ND","ND","ND","ND","ND","ND"],
    [35579,"2018-02-20T21:00:00","ND","ND","ND","ND","ND","ND","ND","ND","ND"],
    [35580,"2018-02-20T22:00:00","ND","ND","ND","ND","ND","ND","ND","ND","ND"],
    [35581,"2018-02-20T23:00:00","ND","ND","ND","ND","ND","ND","ND","ND","ND"],
    [35582,"2018-02-21T00:00:00","ND","ND","ND","ND","ND","ND","ND","ND","ND"],
    [35583,"2018-02-21T01:00:00","ND","ND","ND","ND","ND","ND","ND","ND","ND"],
    [35584,"2018-02-21T02:00:00","ND","ND","ND","ND","ND","ND","ND","ND","ND"],
    [35585,"2018-02-21T03:00:00","ND","ND","ND","ND","ND","ND","ND","ND","ND"],
    [35586,"2018-02-21T04:00:00","ND","ND","ND","ND","ND","ND","ND","ND","ND"],
    [35587,"2018-02-21T05:00:00","ND","ND","ND","ND","ND","ND","ND","ND","ND"],
    [35588,"2018-02-21T06:00:00","ND","ND","ND","ND","ND","ND","ND","ND","ND"],
    [35589,"2018-02-21T07:00:00","ND","ND","ND","ND","ND","ND","ND","ND","ND"],
    [35590,"2018-02-21T08:00:00","ND","ND","ND","ND","ND","ND","ND","ND","ND"],
    [35591,"2018-02-21T09:00:00","ND","ND","ND","ND","ND","ND","ND","ND","ND"],
    [35592,"2018-02-21T10:00:00","ND","ND","ND","ND","ND","ND","ND","ND","ND"],
    [35593,"2018-02-21T11:00:00","ND","ND","ND","ND","ND","ND","ND","ND","ND"],
    [35594,"2018-02-21T12:00:00","ND","ND","ND","ND","ND","ND","ND","ND","ND"],
    [35595,"2018-02-21T13:00:00","ND","ND","ND","ND","ND","ND","ND","ND","ND"],
    [35596,"2018-02-21T14:00:00","ND","ND","ND","ND","ND","ND","ND","ND","ND"],
    [35597,"2018-02-21T15:00:00","ND","ND","ND","ND","ND","ND","ND","ND","ND"],
    [35598,"2018-02-21T16:00:00","ND","ND","ND","ND","ND","ND","ND","ND","ND"],
    [35599,"2018-02-21T17:00:00","ND","ND","ND","ND","ND","ND","ND","ND","ND"],
    [35600,"2018-02-21T18:00:00","ND","ND","ND","ND","ND","ND","ND","ND","ND"],
    [35601,"2018-02-21T19:00:00","ND","ND","ND","ND","ND","ND","ND","ND","ND"],
    [35602,"2018-02-21T20:00:00","ND","ND","ND","ND","ND","ND","ND","ND","ND"],
    [35603,"2018-02-21T21:00:00","ND","ND","ND","ND","ND","ND","ND","ND","ND"],
    [35604,"2018-02-21T22:00:00","ND","ND","ND","ND","ND","ND","ND","ND","ND"],
    [35605,"2018-02-21T23:00:00","ND","ND","ND","ND","ND","ND","ND","ND","ND"],
    [35606,"2018-02-22T00:00:00","ND","ND","ND","ND","ND","ND","ND","ND","ND"],
    [35607,"2018-02-22T01:00:00","ND","ND","ND","ND","ND","ND","ND","ND","ND"],
    [35608,"2018-02-22T02:00:00","ND","ND","ND","ND","ND","ND","ND","ND","ND"],
    [35609,"2018-02-22T03:00:00","ND","ND","ND","ND","ND","ND","ND","ND","ND"],
    [35610,"2018-02-22T04:00:00","ND","ND","ND","ND","ND","ND","ND","ND","ND"],
    [35611,"2018-02-22T05:00:00","ND","ND","ND","ND","ND","ND","ND","ND","ND"],
    [35612,"2018-02-22T06:00:00","ND","ND","ND","ND","ND","ND","ND","ND","ND"],
    [35613,"2018-02-22T07:00:00","ND","ND","ND","ND","ND","ND","ND","ND","ND"],
    [35614,"2018-02-22T08:00:00","ND","ND","ND","ND","ND","ND","ND","ND","ND"],
    [35615,"2018-02-22T09:00:00","ND","ND","ND","ND","ND","ND","ND","ND","ND"],
    [35616,"2018-02-22T10:00:00","ND","ND","ND","ND","ND","ND","ND","ND","ND"],
    [35617,"2018-02-22T11:00:00","ND","ND","ND","ND","ND","ND","ND","ND","ND"],
    [35618,"2018-02-22T12:00:00","ND","ND","ND","ND","ND","ND","ND","ND","ND"],
    [35619,"2018-02-22T13:00:00","ND","ND","ND","ND","ND","ND","ND","ND","ND"],
    [35620,"2018-02-22T14:00:00","ND","ND","ND","ND","ND","ND","ND","ND","ND"],
    [35621,"2018-02-22T15:00:00","ND","ND","ND","ND","ND","ND","ND","ND","ND"],
    [35622,"2018-02-22T16:00:00","ND","ND","ND","ND","ND","ND","ND","ND","ND"],
    [35623,"2018-02-22T17:00:00","ND","ND","ND","ND","ND","ND","ND","ND","ND"],
    [35624,"2018-02-22T18:00:00","ND","ND","ND","ND","ND","ND","ND","ND","ND"],
    [35625,"2018-02-22T19:00:00","ND","ND","ND","ND","ND","ND","ND","ND","ND"],
    [35626,"2018-02-22T20:00:00","ND","ND","ND","ND","ND","ND","ND","ND","ND"],
    [35627,"2018-02-22T21:00:00","ND","ND","ND","ND","ND","ND","ND","ND","ND"],
    [35628,"2018-02-22T22:00:00","ND","ND","ND","ND","ND","ND","ND","ND","ND"],
    [35629,"2018-02-22T23:00:00","ND","ND","ND","ND","ND","ND","ND","ND","ND"],
    [35630,"2018-02-23T00:00:00","ND","ND","ND","ND","ND","ND","ND","ND","ND"],
    [35631,"2018-02-23T01:00:00","ND","ND","ND","ND","ND","ND","ND","ND","ND"],
    [35632,"2018-02-23T02:00:00","ND","ND","ND","ND","ND","ND","ND","ND","ND"],
    [35633,"2018-02-23T03:00:00","ND","ND","ND","ND","ND","ND","ND","ND","ND"],
    [35634,"2018-02-23T04:00:00","ND","ND","ND","ND","ND","ND","ND","ND","ND"],
    [35635,"2018-02-23T05:00:00","ND","ND","ND","ND","ND","ND","ND","ND","ND"],
    [35636,"2018-02-23T06:00:00","ND","ND","ND","ND","ND","ND","ND","ND","ND"],
    [35637,"2018-02-23T07:00:00","ND","ND","ND","ND","ND","ND","ND","ND","ND"],
    [35638,"2018-02-23T08:00:00","ND","ND","ND","ND","ND","ND","ND","ND","ND"],
    [35639,"2018-02-23T09:00:00","ND","ND","ND","ND","ND","ND","ND","ND","ND"],
    [35640,"2018-02-23T10:00:00","ND","ND","ND","ND","ND","ND","ND","ND","ND"],
    [35641,"2018-02-23T11:00:00","ND","ND","ND","ND","ND","ND","ND","ND","ND"],
    [35642,"2018-02-23T12:00:00","ND","ND","ND","ND","ND","ND","ND","ND","ND"],
    [35643,"2018-02-23T13:00:00","ND","ND","ND","ND","ND","ND","ND","ND","ND"],
    [35644,"2018-02-23T14:00:00","ND","ND","ND","ND","ND","ND","ND","ND","ND"],
    [35645,"2018-02-23T15:00:00","ND","ND","ND","ND","ND","ND","ND","ND","ND"],
    [35646,"2018-02-23T16:00:00","ND","ND","ND","ND","ND","ND","ND","ND","ND"],
    [35647,"2018-02-23T17:00:00","ND","ND","ND","ND","ND","ND","ND","ND","ND"],
    [35648,"2018-02-23T18:00:00","ND","ND","ND","ND","ND","ND","ND","ND","ND"],
    [35649,"2018-02-23T19:00:00","ND","ND","ND","ND","ND","ND","ND","ND","ND"],
    [35650,"2018-02-23T20:00:00","ND","ND","ND","ND","ND","ND","ND","ND","ND"],
    [35651,"2018-02-23T21:00:00","ND","ND","ND","ND","ND","ND","ND","ND","ND"],
    [35652,"2018-02-23T22:00:00","ND","ND","ND","ND","ND","ND","ND","ND","ND"],
    [35653,"2018-02-23T23:00:00","ND","ND","ND","ND","ND","ND","ND","ND","ND"],
    [35654,"2018-02-24T00:00:00","ND","ND","ND","ND","ND","ND","ND","ND","ND"],
    [35655,"2018-02-24T01:00:00","ND","ND","ND","ND","ND","ND","ND","ND","ND"],
    [35656,"2018-02-24T02:00:00","ND","ND","ND","ND","ND","ND","ND","ND","ND"],
    [35657,"2018-02-24T03:00:00","ND","ND","ND","ND","ND","ND","ND","ND","ND"],
    [35658,"2018-02-24T04:00:00","ND","ND","ND","ND","ND","ND","ND","ND","ND"],
    [35659,"2018-02-24T05:00:00","ND","ND","ND","ND","ND","ND","ND","ND","ND"],
    [35660,"2018-02-24T06:00:00","ND","ND","ND","ND","ND","ND","ND","ND","ND"],
    [35661,"2018-02-24T07:00:00","ND","ND","ND","ND","ND","ND","ND","ND","ND"],
    [35662,"2018-02-24T08:00:00","ND","ND","ND","ND","ND","ND","ND","ND","ND"],
    [35663,"2018-02-24T09:00:00","ND","ND","ND","ND","ND","ND","ND","ND","ND"],
    [35664,"2018-02-24T10:00:00","ND","ND","ND","ND","ND","ND","ND","ND","ND"],
    [35665,"2018-02-24T11:00:00","ND","ND","ND","ND","ND","ND","ND","ND","ND"],
    [35666,"2018-02-24T12:00:00","ND","ND","ND","ND","ND","ND","ND","ND","ND"],
    [35667,"2018-02-24T13:00:00","ND","ND","ND","ND","ND","ND","ND","ND","ND"],
    [35668,"2018-02-24T14:00:00","ND","ND","ND","ND","ND","ND","ND","ND","ND"],
    [35669,"2018-02-24T15:00:00","ND","ND","ND","ND","ND","ND","ND","ND","ND"],
    [35670,"2018-02-24T16:00:00","ND","ND","ND","ND","ND","ND","ND","ND","ND"],
    [35671,"2018-02-24T17:00:00","ND","ND","ND","ND","ND","ND","ND","ND","ND"],
    [35672,"2018-02-24T18:00:00","ND","ND","ND","ND","ND","ND","ND","ND","ND"],
    [35673,"2018-02-24T19:00:00","ND","ND","ND","ND","ND","ND","ND","ND","ND"],
    [35674,"2018-02-24T20:00:00","ND","ND","ND","ND","ND","ND","ND","ND","ND"],
    [35675,"2018-02-24T21:00:00","ND","ND","ND","ND","ND","ND","ND","ND","ND"],
    [35676,"2018-02-24T22:00:00","ND","ND","ND","ND","ND","ND","ND","ND","ND"],
    [35677,"2018-02-24T23:00:00","ND","ND","ND","ND","ND","ND","ND","ND","ND"],
    [35678,"2018-02-25T00:00:00","ND","ND","ND","ND","ND","ND","ND","ND","ND"],
    [35679,"2018-02-25T01:00:00","ND","ND","ND","ND","ND","ND","ND","ND","ND"],
    [35680,"2018-02-25T02:00:00","ND","ND","ND","ND","ND","ND","ND","ND","ND"],
    [35681,"2018-02-25T03:00:00","ND","ND","ND","ND","ND","ND","ND","ND","ND"],
    [35682,"2018-02-25T04:00:00","ND","ND","ND","ND","ND","ND","ND","ND","ND"],
    [35683,"2018-02-25T05:00:00","ND","ND","ND","ND","ND","ND","ND","ND","ND"],
    [35684,"2018-02-25T06:00:00","ND","ND","ND","ND","ND","ND","ND","ND","ND"],
    [35685,"2018-02-25T07:00:00","ND","ND","ND","ND","ND","ND","ND","ND","ND"],
    [35686,"2018-02-25T08:00:00","ND","ND","ND","ND","ND","ND","ND","ND","ND"],
    [35687,"2018-02-25T09:00:00","ND","ND","ND","ND","ND","ND","ND","ND","ND"],
    [35688,"2018-02-25T10:00:00","ND","ND","ND","ND","ND","ND","ND","ND","ND"],
    [35689,"2018-02-25T11:00:00","ND","ND","ND","ND","ND","ND","ND","ND","ND"],
    [35690,"2018-02-25T12:00:00","ND","ND","ND","ND","ND","ND","ND","ND","ND"],
    [35691,"2018-02-25T13:00:00","ND","ND","ND","ND","ND","ND","ND","ND","ND"],
    [35692,"2018-02-25T14:00:00","ND","ND","ND","ND","ND","ND","ND","ND","ND"],
    [35693,"2018-02-25T15:00:00","ND","ND","ND","ND","ND","ND","ND","ND","ND"],
    [35694,"2018-02-25T16:00:00","ND","ND","ND","ND","ND","ND","ND","ND","ND"],
    [35695,"2018-02-25T17:00:00","ND","ND","ND","ND","ND","ND","ND","ND","ND"],
    [35696,"2018-02-25T18:00:00","ND","ND","ND","ND","ND","ND","ND","ND","ND"],
    [35697,"2018-02-25T19:00:00","ND","ND","ND","ND","ND","ND","ND","ND","ND"],
    [35698,"2018-02-25T20:00:00","ND","ND","ND","ND","ND","ND","ND","ND","ND"],
    [35699,"2018-02-25T21:00:00","ND","ND","ND","ND","ND","ND","ND","ND","ND"],
    [35700,"2018-02-25T22:00:00","ND","ND","ND","ND","ND","ND","ND","ND","ND"],
    [35701,"2018-02-25T23:00:00","ND","ND","ND","ND","ND","ND","ND","ND","ND"],
    [35702,"2018-02-26T00:00:00","ND","ND","ND","ND","ND","ND","ND","ND","ND"],
    [35703,"2018-02-26T01:00:00","ND","ND","ND","ND","ND","ND","ND","ND","ND"],
    [35704,"2018-02-26T02:00:00","ND","ND","ND","ND","ND","ND","ND","ND","ND"],
    [35705,"2018-02-26T03:00:00","ND","ND","ND","ND","ND","ND","ND","ND","ND"],
    [35706,"2018-02-26T04:00:00","ND","ND","ND","ND","ND","ND","ND","ND","ND"],
    [35707,"2018-02-26T05:00:00","ND","ND","ND","ND","ND","ND","ND","ND","ND"],
    [35708,"2018-02-26T06:00:00","ND","ND","ND","ND","ND","ND","ND","ND","ND"],
    [35709,"2018-02-26T07:00:00","ND","ND","ND","ND","ND","ND","ND","ND","ND"],
    [35710,"2018-02-26T08:00:00","ND","ND","ND","ND","ND","ND","ND","ND","ND"],
    [35711,"2018-02-26T09:00:00","ND","ND","ND","ND","ND","ND","ND","ND","ND"],
    [35712,"2018-02-26T10:00:00","ND","ND","ND","ND","ND","ND","ND","ND","ND"],
    [35713,"2018-02-26T11:00:00","ND","ND","ND","ND","ND","ND","ND","ND","ND"],
    [35714,"2018-02-26T12:00:00","ND","ND","ND","ND","ND","ND","ND","ND","ND"],
    [35715,"2018-02-26T13:00:00","ND","ND","ND","ND","ND","ND","ND","ND","ND"],
    [35716,"2018-02-26T14:00:00","ND","ND","ND","ND","ND","ND","ND","ND","ND"],
    [35717,"2018-02-26T15:00:00","ND","ND","ND","ND","ND","ND","ND","ND","ND"],
    [35718,"2018-02-26T16:00:00","ND","ND","ND","ND","ND","ND","ND","ND","ND"],
    [35719,"2018-02-26T17:00:00","ND","ND","ND","ND","ND","ND","ND","ND","ND"],
    [35720,"2018-02-26T18:00:00","ND","ND","ND","ND","ND","ND","ND","ND","ND"],
    [35721,"2018-02-26T19:00:00","ND","ND","ND","ND","ND","ND","ND","ND","ND"],
    [35722,"2018-02-26T20:00:00","ND","ND","ND","ND","ND","ND","ND","ND","ND"],
    [35723,"2018-02-26T21:00:00","ND","ND","ND","ND","ND","ND","ND","ND","ND"],
    [35724,"2018-02-26T22:00:00","ND","ND","ND","ND","ND","ND","ND","ND","ND"],
    [35725,"2018-02-26T23:00:00","ND","ND","ND","ND","ND","ND","ND","ND","ND"],
    [35726,"2018-02-27T00:00:00","ND","ND","ND","ND","ND","ND","ND","ND","ND"],
    [35727,"2018-02-27T01:00:00","ND","ND","ND","ND","ND","ND","ND","ND","ND"],
    [35728,"2018-02-27T02:00:00","ND","ND","ND","ND","ND","ND","ND","ND","ND"],
    [35729,"2018-02-27T03:00:00","ND","ND","ND","ND","ND","ND","ND","ND","ND"],
    [35730,"2018-02-27T04:00:00","ND","ND","ND","ND","ND","ND","ND","ND","ND"],
    [35731,"2018-02-27T05:00:00","ND","ND","ND","ND","ND","ND","ND","ND","ND"],
    [35732,"2018-02-27T06:00:00","ND","ND","ND","ND","ND","ND","ND","ND","ND"],
    [35733,"2018-02-27T07:00:00","ND","ND","ND","ND","ND","ND","ND","ND","ND"],
    [35734,"2018-02-27T08:00:00","ND","ND","ND","ND","ND","ND","ND","ND","ND"],
    [35735,"2018-02-27T09:00:00","ND","ND","ND","ND","ND","ND","ND","ND","ND"],
    [35736,"2018-02-27T10:00:00","ND","ND","ND","ND","ND","ND","ND","ND","ND"],
    [35737,"2018-02-27T11:00:00","ND","ND","ND","ND","ND","ND","ND","ND","ND"],
    [35738,"2018-02-27T12:00:00","45","19","ND","ND","ND","ND","ND","ND","ND"],
    [35739,"2018-02-27T13:00:00","56","11","70,5","1,4","172,4","33,9","35,2","385,7","0"],
    [35740,"2018-02-27T14:00:00","64","18","96,2","2,9","95,4","34,8","31,4","402","0"],
    [35741,"2018-02-27T15:00:00","69","15","120,4","1,3","34,3","34","32,2","145,1","0"],
    [35742,"2018-02-27T16:00:00","50","7","64,5","2,1","7","33,7","32,7","107,8","0"],
    [35743,"2018-02-27T17:00:00","51","4","28,1","7,1","297,2","33","34,4","88,2","0"],
    [35744,"2018-02-27T18:00:00","32","ND","19,5","7","307,6","31,4","37,4","39,5","0"],
    [35745,"2018-02-27T19:00:00","36","14","12,7","5,7","318,5","29,4","42","0","0"],
    [35746,"2018-02-27T20:00:00","74","9","7,7","2,8","24","28,1","47,7","0","0"],
    [35747,"2018-02-27T21:00:00","112","45","4,9","3","99,2","26,6","54,9","0","0"],
    [35748,"2018-02-27T22:00:00","56","27","4,8","2,7","79,8","25,5","59,9","0","0"],
    [35749,"2018-02-27T23:00:00","61","17","4,7","1,7","82,9","25,7","59,7","0","0"],
    [35750,"2018-02-28T00:00:00","52","16","5,6","3,8","106,6","24,7","63,9","0","0"],
    [35751,"2018-02-28T01:00:00","ND","11","5,9","0,6","84,3","24,4","63,9","0","0"],
    [35752,"2018-02-28T02:00:00","ND","46","8,9","0,4","51,6","24,9","61,6","0","0"],
    [35753,"2018-02-28T03:00:00","ND","43","7","0,8","283,6","24,8","63,1","0","0"],
    [35754,"2018-02-28T04:00:00","ND","42","4,3","2,2","344,6","24,4","64,3","0","0"],
    [35755,"2018-02-28T05:00:00","ND","44","5,2","1,7","18,7","23,6","66,1","0","0"],
    [35756,"2018-02-28T06:00:00","ND","70","4,8","1,7","66,2","22,9","69","0","0"],
    [35757,"2018-02-28T07:00:00","ND","47","3,7","2,3","73,5","22,4","71,1","0","0"],
    [35758,"2018-02-28T08:00:00","ND","43","4,7","1,9","54","23,9","65,5","71,5","0"],
    [35759,"2018-02-28T09:00:00","ND","26","12,1","1,3","80,9","26,7","56,4","201,3","0"],
    [35760,"2018-02-28T10:00:00","ND","26","29","2,5","147","29,1","47,8","298","0"],
    [35761,"2018-02-28T11:00:00","ND","ND","46,8","2,2","195,6","31","42,4","368,9","0"],
    [35762,"2018-02-28T12:00:00","54","15","69","1,4","181,7","32,3","39,3","432,3","0"],
    [35763,"2018-02-28T13:00:00","55","17","80,4","1,6","134,4","33,7","35,7","436","0"],
    [35764,"2018-02-28T14:00:00","53","18","91","0,8","148,9","35,1","32,1","387","0"],
    [35765,"2018-02-28T15:00:00","63","21","113,8","1,5","19,3","35,2","31,4","341","0"],
    [35766,"2018-02-28T16:00:00","71","24","105,2","3,6","342,7","34,6","33,2","156,1","0"],
    [35767,"2018-02-28T17:00:00","38","6","51,9","7,9","299,3","33,4","35,2","145,8","0"],
    [35768,"2018-02-28T18:00:00","42","6","30,4","8,2","299,7","31,7","37","45,1","0"],
    [35769,"2018-02-28T19:00:00","54","6","18,2","7,3","301,5","30","41,7","0","0"],
    [35770,"2018-02-28T20:00:00","72","18","10,1","3","8,1","29,1","44,8","0","0"],
    [35771,"2018-02-28T21:00:00","92","18","5,7","3","118,8","27,3","53,2","0","0"],
    [35772,"2018-02-28T22:00:00","65","13","5,6","3,1","98,6","26,3","58","0","0"],
    [35773,"2018-02-28T23:00:00","52","16","4,4","2","73,9","25,9","59,3","0","0"],
    [35774,"2018-03-01T00:00:00","53","25","5,2","2","89,9","25,7","59,7","0","0"],
    [35775,"2018-03-01T01:00:00","59","20","4,4","2,6","98,3","25","63,7","0","0"],
    [35776,"2018-03-01T02:00:00","48","15","6,3","2","84,7","24,8","65,7","0","0"],
    [35777,"2018-03-01T03:00:00","48","12","7","2,5","85,5","24,6","66,4","0","0"],
    [35778,"2018-03-01T04:00:00","38","9","5","0,8","323,6","24,4","67,4","0","0"],
    [35779,"2018-03-01T05:00:00","49","20","4,2","1,5","148,4","25,1","64,6","0","0"],
    [35780,"2018-03-01T06:00:00","111","51","3,9","1,4","152,9","24,8","66,5","0","0"],
    [35781,"2018-03-01T07:00:00","90","29","3,5","1,7","182,7","24,9","66,1","2,3","0"],
    [35782,"2018-03-01T08:00:00","118","31","5","1,5","130","25,9","63,3","50","0"],
    [35783,"2018-03-01T09:00:00","80","28","20,6","2,1","139,9","28,2","54,3","167","0"],
    [35784,"2018-03-01T10:00:00","72","23","44,6","1,7","166,2","30,2","47,9","275,1","0"],
    [35785,"2018-03-01T11:00:00","38","15","53,8","2,1","94","31,9","40,8","380,3","0"],
    [35786,"2018-03-01T12:00:00","43","7","54,5","2,6","117,2","33,1","38,4","433,3","0"],
    [35787,"2018-03-01T13:00:00","32","12","62,3","1,9","86,7","34,5","33,8","434,2","0"],
    [35788,"2018-03-01T14:00:00","45","10","77,2","1,8","153,6","34,8","33,1","253,9","0"],
    [35789,"2018-03-01T15:00:00","52","18","89,9","2","82,2","34,9","32,3","219,3","0"],
    [35790,"2018-03-01T16:00:00","48","17","93,3","6,1","319,4","34,7","33,9","264,1","0"],
    [35791,"2018-03-01T17:00:00","54","10","39,6","8,4","288,6","33,7","35,2","139,6","0"],
    [35792,"2018-03-01T18:00:00","52","5","22,8","8,4","294,2","31,7","37,4","27,6","0"],
    [35793,"2018-03-01T19:00:00","43","4","15,6","7,1","297,6","30,7","40","0","0"],
    [35794,"2018-03-01T20:00:00","47","6","11,3","1","17,2","29,8","44,6","0","0"],
    [35795,"2018-03-01T21:00:00","59","11","6,8","2,7","122","28,7","50,6","0","0"],
    [35796,"2018-03-01T22:00:00","61","12","6,9","2,1","150,5","28","54,4","0","0"],
    [35797,"2018-03-01T23:00:00","104","17","10,8","2,4","200,4","27,7","58","0","0"],
    [35798,"2018-03-02T00:00:00","79","2","10","1","211,4","27,7","57,8","0","0"],
    [35799,"2018-03-02T01:00:00","44","7","8,6","2","98,9","26,7","63","0","0"],
    [35800,"2018-03-02T02:00:00","49","16","6,6","3","112,9","26,4","64,2","0","0"],
    [35801,"2018-03-02T03:00:00","104","11","6,5","2,1","156,1","26,3","64,8","0","0"],
    [35802,"2018-03-02T04:00:00","94","20","6,8","2,4","184,3","26,2","66,8","0","0"],
    [35803,"2018-03-02T05:00:00","68","17","6","1,9","145,7","26,1","68,9","0","0"],
    [35804,"2018-03-02T06:00:00","62","14","5,8","2,5","66","25,5","67,8","0","0"],
    [35805,"2018-03-02T07:00:00","44","20","6,8","2,5","77,3","24,6","72,1","0","1,02"],
    [35806,"2018-03-02T08:00:00","32","9","7,2","2,5","341,1","24,2","75,8","16","0"],
    [35807,"2018-03-02T09:00:00","20","6","13","1,1","324,6","25,6","69,1","68","0"],
    [35808,"2018-03-02T10:00:00","34","19","17,8","2","218,5","27,1","63,2","105","0"],
    [35809,"2018-03-02T11:00:00","46","15","24,3","1","120,5","28,2","60,3","158,2","0"],
    [35810,"2018-03-02T12:00:00","55","18","48,6","2,2","96,2","29,8","52,4","253,3","0"],
    [35811,"2018-03-02T13:00:00","44","20","67,4","1,8","136,7","31,8","43,2","299,4","0"],
    [35812,"2018-03-02T14:00:00","41","16","56,9","2,6","139,1","31,9","42,1","170,8","0"],
    [35813,"2018-03-02T15:00:00","41","9","61,1","3,2","304,3","30,7","45,7","121,5","0"],
    [35814,"2018-03-02T16:00:00","44","6","31","3,2","329","28,8","54","40,9","1,02"],
    [35815,"2018-03-02T17:00:00","33","18","34,3","2,6","270,4","27,8","60,3","47,1","0,25"],
    [35816,"2018-03-02T18:00:00","35","3","28,6","1,5","312","29,1","51,9","24,6","0"],
    [35817,"2018-03-02T19:00:00","111","40","17,5","1","57,1","28,9","53,1","0","0"],
    [35818,"2018-03-02T20:00:00","91","36","6","1,6","110,2","28,1","58,2","0","0"],
    [35819,"2018-03-02T21:00:00","70","23","6,1","1,3","228,3","27,6","59,3","0","0"],
    [35820,"2018-03-02T22:00:00","85","38","8,2","2,1","185","26,5","68,9","0","0"],
    [35821,"2018-03-02T23:00:00","108","49","8,3","2,1","168,9","25,9","70,6","0","0"],
    [35822,"2018-03-03T00:00:00","95","35","8,7","1,3","169","25,5","72,1","0","0"],
    [35823,"2018-03-03T01:00:00","107","31","6,7","1,7","86,8","25,1","72,6","0","0"],
    [35824,"2018-03-03T02:00:00","52","16","4,3","1,8","63,5","24,7","70,6","0","0"],
    [35825,"2018-03-03T03:00:00","32","7","4,6","0,8","24,9","24,5","70,1","0","0"],
    [35826,"2018-03-03T04:00:00","47","10","4,5","1,6","107,7","24,4","70,8","0","0"],
    [35827,"2018-03-03T05:00:00","47","7","4,5","2,2","115,5","24,2","71,5","0","0"],
    [35828,"2018-03-03T06:00:00","88","30","5,6","1,4","144,9","24,2","73,2","0","0"],
    [35829,"2018-03-03T07:00:00","78","19","4,8","0,6","188,7","24,5","73,6","0","0"],
    [35830,"2018-03-03T08:00:00","112","33","5,7","1,2","123,7","25,4","70,2","38,8","0"],
    [35831,"2018-03-03T09:00:00","62","24","9,9","1,2","158","27,4","62","129,6","0"],
    [35832,"2018-03-03T10:00:00","59","20","31,1","1,2","169,9","29,8","53","261,9","0"],
    [35833,"2018-03-03T11:00:00","54","18","51,8","2,8","130","31,4","46,9","351,6","0"],
    [35834,"2018-03-03T12:00:00","48","12","62,9","2,5","113,2","33,1","40,8","427,2","0"],
    [35835,"2018-03-03T13:00:00","38","16","70,9","2,8","109,4","34,6","36,2","436,9","0"],
    [35836,"2018-03-03T14:00:00","49","19","75,3","2,1","45,3","35","35","305,8","0"],
    [35837,"2018-03-03T15:00:00","47","15","79,8","1,7","94,7","35,3","33,6","264,3","0"],
    [35838,"2018-03-03T16:00:00","53","20","75,5","2,6","120","34,7","34,7","139,8","0"],
    [35839,"2018-03-03T17:00:00","36","11","54,6","5,3","294,8","33","38,6","76,1","0"],
    [35840,"2018-03-03T18:00:00","48","13","44,1","6,1","287,3","31,8","40,9","33,8","0"],
    [35841,"2018-03-03T19:00:00","50","14","30,2","6,2","288,4","30,1","45,8","0","0"],
    [35842,"2018-03-03T20:00:00","34","8","25,7","6,5","267,2","29,4","47,2","0","0"],
    [35843,"2018-03-03T21:00:00","59","8","13,2","1,9","59,4","28,9","50,8","0","0"],
    [35844,"2018-03-03T22:00:00","63","8","7,7","1,6","105,3","27,6","58,5","0","0"],
    [35845,"2018-03-03T23:00:00","40","8","8,6","2,6","101,8","27,4","58,1","0","0"],
    [35846,"2018-03-04T00:00:00","52","13","10,4","3,2","68,2","27,2","57,8","0","0"],
    [35847,"2018-03-04T01:00:00","41","7","10,3","1,9","109,3","26,7","60,1","0","0"],
    [35848,"2018-03-04T02:00:00","33","6","12,4","1,7","193,5","26,5","62,2","0","0"],
    [35849,"2018-03-04T03:00:00","49","9","8,5","1,6","191,5","26,3","64,9","0","0"],
    [35850,"2018-03-04T04:00:00","50","10","11","1,9","243,5","26,2","64,9","0","0"],
    [35851,"2018-03-04T05:00:00","55","6","8,9","0,9","125,1","26,1","66,8","0","0"],
    [35852,"2018-03-04T06:00:00","72","17","5,4","1,1","84,2","25,4","70,9","0","0"],
    [35853,"2018-03-04T07:00:00","89","25","6,2","1,4","75,8","25,6","68,9","5,8","0"],
    [35854,"2018-03-04T08:00:00","92","29","7,4","2,2","110,7","26,3","67,2","45","0"],
    [35855,"2018-03-04T09:00:00","59","10","15,7","1,5","126,8","28","60,1","119,7","0"],
    [35856,"2018-03-04T10:00:00","43","12","27,5","1,5","124,5","29,5","54,7","195,7","0"],
    [35857,"2018-03-04T11:00:00","59","8","52","1,6","111,6","32","45,3","389,8","0"],
    [35858,"2018-03-04T12:00:00","54","15","72,8","0,8","68,8","33,1","41,2","343,4","0"],
    [35859,"2018-03-04T13:00:00","29","8","77,1","1,8","88,3","34,6","36,5","404,3","0"],
    [35860,"2018-03-04T14:00:00","38","8","82,1","1,9","41,4","35","34,4","277,2","0"],
    [35861,"2018-03-04T15:00:00","37","9","94","1,8","34,4","34,8","33,7","176,9","0"],
    [35862,"2018-03-04T16:00:00","41","23","96,4","3,2","325,5","33,9","35,3","40,1","0"],
    [35863,"2018-03-04T17:00:00","33","1","41,8","8,2","286,3","32,4","39,9","118,4","0"],
    [35864,"2018-03-04T18:00:00","27","ND","39,8","8,5","293,9","31,5","41,1","58,9","0"],
    [35865,"2018-03-04T19:00:00","34","5","28","3,6","307,6","30,5","44,1","0","0"],
    [35866,"2018-03-04T20:00:00","31","6","24,6","2,7","307","30","45,3","0","0"],
    [35867,"2018-03-04T21:00:00","78","6","13,4","1,5","180,3","28,6","53,1","0","0"],
    [35868,"2018-03-04T22:00:00","56","12","16,1","2,7","193,1","27,5","61,2","0","0"],
    [35869,"2018-03-04T23:00:00","50","8","18,5","3,9","232,5","26,7","65,7","0","0"],
    [35870,"2018-03-05T00:00:00","36","5","15,8","2,3","182,4","26,4","67,7","0","0"],
    [35871,"2018-03-05T01:00:00","22","3","12,7","2,1","145,4","25,4","72,8","0","0"],
    [35872,"2018-03-05T02:00:00","25","6","11,6","1,9","78","24,7","75,4","0","0"],
    [35873,"2018-03-05T03:00:00","30","7","10","0,4","342,5","24,5","75,7","0","0"],
    [35874,"2018-03-05T04:00:00","63","5","7,8","1,1","43,9","24,4","75,2","0","0"],
    [35875,"2018-03-05T05:00:00","66","17","6,2","0,7","93,5","24,1","76,6","0","0"],
    [35876,"2018-03-05T06:00:00","52","17","5,8","1,3","258,7","24,6","74,9","0","0"],
    [35877,"2018-03-05T07:00:00","100","29","5,7","2","59,5","24,6","74,2","5,7","0"],
    [35878,"2018-03-05T08:00:00","105","34","7,2","1,6","103,3","25,3","72,1","56,8","0"],
    [35879,"2018-03-05T09:00:00","94","25","10,7","1,5","87,5","27,3","65,9","125,1","0"],
    [35880,"2018-03-05T10:00:00","66","15","29,4","1","1,4","29,5","55,2","225","0"],
    [35881,"2018-03-05T11:00:00","42","5","56,7","1,5","318,8","31,1","47,5","273","0"],
    [35882,"2018-03-05T12:00:00","43","24","71,4","2","127,3","32,3","42,9","285,2","0"],
    [35883,"2018-03-05T13:00:00","51","24","77,7","2,2","136,6","33,9","38,9","371,2","0"],
    [35884,"2018-03-05T14:00:00","54","14","69,3","3,5","80,8","33,7","38,8","276,4","0"],
    [35885,"2018-03-05T15:00:00","59","16","75,5","4,2","30","33,3","40,1","119,5","0"],
    [35886,"2018-03-05T16:00:00","38","8","67","5,5","307,6","32,4","41,6","148,5","0"],
    [35887,"2018-03-05T17:00:00","38","5","43,7","5","293,4","32,1","39,6","87","0"],
    [35888,"2018-03-05T18:00:00","38","6","33,1","3,6","324,2","31,6","41","29,7","0"],
    [35889,"2018-03-05T19:00:00","33","4","20,9","5,2","299,3","29,7","46,6","0","0"],
    [35890,"2018-03-05T20:00:00","42","7","16,5","2","276,4","29,2","48,8","0","0"],
    [35891,"2018-03-05T21:00:00","50","9","18,8","2,4","184","28,5","54,4","0","0"],
    [35892,"2018-03-05T22:00:00","39","8","18,6","2,8","196,7","26,9","64,3","0","0,25"],
    [35893,"2018-03-05T23:00:00","38","7","10,5","2,3","160,8","26,2","68,7","0","0"],
    [35894,"2018-03-06T00:00:00","31","6","8,6","2,7","142,6","25,9","70,2","0","0"],
    [35895,"2018-03-06T01:00:00","19","3","8,6","1,7","173,8","25,7","70,3","0","0"],
    [35896,"2018-03-06T02:00:00","26","ND","8,4","2,1","96,8","24,9","74","0","0"],
    [35897,"2018-03-06T03:00:00","25","3","8,5","1,3","199,1","24,6","74,9","0","0"],
    [35898,"2018-03-06T04:00:00","41","8","7,5","0,9","80,1","25","73","0","0"],
    [35899,"2018-03-06T05:00:00","37","5","5,5","1,9","88,6","24,4","75,6","0","0"],
    [35900,"2018-03-06T06:00:00","58","17","5,2","0,6","52,7","24,3","76,7","0","0"],
    [35901,"2018-03-06T07:00:00","65","14","5,1","0,8","292,9","24,9","73,4","4,2","0"],
    [35902,"2018-03-06T08:00:00","79","22","6,2","0,5","117,2","26,2","68,3","36,6","0"],
    [35903,"2018-03-06T09:00:00","103","27","7,5","2,6","101,8","26,5","69,3","65,9","0"],
    [35904,"2018-03-06T10:00:00","ND","27","16","1,5","111,7","28,5","59,6","152,9","0"],
    [35905,"2018-03-06T11:00:00","ND","ND","31,2","1,1","146,1","30","52,7","199,8","0"],
    [35906,"2018-03-06T12:00:00","49","12","52,9","1,1","146,1","31,8","45,5","264,9","0"],
    [35907,"2018-03-06T13:00:00","54","19","51,5","3,1","97","32,1","44,4","238,9","0"],
    [35908,"2018-03-06T14:00:00","22","6","64,1","2,7","109,7","33,9","38,9","401,3","0"],
    [35909,"2018-03-06T15:00:00","14","4","84,5","2,5","21,9","34,7","35,8","290,4","0"],
    [35910,"2018-03-06T16:00:00","41","1","94,9","2,6","15,6","34,1","37,4","176,2","0"],
    [35911,"2018-03-06T17:00:00","33","4","71,2","2,9","21,4","33,7","38,3","85,8","0"],
    [35912,"2018-03-06T18:00:00","34","5","44,1","5,3","290,9","32,3","39,9","35,8","0"],
    [35913,"2018-03-06T19:00:00","27","3","28,6","6,6","292,6","30","45,9","0","0"],
    [35914,"2018-03-06T20:00:00","32","2","22","5,2","297,2","29,4","48,3","0","0"],
    [35915,"2018-03-06T21:00:00","44","3","14,6","1,6","354,6","28,4","52,9","0","0"],
    [35916,"2018-03-06T22:00:00","32","2","7,6","2,7","86,4","26,6","62,4","0","0"],
    [35917,"2018-03-06T23:00:00","65","24","11,2","2,5","79,4","26,4","62,7","0","0"],
    [35918,"2018-03-07T00:00:00","47","26","9,5","0,7","88","26,4","61,7","0","0"],
    [35919,"2018-03-07T01:00:00","43","5","6,9","2,4","208,2","26,8","61,4","0","0"],
    [35920,"2018-03-07T02:00:00","45","13","6,8","3","128,2","26,1","64,9","0","0"],
    [35921,"2018-03-07T03:00:00","60","8","6,4","0,4","309","26,2","64,9","0","0"],
    [35922,"2018-03-07T04:00:00","44","7","10,6","1,2","358,3","26,4","63,7","0","0"],
    [35923,"2018-03-07T05:00:00","62","14","8,3","2,5","99","25,7","68,7","0","0"],
    [35924,"2018-03-07T06:00:00","73","22","7,7","1,7","72,8","25,3","70,7","0","0"],
    [35925,"2018-03-07T07:00:00","55","12","6,2","1,3","292,2","25,3","70,7","0","0"],
    [35926,"2018-03-07T08:00:00","64","11","7,4","2,5","202,5","26,5","66,3","42,6","0"],
    [35927,"2018-03-07T09:00:00","32","6","14,6","0,8","193,5","29,2","55,7","178,5","0"],
    [35928,"2018-03-07T10:00:00","65","12","30,2","3,2","172","30,9","50","249,1","0"],
    [35929,"2018-03-07T11:00:00","58","14","63,4","1,1","242,2","32","45,8","344,2","0"],
    [35930,"2018-03-07T12:00:00","66","18","78,4","1,5","64,5","33","42,3","260,7","0"],
    [35931,"2018-03-07T13:00:00","60","20","81","2,3","105,9","33,6","40,5","287,4","0"],
    [35932,"2018-03-07T14:00:00","63","16","83,4","2,4","127,1","34,3","37,7","176,1","0"],
    [35933,"2018-03-07T15:00:00","75","19","91,2","2,9","120,7","33,9","38,1","118,6","0"],
    [35934,"2018-03-07T16:00:00","67","20","119","2","261,2","34,1","38,2","141,3","0"],
    [35935,"2018-03-07T17:00:00","30","ND","81,8","4,8","284,2","33,5","38,6","82,3","0"],
    [35936,"2018-03-07T18:00:00","40","ND","52,5","5,8","290,2","32","41,4","21,7","0"],
    [35937,"2018-03-07T19:00:00","37","ND","25,6","4,3","303,8","30,6","46,3","0","0"],
    [35938,"2018-03-07T20:00:00","36","1","16,4","3,5","307,6","29,6","49,6","0","0"],
    [35939,"2018-03-07T21:00:00","66","1","7,4","2,9","83,8","27,9","57,9","0","0"],
    [35940,"2018-03-07T22:00:00","110","23","7,8","2,2","70,9","27,1","60,8","0","0"],
    [35941,"2018-03-07T23:00:00","38","ND","8,3","2,4","80,5","26,6","62,1","0","0"],
    [35942,"2018-03-08T00:00:00","43","10","9","1,9","85,4","26,8","61,2","0","0"],
    [35943,"2018-03-08T01:00:00","51","6","6,6","2,5","180,3","26,3","65,9","0","0"],
    [35944,"2018-03-08T02:00:00","51","2","7,4","2,6","183,2","26,2","66,7","0","0"],
    [35945,"2018-03-08T03:00:00","44","2","6,6","1,6","139,8","26","66,5","0","0"],
    [35946,"2018-03-08T04:00:00","87","ND","5","2,3","95","25,5","68,8","0","1,27"],
    [35947,"2018-03-08T05:00:00","64","3","5,8","1,5","146","24,9","75,9","0","5,33"],
    [35948,"2018-03-08T06:00:00","86","17","6","1,5","105","25","75,4","0","0"],
    [35949,"2018-03-08T07:00:00","92","28","5,9","1,8","152,3","24,9","75,6","5,8","0"],
    [35950,"2018-03-08T08:00:00","72","8","5,8","2,4","184,2","25,8","72,2","53","0"],
    [35951,"2018-03-08T09:00:00","64","8","7,2","1,9","164,1","27,4","63,9","72,3","0"],
    [35952,"2018-03-08T10:00:00","61","9","14,6","1,8","130,8","29","56,2","161,1","0"],
    [35953,"2018-03-08T11:00:00","44","7","25,7","1,8","121,3","29,8","53,2","140","0,25"],
    [35954,"2018-03-08T12:00:00","47","5","53,5","1,3","114,6","32,2","45,5","414,8","0"],
    [35955,"2018-03-08T13:00:00","58","7","67,3","3,5","113,5","33,2","42","334,4","0"],
    [35956,"2018-03-08T14:00:00","50","6","72,7","2,5","132,7","34,6","38,2","326,7","0"],
    [35957,"2018-03-08T15:00:00","33","8","73,8","3,2","109,8","34,2","38,5","193,5","0"],
    [35958,"2018-03-08T16:00:00","48","7","82,2","0,8","198,8","34,7","37,5","179,7","0"],
    [35959,"2018-03-08T17:00:00","49","4","63,4","1","7,9","33,9","38,5","88,2","0"],
    [35960,"2018-03-08T18:00:00","31","1","48","5","290,5","32,5","39,9","45,5","0"],
    [35961,"2018-03-08T19:00:00","31","1","25,2","4,6","287,8","30,9","43,4","0","0"],
    [35962,"2018-03-08T20:00:00","27","ND","12,8","4,4","305,4","30,2","45,1","0","0"],
    [35963,"2018-03-08T21:00:00","77","14","7,8","2,2","49,4","29,4","49,8","0","0"],
    [35964,"2018-03-08T22:00:00","52","8","7,5","3,7","92,5","27,7","58,8","0","0"],
    [35965,"2018-03-08T23:00:00","23","2","7,9","2,1","62,2","27,8","58,1","0","0"],
    [35966,"2018-03-09T00:00:00","18","ND","8,4","0,9","178,4","27,6","58,7","0","0"],
    [35967,"2018-03-09T01:00:00","22","ND","5,9","1,6","186,6","27,2","61,1","0","0"],
    [35968,"2018-03-09T02:00:00","37","ND","7,3","1,7","117","26,6","63,4","0","0"],
    [35969,"2018-03-09T03:00:00","21","ND","6,7","1,9","110,3","25,9","66,5","0","0"],
    [35970,"2018-03-09T04:00:00","28","ND","6,5","1,2","154,2","26","66,1","0","0"],
    [35971,"2018-03-09T05:00:00","53","8","5,8","1,6","144,9","26,1","66,2","0","0"],
    [35972,"2018-03-09T06:00:00","79","25","5,8","1,1","109,7","25,9","68,5","0","0"],
    [35973,"2018-03-09T07:00:00","84","15","5,4","0,2","156","26,3","66,9","4,3","0"],
    [35974,"2018-03-09T08:00:00","66","13","6,5","2,2","154,6","26,8","65,2","44,6","0"],
    [35975,"2018-03-09T09:00:00","65","9","11,7","2,9","170,3","28,6","59,4","175,4","0"],
    [35976,"2018-03-09T10:00:00","46","1","29,7","1,1","275,3","30,5","52","197,9","0"],
    [35977,"2018-03-09T11:00:00","50","17","50,6","1,3","141,1","32,2","46,2","348,1","0"],
    [35978,"2018-03-09T12:00:00","54","ND","79,1","1,4","127,4","34,4","39,2","405,6","0"],
    [35979,"2018-03-09T13:00:00","65","10","111,1","2,9","66,5","35,5","34,3","414,7","0"],
    [35980,"2018-03-09T14:00:00","47","7","102,7","1,7","6,3","36","33,1","293,8","0"],
    [35981,"2018-03-09T15:00:00","45","2","93,9","2,3","78,7","36,7","29,8","311,1","0"],
    [35982,"2018-03-09T16:00:00","35","1","98,5","2,5","307,5","36,1","31,2","189,1","0"],
    [35983,"2018-03-09T17:00:00","29","1","74,6","4,3","310,1","35,2","34","120","0"],
    [35984,"2018-03-09T18:00:00","46","7","61,1","5,3","305,4","33,7","37,3","38,8","0"],
    [35985,"2018-03-09T19:00:00","57","6","41,3","5,3","296,8","31,6","42,3","0","0"],
    [35986,"2018-03-09T20:00:00","59","9","17","3,4","319,9","30,9","44,8","0","0"],
    [35987,"2018-03-09T21:00:00","82","23","12,1","3,5","81","29","53","0","0"],
    [35988,"2018-03-09T22:00:00","49","11","9,2","2,3","83,5","27,4","59,4","0","0"],
    [35989,"2018-03-09T23:00:00","47","7","10,2","2,6","92,2","27,8","57,3","0","0"],
    [35990,"2018-03-10T00:00:00","31","5","11,4","3","111","27,3","59,5","0","0"],
    [35991,"2018-03-10T01:00:00","29","4","11,5","2,6","122,2","26,6","62,9","0","0"],
    [35992,"2018-03-10T02:00:00","33","ND","14,1","1","105,6","26,8","62","0","0"],
    [35993,"2018-03-10T03:00:00","48","4","12,6","1,6","180,4","26,7","62,9","0","0"],
    [35994,"2018-03-10T04:00:00","53","10","13,3","1,5","161,5","27","61,1","0","0"],
    [35995,"2018-03-10T05:00:00","53","9","9,4","2,1","159,8","26,6","62,9","0","0"],
    [35996,"2018-03-10T06:00:00","50","9","6,4","2","154,5","25,6","65,6","0","0"],
    [35997,"2018-03-10T07:00:00","55","8","5,6","1,9","173,6","24,8","68,7","8","0"],
    [35998,"2018-03-10T08:00:00","57","11","9,4","2,1","172,3","26,5","60,8","79,6","0"],
    [35999,"2018-03-10T09:00:00","54","8","17,7","2,4","131,9","28","56,4","144,7","0"],
    [36000,"2018-03-10T10:00:00","46","4","39,8","1,6","161,7","30,7","48,6","296,8","0"],
    [36001,"2018-03-10T11:00:00","39","4","64,5","1,6","145,7","32,4","43","368,2","0"],
    [36002,"2018-03-10T12:00:00","48","2","84,3","1,6","113,9","33,9","39","425,1","0"],
    [36003,"2018-03-10T13:00:00","70","16","81,9","3,5","91,1","35,3","35,8","412,8","0"],
    [36004,"2018-03-10T14:00:00","43","6","104,6","2,5","13","36,6","31,1","409,9","0"],
    [36005,"2018-03-10T15:00:00","59","14","132,5","0,9","22,3","37,6","28,5","343,3","0"],
    [36006,"2018-03-10T16:00:00","46","7","106,3","3,5","37,5","36,9","30,1","199,1","0"],
    [36007,"2018-03-10T17:00:00","46","1","70,5","5,2","356,3","35,7","34,2","141,2","0"],
    [36008,"2018-03-10T18:00:00","46","4","65,7","5,5","296,3","33,9","37,3","39,3","0"],
    [36009,"2018-03-10T19:00:00","55","9","37,3","4,6","292,7","31,9","40,5","0","0"],
    [36010,"2018-03-10T20:00:00","62","13","26,3","1,6","309","30,8","44,2","0","0"],
    [36011,"2018-03-10T21:00:00","65","10","11,8","3,5","110,8","28,9","53,6","0","0"],
    [36012,"2018-03-10T22:00:00","79","9","11,7","2,4","157","28,3","56,8","0","0"],
    [36013,"2018-03-10T23:00:00","59","6","10,4","3,5","100,4","27,6","58,5","0","0"],
    [36014,"2018-03-11T00:00:00","66","4","9,1","2,6","103,8","27,2","60","0","0"],
    [36015,"2018-03-11T01:00:00","61","7","11","1,4","134,4","26,7","62,9","0","0"],
    [36016,"2018-03-11T02:00:00","64","13","10,2","2,7","113,7","26,5","63,7","0","0"],
    [36017,"2018-03-11T03:00:00","43","8","12,7","0,9","35,6","25,9","65","0","0"],
    [36018,"2018-03-11T04:00:00","48","7","10,7","1,2","176,6","25,6","66,3","0","0"],
    [36019,"2018-03-11T05:00:00","58","13","7","2,4","135,5","24,6","69,9","0","0"],
    [36020,"2018-03-11T06:00:00","64","6","5,9","2,2","176,6","24,2","70,3","0","0"],
    [36021,"2018-03-11T07:00:00","52","7","5,1","2,1","197,1","23,6","71,4","8,8","0"],
    [36022,"2018-03-11T08:00:00","64","18","12,7","1,6","219,8","25,8","63,8","90,2","0"],
    [36023,"2018-03-11T09:00:00","68","8","28,3","2,4","164,5","29,1","51,1","198,4","0"],
    [36024,"2018-03-11T10:00:00","46","6","48,8","1,8","123,1","31,1","47,3","299,3","0"],
    [36025,"2018-03-11T11:00:00","50","2","67,3","2,8","101,7","32,3","43,4","381,8","0"],
    [36026,"2018-03-11T12:00:00","40","5","76,7","1,8","127,4","34,3","38,7","426,1","0"],
    [36027,"2018-03-11T13:00:00","39","11","78,5","2,6","75","35,9","33,6","439,2","0"],
    [36028,"2018-03-11T14:00:00","46","7","96,4","1,4","101,3","36,9","30,1","412,6","0"],
    [36029,"2018-03-11T15:00:00","48","3","95,2","3,2","103,3","37,5","28,3","346,7","0"],
    [36030,"2018-03-11T16:00:00","54","7","99,9","3,8","8,2","37","31,3","182,4","0"],
    [36031,"2018-03-11T17:00:00","53","3","84,3","5,2","322,2","36","34","145,8","0"],
    [36032,"2018-03-11T18:00:00","45","ND","54,7","7,3","307,3","33,6","38,4","44,4","0"],
    [36033,"2018-03-11T19:00:00","33","ND","32,4","5,5","312,5","31,8","42,7","0","0"],
    [36034,"2018-03-11T20:00:00","37","6","20,1","2,5","307,3","31,1","44,5","0","0"],
    [36035,"2018-03-11T21:00:00","56","4","9,7","4","119,3","29,2","53,4","0","0"],
    [36036,"2018-03-11T22:00:00","49","9","8,6","3,1","106,1","28,3","57,5","0","0"],
    [36037,"2018-03-11T23:00:00","53","8","8,5","2","158","27,7","60,3","0","0"],
    [36038,"2018-03-12T00:00:00","39","4","10,7","3,2","98,5","27,2","61,8","0","0"],
    [36039,"2018-03-12T01:00:00","26","ND","13,9","2,3","82,2","26,7","63","0","0"],
    [36040,"2018-03-12T02:00:00","32","ND","13,2","1,9","86,2","26,3","64,5","0","0"],
    [36041,"2018-03-12T03:00:00","23","ND","12,7","1,1","182","26,3","65,2","0","0"],
    [36042,"2018-03-12T04:00:00","51","ND","8,8","1,9","195,3","26,2","66,8","0","0"],
    [36043,"2018-03-12T05:00:00","71","6","6,2","2,8","126","25,1","71","0","0"],
    [36044,"2018-03-12T06:00:00","87","15","5,1","2","159,8","24,6","72,5","0","0"],
    [36045,"2018-03-12T07:00:00","89","27","5,8","1,3","171","24,5","73","10,1","0"],
    [36046,"2018-03-12T08:00:00","78","6","10,4","0,9","201,4","26,9","64,3","107,8","0"],
    [36047,"2018-03-12T09:00:00","75","10","23,6","2,2","164,3","29,4","54,5","203,6","0"],
    [36048,"2018-03-12T10:00:00","48","7","39,9","2,7","149","31,5","47,4","301,2","0"],
    [36049,"2018-03-12T11:00:00","59","5","62,2","2","113,9","33,3","42,3","392,1","0"],
    [36050,"2018-03-12T12:00:00","55","4","80,5","3,1","91,8","34,5","38,7","391,7","0"],
    [36051,"2018-03-12T13:00:00","70","7","106,2","1,7","88,8","35,9","35,5","418,9","0"],
    [36052,"2018-03-12T14:00:00","74","11","133,9","3,2","1,7","36,5","33,2","345,7","0"],
    [36053,"2018-03-12T15:00:00","42","6","82,5","5,4","316,1","35,7","33,8","187,3","0"],
    [36054,"2018-03-12T16:00:00","60","ND","53,6","8,9","283,3","35,7","33,4","249,8","0"],
    [36055,"2018-03-12T17:00:00","54","ND","52,9","7,9","295,7","35","34,1","142,8","0"],
    [36056,"2018-03-12T18:00:00","35","ND","31,8","8,2","310,4","32,8","39,6","36,5","0"],
    [36057,"2018-03-12T19:00:00","52","ND","12,1","6,3","318,8","31,1","43,7","0","0"],
    [36058,"2018-03-12T20:00:00","71","7","10,6","1,6","10,2","30,3","47,1","0","0"],
    [36059,"2018-03-12T21:00:00","114","52","13,5","3,6","102,2","28,5","55","0","0"],
    [36060,"2018-03-12T22:00:00","152","89","16,9","3,2","82,8","28","57,2","0","0"],
    [36061,"2018-03-12T23:00:00","35","5","6,1","1,9","87,2","27,7","58,6","0","0"],
    [36062,"2018-03-13T00:00:00","24","ND","7,9","3","81,1","27,2","60,8","0","0"],
    [36063,"2018-03-13T01:00:00","26","ND","10,5","2,3","88,7","27","61,9","0","0"],
    [36064,"2018-03-13T02:00:00","28","ND","7,7","1,5","134,2","26,6","64,1","0","0"],
    [36065,"2018-03-13T03:00:00","42","ND","5,6","1,3","166,2","25,9","67,7","0","0"],
    [36066,"2018-03-13T04:00:00","50","ND","5,1","1,8","207,7","25,7","68,6","0","0"],
    [36067,"2018-03-13T05:00:00","59","ND","5,2","1,5","192,6","25,7","68","0","0"],
    [36068,"2018-03-13T06:00:00","69","15","5,2","2,1","132,7","25,4","68,6","0","0"],
    [36069,"2018-03-13T07:00:00","98","15","5,4","2,2","145,7","25,3","70","5,2","0"],
    [36070,"2018-03-13T08:00:00","72","9","6,2","2,9","161","26,3","66,4","78,8","0"],
    [36071,"2018-03-13T09:00:00","59","1","11","2,9","182,1","28,5","57,1","153,6","0"],
    [36072,"2018-03-13T10:00:00","29","ND","27,7","2,3","191,5","30,9","47,2","297,3","0"],
    [36073,"2018-03-13T11:00:00","29","ND","47,3","0,6","126,4","32,4","43","372,9","0"],
    [36074,"2018-03-13T12:00:00","55","ND","63,4","4,1","86,9","33,6","39,5","419,1","0"],
    [36075,"2018-03-13T13:00:00","55","11","91,3","4,5","42,3","35,1","36,1","437,5","0"],
    [36076,"2018-03-13T14:00:00","55","7","97,6","3,5","43,1","36,6","31","422,4","0"],
    [36077,"2018-03-13T15:00:00","32","3","70,4","3,3","341,2","35,9","29,5","210,2","0"],
    [36078,"2018-03-13T16:00:00","27","ND","61,7","6,7","295,7","35,9","30,3","247,3","0"],
    [36079,"2018-03-13T17:00:00","56","ND","52,9","8,4","292,7","34,3","33,1","141,4","0"],
    [36080,"2018-03-13T18:00:00","51","1","40,1","6,9","293,3","32,6","36,9","35","0"],
    [36081,"2018-03-13T19:00:00","51","15","27,7","5,9","299,9","31,1","41,1","0","0"],
    [36082,"2018-03-13T20:00:00","90","24","10,3","1,7","50,9","30","45,1","0","0"],
    [36083,"2018-03-13T21:00:00","76","25","9,5","2,9","118,9","28,1","53,3","0","0"],
    [36084,"2018-03-13T22:00:00","62","19","11,5","3,3","79","27,1","58,8","0","0"],
    [36085,"2018-03-13T23:00:00","48","11","8,8","1,8","87","27,2","58,5","0","0"],
    [36086,"2018-03-14T00:00:00","39","11","10,9","2,3","110,4","26,8","60,2","0","0"],
    [36087,"2018-03-14T01:00:00","41","4","12,4","2,8","110,3","26,2","63","0","0"],
    [36088,"2018-03-14T02:00:00","54","ND","12,5","1,4","156,6","26","63,9","0","0"],
    [36089,"2018-03-14T03:00:00","72","2","8,6","2,5","218","25,4","66,4","0","0"],
    [36090,"2018-03-14T04:00:00","69","6","7,9","1,5","215,9","25,2","67,2","0","0"],
    [36091,"2018-03-14T05:00:00","80","17","5,9","1,7","132,8","25,2","67,1","0","0"],
    [36092,"2018-03-14T06:00:00","77","20","5,2","1,8","158,4","24,2","71,1","0","0"],
    [36093,"2018-03-14T07:00:00","79","6","4,9","1,6","171,4","24,1","72,2","10,6","0"],
    [36094,"2018-03-14T08:00:00","87","17","6,9","1,9","161,9","25,6","66,5","54,6","0"],
    [36095,"2018-03-14T09:00:00","63","7","15,2","2,2","143,3","28,1","56,7","154,9","0"],
    [36096,"2018-03-14T10:00:00","67","6","33,6","1,5","168,2","30,6","48,2","293","0"],
    [36097,"2018-03-14T11:00:00","58","2","56","2","113,7","32,6","42","379,1","0"],
    [36098,"2018-03-14T12:00:00","ND","1","ND","2,7","118,7","34","38","424,5","0"],
    [36099,"2018-03-14T13:00:00","83","20","111,9","2,1","70,2","35,3","35,7","434,1","0"],
    [36100,"2018-03-14T14:00:00","67","20","111,1","2,8","16,6","35,8","33,9","298,4","0"],
    [36101,"2018-03-14T15:00:00","44","5","71,6","2,5","23","35,9","32,1","221,8","0"],
    [36102,"2018-03-14T16:00:00","46","1","64,4","6,7","300,7","35,6","31,8","252,5","0"],
    [36103,"2018-03-14T17:00:00","48","ND","57,1","7,7","284","34,3","34","124,9","0"],
    [36104,"2018-03-14T18:00:00","45","5","44,8","6,3","293,2","33","36,4","38,7","0"],
    [36105,"2018-03-14T19:00:00","49","1","31,6","6,5","293","30,9","42,2","0","0"],
    [36106,"2018-03-14T20:00:00","50","1","15,8","1,5","320,4","30,7","43,2","0","0"],
    [36107,"2018-03-14T21:00:00","65","13","10,6","2,7","115","29","51,6","0","0"],
    [36108,"2018-03-14T22:00:00","63","11","10,3","3,3","82,4","28,1","56,3","0","0"],
    [36109,"2018-03-14T23:00:00","40","9","10,1","0,8","78,7","27,9","56,9","0","0"],
    [36110,"2018-03-15T00:00:00","48","11","9,7","2,8","80,6","27,1","60,5","0","0"],
    [36111,"2018-03-15T01:00:00","37","4","11","1,8","85,3","26,3","64,1","0","0"],
    [36112,"2018-03-15T02:00:00","34","ND","11,4","1,8","90,4","26,4","64,1","0","0"],
    [36113,"2018-03-15T03:00:00","44","ND","10,7","0,7","208,1","26,2","64,9","0","0"],
    [36114,"2018-03-15T04:00:00","68","6","8,5","2,4","156,4","25,8","66,9","0","0"],
    [36115,"2018-03-15T05:00:00","73","13","5,2","0,2","121,6","25,1","69,9","0","0"],
    [36116,"2018-03-15T06:00:00","87","20","5,3","1,6","164,1","25,6","67,6","0","0"],
    [36117,"2018-03-15T07:00:00","107","23","5,4","1,6","135,9","25,6","67,5","9,7","0"],
    [36118,"2018-03-15T08:00:00","130","24","8,9","2,6","159,7","26,8","63,8","84,3","0"],
    [36119,"2018-03-15T09:00:00","66","5","16,3","2,7","198,4","28,1","59,3","124,9","0"],
    [36120,"2018-03-15T10:00:00","59","5","27","2,6","187,4","30,4","52","285,3","0"],
    [36121,"2018-03-15T11:00:00","57","9","47,4","1,9","186,3","32,6","44,8","364,2","0"],
    [36122,"2018-03-15T12:00:00","52","6","69,5","1,8","140,8","34,3","38,4","405,5","0"],
    [36123,"2018-03-15T13:00:00","56","9","92,5","0,1","312","35,3","34,7","374,9","0"],
    [36124,"2018-03-15T14:00:00","61","8","98,2","3,1","348,9","35,4","33,4","235,2","0"],
    [36125,"2018-03-15T15:00:00","49","3","66,6","4,4","329,3","35,7","32","327,7","0"],
    [36126,"2018-03-15T16:00:00","53","1","67,6","3,5","342,9","35,4","31,5","140,6","0"],
    [36127,"2018-03-15T17:00:00","43","ND","52,2","3,6","327,5","33,6","35,4","61,4","0"],
    [36128,"2018-03-15T18:00:00","67","3","32,6","5","22,5","32,6","38,9","21,6","0"],
    [36129,"2018-03-15T19:00:00","87","13","32,7","2,5","171,5","29,3","50,8","0","0"],
    [36130,"2018-03-15T20:00:00","ND","16","23","3,1","130","27,7","54,6","0","0"],
    [36131,"2018-03-15T21:00:00","ND","15","20,2","3,5","96,1","26,9","57,1","0","0"],
    [36132,"2018-03-15T22:00:00","ND","23","23,8","1,3","144,6","26,6","58,2","0","0"],
    [36133,"2018-03-15T23:00:00","ND","6","25,4","2","212,3","26","60,8","0","0"],
    [36134,"2018-03-16T00:00:00","ND","15","25,3","2,9","197,6","25,8","61,8","0","0"],
    [36135,"2018-03-16T01:00:00","ND","10","15,8","2,8","134,1","25,2","66,3","0","0"],
    [36136,"2018-03-16T02:00:00","ND","8","14","1,8","145,1","24,8","69,2","0","0"],
    [36137,"2018-03-16T03:00:00","ND","6","12,1","1,8","5,7","24,5","70,3","0","0"],
    [36138,"2018-03-16T04:00:00","ND","9","8,9","2,4","74,3","24,1","70,9","0","0"],
    [36139,"2018-03-16T05:00:00","ND","13","5,8","1,2","170","23,9","72,9","0","0"],
    [36140,"2018-03-16T06:00:00","ND","14","5,6","1,5","185,1","24,4","71,6","0","0"],
    [36141,"2018-03-16T07:00:00","ND","31","5,6","2,3","128,4","24,4","71,9","11,3","0"],
    [36142,"2018-03-16T08:00:00","ND","31","9,8","2,2","139,4","25,8","66,6","88,8","0"],
    [36143,"2018-03-16T09:00:00","ND","ND","26,5","1,9","102","28,1","57,3","192,2","0"],
    [36144,"2018-03-16T10:00:00","53","14","51,7","2","145,9","30,8","47,7","292,1","0"],
    [36145,"2018-03-16T11:00:00","50","13","75,6","1,6","92,7","32,1","43,6","309,7","0"],
    [36146,"2018-03-16T12:00:00","118","20","82,5","2,1","86,8","34,1","38,5","405,1","0"],
    [36147,"2018-03-16T13:00:00","70","13","98,6","2,9","82,2","35,4","35","383,1","0"],
    [36148,"2018-03-16T14:00:00","66","14","120,4","1,7","102,9","36,6","32,4","369,5","0"],
    [36149,"2018-03-16T15:00:00","72","17","138,9","1,9","87,3","37,5","30","322,8","0"],
    [36150,"2018-03-16T16:00:00","85","19","128,3","2,9","30,8","36,7","31,6","162,5","0"],
    [36151,"2018-03-16T17:00:00","69","1","89","7,7","286,3","35,1","35,2","145,4","0"],
    [36152,"2018-03-16T18:00:00","75","8","57,8","6,6","289,6","32,8","39,5","31,3","0"],
    [36153,"2018-03-16T19:00:00","44","6","37,9","6,4","294,8","31","44","0","0"],
    [36154,"2018-03-16T20:00:00","85","17","17","1,1","48,4","30,4","46,7","0","0"],
    [36155,"2018-03-16T21:00:00","73","16","13,2","4,6","110","29,1","52","0","0"],
    [36156,"2018-03-16T22:00:00","65","5","11,7","3","97,1","27,8","57,4","0","0"],
    [36157,"2018-03-16T23:00:00","61","6","12,6","0,9","174","28,2","55,7","0","0"],
    [36158,"2018-03-17T00:00:00","70","13","10,2","2,5","124,2","27,7","58,3","0","0"],
    [36159,"2018-03-17T01:00:00","62","14","13","1,2","222,6","27,1","60,5","0","0"],
    [36160,"2018-03-17T02:00:00","54","11","15,7","2,6","150,5","27,1","61,4","0","0"],
    [36161,"2018-03-17T03:00:00","39","5","19,4","2,3","150,2","26","66,3","0","0"],
    [36162,"2018-03-17T04:00:00","36","4","27,4","1,7","169,8","25,5","66,3","0","0"],
    [36163,"2018-03-17T05:00:00","60","11","15,5","1,3","101,2","25,5","67,4","0","0"],
    [36164,"2018-03-17T06:00:00","68","10","10,4","1,6","142,2","24,8","70,2","0","0"],
    [36165,"2018-03-17T07:00:00","73","6","8,4","1,6","213","24,7","72,1","5,2","0"],
    [36166,"2018-03-17T08:00:00","98","20","9,3","0,8","121,9","26","68,1","68,7","0"],
    [36167,"2018-03-17T09:00:00","88","18","24,7","2","64","28,8","55,9","150,1","0"],
    [36168,"2018-03-17T10:00:00","69","14","36,2","4","110,5","30,2","50,3","224,2","0"],
    [36169,"2018-03-17T11:00:00","71","14","57,7","2,9","107,5","32,5","43,5","341,8","0"],
    [36170,"2018-03-17T12:00:00","73","15","98,8","2,2","39,6","34,2","38","440,8","0"],
    [36171,"2018-03-17T13:00:00","74","18","117,6","1,8","358,3","34,8","36,3","341,8","0"],
    [36172,"2018-03-17T14:00:00","66","8","115,9","2,8","100,2","36,6","30,2","390","0"],
    [36173,"2018-03-17T15:00:00","38","8","95,1","3,1","337,1","36","30,4","276,1","0"],
    [36174,"2018-03-17T16:00:00","40","ND","69,4","6,1","301,7","35,9","30","272,3","0"],
    [36175,"2018-03-17T17:00:00","41","ND","56,7","9,1","301","34,1","33,1","137,9","0"],
    [36176,"2018-03-17T18:00:00","39","2","44","7,6","308,6","32,2","36,5","26,4","0"],
    [36177,"2018-03-17T19:00:00","36","ND","34,8","6,8","299","30,8","40,7","0","0"],
    [36178,"2018-03-17T20:00:00","67","9","39,1","4,7","217,5","28,9","50","0","0"],
    [36179,"2018-03-17T21:00:00","65","21","27,1","2,6","184,1","28,2","53,9","0","0"],
    [36180,"2018-03-17T22:00:00","76","18","16,3","3,2","102,1","27,8","57,5","0","0"],
    [36181,"2018-03-17T23:00:00","64","11","12,3","3,4","108,7","27,2","58,8","0","0"],
    [36182,"2018-03-18T00:00:00","60","6","11,6","1","76,8","26,6","60","0","0"],
    [36183,"2018-03-18T01:00:00","43","3","12,8","2,2","118","26,3","61,9","0","0"],
    [36184,"2018-03-18T02:00:00","52","3","11,9","3,1","91,8","25,5","65,4","0","0"],
    [36185,"2018-03-18T03:00:00","69","ND","11,1","2,7","49,5","25,1","66,6","0","0"],
    [36186,"2018-03-18T04:00:00","63","12","11","2,3","5,5","25,1","67,5","0","0"],
    [36187,"2018-03-18T05:00:00","75","23","7,3","2","77,1","25,5","66,5","0","0"],
    [36188,"2018-03-18T06:00:00","63","3","7,2","2,5","49,1","25,2","67,4","0","0"],
    [36189,"2018-03-18T07:00:00","65","10","7,8","2,3","355,8","25","68,4","11,7","0"],
    [36190,"2018-03-18T08:00:00","64","15","14,6","1,4","48,4","26,6","62,1","73","0"],
    [36191,"2018-03-18T09:00:00","48","3","32,4","2,1","236,5","28,5","55,8","171,6","0"],
    [36192,"2018-03-18T10:00:00","57","5","44,4","1,8","155,5","30,6","49,4","256,2","0"],
    [36193,"2018-03-18T11:00:00","30","3","65,4","2","86","32,6","40,3","346,4","0"],
    [36194,"2018-03-18T12:00:00","45","9","76,9","3,6","71","33","38,9","309,7","0"],
    [36195,"2018-03-18T13:00:00","40","6","93,5","3,2","65,4","34,5","35","360,1","0"],
    [36196,"2018-03-18T14:00:00","36","4","81,7","4,2","3,6","35,6","32,2","373,7","0"],
    [36197,"2018-03-18T15:00:00","30","ND","78,2","3,1","356,6","36","30,5","298,8","0"],
    [36198,"2018-03-18T16:00:00","24","ND","58","5,2","341,5","34,9","32,5","149,7","0"],
    [36199,"2018-03-18T17:00:00","36","ND","49,6","7,8","300,4","34,2","33,1","126,6","0"],
    [36200,"2018-03-18T18:00:00","42","ND","43","5,4","282","31,9","39,2","21,8","0"],
    [36201,"2018-03-18T19:00:00","63","ND","33,9","3,7","130,1","29,7","50","0","0"],
    [36202,"2018-03-18T20:00:00","53","8","29,1","3,9","198,8","27,5","59,8","0","0"],
    [36203,"2018-03-18T21:00:00","43","4","33,5","3,4","193,2","26,6","59,2","0","0"],
    [36204,"2018-03-18T22:00:00","53","10","32,2","3,4","197,3","26,6","59,6","0","0"],
    [36205,"2018-03-18T23:00:00","49","8","25,9","2,4","111,7","26,6","59,4","0","0"],
    [36206,"2018-03-19T00:00:00","59","5","22,8","3,4","85,1","25,8","62,6","0","0"],
    [36207,"2018-03-19T01:00:00","70","6","26,5","2,3","199","25,5","64,6","0","0"],
    [36208,"2018-03-19T02:00:00","53","8","27,2","2,5","188,3","25,4","66,3","0","0"],
    [36209,"2018-03-19T03:00:00","38","4","19,7","2,4","187,3","25,2","70,3","0","0"],
    [36210,"2018-03-19T04:00:00","32","ND","15,5","3,2","162,1","25,2","72","0","0"],
    [36211,"2018-03-19T05:00:00","22","ND","17,3","1,6","211,3","24,7","72,7","0","0"],
    [36212,"2018-03-19T06:00:00","30","3","15,8","2,4","169,5","24,9","73,2","0","0"],
    [36213,"2018-03-19T07:00:00","23","ND","19,4","2,6","183,7","24,8","72,8","8,2","0"],
    [36214,"2018-03-19T08:00:00","36","1","22,1","1,9","187,4","25,3","71,1","30,3","0"],
    [36215,"2018-03-19T09:00:00","36","4","26,2","2,3","181,7","26,7","66,2","102,3","0"],
    [36216,"2018-03-19T10:00:00","34","2","40,7","2,1","91,1","28,9","56,5","199","0"],
    [36217,"2018-03-19T11:00:00","35","5","50,4","2,6","92,3","30,6","49,8","283,8","0"],
    [36218,"2018-03-19T12:00:00","34","6","61,7","2,1","175,1","33,1","41,2","375,5","0"],
    [36219,"2018-03-19T13:00:00","28","6","66,9","2,6","99,3","34,2","36,9","353,9","0"],
    [36220,"2018-03-19T14:00:00","39","6","87,5","2,5","31,1","34,3","36,3","271","0"],
    [36221,"2018-03-19T15:00:00","58","5","76,2","6,2","0","32,8","40,6","95","0"],
    [36222,"2018-03-19T16:00:00","32","3","58,5","3,3","313,5","30,3","50,8","59,2","0"],
    [36223,"2018-03-19T17:00:00","36","7","46,2","1,4","337,1","31,7","42,2","31,4","0"],
    [36224,"2018-03-19T18:00:00","44","4","39,2","3,4","204,5","28,7","54,7","0","0"],
    [36225,"2018-03-19T19:00:00","ND","ND","32,4","4,1","177,7","25,9","67,1","0","0"],
    [36226,"2018-03-19T20:00:00","26","ND","27,9","3,7","217,6","24,8","71,2","0","0"],
    [36227,"2018-03-19T21:00:00","34","ND","23,6","2,5","174,7","25,4","69,4","0","0"],
    [36228,"2018-03-19T22:00:00","41","ND","17,2","2,9","115,8","25,3","70,9","0","0"],
    [36229,"2018-03-19T23:00:00","50","11","15,1","2,3","72,5","25,2","71,4","0","0"],
    [36230,"2018-03-20T00:00:00","59","13","15,6","1,7","106,3","25","71,7","0","0"],
    [36231,"2018-03-20T01:00:00","41","7","18,4","0,6","209,1","24,9","71,4","0","0"],
    [36232,"2018-03-20T02:00:00","40","ND","21,8","0,8","145","24,9","71,3","0","0"],
    [36233,"2018-03-20T03:00:00","50","ND","19,8","1,4","76,4","25,3","69,9","0","0"],
    [36234,"2018-03-20T04:00:00","30","2","18,6","3,3","147,2","24,6","74,7","0","2,54"],
    [36235,"2018-03-20T05:00:00","45","21","10,8","1,8","127,4","24","79,1","0","0,51"],
    [36236,"2018-03-20T06:00:00","51","15","6,9","1,8","148,9","24,4","77,9","0","0,25"],
    [36237,"2018-03-20T07:00:00","57","21","6,5","2","107,8","24,6","77,1","0","2,54"],
    [36238,"2018-03-20T08:00:00","20","6","7,5","1,9","147,9","23,7","80,7","12,1","42,93"],
    [36239,"2018-03-20T09:00:00","7","ND","15,4","1","249,5","24,4","78,5","48,2","1,27"],
    [36240,"2018-03-20T10:00:00","23","ND","22,3","1,1","294,4","25,6","72,5","93,3","0"],
    [36241,"2018-03-20T11:00:00","37","2","40,2","2,1","1,9","28,9","57,9","398","0"],
    [36242,"2018-03-20T12:00:00","36","3","53,2","1,6","118,7","31,1","49,2","418,2","0"],
    [36243,"2018-03-20T13:00:00","27","4","63,8","2,3","106","33,2","41,8","489,5","0"],
    [36244,"2018-03-20T14:00:00","47","11","67","3,2","80,5","33,3","40,1","321,7","0"],
    [36245,"2018-03-20T15:00:00","59","9","76,1","4,8","86,3","33,1","42,3","199,6","0"],
    [36246,"2018-03-20T16:00:00","43","7","61,4","2,7","20,4","31,5","46,9","119,9","0"],
    [36247,"2018-03-20T17:00:00","28","5","38,7","4,9","297,6","30,2","48,5","43,9","0"],
    [36248,"2018-03-20T18:00:00","43","1","28,7","2,2","257,6","30,3","50","11,7","0"],
    [36249,"2018-03-20T19:00:00","62","17","21,6","2,9","206,8","29","53,7","0","0"],
    [36250,"2018-03-20T20:00:00","78","13","17,6","2,5","199","28","60,3","0","0"],
    [36251,"2018-03-20T21:00:00","81","15","8","1,3","242,1","27,6","61,1","0","0"],
    [36252,"2018-03-20T22:00:00","47","8","13,3","2","174,7","26,1","69,4","0","0"],
    [36253,"2018-03-20T23:00:00","49","8","10,1","1,8","157,2","25,8","71,4","0","0"],
    [36254,"2018-03-21T00:00:00","76","5","6,7","1,7","116,2","25,3","73,4","0","0"],
    [36255,"2018-03-21T01:00:00","43","1","5,8","0,4","121,4","24,9","74,7","0","0"],
    [36256,"2018-03-21T02:00:00","56","5","5,2","0,7","2,3","24,9","75,3","0","0"],
    [36257,"2018-03-21T03:00:00","48","9","4,8","1,7","112,5","24,9","74,6","0","0"],
    [36258,"2018-03-21T04:00:00","42","3","5,1","1,5","152,3","24,8","74,5","0","0"],
    [36259,"2018-03-21T05:00:00","45","ND","4,8","1,6","174,6","24,7","75,4","0","0"],
    [36260,"2018-03-21T06:00:00","72","20","4,7","2","146,3","24,4","74,8","0","0"],
    [36261,"2018-03-21T07:00:00","78","7","5","1,8","193,6","24,4","75","6,3","0"],
    [36262,"2018-03-21T08:00:00","56","11","6,7","1","201,9","25,9","71,2","67,9","0"],
    [36263,"2018-03-21T09:00:00","68","8","21,2","1,5","170","29","57,5","208,2","0"],
    [36264,"2018-03-21T10:00:00","55","5","44,6","1,6","175,7","30,5","52,7","255,7","0"],
    [36265,"2018-03-21T11:00:00","51","4","60,2","1,9","114,3","32,1","47,1","318,1","0"],
    [36266,"2018-03-21T12:00:00","53","10","79,4","2,7","83,9","33,9","40,6","455","0"],
    [36267,"2018-03-21T13:00:00","45","15","85","3,2","85,1","34,9","36,7","362,1","0"],
    [36268,"2018-03-21T14:00:00","62","9","99,4","4,2","96,6","35,1","37,3","353,9","0"],
    [36269,"2018-03-21T15:00:00","67","12","133,9","2,1","42,6","36,2","35,3","287,5","0"],
    [36270,"2018-03-21T16:00:00","60","16","122,1","2,7","39,2","36,1","35,4","208,7","0"],
    [36271,"2018-03-21T17:00:00","45","ND","59,2","5,9","285,5","33,9","38,2","69,5","0"],
    [36272,"2018-03-21T18:00:00","44","ND","44,2","6,3","294,6","32,3","42,2","29,1","0"],
    [36273,"2018-03-21T19:00:00","43","ND","29,8","6,2","285,8","31,1","46","0","0"],
    [36274,"2018-03-21T20:00:00","55","4","19,7","2,5","339,3","30,5","48,4","0","0"],
    [36275,"2018-03-21T21:00:00","75","7","10,1","3,3","88,6","29,6","52,5","0","0"],
    [36276,"2018-03-21T22:00:00","59","5","9,6","2,7","111","28,1","59,1","0","0"],
    [36277,"2018-03-21T23:00:00","64","7","8,3","2,7","79,4","27,6","61,7","0","0"],
    [36278,"2018-03-22T00:00:00","50","3","9,4","3","95,9","27,1","63,6","0","0"],
    [36279,"2018-03-22T01:00:00","30","ND","12,7","1,9","19,9","26,9","64,2","0","0"],
    [36280,"2018-03-22T02:00:00","22","ND","12,8","1,5","96,3","27","63,7","0","0"],
    [36281,"2018-03-22T03:00:00","25","ND","11,9","0,9","167,6","26,7","65","0","0"],
    [36282,"2018-03-22T04:00:00","40","2","7,6","2,6","182,7","26,4","69,5","0","0"],
    [36283,"2018-03-22T05:00:00","70","6","5,4","1,9","98","25,9","72,3","0","0"],
    [36284,"2018-03-22T06:00:00","76","22","5,1","2,1","232,9","26,4","68,7","0","0"],
    [36285,"2018-03-22T07:00:00","86","15","5,7","2","165,5","26,6","67,1","6,7","0"],
    [36286,"2018-03-22T08:00:00","82","15","6,3","2,5","168,3","27,1","65,9","29,3","0"],
    [36287,"2018-03-22T09:00:00","61","11","12,1","2,7","205,1","28,7","58,4","93,4","0"],
    [36288,"2018-03-22T10:00:00","41","5","23","0,7","167,3","30,3","52,7","149","0"],
    [36289,"2018-03-22T11:00:00","78","20","33","2,9","36","30,6","52,2","161,8","0"],
    [36290,"2018-03-22T12:00:00","73","19","36,1","3,4","29,8","31,1","50,5","187,1","0"],
    [36291,"2018-03-22T13:00:00","58","14","36","3,8","27,7","31,6","46,1","216,7","0"],
    [36292,"2018-03-22T14:00:00","59","10","47,1","3,8","36,7","33","40,7","254,4","0"],
    [36293,"2018-03-22T15:00:00","51","6","47,9","5,1","66,8","32,9","40","204,1","0"],
    [36294,"2018-03-22T16:00:00","35","7","50,5","3,3","34,1","33,2","38,6","163,8","0"],
    [36295,"2018-03-22T17:00:00","36","7","50,4","0,6","43,4","33,4","36,9","99,6","0"],
    [36296,"2018-03-22T18:00:00","30","ND","38","4,5","278,8","32","39,6","45,3","0"],
    [36297,"2018-03-22T19:00:00","31","ND","25,1","5,4","296,9","30,3","44,6","0","0"],
    [36298,"2018-03-22T20:00:00","35","2","19,2","4,7","303,1","29,4","48,5","0","0"],
    [36299,"2018-03-22T21:00:00","33","ND","23,3","4,8","283,3","29,1","50","0","0"],
    [36300,"2018-03-22T22:00:00","46","ND","16,9","2,2","95,3","27,8","56,4","0","0"],
    [36301,"2018-03-22T23:00:00","43","ND","13,4","3","99,3","26,3","63,4","0","0"],
    [36302,"2018-03-23T00:00:00","33","ND","15,4","0,4","185,3","26,5","62,3","0","0"],
    [36303,"2018-03-23T01:00:00","37","3","16,3","2","176","26,3","63,5","0","0"],
    [36304,"2018-03-23T02:00:00","41","5","16,6","2,1","140,6","26,3","64,5","0","0"],
    [36305,"2018-03-23T03:00:00","38","1","14,2","2","120,4","25,7","67,4","0","0"],
    [36306,"2018-03-23T04:00:00","59","6","9,3","2,5","105,3","25,7","68,1","0","0"],
    [36307,"2018-03-23T05:00:00","67","12","6,1","2,3","97,2","25,6","69,2","0","0"],
    [36308,"2018-03-23T06:00:00","62","9","6","1","189,1","25,6","68,2","0","0"],
    [36309,"2018-03-23T07:00:00","121","27","6,3","2,4","147,3","25,6","69,2","5,8","0"],
    [36310,"2018-03-23T08:00:00","103","23","9,7","2,7","170,2","26,7","66,3","79,9","0"],
    [36311,"2018-03-23T09:00:00","ND","ND","23,6","2,8","194,5","29,1","56,5","199,8","0"],
    [36312,"2018-03-23T10:00:00","38","10","46,4","2,6","217,5","30,2","51,6","220,5","0"],
    [36313,"2018-03-23T11:00:00","36","9","55,6","0,8","180,3","32,4","43,8","292","0"],
    [36314,"2018-03-23T12:00:00","38","17","84,2","1,5","241,3","33,8","38,9","397,7","0"],
    [36315,"2018-03-23T13:00:00","52","13","103,1","2,4","205","34,5","37,5","460,6","0"],
    [36316,"2018-03-23T14:00:00","54","24","117,9","4,1","194,7","35,3","34,8","422,8","0"],
    [36317,"2018-03-23T15:00:00","46","13","80,3","4,1","206","35,4","34,1","253,2","0"],
    [36318,"2018-03-23T16:00:00","36","7","61,6","6,4","136,8","35,1","33,1","309,4","0"],
    [36319,"2018-03-23T17:00:00","66","26","56,2","5,9","119,5","34","34,9","141,4","0"],
    [36320,"2018-03-23T18:00:00","80","21","53,7","4,8","48,7","30,6","46","20,6","0"],
    [36321,"2018-03-23T19:00:00","60","7","43,4","4,8","27,7","27,2","59,7","0","0"],
    [36322,"2018-03-23T20:00:00","56","12","33","3,4","339,7","27,1","60,6","0","0"],
    [36323,"2018-03-23T21:00:00","45","18","28,4","3,1","302,3","26,1","64,9","0","0"],
    [36324,"2018-03-23T22:00:00","44","9","37,1","1,6","352,6","25,9","63,7","0","0"],
    [36325,"2018-03-23T23:00:00","45","12","24,9","2,8","293,2","25,7","65,7","0","0"],
    [36326,"2018-03-24T00:00:00","61","14","25,1","2,2","356","25,6","67,2","0","0"],
    [36327,"2018-03-24T01:00:00","45","8","21,4","2,4","348,7","25,3","70,6","0","0"],
    [36328,"2018-03-24T02:00:00","39","4","22,6","1,5","315,7","24,8","72,6","0","0"],
    [36329,"2018-03-24T03:00:00","18","2","35,1","1,7","37","25","70,8","0","0"],
    [36330,"2018-03-24T04:00:00","29","ND","26,1","1,7","252,4","24,6","73,9","0","1,27"],
    [36331,"2018-03-24T05:00:00","32","5","17,3","2,4","183,5","23,9","78,4","0","1,52"],
    [36332,"2018-03-24T06:00:00","32","8","11,6","3,4","198,9","23,7","80","0","5,59"],
    [36333,"2018-03-24T07:00:00","13","4","24,5","5,3","234,7","22,8","76,3","0","0,76"],
    [36334,"2018-03-24T08:00:00","17","ND","21","3,2","206,1","22,9","77,4","24,1","0"],
    [36335,"2018-03-24T09:00:00","37","ND","25,9","1,9","200,1","24,1","71,6","75,8","0"],
    [36336,"2018-03-24T10:00:00","23","2","24,1","3,9","284","24,6","69,9","55,2","0,25"],
    [36337,"2018-03-24T11:00:00","15","1","29,5","2,8","39","24,3","74,4","90,4","1,78"],
    [36338,"2018-03-24T12:00:00","21","5","40,8","3,2","43,6","25,2","70,1","156,3","0"],
    [36339,"2018-03-24T13:00:00","29","4","52,2","1,4","349,1","26,9","62,7","217,5","0"],
    [36340,"2018-03-24T14:00:00","26","2","61,6","2,7","280,3","28,4","55","276,2","0"],
    [36341,"2018-03-24T15:00:00","36","5","57,3","3,5","270,9","28,8","55,3","278,9","0"],
    [36342,"2018-03-24T16:00:00","34","ND","66","2,5","298,6","30,7","48,5","308,5","0"],
    [36343,"2018-03-24T17:00:00","43","6","72,1","3","268,6","30,3","49,6","148,9","0"],
    [36344,"2018-03-24T18:00:00","62","9","47,5","3,1","261","29,3","53,7","32,7","0"],
    [36345,"2018-03-24T19:00:00","72","20","32","2,4","229,1","28,2","58,7","0","0"],
    [36346,"2018-03-24T20:00:00","116","49","16,9","1,8","231,8","27,6","60,3","0","0"],
    [36347,"2018-03-24T21:00:00","80","27","12,6","0,9","350,4","26,9","63,5","0","0"],
    [36348,"2018-03-24T22:00:00","121","42","9,2","1,3","293,6","26,4","65,8","0","0"],
    [36349,"2018-03-24T23:00:00","111","40","6,7","1,6","304,2","26,1","66,3","0","0"],
    [36350,"2018-03-25T00:00:00","76","20","6,1","0,4","346,6","25,3","69,6","0","0"],
    [36351,"2018-03-25T01:00:00","124","49","6,4","1,5","279","24,6","73,8","0","0"],
    [36352,"2018-03-25T02:00:00","97","41","4,9","0,9","309,2","24,2","75,1","0","0"],
    [36353,"2018-03-25T03:00:00","68","15","5","0,7","313,1","24,3","75,5","0","0"],
    [36354,"2018-03-25T04:00:00","80","27","4,7","2,6","258,3","23,4","76,4","0","0"],
    [36355,"2018-03-25T05:00:00","51","11","4,6","1,3","216,6","23,3","75,5","0","0"],
    [36356,"2018-03-25T06:00:00","58","19","4,9","1,3","278,6","23","76,8","0","0"],
    [36357,"2018-03-25T07:00:00","72","19","5","1,1","333,4","23,3","75,8","0","0"],
    [36358,"2018-03-25T08:00:00","78","23","7,4","3,2","127,8","24,7","71,9","97,2","0"],
    [36359,"2018-03-25T09:00:00","83","29","27,2","1,1","108,8","28,5","58,2","251","0"],
    [36360,"2018-03-25T10:00:00","82","26","58","3,4","280,2","30,1","53,3","339,7","0"],
    [36361,"2018-03-25T11:00:00","58","18","81,7","3,2","267","31,7","47,5","440,3","0"],
    [36362,"2018-03-25T12:00:00","44","11","89,2","2,1","229,7","33,4","40,3","525","0"],
    [36363,"2018-03-25T13:00:00","37","9","99,7","2,2","220,9","34,4","37,2","414,7","0"],
    [36364,"2018-03-25T14:00:00","47","16","109,6","3","224,7","35,6","34,5","464,3","0"],
    [36365,"2018-03-25T15:00:00","45","12","114,8","3,2","168,9","34,9","35,7","215,9","0"],
    [36366,"2018-03-25T16:00:00","34","8","77,9","3,7","147,1","34,8","35,7","185,7","0"],
    [36367,"2018-03-25T17:00:00","32","2","51,6","7","111","34,5","35,1","179,3","0"],
    [36368,"2018-03-25T18:00:00","22","ND","38,9","7,1","113,6","32,7","38,6","60,5","0"],
    [36369,"2018-03-25T19:00:00","27","ND","23","6,1","129","31,3","42,1","0","0"],
    [36370,"2018-03-25T20:00:00","35","3","17,1","1,9","213,6","30,1","47,5","0","0"],
    [36371,"2018-03-25T21:00:00","48","1","8,8","2,7","279,1","28,5","56","0","0"],
    [36372,"2018-03-25T22:00:00","60","5","10","1,8","265,8","28,2","56,6","0","0"],
    [36373,"2018-03-25T23:00:00","59","3","11,4","2,5","75,2","28,2","57,6","0","0"],
    [36374,"2018-03-26T00:00:00","40","ND","8,2","1,7","294,1","27,5","60,3","0","0"],
    [36375,"2018-03-26T01:00:00","37","ND","7,7","2,3","301,3","26,8","63,9","0","0"],
    [36376,"2018-03-26T02:00:00","45","ND","8,6","1,7","318,6","26,6","65,5","0","0"],
    [36377,"2018-03-26T03:00:00","45","1","8,9","2","334","26,2","68,3","0","0"],
    [36378,"2018-03-26T04:00:00","46","5","8,3","0,4","193","26,3","68,3","0","0"],
    [36379,"2018-03-26T05:00:00","60","1","5,6","2,4","315,3","26,2","68,8","0","0"],
    [36380,"2018-03-26T06:00:00","49","3","5,4","1,2","26,2","26,4","67,7","0","0"],
    [36381,"2018-03-26T07:00:00","100","13","5,9","3,2","283","26,1","70,5","14,4","0"],
    [36382,"2018-03-26T08:00:00","101","12","6","2,2","219,5","26,6","69,2","61,9","0"],
    [36383,"2018-03-26T09:00:00","73","11","8,3","1,7","263","27,9","63,7","85,7","0"],
    [36384,"2018-03-26T10:00:00","89","16","11,3","2,3","323,3","29,1","60,1","134,9","0"],
    [36385,"2018-03-26T11:00:00","55","5","30","0,7","326,9","30,6","53,9","263","0"],
    [36386,"2018-03-26T12:00:00","52","21","72,1","0,1","169,7","33,8","42,7","519,1","0"],
    [36387,"2018-03-26T13:00:00","49","18","79,8","3,2","263,6","34,8","37,7","511,7","0"],
    [36388,"2018-03-26T14:00:00","52","15","104,9","2,2","185,6","36","34,6","372,8","0"],
    [36389,"2018-03-26T15:00:00","56","14","126,2","1,9","205,7","36,2","33,7","412","0"],
    [36390,"2018-03-26T16:00:00","36","9","91,8","1,7","156,8","36,5","32,3","253,8","0"],
    [36391,"2018-03-26T17:00:00","41","ND","52,3","9,2","109,2","34,7","35,6","193,4","0"],
    [36392,"2018-03-26T18:00:00","37","ND","36,7","9,2","108,1","32,3","40,7","58,4","0"],
    [36393,"2018-03-26T19:00:00","36","ND","24,9","6,2","127,9","30,8","44,9","0","0"],
    [36394,"2018-03-26T20:00:00","77","17","11","3,2","259,4","30,2","49,1","0","0"],
    [36395,"2018-03-26T21:00:00","62","4","8,7","2,4","307,5","29,2","54,4","0","0"],
    [36396,"2018-03-26T22:00:00","40","6","27,6","4,9","32,1","27,9","57,3","0","0"],
    [36397,"2018-03-26T23:00:00","29","2","41,2","3,9","25,6","26,4","59,1","0","0"],
    [36398,"2018-03-27T00:00:00","19","ND","39,8","3,5","22,3","25,4","63","0","0,76"],
    [36399,"2018-03-27T01:00:00","7","ND","25,7","1,4","7,2","24,2","74,1","0","0,51"],
    [36400,"2018-03-27T02:00:00","19","ND","15,1","3","307,5","24,3","75,9","0","0"],
    [36401,"2018-03-27T03:00:00","36","ND","11,2","1,9","276,2","24","78,2","0","0"],
    [36402,"2018-03-27T04:00:00","40","4","11,1","2,2","104,4","24,4","77,2","0","0"],
    [36403,"2018-03-27T05:00:00","35","2","10","1,4","61,9","25","73","0","0"],
    [36404,"2018-03-27T06:00:00","70","20","5,8","2,7","280,2","24,4","77","0","0"],
    [36405,"2018-03-27T07:00:00","52","18","5,8","0,1","7,6","24,4","77,4","7","0"],
    [36406,"2018-03-27T08:00:00","67","10","9,3","1,3","250,2","26,3","69,9","120,1","0"],
    [36407,"2018-03-27T09:00:00","35","9","26,8","1,1","342,5","28,7","58,6","234,7","0"],
    [36408,"2018-03-27T10:00:00","48","6","38,3","3,2","306,5","30,5","53,4","344,2","0"],
    [36409,"2018-03-27T11:00:00","36","4","55,4","2,1","315,9","31,3","49,2","356","0"],
    [36410,"2018-03-27T12:00:00","30","ND","69,1","1,8","291,3","33,5","40,6","436,1","0"],
    [36411,"2018-03-27T13:00:00","28","ND","72,4","2,8","261,8","34,4","38,4","485,8","0"],
    [36412,"2018-03-27T14:00:00","37","9","111,2","1,3","245,9","35,3","35,5","344,1","0"],
    [36413,"2018-03-27T15:00:00","49","17","121,6","1,8","221,6","34,9","36,6","190,9","0"],
    [36414,"2018-03-27T16:00:00","52","5","ND","5,7","104,9","31,4","45,6","38,5","0,25"],
    [36415,"2018-03-27T17:00:00","26","2","35","4,9","94,9","30,3","51,5","63,6","0"],
    [36416,"2018-03-27T18:00:00","52","ND","33,8","5,9","333,2","28,1","59,3","13,4","13,46"],
    [36417,"2018-03-27T19:00:00","30","9","22,4","3,6","52,6","24,7","80","0","23,88"],
    [36418,"2018-03-27T20:00:00","34","13","13,6","1,9","8,9","25,6","74,7","0","0"],
    [36419,"2018-03-27T21:00:00","33","6","12,9","1,8","352","25,4","74,6","0","0"],
    [36420,"2018-03-27T22:00:00","59","12","9,3","1,5","276,2","25,5","73,4","0","0"],
    [36421,"2018-03-27T23:00:00","79","9","6,4","2,3","264,2","25,4","74,1","0","0"],
    [36422,"2018-03-28T00:00:00","69","8","6,2","0,3","261,4","25,2","73,3","0","0"],
    [36423,"2018-03-28T01:00:00","57","6","6,1","1,2","262,2","25,5","72,5","0","0"],
    [36424,"2018-03-28T02:00:00","46","8","6,9","2,2","266,2","25,2","72,4","0","0"],
    [36425,"2018-03-28T03:00:00","44","6","6,7","0,9","272,9","25,2","72,3","0","0"],
    [36426,"2018-03-28T04:00:00","59","5","6,2","1,5","336,3","25,1","73,5","0","0"],
    [36427,"2018-03-28T05:00:00","50","5","5,8","2,3","47,8","24,9","75,7","0","0"],
    [36428,"2018-03-28T06:00:00","62","12","5,5","1,5","15,4","25,2","75,4","0","0"],
    [36429,"2018-03-28T07:00:00","74","13","5,6","1,7","338,5","25,3","75,5","16,2","0"],
    [36430,"2018-03-28T08:00:00","68","20","6","2,1","311,5","26,1","72,6","48,1","0"],
    [36431,"2018-03-28T09:00:00","52","6","9,1","1,5","38,2","27,2","66,7","105,1","0"],
    [36432,"2018-03-28T10:00:00","53","5","28,2","1,1","329,7","29,4","57","243,7","0"],
    [36433,"2018-03-28T11:00:00","59","12","50,7","0,9","300,2","30,7","52,5","285,4","0"],
    [36434,"2018-03-28T12:00:00","48","10","60,4","2,2","236,7","31,6","48,6","316,1","0"],
    [36435,"2018-03-28T13:00:00","39","9","73,7","1,7","187","33,1","43,2","385,7","0"],
    [36436,"2018-03-28T14:00:00","52","17","80,8","2,8","235,2","34,3","39","410,9","0"],
    [36437,"2018-03-28T15:00:00","50","12","72,4","5,2","261,7","34","40","279,3","0"],
    [36438,"2018-03-28T16:00:00","61","14","46,4","6,1","260,5","32,3","45,7","103,7","0"],
    [36439,"2018-03-28T17:00:00","44","11","45,3","2,1","74,7","30,8","49,9","55,8","0"],
    [36440,"2018-03-28T18:00:00","36","3","19,5","4,6","86,9","30,2","49,5","19,4","0"],
    [36441,"2018-03-28T19:00:00","62","ND","8,8","3,6","82,5","29,6","51,1","0","0"],
    [36442,"2018-03-28T20:00:00","41","1","8,2","2","104","29,3","52,4","0","0"],
    [36443,"2018-03-28T21:00:00","77","21","5,7","1,3","298,3","28,9","56,2","0","0"],
    [36444,"2018-03-28T22:00:00","91","25","6","2,3","273,8","27,7","62,7","0","0"],
    [36445,"2018-03-28T23:00:00","73","19","6,1","1,4","334,6","27,6","63,1","0","0"],
    [36446,"2018-03-29T00:00:00","73","19","6,4","1,9","347,6","27,2","67,3","0","0"],
    [36447,"2018-03-29T01:00:00","105","7","5,7","1,2","345,3","26,4","70","0","0"],
    [36448,"2018-03-29T02:00:00","87","4","5,4","0,7","329","26,4","69,8","0","0"],
    [36449,"2018-03-29T03:00:00","77","8","5,4","1,6","278,9","26,5","67,9","0","0"],
    [36450,"2018-03-29T04:00:00","55","8","5,8","0,9","331,3","26,3","67,6","0","0"],
    [36451,"2018-03-29T05:00:00","65","5","5,3","1,8","278,7","25,7","70,7","0","0"],
    [36452,"2018-03-29T06:00:00","84","13","5,6","1,2","273,1","25,7","71,3","0","0"],
    [36453,"2018-03-29T07:00:00","89","13","5,6","1,1","271,8","25,8","71,9","6,9","0"],
    [36454,"2018-03-29T08:00:00","82","10","6,3","1,1","211,2","26,4","69,4","52,2","0"],
    [36455,"2018-03-29T09:00:00","83","13","8,4","2,9","267,5","27,7","64,7","154,2","0"],
    [36456,"2018-03-29T10:00:00","69","16","19,4","3,2","275,9","29,5","57","216,1","0"],
    [36457,"2018-03-29T11:00:00","57","12","33","3,1","262,2","30,3","53","171,6","0"],
    [36458,"2018-03-29T12:00:00","48","7","32,5","5","227,1","30,3","52,1","177,4","0"],
    [36459,"2018-03-29T13:00:00","46","2","28,1","5,5","211,6","29,7","54,9","182,3","0"],
    [36460,"2018-03-29T14:00:00","31","3","35,9","5,7","226,7","30,7","51,5","261,3","0"],
    [36461,"2018-03-29T15:00:00","31","3","32,4","5,2","241,7","31","49,3","188","0"],
    [36462,"2018-03-29T16:00:00","40","ND","31,3","5,2","253,8","30,3","51,5","106,5","0"],
    [36463,"2018-03-29T17:00:00","38","ND","27,3","2,6","302,9","29,6","54,7","29,4","0"],
    [36464,"2018-03-29T18:00:00","37","ND","22,5","1,8","94,4","28,4","55,5","9,5","0"],
    [36465,"2018-03-29T19:00:00","50","6","17,5","1,4","50,2","28,3","54,4","0","0"],
    [36466,"2018-03-29T20:00:00","69","11","7,3","1,4","11,6","28,3","55","0","0"],
    [36467,"2018-03-29T21:00:00","39","13","10,7","1,5","299,8","26,2","72,3","0","4,57"],
    [36468,"2018-03-29T22:00:00","40","8","8,3","1,3","8,6","26,1","73,2","0","0,51"],
    [36469,"2018-03-29T23:00:00","63","11","7,1","1","41,8","25,9","76,1","0","0,25"],
    [36470,"2018-03-30T00:00:00","55","10","8,9","2,3","31,9","25,7","76,4","0","0"],
    [36471,"2018-03-30T01:00:00","36","6","9","2,4","23,6","25,6","77,3","0","0"],
    [36472,"2018-03-30T02:00:00","37","4","7,2","1,4","27,1","25,5","78,2","0","0"],
    [36473,"2018-03-30T03:00:00","40","4","5,9","1,6","306,5","25,5","78,5","0","0"],
    [36474,"2018-03-30T04:00:00","49","6","5,7","1,8","269,2","25,1","79,3","0","0"],
    [36475,"2018-03-30T05:00:00","55","12","5,5","1,6","257,6","24,8","79,5","0","0"],
    [36476,"2018-03-30T06:00:00","49","7","5,6","0,5","279,4","24,9","78,2","0","0"],
    [36477,"2018-03-30T07:00:00","47","5","5,7","0,8","19,3","25,2","77","10","0"],
    [36478,"2018-03-30T08:00:00","56","10","6,6","1","242,6","26","74,4","38","0"],
    [36479,"2018-03-30T09:00:00","63","20","12","2,4","235,6","27,5","68,4","178,4","0"],
    [36480,"2018-03-30T10:00:00","45","16","24,2","3","273,5","28,9","62,2","239,4","0"],
    [36481,"2018-03-30T11:00:00","47","11","40,5","2,3","277,5","30,5","54,7","335,5","0"],
    [36482,"2018-03-30T12:00:00","24","6","58,7","1,7","243,4","33","44,5","483,6","0"],
    [36483,"2018-03-30T13:00:00","42","6","75,2","2,5","156","32,9","43,2","332","0"],
    [36484,"2018-03-30T14:00:00","24","4","68,4","0,9","166,1","34,9","37,3","338,6","0"],
    [36485,"2018-03-30T15:00:00","34","5","55,1","3,6","312,8","33","42,6","180,5","0"],
    [36486,"2018-03-30T16:00:00","50","11","59,9","4,9","296,7","33","44,1","183,1","0"],
    [36487,"2018-03-30T17:00:00","38","6","36,9","6,3","182,3","27,7","58,1","6,1","5,59"],
    [36488,"2018-03-30T18:00:00","18","ND","23,8","2,9","108,6","24,7","75,6","0","5,08"],
    [36489,"2018-03-30T19:00:00","19","ND","11,5","2,3","301,3","24,9","76,8","0","1,02"],
    [36490,"2018-03-30T20:00:00","35","ND","7,9","2,1","262,6","24,8","77,3","0","2,03"],
    [36491,"2018-03-30T21:00:00","23","ND","9,8","2,6","11,2","24,3","80,6","0","1,52"],
    [36492,"2018-03-30T22:00:00","19","ND","17,1","3,1","46,4","24,2","80,2","0","2,79"],
    [36493,"2018-03-30T23:00:00","18","ND","17,9","3,7","21,7","23,9","81,1","0","6,35"],
    [36494,"2018-03-31T00:00:00","11","ND","17,9","3,3","17,8","23,7","82,6","0","4,06"],
    [36495,"2018-03-31T01:00:00","9","ND","15,6","1,8","322,9","23,6","81,8","0","0,76"],
    [36496,"2018-03-31T02:00:00","9","ND","15,2","1,4","339","23,7","79,6","0","0"],
    [36497,"2018-03-31T03:00:00","9","ND","16,1","1,9","1,1","23,7","79,2","0","0"],
    [36498,"2018-03-31T04:00:00","5","ND","16,7","1,3","4,8","23,5","78,7","0","0"],
    [36499,"2018-03-31T05:00:00","9","ND","12,7","1,6","356,6","23,4","78,7","0","0"],
    [36500,"2018-03-31T06:00:00","13","ND","10,4","0,8","116","23,2","78,4","0","0"],
    [36501,"2018-03-31T07:00:00","25","ND","6","0,6","281,8","23,6","77","7,7","0"],
    [36502,"2018-03-31T08:00:00","51","9","8,2","2","328,4","24,3","75,7","43,4","0"],
    [36503,"2018-03-31T09:00:00","24","5","15,5","3","41,6","25,7","70,6","163","0"],
    [36504,"2018-03-31T10:00:00","19","1","25,6","1,9","5,1","28,2","60,2","275,4","0"],
    [36505,"2018-03-31T11:00:00","30","ND","36,5","2,2","7,4","29,7","53,2","259","0"],
    [36506,"2018-03-31T12:00:00","22","ND","46,9","1,2","272,2","30,6","48","290,5","0"],
    [36507,"2018-03-31T13:00:00","30","1","65","2,8","266,3","31,1","46,2","360,2","0"],
    [36508,"2018-03-31T14:00:00","32","3","72,5","2,7","253","32,2","43,4","345,6","0"],
    [36509,"2018-03-31T15:00:00","39","ND","72,4","3,7","194,1","32","44,3","225,4","0"],
    [36510,"2018-03-31T16:00:00","19","1","42,4","4,8","116","30,9","45,2","131,5","0"],
    [36511,"2018-03-31T17:00:00","15","ND","28,1","6,4","85","29,1","52,3","46,1","0,25"],
    [36512,"2018-03-31T18:00:00","24","2","26,2","5,1","34,1","26,1","66","7","0,76"],
    [36513,"2018-03-31T19:00:00","29","2","19,2","3,7","357,4","24,2","73,2","0","0,76"],
    [36514,"2018-03-31T20:00:00","28","ND","13","2,7","349,5","24,2","77,3","0","0"],
    [36515,"2018-03-31T21:00:00","31","ND","11,5","2","338,2","24,1","78","0","0,25"],
    [36516,"2018-03-31T22:00:00","16","ND","12,9","1,3","35","23,8","78,6","0","2,03"],
    [36517,"2018-03-31T23:00:00","26","ND","7,7","3","283,9","23,7","79,8","0","0,51"],
    [36518,"2018-04-01T00:00:00","57","17","6,1","1,5","275","23,5","79,6","0","0"],
    [36519,"2018-04-01T01:00:00","29","ND","8","2,1","234,3","23,6","78,9","0","0"],
    [36520,"2018-04-01T02:00:00","24","ND","7,4","1,6","294","23,3","79,2","0","0"],
    [36521,"2018-04-01T03:00:00","22","ND","11","0,2","82,3","23,5","76,9","0","0"],
    [36522,"2018-04-01T04:00:00","19","ND","10,1","1","78","23,6","76,8","0","0"],
    [36523,"2018-04-01T05:00:00","33","3","7,5","1,9","45,2","23,5","77,2","0","0"],
    [36524,"2018-04-01T06:00:00","37","3","5,2","2,2","344,9","23,3","78,5","0","0"],
    [36525,"2018-04-01T07:00:00","51","2","6,1","2,4","312,2","23,2","79,3","15","0"],
    [36526,"2018-04-01T08:00:00","43","2","8,2","0,9","317,4","24,2","75","65,8","0"],
    [36527,"2018-04-01T09:00:00","32","5","15,2","0,5","79,9","26,2","65,8","170,9","0"],
    [36528,"2018-04-01T10:00:00","39","12","31,4","1,6","126,6","27,7","60,1","318,2","0"],
    [36529,"2018-04-01T11:00:00","46","17","44,6","2,4","211,1","29","54,2","309,7","0"],
    [36530,"2018-04-01T12:00:00","20","7","57,9","1,4","253,9","31,5","45,2","472,8","0"],
    [36531,"2018-04-01T13:00:00","23","3","61,2","2,9","258,5","32,5","39,9","533,8","0"],
    [36532,"2018-04-01T14:00:00","28","ND","81,1","2,9","195,3","33,5","37,6","551,3","0"],
    [36533,"2018-04-01T15:00:00","35","6","82,2","3,2","205,7","33,1","38,1","232,4","0"],
    [36534,"2018-04-01T16:00:00","29","11","65,6","4,3","196,8","32,1","41,3","77,1","1,27"],
    [36535,"2018-04-01T17:00:00","41","4","21,6","3,8","258,3","28,8","62,7","63","5,33"],
    [36536,"2018-04-01T18:00:00","25","ND","9,3","1","316,7","28,2","64,2","17,8","0,25"],
    [36537,"2018-04-01T19:00:00","27","ND","18,5","3,8","67,2","27,8","61,4","0","0,51"],
    [36538,"2018-04-01T20:00:00","29","ND","10,7","2,8","31,3","26,4","70,6","0","0,51"],
    [36539,"2018-04-01T21:00:00","33","1","15,6","4,1","30,9","26,2","68,4","0","0,25"],
    [36540,"2018-04-01T22:00:00","40","10","17,8","2,7","8,5","25,1","71","0","0"],
    [36541,"2018-04-01T23:00:00","32","6","15","3,1","51,1","24,7","73,9","0","0,25"],
    [36542,"2018-04-02T00:00:00","32","7","14","3,1","59,4","25,1","73,5","0","0"],
    [36543,"2018-04-02T01:00:00","19","2","13,4","2,6","309,9","24,9","73,7","0","0"],
    [36544,"2018-04-02T02:00:00","28","2","12,5","0,7","276,7","24,3","77,1","0","0"],
    [36545,"2018-04-02T03:00:00","26","3","9,4","1,4","311,8","24,5","76,2","0","0"],
    [36546,"2018-04-02T04:00:00","41","1","10,8","1,5","344,8","24,5","76,5","0","0"],
    [36547,"2018-04-02T05:00:00","19","1","9","1,8","18,2","24,7","77,1","0","0"],
    [36548,"2018-04-02T06:00:00","39","2","9,5","2,8","333,1","24,2","77,2","0","0"],
    [36549,"2018-04-02T07:00:00","35","11","7,4","3,3","288,1","23,7","78,6","0","0,25"],
    [36550,"2018-04-02T08:00:00","15","5","7,6","1,9","215,7","23,7","79,3","15,9","1,02"],
    [36551,"2018-04-02T09:00:00","6","ND","13,5","3","191,6","24","77,9","70,1","0"],
    [36552,"2018-04-02T10:00:00","16","ND","19,4","2,1","243,3","26,1","69","202,6","0"],
    [36553,"2018-04-02T11:00:00","29","ND","24,4","3,4","276,8","26,8","65","235,3","0,25"],
    [36554,"2018-04-02T12:00:00","24","ND","44,7","2,4","258,4","29,5","54","395,9","0"],
    [36555,"2018-04-02T13:00:00","11","1","44,2","2,9","280,9","31,1","43,9","329,2","0"],
    [36556,"2018-04-02T14:00:00","22","ND","54,1","1,6","255,1","32","41,9","358,9","0"],
    [36557,"2018-04-02T15:00:00","32","ND","57,9","3,9","177,5","31,1","45,1","187,8","0"],
    [36558,"2018-04-02T16:00:00","36","ND","32,8","5,8","209,6","29,4","50,5","81,5","0"],
    [36559,"2018-04-02T17:00:00","36","ND","21,6","6,5","246,9","25,2","70","10,9","4,57"],
    [36560,"2018-04-02T18:00:00","21","ND","15,7","2","187,2","24,4","75,6","5","0,76"],
    [36561,"2018-04-02T19:00:00","29","1","11,1","1,9","21,5","24,4","75,9","0","0,51"],
    [36562,"2018-04-02T20:00:00","31","ND","8,8","2,3","3","24","78","0","0"],
    [36563,"2018-04-02T21:00:00","29","ND","7,8","1,6","19","23,8","77,5","0","0"],
    [36564,"2018-04-02T22:00:00","34","ND","7,4","0,3","28,7","23,7","77,2","0","0"],
    [36565,"2018-04-02T23:00:00","75","6","5,3","1,3","296","23,9","77,5","0","0"],
    [36566,"2018-04-03T00:00:00","45","5","5,1","1,8","295,7","23,9","76,7","0","0"],
    [36567,"2018-04-03T01:00:00","35","2","5,2","1,9","262,9","23,7","77,5","0","0"],
    [36568,"2018-04-03T02:00:00","33","1","5,7","2","219,4","23,4","78,5","0","0"],
    [36569,"2018-04-03T03:00:00","18","ND","11","2,3","151,8","23,3","78,3","0","0,51"],
    [36570,"2018-04-03T04:00:00","10","ND","8,8","1,7","287","23,3","78,8","0","0"],
    [36571,"2018-04-03T05:00:00","23","3","7,1","1,5","352,3","23,3","78,5","0","0"],
    [36572,"2018-04-03T06:00:00","37","9","5,1","1,5","6,6","23,4","79","0","0"],
    [36573,"2018-04-03T07:00:00","58","9","5,7","0,8","343,1","23,8","77,5","11,1","0"],
    [36574,"2018-04-03T08:00:00","50","10","7,2","0,7","3,7","25","72,5","72","0"],
    [36575,"2018-04-03T09:00:00","52","13","13,1","1","10,3","26,3","67,1","102,6","0"],
    [36576,"2018-04-03T10:00:00","68","20","21,3","2,8","264,9","28","60,7","342,4","0"],
    [36577,"2018-04-03T11:00:00","44","11","46,1","2,1","280,5","30,1","50,2","458,3","0"],
    [36578,"2018-04-03T12:00:00","39","13","61","2,6","273,1","32","44","533,5","0"],
    [36579,"2018-04-03T13:00:00","25","6","63,6","2,4","244,9","33,1","38,8","483,7","0"],
    [36580,"2018-04-03T14:00:00","30","1","68,1","2,7","263,6","33,9","37,8","408,3","0"],
    [36581,"2018-04-03T15:00:00","40","8","68,5","2,8","272","33,1","38,9","148,1","0"],
    [36582,"2018-04-03T16:00:00","ND","7","72,5","7,3","117,2","29","50,7","18,3","45,47"],
    [36583,"2018-04-03T17:00:00","ND","ND","44,2","4,8","81,4","22,4","84,3","0","49,28"],
    [36584,"2018-04-03T18:00:00","ND","ND","ND","ND","ND","ND","ND","ND","ND"],
    [36585,"2018-04-03T19:00:00","ND","ND","ND","ND","ND","ND","ND","ND","ND"],
    [36586,"2018-04-03T20:00:00","ND","ND","ND","ND","ND","ND","ND","ND","ND"],
    [36587,"2018-04-03T21:00:00","ND","ND","ND","ND","ND","ND","ND","ND","ND"],
    [36588,"2018-04-03T22:00:00","ND","ND","ND","ND","ND","ND","ND","ND","ND"],
    [36589,"2018-04-03T23:00:00","ND","ND","ND","ND","ND","ND","ND","ND","ND"],
    [36590,"2018-04-04T00:00:00","ND","ND","ND","ND","ND","ND","ND","ND","ND"],
    [36591,"2018-04-04T01:00:00","ND","ND","ND","ND","ND","ND","ND","ND","ND"],
    [36592,"2018-04-04T02:00:00","ND","ND","ND","ND","ND","ND","ND","ND","ND"],
    [36593,"2018-04-04T03:00:00","ND","ND","ND","ND","ND","ND","ND","ND","ND"],
    [36594,"2018-04-04T04:00:00","ND","ND","ND","ND","ND","ND","ND","ND","ND"],
    [36595,"2018-04-04T05:00:00","ND","ND","ND","ND","ND","ND","ND","ND","ND"],
    [36596,"2018-04-04T06:00:00","ND","ND","ND","ND","ND","ND","ND","ND","ND"],
    [36597,"2018-04-04T07:00:00","ND","ND","ND","ND","ND","ND","ND","ND","ND"],
    [36598,"2018-04-04T08:00:00","ND","ND","ND","ND","ND","ND","ND","ND","ND"],
    [36599,"2018-04-04T09:00:00","ND","ND","ND","ND","ND","ND","ND","ND","ND"],
    [36600,"2018-04-04T10:00:00","ND","ND","ND","ND","ND","ND","ND","ND","ND"],
    [36601,"2018-04-04T11:00:00","ND","ND","ND","ND","ND","ND","ND","ND","ND"],
    [36602,"2018-04-04T12:00:00","ND","ND","ND","ND","ND","ND","ND","ND","ND"],
    [36603,"2018-04-04T13:00:00","34","ND","ND","ND","ND","ND","ND","ND","ND"],
    [36604,"2018-04-04T14:00:00","37","ND","55,4","2,6","217,4","29,2","54,8","215,7","0"],
    [36605,"2018-04-04T15:00:00","47","2","33,9","6,7","271,6","26,8","68,3","76,5","0,25"],
    [36606,"2018-04-04T16:00:00","34","1","19,3","3,1","289,4","24,8","73,7","38,3","1,78"],
    [36607,"2018-04-04T17:00:00","33","ND","19,8","2,3","63,2","24,5","72,8","24,5","0,25"],
    [36608,"2018-04-04T18:00:00","32","ND","14,8","4,3","84","25,1","69,7","5,6","0"],
    [36609,"2018-04-04T19:00:00","64","4","7,8","2,3","108,8","25,5","68,8","0","0"],
    [36610,"2018-04-04T20:00:00","103","22","7,4","3,1","297,4","24,6","73,9","0","0"],
    [36611,"2018-04-04T21:00:00","66","10","6,9","1","329,6","23,8","77","0","0"],
    [36612,"2018-04-04T22:00:00","126","28","7,2","2,1","165,4","24","76,5","0","0"],
    [36613,"2018-04-04T23:00:00","118","41","6,5","0,9","168,7","23,9","76,4","0","0"],
    [36614,"2018-04-05T00:00:00","145","54","7,4","0,6","189,9","24","76,9","0","0"],
    [36615,"2018-04-05T01:00:00","111","36","7,3","0,2","233,8","24,2","76,9","0","0"],
    [36616,"2018-04-05T02:00:00","74","17","5,9","2,3","320","23,3","79","0","0"],
    [36617,"2018-04-05T03:00:00","34","ND","6","2,4","30,9","22,8","78,7","0","0"],
    [36618,"2018-04-05T04:00:00","38","ND","5,7","1,8","45,4","22,5","79,7","0","0"],
    [36619,"2018-04-05T05:00:00","96","29","6,1","1,1","249,5","22,5","80","0","0"],
    [36620,"2018-04-05T06:00:00","74","16","6,4","1,3","215,5","22,4","80,9","0","0"],
    [36621,"2018-04-05T07:00:00","101","17","6,9","1,2","343","22,6","80,6","0","0"],
    [36622,"2018-04-05T08:00:00","75","5","6,6","1,9","22","23,4","76,3","31,7","0"],
    [36623,"2018-04-05T09:00:00","67","11","8,3","0,3","37,7","25","69,7","119,7","0"],
    [36624,"2018-04-05T10:00:00","63","13","18,1","1,3","25,5","27,2","59,7","203,6","0"],
    [36625,"2018-04-05T11:00:00","36","6","32,4","2,9","345,4","29,3","52,4","447,3","0"],
    [36626,"2018-04-05T12:00:00","22","ND","41,6","2,7","1,3","31,4","44,6","531,5","0"],
    [36627,"2018-04-05T13:00:00","24","ND","40,9","2,1","339","32,8","38,4","519,9","0"],
    [36628,"2018-04-05T14:00:00","27","ND","59,2","1,7","283,5","33,2","37,5","398,7","0"],
    [36629,"2018-04-05T15:00:00","44","4","68,1","2,8","233,4","32,8","39,6","282,6","0"],
    [36630,"2018-04-05T16:00:00","43","6","54,4","4,1","150,1","30,5","45,7","57,1","0"],
    [36631,"2018-04-05T17:00:00","19","2","39,7","5,6","81,9","27,3","59,2","68,7","0"],
    [36632,"2018-04-05T18:00:00","32","ND","21,8","4,7","134,8","28,7","48,2","25,8","0"],
    [36633,"2018-04-05T19:00:00","40","ND","13,7","4,3","158,1","28","49,9","0","0"],
    [36634,"2018-04-05T20:00:00","55","5","13,4","4,1","221,5","27,1","55","0","0"],
    [36635,"2018-04-05T21:00:00","31","1","10,7","2,8","113,4","26,2","61,2","0","1,02"],
    [36636,"2018-04-05T22:00:00","25","ND","11,1","4,4","73,1","24,9","70,8","0","2,03"],
    [36637,"2018-04-05T23:00:00","16","ND","12,7","3,6","81,2","24,3","73,1","0","3,81"],
    [36638,"2018-04-06T00:00:00","17","ND","12,6","3,8","44,1","23,4","78,2","0","5,84"],
    [36639,"2018-04-06T01:00:00","11","ND","14,4","2,6","23,1","23,3","78,3","0","0,25"],
    [36640,"2018-04-06T02:00:00","19","ND","13","2,2","340,6","23,4","79,3","0","0,25"],
    [36641,"2018-04-06T03:00:00","12","ND","14,7","4","285,1","22,9","80,3","0","6,6"],
    [36642,"2018-04-06T04:00:00","11","ND","20","2,7","295,5","22,3","80,6","0","6,86"],
    [36643,"2018-04-06T05:00:00","20","ND","19","1,1","35,3","22,2","80","0","5,84"],
    [36644,"2018-04-06T06:00:00","23","1","11,8","1,4","24,2","22,3","80,2","0","1,52"],
    [36645,"2018-04-06T07:00:00","17","3","9,5","2,4","51,6","22,4","80,2","0","0,51"],
    [36646,"2018-04-06T08:00:00","15","ND","10,8","2,1","64,2","22,6","79,5","32,7","2,29"],
    [36647,"2018-04-06T09:00:00","48","ND","28","2,3","83,3","23,9","71,4","128,2","0,25"],
    [36648,"2018-04-06T10:00:00","18","ND","41,8","0,9","75","26,9","59,7","305,2","0"],
    [36649,"2018-04-06T11:00:00","25","ND","50,4","1,4","326,2","28,8","52,3","364,7","0"],
    [36650,"2018-04-06T12:00:00","21","ND","53,7","2,3","337,9","31","44,3","523,7","0"],
    [36651,"2018-04-06T13:00:00","36","ND","49,5","3,8","284,3","31,4","42,4","508,1","0"],
    [36652,"2018-04-06T14:00:00","24","ND","53,6","2,8","314,8","32,7","38,8","488,5","0"],
    [36653,"2018-04-06T15:00:00","41","2","66,4","3,2","263,8","32,8","39,1","431","0"],
    [36654,"2018-04-06T16:00:00","30","5","66","6","139,2","31,4","40,9","242,5","0"],
    [36655,"2018-04-06T17:00:00","29","ND","30,4","5,6","114","29,7","45,6","89,8","0"],
    [36656,"2018-04-06T18:00:00","49","2","19,7","2,9","218,7","29,3","47,8","20,7","0"],
    [36657,"2018-04-06T19:00:00","55","8","20,8","4","220,4","27,1","56,5","0","0"],
    [36658,"2018-04-06T20:00:00","56","6","18,5","3","233,8","26,1","59,2","0","0"],
    [36659,"2018-04-06T21:00:00","61","4","12,5","3,3","241,9","25,3","64,9","0","0"],
    [36660,"2018-04-06T22:00:00","49","3","13,4","2,7","203,5","24,7","67,6","0","0"],
    [36661,"2018-04-06T23:00:00","62","12","9,9","1,4","252,9","24,8","66,3","0","0"],
    [36662,"2018-04-07T00:00:00","55","7","9,8","1,4","55,8","24,5","68,3","0","0"],
    [36663,"2018-04-07T01:00:00","39","ND","8,4","1,6","329,7","24,3","70,6","0","0"],
    [36664,"2018-04-07T02:00:00","39","ND","10,6","1,4","295,7","24","71,1","0","0"],
    [36665,"2018-04-07T03:00:00","43","ND","7,4","0,5","217,4","23,2","74,5","0","0"],
    [36666,"2018-04-07T04:00:00","50","ND","7,2","1","264,5","23","75","0","0"],
    [36667,"2018-04-07T05:00:00","53","4","6,1","0,9","301,7","22,8","76,1","0","0"],
    [36668,"2018-04-07T06:00:00","98","15","6,1","1,4","273,2","22,8","75,3","0","0"],
    [36669,"2018-04-07T07:00:00","106","26","7,1","1,5","198,4","22,8","75","15,1","0"],
    [36670,"2018-04-07T08:00:00","85","19","12","2","198,8","24,8","66,7","140,1","0"],
    [36671,"2018-04-07T09:00:00","70","20","29,4","2,1","232,6","27,1","57,7","266","0"],
    [36672,"2018-04-07T10:00:00","54","3","52,5","1,7","280,4","29,5","49,8","386,1","0"],
    [36673,"2018-04-07T11:00:00","56","7","78,2","1,8","275,1","31","44,9","468,1","0"],
    [36674,"2018-04-07T12:00:00","48","5","86,2","2,3","278,5","32,6","39,2","492,8","0"],
    [36675,"2018-04-07T13:00:00","59","2","92,3","3,6","291,4","32,4","38,9","362,5","0"],
    [36676,"2018-04-07T14:00:00","49","6","100","2,6","254,1","33,1","36,9","349,1","0"],
    [36677,"2018-04-07T15:00:00","56","8","131,9","0,3","31,7","33,6","36,9","264,7","0"],
    [36678,"2018-04-07T16:00:00","63","9","120,6","3,5","159,2","33","39,2","198,8","0"],
    [36679,"2018-04-07T17:00:00","27","5","39","4,2","138,7","32,4","37,7","137,1","0"],
    [36680,"2018-04-07T18:00:00","32","2","24,5","4,4","144,9","31,5","39,4","62","0"],
    [36681,"2018-04-07T19:00:00","40","2","13,9","3,8","124","30","42,7","0,8","0"],
    [36682,"2018-04-07T20:00:00","79","18","8,7","2,2","247,7","28,2","52","0","0"],
    [36683,"2018-04-07T21:00:00","63","10","9,2","2,3","257,8","26,6","58,7","0","0"],
    [36684,"2018-04-07T22:00:00","57","5","7,9","0,7","229,4","26,1","60,6","0","0"],
    [36685,"2018-04-07T23:00:00","63","4","7","2,7","298,2","25,9","61,9","0","0"],
    [36686,"2018-04-08T00:00:00","61","8","7","0,5","55,4","25,1","66,2","0","0"],
    [36687,"2018-04-08T01:00:00","67","6","6,4","0,4","245,1","24,8","68,9","0","0"],
    [36688,"2018-04-08T02:00:00","79","6","6,1","1","22,7","24,6","69,4","0","0"],
    [36689,"2018-04-08T03:00:00","48","1","6,1","2,1","292,5","23,9","72,5","0","0"],
    [36690,"2018-04-08T04:00:00","45","ND","5,7","0,4","207,6","23,5","73,9","0","0"],
    [36691,"2018-04-08T05:00:00","60","9","5,8","1,7","136,6","23,6","73,3","0","0"],
    [36692,"2018-04-08T06:00:00","62","6","6","1,1","307,6","23,5","73","0","0"],
    [36693,"2018-04-08T07:00:00","77","11","6,6","1,4","339,9","23,2","75,2","11","0"],
    [36694,"2018-04-08T08:00:00","74","9","9,7","1,6","34","24,8","70,4","122,2","0"],
    [36695,"2018-04-08T09:00:00","84","13","21,1","1,1","38,4","27,3","59","151,3","0"],
    [36696,"2018-04-08T10:00:00","90","16","37","1,4","300,8","29,1","52,8","274,3","0"],
    [36697,"2018-04-08T11:00:00","51","4","67","1,8","257,4","31,7","44","484,2","0"],
    [36698,"2018-04-08T12:00:00","31","2","72,7","1,7","292,3","33,5","38,1","525,4","0"],
    [36699,"2018-04-08T13:00:00","33","2","79,4","3","284,3","34,2","36,3","456,7","0"],
    [36700,"2018-04-08T14:00:00","60","2","88,3","2,3","245,3","35,2","34,3","482,9","0"],
    [36701,"2018-04-08T15:00:00","47","9","108,6","2,7","219,4","35,1","34,1","333,8","0"],
    [36702,"2018-04-08T16:00:00","41","5","82,6","2,8","177,2","34,6","34,7","220,5","0"],
    [36703,"2018-04-08T17:00:00","25","ND","37,2","7,1","116,3","34,1","33,3","181,7","0"],
    [36704,"2018-04-08T18:00:00","30","ND","31","6,7","118,9","32,6","35,8","40,5","0"],
    [36705,"2018-04-08T19:00:00","42","4","20,7","3,8","110,7","30,9","40,1","0,4","0"],
    [36706,"2018-04-08T20:00:00","68","18","13,1","0,7","143,8","29,6","45,9","0","0"],
    [36707,"2018-04-08T21:00:00","59","6","9,5","3,9","290","27,4","58","0","0"],
    [36708,"2018-04-08T22:00:00","58","3","8,4","2,8","249","26,8","60,9","0","0"],
    [36709,"2018-04-08T23:00:00","39","ND","8","1,8","285,1","26,6","61,8","0","0"],
    [36710,"2018-04-09T00:00:00","36","ND","7,7","1,5","308","26,3","63,9","0","0"],
    [36711,"2018-04-09T01:00:00","44","ND","7,8","2,3","23","25,9","65,6","0","0"],
    [36712,"2018-04-09T02:00:00","38","ND","8,9","2,3","29,3","25,2","68,4","0","0"],
    [36713,"2018-04-09T03:00:00","33","ND","9,9","3,2","31,5","25,2","67,5","0","0"],
    [36714,"2018-04-09T04:00:00","41","ND","7","0,9","334,3","24,9","68,5","0","0"],
    [36715,"2018-04-09T05:00:00","68","ND","6,4","3","257,8","24,1","73,6","0","0"],
    [36716,"2018-04-09T06:00:00","74","ND","6,3","1,4","345,9","24,1","73,6","0","0"],
    [36717,"2018-04-09T07:00:00","80","1","6,5","2,7","34,3","24,2","72,5","19","0"],
    [36718,"2018-04-09T08:00:00","76","4","10,4","2,7","8","26,5","63,5","131,1","0"],
    [36719,"2018-04-09T09:00:00","63","7","21,5","1","348,5","29","53,8","232,6","0"],
    [36720,"2018-04-09T10:00:00","50","6","39,6","0,8","300,9","31,1","47,2","343,3","0"],
    [36721,"2018-04-09T11:00:00","71","12","61,6","3,7","282,7","31,3","46,3","378","0"],
    [36722,"2018-04-09T12:00:00","44","6","72,6","4,7","281,7","32,7","41,5","466","0"],
    [36723,"2018-04-09T13:00:00","47","4","89,3","3","251,9","34,2","38,2","472,3","0"],
    [36724,"2018-04-09T14:00:00","55","17","108,6","2,2","209,2","35,3","35,8","425,2","0"],
    [36725,"2018-04-09T15:00:00","45","4","102,9","3,2","136,6","34,5","36,7","249,2","0"],
    [36726,"2018-04-09T16:00:00","38","ND","61,6","3,3","128","32,2","45,9","105,1","30,73"],
    [36727,"2018-04-09T17:00:00","ND","ND","ND","ND","ND","ND","ND","ND","ND"],
    [36728,"2018-04-09T18:00:00","ND","ND","ND","ND","ND","ND","ND","ND","ND"],
    [36729,"2018-04-09T19:00:00","ND","ND","ND","ND","ND","ND","ND","ND","ND"],
    [36730,"2018-04-09T20:00:00","ND","ND","ND","ND","ND","ND","ND","ND","ND"],
    [36731,"2018-04-09T21:00:00","ND","ND","ND","ND","ND","ND","ND","ND","ND"],
    [36732,"2018-04-09T22:00:00","ND","ND","ND","ND","ND","ND","ND","ND","ND"],
    [36733,"2018-04-09T23:00:00","ND","ND","ND","ND","ND","ND","ND","ND","ND"],
    [36734,"2018-04-10T00:00:00","ND","ND","ND","ND","ND","ND","ND","ND","ND"],
    [36735,"2018-04-10T01:00:00","ND","ND","ND","ND","ND","ND","ND","ND","ND"],
    [36736,"2018-04-10T02:00:00","ND","ND","ND","ND","ND","ND","ND","ND","ND"],
    [36737,"2018-04-10T03:00:00","ND","ND","ND","ND","ND","ND","ND","ND","ND"],
    [36738,"2018-04-10T04:00:00","ND","ND","ND","ND","ND","ND","ND","ND","ND"],
    [36739,"2018-04-10T05:00:00","ND","ND","ND","ND","ND","ND","ND","ND","ND"],
    [36740,"2018-04-10T06:00:00","ND","ND","ND","ND","ND","ND","ND","ND","ND"],
    [36741,"2018-04-10T07:00:00","ND","ND","ND","ND","ND","ND","ND","ND","ND"],
    [36742,"2018-04-10T08:00:00","ND","ND","ND","ND","ND","ND","ND","ND","ND"],
    [36743,"2018-04-10T09:00:00","ND","ND","ND","ND","ND","ND","ND","ND","ND"],
    [36744,"2018-04-10T10:00:00","ND","ND","ND","ND","ND","ND","ND","ND","ND"],
    [36745,"2018-04-10T11:00:00","ND","ND","ND","ND","ND","ND","ND","ND","ND"],
    [36746,"2018-04-10T12:00:00","22","2","ND","2,7","262,7","30","48,9","389,9","0"],
    [36747,"2018-04-10T13:00:00","45","6","65,2","2,1","265,7","31,7","44,3","468,3","0"],
    [36748,"2018-04-10T14:00:00","50","8","55,6","1,3","103,5","29,7","47,2","95,1","0"],
    [36749,"2018-04-10T15:00:00","60","12","34,5","2,9","185,2","28,8","48,2","89,5","0"],
    [36750,"2018-04-10T16:00:00","104","52","32,7","3,5","246,2","29,9","47,5","156,6","0"],
    [36751,"2018-04-10T17:00:00","68","6","26,3","3,1","270,8","30,2","43","72,4","0"],
    [36752,"2018-04-10T18:00:00","82","5","17,6","2,9","288,8","29,6","48","16,7","0"],
    [36753,"2018-04-10T19:00:00","96","19","8,4","1,7","312,1","28,5","54,1","0","0"],
    [36754,"2018-04-10T20:00:00","ND","ND","21,4","4,6","35,6","26,9","60,5","ND","0"],
    [36755,"2018-04-10T21:00:00","64","7","20,5","2,3","356,6","26,3","63,2","ND","0"],
    [36756,"2018-04-10T22:00:00","42","8","17,3","1,9","335","25,5","68,6","0","0"],
    [36757,"2018-04-10T23:00:00","49","5","12,3","2,2","303,3","24,9","72,1","0","0"],
    [36758,"2018-04-11T00:00:00","51","9","14,3","1,5","270,6","24,8","72","0","0"],
    [36759,"2018-04-11T01:00:00","50","9","14,1","1,9","250,1","24,8","73,4","0","0"],
    [36760,"2018-04-11T02:00:00","55","10","16,3","1,3","196,4","24,5","74,4","0","0"],
    [36761,"2018-04-11T03:00:00","55","4","13,3","1,1","272,9","24,6","74,9","0","0"],
    [36762,"2018-04-11T04:00:00","36","6","10,9","1,7","3","24,2","78,1","0","0,51"],
    [36763,"2018-04-11T05:00:00","32","1","8,8","2,3","7,4","24,1","78,1","0","0"],
    [36764,"2018-04-11T06:00:00","25","3","18,3","4,4","24,5","23,3","77,3","0","0"],
    [36765,"2018-04-11T07:00:00","34","2","18,1","2,8","33,2","23","77,1","1,2","0"],
    [36766,"2018-04-11T08:00:00","62","ND","12,2","1","301,7","23,7","74,1","21,5","0"],
    [36767,"2018-04-11T09:00:00","64","12","13,6","2","237,5","24,6","71,9","71,9","0"],
    [36768,"2018-04-11T10:00:00","38","7","24,4","1,3","289,1","26,7","63,4","182,6","0"],
    [36769,"2018-04-11T11:00:00","22","ND","42","1,2","341,2","28,6","53,9","287,4","0"],
    [36770,"2018-04-11T12:00:00","36","ND","47,1","2,6","280,6","30,3","50,2","449,7","0"],
    [36771,"2018-04-11T13:00:00","40","ND","53,5","3,6","275,1","31,1","46,4","419,6","0"],
    [36772,"2018-04-11T14:00:00","39","ND","56,9","4,1","272,8","30,9","47","307,8","0"],
    [36773,"2018-04-11T15:00:00","40","4","63","3,6","239,3","31,6","45","279,6","0"],
    [36774,"2018-04-11T16:00:00","43","2","61,4","3,7","240,3","31,2","46","162,2","0"],
    [36775,"2018-04-11T17:00:00","48","7","47,2","3,3","275,8","30,8","47,2","74,7","0"],
    [36776,"2018-04-11T18:00:00","49","4","43,2","3,4","69,6","28,9","53,2","7,1","0"],
    [36777,"2018-04-11T19:00:00","27","ND","30,8","5,7","103,1","26,4","60,2","0","0"],
    [36778,"2018-04-11T20:00:00","38","1","9,6","1,3","229,7","25,2","68,9","0","0,76"],
    [36779,"2018-04-11T21:00:00","56","7","12,6","2","181,2","25","68,6","0","0"],
    [36780,"2018-04-11T22:00:00","36","4","9,9","3","139,2","24,6","72,2","0","0"],
    [36781,"2018-04-11T23:00:00","70","17","5,3","1,2","197,8","25,2","71,2","0","0"],
    [36782,"2018-04-12T00:00:00","69","10","5,9","2,5","304,9","24,6","74","0","0"],
    [36783,"2018-04-12T01:00:00","54","6","10,7","1,6","45,3","24","75,6","0","0"],
    [36784,"2018-04-12T02:00:00","40","6","12,7","1","30,6","24,4","73,1","0","0"],
    [36785,"2018-04-12T03:00:00","45","2","13","1,4","37,3","24,6","71,3","0","0"],
    [36786,"2018-04-12T04:00:00","53","ND","6,4","2,6","283,7","24,1","75,7","0","0"],
    [36787,"2018-04-12T05:00:00","52","14","6,9","2,5","282,9","24,1","75,6","0","0"],
    [36788,"2018-04-12T06:00:00","96","32","5,7","1,7","323,4","24,1","76,4","0","0"],
    [36789,"2018-04-12T07:00:00","59","13","5,7","2,3","314","23,8","77,2","1,4","2,29"],
    [36790,"2018-04-12T08:00:00","38","7","6,7","2,3","295,5","23,5","79,4","9,2","2,03"],
    [36791,"2018-04-12T09:00:00","22","ND","11","3,7","252,1","22,8","79,2","40,3","2,29"],
    [36792,"2018-04-12T10:00:00","13","ND","15,4","2,8","237,7","23,4","78","117,2","0,76"],
    [36793,"2018-04-12T11:00:00","20","ND","34,2","1,3","167,5","26,3","64,2","301,3","0"],
    [36794,"2018-04-12T12:00:00","29","ND","68,4","2,1","60,4","28,6","54,5","391,8","0"],
    [36795,"2018-04-12T13:00:00","22","ND","85,4","1,9","37","30,7","46,1","453,2","0"],
    [36796,"2018-04-12T14:00:00","32","ND","87,1","0,5","290,3","31,1","45","355,3","0"],
    [36797,"2018-04-12T15:00:00","41","2","87","4,3","256,5","31","46,4","332","0"],
    [36798,"2018-04-12T16:00:00","29","ND","95,7","2,6","236,7","31,4","45,8","270,5","0"],
    [36799,"2018-04-12T17:00:00","45","4","116,5","3,4","207,3","31,2","45,9","146,1","0"],
    [36800,"2018-04-12T18:00:00","79","13","86,6","3,3","186,5","29,8","50,8","30,6","0"],
    [36801,"2018-04-12T19:00:00","103","22","29,3","2,5","195,2","28,6","54,3","0,3","0"],
    [36802,"2018-04-12T20:00:00","169","74","13,3","1,8","186,1","28","56,1","0","0"],
    [36803,"2018-04-12T21:00:00","155","51","6","2,4","143,2","27,5","61,1","0","0"],
    [36804,"2018-04-12T22:00:00","145","42","6,4","0,7","186,7","26,9","64,4","0","0"],
    [36805,"2018-04-12T23:00:00","103","23","6,4","3,4","292,3","25,5","70,7","0","0"],
    [36806,"2018-04-13T00:00:00","85","8","5,7","1,7","346,2","24,7","72","0","0"],
    [36807,"2018-04-13T01:00:00","48","6","9,9","1,9","12,9","24,8","72,1","0","0"],
    [36808,"2018-04-13T02:00:00","50","10","9,2","1,5","358,1","24,3","73,2","0","0"],
    [36809,"2018-04-13T03:00:00","44","7","6,9","2","37,8","23,9","74,5","0","0"],
    [36810,"2018-04-13T04:00:00","48","3","5,3","2,5","34,7","23,6","75,8","0","0"],
    [36811,"2018-04-13T05:00:00","47","1","4,2","0,9","319,8","23,3","76,5","0","0"],
    [36812,"2018-04-13T06:00:00","98","25","4,3","2","291,3","23,1","77,2","0","0"],
    [36813,"2018-04-13T07:00:00","86","8","4,5","1,3","24,2","23,6","74,3","4,6","0"],
    [36814,"2018-04-13T08:00:00","89","15","5,7","1,6","310,1","24,3","70,6","36","0"],
    [36815,"2018-04-13T09:00:00","91","11","6,7","1,7","315,9","25,2","69,1","54,1","0"],
    [36816,"2018-04-13T10:00:00","79","21","21","0,4","39,1","27,2","62","175,6","0"],
    [36817,"2018-04-13T11:00:00","54","ND","61,8","0,6","313,4","31,4","44,2","454,2","0"],
    [36818,"2018-04-13T12:00:00","61","5","70,2","3,7","278,6","32,5","41,2","499,1","0"],
    [36819,"2018-04-13T13:00:00","38","6","79,4","3,3","255,5","33,5","38,3","506,5","0"],
    [36820,"2018-04-13T14:00:00","38","12","93,8","2,9","190,8","34,2","37,4","455,1","0"],
    [36821,"2018-04-13T15:00:00","36","6","57,7","6,4","160,5","33,5","38,9","378,5","0"],
    [36822,"2018-04-13T16:00:00","31","ND","41","3,2","183,8","33,8","36,8","303","0"],
    [36823,"2018-04-13T17:00:00","35","ND","31,8","6,3","211","33,4","36,9","222,1","0"],
    [36824,"2018-04-13T18:00:00","33","ND","22,5","1,8","151,2","31,4","41,1","22,6","0"],
    [36825,"2018-04-13T19:00:00","54","ND","32","7,9","43,7","26,8","59,9","0","0"],
    [36826,"2018-04-13T20:00:00","42","3","17,3","4,3","21,9","26,9","59,9","0","0"],
    [36827,"2018-04-13T21:00:00","38","ND","19,1","5,5","329,8","25,5","66,1","0","0"],
    [36828,"2018-04-13T22:00:00","36","ND","20,3","3","310","24,6","69,5","0","0,25"],
    [36829,"2018-04-13T23:00:00","21","ND","20,5","1,1","246,5","23,5","77,5","0","10,41"],
    [36830,"2018-04-14T00:00:00","27","ND","16,2","2,3","276,8","23","81,8","0","2,79"],
    [36831,"2018-04-14T01:00:00","25","2","22,7","2,4","281,7","22,9","80,8","0","0,25"],
    [36832,"2018-04-14T02:00:00","31","16","26,5","1,7","220,7","23,1","78,9","0","0,76"],
    [36833,"2018-04-14T03:00:00","23","ND","25,3","2,5","177","23","79,7","0","1,78"],
    [36834,"2018-04-14T04:00:00","17","ND","23,1","1,9","206,3","22,9","79,9","0","1,78"],
    [36835,"2018-04-14T05:00:00","24","ND","14,5","1,8","261,9","22,8","79,9","0","0"],
    [36836,"2018-04-14T06:00:00","38","4","8,5","1,4","328,2","22,9","80","0","0"],
    [36837,"2018-04-14T07:00:00","44","6","8,3","1,8","326,7","23,2","79,4","6,9","0"],
    [36838,"2018-04-14T08:00:00","62","18","7,9","1,6","292,5","23,8","76,7","25,1","0"],
    [36839,"2018-04-14T09:00:00","82","14","10,9","2,9","246,5","24,4","74,4","77,2","0,25"],
    [36840,"2018-04-14T10:00:00","38","7","22,7","1,7","172,4","26","67","177,7","0"],
    [36841,"2018-04-14T11:00:00","33","3","40,5","1,6","112,8","28,1","58","376","0"],
    [36842,"2018-04-14T12:00:00","32","5","58,4","1,3","7,1","30,5","47","454,6","0"],
    [36843,"2018-04-14T13:00:00","30","5","53,2","3,4","283,5","30,6","45,6","342,6","0"],
    [36844,"2018-04-14T14:00:00","46","9","52,7","3,2","259,8","31,2","44,3","337,5","0"],
    [36845,"2018-04-14T15:00:00","49","10","62","3,3","277,9","32,2","41,4","406,1","0"],
    [36846,"2018-04-14T16:00:00","47","11","50","3,4","281,5","32,6","40,5","316,6","0"],
    [36847,"2018-04-14T17:00:00","42","4","45,9","3,7","292,1","32,7","37,2","198,4","0"],
    [36848,"2018-04-14T18:00:00","52","12","36,9","2,3","295,3","31,8","37,9","44,5","0"],
    [36849,"2018-04-14T19:00:00","57","9","34,2","2,5","179,6","30,3","46,3","0","0"],
    [36850,"2018-04-14T20:00:00","116","35","19,3","1,7","252,1","28,9","56,9","0","0"],
    [36851,"2018-04-14T21:00:00","131","41","12,1","2,3","291,1","28,2","60","0","0"],
    [36852,"2018-04-14T22:00:00","75","10","8,8","2,8","305,5","27,3","64,3","0","0"],
    [36853,"2018-04-14T23:00:00","42","6","11,1","0,2","192,2","26,9","65","0","0"],
    [36854,"2018-04-15T00:00:00","57","1","9,7","1,7","228,5","26,7","65,1","0","0"],
    [36855,"2018-04-15T01:00:00","60","11","8,1","1,8","262,8","25,8","68,7","0","0"],
    [36856,"2018-04-15T02:00:00","67","6","6,9","1,7","299,4","25","72,6","0","0"],
    [36857,"2018-04-15T03:00:00","59","2","6,5","1,3","294,1","24,7","73,8","0","0"],
    [36858,"2018-04-15T04:00:00","50","1","4,7","1,5","265,4","24,1","77,5","0","0"],
    [36859,"2018-04-15T05:00:00","54","4","5,7","0,7","156,1","23,8","77,6","0","0"],
    [36860,"2018-04-15T06:00:00","73","ND","4,8","0,7","25,9","23,9","76,9","0","0"],
    [36861,"2018-04-15T07:00:00","78","5","5,7","2,1","299,8","23,6","77,7","14,9","0"],
    [36862,"2018-04-15T08:00:00","59","6","10,5","0,8","257,6","25,2","72,3","106,7","0"],
    [36863,"2018-04-15T09:00:00","64","3","18,1","2","0,5","27","64,7","145,1","0"],
    [36864,"2018-04-15T10:00:00","49","6","38,8","2,3","346,5","29,3","57,8","337,2","0"],
    [36865,"2018-04-15T11:00:00","47","6","71,7","2,4","282,3","31,2","51","429,9","0"],
    [36866,"2018-04-15T12:00:00","58","15","83,1","1,9","306,1","33,5","42,7","504","0"],
    [36867,"2018-04-15T13:00:00","52","10","89,2","3,3","280,2","33,8","40","508,5","0"],
    [36868,"2018-04-15T14:00:00","53","15","88","3,6","267,6","34,3","38,2","367,1","0"],
    [36869,"2018-04-15T15:00:00","51","10","92,6","3,3","234,3","34,2","38,7","223,3","0"],
    [36870,"2018-04-15T16:00:00","65","18","103,3","3,6","242,5","34,3","38,9","180,2","0"],
    [36871,"2018-04-15T17:00:00","29","2","67,6","4,8","132,4","33,8","38,6","124,6","0"],
    [36872,"2018-04-15T18:00:00","22","ND","34,8","6,1","127,5","31,4","43,3","25,1","0"],
    [36873,"2018-04-15T19:00:00","39","ND","13,8","1,3","200,4","30","48,6","0","0"],
    [36874,"2018-04-15T20:00:00","28","ND","24,4","1,4","90,9","29,2","51,8","0","0"],
    [36875,"2018-04-15T21:00:00","56","ND","9,5","2,6","262,6","28,1","58,7","0","0"],
    [36876,"2018-04-15T22:00:00","41","ND","9","1,5","321,3","27,4","61,4","0","0"],
    [36877,"2018-04-15T23:00:00","54","1","7,8","2,2","290,6","27,3","62,3","0","0"],
    [36878,"2018-04-16T00:00:00","38","1","7,5","1,8","286,3","27,2","63","0","0"],
    [36879,"2018-04-16T01:00:00","26","ND","9,4","2,2","299,2","26,5","66,7","0","0"],
    [36880,"2018-04-16T02:00:00","37","ND","16,1","2,1","27,2","25,9","69,7","0","0"],
    [36881,"2018-04-16T03:00:00","26","ND","14,1","1,8","351,1","25,4","71,3","0","0"],
    [36882,"2018-04-16T04:00:00","28","ND","11,4","1,1","358","24,9","73,4","0","0"],
    [36883,"2018-04-16T05:00:00","40","ND","7,4","1,2","335,5","25","73,4","0","0"],
    [36884,"2018-04-16T06:00:00","75","3","4,8","1,9","330","24,6","75,5","0","0"],
    [36885,"2018-04-16T07:00:00","87","15","5,6","1,3","333,1","24,6","75,1","17,8","0"],
    [36886,"2018-04-16T08:00:00","71","9","8,5","2,5","358,7","26,7","66,4","131","0"],
    [36887,"2018-04-16T09:00:00","41","3","18,3","3,3","25,5","29,2","55,1","272,7","0"],
    [36888,"2018-04-16T10:00:00","39","ND","37,8","1,6","17,3","30,7","50","364,3","0"],
    [36889,"2018-04-16T11:00:00","38","ND","60,7","1,6","51,9","32,8","43,6","452,6","0"],
    [36890,"2018-04-16T12:00:00","42","2","72,8","2,7","278,7","33,9","39,4","490,4","0"],
    [36891,"2018-04-16T13:00:00","68","8","92,2","3,6","244,5","34,4","38,4","445,4","0"],
    [36892,"2018-04-16T14:00:00","62","13","110,3","4,1","189,1","34,4","38,8","286,9","0"],
    [36893,"2018-04-16T15:00:00","43","6","70,9","4,6","197,5","34,6","36,8","251,6","0"],
    [36894,"2018-04-16T16:00:00","30","ND","41,9","4,4","150,5","33,5","37,7","139,9","0"],
    [36895,"2018-04-16T17:00:00","40","ND","35,9","4,1","149,5","32,4","40","148,6","0"],
    [36896,"2018-04-16T18:00:00","52","ND","21,6","5,5","231,9","29,7","52,9","14","0"],
    [36897,"2018-04-16T19:00:00","68","4","14,7","1,8","315,4","29","55,7","0","0"],
    [36898,"2018-04-16T20:00:00","59","4","24,2","3,4","10,1","28,1","58,6","0","0"],
    [36899,"2018-04-16T21:00:00","50","1","23,1","2,8","10,6","26,9","62,9","0","0"],
    [36900,"2018-04-16T22:00:00","47","2","17,1","2","341,7","26","67,6","0","0"],
    [36901,"2018-04-16T23:00:00","39","2","14,8","0,3","298","25,8","68,2","0","0"],
    [36902,"2018-04-17T00:00:00","54","8","9,7","3,1","271","25","72,5","0","0"],
    [36903,"2018-04-17T01:00:00","55","18","9,6","0,5","13,6","24,5","73,7","0","0"],
    [36904,"2018-04-17T02:00:00","62","10","13,9","2","302,5","24,7","72","0","0"],
    [36905,"2018-04-17T03:00:00","43","5","10,1","0,4","85,8","24,1","75,1","0","0"],
    [36906,"2018-04-17T04:00:00","72","15","7","1,9","282","23,9","75,8","0","0"],
    [36907,"2018-04-17T05:00:00","72","9","5,4","1,1","231,3","23,4","77,6","0","0"],
    [36908,"2018-04-17T06:00:00","103","22","5,6","2,1","269","23,6","77,2","0","0"],
    [36909,"2018-04-17T07:00:00","81","14","5,3","0,6","129,9","23,8","76,8","16,4","0"],
    [36910,"2018-04-17T08:00:00","76","8","8,7","2,2","181,3","25,8","67,2","88,9","0"],
    [36911,"2018-04-17T09:00:00","82","16","15,1","2,9","249,7","27,7","59,7","234,3","0"],
    [36912,"2018-04-17T10:00:00","57","12","27,9","3,8","258,3","30","51,2","378,6","0"],
    [36913,"2018-04-17T11:00:00","53","26","49","3,9","251,9","31,8","45,7","417,7","0"],
    [36914,"2018-04-17T12:00:00","39","4","74,2","3,4","182,7","32,7","42,7","451,5","0"],
    [36915,"2018-04-17T13:00:00","41","3","60,7","4,2","259,7","34","37,5","522,1","0"],
    [36916,"2018-04-17T14:00:00","42","3","71,5","3,8","244,1","34,4","37,7","383,3","0"],
    [36917,"2018-04-17T15:00:00","53","3","62,8","3,7","269,6","33,7","39,2","174,8","0"],
    [36918,"2018-04-17T16:00:00","91","2","43,7","7,4","105,4","28,1","54,5","7,5","0,25"],
    [36919,"2018-04-17T17:00:00","ND","ND","44,4","5,1","33,9","25,4","70","0","26,92"],
    [36920,"2018-04-17T18:00:00","ND","ND","ND","ND","ND","ND","ND","ND","ND"],
    [36921,"2018-04-17T19:00:00","ND","ND","ND","ND","ND","ND","ND","ND","ND"],
    [36922,"2018-04-17T20:00:00","ND","ND","ND","ND","ND","ND","ND","ND","ND"],
    [36923,"2018-04-17T21:00:00","ND","ND","ND","ND","ND","ND","ND","ND","ND"],
    [36924,"2018-04-17T22:00:00","ND","ND","ND","ND","ND","ND","ND","ND","ND"],
    [36925,"2018-04-17T23:00:00","ND","ND","ND","ND","ND","ND","ND","ND","ND"],
    [36926,"2018-04-18T00:00:00","ND","ND","ND","ND","ND","ND","ND","ND","ND"],
    [36927,"2018-04-18T01:00:00","ND","ND","ND","ND","ND","ND","ND","ND","ND"],
    [36928,"2018-04-18T02:00:00","ND","ND","ND","ND","ND","ND","ND","ND","ND"],
    [36929,"2018-04-18T03:00:00","ND","ND","ND","ND","ND","ND","ND","ND","ND"],
    [36930,"2018-04-18T04:00:00","ND","ND","ND","ND","ND","ND","ND","ND","ND"],
    [36931,"2018-04-18T05:00:00","ND","ND","ND","ND","ND","ND","ND","ND","ND"],
    [36932,"2018-04-18T06:00:00","ND","ND","ND","ND","ND","ND","ND","ND","ND"],
    [36933,"2018-04-18T07:00:00","ND","ND","ND","ND","ND","ND","ND","ND","ND"],
    [36934,"2018-04-18T08:00:00","ND","ND","ND","ND","ND","ND","ND","ND","ND"],
    [36935,"2018-04-18T09:00:00","ND","ND","ND","ND","ND","ND","ND","ND","ND"],
    [36936,"2018-04-18T10:00:00","ND","ND","ND","ND","ND","ND","ND","ND","ND"],
    [36937,"2018-04-18T11:00:00","ND","ND","ND","ND","ND","ND","ND","ND","ND"],
    [36938,"2018-04-18T12:00:00","ND","ND","ND","ND","ND","ND","ND","ND","ND"],
    [36939,"2018-04-18T13:00:00","ND","ND","ND","ND","ND","ND","ND","ND","ND"],
    [36940,"2018-04-18T14:00:00","ND","ND","ND","ND","ND","ND","ND","ND","ND"],
    [36941,"2018-04-18T15:00:00","ND","ND","ND","ND","ND","ND","ND","ND","ND"],
    [36942,"2018-04-18T16:00:00","ND","ND","ND","ND","ND","ND","ND","ND","ND"],
    [36943,"2018-04-18T17:00:00","ND","ND","ND","ND","ND","ND","ND","ND","ND"],
    [36944,"2018-04-18T18:00:00","ND","ND","ND","ND","ND","ND","ND","ND","ND"],
    [36945,"2018-04-18T19:00:00","ND","ND","ND","ND","ND","ND","ND","ND","ND"],
    [36946,"2018-04-18T20:00:00","ND","ND","ND","ND","ND","ND","ND","ND","ND"],
    [36947,"2018-04-18T21:00:00","ND","ND","ND","ND","ND","ND","ND","ND","ND"],
    [36948,"2018-04-18T22:00:00","ND","ND","ND","ND","ND","ND","ND","ND","ND"],
    [36949,"2018-04-18T23:00:00","ND","ND","ND","ND","ND","ND","ND","ND","ND"],
    [36950,"2018-04-19T00:00:00","ND","ND","ND","ND","ND","ND","ND","ND","ND"],
    [36951,"2018-04-19T01:00:00","ND","ND","ND","ND","ND","ND","ND","ND","ND"],
    [36952,"2018-04-19T02:00:00","ND","ND","ND","ND","ND","ND","ND","ND","ND"],
    [36953,"2018-04-19T03:00:00","ND","ND","ND","ND","ND","ND","ND","ND","ND"],
    [36954,"2018-04-19T04:00:00","ND","ND","ND","ND","ND","ND","ND","ND","ND"],
    [36955,"2018-04-19T05:00:00","ND","ND","ND","ND","ND","ND","ND","ND","ND"],
    [36956,"2018-04-19T06:00:00","ND","ND","ND","ND","ND","ND","ND","ND","ND"],
    [36957,"2018-04-19T07:00:00","ND","ND","ND","ND","ND","ND","ND","ND","ND"],
    [36958,"2018-04-19T08:00:00","ND","ND","ND","ND","ND","ND","ND","ND","ND"],
    [36959,"2018-04-19T09:00:00","ND","ND","16,4","ND","ND","ND","ND","ND","ND"],
    [36960,"2018-04-19T10:00:00","79","ND","39,5","ND","ND","ND","ND","ND","ND"],
    [36961,"2018-04-19T11:00:00","51","2","73,3","ND","ND","ND","ND","ND","ND"],
    [36962,"2018-04-19T12:00:00","65","4","92,6","ND","ND","ND","ND","ND","ND"],
    [36963,"2018-04-19T13:00:00","48","9","88,2","ND","ND","ND","ND","ND","ND"],
    [36964,"2018-04-19T14:00:00","50","11","83,4","ND","ND","ND","ND","ND","ND"],
    [36965,"2018-04-19T15:00:00","56","10","71,6","ND","ND","ND","ND","ND","ND"],
    [36966,"2018-04-19T16:00:00","79","16","82,8","ND","ND","ND","ND","ND","ND"],
    [36967,"2018-04-19T17:00:00","74","9","44,5","ND","ND","ND","ND","ND","ND"],
    [36968,"2018-04-19T18:00:00","62","10","29,4","ND","ND","ND","ND","ND","ND"],
    [36969,"2018-04-19T19:00:00","46","5","28,7","ND","ND","ND","ND","ND","ND"],
    [36970,"2018-04-19T20:00:00","47","9","13,8","ND","ND","ND","ND","ND","ND"],
    [36971,"2018-04-19T21:00:00","23","5","9,6","ND","ND","ND","ND","ND","ND"],
    [36972,"2018-04-19T22:00:00","11","ND","11,7","ND","ND","ND","ND","ND","ND"],
    [36973,"2018-04-19T23:00:00","22","ND","7,8","ND","ND","ND","ND","ND","ND"],
    [36974,"2018-04-20T00:00:00","60","19","6,8","ND","ND","ND","ND","ND","ND"],
    [36975,"2018-04-20T01:00:00","26","ND","8,9","ND","ND","ND","ND","ND","ND"],
    [36976,"2018-04-20T02:00:00","8","ND","8,1","ND","ND","ND","ND","ND","ND"],
    [36977,"2018-04-20T03:00:00","10","ND","8,4","ND","ND","ND","ND","ND","ND"],
    [36978,"2018-04-20T04:00:00","8","ND","8,3","ND","ND","ND","ND","ND","ND"],
    [36979,"2018-04-20T05:00:00","56","23","7,5","ND","ND","ND","ND","ND","ND"],
    [36980,"2018-04-20T06:00:00","69","18","5,9","ND","ND","ND","ND","ND","ND"],
    [36981,"2018-04-20T07:00:00","103","39","7,3","ND","ND","ND","ND","ND","ND"],
    [36982,"2018-04-20T08:00:00","100","39","7,6","ND","ND","ND","ND","ND","ND"],
    [36983,"2018-04-20T09:00:00","78","29","8,6","ND","ND","ND","ND","ND","ND"],
    [36984,"2018-04-20T10:00:00","70","24","11,7","ND","ND","ND","ND","ND","ND"],
    [36985,"2018-04-20T11:00:00","68","24","24,8","2,4","272,5","28,6","62,1","307,8","0"],
    [36986,"2018-04-20T12:00:00","101","17","48,2","2","244,8","30,3","54,5","312","0"],
    [36987,"2018-04-20T13:00:00","36","2","43,1","3,2","221","30,3","53","198,9","0"],
    [36988,"2018-04-20T14:00:00","54","16","45","4,3","224,6","31,1","51,6","259,7","0"],
    [36989,"2018-04-20T15:00:00","31","ND","38","4,7","229,2","31,6","48,1","251,1","0"],
    [36990,"2018-04-20T16:00:00","31","ND","29,3","4,3","242,4","31,4","47,2","132,6","0"],
    [36991,"2018-04-20T17:00:00","ND","ND","25","4,2","262,1","31,3","46,9","97,6","0"],
    [36992,"2018-04-20T18:00:00","32","5","24,3","3,4","235,8","31","46,6","39,3","0"],
    [36993,"2018-04-20T19:00:00","52","10","16,2","2,9","208,4","29,6","52,4","0","0"],
    [36994,"2018-04-20T20:00:00","91","36","10,9","2,5","249,9","28,8","57,1","0","0"],
    [36995,"2018-04-20T21:00:00","85","27","11,9","2,1","231,9","28","60,3","0","0"],
    [36996,"2018-04-20T22:00:00","81","9","8,3","2,2","284,2","27,1","64,2","0","0"],
    [36997,"2018-04-20T23:00:00","74","22","7,7","1,6","332,2","26,4","68,2","0","0"],
    [36998,"2018-04-21T00:00:00","73","11","6,5","1,1","358,4","25,8","71,3","0","0"],
    [36999,"2018-04-21T01:00:00","65","8","6,2","1,5","326,4","24,9","74,1","0","0"],
    [37000,"2018-04-21T02:00:00","50","10","7","1,6","359,3","24,4","74,5","0","0"],
    [37001,"2018-04-21T03:00:00","44","6","7","1,8","18,8","24,6","74,4","0","0"],
    [37002,"2018-04-21T04:00:00","33","9","9","2","27,8","24,7","74,9","0","0"],
    [37003,"2018-04-21T05:00:00","43","8","8,4","0,7","289,4","24,8","74,2","0","0"],
    [37004,"2018-04-21T06:00:00","75","21","6,2","2,4","302","24,3","75,4","0","0"],
    [37005,"2018-04-21T07:00:00","63","14","6,8","1,1","43,5","24,5","74,6","12","0"],
    [37006,"2018-04-21T08:00:00","111","20","7,3","3,2","263,4","25,2","73,9","56,8","0"],
    [37007,"2018-04-21T09:00:00","74","19","11,5","2,5","191,9","26,7","67,7","171,9","0"],
    [37008,"2018-04-21T10:00:00","64","11","32,7","2","219,2","29,6","56,5","355,2","0"],
    [37009,"2018-04-21T11:00:00","53","14","65,1","2,2","271,4","31,6","49,3","456,7","0"],
    [37010,"2018-04-21T12:00:00","50","7","84,4","2,2","249,1","33,2","43,4","436","0"],
    [37011,"2018-04-21T13:00:00","67","22","80,7","4,1","246,6","33","42,3","271,4","0"],
    [37012,"2018-04-21T14:00:00","62","4","82,1","3,8","225,6","33,7","40,9","305,1","0"],
    [37013,"2018-04-21T15:00:00","54","14","73,5","3,9","223,2","33,6","41,4","199,6","0"],
    [37014,"2018-04-21T16:00:00","39","10","49,9","3,7","214,3","32,8","43,9","83","0"],
    [37015,"2018-04-21T17:00:00","32","5","36,8","3,3","150,5","32","44,1","49,4","0"],
    [37016,"2018-04-21T18:00:00","31","ND","28,4","4,1","108,7","31,3","44,5","16,7","0"],
    [37017,"2018-04-21T19:00:00","30","ND","20,8","4,2","113,9","30,4","47","0","0"],
    [37018,"2018-04-21T20:00:00","25","ND","19,6","4,1","108","29,9","48,2","0","0"],
    [37019,"2018-04-21T21:00:00","44","ND","12,9","1","167,1","29,6","50,7","0","0"],
    [37020,"2018-04-21T22:00:00","40","5","8,6","3,4","280,9","28,1","61,1","0","0"],
    [37021,"2018-04-21T23:00:00","42","4","7,2","0,7","174,2","27,6","61,9","0","0"],
    [37022,"2018-04-22T00:00:00","51","6","10","1,8","235,3","27,9","59,3","0","0"],
    [37023,"2018-04-22T01:00:00","46","11","8,8","0,4","304,2","27,5","61,2","0","0"],
    [37024,"2018-04-22T02:00:00","43","11","8,4","1,2","352,1","26,8","65,4","0","0"],
    [37025,"2018-04-22T03:00:00","30","ND","8,5","2","305,7","26,4","69,6","0","0"],
    [37026,"2018-04-22T04:00:00","42","ND","7,7","1","300,8","26","70,8","0","0"],
    [37027,"2018-04-22T05:00:00","70","11","7,3","1,4","263,3","25,8","71,1","0","0"],
    [37028,"2018-04-22T06:00:00","46","6","6,4","1,6","351","25,4","71,9","0","0"],
    [37029,"2018-04-22T07:00:00","42","4","6,4","1,8","327,8","25,3","72,4","15,9","0"],
    [37030,"2018-04-22T08:00:00","43","6","7,7","1,5","242,9","25,7","71,2","37,4","0"],
    [37031,"2018-04-22T09:00:00","71","8","12,4","1,6","322,2","27,6","65,5","126,3","0"],
    [37032,"2018-04-22T10:00:00","42","7","25,3","3,5","7,9","29,4","54,4","191,7","0"],
    [37033,"2018-04-22T11:00:00","23","2","46","1,5","346,1","31,5","47,4","327,8","0"],
    [37034,"2018-04-22T12:00:00","34","ND","55,2","3,6","245,1","31,4","47,4","245,2","0"],
    [37035,"2018-04-22T13:00:00","36","9","76,7","3,7","198,5","32,3","46","397","0"],
    [37036,"2018-04-22T14:00:00","36","7","72,7","3,5","217,9","32,8","43,4","275,1","0"],
    [37037,"2018-04-22T15:00:00","28","5","63,2","3,8","229,3","33,6","42,4","320,9","0"],
    [37038,"2018-04-22T16:00:00","23","1","54,2","3,3","217,6","33,4","41,4","147","0"],
    [37039,"2018-04-22T17:00:00","30","ND","30,5","3,4","231,1","32,3","44,6","37,5","0"],
    [37040,"2018-04-22T18:00:00","26","3","23,8","4,1","102,3","30,9","46,6","17,9","0"],
    [37041,"2018-04-22T19:00:00","24","4","14","2,7","127,6","30,2","47,1","0","0"],
    [37042,"2018-04-22T20:00:00","37","2","8,7","1,7","141,9","29,6","48,9","0","0"],
    [37043,"2018-04-22T21:00:00","45","1","8,1","2,4","277,3","28,5","57,4","0","0"],
    [37044,"2018-04-22T22:00:00","32","ND","8,2","2,5","282,2","27,7","61,7","0","0"],
    [37045,"2018-04-22T23:00:00","28","ND","7,9","2,5","236,4","27,3","63,1","0","0"],
    [37046,"2018-04-23T00:00:00","25","ND","9,7","1,8","203,9","27,6","60,4","0","0"],
    [37047,"2018-04-23T01:00:00","23","ND","10,5","2","287,9","27,2","61,6","0","0"],
    [37048,"2018-04-23T02:00:00","19","ND","9","1,9","310,7","26,6","65,1","0","0"],
    [37049,"2018-04-23T03:00:00","32","ND","7,8","1","8,6","26,2","68,6","0","0"],
    [37050,"2018-04-23T04:00:00","33","ND","8,8","1,1","326,3","26,3","66,7","0","0"],
    [37051,"2018-04-23T05:00:00","50","ND","6,9","2,7","284,7","25,8","70,1","0","0"],
    [37052,"2018-04-23T06:00:00","51","ND","6,4","1,4","207,2","25,7","71","0","0"],
    [37053,"2018-04-23T07:00:00","48","3","7","0,8","51","26,2","68,5","11,4","0"],
    [37054,"2018-04-23T08:00:00","97","12","10,1","2,6","35,1","27,1","66,9","71,2","0"],
    [37055,"2018-04-23T09:00:00","54","13","15,5","2","323,6","29,1","59","202,6","0"],
    [37056,"2018-04-23T10:00:00","46","8","27,3","2,7","344,4","31,5","51,5","286,2","0"],
    [37057,"2018-04-23T11:00:00","39","3","41","3,4","353,7","31,9","48,9","362,1","0"],
    [37058,"2018-04-23T12:00:00","24","ND","66,8","2,9","32,5","33","44,8","448,3","0"],
    [37059,"2018-04-23T13:00:00","36","1","66","2,5","297,6","34,8","38,1","475,5","0"],
    [37060,"2018-04-23T14:00:00","30","7","72,5","2,9","280,1","35,5","35,8","483,3","0"],
    [37061,"2018-04-23T15:00:00","50","6","77,4","3","256,8","34,8","37,4","158,2","0"],
    [37062,"2018-04-23T16:00:00","38","2","48,7","5","110,6","32,5","43,5","77","15,49"],
    [37063,"2018-04-23T17:00:00","14","ND","36,4","4,1","124","25,1","74,9","6,2","77,22"],
    [37064,"2018-04-23T18:00:00","15","2","18","2,4","4,5","25,4","74,6","0","8,89"],
    [37065,"2018-04-23T19:00:00","37","7","13,9","1,9","253,5","25,1","75,9","0","1,02"],
    [37066,"2018-04-23T20:00:00","14","ND","12,5","1,7","57,2","25,3","75,1","0","0,25"],
    [37067,"2018-04-23T21:00:00","25","ND","9,6","2,9","22","25,4","74,2","0","0"],
    [37068,"2018-04-23T22:00:00","33","2","9,4","0,8","326,8","25,3","73,5","0","0"],
    [37069,"2018-04-23T23:00:00","42","ND","8,4","1,5","308,1","25","74,3","0","0"],
    [37070,"2018-04-24T00:00:00","24","ND","9,1","1,2","32,2","24,7","74,8","0","0"],
    [37071,"2018-04-24T01:00:00","12","ND","8,2","1,2","89,4","24,5","74,8","0","0"],
    [37072,"2018-04-24T02:00:00","31","ND","7,5","1,8","297","24,2","77,5","0","0"],
    [37073,"2018-04-24T03:00:00","38","10","6,7","1,8","295,4","23,9","79","0","0"],
    [37074,"2018-04-24T04:00:00","41","13","6,5","1","144,3","23,8","79,2","0","0"],
    [37075,"2018-04-24T05:00:00","38","7","6,8","1,4","22,4","24,1","78,1","0","0"],
    [37076,"2018-04-24T06:00:00","99","29","6,5","1,7","283,8","23,8","79","0","0"],
    [37077,"2018-04-24T07:00:00","48","8","7","0,1","199,5","24,3","77,9","14,4","0"],
    [37078,"2018-04-24T08:00:00","92","18","7,6","2,1","294,7","24,9","76,2","57,8","0"],
    [37079,"2018-04-24T09:00:00","84","13","8","1,5","275,8","26,6","69,9","107","0"],
    [37080,"2018-04-24T10:00:00","86","27","16,2","1,7","250,5","28,6","61,4","267,1","0"],
    [37081,"2018-04-24T11:00:00","50","17","47,1","2","232,3","30,9","53,3","427,9","0"],
    [37082,"2018-04-24T12:00:00","51","17","65,8","1,3","270,8","32,8","47,2","468,4","0"],
    [37083,"2018-04-24T13:00:00","32","4","67,7","2","271,3","33,8","41,6","418,4","0"],
    [37084,"2018-04-24T14:00:00","55","20","73,6","3,7","279,5","33,7","42,1","353,4","0"],
    [37085,"2018-04-24T15:00:00","42","14","90,7","1,7","186,5","34,5","40,4","325,3","0"],
    [37086,"2018-04-24T16:00:00","38","11","73,9","2,8","201,2","34,9","38,5","202,7","0"],
    [37087,"2018-04-24T17:00:00","15","5","29,9","5,9","110,6","33,2","39,9","117,6","0"],
    [37088,"2018-04-24T18:00:00","24","ND","18,6","4,6","118,7","31,3","45,3","24,3","0"],
    [37089,"2018-04-24T19:00:00","47","6","9,5","1,5","158,1","30,4","48,5","0","0"],
    [37090,"2018-04-24T20:00:00","81","20","9,2","2,2","319","29","56,5","0","0"],
    [37091,"2018-04-24T21:00:00","52","9","23,2","4,3","14,7","27,2","62,8","0","0"],
    [37092,"2018-04-24T22:00:00","25","5","22,1","2,5","18,6","26,4","65,6","0","0"],
    [37093,"2018-04-24T23:00:00","35","2","14,7","2,6","266,7","26,3","66,2","0","0"],
    [37094,"2018-04-25T00:00:00","43","6","14,6","1,8","252,6","26,1","67","0","0"],
    [37095,"2018-04-25T01:00:00","33","1","14,1","2,5","268,9","25,6","70,1","0","0"],
    [37096,"2018-04-25T02:00:00","32","1","10,2","0,9","263,1","25,2","72","0","0"],
    [37097,"2018-04-25T03:00:00","29","2","12,7","0,7","121,1","25,6","69,1","0","0"],
    [37098,"2018-04-25T04:00:00","40","7","9,3","1","259,1","25,6","70,9","0","0"],
    [37099,"2018-04-25T05:00:00","51","9","7,6","1,8","288,5","25","74,4","0","0"],
    [37100,"2018-04-25T06:00:00","64","7","7,1","2","23,6","25","75,6","0","0"],
    [37101,"2018-04-25T07:00:00","69","10","7,7","1,9","331,5","25,2","75,6","0","4,83"],
    [37102,"2018-04-25T08:00:00","10","3","8,1","2,2","28,1","24,5","80,5","30,6","6,86"],
    [37103,"2018-04-25T09:00:00","9","ND","10,5","0,4","135,2","25,8","74,7","117,7","0"],
    [37104,"2018-04-25T10:00:00","ND","ND","17,1","2,8","277,3","28,1","64,1","194,2","0"],
    [37105,"2018-04-25T11:00:00","35","3","29,3","1,4","322,4","29,6","56,7","243,5","0"],
    [37106,"2018-04-25T12:00:00","11","ND","50,3","2","235,5","31,5","50,4","421,3","0"],
    [37107,"2018-04-25T13:00:00","51","7","53,2","3,1","235,1","31,6","49,7","286","0,25"],
    [37108,"2018-04-25T14:00:00","54","5","51","4,4","266,4","32","46","241,4","0"],
    [37109,"2018-04-25T15:00:00","60","3","54,7","4,9","305,1","31,1","51,5","161,7","0"],
    [37110,"2018-04-25T16:00:00","40","4","ND","3,9","290,6","31,8","48,1","162,2","0"],
    [37111,"2018-04-25T17:00:00","48","6","34,2","3,1","297,8","31,4","48,8","71,5","0"],
    [37112,"2018-04-25T18:00:00","75","20","22,1","2,6","302,8","31,1","49,7","28,9","0"],
    [37113,"2018-04-25T19:00:00","114","25","8,4","0,9","321,1","30","55","0","0"],
    [37114,"2018-04-25T20:00:00","118","29","8","0,4","133,2","29,4","57,8","0","0"],
    [37115,"2018-04-25T21:00:00","114","27","5,9","0,5","257,3","28,6","59,9","0","0"],
    [37116,"2018-04-25T22:00:00","71","10","5,6","3,3","268,8","26,9","65,8","0","0"],
    [37117,"2018-04-25T23:00:00","51","6","5,5","2,5","268,6","25,7","69,8","0","0"],
    [37118,"2018-04-26T00:00:00","25","ND","5,9","2","259,1","25,8","68,7","0","0"],
    [37119,"2018-04-26T01:00:00","26","ND","6,9","1,1","212,7","25,9","68,1","0","0"],
    [37120,"2018-04-26T02:00:00","31","ND","7,1","2,5","278,1","25,8","68,5","0","0"],
    [37121,"2018-04-26T03:00:00","21","ND","6,6","1,7","291,8","25,4","70,5","0","0"],
    [37122,"2018-04-26T04:00:00","25","ND","6,7","0,8","326,6","25,4","70,9","0","8,38"],
    [37123,"2018-04-26T05:00:00","12","ND","6,3","0,2","253,4","24,1","79,7","0","3,81"],
    [37124,"2018-04-26T06:00:00","50","15","5,7","1,3","265,5","24,6","79,1","0","0"],
    [37125,"2018-04-26T07:00:00","62","18","5,9","1,4","269,3","24,8","77,2","11,5","0,25"],
    [37126,"2018-04-26T08:00:00","62","10","5,5","1,6","312,6","25,5","74,5","50,9","0"],
    [37127,"2018-04-26T09:00:00","69","14","7,4","1,8","300,7","27,3","66,8","155,4","0"],
    [37128,"2018-04-26T10:00:00","52","8","18","2,4","11","29,6","58,5","264,7","0"],
    [37129,"2018-04-26T11:00:00","43","2","39,4","3,4","9","31,3","52,6","339,3","0"],
    [37130,"2018-04-26T12:00:00","53","10","53,8","2,8","352,5","31,3","51,7","220,3","0"],
    [37131,"2018-04-26T13:00:00","65","7","52,1","3,1","329","31,8","49,2","214,2","0"],
    [37132,"2018-04-26T14:00:00","54","5","50,9","3,1","313","32","46,7","216,6","0"],
    [37133,"2018-04-26T15:00:00","23","ND","51,9","3,3","17,5","32,8","42,3","236,6","0"],
    [37134,"2018-04-26T16:00:00","23","1","28","2,7","359","32","41,8","105,6","0"],
    [37135,"2018-04-26T17:00:00","26","4","27,4","1,6","328,2","31,9","41,9","70,4","0"],
    [37136,"2018-04-26T18:00:00","69","19","26","3,9","232,3","30,4","52,6","18,1","0"],
    [37137,"2018-04-26T19:00:00","57","12","10,2","2,3","213,4","28,7","57,6","0","0"],
    [37138,"2018-04-26T20:00:00","92","21","6,7","3,1","279,7","27,5","62,8","0","0"],
    [37139,"2018-04-26T21:00:00","88","28","6,5","3,3","266,1","26,2","67,7","0","0"],
    [37140,"2018-04-26T22:00:00","112","37","7,4","3,6","247,3","25,9","67,5","0","0"],
    [37141,"2018-04-26T23:00:00","39","ND","7,2","2,2","191,8","25,5","69,5","0","0"],
    [37142,"2018-04-27T00:00:00","34","4","6,7","2,5","153,4","25,2","71,3","0","0"],
    [37143,"2018-04-27T01:00:00","41","1","6,6","0,9","278,2","25,1","72,4","0","0"],
    [37144,"2018-04-27T02:00:00","30","ND","5,5","2,8","29,1","24,9","72,7","0","0"],
    [37145,"2018-04-27T03:00:00","18","ND","5,6","1,3","345","24,5","73,9","0","0"],
    [37146,"2018-04-27T04:00:00","23","ND","4,8","0,6","359,1","24,8","73,1","0","0"],
    [37147,"2018-04-27T05:00:00","29","ND","5,2","1,3","336,7","25,1","69,7","0","0"],
    [37148,"2018-04-27T06:00:00","50","2","5,1","1,7","334,5","24,6","72,6","0","0"],
    [37149,"2018-04-27T07:00:00","78","11","5,1","1,7","304,1","24,7","72,3","4,7","0"],
    [37150,"2018-04-27T08:00:00","98","28","6,8","1,3","245,5","25,4","69,6","33,6","0"],
    [37151,"2018-04-27T09:00:00","63","16","10,2","2,8","269","27","65,3","189,4","0"],
    [37152,"2018-04-27T10:00:00","39","ND","21,1","2,5","265,9","28,8","59,4","323,2","0"],
    [37153,"2018-04-27T11:00:00","29","8","39,5","3","269,8","30,1","54","340,1","0"],
    [37154,"2018-04-27T12:00:00","35","6","48,1","3,9","264,6","30,7","51,5","359,7","0"],
    [37155,"2018-04-27T13:00:00","33","6","69,6","1,6","242","33,6","40,4","442,6","0"],
    [37156,"2018-04-27T14:00:00","17","ND","58,7","2,9","236,2","34,2","37,2","419,3","0"],
    [37157,"2018-04-27T15:00:00","29","ND","66,9","4,2","229,7","33,7","39,6","298,2","0"],
    [37158,"2018-04-27T16:00:00","41","ND","55,9","5,2","191,4","33,2","40,6","204,2","0"],
    [37159,"2018-04-27T17:00:00","40","ND","32,7","4,8","197","32,1","41,4","94,9","0"],
    [37160,"2018-04-27T18:00:00","46","5","19,8","4,9","220,9","30,2","47,9","9,6","0"],
    [37161,"2018-04-27T19:00:00","41","8","11,8","4,3","228,4","28,6","57,3","0","0"],
    [37162,"2018-04-27T20:00:00","34","9","10,1","3,3","221,3","27,6","63,5","0","0"],
    [37163,"2018-04-27T21:00:00","64","16","9,5","2,4","306,1","26,9","69,4","0","0"],
    [37164,"2018-04-27T22:00:00","59","26","11,3","2,6","341,7","26,2","66,7","0","0"],
    [37165,"2018-04-27T23:00:00","39","11","12,7","2,5","4,7","25,3","69,4","0","0"],
    [37166,"2018-04-28T00:00:00","31","8","10,4","1,6","8","25,2","70,3","0","0"],
    [37167,"2018-04-28T01:00:00","21","1","8,7","1,2","343","25,4","69,5","0","0"],
    [37168,"2018-04-28T02:00:00","39","ND","11,3","1,4","6,5","25,3","69,5","0","0"],
    [37169,"2018-04-28T03:00:00","15","ND","10","1,8","354,4","25,3","69,9","0","0"],
    [37170,"2018-04-28T04:00:00","17","ND","6,8","1,4","347,4","24,8","74","0","0"],
    [37171,"2018-04-28T05:00:00","22","ND","5,7","1,5","295,4","24,8","74,1","0","0"],
    [37172,"2018-04-28T06:00:00","68","2","5,2","2,1","261,4","24,6","75,8","0","0"],
    [37173,"2018-04-28T07:00:00","67","10","5,7","1,8","208,6","24,7","75,1","7,4","0"],
    [37174,"2018-04-28T08:00:00","86","17","6,1","1,4","293,1","25,3","72,6","26,4","0"],
    [37175,"2018-04-28T09:00:00","51","11","7,6","1,5","331,7","26","70,5","64,5","0"],
    [37176,"2018-04-28T10:00:00","62","16","13,5","2,1","331,3","27,2","67,1","179,6","0"],
    [37177,"2018-04-28T11:00:00","36","9","27,7","1,1","333,8","28,5","59,8","178,3","0,51"],
    [37178,"2018-04-28T12:00:00","27","5","34,7","1,6","261,1","29,1","57,9","244,9","0"],
    [37179,"2018-04-28T13:00:00","28","3","53,3","2,7","195,8","30,5","51","324","0"],
    [37180,"2018-04-28T14:00:00","30","ND","50,7","3,2","256,7","31,8","48","310,6","0"],
    [37181,"2018-04-28T15:00:00","29","1","43,6","3,7","261,2","31,2","48,5","151,2","0"],
    [37182,"2018-04-28T16:00:00","27","ND","34","4,2","192,3","30,4","49,9","129,8","0"],
    [37183,"2018-04-28T17:00:00","17","ND","19,4","4,9","197,7","29,3","54","108,1","0"],
    [37184,"2018-04-28T18:00:00","47","2","9,1","2,9","219,5","28,7","57,3","19,1","0"],
    [37185,"2018-04-28T19:00:00","43","3","9,1","2","289","27,4","63,5","0","0"],
    [37186,"2018-04-28T20:00:00","66","14","11,5","2,1","21,8","27,3","62,6","0","0"],
    [37187,"2018-04-28T21:00:00","55","11","14,3","2,7","13,3","26,7","66,2","0","0"],
    [37188,"2018-04-28T22:00:00","52","5","15,9","3,4","37,6","26,2","68,9","0","0"],
    [37189,"2018-04-28T23:00:00","38","3","13,1","1,7","4","25,9","68,9","0","0"],
    [37190,"2018-04-29T00:00:00","40","7","9,9","1,3","305,6","25,4","71,7","0","0"],
    [37191,"2018-04-29T01:00:00","57","9","6,7","1,6","227,4","24,2","76,4","0","0"],
    [37192,"2018-04-29T02:00:00","49","4","6,9","0,8","47,8","24,1","77,5","0","0"],
    [37193,"2018-04-29T03:00:00","42","6","9,6","1,2","239,5","24,4","76,2","0","0"],
    [37194,"2018-04-29T04:00:00","48","5","7,5","1,5","198,2","24,1","77,3","0","0"],
    [37195,"2018-04-29T05:00:00","55","14","6,7","1,5","210,9","23,8","77,5","0","0"],
    [37196,"2018-04-29T06:00:00","50","12","5,2","2","174,6","23,8","77,1","0","0"],
    [37197,"2018-04-29T07:00:00","49","7","5,7","1,9","251,7","24","77,2","10","0"],
    [37198,"2018-04-29T08:00:00","48","4","5,8","1,9","306,9","24,6","75,4","18,8","0"],
    [37199,"2018-04-29T09:00:00","31","5","5,8","1,1","245,5","24,2","79","0","11,18"],
    [37200,"2018-04-29T10:00:00","15","ND","8,9","1","119,4","24,1","80,1","33,5","2,79"],
    [37201,"2018-04-29T11:00:00","14","ND","13,8","2,1","12,6","24,9","74","115","0"],
    [37202,"2018-04-29T12:00:00","9","2","22","2,6","301,6","27,1","65,9","229,9","0"],
    [37203,"2018-04-29T13:00:00","17","1","35,4","1,3","12,3","28,5","61,5","186,6","0"],
    [37204,"2018-04-29T14:00:00","6","ND","30,4","3,3","29,4","26,8","68,6","63,2","0,51"],
    [37205,"2018-04-29T15:00:00","6","ND","31,8","3,3","30,6","26,6","70","94,4","0,25"],
    [37206,"2018-04-29T16:00:00","17","ND","38,4","3,5","35,8","27,2","67,2","99","0"],
    [37207,"2018-04-29T17:00:00","24","ND","34,4","3,3","23,7","26,9","67,9","54,5","0"],
    [37208,"2018-04-29T18:00:00","25","ND","27","1,8","356,2","26,7","68","13,7","0"],
    [37209,"2018-04-29T19:00:00","36","1","16,6","1,1","335,2","26,2","70,3","0","0"],
    [37210,"2018-04-29T20:00:00","65","13","7,5","1,3","272,3","26","73,1","0","0"],
    [37211,"2018-04-29T21:00:00","49","22","7,4","0,9","108,7","25,5","75,2","0","0"],
    [37212,"2018-04-29T22:00:00","87","32","6,1","1,7","75,8","25,1","76","0","0"],
    [37213,"2018-04-29T23:00:00","53","8","4,8","2,3","97,6","25","69,7","0","0"],
    [37214,"2018-04-30T00:00:00","36","4","5,3","1","76,4","25","66","0","0"],
    [37215,"2018-04-30T01:00:00","44","1","6,1","2,6","307","24","77,7","0","0"],
    [37216,"2018-04-30T02:00:00","25","ND","5,1","1","301","24","78,4","0","0"],
    [37217,"2018-04-30T03:00:00","39","ND","5,7","2","177,3","23,9","79","0","0"],
    [37218,"2018-04-30T04:00:00","48","10","5,4","1,8","180,5","23,8","79,6","0","0"],
    [37219,"2018-04-30T05:00:00","44","8","5,3","0,5","109,6","23,8","78,8","0","0"],
    [37220,"2018-04-30T06:00:00","76","30","5,9","1,5","21,5","24,2","78","0","0"],
    [37221,"2018-04-30T07:00:00","66","14","5,4","2,3","20,8","24,2","77,5","13,4","0"],
    [37222,"2018-04-30T08:00:00","73","12","6,5","2,3","13,8","25,5","71","90,1","0"],
    [37223,"2018-04-30T09:00:00","73","23","10,1","2,2","342,8","26,7","68,2","139,3","0"],
    [37224,"2018-04-30T10:00:00","ND","ND","30,6","0,9","282,5","28,9","59,1","270,4","0,25"],
    [37225,"2018-04-30T11:00:00","42","ND","48,5","2,3","246,7","30,8","51,1","408,8","0"],
    [37226,"2018-04-30T12:00:00","34","ND","56,3","2,1","283,9","31,9","44,4","370,9","0"],
    [37227,"2018-04-30T13:00:00","50","ND","64,9","2,3","231,5","33,2","40,2","397,8","0"],
    [37228,"2018-04-30T14:00:00","48","ND","77,2","2,2","290,6","33,6","39,6","309,4","0"],
    [37229,"2018-04-30T15:00:00","53","ND","76,8","4,3","290,7","32,7","41,7","260,2","0"],
    [37230,"2018-04-30T16:00:00","58","ND","87,9","3,4","301,2","33,6","39,7","245,9","0"],
    [37231,"2018-04-30T17:00:00","45","ND","105,6","1,9","0,5","33,4","40,5","114,9","0"],
    [37232,"2018-04-30T18:00:00","64","ND","102,8","2,4","33,4","31,9","44,8","14,6","0"],
    [37233,"2018-04-30T19:00:00","38","ND","29,9","3,6","105","30,6","48,3","ND","0"],
    [37234,"2018-04-30T20:00:00","22","ND","8,9","3,8","115,4","29,6","51","ND","0"],
    [37235,"2018-04-30T21:00:00","51","ND","7,6","2,7","282,1","28,4","59","ND","0"],
    [37236,"2018-04-30T22:00:00","31","ND","6,9","2,4","279,8","27,3","64,2","ND","0"],
    [37237,"2018-04-30T23:00:00","20","ND","7,4","1,3","204,9","27,3","62,3","ND","0"],
    [37238,"2018-05-01T00:00:00","6","ND","10,9","4","92,1","27,2","57,1","ND","0"],
    [37239,"2018-05-01T01:00:00","20","ND","8,9","2,1","297,1","26,7","63,7","ND","0"],
    [37240,"2018-05-01T02:00:00","9","ND","8,5","0,7","3,7","26,4","65,6","ND","0,76"],
    [37241,"2018-05-01T03:00:00","27","ND","8,1","2","21,8","25,6","71,8","ND","0,25"],
    [37242,"2018-05-01T04:00:00","27","ND","7,9","1","349,6","25,6","72,7","ND","0"],
    [37243,"2018-05-01T05:00:00","29","ND","6,5","1,6","320","25,5","73,4","ND","0"],
    [37244,"2018-05-01T06:00:00","54","ND","5,7","1,7","278,8","25,2","74,4","ND","0"],
    [37245,"2018-05-01T07:00:00","66","ND","6","2,2","257,2","25,3","73,3","11,4","0"],
    [37246,"2018-05-01T08:00:00","49","ND","6,8","1,9","293","26,2","70,3","56,3","0"],
    [37247,"2018-05-01T09:00:00","69","ND","9,2","2,2","316,2","27,4","64,4","93,6","0"],
    [37248,"2018-05-01T10:00:00","35","ND","23,5","2,4","44,3","29,6","55,8","302,2","0"],
    [37249,"2018-05-01T11:00:00","25","ND","49,3","2,2","42,2","31,2","49,4","322,1","0"],
    [37250,"2018-05-01T12:00:00","26","ND","66,2","1,6","0","32,1","45,7","355,6","0"],
    [37251,"2018-05-01T13:00:00","25","ND","61,8","2,7","328,5","33,4","41,1","411,7","0"],
    [37252,"2018-05-01T14:00:00","30","ND","62,6","2,8","285,4","34,7","37,8","438,1","0"],
    [37253,"2018-05-01T15:00:00","24","ND","65,8","2","295,2","34,5","37,1","265,5","0"],
    [37254,"2018-05-01T16:00:00","24","ND","85,5","0,4","191,6","34,7","37,2","164,4","0"],
    [37255,"2018-05-01T17:00:00","21","ND","47,4","5,5","111","33,3","39,8","144,6","0"],
    [37256,"2018-05-01T18:00:00","11","ND","34,1","5,8","111,1","31,8","41,6","23,1","0"],
    [37257,"2018-05-01T19:00:00","21","ND","26,1","1,7","37,3","29,9","51,2","ND","0"],
    [37258,"2018-05-01T20:00:00","36","ND","24,7","2,2","350,1","27,2","64,6","ND","0"],
    [37259,"2018-05-01T21:00:00","34","ND","14,4","2,6","295,7","27,4","63","ND","0,25"],
    [37260,"2018-05-01T22:00:00","25","ND","16,3","3,9","26,6","25,9","69,3","ND","0"],
    [37261,"2018-05-01T23:00:00","27","ND","20","3,4","22,6","25,5","72,1","ND","0"],
    [37262,"2018-05-02T00:00:00","27","ND","18,2","1,9","21,4","25,5","73,1","ND","0"],
    [37263,"2018-05-02T01:00:00","29","ND","15,1","0,8","354,4","25,6","73,7","ND","0"],
    [37264,"2018-05-02T02:00:00","24","ND","12,6","2,4","286,1","25,4","74,8","ND","0"],
    [37265,"2018-05-02T03:00:00","45","ND","10,4","1,1","228","24,6","76,8","ND","0"],
    [37266,"2018-05-02T04:00:00","41","ND","10,2","2,3","236,8","24,7","76,2","ND","0"],
    [37267,"2018-05-02T05:00:00","77","ND","8,7","1,7","251,6","24,6","76,2","ND","0"],
    [37268,"2018-05-02T06:00:00","64","ND","8,6","0,5","189","24,9","74,4","ND","0"],
    [37269,"2018-05-02T07:00:00","71","ND","8,9","2,3","185,1","24,9","74,5","3,4","0"],
    [37270,"2018-05-02T08:00:00","82","ND","10,2","1,9","192,3","25,8","71,2","43,9","0"],
    [37271,"2018-05-02T09:00:00","70","ND","14,3","3,4","290,8","27,3","66,2","164,2","0"],
    [37272,"2018-05-02T10:00:00","53","ND","24,2","2,6","336,1","29,6","57","266,6","0"],
    [37273,"2018-05-02T11:00:00","43","ND","46,6","2,2","348,8","31,7","50,3","448,3","0"],
    [37274,"2018-05-02T12:00:00","43","ND","57,4","2,7","291,5","33,1","45,1","400,4","0"],
    [37275,"2018-05-02T13:00:00","37","ND","62,8","2,2","295,4","33,3","41,6","276,1","0"],
    [37276,"2018-05-02T14:00:00","50","ND","71,1","2,9","262,9","34,7","37,9","417,2","0"],
    [37277,"2018-05-02T15:00:00","38","ND","80,1","3,1","282,8","35,4","35,6","372,2","0"],
    [37278,"2018-05-02T16:00:00","38","ND","74,4","3,9","288,6","35,5","33,9","275,8","0"],
    [37279,"2018-05-02T17:00:00","34","ND","74,3","2,8","288","35,2","34,3","117,8","0"],
    [37280,"2018-05-02T18:00:00","106","ND","49,4","3,2","296,6","33,6","40,4","8","0"],
    [37281,"2018-05-02T19:00:00","47","ND","23,5","3,5","244,9","30,1","53,4","ND","0"],
    [37282,"2018-05-02T20:00:00","23","ND","21,8","3,5","126,1","29,4","52,5","ND","0"],
    [37283,"2018-05-02T21:00:00","37","ND","16,4","3,4","264,9","28,7","56,1","ND","0"],
    [37284,"2018-05-02T22:00:00","32","ND","12,5","1,1","240,3","27,9","62","ND","0"],
    [37285,"2018-05-02T23:00:00","28","ND","12,1","3,5","287,2","27,4","62,3","ND","0"],
    [37286,"2018-05-03T00:00:00","27","ND","12,1","1,1","308,1","27","62,6","ND","0"],
    [37287,"2018-05-03T01:00:00","22","ND","12,7","2,2","32,3","26,8","65,3","ND","0"],
    [37288,"2018-05-03T02:00:00","26","ND","11,5","2,1","24,9","26,8","64,8","ND","0"],
    [37289,"2018-05-03T03:00:00","25","ND","11,8","1,3","355,6","26,5","67,4","ND","0"],
    [37290,"2018-05-03T04:00:00","40","ND","9,1","2,7","295,1","25,8","72,2","ND","0"],
    [37291,"2018-05-03T05:00:00","43","ND","8,5","1,2","331","25,6","72","ND","0"],
    [37292,"2018-05-03T06:00:00","62","ND","9,2","1","300,5","25,5","71,4","ND","0"],
    [37293,"2018-05-03T07:00:00","73","ND","9","0,5","319,2","25,5","72,4","24,5","0"],
    [37294,"2018-05-03T08:00:00","73","ND","ND","2,8","285,1","27,4","64,1","119,4","0"],
    [37295,"2018-05-03T09:00:00","40","ND","17,6","2","302,2","28,6","57,6","176,9","0"],
    [37296,"2018-05-03T10:00:00","36","7","39,9","2,2","358,3","31","50,4","333,9","0"],
    [37297,"2018-05-03T11:00:00","30","ND","59","2","1,5","32,1","45,8","365,6","0"],
    [37298,"2018-05-03T12:00:00","18","12","67,6","2,9","300,8","33,9","39,5","472,6","0"],
    [37299,"2018-05-03T13:00:00","30","6","76,8","1,9","263,7","35,1","36,9","459,9","0"],
    [37300,"2018-05-03T14:00:00","44","6","67,1","3,5","176,8","33,5","39","143,6","0"],
    [37301,"2018-05-03T15:00:00","ND","ND","ND","ND","ND","ND","ND","ND","ND"],
    [37302,"2018-05-03T16:00:00","24","3","ND","ND","ND","ND","ND","ND","ND"],
    [37303,"2018-05-03T17:00:00","28","ND","22,8","3,6","185,5","26,4","63,5","55,1","0"],
    [37304,"2018-05-03T18:00:00","23","ND","17,9","2,2","51,9","26,8","63,9","7,1","0"],
    [37305,"2018-05-03T19:00:00","44","5","13,8","2","23","26","66,2","0","0"],
    [37306,"2018-05-03T20:00:00","42","6","11,1","0,7","3,8","26","66,4","0","0"],
    [37307,"2018-05-03T21:00:00","45","10","9,4","1,9","351,3","25,6","68,6","0","0"],
    [37308,"2018-05-03T22:00:00","32","5","9,7","2,1","334,5","24,8","72,2","0","0"],
    [37309,"2018-05-03T23:00:00","56","2","9,3","1,7","266,8","24,4","74,6","0","0"],
    [37310,"2018-05-04T00:00:00","65","3","9,1","1,6","232,9","23,9","76,2","0","0"],
    [37311,"2018-05-04T01:00:00","37","3","9,2","1,4","271,4","24,1","75,5","0","0"],
    [37312,"2018-05-04T02:00:00","64","1","9,3","1,2","348,6","24,1","76","0","0"],
    [37313,"2018-05-04T03:00:00","36","3","9,2","1,6","55,8","24,1","76,3","0","0"],
    [37314,"2018-05-04T04:00:00","34","3","9,4","0,5","294,6","24,3","75,7","0","0"],
    [37315,"2018-05-04T05:00:00","70","ND","9,4","2","272,2","24,2","76,5","0","0"],
    [37316,"2018-05-04T06:00:00","67","3","9,1","1,8","349","24","77,5","0","0"],
    [37317,"2018-05-04T07:00:00","49","1","9,1","2,1","36,3","24,2","76,3","15,3","0"],
    [37318,"2018-05-04T08:00:00","58","1","10,5","1,2","295,5","26,1","68,5","121,2","0"],
    [37319,"2018-05-04T09:00:00","57","8","14,3","2,3","310,6","28,2","59,5","262,2","0"],
    [37320,"2018-05-04T10:00:00","32","5","26,5","2,2","290,4","29,9","53,2","330,3","0"],
    [37321,"2018-05-04T11:00:00","44","3","41,1","2,3","275,3","31,1","49,6","364,3","0"],
    [37322,"2018-05-04T12:00:00","51","12","63,5","3,3","227,2","32,5","45,2","463,3","0"],
    [37323,"2018-05-04T13:00:00","45","12","73,4","3,8","245,2","33,8","41,1","472,9","0"],
    [37324,"2018-05-04T14:00:00","45","9","78,3","4,2","232,9","34,3","38,9","364,3","0"],
    [37325,"2018-05-04T15:00:00","37","5","53,2","3,8","136,2","29,6","56,2","53,3","7,87"],
    [37326,"2018-05-04T16:00:00","13","1","38,4","1,7","108,7","28,8","61,2","132,5","0,25"],
    [37327,"2018-05-04T17:00:00","68","15","19,7","1,4","274,1","31,3","53,8","63,3","0"],
    [37328,"2018-05-04T18:00:00","48","11","33,9","5","35,6","28,9","59","6,9","0,25"],
    [37329,"2018-05-04T19:00:00","27","6","25,3","5,3","26,3","26,7","68,4","0","1,02"],
    [37330,"2018-05-04T20:00:00","14","1","17,6","3,6","42,6","25,9","71,8","0","0,25"],
    [37331,"2018-05-04T21:00:00","35","3","10,5","2,1","313,2","26,3","70,4","0","0"],
    [37332,"2018-05-04T22:00:00","54","10","10,4","2,3","237,8","25,9","73,5","0","0"],
    [37333,"2018-05-04T23:00:00","47","9","10,5","1,5","207,3","25,9","72,4","0","0"],
    [37334,"2018-05-05T00:00:00","40","5","10,1","1,2","110,4","25,9","73,1","0","1,02"],
    [37335,"2018-05-05T01:00:00","30","7","9,4","0,3","30","25,6","75,6","0","0,51"],
    [37336,"2018-05-05T02:00:00","32","5","9,7","1,9","329,5","25,3","77,9","0","0"],
    [37337,"2018-05-05T03:00:00","11","ND","14,2","3,2","5,4","24,1","79,9","0","33,27"],
    [37338,"2018-05-05T04:00:00","7","ND","15,8","2,6","324,9","23,8","81,5","0","4,06"],
    [37339,"2018-05-05T05:00:00","7","ND","14,2","3,3","318,7","23,5","81,3","0","4,06"],
    [37340,"2018-05-05T06:00:00","22","10","11,7","2,2","331,6","23,3","80,8","0","6,86"],
    [37341,"2018-05-05T07:00:00","2","1","12,3","0,8","65,6","23,2","80,8","0","1,02"],
    [37342,"2018-05-05T08:00:00","8","ND","12,1","1,7","48,5","23,7","78,6","22,2","0"],
    [37343,"2018-05-05T09:00:00","6","2","14,7","1,8","20,8","24,6","73,3","52,5","0"],
    [37344,"2018-05-05T10:00:00","10","1","18,7","1,3","352,4","25,5","70,3","132,8","0,51"],
    [37345,"2018-05-05T11:00:00","3","ND","28,5","1,2","352","28,2","60","338,3","0,25"],
    [37346,"2018-05-05T12:00:00","10","ND","36,7","1,5","25,8","30,4","51,5","380,3","0"],
    [37347,"2018-05-05T13:00:00","19","ND","51,7","1,9","210,7","31,3","47,7","462,1","0"],
    [37348,"2018-05-05T14:00:00","13","ND","53,9","2","239,3","32,1","44,7","407,9","0"],
    [37349,"2018-05-05T15:00:00","12","ND","53,8","3,2","210,4","32,9","42,6","370,2","0"],
    [37350,"2018-05-05T16:00:00","19","ND","59,7","4,6","191,9","32,8","42,2","277,1","0"],
    [37351,"2018-05-05T17:00:00","10","ND","49,5","5,1","199,7","32,3","39,9","153,1","0"],
    [37352,"2018-05-05T18:00:00","41","7","34,8","4,2","225,2","30,7","45,8","33,7","0"],
    [37353,"2018-05-05T19:00:00","51","8","24,3","3","212","28,8","53,9","0","0"],
    [37354,"2018-05-05T20:00:00","52","6","16,9","1,8","182,8","28,1","57","0","0"],
    [37355,"2018-05-05T21:00:00","120","29","11,3","1,5","171,7","28,2","57,9","0","0"],
    [37356,"2018-05-05T22:00:00","54","13","12,7","1,3","238,1","27,2","60,2","0","0"],
    [37357,"2018-05-05T23:00:00","70","16","11,7","2,2","39,7","26,2","67,1","0","0"],
    [37358,"2018-05-06T00:00:00","58","12","10,7","2,6","296,1","25,9","68,8","0","0"],
    [37359,"2018-05-06T01:00:00","26","3","10,9","2","277,4","25","71,8","0","0"],
    [37360,"2018-05-06T02:00:00","23","ND","11,3","0,8","202,5","25,3","70,3","0","0"],
    [37361,"2018-05-06T03:00:00","42","7","10,8","1,1","157","25","72","0","0"],
    [37362,"2018-05-06T04:00:00","53","6","9,9","0,8","289","25,5","71,5","0","0"],
    [37363,"2018-05-06T05:00:00","45","ND","9,8","0,6","310,4","25","73,9","0","0"],
    [37364,"2018-05-06T06:00:00","52","ND","10","0,8","336,6","25,3","72,8","0","0"],
    [37365,"2018-05-06T07:00:00","56","ND","10,3","1,3","300,8","25,3","73","18,3","0"],
    [37366,"2018-05-06T08:00:00","55","ND","10,8","0,7","327,4","26,3","68,4","53,6","0"],
    [37367,"2018-05-06T09:00:00","48","ND","14,1","2,5","285,1","27,4","65,5","182,1","0"],
    [37368,"2018-05-06T10:00:00","33","ND","24,2","3,5","260,6","29,3","57,1","263,5","0"],
    [37369,"2018-05-06T11:00:00","23","ND","35,3","2,5","247,4","30,9","51,4","378,3","0"],
    [37370,"2018-05-06T12:00:00","23","ND","56,5","2,2","243,5","32,5","44,7","499,7","0"],
    [37371,"2018-05-06T13:00:00","38","ND","82,8","3,2","296,1","33,4","41,5","438,6","0"],
    [37372,"2018-05-06T14:00:00","16","ND","55,2","3,5","137,6","31,9","43,1","97,8","0"],
    [37373,"2018-05-06T15:00:00","8","ND","30,2","3,4","178,4","28,9","54,8","28,5","18,54"],
    [37374,"2018-05-06T16:00:00","18","ND","21,1","3","331,2","23,8","82,4","0","23,88"],
    [37375,"2018-05-06T17:00:00","2","ND","16,4","3,1","338,8","23,2","82,6","0","7,62"],
    [37376,"2018-05-06T18:00:00","3","ND","15,8","1,6","51,8","23,1","82,1","0","2,03"],
    [37377,"2018-05-06T19:00:00","4","ND","14","1,3","60,8","23,3","82,2","0","16,76"],
    [37378,"2018-05-06T20:00:00","5","ND","13,3","2,3","54,6","23,4","83,3","0","8,38"],
    [37379,"2018-05-06T21:00:00","10","ND","11,8","2","47,3","23,5","82,6","0","2,03"],
    [37380,"2018-05-06T22:00:00","6","ND","10,4","2","356,2","23,8","80,9","0","0"],
    [37381,"2018-05-06T23:00:00","3","ND","11,7","2,3","21,4","23,7","79,7","0","0"],
    [37382,"2018-05-07T00:00:00","8","ND","11","1,8","15,7","23,8","78,9","0","0,25"],
    [37383,"2018-05-07T01:00:00","8","ND","11,4","2,5","287,9","23,6","80","0","0"],
    [37384,"2018-05-07T02:00:00","5","ND","11,9","1,2","3,4","23,6","79,7","0","0"],
    [37385,"2018-05-07T03:00:00","10","ND","11,8","1,5","297,3","23,7","79,8","0","0"],
    [37386,"2018-05-07T04:00:00","19","ND","12,2","0,3","47,2","23,7","79,3","0","0"],
    [37387,"2018-05-07T05:00:00","24","ND","11,4","1,8","62,3","23,8","78,8","0","0"],
    [37388,"2018-05-07T06:00:00","40","ND","10,4","1,6","12,7","23,9","78,7","0","0"],
    [37389,"2018-05-07T07:00:00","71","ND","10,9","1,2","277,6","24","78,9","16,6","0"],
    [37390,"2018-05-07T08:00:00","61","ND","11","1,4","268,5","24,9","75,3","53,1","0"],
    [37391,"2018-05-07T09:00:00","53","ND","12,1","1,9","259,6","25,8","71,4","113,3","0"],
    [37392,"2018-05-07T10:00:00","28","ND","21,4","1,4","276,1","28,3","60,6","270,6","0"],
    [37393,"2018-05-07T11:00:00","43","ND","34,7","1,8","242,5","29,8","54,4","316,4","0"],
    [37394,"2018-05-07T12:00:00","23","ND","ND","3,1","277,6","30,1","53,3","333,7","0"],
    [37395,"2018-05-07T13:00:00","26","ND","44,3","3,3","292,4","32","47,4","499,3","0"],
    [37396,"2018-05-07T14:00:00","27","ND","48,2","3,4","273","32,2","45,9","358,5","0"],
    [37397,"2018-05-07T15:00:00","30","ND","41,3","1,7","158,7","31,1","48,7","103","2,03"],
    [37398,"2018-05-07T16:00:00","6","ND","17,5","4","111,6","24,4","75,5","7,6","46,74"],
    [37399,"2018-05-07T17:00:00","5","ND","15,3","2,1","87,9","24,4","77,5","31,1","3,56"],
    [37400,"2018-05-07T18:00:00","18","4","8,4","2,6","18,8","25,7","72","7,6","0"],
    [37401,"2018-05-07T19:00:00","25","2","10,1","2,9","3,8","24,8","74,7","0","0,51"],
    [37402,"2018-05-07T20:00:00","9","ND","10,9","4,1","36,2","24,1","77,2","0","0"],
    [37403,"2018-05-07T21:00:00","6","1","8,5","3,1","35,9","24","77,8","0","3,05"],
    [37404,"2018-05-07T22:00:00","ND","ND","8,5","2,1","82","23,7","80","0","4,06"],
    [37405,"2018-05-07T23:00:00","11","ND","6,2","1,8","271,5","23,9","79,8","0","0"],
    [37406,"2018-05-08T00:00:00","6","ND","7,1","2,6","263","23,9","79,3","0","0"],
    [37407,"2018-05-08T01:00:00","4","ND","7,6","1,4","266,9","23,7","79,6","0","1,52"],
    [37408,"2018-05-08T02:00:00","5","ND","7,3","1,7","290,1","23,7","80","0","1,27"],
    [37409,"2018-05-08T03:00:00","3","ND","7,6","0,6","228,9","23,6","80","0","0,25"],
    [37410,"2018-05-08T04:00:00","6","ND","7,4","1","114,8","23,6","80,1","0","0,25"],
    [37411,"2018-05-08T05:00:00","20","ND","6,6","1,2","328,4","23,7","79,9","0","0"],
    [37412,"2018-05-08T06:00:00","34","16","6,3","2,1","287,3","23,7","80,2","0","1,27"],
    [37413,"2018-05-08T07:00:00","27","5","6,4","2,2","285,1","23,6","80,8","5,8","2,79"],
    [37414,"2018-05-08T08:00:00","20","5","7,2","2,1","262,3","24,1","78,7","57,9","0,76"],
    [37415,"2018-05-08T09:00:00","7","3","7,5","2,3","254,9","24,9","75","69,8","0"],
    [37416,"2018-05-08T10:00:00","27","10","7,9","2,3","236,1","25,6","72,5","63,1","0"],
    [37417,"2018-05-08T11:00:00","27","8","10,6","1,8","235,8","26","70,3","111,4","0,25"],
    [37418,"2018-05-08T12:00:00","17","ND","16,2","2,3","266,3","26,8","67,4","208,1","0"],
    [37419,"2018-05-08T13:00:00","32","ND","22,6","2,2","297,4","27,9","60,8","189,7","0"],
    [37420,"2018-05-08T14:00:00","36","4","26","2,5","309,1","28,4","59,2","192,4","0"],
    [37421,"2018-05-08T15:00:00","27","2","41,5","1,5","349","29,8","53,8","302,2","0"],
    [37422,"2018-05-08T16:00:00","25","2","57,6","1,6","16","30,3","49,4","178,1","0"],
    [37423,"2018-05-08T17:00:00","17","8","75,2","1,5","98,1","30,1","49,5","106,9","0"],
    [37424,"2018-05-08T18:00:00","33","17","84,1","2,7","141","28,9","52,9","19,2","0"],
    [37425,"2018-05-08T19:00:00","101","33","20,8","1,7","219,9","28,1","60,8","0","0"],
    [37426,"2018-05-08T20:00:00","80","24","12,3","2,9","235,2","27,1","65,3","0","0"],
    [37427,"2018-05-08T21:00:00","36","8","8,8","2,7","175,6","25,4","70,2","0","1,02"],
    [37428,"2018-05-08T22:00:00","42","18","7,9","1,6","231,8","25","71","0","0,76"],
    [37429,"2018-05-08T23:00:00","19","2","6,7","1,8","255","24,5","74,9","0","0,51"],
    [37430,"2018-05-09T00:00:00","16","ND","7","1,6","178,9","24,2","75,6","0","0"],
    [37431,"2018-05-09T01:00:00","19","ND","7,1","1,4","151,3","24","75,1","0","0"],
    [37432,"2018-05-09T02:00:00","21","2","9,6","1,3","179,9","24,3","73,7","0","0"],
    [37433,"2018-05-09T03:00:00","18","ND","10","1,8","248,4","24,1","73,2","0","0"],
    [37434,"2018-05-09T04:00:00","18","ND","7,5","0,5","243","24,1","73,5","0","0"],
    [37435,"2018-05-09T05:00:00","10","ND","10,7","1,6","0,5","24,2","72,9","0","0"],
    [37436,"2018-05-09T06:00:00","5","ND","12,2","1,8","83,3","23,6","76,8","0","0"],
    [37437,"2018-05-09T07:00:00","ND","ND","9,3","3,1","102,1","23,5","78,6","10,6","0"],
    [37438,"2018-05-09T08:00:00","24","5","11","1,1","153,2","25","72,2","86,6","0"],
    [37439,"2018-05-09T09:00:00","24","11","23,3","0,4","272,9","27","61,3","156,4","0"],
    [37440,"2018-05-09T10:00:00","27","3","30,4","2","273,5","29","54,4","286,9","0"],
    [37441,"2018-05-09T11:00:00","24","5","39,2","1,9","284,5","29,9","51,5","377,4","0"],
    [37442,"2018-05-09T12:00:00","48","6","57,5","2,3","254,9","31,2","46,8","429,9","0"],
    [37443,"2018-05-09T13:00:00","22","1","59,3","2,7","278,3","32,3","42,2","448,3","0"],
    [37444,"2018-05-09T14:00:00","15","ND","72","2,7","262,9","33,2","39,4","389,1","0"],
    [37445,"2018-05-09T15:00:00","27","6","85,2","1,4","156,9","34","37,4","365,5","0"],
    [37446,"2018-05-09T16:00:00","36","11","58,5","6,4","101,2","30,9","46,8","116,3","0"],
    [37447,"2018-05-09T17:00:00","26","6","25","3,1","112,6","28,8","56,4","22,7","1,27"],
    [37448,"2018-05-09T18:00:00","14","5","10,5","4,7","131,4","27,4","57,8","9,2","0"],
    [37449,"2018-05-09T19:00:00","51","4","10,2","3,1","248,7","27,1","61","0","0,25"],
    [37450,"2018-05-09T20:00:00","18","3","13,6","5,1","283,6","24,9","77,2","0","4,83"],
    [37451,"2018-05-09T21:00:00","12","1","10,3","1,6","40,4","24,3","79,3","0","3,05"],
    [37452,"2018-05-09T22:00:00","12","ND","10,5","2,7","28,6","24,3","78,9","0","0,25"],
    [37453,"2018-05-09T23:00:00","7","ND","14,3","3,4","36,9","24,3","78,1","0","0"],
    [37454,"2018-05-10T00:00:00","7","ND","17,1","3,8","26,7","24,1","78,3","0","0"],
    [37455,"2018-05-10T01:00:00","6","ND","15,3","3","23,5","23,8","79","0","0"],
    [37456,"2018-05-10T02:00:00","18","ND","15,4","1,6","359,2","23,9","78,6","0","0"],
    [37457,"2018-05-10T03:00:00","13","ND","13,8","1,8","268,5","23,9","78,8","0","0"],
    [37458,"2018-05-10T04:00:00","29","ND","10","2,5","264,8","23,7","79,1","0","0"],
    [37459,"2018-05-10T05:00:00","37","ND","8","1,7","269,9","23,5","77,7","0","0"],
    [37460,"2018-05-10T06:00:00","59","7","7,1","1,5","222,2","23,5","78,2","0","0"],
    [37461,"2018-05-10T07:00:00","43","6","7,3","1,6","210,1","23,7","78","14,2","0,25"],
    [37462,"2018-05-10T08:00:00","34","7","8,5","0,8","227,5","25","73,7","101","0"],
    [37463,"2018-05-10T09:00:00","38","8","16,3","2,4","194,1","26,3","67,6","164,2","0,25"],
    [37464,"2018-05-10T10:00:00","42","ND","23,3","2,8","233,6","27,9","59,2","275","0"],
    [37465,"2018-05-10T11:00:00","22","ND","32,7","3,1","261,2","29,1","53,7","259,7","0"],
    [37466,"2018-05-10T12:00:00","18","ND","38,2","3,1","269,8","30,4","49,3","369,3","0"],
    [37467,"2018-05-10T13:00:00","22","ND","44","2,7","274,6","31,5","44,4","372,1","0"],
    [37468,"2018-05-10T14:00:00","28","ND","59,2","1,5","280,8","32,8","40,8","381,5","0"],
    [37469,"2018-05-10T15:00:00","37","ND","61","3,2","287,9","32,1","42,5","230,4","0"],
    [37470,"2018-05-10T16:00:00","48","6","55,1","3,8","280,8","31,6","43,1","168","0"],
    [37471,"2018-05-10T17:00:00","34","13","58","2,2","293,1","32,6","40,5","133,9","0"],
    [37472,"2018-05-10T18:00:00","39","12","46","1,8","352,2","31,2","45","12,9","0"],
    [37473,"2018-05-10T19:00:00","44","10","18,7","1,7","336,6","29,5","49,1","0","0"],
    [37474,"2018-05-10T20:00:00","42","5","10,4","2,9","17,7","27,6","53,7","0","0"],
    [37475,"2018-05-10T21:00:00","62","8","7","2,5","7,7","26,8","58,6","0","0"],
    [37476,"2018-05-10T22:00:00","70","9","6,9","2,4","355,9","26,5","62,2","0","0"],
    [37477,"2018-05-10T23:00:00","31","1","7,6","3,3","329,8","25,1","68,7","0","0"],
    [37478,"2018-05-11T00:00:00","21","ND","7,4","1","21,4","24,8","70","0","0"],
    [37479,"2018-05-11T01:00:00","28","ND","6,4","0,9","186,3","25","70,3","ND","0"],
    [37480,"2018-05-11T02:00:00","24","ND","6,3","0,9","340,2","24,7","71,8","ND","0"],
    [37481,"2018-05-11T03:00:00","16","1","6,9","1,2","64,7","24,4","71,6","0","0"],
    [37482,"2018-05-11T04:00:00","17","1","6,5","1,2","346,8","24,6","70,5","0","0"],
    [37483,"2018-05-11T05:00:00","36","ND","6,8","1,6","321,5","24,1","72,9","0","0"],
    [37484,"2018-05-11T06:00:00","51","ND","6,7","1,1","336,5","24,2","74,2","0","0"],
    [37485,"2018-05-11T07:00:00","73","8","7","1,4","246,3","24,5","74,4","17,9","0"],
    [37486,"2018-05-11T08:00:00","64","8","7,2","3,2","278,5","24,8","74","59,3","0"],
    [37487,"2018-05-11T09:00:00","65","14","11,8","0,2","152,3","26,5","65,9","106,9","0"],
    [37488,"2018-05-11T10:00:00","56","10","24,6","1,6","298,5","29,2","55,2","344,1","0"],
    [37489,"2018-05-11T11:00:00","29","2","36,3","2,3","268,5","31,4","47,3","424,3","0"],
    [37490,"2018-05-11T12:00:00","30","ND","62,6","1,6","284,7","32,9","42","462,2","0"],
    [37491,"2018-05-11T13:00:00","32","1","60,6","3,1","267,5","34,4","36,9","481,2","0"],
    [37492,"2018-05-11T14:00:00","30","6","59,3","4,8","284,2","34,1","38,5","362","0"],
    [37493,"2018-05-11T15:00:00","49","5","63,6","5","286,2","33,3","41,2","288,8","0"],
    [37494,"2018-05-11T16:00:00","53","8","71,5","3","242,4","33,6","39,1","170,7","0"],
    [37495,"2018-05-11T17:00:00","31","4","29,5","4,9","136,4","31,4","44,5","39,7","0"],
    [37496,"2018-05-11T18:00:00","51","8","21,7","3,4","174","31,5","44,1","65,9","0"],
    [37497,"2018-05-11T19:00:00","47","7","12,5","3,7","223,3","29,9","49,6","0","0"],
    [37498,"2018-05-11T20:00:00","50","9","9,6","2,2","269,5","28,9","54,9","0","0"],
    [37499,"2018-05-11T21:00:00","41","3","8,6","4,1","275,1","27,3","65","0","0"],
    [37500,"2018-05-11T22:00:00","32","ND","8,4","3,4","266,7","27,1","64,6","0","0"],
    [37501,"2018-05-11T23:00:00","35","3","7,3","0,7","262,7","26,7","65,9","0","0"],
    [37502,"2018-05-12T00:00:00","39","ND","7","1,5","349,9","26,4","67","0","0"],
    [37503,"2018-05-12T01:00:00","23","ND","7,2","1,9","18,2","26,1","69,6","0","0"],
    [37504,"2018-05-12T02:00:00","22","ND","7,5","1,6","16,7","26","70,4","0","0"],
    [37505,"2018-05-12T03:00:00","24","ND","7,6","2","283,3","25,4","73,1","0","0"],
    [37506,"2018-05-12T04:00:00","36","ND","7","2,1","267,3","24,7","76,4","0","0"],
    [37507,"2018-05-12T05:00:00","100","44","7,3","1,9","233,4","24,5","76,6","0","0"],
    [37508,"2018-05-12T06:00:00","72","10","7,2","1,7","248,8","24,6","75,9","0","0"],
    [37509,"2018-05-12T07:00:00","59","3","6,9","0,7","147,1","25,1","73,5","8,9","0"],
    [37510,"2018-05-12T08:00:00","90","12","7,8","0,9","345,1","26,7","67,2","75,2","0"],
    [37511,"2018-05-12T09:00:00","69","7","14,2","1,3","297,7","29,2","56,8","243,3","0"],
    [37512,"2018-05-12T10:00:00","54","5","30,1","3","276,2","30,6","51,8","305,1","0"],
    [37513,"2018-05-12T11:00:00","61","4","44,7","3,5","274,3","31,3","51,1","313,1","0"],
    [37514,"2018-05-12T12:00:00","55","8","55,4","3,9","263,4","31,1","50,9","248,6","0"],
    [37515,"2018-05-12T13:00:00","26","6","59,4","2,2","284,5","33,8","40,2","426,6","0"],
    [37516,"2018-05-12T14:00:00","39","8","82,6","1,8","202,3","34,6","37,6","415,9","0"],
    [37517,"2018-05-12T15:00:00","38","6","47,9","6,3","179,5","32,7","43,2","239,9","0"],
    [37518,"2018-05-12T16:00:00","17","2","29,2","6,2","199,7","32,7","40,8","297,1","0"],
    [37519,"2018-05-12T17:00:00","33","ND","22,5","5,4","224,5","32,6","43,6","147,8","0"],
    [37520,"2018-05-12T18:00:00","45","ND","19,7","1,9","322,7","29,7","49,2","9,7","0"],
    [37521,"2018-05-12T19:00:00","46","11","16,5","3,7","329,3","27,6","54,3","0","0"],
    [37522,"2018-05-12T20:00:00","37","3","18","3,1","18,1","26,2","60,9","0","0"],
    [37523,"2018-05-12T21:00:00","39","ND","11,9","1,6","10,4","25,6","66,9","0","0"],
    [37524,"2018-05-12T22:00:00","21","ND","11,7","2,2","337","25,2","69","0","0"],
    [37525,"2018-05-12T23:00:00","34","ND","9,4","2,5","19,5","24,7","72,4","0","0"],
    [37526,"2018-05-13T00:00:00","36","ND","7,1","1,7","321,6","24,5","73,9","0","0"],
    [37527,"2018-05-13T01:00:00","36","1","7,1","1,3","139,3","24,6","73,8","0","0"],
    [37528,"2018-05-13T02:00:00","42","ND","6,8","2,3","283,1","24,1","74,9","0","0"],
    [37529,"2018-05-13T03:00:00","36","5","6,8","2,2","272,8","23,2","77,9","0","0"],
    [37530,"2018-05-13T04:00:00","38","5","7","1","59,9","23,7","75,8","0","0"],
    [37531,"2018-05-13T05:00:00","37","ND","7,3","1,8","81,4","23,9","75","0","0"],
    [37532,"2018-05-13T06:00:00","35","ND","6,9","1,2","102,2","24,3","72,9","0","0"],
    [37533,"2018-05-13T07:00:00","63","ND","7,6","1,3","350,7","25","71","9,5","0"],
    [37534,"2018-05-13T08:00:00","45","2","7,9","2,4","307,6","24,9","73,1","30,5","0"],
    [37535,"2018-05-13T09:00:00","47","7","9,1","2,2","0,1","25,4","72,9","77,5","1,78"],
    [37536,"2018-05-13T10:00:00","30","4","11,6","2,9","5,1","25,8","72,5","126","0,76"],
    [37537,"2018-05-13T11:00:00","36","9","20,4","4,3","24,6","26,9","67,2","200,9","0"],
    [37538,"2018-05-13T12:00:00","27","ND","28,5","3,3","6,4","28","61,5","182,9","0"],
    [37539,"2018-05-13T13:00:00","22","ND","18,3","4,1","310","25,5","73,4","30,8","5,59"],
    [37540,"2018-05-13T14:00:00","30","5","12,6","4,8","261,2","25","77,9","58,2","0,25"],
    [37541,"2018-05-13T15:00:00","31","5","15,3","5,1","255,9","25,5","73,5","92,7","0"],
    [37542,"2018-05-13T16:00:00","27","ND","18,2","3,3","258,1","26,6","66,7","98,5","0"],
    [37543,"2018-05-13T17:00:00","16","ND","26,6","1,1","189,5","27,4","60,8","56,1","0"],
    [37544,"2018-05-13T18:00:00","41","ND","23","2,7","61,9","26,7","64,2","9,7","0"],
    [37545,"2018-05-13T19:00:00","45","8","14","2,8","32,3","26,2","68","0","0"],
    [37546,"2018-05-13T20:00:00","42","12","13,8","2,6","29,1","26","68,4","0","0"],
    [37547,"2018-05-13T21:00:00","29","11","10,8","2,1","24,3","25,5","70,7","0","0"],
    [37548,"2018-05-13T22:00:00","23","12","10","1,1","357,1","25,1","72,7","0","0,25"],
    [37549,"2018-05-13T23:00:00","44","8","8","1,1","317,5","24,9","74,9","0","0"],
    [37550,"2018-05-14T00:00:00","46","5","7,8","1,3","325,3","24,6","75,8","0","0"],
    [37551,"2018-05-14T01:00:00","34","ND","7,2","1,7","10,7","24,1","75,9","0","0"],
    [37552,"2018-05-14T02:00:00","31","ND","8,3","0,8","232,6","23,9","77,5","0","0"],
    [37553,"2018-05-14T03:00:00","24","ND","8","1,3","145,6","24,1","76,6","0","0"],
    [37554,"2018-05-14T04:00:00","33","ND","7,2","1,2","167,4","24,2","76,8","0","0"],
    [37555,"2018-05-14T05:00:00","40","7","7,3","0,4","284","24,3","76,4","0","0"],
    [37556,"2018-05-14T06:00:00","43","5","7,4","1,5","302","23,9","77,9","0","0"],
    [37557,"2018-05-14T07:00:00","41","ND","7,3","1,5","38,5","24","77,1","5,2","0"],
    [37558,"2018-05-14T08:00:00","45","5","8,1","1,9","309","24,6","74","40,7","0"],
    [37559,"2018-05-14T09:00:00","53","7","11,3","2,4","244,6","26","68,1","148,5","0"],
    [37560,"2018-05-14T10:00:00","26","6","25,2","1,7","218,2","28,1","59,4","262,2","0"],
    [37561,"2018-05-14T11:00:00","28","2","44,3","2,1","212,1","30,3","50","419,5","0"],
    [37562,"2018-05-14T12:00:00","25","ND","47,4","3,3","235,6","31,3","44,9","399,4","0"],
    [37563,"2018-05-14T13:00:00","21","2","48","3,5","249,4","32,5","40,2","398,8","0"],
    [37564,"2018-05-14T14:00:00","22","2","49,5","4,6","273,8","32,1","41,2","320,2","0"],
    [37565,"2018-05-14T15:00:00","26","ND","54","3,4","200,1","32","41,7","161","0"],
    [37566,"2018-05-14T16:00:00","22","ND","35,5","5,3","199,1","31,3","43,1","99,1","0"],
    [37567,"2018-05-14T17:00:00","31","ND","19,5","4,3","237,9","30,1","49,1","51,7","0"],
    [37568,"2018-05-14T18:00:00","37","ND","16,7","2,2","334,7","28,8","53,8","8,1","0"],
    [37569,"2018-05-14T19:00:00","30","ND","19,7","3,2","10,6","26,3","64,2","0","0"],
    [37570,"2018-05-14T20:00:00","21","ND","17,3","5","326,9","25,3","67,6","0","0"],
    [37571,"2018-05-14T21:00:00","11","ND","12,5","1,7","332,8","23,6","76,3","0","3,81"],
    [37572,"2018-05-14T22:00:00","20","ND","10,6","1,8","137,6","23,5","78","0","0,76"],
    [37573,"2018-05-14T23:00:00","21","ND","7,7","1,9","191,8","24","77,1","0","0"],
    [37574,"2018-05-15T00:00:00","45","ND","7,5","2,2","263,4","23,3","78,7","0","0"],
    [37575,"2018-05-15T01:00:00","20","ND","10,7","1,9","305,2","23","78,7","0","0"],
    [37576,"2018-05-15T02:00:00","31","ND","8,9","1,9","20,2","23,3","78,1","0","0"],
    [37577,"2018-05-15T03:00:00","25","ND","8,9","1,3","4,1","23,2","78,4","0","0"],
    [37578,"2018-05-15T04:00:00","30","ND","8,2","1,9","294","23,3","79","0","0"],
    [37579,"2018-05-15T05:00:00","35","ND","7,4","1,2","279,9","23,3","79,5","0","0,25"],
    [37580,"2018-05-15T06:00:00","48","8","7,7","1,8","283","23,4","79,5","0","0,25"],
    [37581,"2018-05-15T07:00:00","53","15","7,8","0,3","249,7","23,5","79","10,7","0"],
    [37582,"2018-05-15T08:00:00","78","21","8,2","1,5","255","24,2","76,5","30","0"],
    [37583,"2018-05-15T09:00:00","59","12","9,5","1,3","198,1","25,4","71,5","124,2","0"],
    [37584,"2018-05-15T10:00:00","38","8","17,4","0,6","192,8","27,9","60,8","293,1","0"],
    [37585,"2018-05-15T11:00:00","42","10","31,2","1,8","265,1","30,2","51,3","351,9","0"],
    [37586,"2018-05-15T12:00:00","24","6","48,3","2,1","250,6","31,5","46","407,6","0"],
    [37587,"2018-05-15T13:00:00","37","9","47,4","3","254,3","31,2","47,3","277,9","0"],
    [37588,"2018-05-15T14:00:00","18","2","50,8","2,7","224,1","33,4","39,4","463,9","0"],
    [37589,"2018-05-15T15:00:00","17","ND","48,9","3,9","203,4","33,8","37,7","362,8","0"],
    [37590,"2018-05-15T16:00:00","21","ND","47","4,2","223,5","33,7","38,4","250,9","0"],
    [37591,"2018-05-15T17:00:00","57","14","43,8","4,6","238,7","33,3","39,6","126,5","0"],
    [37592,"2018-05-15T18:00:00","47","13","33,6","4,3","218,3","32,3","42,9","39,6","0"],
    [37593,"2018-05-15T19:00:00","65","15","19,7","3,5","224,6","29,4","53,6","0","0"],
    [37594,"2018-05-15T20:00:00","67","12","11,4","3,5","227,4","28","60,2","0","0"],
    [37595,"2018-05-15T21:00:00","60","13","9,3","2,5","229,8","27,2","62,8","0","0"],
    [37596,"2018-05-15T22:00:00","43","6","8,9","2,4","233,1","26,8","64,6","0","0"],
    [37597,"2018-05-15T23:00:00","45","ND","8","1,7","242","26,1","68,2","0","0"],
    [37598,"2018-05-16T00:00:00","36","1","7,7","1,5","184,9","26,2","68","0","0"],
    [37599,"2018-05-16T01:00:00","38","2","7,7","0,6","172,5","26,1","68,3","0","0"],
    [37600,"2018-05-16T02:00:00","38","1","7,7","1,7","37","25,7","70,5","0","0"],
    [37601,"2018-05-16T03:00:00","32","ND","7,5","1,6","289,2","24,8","74,2","0","0"],
    [37602,"2018-05-16T04:00:00","43","ND","7,7","0,9","68,4","25,2","73,3","0","0"],
    [37603,"2018-05-16T05:00:00","38","ND","7,9","1,8","37,8","25,3","73,9","0","0"],
    [37604,"2018-05-16T06:00:00","53","2","7,5","1,4","34,8","25,3","72,7","0","0"],
    [37605,"2018-05-16T07:00:00","95","21","8,4","2,4","269,6","25,3","74","29,5","0"],
    [37606,"2018-05-16T08:00:00","85","22","8,9","1,8","332","26,3","71,7","88,1","0"],
    [37607,"2018-05-16T09:00:00","59","7","14,3","1,5","286","29,2","60,8","246,8","0"],
    [37608,"2018-05-16T10:00:00","47","5","24,2","3,3","285,5","30,4","54,5","296,2","0"],
    [37609,"2018-05-16T11:00:00","56","10","37,5","4,9","281,3","31,3","50,4","361,6","0"],
    [37610,"2018-05-16T12:00:00","37","7","51,2","2,2","301","33,5","41,6","407,7","0"],
    [37611,"2018-05-16T13:00:00","42","15","52","3,5","269,6","32,4","44,5","203,2","0"],
    [37612,"2018-05-16T14:00:00","39","ND","56,6","3,4","267,3","33,9","41","317","0"],
    [37613,"2018-05-16T15:00:00","41","ND","71,7","3","218,9","33,6","40,6","187,7","0"],
    [37614,"2018-05-16T16:00:00","46","ND","42,9","5,9","206,8","32,1","46,2","102,5","0"],
    [37615,"2018-05-16T17:00:00","37","ND","21,7","5,3","220,4","29,9","55,7","58,7","0"],
    [37616,"2018-05-16T18:00:00","58","3","12,1","3,5","251,6","28,8","61,8","7,8","0"],
    [37617,"2018-05-16T19:00:00","57","12","17,8","3,6","22,7","27,4","58,5","0","0"],
    [37618,"2018-05-16T20:00:00","52","11","11,5","3,3","311,6","26,7","59,8","0","0"],
    [37619,"2018-05-16T21:00:00","51","7","13,6","1,7","356,8","26,2","63,6","0","0"],
    [37620,"2018-05-16T22:00:00","46","2","10,6","2,2","327,3","26,1","66,1","0","0"],
    [37621,"2018-05-16T23:00:00","43","ND","11,1","2","312","25,6","69,4","0","0"],
    [37622,"2018-05-17T00:00:00","25","4","11,8","1,4","12,3","24,9","72,6","0","0"],
    [37623,"2018-05-17T01:00:00","26","6","11","1,8","319,4","24,7","73,4","0","0"],
    [37624,"2018-05-17T02:00:00","29","ND","10","2","35,5","24,3","75,2","0","0"],
    [37625,"2018-05-17T03:00:00","20","ND","8,4","2,1","321,9","24,1","75,7","0","0"],
    [37626,"2018-05-17T04:00:00","28","ND","8,1","0,8","168,5","23,6","77,6","0","0"],
    [37627,"2018-05-17T05:00:00","63","3","7,6","1,4","253,4","23,5","77","0","0"],
    [37628,"2018-05-17T06:00:00","74","16","8","0,3","162,5","23,3","78","0","0"],
    [37629,"2018-05-17T07:00:00","112","29","8,7","2,5","282,8","24,1","75,5","17,9","0"],
    [37630,"2018-05-17T08:00:00","108","24","8,8","1,4","284,7","25,2","72,1","53,2","0"],
    [37631,"2018-05-17T09:00:00","68","14","15,9","2","174,9","26,9","63,1","160,8","0"],
    [37632,"2018-05-17T10:00:00","70","14","30,5","1,2","274,4","29,6","52,7","248,4","0"],
    [37633,"2018-05-17T11:00:00","68","20","64,6","1,8","301,4","31,9","45,9","360","0"],
    [37634,"2018-05-17T12:00:00","57","17","77,9","1,8","308,2","33,2","43,4","350,1","0"],
    [37635,"2018-05-17T13:00:00","43","6","74,3","3,8","247,6","33,4","41","387","0"],
    [37636,"2018-05-17T14:00:00","44","3","59,2","3,9","256,9","32,5","43,9","201","0"],
    [37637,"2018-05-17T15:00:00","43","3","68,5","3,1","240,6","33,3","43,4","241,5","0"],
    [37638,"2018-05-17T16:00:00","52","3","65","4,1","244,1","33,4","42,6","146,8","0"],
    [37639,"2018-05-17T17:00:00","33","5","40,1","3","228,2","33,3","41,2","108","0"],
    [37640,"2018-05-17T18:00:00","46","5","21,4","2,4","161,5","32,3","41,2","14,7","0"],
    [37641,"2018-05-17T19:00:00","32","1","10,6","3,6","121,8","30,7","45","0","0"],
    [37642,"2018-05-17T20:00:00","63","7","9,9","2","235,9","28,9","54,4","0","0"],
    [37643,"2018-05-17T21:00:00","60","9","8,8","3","263,6","27","65,2","0","0"],
    [37644,"2018-05-17T22:00:00","35","2","9,9","2,6","274,2","26,6","66","0","0"],
    [37645,"2018-05-17T23:00:00","36","4","11,2","2","220,5","26,8","64,5","0","0"],
    [37646,"2018-05-18T00:00:00","40","8","10,1","1","306,8","26,7","64,8","0","0"],
    [37647,"2018-05-18T01:00:00","22","4","9,4","1,9","354,6","26,3","68,4","0","0"],
    [37648,"2018-05-18T02:00:00","45","1","8,8","1,4","314,5","26","69,3","0","0"],
    [37649,"2018-05-18T03:00:00","25","ND","11","0,7","54,7","26,2","66,6","0","0"],
    [37650,"2018-05-18T04:00:00","20","ND","11,5","1,4","8,9","25,8","70,1","0","0"],
    [37651,"2018-05-18T05:00:00","20","ND","12,5","1,4","36,3","25,1","74,2","0","0"],
    [37652,"2018-05-18T06:00:00","66","15","8,2","1,5","292,4","24,9","75,8","0","0,25"],
    [37653,"2018-05-18T07:00:00","86","23","8,8","2,1","306","24,9","75,1","13,2","0"],
    [37654,"2018-05-18T08:00:00","42","3","11,4","1,6","2,3","26,1","69,6","83,1","0"],
    [37655,"2018-05-18T09:00:00","38","2","24,3","0,6","181,7","28,6","58,5","192,9","0"],
    [37656,"2018-05-18T10:00:00","40","1","33,5","1,5","359,8","29,8","53,5","192,4","0"],
    [37657,"2018-05-18T11:00:00","42","3","38,4","2,7","306,3","30,5","50,3","244,9","0"],
    [37658,"2018-05-18T12:00:00","40","5","41,9","4,1","272,5","30,6","50,8","239,8","0"],
    [37659,"2018-05-18T13:00:00","37","4","49,1","3,7","267","31,4","48,4","291,3","0"],
    [37660,"2018-05-18T14:00:00","32","4","55,1","4","265,2","33,2","41,4","401,3","0"],
    [37661,"2018-05-18T15:00:00","30","3","55,8","3,8","286,1","33,4","40","330,4","0"],
    [37662,"2018-05-18T16:00:00","54","ND","39,9","5,9","55,7","29,2","49,4","16,8","0"],
    [37663,"2018-05-18T17:00:00","25","1","20,2","2,8","97,8","25,3","68,3","0","3,56"],
    [37664,"2018-05-18T18:00:00","22","3","11,1","3,8","218,6","24,4","76,5","0","5,59"],
    [37665,"2018-05-18T19:00:00","19","1","11,1","4,7","256,5","23,6","81,8","0","11,18"],
    [37666,"2018-05-18T20:00:00","26","ND","10,1","2","219,9","23,8","80,4","0","0,76"],
    [37667,"2018-05-18T21:00:00","20","ND","9,1","1,8","107,4","24,1","76,7","0","0,25"],
    [37668,"2018-05-18T22:00:00","27","3","8,1","3,2","57,6","24,7","75,9","0","0"],
    [37669,"2018-05-18T23:00:00","46","ND","8,3","2,1","334,8","24,6","77,1","0","0"],
    [37670,"2018-05-19T00:00:00","36","ND","8,3","1,7","355,4","24,1","78,7","0","0"],
    [37671,"2018-05-19T01:00:00","21","ND","8","1,2","11,7","24","78,7","0","0"],
    [37672,"2018-05-19T02:00:00","28","ND","8,3","2","284,7","23,9","78,8","0","0"],
    [37673,"2018-05-19T03:00:00","32","ND","8","2,4","244,4","23,5","79,7","0","0"],
    [37674,"2018-05-19T04:00:00","28","ND","7,9","2","192,6","23,1","80,9","0","0"],
    [37675,"2018-05-19T05:00:00","35","6","8,2","2,2","214,8","23,3","80,7","0","0"],
    [37676,"2018-05-19T06:00:00","67","17","8,1","2,1","197,4","23,5","80,4","0","0"],
    [37677,"2018-05-19T07:00:00","87","13","8,5","2","264,4","23,9","78,3","9,5","0"],
    [37678,"2018-05-19T08:00:00","87","25","8,4","2,3","247,7","24,4","76,1","17,4","0"],
    [37679,"2018-05-19T09:00:00","69","24","9,2","2,2","210,6","25","73,3","79,8","0"],
    [37680,"2018-05-19T10:00:00","59","14","17,3","2,2","223,7","27,9","62,2","326,5","0"],
    [37681,"2018-05-19T11:00:00","34","8","41,1","1,9","27","30,4","51,1","391,8","0"],
    [37682,"2018-05-19T12:00:00","37","6","51,6","2,2","328,6","31,2","47,5","321,2","0"],
    [37683,"2018-05-19T13:00:00","46","14","59,1","2,6","268,4","31,9","45,2","432,8","0"],
    [37684,"2018-05-19T14:00:00","29","8","66,3","1,7","235,9","33,3","39,2","380,5","0"],
    [37685,"2018-05-19T15:00:00","33","4","75,2","1,7","237,3","33,5","38,9","283,5","0"],
    [37686,"2018-05-19T16:00:00","43","1","84,2","2,1","235,9","33,6","40","217,2","0"],
    [37687,"2018-05-19T17:00:00","49","9","62,8","2,3","203","32,5","43,1","43,3","0"],
    [37688,"2018-05-19T18:00:00","26","4","17,2","5,1","102,3","30,9","45,6","7,8","0"],
    [37689,"2018-05-19T19:00:00","34","ND","15,3","2,8","90,4","29,4","51,1","0","0"],
    [37690,"2018-05-19T20:00:00","26","ND","32,2","4,3","21,4","26,4","66,3","0","0"],
    [37691,"2018-05-19T21:00:00","41","ND","28,8","5","32,4","25,7","70,2","0","0"],
    [37692,"2018-05-19T22:00:00","32","ND","23,9","3,7","22,3","24,8","73","0","0"],
    [37693,"2018-05-19T23:00:00","ND","ND","18,8","2","0,3","24,5","74","0","0"],
    [37694,"2018-05-20T00:00:00","ND","ND","17,5","1,4","4,4","24,6","74","0","0"],
    [37695,"2018-05-20T01:00:00","ND","ND","16,2","1,7","22,7","24,5","74,2","0","0"],
    [37696,"2018-05-20T02:00:00","ND","ND","15,9","2,7","307,5","24,3","75,3","0","0"],
    [37697,"2018-05-20T03:00:00","ND","ND","13,5","1,3","316,3","24,3","76","0","0"],
    [37698,"2018-05-20T04:00:00","ND","ND","14,1","1,7","39,4","24,1","77,1","0","0"],
    [37699,"2018-05-20T05:00:00","ND","ND","12,2","1,2","350,3","23,9","78","0","0"],
    [37700,"2018-05-20T06:00:00","ND","ND","9,3","1,3","357,1","23,8","78,4","0","0"],
    [37701,"2018-05-20T07:00:00","ND","6","9,4","0,6","337","24,1","77,6","4,7","0"],
    [37702,"2018-05-20T08:00:00","ND","5","10,9","2,1","289,1","24,9","74,9","59,6","0"],
    [37703,"2018-05-20T09:00:00","ND","18","18,5","1,6","229,7","27,3","64,8","214,4","0"],
    [37704,"2018-05-20T10:00:00","ND","6","30,8","2,1","283,8","29,1","56,1","214,5","0"],
    [37705,"2018-05-20T11:00:00","ND","2","44,1","2,6","268,1","30,4","51,2","329","0"],
    [37706,"2018-05-20T12:00:00","ND","ND","54,5","2,7","252,8","31,3","47,4","320","0"],
    [37707,"2018-05-20T13:00:00","ND","ND","47,2","3,2","257","31,3","45,9","216,4","0"],
    [37708,"2018-05-20T14:00:00","ND","ND","48,5","4","269,4","32,1","46,1","341,6","0"],
    [37709,"2018-05-20T15:00:00","ND","2","56,3","3,7","232,8","32,6","43,6","230,1","0"],
    [37710,"2018-05-20T16:00:00","ND","ND","48,5","4,2","236","33,3","39,9","284,9","0"],
    [37711,"2018-05-20T17:00:00","ND","ND","34,6","3,6","248,6","32,5","41,7","69,7","0"],
    [37712,"2018-05-20T18:00:00","ND","2","21,1","0,5","210,2","31,2","45,8","18,5","0"],
    [37713,"2018-05-20T19:00:00","ND","4","15,2","1,6","160,9","29,9","47,4","0","0"],
    [37714,"2018-05-20T20:00:00","ND","2","12,9","0,8","160,2","29,1","52","0","0"],
    [37715,"2018-05-20T21:00:00","ND","1","26,6","4,1","16,5","27,8","57,1","0","0"],
    [37716,"2018-05-20T22:00:00","ND","1","24","3","342","26,6","60,7","0","0"],
    [37717,"2018-05-20T23:00:00","ND","ND","21","3,5","319,8","25,7","67,3","0","0"],
    [37718,"2018-05-21T00:00:00","ND","ND","21,3","1,4","337,6","25,6","67,7","0","0"],
    [37719,"2018-05-21T01:00:00","ND","ND","20,3","1,2","300,8","25,3","68,6","0","0"],
    [37720,"2018-05-21T02:00:00","ND","ND","19,5","2,7","40","25","71","0","0"],
    [37721,"2018-05-21T03:00:00","ND","ND","14,6","1,3","318,8","25,2","70,9","0","0"],
    [37722,"2018-05-21T04:00:00","ND","46","12,3","2,5","284,7","24,3","75,2","0","0"],
    [37723,"2018-05-21T05:00:00","ND","1","12,4","1,1","4,6","24,3","74,8","0","0"],
    [37724,"2018-05-21T06:00:00","ND","1","11","1,5","34,8","24,6","73,2","0","0"],
    [37725,"2018-05-21T07:00:00","ND","4","9,7","2","301,8","24,9","73,2","22,4","0"],
    [37726,"2018-05-21T08:00:00","ND","5","12,7","0,9","349","26","69","63,7","0"],
    [37727,"2018-05-21T09:00:00","ND","ND","ND","1,7","202,6","26,6","65,7","72,6","0"],
    [37728,"2018-05-21T10:00:00","ND","ND","ND","2,4","191,7","27,9","59,7","152,3","0"],
    [37729,"2018-05-21T11:00:00","46","ND","20","3,4","227,9","28,4","58,2","142,1","0"],
    [37730,"2018-05-21T12:00:00","27","5","24,2","2,7","230,5","28,8","57,5","188,9","0"],
    [37731,"2018-05-21T13:00:00","24","4","31,9","3,2","229,6","29,4","54,3","229,9","0"],
    [37732,"2018-05-21T14:00:00","31","3","27","2,7","236,3","28,8","59,1","118,9","1,78"],
    [37733,"2018-05-21T15:00:00","27","1","18,6","2,7","343,3","27","71,9","97,3","0"],
    [37734,"2018-05-21T16:00:00","44","2","25,7","1,9","295,1","28,5","62,8","136,6","0"],
    [37735,"2018-05-21T17:00:00","34","2","27,8","2,2","276,2","29,1","59","97,1","0"],
    [37736,"2018-05-21T18:00:00","65","6","13,6","2,7","264,1","28,1","61,4","12,6","0"],
    [37737,"2018-05-21T19:00:00","48","7","10,7","2,4","184,2","27,2","63,8","0","0"],
    [37738,"2018-05-21T20:00:00","58","31","7,3","1,3","149,9","26,8","64,4","0","0"],
    [37739,"2018-05-21T21:00:00","67","10","7,8","1","159,4","26,5","66,3","0","0"],
    [37740,"2018-05-21T22:00:00","80","23","7","1,8","283,7","26,1","68,4","0","0"],
    [37741,"2018-05-21T23:00:00","47","10","6,5","0,9","284,8","25,1","71,9","0","0"],
    [37742,"2018-05-22T00:00:00","56","14","6,2","1,4","41","24,7","74,8","0","0"],
    [37743,"2018-05-22T01:00:00","39","7","5,7","1,3","299,5","24,2","77,1","0","0"],
    [37744,"2018-05-22T02:00:00","23","1","5,8","0,7","304,1","23,8","78,7","0","0"],
    [37745,"2018-05-22T03:00:00","25","ND","5,8","1,6","253","23,7","78,5","0","0"],
    [37746,"2018-05-22T04:00:00","29","11","5,7","2,4","256,1","22,7","81,2","0","0"],
    [37747,"2018-05-22T05:00:00","31","8","5,8","1,9","238,3","23","79,6","0","0"],
    [37748,"2018-05-22T06:00:00","45","3","5,9","1,2","196","23,2","77,6","0","0"],
    [37749,"2018-05-22T07:00:00","66","13","6,3","1,9","233,2","23,9","74,7","28,8","0"],
    [37750,"2018-05-22T08:00:00","52","7","7,2","2,5","205,5","25,1","71,3","99","0"],
    [37751,"2018-05-22T09:00:00","74","18","8,5","3,3","257,8","25,8","68,9","95,7","0"],
    [37752,"2018-05-22T10:00:00","47","6","18,1","1,1","188,5","28","59,7","285,1","0"],
    [37753,"2018-05-22T11:00:00","47","7","38,2","1,7","269,2","30,9","48,1","428,8","0"],
    [37754,"2018-05-22T12:00:00","42","16","59,8","2,7","254,3","32,2","43,6","454","0"],
    [37755,"2018-05-22T13:00:00","26","ND","75,5","2,2","224,3","33,6","38,5","487,2","0"],
    [37756,"2018-05-22T14:00:00","37","10","63,9","3,2","236,4","33,8","37,8","362,5","0"],
    [37757,"2018-05-22T15:00:00","43","6","78,6","3","226,3","33,9","37,8","260,5","0"],
    [37758,"2018-05-22T16:00:00","38","15","63,7","5,6","180,2","33,2","39,8","201,2","0"],
    [37759,"2018-05-22T17:00:00","36","3","34,5","3,6","203,1","32,3","41,9","53,6","0"],
    [37760,"2018-05-22T18:00:00","44","2","15,4","3,3","184,3","30,6","48,5","13,6","0"],
    [37761,"2018-05-22T19:00:00","26","ND","7,5","3,9","100,3","29,8","49,3","0","0"],
    [37762,"2018-05-22T20:00:00","48","5","21,9","3,7","32,8","28,8","57,1","0","0"],
    [37763,"2018-05-22T21:00:00","56","13","14,2","3","318,8","28,2","59,9","0","0"],
    [37764,"2018-05-22T22:00:00","40","9","13,3","2,7","337,6","27,3","60,3","0","0"],
    [37765,"2018-05-22T23:00:00","24","2","14,8","2","349,3","26,2","63,1","0","0"],
    [37766,"2018-05-23T00:00:00","15","ND","15,4","1,9","353,9","25,9","65,9","0","0"],
    [37767,"2018-05-23T01:00:00","21","ND","15","1,6","321,7","25,4","69,5","0","0"],
    [37768,"2018-05-23T02:00:00","22","ND","13,5","1,8","18,2","25,2","71,7","0","0,25"],
    [37769,"2018-05-23T03:00:00","11","ND","11,4","1,5","357,1","25,3","71,3","0","0"],
    [37770,"2018-05-23T04:00:00","20","ND","10","1,8","300,9","25","73,2","0","0"],
    [37771,"2018-05-23T05:00:00","34","ND","7,3","1,3","322,1","24,9","73,8","0","0"],
    [37772,"2018-05-23T06:00:00","31","ND","6,1","1,2","351,5","24,8","73,9","0","0"],
    [37773,"2018-05-23T07:00:00","53","ND","6,5","1,5","302,2","25,1","74,4","14,1","0"],
    [37774,"2018-05-23T08:00:00","57","2","7,4","1,9","259,7","26,4","69,3","81,1","0"],
    [37775,"2018-05-23T09:00:00","65","ND","13,2","3,4","265,5","27,6","63,5","146,7","0"],
    [37776,"2018-05-23T10:00:00","29","ND","23,1","2,6","267,5","29,6","54,6","346,2","0"],
    [37777,"2018-05-23T11:00:00","23","ND","31,7","2,7","256,2","31,3","47,2","363,1","0"],
    [37778,"2018-05-23T12:00:00","25","ND","40,1","2,4","271,3","32,5","42,3","359,2","0"],
    [37779,"2018-05-23T13:00:00","28","ND","46,1","3,2","256,6","33,3","40,6","337","0"],
    [37780,"2018-05-23T14:00:00","30","ND","46,2","4","246,6","33,6","40,3","333,5","0"],
    [37781,"2018-05-23T15:00:00","32","ND","49,8","4,3","226,8","33,4","39,6","178,8","0"],
    [37782,"2018-05-23T16:00:00","39","ND","27,6","6,3","223,3","28,3","63,6","22,7","5,84"],
    [37783,"2018-05-23T17:00:00","14","ND","20,4","3,1","57","26,2","67","12,4","0"],
    [37784,"2018-05-23T18:00:00","28","ND","23,5","4,7","41,7","25","67,8","6,4","0"],
    [37785,"2018-05-23T19:00:00","45","4","12,2","2,1","344,6","25,4","67,7","0","0"],
    [37786,"2018-05-23T20:00:00","65","35","14,4","3","23,9","24,9","70,5","0","0"],
    [37787,"2018-05-23T21:00:00","30","ND","11,1","2,5","50,6","25","71","0","0"],
    [37788,"2018-05-23T22:00:00","51","3","6,6","0,5","40,5","25,7","69,1","0","0"],
    [37789,"2018-05-23T23:00:00","91","29","6,7","2,1","276","25,4","71,5","0","0"],
    [37790,"2018-05-24T00:00:00","46","7","6,5","1,6","311,2","24,6","74,9","0","0"],
    [37791,"2018-05-24T01:00:00","28","3","7,7","1,5","297,1","24,7","74,2","0","0"],
    [37792,"2018-05-24T02:00:00","20","ND","7,8","1","26,2","24,4","75,5","0","0"],
    [37793,"2018-05-24T03:00:00","27","ND","7","0,6","284,1","24,5","75,6","0","0"],
    [37794,"2018-05-24T04:00:00","52","11","6,9","1,5","267,5","24,4","75,9","0","0"],
    [37795,"2018-05-24T05:00:00","46","7","6,3","0,8","295","24,3","76,2","0","0"],
    [37796,"2018-05-24T06:00:00","79","17","6,8","1,7","285,6","24,4","75,8","0","0"],
    [37797,"2018-05-24T07:00:00","61","11","6,8","0,6","24,7","24,8","74,6","19,7","0"],
    [37798,"2018-05-24T08:00:00","95","19","7,3","1,4","262,2","25,7","72,1","44,9","0"],
    [37799,"2018-05-24T09:00:00","86","20","10,3","2,6","275,9","26,3","70,2","128,9","0"],
    [37800,"2018-05-24T10:00:00","55","9","28,7","0,7","296,4","29,8","54,4","297,9","0"],
    [37801,"2018-05-24T11:00:00","51","7","49,6","2,1","286,4","31,7","48,6","419,7","0"],
    [37802,"2018-05-24T12:00:00","52","12","67,3","3,2","257,2","31,6","49,2","372,7","0"],
    [37803,"2018-05-24T13:00:00","33","7","57,7","3,4","278,8","33","42,9","376,4","0"],
    [37804,"2018-05-24T14:00:00","24","2","50","4,1","267,8","32,7","43","288","0"],
    [37805,"2018-05-24T15:00:00","34","ND","60,2","4","277,9","33,2","41,4","273,5","0"],
    [37806,"2018-05-24T16:00:00","44","10","85,6","2,8","273,8","33,2","42","176,1","0"],
    [37807,"2018-05-24T17:00:00","66","15","72,1","2,9","306,4","32,3","44,6","35,5","0"],
    [37808,"2018-05-24T18:00:00","68","16","55,3","1,7","290,1","31,9","47,4","26,7","0"],
    [37809,"2018-05-24T19:00:00","42","ND","25,9","4,6","82,9","30,7","48,2","0","0"],
    [37810,"2018-05-24T20:00:00","39","ND","10,3","3,8","100,8","30","49,9","0","0"],
    [37811,"2018-05-24T21:00:00","57","8","8,7","3,4","281,5","28","62,3","0","0"],
    [37812,"2018-05-24T22:00:00","49","6","8,6","2,2","297,3","27,4","63,4","0","0"],
    [37813,"2018-05-24T23:00:00","50","4","7,2","1,8","307,5","27,1","60,8","0","0"],
    [37814,"2018-05-25T00:00:00","28","ND","8","2,9","323,4","26,6","60,7","0","0"],
    [37815,"2018-05-25T01:00:00","14","ND","10,1","1,7","315","26","64","0","0"],
    [37816,"2018-05-25T02:00:00","18","ND","9","1,9","314,6","25,5","66,5","0","0"],
    [37817,"2018-05-25T03:00:00","17","ND","7,9","2,4","10,4","24,9","69,2","0","0"],
    [37818,"2018-05-25T04:00:00","22","ND","6,5","1,6","28,9","24,7","71,3","0","0"],
    [37819,"2018-05-25T05:00:00","29","ND","5,3","1,7","20,9","24,5","72","0","0"],
    [37820,"2018-05-25T06:00:00","51","4","5,7","1,6","331,3","24,6","72","0","0"],
    [37821,"2018-05-25T07:00:00","58","12","5,9","1,7","275,2","24,5","73,2","5,1","0"],
    [37822,"2018-05-25T08:00:00","77","11","7,5","1,1","218","25,6","69,5","37,5","0"],
    [37823,"2018-05-25T09:00:00","77","13","14,7","0,7","261","28,2","60,2","193,8","0"],
    [37824,"2018-05-25T10:00:00","39","6","35,6","0,8","355,1","31","48","319,5","0"],
    [37825,"2018-05-25T11:00:00","43","8","50,1","2","301,5","32,3","45,3","411,2","0"],
    [37826,"2018-05-25T12:00:00","48","11","63,3","3,2","269,2","32,7","43,4","355,1","0"],
    [37827,"2018-05-25T13:00:00","ND","ND","58,9","4,8","257,5","33,6","40,9","436,9","0"],
    [37828,"2018-05-25T14:00:00","55","ND","77,7","4,4","270,7","34,6","37,3","430,6","0"],
    [37829,"2018-05-25T15:00:00","50","6","67","4,6","264,3","33,9","40","269,6","0"],
    [37830,"2018-05-25T16:00:00","33","12","70,9","3,7","262","33,6","41,5","131","0"],
    [37831,"2018-05-25T17:00:00","45","6","43,5","1,7","86,9","32,4","42,3","14,4","0"],
    [37832,"2018-05-25T18:00:00","54","4","19","7,1","97,2","29","52,1","0","0"],
    [37833,"2018-05-25T19:00:00","31","ND","23,2","5,9","125,7","26,2","66,9","0","2,29"],
    [37834,"2018-05-25T20:00:00","23","ND","9,5","2,1","148,6","26,1","68","0","0"],
    [37835,"2018-05-25T21:00:00","52","7","9,1","3,7","258,1","25,7","71,2","0","0"],
    [37836,"2018-05-25T22:00:00","35","5","9,1","2,1","206,8","25,8","69,6","0","0"],
    [37837,"2018-05-25T23:00:00","44","7","7,3","1,9","237,8","25,7","69,9","0","0"],
    [37838,"2018-05-26T00:00:00","28","ND","7,4","1,3","300","25,2","71,6","0","0"],
    [37839,"2018-05-26T01:00:00","29","ND","7","2,3","18,1","24,9","73,1","0","0"],
    [37840,"2018-05-26T02:00:00","26","1","7,4","1,7","2,2","24,5","74,3","0","0"],
    [37841,"2018-05-26T03:00:00","25","ND","7,3","1,2","1,3","24,4","74,4","0","0"],
    [37842,"2018-05-26T04:00:00","14","ND","7,3","0,4","35,5","24,6","74,3","0","0"],
    [37843,"2018-05-26T05:00:00","61","13","7,3","1,1","178,3","24,4","75,1","0","0"],
    [37844,"2018-05-26T06:00:00","73","19","6,8","2,1","275,3","24,1","75,8","0","0"],
    [37845,"2018-05-26T07:00:00","74","18","6,8","1,5","282,1","23,7","76,9","19","0"],
    [37846,"2018-05-26T08:00:00","91","17","7,9","1,2","341,8","26","70","128,8","0"],
    [37847,"2018-05-26T09:00:00","51","6","15,7","0,9","349,1","29,5","55,6","272,2","0"],
    [37848,"2018-05-26T10:00:00","63","9","30,9","0,9","271,9","29,8","53,3","186,2","0"],
    [37849,"2018-05-26T11:00:00","38","9","42,5","1,9","281,5","31","49,6","262,6","0"],
    [37850,"2018-05-26T12:00:00","31","5","53","1,4","252,2","32,1","45,6","341,6","0"],
    [37851,"2018-05-26T13:00:00","33","ND","62,3","1,6","248,6","33,7","41,2","433,7","0"],
    [37852,"2018-05-26T14:00:00","36","2","65,2","4,1","253,3","33,7","40,5","352,9","0"],
    [37853,"2018-05-26T15:00:00","25","4","55,6","5,2","240,6","34","40","354,4","0"],
    [37854,"2018-05-26T16:00:00","25","ND","47,4","4,8","236,1","34,1","40","243,2","0"],
    [37855,"2018-05-26T17:00:00","21","ND","25","1,5","170,1","33","41,1","68,1","0"],
    [37856,"2018-05-26T18:00:00","11","ND","15,8","5,1","122,5","31,3","43,4","31,3","0"],
    [37857,"2018-05-26T19:00:00","75","9","20,2","6,6","44,4","28,7","48,6","0","0,25"],
    [37858,"2018-05-26T20:00:00","17","4","11,4","0,9","90,3","27","62,2","0","0,51"],
    [37859,"2018-05-26T21:00:00","15","ND","9,4","1,7","31,6","24,4","76,1","0","9,4"],
    [37860,"2018-05-26T22:00:00","22","ND","7,3","2,3","152","24,9","74,2","0","0"],
    [37861,"2018-05-26T23:00:00","26","ND","9,2","2,3","172,7","24,3","75,8","0","0"],
    [37862,"2018-05-27T00:00:00","30","3","7","1,6","141,4","24,5","75","0","0"],
    [37863,"2018-05-27T01:00:00","32","4","7,6","2,4","298,8","24,5","76,5","0","0"],
    [37864,"2018-05-27T02:00:00","26","ND","6,9","1,9","1,1","24,6","75,5","0","0"],
    [37865,"2018-05-27T03:00:00","13","ND","7,6","2,2","23,9","24,3","74,6","0","0"],
    [37866,"2018-05-27T04:00:00","17","ND","7,2","1,5","352,2","24,2","75,2","0","0"],
    [37867,"2018-05-27T05:00:00","33","ND","6,9","1,5","288,4","24,1","76","0","0"],
    [37868,"2018-05-27T06:00:00","39","ND","6,6","1,8","305,5","23,7","77","0","0"],
    [37869,"2018-05-27T07:00:00","35","1","7","1,3","13,6","23,5","77,8","12,7","0"],
    [37870,"2018-05-27T08:00:00","ND","1","8,6","2","288,8","25,4","71,1","119","0"],
    [37871,"2018-05-27T09:00:00","33","2","16,3","1,7","293,5","28,4","59,4","241,4","0"],
    [37872,"2018-05-27T10:00:00","24","1","25,3","2,9","273,2","29,4","54,5","359,3","0"],
    [37873,"2018-05-27T11:00:00","36","ND","38,7","2,3","281,8","31,2","48,6","430,5","0"],
    [37874,"2018-05-27T12:00:00","23","2","45,9","2,6","259","32,5","43,4","427,3","0"],
    [37875,"2018-05-27T13:00:00","20","ND","53,9","3","225,6","33,3","41,7","427,5","0"],
    [37876,"2018-05-27T14:00:00","17","ND","65,3","3,1","198,4","33,8","39,3","420,5","0"],
    [37877,"2018-05-27T15:00:00","28","2","52,4","4,9","242,4","34,1","38,9","324,7","0"],
    [37878,"2018-05-27T16:00:00","26","ND","33,2","4,6","240,9","33,4","40,8","116,1","0"],
    [37879,"2018-05-27T17:00:00","11","ND","19,1","6,1","116,6","30,9","46,1","85,8","0"],
    [37880,"2018-05-27T18:00:00","10","ND","17","4,5","110,5","30,3","46,4","24,5","0"],
    [37881,"2018-05-27T19:00:00","17","ND","10,9","1,1","88,7","29,7","48,9","0","0"],
    [37882,"2018-05-27T20:00:00","28","ND","24,2","5","27,5","27","63,1","0","0"],
    [37883,"2018-05-27T21:00:00","20","ND","20,3","4,6","15,1","26,1","66,7","0","0"],
    [37884,"2018-05-27T22:00:00","17","ND","14,1","3,3","6","25,4","73,4","0","0"],
    [37885,"2018-05-27T23:00:00","8","ND","10,7","2,6","349,5","24,9","76,3","0","0"],
    [37886,"2018-05-28T00:00:00","6","ND","11,8","3","26,3","24,5","77,6","0","0"],
    [37887,"2018-05-28T01:00:00","1","ND","13,2","1,7","342,1","24,4","78,2","0","2,03"],
    [37888,"2018-05-28T02:00:00","1","ND","11,8","2,8","307,1","24,1","80,5","0","1,27"],
    [37889,"2018-05-28T03:00:00","ND","ND","12,6","3,1","310,3","23,8","80,5","0","14,99"],
    [37890,"2018-05-28T04:00:00","ND","ND","ND","ND","ND","ND","ND","ND","ND"],
    [37891,"2018-05-28T05:00:00","ND","ND","ND","ND","ND","ND","ND","ND","ND"],
    [37892,"2018-05-28T06:00:00","ND","ND","ND","ND","ND","ND","ND","ND","ND"],
    [37893,"2018-05-28T07:00:00","ND","ND","ND","ND","ND","ND","ND","ND","ND"],
    [37894,"2018-05-28T08:00:00","ND","ND","ND","ND","ND","ND","ND","ND","ND"],
    [37895,"2018-05-28T09:00:00","ND","ND","ND","ND","ND","ND","ND","ND","ND"],
    [37896,"2018-05-28T10:00:00","27","5","ND","ND","ND","ND","ND","ND","ND"],
    [37897,"2018-05-28T11:00:00","28","2","21,3","2","0,9","28,6","58,4","258,1","0"],
    [37898,"2018-05-28T12:00:00","5","ND","33,1","1,8","31,7","30,4","52,5","405,4","0"],
    [37899,"2018-05-28T13:00:00","ND","ND","45,3","2,2","340,3","31,3","48,8","332","0"],
    [37900,"2018-05-28T14:00:00","24","ND","57,6","2,4","291,3","31,6","47,3","289,6","0"],
    [37901,"2018-05-28T15:00:00","29","ND","61,1","3,5","294,4","31,8","46,2","194,1","0"],
    [37902,"2018-05-28T16:00:00","46","9","32,6","6,1","318,9","29,7","55,8","90,5","0"],
    [37903,"2018-05-28T17:00:00","14","6","23,2","2,4","65","26,7","69,3","9,4","0"],
    [37904,"2018-05-28T18:00:00","37","7","14,8","2,3","8,5","26,9","68,3","11,5","0"],
    [37905,"2018-05-28T19:00:00","50","8","8,8","1,7","20,6","26,6","68","0","0"],
    [37906,"2018-05-28T20:00:00","39","9","8","2","356,7","25,7","74,6","0","0"],
    [37907,"2018-05-28T21:00:00","48","5","7,5","3,1","41,4","25,4","75,4","0","0"],
    [37908,"2018-05-28T22:00:00","54","9","6,7","2","24,4","25,1","76","0","0"],
    [37909,"2018-05-28T23:00:00","49","6","6,8","1,3","335,9","25,1","75","0","0"],
    [37910,"2018-05-29T00:00:00","42","15","6,8","1,1","339","24,6","77,6","0","0"],
    [37911,"2018-05-29T01:00:00","48","18","7","1,5","242","24","79","0","0"],
    [37912,"2018-05-29T02:00:00","39","7","6,5","1,4","133","23,4","81,2","0","0"],
    [37913,"2018-05-29T03:00:00","38","8","6,5","0,6","108,7","23,4","81,5","0","0"],
    [37914,"2018-05-29T04:00:00","51","11","6,6","0,8","296,8","23,6","80,3","0","0"],
    [37915,"2018-05-29T05:00:00","45","23","7,4","1,6","329,6","23","80,6","0","0"],
    [37916,"2018-05-29T06:00:00","70","28","7,2","0,8","308,6","22,9","81,5","0","0"],
    [37917,"2018-05-29T07:00:00","111","33","7","1,2","290,5","23","81,8","8,2","0"],
    [37918,"2018-05-29T08:00:00","89","21","8","1","59","24,1","77,8","52,6","0"],
    [37919,"2018-05-29T09:00:00","83","26","9,1","1,7","27,5","26,3","67,2","162,7","0"],
    [37920,"2018-05-29T10:00:00","66","15","23,1","1,3","329","29,5","55,3","350,4","0"],
    [37921,"2018-05-29T11:00:00","31","2","44,1","1,4","6,1","31,6","48,8","369,9","0"],
    [37922,"2018-05-29T12:00:00","38","12","56,9","1,7","301,7","32,1","46,3","394,2","0"],
    [37923,"2018-05-29T13:00:00","35","18","73,4","2,5","268,2","33,6","40,7","437,2","0"],
    [37924,"2018-05-29T14:00:00","53","20","98,5","3","265,3","33,9","40,2","400,2","0"],
    [37925,"2018-05-29T15:00:00","58","24","94,2","3,7","262,2","34,3","39,3","307,1","0"],
    [37926,"2018-05-29T16:00:00","50","17","52,6","2,8","233","32,5","44","41,5","0"],
    [37927,"2018-05-29T17:00:00","24","ND","26,5","5,6","107,5","30,1","50,6","38,4","0"],
    [37928,"2018-05-29T18:00:00","30","ND","9,7","4,7","103,5","30,4","49,2","15,9","0"],
    [37929,"2018-05-29T19:00:00","28","ND","7,2","3,2","125,2","29,5","52","0","0"],
    [37930,"2018-05-29T20:00:00","50","2","8,7","2,8","267,3","28","62,8","0","0"],
    [37931,"2018-05-29T21:00:00","48","5","7,1","1,9","255,8","27,1","65,5","0","0"],
    [37932,"2018-05-29T22:00:00","39","2","7,3","3,9","274,8","26,4","67,6","0","0"],
    [37933,"2018-05-29T23:00:00","21","ND","7,6","2,7","214,7","26,5","65,6","0","0"],
    [37934,"2018-05-30T00:00:00","19","ND","7,5","1,8","253,5","26,4","65,3","0","0"],
    [37935,"2018-05-30T01:00:00","16","ND","6,9","1,5","219,6","25,9","67,6","0","0"],
    [37936,"2018-05-30T02:00:00","14","ND","7,1","0,1","66,5","26","66,7","0","0"],
    [37937,"2018-05-30T03:00:00","13","ND","7,3","2","2,2","25,7","69,5","0","0"],
    [37938,"2018-05-30T04:00:00","15","ND","8,9","3,8","317,5","25,1","74,2","0","0"],
    [37939,"2018-05-30T05:00:00","13","ND","12,2","2,3","329,5","24,2","74,9","0","0"],
    [37940,"2018-05-30T06:00:00","29","5","11,2","1,9","5,7","24","74,4","0","0"],
    [37941,"2018-05-30T07:00:00","10","4","10,6","3,6","35","24","76,5","4,4","0,51"],
    [37942,"2018-05-30T08:00:00","14","1","11,4","4,1","21,9","24","78,1","24,8","0,25"],
    [37943,"2018-05-30T09:00:00","18","4","11,5","2,9","8,7","24,7","76,4","56,6","0,25"],
    [37944,"2018-05-30T10:00:00","22","ND","15,1","2,8","18,1","26,1","71,7","181,4","0"],
    [37945,"2018-05-30T11:00:00","ND","ND","28,2","2,3","35,8","29,8","56,2","399,7","0"],
    [37946,"2018-05-30T12:00:00","13","3","41,9","2,1","306,5","31,6","48,2","467,4","0"],
    [37947,"2018-05-30T13:00:00","35","15","44,8","3,8","289,5","31,5","48,2","359,7","0"],
    [37948,"2018-05-30T14:00:00","25","12","69,4","1,7","276","34,1","39,6","426,1","0"],
    [37949,"2018-05-30T15:00:00","27","6","64,4","2,8","258,4","32,6","44,3","161,9","0"],
    [37950,"2018-05-30T16:00:00","43","2","28,6","5,8","172,6","29,5","51,4","54,5","0"],
    [37951,"2018-05-30T17:00:00","52","4","16,5","2,7","240,7","30","50,4","59,7","0"],
    [37952,"2018-05-30T18:00:00","40","6","12,2","2,8","273,3","29,6","55","28,9","0"],
    [37953,"2018-05-30T19:00:00","56","9","9,4","2,8","279,7","28,4","60,5","0","0"],
    [37954,"2018-05-30T20:00:00","57","18","9,8","1,9","204,1","27,5","63,9","0","0"],
    [37955,"2018-05-30T21:00:00","99","35","8,1","1,8","250,6","27,3","65,4","0","0"],
    [37956,"2018-05-30T22:00:00","74","15","7,6","1,4","298,3","26,4","70,1","0","0"],
    [37957,"2018-05-30T23:00:00","87","26","7,7","1,1","276,7","26","71,2","0","0"],
    [37958,"2018-05-31T00:00:00","60","16","7,4","0,8","302,7","25,7","70,5","0","0"],
    [37959,"2018-05-31T01:00:00","74","24","7,4","0,8","46,9","25,4","69,9","0","0"],
    [37960,"2018-05-31T02:00:00","57","22","7,7","2","329,3","24,9","74,2","0","0"],
    [37961,"2018-05-31T03:00:00","28","3","6,8","0,9","315,8","24","77,6","0","0"],
    [37962,"2018-05-31T04:00:00","35","10","7,1","1,3","348,3","23,9","78,1","0","0"],
    [37963,"2018-05-31T05:00:00","49","13","7","1,1","347","23,8","77,7","0","0"],
    [37964,"2018-05-31T06:00:00","70","16","7,3","0,9","297,5","23,8","77,7","0","0"],
    [37965,"2018-05-31T07:00:00","85","31","7,8","2,5","257,1","23,8","77,3","12,2","0"],
    [37966,"2018-05-31T08:00:00","69","24","7,6","1,4","171,5","24,9","73,4","54,9","0"],
    [37967,"2018-05-31T09:00:00","77","28","10,4","2,2","273,5","27","66,2","189,1","0"],
    [37968,"2018-05-31T10:00:00","57","22","26,4","2,2","330,2","30","55,2","275,9","0"],
    [37969,"2018-05-31T11:00:00","48","17","54,8","2,1","310,3","32","47,8","411,1","0"],
    [37970,"2018-05-31T12:00:00","37","14","66,6","1,9","251,5","32,8","43,4","381,1","0"],
    [37971,"2018-05-31T13:00:00","47","17","72,4","2,7","232,2","33,3","40,5","327,9","0"],
    [37972,"2018-05-31T14:00:00","45","10","80,1","3","222,1","34,8","37,9","414,9","0"],
    [37973,"2018-05-31T15:00:00","39","13","81","3,6","274,8","34,4","38,2","262,5","0"],
    [37974,"2018-05-31T16:00:00","51","9","84,4","3,5","281,3","34,4","38,8","188,8","0"],
    [37975,"2018-05-31T17:00:00","65","16","82","2,5","181,8","33,9","40,9","90","0"],
    [37976,"2018-05-31T18:00:00","38","2","33","6","111,3","32,4","43,5","38,7","0"],
    [37977,"2018-05-31T19:00:00","34","1","22,4","5,2","112,6","31","47,4","0","0"],
    [37978,"2018-05-31T20:00:00","55","13","14,8","2","224,2","29,5","54,9","0","0"],
    [37979,"2018-05-31T21:00:00","40","7","10,2","2,9","305,5","28,5","60,6","0","0"],
    [37980,"2018-05-31T22:00:00","35","2","9,8","2","327,4","28,5","59,8","0","0"],
    [37981,"2018-05-31T23:00:00","38","15","17,5","2,4","3,5","27,9","61,3","0","0"],
    [37982,"2018-06-01T00:00:00","27","ND","16,3","2,3","48,1","25,8","76,2","0","8,13"],
    [37983,"2018-06-01T01:00:00","9","4","17,1","4","83,6","25,2","75,2","0","2,54"],
    [37984,"2018-06-01T02:00:00","17","5","13,2","2,2","56,6","25,5","73,7","0","0,51"],
    [37985,"2018-06-01T03:00:00","14","2","17,3","3","30,6","25,6","73","0","0"],
    [37986,"2018-06-01T04:00:00","8","ND","16,9","2,7","350,6","24,6","76,9","0","0,25"],
    [37987,"2018-06-01T05:00:00","8","ND","16,4","2,4","5,9","24","77,4","0","1,52"],
    [37988,"2018-06-01T06:00:00","18","ND","11,7","3,4","34,8","23,5","78,3","0","1,78"],
    [37989,"2018-06-01T07:00:00","21","ND","10,6","3,9","44,5","23,6","78,9","13,4","0,25"],
    [37990,"2018-06-01T08:00:00","15","6","10,2","3,4","75","24,9","74","70,4","0"],
    [37991,"2018-06-01T09:00:00","55","11","12,2","2,2","322,8","26,9","66,4","142,4","0"],
    [37992,"2018-06-01T10:00:00","ND","6","19,3","3","309,9","27,8","62,4","173,2","0"],
    [37993,"2018-06-01T11:00:00","29","1","28,3","2,1","285,6","29,2","56,7","245,4","0"],
    [37994,"2018-06-01T12:00:00","17","ND","38,3","1,9","5,2","30,9","50,3","328,5","0"],
    [37995,"2018-06-01T13:00:00","27","ND","34,1","2,2","308","31,6","47,4","215,5","0"],
    [37996,"2018-06-01T14:00:00","29","ND","35,7","2,7","313,5","31,8","47,3","260,2","0"],
    [37997,"2018-06-01T15:00:00","21","2","43,9","3","359","31,6","48,2","147","0"],
    [37998,"2018-06-01T16:00:00","31","ND","44,3","2,9","351,4","31,6","50,3","160,4","0"],
    [37999,"2018-06-01T17:00:00","36","1","49,4","1,4","30,1","30,5","51,4","50,4","0"],
    [38000,"2018-06-01T18:00:00","72","24","23","2","284,9","30,1","53,2","16,8","0"],
    [38001,"2018-06-01T19:00:00","101","26","12,9","1,9","272","29,1","59,6","0","0"],
    [38002,"2018-06-01T20:00:00","64","9","9,8","2,6","220,8","27,9","62,7","0","0"],
    [38003,"2018-06-01T21:00:00","57","14","10,6","1,7","230","27","65,7","0","0"],
    [38004,"2018-06-01T22:00:00","56","16","10,7","1,2","236,5","26,6","66,7","0","0"],
    [38005,"2018-06-01T23:00:00","36","8","11,2","2,5","205,6","26,1","69,8","0","0,25"],
    [38006,"2018-06-02T00:00:00","35","11","8,9","2,6","227,1","25,4","75,2","0","1,78"],
    [38007,"2018-06-02T01:00:00","45","7","8,4","3,1","190,3","24,9","78","0","0,51"],
    [38008,"2018-06-02T02:00:00","13","2","11,2","2,3","196,5","25,2","73,2","0","0"],
    [38009,"2018-06-02T03:00:00","11","1","10,7","1,4","246,2","24,9","75,1","0","0"],
    [38010,"2018-06-02T04:00:00","15","ND","10,6","1,1","321","25,1","73,8","0","0"],
    [38011,"2018-06-02T05:00:00","20","ND","9","1,1","349,4","25","75","0","0"],
    [38012,"2018-06-02T06:00:00","55","24","7,7","1,4","301,9","24,8","76,5","0","0"],
    [38013,"2018-06-02T07:00:00","59","7","8","2,1","241,1","25","74,9","7,3","0"],
    [38014,"2018-06-02T08:00:00","52","8","9,5","2,5","224,8","26,4","69,9","136,5","0"],
    [38015,"2018-06-02T09:00:00","63","17","12","2,5","236,4","27,5","66","157,2","0"],
    [38016,"2018-06-02T10:00:00","60","12","21,7","2,5","191,9","28,8","60,3","269,7","0"],
    [38017,"2018-06-02T11:00:00","47","7","54,2","0,5","144,3","31,1","50,1","364,9","0"],
    [38018,"2018-06-02T12:00:00","52","16","74,3","2","354,1","33,4","42,9","442,4","0"],
    [38019,"2018-06-02T13:00:00","47","20","65,2","3,1","294,4","33","42,3","316","0"],
    [38020,"2018-06-02T14:00:00","49","15","65,2","3,8","299,7","33,6","40,9","315,1","0"],
    [38021,"2018-06-02T15:00:00","59","16","62,8","4,3","270,1","33","43","197","0"],
    [38022,"2018-06-02T16:00:00","63","10","73,3","3","273","33,8","43,1","200,5","0"],
    [38023,"2018-06-02T17:00:00","59","19","54,3","4,5","260,7","33,3","43,6","81,3","0"],
    [38024,"2018-06-02T18:00:00","36","6","27,6","1,2","109,6","32,4","44,5","27,3","0"],
    [38025,"2018-06-02T19:00:00","48","5","17,2","3","141,8","30,7","48,3","0","0"],
    [38026,"2018-06-02T20:00:00","52","8","11,4","1,4","152,4","29,8","51,7","0","0"],
    [38027,"2018-06-02T21:00:00","46","16","10,1","3,8","291,3","27,3","64,5","0","0"],
    [38028,"2018-06-02T22:00:00","49","7","9","1,4","342,9","26,8","66,3","0","0"],
    [38029,"2018-06-02T23:00:00","62","17","8,9","1,7","9,6","26,8","66,5","0","0"],
    [38030,"2018-06-03T00:00:00","46","6","11,1","3,6","32,5","26,5","67,1","0","0"],
    [38031,"2018-06-03T01:00:00","32","3","11,9","1,2","289,5","26,5","65,9","0","0"],
    [38032,"2018-06-03T02:00:00","37","5","9,8","1,9","258,7","25,7","71,3","0","0"],
    [38033,"2018-06-03T03:00:00","37","3","8,4","1,3","226","25,3","72,7","0","0"],
    [38034,"2018-06-03T04:00:00","36","8","8,3","0,5","2,3","25,6","71,2","0","0"],
    [38035,"2018-06-03T05:00:00","38","9","8,9","1,5","356,6","25,5","72,4","0","0"],
    [38036,"2018-06-03T06:00:00","40","9","8,4","1,4","12,2","25,5","72,4","0","0"],
    [38037,"2018-06-03T07:00:00","43","5","8,3","1","34,5","25,7","72,2","5,3","0"],
    [38038,"2018-06-03T08:00:00","38","7","9,8","2,8","283,7","26,3","70,4","60,6","0"],
    [38039,"2018-06-03T09:00:00","42","8","12,1","1,5","349,8","28","65,5","165,6","0"],
    [38040,"2018-06-03T10:00:00","38","4","25,1","3,1","17","30,2","57,3","365,1","0"],
    [38041,"2018-06-03T11:00:00","38","8","32,8","3","348","30,8","54,5","185,2","0"],
    [38042,"2018-06-03T12:00:00","36","6","41,6","3,2","9,2","31,5","52,1","258,8","0"],
    [38043,"2018-06-03T13:00:00","36","2","48,7","2,6","9,2","31,7","49,6","187","0"],
    [38044,"2018-06-03T14:00:00","24","2","52,8","2,2","247,8","32,8","44,8","270,9","0"],
    [38045,"2018-06-03T15:00:00","33","15","59","3,6","236,3","33,6","40,4","286,7","0"],
    [38046,"2018-06-03T16:00:00","35","1","71,2","3,1","223,6","34,1","40,1","254,5","0"],
    [38047,"2018-06-03T17:00:00","49","9","69","3,9","234,6","33,7","42,5","106,6","0"],
    [38048,"2018-06-03T18:00:00","24","5","46,7","2,7","138,5","32,9","42,1","41,4","0"],
    [38049,"2018-06-03T19:00:00","20","ND","16,9","3,7","116,9","30,9","45,1","0","0"],
    [38050,"2018-06-03T20:00:00","54","3","10,1","1,8","245,3","29,4","52,4","0","0"],
    [38051,"2018-06-03T21:00:00","38","4","10,1","3,7","260,6","27,1","64,8","0","0"],
    [38052,"2018-06-03T22:00:00","28","2","10,6","2,1","229,5","27,3","62,3","0","0"],
    [38053,"2018-06-03T23:00:00","36","1","10,3","2,4","272,9","27,3","62,3","0","0"],
    [38054,"2018-06-04T00:00:00","38","ND","9,3","1,9","8,9","26,8","65","0","0"],
    [38055,"2018-06-04T01:00:00","30","ND","8,9","1,5","1,2","26,6","66,6","0","0"],
    [38056,"2018-06-04T02:00:00","27","ND","8,4","1,3","336,3","26,5","69,3","0","0"],
    [38057,"2018-06-04T03:00:00","36","ND","8,5","0,5","280,9","25,8","72,3","0","0"],
    [38058,"2018-06-04T04:00:00","35","ND","8,4","0,6","301,4","25,7","72,1","0","0"],
    [38059,"2018-06-04T05:00:00","31","ND","8,1","0,4","200,2","25,4","73,1","0","0"],
    [38060,"2018-06-04T06:00:00","48","4","8,3","1,3","312,9","25,6","72,9","0","0"],
    [38061,"2018-06-04T07:00:00","39","ND","9,1","1,1","41,6","25,7","72,9","10,3","0"],
    [38062,"2018-06-04T08:00:00","ND","ND","ND","ND","ND","ND","ND","ND","ND"],
    [38063,"2018-06-04T09:00:00","ND","ND","ND","ND","ND","ND","ND","ND","ND"],
    [38064,"2018-06-04T10:00:00","51","ND","16,9","2,3","290,6","28,9","61,4","194,3","0"],
    [38065,"2018-06-04T11:00:00","35","ND","28,8","2,8","302,4","29,9","55,7","204,1","0"],
    [38066,"2018-06-04T12:00:00","32","1","41,2","0,9","311,5","30,3","54,7","168","0"],
    [38067,"2018-06-04T13:00:00","48","9","42,7","3,2","263,2","30,4","53,6","140","0"],
    [38068,"2018-06-04T14:00:00","46","13","42,3","3,9","275,7","30,6","53,1","148,8","0"],
    [38069,"2018-06-04T15:00:00","39","10","59,7","2,7","242,8","32,1","48,8","261,1","0"],
    [38070,"2018-06-04T16:00:00","37","10","53,3","3,2","257,8","32,3","47,2","174,8","0"],
    [38071,"2018-06-04T17:00:00","49","8","37,8","3,8","273,4","32","47,6","86,1","0"],
    [38072,"2018-06-04T18:00:00","52","5","34,6","2,1","332,1","31,4","50,1","14,6","0"],
    [38073,"2018-06-04T19:00:00","60","5","36,2","3,4","52,8","30,5","52,2","0","0"],
    [38074,"2018-06-04T20:00:00","53","10","18,3","2,8","343,2","28,8","57,6","0","0"],
    [38075,"2018-06-04T21:00:00","38","7","9,8","3,2","287,6","26,9","64,5","0","0,25"],
    [38076,"2018-06-04T22:00:00","47","3","9,7","2,2","209,8","26,3","72","0","0"],
    [38077,"2018-06-04T23:00:00","44","17","8,6","1,1","307","26,3","73,2","0","0"],
    [38078,"2018-06-05T00:00:00","23","ND","7,9","1,7","5,2","25,8","75,2","0","0"],
    [38079,"2018-06-05T01:00:00","28","ND","8,4","1,5","316,1","25,5","75,3","0","0"],
    [38080,"2018-06-05T02:00:00","25","ND","8,1","1,7","300,3","25,2","76,6","0","0"],
    [38081,"2018-06-05T03:00:00","20","ND","8","1,9","357,6","24,6","76","0","0"],
    [38082,"2018-06-05T04:00:00","18","ND","8,1","1,2","349,9","24,4","75,8","0","0"],
    [38083,"2018-06-05T05:00:00","40","1","8,1","0,6","218,8","24,3","76,6","0","0"],
    [38084,"2018-06-05T06:00:00","64","12","8,5","1","248,2","24,7","75,2","0","0"],
    [38085,"2018-06-05T07:00:00","83","17","8,7","1,9","258","24,6","75,1","8","0"],
    [38086,"2018-06-05T08:00:00","74","19","ND","1,4","326,8","25,4","72,4","44,9","0"],
    [38087,"2018-06-05T09:00:00","63","10","12,6","1,2","288","27,7","64","179,3","0"],
    [38088,"2018-06-05T10:00:00","49","13","17,8","2,2","275,7","29,3","57","231,9","0"],
    [38089,"2018-06-05T11:00:00","43","10","31,5","2,7","241,3","30,5","52,4","269,8","0"],
    [38090,"2018-06-05T12:00:00","63","18","35,5","3,5","259,5","30,5","53,3","225,6","0"],
    [38091,"2018-06-05T13:00:00","36","7","49","2,3","230,2","31,8","49,6","329,1","0"],
    [38092,"2018-06-05T14:00:00","33","5","49,6","3,1","244,3","33,6","43,2","371,5","0"],
    [38093,"2018-06-05T15:00:00","26","6","60,5","2","265,6","34","40,9","262,8","0"],
    [38094,"2018-06-05T16:00:00","31","1","50,3","1,5","243,2","34,1","40,3","114,2","0"],
    [38095,"2018-06-05T17:00:00","32","1","35,5","3,8","97,9","32,8","40,6","59,1","0"],
    [38096,"2018-06-05T18:00:00","37","2","20,1","4,4","76,6","31,7","43,5","9,8","0"],
    [38097,"2018-06-05T19:00:00","94","33","36,2","3,5","35,1","30,4","54,3","0","0"],
    [38098,"2018-06-05T20:00:00","52","14","17,9","2,6","195","27,9","67,1","0","5,08"],
    [38099,"2018-06-05T21:00:00","30","10","15,5","2","131,5","26,6","70,8","0","0"],
    [38100,"2018-06-05T22:00:00","33","13","6,9","1,4","141,2","27,5","65,6","0","0"],
    [38101,"2018-06-05T23:00:00","55","19","7,2","1,6","208,9","27","69,1","0","0"],
    [38102,"2018-06-06T00:00:00","39","13","7,2","0,5","317,1","26,6","69,8","0","0"],
    [38103,"2018-06-06T01:00:00","27","4","7,9","1","304,5","26,8","67,1","0","0"],
    [38104,"2018-06-06T02:00:00","21","ND","7,7","2,3","22,7","26,3","69,7","0","0"],
    [38105,"2018-06-06T03:00:00","36","3","6,9","1,4","350,3","25,5","73,4","0","0"],
    [38106,"2018-06-06T04:00:00","27","4","6,8","0,2","225","25,2","75,2","0","0"],
    [38107,"2018-06-06T05:00:00","48","3","6,5","2,1","293","24,8","75,8","0","0"],
    [38108,"2018-06-06T06:00:00","67","18","6,3","1,3","322","24,5","75,9","0","0"],
    [38109,"2018-06-06T07:00:00","65","7","6,5","1,4","350,6","24,6","75,1","15,3","0"],
    [38110,"2018-06-06T08:00:00","56","9","7,3","0,5","17,7","26,1","69,9","86,5","0"],
    [38111,"2018-06-06T09:00:00","48","12","16,2","1,2","37,3","29,7","55,6","243,6","0"],
    [38112,"2018-06-06T10:00:00","31","6","32,5","1,8","317,6","31","49,7","326,7","0"],
    [38113,"2018-06-06T11:00:00","38","3","41,6","3,1","262","32,1","46,1","392,9","0"],
    [38114,"2018-06-06T12:00:00","33","2","56,9","2,3","258,3","33,4","41,7","408,8","0"],
    [38115,"2018-06-06T13:00:00","35","11","58,6","4","267,1","33,3","41,1","310,9","0"],
    [38116,"2018-06-06T14:00:00","43","16","47,9","4,4","252,6","33,1","42,5","250,2","0"],
    [38117,"2018-06-06T15:00:00","49","14","53,3","5,8","248,4","32,8","44,5","235,3","0"],
    [38118,"2018-06-06T16:00:00","39","13","42,5","5,4","230,5","32,4","46,4","129,8","0"],
    [38119,"2018-06-06T17:00:00","32","7","21,4","4,5","226,7","31,6","49,6","73,3","0"],
    [38120,"2018-06-06T18:00:00","32","4","15","3,1","124,9","30,9","49","19,7","0"],
    [38121,"2018-06-06T19:00:00","23","1","11,2","4","124,9","29,5","48,9","0","0"],
    [38122,"2018-06-06T20:00:00","76","28","7,6","2,6","228,4","28,7","53,4","0","0"],
    [38123,"2018-06-06T21:00:00","49","2","7,2","3,4","261,8","26,8","61,3","0","0"],
    [38124,"2018-06-06T22:00:00","41","1","7,4","3,5","253,7","25,5","66","0","0"],
    [38125,"2018-06-06T23:00:00","30","2","8,8","3,1","250","25,6","64,9","0","0"],
    [38126,"2018-06-07T00:00:00","29","ND","7,6","2,2","260,5","25,1","67,5","0","0"],
    [38127,"2018-06-07T01:00:00","48","ND","8,5","1,7","217,3","24,5","69,9","0","0"],
    [38128,"2018-06-07T02:00:00","35","11","9","1,2","172,6","24,7","69,2","0","0"],
    [38129,"2018-06-07T03:00:00","24","6","9","0,8","141,5","24,9","68,6","0","0"],
    [38130,"2018-06-07T04:00:00","22","2","6,6","1,5","344,6","24,5","71,3","0","0"],
    [38131,"2018-06-07T05:00:00","29","3","6,2","1,6","31,5","24,5","71,9","0","0"],
    [38132,"2018-06-07T06:00:00","38","2","6","0,6","30,9","24,9","69,7","0","0"],
    [38133,"2018-06-07T07:00:00","88","24","6,9","1,4","316,7","25,5","68,2","13,3","0"],
    [38134,"2018-06-07T08:00:00","104","15","6,9","2,2","319,8","26","67,2","34,5","0"],
    [38135,"2018-06-07T09:00:00","66","14","13,3","2,6","307,1","28,1","59,9","243,3","0"],
    [38136,"2018-06-07T10:00:00","46","8","20,9","1,8","309,4","30,6","50,7","322,2","0"],
    [38137,"2018-06-07T11:00:00","37","6","36","2,8","272,9","31,9","45,3","408,7","0"],
    [38138,"2018-06-07T12:00:00","26","5","47,6","2,9","287,8","33,3","40,5","442,9","0"],
    [38139,"2018-06-07T13:00:00","29","18","61","2,9","254,9","34,5","37,8","445,8","0"],
    [38140,"2018-06-07T14:00:00","34","3","79","3,1","227,2","34,9","36,7","392,8","0"],
    [38141,"2018-06-07T15:00:00","44","11","94,1","3","254","35,5","35,4","291,6","0"],
    [38142,"2018-06-07T16:00:00","43","11","68,4","3,9","203","34,5","37,5","101,7","0"],
    [38143,"2018-06-07T17:00:00","29","6","31,6","4,2","132,9","33,2","40,2","53,3","0"],
    [38144,"2018-06-07T18:00:00","22","1","23,3","4,8","120","32,3","41,5","21,8","0"],
    [38145,"2018-06-07T19:00:00","54","8","8,9","2,8","170,3","31,3","45,1","0","0"],
    [38146,"2018-06-07T20:00:00","80","ND","7,8","2,8","272,3","29,6","53","0","0"],
    [38147,"2018-06-07T21:00:00","72","9","8","3,2","272,7","28,2","60,3","0","0"],
    [38148,"2018-06-07T22:00:00","68","8","7","2,7","256,4","28","61,3","0","0"],
    [38149,"2018-06-07T23:00:00","41","3","7,2","2,6","284,3","27,9","61,6","0","0"],
    [38150,"2018-06-08T00:00:00","28","1","7,6","2,5","290,3","27,6","62,6","0","0"],
    [38151,"2018-06-08T01:00:00","22","ND","8,1","2,1","264,3","27,1","64,3","0","0"],
    [38152,"2018-06-08T02:00:00","31","ND","8,6","0,7","6,8","27,1","65,5","0","0"],
    [38153,"2018-06-08T03:00:00","32","2","9,4","2","299,6","27","67,2","0","0"],
    [38154,"2018-06-08T04:00:00","47","11","8,6","2,6","287,7","26,8","67,3","0","0"],
    [38155,"2018-06-08T05:00:00","124","59","6,8","2","258,2","26,2","69","0","0"],
    [38156,"2018-06-08T06:00:00","73","19","6,8","1,2","257,4","26,2","68,5","0","0"],
    [38157,"2018-06-08T07:00:00","75","7","7,3","0,9","58,9","26,8","66,4","28,4","0"],
    [38158,"2018-06-08T08:00:00","59","11","10,9","2,1","7,8","29","59,2","132,2","0"],
    [38159,"2018-06-08T09:00:00","55","12","19,7","2,4","346,5","30,8","54,1","236,9","0"],
    [38160,"2018-06-08T10:00:00","38","17","33,5","2,3","0,3","32,3","48,2","325,9","0"],
    [38161,"2018-06-08T11:00:00","63","4","48,2","2,4","0,2","33,2","45,1","339,4","0"],
    [38162,"2018-06-08T12:00:00","61","17","72,7","3","264,1","33,8","42,6","290,2","0"],
    [38163,"2018-06-08T13:00:00","69","21","79,7","3,2","267,8","33,8","42,9","257,1","0"],
    [38164,"2018-06-08T14:00:00","48","12","64,6","4,5","262,1","34","42,4","277,7","0"],
    [38165,"2018-06-08T15:00:00","39","5","60,8","2,8","261,7","34,8","40,3","217,8","0"],
    [38166,"2018-06-08T16:00:00","31","ND","50,7","3,3","86,4","33,7","40,6","79,7","0"],
    [38167,"2018-06-08T17:00:00","27","ND","38,7","4,3","103,2","33,7","39,5","92,6","0"],
    [38168,"2018-06-08T18:00:00","31","ND","20,6","5","104,5","32,6","41,9","14,2","0"],
    [38169,"2018-06-08T19:00:00","28","ND","12,3","5,2","106,8","31,3","45,9","0","0"],
    [38170,"2018-06-08T20:00:00","53","6","9,9","2,7","148,6","30,6","48,9","0","0"],
    [38171,"2018-06-08T21:00:00","74","18","9,8","3,2","270,1","28,9","58,3","0","0"],
    [38172,"2018-06-08T22:00:00","55","21","9,2","2,9","265,6","28,1","62,6","0","0"],
    [38173,"2018-06-08T23:00:00","36","ND","9,1","2,6","249,6","27,9","63","0","0"],
    [38174,"2018-06-09T00:00:00","44","5","9,3","1","341,1","28","61,6","0","0"],
    [38175,"2018-06-09T01:00:00","70","26","9,9","1,9","290,6","27,9","61,9","0","0"],
    [38176,"2018-06-09T02:00:00","74","14","8,8","1,8","329,8","27,4","65,5","0","0"],
    [38177,"2018-06-09T03:00:00","57","16","8,7","1,4","352,3","27,5","64,9","0","0"],
    [38178,"2018-06-09T04:00:00","61","22","9,3","1,4","303,3","27,2","67,1","0","0"],
    [38179,"2018-06-09T05:00:00","80","20","8,7","2,1","300,9","26,3","72,8","0","0"],
    [38180,"2018-06-09T06:00:00","59","15","8,9","2,2","26,2","26,5","70,3","0","0"],
    [38181,"2018-06-09T07:00:00","56","5","8,7","1,6","23,1","26,8","69,2","18,5","0"],
    [38182,"2018-06-09T08:00:00","81","18","9,8","2,5","322","28,1","64,9","77,3","0"],
    [38183,"2018-06-09T09:00:00","59","14","13","2,5","335,3","29,7","56,4","169,9","0"],
    [38184,"2018-06-09T10:00:00","38","7","22,4","2,1","320,2","30,7","52,5","237,7","0"],
    [38185,"2018-06-09T11:00:00","45","9","38","2,2","279,3","32,1","48,4","278,6","0"],
    [38186,"2018-06-09T12:00:00","40","14","54,1","2,6","281,7","33","46,1","325,8","0"],
    [38187,"2018-06-09T13:00:00","48","7","59,5","2,2","251,3","33,8","43","317,5","0"],
    [38188,"2018-06-09T14:00:00","57","3","67,2","3,5","254,5","34,9","39,3","332,9","0"],
    [38189,"2018-06-09T15:00:00","46","17","75,9","3,8","235,8","34,6","40,5","246,9","0"],
    [38190,"2018-06-09T16:00:00","50","12","64","3,6","240,3","34,3","42","164,2","0"],
    [38191,"2018-06-09T17:00:00","44","8","31,6","4,2","223,8","33,4","44,8","35,8","0"],
    [38192,"2018-06-09T18:00:00","82","15","35,7","8","82,4","29,3","51,5","3,3","0"],
    [38193,"2018-06-09T19:00:00","48","16","14,1","5,3","89,2","28,9","56,1","0","0"],
    [38194,"2018-06-09T20:00:00","53","9","9,4","1,8","261,2","28,8","57,2","0","0"],
    [38195,"2018-06-09T21:00:00","73","17","9,3","2,4","329,2","28,2","59","0","0"],
    [38196,"2018-06-09T22:00:00","61","17","9,9","2,1","351,4","28,1","60,8","0","0"],
    [38197,"2018-06-09T23:00:00","50","1","9","1,6","344,1","27,6","65,4","0","5,08"],
    [38198,"2018-06-10T00:00:00","22","2","8,7","1","166","25,4","80","0","15,24"],
    [38199,"2018-06-10T01:00:00","18","2","8,3","1,3","312,8","25,5","77,9","0","0,25"],
    [38200,"2018-06-10T02:00:00","26","2","8,6","2,4","45,4","26","73,9","0","0"],
    [38201,"2018-06-10T03:00:00","26","1","8,5","1","334,1","26","72,7","0","0"],
    [38202,"2018-06-10T04:00:00","36","3","8,4","0,9","311,9","25,8","75,2","0","0"],
    [38203,"2018-06-10T05:00:00","29","6","8,5","1,2","326,6","25,8","75,1","0","0"],
    [38204,"2018-06-10T06:00:00","40","4","8,9","2","346","25,3","75,5","0","0"],
    [38205,"2018-06-10T07:00:00","22","3","9,9","2,8","24,1","25","75,2","13,8","0"],
    [38206,"2018-06-10T08:00:00","34","5","10,6","1,6","359,2","26,4","70,7","75,2","0"],
    [38207,"2018-06-10T09:00:00","41","6","17,4","1,2","9,2","28,3","63","133,6","0"],
    [38208,"2018-06-10T10:00:00","27","3","24,8","1,7","332,1","29,2","58,6","175,7","0"],
    [38209,"2018-06-10T11:00:00","17","2","40","1,2","60,6","30,9","53,5","342,2","0"],
    [38210,"2018-06-10T12:00:00","23","5","55,3","1,1","295,7","32,5","46,4","362,1","0"],
    [38211,"2018-06-10T13:00:00","14","1","57,6","3,1","269","33,6","42,7","439,5","0"],
    [38212,"2018-06-10T14:00:00","23","ND","57,6","4,3","285,6","33,9","40,3","368,3","0"],
    [38213,"2018-06-10T15:00:00","30","4","78","2,9","253,5","34,3","39,8","270,4","0"],
    [38214,"2018-06-10T16:00:00","45","15","81,4","1,5","198,3","33,8","40,1","133,1","0"],
    [38215,"2018-06-10T17:00:00","15","ND","39,3","6,2","102,3","33,2","39,9","139,5","0"],
    [38216,"2018-06-10T18:00:00","10","ND","28","4,9","110,3","31,8","41,9","33,3","0"],
    [38217,"2018-06-10T19:00:00","24","ND","24,8","6,5","37,7","29,1","52,3","0,1","0"],
    [38218,"2018-06-10T20:00:00","34","7","17,3","3,8","320,8","27","65,1","0","1,78"],
    [38219,"2018-06-10T21:00:00","27","6","12,2","0,6","166,1","26,2","70,4","0","0"],
    [38220,"2018-06-10T22:00:00","56","8","11","1,3","278,9","26,7","66,5","0","0"],
    [38221,"2018-06-10T23:00:00","40","10","11,6","0,5","12,1","26,6","66,6","0","0"],
    [38222,"2018-06-11T00:00:00","29","6","10,1","2,6","347,2","26","71,5","0","0"],
    [38223,"2018-06-11T01:00:00","29","1","10,2","2,5","332,5","25,7","72,5","0","0"],
    [38224,"2018-06-11T02:00:00","32","ND","11,5","1,9","329,6","25,2","73,9","0","0"],
    [38225,"2018-06-11T03:00:00","17","ND","13,2","1,8","351,4","25,3","72,8","0","0"],
    [38226,"2018-06-11T04:00:00","21","ND","12,9","1,8","347,8","25,1","73,9","0","0"],
    [38227,"2018-06-11T05:00:00","12","ND","14,1","2,1","16","24,9","74,2","0","0"],
    [38228,"2018-06-11T06:00:00","16","ND","11","2,4","312,5","24,7","75,7","0","0"],
    [38229,"2018-06-11T07:00:00","23","ND","10,9","1,2","13,1","24,9","74,9","26,2","0"],
    [38230,"2018-06-11T08:00:00","25","ND","12,9","1,5","359,4","26,3","69,7","72,5","0"],
    [38231,"2018-06-11T09:00:00","26","3","14,3","2,2","304,6","26,9","66,9","66,2","0"],
    [38232,"2018-06-11T10:00:00","17","6","22,5","2,1","301,4","28,4","60,8","202,9","0"],
    [38233,"2018-06-11T11:00:00","32","5","31,4","2,4","260,4","30,3","54,1","324,8","0"],
    [38234,"2018-06-11T12:00:00","13","3","38,9","3,4","267,9","30,7","51,6","288,9","0"],
    [38235,"2018-06-11T13:00:00","11","4","40,5","3","271,7","32,1","45,7","393,1","0"],
    [38236,"2018-06-11T14:00:00","19","2","57,1","2","286,5","33,9","39,9","429,8","0"],
    [38237,"2018-06-11T15:00:00","22","ND","65,5","2,3","243","34,3","39,2","305,2","0"],
    [38238,"2018-06-11T16:00:00","34","10","73,3","2,7","260,1","34","40,1","223,4","0"],
    [38239,"2018-06-11T17:00:00","39","10","61,1","3,3","254","33,7","40,8","106,5","0"],
    [38240,"2018-06-11T18:00:00","38","18","42,4","2,2","275,4","32,6","44,4","11,6","0"],
    [38241,"2018-06-11T19:00:00","21","ND","25,2","4","104","30,8","45,9","0","0"],
    [38242,"2018-06-11T20:00:00","24","2","14","4,1","128,8","29,5","49,3","0","0"],
    [38243,"2018-06-11T21:00:00","25","7","12,4","2,4","264,2","28,5","56","0","0"],
    [38244,"2018-06-11T22:00:00","24","3","13","4","225,9","27,7","60","0","0"],
    [38245,"2018-06-11T23:00:00","16","ND","13,9","3","207,8","27","64,8","0","0,25"],
    [38246,"2018-06-12T00:00:00","ND","ND","11,8","ND","ND","ND","ND","ND","ND"],
    [38247,"2018-06-12T01:00:00","17","ND","12,7","ND","ND","ND","ND","ND","ND"],
    [38248,"2018-06-12T02:00:00","8","ND","11,9","ND","ND","ND","ND","ND","ND"],
    [38249,"2018-06-12T03:00:00","8","1","11,4","ND","ND","ND","ND","ND","ND"],
    [38250,"2018-06-12T04:00:00","8","2","10,2","ND","ND","ND","ND","ND","ND"],
    [38251,"2018-06-12T05:00:00","38","ND","9,5","ND","ND","ND","ND","ND","ND"],
    [38252,"2018-06-12T06:00:00","43","11","9,7","ND","ND","ND","ND","ND","ND"],
    [38253,"2018-06-12T07:00:00","27","5","9,8","ND","ND","ND","ND","ND","ND"],
    [38254,"2018-06-12T08:00:00","49","3","9,6","1,1","205,3","25,6","67,9","57,8","0"],
    [38255,"2018-06-12T09:00:00","35","5","11,7","3,3","275,8","25,9","67,8","88,7","0"],
    [38256,"2018-06-12T10:00:00","28","5","18,1","1,8","27,3","28","61,4","201,4","0"],
    [38257,"2018-06-12T11:00:00","44","5","31,9","0,8","341,5","30,4","52,8","355,9","0"],
    [38258,"2018-06-12T12:00:00","38","4","56,7","1,7","276,8","32,5","43","435,5","0"],
    [38259,"2018-06-12T13:00:00","39","9","74,7","2,4","231,9","33,4","39,5","440,8","0"],
    [38260,"2018-06-12T14:00:00","27","7","76,2","2,9","246,3","34,4","36,8","408,8","0"],
    [38261,"2018-06-12T15:00:00","21","2","77,2","3,1","244,6","34,5","36","314,2","0"],
    [38262,"2018-06-12T16:00:00","32","4","70,6","3,3","243,1","34,6","35,5","209,1","0"],
    [38263,"2018-06-12T17:00:00","27","ND","62,4","3,3","226,1","34,4","35,9","140,3","0"],
    [38264,"2018-06-12T18:00:00","50","14","36,1","3,5","251,7","34,2","36,7","63,1","0"],
    [38265,"2018-06-12T19:00:00","42","9","19,8","1,4","160,9","32,6","39,8","0","0"],
    [38266,"2018-06-12T20:00:00","26","7","9,1","3,1","111,3","31,1","40,5","0","0"],
    [38267,"2018-06-12T21:00:00","29","5","10,2","1,2","151,5","29,9","46,7","0","0"],
    [38268,"2018-06-12T22:00:00","33","4","10,2","3,4","271,4","27","62","0","0"],
    [38269,"2018-06-12T23:00:00","37","2","11,1","3,2","236,8","26,4","62,2","0","0"],
    [38270,"2018-06-13T00:00:00","21","ND","13","3,4","233,4","26,8","59,4","0","0"],
    [38271,"2018-06-13T01:00:00","41","2","11","2,4","231,2","25,7","64,4","0","0"],
    [38272,"2018-06-13T02:00:00","32","2","9,6","2","248,4","25,2","66,4","0","0"],
    [38273,"2018-06-13T03:00:00","27","4","10,7","0,9","307,9","25","67","0","0"],
    [38274,"2018-06-13T04:00:00","25","2","10,5","1","21","25,4","65,8","0","0"],
    [38275,"2018-06-13T05:00:00","42","13","9,3","0,9","295,2","25,5","65,5","0","0"],
    [38276,"2018-06-13T06:00:00","62","15","9,6","1,8","7,1","25,2","69","0","0"],
    [38277,"2018-06-13T07:00:00","73","23","9,9","1,8","352,8","25,1","71,3","9,6","0"],
    [38278,"2018-06-13T08:00:00","55","17","11,9","2,8","34,5","26,2","65,6","62,1","0"],
    [38279,"2018-06-13T09:00:00","69","18","15,6","3,5","300,5","27,2","62","141,9","0"],
    [38280,"2018-06-13T10:00:00","43","9","28,2","1,9","4","29","53,6","163,7","0"],
    [38281,"2018-06-13T11:00:00","39","4","43,4","3","28,3","30,7","49,7","271,1","0"],
    [38282,"2018-06-13T12:00:00","38","ND","56","2,3","11,4","32,3","44,5","299,2","0"],
    [38283,"2018-06-13T13:00:00","44","2","67,1","2,7","4,8","33,9","39,7","398,1","0"],
    [38284,"2018-06-13T14:00:00","40","9","76,5","2,1","346,6","34,4","37,2","410,6","0"],
    [38285,"2018-06-13T15:00:00","39","5","79,2","2,4","290,2","34,8","36,1","298,1","0"],
    [38286,"2018-06-13T16:00:00","52","8","72,2","2,5","340,3","34,5","36,3","172,1","0"],
    [38287,"2018-06-13T17:00:00","44","12","78,7","2,2","3,1","34,3","35,9","111,5","0"],
    [38288,"2018-06-13T18:00:00","55","13","70","2,1","85,2","32,7","40,9","15,1","0"],
    [38289,"2018-06-13T19:00:00","79","26","29,5","2,6","122,9","31","47,2","0","0"],
    [38290,"2018-06-13T20:00:00","48","7","17,6","2,8","133,6","30,2","49,2","0","0"],
    [38291,"2018-06-13T21:00:00","64","23","12,6","3,4","257,1","27,9","61,7","0","0"],
    [38292,"2018-06-13T22:00:00","92","37","14,3","3,4","231,1","27,5","63,1","0","0"],
    [38293,"2018-06-13T23:00:00","60","17","12,1","2,4","262,4","27,4","62,7","0","0"],
    [38294,"2018-06-14T00:00:00","33","4","11,7","1,2","7,5","27,1","63,9","0","0"],
    [38295,"2018-06-14T01:00:00","39","5","11,2","2","337,3","26,6","68,2","0","0,76"],
    [38296,"2018-06-14T02:00:00","39","9","10,5","1,6","8,3","25,7","75,2","0","2,29"],
    [38297,"2018-06-14T03:00:00","30","4","10","0,8","328,2","25,2","77,4","0","0,76"],
    [38298,"2018-06-14T04:00:00","28","4","10,2","2,3","54,6","25,3","76","0","0"],
    [38299,"2018-06-14T05:00:00","41","8","9,8","1,8","278,4","25,4","76,3","0","0"],
    [38300,"2018-06-14T06:00:00","54","14","9,4","0,8","234,4","25,2","77,1","0","0"],
    [38301,"2018-06-14T07:00:00","48","8","9,6","0,3","332,2","25,7","74,6","4,3","0"],
    [38302,"2018-06-14T08:00:00","77","31","10,1","1,4","238,8","26,2","73","35,3","0"],
    [38303,"2018-06-14T09:00:00","67","17","11,5","0,8","303","28,2","65,5","162,9","0"],
    [38304,"2018-06-14T10:00:00","76","32","18,4","2,7","277,9","28,9","61,8","126,8","0"],
    [38305,"2018-06-14T11:00:00","31","6","24,5","4,2","267,2","29,4","56,9","243,6","0"],
    [38306,"2018-06-14T12:00:00","23","4","50,2","2,4","227","31,9","48,9","406","0"],
    [38307,"2018-06-14T13:00:00","34","14","79,6","1,8","189,9","33,1","43,9","415,6","0"],
    [38308,"2018-06-14T14:00:00","45","10","95,2","2,1","245","34","39,8","314,3","0"],
    [38309,"2018-06-14T15:00:00","42","15","81,8","4,5","296","34","38,4","239,7","0"],
    [38310,"2018-06-14T16:00:00","36","12","54,3","2,5","112,7","32,3","41,4","60,7","0"],
    [38311,"2018-06-14T17:00:00","27","6","32,6","6,1","115,8","30,7","45","48,6","0"],
    [38312,"2018-06-14T18:00:00","29","1","23,2","3,9","128,7","30,4","45,6","19,3","0"],
    [38313,"2018-06-14T19:00:00","52","8","13,1","2,6","256,7","29,2","50,7","0","0"],
    [38314,"2018-06-14T20:00:00","51","16","16,2","2,9","351,2","28,2","52,4","0","0"],
    [38315,"2018-06-14T21:00:00","37","1","13","3,8","308,2","27,1","56,8","0","0"],
    [38316,"2018-06-14T22:00:00","45","3","14,4","2,3","1,9","26,1","61,6","0","0"],
    [38317,"2018-06-14T23:00:00","26","3","14,8","1,7","354,4","25,5","63,5","0","0"],
    [38318,"2018-06-15T00:00:00","27","ND","11,9","0,8","34,9","25,5","64,9","0","0"],
    [38319,"2018-06-15T01:00:00","25","ND","10,8","2,1","334,2","25,2","67,7","0","0"],
    [38320,"2018-06-15T02:00:00","43","ND","10,8","2,3","326,7","24,3","71,9","0","0"],
    [38321,"2018-06-15T03:00:00","38","ND","10,4","2","22,5","24,2","72,7","0","0"],
    [38322,"2018-06-15T04:00:00","23","ND","9,4","1,6","39,4","24,4","72,3","0","0"],
    [38323,"2018-06-15T05:00:00","66","8","9,2","1,5","266,4","24,6","72,7","0","0"],
    [38324,"2018-06-15T06:00:00","82","21","9,6","2,2","280,7","24,1","74,9","0","0"],
    [38325,"2018-06-15T07:00:00","83","18","10","1,3","316,6","24,3","74,1","5,8","0"],
    [38326,"2018-06-15T08:00:00","74","11","9,8","1","318,6","25,3","70,6","59,5","0"],
    [38327,"2018-06-15T09:00:00","61","13","16,2","2,1","272,7","27,6","61,6","202,2","0"],
    [38328,"2018-06-15T10:00:00","50","12","34,4","1,6","313,3","29,5","53,2","191,4","0"],
    [38329,"2018-06-15T11:00:00","45","9","52,3","2,8","248,5","30,9","48,6","325,2","0"],
    [38330,"2018-06-15T12:00:00","48","8","73,2","3,3","273","31,4","46,4","283,7","0"],
    [38331,"2018-06-15T13:00:00","32","9","70","2,3","277,2","32,5","42,8","264,7","0"],
    [38332,"2018-06-15T14:00:00","47","10","73,1","3,9","235,5","32,9","40,8","306,8","0"],
    [38333,"2018-06-15T15:00:00","50","10","88,8","3,1","243,8","33,8","39,2","316,7","0"],
    [38334,"2018-06-15T16:00:00","50","10","68,8","4,1","243,1","33,7","39,2","229,2","0"],
    [38335,"2018-06-15T17:00:00","35","8","59,1","0,9","204,1","32,9","40,7","65,5","0"],
    [38336,"2018-06-15T18:00:00","38","10","40,2","3,1","108,6","31,7","42","20","0"],
    [38337,"2018-06-15T19:00:00","66","16","19,4","3","152,3","30,5","46,3","0","0"],
    [38338,"2018-06-15T20:00:00","57","19","14,7","1,6","137,5","29,8","48,9","0","0"],
    [38339,"2018-06-15T21:00:00","79","27","12,1","3","269,6","28,5","55,5","0","0"],
    [38340,"2018-06-15T22:00:00","37","5","11,4","2,7","272,4","27,1","61","0","0"],
    [38341,"2018-06-15T23:00:00","40","5","11,6","2,6","278,5","26,8","61,8","0","0"],
    [38342,"2018-06-16T00:00:00","31","3","11,8","3,4","282,7","26,2","64,9","0","0"],
    [38343,"2018-06-16T01:00:00","27","1","12,3","1,3","259,1","25,8","66,5","0","0"],
    [38344,"2018-06-16T02:00:00","31","2","13,4","2,1","190,2","26,1","65,1","0","0"],
    [38345,"2018-06-16T03:00:00","17","ND","13,1","1,4","174,4","26,1","65,5","0","0"],
    [38346,"2018-06-16T04:00:00","25","ND","12,1","2,2","279,1","25,6","67,6","0","0"],
    [38347,"2018-06-16T05:00:00","30","ND","11,8","1,4","269,2","25,5","67,6","0","0"],
    [38348,"2018-06-16T06:00:00","59","5","10,1","0,5","254","25,7","67","0","0"],
    [38349,"2018-06-16T07:00:00","70","19","10,1","1,4","324,9","25,9","66,7","7,9","0"],
    [38350,"2018-06-16T08:00:00","62","12","12,4","1,3","34,9","26,7","65","62,6","0"],
    [38351,"2018-06-16T09:00:00","59","7","18,8","2,3","7,1","28,2","61","124,6","0"],
    [38352,"2018-06-16T10:00:00","46","6","31,3","3,1","31,1","30,3","53,2","331,9","0"],
    [38353,"2018-06-16T11:00:00","45","10","58,3","2","45,6","31,6","48,5","354,9","0"],
    [38354,"2018-06-16T12:00:00","33","6","70,4","1,6","334,9","32,8","43,7","301,3","0"],
    [38355,"2018-06-16T13:00:00","41","10","70,8","1,9","304,8","34","40,1","341,8","0"],
    [38356,"2018-06-16T14:00:00","48","11","71,1","4,1","284,6","33,9","39,7","307,5","0"],
    [38357,"2018-06-16T15:00:00","51","18","76,9","2,4","298,7","34,4","38,6","233,5","0"],
    [38358,"2018-06-16T16:00:00","56","17","80,3","2,4","272,5","34,4","38,5","171,9","0"],
    [38359,"2018-06-16T17:00:00","59","19","81,7","4,1","237,7","34,5","38,4","111,1","0"],
    [38360,"2018-06-16T18:00:00","44","9","46,5","2,3","163,1","33","41","18,5","0"],
    [38361,"2018-06-16T19:00:00","31","6","33,3","4,6","118,6","31,1","45,2","0","0"],
    [38362,"2018-06-16T20:00:00","30","5","21,2","4,4","115,4","30,6","46,6","0","0"],
    [38363,"2018-06-16T21:00:00","49","17","14,8","3,4","275,1","28,4","57,7","0","0"],
    [38364,"2018-06-16T22:00:00","51","12","13,2","2,3","228,9","27,4","61,1","0","0"],
    [38365,"2018-06-16T23:00:00","43","7","12,4","2,7","260,5","27,1","61,7","0","0"],
    [38366,"2018-06-17T00:00:00","55","5","12","2,4","271","26,4","65,4","0","0"],
    [38367,"2018-06-17T01:00:00","47","3","11","1,2","226,6","26,2","66,6","0","0"],
    [38368,"2018-06-17T02:00:00","40","ND","10,2","0,5","182,1","26,1","67","0","0"],
    [38369,"2018-06-17T03:00:00","30","ND","10,8","1","310,1","25,8","68,1","0","0"],
    [38370,"2018-06-17T04:00:00","44","ND","10,4","1,6","313,4","25,6","69","0","0"],
    [38371,"2018-06-17T05:00:00","60","8","9,9","1,2","355,1","25,1","71,3","0","0"],
    [38372,"2018-06-17T06:00:00","48","6","10","2,3","26,1","24,9","72,5","0","0"],
    [38373,"2018-06-17T07:00:00","61","12","9,7","1,2","278,2","24,8","73,4","7,7","0"],
    [38374,"2018-06-17T08:00:00","65","17","11,5","3,3","289,1","25,9","69,7","74,7","0"],
    [38375,"2018-06-17T09:00:00","62","23","21","2,3","314,9","28,7","58,1","216,1","0"],
    [38376,"2018-06-17T10:00:00","50","18","40,1","1,8","308,7","31,4","48,9","356,6","0"],
    [38377,"2018-06-17T11:00:00","42","10","54,7","2,8","271,5","32","47,4","397","0"],
    [38378,"2018-06-17T12:00:00","42","11","61,3","2,8","259,4","32,3","46","267,6","0"],
    [38379,"2018-06-17T13:00:00","38","15","67,8","3","262","33,6","41,7","373,6","0"],
    [38380,"2018-06-17T14:00:00","52","8","73","3,7","266","33,9","41","302,5","0"],
    [38381,"2018-06-17T15:00:00","48","18","73,5","3,6","280,4","33,5","41,2","191","0"],
    [38382,"2018-06-17T16:00:00","55","19","67,4","2,5","298,1","33,4","40,9","90,1","0"],
    [38383,"2018-06-17T17:00:00","66","19","47,2","2,7","268,6","32,9","43,6","36,9","0"],
    [38384,"2018-06-17T18:00:00","33","3","34,5","2,3","110","32,1","44,7","15,5","0"],
    [38385,"2018-06-17T19:00:00","39","3","29,2","4","101","31,1","44,4","0","0"],
    [38386,"2018-06-17T20:00:00","39","4","20,8","1,3","154,2","30,6","46,8","0","0"],
    [38387,"2018-06-17T21:00:00","47","5","12,8","2,2","276,1","29","56,5","0","0"],
    [38388,"2018-06-17T22:00:00","27","ND","14,5","2,2","225,6","28","58,8","0","0"],
    [38389,"2018-06-17T23:00:00","26","ND","15,1","2","222","27,6","59,3","0","0"],
    [38390,"2018-06-18T00:00:00","29","ND","14,3","2","287,9","27,3","60,7","0","0"],
    [38391,"2018-06-18T01:00:00","39","ND","12,1","0,9","341,4","26,9","63,5","0","0"],
    [38392,"2018-06-18T02:00:00","50","ND","11,8","1,6","302,5","26,7","65,1","0","0"],
    [38393,"2018-06-18T03:00:00","44","ND","11,6","1,6","298,4","26,2","67,3","0","0"],
    [38394,"2018-06-18T04:00:00","27","ND","10,7","1,4","333,8","26","61,8","0","0"],
    [38395,"2018-06-18T05:00:00","41","ND","10,2","1,6","316,5","25,8","61,6","0","0"],
    [38396,"2018-06-18T06:00:00","82","23","9,1","1,9","288,3","25,5","60,8","0","0"],
    [38397,"2018-06-18T07:00:00","111","35","11","2,1","311,5","25,4","60,7","19,9","0"],
    [38398,"2018-06-18T08:00:00","67","16","14,6","1,3","21,6","26,6","59,1","112,1","0"],
    [38399,"2018-06-18T09:00:00","62","15","19,3","2,1","287,6","28,5","54,1","159,5","0"],
    [38400,"2018-06-18T10:00:00","46","10","27,4","2,1","322,7","29,8","47,7","244,2","0"],
    [38401,"2018-06-18T11:00:00","59","6","39,6","2,4","275,2","31,1","43,7","262,4","0"],
    [38402,"2018-06-18T12:00:00","38","3","48,1","3,2","265,5","31,5","43,1","240,4","0"],
    [38403,"2018-06-18T13:00:00","59","14","60","3,7","289,9","32,5","40,2","287,7","0"],
    [38404,"2018-06-18T14:00:00","67","10","79,7","3","263,4","32,8","39,8","239,3","0"],
    [38405,"2018-06-18T15:00:00","68","10","86,7","3,7","246,4","33,7","38,8","251,9","0"],
    [38406,"2018-06-18T16:00:00","69","13","80,2","4,7","273,8","33","39,9","162,8","0"],
    [38407,"2018-06-18T17:00:00","80","19","50","3,7","278,8","32,7","38","66","0"],
    [38408,"2018-06-18T18:00:00","84","13","55","2,4","0,3","31,9","41,6","17,2","0"],
    [38409,"2018-06-18T19:00:00","92","16","49,3","2,7","37,6","31,1","43,3","0","0"],
    [38410,"2018-06-18T20:00:00","60","5","23,3","3","97,1","30,6","46,7","0","0"],
    [38411,"2018-06-18T21:00:00","60","15","16","1,9","5,9","29,3","52,4","0","0"],
    [38412,"2018-06-18T22:00:00","59","11","13,5","2,2","20,4","28,7","55,5","0","0"],
    [38413,"2018-06-18T23:00:00","78","20","13,8","2,4","290","27,9","58,3","0","0"],
    [38414,"2018-06-19T00:00:00","67","14","12,2","2,7","278,7","27,5","60,6","0","0"],
    [38415,"2018-06-19T01:00:00","39","8","12,7","0,7","229,3","27,1","62,8","0","0"],
    [38416,"2018-06-19T02:00:00","31","2","12,6","1,9","5,3","26,3","66,7","0","0"],
    [38417,"2018-06-19T03:00:00","47","3","15,7","1,6","358,8","25,6","69,7","0","0"],
    [38418,"2018-06-19T04:00:00","57","17","13,1","2,1","1,4","25,8","68,7","0","0"],
    [38419,"2018-06-19T05:00:00","46","1","11","1,7","5,5","25,3","69,1","0","0"],
    [38420,"2018-06-19T06:00:00","61","13","9,7","2,2","20,4","24,5","68,1","0,1","0"],
    [38421,"2018-06-19T07:00:00","110","24","11,3","1,1","358,5","25","67,9","26,5","0"],
    [38422,"2018-06-19T08:00:00","83","23","11,1","2,4","278,9","26,1","64,7","77,8","0"],
    [38423,"2018-06-19T09:00:00","70","20","18,1","3,1","284,7","28,1","56,9","213,9","0"],
    [38424,"2018-06-19T10:00:00","58","11","30,1","1,8","308","29,8","49,2","256,7","0"],
    [38425,"2018-06-19T11:00:00","49","10","56,8","2","187,3","31,5","44,2","369,8","0"],
    [38426,"2018-06-19T12:00:00","39","6","69,3","2,2","245,3","33,3","36,8","373,9","0"],
    [38427,"2018-06-19T13:00:00","38","5","74,4","3,4","299,2","33,9","33,4","378,2","0"],
    [38428,"2018-06-19T14:00:00","42","11","80,2","4","273,8","33,9","33,6","278,5","0"],
    [38429,"2018-06-19T15:00:00","37","10","76,8","3,3","256,3","34,3","32,5","211,4","0"],
    [38430,"2018-06-19T16:00:00","47","9","62,4","5,4","253,7","33,7","34,7","190,2","0"],
    [38431,"2018-06-19T17:00:00","35","7","42","5,5","263,9","32,6","37,1","107,1","0"],
    [38432,"2018-06-19T18:00:00","55","8","33","3,1","211,1","31,8","40,6","26,4","0"],
    [38433,"2018-06-19T19:00:00","42","5","27,9","4,4","109,1","30,4","43,6","0,6","0"],
    [38434,"2018-06-19T20:00:00","32","3","23,2","3,5","121","29,8","45","0","0"],
    [38435,"2018-06-19T21:00:00","41","1","12,5","2,9","277,5","28","56,2","0","0"],
    [38436,"2018-06-19T22:00:00","35","4","13,3","2,3","282,7","27,4","58,2","0","0"],
    [38437,"2018-06-19T23:00:00","22","2","15,5","2,9","267,6","26,8","60,3","0","0"],
    [38438,"2018-06-20T00:00:00","23","ND","16,9","2","253,7","26,7","58,9","0","0"],
    [38439,"2018-06-20T01:00:00","29","ND","16,4","1,3","220,9","26,2","61,6","0","0"],
    [38440,"2018-06-20T02:00:00","27","ND","16,7","1,6","278","25,6","64,1","0","0"],
    [38441,"2018-06-20T03:00:00","25","ND","16,3","1,2","332,4","25,1","66,5","0","0"],
    [38442,"2018-06-20T04:00:00","42","4","13,7","1,3","309,5","25","68,1","0","0"],
    [38443,"2018-06-20T05:00:00","55","7","10,8","0,9","356,8","24,5","71,1","0","0"],
    [38444,"2018-06-20T06:00:00","86","20","10,7","1,1","312,5","24,8","68,2","0","0"],
    [38445,"2018-06-20T07:00:00","78","27","10,7","1,5","298,5","24,5","69,4","13,2","0"],
    [38446,"2018-06-20T08:00:00","103","30","14,5","3","302,9","25,5","67,1","81,6","0"],
    [38447,"2018-06-20T09:00:00","63","23","21,2","2,7","314,6","27,4","57,6","154,5","0"],
    [38448,"2018-06-20T10:00:00","43","8","40,7","0,3","65,8","30,4","45,7","329,7","0"],
    [38449,"2018-06-20T11:00:00","63","13","56","2,7","259,9","31,6","42,4","417,8","0"],
    [38450,"2018-06-20T12:00:00","50","22","72,1","2,4","292,4","33","38,6","460,9","0"],
    [38451,"2018-06-20T13:00:00","60","10","65,6","4,4","297,1","33,1","35,4","309,6","0"],
    [38452,"2018-06-20T14:00:00","35","6","50,4","4,9","285,4","32,3","35,6","244","0"],
    [38453,"2018-06-20T15:00:00","34","5","70,3","3","251,5","34,3","32,7","370","0"],
    [38454,"2018-06-20T16:00:00","36","ND","56,9","3,8","265,8","34","32,2","196,4","0"],
    [38455,"2018-06-20T17:00:00","27","ND","58","2,6","267,8","33,1","34,2","72,1","0"],
    [38456,"2018-06-20T18:00:00","44","5","59","5,2","122","31,2","40,7","12,5","0"],
    [38457,"2018-06-20T19:00:00","42","5","26,4","5,3","141,1","29,7","43,7","0","0"],
    [38458,"2018-06-20T20:00:00","48","13","24,5","1,3","166,2","29,1","44,7","0","0"],
    [38459,"2018-06-20T21:00:00","53","9","16,9","3,5","250,3","27","56,4","0","0"],
    [38460,"2018-06-20T22:00:00","33","8","20,6","2,9","208,1","26,8","55,5","0","0"],
    [38461,"2018-06-20T23:00:00","31","8","15,7","3,2","256","26,1","59","0","0"],
    [38462,"2018-06-21T00:00:00","16","3","15,9","3,1","271,6","25,1","63,4","0","0"],
    [38463,"2018-06-21T01:00:00","27","ND","17,6","0,9","259,7","24,9","64,7","0","0"],
    [38464,"2018-06-21T02:00:00","19","ND","19,8","1,8","282,5","24,9","64,9","0","0"],
    [38465,"2018-06-21T03:00:00","12","ND","19,8","1,8","318,4","24,8","65,6","0","0"],
    [38466,"2018-06-21T04:00:00","29","ND","17,6","2,3","280,7","24,6","66,6","0","0"],
    [38467,"2018-06-21T05:00:00","31","ND","12,5","1,3","302,3","24","71,4","0","0,25"],
    [38468,"2018-06-21T06:00:00","67","24","11","1,6","347,3","24,1","71,3","0","0"],
    [38469,"2018-06-21T07:00:00","97","16","11,3","1,7","295,6","23,8","72,9","20,9","0"],
    [38470,"2018-06-21T08:00:00","83","11","12,8","1,8","337,8","25,2","65,7","50,8","0"],
    [38471,"2018-06-21T09:00:00","57","9","22,1","3,1","27,5","27","58,5","175","0"],
    [38472,"2018-06-21T10:00:00","43","9","36","2,1","4,7","30","49,5","317,2","0"],
    [38473,"2018-06-21T11:00:00","41","5","54,9","2,2","276,5","31,5","42,8","393,9","0"],
    [38474,"2018-06-21T12:00:00","35","8","63,3","2,6","275,3","32,8","39,1","439,5","0"],
    [38475,"2018-06-21T13:00:00","38","6","71,9","4","240,6","33,4","36,8","349,4","0"],
    [38476,"2018-06-21T14:00:00","44","8","92,1","2,1","253,4","33,8","37,1","348","0"],
    [38477,"2018-06-21T15:00:00","44","13","106,1","3,6","160,5","33,8","36,7","262,8","0"],
    [38478,"2018-06-21T16:00:00","61","11","47,6","6,7","108,4","32","39,3","84,1","0"],
    [38479,"2018-06-21T17:00:00","44","9","46,9","6,5","117,9","31,6","40,2","100,4","0"],
    [38480,"2018-06-21T18:00:00","47","4","45,9","5,3","122,7","30,9","41,3","28,7","0"],
    [38481,"2018-06-21T19:00:00","94","21","19","2,3","201,2","29,6","46,6","0","0"],
    [38482,"2018-06-21T20:00:00","63","16","13,5","3,5","266","27,5","56,2","0","0"],
    [38483,"2018-06-21T21:00:00","48","12","12,8","2,8","264,6","26","61,9","0","0"],
    [38484,"2018-06-21T22:00:00","41","7","14","3","263,3","25,5","64,2","0","0"],
    [38485,"2018-06-21T23:00:00","64","39","13,1","1,7","226,7","25,2","65,5","0","0"],
    [38486,"2018-06-22T00:00:00","52","13","13,6","1,7","234,5","25,2","65,3","0","0"],
    [38487,"2018-06-22T01:00:00","57","23","12,9","2,2","282,2","24,7","68","0","0"],
    [38488,"2018-06-22T02:00:00","55","12","11,5","1,8","14,5","24,4","69,4","0","0"],
    [38489,"2018-06-22T03:00:00","69","8","11,1","1,1","358","24,2","69,9","0","0"],
    [38490,"2018-06-22T04:00:00","79","12","10,8","2,1","316,8","24,1","70,8","0","0"],
    [38491,"2018-06-22T05:00:00","63","12","10,8","1,5","343,2","23,7","72","0","0"],
    [38492,"2018-06-22T06:00:00","96","27","10,6","1,1","3,5","23,4","74,5","0","0"],
    [38493,"2018-06-22T07:00:00","143","48","11,6","1,5","230,9","23,5","73,9","19,9","0"],
    [38494,"2018-06-22T08:00:00","104","24","13,2","2,6","256,4","24,7","68,5","109","0"],
    [38495,"2018-06-22T09:00:00","86","26","21,2","2","264,7","26,9","60,8","170","0"],
    [38496,"2018-06-22T10:00:00","70","26","37,9","2,8","282,5","28,7","53,8","224,3","0"],
    [38497,"2018-06-22T11:00:00","63","24","61,5","1,1","267,4","30,9","46,7","302,2","0"],
    [38498,"2018-06-22T12:00:00","78","22","86,9","1,4","315,4","33,1","40,9","418,4","0"],
    [38499,"2018-06-22T13:00:00","74","21","93,7","2,2","287,2","34,3","36,3","416,7","0"],
    [38500,"2018-06-22T14:00:00","62","22","107,8","2,9","277,2","34,6","35,3","359,8","0"],
    [38501,"2018-06-22T15:00:00","57","15","118","2,9","252,7","35","34,4","319,4","0"],
    [38502,"2018-06-22T16:00:00","82","27","149,7","2,5","232,1","34,6","35,4","150,2","0"],
    [38503,"2018-06-22T17:00:00","58","21","111,4","2,2","205,8","34,4","35,6","101,4","0"],
    [38504,"2018-06-22T18:00:00","35","ND","51,9","5,4","114,1","33,1","37,2","47,8","0"],
    [38505,"2018-06-22T19:00:00","54","3","27,7","4,7","112,9","31","42,1","0","0"],
    [38506,"2018-06-22T20:00:00","58","10","22,5","3,6","122,3","30,4","45,4","0","0"],
    [38507,"2018-06-22T21:00:00","57","18","15","3,5","273,9","28,5","54,5","0","0"],
    [38508,"2018-06-22T22:00:00","40","8","14,2","3,4","266,8","27,2","60,2","0","0"],
    [38509,"2018-06-22T23:00:00","33","8","13,3","2,3","271,1","26,9","61,1","0","0"],
    [38510,"2018-06-23T00:00:00","28","1","15,4","2,9","260","26,7","62","0","0"],
    [38511,"2018-06-23T01:00:00","53","25","15,8","1,1","239,7","26,4","63,5","0","0"],
    [38512,"2018-06-23T02:00:00","33","3","13,7","2","334,7","26,1","65,3","0","0"],
    [38513,"2018-06-23T03:00:00","38","ND","13,8","1,8","326,8","26,1","64,8","0","0"],
    [38514,"2018-06-23T04:00:00","41","1","13,6","1,8","322,3","25,4","65,4","0","0"],
    [38515,"2018-06-23T05:00:00","41","7","12,5","1,8","331,2","25,2","67","0","0"],
    [38516,"2018-06-23T06:00:00","55","10","11,9","2,1","301,7","25,2","66,9","0","0"],
    [38517,"2018-06-23T07:00:00","62","10","11,8","0,6","322","25,6","65,3","12,2","0"],
    [38518,"2018-06-23T08:00:00","106","25","12,2","3,4","255,5","25,5","67,8","30,7","0"],
    [38519,"2018-06-23T09:00:00","98","23","12,6","2,6","324,2","26,4","62,5","52,1","0"],
    [38520,"2018-06-23T10:00:00","69","12","18,7","2,2","354,5","28,1","54,8","134,4","0"],
    [38521,"2018-06-23T11:00:00","43","6","34","2,1","319,2","30,3","48,3","285,3","0"],
    [38522,"2018-06-23T12:00:00","44","6","49,4","2","288,7","31,8","44,3","318,4","0"],
    [38523,"2018-06-23T13:00:00","33","5","63","0,9","286,2","33,1","38,9","389,4","0"],
    [38524,"2018-06-23T14:00:00","39","4","75,7","2,9","270,6","33,8","36,7","332,1","0"],
    [38525,"2018-06-23T15:00:00","46","4","97,9","2,3","314,4","34,1","36,3","264,9","0"],
    [38526,"2018-06-23T16:00:00","45","9","89,1","3,1","231,1","34,1","36,6","171,8","0"],
    [38527,"2018-06-23T17:00:00","51","7","58,6","6,7","139,8","32,1","39","54","0"],
    [38528,"2018-06-23T18:00:00","43","4","32,9","4,5","146,4","30,3","43,4","21,3","0"],
    [38529,"2018-06-23T19:00:00","62","14","20,1","4,3","251,1","28,6","50","0","0"],
    [38530,"2018-06-23T20:00:00","56","11","16,8","3,4","277","27,3","54,4","0","0"],
    [38531,"2018-06-23T21:00:00","26","6","19","1,4","304,8","26,6","56,8","0","0"],
    [38532,"2018-06-23T22:00:00","60","4","15,8","2,7","31,8","26,5","58,9","0","0"],
    [38533,"2018-06-23T23:00:00","41","4","14,5","3,2","277,9","25,3","60,9","0","0"],
    [38534,"2018-06-24T00:00:00","48","3","16,5","2,3","9,5","25,4","61,3","0","0"],
    [38535,"2018-06-24T01:00:00","42","10","16,4","2,1","301,2","25,2","62,2","0","0"],
    [38536,"2018-06-24T02:00:00","40","7","16,7","1,1","295,8","25,1","62,9","0","0"],
    [38537,"2018-06-24T03:00:00","49","9","15","1,6","331,4","24,6","67,1","0","0"],
    [38538,"2018-06-24T04:00:00","60","11","12,2","1,6","293,5","24,3","70,2","0","0"],
    [38539,"2018-06-24T05:00:00","38","5","11,7","1,7","275,5","23,8","73,6","0","0"],
    [38540,"2018-06-24T06:00:00","42","2","11,7","1,5","304,2","24","73,1","0","0"],
    [38541,"2018-06-24T07:00:00","45","9","12,3","1,1","340","24","75","10,7","1,02"],
    [38542,"2018-06-24T08:00:00","33","5","13,7","1,8","279,6","24,7","73,3","64,5","0"],
    [38543,"2018-06-24T09:00:00","51","14","17,4","2","211,5","26,8","64,2","182,8","0"],
    [38544,"2018-06-24T10:00:00","23","7","34,8","2,5","232","29,1","51,7","277,9","0"],
    [38545,"2018-06-24T11:00:00","22","ND","51","2,7","253,8","30,4","47,8","335,4","0"],
    [38546,"2018-06-24T12:00:00","12","1","68,1","2","228,7","32,2","41,3","481","0"],
    [38547,"2018-06-24T13:00:00","41","8","70,5","2,8","302,1","32,1","40,8","224,5","0"],
    [38548,"2018-06-24T14:00:00","25","6","75,6","3,1","235,2","33,3","37,7","346,8","0"],
    [38549,"2018-06-24T15:00:00","17","2","88,8","2,8","200,1","33,6","37,1","322,4","0"],
    [38550,"2018-06-24T16:00:00","27","6","74,1","4,4","226,8","33,7","37,5","197,7","0"],
    [38551,"2018-06-24T17:00:00","34","4","59,8","3,6","234,7","33,2","38,6","103,9","0"],
    [38552,"2018-06-24T18:00:00","18","6","44,7","4","123,7","31,5","40,2","14,5","0"],
    [38553,"2018-06-24T19:00:00","28","4","33,1","5,4","122,8","29,9","44,3","0","0"],
    [38554,"2018-06-24T20:00:00","36","ND","22,5","3,8","143,7","29,3","46,6","0","0"],
    [38555,"2018-06-24T21:00:00","42","5","15","3,6","279,2","27,2","57,3","0","0"],
    [38556,"2018-06-24T22:00:00","30","4","14,4","3,2","257","26,2","62,1","0","0"],
    [38557,"2018-06-24T23:00:00","39","1","14,2","0,9","68,5","26","62,5","0","0"],
    [38558,"2018-06-25T00:00:00","72","17","12,8","1,6","7","25,9","63,6","0","0"],
    [38559,"2018-06-25T01:00:00","41","6","14,8","2,2","28,5","25,9","62,4","0","0"],
    [38560,"2018-06-25T02:00:00","51","5","14,2","1,8","329,6","25","66,9","0","0"],
    [38561,"2018-06-25T03:00:00","47","6","14,9","2","345,3","24,7","68,3","0","0"],
    [38562,"2018-06-25T04:00:00","29","5","13,9","1","269,4","24,3","70,2","0","0"],
    [38563,"2018-06-25T05:00:00","44","6","12,1","1,8","277,3","24,9","68,1","0","0"],
    [38564,"2018-06-25T06:00:00","50","6","11,8","0,9","323,8","24,4","70","0","0"],
    [38565,"2018-06-25T07:00:00","45","4","11,9","1,9","357,4","24,4","70,2","6,1","0"],
    [38566,"2018-06-25T08:00:00","85","6","13,8","1,6","9,8","25,2","68,4","56,4","0"],
    [38567,"2018-06-25T09:00:00","70","11","17,5","1,7","276,4","28","57,8","179,3","0"],
    [38568,"2018-06-25T10:00:00","57","24","27,5","1,4","246,6","30,3","49,2","319","0"],
    [38569,"2018-06-25T11:00:00","37","4","44,5","2,4","244,1","31,5","44,4","369,8","0"],
    [38570,"2018-06-25T12:00:00","32","ND","61,6","2,5","246,3","33","40,3","384,3","0"],
    [38571,"2018-06-25T13:00:00","35","6","87,6","1,4","219,6","34,2","37,1","448,9","0"],
    [38572,"2018-06-25T14:00:00","43","6","76,6","5","250,6","34,2","36,8","331,6","0"],
    [38573,"2018-06-25T15:00:00","28","2","64,8","4,7","218,5","34,1","38,1","291,2","0"],
    [38574,"2018-06-25T16:00:00","14","ND","48,6","4,6","198,5","34","38","250","0"],
    [38575,"2018-06-25T17:00:00","34","ND","36,2","5,6","239,4","33,3","38,9","98,2","0"],
    [38576,"2018-06-25T18:00:00","42","8","30","3,6","212,2","32,5","41","49,4","0"],
    [38577,"2018-06-25T19:00:00","28","6","31,2","5,4","115,1","30,7","42,7","0","0"],
    [38578,"2018-06-25T20:00:00","30","7","24,4","4,1","118,5","29,9","46,3","0","0"],
    [38579,"2018-06-25T21:00:00","54","12","32,6","2,9","1,4","28,3","53","0","0"],
    [38580,"2018-06-25T22:00:00","44","9","27","3,7","288,9","27,1","56,8","0","0"],
    [38581,"2018-06-25T23:00:00","51","8","26,6","2,3","356,1","26,8","57,5","0","0"],
    [38582,"2018-06-26T00:00:00","30","5","29,4","2,9","23,2","25,6","64","0","0"],
    [38583,"2018-06-26T01:00:00","17","3","32,5","1,5","354,3","25,7","63,8","0","0"],
    [38584,"2018-06-26T02:00:00","23","2","29","1,6","325,1","25,5","65,2","0","0"],
    [38585,"2018-06-26T03:00:00","17","1","27,1","1,6","0,7","25,1","66,9","0","0"],
    [38586,"2018-06-26T04:00:00","19","4","23,8","2,2","348,2","24,9","68,6","0","0"],
    [38587,"2018-06-26T05:00:00","26","3","15,9","1,2","343","24,5","71","0","0"],
    [38588,"2018-06-26T06:00:00","61","17","12,3","2,4","314,4","24,6","70,4","0","0"],
    [38589,"2018-06-26T07:00:00","53","6","12,9","2,1","13","24,6","69,2","4,4","0"],
    [38590,"2018-06-26T08:00:00","55","7","14,6","2","334,9","25,5","66,8","58,8","0"],
    [38591,"2018-06-26T09:00:00","53","5","22,8","2,3","320,2","27,8","58,2","135,3","0"],
    [38592,"2018-06-26T10:00:00","34","7","31,2","2,2","340,3","29,1","52,7","139,3","0"],
    [38593,"2018-06-26T11:00:00","41","8","38,8","2","314,5","29,3","52,3","149,8","0"],
    [38594,"2018-06-26T12:00:00","46","20","48,2","3,1","288,4","30,1","49,8","180,2","0"],
    [38595,"2018-06-26T13:00:00","79","23","45,8","3,9","270,9","29,9","51","126,2","0"],
    [38596,"2018-06-26T14:00:00","83","20","68,1","2,4","304,7","32,2","44,4","269,4","0"],
    [38597,"2018-06-26T15:00:00","82","31","102,9","2,5","296,8","32,9","41,1","252","0"],
    [38598,"2018-06-26T16:00:00","82","29","116,5","2,4","242,2","32","43,6","126,7","0"],
    [38599,"2018-06-26T17:00:00","82","25","121,2","1,5","218,2","32,5","42,2","101,2","0"],
    [38600,"2018-06-26T18:00:00","56","15","68,7","2","105,6","31,8","41,6","32,1","0"],
    [38601,"2018-06-26T19:00:00","38","7","26,6","4,5","109,7","29,8","45","0","0"],
    [38602,"2018-06-26T20:00:00","28","5","21,3","5,3","123,5","28,8","48,7","0","0"],
    [38603,"2018-06-26T21:00:00","50","5","18,4","2,3","243","27,3","56,4","0","0"],
    [38604,"2018-06-26T22:00:00","65","26","14,4","3","251,6","25,9","64,3","0","0"],
    [38605,"2018-06-26T23:00:00","18","4","17","1,9","225,8","25,6","64,3","0","0"],
    [38606,"2018-06-27T00:00:00","22","8","15,7","1,6","302,1","25,6","63,5","0","0"],
    [38607,"2018-06-27T01:00:00","17","6","16,5","2,9","301","25,1","65,8","0","0"],
    [38608,"2018-06-27T02:00:00","13","ND","20,5","1,2","207,1","24,4","71,4","0","0,25"],
    [38609,"2018-06-27T03:00:00","16","ND","17,2","0,7","257,2","24,3","72,8","0","0"],
    [38610,"2018-06-27T04:00:00","12","2","14,3","1,8","313,6","23,9","73,7","0","0"],
    [38611,"2018-06-27T05:00:00","35","15","12,7","0,7","278,7","23,7","72,3","0","0"],
    [38612,"2018-06-27T06:00:00","51","19","12,5","0,5","287,7","23,7","73,1","0","0"],
    [38613,"2018-06-27T07:00:00","110","57","14,1","0,7","292,8","23,9","72,7","7,2","0"],
    [38614,"2018-06-27T08:00:00","110","24","13,4","1,4","359,4","25,3","68,1","60,6","0"],
    [38615,"2018-06-27T09:00:00","65","22","19,2","0,8","337,3","26,6","63,1","114","0"],
    [38616,"2018-06-27T10:00:00","50","9","36,2","1,7","357,8","30,1","50,7","271,2","0"],
    [38617,"2018-06-27T11:00:00","31","6","50,6","1,1","256,5","31,2","44,7","325,8","0"],
    [38618,"2018-06-27T12:00:00","37","16","56,4","3,1","256,2","31,9","43,1","273,9","0"],
    [38619,"2018-06-27T13:00:00","35","11","67,1","3,9","232","32,8","40,6","397,6","0"],
    [38620,"2018-06-27T14:00:00","29","6","63,9","3,5","240,8","33,7","37,8","386,2","0"],
    [38621,"2018-06-27T15:00:00","18","2","58,5","3,4","244,9","34,5","34,8","283,5","0"],
    [38622,"2018-06-27T16:00:00","31","6","59,5","2,9","140,1","33,5","35,7","144,5","0"],
    [38623,"2018-06-27T17:00:00","ND","ND","ND","7,8","112,4","32,2","37,4","130","0"],
    [38624,"2018-06-27T18:00:00","28","ND","ND","6,7","121,9","31,2","38,6","57,1","0"],
    [38625,"2018-06-27T19:00:00","29","ND","17,6","6","123,5","29,7","42,7","2,4","0"],
    [38626,"2018-06-27T20:00:00","42","2","11,2","2,9","178,7","28,4","49,4","0","0"],
    [38627,"2018-06-27T21:00:00","44","6","7,9","2,3","278,6","27,5","53,9","0","0"],
    [38628,"2018-06-27T22:00:00","57","14","8,9","3,5","72","27","57,7","0","0"],
    [38629,"2018-06-27T23:00:00","21","7","16,1","2,7","29,7","26,5","63,1","0","0"],
    [38630,"2018-06-28T00:00:00","29","ND","13,7","4,6","303,3","25,9","66,6","0","0,25"],
    [38631,"2018-06-28T01:00:00","13","ND","9,7","1,3","235,2","23,6","79,8","0","29,46"],
    [38632,"2018-06-28T02:00:00","10","ND","16","3,6","131,4","23,1","80,6","ND","4,06"],
    [38633,"2018-06-28T03:00:00","11","ND","6,6","1,8","236","23,6","79","ND","2,03"],
    [38634,"2018-06-28T04:00:00","10","ND","8,1","2,8","261,7","23","80,4","0","0"],
    [38635,"2018-06-28T05:00:00","14","ND","8,5","1,6","183,3","23,2","78,8","0","0,25"],
    [38636,"2018-06-28T06:00:00","10","ND","6,8","0,9","153,4","23,4","76,6","0","0,25"],
    [38637,"2018-06-28T07:00:00","7","ND","7,6","1,9","174,7","23,5","76,5","14","0"],
    [38638,"2018-06-28T08:00:00","33","9","10,1","1,1","167,1","25,4","70","125,4","0,25"],
    [38639,"2018-06-28T09:00:00","35","14","17,1","1,8","304","27,7","60","210,2","0"],
    [38640,"2018-06-28T10:00:00","32","7","20","2,4","323,8","27,7","60,9","203","0"],
    [38641,"2018-06-28T11:00:00","13","ND","35,8","2,4","283","29,8","51,6","370,2","0"],
    [38642,"2018-06-28T12:00:00","22","ND","46","3,1","270","31,2","44,9","440,2","0"],
    [38643,"2018-06-28T13:00:00","28","ND","50,1","3,5","265,8","31,8","42,7","367,5","0"],
    [38644,"2018-06-28T14:00:00","18","1","62,4","2,9","295","32,1","41,2","237,7","0"],
    [38645,"2018-06-28T15:00:00","33","3","66,1","2,2","283,5","31,8","42","167,3","0"],
    [38646,"2018-06-28T16:00:00","24","2","51,9","4","87,6","31,3","42,2","165,2","0"],
    [38647,"2018-06-28T17:00:00","18","ND","46","4,3","65,4","31,7","39,6","146,7","0"],
    [38648,"2018-06-28T18:00:00","24","ND","30,2","4,7","74,7","30,2","42,3","24","0"],
    [38649,"2018-06-28T19:00:00","21","ND","9,3","4,2","82","28,5","47,3","1,2","0"],
    [38650,"2018-06-28T20:00:00","48","21","8,3","1,1","241,1","27","58,3","0","1,02"],
    [38651,"2018-06-28T21:00:00","54","10","7,9","2,4","303","26,4","62","0","0"],
    [38652,"2018-06-28T22:00:00","43","9","7,1","2,8","278,5","25,7","66,8","0","0"],
    [38653,"2018-06-28T23:00:00","36","4","7,4","2,8","302,6","25,4","68,3","0","5,84"],
    [38654,"2018-06-29T00:00:00","2","ND","10,2","1,3","72,6","23,6","76,6","0","7,37"],
    [38655,"2018-06-29T01:00:00","6","ND","9,8","0,4","219,7","24,1","74","0","0"],
    [38656,"2018-06-29T02:00:00","12","ND","8,2","0,9","341,2","24","75","ND","0"],
    [38657,"2018-06-29T03:00:00","15","ND","8,4","0,7","42,9","24,1","73,1","ND","0,25"],
    [38658,"2018-06-29T04:00:00","14","ND","7,3","0,9","354,1","24,3","73,4","ND","0"],
    [38659,"2018-06-29T05:00:00","29","ND","8,8","1,3","315,6","24,1","76,2","0","0"],
    [38660,"2018-06-29T06:00:00","38","8","9","0,6","186,7","23,4","77,4","0","0"],
    [38661,"2018-06-29T07:00:00","77","14","9,6","0,9","175,2","23,7","75,9","8,8","0"],
    [38662,"2018-06-29T08:00:00","96","26","10,2","2,3","264,4","24,7","71,6","78,8","0"],
    [38663,"2018-06-29T09:00:00","71","30","14,7","2,2","257,2","26,7","64,1","170,2","0"],
    [38664,"2018-06-29T10:00:00","51","17","26,8","1,6","333,6","28,3","57,8","216,6","0"],
    [38665,"2018-06-29T11:00:00","50","17","56,1","1,9","49,7","30,3","50,7","301,9","0"],
    [38666,"2018-06-29T12:00:00","58","14","72,7","1,7","288,1","31,2","45,7","395,5","0"],
    [38667,"2018-06-29T13:00:00","29","10","91,5","2,6","174,8","32,6","40,1","448,9","0"],
    [38668,"2018-06-29T14:00:00","37","10","80,6","2,3","260","32,7","39,9","263,2","0"],
    [38669,"2018-06-29T15:00:00","32","6","71,8","2,9","220,6","32,6","40,2","242,9","0"],
    [38670,"2018-06-29T16:00:00","37","ND","62,5","3,4","231,3","32,6","40,1","180,7","0"],
    [38671,"2018-06-29T17:00:00","30","ND","42,8","3,2","213,4","32,7","38,4","126,9","0"],
    [38672,"2018-06-29T18:00:00","14","5","32,6","4,8","118,8","31,7","39,2","64,6","0"],
    [38673,"2018-06-29T19:00:00","21","2","18,8","5,4","116","29,1","45,8","0","0"],
    [38674,"2018-06-29T20:00:00","47","6","11,1","2,3","184,1","28,2","50","0","0"],
    [38675,"2018-06-29T21:00:00","58","15","10,9","3,1","263,5","27,1","56","0","0"],
    [38676,"2018-06-29T22:00:00","42","13","10,4","2,6","245,8","25,9","62,4","0","0"],
    [38677,"2018-06-29T23:00:00","39","16","11,2","1,3","192,3","26,3","59,8","0","0"],
    [38678,"2018-06-30T00:00:00","21","3","8,9","1,9","17,5","25,7","63,8","0","0"],
    [38679,"2018-06-30T01:00:00","26","ND","9,6","2,2","36,3","25,7","64,2","0","0"],
    [38680,"2018-06-30T02:00:00","29","ND","10,1","0,6","15,6","25,3","68,3","0","0,25"],
    [38681,"2018-06-30T03:00:00","23","ND","10,3","1,9","323,5","24,6","72,9","0","1,02"],
    [38682,"2018-06-30T04:00:00","27","ND","9,6","2,7","285","23,9","77,9","0","1,02"],
    [38683,"2018-06-30T05:00:00","18","3","9,7","0,5","11,4","23,9","76,4","0","0,25"],
    [38684,"2018-06-30T06:00:00","38","17","10,2","1,6","323","24","76,8","0","0"],
    [38685,"2018-06-30T07:00:00","14","ND","10","2","10,5","24,1","76,1","4,8","0,76"],
    [38686,"2018-06-30T08:00:00","26","5","11,1","2,1","356,5","24,6","77,5","56,9","1,27"],
    [38687,"2018-06-30T09:00:00","33","7","11,5","2,6","6","25,1","74,9","44,7","0"],
    [38688,"2018-06-30T10:00:00","42","6","12,3","2,2","2,7","25,8","71,9","93,1","0"],
    [38689,"2018-06-30T11:00:00","38","5","16,6","3,1","350,2","26,8","66,4","188,9","0"],
    [38690,"2018-06-30T12:00:00","24","7","32,7","2,2","1,8","29","56,1","262,2","0"],
    [38691,"2018-06-30T13:00:00","35","9","53,4","1,5","23,7","30,4","50,7","332,7","0"],
    [38692,"2018-06-30T14:00:00","38","9","73,3","2,3","187,6","30,6","48,2","248","0"],
    [38693,"2018-06-30T15:00:00","27","7","37,3","4,5","227,2","29,8","48,4","116,5","0"],
    [38694,"2018-06-30T16:00:00","37","11","27,4","5,3","252,4","29,7","48","117,4","0"],
    [38695,"2018-06-30T17:00:00","28","5","27,6","4,8","287,8","30","46,5","120,7","0"],
    [38696,"2018-06-30T18:00:00","47","6","40,2","5","25,4","27,1","63,1","21,1","0"],
    [38697,"2018-06-30T19:00:00","31","14","29,1","2,7","16,6","26,1","66,9","0","0"],
    [38698,"2018-06-30T20:00:00","46","9","16,3","2,4","8,4","25","71,9","0","0"],
    [38699,"2018-06-30T21:00:00","80","33","12,6","1,6","354,8","24,7","71","0","0"],
    [38700,"2018-06-30T22:00:00","58","12","11,9","3,1","308,3","24","73,5","0","0"],
    [38701,"2018-06-30T23:00:00","41","8","13,7","1,9","342,6","23,8","73,6","0","0"],
    [38702,"2018-07-01T00:00:00","28","4","12,7","1,4","320,5","23,9","73,6","0","0"],
    [38703,"2018-07-01T01:00:00","39","3","12,1","2,2","292,1","23,8","74","0","0"],
    [38704,"2018-07-01T02:00:00","36","2","11,1","1,8","279,1","23,6","74,8","0","0"],
    [38705,"2018-07-01T03:00:00","44","1","10,2","2","252,5","23,2","76,4","0","0"],
    [38706,"2018-07-01T04:00:00","48","2","10,4","1,8","158,1","23,3","75,9","0","0"],
    [38707,"2018-07-01T05:00:00","42","7","10,6","2","216,9","23,5","74,8","0","0"],
    [38708,"2018-07-01T06:00:00","39","10","9,9","1,5","219,3","23,3","75,7","0","0"],
    [38709,"2018-07-01T07:00:00","36","8","10,7","0,5","175,4","23,4","75,7","22,6","0"],
    [38710,"2018-07-01T08:00:00","59","20","12,8","1,7","278,1","25,2","69,1","92,8","0"],
    [38711,"2018-07-01T09:00:00","38","7","21","2,7","264,1","26,4","64","191,7","0"],
    [38712,"2018-07-01T10:00:00","34","10","37,4","2,4","246,1","28,8","52,9","327,5","0"],
    [38713,"2018-07-01T11:00:00","31","5","54,3","2,7","269,9","30,7","45,4","416,2","0"],
    [38714,"2018-07-01T12:00:00","30","ND","73,7","3,1","282,9","31,7","41,9","431,2","0"],
    [38715,"2018-07-01T13:00:00","26","6","87,1","2,9","254,9","32,6","38,9","445,3","0"],
    [38716,"2018-07-01T14:00:00","31","9","88","2","275,9","33,8","36,3","418,7","0"],
    [38717,"2018-07-01T15:00:00","28","5","102,4","2,6","189,3","33,9","36","316,1","0"],
    [38718,"2018-07-01T16:00:00","34","4","91,3","4,4","175,8","33,7","36,4","247,9","0"],
    [38719,"2018-07-01T17:00:00","12","ND","45,9","3,8","143","33,4","36,2","158,2","0"],
    [38720,"2018-07-01T18:00:00","13","ND","36","5,2","126","31,3","39,5","45,5","0"],
    [38721,"2018-07-01T19:00:00","49","ND","32,7","5,8","62,6","29","48,5","0","0"],
    [38722,"2018-07-01T20:00:00","37","6","36","5,5","56,2","26,6","57","0","0"],
    [38723,"2018-07-01T21:00:00","46","8","21","2,9","329,2","26,8","56,9","0","0"],
    [38724,"2018-07-01T22:00:00","31","5","22,2","2","19,1","24,9","68,7","0","0"],
    [38725,"2018-07-01T23:00:00","19","ND","20,5","2,9","43,2","23,8","73","0","0"],
    [38726,"2018-07-02T00:00:00","28","ND","14,7","2,9","88,4","24,5","67,9","0","0"],
    [38727,"2018-07-02T01:00:00","21","ND","11,6","1,9","252,1","24,4","67,7","0","0"],
    [38728,"2018-07-02T02:00:00","38","2","11,5","1,8","313,8","23,2","74,8","0","0"],
    [38729,"2018-07-02T03:00:00","21","3","13,8","2,3","38,2","23,1","75","0","0"],
    [38730,"2018-07-02T04:00:00","14","ND","12,2","1,4","29,1","23,3","74,3","0","0"],
    [38731,"2018-07-02T05:00:00","33","ND","10,9","1,2","289,7","23,3","74,4","0","0"],
    [38732,"2018-07-02T06:00:00","37","ND","10,3","1,3","328,9","23,2","74,5","0","0"],
    [38733,"2018-07-02T07:00:00","38","7","10,6","2,2","309,9","23,6","72,5","15","0"],
    [38734,"2018-07-02T08:00:00","32","8","11,6","1,3","337,7","24,2","70,6","35,2","0"],
    [38735,"2018-07-02T09:00:00","38","12","15","3,1","291,7","25","69","106,6","0"],
    [38736,"2018-07-02T10:00:00","39","10","25,1","2,7","267,7","27,4","57,9","212,6","0"],
    [38737,"2018-07-02T11:00:00","27","8","36,4","3,7","268,3","29,8","48","405,3","0"],
    [38738,"2018-07-02T12:00:00","16","3","50,2","2,5","262,1","31,8","41,7","455,2","0"],
    [38739,"2018-07-02T13:00:00","8","5","62,7","2,8","260,2","32,9","37,5","464,2","0"],
    [38740,"2018-07-02T14:00:00","17","6","70,1","2,8","242,2","33","36,6","341,7","0"],
    [38741,"2018-07-02T15:00:00","23","4","73,4","2,9","277,1","33,7","35,3","297,2","0"],
    [38742,"2018-07-02T16:00:00","16","2","81,2","1,3","199,1","33,5","35","173,6","0"],
    [38743,"2018-07-02T17:00:00","31","5","55,5","3,2","286,8","32,6","37,3","48,5","0"],
    [38744,"2018-07-02T18:00:00","37","4","51,7","1,7","32,8","32,6","38,3","63,9","0"],
    [38745,"2018-07-02T19:00:00","24","2","31,2","4,5","112,1","30,2","42,8","0","0"],
    [38746,"2018-07-02T20:00:00","20","2","26,2","4,3","124,9","29,1","46,7","0","0"],
    [38747,"2018-07-02T21:00:00","54","5","16,8","2,7","276,6","27,8","54,6","0","0"],
    [38748,"2018-07-02T22:00:00","42","9","13,5","3,2","253,4","26,6","60,1","0","0"],
    [38749,"2018-07-02T23:00:00","38","7","16,6","3","240,2","26,7","58,6","0","0"],
    [38750,"2018-07-03T00:00:00","23","4","17,6","2,7","246,2","26,4","59,1","0","0"],
    [38751,"2018-07-03T01:00:00","11","2","18,6","2,2","242,8","25,8","62,4","0","0"],
    [38752,"2018-07-03T02:00:00","23","ND","15,8","1,9","310,7","25,2","65","0","0"],
    [38753,"2018-07-03T03:00:00","28","1","12,2","1,4","354,9","24,8","69,9","0","0"],
    [38754,"2018-07-03T04:00:00","24","3","14,9","1","71,4","25,2","67,7","0","0"],
    [38755,"2018-07-03T05:00:00","65","25","13,1","2,8","237,7","24,6","69,5","0","0"],
    [38756,"2018-07-03T06:00:00","44","4","10,8","1,8","180,3","24","70","0","0"],
    [38757,"2018-07-03T07:00:00","74","19","12","0,6","221","24,4","68,2","5,6","0"],
    [38758,"2018-07-03T08:00:00","65","24","12,5","2,2","272,9","24,8","67,5","38,6","0"],
    [38759,"2018-07-03T09:00:00","51","10","19,4","2,3","237,2","27,5","57,7","193,5","0"],
    [38760,"2018-07-03T10:00:00","33","6","35","1,6","207","29,5","49,6","276,1","0"],
    [38761,"2018-07-03T11:00:00","24","2","46,7","2,6","197,7","30,9","45,5","404,6","0"],
    [38762,"2018-07-03T12:00:00","16","ND","54,9","2","189,2","31,5","43,3","333,1","0"],
    [38763,"2018-07-03T13:00:00","25","1","63","2,1","225,8","33,5","38,9","508,2","0"],
    [38764,"2018-07-03T14:00:00","30","7","70,9","2,9","235,3","33,3","38,8","310,5","0"],
    [38765,"2018-07-03T15:00:00","45","5","94,7","3,7","188,8","33,8","37,5","338,3","0"],
    [38766,"2018-07-03T16:00:00","40","12","89,7","2,8","246,4","33,9","35,8","214,4","0"],
    [38767,"2018-07-03T17:00:00","52","12","72,6","4,3","249","34","35,8","174,7","0"],
    [38768,"2018-07-03T18:00:00","52","10","69,1","4","212,1","32,6","38,9","30,2","0"],
    [38769,"2018-07-03T19:00:00","76","10","49,9","3,3","175,7","31,2","43,4","0","0"],
    [38770,"2018-07-03T20:00:00","96","17","26","1,6","355,3","30,3","47","0","0"],
    [38771,"2018-07-03T21:00:00","61","2","18,3","1,9","72,7","29,6","50,1","0","0"],
    [38772,"2018-07-03T22:00:00","64","8","13,9","3,2","269,5","27,7","58,6","0","0"],
    [38773,"2018-07-03T23:00:00","55","4","13,3","3,1","278,5","26,4","64,7","0","0"],
    [38774,"2018-07-04T00:00:00","58","ND","14,9","1,6","232,3","26,3","63,8","0","0"],
    [38775,"2018-07-04T01:00:00","46","26","15,2","1,5","225,1","25,8","65,7","0","0"],
    [38776,"2018-07-04T02:00:00","15","7","12,9","1,5","282,2","24,9","68,6","0","0"],
    [38777,"2018-07-04T03:00:00","64","26","14,3","1,5","269,7","24,8","68","0","0"],
    [38778,"2018-07-04T04:00:00","56","4","11,8","2,4","298,8","24,5","68,8","0","0"],
    [38779,"2018-07-04T05:00:00","52","11","11,8","1,6","284,9","24,3","70,2","0","0"],
    [38780,"2018-07-04T06:00:00","68","15","11,5","1,3","5,4","24,4","71,4","0","0"],
    [38781,"2018-07-04T07:00:00","96","32","12,4","1,8","331,6","24,3","72,8","14,2","0"],
    [38782,"2018-07-04T08:00:00","116","23","13,5","1,7","338,1","25,4","68,5","61","0"],
    [38783,"2018-07-04T09:00:00","62","15","25,8","2,7","12,7","28,1","58,3","196,2","0"],
    [38784,"2018-07-04T10:00:00","50","11","45,3","2,4","21,2","30,9","49,3","310,6","0"],
    [38785,"2018-07-04T11:00:00","61","17","71,4","2,3","355,4","31,7","46,6","377,5","0"],
    [38786,"2018-07-04T12:00:00","79","20","85,5","2","310,9","32,7","42,8","340,2","0"],
    [38787,"2018-07-04T13:00:00","70","23","88,2","2,2","316,1","34,3","36,8","435,1","0"],
    [38788,"2018-07-04T14:00:00","48","10","90","1,9","242,6","35,6","32","408,4","0"],
    [38789,"2018-07-04T15:00:00","44","6","93,2","2,6","252,5","36,1","29,9","351,6","0"],
    [38790,"2018-07-04T16:00:00","61","10","97,2","3,7","247,2","35,8","31,6","178","0"],
    [38791,"2018-07-04T17:00:00","62","8","79,2","4,4","140,2","34,5","36,7","120,3","0"],
    [38792,"2018-07-04T18:00:00","49","7","62","5,6","108,3","33","39,1","43","0"],
    [38793,"2018-07-04T19:00:00","55","8","43,6","5,9","113,8","31,1","44,2","0","0"],
    [38794,"2018-07-04T20:00:00","59","9","27,3","2","157,2","29,8","48,9","0","0"],
    [38795,"2018-07-04T21:00:00","67","11","14,2","3,7","260,6","27,8","59,2","0","0"],
    [38796,"2018-07-04T22:00:00","43","6","15,9","2,4","240","27","62,3","0","0"],
    [38797,"2018-07-04T23:00:00","61","6","15,3","1,5","267,2","27,4","60,5","0","0"],
    [38798,"2018-07-05T00:00:00","43","5","15,7","3,1","275,7","26,3","64,4","0","0"],
    [38799,"2018-07-05T01:00:00","35","1","17,8","0,5","296","26,1","65,6","0","0"],
    [38800,"2018-07-05T02:00:00","61","2","15,6","1,8","46,7","26,2","65,8","0","0"],
    [38801,"2018-07-05T03:00:00","55","8","14,8","1,6","295,7","26,2","66,7","0","0"],
    [38802,"2018-07-05T04:00:00","56","16","13,8","1,6","313,6","25,8","68,7","0","0"],
    [38803,"2018-07-05T05:00:00","64","7","12,4","1,8","19,4","25,1","71,4","0","0"],
    [38804,"2018-07-05T06:00:00","74","16","12,1","1,8","327,5","24,9","71,4","0","0"],
    [38805,"2018-07-05T07:00:00","66","14","12,5","0,5","316,6","25","71","11,2","0"],
    [38806,"2018-07-05T08:00:00","85","27","13,2","3","294,9","25,9","67,7","75,2","0"],
    [38807,"2018-07-05T09:00:00","74","19","19,4","1,4","308","28,3","57","140,1","0"],
    [38808,"2018-07-05T10:00:00","59","10","31,3","3,2","302,1","30","49,3","287","0"],
    [38809,"2018-07-05T11:00:00","52","13","46","3,3","279,7","30,7","47,4","225,1","0"],
    [38810,"2018-07-05T12:00:00","60","9","57,4","2,8","282,5","31,4","45,1","181","0"],
    [38811,"2018-07-05T13:00:00","59","17","66","3,4","291,7","32,1","42,3","195","0"],
    [38812,"2018-07-05T14:00:00","82","20","86,2","2,4","308,4","33,7","39,2","239,3","0"],
    [38813,"2018-07-05T15:00:00","79","6","84,2","2,8","348,1","33,6","39","142,7","0"],
    [38814,"2018-07-05T16:00:00","77","15","69,9","3,2","292","32,7","41,6","97,3","0"],
    [38815,"2018-07-05T17:00:00","102","25","52,1","2,9","266,3","32,6","42,5","68,8","0"],
    [38816,"2018-07-05T18:00:00","83","24","30,4","3,1","245,2","31,4","48,9","17,7","0"],
    [38817,"2018-07-05T19:00:00","50","9","19,2","2,9","118,4","29,9","47,3","0","0"],
    [38818,"2018-07-05T20:00:00","51","15","13,6","1,4","132","29,2","49,3","0","0"],
    [38819,"2018-07-05T21:00:00","63","8","13,6","2,9","266,1","27,6","57,2","0","0"],
    [38820,"2018-07-05T22:00:00","39","3","12,8","2,1","264,7","26,3","63,4","0","0"],
    [38821,"2018-07-05T23:00:00","25","ND","14,1","2,4","256,5","25,8","64,1","0","0"],
    [38822,"2018-07-06T00:00:00","24","1","14,5","0,6","173,4","25,8","63,3","0","0"],
    [38823,"2018-07-06T01:00:00","39","2","13,6","0,9","291,9","25,3","66","0","0"],
    [38824,"2018-07-06T02:00:00","18","1","13,1","1","340,6","25","67","0","0"],
    [38825,"2018-07-06T03:00:00","40","11","13,2","1,6","328,8","24,7","68,2","0","0"],
    [38826,"2018-07-06T04:00:00","40","4","12,2","2","318,4","24,8","69,6","0","0"],
    [38827,"2018-07-06T05:00:00","39","ND","12","0,6","319,9","24,6","70,9","0","0"],
    [38828,"2018-07-06T06:00:00","57","9","12","1,4","3,2","24,6","70,9","0","0"],
    [38829,"2018-07-06T07:00:00","81","17","12,5","1,2","323,8","24,5","72,3","6,7","0"],
    [38830,"2018-07-06T08:00:00","105","15","12,5","1,8","357,8","25,2","71","41,1","0"],
    [38831,"2018-07-06T09:00:00","63","22","16,1","1,7","311,4","26,6","63,4","82,4","0"],
    [38832,"2018-07-06T10:00:00","55","12","25,2","1,8","308,2","28,5","54,6","193,1","0"],
    [38833,"2018-07-06T11:00:00","59","6","34,4","2,2","262","30,1","49,7","228,8","0"],
    [38834,"2018-07-06T12:00:00","55","6","39,4","2,9","261,9","30,3","48,6","226,6","0"],
    [38835,"2018-07-06T13:00:00","40","12","57,4","2,5","238","32","42,8","309,4","0"],
    [38836,"2018-07-06T14:00:00","59","13","77,9","2,7","223,8","33,6","37,6","375","0"],
    [38837,"2018-07-06T15:00:00","57","13","75,6","4,7","267,3","33,3","38,4","224","0"],
    [38838,"2018-07-06T16:00:00","75","19","79,3","5,9","267,5","32,7","39,8","169,5","0"],
    [38839,"2018-07-06T17:00:00","75","19","60,8","3,7","283,9","31,5","43,8","56,8","0"],
    [38840,"2018-07-06T18:00:00","48","8","59","2,5","83,5","31,5","41,7","34,8","0"],
    [38841,"2018-07-06T19:00:00","47","6","22","4,1","106","30,3","43,4","0","0"],
    [38842,"2018-07-06T20:00:00","44","10","15,4","3,6","109,1","29,7","45,4","0","0"],
    [38843,"2018-07-06T21:00:00","54","7","14","0,5","310,9","29","50,8","0","0"],
    [38844,"2018-07-06T22:00:00","48","5","13,9","3,4","290","27,5","60","0","0"],
    [38845,"2018-07-06T23:00:00","52","4","14","2,3","252,2","26,2","63,2","0","0"],
    [38846,"2018-07-07T00:00:00","33","5","14,7","3,1","251","25,8","63,8","0","0"],
    [38847,"2018-07-07T01:00:00","31","4","16","2,9","245,7","25,3","66,1","0","0"],
    [38848,"2018-07-07T02:00:00","34","ND","17,7","1","169,1","25,2","66,1","0","0"],
    [38849,"2018-07-07T03:00:00","38","2","14,2","1,4","320","24,9","67,7","0","0"],
    [38850,"2018-07-07T04:00:00","39","5","13,5","1,8","320,7","24,7","69,1","0","0"],
    [38851,"2018-07-07T05:00:00","49","9","13,2","0,9","271,5","24,6","68,8","0","0"],
    [38852,"2018-07-07T06:00:00","73","18","13","1,5","313,8","24,7","69","0","0"],
    [38853,"2018-07-07T07:00:00","107","28","12","2","280,9","24,7","70,4","20,6","0"],
    [38854,"2018-07-07T08:00:00","118","42","14,1","3,4","293,7","25,5","67,7","81,6","0"],
    [38855,"2018-07-07T09:00:00","91","31","19,8","0,9","323,5","27,5","60,2","148,3","0"],
    [38856,"2018-07-07T10:00:00","57","14","47,7","1,8","59,9","30,5","48,8","288,4","0"],
    [38857,"2018-07-07T11:00:00","52","9","76,4","1,1","59,8","32,7","41,5","383,4","0"],
    [38858,"2018-07-07T12:00:00","58","13","100,6","1,1","59,1","34,1","37,1","396,9","0"],
    [38859,"2018-07-07T13:00:00","60","21","96,1","2,1","302,8","35,5","33,5","424,5","0"],
    [38860,"2018-07-07T14:00:00","39","9","82,8","2,7","288","36,9","28,4","432,7","0"],
    [38861,"2018-07-07T15:00:00","47","4","88,1","3,5","250,4","36,1","31,6","335,4","0"],
    [38862,"2018-07-07T16:00:00","61","7","98,3","2,3","223,7","35,5","32,2","140,4","0"],
    [38863,"2018-07-07T17:00:00","55","6","69,3","4,5","152,5","33,5","37,7","51,4","0"],
    [38864,"2018-07-07T18:00:00","52","6","44,9","3,6","185,3","32,6","40,2","25","0"],
    [38865,"2018-07-07T19:00:00","65","5","24,5","3,1","221,2","30,9","45,4","0","0"],
    [38866,"2018-07-07T20:00:00","40","3","19,4","2,1","232,3","29,3","52,1","0","0"],
    [38867,"2018-07-07T21:00:00","47","2","22,5","3,8","82,8","29,3","49,8","0","0"],
    [38868,"2018-07-07T22:00:00","69","6","22,6","3,2","2,6","27,9","56,3","0","0"],
    [38869,"2018-07-07T23:00:00","93","37","22,9","2,3","13,1","26,7","61,1","0","0"],
    [38870,"2018-07-08T00:00:00","62","25","18","2","320,2","26,8","60,7","0","0"],
    [38871,"2018-07-08T01:00:00","53","12","16,9","1,8","11","26,5","62,2","0","0"],
    [38872,"2018-07-08T02:00:00","44","9","17,9","1,8","354,5","26,2","64,2","0","0"],
    [38873,"2018-07-08T03:00:00","45","11","14,7","1,7","0,8","25,5","68,1","0","0"],
    [38874,"2018-07-08T04:00:00","48","7","12","1,9","26,6","24,9","71,6","0","0"],
    [38875,"2018-07-08T05:00:00","59","13","11,7","0,7","330,2","24,9","69,6","0","0"],
    [38876,"2018-07-08T06:00:00","43","8","10,4","1,4","341,6","24","74,4","0","0"],
    [38877,"2018-07-08T07:00:00","48","14","10,8","1,2","356,4","24,1","74,1","18,1","0"],
    [38878,"2018-07-08T08:00:00","82","19","12","1,6","256","25,5","69,1","50,1","0"],
    [38879,"2018-07-08T09:00:00","67","25","22,7","2,1","193,7","27,3","61,8","177,4","0"],
    [38880,"2018-07-08T10:00:00","52","12","45,9","1,6","290","30,7","49,4","314,1","0"],
    [38881,"2018-07-08T11:00:00","50","9","73,9","2,1","20,6","33,1","40,1","388","0"],
    [38882,"2018-07-08T12:00:00","49","12","83,6","1,7","29,2","34,7","36,5","442,5","0"],
    [38883,"2018-07-08T13:00:00","ND","6","80,1","2,7","310,7","36,5","31,2","459,2","0"],
    [38884,"2018-07-08T14:00:00","ND","8","79,6","3,7","266,4","36,4","31,1","405,2","0"],
    [38885,"2018-07-08T15:00:00","ND","13","76,8","5","239,6","35,4","33,8","210,7","0"],
    [38886,"2018-07-08T16:00:00","ND","6","91,3","3,2","239,9","36,2","31,9","246","0"],
    [38887,"2018-07-08T17:00:00","ND","11","88,7","3,4","247,8","35,4","33,5","101","0"],
    [38888,"2018-07-08T18:00:00","ND","13","62,9","3,3","184,6","33,8","39,1","21,7","0"],
    [38889,"2018-07-08T19:00:00","ND","10","57,6","4,7","113,2","32,3","40,9","0","0"],
    [38890,"2018-07-08T20:00:00","ND","12","42","4,1","112","31","44,6","0","0"],
    [38891,"2018-07-08T21:00:00","ND","7","21,8","3,2","264,9","29,1","54,2","0","0"],
    [38892,"2018-07-08T22:00:00","ND","5","17,2","2,1","256,8","27,9","59,5","0","0"],
    [38893,"2018-07-08T23:00:00","ND","4","18,8","1,4","234","27,8","59","0","0"],
    [38894,"2018-07-09T00:00:00","ND","4","16,8","2","278,9","27,5","60,7","0","0"],
    [38895,"2018-07-09T01:00:00","ND","8","17,1","1,8","281,9","26,8","63,6","0","0"],
    [38896,"2018-07-09T02:00:00","ND","6","16","1,9","311","26,3","66,6","0","0"],
    [38897,"2018-07-09T03:00:00","ND","8","17,4","0,4","52","26,2","66,6","0","0"],
    [38898,"2018-07-09T04:00:00","ND","15","17,4","1,6","294,3","26,2","67,1","0","0"],
    [38899,"2018-07-09T05:00:00","ND","25","15,8","1,4","344,7","25,8","68,9","0","0"],
    [38900,"2018-07-09T06:00:00","ND","12","14,9","2,1","5,7","25,4","70,3","0","0"],
    [38901,"2018-07-09T07:00:00","ND","14","14,5","1,6","358,3","25,4","71,3","10","0"],
    [38902,"2018-07-09T08:00:00","ND","27","18,5","1,9","356,3","27,4","62,6","73,1","0"],
    [38903,"2018-07-09T09:00:00","ND","16","25,8","1,7","306","29,4","55,6","196,6","0"],
    [38904,"2018-07-09T10:00:00","ND","27","41,3","1,7","267","30,6","50,5","178,7","0"],
    [38905,"2018-07-09T11:00:00","65","23","ND","4,4","263,9","31,1","50,6","243,5","0"],
    [38906,"2018-07-09T12:00:00","55","23","63,5","3,6","245,9","33,5","42","325,8","0"],
    [38907,"2018-07-09T13:00:00","51","13","68,2","4,9","251,1","34,4","38,8","349,2","0"],
    [38908,"2018-07-09T14:00:00","36","8","66,8","4,2","264,3","35,5","36","344","0"],
    [38909,"2018-07-09T15:00:00","44","2","63,4","5,6","240,9","35,3","36,5","201,9","0"],
    [38910,"2018-07-09T16:00:00","48","2","48,7","5,2","220,9","34,6","38","153,7","0"],
    [38911,"2018-07-09T17:00:00","19","1","35,3","4,4","177,2","33,4","39,1","48,8","0"],
    [38912,"2018-07-09T18:00:00","38","6","27,6","3,5","130,3","32,1","41,6","8,1","0"],
    [38913,"2018-07-09T19:00:00","50","6","17","1,8","120,8","31,4","43,4","0","0"],
    [38914,"2018-07-09T20:00:00","82","16","10,2","2,2","210,5","30,6","47,2","0","0"],
    [38915,"2018-07-09T21:00:00","64","8","9,4","3,7","272,7","28,2","57,4","0","0"],
    [38916,"2018-07-09T22:00:00","33","4","10","2,5","242","27,2","62,1","0","0"],
    [38917,"2018-07-09T23:00:00","25","ND","10,2","2,2","255,5","26,7","63,9","0","0"],
    [38918,"2018-07-10T00:00:00","25","ND","11,5","2,2","291,1","26,6","64,2","0","0"],
    [38919,"2018-07-10T01:00:00","15","ND","11,7","0,6","331,6","26,3","65,4","0","0"],
    [38920,"2018-07-10T02:00:00","37","13","10,4","1,5","351,2","26,1","66,7","0","0"],
    [38921,"2018-07-10T03:00:00","35","8","9","1,6","354,4","25,6","69,8","0","0"],
    [38922,"2018-07-10T04:00:00","49","5","8,4","2,1","34,2","25","73","0","0"],
    [38923,"2018-07-10T05:00:00","53","9","9,1","1,1","315","25","72,4","0","0"],
    [38924,"2018-07-10T06:00:00","82","26","8,7","3,3","260,7","24,1","75,1","0","0"],
    [38925,"2018-07-10T07:00:00","79","30","8,4","3,3","253,6","23,9","74,6","17,4","0"],
    [38926,"2018-07-10T08:00:00","ND","23","11,9","1,9","261,9","25,9","66,2","95,7","0"],
    [38927,"2018-07-10T09:00:00","70","32","18,7","1,8","260,8","28,3","58,8","188,8","0"],
    [38928,"2018-07-10T10:00:00","53","14","37","2,7","249,6","31","47,8","320","0"],
    [38929,"2018-07-10T11:00:00","33","16","59,6","2,5","263,1","32,9","41,2","392,1","0"],
    [38930,"2018-07-10T12:00:00","ND","ND","76,9","3","291,1","34,7","36,3","376,6","0"],
    [38931,"2018-07-10T13:00:00","53","11","85,8","3,4","274","34,1","36,9","232,5","0"],
    [38932,"2018-07-10T14:00:00","48","14","89,1","2,4","276,8","35,1","34,9","313,7","0"],
    [38933,"2018-07-10T15:00:00","56","7","95,4","4,3","200,5","36,2","33,1","321,6","0"],
    [38934,"2018-07-10T16:00:00","40","2","65,8","5,2","205,4","34,9","35,8","168,9","0"],
    [38935,"2018-07-10T17:00:00","47","1","50,2","4,9","133,9","33,2","38,2","61","0"],
    [38936,"2018-07-10T18:00:00","24","ND","27,9","4,9","130,2","32,1","40,1","14,8","0"],
    [38937,"2018-07-10T19:00:00","40","ND","25,3","6","115,7","30,7","44","0","0"],
    [38938,"2018-07-10T20:00:00","68","21","14,9","2,6","233,6","29,8","49,3","0","0"],
    [38939,"2018-07-10T21:00:00","48","6","18,1","0,8","77,1","29,1","50,7","0","0"],
    [38940,"2018-07-10T22:00:00","31","1","24,8","1,4","66,1","28,9","47,2","0","0"],
    [38941,"2018-07-10T23:00:00","29","1","18","3,4","223,1","27,7","55,8","0","0"],
    [38942,"2018-07-11T00:00:00","22","2","22,2","2,6","237,7","27","58,1","0","0"],
    [38943,"2018-07-11T01:00:00","7","ND","22,6","2,5","282,4","26,2","60,1","0","0"],
    [38944,"2018-07-11T02:00:00","8","ND","19,9","1","126,6","25,5","63,4","0","0"],
    [38945,"2018-07-11T03:00:00","10","ND","24,5","1,5","28","26","61,9","0","0"],
    [38946,"2018-07-11T04:00:00","5","1","15,3","2,4","286,3","24,6","65,8","0","0"],
    [38947,"2018-07-11T05:00:00","15","ND","18,7","1,1","123,8","25,4","61,7","0","0"],
    [38948,"2018-07-11T06:00:00","27","ND","10,8","2,7","42","25,4","67","0","0"],
    [38949,"2018-07-11T07:00:00","48","6","9,8","1","301,1","25","69,6","14,6","0"],
    [38950,"2018-07-11T08:00:00","36","8","13,5","2,8","268,1","26,3","63,7","89,2","0"],
    [38951,"2018-07-11T09:00:00","43","8","21,7","1,5","341","27,6","58,9","148,1","0"],
    [38952,"2018-07-11T10:00:00","45","15","32,6","2,8","27,5","29","53,6","225,9","0"],
    [38953,"2018-07-11T11:00:00","29","5","53,5","2,8","40,6","31,7","43,9","339,6","0"],
    [38954,"2018-07-11T12:00:00","42","8","69,4","2,9","338,8","33,5","39,5","434,1","0"],
    [38955,"2018-07-11T13:00:00","39","14","70,8","2,9","348,7","35,3","33,7","448","0"],
    [38956,"2018-07-11T14:00:00","30","12","82,4","1,6","359,3","36,3","30,4","428,3","0"],
    [38957,"2018-07-11T15:00:00","58","10","95,4","4,9","276,8","35,7","33,8","371,3","0"],
    [38958,"2018-07-11T16:00:00","71","10","86","5,4","269,3","35,2","34,5","237,3","0"],
    [38959,"2018-07-11T17:00:00","61","10","78,4","3,6","267,4","35","34,5","136,7","0"],
    [38960,"2018-07-11T18:00:00","60","16","70,9","5","182,6","33,7","38,1","51,9","0"],
    [38961,"2018-07-11T19:00:00","67","18","41,2","2,9","158,6","31,9","42","0","0"],
    [38962,"2018-07-11T20:00:00","59","13","24,8","1,5","138,8","30,3","46,7","0","0"],
    [38963,"2018-07-11T21:00:00","65","19","13,8","2,9","274,8","28,8","54,3","0","0"],
    [38964,"2018-07-11T22:00:00","42","6","11,8","3,4","282,2","27,3","61,3","0","0"],
    [38965,"2018-07-11T23:00:00","22","3","14,3","2,6","265,2","26,6","62,4","0","0"],
    [38966,"2018-07-12T00:00:00","12","2","19,4","1,4","247,6","27","59,7","0","0"],
    [38967,"2018-07-12T01:00:00","20","ND","16,8","1,3","314,7","26,6","62","0","0"],
    [38968,"2018-07-12T02:00:00","53","21","12,4","2,3","318,8","25,7","68,1","0","0"],
    [38969,"2018-07-12T03:00:00","57","14","10,7","1,9","7,4","25,5","69,3","0","0"],
    [38970,"2018-07-12T04:00:00","52","11","11,5","1,6","5,8","25,3","69,1","0","0"],
    [38971,"2018-07-12T05:00:00","58","17","10,6","1,2","349,4","25,1","69,3","0","0"],
    [38972,"2018-07-12T06:00:00","75","20","9","2,3","22,5","24,3","72,4","0","0"],
    [38973,"2018-07-12T07:00:00","86","27","9,2","2,1","310,4","23,9","71,4","12,7","0"],
    [38974,"2018-07-12T08:00:00","85","20","11,9","2","306,3","25,6","64,2","108","0"],
    [38975,"2018-07-12T09:00:00","60","11","27,8","2,4","279,9","29","53,1","222,7","0"],
    [38976,"2018-07-12T10:00:00","68","7","49","1,9","304,7","31,7","43,5","303,1","0"],
    [38977,"2018-07-12T11:00:00","49","15","60,6","2,1","296,3","33,2","40","370,1","0"],
    [38978,"2018-07-12T12:00:00","36","6","78,6","2,8","303,7","34,7","35,2","437,8","0"],
    [38979,"2018-07-12T13:00:00","43","11","81,6","3,4","280","35,7","32,8","453,2","0"],
    [38980,"2018-07-12T14:00:00","51","15","102,8","2,2","260,9","36,2","30,9","392,2","0"],
    [38981,"2018-07-12T15:00:00","57","12","115,8","3,5","280,1","36,7","30,3","314,7","0"],
    [38982,"2018-07-12T16:00:00","45","12","106,3","3,3","256,3","35,8","32,2","118,6","0"],
    [38983,"2018-07-12T17:00:00","46","11","76,9","4,2","181,9","35,8","34,2","142","0"],
    [38984,"2018-07-12T18:00:00","44","12","60,7","4,2","131,7","33,6","37,9","18,5","0"],
    [38985,"2018-07-12T19:00:00","45","9","47,5","5,7","112,3","32","41,7","0","0"],
    [38986,"2018-07-12T20:00:00","37","7","32","3,7","130,1","31,1","45,3","0","0"],
    [38987,"2018-07-12T21:00:00","51","6","14,6","3,8","267,5","29,2","54,7","0","0"],
    [38988,"2018-07-12T22:00:00","47","6","12,6","2,6","266,3","27,9","59,7","0","0"],
    [38989,"2018-07-12T23:00:00","19","5","15,1","3,1","262,6","27,4","61,1","0","0"],
    [38990,"2018-07-13T00:00:00","38","4","12,3","1,7","320,5","27,4","61,3","0","0"],
    [38991,"2018-07-13T01:00:00","16","2","16,1","1,7","271,7","26,2","65,6","0","0"],
    [38992,"2018-07-13T02:00:00","38","ND","14,2","2,2","38,5","26,1","66,6","0","0"],
    [38993,"2018-07-13T03:00:00","39","6","11,6","1,9","297,5","25,7","68","0","0"],
    [38994,"2018-07-13T04:00:00","57","11","10,4","1,9","314","25,3","69,2","0","0"],
    [38995,"2018-07-13T05:00:00","90","30","9,3","1,9","328,8","24,7","70,4","0","0"],
    [38996,"2018-07-13T06:00:00","65","15","9,1","1,7","357,9","24,2","68,2","0","0"],
    [38997,"2018-07-13T07:00:00","62","20","9,3","1,9","315,8","24,1","66,7","11,4","0"],
    [38998,"2018-07-13T08:00:00","61","19","10,6","2,2","10,9","25,1","61,8","66","0"],
    [38999,"2018-07-13T09:00:00","54","10","18,6","2,7","356","28,1","51,2","154,8","0"],
    [39000,"2018-07-13T10:00:00","50","12","32","2,4","345,1","30,6","43,3","251,1","0"],
    [39001,"2018-07-13T11:00:00","36","7","42,4","2,7","299,3","31,6","42,6","276,9","0"],
    [39002,"2018-07-13T12:00:00","32","12","67,1","1","244,6","33,5","39","368,1","0"],
    [39003,"2018-07-13T13:00:00","35","9","81,1","3,3","266,8","34,2","37,8","358,5","0"],
    [39004,"2018-07-13T14:00:00","43","10","92","3,3","257,9","34,6","36,6","329","0"],
    [39005,"2018-07-13T15:00:00","50","6","89,3","4,9","267,1","34,8","35,5","219,2","0"],
    [39006,"2018-07-13T16:00:00","39","8","58,3","2,3","244,5","34,4","36,4","122,7","0"],
    [39007,"2018-07-13T17:00:00","39","5","49,7","4,7","108,6","33,2","38,1","49,3","0"],
    [39008,"2018-07-13T18:00:00","34","9","33,9","4,8","113,3","32,1","40,1","19","0"],
    [39009,"2018-07-13T19:00:00","22","7","18,9","4,3","111,1","31,3","42","0","0"],
    [39010,"2018-07-13T20:00:00","47","8","13,7","1,8","159","30,5","46,9","0","0"],
    [39011,"2018-07-13T21:00:00","57","10","10,5","3,1","262,2","28,8","55,4","0","0"],
    [39012,"2018-07-13T22:00:00","39","16","11,3","3","253,7","27,5","60,4","0","0"],
    [39013,"2018-07-13T23:00:00","27","5","12,3","2,6","204,4","27,3","60,9","0","0"],
    [39014,"2018-07-14T00:00:00","22","5","12,3","2,5","283,2","27,3","60,7","0","0"],
    [39015,"2018-07-14T01:00:00","9","1","12,8","2,3","308,3","26,7","63,2","0","0"],
    [39016,"2018-07-14T02:00:00","56","11","10,7","1","357,3","26,3","65,2","0","0"],
    [39017,"2018-07-14T03:00:00","39","8","10,3","1,6","14,5","26,1","67,1","0","0"],
    [39018,"2018-07-14T04:00:00","47","8","9,9","2","286,3","25,5","69,4","0","0"],
    [39019,"2018-07-14T05:00:00","36","7","9,8","0,2","359,9","25,5","68,8","0","0"],
    [39020,"2018-07-14T06:00:00","78","31","10,2","1,3","319,3","25,2","70,3","0","0"],
    [39021,"2018-07-14T07:00:00","103","25","10,4","1,8","286,5","24,6","72","14,8","0"],
    [39022,"2018-07-14T08:00:00","109","33","11,7","3,3","317,4","26","67,2","112,1","0"],
    [39023,"2018-07-14T09:00:00","59","11","20,5","2,5","348,3","28,9","54,7","165,4","0"],
    [39024,"2018-07-14T10:00:00","40","12","39,4","2,3","11","31,5","44,6","323,4","0"],
    [39025,"2018-07-14T11:00:00","26","5","59,2","1,5","247,4","33,2","39,4","355,7","0"],
    [39026,"2018-07-14T12:00:00","37","13","75,7","2,9","261","34,7","37","433,8","0"],
    [39027,"2018-07-14T13:00:00","46","18","95,5","1,9","293,3","35,9","33,9","453,8","0"],
    [39028,"2018-07-14T14:00:00","46","12","96,2","3,1","285,5","37","30,9","408,1","0"],
    [39029,"2018-07-14T15:00:00","56","12","115,9","3,3","233,6","36,9","30,3","306,1","0"],
    [39030,"2018-07-14T16:00:00","61","22","82,1","3,8","198,3","35,5","34,5","161,5","0"],
    [39031,"2018-07-14T17:00:00","43","9","78,1","3","168,1","35,7","33,1","167,6","0"],
    [39032,"2018-07-14T18:00:00","26","5","51,8","6","131,2","33,4","37,2","35,4","0"],
    [39033,"2018-07-14T19:00:00","28","11","31,7","4,3","129,1","31,9","40,9","0","0"],
    [39034,"2018-07-14T20:00:00","44","10","21,1","1,6","195,5","30,6","46,2","0","0"],
    [39035,"2018-07-14T21:00:00","56","17","14,8","1,8","232,9","30","48,8","0","0"],
    [39036,"2018-07-14T22:00:00","48","2","12,2","3,5","284","29,1","54,5","0","0"],
    [39037,"2018-07-14T23:00:00","21","ND","13,5","2,5","279","28,4","57,5","0","0"],
    [39038,"2018-07-15T00:00:00","39","5","12,1","1,1","322,9","28,4","57,5","0","0"],
    [39039,"2018-07-15T01:00:00","8","5","12,8","2,9","289,7","27,9","59","0","0"],
    [39040,"2018-07-15T02:00:00","21","2","13,5","2,4","307,3","27,4","60,7","0","0"],
    [39041,"2018-07-15T03:00:00","30","ND","11,9","1,6","327,6","27,4","61,9","0","0"],
    [39042,"2018-07-15T04:00:00","39","1","11,9","1,9","351,9","26,8","64,8","0","0"],
    [39043,"2018-07-15T05:00:00","40","3","10,9","1,9","329,6","26,1","65,8","0","0"],
    [39044,"2018-07-15T06:00:00","51","6","10","1,7","323,4","25,6","66,4","0","0"],
    [39045,"2018-07-15T07:00:00","36","5","10,4","1,9","349,4","25,6","65,6","12,2","0"],
    [39046,"2018-07-15T08:00:00","46","7","12,6","2,6","329,5","26,7","62","70,8","0"],
    [39047,"2018-07-15T09:00:00","36","6","20,3","4,2","22,1","28,7","52,1","162","0"],
    [39048,"2018-07-15T10:00:00","22","4","34,2","3,8","27","31","44,9","301,3","0"],
    [39049,"2018-07-15T11:00:00","37","3","54","2,1","338,2","32,8","41,3","401","0"],
    [39050,"2018-07-15T12:00:00","31","2","70,3","2,3","351,9","35,4","33,1","435,4","0"],
    [39051,"2018-07-15T13:00:00","18","2","76,4","0,9","12,8","36,5","29,6","455,4","0"],
    [39052,"2018-07-15T14:00:00","47","7","83,4","1,7","334,5","36,7","30,2","355,2","0"],
    [39053,"2018-07-15T15:00:00","60","15","98,4","4,7","271,5","35,9","33,8","293,3","0"],
    [39054,"2018-07-15T16:00:00","48","16","77,6","5,2","269,4","35,1","34,6","152,8","0"],
    [39055,"2018-07-15T17:00:00","45","6","59,9","2,9","259,3","33,7","36,5","27,9","0"],
    [39056,"2018-07-15T18:00:00","42","6","50","4,8","112,4","31,9","41,2","20,1","0"],
    [39057,"2018-07-15T19:00:00","26","ND","33,8","4,6","102,7","31","43,1","0","0"],
    [39058,"2018-07-15T20:00:00","26","ND","26,8","4,8","103,5","30,4","43,2","0","0"],
    [39059,"2018-07-15T21:00:00","38","ND","21,4","0,9","120,4","29,5","47,3","0","0"],
    [39060,"2018-07-15T22:00:00","39","ND","14,9","3,3","278,6","28","56,8","0","0"],
    [39061,"2018-07-15T23:00:00","45","16","14,7","2,8","231,5","28","55,1","0","0"],
    [39062,"2018-07-16T00:00:00","19","1","14,8","3,6","261","26,9","59,9","0","0"],
    [39063,"2018-07-16T01:00:00","22","2","17,3","2,8","270,1","26,8","58,5","0","0"],
    [39064,"2018-07-16T02:00:00","29","6","15,9","1,6","248,3","26,3","62,6","0","0"],
    [39065,"2018-07-16T03:00:00","8","2","14,7","2","234,2","26","64,2","0","0"],
    [39066,"2018-07-16T04:00:00","21","ND","13,8","0,7","25,7","25,6","62,5","0","0"],
    [39067,"2018-07-16T05:00:00","29","5","10,4","0,5","305,6","25,7","62","0","0"],
    [39068,"2018-07-16T06:00:00","64","25","9,8","1,4","309,2","25,9","59,8","0","0"],
    [39069,"2018-07-16T07:00:00","55","7","11,4","1,8","337,8","26","52,3","19,2","0"],
    [39070,"2018-07-16T08:00:00","90","16","14,8","2,3","325","26,7","44,5","59,6","0"],
    [39071,"2018-07-16T09:00:00","43","3","27,2","1,9","351,2","28,1","39,7","108,9","0"],
    [39072,"2018-07-16T10:00:00","55","5","32,5","1,5","277","29,3","38,2","141,2","0"],
    [39073,"2018-07-16T11:00:00","45","4","45,2","1,7","306,8","31,3","31,9","284,3","0"],
    [39074,"2018-07-16T12:00:00","45","2","60,4","2,1","331,6","34,5","24,4","489,2","0"],
    [39075,"2018-07-16T13:00:00","19","2","65,6","2,4","330,8","36,2","22,3","460,1","0"],
    [39076,"2018-07-16T14:00:00","19","1","72,3","2","350,3","36,6","21,4","375,3","0"],
    [39077,"2018-07-16T15:00:00","40","ND","64,7","4,7","265,5","35,5","24,2","275,1","0"],
    [39078,"2018-07-16T16:00:00","51","5","70,5","4,7","237,1","35,5","24,8","185,3","0"],
    [39079,"2018-07-16T17:00:00","65","15","59,9","4,6","241,8","34,8","28,8","114","0"],
    [39080,"2018-07-16T18:00:00","46","8","61,6","4,7","141,8","33,2","35,8","45,7","0"],
    [39081,"2018-07-16T19:00:00","46","7","39,1","4,4","118,6","31,1","40,6","0","0"],
    [39082,"2018-07-16T20:00:00","36","4","35,2","4,7","112,3","30,7","41,2","0","0"],
    [39083,"2018-07-16T21:00:00","47","8","21,8","2,5","281,3","29,5","48","0","0"],
    [39084,"2018-07-16T22:00:00","45","6","14,6","2,3","274,8","28,3","55,1","0","0"],
    [39085,"2018-07-16T23:00:00","57","17","13,9","0,9","9,6","28,9","51,1","0","0"],
    [39086,"2018-07-17T00:00:00","24","5","14,6","1,7","275,5","27,9","57,1","0","0"],
    [39087,"2018-07-17T01:00:00","20","2","15,9","3,5","263,6","27,6","59","0","1,52"],
    [39088,"2018-07-17T02:00:00","13","ND","14,9","1,5","266,8","25,5","73,5","0","5,33"],
    [39089,"2018-07-17T03:00:00","8","ND","12,9","1,6","5,3","26,1","69,8","0","0"],
    [39090,"2018-07-17T04:00:00","62","17","12,1","2","18,5","25,6","70","0","0"],
    [39091,"2018-07-17T05:00:00","50","15","10,9","1,3","312,3","25,5","71,1","0","0"],
    [39092,"2018-07-17T06:00:00","55","18","10,3","1,1","349,1","25,4","71,3","0","0"],
    [39093,"2018-07-17T07:00:00","76","22","11","2","319,6","25,6","70,7","10","0"],
    [39094,"2018-07-17T08:00:00","63","20","13,5","2,2","358","26,8","65,9","92","0"],
    [39095,"2018-07-17T09:00:00","52","14","18,3","2,3","349,7","27,6","60,7","71,4","0"],
    [39096,"2018-07-17T10:00:00","67","25","19,8","3,1","291,7","28,1","60,1","148,9","0"],
    [39097,"2018-07-17T11:00:00","49","15","51,2","1,1","303","31,4","48","330,9","0"],
    [39098,"2018-07-17T12:00:00","64","17","71,7","1,7","314,4","31,9","44,9","223","0"],
    [39099,"2018-07-17T13:00:00","69","22","80,1","3,6","265,4","32,5","42,1","266,4","0"],
    [39100,"2018-07-17T14:00:00","50","13","83,5","3,3","274,9","33,7","38,6","350,6","0"],
    [39101,"2018-07-17T15:00:00","61","19","89,8","4,5","286,1","33,9","37,7","271,6","0"],
    [39102,"2018-07-17T16:00:00","68","22","77,7","4","291,1","33,6","37,9","162,1","0"],
    [39103,"2018-07-17T17:00:00","69","16","59,9","3,8","292,1","33","38,6","76,8","0"],
    [39104,"2018-07-17T18:00:00","60","17","45","1,6","2,6","32,2","40","15,5","0"],
    [39105,"2018-07-17T19:00:00","31","5","25,9","4","99,1","31,1","43,1","0","0"],
    [39106,"2018-07-17T20:00:00","24","3","18,1","4,2","112,6","30,3","45,9","0","0"],
    [39107,"2018-07-17T21:00:00","41","9","14,9","1,5","207,8","29,6","49,6","0","0"],
    [39108,"2018-07-17T22:00:00","26","12","19,8","3,6","189,6","27,4","62","0","0"],
    [39109,"2018-07-17T23:00:00","46","7","12,3","2,1","272,2","27,6","61,1","0","0"],
    [39110,"2018-07-18T00:00:00","23","6","12,6","2,1","256","26,4","68,1","0","0"],
    [39111,"2018-07-18T01:00:00","14","2","12,9","0,5","289,3","26,5","66,8","0","0"],
    [39112,"2018-07-18T02:00:00","24","ND","15,4","0,4","53,6","26,6","64,9","0","0"],
    [39113,"2018-07-18T03:00:00","58","24","11,5","1,3","18,8","25,9","70,6","0","0"],
    [39114,"2018-07-18T04:00:00","39","17","11,5","1,6","9,6","26,2","67,3","0","0"],
    [39115,"2018-07-18T05:00:00","55","15","10,8","2,1","307,3","25,6","69,9","0","0"],
    [39116,"2018-07-18T06:00:00","77","31","11,4","1,7","306,4","25,5","70,1","0","0"],
    [39117,"2018-07-18T07:00:00","126","62","12,5","1,6","348,3","25,3","71,6","7,3","0"],
    [39118,"2018-07-18T08:00:00","90","31","12,4","1,5","13","26,4","67,7","56,3","0"],
    [39119,"2018-07-18T09:00:00","68","16","20,4","1,2","345,5","28,8","57,3","180,2","0"],
    [39120,"2018-07-18T10:00:00","53","13","39,9","2,1","317,4","30,9","49,6","299,2","0"],
    [39121,"2018-07-18T11:00:00","58","20","59","3,1","257,5","31,9","45,9","303,1","0"],
    [39122,"2018-07-18T12:00:00","48","13","78,6","2,6","243,3","33,4","40,9","392,2","0"],
    [39123,"2018-07-18T13:00:00","60","17","102,5","2,7","279,3","34,3","37,8","377,4","0"],
    [39124,"2018-07-18T14:00:00","66","16","110","3,6","275,7","35,2","35,3","345,4","0"],
    [39125,"2018-07-18T15:00:00","52","23","113,3","4,3","267,8","35,2","34,5","259","0"],
    [39126,"2018-07-18T16:00:00","48","11","88,5","3,7","213,7","35,1","35,3","182,8","0"],
    [39127,"2018-07-18T17:00:00","68","5","58,9","3,5","140,8","34,9","34,4","143,7","0,51"],
    [39128,"2018-07-18T18:00:00","49","3","42,8","5,1","125,2","32,7","38,1","33,1","0"],
    [39129,"2018-07-18T19:00:00","39","2","24,9","4,6","113,4","31,3","41,5","0","0"],
    [39130,"2018-07-18T20:00:00","45","3","18,6","2,9","203,9","30,5","45,7","0","0"],
    [39131,"2018-07-18T21:00:00","39","6","13,3","3,2","256,8","29,4","51,8","0","0"],
    [39132,"2018-07-18T22:00:00","40","12","12,1","2,7","266","28,2","57,5","0","0"],
    [39133,"2018-07-18T23:00:00","23","5","12,6","2,6","281,4","27,8","59,4","0","0"],
    [39134,"2018-07-19T00:00:00","21","ND","13,4","0,8","73","27,1","62","0","0"],
    [39135,"2018-07-19T01:00:00","40","5","13,7","3,3","41,9","27,3","61,9","0","0"],
    [39136,"2018-07-19T02:00:00","21","2","17,6","2","11,5","27,4","60,5","0","0"],
    [39137,"2018-07-19T03:00:00","30","ND","12,2","3","285,8","26","66,7","0","0"],
    [39138,"2018-07-19T04:00:00","26","ND","12,7","2,1","276","26","66,4","0","0"],
    [39139,"2018-07-19T05:00:00","19","ND","14,6","1,6","256,5","26,4","63,1","0","0"],
    [39140,"2018-07-19T06:00:00","37","9","12,9","1,5","3,3","26,6","62,3","0","0"],
    [39141,"2018-07-19T07:00:00","53","15","11,8","1,7","357,8","26,3","65","5,8","0"],
    [39142,"2018-07-19T08:00:00","72","11","13,3","2,3","13,7","27","63,7","49,2","0"],
    [39143,"2018-07-19T09:00:00","58","10","17","2,4","357","28,3","58,9","97,5","0"],
    [39144,"2018-07-19T10:00:00","44","10","29,6","3,2","23,8","30,5","51,4","275,8","0"],
    [39145,"2018-07-19T11:00:00","43","9","43,2","2,6","268","31,7","46,2","285,1","0"],
    [39146,"2018-07-19T12:00:00","34","9","54","2,1","260,2","31,9","44,6","224,4","0"],
    [39147,"2018-07-19T13:00:00","48","10","75,4","2,6","261,8","33,3","40,5","249,8","0"],
    [39148,"2018-07-19T14:00:00","47","13","67,1","4","266,5","33","41,3","175,7","0"],
    [39149,"2018-07-19T15:00:00","52","10","58,6","4,3","260,3","33,1","41,9","135,4","0"],
    [39150,"2018-07-19T16:00:00","56","12","67,7","3,3","271,6","33,1","41,7","92","0"],
    [39151,"2018-07-19T17:00:00","46","7","51,3","0,7","116,1","33,2","40,4","75,2","0"],
    [39152,"2018-07-19T18:00:00","39","3","34,7","5,2","104,8","32,3","40,1","23,2","0"],
    [39153,"2018-07-19T19:00:00","25","3","23,6","4,8","108,7","30,7","44,7","0","0"],
    [39154,"2018-07-19T20:00:00","32","ND","14,7","2,8","132,2","30","47","0","0"],
    [39155,"2018-07-19T21:00:00","49","4","11,7","3,4","260,3","27,9","57,9","0","0"],
    [39156,"2018-07-19T22:00:00","23","4","11,3","2,8","260,6","27,2","62,4","0","0"],
    [39157,"2018-07-19T23:00:00","18","ND","13","3","249,8","27,4","61","0","0"],
    [39158,"2018-07-20T00:00:00","28","ND","15,4","2,8","253,3","27,3","60,8","0","0"],
    [39159,"2018-07-20T01:00:00","5","ND","16,4","2,2","276,9","27,1","61,3","0","0"],
    [39160,"2018-07-20T02:00:00","15","ND","16,1","1,5","7,2","26,9","62,5","0","0"],
    [39161,"2018-07-20T03:00:00","12","ND","12,5","2,7","296","26,6","64,8","0","0"],
    [39162,"2018-07-20T04:00:00","24","1","14,1","0,5","194,1","26,2","65,6","0","0"],
    [39163,"2018-07-20T05:00:00","28","2","11,7","0,9","51,1","26,4","65,2","0","0"],
    [39164,"2018-07-20T06:00:00","39","2","11,8","1,7","3","26,7","64,9","0","0"],
    [39165,"2018-07-20T07:00:00","55","10","11,1","2,2","291,8","26","70,1","5,3","0"],
    [39166,"2018-07-20T08:00:00","65","17","11,2","2,5","290","26,3","69,6","22,6","0"],
    [39167,"2018-07-20T09:00:00","45","8","16,9","1,9","351,4","28,8","59,1","156,7","0"],
    [39168,"2018-07-20T10:00:00","53","16","29,8","2,5","318,5","31,1","49,7","232,8","0"],
    [39169,"2018-07-20T11:00:00","43","8","54,8","3,2","247,5","31,9","46,1","322,9","0"],
    [39170,"2018-07-20T12:00:00","36","5","62,9","2,4","281,7","32,7","43,3","281,9","0"],
    [39171,"2018-07-20T13:00:00","30","5","72","4,1","280,6","33,6","39,7","316,1","0"],
    [39172,"2018-07-20T14:00:00","50","8","81,6","4,8","261,3","34,8","38,2","397,5","0"],
    [39173,"2018-07-20T15:00:00","48","3","70,4","4,6","258,5","35","37,9","293,8","0"],
    [39174,"2018-07-20T16:00:00","31","ND","52,6","4,5","261,2","35","37","192","0"],
    [39175,"2018-07-20T17:00:00","24","ND","44,2","4,5","112,6","33,4","38,2","58,4","0"],
    [39176,"2018-07-20T18:00:00","30","3","36,9","5,7","105,1","31,8","41,5","25,1","0"],
    [39177,"2018-07-20T19:00:00","45","5","31,2","4,8","119,1","30,8","43,6","0,7","0"],
    [39178,"2018-07-20T20:00:00","41","7","18,7","3,1","245,9","30","48","0","0"],
    [39179,"2018-07-20T21:00:00","44","12","15,5","3,8","242,8","29","52,6","0","0"],
    [39180,"2018-07-20T22:00:00","32","8","13,7","3,5","256,8","28,2","56","0","0"],
    [39181,"2018-07-20T23:00:00","30","3","15,1","2,7","255,9","27,9","56,6","0","0"],
    [39182,"2018-07-21T00:00:00","15","ND","15,9","2,3","260,4","27,3","58,3","0","0"],
    [39183,"2018-07-21T01:00:00","16","ND","16,6","1,2","269,7","27,2","59,3","0","0"],
    [39184,"2018-07-21T02:00:00","9","2","14,5","2","304,6","27,1","60,5","0","0"],
    [39185,"2018-07-21T03:00:00","34","ND","14,5","2,4","307,7","26,4","63,4","0","0"],
    [39186,"2018-07-21T04:00:00","30","ND","15,8","0,7","300,1","26,1","64,3","0","0"],
    [39187,"2018-07-21T05:00:00","25","ND","15,4","0,8","12,1","26,5","62,8","0","0"],
    [39188,"2018-07-21T06:00:00","57","21","11,3","1,4","311,6","26,3","64,7","0","0"],
    [39189,"2018-07-21T07:00:00","72","16","11,4","1,4","346","26,2","65,9","4,5","0"],
    [39190,"2018-07-21T08:00:00","60","23","13,9","1,4","352,5","27","63,5","62,9","0"],
    [39191,"2018-07-21T09:00:00","51","4","22,9","1,7","352,5","29,3","54,9","159,4","0"],
    [39192,"2018-07-21T10:00:00","45","4","38,4","2,3","347","31","48,2","267,3","0"],
    [39193,"2018-07-21T11:00:00","42","9","52,2","1,9","309,8","32,6","43,4","283","0"],
    [39194,"2018-07-21T12:00:00","27","6","59,9","2,7","304,6","33,9","39,2","306,2","0"],
    [39195,"2018-07-21T13:00:00","47","ND","67","2,5","319,7","34,2","38,3","279,9","0"],
    [39196,"2018-07-21T14:00:00","46","3","61,1","3,5","282","33,6","39,6","149,5","0"],
    [39197,"2018-07-21T15:00:00","48","15","64,2","2,7","291,7","33,4","39,9","94,5","0"],
    [39198,"2018-07-21T16:00:00","46","5","66,3","1,3","122,2","33,7","38,8","103,1","0"],
    [39199,"2018-07-21T17:00:00","31","5","56","4,3","109","32,9","39,1","63,6","0"],
    [39200,"2018-07-21T18:00:00","26","ND","37","4,4","116,2","32,3","39,6","33,6","0"],
    [39201,"2018-07-21T19:00:00","55","22","20,9","4,6","114,5","31,3","42,4","0,9","0"],
    [39202,"2018-07-21T20:00:00","36","9","17,9","4,5","113,4","30,6","45,5","0","0"],
    [39203,"2018-07-21T21:00:00","49","17","14,9","1,5","201,7","29,8","50,2","0","0"],
    [39204,"2018-07-21T22:00:00","31","10","12,2","2,7","278,3","28,4","57,4","0","0"],
    [39205,"2018-07-21T23:00:00","18","5","12,7","2,8","271,2","27,8","60,2","0","0"],
    [39206,"2018-07-22T00:00:00","42","3","11,4","0,9","349,2","27,9","59,7","0","0"],
    [39207,"2018-07-22T01:00:00","28","ND","12","0,7","337,2","27,9","59,1","0","0"],
    [39208,"2018-07-22T02:00:00","21","ND","14,5","3,1","303,5","27","62,8","0","0"],
    [39209,"2018-07-22T03:00:00","28","ND","14,9","1,1","350,8","27,1","62,1","0","0"],
    [39210,"2018-07-22T04:00:00","47","ND","12,1","2","340","27","64,3","0","0"],
    [39211,"2018-07-22T05:00:00","39","ND","12,2","2,8","290,6","26,5","66,5","0","0"],
    [39212,"2018-07-22T06:00:00","40","5","12,3","2,1","352,2","26,4","67,9","0","0"],
    [39213,"2018-07-22T07:00:00","13","4","14,2","2,4","44,3","26,1","68,8","13,9","0"],
    [39214,"2018-07-22T08:00:00","37","4","15,1","1,2","314,5","27,2","64,8","42,7","0"],
    [39215,"2018-07-22T09:00:00","32","3","20,5","2","332","29","57,4","166,8","0"],
    [39216,"2018-07-22T10:00:00","26","4","30,8","1,7","353,4","31,3","49,3","260,2","0"],
    [39217,"2018-07-22T11:00:00","37","6","47,3","2,2","280,7","31,9","46,9","260","0"],
    [39218,"2018-07-22T12:00:00","48","7","59,6","2,7","247,7","32,3","45,4","252","0"],
    [39219,"2018-07-22T13:00:00","34","7","61","3,8","235,7","32,5","44,5","237,8","0"],
    [39220,"2018-07-22T14:00:00","37","8","53,7","4,5","237,6","33,3","41,1","265,7","0"],
    [39221,"2018-07-22T15:00:00","32","5","51,7","5,3","219,6","33,9","38,3","282,4","0"],
    [39222,"2018-07-22T16:00:00","29","4","50,4","5,3","193,6","34,5","34,9","262,4","0"],
    [39223,"2018-07-22T17:00:00","21","ND","45,8","4,7","191,2","33,8","35,5","147,8","0"],
    [39224,"2018-07-22T18:00:00","33","ND","30,9","3,4","205,9","32,4","37,6","19,6","0"],
    [39225,"2018-07-22T19:00:00","29","1","24,8","2,1","151,9","31","41,6","0,3","0"],
    [39226,"2018-07-22T20:00:00","55","9","13,4","2,7","254,8","29,2","50,2","0","0"],
    [39227,"2018-07-22T21:00:00","47","3","12,2","3,3","256","27,1","59,8","0","0"],
    [39228,"2018-07-22T22:00:00","31","ND","13,4","2,5","198,7","26,6","60,2","0","0"],
    [39229,"2018-07-22T23:00:00","33","4","12,1","1,6","263,4","26,3","61,2","0","0"],
    [39230,"2018-07-23T00:00:00","37","13","10,9","1,6","292,7","25,5","64,3","0","0"],
    [39231,"2018-07-23T01:00:00","27","8","11,1","1,6","332,2","25,5","65,2","0","0"],
    [39232,"2018-07-23T02:00:00","55","14","11,9","3,4","291,3","24,6","69,1","0","0"],
    [39233,"2018-07-23T03:00:00","34","6","10,8","0,6","29","25,1","67,1","0","0"],
    [39234,"2018-07-23T04:00:00","76","35","12,3","2,9","56","25,5","65,6","0","0"],
    [39235,"2018-07-23T05:00:00","37","2","10,8","1,8","35,5","25,1","67,3","0","0"],
    [39236,"2018-07-23T06:00:00","54","12","11,2","2,2","7,9","24,9","69,4","0","0"],
    [39237,"2018-07-23T07:00:00","43","9","11,9","2,9","31,8","25,1","69,2","12,7","0"],
    [39238,"2018-07-23T08:00:00","61","4","13,9","1,6","324,5","26,5","63,7","59,5","0"],
    [39239,"2018-07-23T09:00:00","69","5","15,1","2,9","279,6","27,3","62,4","101","0"],
    [39240,"2018-07-23T10:00:00","56","6","25,8","2,5","317,2","29,3","53,4","177","0"],
    [39241,"2018-07-23T11:00:00","54","16","45,3","1,8","321,7","31,4","46,7","314,4","0"],
    [39242,"2018-07-23T12:00:00","54","15","65,3","2,5","287,8","33,1","40,5","419,7","0"],
    [39243,"2018-07-23T13:00:00","49","4","79,1","3,3","242,7","33,8","38,7","405,5","0"],
    [39244,"2018-07-23T14:00:00","60","10","97,3","3,1","266,4","34,6","36,3","383,5","0"],
    [39245,"2018-07-23T15:00:00","63","14","122","2,8","222,4","35,2","35,2","255,2","0"],
    [39246,"2018-07-23T16:00:00","59","12","82,1","3","247,8","34,5","36","112,9","0"],
    [39247,"2018-07-23T17:00:00","44","6","48,4","4,4","100,1","34,5","35,2","127,4","0"],
    [39248,"2018-07-23T18:00:00","44","ND","26,5","7,3","108,7","32","39,9","11,2","0"],
    [39249,"2018-07-23T19:00:00","48","ND","19,5","5,4","119,1","31,2","42,2","0","0"],
    [39250,"2018-07-23T20:00:00","68","10","14,7","1,5","194,5","30,2","47,2","0","0"],
    [39251,"2018-07-23T21:00:00","46","5","12,4","3,2","263,6","29","54,2","0","0"],
    [39252,"2018-07-23T22:00:00","42","ND","11,6","1,2","248,6","28,7","56,1","0","0"],
    [39253,"2018-07-23T23:00:00","24","ND","19,5","3,7","67,2","28,7","55,1","0","3,56"],
    [39254,"2018-07-24T00:00:00","ND","ND","14,6","3,7","121,1","25,8","72,4","0","11,18"],
    [39255,"2018-07-24T01:00:00","ND","ND","ND","ND","ND","ND","ND","ND","ND"],
    [39256,"2018-07-24T02:00:00","ND","ND","ND","ND","ND","ND","ND","ND","ND"],
    [39257,"2018-07-24T03:00:00","18","ND","20,3","1,5","356,1","25,4","74","0","0"],
    [39258,"2018-07-24T04:00:00","9","ND","16,4","2,4","320,4","25","75,7","0","0"],
    [39259,"2018-07-24T05:00:00","10","ND","15,5","1,6","41","24,9","75,4","0","0"],
    [39260,"2018-07-24T06:00:00","26","ND","12,9","0,8","39,2","24,9","74,5","0","0,25"],
    [39261,"2018-07-24T07:00:00","52","15","12,2","1,7","289,2","25,3","74,4","10,7","0"],
    [39262,"2018-07-24T08:00:00","49","12","12,4","1,6","254,4","26","71,6","53,1","0"],
    [39263,"2018-07-24T09:00:00","47","10","13,2","2,2","294,6","26,4","71,2","58,5","0"],
    [39264,"2018-07-24T10:00:00","32","10","16,6","1,4","313,8","27,9","65,1","141,5","0"],
    [39265,"2018-07-24T11:00:00","54","20","26,2","2,2","288","29,1","59","224,1","0"],
    [39266,"2018-07-24T12:00:00","60","15","32,4","1","330","29,2","58,7","89,8","1,27"],
    [39267,"2018-07-24T13:00:00","ND","ND","19,8","2,8","350,1","26,5","75,8","46","3,81"],
    [39268,"2018-07-24T14:00:00","14","5","15,3","3,8","320,9","24,2","77,9","34,6","1,78"],
    [39269,"2018-07-24T15:00:00","30","5","14,5","1,6","202,6","25,1","69","47,1","0"],
    [39270,"2018-07-24T16:00:00","27","12","21,2","2,3","141,8","25,7","69","73,7","0,25"],
    [39271,"2018-07-24T17:00:00","46","11","31,9","1","19,5","27,6","61,7","81,2","0"],
    [39272,"2018-07-24T18:00:00","43","13","25,4","2,3","11,4","27,5","62,9","41,2","0"],
    [39273,"2018-07-24T19:00:00","42","10","17,2","1,7","356","26,2","67,4","0","0"],
    [39274,"2018-07-24T20:00:00","48","17","13,1","1,2","348,5","25,8","69,7","0","0"],
    [39275,"2018-07-24T21:00:00","75","17","11,8","0,3","23,2","25,5","72,4","0","0"],
    [39276,"2018-07-24T22:00:00","72","27","12,8","0,4","268,8","25,4","72,3","0","0"],
    [39277,"2018-07-24T23:00:00","60","28","11,7","2","255,3","24,7","74,3","0","0"],
    [39278,"2018-07-25T00:00:00","51","25","11","1,7","262,6","24,5","75,3","0","0"],
    [39279,"2018-07-25T01:00:00","38","16","11","0,7","307,4","24,4","75,9","0","0"],
    [39280,"2018-07-25T02:00:00","25","13","11,5","1,8","29,1","24,2","77,2","0","0"],
    [39281,"2018-07-25T03:00:00","40","9","10,9","1,4","51,9","23,9","78,2","0","0"],
    [39282,"2018-07-25T04:00:00","49","14","11,6","0,8","291,1","24,2","76,7","0","0"],
    [39283,"2018-07-25T05:00:00","35","18","11,2","2,5","301,2","24","77,1","0","0"],
    [39284,"2018-07-25T06:00:00","63","20","11,6","1,1","341,8","24","77,8","0","0"],
    [39285,"2018-07-25T07:00:00","34","14","11,1","1,5","8,8","24,2","76,8","0","0"],
    [39286,"2018-07-25T08:00:00","58","12","11,5","2,3","21,3","24,7","74,4","57,9","0"],
    [39287,"2018-07-25T09:00:00","49","14","14,5","1,1","29,4","27","65,3","163,9","0"],
    [39288,"2018-07-25T10:00:00","41","18","34,5","1,8","343,4","28,8","57,4","280,4","0"],
    [39289,"2018-07-25T11:00:00","50","20","64,5","0,4","307,7","30,3","51","314,2","0"],
    [39290,"2018-07-25T12:00:00","42","14","71,5","4","280","31,9","43,1","437","0"],
    [39291,"2018-07-25T13:00:00","42","16","84,7","2,3","238,8","33,6","38,2","447,3","0"],
    [39292,"2018-07-25T14:00:00","46","14","92,4","3,4","276,2","34,4","36,2","408","0"],
    [39293,"2018-07-25T15:00:00","49","17","105,9","3,3","273,2","35","35,4","326,3","0"],
    [39294,"2018-07-25T16:00:00","67","21","120","2,3","171,2","34,6","36,4","180,6","0"],
    [39295,"2018-07-25T17:00:00","28","ND","58,9","6,2","115,2","34,2","36,2","157,5","0"],
    [39296,"2018-07-25T18:00:00","29","ND","38,9","6","111,7","32,1","41","51,9","0"],
    [39297,"2018-07-25T19:00:00","23","1","25,1","5","119,6","30,5","45,8","0","0"],
    [39298,"2018-07-25T20:00:00","54","8","15,8","2,5","167,4","29,7","48,8","0","0"],
    [39299,"2018-07-25T21:00:00","41","10","14,6","2,7","289,3","28","55,6","0","0"],
    [39300,"2018-07-25T22:00:00","38","7","15,8","2,2","343,8","27,9","56,6","0","0"],
    [39301,"2018-07-25T23:00:00","44","7","17,4","2,4","313,8","27,2","60,8","0","0,76"],
    [39302,"2018-07-26T00:00:00","37","16","15,1","0,4","214,9","26,1","67,9","0","0,25"],
    [39303,"2018-07-26T01:00:00","35","6","16,2","1,2","333,9","26,2","66,7","0","0"],
    [39304,"2018-07-26T02:00:00","27","4","22,2","1,5","343,5","25,6","66,5","0","0"],
    [39305,"2018-07-26T03:00:00","25","5","18,4","1,7","316","24,7","70","0","0"],
    [39306,"2018-07-26T04:00:00","49","4","13","1,9","332,9","23,8","73,7","0","0"],
    [39307,"2018-07-26T05:00:00","45","5","11,8","1,3","9,9","23,7","74,1","0","0"],
    [39308,"2018-07-26T06:00:00","55","15","11,5","1,6","14","24","73,6","0","0"],
    [39309,"2018-07-26T07:00:00","63","23","11,9","1,6","310,5","23,8","73,8","14,5","0"],
    [39310,"2018-07-26T08:00:00","82","15","12,7","1,4","356,4","25,3","69,1","62","0"],
    [39311,"2018-07-26T09:00:00","45","11","23,9","0,9","17,5","27,6","60,2","172,3","0"],
    [39312,"2018-07-26T10:00:00","35","7","48,4","2","145,4","30,3","49,6","309,1","0"],
    [39313,"2018-07-26T11:00:00","42","8","72,6","2,2","208,9","31,8","45,1","359,5","0"],
    [39314,"2018-07-26T12:00:00","38","6","69,4","2,2","272","33,4","39,8","403,1","0"],
    [39315,"2018-07-26T13:00:00","42","6","75,1","3,9","283","34,6","36,4","438,3","0"],
    [39316,"2018-07-26T14:00:00","38","7","97,8","2,2","315,2","34,6","35","265","0"],
    [39317,"2018-07-26T15:00:00","33","11","99,9","4,1","256,7","35,6","33,3","360,3","0"],
    [39318,"2018-07-26T16:00:00","48","8","104,3","1,2","143,4","35,5","33,5","243,2","0"],
    [39319,"2018-07-26T17:00:00","ND","ND","75,1","6","116,3","33,3","37,9","85,6","0"],
    [39320,"2018-07-26T18:00:00","34","ND","47,3","6,3","110,4","31,2","42,8","25,3","0"],
    [39321,"2018-07-26T19:00:00","ND","ND","ND","ND","ND","ND","ND","ND","ND"],
    [39322,"2018-07-26T20:00:00","ND","ND","ND","ND","ND","ND","ND","ND","ND"],
    [39323,"2018-07-26T21:00:00","ND","ND","15,2","3,9","258,5","28,4","56,1","0","0"],
    [39324,"2018-07-26T22:00:00","73","22","17,7","2,5","348,6","27,7","54,3","0","0"],
    [39325,"2018-07-26T23:00:00","121","73","23,1","1,9","359,9","26,9","55,9","0","0"],
    [39326,"2018-07-27T00:00:00","168","ND","24,2","2,2","6,2","26,7","57,2","0","0"],
    [39327,"2018-07-27T01:00:00","152","90","18,1","2,3","335,6","25,9","63,1","0","0"],
    [39328,"2018-07-27T02:00:00","66","27","13,1","2,1","350,4","25,4","65,7","0","0"],
    [39329,"2018-07-27T03:00:00","49","11","13,8","1,4","342,2","25,3","65,7","0","0"],
    [39330,"2018-07-27T04:00:00","49","21","12,2","1,1","15","24,9","68,2","0","0"],
    [39331,"2018-07-27T05:00:00","75","24","11,6","1,4","225,2","24,3","71,6","0","0"],
    [39332,"2018-07-27T06:00:00","85","41","12,3","1,7","288,1","24,6","70,5","0","0"],
    [39333,"2018-07-27T07:00:00","96","33","11,9","2,5","307,9","24,5","71,5","0","0"],
    [39334,"2018-07-27T08:00:00","102","30","12","2,2","317,8","24,8","69,9","22,7","0"],
    [39335,"2018-07-27T09:00:00","88","24","16,8","0,6","306,5","27,1","62,3","164,8","0"],
    [39336,"2018-07-27T10:00:00","54","20","40,4","2","242","30,2","49,2","345,3","0"],
    [39337,"2018-07-27T11:00:00","30","2","50,4","2,7","247,9","31,5","45,3","321,4","0"],
    [39338,"2018-07-27T12:00:00","31","3","62,9","2,7","249,1","32,2","42,2","317,5","0"],
    [39339,"2018-07-27T13:00:00","44","11","76,1","3,3","297,8","33,6","37,2","390,9","0"],
    [39340,"2018-07-27T14:00:00","44","16","89,6","2,8","288,1","34,6","35","376,2","0"],
    [39341,"2018-07-27T15:00:00","45","17","87,8","3,6","290,5","34,8","34,4","310,5","0"],
    [39342,"2018-07-27T16:00:00","55","16","79,8","4,3","270","33,8","36,7","97,9","0"],
    [39343,"2018-07-27T17:00:00","46","7","69,2","1,4","125,9","32,8","38,5","41,7","0"],
    [39344,"2018-07-27T18:00:00","50","5","42,7","5,6","101,4","31,2","42,9","22,1","0"],
    [39345,"2018-07-27T19:00:00","79","6","39","5,3","64,2","29,3","51,9","0","5,84"],
    [39346,"2018-07-27T20:00:00","24","7","23","2,6","113,4","24,6","76,6","0","24,13"],
    [39347,"2018-07-27T21:00:00","23","4","13,3","2","117,5","25,8","73","0","0"],
    [39348,"2018-07-27T22:00:00","59","18","13,2","2,2","267","26,4","70,8","0","0"],
    [39349,"2018-07-27T23:00:00","39","ND","12,5","2,5","244,3","25,7","70,7","0","0"],
    [39350,"2018-07-28T00:00:00","38","9","13,3","2,3","269,7","25,6","69,6","0","0"],
    [39351,"2018-07-28T01:00:00","20","3","13,7","1,5","6,3","25,1","71,6","0","0"],
    [39352,"2018-07-28T02:00:00","30","ND","12,3","2,1","341,4","25,1","71,9","0","0"],
    [39353,"2018-07-28T03:00:00","30","4","12,2","1,3","8","24,9","71,2","0","0"],
    [39354,"2018-07-28T04:00:00","24","ND","12,5","1","18,5","24,9","71","0","0"],
    [39355,"2018-07-28T05:00:00","31","ND","11,9","1,4","354,3","24,5","72,9","0","0"],
    [39356,"2018-07-28T06:00:00","45","4","11,4","1,7","6,3","23,8","75,2","0","0"],
    [39357,"2018-07-28T07:00:00","68","11","12","1,5","307,2","23,7","75,5","5,6","0"],
    [39358,"2018-07-28T08:00:00","63","11","12,6","0,8","338,1","25,4","70,5","103,1","0"],
    [39359,"2018-07-28T09:00:00","52","20","19,4","1,3","282,9","28,1","59,3","233,7","0"],
    [39360,"2018-07-28T10:00:00","36","8","38,4","1,8","348,1","30","50,7","331,5","0"],
    [39361,"2018-07-28T11:00:00","26","ND","51,9","1,9","261,2","31,5","44,9","360,5","0"],
    [39362,"2018-07-28T12:00:00","33","2","59","2,2","285,8","32,1","41,3","356,9","0"],
    [39363,"2018-07-28T13:00:00","33","7","73,1","2,6","332,4","33,7","37,8","350,2","0"],
    [39364,"2018-07-28T14:00:00","29","6","68,9","3,1","287,2","33,5","37,1","273","0"],
    [39365,"2018-07-28T15:00:00","27","1","78,8","3","186,8","33,9","37,3","215,6","0"],
    [39366,"2018-07-28T16:00:00","27","ND","67,2","4,1","163,1","32,6","39,8","106,7","0"],
    [39367,"2018-07-28T17:00:00","22","3","61,3","2,3","174,4","32,9","38,4","115","0"],
    [39368,"2018-07-28T18:00:00","102","3","42,1","3,2","134,2","32,2","39,8","53,6","0"],
    [39369,"2018-07-28T19:00:00","23","ND","25,4","5,4","119,7","30","45,7","0","0"],
    [39370,"2018-07-28T20:00:00","31","ND","17,3","2,2","157,5","29,9","46,1","0","0"],
    [39371,"2018-07-28T21:00:00","53","15","14,9","4,3","259","28,5","53,3","0","0"],
    [39372,"2018-07-28T22:00:00","34","4","14,3","2,4","268,4","27,7","57,4","0","0"],
    [39373,"2018-07-28T23:00:00","39","2","14","1,4","282,4","27,6","57,4","0","0"],
    [39374,"2018-07-29T00:00:00","39","7","12,3","1,6","340,9","27,4","58,8","0","0"],
    [39375,"2018-07-29T01:00:00","31","2","13,9","1,5","16,9","26,3","62,7","0","0"],
    [39376,"2018-07-29T02:00:00","42","5","13,2","1,9","299,8","25,9","65","0","0"],
    [39377,"2018-07-29T03:00:00","24","3","14,7","1,5","285,5","25,9","63,9","0","0"],
    [39378,"2018-07-29T04:00:00","24","ND","13,4","1,5","340,5","25,6","66,2","0","0"],
    [39379,"2018-07-29T05:00:00","51","ND","11,8","1,9","25,2","25,5","67,7","0","0"],
    [39380,"2018-07-29T06:00:00","48","4","12,4","2","24,5","25,5","66,7","0","0"],
    [39381,"2018-07-29T07:00:00","56","12","12,5","1,7","298,8","25,2","69,1","0","0"],
    [39382,"2018-07-29T08:00:00","83","12","14,1","0,6","205,7","25,8","65,6","24","0"],
    [39383,"2018-07-29T09:00:00","52","11","16,1","1,3","16,7","26,4","64,6","40,1","0,25"],
    [39384,"2018-07-29T10:00:00","38","8","20,5","3,8","42","26,8","64,5","144,2","0"],
    [39385,"2018-07-29T11:00:00","18","2","30,6","4,3","52","27,7","59,4","156,4","0"],
    [39386,"2018-07-29T12:00:00","22","ND","38,5","2,5","31,3","29,7","51,9","203,7","0"],
    [39387,"2018-07-29T13:00:00","13","ND","54,3","2,2","19,5","31,4","45,9","315,2","0"],
    [39388,"2018-07-29T14:00:00","26","3","63,8","2,4","322,6","32,3","42,8","305","0"],
    [39389,"2018-07-29T15:00:00","30","7","87,1","1,9","35,9","33,4","40,3","296,8","0"],
    [39390,"2018-07-29T16:00:00","36","19","82,6","3","279,9","32,5","41,4","97,3","0"],
    [39391,"2018-07-29T17:00:00","41","11","84","2,5","256,5","32","42,6","86","0"],
    [39392,"2018-07-29T18:00:00","16","3","33,5","6,1","106,7","31","41,4","58,7","0"],
    [39393,"2018-07-29T19:00:00","17","ND","27,1","6,6","122,3","29","44,4","0","0"],
    [39394,"2018-07-29T20:00:00","20","ND","28,8","6,6","125,7","28,5","44,2","0","0"],
    [39395,"2018-07-29T21:00:00","42","13","19,3","2,7","246","27,5","50,8","0","0"],
    [39396,"2018-07-29T22:00:00","35","8","15,9","2,8","253","26,7","55","0","0"],
    [39397,"2018-07-29T23:00:00","35","4","16,7","0,7","109","27","53,4","0","0"],
    [39398,"2018-07-30T00:00:00","45","6","14","2,1","341,2","26,6","58,1","0","0"],
    [39399,"2018-07-30T01:00:00","19","2","16,7","3,2","258,2","25,8","59,6","0","0"],
    [39400,"2018-07-30T02:00:00","11","ND","23,2","2,6","237,6","25,2","62","0","0"],
    [39401,"2018-07-30T03:00:00","8","ND","20,8","2,8","249,4","24,5","66,6","0","0"],
    [39402,"2018-07-30T04:00:00","7","ND","19,1","1,8","171,9","24,3","69,4","0","0"],
    [39403,"2018-07-30T05:00:00","21","ND","13,9","2,2","261,5","23,8","73","0","0"],
    [39404,"2018-07-30T06:00:00","41","ND","12,5","1,3","235,5","24,2","71,1","0","0"],
    [39405,"2018-07-30T07:00:00","51","18","12,8","1,4","315,5","24,9","68,4","5,5","0"],
    [39406,"2018-07-30T08:00:00","62","2","13,7","2","337,9","25,6","67,5","43,5","0"],
    [39407,"2018-07-30T09:00:00","19","1","18,1","2,2","4","26,5","63,2","81,6","0"],
    [39408,"2018-07-30T10:00:00","24","1","25,3","2,3","13,7","27,6","58,8","154,3","0"],
    [39409,"2018-07-30T11:00:00","24","1","33,5","1,6","14,3","29,5","52,3","266","0,25"],
    [39410,"2018-07-30T12:00:00","ND","ND","36,4","1,5","318,6","30,4","47,7","177,1","0"],
    [39411,"2018-07-30T13:00:00","37","11","51,8","2,5","272,4","30,8","47,2","276,1","0"],
    [39412,"2018-07-30T14:00:00","44","15","56,5","3,6","276,2","30,7","46,4","135,1","0"],
    [39413,"2018-07-30T15:00:00","31","14","63,5","2,2","187,8","30,5","46,7","96","0"],
    [39414,"2018-07-30T16:00:00","27","10","45,5","3","165,8","30,5","46,9","90,9","0"],
    [39415,"2018-07-30T17:00:00","27","4","36","1,2","164,5","31","43,2","90,8","0"],
    [39416,"2018-07-30T18:00:00","44","12","32,2","3,3","9","27,7","60,3","4,3","0"],
    [39417,"2018-07-30T19:00:00","35","9","25,7","4,4","28,8","26","66,7","0","0"],
    [39418,"2018-07-30T20:00:00","28","9","15","2,9","358,9","25,9","67,1","0","0"],
    [39419,"2018-07-30T21:00:00","26","6","15,8","3,1","352,7","25,2","69,3","0","1,78"],
    [39420,"2018-07-30T22:00:00","8","ND","12","2,3","331,1","23,9","77,6","0","12,7"],
    [39421,"2018-07-30T23:00:00","11","ND","10,9","0,7","254,4","23,4","80,6","0","20,83"],
    [39422,"2018-07-31T00:00:00","ND","ND","12,2","1,6","344","23,2","80,4","0","5,84"],
    [39423,"2018-07-31T01:00:00","ND","ND","12,6","3,1","272,1","23","81,2","0","0,25"],
    [39424,"2018-07-31T02:00:00","ND","ND","13","2,6","247,7","22,8","82","0","6,6"],
    [39425,"2018-07-31T03:00:00","3","ND","15,5","3,3","251,9","22,4","83","0","3,3"],
    [39426,"2018-07-31T04:00:00","4","ND","15,3","3","246,4","22,3","83,2","0","1,27"],
    [39427,"2018-07-31T05:00:00","3","ND","14","2","216,2","22,5","80,8","0","0,25"],
    [39428,"2018-07-31T06:00:00","7","ND","11,1","2,2","168,1","22,7","79","0","0"],
    [39429,"2018-07-31T07:00:00","14","3","11","1,8","185","22,9","76,6","0","0,25"],
    [39430,"2018-07-31T08:00:00","18","5","9,1","0,8","286,2","23,5","75,9","25,3","0,51"],
    [39431,"2018-07-31T09:00:00","17","3","12,4","1,5","6,1","24,5","73,5","87,2","0"],
    [39432,"2018-07-31T10:00:00","22","3","17,2","1,8","339,1","26,7","63,9","192,2","0"],
    [39433,"2018-07-31T11:00:00","15","2","24,6","1,9","348,3","28","57,7","199,4","0"],
    [39434,"2018-07-31T12:00:00","14","ND","33,8","2,7","24,4","29,1","53,6","279,5","0"],
    [39435,"2018-07-31T13:00:00","11","ND","42,1","1,4","0,3","31","46,3","422,5","0"],
    [39436,"2018-07-31T14:00:00","14","ND","45,2","1,3","304","32,2","41,3","380,9","0"],
    [39437,"2018-07-31T15:00:00","14","ND","49,6","1,4","337,2","32,9","38,1","318,5","0"],
    [39438,"2018-07-31T16:00:00","20","1","42,2","3","271","32,1","39,1","155,6","0"],
    [39439,"2018-07-31T17:00:00","55","17","27,9","4","266,6","30,4","47,8","41,1","0"],
    [39440,"2018-07-31T18:00:00","59","9","20,3","3,9","252,7","28,9","57,7","16,2","0"],
    [39441,"2018-07-31T19:00:00","52","13","15,4","1,9","230,8","27,9","59,6","0","0"],
    [39442,"2018-07-31T20:00:00","79","21","11,4","2,8","275,3","27,5","59,9","0","0"],
    [39443,"2018-07-31T21:00:00","39","2","16,2","3,6","17","26,9","60,8","0","0"],
    [39444,"2018-07-31T22:00:00","38","2","12,9","2","335,9","26,2","63","0","0"],
    [39445,"2018-07-31T23:00:00","22","ND","13,9","2,1","327,5","25,3","66,4","0","0"],
    [39446,"2018-08-01T00:00:00","20","ND","12,1","2","314","24,6","70,3","0","0"],
    [39447,"2018-08-01T01:00:00","13","1","15","1,6","45,4","24,2","69,8","0","0"],
    [39448,"2018-08-01T02:00:00","8","ND","14,4","0,6","346,3","23,9","71,2","0","0"],
    [39449,"2018-08-01T03:00:00","15","ND","10,9","1,3","293,5","23,4","73,7","0","0"],
    [39450,"2018-08-01T04:00:00","31","ND","9,7","2","284","22,8","75,6","0","0"],
    [39451,"2018-08-01T05:00:00","35","ND","8,6","1,6","249,6","22,5","77,1","0","0"],
    [39452,"2018-08-01T06:00:00","83","30","10","1,6","241,9","22,3","77,5","0","0"],
    [39453,"2018-08-01T07:00:00","64","22","8,6","2","176,9","22,3","77,7","5,9","0"],
    [39454,"2018-08-01T08:00:00","61","6","10,9","2,4","188,1","24,2","71,6","107,6","0"],
    [39455,"2018-08-01T09:00:00","44","13","15,1","3,5","222,2","25,6","66,3","134,8","0"],
    [39456,"2018-08-01T10:00:00","22","9","27,8","1,9","236,9","29","53,2","343,9","0"],
    [39457,"2018-08-01T11:00:00","19","4","44,7","0,8","239,6","31,3","43,3","414,7","0"],
    [39458,"2018-08-01T12:00:00","23","ND","57,1","1,1","240,2","32,8","38,5","426,7","0"],
    [39459,"2018-08-01T13:00:00","24","ND","57,3","3,4","266,7","33,1","37,3","401,7","0"],
    [39460,"2018-08-01T14:00:00","33","1","66,4","4,9","260,3","34,2","35,3","425,4","0"],
    [39461,"2018-08-01T15:00:00","32","3","64,4","5","267,2","34,3","35,2","317,1","0"],
    [39462,"2018-08-01T16:00:00","38","4","59,8","3,1","272,8","33,5","36,9","140,7","0"],
    [39463,"2018-08-01T17:00:00","36","2","53,3","5,6","105,4","32,7","40,1","120,7","0"],
    [39464,"2018-08-01T18:00:00","36","ND","32","5,9","100,1","31","44,1","25,9","0"],
    [39465,"2018-08-01T19:00:00","33","ND","15,7","4,4","119,7","29,7","49,2","0","2,29"],
    [39466,"2018-08-01T20:00:00","34","14","26,1","4,3","104,8","26,4","66,1","0","0"],
    [39467,"2018-08-01T21:00:00","35","8","12,4","0,7","164,5","26,9","62,2","0","0"],
    [39468,"2018-08-01T22:00:00","40","7","10,9","2","254,6","26,5","66,1","0","0"],
    [39469,"2018-08-01T23:00:00","34","6","10,3","0,9","257,8","26,2","66,6","0","0"],
    [39470,"2018-08-02T00:00:00","30","6","9,3","1,2","290,6","25,7","67,9","0","0"],
    [39471,"2018-08-02T01:00:00","17","4","9","1,4","317","25,4","68,7","0","0"],
    [39472,"2018-08-02T02:00:00","22","1","9,8","1,2","288,2","25,1","69,4","0","0"],
    [39473,"2018-08-02T03:00:00","24","ND","9,7","0,7","52,8","25,2","69,4","0","0"],
    [39474,"2018-08-02T04:00:00","31","1","10,7","1,6","340","25,7","68,4","0","0"],
    [39475,"2018-08-02T05:00:00","37","4","9,8","1,5","298,4","25,5","69,8","0","0"],
    [39476,"2018-08-02T06:00:00","60","18","9,7","1,8","269,3","25,4","71,4","0","0"],
    [39477,"2018-08-02T07:00:00","68","13","9,6","1,8","283,5","25,4","71,7","4,6","0"],
    [39478,"2018-08-02T08:00:00","59","9","9,9","2","291","25,5","71,9","30,7","0"],
    [39479,"2018-08-02T09:00:00","35","8","13,5","2,3","46,3","26,4","66,2","65,9","0"],
    [39480,"2018-08-02T10:00:00","43","7","23,2","0,8","276,9","28,4","58,5","215,5","0"],
    [39481,"2018-08-02T11:00:00","33","7","53,2","1,1","114,9","30,9","48,2","314,3","0"],
    [39482,"2018-08-02T12:00:00","29","9","81,8","0,9","338,1","32,4","42,8","370,5","0"],
    [39483,"2018-08-02T13:00:00","46","8","82,7","2,5","272,4","33,4","40,2","360,6","0"],
    [39484,"2018-08-02T14:00:00","40","9","83,6","2,4","266,2","34,2","37,8","351,4","0"],
    [39485,"2018-08-02T15:00:00","41","7","72,9","4,4","267,6","34,4","36,4","333","0"],
    [39486,"2018-08-02T16:00:00","41","4","70,5","3,9","250,8","34,7","34,4","237,2","0"],
    [39487,"2018-08-02T17:00:00","52","11","67,1","3,6","237,5","33,9","36,1","107,3","0"],
    [39488,"2018-08-02T18:00:00","44","8","67,2","3,6","127,5","33,1","38,8","43,9","0"],
    [39489,"2018-08-02T19:00:00","40","5","38","4,5","111,6","30,9","45","0","0"],
    [39490,"2018-08-02T20:00:00","40","2","24,3","3","128,4","29,9","47,5","0","0"],
    [39491,"2018-08-02T21:00:00","56","10","12,6","3","267,5","27,6","59,3","0","0"],
    [39492,"2018-08-02T22:00:00","36","6","12,8","3,5","277,6","26,6","63,9","0","0"],
    [39493,"2018-08-02T23:00:00","44","2","13,6","3,2","252,9","25,9","66,4","0","0"],
    [39494,"2018-08-03T00:00:00","40","1","14,3","2,7","213,2","25,9","65,2","0","0"],
    [39495,"2018-08-03T01:00:00","41","4","12,7","1,2","230,2","25,6","65,9","0","0"],
    [39496,"2018-08-03T02:00:00","33","1","11,8","2,5","303,1","24,8","69,6","0","0"],
    [39497,"2018-08-03T03:00:00","36","5","9,8","1,2","31,6","24,5","70,9","0","0"],
    [39498,"2018-08-03T04:00:00","36","2","9,8","1,5","35,6","24,8","69,8","0","0"],
    [39499,"2018-08-03T05:00:00","35","1","9,3","1","42","24,8","70,5","0","0"],
    [39500,"2018-08-03T06:00:00","59","9","9,4","1,9","338","24,6","71,7","0","0"],
    [39501,"2018-08-03T07:00:00","75","24","9,7","1,6","293,4","24,5","72,8","6,3","0"],
    [39502,"2018-08-03T08:00:00","114","25","10,3","2,6","280,2","24,9","71,5","40,9","0"],
    [39503,"2018-08-03T09:00:00","72","23","14","2,8","303,5","26,8","64,5","168,6","0"],
    [39504,"2018-08-03T10:00:00","58","7","27","1,5","342,1","29,8","52,4","294,1","0"],
    [39505,"2018-08-03T11:00:00","57","21","47,7","1,9","301,4","31,8","45,6","400,3","0"],
    [39506,"2018-08-03T12:00:00","56","17","65,7","2,8","248,8","31,5","45,6","264,4","0"],
    [39507,"2018-08-03T13:00:00","45","7","89,4","2","241,6","33,1","40,9","394,1","0"],
    [39508,"2018-08-03T14:00:00","48","7","88,4","4","212,3","33,6","39,4","295,8","0"],
    [39509,"2018-08-03T15:00:00","40","8","62,1","2","220","33,5","38,3","267,7","0"],
    [39510,"2018-08-03T16:00:00","50","5","45,6","1,9","166,7","32,7","38,3","142,7","0"],
    [39511,"2018-08-03T17:00:00","35","1","44,3","7,1","117,7","31,7","38,3","162,4","0"],
    [39512,"2018-08-03T18:00:00","60","6","36","5,6","130","30,8","39,8","56","0"],
    [39513,"2018-08-03T19:00:00","34","2","20,5","2,9","126,7","29,2","45,2","0","0"],
    [39514,"2018-08-03T20:00:00","46","ND","17,6","5,3","233,7","27,7","51,7","0","0"],
    [39515,"2018-08-03T21:00:00","38","5","17,3","4,2","238,6","26,7","55,1","0","0"],
    [39516,"2018-08-03T22:00:00","32","3","16,4","2,1","79,4","26,3","57,8","0","0"],
    [39517,"2018-08-03T23:00:00","23","3","16,6","3,3","35,5","25,7","61,2","0","0"],
    [39518,"2018-08-04T00:00:00","40","7","16","3,7","36,8","25,5","63,3","0","0"],
    [39519,"2018-08-04T01:00:00","16","1","16,9","3,2","30,7","25,3","67,6","0","0"],
    [39520,"2018-08-04T02:00:00","16","ND","16,6","0,3","277,6","25,1","68,8","0","0"],
    [39521,"2018-08-04T03:00:00","20","ND","11,7","4,3","213,8","23,9","75,1","0","0"],
    [39522,"2018-08-04T04:00:00","3","ND","18,6","3,8","208","22,9","78,3","0","3,56"],
    [39523,"2018-08-04T05:00:00","10","ND","17","2,8","231,1","22,6","77,9","0","0,25"],
    [39524,"2018-08-04T06:00:00","20","ND","12,6","1,5","282,2","22,7","77,3","0","0"],
    [39525,"2018-08-04T07:00:00","38","3","11,2","1,9","337,5","22,8","77,1","10,3","0"],
    [39526,"2018-08-04T08:00:00","54","15","12,6","2,6","311,7","24","73,4","55,5","0"],
    [39527,"2018-08-04T09:00:00","36","14","18,5","1,9","260,4","26","62,8","175,6","0"],
    [39528,"2018-08-04T10:00:00","33","9","26,9","2,2","263,6","26,7","59,6","194,4","0"],
    [39529,"2018-08-04T11:00:00","23","5","39,2","1,8","284,9","29,3","50,6","351,7","0"],
    [39530,"2018-08-04T12:00:00","22","ND","47,2","2,6","269,2","30,7","45,2","410,2","0"],
    [39531,"2018-08-04T13:00:00","19","ND","58,5","2,8","287,5","32,5","39","422,6","0"],
    [39532,"2018-08-04T14:00:00","29","5","63,9","3,9","266,4","32,1","40,4","287,2","0"],
    [39533,"2018-08-04T15:00:00","28","7","61,5","2,1","320","32,4","40","167,6","0"],
    [39534,"2018-08-04T16:00:00","34","3","55,8","3,6","273,6","33","39","223,9","0"],
    [39535,"2018-08-04T17:00:00","57","24","50,3","3,6","257,8","32,1","41,5","67","0"],
    [39536,"2018-08-04T18:00:00","58","21","40,6","3,6","226,3","31","45,6","13","0"],
    [39537,"2018-08-04T19:00:00","70","12","26,2","2,5","227,8","29,9","50,3","0","0"],
    [39538,"2018-08-04T20:00:00","57","20","14","3,1","136,3","29","50,7","0","0"],
    [39539,"2018-08-04T21:00:00","23","3","13,4","3,5","117,8","28,9","47,9","0","0"],
    [39540,"2018-08-04T22:00:00","40","7","11,1","1,3","269,1","27,4","56,4","0","0"],
    [39541,"2018-08-04T23:00:00","33","5","11,5","2,5","263,2","26,2","62,8","0","0"],
    [39542,"2018-08-05T00:00:00","40","9","16,7","2,8","67,8","26,7","60,8","0","0"],
    [39543,"2018-08-05T01:00:00","31","3","26","4,1","59","25,7","63,3","0","3,3"],
    [39544,"2018-08-05T02:00:00","14","ND","18,9","2,1","52,2","24,7","71,2","0","2,79"],
    [39545,"2018-08-05T03:00:00","16","ND","20,4","0,8","227,5","23,2","80,1","0","24,13"],
    [39546,"2018-08-05T04:00:00","14","ND","15,2","2,6","244,2","22,8","82,9","0","2,79"],
    [39547,"2018-08-05T05:00:00","7","ND","16,8","1,8","195","22,8","81,4","0","0"],
    [39548,"2018-08-05T06:00:00","4","ND","17,1","1,8","128,3","23,1","78,4","0","0"],
    [39549,"2018-08-05T07:00:00","17","4","11,5","2,2","267,1","23,3","78,5","7,5","0"],
    [39550,"2018-08-05T08:00:00","28","3","14,6","2,1","235,5","24","76","55,7","0"],
    [39551,"2018-08-05T09:00:00","19","2","18,4","2,2","296,1","25,7","68,2","127","0"],
    [39552,"2018-08-05T10:00:00","22","ND","26,2","1","336,1","27,1","62,4","208","0"],
    [39553,"2018-08-05T11:00:00","10","ND","40,2","2,3","31,5","28,3","57,3","204,2","0"],
    [39554,"2018-08-05T12:00:00","10","ND","40,2","4,4","195,6","28,5","56,4","265,1","0"],
    [39555,"2018-08-05T13:00:00","16","ND","58,6","4","168,1","30,2","48,7","353,1","0"],
    [39556,"2018-08-05T14:00:00","11","ND","60,3","1,5","185,5","32,3","42,2","420,4","0"],
    [39557,"2018-08-05T15:00:00","22","ND","49,7","3,5","282,5","32,7","39,6","302,4","0"],
    [39558,"2018-08-05T16:00:00","18","ND","58,3","1,5","352,1","32,6","39,4","167","0"],
    [39559,"2018-08-05T17:00:00","25","1","64,4","1,4","322,2","32,7","38,8","115,7","0"],
    [39560,"2018-08-05T18:00:00","27","8","54,3","2,4","266,8","32","40,9","41,4","0"],
    [39561,"2018-08-05T19:00:00","55","8","23,9","1,5","290,2","30,5","47,3","0","0"],
    [39562,"2018-08-05T20:00:00","59","5","15,5","1,1","81,4","29,4","52,9","0","0"],
    [39563,"2018-08-05T21:00:00","79","23","11,6","1,3","232,1","28,2","57,6","0","0"],
    [39564,"2018-08-05T22:00:00","59","19","11,3","2,3","290,5","27","63,1","0","0"],
    [39565,"2018-08-05T23:00:00","44","2","10,2","1,5","291,9","25,9","68,3","0","0"],
    [39566,"2018-08-06T00:00:00","98","44","10,2","0,5","142,3","25,1","70,5","0","0"],
    [39567,"2018-08-06T01:00:00","38","1","10,5","1,4","4,3","25","71,5","0","0"],
    [39568,"2018-08-06T02:00:00","50","2","10,3","1,1","44,2","24,5","72,9","0","0"],
    [39569,"2018-08-06T03:00:00","63","21","10,8","1,7","350","24,4","72,7","0","0"],
    [39570,"2018-08-06T04:00:00","47","12","10,4","0,5","341,7","24,5","72,9","0","0"],
    [39571,"2018-08-06T05:00:00","69","21","10","2,5","280,2","24","74","0","0"],
    [39572,"2018-08-06T06:00:00","79","21","10","1,9","267,3","24,1","72,9","0","0"],
    [39573,"2018-08-06T07:00:00","86","19","10,7","1,2","230,1","24,3","72","19","0"],
    [39574,"2018-08-06T08:00:00","80","23","12,9","1,6","217,3","26,1","65,5","102,3","0"],
    [39575,"2018-08-06T09:00:00","53","17","17,3","2,4","295,3","27,6","61","205,1","0"],
    [39576,"2018-08-06T10:00:00","54","22","25,7","3,2","295,8","29,5","54","292,2","0"],
    [39577,"2018-08-06T11:00:00","42","8","45","1,7","297,9","31","48,7","332,8","0"],
    [39578,"2018-08-06T12:00:00","43","7","67,1","2,3","283,2","32,3","43,9","378,6","0"],
    [39579,"2018-08-06T13:00:00","54","16","79,2","2,4","303,1","34","39,4","428,7","0"],
    [39580,"2018-08-06T14:00:00","45","8","96,7","3,3","247,4","34,5","37,4","411,9","0"],
    [39581,"2018-08-06T15:00:00","53","13","117,6","3,5","229,9","34,7","37,9","347,4","0"],
    [39582,"2018-08-06T16:00:00","56","10","105,4","3,8","212,5","35,2","37","251,3","0"],
    [39583,"2018-08-06T17:00:00","37","6","49,8","3,4","151,5","33,4","39,3","33,1","0"],
    [39584,"2018-08-06T18:00:00","43","5","27,2","3,9","119,9","31,8","42,7","20","0"],
    [39585,"2018-08-06T19:00:00","57","15","13,9","2,2","125","30,8","45,9","0","0"],
    [39586,"2018-08-06T20:00:00","64","10","13,2","1,8","279,4","29,4","53,7","0","0"],
    [39587,"2018-08-06T21:00:00","53","12","12,2","3,3","286,7","27,6","62,7","0","0"],
    [39588,"2018-08-06T22:00:00","41","6","11,4","1,7","261,2","27,3","62,9","0","0"],
    [39589,"2018-08-06T23:00:00","36","1","10,9","1,3","261,9","26,4","65,7","0","0"],
    [39590,"2018-08-07T00:00:00","45","10","11","2","166,8","26,4","64,6","0","0"],
    [39591,"2018-08-07T01:00:00","45","11","10,8","0,9","33,8","26,1","66,6","0","0"],
    [39592,"2018-08-07T02:00:00","46","6","10,4","2,7","296,5","24,9","71,2","0","0"],
    [39593,"2018-08-07T03:00:00","50","5","10","0,8","19","24,4","71,9","0","0"],
    [39594,"2018-08-07T04:00:00","41","6","10,1","1,4","18","24,6","71,2","0","0"],
    [39595,"2018-08-07T05:00:00","44","10","10,2","1,8","300,5","23,9","73,8","0","0"],
    [39596,"2018-08-07T06:00:00","49","8","9,8","2,4","19,4","23,2","75,4","0","0"],
    [39597,"2018-08-07T07:00:00","54","8","10,3","1,8","29","23,7","74,3","19,2","0"],
    [39598,"2018-08-07T08:00:00","80","7","11,6","1,7","349","25,4","67,7","98,9","0"],
    [39599,"2018-08-07T09:00:00","44","7","18,2","2,8","333,9","27,5","57,7","221,8","0"],
    [39600,"2018-08-07T10:00:00","42","9","35,9","2,5","7","30,7","47,4","324,2","0"],
    [39601,"2018-08-07T11:00:00","32","10","55","1,9","316,5","32,4","42,5","403,3","0"],
    [39602,"2018-08-07T12:00:00","40","5","70,9","2,2","279,9","33,4","39,6","440,4","0"],
    [39603,"2018-08-07T13:00:00","23","4","76,5","2,7","252,1","34,8","35,7","463,2","0"],
    [39604,"2018-08-07T14:00:00","45","4","82,1","3","264,4","35,7","35","441,4","0"],
    [39605,"2018-08-07T15:00:00","51","17","83,2","4,1","246,4","35,9","34","269,6","0"],
    [39606,"2018-08-07T16:00:00","48","17","96,6","3","246,7","35,4","34,8","173,8","0"],
    [39607,"2018-08-07T17:00:00","47","13","94","2,6","205,2","35,1","36,8","118,2","0"],
    [39608,"2018-08-07T18:00:00","36","7","50,8","4,7","133,5","32,9","40,1","19,7","0"],
    [39609,"2018-08-07T19:00:00","38","7","30,9","3,6","132,8","31,6","43,2","0","0"],
    [39610,"2018-08-07T20:00:00","68","13","15,1","2,3","214,9","30,3","49,3","0","0"],
    [39611,"2018-08-07T21:00:00","44","7","12,7","3","299,9","28,4","59,2","0","0"],
    [39612,"2018-08-07T22:00:00","33","2","14,8","2,1","47,5","29","54,5","0","0"],
    [39613,"2018-08-07T23:00:00","37","1","13","1,9","331,6","28","60,3","0","0"],
    [39614,"2018-08-08T00:00:00","42","3","11,9","0,9","204,2","27,2","63,5","0","0"],
    [39615,"2018-08-08T01:00:00","34","ND","13,8","1,8","257,7","26,9","64,3","0","0"],
    [39616,"2018-08-08T02:00:00","38","ND","14,6","1,5","290,2","26,6","65,2","0","0"],
    [39617,"2018-08-08T03:00:00","43","ND","12,6","2,6","24,2","26","68,7","0","0"],
    [39618,"2018-08-08T04:00:00","44","5","10,8","1,5","5,2","25,6","70,3","0","0"],
    [39619,"2018-08-08T05:00:00","38","9","11","1,9","360","25,5","67,6","0","0"],
    [39620,"2018-08-08T06:00:00","59","8","10,4","1,8","19,8","25,2","66,3","0","0"],
    [39621,"2018-08-08T07:00:00","80","11","10,6","1,8","321","25,1","67,6","15,9","0"],
    [39622,"2018-08-08T08:00:00","63","13","11,9","1,8","306,4","25,4","66","89,5","0"],
    [39623,"2018-08-08T09:00:00","61","13","16,3","2,7","292,5","27,8","58,8","175,9","0"],
    [39624,"2018-08-08T10:00:00","42","10","30","2,8","335","29,9","50,7","258,5","0"],
    [39625,"2018-08-08T11:00:00","40","4","48,9","1,2","333,9","32,3","45,4","391","0"],
    [39626,"2018-08-08T12:00:00","39","4","75,2","1,2","324","34,2","39,5","451,1","0"],
    [39627,"2018-08-08T13:00:00","59","8","79,9","3,1","286,5","35,5","34,7","460","0"],
    [39628,"2018-08-08T14:00:00","40","6","78,7","2,3","278,6","37,1","29","418,2","0"],
    [39629,"2018-08-08T15:00:00","26","2","65,4","0,7","305,4","38,3","22,8","339,6","0"],
    [39630,"2018-08-08T16:00:00","29","ND","54,9","2,6","305,6","38,5","21,1","233,9","0"],
    [39631,"2018-08-08T17:00:00","40","ND","45,3","3,5","283,5","37,7","22","156,2","0"],
    [39632,"2018-08-08T18:00:00","65","13","51,1","3,8","211,7","35,7","32,7","52,3","0"],
    [39633,"2018-08-08T19:00:00","76","11","32,9","3,2","153,8","33,1","38,7","0","0"],
    [39634,"2018-08-08T20:00:00","68","17","20,4","2","169,5","31,6","44","0","0"],
    [39635,"2018-08-08T21:00:00","71","9","14,9","2,8","286","30,6","50,8","0","0"],
    [39636,"2018-08-08T22:00:00","41","5","14,1","3,8","288,2","29,1","58","0","0"],
    [39637,"2018-08-08T23:00:00","32","ND","14,5","2,4","272,7","28,2","61,2","0","0"],
    [39638,"2018-08-09T00:00:00","21","ND","15","2,8","282,7","27,7","62,5","0","0"],
    [39639,"2018-08-09T01:00:00","20","ND","15,6","2,1","268,9","27,7","61,6","0","0"],
    [39640,"2018-08-09T02:00:00","25","ND","14,7","2,5","280,7","27,2","63,9","0","0"],
    [39641,"2018-08-09T03:00:00","29","2","13,8","1","166,9","26,4","67","0","0"],
    [39642,"2018-08-09T04:00:00","26","ND","13,2","0,8","184,7","26,1","68","0","0"],
    [39643,"2018-08-09T05:00:00","40","7","11","1,5","347,1","25,5","69,9","0","0"],
    [39644,"2018-08-09T06:00:00","77","15","10,2","1,1","12,4","25,4","63,8","0","0"],
    [39645,"2018-08-09T07:00:00","88","28","10,6","2","346,4","25,2","62,7","26,7","0"],
    [39646,"2018-08-09T08:00:00","73","11","13,4","2","357,1","27","55,5","107,9","0"],
    [39647,"2018-08-09T09:00:00","54","9","18,6","3,5","285,7","28,8","46,4","195,8","0"],
    [39648,"2018-08-09T10:00:00","42","5","35","2,4","301,3","31,1","39,5","271,1","0"],
    [39649,"2018-08-09T11:00:00","42","5","55,7","1,3","221,8","32,5","40,9","341,1","0"],
    [39650,"2018-08-09T12:00:00","63","12","77,2","1,2","268,4","34,2","38,2","365,7","0"],
    [39651,"2018-08-09T13:00:00","43","6","81,1","2,2","7,8","35,3","32,4","296,5","0"],
    [39652,"2018-08-09T14:00:00","40","2","68,9","3,2","325,5","35,9","29,6","326,1","0"],
    [39653,"2018-08-09T15:00:00","54","10","62,2","5","283,3","34,5","34,2","138,7","0"],
    [39654,"2018-08-09T16:00:00","93","13","65,6","4,9","270,5","33,7","38,1","150,1","0"],
    [39655,"2018-08-09T17:00:00","76","15","73,7","3,5","243,5","34,1","36,7","123,2","0"],
    [39656,"2018-08-09T18:00:00","102","22","49,8","3,3","227,5","33,3","39,4","37,1","0"],
    [39657,"2018-08-09T19:00:00","80","16","26,8","2,7","180,7","31,1","48,6","0","0"],
    [39658,"2018-08-09T20:00:00","74","10","21","2,9","96,1","30,2","47,3","0","0"],
    [39659,"2018-08-09T21:00:00","59","18","14,8","3,3","286,2","28,1","57,3","0","0"],
    [39660,"2018-08-09T22:00:00","45","ND","14,4","3","295,4","26,8","62,6","0","0"],
    [39661,"2018-08-09T23:00:00","57","6","15,2","3,4","258,5","26,4","63,1","0","0"],
    [39662,"2018-08-10T00:00:00","48","1","16,9","1,1","208,4","26,1","63,1","0","0"],
    [39663,"2018-08-10T01:00:00","36","ND","15,4","2,2","266,2","25,3","66,2","0","0"],
    [39664,"2018-08-10T02:00:00","40","13","14","1,2","277,4","25,1","66,6","0","0"],
    [39665,"2018-08-10T03:00:00","36","5","13,7","1,3","359,8","24,4","69,6","0","0"],
    [39666,"2018-08-10T04:00:00","56","12","11,8","1,4","12,4","24","69,6","0","0"],
    [39667,"2018-08-10T05:00:00","68","19","10,8","1,1","342","23,8","67,3","0","0"],
    [39668,"2018-08-10T06:00:00","99","40","10,9","1,5","342,7","23,1","68,8","0","0"],
    [39669,"2018-08-10T07:00:00","86","17","11,1","2,1","16,1","22,8","65,6","13,9","0"],
    [39670,"2018-08-10T08:00:00","124","36","14,6","2","289,7","25,4","59,4","126","0"],
    [39671,"2018-08-10T09:00:00","86","25","26,2","3,5","270,4","27,4","52,3","206,5","0"],
    [39672,"2018-08-10T10:00:00","51","14","42,8","3","277,1","29,9","46,2","331,9","0"],
    [39673,"2018-08-10T11:00:00","35","7","60","1","189,3","32,2","37","385,7","0"],
    [39674,"2018-08-10T12:00:00","50","5","74,5","3,1","260,5","34,2","32,8","435,9","0"],
    [39675,"2018-08-10T13:00:00","45","9","81,2","4","261","34,7","30","431,7","0"],
    [39676,"2018-08-10T14:00:00","43","10","75,3","4,3","278,4","34,3","30,3","213,9","0"],
    [39677,"2018-08-10T15:00:00","64","12","73,2","4,8","276,7","33,7","31","120,4","0"],
    [39678,"2018-08-10T16:00:00","70","14","62,2","4,4","284,3","33,8","31","108,6","0"],
    [39679,"2018-08-10T17:00:00","97","22","59,7","3,8","288,2","34,2","30,8","129,2","0"],
    [39680,"2018-08-10T18:00:00","100","20","49","3,6","274,6","33,9","30","53,8","0"],
    [39681,"2018-08-10T19:00:00","99","20","28,9","1,9","152,2","31,9","33,9","0","0"],
    [39682,"2018-08-10T20:00:00","78","14","26,4","3,9","106,6","30,2","43,3","0","0"],
    [39683,"2018-08-10T21:00:00","71","16","24,9","1,5","125,5","28,8","48,4","0","0"],
    [39684,"2018-08-10T22:00:00","56","7","14,4","2,6","286,6","25,9","63,6","0","0"],
    [39685,"2018-08-10T23:00:00","59","11","15,3","2,8","245,6","25,8","63,8","0","0"],
    [39686,"2018-08-11T00:00:00","69","19","15,6","2","180","26,1","57,9","0","0"],
    [39687,"2018-08-11T01:00:00","82","14","14,2","1,6","296,2","24,6","62,1","0","0"],
    [39688,"2018-08-11T02:00:00","69","16","13","0,8","311,2","23,8","63,3","0","0"],
    [39689,"2018-08-11T03:00:00","104","30","12,2","2,1","306,2","22,8","68,9","0","0"],
    [39690,"2018-08-11T04:00:00","82","21","11,8","1,3","24,9","21,7","67,1","0","0"],
    [39691,"2018-08-11T05:00:00","94","24","12,2","0,7","138,1","21,8","69,2","0","0"],
    [39692,"2018-08-11T06:00:00","130","47","12,5","2,2","305,9","19,9","72,7","0","0"],
    [39693,"2018-08-11T07:00:00","95","20","12,4","1,7","355,7","20,3","69,9","24,4","0"],
    [39694,"2018-08-11T08:00:00","80","8","18,5","1,7","9,5","24","55,2","122,7","0"],
    [39695,"2018-08-11T09:00:00","80","27","28,2","2,8","294,9","26,4","50,4","232,5","0"],
    [39696,"2018-08-11T10:00:00","52","13","56,3","2","284,7","28,9","41,8","334","0"],
    [39697,"2018-08-11T11:00:00","47","15","77,2","2,2","295,9","31,3","33,3","408,6","0"],
    [39698,"2018-08-11T12:00:00","49","11","87,2","1,7","285,4","33,7","27,9","450,2","0"],
    [39699,"2018-08-11T13:00:00","48","9","94,8","2,7","302,1","35,1","25,3","451,2","0"],
    [39700,"2018-08-11T14:00:00","41","6","101,4","3,1","259,6","36,1","23","426,8","0"],
    [39701,"2018-08-11T15:00:00","38","5","94,5","3,6","244,9","36,5","21","360,4","0"],
    [39702,"2018-08-11T16:00:00","48","6","83,1","4,8","252,5","36,7","20,2","265,3","0"],
    [39703,"2018-08-11T17:00:00","57","9","79,5","4,5","224,2","35,7","28","107,6","0"],
    [39704,"2018-08-11T18:00:00","50","13","74,2","4,4","132,2","33,4","34,2","25,3","0"],
    [39705,"2018-08-11T19:00:00","59","24","48,2","3,5","127","31,2","38,7","0","0"],
    [39706,"2018-08-11T20:00:00","77","18","21,4","2,6","260","29,2","47,2","0","0"],
    [39707,"2018-08-11T21:00:00","60","12","18,5","3,2","302,8","28,4","52,7","0","0"],
    [39708,"2018-08-11T22:00:00","75","9","27,6","4,3","65","28,8","47,2","0","0"],
    [39709,"2018-08-11T23:00:00","93","27","18","1,9","329,5","28,1","52,6","0","0"],
    [39710,"2018-08-12T00:00:00","54","3","17,8","2","303,8","27,5","57,3","0","0"],
    [39711,"2018-08-12T01:00:00","56","2","20,2","0,4","276,4","27,5","56,9","0","0"],
    [39712,"2018-08-12T02:00:00","24","ND","21,3","2","292,3","27,1","58,7","0","0"],
    [39713,"2018-08-12T03:00:00","34","ND","19,5","1,1","270,7","27","59,3","0","0"],
    [39714,"2018-08-12T04:00:00","31","2","15,5","2,7","288,4","26,1","63,8","0","0"],
    [39715,"2018-08-12T05:00:00","42","5","15,7","2","2,8","25,7","62,3","0","0"],
    [39716,"2018-08-12T06:00:00","60","8","12,2","1,6","331,9","24,9","63,9","0","0"],
    [39717,"2018-08-12T07:00:00","68","8","12","1,4","325,9","24,6","65,3","8,6","0"],
    [39718,"2018-08-12T08:00:00","95","23","15,5","1,6","281,6","26,2","60,8","77","0"],
    [39719,"2018-08-12T09:00:00","54","18","36,4","1,6","322,2","29,6","48,3","220,4","0"],
    [39720,"2018-08-12T10:00:00","43","13","63,1","1,5","19","31,6","43","299,1","0"],
    [39721,"2018-08-12T11:00:00","50","10","76,3","3,3","286,1","32,6","39,7","354,5","0"],
    [39722,"2018-08-12T12:00:00","36","8","90,5","1,4","287,4","33,7","36,6","303,9","0"],
    [39723,"2018-08-12T13:00:00","40","10","103,6","2,7","255,9","34,1","37,3","369,6","0"],
    [39724,"2018-08-12T14:00:00","43","6","80,5","4,7","257,8","34,5","36,7","255","0"],
    [39725,"2018-08-12T15:00:00","38","2","71,6","4,5","243,1","34,9","36,4","317,6","0"],
    [39726,"2018-08-12T16:00:00","25","ND","59,2","4,5","229","35","35,1","198,9","0"],
    [39727,"2018-08-12T17:00:00","21","ND","62,4","2,4","180,4","34,3","35,2","86,4","0"],
    [39728,"2018-08-12T18:00:00","37","5","44,7","5,2","111,8","31,9","39,8","8,3","0"],
    [39729,"2018-08-12T19:00:00","44","5","31,2","3,7","132,7","31,3","41,5","0","0"],
    [39730,"2018-08-12T20:00:00","28","ND","30,7","4,1","119,4","30,6","44","0","0"],
    [39731,"2018-08-12T21:00:00","49","ND","16,8","2,6","258,9","29,2","53,1","0","0"],
    [39732,"2018-08-12T22:00:00","54","ND","14,3","2,5","260,2","28,1","57,8","0","0"],
    [39733,"2018-08-12T23:00:00","19","ND","15,8","3","278,4","27,7","59,7","0","0"],
    [39734,"2018-08-13T00:00:00","29","ND","17,2","2,4","259,6","27,8","58,9","0","0"],
    [39735,"2018-08-13T01:00:00","14","ND","16,6","2,3","282","27,3","61,2","0","0"],
    [39736,"2018-08-13T02:00:00","15","ND","20,4","2,2","287,8","26,9","62","0","0"],
    [39737,"2018-08-13T03:00:00","43","ND","20","2,6","49,5","26,6","63,5","0","0"],
    [39738,"2018-08-13T04:00:00","49","4","17,6","3,1","30,2","26,4","64,3","0","0"],
    [39739,"2018-08-13T05:00:00","48","14","14,4","1,7","318,8","25,8","65,6","0","0"],
    [39740,"2018-08-13T06:00:00","69","21","11,8","2,2","327,7","25,2","68,5","0","0"],
    [39741,"2018-08-13T07:00:00","69","13","12,5","2,1","43,4","25,4","67,4","17,3","0"],
    [39742,"2018-08-13T08:00:00","99","25","13,7","2,5","260,1","26,2","65,9","53,3","0"],
    [39743,"2018-08-13T09:00:00","69","15","18,6","2,9","256,8","27,9","59,3","128,7","0"],
    [39744,"2018-08-13T10:00:00","56","17","30,2","3,3","270,6","29,5","49,6","231,1","0"],
    [39745,"2018-08-13T11:00:00","54","24","50,2","3,3","248,6","31,2","44,5","336,5","0"],
    [39746,"2018-08-13T12:00:00","38","8","53","3,6","263,7","32","41,6","246,3","0"],
    [39747,"2018-08-13T13:00:00","50","6","67,5","3,5","280,9","32,6","38,8","315,4","0"],
    [39748,"2018-08-13T14:00:00","48","10","118,8","2,9","228,3","34,4","35,1","377,2","0"],
    [39749,"2018-08-13T15:00:00","59","17","115,7","3,9","262","34,7","34,9","290,2","0"],
    [39750,"2018-08-13T16:00:00","61","17","102","4,4","251,6","33,9","36,8","128,5","0"],
    [39751,"2018-08-13T17:00:00","58","12","68,1","2,3","169","33,1","38,6","56,1","0"],
    [39752,"2018-08-13T18:00:00","42","7","53","5,6","129,1","31,4","40,8","20,9","0"],
    [39753,"2018-08-13T19:00:00","38","4","25,6","5,2","135,8","30,7","41,3","0","0"],
    [39754,"2018-08-13T20:00:00","38","1","23,1","4,8","145,5","29,9","45,1","0","0"],
    [39755,"2018-08-13T21:00:00","54","15","16,3","3,6","267,2","28,3","53,5","0","0"],
    [39756,"2018-08-13T22:00:00","31","ND","16,6","3,3","260,6","26,9","60,2","0","0"],
    [39757,"2018-08-13T23:00:00","27","ND","21,4","1,7","90,9","27,7","55,2","0","0"],
    [39758,"2018-08-14T00:00:00","19","ND","18","3,6","292,7","26,4","61,3","0","0"],
    [39759,"2018-08-14T01:00:00","20","ND","22,1","2,2","260,4","25,7","64,7","0","0"],
    [39760,"2018-08-14T02:00:00","8","ND","23,9","1,9","220,6","26","63","0","0"],
    [39761,"2018-08-14T03:00:00","12","ND","25,5","2,1","286,6","25,6","64,7","0","0"],
    [39762,"2018-08-14T04:00:00","24","ND","24,7","0,7","355,9","25,8","63,8","0","0"],
    [39763,"2018-08-14T05:00:00","28","ND","18","2,1","284,6","25,8","64,3","0","0"],
    [39764,"2018-08-14T06:00:00","46","3","13,4","2","288,4","25,2","67,5","0","0"],
    [39765,"2018-08-14T07:00:00","36","4","13","1","294,3","25,4","66,9","11,2","0"],
    [39766,"2018-08-14T08:00:00","61","4","15,5","1,9","8,1","26,5","64","39","0"],
    [39767,"2018-08-14T09:00:00","64","7","19,3","2,6","334,1","27,6","59,6","107","0"],
    [39768,"2018-08-14T10:00:00","53","6","28","2,7","18,7","29,2","54,8","174,4","0"],
    [39769,"2018-08-14T11:00:00","45","12","34,8","3,8","13","29,6","52,7","189","0"],
    [39770,"2018-08-14T12:00:00","38","7","53,7","2,7","6,2","31","47,8","335,2","0"],
    [39771,"2018-08-14T13:00:00","52","6","71,5","2,8","283","31,9","44,1","323,5","0"],
    [39772,"2018-08-14T14:00:00","56","16","78,1","5","254,1","32,1","42,9","296","0"],
    [39773,"2018-08-14T15:00:00","47","ND","78,3","4","237,8","33,2","37,2","289","0"],
    [39774,"2018-08-14T16:00:00","46","ND","43,4","3","214,6","32,1","39,1","64,1","0"],
    [39775,"2018-08-14T17:00:00","45","ND","39,8","4,2","162","28,9","52,4","54,6","0"],
    [39776,"2018-08-14T18:00:00","47","ND","37,4","8","221,7","28","52,9","9,8","0"],
    [39777,"2018-08-14T19:00:00","26","ND","24","4,5","207,9","25,5","66,7","0","1,02"],
    [39778,"2018-08-14T20:00:00","51","ND","17,3","2,3","240,4","25,6","66,7","0","0,25"],
    [39779,"2018-08-14T21:00:00","40","ND","15,5","2,6","341,9","25,3","69,6","0","0"],
    [39780,"2018-08-14T22:00:00","38","ND","14,9","2,2","358,5","24,9","71,2","0","0"],
    [39781,"2018-08-14T23:00:00","33","ND","16,2","2,9","40,5","24,4","73,8","0","0"],
    [39782,"2018-08-15T00:00:00","25","ND","15,9","2,5","28,6","24,3","73,3","0","0"],
    [39783,"2018-08-15T01:00:00","18","ND","16,7","1,4","1,8","24,3","72,7","0","0"],
    [39784,"2018-08-15T02:00:00","23","ND","15,6","1,5","326,8","24,3","72,4","0","0"],
    [39785,"2018-08-15T03:00:00","21","ND","14,4","1,4","336","24","74,5","0","0"],
    [39786,"2018-08-15T04:00:00","27","ND","13,8","1,1","36,2","23,8","75,1","0","0"],
    [39787,"2018-08-15T05:00:00","25","ND","12,9","1,7","315","23,6","75,4","0","0"],
    [39788,"2018-08-15T06:00:00","39","ND","11,8","0,9","263,3","23,1","77,6","0","0"],
    [39789,"2018-08-15T07:00:00","67","ND","12,2","1,7","223","23,3","77","6,4","0"],
    [39790,"2018-08-15T08:00:00","72","ND","12,5","2","218,1","24,1","74,3","47,8","0"],
    [39791,"2018-08-15T09:00:00","69","ND","15,6","1,3","123,2","25,6","68,3","94,8","0"],
    [39792,"2018-08-15T10:00:00","106","ND","ND","0,4","150,2","27,2","61","141,1","0"],
    [39793,"2018-08-15T11:00:00","104","40","29,1","2,5","281,9","28,8","55,5","294,4","0"],
    [39794,"2018-08-15T12:00:00","56","17","54,2","2,8","242,5","31,9","41,7","465,1","0"],
    [39795,"2018-08-15T13:00:00","43","13","71,4","4,1","259,3","32,3","40,4","392,1","0"],
    [39796,"2018-08-15T14:00:00","48","17","74,1","4,6","258,7","32,6","40,3","378,4","0"],
    [39797,"2018-08-15T15:00:00","47","14","93,7","3,8","225,3","33","38,8","308,6","0"],
    [39798,"2018-08-15T16:00:00","41","9","87,9","4,3","197,7","33","38,6","198,8","0"],
    [39799,"2018-08-15T17:00:00","50","9","47,3","6","227,8","32,9","38,3","124,7","0"],
    [39800,"2018-08-15T18:00:00","46","11","32,5","4,3","227","32,3","39,8","47,8","0"],
    [39801,"2018-08-15T19:00:00","74","20","18,2","2,6","231,4","30,1","46,7","0","0"],
    [39802,"2018-08-15T20:00:00","71","16","15,3","1","200,9","29,1","48,6","0","0"],
    [39803,"2018-08-15T21:00:00","95","25","10,1","2,6","262,8","27,3","56,7","0","0"],
    [39804,"2018-08-15T22:00:00","59","11","10","3,3","258,7","25,9","61,8","0","0"],
    [39805,"2018-08-15T23:00:00","61","12","11,6","2,6","246,3","25,8","62,1","0","0"],
    [39806,"2018-08-16T00:00:00","108","37","11","0,7","225,5","25,1","64,6","0","0"],
    [39807,"2018-08-16T01:00:00","48","12","11,3","1,5","312,6","25,1","64,8","0","0"],
    [39808,"2018-08-16T02:00:00","34","7","11,2","1,8","337,9","25","65","0","0"],
    [39809,"2018-08-16T03:00:00","44","11","11,2","2,1","298,7","24,3","67,4","0","0"],
    [39810,"2018-08-16T04:00:00","55","17","10","0,4","331,5","23,8","69,4","0","0"],
    [39811,"2018-08-16T05:00:00","59","15","9,1","1,6","276,5","23,4","71","0","0"],
    [39812,"2018-08-16T06:00:00","113","33","8,9","1,5","292,4","22,6","75,3","0","0"],
    [39813,"2018-08-16T07:00:00","120","35","9,9","0,3","233","23","74,9","14,1","0"],
    [39814,"2018-08-16T08:00:00","121","44","11,2","2,3","271,5","25,5","65,4","108,4","0"],
    [39815,"2018-08-16T09:00:00","80","27","21,3","3","288,9","27,3","58,6","213","0"],
    [39816,"2018-08-16T10:00:00","102","37","41,8","2","281,9","29,5","51,5","317,4","0"],
    [39817,"2018-08-16T11:00:00","66","24","73,9","2,1","275,2","31,3","45,3","397,2","0"],
    [39818,"2018-08-16T12:00:00","70","24","92,9","2,8","273,5","33,2","39","435,8","0"],
    [39819,"2018-08-16T13:00:00","70","25","117,6","2,9","278,9","34,5","35,1","439,1","0"],
    [39820,"2018-08-16T14:00:00","82","26","146,3","3,8","284,5","35,4","32,8","407,1","0"],
    [39821,"2018-08-16T15:00:00","78","31","151","4","270,2","36","31,4","339,2","0"],
    [39822,"2018-08-16T16:00:00","45","14","98,6","4,6","269,2","36,1","30,6","233,3","0"],
    [39823,"2018-08-16T17:00:00","55","16","71,6","3,8","208,5","35,4","32,1","100,7","0"],
    [39824,"2018-08-16T18:00:00","64","12","72,7","5,5","113,1","33,3","36,3","41","0"],
    [39825,"2018-08-16T19:00:00","58","17","44,1","4,4","111,3","31,2","41,1","0","0"],
    [39826,"2018-08-16T20:00:00","86","19","21,8","1,3","144,8","30,2","44,8","0","0"],
    [39827,"2018-08-16T21:00:00","84","16","12,9","3,6","277,5","27,9","54,4","0","0"],
    [39828,"2018-08-16T22:00:00","45","17","17,1","1,4","82,3","27,2","57,1","0","0"],
    [39829,"2018-08-16T23:00:00","65","19","15","2,1","348","27,1","57,7","0","0"],
    [39830,"2018-08-17T00:00:00","51","17","13,1","2","295,5","26,2","62","0","0"],
    [39831,"2018-08-17T01:00:00","56","11","15,5","1,5","310,6","26,1","62,9","0","0"],
    [39832,"2018-08-17T02:00:00","57","19","17,2","1,7","331,5","25,5","65,5","0","0"],
    [39833,"2018-08-17T03:00:00","51","14","16,7","2,8","317,8","25,3","66","0","0"],
    [39834,"2018-08-17T04:00:00","56","15","14,9","1,7","290,1","24,7","68,4","0","0"],
    [39835,"2018-08-17T05:00:00","55","12","15","1,2","324,6","24,7","67,1","0","0"],
    [39836,"2018-08-17T06:00:00","69","28","11,8","1,9","334","24,2","69,3","0","0"],
    [39837,"2018-08-17T07:00:00","93","27","12,6","2,1","316,2","24","68,5","15","0"],
    [39838,"2018-08-17T08:00:00","98","39","14,5","1,9","335,2","24,6","65,1","41,3","0"],
    [39839,"2018-08-17T09:00:00","93","23","23,7","2,2","23,3","27,2","57,5","139","0"],
    [39840,"2018-08-17T10:00:00","84","17","34,1","2,3","336,2","29,1","52,3","192,3","0"],
    [39841,"2018-08-17T11:00:00","61","18","44,5","3,5","280","30,9","46,6","332,3","0"],
    [39842,"2018-08-17T12:00:00","41","8","59,9","3,1","241,4","32,1","43","333,1","0"],
    [39843,"2018-08-17T13:00:00","64","20","70,4","3,8","290,7","32,6","41,5","286,5","0"],
    [39844,"2018-08-17T14:00:00","44","18","85,7","3,2","268,3","33","39,7","260,7","0"],
    [39845,"2018-08-17T15:00:00","49","20","93,8","3,5","272,9","33,2","37,9","194","0"],
    [39846,"2018-08-17T16:00:00","60","17","106,3","3,3","250,7","34,5","35,6","269,2","0"],
    [39847,"2018-08-17T17:00:00","75","22","113,3","4,4","265,9","33,8","37,3","152,6","0"],
    [39848,"2018-08-17T18:00:00","102","39","85,3","3,9","267,7","33","40,7","28,7","0"],
    [39849,"2018-08-17T19:00:00","70","17","49,1","1,1","146,1","32,1","41,6","0","0"],
    [39850,"2018-08-17T20:00:00","56","9","26,2","4,8","108,4","31","43,5","0","0"],
    [39851,"2018-08-17T21:00:00","51","9","22","1,8","121","30,4","45,7","0","0"],
    [39852,"2018-08-17T22:00:00","76","10","14,7","3,4","293,8","28,4","56,3","0","0"],
    [39853,"2018-08-17T23:00:00","42","15","14,8","3,4","252","27,2","60,1","0","0"],
    [39854,"2018-08-18T00:00:00","41","12","15,3","1,1","250,5","27,5","58,1","0","0"],
    [39855,"2018-08-18T01:00:00","47","9","13,7","1,7","270,8","26,5","62,5","0","0"],
    [39856,"2018-08-18T02:00:00","55","10","14,7","1,9","259,6","26,4","63,3","0","0"],
    [39857,"2018-08-18T03:00:00","62","11","12,5","2,3","322,6","26,4","64,5","0","0"],
    [39858,"2018-08-18T04:00:00","61","15","14,8","1,8","342,5","26,2","64,6","0","0"],
    [39859,"2018-08-18T05:00:00","49","17","15,7","1,6","346,5","25,8","64,6","0","0"],
    [39860,"2018-08-18T06:00:00","67","27","11,3","2,4","297,3","25,3","66,8","0","0"],
    [39861,"2018-08-18T07:00:00","78","26","11,2","1,2","337,6","25,4","66,5","14,7","0"],
    [39862,"2018-08-18T08:00:00","84","24","14","2,4","337,3","26,5","61,9","64,6","0"],
    [39863,"2018-08-18T09:00:00","59","16","21,5","1,5","342","28,2","53,5","135,9","0"],
    [39864,"2018-08-18T10:00:00","74","26","32,8","2,8","286,6","28,9","51,7","147,9","0"],
    [39865,"2018-08-18T11:00:00","65","21","56,2","2,2","304,6","31,3","43,6","284,6","0"],
    [39866,"2018-08-18T12:00:00","55","19","78,7","2,4","219,8","33","39","421,9","0"],
    [39867,"2018-08-18T13:00:00","40","10","84","2,8","224,4","34,1","36,5","420,6","0"],
    [39868,"2018-08-18T14:00:00","41","12","88,1","4,1","266,3","34,4","35,5","364,8","0"],
    [39869,"2018-08-18T15:00:00","52","17","78,7","5,5","260,5","34,5","36,6","285,9","0"],
    [39870,"2018-08-18T16:00:00","50","9","59,6","4,9","243,9","34","37,8","184","0"],
    [39871,"2018-08-18T17:00:00","42","7","54,2","4,2","119,2","32,7","39,1","56,7","0"],
    [39872,"2018-08-18T18:00:00","59","10","53,5","5,3","117,4","31,5","41,2","21,3","0"],
    [39873,"2018-08-18T19:00:00","51","10","36,2","4,2","126,8","30,7","42,9","0","0"],
    [39874,"2018-08-18T20:00:00","55","12","16,7","1,6","237,5","29,6","48,9","0","0"],
    [39875,"2018-08-18T21:00:00","62","11","15,3","3,4","241,7","27,3","59,3","0","0"],
    [39876,"2018-08-18T22:00:00","27","7","18,3","2","152,7","27,4","57,3","0","0"],
    [39877,"2018-08-18T23:00:00","59","16","14,4","2,3","267,6","27,7","56,4","0","0"],
    [39878,"2018-08-19T00:00:00","62","9","13,5","3,7","296,9","26,4","62,6","0","0"],
    [39879,"2018-08-19T01:00:00","34","6","15,5","1,1","261,4","26,4","61,7","0","0"],
    [39880,"2018-08-19T02:00:00","40","8","17","1,6","91,2","26,7","61","0","0"],
    [39881,"2018-08-19T03:00:00","42","16","16,8","1","100,8","26,1","64,8","0","1,02"],
    [39882,"2018-08-19T04:00:00","47","16","13,8","2,7","273,4","25,2","71,8","0","0"],
    [39883,"2018-08-19T05:00:00","42","10","11,7","1,6","248,1","24,8","72,1","0","0"],
    [39884,"2018-08-19T06:00:00","89","18","10,9","2","305,4","24,3","70,3","0","0"],
    [39885,"2018-08-19T07:00:00","75","16","11,4","1,9","342,3","24,1","68,2","6,4","0"],
    [39886,"2018-08-19T08:00:00","67","17","12,3","2,5","299,9","24,5","66,8","59,1","0"],
    [39887,"2018-08-19T09:00:00","49","17","19,7","2,1","306,4","27,3","57,5","175,1","0"],
    [39888,"2018-08-19T10:00:00","41","15","39,6","1,6","333,7","29,4","47,7","189,5","0"],
    [39889,"2018-08-19T11:00:00","49","15","58,3","2,1","247,8","30,2","46,3","197,6","0"],
    [39890,"2018-08-19T12:00:00","39","15","69,4","2,7","241,6","31,2","44,1","278,7","0"],
    [39891,"2018-08-19T13:00:00","38","8","66,2","3,9","260,2","31,8","42,2","308,3","0"],
    [39892,"2018-08-19T14:00:00","17","6","70,8","3","238,7","33,8","35,9","376,4","0"],
    [39893,"2018-08-19T15:00:00","35","8","77,5","4","260,3","34,2","34","331,9","0"],
    [39894,"2018-08-19T16:00:00","34","10","75,1","4,5","264,2","33,8","34,2","207","0"],
    [39895,"2018-08-19T17:00:00","31","10","79,7","3,5","254","34","34,7","130,4","0"],
    [39896,"2018-08-19T18:00:00","68","43","48,9","4,2","205,4","32,8","39,2","25,3","0"],
    [39897,"2018-08-19T19:00:00","64","30","33,9","3,2","150,4","31,5","41,3","0,2","0"],
    [39898,"2018-08-19T20:00:00","27","10","37","5","110,3","30,3","43,2","0","0"],
    [39899,"2018-08-19T21:00:00","78","17","26,5","0,9","196,8","28,9","49,2","0","0"],
    [39900,"2018-08-19T22:00:00","131","52","18,6","3","276,4","26,7","60,5","0","0"],
    [39901,"2018-08-19T23:00:00","65","16","15,6","2,6","233,3","26,6","60,2","0","0"],
    [39902,"2018-08-20T00:00:00","28","8","16","2,9","245,1","25,9","62,9","0","0"],
    [39903,"2018-08-20T01:00:00","47","9","12,8","1,5","288","24,9","67,4","0","0"],
    [39904,"2018-08-20T02:00:00","38","6","12","1,6","340,7","24,7","67,6","0","0"],
    [39905,"2018-08-20T03:00:00","41","10","13,1","2,7","54,1","24,8","67,8","0","0"],
    [39906,"2018-08-20T04:00:00","49","17","13,3","1,7","329","24,7","67,9","0","0"],
    [39907,"2018-08-20T05:00:00","55","14","11,4","1,9","6,8","24","70,8","0","0"],
    [39908,"2018-08-20T06:00:00","77","15","11","1,8","284,3","23,6","72,1","0","0"],
    [39909,"2018-08-20T07:00:00","92","28","11,8","1,5","254,3","23,4","72,7","17,2","0"],
    [39910,"2018-08-20T08:00:00","75","23","16,2","2,3","279,2","25,7","63,9","115,4","0"],
    [39911,"2018-08-20T09:00:00","53","15","36,7","0,7","151,5","29","51,3","227,1","0"],
    [39912,"2018-08-20T10:00:00","69","25","60,4","2,6","315,9","30,9","46,8","326,3","0"],
    [39913,"2018-08-20T11:00:00","59","13","82,4","2,1","308,7","33","40,2","408,7","0"],
    [39914,"2018-08-20T12:00:00","51","15","102,8","2,1","254,2","34,1","37","438,4","0"],
    [39915,"2018-08-20T13:00:00","47","12","106,6","2,1","243","35,5","33,1","451,4","0"],
    [39916,"2018-08-20T14:00:00","41","10","99,8","4,2","269,4","36,2","30,5","428,6","0"],
    [39917,"2018-08-20T15:00:00","40","8","103,6","1,5","241,9","37,3","26,3","350,9","0"],
    [39918,"2018-08-20T16:00:00","35","9","99,8","3","208","36,5","28,9","159,1","0"],
    [39919,"2018-08-20T17:00:00","39","6","94","4,4","142,5","35,9","31,2","149,9","0"],
    [39920,"2018-08-20T18:00:00","34","4","62,4","4,4","147,4","34,1","34,3","47,2","0"],
    [39921,"2018-08-20T19:00:00","43","6","49,2","6","113,2","31,8","40,2","0,4","0"],
    [39922,"2018-08-20T20:00:00","51","13","26,7","1,6","206,7","30,5","45","0","0"],
    [39923,"2018-08-20T21:00:00","65","13","16,6","3,3","293,5","28,7","53,3","0","0"],
    [39924,"2018-08-20T22:00:00","43","17","16,9","2,3","279","27,8","57,6","0","0"],
    [39925,"2018-08-20T23:00:00","53","8","16,5","3","289,5","27,8","57,5","0","0"],
    [39926,"2018-08-21T00:00:00","19","4","18,6","3,4","285","27,4","59,3","0","0"],
    [39927,"2018-08-21T01:00:00","23","6","18,7","1","323,9","27,5","59,2","0","0"],
    [39928,"2018-08-21T02:00:00","31","6","23,5","2,4","25,4","26,9","60,9","0","0"],
    [39929,"2018-08-21T03:00:00","23","4","34,4","1,7","334,7","25,7","62,2","0","0"],
    [39930,"2018-08-21T04:00:00","17","4","30,9","1,9","40,2","25,2","65,9","0","0"],
    [39931,"2018-08-21T05:00:00","30","11","22,7","1","22,5","25,5","63,3","0","0"],
    [39932,"2018-08-21T06:00:00","56","21","13","1,2","326,8","24,8","67,8","0","0"],
    [39933,"2018-08-21T07:00:00","96","33","12,4","2,1","318,6","25,2","68,5","24,9","0"],
    [39934,"2018-08-21T08:00:00","153","40","16","2,6","273,3","26,8","64,3","119,2","0"],
    [39935,"2018-08-21T09:00:00","66","20","28,9","2,4","238,2","29,1","55,2","227,5","0"],
    [39936,"2018-08-21T10:00:00","117","20","46,6","2,5","280,6","31,7","45,4","330,3","0"],
    [39937,"2018-08-21T11:00:00","40","14","62,5","2,1","246,2","33,4","39,5","377,5","0"],
    [39938,"2018-08-21T12:00:00","48","16","77,3","2,6","246,7","35","34,9","398","0"],
    [39939,"2018-08-21T13:00:00","28","10","79,7","3,2","249,1","36,5","30,7","442,2","0"],
    [39940,"2018-08-21T14:00:00","24","6","80,7","2,9","261","37,3","28","382,2","0"],
    [39941,"2018-08-21T15:00:00","33","5","89,8","3,3","265,5","37,5","27,2","328,4","0"],
    [39942,"2018-08-21T16:00:00","50","16","84,6","4,4","251,5","36,8","27,3","152,3","0"],
    [39943,"2018-08-21T17:00:00","52","17","55,6","4,1","173,6","34,8","34,8","53,3","0"],
    [39944,"2018-08-21T18:00:00","41","9","46,2","5,2","130","32,5","38,9","19,5","0"],
    [39945,"2018-08-21T19:00:00","40","13","23,9","4","156,5","31,6","40,4","0,1","0"],
    [39946,"2018-08-21T20:00:00","107","40","17,9","2,8","242,8","30","47,3","0","0"],
    [39947,"2018-08-21T21:00:00","53","8","15,3","2,4","280,9","28,1","56,4","0","0"],
    [39948,"2018-08-21T22:00:00","35","7","18,7","1,9","275","28","55,8","0","0"],
    [39949,"2018-08-21T23:00:00","56","9","21,1","1","345,1","28,2","54,4","0","0"],
    [39950,"2018-08-22T00:00:00","48","8","17,1","1,8","284,1","26,6","61,2","0","0"],
    [39951,"2018-08-22T01:00:00","10","4","22,9","1,8","288,2","26,5","61","0","0"],
    [39952,"2018-08-22T02:00:00","24","4","24,3","0,8","244,2","26,3","62,1","0","0"],
    [39953,"2018-08-22T03:00:00","19","5","20,2","3,2","295","25,5","65,3","0","0"],
    [39954,"2018-08-22T04:00:00","18","6","20,7","0,5","335,3","25,4","65,7","0","0"],
    [39955,"2018-08-22T05:00:00","54","19","14,1","1,9","339,8","25,4","66,5","0","0"],
    [39956,"2018-08-22T06:00:00","65","25","12,6","2,3","23,5","24,7","68,2","0","0"],
    [39957,"2018-08-22T07:00:00","90","28","12,9","1,4","321,3","24,5","69,6","13,5","0"],
    [39958,"2018-08-22T08:00:00","96","32","16,5","1,9","323,1","26,1","64,5","86","0"],
    [39959,"2018-08-22T09:00:00","94","27","33,2","2,4","285,2","28,8","53,2","230,9","0"],
    [39960,"2018-08-22T10:00:00","63","16","59,1","1,9","358,9","32,1","42,6","330,6","0"],
    [39961,"2018-08-22T11:00:00","46","8","72,5","1,8","296,2","33,1","39,1","402,5","0"],
    [39962,"2018-08-22T12:00:00","43","10","87,7","2,3","280,9","35","34,2","442,4","0"],
    [39963,"2018-08-22T13:00:00","57","14","86,5","4,2","279,7","35,9","30,3","450,9","0"],
    [39964,"2018-08-22T14:00:00","40","13","89,6","4","275,9","37,1","27,7","435","0"],
    [39965,"2018-08-22T15:00:00","49","12","91,8","2,9","261,5","37,2","27,2","221,2","0"],
    [39966,"2018-08-22T16:00:00","53","15","92","5,2","196,4","36,4","31,6","260,5","0"],
    [39967,"2018-08-22T17:00:00","54","15","73,8","5,4","198","34,5","34,6","43,2","0"],
    [39968,"2018-08-22T18:00:00","63","8","39,5","5,6","139,9","32,6","37,2","8","0"],
    [39969,"2018-08-22T19:00:00","47","9","27,9","4,3","144,9","31,2","41","0","0"],
    [39970,"2018-08-22T20:00:00","69","15","20,5","2,7","241,4","29,3","49,2","0","0"],
    [39971,"2018-08-22T21:00:00","58","15","17,8","1,8","309,2","28,3","54,1","0","0"],
    [39972,"2018-08-22T22:00:00","60","9","16","0,8","332,2","27,3","58,7","0","0"],
    [39973,"2018-08-22T23:00:00","35","15","17,7","1,6","241,8","27","59,8","0","0"],
    [39974,"2018-08-23T00:00:00","27","8","19,4","1,5","272,4","26,7","60,8","0","0"],
    [39975,"2018-08-23T01:00:00","ND","7","18","1,7","269,8","26","63,6","0","0"],
    [39976,"2018-08-23T02:00:00","ND","12","16,4","1,3","336,6","25,9","64,8","0","0"],
    [39977,"2018-08-23T03:00:00","ND","22","13,5","2,9","323,6","24,9","69,1","0","0"],
    [39978,"2018-08-23T04:00:00","ND","23","13,1","1,1","68,5","24,7","69,6","0","0"],
    [39979,"2018-08-23T05:00:00","ND","19","14,7","0,7","163,4","25,4","66,2","0","0"],
    [39980,"2018-08-23T06:00:00","ND","28","12,6","0,8","296,9","24,4","70,7","0","0"],
    [39981,"2018-08-23T07:00:00","ND","36","12,9","1,8","352,1","25","68,4","25,6","0"],
    [39982,"2018-08-23T08:00:00","ND","29","14,9","2","288,6","26,8","62,7","111,7","0"],
    [39983,"2018-08-23T09:00:00","ND","24","28,1","1,9","291","29,2","53","202","0"],
    [39984,"2018-08-23T10:00:00","ND","24","46,9","3,1","310,5","31,6","45,5","317,5","0"],
    [39985,"2018-08-23T11:00:00","ND","18","72,8","1,9","0","33,1","40,5","354,6","0"],
    [39986,"2018-08-23T12:00:00","ND","7","84,3","2,2","30,4","34,7","34,5","381,2","0"],
    [39987,"2018-08-23T13:00:00","ND","14","95,7","3,3","277,2","34,9","33,7","378,8","0"],
    [39988,"2018-08-23T14:00:00","ND","21","127,2","4,1","235,4","35,8","32,4","344,9","0"],
    [39989,"2018-08-23T15:00:00","ND","32","131,3","3,6","223,7","36","30,9","276,9","0"],
    [39990,"2018-08-23T16:00:00","ND","12","72","3,4","248","35,9","31,3","222,2","0"],
    [39991,"2018-08-23T17:00:00","70","8","62,4","4,1","137,2","34,6","32,8","127,2","0"],
    [39992,"2018-08-23T18:00:00","47","11","50,7","5,7","114,5","32,6","37,3","28,4","0"],
    [39993,"2018-08-23T19:00:00","36","8","36,7","6,9","116","30,6","41,9","0","0"],
    [39994,"2018-08-23T20:00:00","58","17","20,2","2,4","180,4","29,9","45,2","0","0"],
    [39995,"2018-08-23T21:00:00","45","18","15,9","4,3","270,2","27,7","55,1","0","0"],
    [39996,"2018-08-23T22:00:00","46","18","16","3,3","259,4","26,8","60","0","0"],
    [39997,"2018-08-23T23:00:00","28","7","18,4","3,2","255,4","26,7","60,2","0","0"],
    [39998,"2018-08-24T00:00:00","35","8","18,7","1,1","248,5","26,8","59,8","0","0"],
    [39999,"2018-08-24T01:00:00","34","6","15,2","2,1","16,1","26,6","61,8","0","0"],
    [40000,"2018-08-24T02:00:00","39","4","15,3","2,8","301,6","26,2","63,8","0","0"],
    [40001,"2018-08-24T03:00:00","32","6","17,2","1","2,6","25,6","65,7","0","0"],
    [40002,"2018-08-24T04:00:00","35","8","17,1","1,7","2","25,9","64,4","0","0"],
    [40003,"2018-08-24T05:00:00","47","13","13,2","1,6","349,2","25,9","65,7","0","0"],
    [40004,"2018-08-24T06:00:00","65","10","12,7","1,4","40,5","25,8","66","0","0"],
    [40005,"2018-08-24T07:00:00","76","18","12,8","2,2","20,4","26,2","63,8","15","0"],
    [40006,"2018-08-24T08:00:00","78","23","15,5","2,7","333,3","26,8","62,7","71,7","0"],
    [40007,"2018-08-24T09:00:00","44","14","27,4","2,4","32,9","29,4","52,1","211,1","0"],
    [40008,"2018-08-24T10:00:00","27","ND","42,5","2,1","287,5","31,4","45,6","343","0"],
    [40009,"2018-08-24T11:00:00","32","5","59,6","2,2","261,4","32,5","41,5","339,1","0"],
    [40010,"2018-08-24T12:00:00","47","18","81,8","1,9","241,9","33,6","39","356","0"],
    [40011,"2018-08-24T13:00:00","47","15","88,3","3,3","254,1","35,4","33,8","450,8","0"],
    [40012,"2018-08-24T14:00:00","41","11","93","2,4","212,9","36,5","30,5","412,3","0"],
    [40013,"2018-08-24T15:00:00","33","8","76,2","4,1","286,5","36,9","29,3","346,4","0"],
    [40014,"2018-08-24T16:00:00","24","5","80,7","3,5","268,2","36,8","28,7","210,6","0"],
    [40015,"2018-08-24T17:00:00","75","16","90,1","7,5","114,8","35,3","34,1","142,2","0"],
    [40016,"2018-08-24T18:00:00","47","10","62,1","6,3","133,9","33,2","38","22,2","0"],
    [40017,"2018-08-24T19:00:00","47","12","38,9","5,5","132,7","31,5","42,1","0","0"],
    [40018,"2018-08-24T20:00:00","77","28","18,6","2,6","221,8","30,4","46,8","0","0"],
    [40019,"2018-08-24T21:00:00","56","15","14,8","3,4","291,7","28,8","53,5","0","0"],
    [40020,"2018-08-24T22:00:00","39","12","15,3","2,7","255,8","28,1","56","0","0"],
    [40021,"2018-08-24T23:00:00","33","8","14,3","2,6","289,7","27,2","59,6","0","0"],
    [40022,"2018-08-25T00:00:00","32","8","13,9","1,7","293,1","26,9","60","0","0"],
    [40023,"2018-08-25T01:00:00","28","6","14,6","1,9","320","27,2","60,5","0","0"],
    [40024,"2018-08-25T02:00:00","19","4","16,9","3,2","289,6","26,3","62,9","0","0"],
    [40025,"2018-08-25T03:00:00","20","3","19,1","1,1","297,1","26,1","63,1","0","0"],
    [40026,"2018-08-25T04:00:00","33","5","17,2","1,9","5,3","26,2","63,6","0","0"],
    [40027,"2018-08-25T05:00:00","41","9","12,1","2,3","302,7","25,7","66,6","0","0"],
    [40028,"2018-08-25T06:00:00","57","21","11,2","1,6","323","25,3","68,2","0","0"],
    [40029,"2018-08-25T07:00:00","73","18","11,5","2,3","339,8","25,5","67,8","19,4","0"],
    [40030,"2018-08-25T08:00:00","75","18","15,4","2","313,6","26,9","62","115,4","0"],
    [40031,"2018-08-25T09:00:00","64","21","24,5","3,1","265,8","28,8","53,8","182,8","0"],
    [40032,"2018-08-25T10:00:00","62","18","37,3","3,6","289,3","30,9","46,9","298,1","0"],
    [40033,"2018-08-25T11:00:00","51","12","55,5","3,3","281,3","32,7","40,9","386,6","0"],
    [40034,"2018-08-25T12:00:00","48","23","75,2","1,6","316,4","33,7","38,2","376,9","0"],
    [40035,"2018-08-25T13:00:00","56","25","87,6","3,7","257","34,2","36,2","270,4","0"],
    [40036,"2018-08-25T14:00:00","64","19","102","2,4","277,7","35,3","33,9","329,4","0"],
    [40037,"2018-08-25T15:00:00","48","27","98,5","4,1","251,6","34,9","34,8","211,4","0"],
    [40038,"2018-08-25T16:00:00","60","22","84,4","3,4","249,9","34,2","35,7","94,6","0"],
    [40039,"2018-08-25T17:00:00","34","8","74,2","2,6","114,5","34,5","35,1","120,2","0"],
    [40040,"2018-08-25T18:00:00","37","15","68,5","4,6","140,6","33,3","36,8","50,7","0"],
    [40041,"2018-08-25T19:00:00","33","2","41,3","5,1","111,9","31,2","41","0","0"],
    [40042,"2018-08-25T20:00:00","36","8","30,4","2,8","137,1","30,4","43,9","0","0"],
    [40043,"2018-08-25T21:00:00","68","18","19","3,2","272,6","28,2","55,3","0","0"],
    [40044,"2018-08-25T22:00:00","47","10","19,7","2,5","274","27,8","56,7","0","0"],
    [40045,"2018-08-25T23:00:00","39","16","19,4","2,1","308,4","27,9","55,6","0","0"],
    [40046,"2018-08-26T00:00:00","65","19","15,8","2,8","28,3","27,4","59","0","0"],
    [40047,"2018-08-26T01:00:00","55","15","16,6","1,9","352,9","26,9","62,1","0","0"],
    [40048,"2018-08-26T02:00:00","33","8","18,4","1,8","264,6","26,9","60,9","0","0"],
    [40049,"2018-08-26T03:00:00","36","6","20,6","1,2","188,8","26,9","60,5","0","0"],
    [40050,"2018-08-26T04:00:00","34","11","21","2,3","226,5","26,1","62,8","0","0"],
    [40051,"2018-08-26T05:00:00","39","11","19,7","1,3","282","25,6","64,8","0","0"],
    [40052,"2018-08-26T06:00:00","35","10","18,8","1,6","304,7","24,9","68,5","0","0"],
    [40053,"2018-08-26T07:00:00","35","9","19,3","0,5","36,7","25,4","66,9","12,1","0"],
    [40054,"2018-08-26T08:00:00","71","16","19,6","2,4","33,8","26,6","62,8","41","0"],
    [40055,"2018-08-26T09:00:00","50","14","27,8","2,1","22,1","28,1","56,8","125,1","0"],
    [40056,"2018-08-26T10:00:00","49","17","35,5","1,8","345,7","30","51,2","202,9","0"],
    [40057,"2018-08-26T11:00:00","36","17","55,1","2,2","284,2","32,4","42,7","400,2","0"],
    [40058,"2018-08-26T12:00:00","22","10","65,2","3,2","270,1","33,8","37,6","433,6","0"],
    [40059,"2018-08-26T13:00:00","31","8","72,1","3,3","275,9","34,8","35,5","357,1","0"],
    [40060,"2018-08-26T14:00:00","31","14","65,4","5,4","261","34,2","36,4","264,4","0"],
    [40061,"2018-08-26T15:00:00","30","12","73,2","5,4","249,3","34,7","35","303,9","0"],
    [40062,"2018-08-26T16:00:00","36","10","75,5","5,1","216,8","35,1","35,6","232,7","0"],
    [40063,"2018-08-26T17:00:00","27","8","56,5","5,3","230,2","34,2","37,4","112,6","0"],
    [40064,"2018-08-26T18:00:00","35","13","50,8","3,3","223,7","33,4","38,1","39,3","0"],
    [40065,"2018-08-26T19:00:00","43","11","45,8","3,4","127,2","31,5","41","0","0"],
    [40066,"2018-08-26T20:00:00","44","7","37,3","4,4","110,4","30,7","43,2","0","0"],
    [40067,"2018-08-26T21:00:00","35","12","24,1","1,7","252,4","29,7","48,8","0","0"],
    [40068,"2018-08-26T22:00:00","126","ND","ND","2","283,6","28,9","52,7","0","0"],
    [40069,"2018-08-26T23:00:00","92","52","ND","1,9","281,3","28,1","55,7","0","0"],
    [40070,"2018-08-27T00:00:00","61","31","ND","0,6","312,6","28,3","54,9","0","0"],
    [40071,"2018-08-27T01:00:00","23","1","ND","2,2","275,2","27,3","59,6","0","0"],
    [40072,"2018-08-27T02:00:00","41","12","ND","3,1","270,5","26,7","62,2","0","0,51"],
    [40073,"2018-08-27T03:00:00","54","19","ND","1,2","198,1","25,8","69,4","0","0,76"],
    [40074,"2018-08-27T04:00:00","28","21","ND","1,4","199,3","25,7","68,2","0","0"],
    [40075,"2018-08-27T05:00:00","36","17","ND","0,7","211,3","25,5","67,9","0","0"],
    [40076,"2018-08-27T06:00:00","39","18","ND","1,8","350,3","25,5","67","0","0"],
    [40077,"2018-08-27T07:00:00","66","ND","ND","1,8","329,7","25,5","64,5","7,5","0"],
    [40078,"2018-08-27T08:00:00","75","21","ND","3,2","309,4","26,5","63,9","111,8","0"],
    [40079,"2018-08-27T09:00:00","34","8","ND","1,7","259,9","28,7","53,4","135,5","0"],
    [40080,"2018-08-27T10:00:00","ND","10","45,8","0,9","343,3","31,3","40,3","322,8","0"],
    [40081,"2018-08-27T11:00:00","34","8","68,8","3","255","32,8","36,7","415,7","0"],
    [40082,"2018-08-27T12:00:00","38","19","83,4","2,8","272,5","34","34,1","430,6","0"],
    [40083,"2018-08-27T13:00:00","25","11","81,5","2","272,2","35,9","29,2","393,7","0"],
    [40084,"2018-08-27T14:00:00","28","6","89,9","1,4","324,9","36,3","27,1","371,9","0"],
    [40085,"2018-08-27T15:00:00","ND","ND","92,2","2,9","297,7","37","24,7","336,8","0"],
    [40086,"2018-08-27T16:00:00","36","8","80,8","3,3","298,6","36,7","24,6","187,1","0"],
    [40087,"2018-08-27T17:00:00","38","15","82,8","2,1","358,1","36,5","24,3","108,1","0"],
    [40088,"2018-08-27T18:00:00","68","21","75","3,1","125,9","34,9","30,3","40,9","0"],
    [40089,"2018-08-27T19:00:00","70","13","41,5","4,9","128,7","31,9","37,9","0","0"],
    [40090,"2018-08-27T20:00:00","69","16","23","2,2","205,8","30,1","44,3","0","0"],
    [40091,"2018-08-27T21:00:00","56","23","16,3","4,1","257,5","28,4","53,1","0","0"],
    [40092,"2018-08-27T22:00:00","42","15","20","2","309,6","28,3","54,6","0","0"],
    [40093,"2018-08-27T23:00:00","29","8","20,5","3,9","289,1","27,7","56,4","0","0"],
    [40094,"2018-08-28T00:00:00","ND","ND","18,8","2,3","295,8","26,4","62,3","0","0"],
    [40095,"2018-08-28T01:00:00","25","2","21,3","2,3","279,2","26,2","63,4","0","0"],
    [40096,"2018-08-28T02:00:00","30","6","21,7","1,5","256,8","26,3","62,5","0","0"],
    [40097,"2018-08-28T03:00:00","31","7","18,4","1,6","280,7","25,8","65,1","0","0"],
    [40098,"2018-08-28T04:00:00","32","4","19,1","1,1","310,7","25,8","65,2","0","0"],
    [40099,"2018-08-28T05:00:00","34","ND","15","1,6","317,3","25,6","65,5","0","0"],
    [40100,"2018-08-28T06:00:00","66","26","11,4","1,9","319,6","25,9","62,6","0","0"],
    [40101,"2018-08-28T07:00:00","81","ND","10,9","1,5","339,9","26","60,7","19,3","0"],
    [40102,"2018-08-28T08:00:00","102","27","15,4","2,5","305,6","27,2","57,2","104,2","0"],
    [40103,"2018-08-28T09:00:00","69","27","32,2","1,2","291,2","29,7","49,4","234,1","0"],
    [40104,"2018-08-28T10:00:00","47","18","58,5","1,9","9,6","32","41,9","328,5","0"],
    [40105,"2018-08-28T11:00:00","50","21","79","2,4","280,8","33,6","37,1","423,7","0"],
    [40106,"2018-08-28T12:00:00","55","18","99,5","3,1","265,8","34,8","33,9","433,4","0"],
    [40107,"2018-08-28T13:00:00","45","18","108,1","3","276","36,3","29,5","433,6","0"],
    [40108,"2018-08-28T14:00:00","47","25","104,3","2,3","307,9","35,8","30,2","237,1","0"],
    [40109,"2018-08-28T15:00:00","73","27","105,5","3,1","5,2","36,2","30,9","213,3","0"],
    [40110,"2018-08-28T16:00:00","61","22","111,2","1,6","47","35,9","30,7","156,2","0"],
    [40111,"2018-08-28T17:00:00","63","28","78,3","3,3","131","30,9","46,4","28,5","1,27"],
    [40112,"2018-08-28T18:00:00","55","19","46,6","3,9","136,1","30,8","44,8","6,8","0"],
    [40113,"2018-08-28T19:00:00","69","23","16","2,8","159,4","30,2","46,8","0","0"],
    [40114,"2018-08-28T20:00:00","53","12","13,9","1,3","236","29,8","47,4","0","0"],
    [40115,"2018-08-28T21:00:00","58","32","14,1","3,5","253,3","28,4","54,9","0","0"],
    [40116,"2018-08-28T22:00:00","46","18","15,7","2,9","245,9","28,1","56,6","0","0"],
    [40117,"2018-08-28T23:00:00","24","5","16,9","2,4","284,7","27,7","58,1","0","0"],
    [40118,"2018-08-29T00:00:00","14","3","17,6","1,1","346,4","27,1","60,8","0","0"],
    [40119,"2018-08-29T01:00:00","18","2","16,9","1,8","322,6","26,8","62","0","0"],
    [40120,"2018-08-29T02:00:00","26","ND","16,6","2,2","68,2","26,1","66","0","1,02"],
    [40121,"2018-08-29T03:00:00","24","4","11,5","1,8","293,3","25,4","72","0","0"],
    [40122,"2018-08-29T04:00:00","44","15","9,8","1,9","324,9","25,5","71,1","0","0"],
    [40123,"2018-08-29T05:00:00","42","ND","9,5","1,9","342,9","24,9","73,4","0","0,51"],
    [40124,"2018-08-29T06:00:00","64","26","8,8","1,9","262,7","24,9","73,7","0","0"],
    [40125,"2018-08-29T07:00:00","76","36","9,5","2,8","284,7","24,9","71,9","17","0"],
    [40126,"2018-08-29T08:00:00","83","26","12","1,6","15,1","26","66,9","73,9","0"],
    [40127,"2018-08-29T09:00:00","56","ND","18,7","2,1","6","28,2","56,1","145,7","0"],
    [40128,"2018-08-29T10:00:00","ND","ND","36,3","1,7","317,2","30,5","46,9","267,5","0"],
    [40129,"2018-08-29T11:00:00","ND","16","62,3","2,8","271,6","31,7","43,2","298,4","0"],
    [40130,"2018-08-29T12:00:00","38","14","66,3","3,4","279,2","33","39,4","353,5","0"],
    [40131,"2018-08-29T13:00:00","39","12","69,8","4,2","245,8","34,5","35,4","463,5","0"],
    [40132,"2018-08-29T14:00:00","38","19","94,6","3,8","248,4","34,6","33,6","347,4","0"],
    [40133,"2018-08-29T15:00:00","42","14","88","2,8","307,2","34,3","33,3","167,1","0"],
    [40134,"2018-08-29T16:00:00","33","9","110,9","3,6","111,8","34,7","33,9","231,1","0"],
    [40135,"2018-08-29T17:00:00","38","7","75,2","5,7","118","33,3","35,8","83,8","0"],
    [40136,"2018-08-29T18:00:00","31","8","42","6,1","104,9","31,5","40,1","22,9","0"],
    [40137,"2018-08-29T19:00:00","49","19","22,4","3,3","195,1","30","44,9","0","0"],
    [40138,"2018-08-29T20:00:00","62","26","18","2","167,8","29,7","46,3","0","0"],
    [40139,"2018-08-29T21:00:00","41","17","12,7","3,4","271,6","28,4","53,8","0","0"],
    [40140,"2018-08-29T22:00:00","29","14","12,3","3,4","264,4","27","62,9","0","0"],
    [40141,"2018-08-29T23:00:00","27","ND","13","1,2","257,6","27","60","0","0"],
    [40142,"2018-08-30T00:00:00","25","2","14,7","3","67,7","27,1","59,5","0","0"],
    [40143,"2018-08-30T01:00:00","39","6","11,7","2,4","314,3","26,3","64","0","0"],
    [40144,"2018-08-30T02:00:00","25","6","13,1","0,8","194,8","25,6","65,1","0","0"],
    [40145,"2018-08-30T03:00:00","40","8","10,2","2","283,9","25,4","67,2","0","0"],
    [40146,"2018-08-30T04:00:00","34","8","12,3","1,9","260,9","25,2","67,2","0","0"],
    [40147,"2018-08-30T05:00:00","33","8","11,8","1,3","293,5","25,4","65,3","0","0"],
    [40148,"2018-08-30T06:00:00","49","12","8,9","1,4","9,5","25,1","66,8","0","0"],
    [40149,"2018-08-30T07:00:00","78","16","9","0,9","325,5","25,3","67,2","13,4","0"],
    [40150,"2018-08-30T08:00:00","64","21","11,3","2,3","284","26,1","63","52,3","0"],
    [40151,"2018-08-30T09:00:00","62","15","19,8","2,1","342,9","28","57,7","188,2","0"],
    [40152,"2018-08-30T10:00:00","42","12","45,9","1,5","69,8","30,7","47,9","295,1","0"],
    [40153,"2018-08-30T11:00:00","50","18","66,7","1,9","313,8","32,4","42,2","349,5","0"],
    [40154,"2018-08-30T12:00:00","45","12","73,6","2,1","281,4","34","38,1","338,8","0"],
    [40155,"2018-08-30T13:00:00","41","19","73,3","4","247,4","33,9","37,8","295,2","0"],
    [40156,"2018-08-30T14:00:00","43","14","85,2","4,3","266,1","34","36,8","264,9","0"],
    [40157,"2018-08-30T15:00:00","49","27","109,2","3,9","240,2","34,9","35,2","293,2","0"],
    [40158,"2018-08-30T16:00:00","50","15","86,5","4,8","241,3","34,9","36","220,8","0"],
    [40159,"2018-08-30T17:00:00","50","12","51,2","4,9","246,2","34,2","36,6","105","0"],
    [40160,"2018-08-30T18:00:00","36","13","62,5","3,7","138,7","33,4","37,3","38,6","0"],
    [40161,"2018-08-30T19:00:00","38","11","39,4","5,2","133,3","31,1","41,5","0","0"],
    [40162,"2018-08-30T20:00:00","40","10","32,1","5,1","113,7","30,3","45,1","0","0"],
    [40163,"2018-08-30T21:00:00","49","13","18,7","2,4","235,7","29,2","50,9","0","0"],
    [40164,"2018-08-30T22:00:00","ND","ND","ND","ND","ND","ND","ND","ND","ND"],
    [40165,"2018-08-30T23:00:00","ND","ND","ND","ND","ND","ND","ND","ND","ND"],
    [40166,"2018-08-31T00:00:00","ND","ND","ND","ND","ND","ND","ND","ND","ND"],
    [40167,"2018-08-31T01:00:00","ND","ND","ND","ND","ND","ND","ND","ND","ND"],
    [40168,"2018-08-31T02:00:00","30","3","17,1","0,2","238,6","25,6","66","0","0"],
    [40169,"2018-08-31T03:00:00","22","6","16,9","1","282,1","26","64,1","0","0"],
    [40170,"2018-08-31T04:00:00","22","ND","12,6","1,8","274,7","25,2","67","0","0"],
    [40171,"2018-08-31T05:00:00","51","22","10,8","0,9","247,9","24,6","69,9","0","0"],
    [40172,"2018-08-31T06:00:00","67","36","9,3","1,3","317,5","24,8","69,2","0","0"],
    [40173,"2018-08-31T07:00:00","96","41","9,8","1,6","326","25","68,6","12,5","0"],
    [40174,"2018-08-31T08:00:00","106","32","12,3","2,3","332,1","26,5","63,8","75,7","0"],
    [40175,"2018-08-31T09:00:00","77","27","29,9","2,8","52,9","28,5","55,8","203,9","0"],
    [40176,"2018-08-31T10:00:00","58","23","49,8","1,7","297,1","31,7","45","332,9","0"],
    [40177,"2018-08-31T11:00:00","37","13","55,6","2,4","292,1","32,9","41,2","398,1","0"],
    [40178,"2018-08-31T12:00:00","44","16","75,5","3,4","259,5","34,1","38,5","412,3","0"],
    [40179,"2018-08-31T13:00:00","45","20","91,2","4,5","259,7","35","36","378,8","0"],
    [40180,"2018-08-31T14:00:00","42","15","85,9","4,7","261,3","36","33,8","424,2","0"],
    [40181,"2018-08-31T15:00:00","40","7","83,7","2,3","223,4","36,1","32,3","182,7","0"],
    [40182,"2018-08-31T16:00:00","47","6","65,4","2,8","156,6","35,4","32,6","150,3","0"],
    [40183,"2018-08-31T17:00:00","51","6","56,6","8,5","103,3","34,1","34","97,5","0"],
    [40184,"2018-08-31T18:00:00","36","2","43,3","6,4","115,5","32,9","37","40,3","0"],
    [40185,"2018-08-31T19:00:00","40","6","25,1","4,8","128,1","31,6","40,4","0","0"],
    [40186,"2018-08-31T20:00:00","41","9","18","2,2","179,4","30,7","43,6","0","0"],
    [40187,"2018-08-31T21:00:00","54","20","13,4","3,1","245,8","29","51,7","0","0"],
    [40188,"2018-08-31T22:00:00","36","14","13","2,9","286,1","27,8","57,4","0","0"],
    [40189,"2018-08-31T23:00:00","44","15","11,8","3,5","258,4","27,1","59,9","0","0"],
    [40190,"2018-09-01T00:00:00","23","3","14,4","3,4","265,5","26,5","62,7","0","0"],
    [40191,"2018-09-01T01:00:00","19","2","16,2","2,7","267,9","26,4","62,7","0","0"],
    [40192,"2018-09-01T02:00:00","18","ND","21,4","0,3","233,4","26,6","60,9","0","0"],
    [40193,"2018-09-01T03:00:00","17","ND","21,1","2,4","268,8","26,6","61,3","0","0"],
    [40194,"2018-09-01T04:00:00","19","4","16,5","2,3","269,2","26","64,4","0","0"],
    [40195,"2018-09-01T05:00:00","31","12","13,2","0,6","283,5","25,6","68,2","0","0"],
    [40196,"2018-09-01T06:00:00","37","8","10,8","1,7","346,4","25,7","67,4","0","0"],
    [40197,"2018-09-01T07:00:00","59","19","11,9","2,4","51,8","25,8","67,5","18,3","0"],
    [40198,"2018-09-01T08:00:00","72","21","16,2","1,9","3,8","27,9","59,6","68,3","0"],
    [40199,"2018-09-01T09:00:00","55","20","23,7","1,8","299,6","28,8","55,7","135,9","0"],
    [40200,"2018-09-01T10:00:00","53","21","33,7","3,7","276,4","29,9","52,6","255","0"],
    [40201,"2018-09-01T11:00:00","39","13","50,1","3,7","258","32,2","45,1","394,1","0"],
    [40202,"2018-09-01T12:00:00","45","18","63,9","3,7","262,1","33,6","40,7","428,5","0"],
    [40203,"2018-09-01T13:00:00","ND","ND","81,9","2,5","264","35,4","35,9","426,5","0"],
    [40204,"2018-09-01T14:00:00","39","14","93","1,1","198","35,7","33,7","298,2","0"],
    [40205,"2018-09-01T15:00:00","55","22","80,6","2,9","255,5","35,6","33,6","126,7","0"],
    [40206,"2018-09-01T16:00:00","36","4","56,3","7,3","119,3","34,9","33","186,9","0"],
    [40207,"2018-09-01T17:00:00","22","3","52,6","7,4","119,2","34,4","33,3","160,2","0"],
    [40208,"2018-09-01T18:00:00","27","5","49,7","6,3","113,4","33,5","33,9","39,7","0"],
    [40209,"2018-09-01T19:00:00","32","6","33,8","5,1","121,5","31,1","39,9","0","0"],
    [40210,"2018-09-01T20:00:00","58","21","14,9","1,5","240","30,1","44,5","0","0"],
    [40211,"2018-09-01T21:00:00","34","8","19,2","1,6","128,1","29,4","47","0","0"],
    [40212,"2018-09-01T22:00:00","38","7","15,9","3,2","265,6","28","53,2","0","0"],
    [40213,"2018-09-01T23:00:00","33","10","15,1","2,9","262,6","27,1","58,5","0","0"],
    [40214,"2018-09-02T00:00:00","24","6","15,3","2,3","242,1","26,8","59,2","0","0"],
    [40215,"2018-09-02T01:00:00","35","6","14,5","2,6","295,8","26","62,7","0","0"],
    [40216,"2018-09-02T02:00:00","29","4","15,1","2","298,4","25,9","63,5","0","0"],
    [40217,"2018-09-02T03:00:00","33","5","12,9","1,3","325,7","25,8","64,2","0","0"],
    [40218,"2018-09-02T04:00:00","36","6","11,7","2","288,8","25,3","65,7","0","0"],
    [40219,"2018-09-02T05:00:00","39","5","11,6","1,1","315","24,9","67,6","0","0"],
    [40220,"2018-09-02T06:00:00","52","8","10,3","2","54,2","25,3","66,6","0","0"],
    [40221,"2018-09-02T07:00:00","63","20","10,7","1,8","353,2","25,5","66,8","19,2","0"],
    [40222,"2018-09-02T08:00:00","69","17","15,9","1,7","353,6","26,9","61,2","73,8","0"],
    [40223,"2018-09-02T09:00:00","51","13","32","3","38,8","29,8","50,8","250,4","0"],
    [40224,"2018-09-02T10:00:00","47","10","53,3","2,9","322,1","31,5","45","341,3","0"],
    [40225,"2018-09-02T11:00:00","31","12","72","0,8","306,9","33,5","39,5","402,4","0"],
    [40226,"2018-09-02T12:00:00","28","16","88,9","1,8","292","34,8","35,8","432,4","0"],
    [40227,"2018-09-02T13:00:00","39","13","105","3","255,2","35,7","33,6","443,8","0"],
    [40228,"2018-09-02T14:00:00","34","17","109,5","3,5","224","37","29,7","426,3","0"],
    [40229,"2018-09-02T15:00:00","29","15","110,9","3,9","200,6","37,3","29","354,1","0"],
    [40230,"2018-09-02T16:00:00","26","1","79,9","4,1","172,4","35,8","31,5","124,5","0"],
    [40231,"2018-09-02T17:00:00","21","4","56,9","4,6","152,3","35,7","31,7","146,7","0"],
    [40232,"2018-09-02T18:00:00","33","4","43,7","6,6","107,9","33,3","36,8","22","0"],
    [40233,"2018-09-02T19:00:00","27","2","33,8","7","120,1","31,2","42,6","0","0"],
    [40234,"2018-09-02T20:00:00","29","6","20,5","1","197,4","30,9","44,8","0","0"],
    [40235,"2018-09-02T21:00:00","44","15","27,8","3,8","342,6","29,9","47,9","0","0"],
    [40236,"2018-09-02T22:00:00","42","14","33,9","1,8","348,6","27,8","56,3","0","0"],
    [40237,"2018-09-02T23:00:00","43","22","24,1","4,7","247,4","26","67","0","0,25"],
    [40238,"2018-09-03T00:00:00","19","8","22,4","0,9","248,8","24,6","71,6","0","0"],
    [40239,"2018-09-03T01:00:00","39","18","21,8","2,5","131,5","25,3","68,6","0","0"],
    [40240,"2018-09-03T02:00:00","16","13","20,9","1,1","342,2","25,5","66","0","0"],
    [40241,"2018-09-03T03:00:00","37","11","14,3","3,6","297,7","24","72,8","0","0"],
    [40242,"2018-09-03T04:00:00","42","15","17,5","1","346,9","24,1","71,2","0","0"],
    [40243,"2018-09-03T05:00:00","33","15","20,1","1,1","345,4","24,6","68,2","0","0"],
    [40244,"2018-09-03T06:00:00","46","22","11,6","1,4","358,6","24,3","70,5","0","0"],
    [40245,"2018-09-03T07:00:00","84","28","13,7","3,2","29,2","24,7","69,5","35,8","0"],
    [40246,"2018-09-03T08:00:00","81","24","18,1","1,2","21,4","27,4","60,5","130,1","0"],
    [40247,"2018-09-03T09:00:00","42","17","31","2,9","286,5","29,5","52,4","249,1","0"],
    [40248,"2018-09-03T10:00:00","32","13","44","3,9","262,9","30,9","48","364,5","0"],
    [40249,"2018-09-03T11:00:00","31","10","58,2","4,3","265,9","32","45,2","367,2","0"],
    [40250,"2018-09-03T12:00:00","34","13","71","4,1","265,6","32,4","42,7","305,4","0"],
    [40251,"2018-09-03T13:00:00","38","15","80,6","3,9","272,1","32,6","42","200,3","0"],
    [40252,"2018-09-03T14:00:00","51","26","80,2","4,9","260,3","32,8","41,9","222,3","0"],
    [40253,"2018-09-03T15:00:00","41","11","78,6","4,5","248,5","33,4","40,4","237,3","0"],
    [40254,"2018-09-03T16:00:00","50","18","57,6","4,5","235,7","33,6","39,3","127,8","0"],
    [40255,"2018-09-03T17:00:00","35","11","44","3,4","223,5","33","39,2","65,8","0"],
    [40256,"2018-09-03T18:00:00","31","7","42,1","4,2","114,1","32","39,8","23,3","0"],
    [40257,"2018-09-03T19:00:00","48","11","24,3","5","105,9","30,6","43,4","0","0"],
    [40258,"2018-09-03T20:00:00","30","6","15,2","3,8","124,4","30,3","44,5","0","0"],
    [40259,"2018-09-03T21:00:00","60","22","14,5","2,6","223,4","29","50,3","0","0"],
    [40260,"2018-09-03T22:00:00","45","14","12,9","3,7","291,8","27,5","57,4","0","0"],
    [40261,"2018-09-03T23:00:00","35","13","15,9","3,6","257,4","26,9","60,8","0","0"],
    [40262,"2018-09-04T00:00:00","48","22","19,9","1","250,1","27,6","57,2","0","0"],
    [40263,"2018-09-04T01:00:00","18","7","15","1,3","307,2","27,3","59,3","0","0"],
    [40264,"2018-09-04T02:00:00","48","11","13,2","1,7","16,8","27,1","60,8","0","0"],
    [40265,"2018-09-04T03:00:00","30","8","12,9","1,8","303,5","26,1","65,1","0","0"],
    [40266,"2018-09-04T04:00:00","23","7","15,1","1,5","54,7","25,9","65,6","0","0"],
    [40267,"2018-09-04T05:00:00","59","10","11,3","2,3","27,4","25,7","67,2","0","0"],
    [40268,"2018-09-04T06:00:00","84","31","10,6","1,7","301","25,4","69,2","0","0"],
    [40269,"2018-09-04T07:00:00","76","24","10,6","1,7","3,9","25,4","69,4","11,1","0"],
    [40270,"2018-09-04T08:00:00","93","30","12,9","2,3","330","26,7","64,1","58,6","0"],
    [40271,"2018-09-04T09:00:00","73","24","22,5","2,3","319,5","28,5","56,3","162","0"],
    [40272,"2018-09-04T10:00:00","59","20","47,4","2","18,8","30,9","47","252,1","0"],
    [40273,"2018-09-04T11:00:00","66","24","85,2","1,5","183,6","32,4","42,1","342,5","0"],
    [40274,"2018-09-04T12:00:00","75","24","103,9","3","256,3","34,3","37,4","418,4","0"],
    [40275,"2018-09-04T13:00:00","65","23","95","4,8","263,3","35,1","35,6","443,8","0"],
    [40276,"2018-09-04T14:00:00","48","12","92,7","4,3","244,8","35,7","31,7","381,9","0"],
    [40277,"2018-09-04T15:00:00","47","10","95,7","4","224,4","36,9","28,6","329","0"],
    [40278,"2018-09-04T16:00:00","54","17","100,2","5,3","216,3","36,4","29,9","209,8","0"],
    [40279,"2018-09-04T17:00:00","54","15","66","5,9","198","34,4","36","82,1","0"],
    [40280,"2018-09-04T18:00:00","41","8","48,7","4,8","182,2","32,8","39","20,5","0"],
    [40281,"2018-09-04T19:00:00","36","9","29,8","5","141","31,6","40,6","0","0"],
    [40282,"2018-09-04T20:00:00","26","5","35,4","4,7","118,4","30,9","42,8","0","0"],
    [40283,"2018-09-04T21:00:00","30","8","26,5","1","207,5","30,1","47","0","0"],
    [40284,"2018-09-04T22:00:00","33","12","15,6","3,1","263,6","28,5","55,5","0","0"],
    [40285,"2018-09-04T23:00:00","41","10","14,5","1,5","13","28,1","56,9","0","0"],
    [40286,"2018-09-05T00:00:00","36","9","15","2,6","282,4","27,8","58,3","0","0"],
    [40287,"2018-09-05T01:00:00","15","4","23,3","3,5","250","26,9","61,3","0","0"],
    [40288,"2018-09-05T02:00:00","18","1","23,7","1,9","228,9","27","61","0","0"],
    [40289,"2018-09-05T03:00:00","17","1","20,6","3,3","282,2","26,3","64,5","0","0"],
    [40290,"2018-09-05T04:00:00","ND","ND","23,3","4,5","256,7","24,8","73","0","9,65"],
    [40291,"2018-09-05T05:00:00","ND","ND","ND","ND","ND","ND","ND","ND","ND"],
    [40292,"2018-09-05T06:00:00","ND","ND","ND","ND","ND","ND","ND","ND","ND"],
    [40293,"2018-09-05T07:00:00","ND","ND","ND","ND","ND","ND","ND","ND","ND"],
    [40294,"2018-09-05T08:00:00","ND","ND","ND","ND","ND","ND","ND","ND","ND"],
    [40295,"2018-09-05T09:00:00","ND","ND","ND","ND","ND","ND","ND","ND","ND"],
    [40296,"2018-09-05T10:00:00","ND","ND","ND","ND","ND","ND","ND","ND","ND"],
    [40297,"2018-09-05T11:00:00","ND","ND","ND","ND","ND","ND","ND","ND","ND"],
    [40298,"2018-09-05T12:00:00","ND","ND","ND","ND","ND","ND","ND","ND","ND"],
    [40299,"2018-09-05T13:00:00","ND","ND","ND","ND","ND","ND","ND","ND","ND"],
    [40300,"2018-09-05T14:00:00","ND","ND","ND","ND","ND","ND","ND","ND","ND"],
    [40301,"2018-09-05T15:00:00","44","8","79,3","4,4","259,2","34,3","36,4","285,5","0"],
    [40302,"2018-09-05T16:00:00","46","ND","65,5","3,9","258,5","33,6","37,3","92,3","0"],
    [40303,"2018-09-05T17:00:00","41","7","62,1","4,9","122,1","32,4","38,5","89,6","0"],
    [40304,"2018-09-05T18:00:00","31","8","55,5","5,8","109,5","31,3","39,5","24,5","0"],
    [40305,"2018-09-05T19:00:00","26","6","40,9","5,6","123,5","29,8","42,9","0","0"],
    [40306,"2018-09-05T20:00:00","51","18","16,3","3,1","250,2","28","52,6","0","0"],
    [40307,"2018-09-05T21:00:00","41","12","13,1","2,3","290,4","26,3","60,4","0","0"],
    [40308,"2018-09-05T22:00:00","40","10","20","4","248,1","26,6","56,1","0","0"],
    [40309,"2018-09-05T23:00:00","32","8","15,3","2","250,1","25,5","61,4","0","0"],
    [40310,"2018-09-06T00:00:00","32","5","18,1","3","271,4","25,3","62","0","0"],
    [40311,"2018-09-06T01:00:00","15","3","22,2","2","285,3","24,4","65,5","0","0"],
    [40312,"2018-09-06T02:00:00","18","8","21,1","1,7","316,2","24,2","66,4","0","0"],
    [40313,"2018-09-06T03:00:00","23","5","19,8","0,8","323,6","24,6","64,9","0","0"],
    [40314,"2018-09-06T04:00:00","27","8","21,4","1,2","148,8","24,4","65,3","0","0"],
    [40315,"2018-09-06T05:00:00","46","ND","13,2","0,6","153,8","24,4","65,7","","0"],
    [40316,"2018-09-06T06:00:00","98","56","11,4","1,6","329,2","24,5","66,2","","0"],
    [40317,"2018-09-06T07:00:00","70","ND","11,5","2,2","340,2","24,1","65,7","17,9","0"],
    [40318,"2018-09-06T08:00:00","61","ND","17,9","2,5","346","25,8","59,7","98,9","0"],
    [40319,"2018-09-06T09:00:00","69","31","31,3","2,5","327,8","28,1","52,5","229,1","0"],
    [40320,"2018-09-06T10:00:00","43","ND","47,2","1,6","323,6","30,3","44,3","342,7","0"],
    [40321,"2018-09-06T11:00:00","36","ND","70,5","1,8","281,5","32","39,2","423,3","0"],
    [40322,"2018-09-06T12:00:00","38","14","80,6","2,2","236,9","33,7","35,2","456,8","0"],
    [40323,"2018-09-06T13:00:00","29","14","90,6","3,4","200,8","34,7","32","444,7","0"],
    [40324,"2018-09-06T14:00:00","22","13","85,9","3,7","218,6","35","30,7","390,4","0"],
    [40325,"2018-09-06T15:00:00","25","8","98,1","4,7","206,9","35,8","28,6","302,3","0"],
    [40326,"2018-09-06T16:00:00","35","18","74,6","6","190,3","34,2","35,2","157,1","0"],
    [40327,"2018-09-06T17:00:00","43","22","68,9","4,4","152","32,9","36,9","40,5","0"],
    [40328,"2018-09-06T18:00:00","39","10","57,3","5,6","125,6","31,3","39,8","11,7","0"],
    [40329,"2018-09-06T19:00:00","51","18","31,6","3,3","131,2","30,5","41,7","0","0"],
    [40330,"2018-09-06T20:00:00","80","34","21,8","0,6","249,4","29,5","45,8","0","0"],
    [40331,"2018-09-06T21:00:00","53","14","17,2","3,7","267,4","28,1","51,7","0","0"],
    [40332,"2018-09-06T22:00:00","35","ND","21,7","4,7","248,4","27,2","55,6","","0"],
    [40333,"2018-09-06T23:00:00","24","9","24","3,5","241,1","26,4","58,3","","0"],
    [40334,"2018-09-07T00:00:00","15","6","24,9","2,3","262,8","26","60,1","0","0"],
    [40335,"2018-09-07T01:00:00","13","ND","25,2","2,6","281,4","25,3","64","","0"],
    [40336,"2018-09-07T02:00:00","13","ND","25,5","2,1","262,6","25,4","64,1","","0"],
    [40337,"2018-09-07T03:00:00","13","ND","25,6","1,2","266,6","25,7","63,1","","0"],
    [40338,"2018-09-07T04:00:00","13","ND","24","1,9","226,4","25,3","66,1","","0"],
    [40339,"2018-09-07T05:00:00","17","ND","18,4","2,1","234,3","25,2","67,4","","0"],
    [40340,"2018-09-07T06:00:00","43","ND","12,9","1","272,6","25,3","67","","0"],
    [40341,"2018-09-07T07:00:00","60","ND","14,3","1,7","13,7","25,6","65,7","8,3","0"],
    [40342,"2018-09-07T08:00:00","67","ND","18,8","2","359,1","26,3","63,4","49","0"],
    [40343,"2018-09-07T09:00:00","59","ND","24,4","2,3","341,9","27,9","57,5","121,1","0"],
    [40344,"2018-09-07T10:00:00","34","ND","39,3","1,3","329,9","29,9","50","235,8","0"],
    [40345,"2018-09-07T11:00:00","51","ND","43,5","2,5","263","30,4","47,4","204","0"],
    [40346,"2018-09-07T12:00:00","53","ND","53,77374115","3","231,9","30,9","46,2","220,1","0"],
    [40347,"2018-09-07T13:00:00","ND","ND","55,36282288","3,9","265,5","32","41,2","309,2","0"],
    [40348,"2018-09-07T14:00:00","25","ND","63,75945229","4,4","277,5","32,9","38","264,2","0"],
    [40349,"2018-09-07T15:00:00","22","ND","56,89304974","1,2","165,7","32,5","37,7","210","0"],
    [40350,"2018-09-07T16:00:00","19","ND","57,87396439","1,6","356","34","33,4","215","0"],
    [40351,"2018-09-07T17:00:00","26","ND","59,46304612","2,8","264,6","32,8","37,1","111,3","0"],
    [40352,"2018-09-07T18:00:00","20","ND","48,82993131","5,7","116,6","31,9","35,8","46,8","0"],
    [40353,"2018-09-07T19:00:00","38","ND","21,56050402","3,4","168,5","30,3","40,7","0","0"],
    [40354,"2018-09-07T20:00:00","57","ND","17,75455518","3","226,2","29,1","47,5","0","0"],
    [40355,"2018-09-07T21:00:00","36","ND","16,16547344","2,7","239,4","27,9","53,7","0","0"],
    [40356,"2018-09-07T22:00:00","37","ND","19,3632552","2,9","213,1","27,6","53,3","0","0"],
    [40357,"2018-09-07T23:00:00","29","ND","17,10715151","1,1","208","27,5","53","0","0"],
    [40358,"2018-09-08T00:00:00","33","ND","16,73440394","2","247,4","27,4","54,2","0","0"],
    [40359,"2018-09-08T01:00:00","20","ND","17,95073811","2,1","248,9","26,5","57,9","0","0"],
    [40360,"2018-09-08T02:00:00","20","ND","15,69463441","1,8","185,8","25,9","61,8","0","0"],
    [40361,"2018-09-08T03:00:00","24","ND","14,96875757","1,7","236,4","25,8","62,3","0","0"],
    [40362,"2018-09-08T04:00:00","14","ND","17,10715151","2,3","229,7","25,2","65,4","0","0"],
    [40363,"2018-09-08T05:00:00","45","ND","13,81127828","2,1","303,3","25","66,5","0","0"],
    [40364,"2018-09-08T06:00:00","66","ND","11,35899165","2,2","293,9","24,8","68,4","0","0"],
    [40365,"2018-09-08T07:00:00","59","ND","12,22219655","0,5","230,1","24,7","68,1","14,3","0"],
    [40366,"2018-09-08T08:00:00","67","ND","18,40195885","1,4","9,9","27,1","59,2","120,8","0"],
    [40367,"2018-09-08T09:00:00","53","ND","30,07484319","2,2","354,9","29,1","51,8","219,3","0"],
    [40368,"2018-09-08T10:00:00","51","ND","51,71382038","2,5","16,6","30,4","47,8","275,2","0"],
    [40369,"2018-09-08T11:00:00","69","ND","63,58288766","2,1","0,9","31","47","214,8","0"],
    [40370,"2018-09-08T12:00:00","61","ND","91,32315398","2,2","238,9","33,1","40,1","426,6","0"],
    [40371,"2018-09-08T13:00:00","42","ND","102,1916883","1,5","279,3","34,6","35,6","410,8","0"],
    [40372,"2018-09-08T14:00:00","62","ND","96,26696382","3,3","262,5","35,5","33,1","388,5","0"],
    [40373,"2018-09-08T15:00:00","58","ND","81,18049649","5","262,1","34","36,1","155,5","0"],
    [40374,"2018-09-08T16:00:00","52","ND","72,48959268","4,7","275,9","33,4","37,1","98,2","0"],
    [40375,"2018-09-08T17:00:00","50","ND","65,19158768","3,3","276,5","32,9","37,9","44,6","0"],
    [40376,"2018-09-08T18:00:00","62","ND","56,95190462","2,2","271,3","32,4","38,3","11,7","0"],
    [40377,"2018-09-08T19:00:00","72","ND","51,85114843","1,6","251,7","32,1","38,5","0","0"],
    [40378,"2018-09-08T20:00:00","86","ND","32,11514566","2,6","101","31,2","44,2","0","0"],
    [40379,"2018-09-08T21:00:00","42","ND","30,62415539","2,3","142,8","30,4","47,7","0","0"],
    [40380,"2018-09-08T22:00:00","54","ND","16,5578393","2,9","277,6","28,6","57,8","0","0"],
    [40381,"2018-09-08T23:00:00","41","ND","18,5392869","4,2","262,2","28,1","59,2","0","0"],
    [40382,"2018-09-09T00:00:00","33","ND","17,26409785","2,3","253,8","27,4","60,7","0","0"],
    [40383,"2018-09-09T01:00:00","27","ND","20,99157352","2,9","256,7","27,3","60,6","0","0"],
    [40384,"2018-09-09T02:00:00","30","ND","18,2450125","1,2","17,4","26,2","65,5","0","0"],
    [40385,"2018-09-09T03:00:00","55","ND","16,38127467","1,7","348,8","26,2","65,8","0","0"],
    [40386,"2018-09-09T04:00:00","78","ND","12,69303558","3,2","308,9","25,3","69","0","0"],
    [40387,"2018-09-09T05:00:00","78","ND","11,65326605","2,1","24,8","24,4","69,5","0","0"],
    [40388,"2018-09-09T06:00:00","91","ND","11,49631971","1,7","4,3","24,2","68,6","0","0"],
    [40389,"2018-09-09T07:00:00","80","ND","11,88868557","1,6","301,5","24,7","67,2","19,4","0"],
    [40390,"2018-09-09T08:00:00","80","ND","14,36059049","2,5","284,4","25","65,3","49,7","0"],
    [40391,"2018-09-09T09:00:00","85","ND","22,30599916","1,7","299,7","27,6","56,2","152,3","0"],
    [40392,"2018-09-09T10:00:00","63","ND","41,02185069","3,4","302","29,6","47,5","173","0"],
    [40393,"2018-09-09T11:00:00","52","ND","52,34160576","2,3","346,5","31,4","40,9","235,2","0"],
    [40394,"2018-09-09T12:00:00","53","ND","67,78120236","2,6","355,5","31,9","40,1","220,7","0"],
    [40395,"2018-09-09T13:00:00","37","ND","83,31889043","1,6","311","33","38,3","332,9","0"],
    [40396,"2018-09-09T14:00:00","34","ND","78,57126352","3,2","313,4","34,9","31,3","378,5","0"],
    [40397,"2018-09-09T15:00:00","35","4","68,38936944","3","350","35,5","27,4","260,9","0"],
    [40398,"2018-09-09T16:00:00","25","6","68,36975115","2,9","359,6","34,2","29,2","99,5","0"],
    [40399,"2018-09-09T17:00:00","40","11","63,79868888","2,3","283,5","33,8","30,5","78,1","0"],
    [40400,"2018-09-09T18:00:00","69","28","56,42221071","3,4","276,2","32,9","35,7","34,9","0"],
    [40401,"2018-09-09T19:00:00","64","25","43,2387178","2,4","231","31","43,9","0","0"],
    [40402,"2018-09-09T20:00:00","57","19","22,07057964","2,5","135,4","30,1","45,3","0","0"],
    [40403,"2018-09-09T21:00:00","38","5","19,42211008","0,8","128,8","29,7","46,9","0","0"],
    [40404,"2018-09-09T22:00:00","34","9","16,77364053","2,6","265,9","27,8","57,6","0","0"],
    [40405,"2018-09-09T23:00:00","24","7","18,97088934","1,5","275,9","28,1","55,1","0","0"],
    [40406,"2018-09-10T00:00:00","30","5","16,73440394","1,6","320,4","27,8","56,3","0","0"],
    [40407,"2018-09-10T01:00:00","30","9","17,16600639","1,5","325,9","26,7","60,3","0","0"],
    [40408,"2018-09-10T02:00:00","36","8","17,77417347","1,2","326,6","26","63,1","0","0"],
    [40409,"2018-09-10T03:00:00","17","3","16,40089296","1,6","295,4","25,4","65,1","0","0"],
    [40410,"2018-09-10T04:00:00","15","3","20,30493327","0,7","335,4","25,3","64,6","0","0"],
    [40411,"2018-09-10T05:00:00","44","17","17,61722713","1,6","323,2","24,9","63,7","0","0"],
    [40412,"2018-09-10T06:00:00","66","28","13,69356852","1,2","347,3","24,2","64,4","0","0"],
    [40413,"2018-09-10T07:00:00","83","21","14,51753683","1,5","358,6","24,8","62,7","28,8","0"],
    [40414,"2018-09-10T08:00:00","81","27","19,40249179","2,9","298,7","26,5","57,1","126,4","0"],
    [40415,"2018-09-10T09:00:00","58","21","43,98421294","1,6","314,5","29,7","45,8","239","0"],
    [40416,"2018-09-10T10:00:00","55","18","67,0945621","1,9","268,6","31,5","40,5","341,2","0"],
    [40417,"2018-09-10T11:00:00","33","16","75,62851957","2,4","258,5","33,3","35,7","419,8","0"],
    [40418,"2018-09-10T12:00:00","34","8","88,91010394","2,6","270,7","34,9","30,9","463,2","0"],
    [40419,"2018-09-10T13:00:00","51","21","90,989643","2,7","327,5","36,1","26,8","345,6","0"],
    [40420,"2018-09-10T14:00:00","47","15","77,11950983","5","276,9","35,3","28,9","225,7","0"],
    [40421,"2018-09-10T15:00:00","29","11","85,30033802","3,4","268,1","35,8","27,9","217,7","0"],
    [40422,"2018-09-10T16:00:00","47","10","95,93345283","4,4","262,6","35,8","28,9","206,1","0"],
    [40423,"2018-09-10T17:00:00","57","25","90,16567469","3,1","290,8","35,8","28,5","127,5","0"],
    [40424,"2018-09-10T18:00:00","60","15","87,3210222","1,1","125,8","34,6","32,2","38,9","0"],
    [40425,"2018-09-10T19:00:00","42","13","53,69526798","5,2","116","31,8","40,4","0","0"],
    [40426,"2018-09-10T20:00:00","41","11","34,09659326","4,7","134,3","30,9","42,8","0","0"],
    [40427,"2018-09-10T21:00:00","53","12","24,95446871","2","270,7","29,5","49,4","0","0"],
    [40428,"2018-09-10T22:00:00","41","12","20,18722351","2,6","254,2","28,1","57,1","0","0"],
    [40429,"2018-09-10T23:00:00","37","8","18,40195885","2,8","278,5","27,5","59,4","0","0"],
    [40430,"2018-09-11T00:00:00","11","5","21,0700467","2,1","265,6","26,8","61,6","0","0"],
    [40431,"2018-09-11T01:00:00","22","2","22,28638086","3,1","263,4","26,3","63,5","0","0"],
    [40432,"2018-09-11T02:00:00","22","2","20,06951375","1,6","50","26,5","62,7","0","0"],
    [40433,"2018-09-11T03:00:00","50","22","22,42370891","1,7","344,5","26,5","62,3","0","0"],
    [40434,"2018-09-11T04:00:00","53","18","20,36378815","2,3","19,1","26","63,8","0","0"],
    [40435,"2018-09-11T05:00:00","52","13","21,28584792","2,1","9,4","25,9","60,1","0","0"],
    [40436,"2018-09-11T06:00:00","73","27","14,71371976","1,3","329,8","25,5","62","0","0"],
    [40437,"2018-09-11T07:00:00","88","30","13,10501973","2,3","303,5","24,5","64,6","22,1","0"],
    [40438,"2018-09-11T08:00:00","70","19","ND","1,9","338,8","26,7","55","120,4","0"],
    [40439,"2018-09-11T09:00:00","59","27","33,92002862","2,9","300,8","29,2","47,2","235,5","0"],
    [40440,"2018-09-11T10:00:00","49","9","61,75838641","1,3","338,4","32,5","38,2","356,9","0"],
    [40441,"2018-09-11T11:00:00","41","14","78,29660742","2,4","258,6","33,6","35,4","415,7","0"],
    [40442,"2018-09-11T12:00:00","50","15","74,86340614","4,1","270,3","32,7","36,1","172,1","0"],
    [40443,"2018-09-11T13:00:00","65","28","71,11631217","4,2","284,1","33,1","36,6","205,1","0"],
    [40444,"2018-09-11T14:00:00","73","23","79,90530744","4,1","280,3","33","37,5","216,9","0"],
    [40445,"2018-09-11T15:00:00","65","23","99,1116163","4,5","274,5","34,1","34,8","311,2","0"],
    [40446,"2018-09-11T16:00:00","73","23","99,3862724","4,2","278,2","34,1","33,7","146","0"],
    [40447,"2018-09-11T17:00:00","49","7","67,27112674","5,3","116","32,3","38,4","69,2","0"],
    [40448,"2018-09-11T18:00:00","44","15","55,51976923","5,4","126,4","31,2","39,8","15,7","0"],
    [40449,"2018-09-11T19:00:00","60","20","31,93858103","2,6","209,6","29,7","44,9","0","0"],
    [40450,"2018-09-11T20:00:00","44","19","25,32721628","4,9","238,4","27,4","55,8","0","0"],
    [40451,"2018-09-11T21:00:00","81","20","19,32401862","3,6","257,4","26,5","57,5","0","0"],
    [40452,"2018-09-11T22:00:00","51","16","16,12623686","3,4","262,6","25,8","60,5","0","0"],
    [40453,"2018-09-11T23:00:00","41","13","16,16547344","2,5","263,1","25,3","64,3","0","0"],
    [40454,"2018-09-12T00:00:00","47","13","19,18669057","1,1","164,9","24,9","65,5","0","0"],
    [40455,"2018-09-12T01:00:00","42","10","17,34257102","1,4","260,8","25","64,9","0","0"],
    [40456,"2018-09-12T02:00:00","41","13","16,59707589","1,9","340","24,4","67,1","0","0"],
    [40457,"2018-09-12T03:00:00","55","16","14,75295635","0,8","8,1","23,7","69,8","0","0"],
    [40458,"2018-09-12T04:00:00","59","17","12,24181484","1,5","286,1","23,5","71,1","0","0"],
    [40459,"2018-09-12T05:00:00","56","23","11,86906727","1,5","34,2","23,5","71,1","0","0"],
    [40460,"2018-09-12T06:00:00","77","37","10,20151237","1,7","346,9","23,6","70,1","0","0"],
    [40461,"2018-09-12T07:00:00","109","46","11,00586238","1,9","299,5","23,7","69,6","13,3","0"],
    [40462,"2018-09-12T08:00:00","139","55","13,30120266","2,4","320,8","25,1","65","74,4","0"],
    [40463,"2018-09-12T09:00:00","87","34","28,6427078","1,2","317,9","27,2","57,4","160,4","0"],
    [40464,"2018-09-12T10:00:00","79","28","55,83366192","1,4","9,6","30,7","45,3","340,3","0"],
    [40465,"2018-09-12T11:00:00","51","18","73,72554514","2,5","255,9","32,4","39","402,4","0"],
    [40466,"2018-09-12T12:00:00","57","17","92,97109059","3,5","241,7","33,4","37","399,5","0"],
    [40467,"2018-09-12T13:00:00","59","25","124,1641765","3","232,8","34,8","34,3","405,1","0"],
    [40468,"2018-09-12T14:00:00","49","19","97,34596993","4,5","212","35,4","32,8","332,2","0"],
    [40469,"2018-09-12T15:00:00","37","6","65,83899135","4,8","188,8","34,4","33,5","143,7","0"],
    [40470,"2018-09-12T16:00:00","29","7","66,52563161","2,3","183,1","34,4","33,4","108,2","0"],
    [40471,"2018-09-12T17:00:00","54","8","45,39673003","2,2","235,3","32,8","38,4","36,6","0"],
    [40472,"2018-09-12T18:00:00","32","8","45,31825686","6,4","126","31,3","39,9","6,4","0"],
    [40473,"2018-09-12T19:00:00","60","6","44,94550929","7,5","112,1","29,8","45,5","0","0"],
    [40474,"2018-09-12T20:00:00","22","8","33,99850179","1,8","146,4","29,3","46,3","0","0"],
    [40475,"2018-09-12T21:00:00","33","8","36,07804085","3,4","95","28,3","50","0","0"],
    [40476,"2018-09-12T22:00:00","39","7","32,09552737","2,7","86,3","28,4","49,3","0","0"],
    [40477,"2018-09-12T23:00:00","41","9","22,77683819","1,7","316,5","27,6","54,1","0","0"],
    [40478,"2018-09-13T00:00:00","37","8","23,34576869","1,2","279,9","27,1","57,3","0","0"],
    [40479,"2018-09-13T01:00:00","41","6","25,18988823","1","297,7","26,8","59,1","0","0"],
    [40480,"2018-09-13T02:00:00","25","5","25,77843702","1","305,4","26,5","60,1","0","0"],
    [40481,"2018-09-13T03:00:00","31","8","28,3484334","1,2","337,4","26,5","60,3","0","0"],
    [40482,"2018-09-13T04:00:00","70","45","23,95393577","1,9","341,5","26,4","61,5","0","0"],
    [40483,"2018-09-13T05:00:00","42","17","14,75295635","2,7","315,8","25,8","65,2","0","0"],
    [40484,"2018-09-13T06:00:00","56","21","12,22219655","2,5","323","25,6","67,2","0","0"],
    [40485,"2018-09-13T07:00:00","44","15","15,57692465","2","348,3","25,4","68,5","5","0,25"],
    [40486,"2018-09-13T08:00:00","33","21","16,73440394","2,4","10","25","72,7","28,9","0,76"],
    [40487,"2018-09-13T09:00:00","39","10","21,52126744","2,3","358","26,1","66,7","34,2","0"],
    [40488,"2018-09-13T10:00:00","40","14","26,28851264","2,1","11,8","26,8","64,1","72,9","0"],
    [40489,"2018-09-13T11:00:00","44","18","37,13742867","1,7","50,5","27,9","58,8","126,6","0"],
    [40490,"2018-09-13T12:00:00","58","17","55,14702166","0,9","52,2","30,7","48,7","348,2","0"],
    [40491,"2018-09-13T13:00:00","38","11","61,89571446","3,9","292","31,9","41,4","231,8","0"],
    [40492,"2018-09-13T14:00:00","46","18","54,40152653","6,2","266,7","30,3","48,9","149,5","0"],
    [40493,"2018-09-13T15:00:00","41","11","56,04946314","7,2","261,3","31","46,2","219,9","0"],
    [40494,"2018-09-13T16:00:00","50","8","43,33680927","5,2","221,5","31","40,9","118,3","0"],
    [40495,"2018-09-13T17:00:00","57","7","41,13956045","3,9","106,6","29","45","21,9","0"],
    [40496,"2018-09-13T18:00:00","47","10","41,92429217","8,4","54,3","24,8","66,1","0","0"],
    [40497,"2018-09-13T19:00:00","25","9","29,34896635","5,8","44,6","23,7","72,5","0","1,52"],
    [40498,"2018-09-13T20:00:00","5","5","27,58331998","4","41,2","23,1","76,1","0","1,02"],
    [40499,"2018-09-13T21:00:00","5","3","28,60347121","4,9","55","22,9","77,9","0","0"],
    [40500,"2018-09-13T22:00:00","6","6","25,32721628","3,8","50,2","23,2","76,7","0","0"],
    [40501,"2018-09-13T23:00:00","17","1","17,51913566","1,6","299,8","23,8","74,3","0","0"],
    [40502,"2018-09-14T00:00:00","21","6","15,14532221","2,6","288,8","23,5","76,3","0","0"],
    [40503,"2018-09-14T01:00:00","36","16","14,24288073","2","316,1","23,8","75,6","0","0"],
    [40504,"2018-09-14T02:00:00","6","ND","22,12943452","2,6","20,8","23,6","75,6","0","0"],
    [40505,"2018-09-14T03:00:00","2","ND","25,34683457","2,6","40,5","23,1","77,6","0","1,78"],
    [40506,"2018-09-14T04:00:00","ND","ND","25,75881873","2","17,8","23","77,7","0","0,51"],
    [40507,"2018-09-14T05:00:00","4","ND","23,79698942","1,5","30,9","23,1","77,5","0","1,78"],
    [40508,"2018-09-14T06:00:00","9","2","14,26249902","1,2","8,3","23,1","77,2","0","4,06"],
    [40509,"2018-09-14T07:00:00","24","10","12,12410508","1,7","335,1","23,1","78,5","17,8","1,27"],
    [40510,"2018-09-14T08:00:00","29","15","13,88975145","2,1","309,8","24,5","74","98,5","0"],
    [40511,"2018-09-14T09:00:00","34","20","20,48149791","2,1","27,7","25,6","68,4","104,4","0"],
    [40512,"2018-09-14T10:00:00","22","11","28,62308951","3","49,3","26","66,3","135,4","0"],
    [40513,"2018-09-14T11:00:00","15","8","47,63321544","1,4","81,5","27,9","57,5","205,6","0"],
    [40514,"2018-09-14T12:00:00","18","11","84,96682704","1,9","73,9","29,8","49,2","329","0"],
    [40515,"2018-09-14T13:00:00","31","16","120,2993728","2,5","161,5","30,5","45,8","277,8","0"],
    [40516,"2018-09-14T14:00:00","40","17","84,16247703","4,1","258,2","30,7","46,5","276,7","0"],
    [40517,"2018-09-14T15:00:00","27","11","88,12537222","2,3","257","32,1","43,3","319,2","0"],
    [40518,"2018-09-14T16:00:00","42","17","120,9075398","3,6","201,1","32,1","40,6","174,9","0"],
    [40519,"2018-09-14T17:00:00","59","27","40,74719459","4,3","270,5","28,6","61,4","29,7","3,81"],
    [40520,"2018-09-14T18:00:00","79","31","22,67874672","2,9","303,8","28,6","60,3","16,7","0"],
    [40521,"2018-09-14T19:00:00","33","9","26,60240533","6,7","28,4","25,7","68,1","0","0,51"],
    [40522,"2018-09-14T20:00:00","11","8","24,52286627","5,2","58,3","23,9","76,9","0","14,48"],
    [40523,"2018-09-14T21:00:00","20","6","20,42264303","1,3","24,9","23,4","79","0","15,24"],
    [40524,"2018-09-14T22:00:00","17","7","14,79219293","1,1","313,5","23,1","81,9","0","8,64"],
    [40525,"2018-09-14T23:00:00","20","13","14,22326243","1,7","288,9","23,3","80","0","0"],
    [40526,"2018-09-15T00:00:00","20","13","17,47989907","2,2","262,2","23,4","77,9","0","0"],
    [40527,"2018-09-15T01:00:00","21","9","18,46081373","1,1","269","23,3","78","0","0,51"],
    [40528,"2018-09-15T02:00:00","27","13","21,58012231","1","4","23,2","78,9","0","2,29"],
    [40529,"2018-09-15T03:00:00","15","9","22,81607477","2,1","305,7","23,2","78,6","0","0,76"],
    [40530,"2018-09-15T04:00:00","10","9","24,38553822","1,7","341,9","23","79,4","0","2,29"],
    [40531,"2018-09-15T05:00:00","6","4","21,40355768","0,8","333,1","22,7","80,7","0","3,81"],
    [40532,"2018-09-15T06:00:00","20","11","14,34097219","2,3","300,6","22,7","81,3","0","1,52"],
    [40533,"2018-09-15T07:00:00","31","12","14,3213539","1,6","214,1","22,9","79,8","0","0,25"],
    [40534,"2018-09-15T08:00:00","30","25","14,53715512","1,5","284,5","23,4","77,6","37,2","0,51"],
    [40535,"2018-09-15T09:00:00","19","10","16,5578393","1,7","293,9","24,2","74,8","59,4","0"],
    [40536,"2018-09-15T10:00:00","33","16","24,13050041","1,5","13,7","25,2","70,3","106,8","0"],
    [40537,"2018-09-15T11:00:00","23","5","34,05735667","1,5","33","26,7","64,5","156,9","0"],
    [40538,"2018-09-15T12:00:00","24","10","38,60880065","1,6","342,7","27,4","61,2","146,8","0"],
    [40539,"2018-09-15T13:00:00","26","7","53,12633748","1,5","6,7","28,8","55,5","250,6","0"],
    [40540,"2018-09-15T14:00:00","31","10","46,0441337","2,8","325,5","28,3","56,3","119,1","0"],
    [40541,"2018-09-15T15:00:00","32","12","47,31932275","1,5","333,3","28,7","54,4","111,5","0"],
    [40542,"2018-09-15T16:00:00","40","14","44,31772392","2,5","283,4","28,8","54,3","105,7","0"],
    [40543,"2018-09-15T17:00:00","54","22","36,15651402","2,6","284,4","28,3","56","47,6","0"],
    [40544,"2018-09-15T18:00:00","63","19","25,8372919","2,3","285,3","27,9","56,8","8,3","0"],
    [40545,"2018-09-15T19:00:00","80","ND","17,55837225","1,2","308,6","27,6","58,9","0","0"],
    [40546,"2018-09-15T20:00:00","56","17","16,65593077","2,6","99,8","26,6","65,5","0","0"],
    [40547,"2018-09-15T21:00:00","37","20","16,04776368","2,1","333,3","24,9","71,8","0","2,03"],
    [40548,"2018-09-15T22:00:00","25","12","22,99263941","3,3","60,1","24","74,6","0","0,51"],
    [40549,"2018-09-15T23:00:00","29","19","13,61509535","1,1","164","24,3","75,3","0","0,25"],
    [40550,"2018-09-16T00:00:00","26","14","13,43853071","1,9","241,7","24,2","75,9","0","0,25"],
    [40551,"2018-09-16T01:00:00","26","8","15,89081734","2,4","241,5","24,1","75,8","0","0"],
    [40552,"2018-09-16T02:00:00","16","5","15,94967222","1,7","237","23,7","77,5","0","0"],
    [40553,"2018-09-16T03:00:00","10","3","16,12623686","2,9","183,8","23,6","77,5","0","0"],
    [40554,"2018-09-16T04:00:00","10","ND","20,75615401","3,5","195,6","23,3","76,5","0","0,25"],
    [40555,"2018-09-16T05:00:00","16","ND","20,65806254","3,2","181,9","23,2","75,9","0","0"],
    [40556,"2018-09-16T06:00:00","10","ND","17,51913566","2,6","171","22,9","77,9","0","0,51"],
    [40557,"2018-09-16T07:00:00","13","2","16,93058687","2,1","175,5","22,8","79,2","0","1,52"],
    [40558,"2018-09-16T08:00:00","18","12","17,98997469","2,9","160,3","22,9","78,9","22,2","2,29"],
    [40559,"2018-09-16T09:00:00","ND","7","23,07111258","3,4","170,9","23,3","78,3","75,2","1,78"],
    [40560,"2018-09-16T10:00:00","20","3","28,58385292","3,3","166","24,8","73,2","225","0"],
    [40561,"2018-09-16T11:00:00","20","11","41,2768885","1,7","182,4","27,4","61,5","284,7","0"],
    [40562,"2018-09-16T12:00:00","31","16","65,62319013","0,7","149,9","29,3","52,4","269,2","0"],
    [40563,"2018-09-16T13:00:00","19","ND","82,43606724","1","352,6","30,6","46,9","325,8","0"],
    [40564,"2018-09-16T14:00:00","30","14","72,4307378","1,9","286,4","30,8","45,7","201,1","0"],
    [40565,"2018-09-16T15:00:00","30","10","78,53202693","3,1","206","30,6","47,2","209,4","0"],
    [40566,"2018-09-16T16:00:00","29","11","81,37667942","2,1","229,6","32","41,3","301,7","0"],
    [40567,"2018-09-16T17:00:00","34","21","70,25310728","3,3","273,1","31,7","42,2","138","0"],
    [40568,"2018-09-16T18:00:00","59","20","45,33787515","4,1","268,3","30","49","22,1","0"],
    [40569,"2018-09-16T19:00:00","67","35","34,97941644","2,2","233,3","28,6","56","0","0"],
    [40570,"2018-09-16T20:00:00","78","41","23,97355406","2,4","217,5","27,9","59,8","0","0"],
    [40571,"2018-09-16T21:00:00","59","18","20,44226132","2","242,7","26,8","65,1","0","0"],
    [40572,"2018-09-16T22:00:00","65","20","16,77364053","1,9","301,9","26,2","67,3","0","0"],
    [40573,"2018-09-16T23:00:00","43","12","18,85317959","0,2","167,1","25,6","69,6","0","0"],
    [40574,"2018-09-17T00:00:00","46","19","16,22432832","1,1","180,1","25,5","70,1","0","0"],
    [40575,"2018-09-17T01:00:00","55","19","15,47883319","1,5","259,2","24,8","72,3","0","0"],
    [40576,"2018-09-17T02:00:00","56","12","10,26036725","0,9","305","23,8","76,8","0","0"],
    [40577,"2018-09-17T03:00:00","50","9","11,04509897","0,6","151,2","24,4","75,3","0","0"],
    [40578,"2018-09-17T04:00:00","65","12","10,71158799","2,3","257","23,5","76,5","0","0"],
    [40579,"2018-09-17T05:00:00","62","15","10,1034209","2,3","246,3","23,2","75,7","0","0"],
    [40580,"2018-09-17T06:00:00","65","21","9,809146507","1","244,4","23,1","75","0","0"],
    [40581,"2018-09-17T07:00:00","87","28","10,96662579","1,5","260,1","23,7","70,7","13,2","0"],
    [40582,"2018-09-17T08:00:00","74","28","12,75189046","2,7","258,5","24,8","67","76,2","0"],
    [40583,"2018-09-17T09:00:00","42","9","17,14638809","2,9","276","26,2","62,8","148,4","0"],
    [40584,"2018-09-17T10:00:00","38","8","31,82087127","0,8","247,7","28,9","54,5","292,1","0"],
    [40585,"2018-09-17T11:00:00","21","9","51,85114843","2","227,9","31,4","45,3","433,3","0"],
    [40586,"2018-09-17T12:00:00","33","17","68,93868165","2,9","273,2","32,7","39,7","459","0"],
    [40587,"2018-09-17T13:00:00","42","15","88,85124906","2","251,2","33,7","37,2","455,3","0"],
    [40588,"2018-09-17T14:00:00","36","12","95,87459796","2,2","259,4","34,9","35,3","421,6","0"],
    [40589,"2018-09-17T15:00:00","32","8","106,1742018","2,5","244,9","35,5","33,4","346,5","0"],
    [40590,"2018-09-17T16:00:00","43","13","91,67628325","4,4","244,3","35,7","32,5","231,5","0"],
    [40591,"2018-09-17T17:00:00","37","9","63,81830717","4,5","182,5","34,3","37,8","58,6","0"],
    [40592,"2018-09-17T18:00:00","40","11","36,70582623","4,8","127,9","32,8","40,4","22,3","0"],
    [40593,"2018-09-17T19:00:00","38","11","16,67554906","3,9","121,9","31,1","44,7","0","0"],
    [40594,"2018-09-17T20:00:00","35","8","16,87173199","2","126,8","30,4","46,9","0","0"],
    [40595,"2018-09-17T21:00:00","67","19","13,12463803","3,8","278,9","27,7","61,5","0","0"],
    [40596,"2018-09-17T22:00:00","48","10","13,12463803","1,7","235,2","27,1","63,2","0","0"],
    [40597,"2018-09-17T23:00:00","42","9","11,67288434","0,9","359,4","26,9","64","0","0"],
    [40598,"2018-09-18T00:00:00","34","12","12,24181484","1,9","316,7","26,7","64,9","0","0"],
    [40599,"2018-09-18T01:00:00","39","9","13,12463803","1,1","347,3","26,6","65,2","0","0"],
    [40600,"2018-09-18T02:00:00","46","17","11,77097581","2,3","316,3","26,2","67,9","0","0"],
    [40601,"2018-09-18T03:00:00","49","16","11,41784653","1,5","303,3","25,6","70,4","0","0"],
    [40602,"2018-09-18T04:00:00","53","15","11,75135751","2,1","305,2","25,3","70,7","0","0"],
    [40603,"2018-09-18T05:00:00","43","15","12,16334167","0,5","342,2","25,2","70,3","0","0"],
    [40604,"2018-09-18T06:00:00","75","25","11,37860995","1,6","329,3","25,2","70,5","0","0"],
    [40605,"2018-09-18T07:00:00","65","22","12,12410508","2","9,2","25,6","68,8","22,1","0"],
    [40606,"2018-09-18T08:00:00","60","15","15,04723074","2","354,9","27,2","62,7","120,2","0"],
    [40607,"2018-09-18T09:00:00","47","14","27,56370168","3,1","358,2","29,9","52,3","246,1","0"],
    [40608,"2018-09-18T10:00:00","39","17","43,88612147","2,4","347,2","31,3","48,3","277,9","0"],
    [40609,"2018-09-18T11:00:00","57","18","73,90210978","1,2","43,2","32,3","44,9","320,3","0"],
    [40610,"2018-09-18T12:00:00","40","11","74,09829271","3,6","261,5","34,2","39,2","468,6","0"],
    [40611,"2018-09-18T13:00:00","35","10","79,94454403","4","255","35,5","35,8","475,4","0"],
    [40612,"2018-09-18T14:00:00","43","ND","104,1535176","3","204,5","36,1","34,6","381,7","0"],
    [40613,"2018-09-18T15:00:00","42","15","116,8269349","2,8","202","36,5","33,4","280,2","0"],
    [40614,"2018-09-18T16:00:00","38","8","70,82203778","5","146,8","35,5","34,2","171,8","0"],
    [40615,"2018-09-18T17:00:00","31","3","46,18146175","6,5","125,2","33,2","39","51,2","0"],
    [40616,"2018-09-18T18:00:00","43","6","27,89721266","3,2","140,6","31,8","42,4","6,2","0"],
    [40617,"2018-09-18T19:00:00","67","8","42,43436779","5,4","13,3","29","48,9","0","0"],
    [40618,"2018-09-18T20:00:00","49","ND","33,44918959","5,9","314,8","27,3","53,6","0","0"],
    [40619,"2018-09-18T21:00:00","38","13","39,15811285","1","40,4","25,5","63,8","0","0"],
    [40620,"2018-09-18T22:00:00","59","21","26,15118459","2,3","183,8","25,8","62,1","0","0"],
    [40621,"2018-09-18T23:00:00","76","23","15,12570391","2,2","133,7","25,8","61,1","0","0"],
    [40622,"2018-09-19T00:00:00","54","15","18,87279788","4,7","316,8","24,3","70","0","0"],
    [40623,"2018-09-19T01:00:00","43","14","21,10928328","2,7","90,6","23,8","73,1","0","0"],
    [40624,"2018-09-19T02:00:00","28","ND","19,20630886","2,8","102,2","24,3","69,4","0","0"],
    [40625,"2018-09-19T03:00:00","40","10","17,87226493","3","102,4","24,9","66","0","0"],
    [40626,"2018-09-19T04:00:00","29","8","15,02761245","0,5","88,8","25,2","64,2","0","0"],
    [40627,"2018-09-19T05:00:00","66","ND","12,39876118","2,9","309","23,8","72,5","0","0"],
    [40628,"2018-09-19T06:00:00","94","ND","12,16334167","2,3","309","23,6","73,3","0","0"],
    [40629,"2018-09-19T07:00:00","58","ND","13,14425632","2,3","18,4","23,8","71,9","14,8","0"],
    [40630,"2018-09-19T08:00:00","49","8","17,14638809","2,6","46,1","24,5","67","52,9","0"],
    [40631,"2018-09-19T09:00:00","88","ND","25,24874311","0,7","197","26,9","57,6","124","0"],
    [40632,"2018-09-19T10:00:00","49","18","40,47253849","2,3","282,2","29,4","50,3","326,8","0"],
    [40633,"2018-09-19T11:00:00","45","7","60,77747175","3,2","284,2","31,7","44,2","436,9","0"],
    [40634,"2018-09-19T12:00:00","33","8","81,25896966","2,8","256,8","33,4","39,9","450,3","0"],
    [40635,"2018-09-19T13:00:00","47","11","91,34277227","4,3","261,9","34,2","37,9","442","0"],
    [40636,"2018-09-19T14:00:00","43","13","101,2696285","3,3","256,6","35,3","35,6","338,1","0"],
    [40637,"2018-09-19T15:00:00","30","11","84,00553068","3,1","245,7","35,3","35,2","250,2","0"],
    [40638,"2018-09-19T16:00:00","27","7","78,35546229","4,3","115","35,7","32,8","213,8","0"],
    [40639,"2018-09-19T17:00:00","26","6","48,22176423","7,7","107,1","33,5","36,2","74,1","0"],
    [40640,"2018-09-19T18:00:00","28","5","30,99690296","6,4","131,9","31,8","40,4","4,5","0"],
    [40641,"2018-09-19T19:00:00","30","5","18,99050764","3,4","149,6","30,6","43,8","0","0"],
    [40642,"2018-09-19T20:00:00","57","12","26,6612602","3,4","343,1","28,6","52,3","0","0"],
    [40643,"2018-09-19T21:00:00","34","9","43,70955683","3,4","16,5","26,5","56,4","0","0"],
    [40644,"2018-09-19T22:00:00","38","10","26,6808785","2,4","308,7","26,5","57,7","0","0"],
    [40645,"2018-09-19T23:00:00","28","6","31,27155906","1,9","350,8","25,8","61,1","0","0"],
    [40646,"2018-09-20T00:00:00","43","5","22,42370891","3,5","294,5","24,5","67,8","0","0"],
    [40647,"2018-09-20T01:00:00","48","20","19,32401862","0,9","143,3","24,1","70","0","0"],
    [40648,"2018-09-20T02:00:00","22","7","23,48309674","0,7","355,8","24,2","70,2","0","0"],
    [40649,"2018-09-20T03:00:00","35","6","20,14798692","2,4","289,5","23,6","72,4","0","0"],
    [40650,"2018-09-20T04:00:00","50","ND","18,16653933","1,7","7,1","23,4","73,6","0","0"],
    [40651,"2018-09-20T05:00:00","48","11","14,49791854","1","341,9","23,2","74,4","0","0"],
    [40652,"2018-09-20T06:00:00","112","30","12,16334167","2,5","252,2","22,6","76","0","0"],
    [40653,"2018-09-20T07:00:00","122","32","12,59494411","1","353,1","23,1","74,7","34,1","0"],
    [40654,"2018-09-20T08:00:00","86","28","17,79379176","1,7","358,4","25,8","64,4","127,4","0"],
    [40655,"2018-09-20T09:00:00","82","31","31,25194077","1,6","278,8","28,1","55,9","200,1","0"],
    [40656,"2018-09-20T10:00:00","68","28","51,75305697","1,4","283,7","30,6","48","344,2","0"],
    [40657,"2018-09-20T11:00:00","51","20","79,29714036","1,7","275,1","32,3","41,7","416,7","0"],
    [40658,"2018-09-20T12:00:00","53","16","98,58192239","2,2","253,5","33,9","37,8","451,7","0"],
    [40659,"2018-09-20T13:00:00","61","25","110,8433555","2,1","261,1","35,3","35,1","447,7","0"],
    [40660,"2018-09-20T14:00:00","52","ND","118,7887642","2,6","250,3","36","33,2","409,4","0"],
    [40661,"2018-09-20T15:00:00","54","ND","139,4272084","3,1","228","36,4","32,6","299,5","0"],
    [40662,"2018-09-20T16:00:00","56","15","94,16780646","3,5","259,1","36,3","33,2","200,2","0"],
    [40663,"2018-09-20T17:00:00","32","10","92,04903082","4,4","134,9","35,8","33,3","128,8","0"],
    [40664,"2018-09-20T18:00:00","33","6","56,26526436","5,4","117,8","33,5","37,4","27,1","0"],
    [40665,"2018-09-20T19:00:00","28","ND","29,01545537","4,9","127,2","31,3","41,7","0","0"],
    [40666,"2018-09-20T20:00:00","37","9","28,9173639","3,8","141,4","30,5","45,3","0","0"],
    [40667,"2018-09-20T21:00:00","57","17","18,73546983","3,8","289,9","28,5","54,9","0","0"],
    [40668,"2018-09-20T22:00:00","44","ND","18,95127105","3,5","284","27,6","59,2","0","0"],
    [40669,"2018-09-20T23:00:00","26","9","22,07057964","2,1","245,2","27,6","58,6","0","0"],
    [40670,"2018-09-21T00:00:00","40","9","15,69463441","1,8","358,4","27,1","62,1","0","0"],
    [40671,"2018-09-21T01:00:00","57","8","14,55677342","1,8","26,9","26,2","66,2","0","0"],
    [40672,"2018-09-21T02:00:00","48","5","15,14532221","2,6","38,4","25,8","67,6","0","0"],
    [40673,"2018-09-21T03:00:00","45","6","13,36005754","1,8","3,6","25,3","69,6","0","0"],
    [40674,"2018-09-21T04:00:00","52","8","13,34043925","2,5","43,8","24,7","71,3","0","0"],
    [40675,"2018-09-21T05:00:00","65","11","12,0848685","2,5","302,7","24,8","71","0","0"],
    [40676,"2018-09-21T06:00:00","92","ND","12,10448679","1,5","296,2","24,2","73,4","0","0"],
    [40677,"2018-09-21T07:00:00","106","33","13,06578315","2,9","310,9","24,2","71,9","27,9","0"],
    [40678,"2018-09-21T08:00:00","94","27","15,26303196","1,5","338,8","26,8","62","123,4","0"],
    [40679,"2018-09-21T09:00:00","70","18","23,73813455","1,4","333,3","29,5","53,3","237,7","0"],
    [40680,"2018-09-21T10:00:00","59","16","43,98421294","2,5","306,5","31,7","45,8","346,3","0"],
    [40681,"2018-09-21T11:00:00","57","15","66,44715844","2,4","310,2","33,2","41,4","422,6","0"],
    [40682,"2018-09-21T12:00:00","61","19","84,86873557","3","300,4","34,1","38,4","395,7","0"],
    [40683,"2018-09-21T13:00:00","50","18","111,7654153","1,4","295","35,3","35,5","408,4","0"],
    [40684,"2018-09-21T14:00:00","64","18","131,5014181","3,1","226,1","35,7","34,3","342,9","0"],
    [40685,"2018-09-21T15:00:00","68","16","136,6217925","1,7","279,1","35,6","31,7","146","0"],
    [40686,"2018-09-21T16:00:00","37","1","84,26056849","6","107,5","35,5","32,3","222","0"],
    [40687,"2018-09-21T17:00:00","38","3","58,59984123","8,4","108,9","33","38,3","86,3","0"],
    [40688,"2018-09-21T18:00:00","32","3","44,43543367","7,3","117,6","31,4","41,7","16,3","0"],
    [40689,"2018-09-21T19:00:00","64","12","23,69889796","2,7","173,2","30,8","44,3","0","0"],
    [40690,"2018-09-21T20:00:00","99","40","17,53875395","2,7","250,7","29,8","49","0","0"],
    [40691,"2018-09-21T21:00:00","48","14","15,08646733","3,2","264,3","28,2","56,7","0","0"],
    [40692,"2018-09-21T22:00:00","49","13","16,26356491","2,4","269,3","27,8","57,5","0","0"],
    [40693,"2018-09-21T23:00:00","48","11","15,12570391","2,8","33","27,4","60,6","0","0"],
    [40694,"2018-09-22T00:00:00","54","9","12,9088368","3,2","282,7","26,8","63,5","0","0"],
    [40695,"2018-09-22T01:00:00","37","12","18,42157714","1,6","201,4","26,4","61,8","0","0"],
    [40696,"2018-09-22T02:00:00","34","8","20,12836863","1,7","269,2","25,9","63,4","0","0"],
    [40697,"2018-09-22T03:00:00","26","7","20,48149791","1","329,9","25,8","63,6","0","0"],
    [40698,"2018-09-22T04:00:00","36","8","15,733871","1,1","348,2","25,6","66,2","0","0"],
    [40699,"2018-09-22T05:00:00","47","14","12,57532582","1,6","14,5","25,1","70,1","0","0"],
    [40700,"2018-09-22T06:00:00","83","25","12,55570753","1,9","310,4","24,5","72,3","0","0"],
    [40701,"2018-09-22T07:00:00","72","23","12,69303558","1,1","6","25,2","69,6","33,6","0"],
    [40702,"2018-09-22T08:00:00","59","15","22,7376016","2,5","23,4","28","57,9","146,6","0"],
    [40703,"2018-09-22T09:00:00","68","13","32,42903835","2,8","337,5","29,4","53,6","222,7","0"],
    [40704,"2018-09-22T10:00:00","53","16","51,32145452","1,5","331","31,6","46,3","345,3","0"],
    [40705,"2018-09-22T11:00:00","48","16","71,11631217","2,8","260,3","31,8","43,5","263,7","0"],
    [40706,"2018-09-22T12:00:00","45","13","91,12697105","3,1","258,7","33,1","39,6","385,9","0"],
    [40707,"2018-09-22T13:00:00","54","17","114,0019007","2,9","276,6","35,1","34,4","444,2","0"],
    [40708,"2018-09-22T14:00:00","42","14","112,4716738","3,8","274,9","36,6","30,1","415,2","0"],
    [40709,"2018-09-22T15:00:00","43","13","109,8428226","5,7","260,7","35,9","31,6","320","0"],
    [40710,"2018-09-22T16:00:00","47","17","103,0548932","4,5","241,3","35,6","33,2","154,2","0"],
    [40711,"2018-09-22T17:00:00","41","10","85,04530021","5","172,5","34,6","35,7","93,9","0"],
    [40712,"2018-09-22T18:00:00","43","14","69,93921459","5,1","140,9","33,3","38,2","23,2","0"],
    [40713,"2018-09-22T19:00:00","43","8","40,04093604","3,8","117,9","31,4","43,4","0","0"],
    [40714,"2018-09-22T20:00:00","69","20","20,97195523","2","239,9","30,2","48,4","0","0"],
    [40715,"2018-09-22T21:00:00","53","18","16,12623686","2,8","275,4","28,4","56,3","0","0"],
    [40716,"2018-09-22T22:00:00","41","8","16,30280149","3","289,1","27,6","59,9","0","0"],
    [40717,"2018-09-22T23:00:00","43","11","15,83196246","2,5","286,7","27","61,9","0","0"],
    [40718,"2018-09-23T00:00:00","57","13","14,24288073","1,9","4,9","26,6","64,2","0","0"],
    [40719,"2018-09-23T01:00:00","41","9","14,8902844","2,3","49,6","26,8","64,3","0","0"],
    [40720,"2018-09-23T02:00:00","51","11","14,06631609","1,4","329,7","26,5","65,4","0","0"],
    [40721,"2018-09-23T03:00:00","51","8","14,06631609","2,1","0,1","26,2","67","0","0,25"],
    [40722,"2018-09-23T04:00:00","39","7","13,06578315","1,8","348,8","25,5","70,9","0","0"],
    [40723,"2018-09-23T05:00:00","51","7","12,39876118","1,9","6,1","25,4","70,8","0","0"],
    [40724,"2018-09-23T06:00:00","47","9","12,55570753","1,1","28,3","25,5","69,2","0","0"],
    [40725,"2018-09-23T07:00:00","60","20","12,81074534","1,7","322,7","25,7","69,1","20,7","0"],
    [40726,"2018-09-23T08:00:00","53","11","15,38074172","2,1","324,1","26,3","65","108,8","0"],
    [40727,"2018-09-23T09:00:00","43","11","31,91896273","2,1","280,5","30,1","51,3","270,5","0"],
    [40728,"2018-09-23T10:00:00","57","18","50,10512036","3","277","32","45,6","390,5","0"],
    [40729,"2018-09-23T11:00:00","40","17","72,70539391","2,1","339,7","33","40,1","260,2","0"],
    [40730,"2018-09-23T12:00:00","26","14","85,98697828","2,5","266,8","34","35,6","331,8","0"],
    [40731,"2018-09-23T13:00:00","28","12","94,10895158","3","244,6","35,4","31,4","385,7","0"],
    [40732,"2018-09-23T14:00:00","38","10","93,81467719","2,8","278,8","36,2","31","388,4","0"],
    [40733,"2018-09-23T15:00:00","29","14","90,89155153","2","314,3","37,3","27,1","301,1","0"],
    [40734,"2018-09-23T16:00:00","37","11","94,24627964","2,2","199,2","36,3","30,8","199,9","0"],
    [40735,"2018-09-23T17:00:00","27","8","71,21440364","6,1","122,9","33,5","35,8","53,4","0"],
    [40736,"2018-09-23T18:00:00","19","6","44,3765788","6,1","138","31,7","39,8","12,9","0"],
    [40737,"2018-09-23T19:00:00","31","11","29,62362245","2,5","180,6","30,6","44,5","0","0"],
    [40738,"2018-09-23T20:00:00","43","13","21,67821378","3,4","244,5","29,1","51","0","0"],
    [40739,"2018-09-23T21:00:00","51","15","18,69623324","4","276,2","27,6","57,6","0","0"],
    [40740,"2018-09-23T22:00:00","38","14","17,49951737","2","247,6","27,2","58,5","0","0"],
    [40741,"2018-09-23T23:00:00","45","14","15,96929051","2","250","26,8","60,1","0","0"],
    [40742,"2018-09-24T00:00:00","45","8","15,20417709","2,3","284","25,8","64,1","0","0"],
    [40743,"2018-09-24T01:00:00","22","7","16,32241979","1,9","307,9","25,2","66,4","0","0"],
    [40744,"2018-09-24T02:00:00","25","10","16,59707589","1,9","332,8","25,4","66,1","0","0"],
    [40745,"2018-09-24T03:00:00","32","5","13,34043925","1,1","306,9","24,8","68,1","0","0"],
    [40746,"2018-09-24T04:00:00","28","3","14,85104781","1,5","2","24,9","67,8","0","0"],
    [40747,"2018-09-24T05:00:00","40","10","13,85051487","1,5","20,3","24,6","68,8","0","0"],
    [40748,"2018-09-24T06:00:00","57","18","12,96769168","1,6","6,1","24,9","67,4","0","0"],
    [40749,"2018-09-24T07:00:00","101","20","13,08540144","1,8","302,9","24,9","68,9","31,1","0"],
    [40750,"2018-09-24T08:00:00","127","31","16,77364053","2,9","286,2","26,8","62,4","133","0"],
    [40751,"2018-09-24T09:00:00","51","15","35,72491158","1,5","29,1","29,7","51,2","235,7","0"],
    [40752,"2018-09-24T10:00:00","47","12","51,16450818","1,4","340,6","31,3","46,3","334,6","0"],
    [40753,"2018-09-24T11:00:00","24","9","72,35226463","1,5","236,4","33,2","39,4","382,8","0"],
    [40754,"2018-09-24T12:00:00","27","10","84,08400385","2","235","34","36,7","402","0"],
    [40755,"2018-09-24T13:00:00","43","8","ND","3,2","263,8","35,1","33,4","390,1","0"],
    [40756,"2018-09-24T14:00:00","42","14","81,23935137","3,7","276,2","35,6","31,6","305,7","0"],
    [40757,"2018-09-24T15:00:00","40","11","87,16407586","4,2","270,9","36,4","29,6","372,4","0"],
    [40758,"2018-09-24T16:00:00","45","11","83,27965384","4,5","268,7","36,3","29,6","220","0"],
    [40759,"2018-09-24T17:00:00","51","11","82,04370138","2,7","237,3","36,4","29","126,2","0"],
    [40760,"2018-09-24T18:00:00","54","13","60,44396077","3,8","171,7","34","36,8","21,9","0"],
    [40761,"2018-09-24T19:00:00","57","14","35,45025547","4,6","110,5","31,8","41,3","0","0"],
    [40762,"2018-09-24T20:00:00","76","21","22,77683819","0,5","132,5","30,6","46,7","0","0"],
    [40763,"2018-09-24T21:00:00","74","17","14,59601","3,7","283,4","28,5","56,1","0","0"],
    [40764,"2018-09-24T22:00:00","73","17","12,96769168","2,9","290,6","27,6","59,9","0","0"],
    [40765,"2018-09-24T23:00:00","37","9","17,24447956","1,6","294,2","27,3","60,4","0","0"],
    [40766,"2018-09-25T00:00:00","57","10","14,55677342","3,1","34,5","27,5","61","0","0"],
    [40767,"2018-09-25T01:00:00","55","17","15,83196246","3","26,9","26,9","63,3","0","0"],
    [40768,"2018-09-25T02:00:00","34","11","16,40089296","1","10","26,3","65,2","0","0"],
    [40769,"2018-09-25T03:00:00","57","13","11,90830386","1,4","241,6","25,6","67,7","0","0"],
    [40770,"2018-09-25T04:00:00","54","17","11,90830386","2,3","325,3","25,5","66,9","0","0"],
    [40771,"2018-09-25T05:00:00","51","16","9,122506251","2,1","1,1","24,2","65,2","0","0"],
    [40772,"2018-09-25T06:00:00","71","26","8,043500135","2,3","24,2","24","63,9","0","0"],
    [40773,"2018-09-25T07:00:00","84","30","9,063651372","0,8","303,6","25,1","60,6","51,9","0"],
    [40774,"2018-09-25T08:00:00","79","20","15,57692465","2,7","338","28","53,1","131","0"],
    [40775,"2018-09-25T09:00:00","77","22","30,329881","3,3","26,7","28,8","50,9","176,6","0"],
    [40776,"2018-09-25T10:00:00","43","22","46,25993493","2,2","35,8","30,2","48,1","201","0"],
    [40777,"2018-09-25T11:00:00","65","24","59,48266442","2,3","283","31,3","44,3","267,8","0"],
    [40778,"2018-09-25T12:00:00","60","20","74,86340614","2","286,3","33,2","38,7","315,4","0"],
    [40779,"2018-09-25T13:00:00","42","16","79,66988793","1,3","291,7","35,1","31,6","407,7","0"],
    [40780,"2018-09-25T14:00:00","46","17","85,83003193","3,5","267","35,5","29,4","340,5","0"],
    [40781,"2018-09-25T15:00:00","38","11","75,68737444","3,9","253,2","35","29,6","200,7","0"],
    [40782,"2018-09-25T16:00:00","48","16","97,54215286","3,5","234,2","35","30,6","163,8","0"],
    [40783,"2018-09-25T17:00:00","96","39","82,59301359","4,2","256,8","34,1","34,3","85,8","0"],
    [40784,"2018-09-25T18:00:00","62","18","43,8076483","2,7","184,2","32,7","39,3","15","0"],
    [40785,"2018-09-25T19:00:00","46","10","33,90041033","4,6","115,2","31","41,4","0","0"],
    [40786,"2018-09-25T20:00:00","40","10","32,2917103","4,4","120,6","30,2","44,3","0","0"],
    [40787,"2018-09-25T21:00:00","76","14","13,79165999","3,7","288,3","27,9","54,9","0","0"],
    [40788,"2018-09-25T22:00:00","98","16","11,98677703","3,2","263,7","26,7","60,8","0","0"],
    [40789,"2018-09-25T23:00:00","61","14","16,10661856","3,5","236,5","26,4","61,9","0","0"],
    [40790,"2018-09-26T00:00:00","36","12","15,41997831","1,7","289,1","26,3","61,9","0","0"],
    [40791,"2018-09-26T01:00:00","31","8","14,65486488","1,3","359,4","25,7","64,9","0","0"],
    [40792,"2018-09-26T02:00:00","34","14","10,80967945","1,6","12,5","25,3","67,6","0","0"],
    [40793,"2018-09-26T03:00:00","39","10","13,63471364","1,2","53,1","25,3","66,8","0","0"],
    [40794,"2018-09-26T04:00:00","48","14","15,55730636","1,7","26,3","25,9","63,9","0","0"],
    [40795,"2018-09-26T05:00:00","91","21","9,926856265","2,4","298","24,6","68,9","0","0"],
    [40796,"2018-09-26T06:00:00","100","32","9,750291628","1,8","329,8","24,6","69,5","0","0"],
    [40797,"2018-09-26T07:00:00","103","33","10,35845871","1,4","11,9","25","68,2","27,5","0"],
    [40798,"2018-09-26T08:00:00","103","33","17,85264664","2","24,1","26,9","60,2","108,3","0"],
    [40799,"2018-09-26T09:00:00","ND","ND","22,22752598","2,6","320,4","28,4","54,6","120,8","0"],
    [40800,"2018-09-26T10:00:00","ND","ND","36,19575061","2,4","269,9","29,5","52","210,4","0"],
    [40801,"2018-09-26T11:00:00","85","24","60,87556322","3","283,5","31,6","46","346,9","0"],
    [40802,"2018-09-26T12:00:00","75","28","89,55750761","3,4","264,4","33,8","39","437,5","0"],
    [40803,"2018-09-26T13:00:00","59","20","105,8603091","4,8","254,2","34,2","37,1","370,6","0"],
    [40804,"2018-09-26T14:00:00","69","20","103,0745115","0,8","168,3","34,4","36","251","0"],
    [40805,"2018-09-26T15:00:00","42","6","50,37977646","7,5","105,8","31,6","42,2","157,3","0"],
    [40806,"2018-09-26T16:00:00","37","6","56,1671729","8","99,4","33,3","37","214,1","0"],
    [40807,"2018-09-26T17:00:00","41","6","55,10778507","7","107,9","32,8","37,3","87,7","0"],
    [40808,"2018-09-26T18:00:00","43","4","44,3569605","7,6","114,8","30,9","41,9","13,3","0"],
    [40809,"2018-09-26T19:00:00","33","3","27,40675534","6,6","133,6","30,1","44,4","0","0"],
    [40810,"2018-09-26T20:00:00","51","16","19,40249179","3,4","276","29,1","50,2","0","0"],
    [40811,"2018-09-26T21:00:00","58","16","17,6957003","2,4","257","27,6","58,8","0","0"],
    [40812,"2018-09-26T22:00:00","39","15","14,30173561","4,5","46,8","27,7","60,2","0","0"],
    [40813,"2018-09-26T23:00:00","38","8","15,61616124","3,1","4,3","27,4","62,4","0","0"],
    [40814,"2018-09-27T00:00:00","38","19","19,55943813","1,3","301,3","26,7","66,1","0","0"],
    [40815,"2018-09-27T01:00:00","37","17","29,19202","2,2","348,4","27","62,9","0","0"],
    [40816,"2018-09-27T02:00:00","20","7","29,38820293","2,1","4,2","26,5","64,1","0","0"],
    [40817,"2018-09-27T03:00:00","21","8","24,26782846","1,6","330","25,9","66,8","0","0"],
    [40818,"2018-09-27T04:00:00","22","9","23,46347844","1","300,1","25,5","68,4","0","0"],
    [40819,"2018-09-27T05:00:00","34","8","16,91096858","2,4","296,9","25,2","70,1","0","0"],
    [40820,"2018-09-27T06:00:00","42","15","12,75189046","1,5","287,1","24,7","71,8","0","0"],
    [40821,"2018-09-27T07:00:00","42","17","12,3595246","1,6","314,8","24,9","71,7","11,7","0"],
    [40822,"2018-09-27T08:00:00","74","21","14,51753683","1,9","249,7","25,6","69,4","56,6","0"],
    [40823,"2018-09-27T09:00:00","49","11","25,77843702","2,1","219,8","27,4","61,6","138,2","0"],
    [40824,"2018-09-27T10:00:00","37","9","35,50911035","2,8","260,1","29,4","54,5","204,7","0"],
    [40825,"2018-09-27T11:00:00","44","ND","52,77320821","2,3","232,9","30,3","51,3","227","0"],
    [40826,"2018-09-27T12:00:00","29","19","65,4270072","3,6","262,4","32,7","42,2","443,2","0"],
    [40827,"2018-09-27T13:00:00","32","13","72,46997439","4,4","237,1","32,8","41,9","364,2","0"],
    [40828,"2018-09-27T14:00:00","23","13","87,8899527","2,2","204,5","33,9","38,8","299,4","0"],
    [40829,"2018-09-27T15:00:00","21","16","78,45355376","3,4","126,2","33,2","38,6","217,9","0"],
    [40830,"2018-09-27T16:00:00","17","7","71,11631217","2,2","141,3","34,2","35,6","239,4","0"],
    [40831,"2018-09-27T17:00:00","41","6","56,38297412","6,3","114,5","32,8","38,7","140,3","4,06"],
    [40832,"2018-09-27T18:00:00","17","4","26,21003947","3,1","95,7","27,3","63,8","6,4","13,21"],
    [40833,"2018-09-27T19:00:00","25","11","18,08806616","1","107,3","28","58","0","0"],
    [40834,"2018-09-27T20:00:00","49","16","13,65433194","2,7","279,1","27,5","60,3","0","0"],
    [40835,"2018-09-27T21:00:00","41","10","12,47723436","0,9","280,8","26,6","62","0","0"],
    [40836,"2018-09-27T22:00:00","48","19","14,28211731","1,7","352,8","26,1","66,4","0","0"],
    [40837,"2018-09-27T23:00:00","44","21","14,16440756","2,2","31,6","25,7","67,6","0","0"],
    [40838,"2018-09-28T00:00:00","55","16","11,41784653","1,8","335,4","25,1","71","0","0"],
    [40839,"2018-09-28T01:00:00","30","13","13,63471364","2,1","18,2","24,9","71,8","0","0"],
    [40840,"2018-09-28T02:00:00","30","13","14,63524659","2","308,1","25","71,3","0","0"],
    [40841,"2018-09-28T03:00:00","24","12","11,515938","1,6","322,2","24,8","74,1","0","0"],
    [40842,"2018-09-28T04:00:00","27","11","10,79006116","1,8","323,1","24,6","74,6","0","0"],
    [40843,"2018-09-28T05:00:00","34","12","10,20151237","1,9","291,9","24,3","75,2","0","0"],
    [40844,"2018-09-28T06:00:00","79","30","10,69196969","2","201,9","24,1","74,8","0","0"],
    [40845,"2018-09-28T07:00:00","69","29","11,08433555","0,3","283,2","24,8","71,2","9,6","0"],
    [40846,"2018-09-28T08:00:00","96","38","13,4777673","2,7","284,5","25,5","69,8","67,9","0"],
    [40847,"2018-09-28T09:00:00","67","31","27,48522851","2,2","312,3","28,2","59,7","255,7","0"],
    [40848,"2018-09-28T10:00:00","55","28","47,51550568","1,1","0,9","29,9","53,6","290","0"],
    [40849,"2018-09-28T11:00:00","29","19","70,29234387","1,3","1,5","31,8","45,5","344","0"],
    [40850,"2018-09-28T12:00:00","33","14","85,6534673","2,4","260,3","33,3","39,8","422,1","0"],
    [40851,"2018-09-28T13:00:00","44","22","89,59674419","3,9","225,6","34,5","36,9","450,9","0"],
    [40852,"2018-09-28T14:00:00","42","23","102,17207","3,7","232,3","35","35","367,8","0"],
    [40853,"2018-09-28T15:00:00","38","14","103,1922212","4,4","164,2","34,5","36,5","237,9","0"],
    [40854,"2018-09-28T16:00:00","33","15","75,84432079","3,6","173,6","34,5","35,7","163,6","0"],
    [40855,"2018-09-28T17:00:00","26","2","54,53885458","6,5","122,7","33,9","36","162,1","0"],
    [40856,"2018-09-28T18:00:00","22","7","44,51390685","6,5","117,2","32,5","38,8","48,8","0"],
    [40857,"2018-09-28T19:00:00","30","11","34,07697496","5,6","114,9","30,8","43,5","0","0"],
    [40858,"2018-09-28T20:00:00","40","17","20,87386377","0,8","308,1","30,5","45,6","0","0"],
    [40859,"2018-09-28T21:00:00","52","18","30,09446148","2,2","83,5","29","52,1","0","0"],
    [40860,"2018-09-28T22:00:00","44","21","39,57009701","3,2","40,9","27,6","57,5","0","0"],
    [40861,"2018-09-28T23:00:00","41","20","31,33041394","2,8","337,6","27,3","58,4","0","0"],
    [40862,"2018-09-29T00:00:00","27","14","32,44865664","2,4","332,5","26,7","59,5","0","0"],
    [40863,"2018-09-29T01:00:00","32","14","30,95766637","1,6","346","26,3","60,2","0","0"],
    [40864,"2018-09-29T02:00:00","23","14","24,36591992","1,4","339,7","25,9","64,3","0","0"],
    [40865,"2018-09-29T03:00:00","33","16","21,26622963","1,2","326,8","25,9","64,4","0","0"],
    [40866,"2018-09-29T04:00:00","51","13","13,90936975","1,8","269,9","25,3","67,1","0","0"],
    [40867,"2018-09-29T05:00:00","36","12","14,43906366","1,7","5,5","25,3","68,1","0","0"],
    [40868,"2018-09-29T06:00:00","57","18","11,00586238","1,3","357,5","25,1","69,9","0","0"],
    [40869,"2018-09-29T07:00:00","69","27","11,98677703","2","283,7","25,5","68,8","13,3","0"],
    [40870,"2018-09-29T08:00:00","89","27","16,18509174","2,5","308,2","26,6","64,7","101,3","0"],
    [40871,"2018-09-29T09:00:00","56","24","38,90307505","2","8,7","29,9","51","244,2","0"],
    [40872,"2018-09-29T10:00:00","69","28","58,87449733","3","305,9","31,8","45,5","370","0"],
    [40873,"2018-09-29T11:00:00","60","24","88,4392649","1,9","356,2","33,8","39,6","443,4","0"],
    [40874,"2018-09-29T12:00:00","51","21","107,0374067","1,9","273,1","34,7","35,8","470,2","0"],
    [40875,"2018-09-29T13:00:00","40","16","116,434569","1,9","268,1","36,1","31,5","448,7","0"],
    [40876,"2018-09-29T14:00:00","42","20","136,9749218","1,8","263,2","36,8","30,1","399,5","0"],
    [40877,"2018-09-29T15:00:00","51","27","140,5846877","3,7","155,5","35,9","31,4","154,6","0"],
    [40878,"2018-09-29T16:00:00","46","3","72,41111951","9,5","104,8","35","32,4","236,6","0"],
    [40879,"2018-09-29T17:00:00","35","6","66,58448649","7,9","119,2","33,8","34,9","120,2","0"],
    [40880,"2018-09-29T18:00:00","23","9","50,06588377","6,9","134,1","31,9","37,5","16,2","0"],
    [40881,"2018-09-29T19:00:00","54","16","27,30866387","3,4","187,6","30,6","42,5","0","0"],
    [40882,"2018-09-29T20:00:00","151","83","25,93538336","3,9","261,3","29","49,5","0","0"],
    [40883,"2018-09-29T21:00:00","ND","ND","50,75252403","3,7","267,1","28","52,6","0","0"],
    [40884,"2018-09-29T22:00:00","ND","ND","28,60347121","1,3","266,5","27,7","55,6","0","0"],
    [40885,"2018-09-29T23:00:00","132","71","16,02814539","2,4","321,1","27,4","56,5","0","0"],
    [40886,"2018-09-30T00:00:00","77","22","19,26516374","3,1","273,8","26,9","58,7","0","0"],
    [40887,"2018-09-30T01:00:00","96","37","19,59867472","1,5","279,9","26,9","59,9","0","0"],
    [40888,"2018-09-30T02:00:00","135","74","24,46401139","2,1","268","26,5","62,4","0","0"],
    [40889,"2018-09-30T03:00:00","55","27","15,08646733","0,8","320,1","26,6","61,8","0","0"],
    [40890,"2018-09-30T04:00:00","43","15","12,20257825","1,4","8,3","26,6","60,7","0","0"],
    [40891,"2018-09-30T05:00:00","51","13","12,59494411","2,6","25,5","26,1","62,7","0","0"],
    [40892,"2018-09-30T06:00:00","54","21","11,55517458","2","325","25,3","66,6","0","0"],
    [40893,"2018-09-30T07:00:00","57","18","11,69250264","1,3","257,1","25,6","66,3","25,1","0"],
    [40894,"2018-09-30T08:00:00","66","24","17,06791492","2,3","307,5","27,2","60,8","105,2","0"],
    [40895,"2018-09-30T09:00:00","ND","ND","32,33094689","1,9","29,7","30,3","49,4","258,8","0"],
    [40896,"2018-09-30T10:00:00","36","14","50,85061549","2,5","250,4","31,7","44,2","277,4","0"],
    [40897,"2018-09-30T11:00:00","39","17","70,58661826","3","232,2","33,2","40,8","401,1","0"],
    [40898,"2018-09-30T12:00:00","45","23","84,98644533","4,8","237,5","34","38,2","396,5","0"],
    [40899,"2018-09-30T13:00:00","28","12","68,38936944","4,6","213,4","34,4","37,9","313,7","0"],
    [40900,"2018-09-30T14:00:00","23","9","53,83259603","5","224,8","34,9","35","291,2","0"],
    [40901,"2018-09-30T15:00:00","14","8","61,67991323","4,4","227,2","35,6","32,2","277,9","0"],
    [40902,"2018-09-30T16:00:00","11","7","69,40952068","2,4","185,8","36,5","29","223,2","0"],
    [40903,"2018-09-30T17:00:00","10","6","63,56326936","2,9","201,1","36,2","26,4","130,5","0"],
    [40904,"2018-09-30T18:00:00","20","6","46,59344591","3,9","203,1","34,6","27,4","21","0"],
    [40905,"2018-09-30T19:00:00","32","6","36,490025","3,9","125,2","32,4","31,1","0","0"],
    [40906,"2018-09-30T20:00:00","22","3","31,29117736","5,9","125,8","30,5","41,1","0","0"],
    [40907,"2018-09-30T21:00:00","51","16","18,16653933","3,2","272,9","28,7","48,6","0","0"],
    [40908,"2018-09-30T22:00:00","43","12","15,59654295","3","286,1","27,2","56,9","0","0"],
    [40909,"2018-09-30T23:00:00","28","11","16,2831832","3","284,9","26,8","59,8","0","0"],
    [40910,"2018-10-01T00:00:00","24","9","15,12570391","2","290,2","26,8","60,9","0","0"],
    [40911,"2018-10-01T01:00:00","37","10","15,63577953","3,3","21,9","27","58,9","0","0"],
    [40912,"2018-10-01T02:00:00","30","11","16,06738198","1,9","316,9","26,8","60,2","0","0"],
    [40913,"2018-10-01T03:00:00","20","8","21,71745037","2,9","244,3","26,4","63","0","0"],
    [40914,"2018-10-01T04:00:00","17","6","22,01172476","2,5","291,3","25,1","71,1","0","4,83"],
    [40915,"2018-10-01T05:00:00","22","5","14,0270795","2,9","276,7","24,3","77,5","0","1,02"],
    [40916,"2018-10-01T06:00:00","32","14","15,733871","3,1","275,2","23,3","76","0","1,52"],
    [40917,"2018-10-01T07:00:00","10","10","16,10661856","3,8","131,1","23,5","73,4","31,9","1,78"],
    [40918,"2018-10-01T08:00:00","33","14","21,73706866","1,5","167,5","25,8","63,8","122,8","0"],
    [40919,"2018-10-01T09:00:00","25","15","34,94017986","6,1","285,6","27,5","58,6","291,2","0"],
    [40920,"2018-10-01T10:00:00","17","9","46,39726298","3","274,6","29,8","51,1","361,1","0"],
    [40921,"2018-10-01T11:00:00","ND","6","61,66029494","1,4","263,5","31,9","42,1","422,3","0"],
    [40922,"2018-10-01T12:00:00","15","8","81,00393185","1,2","239,3","33,5","38,1","471,5","0"],
    [40923,"2018-10-01T13:00:00","27","16","81,18049649","2,6","259,4","34","36,2","462,6","0"],
    [40924,"2018-10-01T14:00:00","ND","19","96,38467357","2,5","274,8","35,1","34","393,1","0"],
    [40925,"2018-10-01T15:00:00","ND","20","99,75901997","2,4","210,8","35,1","35,3","194,6","0"],
    [40926,"2018-10-01T16:00:00","ND","9","61,66029494","5,2","119,6","34,5","36,4","178,3","0"],
    [40927,"2018-10-01T17:00:00","ND","6","42,82673365","7,5","124,6","33,8","37,6","118,3","0"],
    [40928,"2018-10-01T18:00:00","ND","3","29,05469195","6,6","104,9","31,6","44","19,9","0"],
    [40929,"2018-10-01T19:00:00","ND","6","17,46028078","3,3","132,2","30,6","46,6","0","0"],
    [40930,"2018-10-01T20:00:00","ND","10","16,20471003","3,4","218,1","29,3","51,8","0","0"],
    [40931,"2018-10-01T21:00:00","ND","10","14,77257464","3,2","282,9","27,5","59,1","0","0"],
    [40932,"2018-10-01T22:00:00","ND","16","14,08593438","2,6","246,6","27","60,7","0","0"],
    [40933,"2018-10-01T23:00:00","ND","8","14,14478926","2,1","276,9","26,9","60,2","0","0"],
    [40934,"2018-10-02T00:00:00","ND","12","13,4777673","2,9","311,2","26,6","62,7","0","0"],
    [40935,"2018-10-02T01:00:00","ND","10","13,26196608","2","312,7","26,1","65,6","0","0"],
    [40936,"2018-10-02T02:00:00","ND","8","14,77257464","2,1","266,5","25,9","66,3","0","0"],
    [40937,"2018-10-02T03:00:00","ND","5","17,51913566","2,2","266,3","26,3","64,2","0","0"],
    [40938,"2018-10-02T04:00:00","ND","4","18,22539421","0,4","193,7","26,3","64,3","0","0"],
    [40939,"2018-10-02T05:00:00","ND","8","13,69356852","1,3","317","26,6","63,7","0","0"],
    [40940,"2018-10-02T06:00:00","ND","15","12,55570753","1,2","269,3","26,2","65,4","0","0"],
    [40941,"2018-10-02T07:00:00","ND","20","12,6341807","1,6","332,8","26,4","65,7","11,1","0"],
    [40942,"2018-10-02T08:00:00","ND","37","15,93005393","0,3","273,6","27,7","60,9","87,3","0"],
    [40943,"2018-10-02T09:00:00","ND","19","26,36698581","1,6","16,1","30,1","52","222,6","0"],
    [40944,"2018-10-02T10:00:00","ND","10","45,86756906","1,8","28,5","32,1","45,1","315,3","0"],
    [40945,"2018-10-02T11:00:00","ND","9","61,52296689","2","317,6","33,9","40,1","466,6","0"],
    [40946,"2018-10-02T12:00:00","34","12","75,84432079","1,9","280,9","35,2","36,2","447,1","0"],
    [40947,"2018-10-02T13:00:00","38","14","76,76638056","3,6","252,1","35,9","34","385,7","0"],
    [40948,"2018-10-02T14:00:00","46","21","112,4520556","4","195,1","35,5","34,7","277,9","0"],
    [40949,"2018-10-02T15:00:00","36","9","68,76211701","5,6","194,7","35,6","34,6","242","0"],
    [40950,"2018-10-02T16:00:00","46","11","49,85008255","5","174,4","35,8","33","190,7","0"],
    [40951,"2018-10-02T17:00:00","28","6","42,94444341","8,8","127,8","34,3","35","119,5","0"],
    [40952,"2018-10-02T18:00:00","29","1","31,87972615","7,3","128","32,3","40","21,9","0"],
    [40953,"2018-10-02T19:00:00","32","3","24,36591992","6,2","142,8","31","44,2","0","0"],
    [40954,"2018-10-02T20:00:00","65","18","15,733871","1,3","222,9","30,3","48,8","0","0"],
    [40955,"2018-10-02T21:00:00","57","20","15,69463441","2,3","248,4","28,9","54,1","0","0"],
    [40956,"2018-10-02T22:00:00","51","12","16,10661856","2,8","294,8","28,3","56,3","0","0"],
    [40957,"2018-10-02T23:00:00","28","12","17,22486127","3,4","296,1","27,5","60,1","0","0"],
    [40958,"2018-10-03T00:00:00","25","9","17,87226493","1,9","294,6","26,9","62,9","0","0"],
    [40959,"2018-10-03T01:00:00","19","6","18,59814178","2","295,1","26,7","63,8","0","0"],
    [40960,"2018-10-03T02:00:00","23","5","17,73493688","2,1","286,5","26,3","65,8","0","0"],
    [40961,"2018-10-03T03:00:00","22","8","14,59601","0,6","242,1","25,7","68,5","0","0"],
    [40962,"2018-10-03T04:00:00","29","5","14,14478926","0,7","336,4","25,7","68,2","0","0"],
    [40963,"2018-10-03T05:00:00","38","7","12,02601362","2,3","10,1","25,5","69,6","0","0"],
    [40964,"2018-10-03T06:00:00","66","25","12,37914289","2,3","303,6","25,4","69,8","0","0"],
    [40965,"2018-10-03T07:00:00","54","16","13,2031112","1,9","12,5","25,6","68,8","12,4","0"],
    [40966,"2018-10-03T08:00:00","48","15","18,28424909","2,4","11,8","27,3","61,4","82,4","0"],
    [40967,"2018-10-03T09:00:00","35","10","32,5663664","1,8","357,1","30,2","51,3","257,2","0"],
    [40968,"2018-10-03T10:00:00","23","8","49,45771669","1,4","323,7","32,4","43,1","339,4","0"],
    [40969,"2018-10-03T11:00:00","34","9","62,03304251","3","297,6","33,7","39,2","419,6","0"],
    [40970,"2018-10-03T12:00:00","95","22","80,57232941","2,3","292,7","35,3","35,6","465,7","0"],
    [40971,"2018-10-03T13:00:00","42","13","79,84645256","2,7","177,2","34,6","36","249,4","0"],
    [40972,"2018-10-03T14:00:00","50","10","59,58075588","6,9","165,6","33,6","39,3","330,5","0"],
    [40973,"2018-10-03T15:00:00","59","8","53,10671919","8","117,9","33,5","37,5","135,1","0"],
    [40974,"2018-10-03T16:00:00","41","6","43,8076483","6,7","115,7","32,2","38,8","85,5","0"],
    [40975,"2018-10-03T17:00:00","27","5","41,35536167","4,7","136,1","32,3","38,8","78,5","0"],
    [40976,"2018-10-03T18:00:00","36","7","34,03773838","2,5","129,7","31,8","40,1","16,4","0"],
    [40977,"2018-10-03T19:00:00","35","6","26,21003947","5,4","91,1","30,1","45,8","0","0"],
    [40978,"2018-10-03T20:00:00","81","24","29,52553098","4,3","45,4","29","53,3","0","0"],
    [40979,"2018-10-03T21:00:00","89","33","22,24714428","1,7","32,1","28,6","54,2","0","0"],
    [40980,"2018-10-03T22:00:00","96","45","15,32188684","3,1","266,8","27,8","58,4","0","0"],
    [40981,"2018-10-03T23:00:00","39","11","14,55677342","2","264,8","27,3","60,5","0","0"],
    [40982,"2018-10-04T00:00:00","27","9","18,10768445","5","68,1","25,7","71","0","14,22"],
    [40983,"2018-10-04T01:00:00","14","6","19,24554545","2,1","46,8","24,5","79,5","0","5,08"],
    [40984,"2018-10-04T02:00:00","10","5","20,69729913","3,7","26,5","24,4","77,2","0","1,52"],
    [40985,"2018-10-04T03:00:00","8","6","24,79752237","4,5","25,9","23,8","77,2","0","1,02"],
    [40986,"2018-10-04T04:00:00","5","4","25,64110897","2,6","317,5","23,3","78,1","0","3,3"],
    [40987,"2018-10-04T05:00:00","16","11","19,73600277","3,6","299,3","23","80,2","0","7,11"],
    [40988,"2018-10-04T06:00:00","25","14","16,26356491","3,4","263,5","22,5","80,5","0","11,18"],
    [40989,"2018-10-04T07:00:00","19","9","15,81234417","3","223","22,6","80,8","0","2,03"],
    [40990,"2018-10-04T08:00:00","12","8","17,28371614","2,6","148,9","22,9","77,3","31,4","0,76"],
    [40991,"2018-10-04T09:00:00","14","8","27,09286265","1,7","60,7","24,9","69,6","126,8","0"],
    [40992,"2018-10-04T10:00:00","17","5","45,18092881","2","16,3","27,9","57,7","295,5","0"],
    [40993,"2018-10-04T11:00:00","17","7","61,52296689","2,3","338,2","30,2","49,2","437","0"],
    [40994,"2018-10-04T12:00:00","22","7","69,93921459","3,7","287,2","31,1","42,8","470,1","0"],
    [40995,"2018-10-04T13:00:00","30","10","75,98164884","3,3","269,3","32,4","38,1","458,1","0"],
    [40996,"2018-10-04T14:00:00","22","11","80,55271111","4,1","279,2","32,8","37,8","404,9","0"],
    [40997,"2018-10-04T15:00:00","29","16","109,9605323","3,4","259,6","33,2","38,6","319,1","0"],
    [40998,"2018-10-04T16:00:00","40","14","115,3751812","4","227,7","32,9","40,1","144,3","0"],
    [40999,"2018-10-04T17:00:00","27","9","59,69846564","4,2","161,5","31,9","42","53","0"],
    [41000,"2018-10-04T18:00:00","33","11","30,66339198","4,3","137,1","31,1","42,5","17,1","0"],
    [41001,"2018-10-04T19:00:00","36","13","16,47936613","2,5","117,9","30","46,6","0","0"],
    [41002,"2018-10-04T20:00:00","52","19","15,77310758","2,1","195,4","29,3","50,5","0","0"],
    [41003,"2018-10-04T21:00:00","51","11","14,45868195","3,1","268,1","27,2","60,2","0","0"],
    [41004,"2018-10-04T22:00:00","43","18","14,75295635","3","260,1","26,5","63,2","0","0"],
    [41005,"2018-10-04T23:00:00","30","10","15,24341367","2,6","293,8","26,3","64,6","0","0"],
    [41006,"2018-10-05T00:00:00","27","8","19,57905643","3,3","281,3","26,5","63,7","0","0"],
    [41007,"2018-10-05T01:00:00","23","4","22,07057964","1,7","281,2","26,1","65,5","0","0"],
    [41008,"2018-10-05T02:00:00","20","6","20,75615401","4,6","43,6","25,8","68,5","0","1,78"],
    [41009,"2018-10-05T03:00:00","11","5","21,14851987","3,9","49,9","24,8","73,9","0","1,02"],
    [41010,"2018-10-05T04:00:00","4","2","26,21003947","1,8","75,1","24,1","73,4","0","0,76"],
    [41011,"2018-10-05T05:00:00","17","7","19,24554545","3,2","291,9","23,8","76,9","0","1,02"],
    [41012,"2018-10-05T06:00:00","20","11","17,02867834","4,4","264,8","22,4","80,2","0","6,86"],
    [41013,"2018-10-05T07:00:00","22","11","17,6957003","4,4","239,2","21,6","80,3","16,9","7,87"],
    [41014,"2018-10-05T08:00:00","18","9","21,54088573","1,2","251,9","22,3","75,4","76,6","1,02"],
    [41015,"2018-10-05T09:00:00","10","8","34,2535396","1,9","22,5","25,2","61,7","177,5","0"],
    [41016,"2018-10-05T10:00:00","22","6","46,27955322","2,5","8,4","28,1","50,4","365,9","0"],
    [41017,"2018-10-05T11:00:00","17","6","52,59664357","3,2","358,5","29,2","50,1","414,7","0"],
    [41018,"2018-10-05T12:00:00","14","5","64,42647426","2,2","333,1","30,6","44,9","441,4","0"],
    [41019,"2018-10-05T13:00:00","16","5","71,82257072","1,2","310,7","31,8","41,3","460,5","0"],
    [41020,"2018-10-05T14:00:00","17","5","78,37508059","1,6","275,4","33,1","37,5","432,1","0"],
    [41021,"2018-10-05T15:00:00","30","9","91,00926129","3,1","233,5","32,9","37,8","243","0"],
    [41022,"2018-10-05T16:00:00","35","12","85,22186485","4,2","185,9","31,7","41","81,9","0"],
    [41023,"2018-10-05T17:00:00","43","11","34,62628717","4","184,9","30,9","42,4","43,4","0"],
    [41024,"2018-10-05T18:00:00","45","9","20,42264303","4,3","142,1","30,3","39,9","5,4","0"],
    [41025,"2018-10-05T19:00:00","61","18","14,47830024","1,2","166,3","29,7","38,1","0","0"],
    [41026,"2018-10-05T20:00:00","56","18","16,8521137","3,3","267,3","28,3","44,8","0","0"],
    [41027,"2018-10-05T21:00:00","45","17","16,53822101","3,7","253,2","27","52,1","0","0"],
    [41028,"2018-10-05T22:00:00","34","9","19,69676619","1,3","114,1","26,9","51","0","0"],
    [41029,"2018-10-05T23:00:00","36","8","20,28531498","3,5","43,7","26,4","59,3","0","0"],
    [41030,"2018-10-06T00:00:00","27","10","19,32401862","1,9","353,6","26,1","59","0","0"],
    [41031,"2018-10-06T01:00:00","17","6","22,26676257","1,7","339,9","25,4","57,5","0","0"],
    [41032,"2018-10-06T02:00:00","21","5","22,60027355","1,7","351,8","25,1","59,1","0","0"],
    [41033,"2018-10-06T03:00:00","16","6","21,03081011","1","333,4","25,2","59,8","0","0"],
    [41034,"2018-10-06T04:00:00","23","7","22,14905281","1,8","304,7","25,3","57,9","0","0"],
    [41035,"2018-10-06T05:00:00","46","13","13,7524234","2","268,9","24,6","64,1","0","0"],
    [41036,"2018-10-06T06:00:00","61","23","13,2031112","2,3","279,1","24,5","65,4","0","0"],
    [41037,"2018-10-06T07:00:00","76","15","15,30226855","3,3","249,8","24,4","60,9","21,7","0"],
    [41038,"2018-10-06T08:00:00","67","15","20,30493327","2,9","217,5","25,8","56,1","102,7","0"],
    [41039,"2018-10-06T09:00:00","37","12","34,09659326","3","232,4","28,7","44,9","258,3","0"],
    [41040,"2018-10-06T10:00:00","ND","11","45,18092881","3,4","250,9","29,6","40,8","357,8","0"],
    [41041,"2018-10-06T11:00:00","19","8","ND","2,9","267,7","31,5","36,6","450,2","0"],
    [41042,"2018-10-06T12:00:00","26","6","67,31036333","2","300,6","32,2","34,9","417,9","0"],
    [41043,"2018-10-06T13:00:00","27","11","68,99753653","3,5","282,5","32,9","32,9","340,8","0"],
    [41044,"2018-10-06T14:00:00","43","16","74,64760492","4","274,7","31,9","35,1","203","0"],
    [41045,"2018-10-06T15:00:00","48","16","79,15981231","4,3","246,4","32,2","35,5","203,5","0"],
    [41046,"2018-10-06T16:00:00","44","14","76,6486708","3,4","216,1","31,7","35,9","110,2","0"],
    [41047,"2018-10-06T17:00:00","21","7","69,52723044","2,9","186,7","32,3","33,8","107,1","0"],
    [41048,"2018-10-06T18:00:00","43","17","47,4566508","3,6","182,4","30,6","37,8","8,8","0"],
    [41049,"2018-10-06T19:00:00","41","13","30,09446148","3,1","197,8","29,7","41,2","0","0"],
    [41050,"2018-10-06T20:00:00","49","12","17,14638809","2","196,4","28,4","49","0","0"],
    [41051,"2018-10-06T21:00:00","56","18","10,06418432","0,9","136,3","27,9","51,3","0","0"],
    [41052,"2018-10-06T22:00:00","60","20","10,29960383","2,7","287,6","26,4","57,8","0","0"],
    [41053,"2018-10-06T23:00:00","62","22","10,98624409","3,1","263","25,5","61,6","0","0"],
    [41054,"2018-10-07T00:00:00","43","13","11,37860995","1,9","230,1","25,4","62,8","0","0"],
    [41055,"2018-10-07T01:00:00","45","12","11,53555629","1,8","257,4","24,9","65,3","0","0"],
    [41056,"2018-10-07T02:00:00","26","8","13,22272949","2,1","257,7","25","65,5","0","0"],
    [41057,"2018-10-07T03:00:00","37","6","12,32028801","1,2","247,9","24,8","67,1","0","0"],
    [41058,"2018-10-07T04:00:00","37","10","11,71212093","1,7","268","24,8","66,8","0","0"],
    [41059,"2018-10-07T05:00:00","38","9","10,82929774","1,7","227,2","24,5","68,2","0","0"],
    [41060,"2018-10-07T06:00:00","50","12","9,691436748","0,8","217,7","24,6","67,4","0","0"],
    [41061,"2018-10-07T07:00:00","60","13","10,51540506","1,9","311,5","24,9","67,2","40,3","0"],
    [41062,"2018-10-07T08:00:00","41","11","18,55890519","1,1","320,3","27,4","58","128,1","0"],
    [41063,"2018-10-07T09:00:00","50","20","27,56370168","2,9","307,3","28,2","55,2","167,6","0"],
    [41064,"2018-10-07T10:00:00","53","17","44,47467026","1,9","324,1","29,6","50,3","207,8","0"],
    [41065,"2018-10-07T11:00:00","49","16","76,04050372","1,6","29,6","32","42,1","447,1","0"],
    [41066,"2018-10-07T12:00:00","49","18","104,3300822","1,2","200,5","33,8","36,1","465,5","0"],
    [41067,"2018-10-07T13:00:00","48","22","113,8057178","2,4","262,6","34,4","35","456,6","0"],
    [41068,"2018-10-07T14:00:00","51","22","113,1975507","3,3","247,5","35,1","33,1","371,8","0"],
    [41069,"2018-10-07T15:00:00","52","23","129,0098949","3,2","184,1","34,5","35","223,6","0"],
    [41070,"2018-10-07T16:00:00","32","15","89,18476004","3,6","159,9","34","36","169,5","0"],
    [41071,"2018-10-07T17:00:00","30","11","54,73503751","4,5","186,5","34,5","34,8","146,7","0"],
    [41072,"2018-10-07T18:00:00","30","10","37,39246648","4,9","130,8","32,1","39,1","13,2","0"],
    [41073,"2018-10-07T19:00:00","28","6","19,40249179","4,4","135","30,9","42,5","0","0"],
    [41074,"2018-10-07T20:00:00","45","17","16,44012955","1","206,4","30,4","45,8","0","0"],
    [41075,"2018-10-07T21:00:00","40","16","13,32082096","3,4","268,7","28,8","53,9","0","0"],
    [41076,"2018-10-07T22:00:00","25","12","14,00746121","0,2","291","28,3","56,2","0","0"],
    [41077,"2018-10-07T23:00:00","45","11","12,67341729","4,1","49,2","28,6","55,9","0","0"],
    [41078,"2018-10-08T00:00:00","42","6","14,53715512","2,8","359,5","27,8","59,7","0","0"],
    [41079,"2018-10-08T01:00:00","18","3","34,07697496","3,4","352,3","26,7","62,2","0","0"],
    [41080,"2018-10-08T02:00:00","17","4","30,329881","4,6","19,6","24,3","74,5","0","10,67"],
    [41081,"2018-10-08T03:00:00","ND","2","36,25460549","3,2","6","23,5","75,4","0","2,03"],
    [41082,"2018-10-08T04:00:00","ND","2","29,19202","4,1","265","22,7","80,5","0","6,1"],
    [41083,"2018-10-08T05:00:00","17","8","21,9136333","3,3","262,3","22,3","81,9","0","7,62"],
    [41084,"2018-10-08T06:00:00","15","8","19,20630886","0,9","234,7","22,3","82","0","6,6"],
    [41085,"2018-10-08T07:00:00","13","5","15,02761245","3,4","129,7","22,4","81,4","0","2,29"],
    [41086,"2018-10-08T08:00:00","14","12","12,55570753","1,6","113,6","23,5","77,5","26,7","0"],
    [41087,"2018-10-08T09:00:00","40","21","16,69516735","4,2","295,6","24,9","73,5","127","0"],
    [41088,"2018-10-08T10:00:00","42","14","27,07324436","4,4","311,2","25,7","66,6","133,5","0"],
    [41089,"2018-10-08T11:00:00","31","10","36,41155183","3,9","305,8","26,7","62,6","196,4","0"],
    [41090,"2018-10-08T12:00:00","42","13","41,19841533","3,5","269,7","27","61,2","138","0"],
    [41091,"2018-10-08T13:00:00","38","16","54,30343506","2,4","237,7","27,5","59,1","155,9","0"],
    [41092,"2018-10-08T14:00:00","49","20","78,6301184","1,8","146,3","28,1","57","131,7","0"],
    [41093,"2018-10-08T15:00:00","54","25","97,38520652","1","209,5","29,7","50,6","233,1","0"],
    [41094,"2018-10-08T16:00:00","45","20","110,3921348","2,2","128,9","30,1","44,7","123,6","0"],
    [41095,"2018-10-08T17:00:00","58","20","97,95413701","1,7","147,5","30,5","45,5","85,9","0"],
    [41096,"2018-10-08T18:00:00","63","23","89,55750761","2,6","83,2","29,4","49,3","12,4","0"],
    [41097,"2018-10-08T19:00:00","67","27","39,06002139","2,2","193,7","27,7","58","0","0"],
    [41098,"2018-10-08T20:00:00","51","25","21,87439671","3,2","202,2","26,2","66,2","0","0"],
    [41099,"2018-10-08T21:00:00","64","27","15,34150514","2,5","239,6","25,7","68,5","0","0"],
    [41100,"2018-10-08T22:00:00","40","9","13,24234778","0,7","8,8","25,8","67,1","0","0"],
    [41101,"2018-10-08T23:00:00","41","17","14,8706661","2,4","20,3","25","71,7","0","0"],
    [41102,"2018-10-09T00:00:00","54","10","12,0652502","2,2","34,5","24,6","73,3","0","0"],
    [41103,"2018-10-09T01:00:00","42","10","11,47670141","1","95,4","24,6","74","0","0"],
    [41104,"2018-10-09T02:00:00","51","22","11,12357214","0,7","254,3","24,7","73,8","0","0"],
    [41105,"2018-10-09T03:00:00","57","26","10,27998554","0,5","201","24,6","74,2","0","0"],
    [41106,"2018-10-09T04:00:00","47","22","10,33884042","2","311,9","24,3","75,1","0","0"],
    [41107,"2018-10-09T05:00:00","54","17","10,80967945","2,2","301,6","24,3","75,7","0","0"],
    [41108,"2018-10-09T06:00:00","71","29","10,86853433","1","264,1","24,2","76,6","0","0,25"],
    [41109,"2018-10-09T07:00:00","78","25","11,00586238","1,2","163,8","24,3","75,9","5,6","0"],
    [41110,"2018-10-09T08:00:00","88","39","11,20204531","1","320,1","25,2","72,7","33,3","0"],
    [41111,"2018-10-09T09:00:00","66","21","12,98730997","3","299","26","67,8","89,1","0"],
    [41112,"2018-10-09T10:00:00","56","21","19,02974422","2,4","313,2","27,2","63,3","160,7","0"],
    [41113,"2018-10-09T11:00:00","49","16","40,45292019","2,1","20,6","29,5","54,1","273,6","0"],
    [41114,"2018-10-09T12:00:00","42","12","61,30716567","2,3","320,5","31,2","46,9","355,4","0"],
    [41115,"2018-10-09T13:00:00","37","16","82,14179285","2,3","318,5","32,7","41,1","440,6","0"],
    [41116,"2018-10-09T14:00:00","28","12","94,48169915","1,6","21,6","33,6","36,3","273,7","0"],
    [41117,"2018-10-09T15:00:00","42","17","84,26056849","2","320,3","33","38,3","152,4","0"],
    [41118,"2018-10-09T16:00:00","39","17","94,44246257","2,6","65,6","31,8","41,6","73,9","0"],
    [41119,"2018-10-09T17:00:00","27","3","55,55900581","3,2","145,3","31,3","42","69,7","0"],
    [41120,"2018-10-09T18:00:00","30","9","33,17453349","4,1","133,4","29,7","46,4","14,8","0"],
    [41121,"2018-10-09T19:00:00","27","9","22,4629455","4","127,4","28,8","48,4","0","0"],
    [41122,"2018-10-09T20:00:00","62","23","13,28158437","2,3","278,6","27,8","54,5","0","0"],
    [41123,"2018-10-09T21:00:00","38","5","18,95127105","2","213,1","27,3","55,7","0","0"],
    [41124,"2018-10-09T22:00:00","37","11","24,50324797","0,6","257,1","27","58,2","0","0"],
    [41125,"2018-10-09T23:00:00","30","8","24,24821016","2,5","297,4","26,7","57,2","0","0"],
    [41126,"2018-10-10T00:00:00","27","9","24,20897358","2,1","346,5","26,2","65,3","0","0"],
    [41127,"2018-10-10T01:00:00","26","8","26,93591631","2,8","342","25,4","71,5","0","0"],
    [41128,"2018-10-10T02:00:00","13","6","32,50751152","2,4","352,8","24,8","69,8","0","0"],
    [41129,"2018-10-10T03:00:00","11","3","32,25247371","2,5","335,4","24,3","70,6","0","0"],
    [41130,"2018-10-10T04:00:00","11","1","28,85850902","2,2","350","24,2","72,1","0","0"],
    [41131,"2018-10-10T05:00:00","21","4","22,10981623","2,4","12,1","24,1","73","0","0"],
    [41132,"2018-10-10T06:00:00","24","8","21,63897719","4,9","34,2","23,7","72,5","0","0"],
    [41133,"2018-10-10T07:00:00","21","6","22,99263941","3,7","12,6","23,4","68,7","14,6","0"],
    [41134,"2018-10-10T08:00:00","49","7","24,83675895","2,8","357,1","25,1","60,7","122,1","0"],
    [41135,"2018-10-10T09:00:00","53","7","33,21377007","2,9","358,7","27,6","51","252,8","0"],
    [41136,"2018-10-10T10:00:00","38","4","39,80551652","2,6","336,3","30","42,6","405","0"],
    [41137,"2018-10-10T11:00:00","17","1","53,3421387","2","7","31,6","37,4","412,2","0"],
    [41138,"2018-10-10T12:00:00","24","6","63,93601693","2","299,1","32,6","36","432,6","0"],
    [41139,"2018-10-10T13:00:00","33","5","80,0230172","3,3","277,8","33,3","34,8","456,7","0"],
    [41140,"2018-10-10T14:00:00","35","10","78,96362938","2,8","186,6","33,7","34","273,5","0"],
    [41141,"2018-10-10T15:00:00","20","8","53,02824601","6,3","135,4","31,5","38,9","103,7","0"],
    [41142,"2018-10-10T16:00:00","20","4","34,94017986","6,8","135,1","31,2","39,4","62,5","0"],
    [41143,"2018-10-10T17:00:00","31","4","25,22912481","7,7","145,2","30,3","42,4","56,4","0"],
    [41144,"2018-10-10T18:00:00","27","7","23,24767722","6,8","133,1","29,3","43,6","10,8","0"],
    [41145,"2018-10-10T19:00:00","37","10","18,08806616","4,7","146,7","28,8","44,5","0","0"],
    [41146,"2018-10-10T20:00:00","29","17","33,56689935","6,7","66,4","27,2","55,9","0","0"],
    [41147,"2018-10-10T21:00:00","29","12","25,18988823","4,8","60,9","25,6","67,2","0","0"],
    [41148,"2018-10-10T22:00:00","34","13","16,0085271","3","34,7","25,5","67","0","0"],
    [41149,"2018-10-10T23:00:00","22","8","17,24447956","2,2","16,2","25,1","67,8","0","0"],
    [41150,"2018-10-11T00:00:00","25","7","18,79432471","0,1","132,1","24,9","67,1","0","0"],
    [41151,"2018-10-11T01:00:00","26","8","20,91310035","3,5","257,3","24","72","0","0"],
    [41152,"2018-10-11T02:00:00","13","10","25,07217847","2,9","224,1","23,1","73,8","0","3,05"],
    [41153,"2018-10-11T03:00:00","12","5","24,26782846","1,5","112,5","22,4","75,9","0","2,79"],
    [41154,"2018-10-11T04:00:00","17","3","18,79432471","3,6","54,5","22,6","78,5","0","2,03"],
    [41155,"2018-10-11T05:00:00","6","3","15,41997831","3,2","32,7","22,8","78,2","0","0"],
    [41156,"2018-10-11T06:00:00","20","13","12,16334167","1,9","2,8","23,1","74,9","0","0"],
    [41157,"2018-10-11T07:00:00","44","18","11,45708312","2,4","292,8","23,3","75,8","11,7","0"],
    [41158,"2018-10-11T08:00:00","50","18","12,94807339","2,4","193","23,7","74,8","53,9","0"],
    [41159,"2018-10-11T09:00:00","38","15","19,95180399","2,6","195,7","24,9","67,7","143,7","0"],
    [41160,"2018-10-11T10:00:00","28","12","32,35056518","2,5","181,9","26,2","59,2","183,9","0"],
    [41161,"2018-10-11T11:00:00","31","13","43,37604585","2,1","229,1","28","52,5","254,8","0"],
    [41162,"2018-10-11T12:00:00","32","16","52,71435333","2,3","282,2","29,2","48,2","352,3","0"],
    [41163,"2018-10-11T13:00:00","28","6","59,77693881","2,5","320,9","30,9","40,4","359,3","0"],
    [41164,"2018-10-11T14:00:00","28","15","62,09189739","2,2","314,2","31,3","40","272,3","0"],
    [41165,"2018-10-11T15:00:00","27","10","65,17196939","2,2","307","31,2","39","206,3","0"],
    [41166,"2018-10-11T16:00:00","57","18","59,65922905","3","287,3","30,8","40,8","116,1","0"],
    [41167,"2018-10-11T17:00:00","56","24","49,9677923","2,9","278,9","30,3","44","51,5","0"],
    [41168,"2018-10-11T18:00:00","53","19","31,29117736","0,9","139,7","29,6","46,3","12,7","0"],
    [41169,"2018-10-11T19:00:00","44","18","16,0085271","3,4","132,3","28,5","49,8","0","0"],
    [41170,"2018-10-11T20:00:00","26","7","17,85264664","4,5","104,1","28","50,6","0","0"],
    [41171,"2018-10-11T21:00:00","55","22","12,69303558","2,7","262,5","27,3","56,8","0","0"],
    [41172,"2018-10-11T22:00:00","54","15","11,86906727","2","247,4","26","62,9","0","0"],
    [41173,"2018-10-11T23:00:00","42","13","11,2216636","2,1","262,4","25,2","65,5","0","0"],
    [41174,"2018-10-12T00:00:00","22","8","11,49631971","0,6","88,1","24,8","65,9","0","0"],
    [41175,"2018-10-12T01:00:00","54","19","10,86853433","2,3","68,1","25","67,9","0","0"],
    [41176,"2018-10-12T02:00:00","54","16","11,35899165","1,8","359,6","25,1","68,4","0","0"],
    [41177,"2018-10-12T03:00:00","61","16","11,33937336","2","320,2","24,5","73","0","1,78"],
    [41178,"2018-10-12T04:00:00","39","15","10,9470075","1,8","277,7","23,2","80,4","0","13,97"],
    [41179,"2018-10-12T05:00:00","72","51","11,71212093","1,2","301","22,9","81,5","0","2,54"],
    [41180,"2018-10-12T06:00:00","42","27","10,80967945","2,4","308,4","22,4","81,8","0","8,89"],
    [41181,"2018-10-12T07:00:00","ND","20","11,31975507","1,5","273,2","22,3","82,5","5,2","2,54"],
    [41182,"2018-10-12T08:00:00","40","25","11,75135751","2,5","261,7","22,9","81","23,3","0"],
    [41183,"2018-10-12T09:00:00","22","12","13,10501973","2,5","204,1","23,9","76,6","72,5","0"],
    [41184,"2018-10-12T10:00:00","45","18","21,01119182","1,9","214,1","26,4","65,7","196,4","0"],
    [41185,"2018-10-12T11:00:00","44","18","34,8224701","1,7","238,4","27,9","58,7","223,4","0"],
    [41186,"2018-10-12T12:00:00","33","14","53,04786431","1","282,6","29,9","50,4","355,4","0"],
    [41187,"2018-10-12T13:00:00","44","19","95,71765161","0,3","272","31,8","43,3","457,2","0"],
    [41188,"2018-10-12T14:00:00","ND","ND","77,00180008","4,5","191,5","32,6","38,1","419,8","0"],
    [41189,"2018-10-12T15:00:00","31","10","52,40046064","3,9","172,5","32,6","36,6","241,3","0"],
    [41190,"2018-10-12T16:00:00","27","10","43,92535806","3,8","197,2","32,8","35,8","195,1","0"],
    [41191,"2018-10-12T17:00:00","27","6","34,46934082","5,5","124","31,8","37,3","113,9","0"],
    [41192,"2018-10-12T18:00:00","40","8","21,0700467","5,5","122,4","29,6","43,2","13,8","0"],
    [41193,"2018-10-12T19:00:00","32","11","13,37967583","5,3","133,5","28,7","45,5","0","0"],
    [41194,"2018-10-12T20:00:00","36","6","13,7524234","1,5","163,8","27,7","51,2","0","0"],
    [41195,"2018-10-12T21:00:00","62","17","12,0848685","2,9","266,2","25,9","61,6","0","0"],
    [41196,"2018-10-12T22:00:00","38","7","13,59547706","1,7","51,2","26,1","58,9","0","0"],
    [41197,"2018-10-12T23:00:00","38","9","14,0270795","4,3","59,3","26,6","58,8","0","0"],
    [41198,"2018-10-13T00:00:00","28","6","15,28265026","3,3","25,9","24,8","68,6","0","0"],
    [41199,"2018-10-13T01:00:00","17","6","14,96875757","2","1,7","24,5","69,6","0","0"],
    [41200,"2018-10-13T02:00:00","18","6","16,0085271","1,4","359","24,8","67,3","0","0"],
    [41201,"2018-10-13T03:00:00","30","8","14,61562829","1,4","355,1","25,1","67","0","0"],
    [41202,"2018-10-13T04:00:00","31","7","13,65433194","1,7","29,2","24,9","68","0","0"],
    [41203,"2018-10-13T05:00:00","23","7","12,79112704","2,2","24","24,7","68,3","0","0"],
    [41204,"2018-10-13T06:00:00","47","14","12,00639532","1,6","349,2","24,3","68,8","0","0"],
    [41205,"2018-10-13T07:00:00","61","17","11,53555629","0,8","337,4","24,3","70,8","16,8","0"],
    [41206,"2018-10-13T08:00:00","67","17","14,38020878","1,3","358","25,2","66,2","68","0"],
    [41207,"2018-10-13T09:00:00","43","13","20,81500889","1,6","358,4","27","58,3","142,6","0"],
    [41208,"2018-10-13T10:00:00","38","10","29,11354683","2,6","7,7","28,6","52,3","254,3","0"],
    [41209,"2018-10-13T11:00:00","33","10","40,86490435","1,8","330,2","30,6","43,7","343,6","0"],
    [41210,"2018-10-13T12:00:00","28","12","51,51763745","1,7","300,3","31,9","38,1","373,9","0"],
    [41211,"2018-10-13T13:00:00","23","9","60,50281565","2,5","291,8","33,7","33","445,4","0"],
    [41212,"2018-10-13T14:00:00","37","10","69,88035971","3,3","285,1","34,2","30,6","374,6","0"],
    [41213,"2018-10-13T15:00:00","39","16","83,86820263","3,8","276,6","34,8","30,2","320,3","0"],
    [41214,"2018-10-13T16:00:00","38","15","65,81937306","3,4","173,8","33,5","31,8","62,5","0"],
    [41215,"2018-10-13T17:00:00","30","2","32,97835056","7,2","116,4","32,1","34,7","66,5","0"],
    [41216,"2018-10-13T18:00:00","35","6","22,87492965","5,8","130,2","30,8","37,7","7,7","0"],
    [41217,"2018-10-13T19:00:00","43","12","17,9703564","2,8","133,5","29,6","41,6","0","0"],
    [41218,"2018-10-13T20:00:00","61","20","14,8706661","4,2","250,7","26,7","51,3","0","0"],
    [41219,"2018-10-13T21:00:00","63","19","13,4777673","2,4","270,2","25,6","56,1","0","0"],
    [41220,"2018-10-13T22:00:00","57","18","13,61509535","2,7","262,2","25,2","56,3","0","0"],
    [41221,"2018-10-13T23:00:00","50","15","13,45814901","2,9","271,9","24,6","58,1","0","0"],
    [41222,"2018-10-14T00:00:00","45","12","14,00746121","2,5","269,9","23,8","61,8","0","0"],
    [41223,"2018-10-14T01:00:00","48","13","13,69356852","2","298,5","23,4","64,1","0","0"],
    [41224,"2018-10-14T02:00:00","41","11","12,9284551","1,5","349,1","23,4","65,4","0","0"],
    [41225,"2018-10-14T03:00:00","53","11","11,92792215","1,1","345,5","22,9","67,7","0","0"],
    [41226,"2018-10-14T04:00:00","49","14","11,59441117","0,3","346,6","22,7","68,3","0","0"],
    [41227,"2018-10-14T05:00:00","63","23","11,90830386","0,6","229,9","22,2","71,4","0","0"],
    [41228,"2018-10-14T06:00:00","67","18","12,00639532","1,6","289,9","21,5","72,8","0","0"],
    [41229,"2018-10-14T07:00:00","65","15","12,43799777","2,1","12,1","22,2","71,3","32","0"],
    [41230,"2018-10-14T08:00:00","55","22","17,55837225","1,5","20,7","24,8","59,9","140,1","0"],
    [41231,"2018-10-14T09:00:00","44","14","31,07537613","1,7","351,4","28,5","47,2","264,3","0"],
    [41232,"2018-10-14T10:00:00","44","14","49,6931362","1,9","44","30","42,5","362,2","0"],
    [41233,"2018-10-14T11:00:00","37","17","81,96522821","1,3","71,4","31,7","37,1","430,9","0"],
    [41234,"2018-10-14T12:00:00","45","17","105,1932871","1,4","251,7","33,1","33","456,7","0"],
    [41235,"2018-10-14T13:00:00","34","12","109,1561823","2,9","209,3","34,4","31,6","450,5","0"],
    [41236,"2018-10-14T14:00:00","44","20","104,6832115","3,8","213,4","35","31,1","403,4","0"],
    [41237,"2018-10-14T15:00:00","28","11","71,50867803","3,3","197,4","34,1","32,2","125,5","0"],
    [41238,"2018-10-14T16:00:00","22","8","52,14542283","3,6","162","34,2","31,7","214,9","0"],
    [41239,"2018-10-14T17:00:00","24","6","48,51603862","5,3","120,3","33,2","33,2","110","0"],
    [41240,"2018-10-14T18:00:00","26","8","39,45238725","5,6","123,1","31,5","36,9","15,9","0"],
    [41241,"2018-10-14T19:00:00","34","8","30,99690296","4,4","123,3","30","40,1","0","0"],
    [41242,"2018-10-14T20:00:00","63","18","14,0466978","3","259,4","28","50,7","0","0"],
    [41243,"2018-10-14T21:00:00","66","15","13,59547706","2,5","277,5","26,4","58,5","0","0"],
    [41244,"2018-10-14T22:00:00","48","13","14,3213539","2,7","302","25,5","62,6","0","0"],
    [41245,"2018-10-14T23:00:00","38","10","14,77257464","3","279,8","25,7","62,5","0","0"],
    [41246,"2018-10-15T00:00:00","38","8","15,83196246","2,7","277,9","25,2","64,1","0","0"],
    [41247,"2018-10-15T01:00:00","38","7","15,55730636","1,6","265,7","25,1","64,9","0","0"],
    [41248,"2018-10-15T02:00:00","33","4","16,30280149","1,5","309,4","25,3","64,7","0","0"],
    [41249,"2018-10-15T03:00:00","34","4","15,22379538","1,4","341,8","25,1","65,6","0","0"],
    [41250,"2018-10-15T04:00:00","49","7","13,57585877","1,6","341","25","66,4","0","0"],
    [41251,"2018-10-15T05:00:00","47","10","13,00692827","1,4","16,3","24,6","68,2","0","0"],
    [41252,"2018-10-15T06:00:00","57","21","12,69303558","1,4","16,4","24,9","66,8","0","0"],
    [41253,"2018-10-15T07:00:00","64","17","12,79112704","1,7","296,7","24,3","70,1","15,3","0"],
    [41254,"2018-10-15T08:00:00","61","18","15,85158075","1,4","249,9","25,3","66,8","54,3","0"],
    [41255,"2018-10-15T09:00:00","53","16","26,89667972","2","34,3","27,9","56,3","213","0"],
    [41256,"2018-10-15T10:00:00","42","15","44,72970807","1,3","347,1","31","45,5","358,6","0"],
    [41257,"2018-10-15T11:00:00","36","11","65,78013647","1,5","315,3","32","41,8","411","0"],
    [41258,"2018-10-15T12:00:00","39","16","80,98431356","3,1","262,7","32,8","39","445,7","0"],
    [41259,"2018-10-15T13:00:00","34","12","82,08293797","3,4","255,8","33,9","36,3","414,8","0"],
    [41260,"2018-10-15T14:00:00","ND","ND","90,61689543","3,6","247","34,5","35,6","315,5","0"],
    [41261,"2018-10-15T15:00:00","43","10","77,17836471","4,9","198,1","34","36,7","156,9","0"],
    [41262,"2018-10-15T16:00:00","32","13","67,70272919","4","178,3","34,4","34,7","219,3","0"],
    [41263,"2018-10-15T17:00:00","32","11","52,38084235","7,5","114,1","33","36,9","119","0"],
    [41264,"2018-10-15T18:00:00","20","7","34,31239448","6,3","121,7","31,2","40,6","14,5","0"],
    [41265,"2018-10-15T19:00:00","29","9","21,52126744","4,7","138,6","30,2","43,2","0","0"],
    [41266,"2018-10-15T20:00:00","41","15","19,20630886","1,1","226,8","29,4","47,7","0","0"],
    [41267,"2018-10-15T21:00:00","35","10","16,22432832","3,8","272,4","27,9","54,6","0","0"],
    [41268,"2018-10-15T22:00:00","57","36","16,22432832","3","270,4","27,6","56,1","0","0"],
    [41269,"2018-10-15T23:00:00","34","8","15,733871","1,5","278,1","27,9","54,7","0","0"],
    [41270,"2018-10-16T00:00:00","24","5","18,20577592","4","279,8","26,8","59,4","0","0"],
    [41271,"2018-10-16T01:00:00","29","4","17,77417347","2,6","272,5","26,3","62","0","0"],
    [41272,"2018-10-16T02:00:00","32","4","18,28424909","2,3","270,1","26,2","62,9","0","0"],
    [41273,"2018-10-16T03:00:00","22","7","18,69623324","0,8","175,2","26,2","62,5","0","0"],
    [41274,"2018-10-16T04:00:00","30","7","16,71478565","1,6","234,7","26,2","63,1","0","0"],
    [41275,"2018-10-16T05:00:00","43","14","13,81127828","1","303,1","25,9","65,1","0","0"],
    [41276,"2018-10-16T06:00:00","71","29","13,02654656","1,3","270,1","26","65","0","0"],
    [41277,"2018-10-16T07:00:00","101","32","12,75189046","2,3","240,5","26,2","65,3","22,6","0"],
    [41278,"2018-10-16T08:00:00","72","19","14,94913928","3,1","272,9","27,1","61,7","57","0"],
    [41279,"2018-10-16T09:00:00","51","10","24,1501187","2,3","294,2","29,2","53,2","224,6","0"],
    [41280,"2018-10-16T10:00:00","43","17","37,80445064","2,7","307,2","31,9","44,3","381,2","0"],
    [41281,"2018-10-16T11:00:00","26","5","42,51284096","3,4","279,9","32,8","41,3","426,9","0"],
    [41282,"2018-10-16T12:00:00","23","5","46,00489712","2,9","163,4","32,5","41,4","331,9","0"],
    [41283,"2018-10-16T13:00:00","30","8","66,21173892","2,8","150,5","33,6","37,3","341,6","0"],
    [41284,"2018-10-16T14:00:00","34","7","50,87023378","4,2","184,5","34,2","35,1","323","0"],
    [41285,"2018-10-16T15:00:00","24","5","47,75092519","5,3","188,2","34,4","33,8","280,8","0"],
    [41286,"2018-10-16T16:00:00","31","9","41,90467388","5,2","194,8","33,4","34,5","158,6","0"],
    [41287,"2018-10-16T17:00:00","24","10","42,74826048","6,9","133","32","35,5","99,3","0"],
    [41288,"2018-10-16T18:00:00","28","8","30,54568222","5,2","134,2","30,4","37","13,5","0"],
    [41289,"2018-10-16T19:00:00","75","23","21,22699304","3","199,9","29,6","39,5","0","0"],
    [41290,"2018-10-16T20:00:00","57","20","16,83249541","2,6","286,7","28,6","43,9","0","0"],
    [41291,"2018-10-16T21:00:00","39","16","17,77417347","2,7","270,6","28","48,1","0","0"],
    [41292,"2018-10-16T22:00:00","66","16","15,96929051","2,1","357","27,6","54,5","0","0"],
    [41293,"2018-10-16T23:00:00","50","12","16,32241979","2,8","260,9","27,1","54","0","0"],
    [41294,"2018-10-17T00:00:00","67","28","19,85371253","1,7","209","26,9","55,2","0","0"],
    [41295,"2018-10-17T01:00:00","35","4","18,06844787","2","39","26,7","58,7","0","0"],
    [41296,"2018-10-17T02:00:00","32","7","18,2450125","2,9","277,6","26,4","60,1","0","0"],
    [41297,"2018-10-17T03:00:00","32","6","15,10608562","3,3","277,5","25,4","64,3","0","0"],
    [41298,"2018-10-17T04:00:00","37","8","18,16653933","2,5","288,2","25,1","64,2","0","0"],
    [41299,"2018-10-17T05:00:00","21","7","17,85264664","2,3","96,3","25,7","60,1","0","0"],
    [41300,"2018-10-17T06:00:00","58","22","13,04616485","2","12,9","25,5","64,9","0","0"],
    [41301,"2018-10-17T07:00:00","62","17","12,49685265","1,2","5","25,2","69,9","18,1","0"],
    [41302,"2018-10-17T08:00:00","57","22","17,98997469","1,3","347,8","27,6","59","105,3","0"],
    [41303,"2018-10-17T09:00:00","70","18","29,58438586","1","309,6","28,9","53,9","188,8","0"],
    [41304,"2018-10-17T10:00:00","47","18","45,39673003","3,3","262,4","31","44,7","345,7","0"],
    [41305,"2018-10-17T11:00:00","47","14","58,85487904","3,2","265,2","32,3","40,9","361,8","0"],
    [41306,"2018-10-17T12:00:00","44","12","78,02195131","3,2","264","33,8","36,6","451,8","0"],
    [41307,"2018-10-17T13:00:00","32","11","ND","3,7","184,6","33,4","36,1","258,4","0"],
    [41308,"2018-10-17T14:00:00","30","9","45,84795077","3,9","213,8","34,7","33,2","330,6","0"],
    [41309,"2018-10-17T15:00:00","28","10","39,49162384","4,5","211","33,7","35,5","108,7","0"],
    [41310,"2018-10-17T16:00:00","44","11","43,16024463","3,2","204,2","34,4","34,3","205,5","0"],
    [41311,"2018-10-17T17:00:00","43","7","34,27315789","4,2","167","33,2","36,1","58,1","0"],
    [41312,"2018-10-17T18:00:00","47","14","20,61882596","3,8","144","31,5","39,6","4,2","0"],
    [41313,"2018-10-17T19:00:00","36","9","15,36112343","4,7","112,4","30,1","43,6","0","0"],
    [41314,"2018-10-17T20:00:00","55","14","9,142124544","2,1","237,4","29,4","48,4","0","0"],
    [41315,"2018-10-17T21:00:00","43","13","9,220597716","2","288,4","28,9","50,6","0","0"],
    [41316,"2018-10-17T22:00:00","53","18","14,3213539","3,2","41,7","27,8","57,8","0","0"],
    [41317,"2018-10-17T23:00:00","55","25","9,554108697","2,2","326,1","27","63,4","0","0"],
    [41318,"2018-10-18T00:00:00","49","21","8,259301359","2,7","307,8","26,4","66,9","0","0"],
    [41319,"2018-10-18T01:00:00","28","9","11,515938","2,1","301,4","26,2","64,1","0","0"],
    [41320,"2018-10-18T02:00:00","18","6","14,96875757","2,3","295,3","26,3","62,1","0","0"],
    [41321,"2018-10-18T03:00:00","26","6","15,7142527","2,2","288,1","26,1","62,5","0","0"],
    [41322,"2018-10-18T04:00:00","32","7","12,9284551","1,8","277,6","25,9","63,9","0","0"],
    [41323,"2018-10-18T05:00:00","54","14","8,102355014","2,4","265,1","25,6","66,3","0","0"],
    [41324,"2018-10-18T06:00:00","65","19","6,611364745","2","292,9","25,6","66,9","0","0"],
    [41325,"2018-10-18T07:00:00","ND","ND","7,121440364","2,2","294,7","ND","78,9","10,5","0"],
    [41326,"2018-10-18T08:00:00","ND","ND","10,79006116","1,8","353,5","ND","88,5","0","0"],
    [41327,"2018-10-18T09:00:00","ND","20","16,40089296","1,3","318,2","ND","88,5","0","0"],
    [41328,"2018-10-18T10:00:00","41","15","28,17186877","2,3","13,2","ND","88,4","0","0"],
    [41329,"2018-10-18T11:00:00","53","19","35,19521767","2,5","351,8","ND","88,5","0","0"],
    [41330,"2018-10-18T12:00:00","49","23","48,26100081","2,6","315,1","ND","88,4","0","0"],
    [41331,"2018-10-18T13:00:00","54","28","81,76904528","1,5","222,9","ND","88,3","0","0"],
    [41332,"2018-10-18T14:00:00","68","33","81,7101904","3,4","288,1","ND","88,5","0","0"],
    [41333,"2018-10-18T15:00:00","66","28","69,52723044","3,6","240,1","ND","73,4","0","0"],
    [41334,"2018-10-18T16:00:00","36","8","28,26996023","3,9","143,3","32,9","37,4","95,3","0"],
    [41335,"2018-10-18T17:00:00","27","9","30,72224686","4,7","107,3","32,6","36,7","138,8","0"],
    [41336,"2018-10-18T18:00:00","39","7","24,1501187","6,4","85,9","30,7","39,8","23,4","0"],
    [41337,"2018-10-18T19:00:00","29","5","17,28371614","6","91,6","29,5","43,2","0","0"],
    [41338,"2018-10-18T20:00:00","34","7","14,30173561","3,6","93,4","29","46,4","0","0"],
    [41339,"2018-10-18T21:00:00","42","18","9,514872111","4,1","268,3","27,9","52,5","0","0"],
    [41340,"2018-10-18T22:00:00","27","9","16,95020516","2,3","289,4","26,4","62,4","0","1,27"],
    [41341,"2018-10-18T23:00:00","28","14","12,33990631","2,7","256","25,3","73","0","1,78"],
    [41342,"2018-10-19T00:00:00","20","11","11,73173922","1,4","287,9","24,5","77,1","0","2,03"],
    [41343,"2018-10-19T01:00:00","27","10","12,32028801","2,1","288","24,4","77,4","0","0"],
    [41344,"2018-10-19T02:00:00","19","10","15,59654295","1,4","328,8","24,4","75,3","0","0"],
    [41345,"2018-10-19T03:00:00","16","5","15,22379538","0,3","33,7","24,8","73","0","0"],
    [41346,"2018-10-19T04:00:00","26","9","9,985711144","1,2","324,4","24,8","75,1","0","0"],
    [41347,"2018-10-19T05:00:00","39","13","6,532891573","1,9","255,8","24,5","77,1","0","0"],
    [41348,"2018-10-19T06:00:00","48","21","5,826633025","1,7","320","24,6","76,5","0","0"],
    [41349,"2018-10-19T07:00:00","50","16","6,689837917","1,7","337,5","24,9","74","23,5","0"],
    [41350,"2018-10-19T08:00:00","52","18","9,652200162","0,9","319,9","27,2","64,6","152,3","0"],
    [41351,"2018-10-19T09:00:00","47","26","20,26569668","2,3","240,4","28,8","57,3","252,8","0"],
    [41352,"2018-10-19T10:00:00","44","24","32,68407616","3,4","231,3","29,2","55,6","303","0"],
    [41353,"2018-10-19T11:00:00","33","11","51,49801916","2,2","224,2","30,9","48,8","374,1","0"],
    [41354,"2018-10-19T12:00:00","44","16","65,93708282","2,9","240,5","32","44,5","438,4","0"],
    [41355,"2018-10-19T13:00:00","45","19","71,84218901","4,2","232,5","32,6","41,4","384,1","0"],
    [41356,"2018-10-19T14:00:00","49","18","65,91746452","4,5","236,3","32,9","39,5","272,6","0"],
    [41357,"2018-10-19T15:00:00","38","12","82,10255626","3","244,4","33,7","37,7","301,1","0"],
    [41358,"2018-10-19T16:00:00","43","11","88,63544783","1","141,3","33,8","37,7","200,2","0"],
    [41359,"2018-10-19T17:00:00","27","7","58,36442171","6,2","70,3","32,7","39,3","103,5","0"],
    [41360,"2018-10-19T18:00:00","33","6","31,1734676","6","80","31","43,1","25,9","0"],
    [41361,"2018-10-19T19:00:00","37","9","17,00906004","5","82,5","29,9","46,1","0","0"],
    [41362,"2018-10-19T20:00:00","33","12","15,83196246","2,2","111","29,4","48,9","0","0"],
    [41363,"2018-10-19T21:00:00","63","15","8,533957461","2,8","234,3","28,2","55,1","0","0"],
    [41364,"2018-10-19T22:00:00","58","17","6,886020848","2,3","238,6","27,7","57,7","0","0"],
    [41365,"2018-10-19T23:00:00","42","10","5,944342783","1,9","254,2","26,9","62","0","0"],
    [41366,"2018-10-20T00:00:00","38","9","8,004263549","2,6","278,7","26,9","61,9","0","0"],
    [41367,"2018-10-20T01:00:00","30","14","15,40036002","3,7","349,7","26,6","65,1","0","0"],
    [41368,"2018-10-20T02:00:00","18","8","31,87972615","3,7","348,1","26","66,6","0","0"],
    [41369,"2018-10-20T03:00:00","24","6","28,17186877","3,9","352,6","24,6","74,8","0","15,75"],
    [41370,"2018-10-20T04:00:00","20","8","22,34523574","0,7","9,6","23,7","80,8","0","10,67"],
    [41371,"2018-10-20T05:00:00","17","8","13,81127828","2","257,6","23,6","80,9","0","2,79"],
    [41372,"2018-10-20T06:00:00","16","10","14,69410147","1,7","304,9","22,8","80,6","0","1,27"],
    [41373,"2018-10-20T07:00:00","23","16","11,86906727","2,7","36,9","23,9","78,9","7,4","0"],
    [41374,"2018-10-20T08:00:00","25","15","9,809146507","2,8","333,9","25","76","57,4","0"],
    [41375,"2018-10-20T09:00:00","47","23","13,22272949","3,1","254,8","26,5","71,1","217","0"],
    [41376,"2018-10-20T10:00:00","27","11","35,07750791","1,2","153,8","29,9","54,3","398,5","0"],
    [41377,"2018-10-20T11:00:00","24","11","58,08976561","2,1","167,3","31,5","46,3","471,7","0"],
    [41378,"2018-10-20T12:00:00","40","15","72,88195854","2,5","252,4","32,4","43,4","384,5","0"],
    [41379,"2018-10-20T13:00:00","36","17","84,12324044","3","266,5","33,6","39,7","459,3","0"],
    [41380,"2018-10-20T14:00:00","33","ND","71,54791462","2,1","146,1","28,3","59,3","24,9","35,56"],
    [41381,"2018-10-20T15:00:00","17","8","23,36538698","4,4","89,8","25","76,2","29,2","19,56"],
    [41382,"2018-10-20T16:00:00","29","18","11,69250264","2,4","258,2","26,4","72,2","56,5","0,25"],
    [41383,"2018-10-20T17:00:00","46","20","8,730140391","1,7","280,7","26,5","69,5","16,2","0"],
    [41384,"2018-10-20T18:00:00","41","16","10,02494773","3,1","72","26,7","67","4,2","0"],
    [41385,"2018-10-20T19:00:00","50","19","6,474036694","1,4","243","26,7","66,1","0","0"],
    [41386,"2018-10-20T20:00:00","69","26","5,963961076","1,3","264,1","25,8","68,5","0","0"],
    [41387,"2018-10-20T21:00:00","49","16","6,70945621","1,4","71,9","25,8","68","0","0"],
    [41388,"2018-10-20T22:00:00","82","27","6,140525713","2,8","249,1","25,4","69,7","0","0"],
    [41389,"2018-10-20T23:00:00","56","15","5,453885458","0,9","240,4","24,8","69,6","0","0"],
    [41390,"2018-10-21T00:00:00","70","17","5,865869611","1,9","273,8","24,7","71,1","0","0"],
    [41391,"2018-10-21T01:00:00","27","9","6,160144006","0,4","137,9","24,3","71,1","0","0"],
    [41392,"2018-10-21T02:00:00","33","10","5,453885458","1,2","52,4","24,1","74,1","0","0"],
    [41393,"2018-10-21T03:00:00","38","10","5,650068388","1,3","266,3","24,1","75,2","0","0"],
    [41394,"2018-10-21T04:00:00","35","10","5,787396439","2,1","217,6","23,8","76,9","0","0"],
    [41395,"2018-10-21T05:00:00","28","6","5,983579369","3,1","141,7","23,7","77,6","0","0"],
    [41396,"2018-10-21T06:00:00","31","6","6,866402555","2,2","171,9","23,6","76,9","0","0"],
    [41397,"2018-10-21T07:00:00","24","6","8,161209893","2,8","130,1","23,7","76","25,3","0"],
    [41398,"2018-10-21T08:00:00","41","19","9,259834302","1,8","307,3","25","71,7","80,7","0"],
    [41399,"2018-10-21T09:00:00","ND","10","14,34097219","5,1","253,7","25,7","69,5","207,6","0"],
    [41400,"2018-10-21T10:00:00","ND","ND","ND","ND","ND","ND","ND","ND","ND"],
    [41401,"2018-10-21T11:00:00","ND","ND","ND","ND","ND","ND","ND","ND","ND"],
    [41402,"2018-10-21T12:00:00","ND","ND","ND","ND","ND","ND","ND","ND","ND"],
    [41403,"2018-10-21T13:00:00","ND","ND","ND","ND","ND","ND","ND","ND","ND"],
    [41404,"2018-10-21T14:00:00","ND","ND","ND","ND","ND","ND","ND","ND","ND"],
    [41405,"2018-10-21T15:00:00","ND","ND","ND","ND","ND","ND","ND","ND","ND"],
    [41406,"2018-10-21T16:00:00","19","ND","42,41474949","3,3","191,7","29,8","45,2","175,2","0"],
    [41407,"2018-10-21T17:00:00","20","2","43,06215316","3,3","174,8","30","45,9","114,2","0"],
    [41408,"2018-10-21T18:00:00","33","2","25,79805531","2,4","164,3","28,6","51,2","11,6","0"],
    [41409,"2018-10-21T19:00:00","45","7","16,02814539","2,2","173","27,9","53,5","0","0"],
    [41410,"2018-10-21T20:00:00","48","11","11,7905941","1,1","242,9","27,3","57,2","0","0"],
    [41411,"2018-10-21T21:00:00","44","10","9,240216009","2,7","14,1","27,2","58,2","0","0"],
    [41412,"2018-10-21T22:00:00","50","20","13,81127828","3,5","31,8","26,6","58,8","0","0"],
    [41413,"2018-10-21T23:00:00","13","5","17,77417347","3,2","99,6","25,6","62,1","0","0"],
    [41414,"2018-10-22T00:00:00","33","3","8,337774531","1,8","161","25,1","69,2","0","0"],
    [41415,"2018-10-22T01:00:00","29","9","8,259301359","1,8","218,1","24,9","69,6","0","0"],
    [41416,"2018-10-22T02:00:00","24","4","9,044033079","1,4","281,5","24,5","71,3","0","0"],
    [41417,"2018-10-22T03:00:00","38","5","8,004263549","2,5","354,1","24,3","72,3","0","0"],
    [41418,"2018-10-22T04:00:00","18","6","11,37860995","1,6","321,9","24,4","72,2","0","0"],
    [41419,"2018-10-22T05:00:00","18","4","8,278919652","0,8","288,1","24,1","74,6","0","0"],
    [41420,"2018-10-22T06:00:00","75","24","6,12090742","2","258,4","24,1","75,9","0","0"],
    [41421,"2018-10-22T07:00:00","64","19","6,31709035","1,4","291","24,4","75,1","9,6","0"],
    [41422,"2018-10-22T08:00:00","41","8","7,651134275","2,4","355,5","24,7","73,8","50,8","0,25"],
    [41423,"2018-10-22T09:00:00","26","7","16,14585515","3,4","5,5","25,6","69","138,4","0"],
    [41424,"2018-10-22T10:00:00","22","6","29,38820293","2,9","357,1","27,7","59,2","247,5","0"],
    [41425,"2018-10-22T11:00:00","15","3","40,94337752","2,2","334,1","29,5","50,2","333,5","0"],
    [41426,"2018-10-22T12:00:00","19","5","50,32092158","3","267,1","31","43,8","468,1","0"],
    [41427,"2018-10-22T13:00:00","19","6","66,19212063","1,8","237,6","32,4","38,8","491,7","0"],
    [41428,"2018-10-22T14:00:00","22","6","76,6486708","2,4","236,8","33,2","38,5","427,6","0"],
    [41429,"2018-10-22T15:00:00","26","10","75,27539029","2,6","217,3","32,4","39,5","166,2","0"],
    [41430,"2018-10-22T16:00:00","45","16","74,84378785","4,6","156,5","31,2","46","94","0"],
    [41431,"2018-10-22T17:00:00","28","11","34,80285181","2,4","126,7","30,9","45,8","56","0"],
    [41432,"2018-10-22T18:00:00","38","8","11,82983069","2,5","119,9","29,9","48,8","8,7","0"],
    [41433,"2018-10-22T19:00:00","24","4","9,848383093","4,7","65,1","29","50,6","0","0"],
    [41434,"2018-10-22T20:00:00","20","1","10,47616847","4,8","77,6","27,7","55,3","0","0"],
    [41435,"2018-10-22T21:00:00","48","8","6,70945621","1,3","225,2","27,4","58,6","0","0"],
    [41436,"2018-10-22T22:00:00","39","9","7,239150122","2,1","8","26,8","61,8","0","0"],
    [41437,"2018-10-22T23:00:00","42","9","6,101289127","3","4,6","25,9","69,1","0","0"],
    [41438,"2018-10-23T00:00:00","55","15","6,140525713","1,4","278","25,6","69,9","0","0"],
    [41439,"2018-10-23T01:00:00","45","12","6,277853764","2,6","250,2","25,1","71,6","0","0"],
    [41440,"2018-10-23T02:00:00","34","7","11,47670141","2,3","177,9","24,8","67,6","0","0"],
    [41441,"2018-10-23T03:00:00","33","10","10,53502335","0,7","286,7","24,6","68,8","0","0"],
    [41442,"2018-10-23T04:00:00","29","6","10,00532944","0,9","328,9","24,3","71,7","0","0"],
    [41443,"2018-10-23T05:00:00","35","8","7,886553791","0,4","191","24,5","71,8","0","0"],
    [41444,"2018-10-23T06:00:00","41","15","7,023348899","2,2","42,4","24,5","71,6","0","0"],
    [41445,"2018-10-23T07:00:00","55","15","6,96449402","1,6","334,9","25","69,9","31,4","0"],
    [41446,"2018-10-23T08:00:00","57","21","9,18136113","2,1","293,7","25,6","69,2","61,1","0"],
    [41447,"2018-10-23T09:00:00","ND","13","19,22592715","2,8","335,4","28","60,4","227,5","2,54"],
    [41448,"2018-10-23T10:00:00","ND","16","27,75988461","3,4","351,2","29,5","54,1","315,2","0"],
    [41449,"2018-10-23T11:00:00","59","ND","46,20108005","3,2","2,3","31","48,3","486,8","0"],
    [41450,"2018-10-23T12:00:00","40","ND","57,32465218","2,1","305,8","33,4","39,1","538,6","0"],
    [41451,"2018-10-23T13:00:00","35","16","ND","1,8","247,9","33,8","35,4","371,4","0"],
    [41452,"2018-10-23T14:00:00","50","21","ND","5,9","102,3","31,5","45,6","294,7","0"],
    [41453,"2018-10-23T15:00:00","34","10","48,63374838","4,9","78,2","32,2","41","176,7","0"],
    [41454,"2018-10-23T16:00:00","17","7","44,53352514","4,2","89,7","32,7","38,9","207,6","0"],
    [41455,"2018-10-23T17:00:00","25","5","29,15278342","6,7","90,8","32,3","38,9","144,4","0"],
    [41456,"2018-10-23T18:00:00","40","6","13,55624047","4,8","100,1","30,7","42,3","15,4","0"],
    [41457,"2018-10-23T19:00:00","90","29","5,395030579","1,6","164,8","29,3","47,5","0","0"],
    [41458,"2018-10-23T20:00:00","59","19","5,179229355","2","169,2","28,4","51,5","0","0"],
    [41459,"2018-10-23T21:00:00","52","18","4,963428132","1,9","187,7","27,7","54,8","0","0"],
    [41460,"2018-10-23T22:00:00","28","7","8,730140391","2,2","65","28","50,7","0","0"],
    [41461,"2018-10-23T23:00:00","29","8","5,434267165","3","235,8","26,4","60,5","0","0"],
    [41462,"2018-10-24T00:00:00","39","7","6,199380592","2,1","273,3","26,4","59,8","0","0"],
    [41463,"2018-10-24T01:00:00","29","5","8,063118428","1,9","276,7","26,2","59,7","0","0"],
    [41464,"2018-10-24T02:00:00","28","3","7,474569638","1,6","281,6","26","60,7","0","0"],
    [41465,"2018-10-24T03:00:00","28","5","6,493654987","2,3","246,4","25,8","61,8","0","0"],
    [41466,"2018-10-24T04:00:00","33","6","4,178696412","2,6","202,1","24,8","67","0","0"],
    [41467,"2018-10-24T05:00:00","33","11","4,178696412","3","148","24,2","69,9","0","0"],
    [41468,"2018-10-24T06:00:00","42","16","5,08113789","2","169","24,1","69,2","0","0"],
    [41469,"2018-10-24T07:00:00","54","9","5,257702528","1,9","154,7","24,1","69,8","20,9","0"],
    [41470,"2018-10-24T08:00:00","67","21","9,514872111","0,9","199,9","26,3","61,6","144,4","0"],
    [41471,"2018-10-24T09:00:00","46","18","14,55677342","1,9","244,2","29","52,6","229,7","0"],
    [41472,"2018-10-24T10:00:00","41","13","21,67821378","1,9","226,5","29,7","50,6","250,1","0"],
    [41473,"2018-10-24T11:00:00","37","13","32,58598469","2,7","236,2","31,3","45,5","415,9","0"],
    [41474,"2018-10-24T12:00:00","32","8","47,69207031","2","215,6","33,2","39,7","540,8","0"],
    [41475,"2018-10-24T13:00:00","27","6","49,79122767","3","146","33,4","37,9","445","0"],
    [41476,"2018-10-24T14:00:00","51","9","44,04306781","4,7","134,7","32,6","40,6","246,3","0"],
    [41477,"2018-10-24T15:00:00","30","8","25,11141506","6,1","92,1","30,8","45,8","131,1","0"],
    [41478,"2018-10-24T16:00:00","35","5","20,36378815","3,4","91","30,8","44","78,8","0"],
    [41479,"2018-10-24T17:00:00","41","7","14,39982707","4,1","162,6","29,6","50,3","41,9","0"],
    [41480,"2018-10-24T18:00:00","47","16","8,102355014","3,1","226,1","28,7","57,6","4,6","0"],
    [41481,"2018-10-24T19:00:00","85","33","5,905106197","3,6","231,6","28","58,7","0","0"],
    [41482,"2018-10-24T20:00:00","55","20","5,257702528","3,1","229,8","26,4","63,9","0","0"],
    [41483,"2018-10-24T21:00:00","46","16","5,316557407","1,4","280,9","26,4","63,1","0","0"],
    [41484,"2018-10-24T22:00:00","43","9","4,590680565","1,3","71,5","26,3","64","0","0"],
    [41485,"2018-10-24T23:00:00","39","14","4,316024463","0,7","5,1","26,8","61,2","0","0"],
    [41486,"2018-10-25T00:00:00","47","13","5,179229355","2,2","278,1","26,8","61,4","0","0"],
    [41487,"2018-10-25T01:00:00","30","12","6,238617178","2,8","258","25,9","65,8","0","0"],
    [41488,"2018-10-25T02:00:00","39","16","8,043500135","0,7","252,3","25,5","67,6","0","0"],
    [41489,"2018-10-25T03:00:00","38","14","6,218998885","1,5","302,9","25,4","68","0","0"],
    [41490,"2018-10-25T04:00:00","45","15","5,277320821","1,9","277","25,1","70,2","0","0"],
    [41491,"2018-10-25T05:00:00","49","26","5,414648872","0,5","154,7","24,7","71,2","0","0"],
    [41492,"2018-10-25T06:00:00","76","28","5,669686681","2,1","183,1","25,1","71","0","0"],
    [41493,"2018-10-25T07:00:00","81","33","5,139992769","1,9","208,5","25,1","69,5","16,2","0"],
    [41494,"2018-10-25T08:00:00","72","26","7,847317205","2","207","26,7","63,9","124,2","0"],
    [41495,"2018-10-25T09:00:00","58","18","21,42317597","0,6","298,3","28,4","57,5","254,3","0"],
    [41496,"2018-10-25T10:00:00","64","29","34,80285181","2,9","229,8","29,7","52,3","255","0"],
    [41497,"2018-10-25T11:00:00","75","29","61,05212786","3,5","222,7","31,3","46,8","445,7","0"],
    [41498,"2018-10-25T12:00:00","59","25","82,74995993","3,4","216,3","32,6","42,9","474,7","0"],
    [41499,"2018-10-25T13:00:00","49","17","72,66615732","3,5","237,5","33,5","39,6","453","0"],
    [41500,"2018-10-25T14:00:00","48","13","36,09765914","4,2","156,1","31","49,7","118,4","0"],
    [41501,"2018-10-25T15:00:00","25","7","33,31186154","3","202","32,4","43,1","227,2","0"],
    [41502,"2018-10-25T16:00:00","25","6","34,31239448","3","274,4","32,9","41,1","191,6","0"],
    [41503,"2018-10-25T17:00:00","30","6","32,58598469","0,2","188,6","33,3","37,5","144,2","0"],
    [41504,"2018-10-25T18:00:00","24","6","18,57852348","5,7","81,3","31","40,8","15,3","0"],
    [41505,"2018-10-25T19:00:00","44","13","5,885487904","2,1","107,2","29,4","46,4","0","0"],
    [41506,"2018-10-25T20:00:00","113","53","4,88495496","2,7","220","28,3","53,3","0","0"],
    [41507,"2018-10-25T21:00:00","53","16","4,649535444","3,4","238,8","27,4","58,2","0","0"],
    [41508,"2018-10-25T22:00:00","63","11","5,689304974","3","232,1","27,1","58,7","0","0"],
    [41509,"2018-10-25T23:00:00","33","12","6,454418401","1,6","164,2","26,9","58,4","0","0"],
    [41510,"2018-10-26T00:00:00","32","10","7,042967192","1,5","222,2","26,8","58,7","0","0"],
    [41511,"2018-10-26T01:00:00","34","8","6,984112313","1,5","192,1","26,1","62,6","0","0"],
    [41512,"2018-10-26T02:00:00","47","7","5,375412286","1,2","264,7","25,8","65,2","0","0"],
    [41513,"2018-10-26T03:00:00","61","13","4,531825686","0,7","262,9","25,4","67,8","0","0"],
    [41514,"2018-10-26T04:00:00","43","11","4,904573253","0,6","259,9","25,6","68","0","0"],
    [41515,"2018-10-26T05:00:00","39","9","6,179762299","2,5","181,8","25","70,2","0","0"],
    [41516,"2018-10-26T06:00:00","40","9","7,376478173","3,1","172,3","24,7","72","0","0"],
    [41517,"2018-10-26T07:00:00","48","21","5,963961076","2,8","186,1","24,6","73,4","7,8","0,51"],
    [41518,"2018-10-26T08:00:00","18","7","10,92738921","1,9","153","24,2","78","78,3","9,91"],
    [41519,"2018-10-26T09:00:00","31","12","14,85104781","1,2","166,5","26,1","70,2","98,1","0"],
    [41520,"2018-10-26T10:00:00","26","7","24,6994309","1,1","255,7","29,1","58,6","390,6","0"],
    [41521,"2018-10-26T11:00:00","26","11","48,22176423","0,2","36,1","31,2","48,1","390,2","0"],
    [41522,"2018-10-26T12:00:00","21","13","61,11098274","0,6","62,9","32,5","44,1","466,4","0"],
    [41523,"2018-10-26T13:00:00","31","8","50,59557768","2,1","239,4","33,5","40,1","428,5","0"],
    [41524,"2018-10-26T14:00:00","24","6","48,005963","2,3","217,9","34,5","37,1","408,3","0"],
    [41525,"2018-10-26T15:00:00","26","7","50,75252403","3,7","176,3","35","36","391","0"],
    [41526,"2018-10-26T16:00:00","48","12","39,45238725","3,8","149,6","33,2","40,5","73,9","0"],
    [41527,"2018-10-26T17:00:00","24","7","32,62522128","6,4","82,4","32,5","40,4","116,4","0"],
    [41528,"2018-10-26T18:00:00","31","4","23,71851625","5,5","93,1","31,1","43,1","25,8","0"],
    [41529,"2018-10-26T19:00:00","32","6","9,044033079","4,3","100,5","30,3","45,5","0","0"],
    [41530,"2018-10-26T20:00:00","63","22","7,258768415","3,6","192","29,6","49,4","0","0"],
    [41531,"2018-10-26T21:00:00","46","11","9,161742837","3","195,2","28,5","54,5","0","0"],
    [41532,"2018-10-26T22:00:00","49","21","8,926323321","4,1","162,2","28,4","55,5","0","0"],
    [41533,"2018-10-26T23:00:00","25","13","8,455484289","2,2","143,8","25,8","71,8","0","24,89"],
    [41534,"2018-10-27T00:00:00","30","13","6,022815955","2,7","251,2","24,6","80,8","0","6,1"],
    [41535,"2018-10-27T01:00:00","10","6","7,101822071","2","256,2","24,2","81,5","0","1,52"],
    [41536,"2018-10-27T02:00:00","19","8","7,768844033","1,4","345,7","24,2","81,4","0","5,33"],
    [41537,"2018-10-27T03:00:00","26","7","8,043500135","1,3","271,1","24,3","80,2","0","0"],
    [41538,"2018-10-27T04:00:00","28","10","6,218998885","2,4","219,1","24,3","79,9","0","0"],
    [41539,"2018-10-27T05:00:00","18","7","6,434800108","2,8","21,4","24,3","79","0","0"],
    [41540,"2018-10-27T06:00:00","42","17","5,493122044","1,6","277","24,5","77,1","0","0"],
    [41541,"2018-10-27T07:00:00","65","20","5,669686681","1,3","284,1","24,7","75,7","9,4","0"],
    [41542,"2018-10-27T08:00:00","76","26","6,827165969","2","270,5","25,2","74","45,3","0"],
    [41543,"2018-10-27T09:00:00","60","24","14,41944536","1","138,6","27,3","65,6","211,9","0"],
    [41544,"2018-10-27T10:00:00","37","18","31,78163468","1,9","162,3","29,5","55,9","383,2","0"],
    [41545,"2018-10-27T11:00:00","42","16","35,90147621","3","235,7","30,2","53,9","335","0"],
    [41546,"2018-10-27T12:00:00","25","17","50,55634109","1,7","263,4","32,1","45,6","434,6","0"],
    [41547,"2018-10-27T13:00:00","29","12","61,03250956","2","243,7","33,7","42","500","0"],
    [41548,"2018-10-27T14:00:00","29","14","72,50921098","1,7","244,6","33,7","41,7","381,8","0"],
    [41549,"2018-10-27T15:00:00","48","19","64,2891462","3,6","261,4","33,6","41,8","191,6","0"],
    [41550,"2018-10-27T16:00:00","29","6","35,72491158","4,5","95,7","31,9","43,5","72,5","0"],
    [41551,"2018-10-27T17:00:00","35","7","29,32934805","4,7","112","31,8","43,6","141,6","0"],
    [41552,"2018-10-27T18:00:00","42","6","19,89294912","5,1","217,9","29,6","57,7","26,9","0"],
    [41553,"2018-10-27T19:00:00","49","17","8,945941614","5,3","205,8","27","69,1","0","0"],
    [41554,"2018-10-27T20:00:00","46","14","9,338307474","2,6","212,2","27,3","64,2","0","0"],
    [41555,"2018-10-27T21:00:00","40","13","14,12517097","3,1","332,1","27","63,9","0","0"],
    [41556,"2018-10-27T22:00:00","33","14","18,38234055","2,6","336,8","25,9","68,4","0","0"],
    [41557,"2018-10-27T23:00:00","25","12","15,93005393","2,6","329,3","25,1","73,5","0","0,25"],
    [41558,"2018-10-28T00:00:00","22","9","17,65646371","2,3","342,4","24,8","74,7","0","0"],
    [41559,"2018-10-28T01:00:00","19","8","18,50005031","2,6","11,7","24,9","73,6","0","0"],
    [41560,"2018-10-28T02:00:00","26","8","13,87013316","1,5","276,4","25","72,3","0","0"],
    [41561,"2018-10-28T03:00:00","37","10","10,00532944","2","272,6","24","77,5","0","0"],
    [41562,"2018-10-28T04:00:00","23","6","15,47883319","1,5","18,1","24,3","75,7","0","0"],
    [41563,"2018-10-28T05:00:00","38","5","9,730673335","2","260,5","24,3","75,8","0","0"],
    [41564,"2018-10-28T06:00:00","58","13","7,533424517","1,8","255,2","24,2","76,1","0","0"],
    [41565,"2018-10-28T07:00:00","62","18","7,886553791","1,5","292,6","24,6","75,3","40,8","0"],
    [41566,"2018-10-28T08:00:00","63","16","14,75295635","2","7,7","26,1","69,2","129,9","0"],
    [41567,"2018-10-28T09:00:00","50","14","23,79698942","2,6","263,2","28,2","61,1","272,1","0"],
    [41568,"2018-10-28T10:00:00","26","12","43,92535806","1,2","314,8","31","50,1","440","0"],
    [41569,"2018-10-28T11:00:00","30","10","51,73343868","3,1","250,7","31,9","46,7","489,3","0"],
    [41570,"2018-10-28T12:00:00","29","11","56,06908143","2","241,8","33,3","41,7","499,6","0"],
    [41571,"2018-10-28T13:00:00","29","14","76,43286958","2,2","238,8","33,9","38,6","456,5","0"],
    [41572,"2018-10-28T14:00:00","32","13","69,78226825","4,4","214,6","34,8","37,1","482","0"],
    [41573,"2018-10-28T15:00:00","22","11","64,21067303","4,2","192,3","34,7","37,5","293","0"],
    [41574,"2018-10-28T16:00:00","30","8","37,15704697","5,1","172,2","33,9","38,5","216,1","0"],
    [41575,"2018-10-28T17:00:00","13","6","31,07537613","4,6","150,7","33,5","37,5","131,6","0"],
    [41576,"2018-10-28T18:00:00","18","5","22,36485403","4,8","95,3","31,5","41,9","15,6","0"],
    [41577,"2018-10-28T19:00:00","25","4","15,20417709","3,5","92,3","30,4","45,4","0","0"],
    [41578,"2018-10-28T20:00:00","63","21","7,709989154","3","215,2","29,1","52,4","0","0"],
    [41579,"2018-10-28T21:00:00","51","13","6,179762299","2,9","243,6","27","63,2","0","0"],
    [41580,"2018-10-28T22:00:00","34","9","5,316557407","2,3","234,1","26,7","64,1","0","0"],
    [41581,"2018-10-28T23:00:00","41","13","5,257702528","2,5","239,4","26,6","64,1","0","0"],
    [41582,"2018-10-29T00:00:00","29","8","7,042967192","2,7","253,8","26,5","64","0","0"],
    [41583,"2018-10-29T01:00:00","40","6","7,631515982","2,1","276,8","26,3","65,4","0","0"],
    [41584,"2018-10-29T02:00:00","39","6","5,316557407","1,7","309,1","26,1","68","0","0"],
    [41585,"2018-10-29T03:00:00","34","6","4,68877203","1,9","349,4","26,1","68,4","0","0"],
    [41586,"2018-10-29T04:00:00","35","7","4,904573253","2,2","337","25,7","70,7","0","0"],
    [41587,"2018-10-29T05:00:00","33","5","4,924191546","2","327,6","25,1","75,8","0","0,51"],
    [41588,"2018-10-29T06:00:00","24","11","5,434267165","1,9","310,9","24,5","77,9","0","1,78"],
    [41589,"2018-10-29T07:00:00","17","9","6,375945229","1,8","339,9","24,7","78","25,2","0,76"],
    [41590,"2018-10-29T08:00:00","23","9","8,023881842","2,4","354,2","25,7","73,5","63,7","0"],
    [41591,"2018-10-29T09:00:00","43","11","9,8287648","1,7","315","27,2","67,7","112","0"],
    [41592,"2018-10-29T10:00:00","30","13","16,0085271","2","306,2","28,7","61,1","203,3","0"],
    [41593,"2018-10-29T11:00:00","34","16","28,25034194","2,5","221,5","30,6","53,3","373,8","0"],
    [41594,"2018-10-29T12:00:00","44","18","38,05948845","3,9","270,3","30,7","52,4","253,4","0"],
    [41595,"2018-10-29T13:00:00","37","18","46,78962884","4","350,3","30,7","54,6","346,8","0"],
    [41596,"2018-10-29T14:00:00","37","12","36,09765914","5","138,6","27,4","62,3","47","13,72"],
    [41597,"2018-10-29T15:00:00","19","8","23,93431748","1,7","16,7","24,1","78,1","15","20,07"],
    [41598,"2018-10-29T16:00:00","31","17","9,279452595","2,3","257,4","25,6","73,9","40,6","0,76"],
    [41599,"2018-10-29T17:00:00","25","14","18,38234055","1,8","29,6","27","69","53,9","0"],
    [41600,"2018-10-29T18:00:00","74","31","7,808080619","1,7","308,5","26,9","72,6","9,1","0"],
    [41601,"2018-10-29T19:00:00","60","26","5,3361757","1,3","319,1","26","74,1","0","0"],
    [41602,"2018-10-29T20:00:00","76","24","5,061519597","1,5","330,9","25,7","72,4","0","0"],
    [41603,"2018-10-29T21:00:00","69","20","4,904573253","0,9","40,9","25,5","72,8","0","0"],
    [41604,"2018-10-29T22:00:00","92","29","4,629917151","1,2","267,3","25","74,7","0","0"],
    [41605,"2018-10-29T23:00:00","72","22","4,924191546","1,2","298,6","24,4","77,3","0","0"],
    [41606,"2018-10-30T00:00:00","60","16","4,728008616","1,2","322,3","24,5","76,4","0","0"],
    [41607,"2018-10-30T01:00:00","47","11","4,531825686","1,2","242,1","24,1","77,6","0","0"],
    [41608,"2018-10-30T02:00:00","39","17","4,159078119","2","262,6","23,9","77,6","0","0"],
    [41609,"2018-10-30T03:00:00","37","13","4,198314705","0,7","2","23,5","77,8","0","0"],
    [41610,"2018-10-30T04:00:00","49","15","4,728008616","1,4","72","23,6","78,8","0","0"],
    [41611,"2018-10-30T05:00:00","65","24","4,610298858","0,4","316,4","23,8","78,7","0","0"],
    [41612,"2018-10-30T06:00:00","99","39","4,708390323","2,1","285,1","23,3","78,6","0","0"],
    [41613,"2018-10-30T07:00:00","80","25","4,728008616","0,3","166,9","23,2","78,2","10,8","0"],
    [41614,"2018-10-30T08:00:00","90","29","6,925257434","0,4","331,1","25,3","71,9","107,4","0"],
    [41615,"2018-10-30T09:00:00","70","26","16,26356491","1,4","12,2","27","64,7","166","0"],
    [41616,"2018-10-30T10:00:00","69","25","24,36591992","1,7","328,5","28,6","61","240,7","0"],
    [41617,"2018-10-30T11:00:00","39","18","51,28221794","2,1","313,7","31,2","50,1","456,6","0"],
    [41618,"2018-10-30T12:00:00","34","17","55,89251679","1,9","265,4","32,9","42,9","489","0"],
    [41619,"2018-10-30T13:00:00","33","15","63,83792546","2,2","236,1","33,9","38,3","491,2","0"],
    [41620,"2018-10-30T14:00:00","47","23","100,56337","1,8","167,9","34,1","38,4","338,5","0"],
    [41621,"2018-10-30T15:00:00","47","19","92,61796132","3,9","151,9","33,7","39","266,4","0"],
    [41622,"2018-10-30T16:00:00","35","10","40,53139337","4","189,6","34,3","36,3","238,9","0"],
    [41623,"2018-10-30T17:00:00","33","10","38,45185431","4,4","169,5","33,6","36,5","117,4","0"],
    [41624,"2018-10-30T18:00:00","47","9","16,87173199","2,5","112,4","31,7","40,9","5,3","0"],
    [41625,"2018-10-30T19:00:00","58","17","10,80967945","2,8","168,2","29,8","48,9","0","0"],
    [41626,"2018-10-30T20:00:00","44","15","11,82983069","1,4","155","28,9","53,7","0","0"],
    [41627,"2018-10-30T21:00:00","37","11","16,89135028","1,5","352,8","28","59,7","0","0"],
    [41628,"2018-10-30T22:00:00","41","17","20,79539059","3,3","309,5","26,7","67,1","0","0"],
    [41629,"2018-10-30T23:00:00","30","11","25,97461995","3,5","354,6","25,3","73,2","0","0,25"],
    [41630,"2018-10-31T00:00:00","23","8","27,30866387","4,7","6,8","25,1","74,1","0","1,27"],
    [41631,"2018-10-31T01:00:00","15","11","25,15065164","2,9","342,9","24,7","76,8","0","1,27"],
    [41632,"2018-10-31T02:00:00","23","13","22,60027355","4,1","349,7","24,4","77,8","0","0,51"],
    [41633,"2018-10-31T03:00:00","9","7","27,249809","3,5","351,9","23,7","78,5","0","2,54"],
    [41634,"2018-10-31T04:00:00","7","3","27,83835779","2,8","353","23,4","78,9","0","0,25"],
    [41635,"2018-10-31T05:00:00","15","4","22,48256379","2,7","10,7","23,4","78,2","0","0"],
    [41636,"2018-10-31T06:00:00","42","17","7,474569638","3","250,3","23,3","78,4","0","0"],
    [41637,"2018-10-31T07:00:00","60","23","8,632048926","2,2","199,9","23,6","77,7","54,8","0"],
    [41638,"2018-10-31T08:00:00","54","16","17,77417347","2,4","236,8","26,2","67,5","170,9","0"],
    [41639,"2018-10-31T09:00:00","43","11","31,82087127","2","274,4","28,6","56,2","287,5","0"],
    [41640,"2018-10-31T10:00:00","30","11","46,14222517","1,9","262","30,3","50,4","391,7","0"],
    [41641,"2018-10-31T11:00:00","31","7","52,40046064","3,4","240","31,5","45,6","467,1","0"],
    [41642,"2018-10-31T12:00:00","27","6","63,11204862","3,7","251,2","32,7","41,6","494,4","0"],
    [41643,"2018-10-31T13:00:00","23","6","68,40898774","2,7","250,5","34","38,6","479,1","0"],
    [41644,"2018-10-31T14:00:00","29","7","89,63598078","0,9","167,9","34,8","36,5","459,2","0"],
    [41645,"2018-10-31T15:00:00","40","9","93,08880035","2","190,1","35,5","34,2","341,9","0"],
    [41646,"2018-10-31T16:00:00","33","12","74,9811159","2,8","192,6","35,4","33,7","191,2","0"],
    [41647,"2018-10-31T17:00:00","34","6","52,24351429","4,7","88,8","34,2","37,4","138,7","0"],
    [41648,"2018-10-31T18:00:00","36","10","30,83995662","6,7","78,2","31,6","42,7","11,2","0"],
    [41649,"2018-10-31T19:00:00","28","7","17,4014259","5,1","96,1","30,3","46,9","0","0"],
    [41650,"2018-10-31T20:00:00","68","17","9,868001386","3,1","220,3","29,5","52,6","0","0"],
    [41651,"2018-10-31T21:00:00","65","17","5,72854156","3","233,1","28","60,5","0","0"],
    [41652,"2018-10-31T22:00:00","47","9","5,944342783","2,3","255,8","27,7","61,6","0","0"],
    [41653,"2018-10-31T23:00:00","52","7","6,081670834","0,9","260,8","28,2","58,5","0","0"],
    [41654,"2018-11-01T00:00:00","45","7","6,277853764","2,5","276,6","27,6","61,8","0","0"],
    [41655,"2018-11-01T01:00:00","40","6","6,5","1,8","282,1","26,8","65,4","0","0"],
    [41656,"2018-11-01T02:00:00","24","14","8,7","2,3","344,7","26,2","70","0","0"],
    [41657,"2018-11-01T03:00:00","17","10","9,1","2,1","333,6","26","71,1","0","0"],
    [41658,"2018-11-01T04:00:00","25","8","9,2","1,6","345,6","26,3","69,2","0","0"],
    [41659,"2018-11-01T05:00:00","49","15","6,2","1,9","274,7","26","71,9","0","0"],
    [41660,"2018-11-01T06:00:00","45","15","5,1","2","350,7","26,1","71","2,4","0"],
    [41661,"2018-11-01T07:00:00","84","29","6","1,2","226,6","26,5","69,8","24","0"],
    [41662,"2018-11-01T08:00:00","98","29","5,8","1,4","218,1","27,1","69,1","87","0"],
    [41663,"2018-11-01T09:00:00","80","22","8,6","1,1","110,9","29","59,2","162","0"],
    [41664,"2018-11-01T10:00:00","44","16","22,2","1,3","319,8","29,9","55","178,7","0"],
    [41665,"2018-11-01T11:00:00","36","11","37,6","2,6","1,6","31,1","49,8","292,2","0"],
    [41666,"2018-11-01T12:00:00","41","13","62,9","2,3","4,6","32,3","46","374,7","0"],
    [41667,"2018-11-01T13:00:00","54","15","80,9","1,8","248,1","33,2","41,5","305,8","0"],
    [41668,"2018-11-01T14:00:00","59","19","71,5","3,1","248,8","32,9","42","205,8","0"],
    [41669,"2018-11-01T15:00:00","62","18","79,1","3,5","265,4","33,2","40,5","228,6","0"],
    [41670,"2018-11-01T16:00:00","50","11","69,6","3,9","86,8","33","38,9","131,9","0"],
    [41671,"2018-11-01T17:00:00","32","6","28,3","6,6","88,2","30,7","44","30","0"],
    [41672,"2018-11-01T18:00:00","43","4","16,6","3,1","109,3","29,9","46,6","0","0"],
    [41673,"2018-11-01T19:00:00","62","19","15,7","4,7","239,8","28,2","56","0","0"],
    [41674,"2018-11-01T20:00:00","48","19","12","4,1","277,3","27,4","60,2","0","0"],
    [41675,"2018-11-01T21:00:00","41","10","23,4","3,9","16","26,5","62,3","0","0"],
    [41676,"2018-11-01T22:00:00","49","17","20,5","3,7","9,1","26,5","62,4","0","0"],
    [41677,"2018-11-01T23:00:00","27","5","19,6","2,9","350,4","25,6","68,5","0","5,84"],
    [41678,"2018-11-02T00:00:00","18","7","16,1","1,8","347,8","24,9","73,8","0","0,25"],
    [41679,"2018-11-02T01:00:00","23","8","14,5","1,1","266,2","24,9","74,3","0","0"],
    [41680,"2018-11-02T02:00:00","39","14","12,8","2,3","257,8","24,5","76,8","0","0"],
    [41681,"2018-11-02T03:00:00","38","18","13,1","0,8","69,4","24,7","73,1","0","0"],
    [41682,"2018-11-02T04:00:00","32","18","15,4","0,4","80,3","24,5","72,5","0","0"],
    [41683,"2018-11-02T05:00:00","16","8","8,3","0,7","36,3","24,5","71,3","0","0"],
    [41684,"2018-11-02T06:00:00","23","13","7,6","0,8","12,3","24,4","73","0","0"],
    [41685,"2018-11-02T07:00:00","23","12","6,3","2,2","60,7","24,7","72,8","15,3","0"],
    [41686,"2018-11-02T08:00:00","62","28","9","2,4","287,6","25,7","71","79,4","0"],
    [41687,"2018-11-02T09:00:00","60","23","14,2","3","270,2","26,5","66,5","105,1","0"],
    [41688,"2018-11-02T10:00:00","52","20","26,6","1,4","328,6","27,8","60,1","170,4","0"],
    [41689,"2018-11-02T11:00:00","44","17","42,7","1,9","252,6","29,6","52,5","355,6","0"],
    [41690,"2018-11-02T12:00:00","40","14","69,5","1,5","249,1","31,4","45,9","493,3","0,25"],
    [41691,"2018-11-02T13:00:00","33","16","75,2","2,6","240,6","32,4","41,1","379,6","0"],
    [41692,"2018-11-02T14:00:00","48","15","109,1","1,1","167,3","32,4","40,7","199,8","0"],
    [41693,"2018-11-02T15:00:00","49","20","96,3","3,3","177,7","32,8","39,3","210,6","0"],
    [41694,"2018-11-02T16:00:00","32","12","59,2","2,6","155,8","32,9","37,2","163,8","0"],
    [41695,"2018-11-02T17:00:00","20","10","35,2","6,1","90,1","31,2","40,2","57,8","0"],
    [41696,"2018-11-02T18:00:00","29","6","18,9","6,2","96","29,3","46,5","0","0"],
    [41697,"2018-11-02T19:00:00","23","3","13,6","4,2","103,5","28,6","49,2","0","0"],
    [41698,"2018-11-02T20:00:00","46","10","21,6","3,1","355","27,8","53,8","0","0"],
    [41699,"2018-11-02T21:00:00","22","8","28,2","3,3","328,3","25,7","66,8","0","0"],
    [41700,"2018-11-02T22:00:00","18","8","23,1","3,1","317,5","24,1","76","0","2,29"],
    [41701,"2018-11-02T23:00:00","18","6","27,5","2,1","348,9","23,3","78,5","0","2,54"],
    [41702,"2018-11-03T00:00:00","15","4","26,4","2,5","0,9","23,1","79,5","0","3,56"],
    [41703,"2018-11-03T01:00:00","15","4","31,4","2","19,7","23,3","78,4","0","0,76"],
    [41704,"2018-11-03T02:00:00","23","8","22,4","1,2","214,1","23,6","78,1","0","0,25"],
    [41705,"2018-11-03T03:00:00","35","18","19,2","2,3","212,2","23,6","77,2","0","0"],
    [41706,"2018-11-03T04:00:00","19","6","18,2","2,4","182,5","23,4","76,8","0","0"],
    [41707,"2018-11-03T05:00:00","32","10","11,4","1,7","232,1","23,4","77,6","0","0"],
    [41708,"2018-11-03T06:00:00","37","12","6,8","0,4","54,8","23,4","77,2","0","0"],
    [41709,"2018-11-03T07:00:00","59","23","4,9","1,4","252,9","23,9","76,5","9,9","0"],
    [41710,"2018-11-03T08:00:00","60","18","9,4","3,1","252,9","24","74,7","41,3","0"],
    [41711,"2018-11-03T09:00:00","55","19","15,2","2,1","263,5","25,4","69,9","133,7","0"],
    [41712,"2018-11-03T10:00:00","31","18","35,8","1,3","14,9","27,7","60,6","336,8","0"],
    [41713,"2018-11-03T11:00:00","34","17","57","0,6","265,7","30,1","50,8","397,7","0"],
    [41714,"2018-11-03T12:00:00","40","21","96","0,8","141,2","30,5","48,2","298,3","0"],
    [41715,"2018-11-03T13:00:00","49","22","99,7","1,6","248,5","31,6","44","307,6","0"],
    [41716,"2018-11-03T14:00:00","52","18","102,2","1","207,6","31,9","42,3","207,5","0"],
    [41717,"2018-11-03T15:00:00","39","14","73,2","3,1","116,4","32,2","40,4","182,6","0"],
    [41718,"2018-11-03T16:00:00","19","7","40","5,6","53,7","31,8","39,1","191,6","0"],
    [41719,"2018-11-03T17:00:00","43","17","37,3","5,9","281","27,5","62,4","64,5","6,1"],
    [41720,"2018-11-03T18:00:00","30","17","23","5,7","265,9","25","71","8,8","3,56"],
    [41721,"2018-11-03T19:00:00","47","23","10,9","0,7","170,8","25,2","71,1","0","1,02"],
    [41722,"2018-11-03T20:00:00","38","24","10,3","1,6","326,8","25,1","72,2","0","0"],
    [41723,"2018-11-03T21:00:00","51","15","10,4","1,8","308,8","25,2","71,6","0","0"],
    [41724,"2018-11-03T22:00:00","52","16","10,9","1","295,5","25,2","72,2","0","0"],
    [41725,"2018-11-03T23:00:00","51","17","15","1,9","335","25,3","72,1","0","0"],
    [41726,"2018-11-04T00:00:00","54","15","13","1,7","318","25","74,5","0","0"],
    [41727,"2018-11-04T01:00:00","62","19","12","1,3","316,2","24,9","75,2","0","0"],
    [41728,"2018-11-04T02:00:00","42","12","12,5","1,5","349,7","24,8","75,8","0","0"],
    [41729,"2018-11-04T03:00:00","44","16","9","1,6","276,9","24,8","76,2","0","0"],
    [41730,"2018-11-04T04:00:00","42","10","6,4","1,3","291,5","24,6","77","0","1,78"],
    [41731,"2018-11-04T05:00:00","32","8","7,9","2","343,2","24,3","78,3","0","0"],
    [41732,"2018-11-04T06:00:00","16","5","10,1","3,3","12,9","24,1","77,4","0","0"],
    [41733,"2018-11-04T07:00:00","14","7","13,8","3,1","358,3","24,1","77,4","4,9","0"],
    [41734,"2018-11-04T08:00:00","22","11","20","3,3","349,4","24,3","73,6","29,7","0"],
    [41735,"2018-11-04T09:00:00","22","8","22,1","2,9","335","24,8","71,1","74,5","0"],
    [41736,"2018-11-04T10:00:00","35","8","22,9","2,5","295,4","25,4","68,9","93,1","0"],
    [41737,"2018-11-04T11:00:00","17","9","33,8","2,1","273,2","27","63,6","266,6","0"],
    [41738,"2018-11-04T12:00:00","20","7","58,4","2,1","285","29,8","52,7","468,2","0"],
    [41739,"2018-11-04T13:00:00","16","6","62,5","3,1","242,8","31,1","47,5","379,9","0"],
    [41740,"2018-11-04T14:00:00","28","11","49,4","3,2","228,7","30,7","48,1","140,2","0"],
    [41741,"2018-11-04T15:00:00","28","8","41,9","2,8","177,5","28","59","35,1","39,62"],
    [41742,"2018-11-04T16:00:00","23","9","19,3","3,5","192,1","25","78,2","28,2","3,3"],
    [41743,"2018-11-04T17:00:00","25","19","10,3","2,9","220,2","26,1","73","19","0"],
    [41744,"2018-11-04T18:00:00","33","15","9,5","1,4","340,6","26,2","71,8","0","0"],
    [41745,"2018-11-04T19:00:00","50","17","8","2","325,9","26","71,3","0","0"],
    [41746,"2018-11-04T20:00:00","42","12","11,3","3,9","9,8","25,2","73,3","0","0,25"],
    [41747,"2018-11-04T21:00:00","40","11","12,1","2,9","358","25,2","73,5","0","0"],
    [41748,"2018-11-04T22:00:00","33","10","10,2","1,5","317,8","25,2","73,4","0","0"],
    [41749,"2018-11-04T23:00:00","54","17","8","2,9","238,1","24,9","76,3","0","0,76"],
    [41750,"2018-11-05T00:00:00","19","10","11,2","2,4","282,2","24,2","78,2","0","0,25"],
    [41751,"2018-11-05T01:00:00","17","5","13,1","2","273","23,9","78,1","0","0"],
    [41752,"2018-11-05T02:00:00","18","1","13,4","2","224,1","23,9","76,7","0","0"],
    [41753,"2018-11-05T03:00:00","17","2","11,8","2,2","229,6","23,7","78","0","0"],
    [41754,"2018-11-05T04:00:00","21","2","11,4","1,7","259,9","23,5","79,3","0","0,76"],
    [41755,"2018-11-05T05:00:00","15","2","13","1,8","269,2","23,6","79,1","0","0"],
    [41756,"2018-11-05T06:00:00","11","5","14,3","1,8","336,9","23,5","78,4","0","0"],
    [41757,"2018-11-05T07:00:00","12","5","13,6","1,1","349,3","23,7","77,5","12,8","0"],
    [41758,"2018-11-05T08:00:00","18","6","13,5","1,1","319,3","24,5","74","41,1","0"],
    [41759,"2018-11-05T09:00:00","16","5","20,3","1,7","345,3","25,7","68","98,3","0"],
    [41760,"2018-11-05T10:00:00","18","7","24,5","2,4","279,1","27","62,1","193,5","0"],
    [41761,"2018-11-05T11:00:00","19","8","33,2","1,8","300,6","29,1","54,8","320,5","0"],
    [41762,"2018-11-05T12:00:00","19","9","41,9","1,4","317","29,8","50,9","239,7","0"],
    [41763,"2018-11-05T13:00:00","13","5","47,4","5,2","35,8","28,2","56,6","217,9","0"],
    [41764,"2018-11-05T14:00:00","8","3","59,9","3,2","83","28,4","56,6","219,5","1,27"],
    [41765,"2018-11-05T15:00:00","24","12","63,1","1,3","167,3","29,8","52,3","340,5","0,25"],
    [41766,"2018-11-05T16:00:00","31","11","55","2,4","220,3","31,2","45,1","209,4","0"],
    [41767,"2018-11-05T17:00:00","35","11","47,1","2,1","164,1","29,9","50,4","50,1","0"],
    [41768,"2018-11-05T18:00:00","29","8","27,5","4,2","160,9","27,7","60,6","4,4","0"],
    [41769,"2018-11-05T19:00:00","26","19","10,1","3,3","148,5","25,8","67,7","0","1,52"],
    [41770,"2018-11-05T20:00:00","57","13","6,3","3,5","220,2","25","73,3","0","0"],
    [41771,"2018-11-05T21:00:00","78","12","6,3","2,8","233,5","24,9","73,6","0","0"],
    [41772,"2018-11-05T22:00:00","54","9","5,7","1,6","350,6","24,8","72,8","0","0"],
    [41773,"2018-11-05T23:00:00","52","9","4,8","2","358","24,6","73,6","0","0"],
    [41774,"2018-11-06T00:00:00","36","7","4,9","2,7","10,5","24,3","75,8","0","0"],
    [41775,"2018-11-06T01:00:00","30","8","5,6","1,7","265,6","23,9","76,4","0","0"],
    [41776,"2018-11-06T02:00:00","37","5","5,7","1,9","247,7","23,2","78,7","0","0"],
    [41777,"2018-11-06T03:00:00","32","7","5,8","1,2","168,8","22,9","79,3","0","0"],
    [41778,"2018-11-06T04:00:00","33","8","5,9","1,4","153,6","22,8","79,6","0","0"],
    [41779,"2018-11-06T05:00:00","49","12","4,7","1","175,9","22,9","79,7","0","0"],
    [41780,"2018-11-06T06:00:00","47","15","4,6","0,8","89,1","23,1","79,4","0","0"],
    [41781,"2018-11-06T07:00:00","68","23","5,8","0,6","45,1","24,2","75,8","49,9","0"],
    [41782,"2018-11-06T08:00:00","84","27","10,3","1,6","226,9","26,3","67,3","160,8","0"],
    [41783,"2018-11-06T09:00:00","87","42","15,5","3,8","270","26,6","66,7","214,5","0"],
    [41784,"2018-11-06T10:00:00","49","29","29,1","2,6","320","28,5","58,6","372,7","0"],
    [41785,"2018-11-06T11:00:00","46","23","47,7","2,4","254,4","30,1","49,9","416,5","0"],
    [41786,"2018-11-06T12:00:00","38","16","66,1","2,5","235,5","31,7","43,5","488,5","0"],
    [41787,"2018-11-06T13:00:00","35","16","72,1","2,2","227","32,8","40,1","493,3","0"],
    [41788,"2018-11-06T14:00:00","40","24","82,5","2,3","229,8","33","39,6","330,7","0"],
    [41789,"2018-11-06T15:00:00","53","25","102,4","3","164","32,7","41","205,5","0"],
    [41790,"2018-11-06T16:00:00","47","20","67,8","3,5","163,4","32,3","42,4","74,7","0"],
    [41791,"2018-11-06T17:00:00","27","6","24,9","4,5","71,6","31,7","39,3","52,5","0"],
    [41792,"2018-11-06T18:00:00","49","10","10,9","3,2","80,7","30,4","43,5","6,8","0"],
    [41793,"2018-11-06T19:00:00","37","7","7,9","3,6","92,3","29,2","45,6","0","0"],
    [41794,"2018-11-06T20:00:00","97","33","5,8","2,6","226,5","27,8","55","0","0"],
    [41795,"2018-11-06T21:00:00","60","19","6,2","1,9","255","25,9","63,8","0","0"],
    [41796,"2018-11-06T22:00:00","66","17","5,4","1,4","240,9","26,3","62,2","0","0"],
    [41797,"2018-11-06T23:00:00","56","12","5,1","1,3","236,6","25,5","65,7","0","0"],
    [41798,"2018-11-07T00:00:00","49","9","5,2","1,2","143,3","25,1","67,1","0","0"],
    [41799,"2018-11-07T01:00:00","54","13","4,4","1,3","303,9","24,7","70,2","0","0"],
    [41800,"2018-11-07T02:00:00","38","9","4,6","0,6","305,2","24","72,9","0","0"],
    [41801,"2018-11-07T03:00:00","39","9","4,5","1,3","334,2","24,2","71,6","0","0"],
    [41802,"2018-11-07T04:00:00","39","11","4,8","0,6","316,9","24,1","71,9","0","0"],
    [41803,"2018-11-07T05:00:00","75","32","4,1","0,7","244,9","23,9","73,1","0","0"],
    [41804,"2018-11-07T06:00:00","105","32","4,8","1","262,9","23,3","75,3","0","0"],
    [41805,"2018-11-07T07:00:00","106","42","5,5","2,1","13","24,4","72,3","22,7","0"],
    [41806,"2018-11-07T08:00:00","68","17","11","0,5","327,9","26,6","64,6","143,2","0"],
    [41807,"2018-11-07T09:00:00","51","15","21,6","0,6","30,3","28,6","57,2","228","0"],
    [41808,"2018-11-07T10:00:00","39","12","37","3,1","19,9","30","53","383,9","0"],
    [41809,"2018-11-07T11:00:00","36","15","57,2","2,9","20,7","30,8","49,3","292,2","0"],
    [41810,"2018-11-07T12:00:00","53","20","62,6","2,9","264,1","31,9","46,6","452,5","0"],
    [41811,"2018-11-07T13:00:00","58","22","93","3,2","232,5","33,1","42,3","474,7","0"],
    [41812,"2018-11-07T14:00:00","65","27","109,7","3,7","214,8","33,7","39,2","349,6","0"],
    [41813,"2018-11-07T15:00:00","50","25","115,4","2,5","168","33,9","38,6","229,6","0"],
    [41814,"2018-11-07T16:00:00","38","15","74","3,6","158,3","33,2","39,9","112,1","0"],
    [41815,"2018-11-07T17:00:00","51","10","41,5","6,2","79,2","32","43","73,6","0"],
    [41816,"2018-11-07T18:00:00","42","6","15,7","5","78,5","30,6","46,1","8,7","0"],
    [41817,"2018-11-07T19:00:00","40","9","7","4,3","96,5","30","48,1","0","0"],
    [41818,"2018-11-07T20:00:00","111","40","6","2,5","212,9","29,2","52,9","0","0"],
    [41819,"2018-11-07T21:00:00","72","19","6,2","4","241,8","26,9","63,5","0","0"],
    [41820,"2018-11-07T22:00:00","63","16","5,9","1,9","198,4","26,6","64,9","0","0"],
    [41821,"2018-11-07T23:00:00","40","12","6","1,6","191,8","26,7","64,5","0","0"],
    [41822,"2018-11-08T00:00:00","41","11","5,6","2,8","237,1","26,2","66,4","0","0"],
    [41823,"2018-11-08T01:00:00","37","8","4,8","0,9","113","25,9","68,1","0","0"],
    [41824,"2018-11-08T02:00:00","35","8","4,5","1,4","314,7","25,9","68,7","0","0"],
    [41825,"2018-11-08T03:00:00","33","11","4,6","1,3","309,8","25,7","69,2","0","0"],
    [41826,"2018-11-08T04:00:00","35","10","4,8","0,7","220","25,7","69,2","0","0"],
    [41827,"2018-11-08T05:00:00","62","15","4,9","1,9","278,1","25,5","70,3","0","0"],
    [41828,"2018-11-08T06:00:00","69","22","4,6","0,6","32","25,5","70,8","0","0"],
    [41829,"2018-11-08T07:00:00","112","29","5,6","0,7","175,5","25,8","70,4","13,8","0"],
    [41830,"2018-11-08T08:00:00","103","26","6,7","0,5","102,5","27,7","64","110,4","0"],
    [41831,"2018-11-08T09:00:00","98","28","11,7","2,8","215","29","59,8","171,9","0"],
    [41832,"2018-11-08T10:00:00","66","22","21,6","2,5","225,6","30,2","54,8","301,6","0"],
    [41833,"2018-11-08T11:00:00","66","28","60,5","1,3","353,4","32,8","46,3","407,8","0"],
    [41834,"2018-11-08T12:00:00","82","29","96,2","2,3","265","34","42,3","433,5","0"],
    [41835,"2018-11-08T13:00:00","70","27","104","2,4","164,2","33,7","40,8","241,4","0"],
    [41836,"2018-11-08T14:00:00","64","18","64,5","4,4","103,2","33,2","40,7","245","0"],
    [41837,"2018-11-08T15:00:00","66","13","39,1","7","95,6","33,6","37,9","352","0"],
    [41838,"2018-11-08T16:00:00","27","6","31,5","6,4","96,8","33,6","36,4","227,1","0"],
    [41839,"2018-11-08T17:00:00","36","7","17","6,7","76,7","31,3","42,5","23,5","0"],
    [41840,"2018-11-08T18:00:00","57","11","40,5","7,6","22,4","26,4","65,6","0","0,25"],
    [41841,"2018-11-08T19:00:00","31","14","17","2,7","324","25,4","74,3","0","4,32"],
    [41842,"2018-11-08T20:00:00","20","12","21,9","3,1","348,3","24,6","77,3","0","1,02"],
    [41843,"2018-11-08T21:00:00","28","13","14,4","2,1","314","24,7","76,9","0","0,51"],
    [41844,"2018-11-08T22:00:00","42","11","9,2","1,9","270,8","24,7","77,3","0","0"],
    [41845,"2018-11-08T23:00:00","56","23","8,9","1,7","243,3","24,9","75,5","0","0"],
    [41846,"2018-11-09T00:00:00","65","31","11,8","1,9","237,2","24,7","75,8","0","0"],
    [41847,"2018-11-09T01:00:00","44","11","10,8","0,9","233,9","24,7","76","0","0"],
    [41848,"2018-11-09T02:00:00","37","14","10,6","2,1","352,7","24,7","74,9","0","0"],
    [41849,"2018-11-09T03:00:00","31","11","10,9","1,8","339,1","24,6","75,1","0","0"],
    [41850,"2018-11-09T04:00:00","37","10","9,5","1,7","340,6","24,4","76,6","0","0"],
    [41851,"2018-11-09T05:00:00","41","11","6,3","2,3","358","24,4","77,3","0","0"],
    [41852,"2018-11-09T06:00:00","60","18","5","0,7","298,7","24,7","76,3","0","0"],
    [41853,"2018-11-09T07:00:00","95","30","5,3","2,5","260","24,7","77,2","18,4","0"],
    [41854,"2018-11-09T08:00:00","46","19","9,1","0,9","13,2","26,2","70,3","90,1","0"],
    [41855,"2018-11-09T09:00:00","54","22","11,8","1,5","322,3","27","67,4","79,8","0"],
    [41856,"2018-11-09T10:00:00","58","25","20,9","0,8","309,6","28,2","62,3","157,8","0"],
    [41857,"2018-11-09T11:00:00","41","15","41,8","2,1","292,8","30,5","51,9","364,3","0"],
    [41858,"2018-11-09T12:00:00","26","12","52,2","2,3","310,5","32,9","43,8","432,5","0"],
    [41859,"2018-11-09T13:00:00","38","17","54,7","2","289,2","32,7","44,4","348,5","0"],
    [41860,"2018-11-09T14:00:00","40","14","46,5","2,8","197,4","32,4","43,4","199,2","0"],
    [41861,"2018-11-09T15:00:00","35","8","21,3","5,1","141,4","30,3","46,4","112,9","0"],
    [41862,"2018-11-09T16:00:00","39","8","24,3","7,9","197,7","29,4","53,2","235,2","0"],
    [41863,"2018-11-09T17:00:00","47","15","18,3","6,5","204,8","27,7","60,2","51,9","0"],
    [41864,"2018-11-09T18:00:00","38","5","14,7","4,1","201,6","27,8","59","10,7","0"],
    [41865,"2018-11-09T19:00:00","46","7","9,5","1,3","200,4","27,5","59,4","0","0"],
    [41866,"2018-11-09T20:00:00","48","10","9,8","2,5","335,3","27,1","62,9","0","0"],
    [41867,"2018-11-09T21:00:00","45","16","8,5","1,9","316,3","26,5","67,7","0","0"],
    [41868,"2018-11-09T22:00:00","31","3","8,8","2,2","327,4","25,8","70,8","0","0"],
    [41869,"2018-11-09T23:00:00","35","14","8,5","1,8","325,7","25,8","70","0","0"],
    [41870,"2018-11-10T00:00:00","43","9","7,1","1,7","323","25,6","72,6","0","0"],
    [41871,"2018-11-10T01:00:00","36","6","7,3","1,6","347,3","25,4","72,5","0","0"],
    [41872,"2018-11-10T02:00:00","52","7","5,9","2,3","257,5","25,1","74,5","0","0"],
    [41873,"2018-11-10T03:00:00","73","14","4,5","2,3","232","24,9","74,3","0","0"],
    [41874,"2018-11-10T04:00:00","62","8","5,1","2,1","232,2","24,8","75,3","0","0"],
    [41875,"2018-11-10T05:00:00","39","9","4,9","0,7","294,2","24,7","75,5","0","0"],
    [41876,"2018-11-10T06:00:00","64","17","5,1","1,7","268,5","25","74,1","0","0"],
    [41877,"2018-11-10T07:00:00","74","18","5,1","2","251,3","25,1","74,3","9,5","0"],
    [41878,"2018-11-10T08:00:00","103","24","5,5","2,4","224,4","25,5","72,5","43,8","0"],
    [41879,"2018-11-10T09:00:00","65","23","9","2","218,4","27,1","65,5","145,1","0"],
    [41880,"2018-11-10T10:00:00","36","14","22,8","1,2","256,3","29,9","53,2","335,7","0"],
    [41881,"2018-11-10T11:00:00","48","15","38,5","2,5","248","31,3","48,1","353,7","0"],
    [41882,"2018-11-10T12:00:00","28","12","56,5","1,4","184,7","32,7","42,1","437,1","0"],
    [41883,"2018-11-10T13:00:00","32","12","61,7","2,5","242,9","34,1","37,9","483,6","0"],
    [41884,"2018-11-10T14:00:00","35","12","63,8","3,1","241,5","34","38,4","329,5","0"],
    [41885,"2018-11-10T15:00:00","36","9","66,9","3,1","208,4","33,9","38,5","178,4","0"],
    [41886,"2018-11-10T16:00:00","49","11","50","4,1","185,6","32,6","42,4","51,9","0"],
    [41887,"2018-11-10T17:00:00","48","13","27,2","2,3","52,3","31,2","46","24,6","0"],
    [41888,"2018-11-10T18:00:00","82","17","11,6","2,2","28,3","30,4","49,3","5,6","0"],
    [41889,"2018-11-10T19:00:00","86","26","5,6","0,3","195,9","29,8","51,3","0","0"],
    [41890,"2018-11-10T20:00:00","90","31","5,7","2,9","261,5","28,4","57,9","0","0"],
    [41891,"2018-11-10T21:00:00","59","17","5,5","4","262,6","27,2","62,9","0","0"],
    [41892,"2018-11-10T22:00:00","72","21","6,3","3,3","218,7","26,7","65,1","0","0"],
    [41893,"2018-11-10T23:00:00","48","14","5,1","1,5","219,1","27","62,8","0","0"],
    [41894,"2018-11-11T00:00:00","35","10","6,3","2,1","260,1","26,7","64","0","0"],
    [41895,"2018-11-11T01:00:00","36","5","7,1","1,9","273,1","26,5","65,2","0","0"],
    [41896,"2018-11-11T02:00:00","29","9","6,4","0,8","348,6","26,2","67,9","0","0"],
    [41897,"2018-11-11T03:00:00","42","12","5,2","1,5","351,5","26,1","69,5","0","0"],
    [41898,"2018-11-11T04:00:00","46","10","4,6","1,2","256,6","25,6","71,8","0","0"],
    [41899,"2018-11-11T05:00:00","43","11","5,7","1,7","249,7","25,6","71,6","0","7,37"],
    [41900,"2018-11-11T06:00:00","22","9","5,1","2,1","256,2","24,2","81,8","0","11,43"],
    [41901,"2018-11-11T07:00:00","21","10","5,3","0,3","292,3","24,5","80,7","14,8","0"],
    [41902,"2018-11-11T08:00:00","28","18","5,7","1,1","276,1","25,6","77,1","37,9","0"],
    [41903,"2018-11-11T09:00:00","38","25","7","3,2","359,5","26","74,7","92,3","0,76"],
    [41904,"2018-11-11T10:00:00","32","17","12,6","3,2","354,6","27,3","68,1","176,9","0"],
    [41905,"2018-11-11T11:00:00","37","21","20,5","2,3","348,2","29,1","62,9","269,6","0"],
    [41906,"2018-11-11T12:00:00","29","11","39,5","1,4","319,3","30,9","53,5","382,2","0"],
    [41907,"2018-11-11T13:00:00","28","12","51,2","1,9","290,1","33,1","44,4","384,6","0"],
    [41908,"2018-11-11T14:00:00","30","10","54,8","2,7","276,1","33,4","42,2","360,9","0"],
    [41909,"2018-11-11T15:00:00","30","12","52,6","3,3","274,8","32,9","44,1","197","0"],
    [41910,"2018-11-11T16:00:00","36","16","63,2","1","189,4","32,1","46,3","56,7","0"],
    [41911,"2018-11-11T17:00:00","28","8","35,2","4,1","75,9","30,4","51,8","55,1","0"],
    [41912,"2018-11-11T18:00:00","38","10","20,7","3","74,1","30,6","51,5","14,2","0"],
    [41913,"2018-11-11T19:00:00","37","11","5,4","2,9","80,6","29,6","54,1","0","0"],
    [41914,"2018-11-11T20:00:00","27","8","5,6","2,7","105,2","29,2","52,8","0","0"],
    [41915,"2018-11-11T21:00:00","63","17","6,3","2,3","252,3","28,4","60,8","0","0"],
    [41916,"2018-11-11T22:00:00","65","14","5,8","4","234,8","27,4","65,4","0","0"],
    [41917,"2018-11-11T23:00:00","38","11","5,8","2,6","202,2","27,3","63,9","0","0"],
    [41918,"2018-11-12T00:00:00","34","7","7","1,6","223","26,7","65,9","0","0"],
    [41919,"2018-11-12T01:00:00","23","6","11,3","2,6","327,3","26,2","71","0","0"],
    [41920,"2018-11-12T02:00:00","15","4","17,5","2,3","352,4","25,6","72,2","0","0"],
    [41921,"2018-11-12T03:00:00","18","3","14,7","2,5","264,4","25,3","73,9","0","0"],
    [41922,"2018-11-12T04:00:00","18","3","15,1","0,9","310,6","25","73,7","0","0"],
    [41923,"2018-11-12T05:00:00","29","2","13,9","2,3","235,2","25","73,3","0","0"],
    [41924,"2018-11-12T06:00:00","40","7","12,2","1","253,1","25,1","71,6","0,1","0"],
    [41925,"2018-11-12T07:00:00","40","13","13,9","0,7","313,5","25,7","69,5","40","0"],
    [41926,"2018-11-12T08:00:00","44","15","20,7","1","245,7","27,5","63","124,1","0"],
    [41927,"2018-11-12T09:00:00","41","11","20,8","2,5","241,3","28,1","61,5","132,2","0"],
    [41928,"2018-11-12T10:00:00","38","15","30","1","64,7","29,2","57,3","175,6","0"],
    [41929,"2018-11-12T11:00:00","51","17","38,7","1,9","279,4","30,1","55,1","221,1","0"],
    [41930,"2018-11-12T12:00:00","41","17","45,9","2,5","292,6","31,6","49,7","258,8","0"],
    [41931,"2018-11-12T13:00:00","31","12","54,4","2,4","245,7","32","46,9","287,4","0"],
    [41932,"2018-11-12T14:00:00","37","12","51,3","2,8","266,2","31,9","47,1","163,6","0"],
    [41933,"2018-11-12T15:00:00","43","16","59,9","2,7","203,9","32","45,7","130,7","0"],
    [41934,"2018-11-12T16:00:00","45","20","41","3,6","214,3","31,9","46,1","102,9","0"],
    [41935,"2018-11-12T17:00:00","30","5","23","1,4","16,5","31,4","45,5","45,9","0"],
    [41936,"2018-11-12T18:00:00","47","12","13,3","0,7","215,4","30,6","48,9","6,4","0"],
    [41937,"2018-11-12T19:00:00","50","15","9,2","1,6","202,5","29,2","55,8","0","0"],
    [41938,"2018-11-12T20:00:00","59","19","5,7","2","243,6","28,2","60,4","0","0"],
    [41939,"2018-11-12T21:00:00","57","17","5,1","2,8","236,4","27","64,7","0","0"],
    [41940,"2018-11-12T22:00:00","43","14","5,2","1,5","244,4","26,3","66,1","0","0"],
    [41941,"2018-11-12T23:00:00","41","10","5,2","2,6","226,5","26","66,9","0","0"],
    [41942,"2018-11-13T00:00:00","33","8","5,1","1,2","156,6","25,3","68,9","0","0"],
    [41943,"2018-11-13T01:00:00","32","8","5,4","1,5","218,5","25,4","68,6","0","0"],
    [41944,"2018-11-13T02:00:00","31","6","5,4","1,4","197,3","25,3","68,5","0","0"],
    [41945,"2018-11-13T03:00:00","34","2","5,6","2,2","253,7","24,8","71,2","0","0"],
    [41946,"2018-11-13T04:00:00","34","4","5,2","0,9","159,3","24,9","71,3","0","0"],
    [41947,"2018-11-13T05:00:00","50","8","4,2","0,4","295,2","24,6","73,3","0","0"],
    [41948,"2018-11-13T06:00:00","64","15","5","1,3","29,5","24,6","73,8","0,1","0"],
    [41949,"2018-11-13T07:00:00","82","16","5,3","1,3","328,2","25,4","71,5","25,2","0"],
    [41950,"2018-11-13T08:00:00","87","23","5,5","1,8","233,2","25,8","71,1","69,6","0"],
    [41951,"2018-11-13T09:00:00","52","9","13,4","1,7","91,6","27,8","61,7","148,5","0"],
    [41952,"2018-11-13T10:00:00","68","20","23,2","0,7","267,7","30,1","53,6","198","0"],
    [41953,"2018-11-13T11:00:00","66","24","35,3","2,2","236,1","31,3","48,2","264,1","0"],
    [41954,"2018-11-13T12:00:00","47","13","48,1","2,7","259,7","32,5","43,9","369,1","0"],
    [41955,"2018-11-13T13:00:00","35","14","71,8","1","161,1","34,5","38,7","472,3","0"],
    [41956,"2018-11-13T14:00:00","42","12","61","3","159,2","33,8","39,6","220,5","0"],
    [41957,"2018-11-13T15:00:00","38","8","29,5","4,6","92,7","31,1","47,9","56,9","8,64"],
    [41958,"2018-11-13T16:00:00","19","9","17,3","3,6","37,4","26,1","71,9","13","2,29"],
    [41959,"2018-11-13T17:00:00","31","13","9","0,2","183,4","27,7","65,5","30","0"],
    [41960,"2018-11-13T18:00:00","66","18","6,5","2,1","242,9","27,6","67,2","4,8","0"],
    [41961,"2018-11-13T19:00:00","81","29","5,4","1,7","324,9","27,1","69,4","0","0"],
    [41962,"2018-11-13T20:00:00","57","18","5","2,5","357,3","26,9","70,3","0","0"],
    [41963,"2018-11-13T21:00:00","66","21","5,1","1,6","344,5","27,1","67,2","0","0"],
    [41964,"2018-11-13T22:00:00","70","22","5,2","2","255,1","26,6","69,6","0","0"],
    [41965,"2018-11-13T23:00:00","100","38","4,9","2,4","244","26,2","70,6","0","0"],
    [41966,"2018-11-14T00:00:00","56","23","5,5","2,9","233,6","25,7","70,5","0","0"],
    [41967,"2018-11-14T01:00:00","30","5","5,3","1,9","230,5","25,1","74","0","0"],
    [41968,"2018-11-14T02:00:00","31","8","7,3","2,1","216,1","25","74,3","0","0"],
    [41969,"2018-11-14T03:00:00","28","7","7,7","0,3","122,2","25,1","74,4","0","0"],
    [41970,"2018-11-14T04:00:00","36","7","7,6","0,8","137,9","25,4","72,7","0","0"],
    [41971,"2018-11-14T05:00:00","43","10","5,6","1,2","12,5","25,2","74,2","0","0"],
    [41972,"2018-11-14T06:00:00","61","20","5,3","2,2","22,1","25,3","73,8","0","0"],
    [41973,"2018-11-14T07:00:00","58","22","5,4","1,6","284","25,2","76,7","21,4","3,81"],
    [41974,"2018-11-14T08:00:00","32","27","7","1,5","278,3","26,1","72,7","104,7","0"],
    [41975,"2018-11-14T09:00:00","25","9","16","1,7","353,1","28,4","61,1","222,7","0"],
    [41976,"2018-11-14T10:00:00","35","14","30,7","1,7","320","31,1","52,4","379","0"],
    [41977,"2018-11-14T11:00:00","38","17","48,9","2,5","228,1","32,2","46,1","469,5","0"],
    [41978,"2018-11-14T12:00:00","43","13","59,9","3,1","200,1","33,2","41,6","407,1","0"],
    [41979,"2018-11-14T13:00:00","26","10","46,4","5,1","100,7","31,9","41,8","172,9","0"],
    [41980,"2018-11-14T14:00:00","21","6","45,6","6,5","96,7","32,9","38","408,1","0"],
    [41981,"2018-11-14T15:00:00","52","10","30,3","5,2","182,3","32,2","38,8","124,7","0"],
    [41982,"2018-11-14T16:00:00","33","8","18,5","5,8","219,4","28","60,4","28,8","0,51"],
    [41983,"2018-11-14T17:00:00","45","14","12,3","2,5","260,3","26,3","69,9","13,3","0,25"],
    [41984,"2018-11-14T18:00:00","48","16","14,7","5,3","12,2","25,4","72,6","0","0"],
    [41985,"2018-11-14T19:00:00","51","12","16,3","4,5","9,3","25,2","69,6","0","0"],
    [41986,"2018-11-14T20:00:00","48","14","13,3","3,5","10","25,4","70","0","0"],
    [41987,"2018-11-14T21:00:00","56","17","8","1,8","341","25,9","68","0","0"],
    [41988,"2018-11-14T22:00:00","69","25","5,9","1,8","259,4","25,8","69,9","0","0"],
    [41989,"2018-11-14T23:00:00","60","24","6,1","2,4","278,9","25","74,2","0","0"],
    [41990,"2018-11-15T00:00:00","41","7","7,7","0,3","245,8","24,7","75,2","0","0"],
    [41991,"2018-11-15T01:00:00","48","17","6,9","0,6","232,4","24,6","75,5","0","0"],
    [41992,"2018-11-15T02:00:00","28","13","11,3","1,3","325,6","24,7","74,4","0","0"],
    [41993,"2018-11-15T03:00:00","34","11","10,3","2","15,1","24,6","75,1","0","0"],
    [41994,"2018-11-15T04:00:00","34","9","6,4","0,9","286,6","24,3","76,2","0","0"],
    [41995,"2018-11-15T05:00:00","46","12","4,5","1","277,5","23,9","78","0","0"],
    [41996,"2018-11-15T06:00:00","89","26","5","1,3","241,1","23,7","79,3","0","0"],
    [41997,"2018-11-15T07:00:00","99","39","5,6","1,6","176,8","23,8","79,4","11,8","0"],
    [41998,"2018-11-15T08:00:00","136","55","6,3","2,2","232,5","24,9","75,3","97","0"],
    [41999,"2018-11-15T09:00:00","135","69","14,1","3,1","246,2","26,9","65,9","258,9","0"],
    [42000,"2018-11-15T10:00:00","84","47","32","3,3","272","29,6","54,5","369,2","0"],
    [42001,"2018-11-15T11:00:00","50","20","47,6","2,9","271,8","30,9","48,1","335,4","0"],
    [42002,"2018-11-15T12:00:00","54","28","76,9","2","249,4","32,3","43,3","419,8","0"],
    [42003,"2018-11-15T13:00:00","52","24","71,4","2,8","248,3","33,6","38,5","423,3","0"],
    [42004,"2018-11-15T14:00:00","45","20","74,8","2,5","243,6","34,4","36,9","353,4","0"],
    [42005,"2018-11-15T15:00:00","46","17","85,6","3,9","157","34,3","36,9","254,2","0"],
    [42006,"2018-11-15T16:00:00","57","11","31,9","5,3","149,5","32,7","40","94,2","0"],
    [42007,"2018-11-15T17:00:00","35","8","31","4,6","89,4","32,3","38,9","48,9","0"],
    [42008,"2018-11-15T18:00:00","34","8","23","5,3","85,3","30,5","43,9","0","0"],
    [42009,"2018-11-15T19:00:00","72","17","8,8","2,8","127","30","45,8","0","0"],
    [42010,"2018-11-15T20:00:00","92","30","6,1","2,7","265,2","28,7","53,5","0","0"],
    [42011,"2018-11-15T21:00:00","90","30","6,1","2,9","255,7","27,6","59,3","0","0"],
    [42012,"2018-11-15T22:00:00","70","28","7,5","2,2","219,3","27","60,7","0","0"],
    [42013,"2018-11-15T23:00:00","48","15","9,5","2,3","185,4","26,5","62,3","0","0"],
    [42014,"2018-11-16T00:00:00","74","32","7,4","1,7","243,6","26,4","63,3","0","0"],
    [42015,"2018-11-16T01:00:00","51","17","7,5","2,4","249,3","25,9","66,4","0","0"],
    [42016,"2018-11-16T02:00:00","32","6","10","0,3","225,2","25,7","67,3","0","0"],
    [42017,"2018-11-16T03:00:00","41","11","8,6","0,8","333,9","25,6","67,7","0","0"],
    [42018,"2018-11-16T04:00:00","38","18","5,5","1,2","298,5","25,5","69,5","0","0"],
    [42019,"2018-11-16T05:00:00","48","11","5,7","0,2","264,9","25,3","68,8","0","0"],
    [42020,"2018-11-16T06:00:00","76","26","5,6","1,3","279,2","25,4","68,8","0","0"],
    [42021,"2018-11-16T07:00:00","83","29","5,1","1,7","352,4","25,4","70,1","7,4","0"],
    [42022,"2018-11-16T08:00:00","75","17","7,5","0,7","25,7","26,3","65,6","38,1","0"],
    [42023,"2018-11-16T09:00:00","81","27","13,2","1","290,2","27,9","60,4","155,9","0"],
    [42024,"2018-11-16T10:00:00","58","15","27,3","2,7","313,9","30,3","52,8","303,4","0"],
    [42025,"2018-11-16T11:00:00","55","20","47,1","2,1","292,1","31,8","47,6","368,3","0"],
    [42026,"2018-11-16T12:00:00","55","21","66,7","2,6","324,8","33","43,4","381,9","0"],
    [42027,"2018-11-16T13:00:00","50","13","70,3","2,6","335,7","33,6","40,5","327,1","0"],
    [42028,"2018-11-16T14:00:00","58","18","79,8","2,3","335","34","40,2","316,9","0"],
    [42029,"2018-11-16T15:00:00","72","25","82,1","2,9","267,2","34,1","39,1","258,3","0"],
    [42030,"2018-11-16T16:00:00","56","17","88","2,3","264,5","34,2","37,7","179,5","0"],
    [42031,"2018-11-16T17:00:00","76","25","76,2","1,9","282,9","33,3","39,8","52,7","0"],
    [42032,"2018-11-16T18:00:00","54","11","40","4,8","75,5","31,7","43","5,4","0"],
    [42033,"2018-11-16T19:00:00","60","13","19","4,2","75,2","30,4","48","0","0"],
    [42034,"2018-11-16T20:00:00","64","20","11,4","1,1","259,1","29,3","54,2","0","0"],
    [42035,"2018-11-16T21:00:00","117","29","7,6","3,5","238,7","28","61,5","0","0"],
    [42036,"2018-11-16T22:00:00","85","32","7,7","1,7","224,5","28,3","59,3","0","0"],
    [42037,"2018-11-16T23:00:00","79","36","8,2","2,4","274,3","28,1","60","0","0"],
    [42038,"2018-11-17T00:00:00","45","6","6,9","1,2","301,8","27,3","63,2","0","0"],
    [42039,"2018-11-17T01:00:00","35","7","9","0,6","68,5","27,2","63,2","0","0"],
    [42040,"2018-11-17T02:00:00","48","17","6,4","1,9","235","27","64,6","0","0"],
    [42041,"2018-11-17T03:00:00","45","6","6,5","2,6","250,2","26,4","67,7","0","0"],
    [42042,"2018-11-17T04:00:00","39","17","7,3","1,5","159","26,2","68,5","0","0"],
    [42043,"2018-11-17T05:00:00","47","18","5,9","0,8","209,4","26,2","68,9","0","0"],
    [42044,"2018-11-17T06:00:00","67","29","5,2","1,4","287,6","25,6","72,3","0","0"],
    [42045,"2018-11-17T07:00:00","77","20","5,5","1,3","20,9","26,3","70,5","11,1","0"],
    [42046,"2018-11-17T08:00:00","85","28","7","1,2","270,8","27,1","67,6","49,8","0"],
    [42047,"2018-11-17T09:00:00","79","21","10","1,5","197,3","28,2","63,3","112,2","0"],
    [42048,"2018-11-17T10:00:00","75","21","32,8","2,1","37","30,6","53,8","289,9","0"],
    [42049,"2018-11-17T11:00:00","67","21","54,3","2","347,5","32,5","46,6","362","0"],
    [42050,"2018-11-17T12:00:00","67","26","79,5","2,7","310,4","34,7","40,3","462","0"],
    [42051,"2018-11-17T13:00:00","50","10","51,5","6,6","84,5","30,7","47,7","108,5","0"],
    [42052,"2018-11-17T14:00:00","22","8","50,5","3,1","102,4","32,4","44,2","342,4","0"],
    [42053,"2018-11-17T15:00:00","34","8","52,1","5,1","176,8","34,3","39,1","414,4","0"],
    [42054,"2018-11-17T16:00:00","55","18","36,3","8","240,3","31,6","50,4","177","0"],
    [42055,"2018-11-17T17:00:00","47","15","26,8","4,7","212,8","31,4","51,3","88,6","0"],
    [42056,"2018-11-17T18:00:00","63","18","18,7","3,4","254,3","30","56,3","6,4","0"],
    [42057,"2018-11-17T19:00:00","100","33","10,4","2,7","264,4","29,4","56,8","0","0"],
    [42058,"2018-11-17T20:00:00","65","22","9,1","2","184,8","28,6","60","0","0"],
    [42059,"2018-11-17T21:00:00","88","33","7,6","3,5","242,8","27,9","64,9","0","0"],
    [42060,"2018-11-17T22:00:00","79","28","6,9","3","265,3","27,3","66,4","0","0"],
    [42061,"2018-11-17T23:00:00","54","11","8,2","2,6","252,2","26,6","67,7","0","0"],
    [42062,"2018-11-18T00:00:00","49","10","8,3","2","244,9","26,9","65,7","0","0"],
    [42063,"2018-11-18T01:00:00","62","13","6,6","2,3","227,4","26","70,6","0","0"],
    [42064,"2018-11-18T02:00:00","41","18","6,8","2,2","170,3","25,6","72,1","0","0"],
    [42065,"2018-11-18T03:00:00","42","17","5,7","2,3","133","25,5","71,8","0","0"],
    [42066,"2018-11-18T04:00:00","32","10","8","2,1","140,9","25,6","70,2","0","0"],
    [42067,"2018-11-18T05:00:00","52","20","6,3","2,3","227,9","25,5","71,3","0","0"],
    [42068,"2018-11-18T06:00:00","35","12","6,4","2,6","180,3","25,4","71,4","0","0"],
    [42069,"2018-11-18T07:00:00","47","11","5,4","2,6","207,1","25","73,5","0","0"],
    [42070,"2018-11-18T08:00:00","55","20","6,7","1,4","214,6","25,6","71,2","34,3","0"],
    [42071,"2018-11-18T09:00:00","52","20","13,3","2,1","119,7","27,3","65,1","172,1","0"],
    [42072,"2018-11-18T10:00:00","61","32","39","1,6","37,4","30,3","54","353,5","0"],
    [42073,"2018-11-18T11:00:00","53","29","63","2,1","287,8","32,7","46,5","435,2","0"],
    [42074,"2018-11-18T12:00:00","49","21","75,6","2","278,4","34,1","41,5","455,2","0"],
    [42075,"2018-11-18T13:00:00","44","25","87,1","1,8","268,6","34,5","39,1","326,1","0"],
    [42076,"2018-11-18T14:00:00","50","22","84,8","3,5","155,9","34,4","39,5","287,9","0"],
    [42077,"2018-11-18T15:00:00","33","2","38,9","6,5","155,3","34","39,3","302","0"],
    [42078,"2018-11-18T16:00:00","25","2","31,8","5,6","165,6","33,7","38,3","198,2","0"],
    [42079,"2018-11-18T17:00:00","33","4","23,7","3,6","155,2","32,5","41,1","51,9","0"],
    [42080,"2018-11-18T18:00:00","51","8","27,1","3,1","342,6","29,9","50,4","0","0"],
    [42081,"2018-11-18T19:00:00","42","9","33,6","4,2","338,3","26,3","64,8","0","0"],
    [42082,"2018-11-18T20:00:00","33","12","26,1","3,5","302,9","25,3","67,1","0","0"],
    [42083,"2018-11-18T21:00:00","23","10","16,4","3","263,3","23,9","76,7","0","9,4"],
    [42084,"2018-11-18T22:00:00","17","9","16,4","2,1","173,2","23,6","80,3","0","13,46"],
    [42085,"2018-11-18T23:00:00","13","8","14,9","2,4","196,9","23,5","81,4","0","12,7"],
    [42086,"2018-11-19T00:00:00","8","5","21,2","2","147,3","23,4","80,5","0","2,03"],
    [42087,"2018-11-19T01:00:00","10","4","19,9","2,2","157,1","23,6","79,6","0","0"],
    [42088,"2018-11-19T02:00:00","18","10","12,7","0,9","313,8","23,9","78,7","0","0"],
    [42089,"2018-11-19T03:00:00","11","7","16,9","2,3","329,4","23,9","78,8","0","0"],
    [42090,"2018-11-19T04:00:00","20","6","18,5","1,9","350,5","23,7","78,7","0","0"],
    [42091,"2018-11-19T05:00:00","34","11","15,4","2","358,6","23,7","78,3","0","0"],
    [42092,"2018-11-19T06:00:00","38","18","11","0,9","313,5","23,7","77,3","0","0"],
    [42093,"2018-11-19T07:00:00","88","36","7,2","2,1","239,4","24,1","76,6","18","0"],
    [42094,"2018-11-19T08:00:00","69","30","11,3","2,9","203,4","25,3","72,4","71,5","0"],
    [42095,"2018-11-19T09:00:00","47","17","18,2","3","171,2","26","70","91,4","0"],
    [42096,"2018-11-19T10:00:00","39","12","28,9","3,3","166,6","26,9","66,2","145,7","0"],
    [42097,"2018-11-19T11:00:00","34","11","30,8","2,6","213,5","28,5","58,5","189,1","0"],
    [42098,"2018-11-19T12:00:00","32","11","40,6","3,4","211,2","29,4","54,3","278,9","0"],
    [42099,"2018-11-19T13:00:00","18","7","53,4","0,6","196,1","32,1","43,5","410,5","0"],
    [42100,"2018-11-19T14:00:00","20","4","52,9","1,6","203,3","32,6","39,6","340,6","0"],
    [42101,"2018-11-19T15:00:00","20","7","52,5","1,3","274,4","32,5","40,3","145","0"],
    [42102,"2018-11-19T16:00:00","31","12","49","2,5","308,4","32,2","42,1","118,9","0"],
    [42103,"2018-11-19T17:00:00","47","12","73,9","5,1","20,8","31,2","48","66,2","0"],
    [42104,"2018-11-19T18:00:00","51","20","67,5","3,5","41,3","29,9","51,5","4,1","0"],
    [42105,"2018-11-19T19:00:00","54","16","16,8","1,3","212,3","29,2","53,2","0","0"],
    [42106,"2018-11-19T20:00:00","60","22","11,7","3,2","222,8","27,5","63,9","0","0"],
    [42107,"2018-11-19T21:00:00","42","12","10,6","2,6","186,8","27,3","65,3","0","0"],
    [42108,"2018-11-19T22:00:00","53","9","7,6","0,5","276,1","26,8","68,7","0","0"],
    [42109,"2018-11-19T23:00:00","ND","6","16,3","3,9","44,5","24,7","77","0","38,86"],
    [42110,"2018-11-20T00:00:00","14","4","17,6","2,3","340,4","24,2","79,9","0","10,41"],
    [42111,"2018-11-20T01:00:00","8","3","20,3","1,9","294,7","24","79,8","0","5,08"],
    [42112,"2018-11-20T02:00:00","7","5","24,7","0,7","288,1","23,9","79,4","0","8,13"],
    [42113,"2018-11-20T03:00:00","10","3","23,5","0,9","17,9","24","79,7","0","3,05"],
    [42114,"2018-11-20T04:00:00","23","8","13,6","1,9","234,4","24,2","80,8","0","0"],
    [42115,"2018-11-20T05:00:00","44","24","8,9","1,5","191,4","24,2","80,4","0","0"],
    [42116,"2018-11-20T06:00:00","43","17","6,7","1","191,2","24,2","79,5","0","0"],
    [42117,"2018-11-20T07:00:00","57","32","6,3","1,8","211,3","24,4","78,7","10,7","0"],
    [42118,"2018-11-20T08:00:00","59","28","7,2","2,6","189,9","24,8","77,2","32,9","0"],
    [42119,"2018-11-20T09:00:00","74","26","10,9","2,2","237,3","26,2","71,3","130,5","0"],
    [42120,"2018-11-20T10:00:00","39","16","28,1","2,1","213,1","28,5","62","263,9","0"],
    [42121,"2018-11-20T11:00:00","31","17","43,9","1,8","219","30,8","52,3","400,8","0"],
    [42122,"2018-11-20T12:00:00","36","14","50,3","2,7","260,1","32,3","46,6","384,5","0"],
    [42123,"2018-11-20T13:00:00","28","14","73,4","1","188,6","32,6","44","368,2","0"],
    [42124,"2018-11-20T14:00:00","34","15","94,5","1,6","147,2","33,8","40,2","382,2","0"],
    [42125,"2018-11-20T15:00:00","35","19","104,9","1,5","115,8","34,2","39,7","280,1","0"],
    [42126,"2018-11-20T16:00:00","46","19","89,1","1,8","245,4","33,9","40,3","150,5","0"],
    [42127,"2018-11-20T17:00:00","77","27","49,3","2,8","257,4","32,8","44,2","27,5","0"],
    [42128,"2018-11-20T18:00:00","80","29","34","1,2","340,7","32","47,3","0","0"],
    [42129,"2018-11-20T19:00:00","52","14","7,1","3,7","63,4","30,6","47,6","0","0"],
    [42130,"2018-11-20T20:00:00","42","9","7,5","3,5","82,3","29,7","51,2","0","0"],
    [42131,"2018-11-20T21:00:00","62","13","6,9","2","238,8","28,5","59,1","0","0"],
    [42132,"2018-11-20T22:00:00","56","14","6,7","3,1","231,4","27,5","64,4","0","0"],
    [42133,"2018-11-20T23:00:00","36","9","7,9","2","199,4","27,2","66,1","0","0"],
    [42134,"2018-11-21T00:00:00","28","8","7,8","1,3","153,4","27,5","64,1","0","0"],
    [42135,"2018-11-21T01:00:00","37","9","7","0,8","178,1","27,4","64,5","0","0"],
    [42136,"2018-11-21T02:00:00","31","11","10,9","3,2","244","26,4","69,3","0","11,94"],
    [42137,"2018-11-21T03:00:00","10","6","17,9","2,1","254,8","23,9","80,6","0","16"],
    [42138,"2018-11-21T04:00:00","7","1","19,4","2,8","3,5","23,6","81,7","0","3,56"],
    [42139,"2018-11-21T05:00:00","8","2","24,9","2,9","337","23","82,5","0","3,56"],
    [42140,"2018-11-21T06:00:00","19","11","14,8","2,3","314,5","22,8","81,7","0","0,51"],
    [42141,"2018-11-21T07:00:00","12","10","12,8","1,7","333,3","22,9","81,3","0","0,51"],
    [42142,"2018-11-21T08:00:00","11","9","16,1","3,4","46,3","23,2","80","28,2","0"],
    [42143,"2018-11-21T09:00:00","17","8","20,5","3,2","56,3","25","73,6","101,1","0"],
    [42144,"2018-11-21T10:00:00","24","11","27","2,9","11,8","26,5","67,1","158,5","0"],
    [42145,"2018-11-21T11:00:00","21","8","34,1","1,6","329,2","28,2","59","238","0"],
    [42146,"2018-11-21T12:00:00","32","7","36,4","2,4","273,3","28,9","56,8","232,2","0"],
    [42147,"2018-11-21T13:00:00","31","12","38","2","293,5","29,4","55","212,1","0"],
    [42148,"2018-11-21T14:00:00","37","10","37,4","2,3","275","30,1","51,7","209,3","0"],
    [42149,"2018-11-21T15:00:00","51","21","43,3","3,1","250,6","29,8","54,1","217,2","0"],
    [42150,"2018-11-21T16:00:00","56","18","56,8","3,2","209","30,2","52,6","134","0"],
    [42151,"2018-11-21T17:00:00","41","16","42,7","2,8","161,5","30,4","51","103,5","0"],
    [42152,"2018-11-21T18:00:00","67","19","18,3","2","205,4","29,4","56","0","0"],
    [42153,"2018-11-21T19:00:00","60","17","5,9","0,8","107,8","28,9","51,9","0","0"],
    [42154,"2018-11-21T20:00:00","71","23","7","2","179,7","28,4","56,3","0","0"],
    [42155,"2018-11-21T21:00:00","44","1","6,8","2,4","167,6","27,3","60,7","0","0"],
    [42156,"2018-11-21T22:00:00","39","5","8","2,5","158,3","26,3","66,7","0","0"],
    [42157,"2018-11-21T23:00:00","58","16","7","2","229,8","25,8","70,9","0","0"],
    [42158,"2018-11-22T00:00:00","38","10","10,4","2,3","237,6","25,3","73","0","0"],
    [42159,"2018-11-22T01:00:00","31","7","10,8","2","262,3","25","73,7","0","0"],
    [42160,"2018-11-22T02:00:00","30","5","16,2","1,4","147","25,1","72,7","0","0"],
    [42161,"2018-11-22T03:00:00","25","3","13,9","2,6","218,2","25","73,3","0","0"],
    [42162,"2018-11-22T04:00:00","28","7","10,1","2","209,9","24,6","75,4","0","0"],
    [42163,"2018-11-22T05:00:00","48","12","6","2,1","214,6","24,4","76,9","0","0"],
    [42164,"2018-11-22T06:00:00","51","9","4,9","0,8","147,7","24,3","77,1","0","0"],
    [42165,"2018-11-22T07:00:00","87","23","5,6","1,5","207,7","24,7","76,1","15,6","0"],
    [42166,"2018-11-22T08:00:00","84","23","6,3","2,6","261,6","25,3","74,1","48,5","0"],
    [42167,"2018-11-22T09:00:00","59","17","12","1,3","272","27,4","65,9","181,1","0"],
    [42168,"2018-11-22T10:00:00","33","11","29,3","1,8","133,6","29,5","55,9","235,6","0"],
    [42169,"2018-11-22T11:00:00","37","19","43","2,9","223,5","30,9","50,4","381,5","0"],
    [42170,"2018-11-22T12:00:00","43","18","68,3","2,8","228,4","32,5","44,4","444","0"],
    [42171,"2018-11-22T13:00:00","41","20","84,8","3,2","211","33,4","41,4","409,3","0"],
    [42172,"2018-11-22T14:00:00","50","23","89,8","3","203,2","33,7","40,7","345,2","0"],
    [42173,"2018-11-22T15:00:00","41","13","71,6","5,1","178,1","33,8","40,6","272,7","0"],
    [42174,"2018-11-22T16:00:00","50","19","33,6","4,3","187,9","32,6","43,3","54,2","0"],
    [42175,"2018-11-22T17:00:00","60","21","25,5","4","154,5","32,3","42","63","0"],
    [42176,"2018-11-22T18:00:00","46","9","20,1","4,2","85,5","31,1","43,7","10,8","0"],
    [42177,"2018-11-22T19:00:00","40","9","9,8","4,1","97,2","30,2","45,8","0","0"],
    [42178,"2018-11-22T20:00:00","87","28","6,1","1,1","213,3","29,5","51,1","0","0"],
    [42179,"2018-11-22T21:00:00","54","19","7,1","2,8","255,7","27,6","60,6","0","0"],
    [42180,"2018-11-22T22:00:00","50","11","6,5","1,3","249,6","26,9","63,5","0","0"],
    [42181,"2018-11-22T23:00:00","56","13","6,1","2,9","12,7","26,8","65,5","0","0"],
    [42182,"2018-11-23T00:00:00","69","15","5,9","2","323","26,7","67","0","0"],
    [42183,"2018-11-23T01:00:00","42","11","5,6","2,1","262,2","25,9","68,9","0","0"],
    [42184,"2018-11-23T02:00:00","30","9","7","0,4","22,8","25,7","68","0","0"],
    [42185,"2018-11-23T03:00:00","36","12","5,8","0,6","307,9","25,7","70","0","0"],
    [42186,"2018-11-23T04:00:00","39","11","5,4","0,4","24,3","25,4","70,4","0","0"],
    [42187,"2018-11-23T05:00:00","49","10","6,7","1,5","288,6","25,6","72,3","0","0"],
    [42188,"2018-11-23T06:00:00","79","29","4,8","0,7","297,4","24,9","75,5","0","0"],
    [42189,"2018-11-23T07:00:00","68","17","5,7","2,1","7,4","25,5","72,7","31,1","0"],
    [42190,"2018-11-23T08:00:00","74","17","9,5","3,2","285,9","27,3","64,4","143","0"],
    [42191,"2018-11-23T09:00:00","150","48","12,7","2,2","269,3","27,5","63,5","98,9","0"],
    [42192,"2018-11-23T10:00:00","65","23","21,1","1,4","270,9","29,1","57,4","245,8","0"],
    [42193,"2018-11-23T11:00:00","56","18","40,7","2,9","194,4","31,1","49,9","414,3","0"],
    [42194,"2018-11-23T12:00:00","38","17","51,7","2,9","160","32,2","42,8","331,7","0"],
    [42195,"2018-11-23T13:00:00","30","8","50","3,7","183,6","32,3","41","294,7","0"],
    [42196,"2018-11-23T14:00:00","25","5","50,6","1,9","192","32,8","40,2","241,7","0"],
    [42197,"2018-11-23T15:00:00","20","8","55,1","1,3","240","33,2","40,2","148,8","0"],
    [42198,"2018-11-23T16:00:00","51","20","76,9","4,3","347,8","31,5","49,7","131,6","0"],
    [42199,"2018-11-23T17:00:00","56","18","81,9","4,1","355,9","31,5","47,3","91,9","0"],
    [42200,"2018-11-23T18:00:00","50","17","59","3,8","24,7","30,5","47,6","16,1","0"],
    [42201,"2018-11-23T19:00:00","45","8","10,7","3,8","87,6","29,5","49,1","0","0"],
    [42202,"2018-11-23T20:00:00","94","27","6","1,7","249,1","28,2","56,8","0","0"],
    [42203,"2018-11-23T21:00:00","46","14","6,7","3,4","242,9","27","62,9","0","0"],
    [42204,"2018-11-23T22:00:00","54","13","6,7","2,7","224,4","26,8","63,4","0","0"],
    [42205,"2018-11-23T23:00:00","45","13","6,3","1,7","179,1","27","61,4","0","0"],
    [42206,"2018-11-24T00:00:00","54","12","5,3","1,1","299,6","26,7","63,4","0","0"],
    [42207,"2018-11-24T01:00:00","26","7","7,5","2,3","262,7","26,1","64,9","0","0"],
    [42208,"2018-11-24T02:00:00","22","4","10,4","1,2","241,1","25,7","66,1","0","0"],
    [42209,"2018-11-24T03:00:00","23","6","8,7","0,9","47,7","25,3","68,6","0","0"],
    [42210,"2018-11-24T04:00:00","42","10","5,6","2,6","27,8","25,4","71,5","0","0"],
    [42211,"2018-11-24T05:00:00","46","11","5,1","1,3","345","25,7","70,4","0","0"],
    [42212,"2018-11-24T06:00:00","73","20","5,1","2,9","286,7","25,3","73,5","0","0"],
    [42213,"2018-11-24T07:00:00","66","17","5","0,4","30,4","25,6","71,7","14,8","0"],
    [42214,"2018-11-24T08:00:00","53","17","8,4","2","20,4","26,7","67,4","87,8","0"],
    [42215,"2018-11-24T09:00:00","66","16","14,7","1,3","75,5","28,5","60,1","127,5","0"],
    [42216,"2018-11-24T10:00:00","63","20","28,6","1,1","260,6","30,3","54,3","284,3","0"],
    [42217,"2018-11-24T11:00:00","47","13","39,9","3,4","253,7","32,3","45,4","443,1","0"],
    [42218,"2018-11-24T12:00:00","36","14","66,8","1,7","221,5","33,8","39,6","434,8","0"],
    [42219,"2018-11-24T13:00:00","50","17","90,1","2,8","28,6","33","42","200,2","0"],
    [42220,"2018-11-24T14:00:00","40","12","51,2","6,4","101,7","30,1","53,6","114,4","0"],
    [42221,"2018-11-24T15:00:00","28","11","37,8","3,7","116,6","31,6","47,2","154,1","0"],
    [42222,"2018-11-24T16:00:00","27","9","42,3","4,5","91","32","43,5","95,7","0"],
    [42223,"2018-11-24T17:00:00","17","5","25,1","6,1","89,6","31,7","43,7","113,4","0"],
    [42224,"2018-11-24T18:00:00","28","6","17,3","3,4","84","31,4","43,6","27,1","0"],
    [42225,"2018-11-24T19:00:00","40","6","7,4","4","74,4","30","46,7","0","0"],
    [42226,"2018-11-24T20:00:00","64","32","6,5","0,4","169,8","28,6","54,5","0","0"],
    [42227,"2018-11-24T21:00:00","75","28","5,9","2,4","268,4","27,8","60,1","0","0"],
    [42228,"2018-11-24T22:00:00","72","28","5,7","2,2","226,8","26,7","63,4","0","0"],
    [42229,"2018-11-24T23:00:00","84","34","5,4","2,4","216,7","25,7","67","0","0"],
    [42230,"2018-11-25T00:00:00","53","15","6,4","2,3","207,8","25,6","66,7","0","0"],
    [42231,"2018-11-25T01:00:00","56","12","5,4","0,7","203,6","25,1","68,9","0","0"],
    [42232,"2018-11-25T02:00:00","59","13","4,9","1,1","327,6","25,7","68","0","0"],
    [42233,"2018-11-25T03:00:00","52","13","5","2,1","243,7","25,3","70,3","0","0"],
    [42234,"2018-11-25T04:00:00","46","10","4,5","1,6","323,8","25,2","71,2","0","0"],
    [42235,"2018-11-25T05:00:00","41","9","4,8","1,9","21,3","25","71,7","0","0"],
    [42236,"2018-11-25T06:00:00","51","8","5,4","1,8","12,5","25,7","68,8","0","0"],
    [42237,"2018-11-25T07:00:00","38","16","5,7","2,1","314,4","25,2","73,7","8,7","0"],
    [42238,"2018-11-25T08:00:00","46","17","8","2,2","5,9","25,6","72","53","0"],
    [42239,"2018-11-25T09:00:00","35","18","11,5","2,3","357","27,5","65,1","171","0"],
    [42240,"2018-11-25T10:00:00","46","14","17,3","3","313,1","29,7","55,5","266,4","0"],
    [42241,"2018-11-25T11:00:00","35","11","29,1","1,9","292","31,8","48","440,7","0"],
    [42242,"2018-11-25T12:00:00","29","13","50,5","1,2","246,2","33,3","42,1","452,5","0"],
    [42243,"2018-11-25T13:00:00","35","12","62,3","2","231,4","34","39,7","438,1","0"],
    [42244,"2018-11-25T14:00:00","35","18","77,3","1,3","240,2","35","37,4","375","0"],
    [42245,"2018-11-25T15:00:00","43","22","103,9","2,5","177,9","34,7","38,3","251","0"],
    [42246,"2018-11-25T16:00:00","30","12","69,4","3,8","141","34,1","39,4","133,8","0"],
    [42247,"2018-11-25T17:00:00","23","7","30,7","5,8","81,4","33","39,5","64,6","0"],
    [42248,"2018-11-25T18:00:00","24","4","19,9","4,8","79,4","31,3","45","7,5","0"],
    [42249,"2018-11-25T19:00:00","27","4","13,5","4","91,4","30,4","47,8","0","0"],
    [42250,"2018-11-25T20:00:00","51","17","7,5","2,7","245","29,4","54,1","0","0"],
    [42251,"2018-11-25T21:00:00","49","16","6,9","3,7","219,4","28","60,7","0","0"],
    [42252,"2018-11-25T22:00:00","43","10","6","1,9","216,5","28,1","59,2","0","0"],
    [42253,"2018-11-25T23:00:00","39","7","5,6","1,1","101,7","27,4","62,3","0","0"],
    [42254,"2018-11-26T00:00:00","46","9","6,2","3,8","8,3","26,7","65,6","0","0"],
    [42255,"2018-11-26T01:00:00","40","13","7,2","2,9","347,9","26,9","65,9","0","0"],
    [42256,"2018-11-26T02:00:00","47","12","6,7","1,5","274,5","26,3","68,3","0","0"],
    [42257,"2018-11-26T03:00:00","45","9","5,7","1,1","200,2","26","68,8","0","0"],
    [42258,"2018-11-26T04:00:00","34","7","9,4","1,7","358,4","26,3","67,9","0","0"],
    [42259,"2018-11-26T05:00:00","46","7","7,1","2,6","340,6","25,7","74,2","0","0"],
    [42260,"2018-11-26T06:00:00","43","10","6,4","3,7","357,7","25,3","76","0","0"],
    [42261,"2018-11-26T07:00:00","31","11","9","2,8","344,3","25","74","0","1,02"],
    [42262,"2018-11-26T08:00:00","23","10","11,9","2,9","320,6","24,1","77,2","8,2","0,25"],
    [42263,"2018-11-26T09:00:00","26","11","11,9","2,3","299,5","24,1","77,7","24,9","1,27"],
    [42264,"2018-11-26T10:00:00","26","17","11,1","1,2","264,7","24,1","78,6","40,7","5,84"],
    [42265,"2018-11-26T11:00:00","28","12","15,5","2,1","197,5","25,2","74,8","138,5","0,51"],
    [42266,"2018-11-26T12:00:00","28","8","25","3,4","169,6","27,2","65,5","214","0"],
    [42267,"2018-11-26T13:00:00","37","11","23,3","3,3","201,9","27,7","61,9","157,9","0"],
    [42268,"2018-11-26T14:00:00","43","10","27,7","3,5","218,5","28,6","57,6","161,9","0"],
    [42269,"2018-11-26T15:00:00","40","10","27,8","5","210,5","28,5","57,6","123,1","0"],
    [42270,"2018-11-26T16:00:00","29","7","20,3","4,4","186,3","26,1","65,4","27,3","0"],
    [42271,"2018-11-26T17:00:00","26","9","16,2","3,6","148,7","25,1","72,9","10,4","0,76"],
    [42272,"2018-11-26T18:00:00","30","9","8,9","3","155,1","24,9","76,6","0","0,25"],
    [42273,"2018-11-26T19:00:00","30","10","6,2","0,6","6,6","24,8","77,1","0","3,05"],
    [42274,"2018-11-26T20:00:00","23","12","7,6","2,4","343,4","24,3","78,9","0","1,02"],
    [42275,"2018-11-26T21:00:00","17","8","10,1","3,1","3,1","24,2","78,3","0","1,52"],
    [42276,"2018-11-26T22:00:00","11","5","20,1","3,2","41","23","81,1","0","47,5"],
    [42277,"2018-11-26T23:00:00","6","2","14,8","2,7","52,9","23","81,4","0","7,37"],
    [42278,"2018-11-27T00:00:00","8","4","13,2","1,4","43,7","23,2","80,8","0","3,3"],
    [42279,"2018-11-27T01:00:00","7","4","13,2","0,6","316,6","23,4","80","0","0"],
    [42280,"2018-11-27T02:00:00","3","1","16,8","2,5","245,3","23,3","80,3","0","0,51"],
    [42281,"2018-11-27T03:00:00","10","ND","15,2","1,5","250,8","23,3","80,7","0","6,86"],
    [42282,"2018-11-27T04:00:00","6","3","16,9","0,7","332,9","23,2","80,6","0","12,45"],
    [42283,"2018-11-27T05:00:00","ND","3","24,6","1,5","9,3","23","80,5","0","8,89"],
    [42284,"2018-11-27T06:00:00","9","4","14,1","1,4","69,1","23,1","80,5","0","3,05"],
    [42285,"2018-11-27T07:00:00","14","6","6,7","2,2","38,9","23,3","79,8","0","0,25"],
    [42286,"2018-11-27T08:00:00","28","15","7,4","1,9","26,5","24,2","76","47,2","0"],
    [42287,"2018-11-27T09:00:00","35","22","11,7","2,5","291,8","25,6","70,1","135,7","0"],
    [42288,"2018-11-27T10:00:00","52","17","18","3,6","281,7","27,1","63,6","223,9","0"],
    [42289,"2018-11-27T11:00:00","29","10","30,6","1,8","314,9","28,5","57,4","257","0"],
    [42290,"2018-11-27T12:00:00","24","6","47,8","0,6","199,9","30,7","48,9","354,3","0"],
    [42291,"2018-11-27T13:00:00","39","17","47,8","2,7","224,1","30,4","49,2","299,6","0"],
    [42292,"2018-11-27T14:00:00","38","12","64,1","3,8","187,3","31","47,5","305,6","0"],
    [42293,"2018-11-27T15:00:00","48","16","56,9","4,9","207,9","30,8","49,4","249,2","0"],
    [42294,"2018-11-27T16:00:00","50","12","36,8","4,5","217,6","30,5","49,8","114,3","0"],
    [42295,"2018-11-27T17:00:00","48","14","17,7","3,6","199","29,5","52,4","39,2","0"],
    [42296,"2018-11-27T18:00:00","31","8","8,4","3,8","105,7","28,8","50,3","11,3","0"],
    [42297,"2018-11-27T19:00:00","43","7","6,6","2,9","116,8","28,1","52,3","0","0"],
    [42298,"2018-11-27T20:00:00","80","28","5,9","2","216,6","27,2","59","0","0"],
    [42299,"2018-11-27T21:00:00","65","13","5,4","1,5","214,4","26,4","64","0","0"],
    [42300,"2018-11-27T22:00:00","41","11","6,3","2","109,7","26,6","64,1","0","0"],
    [42301,"2018-11-27T23:00:00","27","15","13,8","0,7","324,1","24,7","75,6","0","49,02"],
    [42302,"2018-11-28T00:00:00","12","9","17,6","2,7","59,7","23,7","82","0","3,05"],
    [42303,"2018-11-28T01:00:00","13","6","12,9","1,4","54,9","24","81,2","0","0"],
    [42304,"2018-11-28T02:00:00","19","7","7,7","0,8","218,5","24,2","80,9","0","0"],
    [42305,"2018-11-28T03:00:00","22","11","10,2","2,2","199,9","24","80,6","0","0"],
    [42306,"2018-11-28T04:00:00","22","9","10,6","1,4","188,7","24,1","78,8","0","0"],
    [42307,"2018-11-28T05:00:00","20","13","9,3","0,6","103,8","24,2","77,9","0","0"],
    [42308,"2018-11-28T06:00:00","26","15","5,9","0,5","67,8","24,2","77,6","0","0"],
    [42309,"2018-11-28T07:00:00","42","27","5,6","0,2","317,8","24,5","77,6","4,2","0"],
    [42310,"2018-11-28T08:00:00","68","34","6,2","2,2","253,1","24,8","77,3","31,4","0"],
    [42311,"2018-11-28T09:00:00","72","29","8,7","2,1","233,4","25,9","72,7","118,5","0"],
    [42312,"2018-11-28T10:00:00","95","28","16","1,4","273,4","27,7","63","235,1","0"],
    [42313,"2018-11-28T11:00:00","63","25","27,9","3","265,1","29,3","54,6","336,1","0"],
    [42314,"2018-11-28T12:00:00","57","17","39,9","3","281","29,7","52,6","262,4","0"],
    [42315,"2018-11-28T13:00:00","62","23","42,3","3,3","266,7","29,7","51,8","223","0"],
    [42316,"2018-11-28T14:00:00","53","21","52,5","2,1","274,6","30,4","48,9","192,7","0"],
    [42317,"2018-11-28T15:00:00","63","29","63,3","2,1","244,8","30,6","48,4","202,9","0"],
    [42318,"2018-11-28T16:00:00","75","33","90","2","235,3","31,9","45,2","246,1","0"],
    [42319,"2018-11-28T17:00:00","99","38","75,2","2,8","223,3","31,2","48,1","84,4","0"],
    [42320,"2018-11-28T18:00:00","113","40","28,9","2,7","224,8","30,2","52,2","12,2","0"],
    [42321,"2018-11-28T19:00:00","86","29","19,5","1,6","167,5","29,4","55,6","0","0"],
    [42322,"2018-11-28T20:00:00","81","29","8,7","1","171,9","28,7","58,2","0","0"],
    [42323,"2018-11-28T21:00:00","62","17","3,8","1,7","57,6","27,8","58,2","0","0"],
    [42324,"2018-11-28T22:00:00","75","23","5,6","1,5","36,3","26,9","61,9","0","0"],
    [42325,"2018-11-28T23:00:00","83","32","4,9","1,2","325,8","25,8","68,4","0","0"],
    [42326,"2018-11-29T00:00:00","88","39","5","0,6","301,3","25,5","70,2","0","0"],
    [42327,"2018-11-29T01:00:00","99","38","4,8","0,4","251,1","25,3","71,4","0","0"],
    [42328,"2018-11-29T02:00:00","68","26","4,4","2,1","229","24,4","73,9","0","0"],
    [42329,"2018-11-29T03:00:00","40","15","4,6","1,5","245,1","24","74,9","0","0"],
    [42330,"2018-11-29T04:00:00","41","11","4,5","0,3","358,7","23,9","75,1","0","0"],
    [42331,"2018-11-29T05:00:00","69","17","4,5","1,7","221,2","24","74,6","0","0"],
    [42332,"2018-11-29T06:00:00","98","31","5,2","0,8","144,2","23,9","75,2","0","0"],
    [42333,"2018-11-29T07:00:00","143","38","5,1","1,8","231,5","24,2","74,3","21,2","0"],
    [42334,"2018-11-29T08:00:00","98","24","6,4","1,9","205","25,5","68,5","91,1","0"],
    [42335,"2018-11-29T09:00:00","75","17","19,4","1,4","65,9","27,8","59,4","214,8","0"],
    [42336,"2018-11-29T10:00:00","94","29","38,2","2,6","280,7","30,3","51,2","306,9","0"],
    [42337,"2018-11-29T11:00:00","84","28","55,9","2,4","268,6","31","48,9","315,7","0"],
    [42338,"2018-11-29T12:00:00","83","25","78,9","1,8","270,8","32,6","44,1","432,5","0"],
    [42339,"2018-11-29T13:00:00","74","29","91,8","3,2","246,3","33,6","40,8","447,1","0"],
    [42340,"2018-11-29T14:00:00","63","30","91,7","2,9","222,5","33","40,7","165,8","0"],
    [42341,"2018-11-29T15:00:00","66","26","81,3","3,6","163,4","32,3","43,5","95,5","0"],
    [42342,"2018-11-29T16:00:00","79","31","54,8","4,6","198,1","32,2","44,6","111,5","0"],
    [42343,"2018-11-29T17:00:00","80","23","38,4","7,4","215,1","29,8","53,3","52,1","0"],
    [42344,"2018-11-29T18:00:00","81","29","22,9","3,6","216,8","27,9","59,3","0","0"],
    [42345,"2018-11-29T19:00:00","73","26","13,9","2,4","224,5","27,4","61,8","0","0"],
    [42346,"2018-11-29T20:00:00","84","26","6,4","2,2","229,4","27,6","62,3","0","0"],
    [42347,"2018-11-29T21:00:00","75","19","6,2","1,7","352,5","27,4","63,8","0","0"],
    [42348,"2018-11-29T22:00:00","52","18","10,9","0,7","57,9","26,6","67,4","0","3,56"],
    [42349,"2018-11-29T23:00:00","38","21","5,9","0,5","44,1","25,1","78,6","0","4,06"],
    [42350,"2018-11-30T00:00:00","38","15","4,7","1,7","275,6","25,1","78,3","0","0,51"],
    [42351,"2018-11-30T01:00:00","43","20","5,3","0,3","123,9","24,6","78,8","0","0"],
    [42352,"2018-11-30T02:00:00","33","10","5,2","1,2","358,4","25","77,4","0","0"],
    [42353,"2018-11-30T03:00:00","18","8","5,6","1","339,8","25,2","75,7","0","0"],
    [42354,"2018-11-30T04:00:00","36","11","5,1","2,4","193,5","24,7","77,7","0","0"],
    [42355,"2018-11-30T05:00:00","43","10","4,7","2,2","217,6","24,6","77,6","0","0"],
    [42356,"2018-11-30T06:00:00","43","16","5,2","2,9","209","24,7","77,3","0","0"],
    [42357,"2018-11-30T07:00:00","28","10","4,8","2,4","173,9","24,2","77,2","4,2","0"],
    [42358,"2018-11-30T08:00:00","36","12","5,7","1,7","348,8","24,9","74,7","42,8","0"],
    [42359,"2018-11-30T09:00:00","33","10","8,7","3,1","29,2","25,8","71","110,9","0"],
    [42360,"2018-11-30T10:00:00","23","7","12,9","2,6","336,8","27,3","65,3","204,9","0"],
    [42361,"2018-11-30T11:00:00","35","15","17,8","2,3","276","28,3","59,5","199,7","0"],
    [42362,"2018-11-30T12:00:00","28","22","29,7","1,6","267,8","29,8","54,7","393,1","0"],
    [42363,"2018-11-30T13:00:00","31","14","41,3","1,2","146,5","30,5","49,6","215,1","0"],
    [42364,"2018-11-30T14:00:00","27","12","55","2,2","97,2","30,1","51,1","187,4","0"],
    [42365,"2018-11-30T15:00:00","45","10","65,5","1,9","203,5","31,5","47,5","268,4","6,86"],
    [42366,"2018-11-30T16:00:00","40","19","24,5","5,6","264,4","26,3","72,1","40,3","3,56"],
    [42367,"2018-11-30T17:00:00","68","26","13,3","3,1","269,3","26,8","67,8","33","0"],
    [42368,"2018-11-30T18:00:00","73","24","10,9","2","346,5","26,9","67,7","4,1","0"],
    [42369,"2018-11-30T19:00:00","54","20","8,7","3,2","348,7","26,7","67,1","0","0"],
    [42370,"2018-11-30T20:00:00","51","15","9,6","2,8","356,9","26,5","69,5","0","0"],
    [42371,"2018-11-30T21:00:00","59","22","8","2","320,4","26,4","70,5","0","0"],
    [42372,"2018-11-30T22:00:00","41","10","8","3,8","302,8","25,3","72,1","0","0"],
    [42373,"2018-11-30T23:00:00","21","7","10,5","2,8","313,2","24,5","72,7","0","0"],
    [42374,"2018-12-01T00:00:00","25","5","10,9","3,2","282,1","23,2","79","0","9,65"],
    [42375,"2018-12-01T01:00:00","12","7","13,3","2,4","290,1","22,4","82,5","0","8,38"],
    [42376,"2018-12-01T02:00:00","16","5","14,4","2,7","236,6","22,3","82,5","0","0,25"],
    [42377,"2018-12-01T03:00:00","3","2","15,1","2,7","238,7","22,4","82,3","0","0,76"],
    [42378,"2018-12-01T04:00:00","18","7","14,6","2,3","225,9","22,4","81,5","0","0"],
    [42379,"2018-12-01T05:00:00","18","6","12,1","0,7","117,4","22,5","79,9","0","0"],
    [42380,"2018-12-01T06:00:00","26","14","5,3","1,4","313,7","22,8","79,3","0","0"],
    [42381,"2018-12-01T07:00:00","23","12","8,4","2,2","344,4","23,1","78,9","5,7","0"],
    [42382,"2018-12-01T08:00:00","29","16","9","2","315,2","23,9","75,8","51,3","0"],
    [42383,"2018-12-01T09:00:00","24","7","17,1","1,7","19,1","25,4","67,8","170,5","0"],
    [42384,"2018-12-01T10:00:00","23","6","27,3","0,7","320,9","28,4","56,4","365,9","0"],
    [42385,"2018-12-01T11:00:00","24","8","30,2","2","212,7","28,9","53,5","315,1","0"],
    [42386,"2018-12-01T12:00:00","38","14","34,8","2,2","227,9","29,8","50,2","378,3","0"],
    [42387,"2018-12-01T13:00:00","19","10","43","2,2","233,8","31,8","43,4","465,6","0"],
    [42388,"2018-12-01T14:00:00","32","12","42,7","3,2","247,4","32,5","41,3","360,1","0"],
    [42389,"2018-12-01T15:00:00","46","15","40,4","3,6","159,4","31,3","45,9","143,1","0"],
    [42390,"2018-12-01T16:00:00","44","11","39,5","4,3","68,8","28,9","54,4","39,6","0"],
    [42391,"2018-12-01T17:00:00","43","16","31,4","2","59,4","29,3","51,3","43,7","0"],
    [42392,"2018-12-01T18:00:00","41","15","18,6","1,8","175,2","30","48,7","37,2","0"],
    [42393,"2018-12-01T19:00:00","50","22","9,7","0,5","335,7","28,8","53,3","0","0"],
    [42394,"2018-12-01T20:00:00","48","12","5,1","3,3","47,2","27,9","54,2","0","0"],
    [42395,"2018-12-01T21:00:00","62","12","6,7","3,1","24,9","27,1","60,7","0","0"],
    [42396,"2018-12-01T22:00:00","66","21","6,4","3,1","44,4","26,1","68,8","0","0"],
    [42397,"2018-12-01T23:00:00","89","27","5,1","1,3","311,2","25,8","68,7","0","0"],
    [42398,"2018-12-02T00:00:00","75","18","5","1","247,3","24,9","73,5","0","0"],
    [42399,"2018-12-02T01:00:00","94","35","4,7","0,3","38,8","24,9","73,3","0","0"],
    [42400,"2018-12-02T02:00:00","59","15","4,3","2,1","257,3","24,5","73,9","0","0"],
    [42401,"2018-12-02T03:00:00","40","10","6,1","1,4","331,3","24,3","73,7","0","0"],
    [42402,"2018-12-02T04:00:00","34","9","6,8","1,5","329,3","24,6","72","0","0"],
    [42403,"2018-12-02T05:00:00","29","9","5,4","1,5","309,1","24,4","72,8","0","0"],
    [42404,"2018-12-02T06:00:00","40","11","4,8","1,4","350,6","24,4","74","0","0"],
    [42405,"2018-12-02T07:00:00","54","14","5,5","1,5","313","24,8","72,4","14,3","0"],
    [42406,"2018-12-02T08:00:00","44","16","9,6","1,7","322,5","25,6","69,7","98,8","0"],
    [42407,"2018-12-02T09:00:00","38","15","16,5","1,5","327","27,2","62,9","174,8","0"],
    [42408,"2018-12-02T10:00:00","35","15","23,5","3","351,4","29,4","55,5","314","0"],
    [42409,"2018-12-02T11:00:00","32","14","36,6","2,5","329,9","31,7","46,2","451,3","0"],
    [42410,"2018-12-02T12:00:00","30","10","50,8","1,9","247,2","31,8","44,9","348","0"],
    [42411,"2018-12-02T13:00:00","30","13","63,4","4,6","140,2","32","44,2","348,5","0"],
    [42412,"2018-12-02T14:00:00","28","14","75,2","4,5","101,1","32,2","43,3","392,8","0"],
    [42413,"2018-12-02T15:00:00","16","8","43,4","3,7","142,4","33,2","38","328,9","0"],
    [42414,"2018-12-02T16:00:00","22","3","36,1","4,3","184,1","33,3","36,6","239,4","0"],
    [42415,"2018-12-02T17:00:00","21","4","28,7","4,3","174,5","32,6","37,6","118,3","0"],
    [42416,"2018-12-02T18:00:00","16","4","22,9","4,7","92,8","30,1","44,2","10,4","0"],
    [42417,"2018-12-02T19:00:00","48","15","10,8","1,7","185,2","28,8","50,2","0","0"],
    [42418,"2018-12-02T20:00:00","55","13","8,1","2,3","232,9","28,3","52,3","0","0"],
    [42419,"2018-12-02T21:00:00","34","9","7,3","1","171,8","27,4","58,1","0","0"],
    [42420,"2018-12-02T22:00:00","60","14","5,8","0,6","339,8","27,2","60","0","0"],
    [42421,"2018-12-02T23:00:00","47","12","5,3","2","346","26,3","66,6","0","0"],
    [42422,"2018-12-03T00:00:00","47","14","5,1","2","342","25,9","68,8","0","0"],
    [42423,"2018-12-03T01:00:00","33","10","6,2","1,8","343,1","26","67,2","0","0"],
    [42424,"2018-12-03T02:00:00","29","8","7,2","1,9","285,9","25,8","68,6","0","0"],
    [42425,"2018-12-03T03:00:00","28","6","7,7","1,8","341,4","25,3","71,6","0","0,51"],
    [42426,"2018-12-03T04:00:00","13","4","7,1","1,1","299,1","25,1","73,4","0","0"],
    [42427,"2018-12-03T05:00:00","33","7","5,1","1,4","245,3","24,9","74","0","0"],
    [42428,"2018-12-03T06:00:00","48","14","4,6","0,7","168,9","24,8","73,4","0","0"],
    [42429,"2018-12-03T07:00:00","85","29","5,2","1,2","185","25","72,4","10,1","0"],
    [42430,"2018-12-03T08:00:00","63","17","6,5","0,5","2,4","26,3","67,5","91,2","0"],
    [42431,"2018-12-03T09:00:00","74","23","11,8","2","155,9","28","60,2","155,2","0"],
    [42432,"2018-12-03T10:00:00","53","17","12,2","2,5","250","29,8","53,1","302,3","0"],
    [42433,"2018-12-03T11:00:00","25","9","25,7","1,5","321,8","31,1","46,3","355,1","0"],
    [42434,"2018-12-03T12:00:00","36","11","35,8","2,9","246,7","32,9","40,2","468,1","0"],
    [42435,"2018-12-03T13:00:00","38","18","49,9","2,9","251,5","33,5","38","416,5","0"],
    [42436,"2018-12-03T14:00:00","45","16","78,8","2,3","205","33,9","37,1","379,7","0"],
    [42437,"2018-12-03T15:00:00","57","24","93,2","2,4","184,5","33,9","37,8","214,3","0"],
    [42438,"2018-12-03T16:00:00","56","21","66,7","3,4","116,8","33,6","37,8","174","0"],
    [42439,"2018-12-03T17:00:00","37","7","28,9","6,7","80,6","32,2","38,1","70,3","0"],
    [42440,"2018-12-03T18:00:00","33","7","19,3","6,6","81,5","30,8","41,3","12,5","0"],
    [42441,"2018-12-03T19:00:00","49","10","10,2","4,6","103,8","29,5","47,1","0","0"],
    [42442,"2018-12-03T20:00:00","46","8","11,9","4,2","60,7","29,3","49","0","0"],
    [42443,"2018-12-03T21:00:00","61","17","14","5,1","14,5","27,9","54,7","0","0"],
    [42444,"2018-12-03T22:00:00","35","10","14,9","3,3","356,1","27,2","57,9","0","0"],
    [42445,"2018-12-03T23:00:00","36","11","12,3","2,8","357,4","26,6","61,4","0","0"],
    [42446,"2018-12-04T00:00:00","34","7","9,2","1,6","359,1","26,5","62,3","0","0"],
    [42447,"2018-12-04T01:00:00","23","4","8,3","1,1","348,8","26,4","63,4","0","0"],
    [42448,"2018-12-04T02:00:00","21","5","9,3","2,5","240,9","25,7","67,6","0","0"],
    [42449,"2018-12-04T03:00:00","25","7","9,6","2,6","272,9","25,6","68,3","0","0"],
    [42450,"2018-12-04T04:00:00","35","9","6,6","2,2","294,7","25,1","72,8","0","0"],
    [42451,"2018-12-04T05:00:00","53","8","6,1","2,7","352,8","24,6","76","0","0"],
    [42452,"2018-12-04T06:00:00","60","27","5,7","3,1","9,9","24,6","74,6","0","0"],
    [42453,"2018-12-04T07:00:00","66","20","5,6","2,8","1,7","24,8","73,8","11,5","0"],
    [42454,"2018-12-04T08:00:00","49","15","7,3","3,6","18,4","25,9","68,5","96,3","0"],
    [42455,"2018-12-04T09:00:00","45","14","11,6","2,5","345,4","28","60,8","194,9","0"],
    [42456,"2018-12-04T10:00:00","41","16","18,8","3,2","5","28,8","56,5","214,3","0"],
    [42457,"2018-12-04T11:00:00","39","12","26,9","1,6","17,3","29,5","51,7","189","0"],
    [42458,"2018-12-04T12:00:00","39","12","36,7","2,4","247,2","31,3","43,3","329,5","0"],
    [42459,"2018-12-04T13:00:00","ND","ND","53,9","2","281,2","32,1","40,6","312,4","0"],
    [42460,"2018-12-04T14:00:00","43","16","69,6","2,3","172,4","32","40,5","187,2","0"],
    [42461,"2018-12-04T15:00:00","75","19","77,6","3,5","196,1","32,4","40,7","197,4","0"],
    [42462,"2018-12-04T16:00:00","44","13","46,6","4,4","147","32,7","37,9","223,8","0"],
    [42463,"2018-12-04T17:00:00","51","10","24,3","4,9","138","31,9","39,1","110","0"],
    [42464,"2018-12-04T18:00:00","41","12","11,2","5,6","92,8","29,9","43,1","8,5","0"],
    [42465,"2018-12-04T19:00:00","47","7","8,1","3,2","108,3","28,9","47,6","0","0"],
    [42466,"2018-12-04T20:00:00","65","11","5,7","3,3","219,1","27,9","53,2","0","0"],
    [42467,"2018-12-04T21:00:00","55","13","6,3","3,4","219,5","27","57,6","0","0"],
    [42468,"2018-12-04T22:00:00","65","8","5","2,6","42,9","26,8","58,7","0","0"],
    [42469,"2018-12-04T23:00:00","50","18","5,1","1,5","245,2","26,8","57,4","0","0"],
    [42470,"2018-12-05T00:00:00","31","7","6,9","2,5","262","25,8","60,8","0","0"],
    [42471,"2018-12-05T01:00:00","19","3","7,8","0,9","155,8","25,4","61,4","0","0"],
    [42472,"2018-12-05T02:00:00","19","3","6,4","1,1","210,5","25,4","61,9","0","0"],
    [42473,"2018-12-05T03:00:00","23","5","7","3","261","24,7","65,6","0","0"],
    [42474,"2018-12-05T04:00:00","31","9","8","1,8","251,8","24,7","66,5","0","0"],
    [42475,"2018-12-05T05:00:00","39","8","6","0,8","313,7","25","65,3","0","0"],
    [42476,"2018-12-05T06:00:00","72","26","5,1","2,1","291,2","25,1","66,2","0","0"],
    [42477,"2018-12-05T07:00:00","64","13","5","2","277,4","24,7","68,6","14,6","0"],
    [42478,"2018-12-05T08:00:00","80","26","7,8","2,5","266,2","25,7","65,7","97,5","0"],
    [42479,"2018-12-05T09:00:00","67","13","14,1","2,5","339,2","27","59,8","120,4","0"],
    [42480,"2018-12-05T10:00:00","38","9","23,6","2,5","332,9","28,8","54,4","264,7","0"],
    [42481,"2018-12-05T11:00:00","39","17","37,1","2,6","342,3","29,7","48,7","212,4","0"],
    [42482,"2018-12-05T12:00:00","38","5","37,1","6,6","25,4","28,3","55,3","218,1","0"],
    [42483,"2018-12-05T13:00:00","28","3","42,9","4,2","3,5","30","46,4","251,6","0"],
    [42484,"2018-12-05T14:00:00","22","6","47,4","3","353,9","31,2","42,7","295,5","0"],
    [42485,"2018-12-05T15:00:00","21","5","48,4","4,2","34,1","30,3","43,3","139,8","0"],
    [42486,"2018-12-05T16:00:00","30","5","46,2","0,6","326,3","30,8","43,7","137,3","0"],
    [42487,"2018-12-05T17:00:00","42","11","26","4,1","205","31","43,2","123,4","0"],
    [42488,"2018-12-05T18:00:00","68","18","26","2,3","231","28,9","51","9,5","0"],
    [42489,"2018-12-05T19:00:00","49","10","10,7","2,3","132,1","28,3","49,6","0","0"],
    [42490,"2018-12-05T20:00:00","28","8","11,1","1,6","62","25,5","67,4","0","10,16"],
    [42491,"2018-12-05T21:00:00","25","12","9,6","3","349,1","24,4","76,6","0","0,25"],
    [42492,"2018-12-05T22:00:00","12","10","9,7","3,5","17,4","24","77,1","0","0,25"],
    [42493,"2018-12-05T23:00:00","21","6","10,9","2,7","343,5","23,9","78,2","0","0,25"],
    [42494,"2018-12-06T00:00:00","20","6","12,2","2,6","5,7","23,7","78,4","0","2,03"],
    [42495,"2018-12-06T01:00:00","10","4","14,8","1","139,8","23,3","79,1","0","41,91"],
    [42496,"2018-12-06T02:00:00","8","1","17,2","1,9","1,4","22,7","81,9","0","18,54"],
    [42497,"2018-12-06T03:00:00","5","1","17,4","3,5","5,2","22,6","81,8","0","3,3"],
    [42498,"2018-12-06T04:00:00","6","ND","19,2","2,8","18,8","22,8","80,5","0","0,51"],
    [42499,"2018-12-06T05:00:00","7","2","13,7","2,8","21","23,1","79,1","0","0"],
    [42500,"2018-12-06T06:00:00","15","8","8","2,5","27,7","23,4","76,9","0","0"],
    [42501,"2018-12-06T07:00:00","34","17","6,5","1,9","303","23,3","77,4","13,7","0"],
    [42502,"2018-12-06T08:00:00","19","7","10,8","1,6","325,7","23,8","75,7","48,9","0,25"],
    [42503,"2018-12-06T09:00:00","28","11","14,5","0,8","280,6","24,9","70,9","126,5","0"],
    [42504,"2018-12-06T10:00:00","36","17","24","0,4","49","27,9","58,5","300","0"],
    [42505,"2018-12-06T11:00:00","18","3","34,8","0,5","7,3","29,2","51,9","330,6","0"],
    [42506,"2018-12-06T12:00:00","18","6","55,2","1,2","134,7","30,2","47,3","375","0"],
    [42507,"2018-12-06T13:00:00","32","10","56,8","2,9","244,9","31,7","41,8","451,1","0"],
    [42508,"2018-12-06T14:00:00","26","9","49,3","2,4","213","32,6","40","410,9","0"],
    [42509,"2018-12-06T15:00:00","29","11","67,9","3,6","195,1","32,9","39,4","337,1","0"],
    [42510,"2018-12-06T16:00:00","38","14","71,8","3,6","147,1","32,6","41,1","174,6","0"],
    [42511,"2018-12-06T17:00:00","34","12","36,7","3,3","146,4","32","41,9","77,7","0"],
    [42512,"2018-12-06T18:00:00","66","33","15,3","4,1","74,3","30,5","44,3","10,7","0"],
    [42513,"2018-12-06T19:00:00","36","7","5,5","4,3","75,1","28,9","48,8","0","0"],
    [42514,"2018-12-06T20:00:00","86","32","6","2,3","250","27,5","57","0","0"],
    [42515,"2018-12-06T21:00:00","69","18","6,5","3,2","235,6","26,5","63,2","0","0"],
    [42516,"2018-12-06T22:00:00","56","16","6,7","3,8","226,8","26","64,1","0","0"],
    [42517,"2018-12-06T23:00:00","49","12","5,5","0,6","166,9","25,4","65,8","0","0"],
    [42518,"2018-12-07T00:00:00","47","8","5","2,2","7","25,2","67,7","0","0"],
    [42519,"2018-12-07T01:00:00","39","8","5,4","1","299,9","24,8","69","0","0"],
    [42520,"2018-12-07T02:00:00","34","10","5,9","1,7","342,5","24,9","69,7","0","0"],
    [42521,"2018-12-07T03:00:00","24","6","9","2,8","358,1","24,8","71,3","0","0"],
    [42522,"2018-12-07T04:00:00","12","7","18,1","3,8","25,2","24,5","72,2","0","0"],
    [42523,"2018-12-07T05:00:00","16","5","16,3","1,2","46,1","24","71,7","0","0"],
    [42524,"2018-12-07T06:00:00","50","20","6,8","2","306,3","23,9","73,8","0","0"],
    [42525,"2018-12-07T07:00:00","39","17","8,4","1,1","341,3","24,3","74,2","22,2","0"],
    [42526,"2018-12-07T08:00:00","67","26","11","1,5","284,3","25,8","68,4","90,4","0"],
    [42527,"2018-12-07T09:00:00","38","16","21,6","1,5","348","27","63","102,1","0"],
    [42528,"2018-12-07T10:00:00","51","20","29,8","1,6","172,9","28,5","58,1","265,7","0"],
    [42529,"2018-12-07T11:00:00","38","14","55,4","2,6","169,7","30,1","51,7","392,8","0"],
    [42530,"2018-12-07T12:00:00","32","12","53,4","3,6","226,1","31,5","46,1","419,7","0"],
    [42531,"2018-12-07T13:00:00","40","18","61,9","2,7","224,5","32,8","41,3","390,9","0"],
    [42532,"2018-12-07T14:00:00","33","13","75,6","2,7","173,1","32,7","41","304,6","0"],
    [42533,"2018-12-07T15:00:00","33","14","56,9","3","238,1","32,1","41,4","163,6","0"],
    [42534,"2018-12-07T16:00:00","36","12","72,6","1,4","196,1","33","37,7","193,7","0"],
    [42535,"2018-12-07T17:00:00","29","6","36","6,2","76,4","32,4","38,1","161,6","0"],
    [42536,"2018-12-07T18:00:00","29","3","17,4","3,8","81,4","30,2","44,1","16,4","0"],
    [42537,"2018-12-07T19:00:00","72","20","6,6","1,5","225,4","29","50,5","0","0"],
    [42538,"2018-12-07T20:00:00","82","26","6","3","232,6","28","53,7","0","0"],
    [42539,"2018-12-07T21:00:00","75","36","6,1","3,1","246,6","26,6","62,6","0","0"],
    [42540,"2018-12-07T22:00:00","93","46","4,9","0,9","3","26,8","61,9","0","0"],
    [42541,"2018-12-07T23:00:00","95","50","5,3","3,4","32,1","26,5","63,8","0","0"],
    [42542,"2018-12-08T00:00:00","70","27","6,3","2,3","356,7","26,7","62,9","0","0"],
    [42543,"2018-12-08T01:00:00","41","17","5,2","2,1","335,4","26,1","66,6","0","0"],
    [42544,"2018-12-08T02:00:00","39","12","4,9","1,5","324,2","25,6","69","0","0"],
    [42545,"2018-12-08T03:00:00","34","13","5,7","1,1","33,6","25,3","68,1","0","0"],
    [42546,"2018-12-08T04:00:00","39","8","6,1","1,4","282,4","24,9","70,3","0","0"],
    [42547,"2018-12-08T05:00:00","35","13","5,7","1,1","322,9","24,9","71,2","0","0"],
    [42548,"2018-12-08T06:00:00","48","18","4,9","1","303","24,8","71,8","0","0"],
    [42549,"2018-12-08T07:00:00","55","18","5,5","1,5","311,2","25","72,2","16","0"],
    [42550,"2018-12-08T08:00:00","61","18","7,7","0,4","327,4","25,8","68,4","70,4","0"],
    [42551,"2018-12-08T09:00:00","87","19","12,1","2","303,6","27,4","58,8","106,1","0"],
    [42552,"2018-12-08T10:00:00","53","11","28,4","2","49,9","29,2","52,7","325,1","0"],
    [42553,"2018-12-08T11:00:00","50","18","58,1","1,3","22,4","30,4","47,5","271,6","0"],
    [42554,"2018-12-08T12:00:00","60","25","84,1","1,9","215,3","32","42,9","364,9","0"],
    [42555,"2018-12-08T13:00:00","43","22","100,9","1,2","195,1","33,5","38,4","443,1","0"],
    [42556,"2018-12-08T14:00:00","51","20","115,6","2","192,8","33,7","36,7","292,3","0"],
    [42557,"2018-12-08T15:00:00","57","22","121,6","1,6","227,5","34,1","35,6","235,6","0"],
    [42558,"2018-12-08T16:00:00","64","22","70,2","1,4","240,8","33,1","38,6","79,9","0"],
    [42559,"2018-12-08T17:00:00","38","14","33,2","4,1","85,4","31,2","42,3","22,7","0"],
    [42560,"2018-12-08T18:00:00","36","10","25,6","4,7","86,2","30,2","45,7","6,1","0"],
    [42561,"2018-12-08T19:00:00","47","14","13,9","3,5","86,5","29,4","47,8","0","0"],
    [42562,"2018-12-08T20:00:00","47","13","11,1","1,1","159,6","28,6","52,2","0","0"],
    [42563,"2018-12-08T21:00:00","71","23","7,4","3,2","235,9","27,2","61","0","0"],
    [42564,"2018-12-08T22:00:00","67","21","6,8","2,5","224,1","26,4","63,7","0","0"],
    [42565,"2018-12-08T23:00:00","48","6","7,4","1,9","186,2","25,9","64,5","0","0"],
    [42566,"2018-12-09T00:00:00","56","20","6,1","2,2","237,9","26,3","62,6","0","0"],
    [42567,"2018-12-09T01:00:00","45","11","7,2","2,6","256","25,5","65,3","0","0"],
    [42568,"2018-12-09T02:00:00","43","16","8","1,4","146,5","24,9","67,3","0","0"],
    [42569,"2018-12-09T03:00:00","49","15","4,4","0,7","94,2","24,8","67,5","0","0"],
    [42570,"2018-12-09T04:00:00","46","12","5","2,6","244,3","24,6","69,4","0","0"],
    [42571,"2018-12-09T05:00:00","41","12","5,4","1,2","238","24","70,8","0","0"],
    [42572,"2018-12-09T06:00:00","52","13","4,5","1,5","250,2","23,8","71,5","0","0"],
    [42573,"2018-12-09T07:00:00","58","13","5,4","0,4","119,5","24,4","70","25,7","0"],
    [42574,"2018-12-09T08:00:00","59","20","12,6","2","12,1","26,4","64,7","107,7","0"],
    [42575,"2018-12-09T09:00:00","64","26","24,6","2,2","337,8","28,7","55,3","241,7","0"],
    [42576,"2018-12-09T10:00:00","51","13","40,5","1,8","341","30,4","50,7","339,9","0"],
    [42577,"2018-12-09T11:00:00","55","19","60,1","1,7","289,7","32","45,5","393","0"],
    [42578,"2018-12-09T12:00:00","35","14","70,3","2","245,3","33","41,7","481,7","0"],
    [42579,"2018-12-09T13:00:00","23","10","74,6","1,9","218,1","33,7","38,3","381,9","0"],
    [42580,"2018-12-09T14:00:00","35","15","80,7","2,4","216,8","34,4","36","399,7","0"],
    [42581,"2018-12-09T15:00:00","35","15","79,9","2,2","217,7","34,7","34,5","295","0"],
    [42582,"2018-12-09T16:00:00","38","12","67,1","3,7","227,2","34,8","33,6","217,8","0"],
    [42583,"2018-12-09T17:00:00","42","13","62,7","3,4","206,7","34,4","35,2","95","0"],
    [42584,"2018-12-09T18:00:00","42","13","52,7","4,8","88,3","32,3","41,5","20,3","0"],
    [42585,"2018-12-09T19:00:00","48","15","34,9","4,6","86,1","30,5","46,3","0","0"],
    [42586,"2018-12-09T20:00:00","52","18","22,5","1","108,1","29,4","51","0","0"],
    [42587,"2018-12-09T21:00:00","61","18","8,6","3,1","233,5","27,6","59,7","0","0"],
    [42588,"2018-12-09T22:00:00","70","16","6,4","2,7","217,5","26,9","62,1","0","0"],
    [42589,"2018-12-09T23:00:00","42","10","8,9","1,2","161,7","27,1","60,2","0","0"],
    [42590,"2018-12-10T00:00:00","44","9","7,2","1,4","153,8","26,6","62,6","0","0"],
    [42591,"2018-12-10T01:00:00","49","13","6,5","0,6","276,9","25,9","65,9","0","0"],
    [42592,"2018-12-10T02:00:00","43","8","7,2","1,4","299,6","25,4","68","0","0"],
    [42593,"2018-12-10T03:00:00","52","10","6,1","1,6","287,6","25,1","70,2","0","0"],
    [42594,"2018-12-10T04:00:00","49","20","6","1,2","316,4","24,4","74,1","0","0"],
    [42595,"2018-12-10T05:00:00","46","12","7,1","1,3","15","24,5","73,7","0","0"],
    [42596,"2018-12-10T06:00:00","83","30","5","1,5","251,7","24,2","73,9","0","0"],
    [42597,"2018-12-10T07:00:00","107","35","5,2","2","285,6","24,1","73,6","7,5","0"],
    [42598,"2018-12-10T08:00:00","97","27","8,1","1,4","341,8","25,7","68,5","77,9","0"],
    [42599,"2018-12-10T09:00:00","88","32","12,1","2,2","253,1","27","64,1","153","0"],
    [42600,"2018-12-10T10:00:00","60","19","35,8","1,7","331,4","30,3","50,9","327,6","0"],
    [42601,"2018-12-10T11:00:00","58","23","60,9","1,7","322,1","31,8","46,5","405,3","0"],
    [42602,"2018-12-10T12:00:00","73","28","70,4","3,4","243,9","32,8","42,9","401","0"],
    [42603,"2018-12-10T13:00:00","50","21","85,9","0,7","228,5","34,1","39,7","446,9","0"],
    [42604,"2018-12-10T14:00:00","52","26","107","3,8","186","34,6","37,5","436,8","0"],
    [42605,"2018-12-10T15:00:00","75","30","128,3","4,1","182,8","34,7","37,7","275,7","0"],
    [42606,"2018-12-10T16:00:00","65","30","95,8","3,5","171,3","34,3","38,5","178,7","0"],
    [42607,"2018-12-10T17:00:00","50","19","50,6","4","162,9","33,8","37,4","86,4","0"],
    [42608,"2018-12-10T18:00:00","48","9","22,2","5,8","86,1","31,3","43","7,1","0"],
    [42609,"2018-12-10T19:00:00","34","8","13,1","4,6","91,4","30,3","46,1","0","0"],
    [42610,"2018-12-10T20:00:00","80","20","6,7","2,1","210,7","28,9","53","0","0"],
    [42611,"2018-12-10T21:00:00","80","19","6,9","4,1","228,4","27","61,8","0","0"],
    [42612,"2018-12-10T22:00:00","63","19","8,1","2,4","215","27","60,5","0","0"],
    [42613,"2018-12-10T23:00:00","51","8","7,5","2,3","176,4","26,7","61,8","0","0"],
    [42614,"2018-12-11T00:00:00","52","16","6","1,3","284,5","25,8","65,6","0","0"],
    [42615,"2018-12-11T01:00:00","63","17","5,8","1,6","315,5","25,3","68,4","0","0"],
    [42616,"2018-12-11T02:00:00","48","9","7","2","6,1","25,2","68,5","0","0"],
    [42617,"2018-12-11T03:00:00","54","11","6,3","1,7","345,9","25,2","69,3","0","0"],
    [42618,"2018-12-11T04:00:00","66","14","4,8","1,8","222","24,5","72,4","0","0"],
    [42619,"2018-12-11T05:00:00","88","14","4,9","1,5","285,1","24,5","72,1","0","0"],
    [42620,"2018-12-11T06:00:00","96","26","5,1","1,1","338","24,2","72,9","0","0"],
    [42621,"2018-12-11T07:00:00","96","24","5,1","1,4","346,3","24,7","71","15,3","0"],
    [42622,"2018-12-11T08:00:00","89","ND","8,6","1,5","338,6","26,1","65,7","60,9","0"],
    [42623,"2018-12-11T09:00:00","112","ND","13,2","4,2","269,2","27,1","63,4","191","0"],
    [42624,"2018-12-11T10:00:00","85","ND","29,3","1,4","263,1","29,9","53,8","336,7","0"],
    [42625,"2018-12-11T11:00:00","108","ND","56,9","2,9","253,8","31,3","49,7","319,2","0"],
    [42626,"2018-12-11T12:00:00","80","ND","88,5","2,9","224,4","32,9","43,6","351,2","0"],
    [42627,"2018-12-11T13:00:00","63","ND","77,2","3","216,3","33,2","41,4","298,2","0"],
    [42628,"2018-12-11T14:00:00","68","ND","83","3,1","201,5","33,5","40,7","278,8","0"],
    [42629,"2018-12-11T15:00:00","57","ND","69,5","3,6","187,2","34","40","319,4","0"],
    [42630,"2018-12-11T16:00:00","63","17","37,6","4,6","233,8","33,6","40","148,1","0"],
    [42631,"2018-12-11T17:00:00","74","23","25,8","3,8","223,7","33","41,4","43,8","0"],
    [42632,"2018-12-11T18:00:00","49","7","23,5","4,5","71","31,8","41,5","7,9","0"],
    [42633,"2018-12-11T19:00:00","53","12","12,7","3","91,5","30,7","46,2","0","0"],
    [42634,"2018-12-11T20:00:00","49","8","9,7","2,6","80,2","30,2","47,8","0","0"],
    [42635,"2018-12-11T21:00:00","104","16","6,8","2,9","247,9","28","60,1","0","0"],
    [42636,"2018-12-11T22:00:00","68","14","6,3","2,4","216,3","27,1","61,3","0","0"],
    [42637,"2018-12-11T23:00:00","50","8","7,1","0,6","58,1","26,9","61,5","0","0"],
    [42638,"2018-12-12T00:00:00","63","12","5,3","0,7","325,6","27,1","61,8","0","0"],
    [42639,"2018-12-12T01:00:00","57","29","7,3","0,8","247","26,7","62","0","0"],
    [42640,"2018-12-12T02:00:00","64","23","7,2","2,4","259,5","26,4","64,7","0","0"],
    [42641,"2018-12-12T03:00:00","104","40","4,2","1,9","241,3","25,4","70,2","0","0"],
    [42642,"2018-12-12T04:00:00","88","31","4,8","0,5","305,1","25,6","67,6","0","0"],
    [42643,"2018-12-12T05:00:00","114","35","5,3","1,4","251,8","25,8","69","0","0"],
    [42644,"2018-12-12T06:00:00","110","34","5,1","1,6","238,5","25,8","67,9","0","0"],
    [42645,"2018-12-12T07:00:00","90","25","5,7","1,3","275,5","25,9","66,7","9,4","0"],
    [42646,"2018-12-12T08:00:00","112","29","7,2","2","319,6","26,9","66,3","64","0"],
    [42647,"2018-12-12T09:00:00","82","19","12,5","2,7","326,2","28,3","61","181","0"],
    [42648,"2018-12-12T10:00:00","61","23","33,3","2,7","331,5","30,9","50","302,4","0"],
    [42649,"2018-12-12T11:00:00","59","18","62,5","1,4","330,9","32,2","46","371,3","0"],
    [42650,"2018-12-12T12:00:00","69","21","70,1","2,7","276,3","33,2","41,9","471,6","0"],
    [42651,"2018-12-12T13:00:00","80","26","73,4","3,3","265,5","34,3","39,5","444,6","0"],
    [42652,"2018-12-12T14:00:00","78","24","84,7","2,9","237,3","34,5","37,5","307,7","0"],
    [42653,"2018-12-12T15:00:00","76","27","95,6","2,7","210,7","34,6","37,5","250,7","0"],
    [42654,"2018-12-12T16:00:00","80","30","102,8","3,1","180,2","34,1","39,1","72,5","0"],
    [42655,"2018-12-12T17:00:00","92","19","59,6","3,5","136,7","33,2","41","48,9","0"],
    [42656,"2018-12-12T18:00:00","50","8","27,4","5,9","86,2","31,6","43,6","11,2","0"],
    [42657,"2018-12-12T19:00:00","50","9","11,9","4,9","94,7","30,5","46,2","0","0"],
    [42658,"2018-12-12T20:00:00","93","19","7,8","1,6","167,8","29,5","51,6","0","0"],
    [42659,"2018-12-12T21:00:00","70","22","6,4","2","244,2","28","60,6","0","0"],
    [42660,"2018-12-12T22:00:00","69","13","19,2","2,7","320,3","27,8","59,5","0","0"],
    [42661,"2018-12-12T23:00:00","76","11","19,1","2,4","282,6","27,1","60,5","0","0"],
    [42662,"2018-12-13T00:00:00","41","7","20","1,9","322,2","26,1","63,2","0","0"],
    [42663,"2018-12-13T01:00:00","78","16","16,1","1,3","327,3","25,1","68,6","0","0"],
    [42664,"2018-12-13T02:00:00","34","6","18,5","1,5","351,9","25,4","66,1","0","0"],
    [42665,"2018-12-13T03:00:00","69","15","14,2","1,7","256,7","25,3","67,6","0","2,54"],
    [42666,"2018-12-13T04:00:00","36","12","11","1,9","319,6","23,9","79,8","0","12,19"],
    [42667,"2018-12-13T05:00:00","25","12","9","1,1","64,7","24,1","78,9","0","0"],
    [42668,"2018-12-13T06:00:00","52","17","5","1,7","325,9","24,1","77,9","0","0"],
    [42669,"2018-12-13T07:00:00","76","25","5,5","1,1","267","24,2","77,5","9,4","0,25"],
    [42670,"2018-12-13T08:00:00","72","26","6,8","0,5","182,1","26","71,2","81,7","0"],
    [42671,"2018-12-13T09:00:00","81","25","10,8","2,7","279,5","27,6","65,7","160,8","0"],
    [42672,"2018-12-13T10:00:00","44","13","30,5","2,5","346,5","29,5","56,3","256,9","0"],
    [42673,"2018-12-13T11:00:00","74","22","37,5","2,5","298,5","30,4","54,2","239","0"],
    [42674,"2018-12-13T12:00:00","78","25","43,1","3,4","267,7","30,7","52,6","189,5","0"],
    [42675,"2018-12-13T13:00:00","70","25","55,2","1,9","270,5","31,3","49,9","179","0"],
    [42676,"2018-12-13T14:00:00","76","27","60,3","2,9","249","32","47,1","216,2","0"],
    [42677,"2018-12-13T15:00:00","62","15","87,9","2,6","191,6","32,3","45,5","202,1","0"],
    [42678,"2018-12-13T16:00:00","81","30","71,5","2,6","183,4","31,9","46,6","81,2","0"],
    [42679,"2018-12-13T17:00:00","65","21","54,9","2,7","104,1","31,4","45,9","35,1","0"],
    [42680,"2018-12-13T18:00:00","38","9","17,1","4,3","70,8","30,7","44,4","9,3","0"],
    [42681,"2018-12-13T19:00:00","45","9","8,7","2","95,5","29,7","49,5","0","0"],
    [42682,"2018-12-13T20:00:00","76","23","7,2","2,9","246,1","28","60,2","0","0"],
    [42683,"2018-12-13T21:00:00","86","24","5,7","1,9","243,5","26,8","66,1","0","0"],
    [42684,"2018-12-13T22:00:00","72","18","6,2","2,3","238,8","26,8","63,5","0","0"],
    [42685,"2018-12-13T23:00:00","44","10","5,9","0,4","186,5","25,9","67,4","0","0"],
    [42686,"2018-12-14T00:00:00","58","11","5,1","1","329,8","26,2","65,5","0","0"],
    [42687,"2018-12-14T01:00:00","57","18","5,2","1,4","303,5","25,7","70,5","0","0"],
    [42688,"2018-12-14T02:00:00","49","14","5,4","1,7","258,4","25,1","73,4","0","0"],
    [42689,"2018-12-14T03:00:00","56","13","5,6","2,2","280","25,3","72,5","0","0"],
    [42690,"2018-12-14T04:00:00","48","12","6,1","1","288,3","25,3","72,9","0","0"],
    [42691,"2018-12-14T05:00:00","49","17","5,3","2,1","242,5","24,7","76,5","0","0,51"],
    [42692,"2018-12-14T06:00:00","41","10","5,3","1,8","213,4","24,1","77,6","0","1,52"],
    [42693,"2018-12-14T07:00:00","42","9","4,8","0,7","320,5","24,2","76,9","8,3","0"],
    [42694,"2018-12-14T08:00:00","49","24","6,6","1,7","314,5","25,5","73,2","64,8","0"],
    [42695,"2018-12-14T09:00:00","49","29","7,8","2,4","289,2","26,7","68","114,2","0"],
    [42696,"2018-12-14T10:00:00","ND","29","ND","2,2","311,8","28,1","62,3","195,5","0,25"],
    [42697,"2018-12-14T11:00:00","ND","ND","24,3","1,7","262,8","29,6","55,6","435,6","0,5"],
    [42698,"2018-12-14T12:00:00","52","20","45,1","1,8","302,8","31,1","49,6","624,9","0"],
    [42699,"2018-12-14T13:00:00","40","29","65,1","2","282,4","32,1","45,5","661","0"],
    [42700,"2018-12-14T14:00:00","57","25","65,5","3,3","255,7","31,4","47,4","382,2","0"],
    [42701,"2018-12-14T15:00:00","54","12","28,5","6,6","138,8","27,9","52,6","115,4","0"],
    [42702,"2018-12-14T16:00:00","48","12","25","3,5","132,8","27,3","58,8","146,7","0"],
    [42703,"2018-12-14T17:00:00","53","15","12,9","1,5","126,3","28,9","52,5","108,4","0"],
    [42704,"2018-12-14T18:00:00","96","32","8,8","1,4","273","28,4","57","31,2","0"],
    [42705,"2018-12-14T19:00:00","99","46","11,8","2,1","340,5","26,8","66,3","18,3","0"],
    [42706,"2018-12-14T20:00:00","ND","30","6,9","1,9","328,5","25,8","71,2","18,2","0"],
    [42707,"2018-12-14T21:00:00","ND","29","5,3","1,6","345,6","25,8","69,9","18,3","0"],
    [42708,"2018-12-14T22:00:00","ND","29","4,7","1,1","357,2","26,2","66,3","18,2","0"],
    [42709,"2018-12-14T23:00:00","ND","31","5,6","1,7","293,4","26","67,8","18,3","0"],
    [42710,"2018-12-15T00:00:00","ND","26","5,7","1,1","317,4","24,9","73,3","18,3","0"],
    [42711,"2018-12-15T01:00:00","ND","19","6,5","1,3","325,6","24,6","75,2","18,3","0"],
    [42712,"2018-12-15T02:00:00","ND","17","5,3","1,3","333,2","24,5","74,7","18,3","0"],
    [42713,"2018-12-15T03:00:00","ND","15","4,9","1,2","287,3","24,5","74,3","18,2","0"],
    [42714,"2018-12-15T04:00:00","ND","9","4,3","1,3","317","24,2","74,3","18,3","0"],
    [42715,"2018-12-15T05:00:00","ND","19","4,8","1,4","299,3","24,4","74,2","18,3","0"],
    [42716,"2018-12-15T06:00:00","ND","20","4,7","0,8","317,3","24,3","75,2","18,4","0"],
    [42717,"2018-12-15T07:00:00","ND","28","5","1,6","259,8","24,4","74,6","34,7","0"],
    [42718,"2018-12-15T08:00:00","ND","28","5","2,4","238,2","24,7","73,9","76,8","0"],
    [42719,"2018-12-15T09:00:00","ND","31","8,2","1,1","166,8","25,9","69,5","221,2","0"],
    [42720,"2018-12-15T10:00:00","ND","44","19,4","0,9","266,1","28,6","59","469,3","0"],
    [42721,"2018-12-15T11:00:00","ND","31","38,3","2,2","260,1","30,4","51,5","686,7","0"],
    [42722,"2018-12-15T12:00:00","ND","18","69,6","1,5","197,4","32,4","43,9","805,9","0"],
    [42723,"2018-12-15T13:00:00","ND","18","74,4","3,2","219,1","33","41,2","833,9","0"],
    [42724,"2018-12-15T14:00:00","ND","16","78,8","3,1","200","34,2","37,2","792,4","0"],
    [42725,"2018-12-15T15:00:00","ND","11","74,7","3,1","206,9","34,5","36,2","514","0"],
    [42726,"2018-12-15T16:00:00","ND","15","84,1","2,8","183,4","34,2","36,7","357,4","0"],
    [42727,"2018-12-15T17:00:00","ND","19","83,1","3,1","148,3","33,5","38,1","155,4","0"],
    [42728,"2018-12-15T18:00:00","ND","20","29,5","2,9","151,5","32,2","43,3","38,7","0"],
    [42729,"2018-12-15T19:00:00","ND","8","15,1","3,9","75,6","30,6","46,9","18,5","0"],
    [42730,"2018-12-15T20:00:00","ND","14","11","0,4","124","29,4","51,7","18,2","0"],
    [42731,"2018-12-15T21:00:00","ND","16","7,4","3","234,4","27,8","59","18,2","0"],
    [42732,"2018-12-15T22:00:00","ND","17","6,1","1,6","232,4","26,8","63,1","18,2","0"],
    [42733,"2018-12-15T23:00:00","ND","14","5,8","1,6","228,8","26,7","63,3","18,2","0"],
    [42734,"2018-12-16T00:00:00","ND","12","5","1,4","302,3","26,1","65,8","18,3","0"],
    [42735,"2018-12-16T01:00:00","ND","17","5,3","1,4","271,6","25,9","67,9","18,2","0"],
    [42736,"2018-12-16T02:00:00","ND","21","5,1","1,2","293,8","25,2","71,4","18,2","0"],
    [42737,"2018-12-16T03:00:00","ND","20","5,9","1,8","336,2","24,8","71,2","18,3","0"],
    [42738,"2018-12-16T04:00:00","ND","13","7,7","2","352,8","24,7","71,8","18,3","0"],
    [42739,"2018-12-16T05:00:00","ND","17","7,8","2,4","12,7","25","69,8","18,3","0"],
    [42740,"2018-12-16T06:00:00","ND","18","5,9","2","295,6","24,6","71,2","18,6","0"],
    [42741,"2018-12-16T07:00:00","ND","21","5,8","1,8","313,8","24,6","70,9","32,6","0"],
    [42742,"2018-12-16T08:00:00","ND","28","8,4","1,7","293,4","25,9","67,3","191,7","0"],
    [42743,"2018-12-16T09:00:00","ND","18","22,6","2,1","353","28,4","56,5","426,5","0"],
    [42744,"2018-12-16T10:00:00","ND","16","39","2","295,6","30,4","50","593,6","0"],
    [42745,"2018-12-16T11:00:00","ND","14","55,2","2,9","256,7","31,4","47,7","787,2","0"],
    [42746,"2018-12-16T12:00:00","ND","15","70,3","1,3","289,4","33,4","39,8","863","0"],
    [42747,"2018-12-16T13:00:00","ND","12","80,1","2,2","302","34,5","36,1","858,4","0"],
    [42748,"2018-12-16T14:00:00","ND","12","106","2,4","144,8","34,7","35,8","776,6","0"],
    [42749,"2018-12-16T15:00:00","ND","ND","111,9","3,7","171,5","35","34,6","562,5","0"],
    [42750,"2018-12-16T16:00:00","ND","ND","ND","ND","ND","ND","ND","ND","ND"],
    [42751,"2018-12-16T17:00:00","ND","10","51,2","3,3","137,3","34,1","36","247,4","0"],
    [42752,"2018-12-16T18:00:00","ND","9","40,6","5,1","77,9","32,2","39,2","58,6","0"],
    [42753,"2018-12-16T19:00:00","ND","7","29,3","5,1","90,5","30,5","44,2","18,5","0"],
    [42754,"2018-12-16T20:00:00","ND","16","12,9","2,2","153,6","29,6","48","18,2","0"],
    [42755,"2018-12-16T21:00:00","ND","14","7,4","3","244,8","27,4","59,2","18,3","0"],
    [42756,"2018-12-16T22:00:00","ND","14","6,7","1,9","245,1","26,7","62,3","18,3","0"],
    [42757,"2018-12-16T23:00:00","ND","14","6,1","1,3","4,5","26,8","61,8","18,3","0"],
    [42758,"2018-12-17T00:00:00","ND","26","6,2","1,4","301,5","26,4","63,6","18,3","0"],
    [42759,"2018-12-17T01:00:00","ND","14","6,7","2,3","12,2","25,5","67,2","18,3","0"],
    [42760,"2018-12-17T02:00:00","ND","11","6","1,9","346,5","25,4","68,6","18,4","0"],
    [42761,"2018-12-17T03:00:00","ND","13","5,8","1,7","294,7","24,9","71,2","18,4","0"],
    [42762,"2018-12-17T04:00:00","ND","13","5,2","1,5","320,1","24,6","72,1","18,4","0"],
    [42763,"2018-12-17T05:00:00","ND","22","5,1","1,1","348,8","24,3","71,3","18,4","0"],
    [42764,"2018-12-17T06:00:00","ND","20","5,1","1,3","298,9","24,5","71","18,6","0"],
    [42765,"2018-12-17T07:00:00","ND","25","5","1,1","296","24,6","71","37,5","0"],
    [42766,"2018-12-17T08:00:00","ND","29","8,3","1,4","292,5","25,8","67,5","222,8","0"],
    [42767,"2018-12-17T09:00:00","124","49","23,1","2,4","254,5","28,6","57","475,4","0"],
    [42768,"2018-12-17T10:00:00","99","41","46,6","2,6","260,2","30,1","50,7","626,1","0"],
    [42769,"2018-12-17T11:00:00","73","24","63,5","1,9","255,6","31,8","46,1","775,7","0"],
    [42770,"2018-12-17T12:00:00","44","19","81,3","1,9","177","32,9","40,5","772","0"],
    [42771,"2018-12-17T13:00:00","50","19","83,1","3","247,3","34,2","36","819,9","0"],
    [42772,"2018-12-17T14:00:00","48","16","114,4","1,4","171","35","32,8","766,9","0"],
    [42773,"2018-12-17T15:00:00","64","23","112,2","2,9","249","35,4","31,9","571,9","0"],
    [42774,"2018-12-17T16:00:00","79","25","90","2,2","147,9","34,5","33,8","265,6","0"],
    [42775,"2018-12-17T17:00:00","48","10","50,6","7,9","93,7","33,3","37,2","253,4","0"],
    [42776,"2018-12-17T18:00:00","49","8","29,1","7,2","83,7","31,5","40,9","60,3","0"],
    [42777,"2018-12-17T19:00:00","45","8","15,4","4,1","107,2","30,2","45,1","18,4","0"],
    [42778,"2018-12-17T20:00:00","70","17","9","3,4","236,9","28,8","52,3","18,1","0"],
    [42779,"2018-12-17T21:00:00","59","8","8,3","3,6","216,2","27,5","58,1","18,2","0"],
    [42780,"2018-12-17T22:00:00","54","14","7,6","2,5","199,7","27,5","56,9","18,2","0"],
    [42781,"2018-12-17T23:00:00","46","11","6,8","1,5","119,6","27","58","18,1","0"],
    [42782,"2018-12-18T00:00:00","38","6","9,4","1,8","241,8","26,5","60,7","18,2","0"],
    [42783,"2018-12-18T01:00:00","43","5","8,2","2,5","271,1","25,3","66","18,2","0"],
    [42784,"2018-12-18T02:00:00","37","6","9,8","1","284,2","25,1","66,7","18,3","0"],
    [42785,"2018-12-18T03:00:00","33","9","9,4","1,2","328","25,3","66,4","18,2","0"],
    [42786,"2018-12-18T04:00:00","41","15","8,2","0,2","164","25,3","67","18,2","0"],
    [42787,"2018-12-18T05:00:00","48","12","5,5","1","106,8","25,5","66,2","18,1","0"],
    [42788,"2018-12-18T06:00:00","52","15","4,8","0,4","38,6","25,7","65,3","18,4","0"],
    [42789,"2018-12-18T07:00:00","97","28","5,6","1,9","284,8","25,3","67,8","41,6","0"],
    [42790,"2018-12-18T08:00:00","141","37","8,3","1,9","288,9","26","66,8","233,3","0"],
    [42791,"2018-12-18T09:00:00","59","19","22,2","1,8","341,7","29","54,7","482,1","0"],
    [42792,"2018-12-18T10:00:00","68","16","32,3","2,4","326,1","30,5","48,6","632,4","0"],
    [42793,"2018-12-18T11:00:00","48","19","61,2","1,5","306,4","32,1","44","787,5","0"],
    [42794,"2018-12-18T12:00:00","73","26","77,1","3,1","245,5","32,6","42,2","708,8","0"],
    [42795,"2018-12-18T13:00:00","68","21","93,8","3","268,8","34","38,3","888,7","0"],
    [42796,"2018-12-18T14:00:00","61","22","108,2","2,1","224,2","34,6","35,6","609,6","0"],
    [42797,"2018-12-18T15:00:00","85","28","150,9","3,2","118,2","33,8","37","469","0"],
    [42798,"2018-12-18T16:00:00","99","37","133,4","2,7","130,5","33,7","35,7","260,4","0"],
    [42799,"2018-12-18T17:00:00","43","13","69,1","4","115,7","33,9","34,9","245,3","0"],
    [42800,"2018-12-18T18:00:00","35","10","31,2","5,6","87","31,9","39,6","53,5","0"],
    [42801,"2018-12-18T19:00:00","34","7","14,6","5,3","95","30,5","43,4","18,4","0"],
    [42802,"2018-12-18T20:00:00","70","12","6,6","1,7","176,7","29,7","47","18,2","0"],
    [42803,"2018-12-18T21:00:00","85","26","7","3,9","233","27,4","58,8","18,1","0"],
    [42804,"2018-12-18T22:00:00","60","16","7,7","2,4","228,4","27,1","59,1","18,1","0"],
    [42805,"2018-12-18T23:00:00","57","19","7,8","2","236,5","27","59,7","18,1","0"],
    [42806,"2018-12-19T00:00:00","47","12","6,5","1,8","323,3","26,5","62","18,2","0"],
    [42807,"2018-12-19T01:00:00","64","21","8","1,8","353,7","26,6","61,9","18,2","0"],
    [42808,"2018-12-19T02:00:00","66","28","6","2,6","258,3","26","65,6","18,1","0"],
    [42809,"2018-12-19T03:00:00","97","27","7,3","0,7","255,8","25,6","66,2","18,2","0"],
    [42810,"2018-12-19T04:00:00","83","31","6,3","1,3","27,6","25,4","67,3","18,1","0"],
    [42811,"2018-12-19T05:00:00","79","23","5,3","1,3","285,9","24,8","70","18,2","0"],
    [42812,"2018-12-19T06:00:00","141","40","6,1","1,8","276","24,4","71,9","18,4","0"],
    [42813,"2018-12-19T07:00:00","118","40","6,2","0,2","51","24,5","71,5","42,5","0"],
    [42814,"2018-12-19T08:00:00","151","55","9,3","1,5","291,3","26,4","64,6","194,2","0"],
    [42815,"2018-12-19T09:00:00","75","24","15,4","2,8","293,6","28,1","58,4","266,5","0"],
    [42816,"2018-12-19T10:00:00","118","42","31","2,4","292,2","29,3","53,7","435,5","0"],
    [42817,"2018-12-19T11:00:00","75","29","68,1","0,6","224,8","31,7","45,5","731,6","0"],
    [42818,"2018-12-19T12:00:00","76","28","99,7","2,1","207,3","33,4","39,5","853,2","0"],
    [42819,"2018-12-19T13:00:00","76","23","98,9","1,8","267,3","35,3","34,6","839,8","0"],
    [42820,"2018-12-19T14:00:00","ND","27","122,4","2","203","35,3","33,6","618,1","0"],
    [42821,"2018-12-19T15:00:00","98","35","146","1,6","230,5","35,5","32,8","523,5","0"],
    [42822,"2018-12-19T16:00:00","68","26","108,3","3,4","141","34,7","34,7","266,6","0"],
    [42823,"2018-12-19T17:00:00","58","9","53,8","6,6","91,9","33,2","37,6","202,3","0"],
    [42824,"2018-12-19T18:00:00","49","9","22,6","5,3","111,7","31,4","41,3","44,5","0"],
    [42825,"2018-12-19T19:00:00","76","17","16,3","1,9","124,7","30,4","45,6","18,2","0"],
    [42826,"2018-12-19T20:00:00","74","20","10,4","3,8","225,2","28","57,7","17,8","0"],
    [42827,"2018-12-19T21:00:00","73","16","7,4","2,2","231,4","27,8","56,5","17,9","0"],
    [42828,"2018-12-19T22:00:00","79","17","6,7","0,5","205","27,2","59,6","17,8","0"],
    [42829,"2018-12-19T23:00:00","71","16","5,3","1,3","273,7","27,1","60,8","17,8","0"],
    [42830,"2018-12-20T00:00:00","114","14","6,6","3,3","237,2","26,5","62,2","17,8","0"],
    [42831,"2018-12-20T01:00:00","47","9","8","1,9","241,4","26","64,3","17,9","0"],
    [42832,"2018-12-20T02:00:00","35","4","11,6","1,8","238","26","63,6","17,8","0"],
    [42833,"2018-12-20T03:00:00","38","7","11,8","1,1","284,6","26,4","62,4","17,8","0"],
    [42834,"2018-12-20T04:00:00","49","16","9,5","1,2","340,1","26","66,2","17,9","0"],
    [42835,"2018-12-20T05:00:00","58","9","7,2","1,2","358,6","25,9","66,4","17,9","0"],
    [42836,"2018-12-20T06:00:00","80","18","5","1,7","340,8","26,1","64,2","18,1","0"],
    [42837,"2018-12-20T07:00:00","104","21","6","2,4","277,4","25,8","67","34,3","0"],
    [42838,"2018-12-20T08:00:00","79","19","6,5","1,8","306","26,5","65,5","129,9","0"],
    [42839,"2018-12-20T09:00:00","69","18","14","1,7","315,8","29","54,9","345,1","0"],
    [42840,"2018-12-20T10:00:00","67","19","41,3","0,8","233,6","31,1","47,3","652,4","0"],
    [42841,"2018-12-20T11:00:00","78","14","53,7","4,5","255,7","32,1","44,9","767,2","0"],
    [42842,"2018-12-20T12:00:00","82","27","58,4","3,4","216,9","31,7","45,7","324,3","0"],
    [42843,"2018-12-20T13:00:00","78","25","96,7","1,1","157,7","33,4","40,3","714,2","0"],
    [42844,"2018-12-20T14:00:00","86","29","121,9","2,7","199,1","33,8","37,5","522,9","0"],
    [42845,"2018-12-20T15:00:00","71","25","126,9","3,4","144,9","33,8","37,2","318,2","0"],
    [42846,"2018-12-20T16:00:00","43","7","69,5","5,1","98,1","33,8","35,5","379,6","0"],
    [42847,"2018-12-20T17:00:00","43","4","41,4","8","89,2","32,4","36,9","213,3","0"],
    [42848,"2018-12-20T18:00:00","36","4","26,1","7,6","92,9","31,1","39,7","82,3","0"],
    [42849,"2018-12-20T19:00:00","34","3","12,5","4,6","114,9","30,4","41,9","18,4","0"],
    [42850,"2018-12-20T20:00:00","56","11","11,6","3,7","241,8","28,9","50,5","18,1","0"],
    [42851,"2018-12-20T21:00:00","61","12","16,7","1,6","47,9","27,6","58,4","18,1","0"],
    [42852,"2018-12-20T22:00:00","69","17","12,7","2,3","328,4","27,2","60,6","18,1","0"],
    [42853,"2018-12-20T23:00:00","37","5","10,2","1,8","220,7","26,2","65,5","18,1","0"],
    [42854,"2018-12-21T00:00:00","24","3","11,3","2","275,3","25,7","67,4","18,1","0"],
    [42855,"2018-12-21T01:00:00","22","2","12,6","1,2","332,8","25,6","67,6","18,1","0"],
    [42856,"2018-12-21T02:00:00","28","8","14,2","1","37,3","25,6","67,6","18,1","0"],
    [42857,"2018-12-21T03:00:00","40","15","12,2","1,7","314,8","25,6","68,1","18,1","0"],
    [42858,"2018-12-21T04:00:00","37","8","9,7","1,4","336,9","24,9","71,3","18,1","0"],
    [42859,"2018-12-21T05:00:00","52","12","6,8","1,1","319,1","25,1","71","18,1","0"],
    [42860,"2018-12-21T06:00:00","75","23","5,1","2,2","272,2","25,1","71,3","18,3","0"],
    [42861,"2018-12-21T07:00:00","119","31","5,1","2,3","224,6","24,9","72,3","33,3","0"],
    [42862,"2018-12-21T08:00:00","75","27","7,8","1,1","234,7","25,8","68,1","167,4","0"],
    [42863,"2018-12-21T09:00:00","45","14","21,8","0,8","146","28,3","57,7","407,1","0"],
    [42864,"2018-12-21T10:00:00","42","18","34,3","2","256,3","30,3","50,5","664,3","0"],
    [42865,"2018-12-21T11:00:00","50","17","45,1","1,8","239","31,5","45,5","659,3","0"],
    [42866,"2018-12-21T12:00:00","36","12","60,3","1,7","196,1","33,1","39,2","764,9","0"],
    [42867,"2018-12-21T13:00:00","35","7","62","2,6","205,6","34,3","36,1","804,4","0"],
    [42868,"2018-12-21T14:00:00","28","3","66","4,7","160,8","34,7","35,4","836,5","0"],
    [42869,"2018-12-21T15:00:00","28","5","60,4","5","155,7","33,7","37","460,2","0"],
    [42870,"2018-12-21T16:00:00","43","6","42","5,2","153,3","32,7","38,3","191,2","0"],
    [42871,"2018-12-21T17:00:00","52","13","31,1","3,7","159,4","31,8","39,9","74,4","0"],
    [42872,"2018-12-21T18:00:00","73","9","17,7","2,9","128,9","31,2","40,7","33,6","0"],
    [42873,"2018-12-21T19:00:00","64","23","27,9","3,6","0,8","29,3","48,7","18,4","0"],
    [42874,"2018-12-21T20:00:00","80","25","23,8","2,6","324,7","27,1","58,4","18,1","0"],
    [42875,"2018-12-21T21:00:00","58","21","15,4","3","289,9","26,3","61,5","18,1","0"],
    [42876,"2018-12-21T22:00:00","74","15","13,6","2,1","305,4","25,6","63","18,1","0"],
    [42877,"2018-12-21T23:00:00","76","22","10,2","0,5","209","25,5","65","18,1","0"],
    [42878,"2018-12-22T00:00:00","76","22","8,7","1,2","215","25,1","65,6","18,1","0"],
    [42879,"2018-12-22T01:00:00","53","15","9,9","1,5","239,2","24,8","66,4","18,2","0"],
    [42880,"2018-12-22T02:00:00","57","15","9,6","2,2","6,9","24,7","69","18","0"],
    [42881,"2018-12-22T03:00:00","60","18","5,7","1,7","280,1","24,1","72,9","18,1","0"],
    [42882,"2018-12-22T04:00:00","54","11","4,6","0,8","282,7","24,1","73,3","18,1","0"],
    [42883,"2018-12-22T05:00:00","77","20","4,3","1,8","241,6","24,7","71,1","18,1","0"],
    [42884,"2018-12-22T06:00:00","83","18","4,3","1,8","258,8","23,9","74,6","18,4","0"],
    [42885,"2018-12-22T07:00:00","87","24","4,9","1,4","305,4","24,5","73,1","27,5","0"],
    [42886,"2018-12-22T08:00:00","75","17","5,1","0,8","334,6","25,3","68,7","68,3","0"],
    [42887,"2018-12-22T09:00:00","113","25","9","0,2","249,5","26,8","63","182,3","0"],
    [42888,"2018-12-22T10:00:00","101","29","16","1,5","303,7","28,3","56,8","286","0"],
    [42889,"2018-12-22T11:00:00","58","15","35,9","1,9","21","29,7","50","459,7","0"],
    [42890,"2018-12-22T12:00:00","48","6","40,9","2,9","359,2","30,9","45,8","554,7","0"],
    [42891,"2018-12-22T13:00:00","39","8","45,2","2,1","327,2","31,7","42,4","541,5","0"],
    [42892,"2018-12-22T14:00:00","34","7","44,9","2,2","332,2","32,4","40,1","494,2","0"],
    [42893,"2018-12-22T15:00:00","37","6","46,1","2,5","257,1","32,5","38,9","448,5","0"],
    [42894,"2018-12-22T16:00:00","52","15","40,6","2,6","249,3","32,1","41","293,6","0"],
    [42895,"2018-12-22T17:00:00","99","25","39,4","3,5","225,6","31,6","42,1","133,8","0"],
    [42896,"2018-12-22T18:00:00","80","23","25,1","2,4","252,3","30,8","44,7","57,5","0"],
    [42897,"2018-12-22T19:00:00","71","19","16,7","1,5","53,5","29,7","46,5","18,6","0"],
    [42898,"2018-12-22T20:00:00","63","8","5","2,7","80,4","28,8","48,9","18,1","0"],
    [42899,"2018-12-22T21:00:00","56","9","4","2","93,8","28,3","50,7","18,1","0"],
    [42900,"2018-12-22T22:00:00","79","25","5,4","2,5","237,1","26,4","61,3","18,1","0"],
    [42901,"2018-12-22T23:00:00","72","12","4,5","1,8","237,1","25,7","64,1","18,1","0"],
    [42902,"2018-12-23T00:00:00","64","20","4,6","1,7","259,6","25,2","65,6","18,1","0"],
    [42903,"2018-12-23T01:00:00","127","47","4,8","2,3","354,6","24,6","68,9","18,1","0"],
    [42904,"2018-12-23T02:00:00","88","26","4,8","1,8","337,4","24,7","70,8","18,1","0"],
    [42905,"2018-12-23T03:00:00","51","12","5","1,4","321,7","24,7","71,6","18,1","0"],
    [42906,"2018-12-23T04:00:00","60","23","4,5","1,4","309,6","24","74,1","18","0"],
    [42907,"2018-12-23T05:00:00","70","21","4,4","1,3","252","24,3","72,1","18","0"],
    [42908,"2018-12-23T06:00:00","92","28","4,1","2,4","253,7","23,5","74,2","18,3","0"],
    [42909,"2018-12-23T07:00:00","83","30","4,4","0,6","312,4","23,7","73,1","43,2","0"],
    [42910,"2018-12-23T08:00:00","90","26","6,5","2","317,2","25","67,9","177,5","0"],
    [42911,"2018-12-23T09:00:00","92","24","14,8","1,9","326,7","27,5","60,4","384,7","0"],
    [42912,"2018-12-23T10:00:00","45","10","32,8","1,3","330,2","30,2","46,8","617,8","0"],
    [42913,"2018-12-23T11:00:00","47","7","46,7","2,3","284,9","31,6","40,2","760,6","0"],
    [42914,"2018-12-23T12:00:00","36","14","55,8","2,2","277","33","37","769","0"],
    [42915,"2018-12-23T13:00:00","44","16","68,7","2,2","251,3","34,2","35,5","867,4","0"],
    [42916,"2018-12-23T14:00:00","63","21","104,7","3","201,1","34,6","34,9","725,9","0"],
    [42917,"2018-12-23T15:00:00","48","19","103","2,3","181,7","34,6","34,4","468,5","0"],
    [42918,"2018-12-23T16:00:00","55","18","83,9","4","156","33,8","36,4","249,3","0"],
    [42919,"2018-12-23T17:00:00","41","15","65,2","3,3","140,6","33,9","35,9","229,8","0"],
    [42920,"2018-12-23T18:00:00","48","10","40,3","5,9","80,6","31,7","40,1","48,9","0"],
    [42921,"2018-12-23T19:00:00","44","16","25,9","4,8","80,2","30,5","43,2","18,5","0"],
    [42922,"2018-12-23T20:00:00","98","42","10","1,8","221,5","29,2","48,5","18,1","0"],
    [42923,"2018-12-23T21:00:00","61","21","7,4","3,4","263,4","27,2","58,4","18,1","0"],
    [42924,"2018-12-23T22:00:00","74","17","6,5","2,5","250,4","26,2","62,2","18,1","0"],
    [42925,"2018-12-23T23:00:00","58","13","5,8","2,7","265,1","25,9","63,6","18,2","0"],
    [42926,"2018-12-24T00:00:00","52","9","6,4","2,3","250,6","25,6","64,9","18,2","0"],
    [42927,"2018-12-24T01:00:00","35","7","6,1","0,5","285,6","25,4","65,5","18,1","0"],
    [42928,"2018-12-24T02:00:00","65","13","9,1","1,9","351","25,7","65,3","18,1","0"],
    [42929,"2018-12-24T03:00:00","60","16","12,8","3,1","0,2","25,8","65","18,1","0"],
    [42930,"2018-12-24T04:00:00","44","20","14,9","1,7","340,5","25,7","65,2","18,1","0"],
    [42931,"2018-12-24T05:00:00","56","24","8,5","1,5","329,5","24,8","70","18,2","0"],
    [42932,"2018-12-24T06:00:00","80","28","5,4","1,3","307,8","24,7","70","18,2","0"],
    [42933,"2018-12-24T07:00:00","99","40","5,9","1,7","295,8","24,9","69,2","43,7","0"],
    [42934,"2018-12-24T08:00:00","92","ND","8,4","1,4","328,5","26","66,3","122,9","0"],
    [42935,"2018-12-24T09:00:00","74","ND","17,2","2,2","310,5","28,1","57,5","304,5","0"],
    [42936,"2018-12-24T10:00:00","59","ND","37,5","1,2","354,7","30,6","48,9","606,1","0"],
    [42937,"2018-12-24T11:00:00","55","ND","61,1","1,8","189,3","32,1","43,2","721","0"],
    [42938,"2018-12-24T12:00:00","59","ND","74,9","1,5","245","33,4","39,5","853,4","0"],
    [42939,"2018-12-24T13:00:00","51","ND","76,6","2,4","241","34,1","36,9","565,2","0"],
    [42940,"2018-12-24T14:00:00","55","ND","70,1","4,2","247,7","33,4","37,9","353,3","0"],
    [42941,"2018-12-24T15:00:00","74","ND","71,2","4,2","269,3","33,1","41","369,1","0"],
    [42942,"2018-12-24T16:00:00","77","ND","75,7","3,4","289,7","33,5","40,5","266,6","0"],
    [42943,"2018-12-24T17:00:00","79","ND","65,1","2,3","287,5","32,8","41,4","116,5","0"],
    [42944,"2018-12-24T18:00:00","92","32","43,6","2,6","204,2","32","43,3","46,7","0"],
    [42945,"2018-12-24T19:00:00","56","15","25","2,9","93,5","31","43,5","18,3","0"],
    [42946,"2018-12-24T20:00:00","67","20","13,2","2,6","145,7","30,3","46,8","18","0"],
    [42947,"2018-12-24T21:00:00","77","23","9,7","2,9","233,4","28,4","56","18,1","0"],
    [42948,"2018-12-24T22:00:00","63","23","7,8","3,1","252,6","26,8","62,6","18,1","0"],
    [42949,"2018-12-24T23:00:00","61","17","7,9","3,3","213,9","26,7","63,3","18,1","0"],
    [42950,"2018-12-25T00:00:00","60","22","7,7","1,6","220,3","27","61,2","18,1","0"],
    [42951,"2018-12-25T01:00:00","43","13","9,6","1,4","278,3","26,8","61,8","18","0"],
    [42952,"2018-12-25T02:00:00","69","23","7,7","1,4","341,3","26,8","62,5","18,1","0"],
    [42953,"2018-12-25T03:00:00","59","18","7,4","1,2","332,4","26,5","64,6","18,1","0"],
    [42954,"2018-12-25T04:00:00","61","18","6,7","1,5","342,9","26","66,3","18","0"],
    [42955,"2018-12-25T05:00:00","61","28","6,7","1,1","316,2","25,8","69,6","18,1","0"],
    [42956,"2018-12-25T06:00:00","72","21","4,8","2,6","281,6","25,1","72,8","18,2","0"],
    [42957,"2018-12-25T07:00:00","67","25","5,6","1,3","297,2","25,2","71,6","60,8","0"],
    [42958,"2018-12-25T08:00:00","67","22","8","2,6","275,2","26,2","67,7","184,8","0"],
    [42959,"2018-12-25T09:00:00","53","14","16,7","2","328,3","28,7","55","324,5","0"],
    [42960,"2018-12-25T10:00:00","44","15","31,9","2,3","314,3","30,2","48,9","572,6","0"],
    [42961,"2018-12-25T11:00:00","38","11","56,7","1,3","345,3","33","40,2","773,4","0"],
    [42962,"2018-12-25T12:00:00","34","14","72,5","2,4","278,3","34,6","36,6","946,3","0"],
    [42963,"2018-12-25T13:00:00","42","10","73,4","2,5","234,5","35,3","35,3","921,8","0"],
    [42964,"2018-12-25T14:00:00","39","16","84,2","3,8","209","35,3","34,3","678,3","0"],
    [42965,"2018-12-25T15:00:00","44","16","94,6","4,4","173,7","35,5","33,3","667,7","0"],
    [42966,"2018-12-25T16:00:00","21","3","62","5,2","164,4","34,9","36,2","429","0"],
    [42967,"2018-12-25T17:00:00","38","8","37,6","4,9","210,6","34,4","37,1","220,8","0"],
    [42968,"2018-12-25T18:00:00","25","8","31,6","3,4","160","33,2","38,2","69,4","0"],
    [42969,"2018-12-25T19:00:00","46","10","24,5","2,5","104,4","31,3","42,7","18,7","0"],
    [42970,"2018-12-25T20:00:00","55","18","15,2","2","111,6","30,2","46","18","0"],
    [42971,"2018-12-25T21:00:00","95","31","7,1","2,7","238,1","28,7","52,1","18,1","0"],
    [42972,"2018-12-25T22:00:00","74","15","5,8","3,4","248,2","26,7","61,9","18","0"],
    [42973,"2018-12-25T23:00:00","59","22","8,8","2,5","182,4","26,9","60,8","18","0"],
    [42974,"2018-12-26T00:00:00","44","9","6,7","2,1","221,2","26,7","60,6","18,1","0"],
    [42975,"2018-12-26T01:00:00","46","8","6,4","1,8","229,2","26,1","60","18,1","0"],
    [42976,"2018-12-26T02:00:00","50","8","5,4","2,4","271,7","25,7","64,8","18,1","0"],
    [42977,"2018-12-26T03:00:00","55","9","4,6","1,8","330,5","25,1","70,4","18,1","0"],
    [42978,"2018-12-26T04:00:00","68","17","5","1,1","325","25","70","18,1","0"],
    [42979,"2018-12-26T05:00:00","67","19","5,5","1,8","283,4","24,9","68,5","18,1","0"],
    [42980,"2018-12-26T06:00:00","95","23","4,7","1,9","303,2","23,9","66,6","18,3","0"],
    [42981,"2018-12-26T07:00:00","65","17","6,1","1,2","304,8","24,2","61,6","64,6","0"],
    [42982,"2018-12-26T08:00:00","80","23","8,8","2,9","262,6","25,4","59,5","254,3","0"],
    [42983,"2018-12-26T09:00:00","55","14","17,3","2","244,9","28,2","51,5","455,4","0"],
    [42984,"2018-12-26T10:00:00","57","17","30,9","3","256,9","30,5","42,8","631,3","0"],
    [42985,"2018-12-26T11:00:00","56","12","46,5","2,7","266,6","32,6","38,1","782,5","0"],
    [42986,"2018-12-26T12:00:00","47","11","65","2,7","281,2","34,4","32,4","843,5","0"],
    [42987,"2018-12-26T13:00:00","56","17","80,1","2,8","258","35,4","31,4","824,4","0"],
    [42988,"2018-12-26T14:00:00","49","14","100,8","2,8","185","35,3","32,1","722,9","0"],
    [42989,"2018-12-26T15:00:00","51","16","94,4","3,3","187,4","35,5","32,7","503,8","0"],
    [42990,"2018-12-26T16:00:00","53","17","75,5","4,8","175,2","34,5","37,2","344,5","0"],
    [42991,"2018-12-26T17:00:00","37","8","38,5","4","173,8","34","38,6","218","0"],
    [42992,"2018-12-26T18:00:00","58","12","31,4","2,5","124,2","32,6","40,6","56,4","0"],
    [42993,"2018-12-26T19:00:00","62","16","16,7","3,1","132,1","31","43,8","18,8","0"],
    [42994,"2018-12-26T20:00:00","101","ND","10,8","2,5","177","29,6","48,2","18","0"],
    [42995,"2018-12-26T21:00:00","68","23","7,6","3,2","237,5","27,6","56,7","18,1","0"],
    [42996,"2018-12-26T22:00:00","77","15","6,5","3,1","231,1","26,8","59,1","18","0"],
    [42997,"2018-12-26T23:00:00","60","14","6,6","2,2","224,7","26,7","58,6","18,1","0"],
    [42998,"2018-12-27T00:00:00","80","13","5,5","1,3","236,5","26","61,7","18","0"],
    [42999,"2018-12-27T01:00:00","47","10","6,4","2,3","262,5","25,5","63,8","18,1","0"],
    [43000,"2018-12-27T02:00:00","60","14","6,1","1,8","277,8","25,3","65,5","18,1","0"]
]}
